<?xml version="1.0" encoding="UTF-8"?>
<gpx version="1.1" creator="https://www.youtrack.es" xsi:schemaLocation="http://www.topografix.com/GPX/1/1 http://www.topografix.com/GPX/1/1/gpx.xsd http://www.garmin.com/xmlschemas/GpxExtensions/v3 http://www.garmin.com/xmlschemas/GpxExtensionsv3.xsd http://www.garmin.com/xmlschemas/TrackPointExtension/v1 http://www.garmin.com/xmlschemas/TrackPointExtensionv1.xsd" xmlns:gpxtpx="http://www.garmin.com/xmlschemas/TrackPointExtension/v1" xmlns:gpxx="http://www.garmin.com/xmlschemas/GpxExtensions/v3" xmlns:xsi="http://www.w3.org/2001/XMLSchema-instance">
  <metadata>
    <link href="https://www.youtrack.es">
      <text>YouTrack.es</text>
    </link>
    <time>2026-05-08T23:06:24Z</time>
  </metadata>
  <trk>
    <src>https://www.youtrack.es</src>
    <link href="https://www.youtrack.es/ruta/18491-camino-primitivo-oviedo--">
      <text>YouTrack.es</text>
    </link>
    <trkseg>
      <trkpt lat="43.362903920933604" lon="-5.848917178809643">
        <ele>242.4</ele>
        <time>2017-08-02T04:37:51.000Z</time>
      </trkpt>
      <trkpt lat="43.36284985765815" lon="-5.848909048363566">
        <ele>242.6</ele>
        <time>2017-08-02T04:37:57.000Z</time>
      </trkpt>
      <trkpt lat="43.36281532421708" lon="-5.848884154111147">
        <ele>242.8</ele>
        <time>2017-08-02T04:38:00.000Z</time>
      </trkpt>
      <trkpt lat="43.362783808261156" lon="-5.84884668700397">
        <ele>242.8</ele>
        <time>2017-08-02T04:38:02.000Z</time>
      </trkpt>
      <trkpt lat="43.36276017129421" lon="-5.8488312643021345">
        <ele>243</ele>
        <time>2017-08-02T04:38:04.000Z</time>
      </trkpt>
      <trkpt lat="43.36255615577102" lon="-5.847866088151932">
        <ele>232</ele>
        <time>2017-08-02T04:38:05.000Z</time>
      </trkpt>
      <trkpt lat="43.362510139122605" lon="-5.847688056528568">
        <ele>232</ele>
        <time>2017-08-02T04:38:06.000Z</time>
      </trkpt>
      <trkpt lat="43.36238390766084" lon="-5.847235852852464">
        <ele>233.4</ele>
        <time>2017-08-02T04:38:09.000Z</time>
      </trkpt>
      <trkpt lat="43.362185172736645" lon="-5.846458179876208">
        <ele>236</ele>
        <time>2017-08-02T04:38:13.000Z</time>
      </trkpt>
      <trkpt lat="43.362066904082894" lon="-5.846111420542002">
        <ele>236.2</ele>
        <time>2017-08-02T04:38:17.000Z</time>
      </trkpt>
      <trkpt lat="43.362034717574716" lon="-5.84605710580945">
        <ele>236</ele>
        <time>2017-08-02T04:38:19.000Z</time>
      </trkpt>
      <trkpt lat="43.36197671480477" lon="-5.845991056412458">
        <ele>235.4</ele>
        <time>2017-08-02T04:38:23.000Z</time>
      </trkpt>
      <trkpt lat="43.361961459740996" lon="-5.84597596898675">
        <ele>235.4</ele>
        <time>2017-08-02T04:38:24.000Z</time>
      </trkpt>
      <trkpt lat="43.36188451386988" lon="-5.845931377261877">
        <ele>235</ele>
        <time>2017-08-02T04:38:31.000Z</time>
      </trkpt>
      <trkpt lat="43.36185894906521" lon="-5.8458891324698925">
        <ele>235</ele>
        <time>2017-08-02T04:38:36.000Z</time>
      </trkpt>
      <trkpt lat="43.361853836104274" lon="-5.84584747441113">
        <ele>235</ele>
        <time>2017-08-02T04:39:27.000Z</time>
      </trkpt>
      <trkpt lat="43.36191753856838" lon="-5.845803385600448">
        <ele>234.8</ele>
        <time>2017-08-02T04:40:01.000Z</time>
      </trkpt>
      <trkpt lat="43.36194788105786" lon="-5.845830794423819">
        <ele>234.6</ele>
        <time>2017-08-02T04:40:08.000Z</time>
      </trkpt>
      <trkpt lat="43.36198006756604" lon="-5.845845965668559">
        <ele>234.2</ele>
        <time>2017-08-02T04:40:11.000Z</time>
      </trkpt>
      <trkpt lat="43.36200160905719" lon="-5.845863064751029">
        <ele>234.2</ele>
        <time>2017-08-02T04:40:13.000Z</time>
      </trkpt>
      <trkpt lat="43.36207738146186" lon="-5.8459315448999405">
        <ele>234.4</ele>
        <time>2017-08-02T04:40:20.000Z</time>
      </trkpt>
      <trkpt lat="43.36210587993264" lon="-5.845957025885582">
        <ele>234.6</ele>
        <time>2017-08-02T04:40:23.000Z</time>
      </trkpt>
      <trkpt lat="43.36213714443147" lon="-5.845974879339337">
        <ele>234.6</ele>
        <time>2017-08-02T04:40:25.000Z</time>
      </trkpt>
      <trkpt lat="43.36222850717604" lon="-5.845989799126983">
        <ele>235</ele>
        <time>2017-08-02T04:40:32.000Z</time>
      </trkpt>
      <trkpt lat="43.36223823018372" lon="-5.845980076119304">
        <ele>235</ele>
        <time>2017-08-02T04:40:33.000Z</time>
      </trkpt>
      <trkpt lat="43.36225960403681" lon="-5.846003880724311">
        <ele>235.4</ele>
        <time>2017-08-02T04:40:35.000Z</time>
      </trkpt>
      <trkpt lat="43.36226949468255" lon="-5.8460157830268145">
        <ele>235.6</ele>
        <time>2017-08-02T04:40:36.000Z</time>
      </trkpt>
      <trkpt lat="43.36229992099106" lon="-5.846021985635161">
        <ele>236</ele>
        <time>2017-08-02T04:40:39.000Z</time>
      </trkpt>
      <trkpt lat="43.36234191432595" lon="-5.846015699207783">
        <ele>236.4</ele>
        <time>2017-08-02T04:40:44.000Z</time>
      </trkpt>
      <trkpt lat="43.362348368391395" lon="-5.845981501042843">
        <ele>236.2</ele>
        <time>2017-08-02T04:40:46.000Z</time>
      </trkpt>
      <trkpt lat="43.36236194707453" lon="-5.845971442759037">
        <ele>236.2</ele>
        <time>2017-08-02T04:40:48.000Z</time>
      </trkpt>
      <trkpt lat="43.36238784715533" lon="-5.845968425273895">
        <ele>236.4</ele>
        <time>2017-08-02T04:40:53.000Z</time>
      </trkpt>
      <trkpt lat="43.36242380551994" lon="-5.845993906259537">
        <ele>236.8</ele>
        <time>2017-08-02T04:40:57.000Z</time>
      </trkpt>
      <trkpt lat="43.362464122474194" lon="-5.846001114696264">
        <ele>237</ele>
        <time>2017-08-02T04:41:02.000Z</time>
      </trkpt>
      <trkpt lat="43.362475857138634" lon="-5.845966497436166">
        <ele>237.2</ele>
        <time>2017-08-02T04:41:05.000Z</time>
      </trkpt>
      <trkpt lat="43.36247476749122" lon="-5.845958953723311">
        <ele>237</ele>
        <time>2017-08-02T04:41:06.000Z</time>
      </trkpt>
      <trkpt lat="43.36247996427119" lon="-5.845901872962713">
        <ele>237</ele>
        <time>2017-08-02T04:41:11.000Z</time>
      </trkpt>
      <trkpt lat="43.36248683743179" lon="-5.84585040807724">
        <ele>236.8</ele>
        <time>2017-08-02T04:41:14.000Z</time>
      </trkpt>
      <trkpt lat="43.36248591542244" lon="-5.845798272639513">
        <ele>236.4</ele>
        <time>2017-08-02T04:41:16.000Z</time>
      </trkpt>
      <trkpt lat="43.36249069310725" lon="-5.8457583747804165">
        <ele>236.2</ele>
        <time>2017-08-02T04:41:19.000Z</time>
      </trkpt>
      <trkpt lat="43.362496392801404" lon="-5.845711519941688">
        <ele>236</ele>
        <time>2017-08-02T04:41:21.000Z</time>
      </trkpt>
      <trkpt lat="43.362495973706245" lon="-5.845687547698617">
        <ele>235.8</ele>
        <time>2017-08-02T04:41:23.000Z</time>
      </trkpt>
      <trkpt lat="43.36251047439873" lon="-5.845694001764059">
        <ele>236</ele>
        <time>2017-08-02T04:41:25.000Z</time>
      </trkpt>
      <trkpt lat="43.36252153851092" lon="-5.845671705901623">
        <ele>236</ele>
        <time>2017-08-02T04:41:28.000Z</time>
      </trkpt>
      <trkpt lat="43.36255196481943" lon="-5.845601130276918">
        <ele>236.2</ele>
        <time>2017-08-02T04:41:32.000Z</time>
      </trkpt>
      <trkpt lat="43.36256177164614" lon="-5.845596939325333">
        <ele>236.2</ele>
        <time>2017-08-02T04:41:33.000Z</time>
      </trkpt>
      <trkpt lat="43.362590270116925" lon="-5.845536589622498">
        <ele>236.4</ele>
        <time>2017-08-02T04:41:38.000Z</time>
      </trkpt>
      <trkpt lat="43.362600076943636" lon="-5.845604985952377">
        <ele>236.8</ele>
        <time>2017-08-02T04:41:45.000Z</time>
      </trkpt>
      <trkpt lat="43.362603681162" lon="-5.845600962638855">
        <ele>236.8</ele>
        <time>2017-08-02T04:41:55.000Z</time>
      </trkpt>
      <trkpt lat="43.362586330622435" lon="-5.845590149983764">
        <ele>236.6</ele>
        <time>2017-08-02T04:42:03.000Z</time>
      </trkpt>
      <trkpt lat="43.362605441361666" lon="-5.8455463126301765">
        <ele>236.6</ele>
        <time>2017-08-02T04:42:09.000Z</time>
      </trkpt>
      <trkpt lat="43.3626279886812" lon="-5.8454980328679085">
        <ele>236.8</ele>
        <time>2017-08-02T04:42:14.000Z</time>
      </trkpt>
      <trkpt lat="43.362634275108576" lon="-5.845470791682601">
        <ele>236.8</ele>
        <time>2017-08-02T04:42:16.000Z</time>
      </trkpt>
      <trkpt lat="43.362628323957324" lon="-5.84539745002985">
        <ele>236.4</ele>
        <time>2017-08-02T04:42:20.000Z</time>
      </trkpt>
      <trkpt lat="43.36262748576701" lon="-5.845388229936361">
        <ele>236.4</ele>
        <time>2017-08-02T04:42:21.000Z</time>
      </trkpt>
      <trkpt lat="43.362634778022766" lon="-5.845278007909656">
        <ele>236.4</ele>
        <time>2017-08-02T04:42:27.000Z</time>
      </trkpt>
      <trkpt lat="43.36264869198203" lon="-5.845260322093964">
        <ele>236.6</ele>
        <time>2017-08-02T04:42:31.000Z</time>
      </trkpt>
      <trkpt lat="43.36265983991325" lon="-5.845254957675934">
        <ele>236.8</ele>
        <time>2017-08-02T04:42:32.000Z</time>
      </trkpt>
      <trkpt lat="43.362695798277855" lon="-5.845237858593464">
        <ele>237.4</ele>
        <time>2017-08-02T04:42:36.000Z</time>
      </trkpt>
      <trkpt lat="43.36270376108587" lon="-5.845224112272263">
        <ele>237.4</ele>
        <time>2017-08-02T04:42:37.000Z</time>
      </trkpt>
      <trkpt lat="43.36271935142577" lon="-5.845195781439543">
        <ele>237.8</ele>
        <time>2017-08-02T04:42:40.000Z</time>
      </trkpt>
      <trkpt lat="43.36274147965014" lon="-5.84517021663487">
        <ele>238</ele>
        <time>2017-08-02T04:42:46.000Z</time>
      </trkpt>
      <trkpt lat="43.362762769684196" lon="-5.845171473920345">
        <ele>238</ele>
        <time>2017-08-02T04:42:48.000Z</time>
      </trkpt>
      <trkpt lat="43.362783389166" lon="-5.8451775927096605">
        <ele>238.2</ele>
        <time>2017-08-02T04:42:51.000Z</time>
      </trkpt>
      <trkpt lat="43.362806187942624" lon="-5.845189243555069">
        <ele>238.2</ele>
        <time>2017-08-02T04:42:53.000Z</time>
      </trkpt>
      <trkpt lat="43.36281389929354" lon="-5.845197374001145">
        <ele>238.2</ele>
        <time>2017-08-02T04:42:55.000Z</time>
      </trkpt>
      <trkpt lat="43.36283979937434" lon="-5.845261914655566">
        <ele>238.4</ele>
        <time>2017-08-02T04:42:59.000Z</time>
      </trkpt>
      <trkpt lat="43.36284449324012" lon="-5.84529778920114">
        <ele>238.2</ele>
        <time>2017-08-02T04:43:00.000Z</time>
      </trkpt>
      <trkpt lat="43.36286938749254" lon="-5.845497362315655">
        <ele>238.4</ele>
        <time>2017-08-02T04:43:06.000Z</time>
      </trkpt>
      <trkpt lat="43.36287542246282" lon="-5.845555532723665">
        <ele>238.6</ele>
        <time>2017-08-02T04:43:08.000Z</time>
      </trkpt>
      <trkpt lat="43.362898137420416" lon="-5.845688218250871">
        <ele>238.4</ele>
        <time>2017-08-02T04:43:14.000Z</time>
      </trkpt>
      <trkpt lat="43.3629316650331" lon="-5.845819730311632">
        <ele>238.4</ele>
        <time>2017-08-02T04:43:21.000Z</time>
      </trkpt>
      <trkpt lat="43.36295546963811" lon="-5.845970856025815">
        <ele>238.2</ele>
        <time>2017-08-02T04:43:29.000Z</time>
      </trkpt>
      <trkpt lat="43.362971814349294" lon="-5.846097841858864">
        <ele>238.6</ele>
        <time>2017-08-02T04:43:36.000Z</time>
      </trkpt>
      <trkpt lat="43.362972317263484" lon="-5.846134973689914">
        <ele>238.8</ele>
        <time>2017-08-02T04:43:38.000Z</time>
      </trkpt>
      <trkpt lat="43.36297516711056" lon="-5.846166154369712">
        <ele>238.8</ele>
        <time>2017-08-02T04:43:40.000Z</time>
      </trkpt>
      <trkpt lat="43.362972903996706" lon="-5.846219463273883">
        <ele>239</ele>
        <time>2017-08-02T04:43:44.000Z</time>
      </trkpt>
      <trkpt lat="43.362972903996706" lon="-5.846313424408436">
        <ele>238</ele>
        <time>2017-08-02T04:43:50.000Z</time>
      </trkpt>
      <trkpt lat="43.36297390982509" lon="-5.846380647271872">
        <ele>237.2</ele>
        <time>2017-08-02T04:43:54.000Z</time>
      </trkpt>
      <trkpt lat="43.36295538581908" lon="-5.846415348351002">
        <ele>237</ele>
        <time>2017-08-02T04:43:56.000Z</time>
      </trkpt>
      <trkpt lat="43.36296024732292" lon="-5.846451306715608">
        <ele>236.6</ele>
        <time>2017-08-02T04:43:59.000Z</time>
      </trkpt>
      <trkpt lat="43.36296720430255" lon="-5.84646949544549">
        <ele>236.4</ele>
        <time>2017-08-02T04:44:01.000Z</time>
      </trkpt>
      <trkpt lat="43.36301355622709" lon="-5.846524564549327">
        <ele>235.6</ele>
        <time>2017-08-02T04:44:07.000Z</time>
      </trkpt>
      <trkpt lat="43.363011963665485" lon="-5.846550548449159">
        <ele>235.2</ele>
        <time>2017-08-02T04:44:09.000Z</time>
      </trkpt>
      <trkpt lat="43.3630130533129" lon="-5.846569323912263">
        <ele>235</ele>
        <time>2017-08-02T04:44:11.000Z</time>
      </trkpt>
      <trkpt lat="43.3630093652755" lon="-5.846588350832462">
        <ele>234.8</ele>
        <time>2017-08-02T04:44:12.000Z</time>
      </trkpt>
      <trkpt lat="43.36301917210221" lon="-5.846628667786717">
        <ele>234.4</ele>
        <time>2017-08-02T04:44:15.000Z</time>
      </trkpt>
      <trkpt lat="43.36304113268852" lon="-5.846651550382376">
        <ele>234.2</ele>
        <time>2017-08-02T04:44:16.000Z</time>
      </trkpt>
      <trkpt lat="43.36305974051356" lon="-5.846671499311924">
        <ele>234</ele>
        <time>2017-08-02T04:44:20.000Z</time>
      </trkpt>
      <trkpt lat="43.36303803138435" lon="-5.846672588959336">
        <ele>234</ele>
        <time>2017-08-02T04:44:24.000Z</time>
      </trkpt>
      <trkpt lat="43.36304674856365" lon="-5.846787001937628">
        <ele>232.6</ele>
        <time>2017-08-02T04:45:31.000Z</time>
      </trkpt>
      <trkpt lat="43.36303459480405" lon="-5.846815416589379">
        <ele>232.4</ele>
        <time>2017-08-02T04:45:37.000Z</time>
      </trkpt>
      <trkpt lat="43.363076001405716" lon="-5.846783313900232">
        <ele>232.6</ele>
        <time>2017-08-02T04:45:42.000Z</time>
      </trkpt>
      <trkpt lat="43.36308119818568" lon="-5.846767807379365">
        <ele>232.8</ele>
        <time>2017-08-02T04:45:46.000Z</time>
      </trkpt>
      <trkpt lat="43.36313132196665" lon="-5.846789348870516">
        <ele>232.4</ele>
        <time>2017-08-02T04:45:51.000Z</time>
      </trkpt>
      <trkpt lat="43.363210866227746" lon="-5.846805777400732">
        <ele>231.8</ele>
        <time>2017-08-02T04:45:59.000Z</time>
      </trkpt>
      <trkpt lat="43.36328194476664" lon="-5.846811644732952">
        <ele>231.4</ele>
        <time>2017-08-02T04:46:07.000Z</time>
      </trkpt>
      <trkpt lat="43.36333667859435" lon="-5.8468186017125845">
        <ele>231</ele>
        <time>2017-08-02T04:46:12.000Z</time>
      </trkpt>
      <trkpt lat="43.36336484178901" lon="-5.8468265645205975">
        <ele>230.8</ele>
        <time>2017-08-02T04:46:14.000Z</time>
      </trkpt>
      <trkpt lat="43.36338562890887" lon="-5.846827067434788">
        <ele>230.8</ele>
        <time>2017-08-02T04:46:16.000Z</time>
      </trkpt>
      <trkpt lat="43.36343684233725" lon="-5.846827318891883">
        <ele>230.6</ele>
        <time>2017-08-02T04:46:21.000Z</time>
      </trkpt>
      <trkpt lat="43.36350188590586" lon="-5.846853721886873">
        <ele>230</ele>
        <time>2017-08-02T04:46:28.000Z</time>
      </trkpt>
      <trkpt lat="43.36355913430452" lon="-5.8468645345419645">
        <ele>229.6</ele>
        <time>2017-08-02T04:46:33.000Z</time>
      </trkpt>
      <trkpt lat="43.36358251981437" lon="-5.846862606704235">
        <ele>229.4</ele>
        <time>2017-08-02T04:46:35.000Z</time>
      </trkpt>
      <trkpt lat="43.36360297165811" lon="-5.846878364682198">
        <ele>229.2</ele>
        <time>2017-08-02T04:46:37.000Z</time>
      </trkpt>
      <trkpt lat="43.3636364992708" lon="-5.846931505948305">
        <ele>228.2</ele>
        <time>2017-08-02T04:46:40.000Z</time>
      </trkpt>
      <trkpt lat="43.363681342452765" lon="-5.846955226734281">
        <ele>227.6</ele>
        <time>2017-08-02T04:46:45.000Z</time>
      </trkpt>
      <trkpt lat="43.36370372213423" lon="-5.8469402231276035">
        <ele>227.8</ele>
        <time>2017-08-02T04:46:47.000Z</time>
      </trkpt>
      <trkpt lat="43.36374965496361" lon="-5.846924800425768">
        <ele>228</ele>
        <time>2017-08-02T04:46:52.000Z</time>
      </trkpt>
      <trkpt lat="43.36377547122538" lon="-5.846947431564331">
        <ele>228</ele>
        <time>2017-08-02T04:46:58.000Z</time>
      </trkpt>
      <trkpt lat="43.363825930282474" lon="-5.8470480144023895">
        <ele>227.8</ele>
        <time>2017-08-02T04:47:06.000Z</time>
      </trkpt>
      <trkpt lat="43.36383783258498" lon="-5.84705388173461">
        <ele>227.8</ele>
        <time>2017-08-02T04:47:07.000Z</time>
      </trkpt>
      <trkpt lat="43.36385174654424" lon="-5.847066706046462">
        <ele>228</ele>
        <time>2017-08-02T04:47:09.000Z</time>
      </trkpt>
      <trkpt lat="43.36386725306511" lon="-5.847084224224091">
        <ele>227.8</ele>
        <time>2017-08-02T04:47:10.000Z</time>
      </trkpt>
      <trkpt lat="43.363914526999" lon="-5.847156895324588">
        <ele>227.6</ele>
        <time>2017-08-02T04:47:14.000Z</time>
      </trkpt>
      <trkpt lat="43.363922238349915" lon="-5.847171479836106">
        <ele>227.6</ele>
        <time>2017-08-02T04:47:15.000Z</time>
      </trkpt>
      <trkpt lat="43.36393682286143" lon="-5.847215820103884">
        <ele>227.4</ele>
        <time>2017-08-02T04:47:18.000Z</time>
      </trkpt>
      <trkpt lat="43.36394880898297" lon="-5.847256220877171">
        <ele>227.8</ele>
        <time>2017-08-02T04:47:21.000Z</time>
      </trkpt>
      <trkpt lat="43.36398451589048" lon="-5.847386056557298">
        <ele>229.4</ele>
        <time>2017-08-02T04:47:28.000Z</time>
      </trkpt>
      <trkpt lat="43.363982336595654" lon="-5.8474029041826725">
        <ele>229.4</ele>
        <time>2017-08-02T04:47:29.000Z</time>
      </trkpt>
      <trkpt lat="43.36398501880467" lon="-5.847471971064806">
        <ele>230</ele>
        <time>2017-08-02T04:47:32.000Z</time>
      </trkpt>
      <trkpt lat="43.36399239487946" lon="-5.847505079582334">
        <ele>230.2</ele>
        <time>2017-08-02T04:47:34.000Z</time>
      </trkpt>
      <trkpt lat="43.36400270462036" lon="-5.84756744094193">
        <ele>230.6</ele>
        <time>2017-08-02T04:47:38.000Z</time>
      </trkpt>
      <trkpt lat="43.36400169879198" lon="-5.847564171999693">
        <ele>230.6</ele>
        <time>2017-08-02T04:47:39.000Z</time>
      </trkpt>
      <trkpt lat="43.36399432271719" lon="-5.847600633278489">
        <ele>230.6</ele>
        <time>2017-08-02T04:47:43.000Z</time>
      </trkpt>
      <trkpt lat="43.36399918422103" lon="-5.847601974382997">
        <ele>230.6</ele>
        <time>2017-08-02T04:47:47.000Z</time>
      </trkpt>
      <trkpt lat="43.36402106098831" lon="-5.847587641328573">
        <ele>230.8</ele>
        <time>2017-08-02T04:47:51.000Z</time>
      </trkpt>
      <trkpt lat="43.36402424611151" lon="-5.8476287964731455">
        <ele>231.2</ele>
        <time>2017-08-02T04:47:56.000Z</time>
      </trkpt>
      <trkpt lat="43.3640300296247" lon="-5.847682608291507">
        <ele>231.8</ele>
        <time>2017-08-02T04:48:00.000Z</time>
      </trkpt>
      <trkpt lat="43.36402994580567" lon="-5.84769451059401">
        <ele>232</ele>
        <time>2017-08-02T04:48:01.000Z</time>
      </trkpt>
      <trkpt lat="43.364063892513514" lon="-5.847812695428729">
        <ele>233</ele>
        <time>2017-08-02T04:48:07.000Z</time>
      </trkpt>
      <trkpt lat="43.36408761329949" lon="-5.847912859171629">
        <ele>233.8</ele>
        <time>2017-08-02T04:48:12.000Z</time>
      </trkpt>
      <trkpt lat="43.36411518976092" lon="-5.848041018471122">
        <ele>234.6</ele>
        <time>2017-08-02T04:48:18.000Z</time>
      </trkpt>
      <trkpt lat="43.364124996587634" lon="-5.848108073696494">
        <ele>234.8</ele>
        <time>2017-08-02T04:48:22.000Z</time>
      </trkpt>
      <trkpt lat="43.36411703377962" lon="-5.848124083131552">
        <ele>234.8</ele>
        <time>2017-08-02T04:48:23.000Z</time>
      </trkpt>
      <trkpt lat="43.36411896161735" lon="-5.848148474469781">
        <ele>235</ele>
        <time>2017-08-02T04:48:24.000Z</time>
      </trkpt>
      <trkpt lat="43.36411066353321" lon="-5.848196251317859">
        <ele>234.8</ele>
        <time>2017-08-02T04:48:26.000Z</time>
      </trkpt>
      <trkpt lat="43.364106472581625" lon="-5.848258947953582">
        <ele>234.6</ele>
        <time>2017-08-02T04:48:29.000Z</time>
      </trkpt>
      <trkpt lat="43.36411468684673" lon="-5.848337989300489">
        <ele>234.2</ele>
        <time>2017-08-02T04:48:32.000Z</time>
      </trkpt>
      <trkpt lat="43.364109406247735" lon="-5.848341006785631">
        <ele>234.2</ele>
        <time>2017-08-02T04:48:33.000Z</time>
      </trkpt>
      <trkpt lat="43.36411016061902" lon="-5.848364057019353">
        <ele>234.2</ele>
        <time>2017-08-02T04:48:34.000Z</time>
      </trkpt>
      <trkpt lat="43.364110412076116" lon="-5.848391549661756">
        <ele>234</ele>
        <time>2017-08-02T04:48:37.000Z</time>
      </trkpt>
      <trkpt lat="43.364108987152576" lon="-5.848387693986297">
        <ele>234</ele>
        <time>2017-08-02T04:48:38.000Z</time>
      </trkpt>
      <trkpt lat="43.36409222334623" lon="-5.848382581025362">
        <ele>234</ele>
        <time>2017-08-02T04:48:44.000Z</time>
      </trkpt>
      <trkpt lat="43.36411418393254" lon="-5.848377468064427">
        <ele>234.2</ele>
        <time>2017-08-02T04:48:48.000Z</time>
      </trkpt>
      <trkpt lat="43.3641439396888" lon="-5.848409738391638">
        <ele>234</ele>
        <time>2017-08-02T04:48:52.000Z</time>
      </trkpt>
      <trkpt lat="43.36415668018162" lon="-5.848417952656746">
        <ele>233.8</ele>
        <time>2017-08-02T04:48:53.000Z</time>
      </trkpt>
      <trkpt lat="43.36416522972286" lon="-5.848413929343224">
        <ele>233.6</ele>
        <time>2017-08-02T04:48:55.000Z</time>
      </trkpt>
      <trkpt lat="43.36417520418763" lon="-5.848427172750235">
        <ele>233.6</ele>
        <time>2017-08-02T04:48:57.000Z</time>
      </trkpt>
      <trkpt lat="43.36418576538563" lon="-5.848463466390967">
        <ele>233.2</ele>
        <time>2017-08-02T04:48:59.000Z</time>
      </trkpt>
      <trkpt lat="43.36418283171952" lon="-5.848527168855071">
        <ele>233</ele>
        <time>2017-08-02T04:49:03.000Z</time>
      </trkpt>
      <trkpt lat="43.36418249644339" lon="-5.848563713952899">
        <ele>233</ele>
        <time>2017-08-02T04:49:06.000Z</time>
      </trkpt>
      <trkpt lat="43.36418576538563" lon="-5.848581986501813">
        <ele>232.8</ele>
        <time>2017-08-02T04:49:07.000Z</time>
      </trkpt>
      <trkpt lat="43.364194985479116" lon="-5.848639905452728">
        <ele>232.6</ele>
        <time>2017-08-02T04:49:11.000Z</time>
      </trkpt>
      <trkpt lat="43.36419842205942" lon="-5.848663626238704">
        <ele>232.4</ele>
        <time>2017-08-02T04:49:12.000Z</time>
      </trkpt>
      <trkpt lat="43.364253994077444" lon="-5.848845429718494">
        <ele>231.6</ele>
        <time>2017-08-02T04:49:18.000Z</time>
      </trkpt>
      <trkpt lat="43.36427084170282" lon="-5.84891851991415">
        <ele>231.8</ele>
        <time>2017-08-02T04:49:20.000Z</time>
      </trkpt>
      <trkpt lat="43.364297496154904" lon="-5.849024299532175">
        <ele>232</ele>
        <time>2017-08-02T04:49:23.000Z</time>
      </trkpt>
      <trkpt lat="43.36431484669447" lon="-5.84906361065805">
        <ele>232</ele>
        <time>2017-08-02T04:49:24.000Z</time>
      </trkpt>
      <trkpt lat="43.36436178535223" lon="-5.849198307842016">
        <ele>232</ele>
        <time>2017-08-02T04:49:28.000Z</time>
      </trkpt>
      <trkpt lat="43.36440193466842" lon="-5.8493289817124605">
        <ele>232.2</ele>
        <time>2017-08-02T04:49:33.000Z</time>
      </trkpt>
      <trkpt lat="43.36441593244672" lon="-5.849372735247016">
        <ele>232.4</ele>
        <time>2017-08-02T04:49:35.000Z</time>
      </trkpt>
      <trkpt lat="43.36442448198795" lon="-5.849460829049349">
        <ele>232.6</ele>
        <time>2017-08-02T04:49:38.000Z</time>
      </trkpt>
      <trkpt lat="43.3644306845963" lon="-5.849590161815286">
        <ele>232.8</ele>
        <time>2017-08-02T04:49:43.000Z</time>
      </trkpt>
      <trkpt lat="43.364451471716166" lon="-5.84971790201962">
        <ele>232.6</ele>
        <time>2017-08-02T04:49:48.000Z</time>
      </trkpt>
      <trkpt lat="43.364439653232694" lon="-5.8498208317905664">
        <ele>232.8</ele>
        <time>2017-08-02T04:49:51.000Z</time>
      </trkpt>
      <trkpt lat="43.36444300599396" lon="-5.849873134866357">
        <ele>232.6</ele>
        <time>2017-08-02T04:49:53.000Z</time>
      </trkpt>
      <trkpt lat="43.36443814449012" lon="-5.84991873241961">
        <ele>232.6</ele>
        <time>2017-08-02T04:49:56.000Z</time>
      </trkpt>
      <trkpt lat="43.36443705484271" lon="-5.849931137636304">
        <ele>232.4</ele>
        <time>2017-08-02T04:49:58.000Z</time>
      </trkpt>
      <trkpt lat="43.36451265960932" lon="-5.8499212469905615">
        <ele>232.2</ele>
        <time>2017-08-02T04:50:48.000Z</time>
      </trkpt>
      <trkpt lat="43.36450352333486" lon="-5.849901968613267">
        <ele>232.4</ele>
        <time>2017-08-02T04:51:06.000Z</time>
      </trkpt>
      <trkpt lat="43.36449757218361" lon="-5.849878499284387">
        <ele>232.4</ele>
        <time>2017-08-02T04:51:14.000Z</time>
      </trkpt>
      <trkpt lat="43.36448835209012" lon="-5.849881349131465">
        <ele>232.4</ele>
        <time>2017-08-02T04:51:33.000Z</time>
      </trkpt>
      <trkpt lat="43.3644806407392" lon="-5.849874895066023">
        <ele>232.6</ele>
        <time>2017-08-02T04:51:38.000Z</time>
      </trkpt>
      <trkpt lat="43.364491537213326" lon="-5.849867854267359">
        <ele>232.6</ele>
        <time>2017-08-02T04:51:48.000Z</time>
      </trkpt>
      <trkpt lat="43.36452171206474" lon="-5.8498140424489975">
        <ele>232.6</ele>
        <time>2017-08-02T04:52:16.000Z</time>
      </trkpt>
      <trkpt lat="43.36451861076057" lon="-5.849854191765189">
        <ele>232.4</ele>
        <time>2017-08-02T04:52:24.000Z</time>
      </trkpt>
      <trkpt lat="43.36452204734087" lon="-5.849846648052335">
        <ele>232.4</ele>
        <time>2017-08-02T04:52:26.000Z</time>
      </trkpt>
      <trkpt lat="43.36449815891683" lon="-5.849894760176539">
        <ele>232.4</ele>
        <time>2017-08-02T04:52:35.000Z</time>
      </trkpt>
      <trkpt lat="43.364526238292456" lon="-5.849919989705086">
        <ele>232.2</ele>
        <time>2017-08-02T04:52:41.000Z</time>
      </trkpt>
      <trkpt lat="43.364456752315164" lon="-5.849818736314774">
        <ele>232.8</ele>
        <time>2017-08-02T04:53:24.000Z</time>
      </trkpt>
      <trkpt lat="43.36442397907376" lon="-5.849840361624956">
        <ele>232.8</ele>
        <time>2017-08-02T04:53:47.000Z</time>
      </trkpt>
      <trkpt lat="43.3644357137382" lon="-5.849779676645994">
        <ele>232.8</ele>
        <time>2017-08-02T04:53:56.000Z</time>
      </trkpt>
      <trkpt lat="43.36448349058628" lon="-5.849854610860348">
        <ele>232.6</ele>
        <time>2017-08-02T04:54:34.000Z</time>
      </trkpt>
      <trkpt lat="43.36449958384037" lon="-5.849931221455336">
        <ele>232.2</ele>
        <time>2017-08-02T04:54:50.000Z</time>
      </trkpt>
      <trkpt lat="43.36450343951583" lon="-5.8498976938426495">
        <ele>232.4</ele>
        <time>2017-08-02T04:55:00.000Z</time>
      </trkpt>
      <trkpt lat="43.36458398960531" lon="-5.849894592538476">
        <ele>232</ele>
        <time>2017-08-02T04:56:05.000Z</time>
      </trkpt>
      <trkpt lat="43.36463939398527" lon="-5.8498938381671906">
        <ele>231.8</ele>
        <time>2017-08-02T04:56:27.000Z</time>
      </trkpt>
      <trkpt lat="43.36463939398527" lon="-5.849888976663351">
        <ele>232</ele>
        <time>2017-08-02T04:56:35.000Z</time>
      </trkpt>
      <trkpt lat="43.36463528685272" lon="-5.849872715771198">
        <ele>232</ele>
        <time>2017-08-02T04:56:47.000Z</time>
      </trkpt>
      <trkpt lat="43.36454903706908" lon="-5.849925437942147">
        <ele>232.2</ele>
        <time>2017-08-02T05:01:05.000Z</time>
      </trkpt>
      <trkpt lat="43.36451961658895" lon="-5.85002476349473">
        <ele>231.8</ele>
        <time>2017-08-02T05:03:29.000Z</time>
      </trkpt>
      <trkpt lat="43.364517940208316" lon="-5.850052423775196">
        <ele>231.8</ele>
        <time>2017-08-02T05:03:39.000Z</time>
      </trkpt>
      <trkpt lat="43.36448005400598" lon="-5.849976567551494">
        <ele>232.2</ele>
        <time>2017-08-02T05:04:57.000Z</time>
      </trkpt>
      <trkpt lat="43.364492543041706" lon="-5.85003892891109">
        <ele>232</ele>
        <time>2017-08-02T05:05:23.000Z</time>
      </trkpt>
      <trkpt lat="43.364505702629685" lon="-5.850036330521107">
        <ele>231.8</ele>
        <time>2017-08-02T05:05:34.000Z</time>
      </trkpt>
      <trkpt lat="43.36451064795256" lon="-5.8500387612730265">
        <ele>231.8</ele>
        <time>2017-08-02T05:05:41.000Z</time>
      </trkpt>
      <trkpt lat="43.36448458023369" lon="-5.8500605542212725">
        <ele>231.8</ele>
        <time>2017-08-02T05:05:52.000Z</time>
      </trkpt>
      <trkpt lat="43.36452355608344" lon="-5.8500387612730265">
        <ele>231.8</ele>
        <time>2017-08-02T05:05:59.000Z</time>
      </trkpt>
      <trkpt lat="43.36454845033586" lon="-5.850053681060672">
        <ele>231.6</ele>
        <time>2017-08-02T05:06:13.000Z</time>
      </trkpt>
      <trkpt lat="43.36451534181833" lon="-5.850121155381203">
        <ele>231.6</ele>
        <time>2017-08-02T05:06:20.000Z</time>
      </trkpt>
      <trkpt lat="43.36450804956257" lon="-5.850132638588548">
        <ele>231.6</ele>
        <time>2017-08-02T05:06:22.000Z</time>
      </trkpt>
      <trkpt lat="43.36450444534421" lon="-5.850155940279365">
        <ele>231.6</ele>
        <time>2017-08-02T05:06:25.000Z</time>
      </trkpt>
      <trkpt lat="43.364485586062074" lon="-5.850184438750148">
        <ele>231.8</ele>
        <time>2017-08-02T05:06:29.000Z</time>
      </trkpt>
      <trkpt lat="43.364480808377266" lon="-5.850194664672017">
        <ele>231.8</ele>
        <time>2017-08-02T05:06:31.000Z</time>
      </trkpt>
      <trkpt lat="43.36449136957526" lon="-5.85021042264998">
        <ele>231.6</ele>
        <time>2017-08-02T05:06:36.000Z</time>
      </trkpt>
      <trkpt lat="43.364492962136865" lon="-5.850219391286373">
        <ele>231.6</ele>
        <time>2017-08-02T05:06:41.000Z</time>
      </trkpt>
      <trkpt lat="43.364498326554894" lon="-5.850242273882031">
        <ele>231.6</ele>
        <time>2017-08-02T05:06:45.000Z</time>
      </trkpt>
      <trkpt lat="43.3645324409008" lon="-5.850267922505736">
        <ele>231.6</ele>
        <time>2017-08-02T05:06:47.000Z</time>
      </trkpt>
      <trkpt lat="43.364551551640034" lon="-5.850298600271344">
        <ele>231.4</ele>
        <time>2017-08-02T05:06:49.000Z</time>
      </trkpt>
      <trkpt lat="43.36457569152117" lon="-5.850359788164496">
        <ele>231.4</ele>
        <time>2017-08-02T05:06:53.000Z</time>
      </trkpt>
      <trkpt lat="43.364581894129515" lon="-5.850388705730438">
        <ele>231.2</ele>
        <time>2017-08-02T05:06:55.000Z</time>
      </trkpt>
      <trkpt lat="43.364579044282436" lon="-5.850426172837615">
        <ele>231</ele>
        <time>2017-08-02T05:07:01.000Z</time>
      </trkpt>
      <trkpt lat="43.36457535624504" lon="-5.8504716865718365">
        <ele>230.6</ele>
        <time>2017-08-02T05:07:06.000Z</time>
      </trkpt>
      <trkpt lat="43.36458222940564" lon="-5.850542178377509">
        <ele>230.4</ele>
        <time>2017-08-02T05:07:12.000Z</time>
      </trkpt>
      <trkpt lat="43.36459195241332" lon="-5.85058961994946">
        <ele>230.2</ele>
        <time>2017-08-02T05:07:15.000Z</time>
      </trkpt>
      <trkpt lat="43.364595137536526" lon="-5.850613759830594">
        <ele>230.2</ele>
        <time>2017-08-02T05:07:17.000Z</time>
      </trkpt>
      <trkpt lat="43.364592622965574" lon="-5.850622896105051">
        <ele>230.2</ele>
        <time>2017-08-02T05:07:18.000Z</time>
      </trkpt>
      <trkpt lat="43.36459874175489" lon="-5.85066145285964">
        <ele>230</ele>
        <time>2017-08-02T05:07:21.000Z</time>
      </trkpt>
      <trkpt lat="43.364597568288445" lon="-5.850673522800207">
        <ele>230</ele>
        <time>2017-08-02T05:07:22.000Z</time>
      </trkpt>
      <trkpt lat="43.36460997350514" lon="-5.850701853632927">
        <ele>229.8</ele>
        <time>2017-08-02T05:07:28.000Z</time>
      </trkpt>
      <trkpt lat="43.36461391299963" lon="-5.850700931623578">
        <ele>229.8</ele>
        <time>2017-08-02T05:07:29.000Z</time>
      </trkpt>
      <trkpt lat="43.36463687941432" lon="-5.8507223054766655">
        <ele>229.6</ele>
        <time>2017-08-02T05:07:31.000Z</time>
      </trkpt>
      <trkpt lat="43.364651799201965" lon="-5.850747702643275">
        <ele>229.4</ele>
        <time>2017-08-02T05:07:33.000Z</time>
      </trkpt>
      <trkpt lat="43.36466512642801" lon="-5.850771926343441">
        <ele>229.2</ele>
        <time>2017-08-02T05:07:34.000Z</time>
      </trkpt>
      <trkpt lat="43.36468926630914" lon="-5.850832778960466">
        <ele>228.8</ele>
        <time>2017-08-02T05:07:38.000Z</time>
      </trkpt>
      <trkpt lat="43.36472597904503" lon="-5.8508925419300795">
        <ele>228.6</ele>
        <time>2017-08-02T05:07:41.000Z</time>
      </trkpt>
      <trkpt lat="43.36475254967809" lon="-5.850926572456956">
        <ele>229</ele>
        <time>2017-08-02T05:07:43.000Z</time>
      </trkpt>
      <trkpt lat="43.364789094775915" lon="-5.850945934653282">
        <ele>229.6</ele>
        <time>2017-08-02T05:07:47.000Z</time>
      </trkpt>
      <trkpt lat="43.364804685115814" lon="-5.850962195545435">
        <ele>229.8</ele>
        <time>2017-08-02T05:07:48.000Z</time>
      </trkpt>
      <trkpt lat="43.36485003121197" lon="-5.8510439191013575">
        <ele>230.8</ele>
        <time>2017-08-02T05:07:52.000Z</time>
      </trkpt>
      <trkpt lat="43.364908285439014" lon="-5.8511581644415855">
        <ele>230.8</ele>
        <time>2017-08-02T05:07:57.000Z</time>
      </trkpt>
      <trkpt lat="43.36491205729544" lon="-5.851192446425557">
        <ele>230.6</ele>
        <time>2017-08-02T05:07:59.000Z</time>
      </trkpt>
      <trkpt lat="43.3649333473295" lon="-5.851254388689995">
        <ele>230.8</ele>
        <time>2017-08-02T05:08:03.000Z</time>
      </trkpt>
      <trkpt lat="43.36493435315788" lon="-5.851263357326388">
        <ele>230.8</ele>
        <time>2017-08-02T05:08:04.000Z</time>
      </trkpt>
      <trkpt lat="43.36493393406272" lon="-5.851303590461612">
        <ele>231</ele>
        <time>2017-08-02T05:08:06.000Z</time>
      </trkpt>
      <trkpt lat="43.36495220661163" lon="-5.851338878273964">
        <ele>231.4</ele>
        <time>2017-08-02T05:08:08.000Z</time>
      </trkpt>
      <trkpt lat="43.36494650691748" lon="-5.851397551596165">
        <ele>231.6</ele>
        <time>2017-08-02T05:08:12.000Z</time>
      </trkpt>
      <trkpt lat="43.36494717746973" lon="-5.851459996774793">
        <ele>231.8</ele>
        <time>2017-08-02T05:08:15.000Z</time>
      </trkpt>
      <trkpt lat="43.36495346389711" lon="-5.851479694247246">
        <ele>231.8</ele>
        <time>2017-08-02T05:08:16.000Z</time>
      </trkpt>
      <trkpt lat="43.36496997624636" lon="-5.85155856795609">
        <ele>232</ele>
        <time>2017-08-02T05:08:19.000Z</time>
      </trkpt>
      <trkpt lat="43.36496075615287" lon="-5.851621180772781">
        <ele>232</ele>
        <time>2017-08-02T05:08:21.000Z</time>
      </trkpt>
      <trkpt lat="43.364964444190264" lon="-5.851756045594811">
        <ele>232</ele>
        <time>2017-08-02T05:08:27.000Z</time>
      </trkpt>
      <trkpt lat="43.36496486328542" lon="-5.85180776193738">
        <ele>232.4</ele>
        <time>2017-08-02T05:08:30.000Z</time>
      </trkpt>
      <trkpt lat="43.36496335454285" lon="-5.851845312863588">
        <ele>232.6</ele>
        <time>2017-08-02T05:08:32.000Z</time>
      </trkpt>
      <trkpt lat="43.364962097257376" lon="-5.851882779970765">
        <ele>232.8</ele>
        <time>2017-08-02T05:08:35.000Z</time>
      </trkpt>
      <trkpt lat="43.36497835814953" lon="-5.851975400000811">
        <ele>233.6</ele>
        <time>2017-08-02T05:08:41.000Z</time>
      </trkpt>
      <trkpt lat="43.36499738506973" lon="-5.852031726390123">
        <ele>234.2</ele>
        <time>2017-08-02T05:08:44.000Z</time>
      </trkpt>
      <trkpt lat="43.36501205340028" lon="-5.8521041460335255">
        <ele>234.6</ele>
        <time>2017-08-02T05:08:47.000Z</time>
      </trkpt>
      <trkpt lat="43.36500937119126" lon="-5.852189473807812">
        <ele>235.2</ele>
        <time>2017-08-02T05:08:51.000Z</time>
      </trkpt>
      <trkpt lat="43.365011969581246" lon="-5.852279998362064">
        <ele>235.8</ele>
        <time>2017-08-02T05:08:55.000Z</time>
      </trkpt>
      <trkpt lat="43.36501314304769" lon="-5.85232718847692">
        <ele>236</ele>
        <time>2017-08-02T05:08:57.000Z</time>
      </trkpt>
      <trkpt lat="43.365010879933834" lon="-5.852397680282593">
        <ele>236.6</ele>
        <time>2017-08-02T05:09:01.000Z</time>
      </trkpt>
      <trkpt lat="43.36500224657357" lon="-5.852446462959051">
        <ele>237</ele>
        <time>2017-08-02T05:09:04.000Z</time>
      </trkpt>
      <trkpt lat="43.364999732002616" lon="-5.8524666633456945">
        <ele>237</ele>
        <time>2017-08-02T05:09:05.000Z</time>
      </trkpt>
      <trkpt lat="43.36498238146305" lon="-5.85257931612432">
        <ele>237.8</ele>
        <time>2017-08-02T05:09:11.000Z</time>
      </trkpt>
      <trkpt lat="43.36492320522666" lon="-5.852609239518642">
        <ele>238.2</ele>
        <time>2017-08-02T05:09:16.000Z</time>
      </trkpt>
      <trkpt lat="43.364879535511136" lon="-5.85266288369894">
        <ele>238.6</ele>
        <time>2017-08-02T05:09:20.000Z</time>
      </trkpt>
      <trkpt lat="43.3648746740073" lon="-5.852678054943681">
        <ele>238.6</ele>
        <time>2017-08-02T05:09:21.000Z</time>
      </trkpt>
      <trkpt lat="43.364873584359884" lon="-5.85269657894969">
        <ele>238.6</ele>
        <time>2017-08-02T05:09:22.000Z</time>
      </trkpt>
      <trkpt lat="43.36486981250346" lon="-5.85274301469326">
        <ele>238.6</ele>
        <time>2017-08-02T05:09:26.000Z</time>
      </trkpt>
      <trkpt lat="43.36489437147975" lon="-5.852791713550687">
        <ele>238.4</ele>
        <time>2017-08-02T05:09:34.000Z</time>
      </trkpt>
      <trkpt lat="43.36490870453417" lon="-5.852810321375728">
        <ele>238.4</ele>
        <time>2017-08-02T05:09:36.000Z</time>
      </trkpt>
      <trkpt lat="43.364935610443354" lon="-5.852828091010451">
        <ele>238.2</ele>
        <time>2017-08-02T05:09:41.000Z</time>
      </trkpt>
      <trkpt lat="43.36497508920729" lon="-5.852874778211117">
        <ele>238</ele>
        <time>2017-08-02T05:09:47.000Z</time>
      </trkpt>
      <trkpt lat="43.36504147388041" lon="-5.852959435433149">
        <ele>238.6</ele>
        <time>2017-08-02T05:09:53.000Z</time>
      </trkpt>
      <trkpt lat="43.36504499427974" lon="-5.8529758639633656">
        <ele>238.8</ele>
        <time>2017-08-02T05:09:54.000Z</time>
      </trkpt>
      <trkpt lat="43.365062261000276" lon="-5.853071250021458">
        <ele>239.4</ele>
        <time>2017-08-02T05:09:59.000Z</time>
      </trkpt>
      <trkpt lat="43.365063183009624" lon="-5.853111399337649">
        <ele>239.6</ele>
        <time>2017-08-02T05:10:01.000Z</time>
      </trkpt>
      <trkpt lat="43.36508405394852" lon="-5.853193877264857">
        <ele>240.2</ele>
        <time>2017-08-02T05:10:06.000Z</time>
      </trkpt>
      <trkpt lat="43.36509427987039" lon="-5.853299740701914">
        <ele>241</ele>
        <time>2017-08-02T05:10:12.000Z</time>
      </trkpt>
      <trkpt lat="43.365094028413296" lon="-5.853409208357334">
        <ele>242.2</ele>
        <time>2017-08-02T05:10:19.000Z</time>
      </trkpt>
      <trkpt lat="43.36509478278458" lon="-5.853466708213091">
        <ele>242.6</ele>
        <time>2017-08-02T05:10:23.000Z</time>
      </trkpt>
      <trkpt lat="43.3650887478143" lon="-5.853498475626111">
        <ele>242.6</ele>
        <time>2017-08-02T05:10:25.000Z</time>
      </trkpt>
      <trkpt lat="43.365080785006285" lon="-5.85363426245749">
        <ele>243.4</ele>
        <time>2017-08-02T05:10:33.000Z</time>
      </trkpt>
      <trkpt lat="43.36507525295019" lon="-5.853667622432113">
        <ele>243.8</ele>
        <time>2017-08-02T05:10:35.000Z</time>
      </trkpt>
      <trkpt lat="43.36506737396121" lon="-5.8537469152361155">
        <ele>244.2</ele>
        <time>2017-08-02T05:10:39.000Z</time>
      </trkpt>
      <trkpt lat="43.36505480110645" lon="-5.853823274374008">
        <ele>244</ele>
        <time>2017-08-02T05:10:43.000Z</time>
      </trkpt>
      <trkpt lat="43.36505840532482" lon="-5.853845905512571">
        <ele>244</ele>
        <time>2017-08-02T05:10:44.000Z</time>
      </trkpt>
      <trkpt lat="43.36504784412682" lon="-5.853910110890865">
        <ele>243.8</ele>
        <time>2017-08-02T05:10:48.000Z</time>
      </trkpt>
      <trkpt lat="43.365011466667056" lon="-5.854003820568323">
        <ele>243.2</ele>
        <time>2017-08-02T05:10:54.000Z</time>
      </trkpt>
      <trkpt lat="43.36501616053283" lon="-5.854023350402713">
        <ele>243.2</ele>
        <time>2017-08-02T05:10:55.000Z</time>
      </trkpt>
      <trkpt lat="43.36501616053283" lon="-5.854102475568652">
        <ele>242.6</ele>
        <time>2017-08-02T05:11:00.000Z</time>
      </trkpt>
      <trkpt lat="43.365022195503116" lon="-5.8542166370898485">
        <ele>241.8</ele>
        <time>2017-08-02T05:11:06.000Z</time>
      </trkpt>
      <trkpt lat="43.36501884274185" lon="-5.854237508028746">
        <ele>241.6</ele>
        <time>2017-08-02T05:11:07.000Z</time>
      </trkpt>
      <trkpt lat="43.36503719910979" lon="-5.854301545768976">
        <ele>241.2</ele>
        <time>2017-08-02T05:11:11.000Z</time>
      </trkpt>
      <trkpt lat="43.36504231207073" lon="-5.854337755590677">
        <ele>241</ele>
        <time>2017-08-02T05:11:13.000Z</time>
      </trkpt>
      <trkpt lat="43.36502688936889" lon="-5.8544758055359125">
        <ele>240</ele>
        <time>2017-08-02T05:11:21.000Z</time>
      </trkpt>
      <trkpt lat="43.36494483053684" lon="-5.854589128866792">
        <ele>238.6</ele>
        <time>2017-08-02T05:11:29.000Z</time>
      </trkpt>
      <trkpt lat="43.36493091657758" lon="-5.854756096377969">
        <ele>237.8</ele>
        <time>2017-08-02T05:11:38.000Z</time>
      </trkpt>
      <trkpt lat="43.364921445026994" lon="-5.854926919564605">
        <ele>236.8</ele>
        <time>2017-08-02T05:11:47.000Z</time>
      </trkpt>
      <trkpt lat="43.36491381749511" lon="-5.85494527593255">
        <ele>236.6</ele>
        <time>2017-08-02T05:11:48.000Z</time>
      </trkpt>
      <trkpt lat="43.36488909088075" lon="-5.855042170733213">
        <ele>235.6</ele>
        <time>2017-08-02T05:11:53.000Z</time>
      </trkpt>
      <trkpt lat="43.364887330681086" lon="-5.855080811306834">
        <ele>235.4</ele>
        <time>2017-08-02T05:11:55.000Z</time>
      </trkpt>
      <trkpt lat="43.36486905813217" lon="-5.85513043217361">
        <ele>235.2</ele>
        <time>2017-08-02T05:11:58.000Z</time>
      </trkpt>
      <trkpt lat="43.36486687883735" lon="-5.855147950351238">
        <ele>235.2</ele>
        <time>2017-08-02T05:11:59.000Z</time>
      </trkpt>
      <trkpt lat="43.364836452528834" lon="-5.855255573987961">
        <ele>234.8</ele>
        <time>2017-08-02T05:12:05.000Z</time>
      </trkpt>
      <trkpt lat="43.364804182201624" lon="-5.855369567871094">
        <ele>233.6</ele>
        <time>2017-08-02T05:12:11.000Z</time>
      </trkpt>
      <trkpt lat="43.36479764431715" lon="-5.855390103533864">
        <ele>233.6</ele>
        <time>2017-08-02T05:12:12.000Z</time>
      </trkpt>
      <trkpt lat="43.36476403288543" lon="-5.855514910072088">
        <ele>233.8</ele>
        <time>2017-08-02T05:12:18.000Z</time>
      </trkpt>
      <trkpt lat="43.364753387868404" lon="-5.855617672204971">
        <ele>233.6</ele>
        <time>2017-08-02T05:12:24.000Z</time>
      </trkpt>
      <trkpt lat="43.364746598526835" lon="-5.85565279237926">
        <ele>233.4</ele>
        <time>2017-08-02T05:12:26.000Z</time>
      </trkpt>
      <trkpt lat="43.364740731194615" lon="-5.855722362175584">
        <ele>233.4</ele>
        <time>2017-08-02T05:12:31.000Z</time>
      </trkpt>
      <trkpt lat="43.36475565098226" lon="-5.855774246156216">
        <ele>233.2</ele>
        <time>2017-08-02T05:12:35.000Z</time>
      </trkpt>
      <trkpt lat="43.36477182805538" lon="-5.855838702991605">
        <ele>233</ele>
        <time>2017-08-02T05:12:41.000Z</time>
      </trkpt>
      <trkpt lat="43.36476260796189" lon="-5.855901567265391">
        <ele>233</ele>
        <time>2017-08-02T05:12:45.000Z</time>
      </trkpt>
      <trkpt lat="43.36478926241398" lon="-5.855975076556206">
        <ele>232.2</ele>
        <time>2017-08-02T05:12:50.000Z</time>
      </trkpt>
      <trkpt lat="43.36480317637324" lon="-5.856057554483414">
        <ele>231.4</ele>
        <time>2017-08-02T05:12:54.000Z</time>
      </trkpt>
      <trkpt lat="43.364805271849036" lon="-5.856081107631326">
        <ele>231.2</ele>
        <time>2017-08-02T05:12:55.000Z</time>
      </trkpt>
      <trkpt lat="43.36483335122466" lon="-5.856126872822642">
        <ele>230.6</ele>
        <time>2017-08-02T05:12:59.000Z</time>
      </trkpt>
      <trkpt lat="43.36484516970813" lon="-5.85627774707973">
        <ele>229.8</ele>
        <time>2017-08-02T05:13:06.000Z</time>
      </trkpt>
      <trkpt lat="43.364839470013976" lon="-5.856295181438327">
        <ele>229.8</ele>
        <time>2017-08-02T05:13:07.000Z</time>
      </trkpt>
      <trkpt lat="43.3648244664073" lon="-5.856362655758858">
        <ele>229.4</ele>
        <time>2017-08-02T05:13:11.000Z</time>
      </trkpt>
      <trkpt lat="43.364790603518486" lon="-5.856458880007267">
        <ele>229.4</ele>
        <time>2017-08-02T05:13:19.000Z</time>
      </trkpt>
      <trkpt lat="43.364753387868404" lon="-5.8565210737288">
        <ele>229.4</ele>
        <time>2017-08-02T05:13:26.000Z</time>
      </trkpt>
      <trkpt lat="43.364738300442696" lon="-5.856553092598915">
        <ele>229.4</ele>
        <time>2017-08-02T05:13:29.000Z</time>
      </trkpt>
      <trkpt lat="43.364718686789274" lon="-5.8566022105515">
        <ele>229.4</ele>
        <time>2017-08-02T05:13:33.000Z</time>
      </trkpt>
      <trkpt lat="43.364684069529176" lon="-5.856620315462351">
        <ele>229.6</ele>
        <time>2017-08-02T05:13:37.000Z</time>
      </trkpt>
      <trkpt lat="43.3646067045629" lon="-5.856657112017274">
        <ele>230.2</ele>
        <time>2017-08-02T05:13:43.000Z</time>
      </trkpt>
      <trkpt lat="43.36459438316524" lon="-5.8566701877862215">
        <ele>230.4</ele>
        <time>2017-08-02T05:13:44.000Z</time>
      </trkpt>
      <trkpt lat="43.36456269957125" lon="-5.856709331274033">
        <ele>230.6</ele>
        <time>2017-08-02T05:13:48.000Z</time>
      </trkpt>
      <trkpt lat="43.36455909535289" lon="-5.856736823916435">
        <ele>230.4</ele>
        <time>2017-08-02T05:13:50.000Z</time>
      </trkpt>
      <trkpt lat="43.36454392410815" lon="-5.85679960437119">
        <ele>230.2</ele>
        <time>2017-08-02T05:13:55.000Z</time>
      </trkpt>
      <trkpt lat="43.36455431766808" lon="-5.85681963711977">
        <ele>230</ele>
        <time>2017-08-02T05:13:56.000Z</time>
      </trkpt>
      <trkpt lat="43.364554569125175" lon="-5.856847632676363">
        <ele>229.8</ele>
        <time>2017-08-02T05:13:59.000Z</time>
      </trkpt>
      <trkpt lat="43.364739222452044" lon="-5.85704393684864">
        <ele>227.2</ele>
        <time>2017-08-02T05:15:00.000Z</time>
      </trkpt>
      <trkpt lat="43.36476093158126" lon="-5.857098922133446">
        <ele>227.2</ele>
        <time>2017-08-02T05:15:07.000Z</time>
      </trkpt>
      <trkpt lat="43.364729415625334" lon="-5.85712943226099">
        <ele>227.2</ele>
        <time>2017-08-02T05:15:13.000Z</time>
      </trkpt>
      <trkpt lat="43.36464752443135" lon="-5.857181483879685">
        <ele>227</ele>
        <time>2017-08-02T05:15:20.000Z</time>
      </trkpt>
      <trkpt lat="43.36458164267242" lon="-5.857207803055644">
        <ele>227</ele>
        <time>2017-08-02T05:15:26.000Z</time>
      </trkpt>
      <trkpt lat="43.36448214948177" lon="-5.8572297636419535">
        <ele>227.2</ele>
        <time>2017-08-02T05:15:34.000Z</time>
      </trkpt>
      <trkpt lat="43.364403611049056" lon="-5.857251053676009">
        <ele>227.8</ele>
        <time>2017-08-02T05:15:40.000Z</time>
      </trkpt>
      <trkpt lat="43.36437352001667" lon="-5.8572574239224195">
        <ele>228.2</ele>
        <time>2017-08-02T05:15:42.000Z</time>
      </trkpt>
      <trkpt lat="43.36434024386108" lon="-5.857273265719414">
        <ele>228.8</ele>
        <time>2017-08-02T05:15:45.000Z</time>
      </trkpt>
      <trkpt lat="43.36433018557727" lon="-5.857272259891033">
        <ele>229</ele>
        <time>2017-08-02T05:15:46.000Z</time>
      </trkpt>
      <trkpt lat="43.36425919085741" lon="-5.857280306518078">
        <ele>230.2</ele>
        <time>2017-08-02T05:15:51.000Z</time>
      </trkpt>
      <trkpt lat="43.36422633379698" lon="-5.8572871796786785">
        <ele>230.6</ele>
        <time>2017-08-02T05:15:53.000Z</time>
      </trkpt>
      <trkpt lat="43.36416129022837" lon="-5.857314169406891">
        <ele>231.4</ele>
        <time>2017-08-02T05:15:57.000Z</time>
      </trkpt>
      <trkpt lat="43.36414695717394" lon="-5.857319450005889">
        <ele>231.6</ele>
        <time>2017-08-02T05:15:58.000Z</time>
      </trkpt>
      <trkpt lat="43.364044446498156" lon="-5.85736446082592">
        <ele>233.8</ele>
        <time>2017-08-02T05:16:06.000Z</time>
      </trkpt>
      <trkpt lat="43.363931039348245" lon="-5.857448196038604">
        <ele>236</ele>
        <time>2017-08-02T05:16:14.000Z</time>
      </trkpt>
      <trkpt lat="43.36379265412688" lon="-5.857545845210552">
        <ele>238.8</ele>
        <time>2017-08-02T05:16:25.000Z</time>
      </trkpt>
      <trkpt lat="43.36367815732956" lon="-5.857633436098695">
        <ele>241</ele>
        <time>2017-08-02T05:16:35.000Z</time>
      </trkpt>
      <trkpt lat="43.36358889006078" lon="-5.857714656740427">
        <ele>242.4</ele>
        <time>2017-08-02T05:16:44.000Z</time>
      </trkpt>
      <trkpt lat="43.36350280791521" lon="-5.857795542106032">
        <ele>242.2</ele>
        <time>2017-08-02T05:16:53.000Z</time>
      </trkpt>
      <trkpt lat="43.36341236717999" lon="-5.857874415814877">
        <ele>241.6</ele>
        <time>2017-08-02T05:17:02.000Z</time>
      </trkpt>
      <trkpt lat="43.363332990556955" lon="-5.857960917055607">
        <ele>241.6</ele>
        <time>2017-08-02T05:17:11.000Z</time>
      </trkpt>
      <trkpt lat="43.36332770995796" lon="-5.857985643669963">
        <ele>241.4</ele>
        <time>2017-08-02T05:17:13.000Z</time>
      </trkpt>
      <trkpt lat="43.363353526219726" lon="-5.858005760237575">
        <ele>241.4</ele>
        <time>2017-08-02T05:17:16.000Z</time>
      </trkpt>
      <trkpt lat="43.3634412009269" lon="-5.858012717217207">
        <ele>241</ele>
        <time>2017-08-02T05:17:24.000Z</time>
      </trkpt>
      <trkpt lat="43.363553350791335" lon="-5.85802604444325">
        <ele>239.2</ele>
        <time>2017-08-02T05:17:33.000Z</time>
      </trkpt>
      <trkpt lat="43.36364001967013" lon="-5.858085053041577">
        <ele>236.6</ele>
        <time>2017-08-02T05:17:41.000Z</time>
      </trkpt>
      <trkpt lat="43.36366156116128" lon="-5.858233077451587">
        <ele>235.2</ele>
        <time>2017-08-02T05:17:49.000Z</time>
      </trkpt>
      <trkpt lat="43.363652508705854" lon="-5.858424101024866">
        <ele>234.4</ele>
        <time>2017-08-02T05:17:59.000Z</time>
      </trkpt>
      <trkpt lat="43.3636431209743" lon="-5.858567850664258">
        <ele>234.4</ele>
        <time>2017-08-02T05:18:07.000Z</time>
      </trkpt>
      <trkpt lat="43.3636362478137" lon="-5.858732387423515">
        <ele>234.8</ele>
        <time>2017-08-02T05:18:17.000Z</time>
      </trkpt>
      <trkpt lat="43.363628620281816" lon="-5.858862474560738">
        <ele>236.2</ele>
        <time>2017-08-02T05:18:25.000Z</time>
      </trkpt>
      <trkpt lat="43.363626105710864" lon="-5.85898376069963">
        <ele>237.2</ele>
        <time>2017-08-02T05:18:33.000Z</time>
      </trkpt>
      <trkpt lat="43.363618310540915" lon="-5.859068920835853">
        <ele>238.2</ele>
        <time>2017-08-02T05:18:39.000Z</time>
      </trkpt>
      <trkpt lat="43.363629542291164" lon="-5.859092893078923">
        <ele>238.4</ele>
        <time>2017-08-02T05:18:40.000Z</time>
      </trkpt>
      <trkpt lat="43.36361956782639" lon="-5.859172102063894">
        <ele>239.4</ele>
        <time>2017-08-02T05:18:45.000Z</time>
      </trkpt>
      <trkpt lat="43.36363423615694" lon="-5.859255334362388">
        <ele>239.8</ele>
        <time>2017-08-02T05:18:49.000Z</time>
      </trkpt>
      <trkpt lat="43.36362384259701" lon="-5.8593496307730675">
        <ele>240.4</ele>
        <time>2017-08-02T05:18:55.000Z</time>
      </trkpt>
      <trkpt lat="43.36362308822572" lon="-5.859366143122315">
        <ele>240.4</ele>
        <time>2017-08-02T05:18:56.000Z</time>
      </trkpt>
      <trkpt lat="43.36360104382038" lon="-5.859465636312962">
        <ele>241.2</ele>
        <time>2017-08-02T05:19:03.000Z</time>
      </trkpt>
      <trkpt lat="43.36360280402005" lon="-5.859478795900941">
        <ele>241.2</ele>
        <time>2017-08-02T05:19:04.000Z</time>
      </trkpt>
      <trkpt lat="43.36359299719334" lon="-5.859616510570049">
        <ele>241.4</ele>
        <time>2017-08-02T05:19:11.000Z</time>
      </trkpt>
      <trkpt lat="43.363577825948596" lon="-5.859794542193413">
        <ele>241</ele>
        <time>2017-08-02T05:19:19.000Z</time>
      </trkpt>
      <trkpt lat="43.36358251981437" lon="-5.859928736463189">
        <ele>240.6</ele>
        <time>2017-08-02T05:19:27.000Z</time>
      </trkpt>
      <trkpt lat="43.36357564665377" lon="-5.859945248812437">
        <ele>240.6</ele>
        <time>2017-08-02T05:19:28.000Z</time>
      </trkpt>
      <trkpt lat="43.363574389368296" lon="-5.8600162435323">
        <ele>240.4</ele>
        <time>2017-08-02T05:19:32.000Z</time>
      </trkpt>
      <trkpt lat="43.363575311377645" lon="-5.860054632648826">
        <ele>240.2</ele>
        <time>2017-08-02T05:19:34.000Z</time>
      </trkpt>
      <trkpt lat="43.36356676183641" lon="-5.860169464722276">
        <ele>240</ele>
        <time>2017-08-02T05:19:40.000Z</time>
      </trkpt>
      <trkpt lat="43.36353851482272" lon="-5.860239788889885">
        <ele>240</ele>
        <time>2017-08-02T05:19:46.000Z</time>
      </trkpt>
      <trkpt lat="43.363491324707866" lon="-5.860314387828112">
        <ele>240</ele>
        <time>2017-08-02T05:19:52.000Z</time>
      </trkpt>
      <trkpt lat="43.363482020795345" lon="-5.8603388629853725">
        <ele>240</ele>
        <time>2017-08-02T05:19:56.000Z</time>
      </trkpt>
      <trkpt lat="43.36349266581237" lon="-5.860345149412751">
        <ele>240</ele>
        <time>2017-08-02T05:20:00.000Z</time>
      </trkpt>
      <trkpt lat="43.363573886454105" lon="-5.860377084463835">
        <ele>240</ele>
        <time>2017-08-02T05:20:30.000Z</time>
      </trkpt>
      <trkpt lat="43.363593416288495" lon="-5.860447995364666">
        <ele>240.2</ele>
        <time>2017-08-02T05:20:40.000Z</time>
      </trkpt>
      <trkpt lat="43.36364697664976" lon="-5.860487977042794">
        <ele>240.6</ele>
        <time>2017-08-02T05:20:45.000Z</time>
      </trkpt>
      <trkpt lat="43.363698525354266" lon="-5.860554780811071">
        <ele>240.8</ele>
        <time>2017-08-02T05:20:52.000Z</time>
      </trkpt>
      <trkpt lat="43.36370489560068" lon="-5.860576489940286">
        <ele>240.8</ele>
        <time>2017-08-02T05:20:54.000Z</time>
      </trkpt>
      <trkpt lat="43.3637052308768" lon="-5.860604988411069">
        <ele>240.6</ele>
        <time>2017-08-02T05:20:58.000Z</time>
      </trkpt>
      <trkpt lat="43.363710679113865" lon="-5.860604401677847">
        <ele>240.6</ele>
        <time>2017-08-02T05:20:59.000Z</time>
      </trkpt>
      <trkpt lat="43.36370321922004" lon="-5.860619070008397">
        <ele>240.6</ele>
        <time>2017-08-02T05:21:05.000Z</time>
      </trkpt>
      <trkpt lat="43.36367220617831" lon="-5.860629715025425">
        <ele>240.4</ele>
        <time>2017-08-02T05:21:08.000Z</time>
      </trkpt>
      <trkpt lat="43.363650245592" lon="-5.860665170475841">
        <ele>240.4</ele>
        <time>2017-08-02T05:21:14.000Z</time>
      </trkpt>
      <trkpt lat="43.36366340517998" lon="-5.860676150768995">
        <ele>240.4</ele>
        <time>2017-08-02T05:21:18.000Z</time>
      </trkpt>
      <trkpt lat="43.36372945457697" lon="-5.860708756372333">
        <ele>240.8</ele>
        <time>2017-08-02T05:21:22.000Z</time>
      </trkpt>
      <trkpt lat="43.3637398481369" lon="-5.860735746100545">
        <ele>240.8</ele>
        <time>2017-08-02T05:21:26.000Z</time>
      </trkpt>
      <trkpt lat="43.36374378763139" lon="-5.860743876546621">
        <ele>241</ele>
        <time>2017-08-02T05:21:27.000Z</time>
      </trkpt>
      <trkpt lat="43.3637366630137" lon="-5.860749324783683">
        <ele>241</ele>
        <time>2017-08-02T05:21:28.000Z</time>
      </trkpt>
      <trkpt lat="43.36373624391854" lon="-5.860777739435434">
        <ele>241</ele>
        <time>2017-08-02T05:21:31.000Z</time>
      </trkpt>
      <trkpt lat="43.36374261416495" lon="-5.860792575404048">
        <ele>240.8</ele>
        <time>2017-08-02T05:21:32.000Z</time>
      </trkpt>
      <trkpt lat="43.363780081272125" lon="-5.860858876258135">
        <ele>240</ele>
        <time>2017-08-02T05:21:36.000Z</time>
      </trkpt>
      <trkpt lat="43.36376482620835" lon="-5.860938923433423">
        <ele>239.6</ele>
        <time>2017-08-02T05:21:42.000Z</time>
      </trkpt>
      <trkpt lat="43.36374311707914" lon="-5.8610571920871735">
        <ele>240.6</ele>
        <time>2017-08-02T05:21:50.000Z</time>
      </trkpt>
      <trkpt lat="43.363734818995" lon="-5.861075464636087">
        <ele>240.8</ele>
        <time>2017-08-02T05:21:51.000Z</time>
      </trkpt>
      <trkpt lat="43.363724425435066" lon="-5.861129695549607">
        <ele>241.4</ele>
        <time>2017-08-02T05:21:55.000Z</time>
      </trkpt>
      <trkpt lat="43.363709757104516" lon="-5.861249808222055">
        <ele>242.2</ele>
        <time>2017-08-02T05:22:03.000Z</time>
      </trkpt>
      <trkpt lat="43.36369592696428" lon="-5.861356174573302">
        <ele>243.2</ele>
        <time>2017-08-02T05:22:11.000Z</time>
      </trkpt>
      <trkpt lat="43.36368888616562" lon="-5.861405376344919">
        <ele>243.4</ele>
        <time>2017-08-02T05:22:14.000Z</time>
      </trkpt>
      <trkpt lat="43.36368008516729" lon="-5.861430857330561">
        <ele>243.6</ele>
        <time>2017-08-02T05:22:16.000Z</time>
      </trkpt>
      <trkpt lat="43.363640354946256" lon="-5.861504953354597">
        <ele>244.2</ele>
        <time>2017-08-02T05:22:20.000Z</time>
      </trkpt>
      <trkpt lat="43.36360825225711" lon="-5.861582234501839">
        <ele>244.6</ele>
        <time>2017-08-02T05:22:24.000Z</time>
      </trkpt>
      <trkpt lat="43.36358050815761" lon="-5.861616767942905">
        <ele>245</ele>
        <time>2017-08-02T05:22:27.000Z</time>
      </trkpt>
      <trkpt lat="43.3635672647506" lon="-5.861627664417028">
        <ele>245</ele>
        <time>2017-08-02T05:22:29.000Z</time>
      </trkpt>
      <trkpt lat="43.36354630999267" lon="-5.861646523699164">
        <ele>245</ele>
        <time>2017-08-02T05:22:32.000Z</time>
      </trkpt>
      <trkpt lat="43.36354999803007" lon="-5.861664125695825">
        <ele>245</ele>
        <time>2017-08-02T05:22:33.000Z</time>
      </trkpt>
      <trkpt lat="43.363546477630734" lon="-5.861720535904169">
        <ele>245</ele>
        <time>2017-08-02T05:22:37.000Z</time>
      </trkpt>
      <trkpt lat="43.36355402134359" lon="-5.8617442566901445">
        <ele>245</ele>
        <time>2017-08-02T05:22:38.000Z</time>
      </trkpt>
      <trkpt lat="43.36356516927481" lon="-5.861807204782963">
        <ele>245</ele>
        <time>2017-08-02T05:22:41.000Z</time>
      </trkpt>
      <trkpt lat="43.36355636827648" lon="-5.861911727115512">
        <ele>245</ele>
        <time>2017-08-02T05:22:47.000Z</time>
      </trkpt>
      <trkpt lat="43.36355108767748" lon="-5.861972747370601">
        <ele>245</ele>
        <time>2017-08-02T05:22:51.000Z</time>
      </trkpt>
      <trkpt lat="43.363558212295175" lon="-5.862003089860082">
        <ele>245</ele>
        <time>2017-08-02T05:22:53.000Z</time>
      </trkpt>
      <trkpt lat="43.36358780041337" lon="-5.862086154520512">
        <ele>244.8</ele>
        <time>2017-08-02T05:22:58.000Z</time>
      </trkpt>
      <trkpt lat="43.36359861306846" lon="-5.862122783437371">
        <ele>244.6</ele>
        <time>2017-08-02T05:23:00.000Z</time>
      </trkpt>
      <trkpt lat="43.3636206574738" lon="-5.862178355455399">
        <ele>244.2</ele>
        <time>2017-08-02T05:23:04.000Z</time>
      </trkpt>
      <trkpt lat="43.363625183701515" lon="-5.862234849482775">
        <ele>244</ele>
        <time>2017-08-02T05:23:07.000Z</time>
      </trkpt>
      <trkpt lat="43.363630548119545" lon="-5.862254295498133">
        <ele>243.8</ele>
        <time>2017-08-02T05:23:08.000Z</time>
      </trkpt>
      <trkpt lat="43.3636468090117" lon="-5.8622941095381975">
        <ele>243.8</ele>
        <time>2017-08-02T05:23:11.000Z</time>
      </trkpt>
      <trkpt lat="43.36365125142038" lon="-5.862317327409983">
        <ele>243.8</ele>
        <time>2017-08-02T05:23:12.000Z</time>
      </trkpt>
      <trkpt lat="43.36366893723607" lon="-5.86238513700664">
        <ele>243.6</ele>
        <time>2017-08-02T05:23:17.000Z</time>
      </trkpt>
      <trkpt lat="43.36370305158198" lon="-5.8624843787401915">
        <ele>243.6</ele>
        <time>2017-08-02T05:23:22.000Z</time>
      </trkpt>
      <trkpt lat="43.36372844874859" lon="-5.8625889010727406">
        <ele>244</ele>
        <time>2017-08-02T05:23:27.000Z</time>
      </trkpt>
      <trkpt lat="43.36372350342572" lon="-5.8625996299088">
        <ele>244</ele>
        <time>2017-08-02T05:23:28.000Z</time>
      </trkpt>
      <trkpt lat="43.36373540572822" lon="-5.862627541646361">
        <ele>244.2</ele>
        <time>2017-08-02T05:23:30.000Z</time>
      </trkpt>
      <trkpt lat="43.363757617771626" lon="-5.862686801701784">
        <ele>244.6</ele>
        <time>2017-08-02T05:23:33.000Z</time>
      </trkpt>
      <trkpt lat="43.36377488449216" lon="-5.862717730924487">
        <ele>244.6</ele>
        <time>2017-08-02T05:23:35.000Z</time>
      </trkpt>
      <trkpt lat="43.36377111263573" lon="-5.862728543579578">
        <ele>244.8</ele>
        <time>2017-08-02T05:23:36.000Z</time>
      </trkpt>
      <trkpt lat="43.36377413012087" lon="-5.86275209672749">
        <ele>244.8</ele>
        <time>2017-08-02T05:23:38.000Z</time>
      </trkpt>
      <trkpt lat="43.36378075182438" lon="-5.862786043435335">
        <ele>245</ele>
        <time>2017-08-02T05:23:40.000Z</time>
      </trkpt>
      <trkpt lat="43.363796677440405" lon="-5.86284052580595">
        <ele>245</ele>
        <time>2017-08-02T05:23:43.000Z</time>
      </trkpt>
      <trkpt lat="43.36383833549917" lon="-5.862893918529153">
        <ele>245.2</ele>
        <time>2017-08-02T05:23:48.000Z</time>
      </trkpt>
      <trkpt lat="43.36385308764875" lon="-5.862957369536161">
        <ele>245.2</ele>
        <time>2017-08-02T05:23:52.000Z</time>
      </trkpt>
      <trkpt lat="43.363857697695494" lon="-5.86297488771379">
        <ele>245.4</ele>
        <time>2017-08-02T05:23:53.000Z</time>
      </trkpt>
      <trkpt lat="43.36389156058431" lon="-5.863082678988576">
        <ele>245.6</ele>
        <time>2017-08-02T05:24:00.000Z</time>
      </trkpt>
      <trkpt lat="43.36391435936093" lon="-5.863133724778891">
        <ele>245.6</ele>
        <time>2017-08-02T05:24:04.000Z</time>
      </trkpt>
      <trkpt lat="43.36392894387245" lon="-5.863148225471377">
        <ele>245.4</ele>
        <time>2017-08-02T05:24:06.000Z</time>
      </trkpt>
      <trkpt lat="43.36396045982838" lon="-5.863230703398585">
        <ele>245.2</ele>
        <time>2017-08-02T05:24:11.000Z</time>
      </trkpt>
      <trkpt lat="43.36396993137896" lon="-5.863239923492074">
        <ele>245.2</ele>
        <time>2017-08-02T05:24:12.000Z</time>
      </trkpt>
      <trkpt lat="43.364022402092814" lon="-5.863349726423621">
        <ele>244.4</ele>
        <time>2017-08-02T05:24:18.000Z</time>
      </trkpt>
      <trkpt lat="43.364074202254415" lon="-5.863481992855668">
        <ele>243.6</ele>
        <time>2017-08-02T05:24:25.000Z</time>
      </trkpt>
      <trkpt lat="43.364096665754914" lon="-5.863550640642643">
        <ele>243</ele>
        <time>2017-08-02T05:24:29.000Z</time>
      </trkpt>
      <trkpt lat="43.36414980702102" lon="-5.863647283986211">
        <ele>242</ele>
        <time>2017-08-02T05:24:34.000Z</time>
      </trkpt>
      <trkpt lat="43.36420697160065" lon="-5.86375817656517">
        <ele>241</ele>
        <time>2017-08-02T05:24:39.000Z</time>
      </trkpt>
      <trkpt lat="43.36424712091684" lon="-5.86381291039288">
        <ele>240.4</ele>
        <time>2017-08-02T05:24:43.000Z</time>
      </trkpt>
      <trkpt lat="43.364258855581284" lon="-5.863838559016585">
        <ele>240.2</ele>
        <time>2017-08-02T05:24:44.000Z</time>
      </trkpt>
      <trkpt lat="43.364277547225356" lon="-5.86390427313745">
        <ele>240</ele>
        <time>2017-08-02T05:24:48.000Z</time>
      </trkpt>
      <trkpt lat="43.36429565213621" lon="-5.863960264250636">
        <ele>239.8</ele>
        <time>2017-08-02T05:24:51.000Z</time>
      </trkpt>
      <trkpt lat="43.36431434378028" lon="-5.864026816561818">
        <ele>239.6</ele>
        <time>2017-08-02T05:24:56.000Z</time>
      </trkpt>
      <trkpt lat="43.364313589408994" lon="-5.8640326000750065">
        <ele>239.6</ele>
        <time>2017-08-02T05:24:57.000Z</time>
      </trkpt>
      <trkpt lat="43.364302944391966" lon="-5.864043161273003">
        <ele>239.8</ele>
        <time>2017-08-02T05:24:59.000Z</time>
      </trkpt>
      <trkpt lat="43.364300429821014" lon="-5.864045592024922">
        <ele>239.8</ele>
        <time>2017-08-02T05:25:00.000Z</time>
      </trkpt>
      <trkpt lat="43.36428835988045" lon="-5.864102421328425">
        <ele>239.8</ele>
        <time>2017-08-02T05:25:03.000Z</time>
      </trkpt>
      <trkpt lat="43.364275116473436" lon="-5.86422186344862">
        <ele>239.6</ele>
        <time>2017-08-02T05:25:07.000Z</time>
      </trkpt>
      <trkpt lat="43.36426204070449" lon="-5.864296210929751">
        <ele>239.6</ele>
        <time>2017-08-02T05:25:10.000Z</time>
      </trkpt>
      <trkpt lat="43.364266734570265" lon="-5.864320686087012">
        <ele>239.6</ele>
        <time>2017-08-02T05:25:11.000Z</time>
      </trkpt>
      <trkpt lat="43.36428249254823" lon="-5.86437625810504">
        <ele>239.4</ele>
        <time>2017-08-02T05:25:14.000Z</time>
      </trkpt>
      <trkpt lat="43.36427377536893" lon="-5.864387908950448">
        <ele>239.4</ele>
        <time>2017-08-02T05:25:15.000Z</time>
      </trkpt>
      <trkpt lat="43.364270590245724" lon="-5.864402074366808">
        <ele>239.4</ele>
        <time>2017-08-02T05:25:16.000Z</time>
      </trkpt>
      <trkpt lat="43.3642512280494" lon="-5.864427387714386">
        <ele>239.6</ele>
        <time>2017-08-02T05:25:19.000Z</time>
      </trkpt>
      <trkpt lat="43.36426614783704" lon="-5.864447336643934">
        <ele>239.6</ele>
        <time>2017-08-02T05:25:21.000Z</time>
      </trkpt>
      <trkpt lat="43.36426899768412" lon="-5.864469800144434">
        <ele>239.8</ele>
        <time>2017-08-02T05:25:24.000Z</time>
      </trkpt>
      <trkpt lat="43.36428710259497" lon="-5.864460999146104">
        <ele>239.6</ele>
        <time>2017-08-02T05:25:26.000Z</time>
      </trkpt>
      <trkpt lat="43.36438290774822" lon="-5.864370223134756">
        <ele>238.6</ele>
        <time>2017-08-02T05:25:32.000Z</time>
      </trkpt>
      <trkpt lat="43.36439539678395" lon="-5.864362847059965">
        <ele>238.4</ele>
        <time>2017-08-02T05:25:33.000Z</time>
      </trkpt>
      <trkpt lat="43.36444837041199" lon="-5.864391177892685">
        <ele>238</ele>
        <time>2017-08-02T05:25:39.000Z</time>
      </trkpt>
      <trkpt lat="43.36446454748511" lon="-5.8644036669284105">
        <ele>237.8</ele>
        <time>2017-08-02T05:25:40.000Z</time>
      </trkpt>
      <trkpt lat="43.364473935216665" lon="-5.864409198984504">
        <ele>237.8</ele>
        <time>2017-08-02T05:25:41.000Z</time>
      </trkpt>
      <trkpt lat="43.364472007378936" lon="-5.864461921155453">
        <ele>238</ele>
        <time>2017-08-02T05:25:46.000Z</time>
      </trkpt>
      <trkpt lat="43.364508636295795" lon="-5.864526880905032">
        <ele>237.8</ele>
        <time>2017-08-02T05:25:51.000Z</time>
      </trkpt>
      <trkpt lat="43.36454124189913" lon="-5.864588739350438">
        <ele>237.8</ele>
        <time>2017-08-02T05:25:57.000Z</time>
      </trkpt>
      <trkpt lat="43.364569237455726" lon="-5.8646428026258945">
        <ele>237.6</ele>
        <time>2017-08-02T05:26:01.000Z</time>
      </trkpt>
      <trkpt lat="43.36457971483469" lon="-5.864663757383823">
        <ele>237.6</ele>
        <time>2017-08-02T05:26:02.000Z</time>
      </trkpt>
      <trkpt lat="43.364631263539195" lon="-5.864730477333069">
        <ele>237.2</ele>
        <time>2017-08-02T05:26:06.000Z</time>
      </trkpt>
      <trkpt lat="43.36466512642801" lon="-5.864872299134731">
        <ele>237.2</ele>
        <time>2017-08-02T05:26:12.000Z</time>
      </trkpt>
      <trkpt lat="43.36466847918928" lon="-5.864889649674296">
        <ele>237.2</ele>
        <time>2017-08-02T05:26:13.000Z</time>
      </trkpt>
      <trkpt lat="43.364680968225" lon="-5.864912532269955">
        <ele>237</ele>
        <time>2017-08-02T05:26:14.000Z</time>
      </trkpt>
      <trkpt lat="43.36470586247742" lon="-5.864946814253926">
        <ele>236.6</ele>
        <time>2017-08-02T05:26:16.000Z</time>
      </trkpt>
      <trkpt lat="43.364722626283765" lon="-5.864987215027213">
        <ele>236.4</ele>
        <time>2017-08-02T05:26:18.000Z</time>
      </trkpt>
      <trkpt lat="43.364740731194615" lon="-5.86501688696444">
        <ele>236</ele>
        <time>2017-08-02T05:26:20.000Z</time>
      </trkpt>
      <trkpt lat="43.364755399525166" lon="-5.865066926926374">
        <ele>235.8</ele>
        <time>2017-08-02T05:26:22.000Z</time>
      </trkpt>
      <trkpt lat="43.36475355550647" lon="-5.865087127313018">
        <ele>236</ele>
        <time>2017-08-02T05:26:24.000Z</time>
      </trkpt>
      <trkpt lat="43.36474743671715" lon="-5.865105735138059">
        <ele>236</ele>
        <time>2017-08-02T05:26:25.000Z</time>
      </trkpt>
      <trkpt lat="43.36475405842066" lon="-5.865116883069277">
        <ele>236</ele>
        <time>2017-08-02T05:26:26.000Z</time>
      </trkpt>
      <trkpt lat="43.36475154384971" lon="-5.865174550563097">
        <ele>235.8</ele>
        <time>2017-08-02T05:26:30.000Z</time>
      </trkpt>
      <trkpt lat="43.36475187912583" lon="-5.865191230550408">
        <ele>235.8</ele>
        <time>2017-08-02T05:26:31.000Z</time>
      </trkpt>
      <trkpt lat="43.364748107269406" lon="-5.8652338944375515">
        <ele>235.6</ele>
        <time>2017-08-02T05:26:34.000Z</time>
      </trkpt>
      <trkpt lat="43.364734863862395" lon="-5.865254765376449">
        <ele>235.8</ele>
        <time>2017-08-02T05:26:36.000Z</time>
      </trkpt>
      <trkpt lat="43.36473997682333" lon="-5.865303799510002">
        <ele>235.4</ele>
        <time>2017-08-02T05:26:40.000Z</time>
      </trkpt>
      <trkpt lat="43.364745592698455" lon="-5.865312600508332">
        <ele>235.4</ele>
        <time>2017-08-02T05:26:41.000Z</time>
      </trkpt>
      <trkpt lat="43.36475414223969" lon="-5.8653290290385485">
        <ele>235.2</ele>
        <time>2017-08-02T05:26:42.000Z</time>
      </trkpt>
      <trkpt lat="43.36478582583368" lon="-5.865432796999812">
        <ele>235.2</ele>
        <time>2017-08-02T05:26:47.000Z</time>
      </trkpt>
      <trkpt lat="43.364825304597616" lon="-5.865537403151393">
        <ele>235.2</ele>
        <time>2017-08-02T05:26:52.000Z</time>
      </trkpt>
      <trkpt lat="43.36483192630112" lon="-5.865566320717335">
        <ele>235.2</ele>
        <time>2017-08-02T05:26:53.000Z</time>
      </trkpt>
      <trkpt lat="43.36485514417291" lon="-5.865640165284276">
        <ele>235.6</ele>
        <time>2017-08-02T05:26:56.000Z</time>
      </trkpt>
      <trkpt lat="43.36488230153918" lon="-5.865690540522337">
        <ele>236</ele>
        <time>2017-08-02T05:26:58.000Z</time>
      </trkpt>
      <trkpt lat="43.36489034816623" lon="-5.865732030943036">
        <ele>236.6</ele>
        <time>2017-08-02T05:27:00.000Z</time>
      </trkpt>
      <trkpt lat="43.36490618996322" lon="-5.865782657638192">
        <ele>236.8</ele>
        <time>2017-08-02T05:27:03.000Z</time>
      </trkpt>
      <trkpt lat="43.36491180583835" lon="-5.865825740620494">
        <ele>237</ele>
        <time>2017-08-02T05:27:06.000Z</time>
      </trkpt>
      <trkpt lat="43.364917170256376" lon="-5.865846863016486">
        <ele>237</ele>
        <time>2017-08-02T05:27:07.000Z</time>
      </trkpt>
      <trkpt lat="43.36493778973818" lon="-5.865923305973411">
        <ele>237.2</ele>
        <time>2017-08-02T05:27:12.000Z</time>
      </trkpt>
      <trkpt lat="43.36496486328542" lon="-5.865949960425496">
        <ele>237.2</ele>
        <time>2017-08-02T05:27:14.000Z</time>
      </trkpt>
      <trkpt lat="43.36498573422432" lon="-5.866035623475909">
        <ele>237.8</ele>
        <time>2017-08-02T05:27:19.000Z</time>
      </trkpt>
      <trkpt lat="43.364999229088426" lon="-5.86610360071063">
        <ele>238.4</ele>
        <time>2017-08-02T05:27:22.000Z</time>
      </trkpt>
      <trkpt lat="43.36502647027373" lon="-5.866155903786421">
        <ele>238.6</ele>
        <time>2017-08-02T05:27:25.000Z</time>
      </trkpt>
      <trkpt lat="43.365065110847354" lon="-5.866201501339674">
        <ele>238.4</ele>
        <time>2017-08-02T05:27:29.000Z</time>
      </trkpt>
      <trkpt lat="43.365090591832995" lon="-5.8662361185997725">
        <ele>238.2</ele>
        <time>2017-08-02T05:27:32.000Z</time>
      </trkpt>
      <trkpt lat="43.36514842696488" lon="-5.866302419453859">
        <ele>237.6</ele>
        <time>2017-08-02T05:27:38.000Z</time>
      </trkpt>
      <trkpt lat="43.36515278555453" lon="-5.866326726973057">
        <ele>237.6</ele>
        <time>2017-08-02T05:27:40.000Z</time>
      </trkpt>
      <trkpt lat="43.365159993991256" lon="-5.866362517699599">
        <ele>237.6</ele>
        <time>2017-08-02T05:27:43.000Z</time>
      </trkpt>
      <trkpt lat="43.36518664844334" lon="-5.866429824382067">
        <ele>237.6</ele>
        <time>2017-08-02T05:27:47.000Z</time>
      </trkpt>
      <trkpt lat="43.36519377306104" lon="-5.866448348388076">
        <ele>237.6</ele>
        <time>2017-08-02T05:27:48.000Z</time>
      </trkpt>
      <trkpt lat="43.365209363400936" lon="-5.866469135507941">
        <ele>237.4</ele>
        <time>2017-08-02T05:27:49.000Z</time>
      </trkpt>
      <trkpt lat="43.365243980661035" lon="-5.866546416655183">
        <ele>237.2</ele>
        <time>2017-08-02T05:27:54.000Z</time>
      </trkpt>
      <trkpt lat="43.36527449078858" lon="-5.866623865440488">
        <ele>236.8</ele>
        <time>2017-08-02T05:28:00.000Z</time>
      </trkpt>
      <trkpt lat="43.36529075168073" lon="-5.866693435236812">
        <ele>236.8</ele>
        <time>2017-08-02T05:28:07.000Z</time>
      </trkpt>
      <trkpt lat="43.36534456349909" lon="-5.866766190156341">
        <ele>235.8</ele>
        <time>2017-08-02T05:28:13.000Z</time>
      </trkpt>
      <trkpt lat="43.365351436659694" lon="-5.866780774667859">
        <ele>235.6</ele>
        <time>2017-08-02T05:28:15.000Z</time>
      </trkpt>
      <trkpt lat="43.3653580583632" lon="-5.866789827123284">
        <ele>235.4</ele>
        <time>2017-08-02T05:28:16.000Z</time>
      </trkpt>
      <trkpt lat="43.36536442860961" lon="-5.866796281188726">
        <ele>235.2</ele>
        <time>2017-08-02T05:28:18.000Z</time>
      </trkpt>
      <trkpt lat="43.365366691723466" lon="-5.866815559566021">
        <ele>235.2</ele>
        <time>2017-08-02T05:28:19.000Z</time>
      </trkpt>
      <trkpt lat="43.36538488045335" lon="-5.866852356120944">
        <ele>234.6</ele>
        <time>2017-08-02T05:28:22.000Z</time>
      </trkpt>
      <trkpt lat="43.36540994234383" lon="-5.8669031504541636">
        <ele>233.8</ele>
        <time>2017-08-02T05:28:26.000Z</time>
      </trkpt>
      <trkpt lat="43.36541027761996" lon="-5.866913627833128">
        <ele>233.6</ele>
        <time>2017-08-02T05:28:27.000Z</time>
      </trkpt>
      <trkpt lat="43.365476159378886" lon="-5.867013456299901">
        <ele>231.2</ele>
        <time>2017-08-02T05:28:33.000Z</time>
      </trkpt>
      <trkpt lat="43.3655203320086" lon="-5.867087049409747">
        <ele>229.8</ele>
        <time>2017-08-02T05:28:39.000Z</time>
      </trkpt>
      <trkpt lat="43.36555947549641" lon="-5.867154439911246">
        <ele>229.2</ele>
        <time>2017-08-02T05:28:43.000Z</time>
      </trkpt>
      <trkpt lat="43.365648156031966" lon="-5.8672780729830265">
        <ele>227.8</ele>
        <time>2017-08-02T05:28:49.000Z</time>
      </trkpt>
      <trkpt lat="43.36565720848739" lon="-5.867362059652805">
        <ele>227.4</ele>
        <time>2017-08-02T05:28:53.000Z</time>
      </trkpt>
      <trkpt lat="43.36566584184766" lon="-5.86740480735898">
        <ele>227.4</ele>
        <time>2017-08-02T05:28:55.000Z</time>
      </trkpt>
      <trkpt lat="43.36567095480859" lon="-5.867466162890196">
        <ele>227.2</ele>
        <time>2017-08-02T05:28:58.000Z</time>
      </trkpt>
      <trkpt lat="43.365680845454335" lon="-5.86751569993794">
        <ele>227</ele>
        <time>2017-08-02T05:29:01.000Z</time>
      </trkpt>
      <trkpt lat="43.36568486876786" lon="-5.86754847317934">
        <ele>226.8</ele>
        <time>2017-08-02T05:29:03.000Z</time>
      </trkpt>
      <trkpt lat="43.36568905971944" lon="-5.867580156773329">
        <ele>226.6</ele>
        <time>2017-08-02T05:29:05.000Z</time>
      </trkpt>
      <trkpt lat="43.36571387015283" lon="-5.86764863692224">
        <ele>226</ele>
        <time>2017-08-02T05:29:08.000Z</time>
      </trkpt>
      <trkpt lat="43.36570934392512" lon="-5.867711417376995">
        <ele>226</ele>
        <time>2017-08-02T05:29:12.000Z</time>
      </trkpt>
      <trkpt lat="43.36568654514849" lon="-5.867825075984001">
        <ele>226.6</ele>
        <time>2017-08-02T05:29:17.000Z</time>
      </trkpt>
      <trkpt lat="43.36568537168205" lon="-5.86787830106914">
        <ele>226.8</ele>
        <time>2017-08-02T05:29:21.000Z</time>
      </trkpt>
      <trkpt lat="43.36568905971944" lon="-5.867962539196014">
        <ele>226.8</ele>
        <time>2017-08-02T05:29:26.000Z</time>
      </trkpt>
      <trkpt lat="43.3656997885555" lon="-5.867997743189335">
        <ele>226.8</ele>
        <time>2017-08-02T05:29:29.000Z</time>
      </trkpt>
      <trkpt lat="43.36569610051811" lon="-5.868000844493508">
        <ele>226.8</ele>
        <time>2017-08-02T05:29:30.000Z</time>
      </trkpt>
      <trkpt lat="43.36570314131677" lon="-5.868035880848765">
        <ele>226.8</ele>
        <time>2017-08-02T05:29:32.000Z</time>
      </trkpt>
      <trkpt lat="43.36570607498288" lon="-5.868056667968631">
        <ele>227</ele>
        <time>2017-08-02T05:29:34.000Z</time>
      </trkpt>
      <trkpt lat="43.365665674209595" lon="-5.868098996579647">
        <ele>227.2</ele>
        <time>2017-08-02T05:29:39.000Z</time>
      </trkpt>
      <trkpt lat="43.36566047742963" lon="-5.8681215438991785">
        <ele>227.4</ele>
        <time>2017-08-02T05:29:41.000Z</time>
      </trkpt>
      <trkpt lat="43.36564832367003" lon="-5.868141241371632">
        <ele>227.4</ele>
        <time>2017-08-02T05:29:43.000Z</time>
      </trkpt>
      <trkpt lat="43.36564832367003" lon="-5.868151215836406">
        <ele>227.6</ele>
        <time>2017-08-02T05:29:44.000Z</time>
      </trkpt>
      <trkpt lat="43.36563759483397" lon="-5.868174601346254">
        <ele>227.4</ele>
        <time>2017-08-02T05:29:46.000Z</time>
      </trkpt>
      <trkpt lat="43.36562443524599" lon="-5.868224306032062">
        <ele>227.2</ele>
        <time>2017-08-02T05:29:49.000Z</time>
      </trkpt>
      <trkpt lat="43.36562678217888" lon="-5.868307203054428">
        <ele>226.6</ele>
        <time>2017-08-02T05:29:53.000Z</time>
      </trkpt>
      <trkpt lat="43.3656204957515" lon="-5.868395632132888">
        <ele>226.4</ele>
        <time>2017-08-02T05:29:58.000Z</time>
      </trkpt>
      <trkpt lat="43.36562016047537" lon="-5.868420526385307">
        <ele>226.4</ele>
        <time>2017-08-02T05:29:59.000Z</time>
      </trkpt>
      <trkpt lat="43.365610521286726" lon="-5.868434775620699">
        <ele>226.4</ele>
        <time>2017-08-02T05:30:00.000Z</time>
      </trkpt>
      <trkpt lat="43.36561119183898" lon="-5.8684999868273735">
        <ele>225.8</ele>
        <time>2017-08-02T05:30:03.000Z</time>
      </trkpt>
      <trkpt lat="43.36561068892479" lon="-5.868589840829372">
        <ele>225.2</ele>
        <time>2017-08-02T05:30:08.000Z</time>
      </trkpt>
      <trkpt lat="43.365611024200916" lon="-5.8686272241175175">
        <ele>225</ele>
        <time>2017-08-02T05:30:10.000Z</time>
      </trkpt>
      <trkpt lat="43.36561412550509" lon="-5.8687723986804485">
        <ele>223.6</ele>
        <time>2017-08-02T05:30:17.000Z</time>
      </trkpt>
      <trkpt lat="43.36561404168606" lon="-5.86878421716392">
        <ele>223.4</ele>
        <time>2017-08-02T05:30:18.000Z</time>
      </trkpt>
      <trkpt lat="43.36561211384833" lon="-5.86887557990849">
        <ele>222.8</ele>
        <time>2017-08-02T05:30:23.000Z</time>
      </trkpt>
      <trkpt lat="43.365589482709765" lon="-5.868973648175597">
        <ele>222.2</ele>
        <time>2017-08-02T05:30:29.000Z</time>
      </trkpt>
      <trkpt lat="43.36558763869107" lon="-5.8690045773983">
        <ele>222</ele>
        <time>2017-08-02T05:30:31.000Z</time>
      </trkpt>
      <trkpt lat="43.36560876108706" lon="-5.869088983163238">
        <ele>221.6</ele>
        <time>2017-08-02T05:30:36.000Z</time>
      </trkpt>
      <trkpt lat="43.36563667282462" lon="-5.869181100279093">
        <ele>221.4</ele>
        <time>2017-08-02T05:30:40.000Z</time>
      </trkpt>
      <trkpt lat="43.36564052850008" lon="-5.869214376434684">
        <ele>221.2</ele>
        <time>2017-08-02T05:30:42.000Z</time>
      </trkpt>
      <trkpt lat="43.36566106416285" lon="-5.869337087497115">
        <ele>220.6</ele>
        <time>2017-08-02T05:30:48.000Z</time>
      </trkpt>
      <trkpt lat="43.3656342420727" lon="-5.86939986795187">
        <ele>220</ele>
        <time>2017-08-02T05:30:53.000Z</time>
      </trkpt>
      <trkpt lat="43.36564555764198" lon="-5.8694197330623865">
        <ele>220</ele>
        <time>2017-08-02T05:30:55.000Z</time>
      </trkpt>
      <trkpt lat="43.36568646132946" lon="-5.869484692811966">
        <ele>219.4</ele>
        <time>2017-08-02T05:31:01.000Z</time>
      </trkpt>
      <trkpt lat="43.36568503640592" lon="-5.869501875713468">
        <ele>219.4</ele>
        <time>2017-08-02T05:31:04.000Z</time>
      </trkpt>
      <trkpt lat="43.36566793732345" lon="-5.869534397497773">
        <ele>219</ele>
        <time>2017-08-02T05:31:06.000Z</time>
      </trkpt>
      <trkpt lat="43.365652011707425" lon="-5.86955769918859">
        <ele>218.8</ele>
        <time>2017-08-02T05:31:08.000Z</time>
      </trkpt>
      <trkpt lat="43.36565477773547" lon="-5.869575804099441">
        <ele>218.6</ele>
        <time>2017-08-02T05:31:09.000Z</time>
      </trkpt>
      <trkpt lat="43.365682857111096" lon="-5.869624838232994">
        <ele>218.2</ele>
        <time>2017-08-02T05:31:13.000Z</time>
      </trkpt>
      <trkpt lat="43.36572208441794" lon="-5.869660126045346">
        <ele>218.2</ele>
        <time>2017-08-02T05:31:16.000Z</time>
      </trkpt>
      <trkpt lat="43.365740021690726" lon="-5.869697090238333">
        <ele>218.4</ele>
        <time>2017-08-02T05:31:18.000Z</time>
      </trkpt>
      <trkpt lat="43.365784445777535" lon="-5.869751488789916">
        <ele>218.8</ele>
        <time>2017-08-02T05:31:23.000Z</time>
      </trkpt>
      <trkpt lat="43.365836665034294" lon="-5.8698205556720495">
        <ele>219.4</ele>
        <time>2017-08-02T05:31:30.000Z</time>
      </trkpt>
      <trkpt lat="43.36582367308438" lon="-5.869888868182898">
        <ele>218.8</ele>
        <time>2017-08-02T05:31:35.000Z</time>
      </trkpt>
      <trkpt lat="43.365825433284044" lon="-5.869916947558522">
        <ele>218.6</ele>
        <time>2017-08-02T05:31:39.000Z</time>
      </trkpt>
      <trkpt lat="43.365831384435296" lon="-5.869938489049673">
        <ele>218.4</ele>
        <time>2017-08-02T05:31:45.000Z</time>
      </trkpt>
      <trkpt lat="43.36585468612611" lon="-5.869957767426968">
        <ele>218.4</ele>
        <time>2017-08-02T05:31:53.000Z</time>
      </trkpt>
      <trkpt lat="43.365880250930786" lon="-5.870007053017616">
        <ele>218.2</ele>
        <time>2017-08-02T05:32:01.000Z</time>
      </trkpt>
      <trkpt lat="43.36595468223095" lon="-5.8700682409107685">
        <ele>218.8</ele>
        <time>2017-08-02T05:32:08.000Z</time>
      </trkpt>
      <trkpt lat="43.36601838469505" lon="-5.8701112400740385">
        <ele>219.4</ele>
        <time>2017-08-02T05:32:14.000Z</time>
      </trkpt>
      <trkpt lat="43.36604327894747" lon="-5.870129344984889">
        <ele>219.6</ele>
        <time>2017-08-02T05:32:16.000Z</time>
      </trkpt>
      <trkpt lat="43.36606364697218" lon="-5.8701398223638535">
        <ele>219.8</ele>
        <time>2017-08-02T05:32:18.000Z</time>
      </trkpt>
      <trkpt lat="43.36608426645398" lon="-5.87015382014215">
        <ele>220</ele>
        <time>2017-08-02T05:32:21.000Z</time>
      </trkpt>
      <trkpt lat="43.36609918624163" lon="-5.870165387168527">
        <ele>220</ele>
        <time>2017-08-02T05:32:23.000Z</time>
      </trkpt>
      <trkpt lat="43.36616632528603" lon="-5.870227245613933">
        <ele>220.6</ele>
        <time>2017-08-02T05:32:30.000Z</time>
      </trkpt>
      <trkpt lat="43.36619457229972" lon="-5.870244763791561">
        <ele>220.8</ele>
        <time>2017-08-02T05:32:33.000Z</time>
      </trkpt>
      <trkpt lat="43.366211000829935" lon="-5.870236968621612">
        <ele>221</ele>
        <time>2017-08-02T05:32:36.000Z</time>
      </trkpt>
      <trkpt lat="43.36624704301357" lon="-5.870203943923116">
        <ele>221.6</ele>
        <time>2017-08-02T05:32:41.000Z</time>
      </trkpt>
      <trkpt lat="43.36625408381224" lon="-5.870186509564519">
        <ele>221.6</ele>
        <time>2017-08-02T05:32:42.000Z</time>
      </trkpt>
      <trkpt lat="43.36628559976816" lon="-5.870115850120783">
        <ele>222.2</ele>
        <time>2017-08-02T05:32:47.000Z</time>
      </trkpt>
      <trkpt lat="43.36628459393978" lon="-5.8700974099338055">
        <ele>222.2</ele>
        <time>2017-08-02T05:32:48.000Z</time>
      </trkpt>
      <trkpt lat="43.36632792837918" lon="-5.86998232640326">
        <ele>223.2</ele>
        <time>2017-08-02T05:32:56.000Z</time>
      </trkpt>
      <trkpt lat="43.36637495085597" lon="-5.869943266734481">
        <ele>223.8</ele>
        <time>2017-08-02T05:33:00.000Z</time>
      </trkpt>
      <trkpt lat="43.366409316658974" lon="-5.869878306984901">
        <ele>224.2</ele>
        <time>2017-08-02T05:33:05.000Z</time>
      </trkpt>
      <trkpt lat="43.3664685767144" lon="-5.869820639491081">
        <ele>224.8</ele>
        <time>2017-08-02T05:33:10.000Z</time>
      </trkpt>
      <trkpt lat="43.36656387895346" lon="-5.869714189320803">
        <ele>225.6</ele>
        <time>2017-08-02T05:33:18.000Z</time>
      </trkpt>
      <trkpt lat="43.366613667458296" lon="-5.8696421049535275">
        <ele>225.8</ele>
        <time>2017-08-02T05:33:23.000Z</time>
      </trkpt>
      <trkpt lat="43.36661861278117" lon="-5.869625424966216">
        <ele>226</ele>
        <time>2017-08-02T05:33:24.000Z</time>
      </trkpt>
      <trkpt lat="43.3666549064219" lon="-5.86954252794385">
        <ele>225.8</ele>
        <time>2017-08-02T05:33:29.000Z</time>
      </trkpt>
      <trkpt lat="43.36668860167265" lon="-5.869479160755873">
        <ele>225.6</ele>
        <time>2017-08-02T05:33:34.000Z</time>
      </trkpt>
      <trkpt lat="43.36669312790036" lon="-5.869464995339513">
        <ele>225.6</ele>
        <time>2017-08-02T05:33:35.000Z</time>
      </trkpt>
      <trkpt lat="43.366733277216554" lon="-5.869419984519482">
        <ele>225.2</ele>
        <time>2017-08-02T05:33:39.000Z</time>
      </trkpt>
      <trkpt lat="43.366814916953444" lon="-5.869392491877079">
        <ele>224.6</ele>
        <time>2017-08-02T05:33:44.000Z</time>
      </trkpt>
      <trkpt lat="43.366857497021556" lon="-5.869380086660385">
        <ele>224.4</ele>
        <time>2017-08-02T05:33:46.000Z</time>
      </trkpt>
      <trkpt lat="43.36690912954509" lon="-5.869433982297778">
        <ele>224</ele>
        <time>2017-08-02T05:33:50.000Z</time>
      </trkpt>
      <trkpt lat="43.36695003323257" lon="-5.869474299252033">
        <ele>223.4</ele>
        <time>2017-08-02T05:33:54.000Z</time>
      </trkpt>
      <trkpt lat="43.366956152021885" lon="-5.869489470496774">
        <ele>223.2</ele>
        <time>2017-08-02T05:33:55.000Z</time>
      </trkpt>
      <trkpt lat="43.36696998216212" lon="-5.869517968967557">
        <ele>223.2</ele>
        <time>2017-08-02T05:33:57.000Z</time>
      </trkpt>
      <trkpt lat="43.36698766797781" lon="-5.869544204324484">
        <ele>222.8</ele>
        <time>2017-08-02T05:34:00.000Z</time>
      </trkpt>
      <trkpt lat="43.366995798423886" lon="-5.869546802714467">
        <ele>222.8</ele>
        <time>2017-08-02T05:34:01.000Z</time>
      </trkpt>
      <trkpt lat="43.36701851338148" lon="-5.8695905562490225">
        <ele>222.6</ele>
        <time>2017-08-02T05:34:05.000Z</time>
      </trkpt>
      <trkpt lat="43.36702220141888" lon="-5.869655013084412">
        <ele>222.8</ele>
        <time>2017-08-02T05:34:11.000Z</time>
      </trkpt>
      <trkpt lat="43.367038294672966" lon="-5.869712512940168">
        <ele>222.8</ele>
        <time>2017-08-02T05:34:16.000Z</time>
      </trkpt>
      <trkpt lat="43.36707810871303" lon="-5.869797086343169">
        <ele>223</ele>
        <time>2017-08-02T05:34:22.000Z</time>
      </trkpt>
      <trkpt lat="43.36708774790168" lon="-5.869811754673719">
        <ele>223</ele>
        <time>2017-08-02T05:34:23.000Z</time>
      </trkpt>
      <trkpt lat="43.36711088195443" lon="-5.869861878454685">
        <ele>223</ele>
        <time>2017-08-02T05:34:26.000Z</time>
      </trkpt>
      <trkpt lat="43.367144744843245" lon="-5.869912840425968">
        <ele>223</ele>
        <time>2017-08-02T05:34:29.000Z</time>
      </trkpt>
      <trkpt lat="43.367174584418535" lon="-5.869931196793914">
        <ele>222.8</ele>
        <time>2017-08-02T05:34:31.000Z</time>
      </trkpt>
      <trkpt lat="43.36726921610534" lon="-5.869974447414279">
        <ele>222.8</ele>
        <time>2017-08-02T05:34:37.000Z</time>
      </trkpt>
      <trkpt lat="43.367280112579465" lon="-5.869990456849337">
        <ele>222.8</ele>
        <time>2017-08-02T05:34:38.000Z</time>
      </trkpt>
      <trkpt lat="43.367280112579465" lon="-5.869990456849337">
        <ele>222.8</ele>
        <time>2017-08-02T05:34:38.000Z</time>
      </trkpt>
      <trkpt lat="43.36735211312771" lon="-5.869995569810271">
        <ele>222.6</ele>
        <time>2017-08-02T05:34:42.000Z</time>
      </trkpt>
      <trkpt lat="43.3673906698823" lon="-5.869989367201924">
        <ele>222.4</ele>
        <time>2017-08-02T05:34:44.000Z</time>
      </trkpt>
      <trkpt lat="43.36742402985692" lon="-5.869980566203594">
        <ele>222.2</ele>
        <time>2017-08-02T05:34:46.000Z</time>
      </trkpt>
      <trkpt lat="43.367459485307336" lon="-5.869973273947835">
        <ele>222</ele>
        <time>2017-08-02T05:34:49.000Z</time>
      </trkpt>
      <trkpt lat="43.367494186386466" lon="-5.8699681609869">
        <ele>222.4</ele>
        <time>2017-08-02T05:34:52.000Z</time>
      </trkpt>
      <trkpt lat="43.36751891300082" lon="-5.86997545324266">
        <ele>222.8</ele>
        <time>2017-08-02T05:34:55.000Z</time>
      </trkpt>
      <trkpt lat="43.36755059659481" lon="-5.87001409381628">
        <ele>223.6</ele>
        <time>2017-08-02T05:34:59.000Z</time>
      </trkpt>
      <trkpt lat="43.36757121607661" lon="-5.87003068998456">
        <ele>223.6</ele>
        <time>2017-08-02T05:35:01.000Z</time>
      </trkpt>
      <trkpt lat="43.367576748132706" lon="-5.870040496811271">
        <ele>223.6</ele>
        <time>2017-08-02T05:35:02.000Z</time>
      </trkpt>
      <trkpt lat="43.36758295074105" lon="-5.870052482932806">
        <ele>223.6</ele>
        <time>2017-08-02T05:35:04.000Z</time>
      </trkpt>
      <trkpt lat="43.36757247336209" lon="-5.870063044130802">
        <ele>223.6</ele>
        <time>2017-08-02T05:35:08.000Z</time>
      </trkpt>
      <trkpt lat="43.367540119215846" lon="-5.870079221203923">
        <ele>223.4</ele>
        <time>2017-08-02T05:35:14.000Z</time>
      </trkpt>
      <trkpt lat="43.3675495069474" lon="-5.870121968910098">
        <ele>223.4</ele>
        <time>2017-08-02T05:35:18.000Z</time>
      </trkpt>
      <trkpt lat="43.36759024299681" lon="-5.870118699967861">
        <ele>223.4</ele>
        <time>2017-08-02T05:35:23.000Z</time>
      </trkpt>
      <trkpt lat="43.367607928812504" lon="-5.870098918676376">
        <ele>223.6</ele>
        <time>2017-08-02T05:35:28.000Z</time>
      </trkpt>
      <trkpt lat="43.367634918540716" lon="-5.870109228417277">
        <ele>223.6</ele>
        <time>2017-08-02T05:35:33.000Z</time>
      </trkpt>
      <trkpt lat="43.36767842061818" lon="-5.870104869827628">
        <ele>223.8</ele>
        <time>2017-08-02T05:35:38.000Z</time>
      </trkpt>
      <trkpt lat="43.367772130295634" lon="-5.870085507631302">
        <ele>224.4</ele>
        <time>2017-08-02T05:35:43.000Z</time>
      </trkpt>
      <trkpt lat="43.36781001649797" lon="-5.870111910626292">
        <ele>224.4</ele>
        <time>2017-08-02T05:35:46.000Z</time>
      </trkpt>
      <trkpt lat="43.367844047024846" lon="-5.870144767686725">
        <ele>224.8</ele>
        <time>2017-08-02T05:35:48.000Z</time>
      </trkpt>
      <trkpt lat="43.36794781498611" lon="-5.870251301676035">
        <ele>225</ele>
        <time>2017-08-02T05:35:55.000Z</time>
      </trkpt>
      <trkpt lat="43.36796524934471" lon="-5.870320620015264">
        <ele>224.4</ele>
        <time>2017-08-02T05:35:59.000Z</time>
      </trkpt>
      <trkpt lat="43.367973547428846" lon="-5.870406534522772">
        <ele>223.8</ele>
        <time>2017-08-02T05:36:03.000Z</time>
      </trkpt>
      <trkpt lat="43.36797899566591" lon="-5.870461687445641">
        <ele>223.4</ele>
        <time>2017-08-02T05:36:06.000Z</time>
      </trkpt>
      <trkpt lat="43.36799659766257" lon="-5.8705429919064045">
        <ele>223.2</ele>
        <time>2017-08-02T05:36:10.000Z</time>
      </trkpt>
      <trkpt lat="43.36800221353769" lon="-5.870622955262661">
        <ele>223</ele>
        <time>2017-08-02T05:36:14.000Z</time>
      </trkpt>
      <trkpt lat="43.36801428347826" lon="-5.8708101231604815">
        <ele>221.8</ele>
        <time>2017-08-02T05:36:24.000Z</time>
      </trkpt>
      <trkpt lat="43.36801537312567" lon="-5.8709691278636456">
        <ele>221</ele>
        <time>2017-08-02T05:36:32.000Z</time>
      </trkpt>
      <trkpt lat="43.36801704950631" lon="-5.871096784248948">
        <ele>221</ele>
        <time>2017-08-02T05:36:39.000Z</time>
      </trkpt>
      <trkpt lat="43.36801704950631" lon="-5.871115643531084">
        <ele>221</ele>
        <time>2017-08-02T05:36:40.000Z</time>
      </trkpt>
      <trkpt lat="43.36801419965923" lon="-5.871172556653619">
        <ele>221</ele>
        <time>2017-08-02T05:36:43.000Z</time>
      </trkpt>
      <trkpt lat="43.36801470257342" lon="-5.871239025145769">
        <ele>221</ele>
        <time>2017-08-02T05:36:47.000Z</time>
      </trkpt>
      <trkpt lat="43.368013026192784" lon="-5.871258722618222">
        <ele>221</ele>
        <time>2017-08-02T05:36:48.000Z</time>
      </trkpt>
      <trkpt lat="43.368014954030514" lon="-5.871399957686663">
        <ele>221</ele>
        <time>2017-08-02T05:36:56.000Z</time>
      </trkpt>
      <trkpt lat="43.3680085837841" lon="-5.871509509161115">
        <ele>221</ele>
        <time>2017-08-02T05:37:02.000Z</time>
      </trkpt>
      <trkpt lat="43.36800833232701" lon="-5.871527446433902">
        <ele>221</ele>
        <time>2017-08-02T05:37:03.000Z</time>
      </trkpt>
      <trkpt lat="43.36800145916641" lon="-5.871707322075963">
        <ele>221</ele>
        <time>2017-08-02T05:37:13.000Z</time>
      </trkpt>
      <trkpt lat="43.367989808321" lon="-5.871831206604838">
        <ele>220.8</ele>
        <time>2017-08-02T05:37:20.000Z</time>
      </trkpt>
      <trkpt lat="43.36791797541082" lon="-5.871939584612846">
        <ele>220.6</ele>
        <time>2017-08-02T05:37:28.000Z</time>
      </trkpt>
      <trkpt lat="43.367858715355396" lon="-5.872051734477282">
        <ele>220.4</ele>
        <time>2017-08-02T05:37:36.000Z</time>
      </trkpt>
      <trkpt lat="43.36780775338411" lon="-5.872181402519345">
        <ele>220.8</ele>
        <time>2017-08-02T05:37:44.000Z</time>
      </trkpt>
      <trkpt lat="43.36776567623019" lon="-5.872352560982108">
        <ele>221</ele>
        <time>2017-08-02T05:37:54.000Z</time>
      </trkpt>
      <trkpt lat="43.36777523159981" lon="-5.8724098931998014">
        <ele>221</ele>
        <time>2017-08-02T05:37:58.000Z</time>
      </trkpt>
      <trkpt lat="43.36778713390231" lon="-5.8724346198141575">
        <ele>221</ele>
        <time>2017-08-02T05:38:00.000Z</time>
      </trkpt>
      <trkpt lat="43.367836168035865" lon="-5.872496059164405">
        <ele>221</ele>
        <time>2017-08-02T05:38:06.000Z</time>
      </trkpt>
      <trkpt lat="43.3678690250963" lon="-5.872533610090613">
        <ele>220.8</ele>
        <time>2017-08-02T05:38:09.000Z</time>
      </trkpt>
      <trkpt lat="43.36788972839713" lon="-5.872573675587773">
        <ele>220.6</ele>
        <time>2017-08-02T05:38:12.000Z</time>
      </trkpt>
      <trkpt lat="43.36788956075907" lon="-5.872593708336353">
        <ele>220.6</ele>
        <time>2017-08-02T05:38:13.000Z</time>
      </trkpt>
      <trkpt lat="43.36787891574204" lon="-5.872676940634847">
        <ele>220.2</ele>
        <time>2017-08-02T05:38:17.000Z</time>
      </trkpt>
      <trkpt lat="43.36785678751767" lon="-5.872781965881586">
        <ele>220</ele>
        <time>2017-08-02T05:38:22.000Z</time>
      </trkpt>
      <trkpt lat="43.36783935315907" lon="-5.8729449938982725">
        <ele>218.8</ele>
        <time>2017-08-02T05:38:30.000Z</time>
      </trkpt>
      <trkpt lat="43.367836168035865" lon="-5.8730928506702185">
        <ele>217</ele>
        <time>2017-08-02T05:38:37.000Z</time>
      </trkpt>
      <trkpt lat="43.36783113889396" lon="-5.8732792641967535">
        <ele>216.2</ele>
        <time>2017-08-02T05:38:46.000Z</time>
      </trkpt>
      <trkpt lat="43.36780180223286" lon="-5.873451344668865">
        <ele>215.6</ele>
        <time>2017-08-02T05:38:55.000Z</time>
      </trkpt>
      <trkpt lat="43.36780188605189" lon="-5.873473221436143">
        <ele>215.6</ele>
        <time>2017-08-02T05:38:56.000Z</time>
      </trkpt>
      <trkpt lat="43.36778746917844" lon="-5.87354782037437">
        <ele>215.6</ele>
        <time>2017-08-02T05:39:00.000Z</time>
      </trkpt>
      <trkpt lat="43.367789229378104" lon="-5.87356592528522">
        <ele>215.6</ele>
        <time>2017-08-02T05:39:01.000Z</time>
      </trkpt>
      <trkpt lat="43.36777129210532" lon="-5.873721409589052">
        <ele>215.4</ele>
        <time>2017-08-02T05:39:09.000Z</time>
      </trkpt>
      <trkpt lat="43.36775033734739" lon="-5.873895334079862">
        <ele>215.2</ele>
        <time>2017-08-02T05:39:18.000Z</time>
      </trkpt>
      <trkpt lat="43.36774690076709" lon="-5.873966915532947">
        <ele>215</ele>
        <time>2017-08-02T05:39:22.000Z</time>
      </trkpt>
      <trkpt lat="43.3677429612726" lon="-5.874003628268838">
        <ele>215</ele>
        <time>2017-08-02T05:39:24.000Z</time>
      </trkpt>
      <trkpt lat="43.36769870482385" lon="-5.874121142551303">
        <ele>214.6</ele>
        <time>2017-08-02T05:39:32.000Z</time>
      </trkpt>
      <trkpt lat="43.3676877245307" lon="-5.874133128672838">
        <ele>214.4</ele>
        <time>2017-08-02T05:39:33.000Z</time>
      </trkpt>
      <trkpt lat="43.367652436718345" lon="-5.874180654063821">
        <ele>214.4</ele>
        <time>2017-08-02T05:39:37.000Z</time>
      </trkpt>
      <trkpt lat="43.367645647376776" lon="-5.874193562194705">
        <ele>214.2</ele>
        <time>2017-08-02T05:39:38.000Z</time>
      </trkpt>
      <trkpt lat="43.36758974008262" lon="-5.874286098405719">
        <ele>214</ele>
        <time>2017-08-02T05:39:45.000Z</time>
      </trkpt>
      <trkpt lat="43.36749376729131" lon="-5.874338401481509">
        <ele>214</ele>
        <time>2017-08-02T05:39:52.000Z</time>
      </trkpt>
      <trkpt lat="43.367451690137386" lon="-5.874413503333926">
        <ele>214</ele>
        <time>2017-08-02T05:39:58.000Z</time>
      </trkpt>
      <trkpt lat="43.367458898574114" lon="-5.874470416456461">
        <ele>214</ele>
        <time>2017-08-02T05:40:04.000Z</time>
      </trkpt>
      <trkpt lat="43.36746912449598" lon="-5.874486258253455">
        <ele>214</ele>
        <time>2017-08-02T05:40:06.000Z</time>
      </trkpt>
      <trkpt lat="43.36751053109765" lon="-5.874591618776321">
        <ele>213.8</ele>
        <time>2017-08-02T05:40:14.000Z</time>
      </trkpt>
      <trkpt lat="43.36752939037979" lon="-5.8746490348130465">
        <ele>213.6</ele>
        <time>2017-08-02T05:40:19.000Z</time>
      </trkpt>
      <trkpt lat="43.36752947419882" lon="-5.874651884660125">
        <ele>213.6</ele>
        <time>2017-08-02T05:40:20.000Z</time>
      </trkpt>
      <trkpt lat="43.367569372057915" lon="-5.874719610437751">
        <ele>213.4</ele>
        <time>2017-08-02T05:40:27.000Z</time>
      </trkpt>
      <trkpt lat="43.36761899292469" lon="-5.874807368963957">
        <ele>213</ele>
        <time>2017-08-02T05:40:33.000Z</time>
      </trkpt>
      <trkpt lat="43.367654448375106" lon="-5.8749105501919985">
        <ele>213</ele>
        <time>2017-08-02T05:40:39.000Z</time>
      </trkpt>
      <trkpt lat="43.36766987107694" lon="-5.874930750578642">
        <ele>212.8</ele>
        <time>2017-08-02T05:40:41.000Z</time>
      </trkpt>
      <trkpt lat="43.36770775727928" lon="-5.874977605417371">
        <ele>212.6</ele>
        <time>2017-08-02T05:40:48.000Z</time>
      </trkpt>
      <trkpt lat="43.36770976893604" lon="-5.874994620680809">
        <ele>212.6</ele>
        <time>2017-08-02T05:40:55.000Z</time>
      </trkpt>
      <trkpt lat="43.36769225075841" lon="-5.8750062715262175">
        <ele>212.6</ele>
        <time>2017-08-02T05:41:10.000Z</time>
      </trkpt>
      <trkpt lat="43.36773348972201" lon="-5.875028735026717">
        <ele>212.2</ele>
        <time>2017-08-02T05:41:56.000Z</time>
      </trkpt>
      <trkpt lat="43.36774354800582" lon="-5.875021191313863">
        <ele>212.2</ele>
        <time>2017-08-02T05:41:58.000Z</time>
      </trkpt>
      <trkpt lat="43.36775620467961" lon="-5.875018090009689">
        <ele>212.4</ele>
        <time>2017-08-02T05:42:01.000Z</time>
      </trkpt>
      <trkpt lat="43.36776131764054" lon="-5.8750074449926615">
        <ele>212.4</ele>
        <time>2017-08-02T05:42:07.000Z</time>
      </trkpt>
      <trkpt lat="43.367803478613496" lon="-5.875010462477803">
        <ele>212.4</ele>
        <time>2017-08-02T05:42:11.000Z</time>
      </trkpt>
      <trkpt lat="43.367841029539704" lon="-5.8750097919255495">
        <ele>212.4</ele>
        <time>2017-08-02T05:42:14.000Z</time>
      </trkpt>
      <trkpt lat="43.36787656880915" lon="-5.874976851046085">
        <ele>212.4</ele>
        <time>2017-08-02T05:42:17.000Z</time>
      </trkpt>
      <trkpt lat="43.36788528598845" lon="-5.874968050047755">
        <ele>212.4</ele>
        <time>2017-08-02T05:42:18.000Z</time>
      </trkpt>
      <trkpt lat="43.367886543273926" lon="-5.8749644458293915">
        <ele>212.4</ele>
        <time>2017-08-02T05:42:19.000Z</time>
      </trkpt>
      <trkpt lat="43.36792442947626" lon="-5.874942904338241">
        <ele>212.6</ele>
        <time>2017-08-02T05:42:22.000Z</time>
      </trkpt>
      <trkpt lat="43.367953933775425" lon="-5.874915411695838">
        <ele>212.6</ele>
        <time>2017-08-02T05:42:25.000Z</time>
      </trkpt>
      <trkpt lat="43.367986707016826" lon="-5.874896384775639">
        <ele>212.6</ele>
        <time>2017-08-02T05:42:28.000Z</time>
      </trkpt>
      <trkpt lat="43.368026185780764" lon="-5.874869227409363">
        <ele>212.8</ele>
        <time>2017-08-02T05:42:32.000Z</time>
      </trkpt>
      <trkpt lat="43.368052588775754" lon="-5.8748498652130365">
        <ele>213</ele>
        <time>2017-08-02T05:42:34.000Z</time>
      </trkpt>
      <trkpt lat="43.368129869922996" lon="-5.874818516895175">
        <ele>213.6</ele>
        <time>2017-08-02T05:42:41.000Z</time>
      </trkpt>
      <trkpt lat="43.36814235895872" lon="-5.874820277094841">
        <ele>213.6</ele>
        <time>2017-08-02T05:42:42.000Z</time>
      </trkpt>
      <trkpt lat="43.3682054746896" lon="-5.874820025637746">
        <ele>213.8</ele>
        <time>2017-08-02T05:42:48.000Z</time>
      </trkpt>
      <trkpt lat="43.3682607114315" lon="-5.874845674261451">
        <ele>213.8</ele>
        <time>2017-08-02T05:42:54.000Z</time>
      </trkpt>
      <trkpt lat="43.368287617340684" lon="-5.874843914061785">
        <ele>213.8</ele>
        <time>2017-08-02T05:42:56.000Z</time>
      </trkpt>
      <trkpt lat="43.36834134534001" lon="-5.874863862991333">
        <ele>215</ele>
        <time>2017-08-02T05:43:01.000Z</time>
      </trkpt>
      <trkpt lat="43.368362383916974" lon="-5.874884314835072">
        <ele>215.4</ele>
        <time>2017-08-02T05:43:03.000Z</time>
      </trkpt>
      <trkpt lat="43.3683801535517" lon="-5.874908370897174">
        <ele>215.8</ele>
        <time>2017-08-02T05:43:05.000Z</time>
      </trkpt>
      <trkpt lat="43.368433713912964" lon="-5.874966038390994">
        <ele>217</ele>
        <time>2017-08-02T05:43:11.000Z</time>
      </trkpt>
      <trkpt lat="43.36845248937607" lon="-5.875067710876465">
        <ele>216.6</ele>
        <time>2017-08-02T05:43:18.000Z</time>
      </trkpt>
      <trkpt lat="43.36844762787223" lon="-5.875183884054422">
        <ele>216.6</ele>
        <time>2017-08-02T05:43:25.000Z</time>
      </trkpt>
      <trkpt lat="43.36842717602849" lon="-5.875332914292812">
        <ele>215.8</ele>
        <time>2017-08-02T05:43:34.000Z</time>
      </trkpt>
      <trkpt lat="43.368414267897606" lon="-5.875452691689134">
        <ele>215.2</ele>
        <time>2017-08-02T05:43:41.000Z</time>
      </trkpt>
      <trkpt lat="43.368386859074235" lon="-5.8756164740771055">
        <ele>214.8</ele>
        <time>2017-08-02T05:43:50.000Z</time>
      </trkpt>
      <trkpt lat="43.36838074028492" lon="-5.875701801851392">
        <ele>214.4</ele>
        <time>2017-08-02T05:43:55.000Z</time>
      </trkpt>
      <trkpt lat="43.36837520822883" lon="-5.875735832378268">
        <ele>214.2</ele>
        <time>2017-08-02T05:43:57.000Z</time>
      </trkpt>
      <trkpt lat="43.36835383437574" lon="-5.8758556097745895">
        <ele>213.8</ele>
        <time>2017-08-02T05:44:04.000Z</time>
      </trkpt>
      <trkpt lat="43.36833740584552" lon="-5.876001790165901">
        <ele>213</ele>
        <time>2017-08-02T05:44:12.000Z</time>
      </trkpt>
      <trkpt lat="43.36832516826689" lon="-5.8761336375027895">
        <ele>212.4</ele>
        <time>2017-08-02T05:44:19.000Z</time>
      </trkpt>
      <trkpt lat="43.36830890737474" lon="-5.876281745731831">
        <ele>211.4</ele>
        <time>2017-08-02T05:44:27.000Z</time>
      </trkpt>
      <trkpt lat="43.36830513551831" lon="-5.876379813998938">
        <ele>210.8</ele>
        <time>2017-08-02T05:44:32.000Z</time>
      </trkpt>
      <trkpt lat="43.368330700322986" lon="-5.87646153755486">
        <ele>210</ele>
        <time>2017-08-02T05:44:37.000Z</time>
      </trkpt>
      <trkpt lat="43.368342434987426" lon="-5.876472853124142">
        <ele>209.8</ele>
        <time>2017-08-02T05:44:38.000Z</time>
      </trkpt>
      <trkpt lat="43.368412256240845" lon="-5.876557175070047">
        <ele>209</ele>
        <time>2017-08-02T05:44:46.000Z</time>
      </trkpt>
      <trkpt lat="43.36848174221814" lon="-5.8766169380396605">
        <ele>208.2</ele>
        <time>2017-08-02T05:44:53.000Z</time>
      </trkpt>
      <trkpt lat="43.36860059760511" lon="-5.876695811748505">
        <ele>207.2</ele>
        <time>2017-08-02T05:45:03.000Z</time>
      </trkpt>
      <trkpt lat="43.368689781054854" lon="-5.876769321039319">
        <ele>207.8</ele>
        <time>2017-08-02T05:45:11.000Z</time>
      </trkpt>
      <trkpt lat="43.368702018633485" lon="-5.876784073188901">
        <ele>208</ele>
        <time>2017-08-02T05:45:12.000Z</time>
      </trkpt>
      <trkpt lat="43.36876052431762" lon="-5.876842830330133">
        <ele>208.4</ele>
        <time>2017-08-02T05:45:18.000Z</time>
      </trkpt>
      <trkpt lat="43.36884157732129" lon="-5.876907287165523">
        <ele>209</ele>
        <time>2017-08-02T05:45:26.000Z</time>
      </trkpt>
      <trkpt lat="43.36889664642513" lon="-5.876959254965186">
        <ele>209.4</ele>
        <time>2017-08-02T05:45:31.000Z</time>
      </trkpt>
      <trkpt lat="43.36892648600042" lon="-5.877005020156503">
        <ele>209.6</ele>
        <time>2017-08-02T05:45:35.000Z</time>
      </trkpt>
      <trkpt lat="43.36894920095801" lon="-5.877052880823612">
        <ele>209.6</ele>
        <time>2017-08-02T05:45:38.000Z</time>
      </trkpt>
      <trkpt lat="43.36902379989624" lon="-5.877138711512089">
        <ele>210</ele>
        <time>2017-08-02T05:45:46.000Z</time>
      </trkpt>
      <trkpt lat="43.369020530954" lon="-5.877194534987211">
        <ele>209.6</ele>
        <time>2017-08-02T05:45:50.000Z</time>
      </trkpt>
      <trkpt lat="43.36902069859207" lon="-5.8772296551615">
        <ele>209.6</ele>
        <time>2017-08-02T05:45:52.000Z</time>
      </trkpt>
      <trkpt lat="43.36899287067354" lon="-5.877381954342127">
        <ele>209</ele>
        <time>2017-08-02T05:46:01.000Z</time>
      </trkpt>
      <trkpt lat="43.368969736620784" lon="-5.877512879669666">
        <ele>208.8</ele>
        <time>2017-08-02T05:46:09.000Z</time>
      </trkpt>
      <trkpt lat="43.36894324980676" lon="-5.877664256840944">
        <ele>207.8</ele>
        <time>2017-08-02T05:46:17.000Z</time>
      </trkpt>
      <trkpt lat="43.36892941966653" lon="-5.877796523272991">
        <ele>206.8</ele>
        <time>2017-08-02T05:46:24.000Z</time>
      </trkpt>
      <trkpt lat="43.36890812963247" lon="-5.8780161291360855">
        <ele>206</ele>
        <time>2017-08-02T05:46:35.000Z</time>
      </trkpt>
      <trkpt lat="43.36888357065618" lon="-5.878110425546765">
        <ele>205.4</ele>
        <time>2017-08-02T05:46:40.000Z</time>
      </trkpt>
      <trkpt lat="43.368884325027466" lon="-5.878128614276648">
        <ele>205.4</ele>
        <time>2017-08-02T05:46:41.000Z</time>
      </trkpt>
      <trkpt lat="43.368879379704595" lon="-5.878215283155441">
        <ele>204.8</ele>
        <time>2017-08-02T05:46:46.000Z</time>
      </trkpt>
      <trkpt lat="43.368864208459854" lon="-5.878374120220542">
        <ele>204.2</ele>
        <time>2017-08-02T05:46:55.000Z</time>
      </trkpt>
      <trkpt lat="43.368854988366365" lon="-5.878538992255926">
        <ele>204</ele>
        <time>2017-08-02T05:47:03.000Z</time>
      </trkpt>
      <trkpt lat="43.368858844041824" lon="-5.878630438819528">
        <ele>204</ele>
        <time>2017-08-02T05:47:09.000Z</time>
      </trkpt>
      <trkpt lat="43.36884509772062" lon="-5.8787730149924755">
        <ele>204</ele>
        <time>2017-08-02T05:47:17.000Z</time>
      </trkpt>
      <trkpt lat="43.36882481351495" lon="-5.878882063552737">
        <ele>204</ele>
        <time>2017-08-02T05:47:23.000Z</time>
      </trkpt>
      <trkpt lat="43.3688151743263" lon="-5.879007205367088">
        <ele>204</ele>
        <time>2017-08-02T05:47:31.000Z</time>
      </trkpt>
      <trkpt lat="43.36880243383348" lon="-5.879124216735363">
        <ele>204</ele>
        <time>2017-08-02T05:47:37.000Z</time>
      </trkpt>
      <trkpt lat="43.368783658370376" lon="-5.8792598359286785">
        <ele>204</ele>
        <time>2017-08-02T05:47:44.000Z</time>
      </trkpt>
      <trkpt lat="43.368771923705935" lon="-5.879390761256218">
        <ele>204</ele>
        <time>2017-08-02T05:47:51.000Z</time>
      </trkpt>
      <trkpt lat="43.36874610744417" lon="-5.879581198096275">
        <ele>204</ele>
        <time>2017-08-02T05:48:01.000Z</time>
      </trkpt>
      <trkpt lat="43.368725487962365" lon="-5.879748836159706">
        <ele>204</ele>
        <time>2017-08-02T05:48:10.000Z</time>
      </trkpt>
      <trkpt lat="43.36870478466153" lon="-5.879874983802438">
        <ele>204.4</ele>
        <time>2017-08-02T05:48:17.000Z</time>
      </trkpt>
      <trkpt lat="43.36868768557906" lon="-5.880012363195419">
        <ele>205.2</ele>
        <time>2017-08-02T05:48:25.000Z</time>
      </trkpt>
      <trkpt lat="43.36866706609726" lon="-5.880192909389734">
        <ele>206.2</ele>
        <time>2017-08-02T05:48:35.000Z</time>
      </trkpt>
      <trkpt lat="43.36864066310227" lon="-5.8803291991353035">
        <ele>207.4</ele>
        <time>2017-08-02T05:48:42.000Z</time>
      </trkpt>
      <trkpt lat="43.36862658150494" lon="-5.880456939339638">
        <ele>209</ele>
        <time>2017-08-02T05:48:49.000Z</time>
      </trkpt>
      <trkpt lat="43.3686132542789" lon="-5.88058358989656">
        <ele>210.4</ele>
        <time>2017-08-02T05:48:56.000Z</time>
      </trkpt>
      <trkpt lat="43.368591126054525" lon="-5.880747204646468">
        <ele>211.4</ele>
        <time>2017-08-02T05:49:05.000Z</time>
      </trkpt>
      <trkpt lat="43.36857293732464" lon="-5.880913669243455">
        <ele>211.8</ele>
        <time>2017-08-02T05:49:14.000Z</time>
      </trkpt>
      <trkpt lat="43.36855030618608" lon="-5.881102345883846">
        <ele>211.8</ele>
        <time>2017-08-02T05:49:24.000Z</time>
      </trkpt>
      <trkpt lat="43.368550557643175" lon="-5.881252633407712">
        <ele>211.8</ele>
        <time>2017-08-02T05:49:32.000Z</time>
      </trkpt>
      <trkpt lat="43.36856547743082" lon="-5.881260009482503">
        <ele>212</ele>
        <time>2017-08-02T05:49:33.000Z</time>
      </trkpt>
      <trkpt lat="43.36859523318708" lon="-5.881257830187678">
        <ele>212.2</ele>
        <time>2017-08-02T05:49:36.000Z</time>
      </trkpt>
      <trkpt lat="43.36862247437239" lon="-5.881249364465475">
        <ele>212.2</ele>
        <time>2017-08-02T05:49:38.000Z</time>
      </trkpt>
      <trkpt lat="43.36869916878641" lon="-5.881238803267479">
        <ele>212.6</ele>
        <time>2017-08-02T05:49:44.000Z</time>
      </trkpt>
      <trkpt lat="43.368748957291245" lon="-5.881233271211386">
        <ele>212.6</ele>
        <time>2017-08-02T05:49:48.000Z</time>
      </trkpt>
      <trkpt lat="43.36878877133131" lon="-5.881213992834091">
        <ele>212.8</ele>
        <time>2017-08-02T05:49:51.000Z</time>
      </trkpt>
      <trkpt lat="43.36883109994233" lon="-5.881207957863808">
        <ele>213</ele>
        <time>2017-08-02T05:49:54.000Z</time>
      </trkpt>
      <trkpt lat="43.36886781267822" lon="-5.881193624809384">
        <ele>213</ele>
        <time>2017-08-02T05:49:57.000Z</time>
      </trkpt>
      <trkpt lat="43.36898314766586" lon="-5.8811508771032095">
        <ele>213.8</ele>
        <time>2017-08-02T05:50:06.000Z</time>
      </trkpt>
      <trkpt lat="43.36915179155767" lon="-5.881082313135266">
        <ele>214.6</ele>
        <time>2017-08-02T05:50:19.000Z</time>
      </trkpt>
      <trkpt lat="43.36922706104815" lon="-5.881035458296537">
        <ele>215</ele>
        <time>2017-08-02T05:50:26.000Z</time>
      </trkpt>
      <trkpt lat="43.36933703161776" lon="-5.880968905985355">
        <ele>215.6</ele>
        <time>2017-08-02T05:50:35.000Z</time>
      </trkpt>
      <trkpt lat="43.3694145642221" lon="-5.880905035883188">
        <ele>216</ele>
        <time>2017-08-02T05:50:43.000Z</time>
      </trkpt>
      <trkpt lat="43.36948002688587" lon="-5.880840495228767">
        <ele>216.2</ele>
        <time>2017-08-02T05:50:50.000Z</time>
      </trkpt>
      <trkpt lat="43.36948840878904" lon="-5.880821384489536">
        <ele>216.2</ele>
        <time>2017-08-02T05:50:51.000Z</time>
      </trkpt>
      <trkpt lat="43.36953937076032" lon="-5.880785845220089">
        <ele>216.4</ele>
        <time>2017-08-02T05:50:55.000Z</time>
      </trkpt>
      <trkpt lat="43.36957993917167" lon="-5.880751144140959">
        <ele>216.6</ele>
        <time>2017-08-02T05:50:59.000Z</time>
      </trkpt>
      <trkpt lat="43.369627967476845" lon="-5.880696075037122">
        <ele>216.8</ele>
        <time>2017-08-02T05:51:04.000Z</time>
      </trkpt>
      <trkpt lat="43.36964959278703" lon="-5.880662715062499">
        <ele>216.8</ele>
        <time>2017-08-02T05:51:07.000Z</time>
      </trkpt>
      <trkpt lat="43.36964774876833" lon="-5.880665397271514">
        <ele>216.8</ele>
        <time>2017-08-02T05:51:10.000Z</time>
      </trkpt>
      <trkpt lat="43.36969619616866" lon="-5.880619129166007">
        <ele>216.8</ele>
        <time>2017-08-02T05:51:16.000Z</time>
      </trkpt>
      <trkpt lat="43.36977515369654" lon="-5.880514020100236">
        <ele>216.2</ele>
        <time>2017-08-02T05:51:25.000Z</time>
      </trkpt>
      <trkpt lat="43.36984011344612" lon="-5.880429279059172">
        <ele>215.8</ele>
        <time>2017-08-02T05:51:32.000Z</time>
      </trkpt>
      <trkpt lat="43.36991395801306" lon="-5.8803091663867235">
        <ele>215.2</ele>
        <time>2017-08-02T05:51:41.000Z</time>
      </trkpt>
      <trkpt lat="43.36996399797499" lon="-5.880213109776378">
        <ele>214.8</ele>
        <time>2017-08-02T05:51:48.000Z</time>
      </trkpt>
      <trkpt lat="43.37001311592758" lon="-5.880129793658853">
        <ele>214.2</ele>
        <time>2017-08-02T05:51:54.000Z</time>
      </trkpt>
      <trkpt lat="43.37008310481906" lon="-5.8800402749329805">
        <ele>213.8</ele>
        <time>2017-08-02T05:52:02.000Z</time>
      </trkpt>
      <trkpt lat="43.37015384808183" lon="-5.879962742328644">
        <ele>213.4</ele>
        <time>2017-08-02T05:52:10.000Z</time>
      </trkpt>
      <trkpt lat="43.370164912194014" lon="-5.8799501694738865">
        <ele>213.4</ele>
        <time>2017-08-02T05:52:16.000Z</time>
      </trkpt>
      <trkpt lat="43.37015493772924" lon="-5.879984870553017">
        <ele>213.6</ele>
        <time>2017-08-02T05:52:20.000Z</time>
      </trkpt>
      <trkpt lat="43.37013389915228" lon="-5.880047734826803">
        <ele>213.8</ele>
        <time>2017-08-02T05:52:27.000Z</time>
      </trkpt>
      <trkpt lat="43.370188465341926" lon="-5.880030803382397">
        <ele>213.8</ele>
        <time>2017-08-02T05:52:31.000Z</time>
      </trkpt>
      <trkpt lat="43.37020036764443" lon="-5.880029043182731">
        <ele>213.8</ele>
        <time>2017-08-02T05:52:32.000Z</time>
      </trkpt>
      <trkpt lat="43.37029826827347" lon="-5.88000800460577">
        <ele>213.8</ele>
        <time>2017-08-02T05:52:40.000Z</time>
      </trkpt>
      <trkpt lat="43.370326096192" lon="-5.880022505298257">
        <ele>214</ele>
        <time>2017-08-02T05:52:43.000Z</time>
      </trkpt>
      <trkpt lat="43.370354510843754" lon="-5.880054272711277">
        <ele>214.2</ele>
        <time>2017-08-02T05:52:46.000Z</time>
      </trkpt>
      <trkpt lat="43.370364820584655" lon="-5.880064414814115">
        <ele>214.2</ele>
        <time>2017-08-02T05:52:47.000Z</time>
      </trkpt>
      <trkpt lat="43.37040111422539" lon="-5.880121327936649">
        <ele>214.6</ele>
        <time>2017-08-02T05:52:52.000Z</time>
      </trkpt>
      <trkpt lat="43.37043531239033" lon="-5.880183354020119">
        <ele>215.2</ele>
        <time>2017-08-02T05:52:57.000Z</time>
      </trkpt>
      <trkpt lat="43.37045450694859" lon="-5.88023766875267">
        <ele>215.4</ele>
        <time>2017-08-02T05:53:01.000Z</time>
      </trkpt>
      <trkpt lat="43.370460877195" lon="-5.880249822512269">
        <ele>215.6</ele>
        <time>2017-08-02T05:53:02.000Z</time>
      </trkpt>
      <trkpt lat="43.37049172259867" lon="-5.8803601283580065">
        <ele>216</ele>
        <time>2017-08-02T05:53:09.000Z</time>
      </trkpt>
      <trkpt lat="43.37050446309149" lon="-5.88047563098371">
        <ele>217</ele>
        <time>2017-08-02T05:53:15.000Z</time>
      </trkpt>
      <trkpt lat="43.37049499154091" lon="-5.880623068660498">
        <ele>218.4</ele>
        <time>2017-08-02T05:53:23.000Z</time>
      </trkpt>
      <trkpt lat="43.37048049084842" lon="-5.880780229344964">
        <ele>220.6</ele>
        <time>2017-08-02T05:53:31.000Z</time>
      </trkpt>
      <trkpt lat="43.37046138010919" lon="-5.880904700607061">
        <ele>222.2</ele>
        <time>2017-08-02T05:53:38.000Z</time>
      </trkpt>
      <trkpt lat="43.37044763378799" lon="-5.880957255139947">
        <ele>223</ele>
        <time>2017-08-02T05:53:41.000Z</time>
      </trkpt>
      <trkpt lat="43.37042232044041" lon="-5.881029171869159">
        <ele>223.6</ele>
        <time>2017-08-02T05:53:44.000Z</time>
      </trkpt>
      <trkpt lat="43.37040899321437" lon="-5.881124557927251">
        <ele>224.8</ele>
        <time>2017-08-02T05:53:50.000Z</time>
      </trkpt>
      <trkpt lat="43.37039667181671" lon="-5.881159594282508">
        <ele>225.2</ele>
        <time>2017-08-02T05:53:53.000Z</time>
      </trkpt>
      <trkpt lat="43.370364401489496" lon="-5.881268475204706">
        <ele>226.2</ele>
        <time>2017-08-02T05:54:00.000Z</time>
      </trkpt>
      <trkpt lat="43.3703488111496" lon="-5.881333267316222">
        <ele>226.6</ele>
        <time>2017-08-02T05:54:04.000Z</time>
      </trkpt>
      <trkpt lat="43.37033414281905" lon="-5.881352880969644">
        <ele>226.6</ele>
        <time>2017-08-02T05:54:06.000Z</time>
      </trkpt>
      <trkpt lat="43.370286701247096" lon="-5.881454888731241">
        <ele>227</ele>
        <time>2017-08-02T05:54:13.000Z</time>
      </trkpt>
      <trkpt lat="43.370272535830736" lon="-5.881491685286164">
        <ele>227.4</ele>
        <time>2017-08-02T05:54:15.000Z</time>
      </trkpt>
      <trkpt lat="43.370253928005695" lon="-5.881537199020386">
        <ele>227.8</ele>
        <time>2017-08-02T05:54:18.000Z</time>
      </trkpt>
      <trkpt lat="43.37020170874894" lon="-5.881647672504187">
        <ele>229</ele>
        <time>2017-08-02T05:54:26.000Z</time>
      </trkpt>
      <trkpt lat="43.37014999240637" lon="-5.881765857338905">
        <ele>230.2</ele>
        <time>2017-08-02T05:54:35.000Z</time>
      </trkpt>
      <trkpt lat="43.37010757997632" lon="-5.8818883169442415">
        <ele>230.8</ele>
        <time>2017-08-02T05:54:42.000Z</time>
      </trkpt>
      <trkpt lat="43.37007908150554" lon="-5.881971465423703">
        <ele>231.4</ele>
        <time>2017-08-02T05:54:47.000Z</time>
      </trkpt>
      <trkpt lat="43.370062317699194" lon="-5.882105324417353">
        <ele>232.2</ele>
        <time>2017-08-02T05:54:55.000Z</time>
      </trkpt>
      <trkpt lat="43.37006424553692" lon="-5.882237171754241">
        <ele>232.8</ele>
        <time>2017-08-02T05:55:02.000Z</time>
      </trkpt>
      <trkpt lat="43.37004756554961" lon="-5.882312608882785">
        <ele>233</ele>
        <time>2017-08-02T05:55:06.000Z</time>
      </trkpt>
      <trkpt lat="43.37004848755896" lon="-5.882326019927859">
        <ele>233.2</ele>
        <time>2017-08-02T05:55:07.000Z</time>
      </trkpt>
      <trkpt lat="43.37008008733392" lon="-5.882418639957905">
        <ele>233.6</ele>
        <time>2017-08-02T05:55:13.000Z</time>
      </trkpt>
      <trkpt lat="43.370136665180326" lon="-5.88254545815289">
        <ele>234.4</ele>
        <time>2017-08-02T05:55:21.000Z</time>
      </trkpt>
      <trkpt lat="43.37018720805645" lon="-5.882672863081098">
        <ele>235.2</ele>
        <time>2017-08-02T05:55:28.000Z</time>
      </trkpt>
      <trkpt lat="43.370200702920556" lon="-5.882706809788942">
        <ele>235.4</ele>
        <time>2017-08-02T05:55:30.000Z</time>
      </trkpt>
      <trkpt lat="43.370214868336916" lon="-5.8827432710677385">
        <ele>235.6</ele>
        <time>2017-08-02T05:55:33.000Z</time>
      </trkpt>
      <trkpt lat="43.37023205123842" lon="-5.882784174755216">
        <ele>235.8</ele>
        <time>2017-08-02T05:55:36.000Z</time>
      </trkpt>
      <trkpt lat="43.37025417946279" lon="-5.88285181671381">
        <ele>236.2</ele>
        <time>2017-08-02T05:55:40.000Z</time>
      </trkpt>
      <trkpt lat="43.370291562750936" lon="-5.882963966578245">
        <ele>236.8</ele>
        <time>2017-08-02T05:55:47.000Z</time>
      </trkpt>
      <trkpt lat="43.37032483890653" lon="-5.883084665983915">
        <ele>237.4</ele>
        <time>2017-08-02T05:55:54.000Z</time>
      </trkpt>
      <trkpt lat="43.370343279093504" lon="-5.883181560784578">
        <ele>237.8</ele>
        <time>2017-08-02T05:56:00.000Z</time>
      </trkpt>
      <trkpt lat="43.37034638039768" lon="-5.8831962291151285">
        <ele>238</ele>
        <time>2017-08-02T05:56:01.000Z</time>
      </trkpt>
      <trkpt lat="43.37037697434425" lon="-5.88331307284534">
        <ele>239</ele>
        <time>2017-08-02T05:56:08.000Z</time>
      </trkpt>
      <trkpt lat="43.3703813329339" lon="-5.883331010118127">
        <ele>239</ele>
        <time>2017-08-02T05:56:09.000Z</time>
      </trkpt>
      <trkpt lat="43.37041544727981" lon="-5.883454643189907">
        <ele>239.6</ele>
        <time>2017-08-02T05:56:17.000Z</time>
      </trkpt>
      <trkpt lat="43.37045383639634" lon="-5.883586490526795">
        <ele>240.2</ele>
        <time>2017-08-02T05:56:25.000Z</time>
      </trkpt>
      <trkpt lat="43.37048904038966" lon="-5.883716661483049">
        <ele>240.6</ele>
        <time>2017-08-02T05:56:33.000Z</time>
      </trkpt>
      <trkpt lat="43.37052147835493" lon="-5.883843479678035">
        <ele>241.4</ele>
        <time>2017-08-02T05:56:41.000Z</time>
      </trkpt>
      <trkpt lat="43.370569590479136" lon="-5.884010195732117">
        <ele>242.2</ele>
        <time>2017-08-02T05:56:50.000Z</time>
      </trkpt>
      <trkpt lat="43.3705922216177" lon="-5.884172720834613">
        <ele>241.2</ele>
        <time>2017-08-02T05:56:59.000Z</time>
      </trkpt>
      <trkpt lat="43.37059607729316" lon="-5.884229550138116">
        <ele>240.8</ele>
        <time>2017-08-02T05:57:02.000Z</time>
      </trkpt>
      <trkpt lat="43.37058241479099" lon="-5.884238937869668">
        <ele>240.8</ele>
        <time>2017-08-02T05:57:04.000Z</time>
      </trkpt>
      <trkpt lat="43.37057570926845" lon="-5.884340023621917">
        <ele>240</ele>
        <time>2017-08-02T05:57:09.000Z</time>
      </trkpt>
      <trkpt lat="43.37057311087847" lon="-5.884355530142784">
        <ele>239.8</ele>
        <time>2017-08-02T05:57:10.000Z</time>
      </trkpt>
      <trkpt lat="43.37056984193623" lon="-5.884460052475333">
        <ele>239</ele>
        <time>2017-08-02T05:57:15.000Z</time>
      </trkpt>
      <trkpt lat="43.37057872675359" lon="-5.884473379701376">
        <ele>239</ele>
        <time>2017-08-02T05:57:16.000Z</time>
      </trkpt>
      <trkpt lat="43.370606638491154" lon="-5.884559629485011">
        <ele>238.2</ele>
        <time>2017-08-02T05:57:21.000Z</time>
      </trkpt>
      <trkpt lat="43.3706234022975" lon="-5.884595839306712">
        <ele>238</ele>
        <time>2017-08-02T05:57:23.000Z</time>
      </trkpt>
      <trkpt lat="43.37063781917095" lon="-5.884651830419898">
        <ele>237.8</ele>
        <time>2017-08-02T05:57:26.000Z</time>
      </trkpt>
      <trkpt lat="43.37064368650317" lon="-5.884689465165138">
        <ele>237.4</ele>
        <time>2017-08-02T05:57:28.000Z</time>
      </trkpt>
      <trkpt lat="43.370670257136226" lon="-5.884744031354785">
        <ele>237.4</ele>
        <time>2017-08-02T05:57:32.000Z</time>
      </trkpt>
      <trkpt lat="43.37067821994424" lon="-5.884757274761796">
        <ele>237.4</ele>
        <time>2017-08-02T05:57:33.000Z</time>
      </trkpt>
      <trkpt lat="43.37067989632487" lon="-5.88477311655879">
        <ele>237.4</ele>
        <time>2017-08-02T05:57:34.000Z</time>
      </trkpt>
      <trkpt lat="43.37067872285843" lon="-5.8848068956285715">
        <ele>237.2</ele>
        <time>2017-08-02T05:57:36.000Z</time>
      </trkpt>
      <trkpt lat="43.370693223550916" lon="-5.884844362735748">
        <ele>237.2</ele>
        <time>2017-08-02T05:57:38.000Z</time>
      </trkpt>
      <trkpt lat="43.3707042876631" lon="-5.884880907833576">
        <ele>237.2</ele>
        <time>2017-08-02T05:57:40.000Z</time>
      </trkpt>
      <trkpt lat="43.37073345668614" lon="-5.885005882009864">
        <ele>236.4</ele>
        <time>2017-08-02T05:57:47.000Z</time>
      </trkpt>
      <trkpt lat="43.37076690047979" lon="-5.885188104584813">
        <ele>235.8</ele>
        <time>2017-08-02T05:57:57.000Z</time>
      </trkpt>
      <trkpt lat="43.37076631374657" lon="-5.885225739330053">
        <ele>235.8</ele>
        <time>2017-08-02T05:57:59.000Z</time>
      </trkpt>
      <trkpt lat="43.3707597758621" lon="-5.885356329381466">
        <ele>235.8</ele>
        <time>2017-08-02T05:58:06.000Z</time>
      </trkpt>
      <trkpt lat="43.37075457908213" lon="-5.885373177006841">
        <ele>235.6</ele>
        <time>2017-08-02T05:58:07.000Z</time>
      </trkpt>
      <trkpt lat="43.370747957378626" lon="-5.885487673804164">
        <ele>236</ele>
        <time>2017-08-02T05:58:13.000Z</time>
      </trkpt>
      <trkpt lat="43.37074468843639" lon="-5.885635111480951">
        <ele>236.6</ele>
        <time>2017-08-02T05:58:21.000Z</time>
      </trkpt>
      <trkpt lat="43.370731277391315" lon="-5.88580266572535">
        <ele>237.6</ele>
        <time>2017-08-02T05:58:30.000Z</time>
      </trkpt>
      <trkpt lat="43.37073245085776" lon="-5.885893860831857">
        <ele>238.2</ele>
        <time>2017-08-02T05:58:35.000Z</time>
      </trkpt>
      <trkpt lat="43.37072666734457" lon="-5.88603962212801">
        <ele>238.4</ele>
        <time>2017-08-02T05:58:43.000Z</time>
      </trkpt>
      <trkpt lat="43.3707235660404" lon="-5.886069713160396">
        <ele>238.4</ele>
        <time>2017-08-02T05:58:45.000Z</time>
      </trkpt>
      <trkpt lat="43.37072289548814" lon="-5.886143893003464">
        <ele>238.4</ele>
        <time>2017-08-02T05:58:49.000Z</time>
      </trkpt>
      <trkpt lat="43.370712753385305" lon="-5.886267693713307">
        <ele>238.4</ele>
        <time>2017-08-02T05:58:56.000Z</time>
      </trkpt>
      <trkpt lat="43.37071007117629" lon="-5.886393003165722">
        <ele>238.4</ele>
        <time>2017-08-02T05:59:02.000Z</time>
      </trkpt>
      <trkpt lat="43.37072163820267" lon="-5.886546475812793">
        <ele>238.6</ele>
        <time>2017-08-02T05:59:10.000Z</time>
      </trkpt>
      <trkpt lat="43.37072130292654" lon="-5.886563407257199">
        <ele>238.6</ele>
        <time>2017-08-02T05:59:11.000Z</time>
      </trkpt>
      <trkpt lat="43.37072130292654" lon="-5.886563407257199">
        <ele>238.6</ele>
        <time>2017-08-02T05:59:11.000Z</time>
      </trkpt>
      <trkpt lat="43.37072951719165" lon="-5.886584781110287">
        <ele>238.8</ele>
        <time>2017-08-02T05:59:12.000Z</time>
      </trkpt>
      <trkpt lat="43.37073773145676" lon="-5.886637084186077">
        <ele>238.8</ele>
        <time>2017-08-02T05:59:16.000Z</time>
      </trkpt>
      <trkpt lat="43.3707579318434" lon="-5.886747557669878">
        <ele>238.8</ele>
        <time>2017-08-02T05:59:22.000Z</time>
      </trkpt>
      <trkpt lat="43.370772348716855" lon="-5.886922236531973">
        <ele>239</ele>
        <time>2017-08-02T05:59:31.000Z</time>
      </trkpt>
      <trkpt lat="43.37078659795225" lon="-5.887030111625791">
        <ele>239</ele>
        <time>2017-08-02T05:59:37.000Z</time>
      </trkpt>
      <trkpt lat="43.37079548276961" lon="-5.887107979506254">
        <ele>239.2</ele>
        <time>2017-08-02T05:59:43.000Z</time>
      </trkpt>
      <trkpt lat="43.3708200417459" lon="-5.887249298393726">
        <ele>239.8</ele>
        <time>2017-08-02T05:59:51.000Z</time>
      </trkpt>
      <trkpt lat="43.37084108032286" lon="-5.8873791340738535">
        <ele>239.8</ele>
        <time>2017-08-02T05:59:58.000Z</time>
      </trkpt>
      <trkpt lat="43.37087460793555" lon="-5.887508634477854">
        <ele>239.4</ele>
        <time>2017-08-02T06:00:05.000Z</time>
      </trkpt>
      <trkpt lat="43.37087846361101" lon="-5.88763645850122">
        <ele>238.8</ele>
        <time>2017-08-02T06:00:12.000Z</time>
      </trkpt>
      <trkpt lat="43.37087242864072" lon="-5.88765699416399">
        <ele>238.6</ele>
        <time>2017-08-02T06:00:13.000Z</time>
      </trkpt>
      <trkpt lat="43.370871003717184" lon="-5.887708878144622">
        <ele>238.2</ele>
        <time>2017-08-02T06:00:16.000Z</time>
      </trkpt>
      <trkpt lat="43.37087812833488" lon="-5.887727988883853">
        <ele>238.2</ele>
        <time>2017-08-02T06:00:17.000Z</time>
      </trkpt>
      <trkpt lat="43.370870500802994" lon="-5.887796301394701">
        <ele>237.6</ele>
        <time>2017-08-02T06:00:21.000Z</time>
      </trkpt>
      <trkpt lat="43.3708736859262" lon="-5.887827230617404">
        <ele>237.4</ele>
        <time>2017-08-02T06:00:23.000Z</time>
      </trkpt>
      <trkpt lat="43.370886677876115" lon="-5.887927394360304">
        <ele>237.2</ele>
        <time>2017-08-02T06:00:28.000Z</time>
      </trkpt>
      <trkpt lat="43.37088156491518" lon="-5.887941978871822">
        <ele>237</ele>
        <time>2017-08-02T06:00:29.000Z</time>
      </trkpt>
      <trkpt lat="43.37086589075625" lon="-5.887996964156628">
        <ele>236.8</ele>
        <time>2017-08-02T06:00:33.000Z</time>
      </trkpt>
      <trkpt lat="43.370863292366266" lon="-5.888014733791351">
        <ele>236.8</ele>
        <time>2017-08-02T06:00:34.000Z</time>
      </trkpt>
      <trkpt lat="43.37085952050984" lon="-5.88804641738534">
        <ele>236.6</ele>
        <time>2017-08-02T06:00:36.000Z</time>
      </trkpt>
      <trkpt lat="43.370838817209005" lon="-5.888100564479828">
        <ele>236.4</ele>
        <time>2017-08-02T06:00:39.000Z</time>
      </trkpt>
      <trkpt lat="43.37083496153355" lon="-5.888116490095854">
        <ele>236.4</ele>
        <time>2017-08-02T06:00:40.000Z</time>
      </trkpt>
      <trkpt lat="43.370804535225034" lon="-5.88824825361371">
        <ele>236</ele>
        <time>2017-08-02T06:00:47.000Z</time>
      </trkpt>
      <trkpt lat="43.37077503092587" lon="-5.888382364064455">
        <ele>236</ele>
        <time>2017-08-02T06:00:54.000Z</time>
      </trkpt>
      <trkpt lat="43.370762122794986" lon="-5.888440031558275">
        <ele>236</ele>
        <time>2017-08-02T06:00:57.000Z</time>
      </trkpt>
      <trkpt lat="43.37074871174991" lon="-5.888472469523549">
        <ele>236.2</ele>
        <time>2017-08-02T06:00:59.000Z</time>
      </trkpt>
      <trkpt lat="43.370744017884135" lon="-5.888572800904512">
        <ele>236.4</ele>
        <time>2017-08-02T06:01:04.000Z</time>
      </trkpt>
      <trkpt lat="43.370743012055755" lon="-5.88873733766377">
        <ele>236.8</ele>
        <time>2017-08-02T06:01:12.000Z</time>
      </trkpt>
      <trkpt lat="43.370759189128876" lon="-5.888856528326869">
        <ele>235.6</ele>
        <time>2017-08-02T06:01:18.000Z</time>
      </trkpt>
      <trkpt lat="43.370766984298825" lon="-5.888888128101826">
        <ele>235.2</ele>
        <time>2017-08-02T06:01:20.000Z</time>
      </trkpt>
      <trkpt lat="43.37079791352153" lon="-5.88895870372653">
        <ele>234.4</ele>
        <time>2017-08-02T06:01:24.000Z</time>
      </trkpt>
      <trkpt lat="43.37082448415458" lon="-5.889022573828697">
        <ele>233.8</ele>
        <time>2017-08-02T06:01:29.000Z</time>
      </trkpt>
      <trkpt lat="43.37085725739598" lon="-5.8890908025205135">
        <ele>232.8</ele>
        <time>2017-08-02T06:01:33.000Z</time>
      </trkpt>
      <trkpt lat="43.37086346000433" lon="-5.889104045927525">
        <ele>232.6</ele>
        <time>2017-08-02T06:01:34.000Z</time>
      </trkpt>
      <trkpt lat="43.37091634981334" lon="-5.8892042096704245">
        <ele>231.4</ele>
        <time>2017-08-02T06:01:42.000Z</time>
      </trkpt>
      <trkpt lat="43.370931101962924" lon="-5.8892363123595715">
        <ele>231</ele>
        <time>2017-08-02T06:01:45.000Z</time>
      </trkpt>
      <trkpt lat="43.370970245450735" lon="-5.88928752578795">
        <ele>230.4</ele>
        <time>2017-08-02T06:01:49.000Z</time>
      </trkpt>
      <trkpt lat="43.37106194347143" lon="-5.889356844127178">
        <ele>229.8</ele>
        <time>2017-08-02T06:01:56.000Z</time>
      </trkpt>
      <trkpt lat="43.37117132730782" lon="-5.889418199658394">
        <ele>229.2</ele>
        <time>2017-08-02T06:02:05.000Z</time>
      </trkpt>
      <trkpt lat="43.3712312579155" lon="-5.889433789998293">
        <ele>229.4</ele>
        <time>2017-08-02T06:02:10.000Z</time>
      </trkpt>
      <trkpt lat="43.371298648416996" lon="-5.889448458328843">
        <ele>229.8</ele>
        <time>2017-08-02T06:02:16.000Z</time>
      </trkpt>
      <trkpt lat="43.37135313078761" lon="-5.889450637623668">
        <ele>230.2</ele>
        <time>2017-08-02T06:02:20.000Z</time>
      </trkpt>
      <trkpt lat="43.37137710303068" lon="-5.889459019526839">
        <ele>230.2</ele>
        <time>2017-08-02T06:02:22.000Z</time>
      </trkpt>
      <trkpt lat="43.37144625373185" lon="-5.889471005648375">
        <ele>230.8</ele>
        <time>2017-08-02T06:02:28.000Z</time>
      </trkpt>
      <trkpt lat="43.37150048464537" lon="-5.889476118609309">
        <ele>231.4</ele>
        <time>2017-08-02T06:02:32.000Z</time>
      </trkpt>
      <trkpt lat="43.37153384461999" lon="-5.8894668985158205">
        <ele>231.8</ele>
        <time>2017-08-02T06:02:35.000Z</time>
      </trkpt>
      <trkpt lat="43.37154641747475" lon="-5.889475280418992">
        <ele>232</ele>
        <time>2017-08-02T06:02:37.000Z</time>
      </trkpt>
      <trkpt lat="43.37156896479428" lon="-5.88947813026607">
        <ele>232.2</ele>
        <time>2017-08-02T06:02:39.000Z</time>
      </trkpt>
      <trkpt lat="43.37159821763635" lon="-5.889483243227005">
        <ele>232.4</ele>
        <time>2017-08-02T06:02:41.000Z</time>
      </trkpt>
      <trkpt lat="43.371633756905794" lon="-5.88948835618794">
        <ele>232.8</ele>
        <time>2017-08-02T06:02:44.000Z</time>
      </trkpt>
      <trkpt lat="43.371645575389266" lon="-5.8894916251301765">
        <ele>232.8</ele>
        <time>2017-08-02T06:02:45.000Z</time>
      </trkpt>
      <trkpt lat="43.3716784324497" lon="-5.88950646109879">
        <ele>233</ele>
        <time>2017-08-02T06:02:48.000Z</time>
      </trkpt>
      <trkpt lat="43.37170391343534" lon="-5.889512747526169">
        <ele>233.4</ele>
        <time>2017-08-02T06:02:50.000Z</time>
      </trkpt>
      <trkpt lat="43.371734423562884" lon="-5.8895318582654">
        <ele>233.6</ele>
        <time>2017-08-02T06:02:53.000Z</time>
      </trkpt>
      <trkpt lat="43.371754037216306" lon="-5.889547280967236">
        <ele>233.8</ele>
        <time>2017-08-02T06:02:55.000Z</time>
      </trkpt>
      <trkpt lat="43.371764682233334" lon="-5.889560608193278">
        <ele>234</ele>
        <time>2017-08-02T06:02:56.000Z</time>
      </trkpt>
      <trkpt lat="43.37181882932782" lon="-5.889635207131505">
        <ele>234.8</ele>
        <time>2017-08-02T06:03:01.000Z</time>
      </trkpt>
      <trkpt lat="43.37181438691914" lon="-5.8896939642727375">
        <ele>234.6</ele>
        <time>2017-08-02T06:03:06.000Z</time>
      </trkpt>
      <trkpt lat="43.3718095254153" lon="-5.889700083062053">
        <ele>234.6</ele>
        <time>2017-08-02T06:03:07.000Z</time>
      </trkpt>
      <trkpt lat="43.37174188345671" lon="-5.889759426936507">
        <ele>233.6</ele>
        <time>2017-08-02T06:03:15.000Z</time>
      </trkpt>
      <trkpt lat="43.371647922322154" lon="-5.8898223750293255">
        <ele>232.2</ele>
        <time>2017-08-02T06:03:24.000Z</time>
      </trkpt>
      <trkpt lat="43.37155194953084" lon="-5.88988121598959">
        <ele>230.6</ele>
        <time>2017-08-02T06:03:33.000Z</time>
      </trkpt>
      <trkpt lat="43.37145756930113" lon="-5.889939218759537">
        <ele>228.8</ele>
        <time>2017-08-02T06:03:42.000Z</time>
      </trkpt>
      <trkpt lat="43.37137986905873" lon="-5.890017841011286">
        <ele>227.4</ele>
        <time>2017-08-02T06:03:50.000Z</time>
      </trkpt>
      <trkpt lat="43.371287416666746" lon="-5.890156896784902">
        <ele>226.2</ele>
        <time>2017-08-02T06:04:00.000Z</time>
      </trkpt>
      <trkpt lat="43.371235616505146" lon="-5.890259742736816">
        <ele>225.8</ele>
        <time>2017-08-02T06:04:07.000Z</time>
      </trkpt>
      <trkpt lat="43.37118255905807" lon="-5.890402905642986">
        <ele>225.6</ele>
        <time>2017-08-02T06:04:15.000Z</time>
      </trkpt>
      <trkpt lat="43.371126065030694" lon="-5.890555204823613">
        <ele>225.4</ele>
        <time>2017-08-02T06:04:24.000Z</time>
      </trkpt>
      <trkpt lat="43.371078707277775" lon="-5.89067523367703">
        <ele>225</ele>
        <time>2017-08-02T06:04:32.000Z</time>
      </trkpt>
      <trkpt lat="43.37102388963103" lon="-5.890817390754819">
        <ele>225</ele>
        <time>2017-08-02T06:04:41.000Z</time>
      </trkpt>
      <trkpt lat="43.37098910473287" lon="-5.890880925580859">
        <ele>224.8</ele>
        <time>2017-08-02T06:04:46.000Z</time>
      </trkpt>
      <trkpt lat="43.3709754422307" lon="-5.890922835096717">
        <ele>224.8</ele>
        <time>2017-08-02T06:04:48.000Z</time>
      </trkpt>
      <trkpt lat="43.370960522443056" lon="-5.891013108193874">
        <ele>224.8</ele>
        <time>2017-08-02T06:04:54.000Z</time>
      </trkpt>
      <trkpt lat="43.37097577750683" lon="-5.891102124005556">
        <ele>225.4</ele>
        <time>2017-08-02T06:04:59.000Z</time>
      </trkpt>
      <trkpt lat="43.37098809890449" lon="-5.891154510900378">
        <ele>226</ele>
        <time>2017-08-02T06:05:02.000Z</time>
      </trkpt>
      <trkpt lat="43.3710013423115" lon="-5.891265822574496">
        <ele>226.8</ele>
        <time>2017-08-02T06:05:09.000Z</time>
      </trkpt>
      <trkpt lat="43.37103486992419" lon="-5.891407141461968">
        <ele>228</ele>
        <time>2017-08-02T06:05:18.000Z</time>
      </trkpt>
      <trkpt lat="43.37106219492853" lon="-5.891473023220897">
        <ele>228.6</ele>
        <time>2017-08-02T06:05:22.000Z</time>
      </trkpt>
      <trkpt lat="43.371063536033034" lon="-5.8914814889431">
        <ele>228.8</ele>
        <time>2017-08-02T06:05:23.000Z</time>
      </trkpt>
      <trkpt lat="43.37107711471617" lon="-5.8915540762245655">
        <ele>229.2</ele>
        <time>2017-08-02T06:05:27.000Z</time>
      </trkpt>
      <trkpt lat="43.37108105421066" lon="-5.891615683212876">
        <ele>229.6</ele>
        <time>2017-08-02T06:05:30.000Z</time>
      </trkpt>
      <trkpt lat="43.37110083550215" lon="-5.891738813370466">
        <ele>230.4</ele>
        <time>2017-08-02T06:05:37.000Z</time>
      </trkpt>
      <trkpt lat="43.371107038110495" lon="-5.891814669594169">
        <ele>230.8</ele>
        <time>2017-08-02T06:05:42.000Z</time>
      </trkpt>
      <trkpt lat="43.371109468862414" lon="-5.891855908557773">
        <ele>231</ele>
        <time>2017-08-02T06:05:44.000Z</time>
      </trkpt>
      <trkpt lat="43.37111609056592" lon="-5.891876528039575">
        <ele>231</ele>
        <time>2017-08-02T06:05:46.000Z</time>
      </trkpt>
      <trkpt lat="43.3711292501539" lon="-5.891941487789154">
        <ele>231.6</ele>
        <time>2017-08-02T06:05:50.000Z</time>
      </trkpt>
      <trkpt lat="43.37114727124572" lon="-5.8920529671013355">
        <ele>232.2</ele>
        <time>2017-08-02T06:05:57.000Z</time>
      </trkpt>
      <trkpt lat="43.37118063122034" lon="-5.892205266281962">
        <ele>233.4</ele>
        <time>2017-08-02T06:06:05.000Z</time>
      </trkpt>
      <trkpt lat="43.37121281772852" lon="-5.8922994788736105">
        <ele>234.4</ele>
        <time>2017-08-02T06:06:11.000Z</time>
      </trkpt>
      <trkpt lat="43.37123435921967" lon="-5.892357062548399">
        <ele>234.8</ele>
        <time>2017-08-02T06:06:15.000Z</time>
      </trkpt>
      <trkpt lat="43.37124709971249" lon="-5.892386315390468">
        <ele>234.8</ele>
        <time>2017-08-02T06:06:17.000Z</time>
      </trkpt>
      <trkpt lat="43.371289344504476" lon="-5.89252176694572">
        <ele>235.2</ele>
        <time>2017-08-02T06:06:25.000Z</time>
      </trkpt>
      <trkpt lat="43.371322453022" lon="-5.892669288441539">
        <ele>235.2</ele>
        <time>2017-08-02T06:06:33.000Z</time>
      </trkpt>
      <trkpt lat="43.371346006169915" lon="-5.892793340608478">
        <ele>235.2</ele>
        <time>2017-08-02T06:06:40.000Z</time>
      </trkpt>
      <trkpt lat="43.37134248577058" lon="-5.892940862104297">
        <ele>234.8</ele>
        <time>2017-08-02T06:06:48.000Z</time>
      </trkpt>
      <trkpt lat="43.37134608998895" lon="-5.893030632287264">
        <ele>234.8</ele>
        <time>2017-08-02T06:06:53.000Z</time>
      </trkpt>
      <trkpt lat="43.37134969420731" lon="-5.893080169335008">
        <ele>235</ele>
        <time>2017-08-02T06:06:56.000Z</time>
      </trkpt>
      <trkpt lat="43.37136771529913" lon="-5.8931721188127995">
        <ele>235.4</ele>
        <time>2017-08-02T06:07:02.000Z</time>
      </trkpt>
      <trkpt lat="43.37137257680297" lon="-5.893184440210462">
        <ele>235.4</ele>
        <time>2017-08-02T06:07:03.000Z</time>
      </trkpt>
      <trkpt lat="43.37139361537993" lon="-5.893281335011125">
        <ele>236.6</ele>
        <time>2017-08-02T06:07:09.000Z</time>
      </trkpt>
      <trkpt lat="43.371412893757224" lon="-5.8933614660054445">
        <ele>237.4</ele>
        <time>2017-08-02T06:07:14.000Z</time>
      </trkpt>
      <trkpt lat="43.37141792289913" lon="-5.893372865393758">
        <ele>237.6</ele>
        <time>2017-08-02T06:07:15.000Z</time>
      </trkpt>
      <trkpt lat="43.37141892872751" lon="-5.893413098528981">
        <ele>238</ele>
        <time>2017-08-02T06:07:17.000Z</time>
      </trkpt>
      <trkpt lat="43.37141423486173" lon="-5.893470095470548">
        <ele>238</ele>
        <time>2017-08-02T06:07:20.000Z</time>
      </trkpt>
      <trkpt lat="43.3714091219008" lon="-5.893595991656184">
        <ele>238</ele>
        <time>2017-08-02T06:07:27.000Z</time>
      </trkpt>
      <trkpt lat="43.37140434421599" lon="-5.893634967505932">
        <ele>238</ele>
        <time>2017-08-02T06:07:29.000Z</time>
      </trkpt>
      <trkpt lat="43.37140442803502" lon="-5.893676122650504">
        <ele>238</ele>
        <time>2017-08-02T06:07:31.000Z</time>
      </trkpt>
      <trkpt lat="43.37140291929245" lon="-5.893699424341321">
        <ele>237.8</ele>
        <time>2017-08-02T06:07:32.000Z</time>
      </trkpt>
      <trkpt lat="43.37139663286507" lon="-5.8938441798090935">
        <ele>237.8</ele>
        <time>2017-08-02T06:07:39.000Z</time>
      </trkpt>
      <trkpt lat="43.37140283547342" lon="-5.8939475286751986">
        <ele>237.8</ele>
        <time>2017-08-02T06:07:45.000Z</time>
      </trkpt>
      <trkpt lat="43.37140794843435" lon="-5.893960269168019">
        <ele>238</ele>
        <time>2017-08-02T06:07:46.000Z</time>
      </trkpt>
      <trkpt lat="43.3714260533452" lon="-5.894037131220102">
        <ele>238</ele>
        <time>2017-08-02T06:07:51.000Z</time>
      </trkpt>
      <trkpt lat="43.37143451906741" lon="-5.894062947481871">
        <ele>238</ele>
        <time>2017-08-02T06:07:53.000Z</time>
      </trkpt>
      <trkpt lat="43.3714522048831" lon="-5.894104773178697">
        <ele>238</ele>
        <time>2017-08-02T06:07:56.000Z</time>
      </trkpt>
      <trkpt lat="43.37145782075822" lon="-5.8941360376775265">
        <ele>238</ele>
        <time>2017-08-02T06:07:58.000Z</time>
      </trkpt>
      <trkpt lat="43.37146611884236" lon="-5.8941734209656715">
        <ele>238</ele>
        <time>2017-08-02T06:08:00.000Z</time>
      </trkpt>
      <trkpt lat="43.37148833088577" lon="-5.894245421513915">
        <ele>237.6</ele>
        <time>2017-08-02T06:08:03.000Z</time>
      </trkpt>
      <trkpt lat="43.37149922735989" lon="-5.894264196977019">
        <ele>237.6</ele>
        <time>2017-08-02T06:08:04.000Z</time>
      </trkpt>
      <trkpt lat="43.37152940221131" lon="-5.894338712096214">
        <ele>237.6</ele>
        <time>2017-08-02T06:08:08.000Z</time>
      </trkpt>
      <trkpt lat="43.3715383708477" lon="-5.894378274679184">
        <ele>237.6</ele>
        <time>2017-08-02T06:08:10.000Z</time>
      </trkpt>
      <trkpt lat="43.371554128825665" lon="-5.894466117024422">
        <ele>237.8</ele>
        <time>2017-08-02T06:08:14.000Z</time>
      </trkpt>
      <trkpt lat="43.37155915796757" lon="-5.894508948549628">
        <ele>238</ele>
        <time>2017-08-02T06:08:16.000Z</time>
      </trkpt>
      <trkpt lat="43.37157214991748" lon="-5.894616153091192">
        <ele>238.2</ele>
        <time>2017-08-02T06:08:22.000Z</time>
      </trkpt>
      <trkpt lat="43.37155982851982" lon="-5.894753951579332">
        <ele>238.4</ele>
        <time>2017-08-02T06:08:29.000Z</time>
      </trkpt>
      <trkpt lat="43.37156821042299" lon="-5.894857970997691">
        <ele>239</ele>
        <time>2017-08-02T06:08:35.000Z</time>
      </trkpt>
      <trkpt lat="43.371572233736515" lon="-5.894899629056454">
        <ele>239.2</ele>
        <time>2017-08-02T06:08:37.000Z</time>
      </trkpt>
      <trkpt lat="43.371589751914144" lon="-5.894947573542595">
        <ele>240</ele>
        <time>2017-08-02T06:08:40.000Z</time>
      </trkpt>
      <trkpt lat="43.371599055826664" lon="-5.894967187196016">
        <ele>240.2</ele>
        <time>2017-08-02T06:08:42.000Z</time>
      </trkpt>
      <trkpt lat="43.37162537500262" lon="-5.89506458491087">
        <ele>241.6</ele>
        <time>2017-08-02T06:08:48.000Z</time>
      </trkpt>
      <trkpt lat="43.37165948934853" lon="-5.895191403105855">
        <ele>242.6</ele>
        <time>2017-08-02T06:08:55.000Z</time>
      </trkpt>
      <trkpt lat="43.37168924510479" lon="-5.895276563242078">
        <ele>243</ele>
        <time>2017-08-02T06:08:59.000Z</time>
      </trkpt>
      <trkpt lat="43.371701231226325" lon="-5.895345211029053">
        <ele>243.2</ele>
        <time>2017-08-02T06:09:03.000Z</time>
      </trkpt>
      <trkpt lat="43.37173668667674" lon="-5.895453589037061">
        <ele>243.6</ele>
        <time>2017-08-02T06:09:10.000Z</time>
      </trkpt>
      <trkpt lat="43.371786726638675" lon="-5.895540760830045">
        <ele>244.4</ele>
        <time>2017-08-02T06:09:16.000Z</time>
      </trkpt>
      <trkpt lat="43.371806843206286" lon="-5.8955685049295425">
        <ele>244.8</ele>
        <time>2017-08-02T06:09:18.000Z</time>
      </trkpt>
      <trkpt lat="43.37183433584869" lon="-5.895628854632378">
        <ele>245.4</ele>
        <time>2017-08-02T06:09:22.000Z</time>
      </trkpt>
      <trkpt lat="43.37191119790077" lon="-5.895782494917512">
        <ele>246.6</ele>
        <time>2017-08-02T06:09:31.000Z</time>
      </trkpt>
      <trkpt lat="43.37193500250578" lon="-5.895831026136875">
        <ele>247</ele>
        <time>2017-08-02T06:09:34.000Z</time>
      </trkpt>
      <trkpt lat="43.37195939384401" lon="-5.895886933431029">
        <ele>247.2</ele>
        <time>2017-08-02T06:09:38.000Z</time>
      </trkpt>
      <trkpt lat="43.37201924063265" lon="-5.896003693342209">
        <ele>248.4</ele>
        <time>2017-08-02T06:09:46.000Z</time>
      </trkpt>
      <trkpt lat="43.372085792943835" lon="-5.896118525415659">
        <ele>249.6</ele>
        <time>2017-08-02T06:09:53.000Z</time>
      </trkpt>
      <trkpt lat="43.37215846404433" lon="-5.896278116852045">
        <ele>250.6</ele>
        <time>2017-08-02T06:10:02.000Z</time>
      </trkpt>
      <trkpt lat="43.37216290645301" lon="-5.89629303663969">
        <ele>250.8</ele>
        <time>2017-08-02T06:10:03.000Z</time>
      </trkpt>
      <trkpt lat="43.37218386121094" lon="-5.896338550373912">
        <ele>251.4</ele>
        <time>2017-08-02T06:10:06.000Z</time>
      </trkpt>
      <trkpt lat="43.37223272770643" lon="-5.89649923145771">
        <ele>253</ele>
        <time>2017-08-02T06:10:16.000Z</time>
      </trkpt>
      <trkpt lat="43.37223934940994" lon="-5.896594701334834">
        <ele>253.4</ele>
        <time>2017-08-02T06:10:21.000Z</time>
      </trkpt>
      <trkpt lat="43.37225309573114" lon="-5.896689333021641">
        <ele>254.2</ele>
        <time>2017-08-02T06:10:26.000Z</time>
      </trkpt>
      <trkpt lat="43.372257789596915" lon="-5.896724285557866">
        <ele>254.4</ele>
        <time>2017-08-02T06:10:28.000Z</time>
      </trkpt>
      <trkpt lat="43.37228301912546" lon="-5.896790334954858">
        <ele>255.2</ele>
        <time>2017-08-02T06:10:32.000Z</time>
      </trkpt>
      <trkpt lat="43.37229307740927" lon="-5.896806679666042">
        <ele>255.4</ele>
        <time>2017-08-02T06:10:33.000Z</time>
      </trkpt>
      <trkpt lat="43.37229257449508" lon="-5.896817659959197">
        <ele>255.4</ele>
        <time>2017-08-02T06:10:34.000Z</time>
      </trkpt>
      <trkpt lat="43.37229257449508" lon="-5.896817659959197">
        <ele>255.4</ele>
        <time>2017-08-02T06:10:34.000Z</time>
      </trkpt>
      <trkpt lat="43.372327107936144" lon="-5.896870801225305">
        <ele>256.4</ele>
        <time>2017-08-02T06:10:38.000Z</time>
      </trkpt>
      <trkpt lat="43.372367760166526" lon="-5.896979263052344">
        <ele>257.2</ele>
        <time>2017-08-02T06:10:45.000Z</time>
      </trkpt>
      <trkpt lat="43.37236792780459" lon="-5.896997451782227">
        <ele>257.2</ele>
        <time>2017-08-02T06:10:46.000Z</time>
      </trkpt>
      <trkpt lat="43.37239625863731" lon="-5.89707775041461">
        <ele>257.6</ele>
        <time>2017-08-02T06:10:50.000Z</time>
      </trkpt>
      <trkpt lat="43.372436072677374" lon="-5.897195935249329">
        <ele>258</ele>
        <time>2017-08-02T06:10:57.000Z</time>
      </trkpt>
      <trkpt lat="43.372449818998575" lon="-5.897225774824619">
        <ele>258.2</ele>
        <time>2017-08-02T06:10:59.000Z</time>
      </trkpt>
      <trkpt lat="43.37247404269874" lon="-5.897269360721111">
        <ele>258.4</ele>
        <time>2017-08-02T06:11:02.000Z</time>
      </trkpt>
      <trkpt lat="43.372480077669024" lon="-5.8972852025181055">
        <ele>258.4</ele>
        <time>2017-08-02T06:11:03.000Z</time>
      </trkpt>
      <trkpt lat="43.37248686701059" lon="-5.897343121469021">
        <ele>258.2</ele>
        <time>2017-08-02T06:11:06.000Z</time>
      </trkpt>
      <trkpt lat="43.37247580289841" lon="-5.897396598011255">
        <ele>257.6</ele>
        <time>2017-08-02T06:11:08.000Z</time>
      </trkpt>
      <trkpt lat="43.372453758493066" lon="-5.897485362365842">
        <ele>256.8</ele>
        <time>2017-08-02T06:11:13.000Z</time>
      </trkpt>
      <trkpt lat="43.37244847789407" lon="-5.897503467276692">
        <ele>256.6</ele>
        <time>2017-08-02T06:11:14.000Z</time>
      </trkpt>
      <trkpt lat="43.372417045757174" lon="-5.8976050559431314">
        <ele>255.4</ele>
        <time>2017-08-02T06:11:18.000Z</time>
      </trkpt>
      <trkpt lat="43.372405311092734" lon="-5.897734556347132">
        <ele>254.4</ele>
        <time>2017-08-02T06:11:25.000Z</time>
      </trkpt>
      <trkpt lat="43.37243548594415" lon="-5.89788593351841">
        <ele>254.4</ele>
        <time>2017-08-02T06:11:33.000Z</time>
      </trkpt>
      <trkpt lat="43.37245769798756" lon="-5.8979905396699905">
        <ele>253.4</ele>
        <time>2017-08-02T06:11:39.000Z</time>
      </trkpt>
      <trkpt lat="43.37249306961894" lon="-5.898106712847948">
        <ele>252</ele>
        <time>2017-08-02T06:11:45.000Z</time>
      </trkpt>
      <trkpt lat="43.372565656900406" lon="-5.898257503286004">
        <ele>250.8</ele>
        <time>2017-08-02T06:11:53.000Z</time>
      </trkpt>
      <trkpt lat="43.37265081703663" lon="-5.898357164114714">
        <ele>250.6</ele>
        <time>2017-08-02T06:12:01.000Z</time>
      </trkpt>
      <trkpt lat="43.37271158583462" lon="-5.898451628163457">
        <ele>250.4</ele>
        <time>2017-08-02T06:12:08.000Z</time>
      </trkpt>
      <trkpt lat="43.372735641896725" lon="-5.898499069735408">
        <ele>250.2</ele>
        <time>2017-08-02T06:12:11.000Z</time>
      </trkpt>
      <trkpt lat="43.372757183387876" lon="-5.898561179637909">
        <ele>249.8</ele>
        <time>2017-08-02T06:12:15.000Z</time>
      </trkpt>
      <trkpt lat="43.37275735102594" lon="-5.898579955101013">
        <ele>249.6</ele>
        <time>2017-08-02T06:12:16.000Z</time>
      </trkpt>
      <trkpt lat="43.372779563069344" lon="-5.8986367005854845">
        <ele>249.2</ele>
        <time>2017-08-02T06:12:19.000Z</time>
      </trkpt>
      <trkpt lat="43.37277729995549" lon="-5.89865162037313">
        <ele>249</ele>
        <time>2017-08-02T06:12:20.000Z</time>
      </trkpt>
      <trkpt lat="43.37278861552477" lon="-5.898674502968788">
        <ele>248.8</ele>
        <time>2017-08-02T06:12:21.000Z</time>
      </trkpt>
      <trkpt lat="43.372817784547806" lon="-5.898775337263942">
        <ele>248.4</ele>
        <time>2017-08-02T06:12:26.000Z</time>
      </trkpt>
      <trkpt lat="43.37283597327769" lon="-5.898836022242904">
        <ele>248.2</ele>
        <time>2017-08-02T06:12:29.000Z</time>
      </trkpt>
      <trkpt lat="43.372852988541126" lon="-5.898895114660263">
        <ele>248</ele>
        <time>2017-08-02T06:12:32.000Z</time>
      </trkpt>
      <trkpt lat="43.37289808318019" lon="-5.8990563824772835">
        <ele>248</ele>
        <time>2017-08-02T06:12:41.000Z</time>
      </trkpt>
      <trkpt lat="43.37289632298052" lon="-5.899094101041555">
        <ele>247.8</ele>
        <time>2017-08-02T06:12:43.000Z</time>
      </trkpt>
      <trkpt lat="43.37289766408503" lon="-5.899137267842889">
        <ele>247.8</ele>
        <time>2017-08-02T06:12:45.000Z</time>
      </trkpt>
      <trkpt lat="43.37292733602226" lon="-5.899288477376103">
        <ele>247.6</ele>
        <time>2017-08-02T06:12:53.000Z</time>
      </trkpt>
      <trkpt lat="43.37295860052109" lon="-5.899481177330017">
        <ele>248.2</ele>
        <time>2017-08-02T06:13:03.000Z</time>
      </trkpt>
      <trkpt lat="43.37295633740723" lon="-5.899597937241197">
        <ele>248</ele>
        <time>2017-08-02T06:13:09.000Z</time>
      </trkpt>
      <trkpt lat="43.37292297743261" lon="-5.899698436260223">
        <ele>247</ele>
        <time>2017-08-02T06:13:16.000Z</time>
      </trkpt>
      <trkpt lat="43.37292306125164" lon="-5.89972173795104">
        <ele>247</ele>
        <time>2017-08-02T06:13:17.000Z</time>
      </trkpt>
      <trkpt lat="43.37291375733912" lon="-5.899777058511972">
        <ele>246.6</ele>
        <time>2017-08-02T06:13:20.000Z</time>
      </trkpt>
      <trkpt lat="43.37288936600089" lon="-5.899893483147025">
        <ele>245.8</ele>
        <time>2017-08-02T06:13:26.000Z</time>
      </trkpt>
      <trkpt lat="43.372867153957486" lon="-5.90005642734468">
        <ele>244.8</ele>
        <time>2017-08-02T06:13:34.000Z</time>
      </trkpt>
      <trkpt lat="43.372866651043296" lon="-5.9000777173787355">
        <ele>244.6</ele>
        <time>2017-08-02T06:13:35.000Z</time>
      </trkpt>
      <trkpt lat="43.37286187335849" lon="-5.900158016011119">
        <ele>244.2</ele>
        <time>2017-08-02T06:13:38.000Z</time>
      </trkpt>
      <trkpt lat="43.372863214462996" lon="-5.900195399299264">
        <ele>244</ele>
        <time>2017-08-02T06:13:40.000Z</time>
      </trkpt>
      <trkpt lat="43.37286287918687" lon="-5.900261281058192">
        <ele>243.8</ele>
        <time>2017-08-02T06:13:43.000Z</time>
      </trkpt>
      <trkpt lat="43.3728941436857" lon="-5.900379633530974">
        <ele>243.6</ele>
        <time>2017-08-02T06:13:49.000Z</time>
      </trkpt>
      <trkpt lat="43.37290562689304" lon="-5.900391703471541">
        <ele>243.8</ele>
        <time>2017-08-02T06:13:50.000Z</time>
      </trkpt>
      <trkpt lat="43.372917864471674" lon="-5.900425482541323">
        <ele>243.8</ele>
        <time>2017-08-02T06:13:52.000Z</time>
      </trkpt>
      <trkpt lat="43.37292985059321" lon="-5.900474097579718">
        <ele>244</ele>
        <time>2017-08-02T06:13:55.000Z</time>
      </trkpt>
      <trkpt lat="43.37295038625598" lon="-5.900540482252836">
        <ele>244.2</ele>
        <time>2017-08-02T06:13:59.000Z</time>
      </trkpt>
      <trkpt lat="43.37296228855848" lon="-5.900576105341315">
        <ele>244.4</ele>
        <time>2017-08-02T06:14:01.000Z</time>
      </trkpt>
      <trkpt lat="43.373002940788865" lon="-5.9007014986127615">
        <ele>244.8</ele>
        <time>2017-08-02T06:14:08.000Z</time>
      </trkpt>
      <trkpt lat="43.373036719858646" lon="-5.900904173031449">
        <ele>245.2</ele>
        <time>2017-08-02T06:14:18.000Z</time>
      </trkpt>
      <trkpt lat="43.373023476451635" lon="-5.901078265160322">
        <ele>244</ele>
        <time>2017-08-02T06:14:26.000Z</time>
      </trkpt>
      <trkpt lat="43.37298885919154" lon="-5.901211621239781">
        <ele>242.6</ele>
        <time>2017-08-02T06:14:34.000Z</time>
      </trkpt>
      <trkpt lat="43.372975615784526" lon="-5.901341792196035">
        <ele>241</ele>
        <time>2017-08-02T06:14:41.000Z</time>
      </trkpt>
      <trkpt lat="43.3729906193912" lon="-5.901462156325579">
        <ele>239.8</ele>
        <time>2017-08-02T06:14:48.000Z</time>
      </trkpt>
      <trkpt lat="43.37299715727568" lon="-5.901503646746278">
        <ele>239.6</ele>
        <time>2017-08-02T06:14:51.000Z</time>
      </trkpt>
      <trkpt lat="43.37299992330372" lon="-5.901533234864473">
        <ele>239.4</ele>
        <time>2017-08-02T06:14:53.000Z</time>
      </trkpt>
      <trkpt lat="43.37300998158753" lon="-5.901613365858793">
        <ele>238.2</ele>
        <time>2017-08-02T06:14:58.000Z</time>
      </trkpt>
      <trkpt lat="43.373021800071" lon="-5.9016677644103765">
        <ele>237.6</ele>
        <time>2017-08-02T06:15:01.000Z</time>
      </trkpt>
      <trkpt lat="43.37304719723761" lon="-5.90181402862072">
        <ele>235.2</ele>
        <time>2017-08-02T06:15:10.000Z</time>
      </trkpt>
      <trkpt lat="43.37306924164295" lon="-5.901891393586993">
        <ele>233.4</ele>
        <time>2017-08-02T06:15:15.000Z</time>
      </trkpt>
      <trkpt lat="43.373083993792534" lon="-5.901917712762952">
        <ele>232.8</ele>
        <time>2017-08-02T06:15:17.000Z</time>
      </trkpt>
      <trkpt lat="43.373089442029595" lon="-5.9019337221980095">
        <ele>232.4</ele>
        <time>2017-08-02T06:15:24.000Z</time>
      </trkpt>
      <trkpt lat="43.373080641031265" lon="-5.901936488226056">
        <ele>232.4</ele>
        <time>2017-08-02T06:15:29.000Z</time>
      </trkpt>
      <trkpt lat="43.373107546940446" lon="-5.901956772431731">
        <ele>231.8</ele>
        <time>2017-08-02T06:15:59.000Z</time>
      </trkpt>
      <trkpt lat="43.37315599434078" lon="-5.902004716917872">
        <ele>230.4</ele>
        <time>2017-08-02T06:16:30.000Z</time>
      </trkpt>
      <trkpt lat="43.37324609979987" lon="-5.902013098821044">
        <ele>229.4</ele>
        <time>2017-08-02T06:16:37.000Z</time>
      </trkpt>
      <trkpt lat="43.3733241353184" lon="-5.901999184861779">
        <ele>228.8</ele>
        <time>2017-08-02T06:16:43.000Z</time>
      </trkpt>
      <trkpt lat="43.37341499514878" lon="-5.9019864443689585">
        <ele>227.8</ele>
        <time>2017-08-02T06:16:50.000Z</time>
      </trkpt>
      <trkpt lat="43.373507196083665" lon="-5.901962304487824">
        <ele>227</ele>
        <time>2017-08-02T06:16:57.000Z</time>
      </trkpt>
      <trkpt lat="43.37357726879418" lon="-5.901931039988995">
        <ele>226.8</ele>
        <time>2017-08-02T06:17:03.000Z</time>
      </trkpt>
      <trkpt lat="43.373628817498684" lon="-5.901882257312536">
        <ele>227</ele>
        <time>2017-08-02T06:17:08.000Z</time>
      </trkpt>
      <trkpt lat="43.37367449887097" lon="-5.901826182380319">
        <ele>227.2</ele>
        <time>2017-08-02T06:17:13.000Z</time>
      </trkpt>
      <trkpt lat="43.37369394488633" lon="-5.9018006175756454">
        <ele>227.4</ele>
        <time>2017-08-02T06:17:15.000Z</time>
      </trkpt>
      <trkpt lat="43.37378539144993" lon="-5.901741357520223">
        <ele>227.2</ele>
        <time>2017-08-02T06:17:20.000Z</time>
      </trkpt>
      <trkpt lat="43.37383434176445" lon="-5.901744877919555">
        <ele>226.6</ele>
        <time>2017-08-02T06:17:23.000Z</time>
      </trkpt>
      <trkpt lat="43.37385764345527" lon="-5.901772370561957">
        <ele>226</ele>
        <time>2017-08-02T06:17:26.000Z</time>
      </trkpt>
      <trkpt lat="43.37388069368899" lon="-5.901835402473807">
        <ele>225.8</ele>
        <time>2017-08-02T06:17:31.000Z</time>
      </trkpt>
      <trkpt lat="43.373884968459606" lon="-5.9018459636718035">
        <ele>225.8</ele>
        <time>2017-08-02T06:17:32.000Z</time>
      </trkpt>
      <trkpt lat="43.37390114553273" lon="-5.901883682236075">
        <ele>225.8</ele>
        <time>2017-08-02T06:17:36.000Z</time>
      </trkpt>
      <trkpt lat="43.37394808419049" lon="-5.901958029717207">
        <ele>225.8</ele>
        <time>2017-08-02T06:17:42.000Z</time>
      </trkpt>
      <trkpt lat="43.3739975374192" lon="-5.902054002508521">
        <ele>225.6</ele>
        <time>2017-08-02T06:17:48.000Z</time>
      </trkpt>
      <trkpt lat="43.37402234785259" lon="-5.902164727449417">
        <ele>224.6</ele>
        <time>2017-08-02T06:17:54.000Z</time>
      </trkpt>
      <trkpt lat="43.37404288351536" lon="-5.902239745482802">
        <ele>224.4</ele>
        <time>2017-08-02T06:17:58.000Z</time>
      </trkpt>
      <trkpt lat="43.37405671365559" lon="-5.902273776009679">
        <ele>224.4</ele>
        <time>2017-08-02T06:18:00.000Z</time>
      </trkpt>
      <trkpt lat="43.374118991196156" lon="-5.902375113219023">
        <ele>224.4</ele>
        <time>2017-08-02T06:18:07.000Z</time>
      </trkpt>
      <trkpt lat="43.37417925707996" lon="-5.902462285012007">
        <ele>225.2</ele>
        <time>2017-08-02T06:18:14.000Z</time>
      </trkpt>
      <trkpt lat="43.37422150187194" lon="-5.902540320530534">
        <ele>225.8</ele>
        <time>2017-08-02T06:18:20.000Z</time>
      </trkpt>
      <trkpt lat="43.374232314527035" lon="-5.9025742672383785">
        <ele>225.6</ele>
        <time>2017-08-02T06:18:23.000Z</time>
      </trkpt>
      <trkpt lat="43.37423541583121" lon="-5.902595305815339">
        <ele>225.4</ele>
        <time>2017-08-02T06:18:25.000Z</time>
      </trkpt>
      <trkpt lat="43.3742565382272" lon="-5.902660936117172">
        <ele>225.4</ele>
        <time>2017-08-02T06:18:30.000Z</time>
      </trkpt>
      <trkpt lat="43.37426542304456" lon="-5.902690859511495">
        <ele>225.4</ele>
        <time>2017-08-02T06:18:32.000Z</time>
      </trkpt>
      <trkpt lat="43.37428964674473" lon="-5.902759423479438">
        <ele>225.2</ele>
        <time>2017-08-02T06:18:36.000Z</time>
      </trkpt>
      <trkpt lat="43.37430004030466" lon="-5.902795884758234">
        <ele>224.8</ele>
        <time>2017-08-02T06:18:38.000Z</time>
      </trkpt>
      <trkpt lat="43.37434194982052" lon="-5.902891270816326">
        <ele>224</ele>
        <time>2017-08-02T06:18:44.000Z</time>
      </trkpt>
      <trkpt lat="43.37434605695307" lon="-5.902905939146876">
        <ele>224</ele>
        <time>2017-08-02T06:18:45.000Z</time>
      </trkpt>
      <trkpt lat="43.374362820759416" lon="-5.902985315769911">
        <ele>223.2</ele>
        <time>2017-08-02T06:18:49.000Z</time>
      </trkpt>
      <trkpt lat="43.3743672631681" lon="-5.902999816462398">
        <ele>223.2</ele>
        <time>2017-08-02T06:18:50.000Z</time>
      </trkpt>
      <trkpt lat="43.37439919821918" lon="-5.903123868629336">
        <ele>222.4</ele>
        <time>2017-08-02T06:18:57.000Z</time>
      </trkpt>
      <trkpt lat="43.37444378994405" lon="-5.903280274942517">
        <ele>221.2</ele>
        <time>2017-08-02T06:19:06.000Z</time>
      </trkpt>
      <trkpt lat="43.37449014186859" lon="-5.903388485312462">
        <ele>220.4</ele>
        <time>2017-08-02T06:19:13.000Z</time>
      </trkpt>
      <trkpt lat="43.37455258704722" lon="-5.9034910798072815">
        <ele>220.2</ele>
        <time>2017-08-02T06:19:21.000Z</time>
      </trkpt>
      <trkpt lat="43.37462802417576" lon="-5.903592919930816">
        <ele>220.6</ele>
        <time>2017-08-02T06:19:29.000Z</time>
      </trkpt>
      <trkpt lat="43.3747055567801" lon="-5.903682773932815">
        <ele>221.4</ele>
        <time>2017-08-02T06:19:36.000Z</time>
      </trkpt>
      <trkpt lat="43.374766409397125" lon="-5.903744213283062">
        <ele>222</ele>
        <time>2017-08-02T06:19:42.000Z</time>
      </trkpt>
      <trkpt lat="43.37477705441415" lon="-5.903754020109773">
        <ele>222</ele>
        <time>2017-08-02T06:19:43.000Z</time>
      </trkpt>
      <trkpt lat="43.37482525035739" lon="-5.90380322188139">
        <ele>222.2</ele>
        <time>2017-08-02T06:19:48.000Z</time>
      </trkpt>
      <trkpt lat="43.374830866232514" lon="-5.903812861070037">
        <ele>222</ele>
        <time>2017-08-02T06:19:49.000Z</time>
      </trkpt>
      <trkpt lat="43.37485986761749" lon="-5.90386675670743">
        <ele>222</ele>
        <time>2017-08-02T06:19:53.000Z</time>
      </trkpt>
      <trkpt lat="43.37487906217575" lon="-5.903914617374539">
        <ele>222</ele>
        <time>2017-08-02T06:19:56.000Z</time>
      </trkpt>
      <trkpt lat="43.374895406886935" lon="-5.9039664175361395">
        <ele>222</ele>
        <time>2017-08-02T06:19:59.000Z</time>
      </trkpt>
      <trkpt lat="43.37493798695505" lon="-5.904090888798237">
        <ele>221.8</ele>
        <time>2017-08-02T06:20:06.000Z</time>
      </trkpt>
      <trkpt lat="43.37495173327625" lon="-5.90411888435483">
        <ele>221.8</ele>
        <time>2017-08-02T06:20:08.000Z</time>
      </trkpt>
      <trkpt lat="43.374979980289936" lon="-5.904164481908083">
        <ele>222</ele>
        <time>2017-08-02T06:20:11.000Z</time>
      </trkpt>
      <trkpt lat="43.374985847622156" lon="-5.90417655184865">
        <ele>222</ele>
        <time>2017-08-02T06:20:12.000Z</time>
      </trkpt>
      <trkpt lat="43.37501644156873" lon="-5.904219215735793">
        <ele>222.2</ele>
        <time>2017-08-02T06:20:15.000Z</time>
      </trkpt>
      <trkpt lat="43.375073270872235" lon="-5.904258359223604">
        <ele>222</ele>
        <time>2017-08-02T06:20:20.000Z</time>
      </trkpt>
      <trkpt lat="43.37516639381647" lon="-5.904306974261999">
        <ele>222.2</ele>
        <time>2017-08-02T06:20:26.000Z</time>
      </trkpt>
      <trkpt lat="43.375216852873564" lon="-5.904320888221264">
        <ele>222.4</ele>
        <time>2017-08-02T06:20:30.000Z</time>
      </trkpt>
      <trkpt lat="43.37523168884218" lon="-5.904330359771848">
        <ele>222.6</ele>
        <time>2017-08-02T06:20:31.000Z</time>
      </trkpt>
      <trkpt lat="43.375236885622144" lon="-5.904339915141463">
        <ele>222.6</ele>
        <time>2017-08-02T06:20:32.000Z</time>
      </trkpt>
      <trkpt lat="43.37524979375303" lon="-5.904395487159491">
        <ele>222.6</ele>
        <time>2017-08-02T06:20:35.000Z</time>
      </trkpt>
      <trkpt lat="43.37524635717273" lon="-5.904447706416249">
        <ele>222.4</ele>
        <time>2017-08-02T06:20:37.000Z</time>
      </trkpt>
      <trkpt lat="43.375238897278905" lon="-5.904500093311071">
        <ele>222.2</ele>
        <time>2017-08-02T06:20:40.000Z</time>
      </trkpt>
      <trkpt lat="43.37522448040545" lon="-5.904567316174507">
        <ele>221.6</ele>
        <time>2017-08-02T06:20:45.000Z</time>
      </trkpt>
      <trkpt lat="43.37521919980645" lon="-5.904579218477011">
        <ele>221.4</ele>
        <time>2017-08-02T06:20:46.000Z</time>
      </trkpt>
      <trkpt lat="43.37519866414368" lon="-5.904705449938774">
        <ele>219.6</ele>
        <time>2017-08-02T06:20:53.000Z</time>
      </trkpt>
      <trkpt lat="43.37519137188792" lon="-5.904740318655968">
        <ele>219</ele>
        <time>2017-08-02T06:20:55.000Z</time>
      </trkpt>
      <trkpt lat="43.37517821229994" lon="-5.904839728027582">
        <ele>217.8</ele>
        <time>2017-08-02T06:21:00.000Z</time>
      </trkpt>
      <trkpt lat="43.37516496889293" lon="-5.904969982802868">
        <ele>216.2</ele>
        <time>2017-08-02T06:21:07.000Z</time>
      </trkpt>
      <trkpt lat="43.37515952065587" lon="-5.905110631138086">
        <ele>216</ele>
        <time>2017-08-02T06:21:14.000Z</time>
      </trkpt>
      <trkpt lat="43.37518458254635" lon="-5.905254548415542">
        <ele>216.6</ele>
        <time>2017-08-02T06:21:22.000Z</time>
      </trkpt>
      <trkpt lat="43.375227162614465" lon="-5.905430484563112">
        <ele>217.4</ele>
        <time>2017-08-02T06:21:32.000Z</time>
      </trkpt>
      <trkpt lat="43.37525666691363" lon="-5.905516315251589">
        <ele>217.6</ele>
        <time>2017-08-02T06:21:37.000Z</time>
      </trkpt>
      <trkpt lat="43.375268150120974" lon="-5.905545316636562">
        <ele>217.8</ele>
        <time>2017-08-02T06:21:39.000Z</time>
      </trkpt>
      <trkpt lat="43.375294553115964" lon="-5.905624274164438">
        <ele>218.2</ele>
        <time>2017-08-02T06:21:44.000Z</time>
      </trkpt>
      <trkpt lat="43.375295642763376" lon="-5.905629973858595">
        <ele>218</ele>
        <time>2017-08-02T06:21:45.000Z</time>
      </trkpt>
      <trkpt lat="43.375295139849186" lon="-5.905642043799162">
        <ele>217.8</ele>
        <time>2017-08-02T06:21:46.000Z</time>
      </trkpt>
      <trkpt lat="43.37530964054167" lon="-5.905687976628542">
        <ele>217.8</ele>
        <time>2017-08-02T06:21:49.000Z</time>
      </trkpt>
      <trkpt lat="43.3753358758986" lon="-5.905770370736718">
        <ele>218</ele>
        <time>2017-08-02T06:21:54.000Z</time>
      </trkpt>
      <trkpt lat="43.375341994687915" lon="-5.905784284695983">
        <ele>218</ele>
        <time>2017-08-02T06:21:55.000Z</time>
      </trkpt>
      <trkpt lat="43.37535557337105" lon="-5.905827200040221">
        <ele>218</ele>
        <time>2017-08-02T06:21:58.000Z</time>
      </trkpt>
      <trkpt lat="43.37536856532097" lon="-5.905872797593474">
        <ele>217.8</ele>
        <time>2017-08-02T06:22:01.000Z</time>
      </trkpt>
      <trkpt lat="43.37538390420377" lon="-5.905920825898647">
        <ele>217.4</ele>
        <time>2017-08-02T06:22:05.000Z</time>
      </trkpt>
      <trkpt lat="43.37538826279342" lon="-5.905935578048229">
        <ele>217.2</ele>
        <time>2017-08-02T06:22:06.000Z</time>
      </trkpt>
      <trkpt lat="43.37540628388524" lon="-5.9059596341103315">
        <ele>217.4</ele>
        <time>2017-08-02T06:22:09.000Z</time>
      </trkpt>
      <trkpt lat="43.375433357432485" lon="-5.906006237491965">
        <ele>217.2</ele>
        <time>2017-08-02T06:22:12.000Z</time>
      </trkpt>
      <trkpt lat="43.37546453811228" lon="-5.906055103987455">
        <ele>217.2</ele>
        <time>2017-08-02T06:22:16.000Z</time>
      </trkpt>
      <trkpt lat="43.37547333911061" lon="-5.906067257747054">
        <ele>217.2</ele>
        <time>2017-08-02T06:22:17.000Z</time>
      </trkpt>
      <trkpt lat="43.37551868520677" lon="-5.906144622713327">
        <ele>217</ele>
        <time>2017-08-02T06:22:24.000Z</time>
      </trkpt>
      <trkpt lat="43.37556160055101" lon="-5.90621804818511">
        <ele>217</ele>
        <time>2017-08-02T06:22:30.000Z</time>
      </trkpt>
      <trkpt lat="43.3756017498672" lon="-5.906308824196458">
        <ele>216.8</ele>
        <time>2017-08-02T06:22:36.000Z</time>
      </trkpt>
      <trkpt lat="43.375628823414445" lon="-5.906472858041525">
        <ele>216</ele>
        <time>2017-08-02T06:22:45.000Z</time>
      </trkpt>
      <trkpt lat="43.375630248337984" lon="-5.906505296006799">
        <ele>215.8</ele>
        <time>2017-08-02T06:22:47.000Z</time>
      </trkpt>
      <trkpt lat="43.375631337985396" lon="-5.906517533585429">
        <ele>215.6</ele>
        <time>2017-08-02T06:22:48.000Z</time>
      </trkpt>
      <trkpt lat="43.375631337985396" lon="-5.906517533585429">
        <ele>215.6</ele>
        <time>2017-08-02T06:22:48.000Z</time>
      </trkpt>
      <trkpt lat="43.375637624412775" lon="-5.9065633825957775">
        <ele>215.4</ele>
        <time>2017-08-02T06:22:51.000Z</time>
      </trkpt>
      <trkpt lat="43.37564022280276" lon="-5.906576793640852">
        <ele>215.4</ele>
        <time>2017-08-02T06:22:52.000Z</time>
      </trkpt>
      <trkpt lat="43.375654304400086" lon="-5.90663387440145">
        <ele>215.4</ele>
        <time>2017-08-02T06:22:56.000Z</time>
      </trkpt>
      <trkpt lat="43.375661596655846" lon="-5.906660025939345">
        <ele>215.4</ele>
        <time>2017-08-02T06:22:58.000Z</time>
      </trkpt>
      <trkpt lat="43.37566344067454" lon="-5.906669246032834">
        <ele>215.4</ele>
        <time>2017-08-02T06:22:59.000Z</time>
      </trkpt>
      <trkpt lat="43.375670397654176" lon="-5.90669740922749">
        <ele>215.6</ele>
        <time>2017-08-02T06:23:02.000Z</time>
      </trkpt>
      <trkpt lat="43.37568221613765" lon="-5.90676287189126">
        <ele>215.8</ele>
        <time>2017-08-02T06:23:08.000Z</time>
      </trkpt>
      <trkpt lat="43.375686993822455" lon="-5.906785000115633">
        <ele>215.8</ele>
        <time>2017-08-02T06:23:10.000Z</time>
      </trkpt>
      <trkpt lat="43.37569244205952" lon="-5.906814839690924">
        <ele>215.8</ele>
        <time>2017-08-02T06:23:12.000Z</time>
      </trkpt>
      <trkpt lat="43.375701662153006" lon="-5.9068838227540255">
        <ele>215.8</ele>
        <time>2017-08-02T06:23:16.000Z</time>
      </trkpt>
      <trkpt lat="43.3757225330919" lon="-5.9069877583533525">
        <ele>215.6</ele>
        <time>2017-08-02T06:23:22.000Z</time>
      </trkpt>
      <trkpt lat="43.37573359720409" lon="-5.907002678140998">
        <ele>215.8</ele>
        <time>2017-08-02T06:23:23.000Z</time>
      </trkpt>
      <trkpt lat="43.37575010955334" lon="-5.907050371170044">
        <ele>215.8</ele>
        <time>2017-08-02T06:23:26.000Z</time>
      </trkpt>
      <trkpt lat="43.37578606791794" lon="-5.9071132354438305">
        <ele>216</ele>
        <time>2017-08-02T06:23:31.000Z</time>
      </trkpt>
      <trkpt lat="43.37579143233597" lon="-5.907117761671543">
        <ele>216</ele>
        <time>2017-08-02T06:23:32.000Z</time>
      </trkpt>
      <trkpt lat="43.37580417282879" lon="-5.907124886289239">
        <ele>216.2</ele>
        <time>2017-08-02T06:23:36.000Z</time>
      </trkpt>
      <trkpt lat="43.37582009844482" lon="-5.9071435779333115">
        <ele>216.2</ele>
        <time>2017-08-02T06:23:46.000Z</time>
      </trkpt>
      <trkpt lat="43.375826217234135" lon="-5.907155396416783">
        <ele>216.2</ele>
        <time>2017-08-02T06:23:56.000Z</time>
      </trkpt>
      <trkpt lat="43.37582739070058" lon="-5.90716646052897">
        <ele>216</ele>
        <time>2017-08-02T06:24:04.000Z</time>
      </trkpt>
      <trkpt lat="43.37581875734031" lon="-5.907196551561356">
        <ele>215.4</ele>
        <time>2017-08-02T06:24:44.000Z</time>
      </trkpt>
      <trkpt lat="43.37584071792662" lon="-5.907226474955678">
        <ele>215.4</ele>
        <time>2017-08-02T06:24:56.000Z</time>
      </trkpt>
      <trkpt lat="43.37583577260375" lon="-5.907229827716947">
        <ele>215.4</ele>
        <time>2017-08-02T06:25:02.000Z</time>
      </trkpt>
      <trkpt lat="43.37581666186452" lon="-5.907228318974376">
        <ele>215</ele>
        <time>2017-08-02T06:25:06.000Z</time>
      </trkpt>
      <trkpt lat="43.37580383755267" lon="-5.907214153558016">
        <ele>214.8</ele>
        <time>2017-08-02T06:25:08.000Z</time>
      </trkpt>
      <trkpt lat="43.37577181868255" lon="-5.907213483005762">
        <ele>214.2</ele>
        <time>2017-08-02T06:25:14.000Z</time>
      </trkpt>
      <trkpt lat="43.37578682228923" lon="-5.9072154108434916">
        <ele>214.4</ele>
        <time>2017-08-02T06:25:23.000Z</time>
      </trkpt>
      <trkpt lat="43.375806184485555" lon="-5.907227983698249">
        <ele>214.8</ele>
        <time>2017-08-02T06:25:28.000Z</time>
      </trkpt>
      <trkpt lat="43.375828228890896" lon="-5.9072416462004185">
        <ele>215</ele>
        <time>2017-08-02T06:26:15.000Z</time>
      </trkpt>
      <trkpt lat="43.3758195117116" lon="-5.907269977033138">
        <ele>214.4</ele>
        <time>2017-08-02T06:26:23.000Z</time>
      </trkpt>
      <trkpt lat="43.37583267129958" lon="-5.9072495251894">
        <ele>215</ele>
        <time>2017-08-02T06:27:08.000Z</time>
      </trkpt>
      <trkpt lat="43.37579025886953" lon="-5.9072210267186165">
        <ele>214.4</ele>
        <time>2017-08-02T06:28:09.000Z</time>
      </trkpt>
      <trkpt lat="43.37582604959607" lon="-5.907206358388066">
        <ele>215.4</ele>
        <time>2017-08-02T06:29:03.000Z</time>
      </trkpt>
      <trkpt lat="43.375829234719276" lon="-5.907203173264861">
        <ele>215.6</ele>
        <time>2017-08-02T06:29:13.000Z</time>
      </trkpt>
      <trkpt lat="43.375814566388726" lon="-5.907228151336312">
        <ele>214.8</ele>
        <time>2017-08-02T06:29:59.000Z</time>
      </trkpt>
      <trkpt lat="43.375829653814435" lon="-5.907226223498583">
        <ele>215.2</ele>
        <time>2017-08-02T06:31:06.000Z</time>
      </trkpt>
      <trkpt lat="43.37585857138038" lon="-5.907221781089902">
        <ele>216</ele>
        <time>2017-08-02T06:32:10.000Z</time>
      </trkpt>
      <trkpt lat="43.37584105320275" lon="-5.90721775777638">
        <ele>215.6</ele>
        <time>2017-08-02T06:33:02.000Z</time>
      </trkpt>
      <trkpt lat="43.375903498381376" lon="-5.907227396965027">
        <ele>216.8</ele>
        <time>2017-08-02T06:37:07.000Z</time>
      </trkpt>
      <trkpt lat="43.37595093995333" lon="-5.90724173001945">
        <ele>217.6</ele>
        <time>2017-08-02T06:37:11.000Z</time>
      </trkpt>
      <trkpt lat="43.37596376426518" lon="-5.907244998961687">
        <ele>217.8</ele>
        <time>2017-08-02T06:37:12.000Z</time>
      </trkpt>
      <trkpt lat="43.37601883336902" lon="-5.9072858188301325">
        <ele>218.4</ele>
        <time>2017-08-02T06:37:17.000Z</time>
      </trkpt>
      <trkpt lat="43.37603962048888" lon="-5.907312808558345">
        <ele>218.6</ele>
        <time>2017-08-02T06:37:19.000Z</time>
      </trkpt>
      <trkpt lat="43.37605864740908" lon="-5.907340049743652">
        <ele>218.6</ele>
        <time>2017-08-02T06:37:21.000Z</time>
      </trkpt>
      <trkpt lat="43.376082703471184" lon="-5.907379779964685">
        <ele>218.4</ele>
        <time>2017-08-02T06:37:24.000Z</time>
      </trkpt>
      <trkpt lat="43.37614154443145" lon="-5.907455971464515">
        <ele>218</ele>
        <time>2017-08-02T06:37:30.000Z</time>
      </trkpt>
      <trkpt lat="43.37616694159806" lon="-5.90749436058104">
        <ele>217.8</ele>
        <time>2017-08-02T06:37:33.000Z</time>
      </trkpt>
      <trkpt lat="43.37618420831859" lon="-5.90753979049623">
        <ele>217.6</ele>
        <time>2017-08-02T06:37:36.000Z</time>
      </trkpt>
      <trkpt lat="43.37619359605014" lon="-5.907553117722273">
        <ele>217.6</ele>
        <time>2017-08-02T06:37:37.000Z</time>
      </trkpt>
      <trkpt lat="43.37625025771558" lon="-5.9076259564608335">
        <ele>218.2</ele>
        <time>2017-08-02T06:37:43.000Z</time>
      </trkpt>
      <trkpt lat="43.37626333348453" lon="-5.907637272030115">
        <ele>218.4</ele>
        <time>2017-08-02T06:37:44.000Z</time>
      </trkpt>
      <trkpt lat="43.37633600458503" lon="-5.907695107161999">
        <ele>219.6</ele>
        <time>2017-08-02T06:37:50.000Z</time>
      </trkpt>
      <trkpt lat="43.376435497775674" lon="-5.907714972272515">
        <ele>221.6</ele>
        <time>2017-08-02T06:37:58.000Z</time>
      </trkpt>
      <trkpt lat="43.376511270180345" lon="-5.907757971435785">
        <ele>223</ele>
        <time>2017-08-02T06:38:04.000Z</time>
      </trkpt>
      <trkpt lat="43.37656181305647" lon="-5.907824859023094">
        <ele>224.2</ele>
        <time>2017-08-02T06:38:10.000Z</time>
      </trkpt>
      <trkpt lat="43.37656181305647" lon="-5.90786031447351">
        <ele>224</ele>
        <time>2017-08-02T06:38:12.000Z</time>
      </trkpt>
      <trkpt lat="43.37654488161206" lon="-5.907904403284192">
        <ele>223.4</ele>
        <time>2017-08-02T06:38:15.000Z</time>
      </trkpt>
      <trkpt lat="43.37652610614896" lon="-5.907948324456811">
        <ele>222.8</ele>
        <time>2017-08-02T06:38:18.000Z</time>
      </trkpt>
      <trkpt lat="43.37650112807751" lon="-5.908020995557308">
        <ele>221.8</ele>
        <time>2017-08-02T06:38:23.000Z</time>
      </trkpt>
      <trkpt lat="43.37648025713861" lon="-5.9080909844487906">
        <ele>221.2</ele>
        <time>2017-08-02T06:38:27.000Z</time>
      </trkpt>
      <trkpt lat="43.37647288106382" lon="-5.908107329159975">
        <ele>221</ele>
        <time>2017-08-02T06:38:28.000Z</time>
      </trkpt>
      <trkpt lat="43.37642560712993" lon="-5.908199697732925">
        <ele>219.8</ele>
        <time>2017-08-02T06:38:35.000Z</time>
      </trkpt>
      <trkpt lat="43.376403730362654" lon="-5.908253090456128">
        <ele>219.4</ele>
        <time>2017-08-02T06:38:39.000Z</time>
      </trkpt>
      <trkpt lat="43.37640155106783" lon="-5.908266752958298">
        <ele>219.4</ele>
        <time>2017-08-02T06:38:40.000Z</time>
      </trkpt>
      <trkpt lat="43.37640540674329" lon="-5.908327605575323">
        <ele>220</ele>
        <time>2017-08-02T06:38:44.000Z</time>
      </trkpt>
      <trkpt lat="43.37642066180706" lon="-5.908375382423401">
        <ele>220.8</ele>
        <time>2017-08-02T06:38:47.000Z</time>
      </trkpt>
      <trkpt lat="43.37644228711724" lon="-5.908431708812714">
        <ele>222</ele>
        <time>2017-08-02T06:38:51.000Z</time>
      </trkpt>
      <trkpt lat="43.37648855522275" lon="-5.908547127619386">
        <ele>224.2</ele>
        <time>2017-08-02T06:38:58.000Z</time>
      </trkpt>
      <trkpt lat="43.376556700095534" lon="-5.908614015206695">
        <ele>226.6</ele>
        <time>2017-08-02T06:39:04.000Z</time>
      </trkpt>
      <trkpt lat="43.37656784802675" lon="-5.908621810376644">
        <ele>227</ele>
        <time>2017-08-02T06:39:05.000Z</time>
      </trkpt>
      <trkpt lat="43.37664429098368" lon="-5.908690206706524">
        <ele>229.2</ele>
        <time>2017-08-02T06:39:12.000Z</time>
      </trkpt>
      <trkpt lat="43.376696007326245" lon="-5.908739911392331">
        <ele>230</ele>
        <time>2017-08-02T06:39:17.000Z</time>
      </trkpt>
      <trkpt lat="43.37671780027449" lon="-5.908747706562281">
        <ele>230.2</ele>
        <time>2017-08-02T06:39:19.000Z</time>
      </trkpt>
      <trkpt lat="43.3767344802618" lon="-5.9087922144681215">
        <ele>230.2</ele>
        <time>2017-08-02T06:39:24.000Z</time>
      </trkpt>
      <trkpt lat="43.376737078651786" lon="-5.9088104870170355">
        <ele>230</ele>
        <time>2017-08-02T06:39:25.000Z</time>
      </trkpt>
      <trkpt lat="43.376764906570315" lon="-5.908957170322537">
        <ele>228.6</ele>
        <time>2017-08-02T06:39:33.000Z</time>
      </trkpt>
      <trkpt lat="43.37678334675729" lon="-5.909103099256754">
        <ele>227</ele>
        <time>2017-08-02T06:39:41.000Z</time>
      </trkpt>
      <trkpt lat="43.37680723518133" lon="-5.909248692914844">
        <ele>225.4</ele>
        <time>2017-08-02T06:39:50.000Z</time>
      </trkpt>
      <trkpt lat="43.37680220603943" lon="-5.909387581050396">
        <ele>224.8</ele>
        <time>2017-08-02T06:39:58.000Z</time>
      </trkpt>
      <trkpt lat="43.37680036202073" lon="-5.909407027065754">
        <ele>224.6</ele>
        <time>2017-08-02T06:40:04.000Z</time>
      </trkpt>
      <trkpt lat="43.376804469153285" lon="-5.909402333199978">
        <ele>224.8</ele>
        <time>2017-08-02T06:40:11.000Z</time>
      </trkpt>
      <trkpt lat="43.37682098150253" lon="-5.909412559121847">
        <ele>224.8</ele>
        <time>2017-08-02T06:40:39.000Z</time>
      </trkpt>
      <trkpt lat="43.37683741003275" lon="-5.9094183426350355">
        <ele>224.8</ele>
        <time>2017-08-02T06:40:46.000Z</time>
      </trkpt>
      <trkpt lat="43.37685124017298" lon="-5.909381462261081">
        <ele>225</ele>
        <time>2017-08-02T06:40:57.000Z</time>
      </trkpt>
      <trkpt lat="43.37685643695295" lon="-5.909385988488793">
        <ele>225</ele>
        <time>2017-08-02T06:40:58.000Z</time>
      </trkpt>
      <trkpt lat="43.37686674669385" lon="-5.909416498616338">
        <ele>224.8</ele>
        <time>2017-08-02T06:41:02.000Z</time>
      </trkpt>
      <trkpt lat="43.3768573589623" lon="-5.909452121704817">
        <ele>224.6</ele>
        <time>2017-08-02T06:41:07.000Z</time>
      </trkpt>
      <trkpt lat="43.37687068618834" lon="-5.909468047320843">
        <ele>224.6</ele>
        <time>2017-08-02T06:41:12.000Z</time>
      </trkpt>
      <trkpt lat="43.37679139338434" lon="-5.909384731203318">
        <ele>224.8</ele>
        <time>2017-08-02T06:41:44.000Z</time>
      </trkpt>
      <trkpt lat="43.37679742835462" lon="-5.909386742860079">
        <ele>224.8</ele>
        <time>2017-08-02T06:41:58.000Z</time>
      </trkpt>
      <trkpt lat="43.37683975696564" lon="-5.909410044550896">
        <ele>224.8</ele>
        <time>2017-08-02T06:42:09.000Z</time>
      </trkpt>
      <trkpt lat="43.37681788019836" lon="-5.90941222384572">
        <ele>224.8</ele>
        <time>2017-08-02T06:42:29.000Z</time>
      </trkpt>
      <trkpt lat="43.37679977528751" lon="-5.909381629899144">
        <ele>224.8</ele>
        <time>2017-08-02T06:42:58.000Z</time>
      </trkpt>
      <trkpt lat="43.376793237403035" lon="-5.909387832507491">
        <ele>224.8</ele>
        <time>2017-08-02T06:43:07.000Z</time>
      </trkpt>
      <trkpt lat="43.37680337950587" lon="-5.909439465031028">
        <ele>224.4</ele>
        <time>2017-08-02T06:43:22.000Z</time>
      </trkpt>
      <trkpt lat="43.376816706731915" lon="-5.909469556063414">
        <ele>224.4</ele>
        <time>2017-08-02T06:43:24.000Z</time>
      </trkpt>
      <trkpt lat="43.37686817161739" lon="-5.909613138064742">
        <ele>223.8</ele>
        <time>2017-08-02T06:43:33.000Z</time>
      </trkpt>
      <trkpt lat="43.37691033259034" lon="-5.909766359254718">
        <ele>224</ele>
        <time>2017-08-02T06:43:42.000Z</time>
      </trkpt>
      <trkpt lat="43.37694872170687" lon="-5.909889740869403">
        <ele>224.2</ele>
        <time>2017-08-02T06:43:50.000Z</time>
      </trkpt>
      <trkpt lat="43.376955930143595" lon="-5.909917317330837">
        <ele>224.4</ele>
        <time>2017-08-02T06:43:53.000Z</time>
      </trkpt>
      <trkpt lat="43.37696397677064" lon="-5.909938020631671">
        <ele>224.6</ele>
        <time>2017-08-02T06:43:56.000Z</time>
      </trkpt>
      <trkpt lat="43.37698065675795" lon="-5.910013290122151">
        <ele>225</ele>
        <time>2017-08-02T06:44:39.000Z</time>
      </trkpt>
      <trkpt lat="43.377046287059784" lon="-5.910173887386918">
        <ele>225.6</ele>
        <time>2017-08-02T06:44:50.000Z</time>
      </trkpt>
      <trkpt lat="43.37712574750185" lon="-5.910328030586243">
        <ele>226.8</ele>
        <time>2017-08-02T06:45:00.000Z</time>
      </trkpt>
      <trkpt lat="43.37720696814358" lon="-5.910419477149844">
        <ele>226.6</ele>
        <time>2017-08-02T06:45:08.000Z</time>
      </trkpt>
      <trkpt lat="43.37722691707313" lon="-5.910436073318124">
        <ele>226</ele>
        <time>2017-08-02T06:45:10.000Z</time>
      </trkpt>
      <trkpt lat="43.37727477774024" lon="-5.9104980155825615">
        <ele>225</ele>
        <time>2017-08-02T06:45:15.000Z</time>
      </trkpt>
      <trkpt lat="43.377357171848416" lon="-5.910595832392573">
        <ele>222.4</ele>
        <time>2017-08-02T06:45:23.000Z</time>
      </trkpt>
      <trkpt lat="43.37743453681469" lon="-5.910687111318111">
        <ele>219.4</ele>
        <time>2017-08-02T06:45:30.000Z</time>
      </trkpt>
      <trkpt lat="43.37744518183172" lon="-5.9107027016580105">
        <ele>219.2</ele>
        <time>2017-08-02T06:45:31.000Z</time>
      </trkpt>
      <trkpt lat="43.37748348712921" lon="-5.9107657335698605">
        <ele>218.2</ele>
        <time>2017-08-02T06:45:35.000Z</time>
      </trkpt>
      <trkpt lat="43.37750821374357" lon="-5.910817617550492">
        <ele>217.6</ele>
        <time>2017-08-02T06:45:38.000Z</time>
      </trkpt>
      <trkpt lat="43.37758616544306" lon="-5.910994978621602">
        <ele>217.2</ele>
        <time>2017-08-02T06:45:48.000Z</time>
      </trkpt>
      <trkpt lat="43.37763989344239" lon="-5.911141661927104">
        <ele>218.4</ele>
        <time>2017-08-02T06:45:56.000Z</time>
      </trkpt>
      <trkpt lat="43.3777292445302" lon="-5.911315167322755">
        <ele>219.8</ele>
        <time>2017-08-02T06:46:06.000Z</time>
      </trkpt>
      <trkpt lat="43.377821361646056" lon="-5.91144198551774">
        <ele>219.2</ele>
        <time>2017-08-02T06:46:14.000Z</time>
      </trkpt>
      <trkpt lat="43.37788565084338" lon="-5.911589674651623">
        <ele>216.6</ele>
        <time>2017-08-02T06:46:21.000Z</time>
      </trkpt>
      <trkpt lat="43.377906354144216" lon="-5.911749014630914">
        <ele>216.8</ele>
        <time>2017-08-02T06:46:28.000Z</time>
      </trkpt>
      <trkpt lat="43.37791683152318" lon="-5.911855129525065">
        <ele>216.6</ele>
        <time>2017-08-02T06:46:32.000Z</time>
      </trkpt>
      <trkpt lat="43.37793594226241" lon="-5.912015978246927">
        <ele>214.6</ele>
        <time>2017-08-02T06:46:38.000Z</time>
      </trkpt>
      <trkpt lat="43.37795061059296" lon="-5.91216173954308">
        <ele>212.4</ele>
        <time>2017-08-02T06:46:44.000Z</time>
      </trkpt>
      <trkpt lat="43.37795589119196" lon="-5.912165846675634">
        <ele>212</ele>
        <time>2017-08-02T06:46:49.000Z</time>
      </trkpt>
      <trkpt lat="43.37796276435256" lon="-5.912225106731057">
        <ele>211.4</ele>
        <time>2017-08-02T06:47:15.000Z</time>
      </trkpt>
      <trkpt lat="43.37800576351583" lon="-5.912364665418863">
        <ele>208</ele>
        <time>2017-08-02T06:47:23.000Z</time>
      </trkpt>
      <trkpt lat="43.37802680209279" lon="-5.9124344028532505">
        <ele>206.8</ele>
        <time>2017-08-02T06:47:27.000Z</time>
      </trkpt>
      <trkpt lat="43.378072902560234" lon="-5.9126069862395525">
        <ele>203.4</ele>
        <time>2017-08-02T06:47:36.000Z</time>
      </trkpt>
      <trkpt lat="43.37809947319329" lon="-5.912750232964754">
        <ele>200.6</ele>
        <time>2017-08-02T06:47:43.000Z</time>
      </trkpt>
      <trkpt lat="43.37812931276858" lon="-5.912933712825179">
        <ele>197.8</ele>
        <time>2017-08-02T06:47:50.000Z</time>
      </trkpt>
      <trkpt lat="43.378135934472084" lon="-5.913164550438523">
        <ele>195.2</ele>
        <time>2017-08-02T06:47:57.000Z</time>
      </trkpt>
      <trkpt lat="43.378142388537526" lon="-5.913286255672574">
        <ele>193.8</ele>
        <time>2017-08-02T06:48:02.000Z</time>
      </trkpt>
      <trkpt lat="43.37814909406006" lon="-5.913313664495945">
        <ele>193.2</ele>
        <time>2017-08-02T06:48:04.000Z</time>
      </trkpt>
      <trkpt lat="43.37815043516457" lon="-5.913322130218148">
        <ele>193.2</ele>
        <time>2017-08-02T06:48:07.000Z</time>
      </trkpt>
      <trkpt lat="43.378153117373586" lon="-5.9133891854435205">
        <ele>192</ele>
        <time>2017-08-02T06:48:15.000Z</time>
      </trkpt>
      <trkpt lat="43.3781695459038" lon="-5.913519188761711">
        <ele>189</ele>
        <time>2017-08-02T06:48:22.000Z</time>
      </trkpt>
      <trkpt lat="43.3781851362437" lon="-5.913683390244842">
        <ele>185.2</ele>
        <time>2017-08-02T06:48:30.000Z</time>
      </trkpt>
      <trkpt lat="43.37821195833385" lon="-5.91380937024951">
        <ele>182.4</ele>
        <time>2017-08-02T06:48:36.000Z</time>
      </trkpt>
      <trkpt lat="43.378250850364566" lon="-5.913968458771706">
        <ele>179.4</ele>
        <time>2017-08-02T06:48:44.000Z</time>
      </trkpt>
      <trkpt lat="43.378279181197286" lon="-5.914138946682215">
        <ele>177.2</ele>
        <time>2017-08-02T06:48:52.000Z</time>
      </trkpt>
      <trkpt lat="43.37829829193652" lon="-5.914260232821107">
        <ele>176.2</ele>
        <time>2017-08-02T06:48:58.000Z</time>
      </trkpt>
      <trkpt lat="43.378306003287435" lon="-5.914406832307577">
        <ele>174.6</ele>
        <time>2017-08-02T06:49:05.000Z</time>
      </trkpt>
      <trkpt lat="43.378309439867735" lon="-5.914547145366669">
        <ele>173</ele>
        <time>2017-08-02T06:49:12.000Z</time>
      </trkpt>
      <trkpt lat="43.37830927222967" lon="-5.914708664640784">
        <ele>170.8</ele>
        <time>2017-08-02T06:49:20.000Z</time>
      </trkpt>
      <trkpt lat="43.378312876448035" lon="-5.914828022941947">
        <ele>169.2</ele>
        <time>2017-08-02T06:49:26.000Z</time>
      </trkpt>
      <trkpt lat="43.37831706739962" lon="-5.914865992963314">
        <ele>168.8</ele>
        <time>2017-08-02T06:49:28.000Z</time>
      </trkpt>
      <trkpt lat="43.37833944708109" lon="-5.914913434535265">
        <ele>168.4</ele>
        <time>2017-08-02T06:49:31.000Z</time>
      </trkpt>
      <trkpt lat="43.378383284434676" lon="-5.914967833086848">
        <ele>167.8</ele>
        <time>2017-08-02T06:49:37.000Z</time>
      </trkpt>
      <trkpt lat="43.37843734771013" lon="-5.915003539994359">
        <ele>167.8</ele>
        <time>2017-08-02T06:49:44.000Z</time>
      </trkpt>
      <trkpt lat="43.37849006988108" lon="-5.9150151908397675">
        <ele>167.8</ele>
        <time>2017-08-02T06:49:48.000Z</time>
      </trkpt>
      <trkpt lat="43.378501469269395" lon="-5.915020387619734">
        <ele>167.8</ele>
        <time>2017-08-02T06:49:49.000Z</time>
      </trkpt>
      <trkpt lat="43.37855000048876" lon="-5.915104877203703">
        <ele>167</ele>
        <time>2017-08-02T06:49:55.000Z</time>
      </trkpt>
      <trkpt lat="43.37854438461363" lon="-5.915229851379991">
        <ele>166.2</ele>
        <time>2017-08-02T06:50:01.000Z</time>
      </trkpt>
      <trkpt lat="43.37852795608342" lon="-5.915375109761953">
        <ele>165.2</ele>
        <time>2017-08-02T06:50:08.000Z</time>
      </trkpt>
      <trkpt lat="43.37852669879794" lon="-5.91540914028883">
        <ele>165</ele>
        <time>2017-08-02T06:50:10.000Z</time>
      </trkpt>
      <trkpt lat="43.37852745316923" lon="-5.915429508313537">
        <ele>164.8</ele>
        <time>2017-08-02T06:50:13.000Z</time>
      </trkpt>
      <trkpt lat="43.37852502241731" lon="-5.915506286546588">
        <ele>164.4</ele>
        <time>2017-08-02T06:50:24.000Z</time>
      </trkpt>
      <trkpt lat="43.37851454503834" lon="-5.915593709796667">
        <ele>163.8</ele>
        <time>2017-08-02T06:50:30.000Z</time>
      </trkpt>
      <trkpt lat="43.37850599549711" lon="-5.915608294308186">
        <ele>163.8</ele>
        <time>2017-08-02T06:50:31.000Z</time>
      </trkpt>
      <trkpt lat="43.37849769741297" lon="-5.915651125833392">
        <ele>163.4</ele>
        <time>2017-08-02T06:50:34.000Z</time>
      </trkpt>
      <trkpt lat="43.378486298024654" lon="-5.915700076147914">
        <ele>163.2</ele>
        <time>2017-08-02T06:50:37.000Z</time>
      </trkpt>
      <trkpt lat="43.37845176458359" lon="-5.915802167728543">
        <ele>163</ele>
        <time>2017-08-02T06:50:43.000Z</time>
      </trkpt>
      <trkpt lat="43.378431564196944" lon="-5.915849944576621">
        <ele>162.8</ele>
        <time>2017-08-02T06:50:46.000Z</time>
      </trkpt>
      <trkpt lat="43.37841915898025" lon="-5.915880538523197">
        <ele>162.8</ele>
        <time>2017-08-02T06:50:48.000Z</time>
      </trkpt>
      <trkpt lat="43.37841781787574" lon="-5.91589730232954">
        <ele>162.8</ele>
        <time>2017-08-02T06:50:49.000Z</time>
      </trkpt>
      <trkpt lat="43.378406250849366" lon="-5.9159632679075">
        <ele>162.4</ele>
        <time>2017-08-02T06:50:52.000Z</time>
      </trkpt>
      <trkpt lat="43.37842544540763" lon="-5.9160783514380455">
        <ele>161.2</ele>
        <time>2017-08-02T06:50:56.000Z</time>
      </trkpt>
      <trkpt lat="43.37845302186906" lon="-5.9161328338086605">
        <ele>160.6</ele>
        <time>2017-08-02T06:51:01.000Z</time>
      </trkpt>
      <trkpt lat="43.378465762361884" lon="-5.916192680597305">
        <ele>160.2</ele>
        <time>2017-08-02T06:51:09.000Z</time>
      </trkpt>
      <trkpt lat="43.378468696027994" lon="-5.916207768023014">
        <ele>160.2</ele>
        <time>2017-08-02T06:51:10.000Z</time>
      </trkpt>
      <trkpt lat="43.37848939932883" lon="-5.916333245113492">
        <ele>159</ele>
        <time>2017-08-02T06:51:17.000Z</time>
      </trkpt>
      <trkpt lat="43.378505408763885" lon="-5.916444892063737">
        <ele>158.2</ele>
        <time>2017-08-02T06:51:24.000Z</time>
      </trkpt>
      <trkpt lat="43.37850767187774" lon="-5.9164992067962885">
        <ele>157.8</ele>
        <time>2017-08-02T06:51:27.000Z</time>
      </trkpt>
      <trkpt lat="43.378506833687425" lon="-5.916563328355551">
        <ele>157.4</ele>
        <time>2017-08-02T06:51:30.000Z</time>
      </trkpt>
      <trkpt lat="43.3785186521709" lon="-5.916613284498453">
        <ele>157.2</ele>
        <time>2017-08-02T06:51:35.000Z</time>
      </trkpt>
      <trkpt lat="43.37853432632983" lon="-5.916695510968566">
        <ele>157</ele>
        <time>2017-08-02T06:51:51.000Z</time>
      </trkpt>
      <trkpt lat="43.378553269430995" lon="-5.916752004995942">
        <ele>157</ele>
        <time>2017-08-02T06:51:55.000Z</time>
      </trkpt>
      <trkpt lat="43.37856433354318" lon="-5.916794165968895">
        <ele>156.8</ele>
        <time>2017-08-02T06:51:58.000Z</time>
      </trkpt>
      <trkpt lat="43.37858805432916" lon="-5.916870441287756">
        <ele>157.2</ele>
        <time>2017-08-02T06:52:03.000Z</time>
      </trkpt>
      <trkpt lat="43.378591826185584" lon="-5.916884941980243">
        <ele>157.4</ele>
        <time>2017-08-02T06:52:04.000Z</time>
      </trkpt>
      <trkpt lat="43.378636837005615" lon="-5.917017627507448">
        <ele>158.2</ele>
        <time>2017-08-02T06:52:12.000Z</time>
      </trkpt>
      <trkpt lat="43.37865795940161" lon="-5.917178224772215">
        <ele>158.4</ele>
        <time>2017-08-02T06:52:21.000Z</time>
      </trkpt>
      <trkpt lat="43.37866751477122" lon="-5.917318370193243">
        <ele>158.8</ele>
        <time>2017-08-02T06:52:29.000Z</time>
      </trkpt>
      <trkpt lat="43.37867941707373" lon="-5.917455833405256">
        <ele>159.2</ele>
        <time>2017-08-02T06:52:36.000Z</time>
      </trkpt>
      <trkpt lat="43.37869190610945" lon="-5.91760603711009">
        <ele>159</ele>
        <time>2017-08-02T06:52:44.000Z</time>
      </trkpt>
      <trkpt lat="43.37871294468641" lon="-5.9177508763968945">
        <ele>158</ele>
        <time>2017-08-02T06:52:52.000Z</time>
      </trkpt>
      <trkpt lat="43.378721829503775" lon="-5.917857494205236">
        <ele>157</ele>
        <time>2017-08-02T06:52:58.000Z</time>
      </trkpt>
      <trkpt lat="43.37872199714184" lon="-5.917877443134785">
        <ele>156.8</ele>
        <time>2017-08-02T06:52:59.000Z</time>
      </trkpt>
      <trkpt lat="43.37872015312314" lon="-5.918017420917749">
        <ele>154.8</ele>
        <time>2017-08-02T06:53:07.000Z</time>
      </trkpt>
      <trkpt lat="43.37872250005603" lon="-5.9180456679314375">
        <ele>154.4</ele>
        <time>2017-08-02T06:53:09.000Z</time>
      </trkpt>
      <trkpt lat="43.37872224859893" lon="-5.918116243556142">
        <ele>153</ele>
        <time>2017-08-02T06:53:13.000Z</time>
      </trkpt>
      <trkpt lat="43.37871923111379" lon="-5.918172989040613">
        <ele>152</ele>
        <time>2017-08-02T06:53:16.000Z</time>
      </trkpt>
      <trkpt lat="43.37872518226504" lon="-5.918245241045952">
        <ele>151.4</ele>
        <time>2017-08-02T06:53:20.000Z</time>
      </trkpt>
      <trkpt lat="43.37875376455486" lon="-5.9184064250439405">
        <ele>149</ele>
        <time>2017-08-02T06:53:29.000Z</time>
      </trkpt>
      <trkpt lat="43.378775054588914" lon="-5.9185416251420975">
        <ele>147.4</ele>
        <time>2017-08-02T06:53:37.000Z</time>
      </trkpt>
      <trkpt lat="43.37877094745636" lon="-5.918556964024901">
        <ele>147.4</ele>
        <time>2017-08-02T06:53:44.000Z</time>
      </trkpt>
      <trkpt lat="43.378794165328145" lon="-5.918567022308707">
        <ele>147.4</ele>
        <time>2017-08-02T06:53:52.000Z</time>
      </trkpt>
      <trkpt lat="43.37878854945302" lon="-5.91858328320086">
        <ele>147.4</ele>
        <time>2017-08-02T06:54:01.000Z</time>
      </trkpt>
      <trkpt lat="43.37875544093549" lon="-5.91860281303525">
        <ele>146.8</ele>
        <time>2017-08-02T06:54:07.000Z</time>
      </trkpt>
      <trkpt lat="43.37872392497957" lon="-5.9187262784689665">
        <ele>145.6</ele>
        <time>2017-08-02T06:54:14.000Z</time>
      </trkpt>
      <trkpt lat="43.37866248562932" lon="-5.918828789144754">
        <ele>145.2</ele>
        <time>2017-08-02T06:54:21.000Z</time>
      </trkpt>
      <trkpt lat="43.37860691361129" lon="-5.91891604475677">
        <ele>145</ele>
        <time>2017-08-02T06:54:28.000Z</time>
      </trkpt>
      <trkpt lat="43.378594759851694" lon="-5.919032888486981">
        <ele>145.4</ele>
        <time>2017-08-02T06:54:35.000Z</time>
      </trkpt>
      <trkpt lat="43.3786029741168" lon="-5.919144786894321">
        <ele>146.8</ele>
        <time>2017-08-02T06:54:41.000Z</time>
      </trkpt>
      <trkpt lat="43.37861755862832" lon="-5.919249644502997">
        <ele>148</ele>
        <time>2017-08-02T06:54:47.000Z</time>
      </trkpt>
      <trkpt lat="43.37862401269376" lon="-5.919349640607834">
        <ele>149.4</ele>
        <time>2017-08-02T06:54:53.000Z</time>
      </trkpt>
      <trkpt lat="43.37862719781697" lon="-5.91945743188262">
        <ele>151</ele>
        <time>2017-08-02T06:55:00.000Z</time>
      </trkpt>
      <trkpt lat="43.378656366840005" lon="-5.919560780748725">
        <ele>152.6</ele>
        <time>2017-08-02T06:55:07.000Z</time>
      </trkpt>
      <trkpt lat="43.378725266084075" lon="-5.919619202613831">
        <ele>153.6</ele>
        <time>2017-08-02T06:55:15.000Z</time>
      </trkpt>
      <trkpt lat="43.37878913618624" lon="-5.9196174424141645">
        <ele>154.2</ele>
        <time>2017-08-02T06:55:21.000Z</time>
      </trkpt>
      <trkpt lat="43.3788656629622" lon="-5.919658849015832">
        <ele>154.8</ele>
        <time>2017-08-02T06:55:29.000Z</time>
      </trkpt>
      <trkpt lat="43.37892827577889" lon="-5.919702351093292">
        <ele>156</ele>
        <time>2017-08-02T06:55:35.000Z</time>
      </trkpt>
      <trkpt lat="43.37900354526937" lon="-5.919761275872588">
        <ele>157.8</ele>
        <time>2017-08-02T06:55:42.000Z</time>
      </trkpt>
      <trkpt lat="43.37907697074115" lon="-5.919819111004472">
        <ele>159.8</ele>
        <time>2017-08-02T06:55:49.000Z</time>
      </trkpt>
      <trkpt lat="43.3791555929929" lon="-5.9198771975934505">
        <ele>162</ele>
        <time>2017-08-02T06:55:57.000Z</time>
      </trkpt>
      <trkpt lat="43.37921904399991" lon="-5.9199522994458675">
        <ele>164</ele>
        <time>2017-08-02T06:56:05.000Z</time>
      </trkpt>
      <trkpt lat="43.379273023456335" lon="-5.920030837878585">
        <ele>165.8</ele>
        <time>2017-08-02T06:56:12.000Z</time>
      </trkpt>
      <trkpt lat="43.379294062033296" lon="-5.9200628567487">
        <ele>166.4</ele>
        <time>2017-08-02T06:56:19.000Z</time>
      </trkpt>
      <trkpt lat="43.37931778281927" lon="-5.920115578919649">
        <ele>167.4</ele>
        <time>2017-08-02T06:56:24.000Z</time>
      </trkpt>
      <trkpt lat="43.37936790660024" lon="-5.92022311873734">
        <ele>169.2</ele>
        <time>2017-08-02T06:56:32.000Z</time>
      </trkpt>
      <trkpt lat="43.37939648889005" lon="-5.920337112620473">
        <ele>170.4</ele>
        <time>2017-08-02T06:56:40.000Z</time>
      </trkpt>
      <trkpt lat="43.379410821944475" lon="-5.920413723215461">
        <ele>171.2</ele>
        <time>2017-08-02T06:56:44.000Z</time>
      </trkpt>
      <trkpt lat="43.379412246868014" lon="-5.92042637988925">
        <ele>171.2</ele>
        <time>2017-08-02T06:56:45.000Z</time>
      </trkpt>
      <trkpt lat="43.37938483804464" lon="-5.920530231669545">
        <ele>172</ele>
        <time>2017-08-02T06:56:52.000Z</time>
      </trkpt>
      <trkpt lat="43.379286266863346" lon="-5.920620504766703">
        <ele>173</ele>
        <time>2017-08-02T06:57:01.000Z</time>
      </trkpt>
      <trkpt lat="43.37918417528272" lon="-5.9207315649837255">
        <ele>173.6</ele>
        <time>2017-08-02T06:57:11.000Z</time>
      </trkpt>
      <trkpt lat="43.37910463102162" lon="-5.92083684168756">
        <ele>173.2</ele>
        <time>2017-08-02T06:57:20.000Z</time>
      </trkpt>
      <trkpt lat="43.37907864712179" lon="-5.920873135328293">
        <ele>172.8</ele>
        <time>2017-08-02T06:57:23.000Z</time>
      </trkpt>
      <trkpt lat="43.379046795889735" lon="-5.920893335714936">
        <ele>172.6</ele>
        <time>2017-08-02T06:57:26.000Z</time>
      </trkpt>
      <trkpt lat="43.379025757312775" lon="-5.920898783951998">
        <ele>172.4</ele>
        <time>2017-08-02T06:57:28.000Z</time>
      </trkpt>
      <trkpt lat="43.37899197824299" lon="-5.920899622142315">
        <ele>172.2</ele>
        <time>2017-08-02T06:57:32.000Z</time>
      </trkpt>
      <trkpt lat="43.37898996658623" lon="-5.920897526666522">
        <ele>172.2</ele>
        <time>2017-08-02T06:57:34.000Z</time>
      </trkpt>
      <trkpt lat="43.37897999212146" lon="-5.920904818922281">
        <ele>172</ele>
        <time>2017-08-02T06:57:49.000Z</time>
      </trkpt>
      <trkpt lat="43.37895459495485" lon="-5.920934826135635">
        <ele>171.8</ele>
        <time>2017-08-02T06:57:56.000Z</time>
      </trkpt>
      <trkpt lat="43.378958282992244" lon="-5.92093993909657">
        <ele>171.8</ele>
        <time>2017-08-02T06:58:19.000Z</time>
      </trkpt>
      <trkpt lat="43.37897622026503" lon="-5.920953769236803">
        <ele>171.8</ele>
        <time>2017-08-02T06:58:25.000Z</time>
      </trkpt>
      <trkpt lat="43.378936909139156" lon="-5.920991906896234">
        <ele>171.4</ele>
        <time>2017-08-02T06:58:37.000Z</time>
      </trkpt>
      <trkpt lat="43.37892282754183" lon="-5.921016549691558">
        <ele>171.2</ele>
        <time>2017-08-02T06:58:39.000Z</time>
      </trkpt>
      <trkpt lat="43.37888770736754" lon="-5.921069020405412">
        <ele>170.8</ele>
        <time>2017-08-02T06:58:43.000Z</time>
      </trkpt>
      <trkpt lat="43.37887119501829" lon="-5.921091232448816">
        <ele>170.6</ele>
        <time>2017-08-02T06:58:45.000Z</time>
      </trkpt>
      <trkpt lat="43.378835236653686" lon="-5.921175805851817">
        <ele>170.2</ele>
        <time>2017-08-02T06:58:51.000Z</time>
      </trkpt>
      <trkpt lat="43.37882224470377" lon="-5.921238670125604">
        <ele>170</ele>
        <time>2017-08-02T06:58:55.000Z</time>
      </trkpt>
      <trkpt lat="43.37881973013282" lon="-5.921285441145301">
        <ele>169.8</ele>
        <time>2017-08-02T06:58:58.000Z</time>
      </trkpt>
      <trkpt lat="43.37880799546838" lon="-5.9213954117149115">
        <ele>169.2</ele>
        <time>2017-08-02T06:59:05.000Z</time>
      </trkpt>
      <trkpt lat="43.378802044317126" lon="-5.9214270953089">
        <ele>169</ele>
        <time>2017-08-02T06:59:07.000Z</time>
      </trkpt>
      <trkpt lat="43.378786286339164" lon="-5.921504627913237">
        <ele>168.6</ele>
        <time>2017-08-02T06:59:12.000Z</time>
      </trkpt>
      <trkpt lat="43.37878477759659" lon="-5.921522062271833">
        <ele>168.6</ele>
        <time>2017-08-02T06:59:13.000Z</time>
      </trkpt>
      <trkpt lat="43.378759464249015" lon="-5.921621136367321">
        <ele>168.6</ele>
        <time>2017-08-02T06:59:19.000Z</time>
      </trkpt>
      <trkpt lat="43.3787068258971" lon="-5.921803275123239">
        <ele>169</ele>
        <time>2017-08-02T06:59:30.000Z</time>
      </trkpt>
      <trkpt lat="43.37871428579092" lon="-5.9219511318951845">
        <ele>167.8</ele>
        <time>2017-08-02T06:59:39.000Z</time>
      </trkpt>
      <trkpt lat="43.378724846988916" lon="-5.922072837129235">
        <ele>166.8</ele>
        <time>2017-08-02T06:59:47.000Z</time>
      </trkpt>
      <trkpt lat="43.37874169461429" lon="-5.922214742749929">
        <ele>165.2</ele>
        <time>2017-08-02T06:59:57.000Z</time>
      </trkpt>
      <trkpt lat="43.378716465085745" lon="-5.922345416620374">
        <ele>163.8</ele>
        <time>2017-08-02T07:00:06.000Z</time>
      </trkpt>
      <trkpt lat="43.37865259498358" lon="-5.922524454072118">
        <ele>160.4</ele>
        <time>2017-08-02T07:00:17.000Z</time>
      </trkpt>
      <trkpt lat="43.37856416590512" lon="-5.922675244510174">
        <ele>157.8</ele>
        <time>2017-08-02T07:00:28.000Z</time>
      </trkpt>
      <trkpt lat="43.378488812595606" lon="-5.922786807641387">
        <ele>156</ele>
        <time>2017-08-02T07:00:37.000Z</time>
      </trkpt>
      <trkpt lat="43.378414968028665" lon="-5.922890994697809">
        <ele>154.2</ele>
        <time>2017-08-02T07:00:45.000Z</time>
      </trkpt>
      <trkpt lat="43.37838068604469" lon="-5.922968862578273">
        <ele>153.6</ele>
        <time>2017-08-02T07:00:51.000Z</time>
      </trkpt>
      <trkpt lat="43.37838144041598" lon="-5.922968778759241">
        <ele>153.6</ele>
        <time>2017-08-02T07:00:52.000Z</time>
      </trkpt>
      <trkpt lat="43.37834958918393" lon="-5.9230422880500555">
        <ele>153</ele>
        <time>2017-08-02T07:01:00.000Z</time>
      </trkpt>
      <trkpt lat="43.37827205657959" lon="-5.923231886699796">
        <ele>152</ele>
        <time>2017-08-02T07:01:12.000Z</time>
      </trkpt>
      <trkpt lat="43.37823475711048" lon="-5.923343785107136">
        <ele>151.6</ele>
        <time>2017-08-02T07:01:19.000Z</time>
      </trkpt>
      <trkpt lat="43.37820894084871" lon="-5.923433722928166">
        <ele>151.2</ele>
        <time>2017-08-02T07:01:25.000Z</time>
      </trkpt>
      <trkpt lat="43.37819159030914" lon="-5.923564480617642">
        <ele>149.6</ele>
        <time>2017-08-02T07:01:33.000Z</time>
      </trkpt>
      <trkpt lat="43.378196619451046" lon="-5.923637822270393">
        <ele>148.6</ele>
        <time>2017-08-02T07:01:39.000Z</time>
      </trkpt>
      <trkpt lat="43.378204833716154" lon="-5.923741003498435">
        <ele>146.8</ele>
        <time>2017-08-02T07:01:45.000Z</time>
      </trkpt>
      <trkpt lat="43.37820751592517" lon="-5.923803448677063">
        <ele>145.4</ele>
        <time>2017-08-02T07:01:48.000Z</time>
      </trkpt>
      <trkpt lat="43.378224866464734" lon="-5.923924399539828">
        <ele>143.2</ele>
        <time>2017-08-02T07:01:55.000Z</time>
      </trkpt>
      <trkpt lat="43.378275241702795" lon="-5.9240922052413225">
        <ele>140</ele>
        <time>2017-08-02T07:02:05.000Z</time>
      </trkpt>
      <trkpt lat="43.37832980789244" lon="-5.924210976809263">
        <ele>137.6</ele>
        <time>2017-08-02T07:02:13.000Z</time>
      </trkpt>
      <trkpt lat="43.37840189225972" lon="-5.92433150857687">
        <ele>135</ele>
        <time>2017-08-02T07:02:22.000Z</time>
      </trkpt>
      <trkpt lat="43.37844396941364" lon="-5.924404012039304">
        <ele>133.6</ele>
        <time>2017-08-02T07:02:28.000Z</time>
      </trkpt>
      <trkpt lat="43.3784856274724" lon="-5.924473749473691">
        <ele>133</ele>
        <time>2017-08-02T07:02:33.000Z</time>
      </trkpt>
      <trkpt lat="43.37852133437991" lon="-5.924630239605904">
        <ele>131.8</ele>
        <time>2017-08-02T07:02:42.000Z</time>
      </trkpt>
      <trkpt lat="43.37852141819894" lon="-5.924720009788871">
        <ele>131</ele>
        <time>2017-08-02T07:02:47.000Z</time>
      </trkpt>
      <trkpt lat="43.37853918783367" lon="-5.9248393680900335">
        <ele>130.2</ele>
        <time>2017-08-02T07:02:55.000Z</time>
      </trkpt>
      <trkpt lat="43.37858386337757" lon="-5.9249206725507975">
        <ele>129.2</ele>
        <time>2017-08-02T07:03:01.000Z</time>
      </trkpt>
      <trkpt lat="43.37864010594785" lon="-5.925028212368488">
        <ele>127.8</ele>
        <time>2017-08-02T07:03:08.000Z</time>
      </trkpt>
      <trkpt lat="43.37869911454618" lon="-5.925148744136095">
        <ele>126</ele>
        <time>2017-08-02T07:03:15.000Z</time>
      </trkpt>
      <trkpt lat="43.37876172736287" lon="-5.925276568159461">
        <ele>123.2</ele>
        <time>2017-08-02T07:03:23.000Z</time>
      </trkpt>
      <trkpt lat="43.378798021003604" lon="-5.925441272556782">
        <ele>119.8</ele>
        <time>2017-08-02T07:03:32.000Z</time>
      </trkpt>
      <trkpt lat="43.37881009094417" lon="-5.925576388835907">
        <ele>117.8</ele>
        <time>2017-08-02T07:03:39.000Z</time>
      </trkpt>
      <trkpt lat="43.37883733212948" lon="-5.925751151517034">
        <ele>115.6</ele>
        <time>2017-08-02T07:03:49.000Z</time>
      </trkpt>
      <trkpt lat="43.37892835959792" lon="-5.925853326916695">
        <ele>115.4</ele>
        <time>2017-08-02T07:03:58.000Z</time>
      </trkpt>
      <trkpt lat="43.37902986444533" lon="-5.925913592800498">
        <ele>114.6</ele>
        <time>2017-08-02T07:04:06.000Z</time>
      </trkpt>
      <trkpt lat="43.379131369292736" lon="-5.925988191738725">
        <ele>113.4</ele>
        <time>2017-08-02T07:04:15.000Z</time>
      </trkpt>
      <trkpt lat="43.37923706509173" lon="-5.926052816212177">
        <ele>113.6</ele>
        <time>2017-08-02T07:04:24.000Z</time>
      </trkpt>
      <trkpt lat="43.37924846448004" lon="-5.926060024648905">
        <ele>113.6</ele>
        <time>2017-08-02T07:04:25.000Z</time>
      </trkpt>
      <trkpt lat="43.379303785040975" lon="-5.926108052954078">
        <ele>113.4</ele>
        <time>2017-08-02T07:04:30.000Z</time>
      </trkpt>
      <trkpt lat="43.37933664210141" lon="-5.926143424585462">
        <ele>113</ele>
        <time>2017-08-02T07:04:33.000Z</time>
      </trkpt>
      <trkpt lat="43.379431273788214" lon="-5.926219196990132">
        <ele>112.6</ele>
        <time>2017-08-02T07:04:41.000Z</time>
      </trkpt>
      <trkpt lat="43.379461197182536" lon="-5.926313912495971">
        <ele>111.6</ele>
        <time>2017-08-02T07:04:47.000Z</time>
      </trkpt>
      <trkpt lat="43.379483073949814" lon="-5.926374010741711">
        <ele>111</ele>
        <time>2017-08-02T07:04:52.000Z</time>
      </trkpt>
      <trkpt lat="43.3795097284019" lon="-5.926385913044214">
        <ele>111.2</ele>
        <time>2017-08-02T07:04:54.000Z</time>
      </trkpt>
      <trkpt lat="43.3796027675271" lon="-5.926429163664579">
        <ele>111.8</ele>
        <time>2017-08-02T07:05:02.000Z</time>
      </trkpt>
      <trkpt lat="43.37972271256149" lon="-5.926496973261237">
        <ele>112.6</ele>
        <time>2017-08-02T07:05:12.000Z</time>
      </trkpt>
      <trkpt lat="43.3798395562917" lon="-5.9265819657593966">
        <ele>112.6</ele>
        <time>2017-08-02T07:05:22.000Z</time>
      </trkpt>
      <trkpt lat="43.37994013912976" lon="-5.926647763699293">
        <ele>112.6</ele>
        <time>2017-08-02T07:05:31.000Z</time>
      </trkpt>
      <trkpt lat="43.38004139252007" lon="-5.926725631579757">
        <ele>112.4</ele>
        <time>2017-08-02T07:05:40.000Z</time>
      </trkpt>
      <trkpt lat="43.3801210206002" lon="-5.926782879978418">
        <ele>112.6</ele>
        <time>2017-08-02T07:05:47.000Z</time>
      </trkpt>
      <trkpt lat="43.38013384491205" lon="-5.92680886387825">
        <ele>112.4</ele>
        <time>2017-08-02T07:05:49.000Z</time>
      </trkpt>
      <trkpt lat="43.38015387766063" lon="-5.9268444031476974">
        <ele>112</ele>
        <time>2017-08-02T07:05:52.000Z</time>
      </trkpt>
      <trkpt lat="43.38016200810671" lon="-5.926856808364391">
        <ele>111.8</ele>
        <time>2017-08-02T07:05:53.000Z</time>
      </trkpt>
      <trkpt lat="43.380186567083" lon="-5.926885055378079">
        <ele>111.8</ele>
        <time>2017-08-02T07:05:56.000Z</time>
      </trkpt>
      <trkpt lat="43.380188243463635" lon="-5.926889246329665">
        <ele>111.6</ele>
        <time>2017-08-02T07:05:57.000Z</time>
      </trkpt>
      <trkpt lat="43.38019486516714" lon="-5.926897125318646">
        <ele>111.6</ele>
        <time>2017-08-02T07:05:58.000Z</time>
      </trkpt>
      <trkpt lat="43.38023141026497" lon="-5.92693786136806">
        <ele>111.6</ele>
        <time>2017-08-02T07:06:02.000Z</time>
      </trkpt>
      <trkpt lat="43.380300560966134" lon="-5.927034001797438">
        <ele>111.4</ele>
        <time>2017-08-02T07:06:10.000Z</time>
      </trkpt>
      <trkpt lat="43.38035026565194" lon="-5.927104996517301">
        <ele>111.6</ele>
        <time>2017-08-02T07:06:17.000Z</time>
      </trkpt>
      <trkpt lat="43.38040156289935" lon="-5.927194934338331">
        <ele>111</ele>
        <time>2017-08-02T07:06:26.000Z</time>
      </trkpt>
      <trkpt lat="43.38041698560119" lon="-5.92722125351429">
        <ele>111.2</ele>
        <time>2017-08-02T07:06:31.000Z</time>
      </trkpt>
      <trkpt lat="43.380430564284325" lon="-5.927242124453187">
        <ele>111.4</ele>
        <time>2017-08-02T07:06:50.000Z</time>
      </trkpt>
      <trkpt lat="43.3804458193481" lon="-5.927291577681899">
        <ele>111.4</ele>
        <time>2017-08-02T07:07:12.000Z</time>
      </trkpt>
      <trkpt lat="43.380479514598846" lon="-5.927352849394083">
        <ele>111.6</ele>
        <time>2017-08-02T07:07:20.000Z</time>
      </trkpt>
      <trkpt lat="43.3804941829294" lon="-5.927396519109607">
        <ele>111.8</ele>
        <time>2017-08-02T07:07:30.000Z</time>
      </trkpt>
      <trkpt lat="43.38051874190569" lon="-5.927450330927968">
        <ele>112.2</ele>
        <time>2017-08-02T07:07:36.000Z</time>
      </trkpt>
      <trkpt lat="43.38052108883858" lon="-5.92746164649725">
        <ele>112</ele>
        <time>2017-08-02T07:07:37.000Z</time>
      </trkpt>
      <trkpt lat="43.380544977262616" lon="-5.9275744669139385">
        <ele>111.8</ele>
        <time>2017-08-02T07:07:44.000Z</time>
      </trkpt>
      <trkpt lat="43.38057984597981" lon="-5.927722994238138">
        <ele>111.4</ele>
        <time>2017-08-02T07:07:53.000Z</time>
      </trkpt>
      <trkpt lat="43.38060415349901" lon="-5.927881747484207">
        <ele>110.8</ele>
        <time>2017-08-02T07:08:02.000Z</time>
      </trkpt>
      <trkpt lat="43.380633322522044" lon="-5.92799624428153">
        <ele>111.4</ele>
        <time>2017-08-02T07:08:09.000Z</time>
      </trkpt>
      <trkpt lat="43.38068244047463" lon="-5.928155332803726">
        <ele>111.4</ele>
        <time>2017-08-02T07:08:19.000Z</time>
      </trkpt>
      <trkpt lat="43.38073859922588" lon="-5.928266476839781">
        <ele>111.6</ele>
        <time>2017-08-02T07:08:27.000Z</time>
      </trkpt>
      <trkpt lat="43.38081914931536" lon="-5.92838273383677">
        <ele>111.8</ele>
        <time>2017-08-02T07:08:36.000Z</time>
      </trkpt>
      <trkpt lat="43.38089173659682" lon="-5.9284665528684855">
        <ele>111.8</ele>
        <time>2017-08-02T07:08:44.000Z</time>
      </trkpt>
      <trkpt lat="43.380994498729706" lon="-5.928553305566311">
        <ele>112.4</ele>
        <time>2017-08-02T07:08:53.000Z</time>
      </trkpt>
      <trkpt lat="43.381087286397815" lon="-5.92863192781806">
        <ele>112.8</ele>
        <time>2017-08-02T07:09:02.000Z</time>
      </trkpt>
      <trkpt lat="43.381111677736044" lon="-5.928652714937925">
        <ele>112.6</ele>
        <time>2017-08-02T07:09:06.000Z</time>
      </trkpt>
      <trkpt lat="43.3811950776726" lon="-5.928718093782663">
        <ele>112.6</ele>
        <time>2017-08-02T07:09:13.000Z</time>
      </trkpt>
      <trkpt lat="43.381300354376435" lon="-5.928837871178985">
        <ele>112.6</ele>
        <time>2017-08-02T07:09:23.000Z</time>
      </trkpt>
      <trkpt lat="43.381374618038535" lon="-5.928938370198011">
        <ele>112.4</ele>
        <time>2017-08-02T07:09:31.000Z</time>
      </trkpt>
      <trkpt lat="43.381384424865246" lon="-5.9289689641445875">
        <ele>112.2</ele>
        <time>2017-08-02T07:09:33.000Z</time>
      </trkpt>
      <trkpt lat="43.38139339350164" lon="-5.929040629416704">
        <ele>112.2</ele>
        <time>2017-08-02T07:09:37.000Z</time>
      </trkpt>
      <trkpt lat="43.38141459971666" lon="-5.929162334650755">
        <ele>112.8</ele>
        <time>2017-08-02T07:09:44.000Z</time>
      </trkpt>
      <trkpt lat="43.3814160246402" lon="-5.929281190037727">
        <ele>113.2</ele>
        <time>2017-08-02T07:09:51.000Z</time>
      </trkpt>
      <trkpt lat="43.381418036296964" lon="-5.929357968270779">
        <ele>113.4</ele>
        <time>2017-08-02T07:09:56.000Z</time>
      </trkpt>
      <trkpt lat="43.38141242042184" lon="-5.9293904062360525">
        <ele>113.6</ele>
        <time>2017-08-02T07:09:58.000Z</time>
      </trkpt>
      <trkpt lat="43.38139473460615" lon="-5.92952024191618">
        <ele>114</ele>
        <time>2017-08-02T07:10:06.000Z</time>
      </trkpt>
      <trkpt lat="43.38136070407927" lon="-5.9296454675495625">
        <ele>114</ele>
        <time>2017-08-02T07:10:14.000Z</time>
      </trkpt>
      <trkpt lat="43.38132030330598" lon="-5.929783182218671">
        <ele>114</ele>
        <time>2017-08-02T07:10:23.000Z</time>
      </trkpt>
      <trkpt lat="43.38129733689129" lon="-5.929873287677765">
        <ele>114</ele>
        <time>2017-08-02T07:10:30.000Z</time>
      </trkpt>
      <trkpt lat="43.38128166273236" lon="-5.930010164156556">
        <ele>114</ele>
        <time>2017-08-02T07:10:38.000Z</time>
      </trkpt>
      <trkpt lat="43.38127210736275" lon="-5.930157769471407">
        <ele>114</ele>
        <time>2017-08-02T07:10:46.000Z</time>
      </trkpt>
      <trkpt lat="43.38128442876041" lon="-5.930337980389595">
        <ele>113.4</ele>
        <time>2017-08-02T07:10:56.000Z</time>
      </trkpt>
      <trkpt lat="43.38132843375206" lon="-5.930560100823641">
        <ele>112.4</ele>
        <time>2017-08-02T07:11:09.000Z</time>
      </trkpt>
      <trkpt lat="43.38138157501817" lon="-5.930698402225971">
        <ele>111.6</ele>
        <time>2017-08-02T07:11:18.000Z</time>
      </trkpt>
      <trkpt lat="43.381389705464244" lon="-5.930713322013617">
        <ele>111.4</ele>
        <time>2017-08-02T07:11:19.000Z</time>
      </trkpt>
      <trkpt lat="43.38147159665823" lon="-5.930862184613943">
        <ele>109.8</ele>
        <time>2017-08-02T07:11:29.000Z</time>
      </trkpt>
      <trkpt lat="43.38156346231699" lon="-5.9309689700603485">
        <ele>108.4</ele>
        <time>2017-08-02T07:11:38.000Z</time>
      </trkpt>
      <trkpt lat="43.381661446765065" lon="-5.931061254814267">
        <ele>107.4</ele>
        <time>2017-08-02T07:11:47.000Z</time>
      </trkpt>
      <trkpt lat="43.38173101656139" lon="-5.931102829053998">
        <ele>107.2</ele>
        <time>2017-08-02T07:11:55.000Z</time>
      </trkpt>
      <trkpt lat="43.38171869516373" lon="-5.931093022227287">
        <ele>107.2</ele>
        <time>2017-08-02T07:12:05.000Z</time>
      </trkpt>
      <trkpt lat="43.381745936349034" lon="-5.931087322533131">
        <ele>107.4</ele>
        <time>2017-08-02T07:13:12.000Z</time>
      </trkpt>
      <trkpt lat="43.38177032768726" lon="-5.931079862639308">
        <ele>107.6</ele>
        <time>2017-08-02T07:13:14.000Z</time>
      </trkpt>
      <trkpt lat="43.38180863298476" lon="-5.931075755506754">
        <ele>107.6</ele>
        <time>2017-08-02T07:13:17.000Z</time>
      </trkpt>
      <trkpt lat="43.3818460162729" lon="-5.931082377210259">
        <ele>107.6</ele>
        <time>2017-08-02T07:13:20.000Z</time>
      </trkpt>
      <trkpt lat="43.38197635486722" lon="-5.9311162400990725">
        <ele>107.4</ele>
        <time>2017-08-02T07:13:30.000Z</time>
      </trkpt>
      <trkpt lat="43.38201826438308" lon="-5.931113725528121">
        <ele>107.6</ele>
        <time>2017-08-02T07:13:35.000Z</time>
      </trkpt>
      <trkpt lat="43.38208422996104" lon="-5.931104002520442">
        <ele>107.8</ele>
        <time>2017-08-02T07:13:42.000Z</time>
      </trkpt>
      <trkpt lat="43.38212303817272" lon="-5.931095704436302">
        <ele>108</ele>
        <time>2017-08-02T07:13:48.000Z</time>
      </trkpt>
      <trkpt lat="43.382126055657864" lon="-5.93109805136919">
        <ele>108</ele>
        <time>2017-08-02T07:13:49.000Z</time>
      </trkpt>
      <trkpt lat="43.382138293236494" lon="-5.931098973378539">
        <ele>107.8</ele>
        <time>2017-08-02T07:13:55.000Z</time>
      </trkpt>
      <trkpt lat="43.38219118304551" lon="-5.931090256199241">
        <ele>108</ele>
        <time>2017-08-02T07:14:00.000Z</time>
      </trkpt>
      <trkpt lat="43.382286820560694" lon="-5.931066619232297">
        <ele>107.4</ele>
        <time>2017-08-02T07:14:08.000Z</time>
      </trkpt>
      <trkpt lat="43.38235907256603" lon="-5.9310337621718645">
        <ele>107</ele>
        <time>2017-08-02T07:14:14.000Z</time>
      </trkpt>
      <trkpt lat="43.38247784413397" lon="-5.930966874584556">
        <ele>106.6</ele>
        <time>2017-08-02T07:14:24.000Z</time>
      </trkpt>
      <trkpt lat="43.382614217698574" lon="-5.930883223190904">
        <ele>106.4</ele>
        <time>2017-08-02T07:14:35.000Z</time>
      </trkpt>
      <trkpt lat="43.38271136395633" lon="-5.9308473486453295">
        <ele>105.8</ele>
        <time>2017-08-02T07:14:43.000Z</time>
      </trkpt>
      <trkpt lat="43.38282024487853" lon="-5.930897640064359">
        <ele>103</ele>
        <time>2017-08-02T07:14:52.000Z</time>
      </trkpt>
      <trkpt lat="43.382872296497226" lon="-5.930985566228628">
        <ele>101.2</ele>
        <time>2017-08-02T07:14:59.000Z</time>
      </trkpt>
      <trkpt lat="43.38289828039706" lon="-5.93105161562562">
        <ele>100.2</ele>
        <time>2017-08-02T07:15:05.000Z</time>
      </trkpt>
      <trkpt lat="43.38290917687118" lon="-5.9310755878686905">
        <ele>100</ele>
        <time>2017-08-02T07:15:10.000Z</time>
      </trkpt>
      <trkpt lat="43.38294287212193" lon="-5.931135267019272">
        <ele>99.6</ele>
        <time>2017-08-02T07:15:16.000Z</time>
      </trkpt>
      <trkpt lat="43.38300406001508" lon="-5.931254792958498">
        <ele>99</ele>
        <time>2017-08-02T07:15:25.000Z</time>
      </trkpt>
      <trkpt lat="43.3830601349473" lon="-5.931357219815254">
        <ele>99.8</ele>
        <time>2017-08-02T07:15:33.000Z</time>
      </trkpt>
      <trkpt lat="43.38310112245381" lon="-5.931471129879355">
        <ele>100.2</ele>
        <time>2017-08-02T07:15:40.000Z</time>
      </trkpt>
      <trkpt lat="43.38315359316766" lon="-5.931626111268997">
        <ele>100.8</ele>
        <time>2017-08-02T07:15:49.000Z</time>
      </trkpt>
      <trkpt lat="43.38322668336332" lon="-5.931748067960143">
        <ele>101.6</ele>
        <time>2017-08-02T07:15:58.000Z</time>
      </trkpt>
      <trkpt lat="43.38331427425146" lon="-5.931843034923077">
        <ele>102.6</ele>
        <time>2017-08-02T07:16:07.000Z</time>
      </trkpt>
      <trkpt lat="43.38338074274361" lon="-5.93191210180521">
        <ele>103.8</ele>
        <time>2017-08-02T07:16:14.000Z</time>
      </trkpt>
      <trkpt lat="43.38343480601907" lon="-5.931979911401868">
        <ele>104.6</ele>
        <time>2017-08-02T07:16:21.000Z</time>
      </trkpt>
      <trkpt lat="43.38349255733192" lon="-5.932046379894018">
        <ele>105.4</ele>
        <time>2017-08-02T07:16:27.000Z</time>
      </trkpt>
      <trkpt lat="43.38354578241706" lon="-5.932113016024232">
        <ele>106</ele>
        <time>2017-08-02T07:16:33.000Z</time>
      </trkpt>
      <trkpt lat="43.38362390175462" lon="-5.9322206396609545">
        <ele>107</ele>
        <time>2017-08-02T07:16:42.000Z</time>
      </trkpt>
      <trkpt lat="43.38365416042507" lon="-5.932298842817545">
        <ele>107.6</ele>
        <time>2017-08-02T07:16:47.000Z</time>
      </trkpt>
      <trkpt lat="43.38370998390019" lon="-5.932383583858609">
        <ele>108.2</ele>
        <time>2017-08-02T07:16:54.000Z</time>
      </trkpt>
      <trkpt lat="43.383760526776314" lon="-5.932488776743412">
        <ele>109.4</ele>
        <time>2017-08-02T07:17:02.000Z</time>
      </trkpt>
      <trkpt lat="43.38382381014526" lon="-5.93261182308197">
        <ele>110.8</ele>
        <time>2017-08-02T07:17:11.000Z</time>
      </trkpt>
      <trkpt lat="43.383875861763954" lon="-5.932710897177458">
        <ele>112.2</ele>
        <time>2017-08-02T07:17:19.000Z</time>
      </trkpt>
      <trkpt lat="43.38393629528582" lon="-5.932830171659589">
        <ele>113.8</ele>
        <time>2017-08-02T07:17:28.000Z</time>
      </trkpt>
      <trkpt lat="43.38398717343807" lon="-5.932915499433875">
        <ele>114.6</ele>
        <time>2017-08-02T07:17:35.000Z</time>
      </trkpt>
      <trkpt lat="43.384005362167954" lon="-5.932943830266595">
        <ele>114.8</ele>
        <time>2017-08-02T07:17:37.000Z</time>
      </trkpt>
      <trkpt lat="43.384029753506184" lon="-5.933004096150398">
        <ele>115.4</ele>
        <time>2017-08-02T07:17:41.000Z</time>
      </trkpt>
      <trkpt lat="43.38403981178999" lon="-5.933014992624521">
        <ele>115.4</ele>
        <time>2017-08-02T07:17:42.000Z</time>
      </trkpt>
      <trkpt lat="43.38406277820468" lon="-5.933071319013834">
        <ele>115.6</ele>
        <time>2017-08-02T07:17:46.000Z</time>
      </trkpt>
      <trkpt lat="43.38413251563907" lon="-5.933183301240206">
        <ele>116</ele>
        <time>2017-08-02T07:17:55.000Z</time>
      </trkpt>
      <trkpt lat="43.384199319407344" lon="-5.933304084464908">
        <ele>116.6</ele>
        <time>2017-08-02T07:18:04.000Z</time>
      </trkpt>
      <trkpt lat="43.384255059063435" lon="-5.93341464176774">
        <ele>117.2</ele>
        <time>2017-08-02T07:18:12.000Z</time>
      </trkpt>
      <trkpt lat="43.384302919730544" lon="-5.933506423607469">
        <ele>117.8</ele>
        <time>2017-08-02T07:18:19.000Z</time>
      </trkpt>
      <trkpt lat="43.384381122887135" lon="-5.933646904304624">
        <ele>118.6</ele>
        <time>2017-08-02T07:18:29.000Z</time>
      </trkpt>
      <trkpt lat="43.38446117006242" lon="-5.933787049725652">
        <ele>119.4</ele>
        <time>2017-08-02T07:18:39.000Z</time>
      </trkpt>
      <trkpt lat="43.38453585281968" lon="-5.933903390541673">
        <ele>119.8</ele>
        <time>2017-08-02T07:18:48.000Z</time>
      </trkpt>
      <trkpt lat="43.38456368073821" lon="-5.933965919539332">
        <ele>120</ele>
        <time>2017-08-02T07:18:53.000Z</time>
      </trkpt>
      <trkpt lat="43.38458471931517" lon="-5.934007158502936">
        <ele>120.2</ele>
        <time>2017-08-02T07:18:56.000Z</time>
      </trkpt>
      <trkpt lat="43.384639620780945" lon="-5.934111010283232">
        <ele>120.8</ele>
        <time>2017-08-02T07:19:03.000Z</time>
      </trkpt>
      <trkpt lat="43.38470499962568" lon="-5.934233805164695">
        <ele>122</ele>
        <time>2017-08-02T07:19:12.000Z</time>
      </trkpt>
      <trkpt lat="43.384773479774594" lon="-5.934325670823455">
        <ele>122.2</ele>
        <time>2017-08-02T07:19:20.000Z</time>
      </trkpt>
      <trkpt lat="43.38482595048845" lon="-5.93441778793931">
        <ele>122.4</ele>
        <time>2017-08-02T07:19:27.000Z</time>
      </trkpt>
      <trkpt lat="43.38489728048444" lon="-5.9345451928675175">
        <ele>123.4</ele>
        <time>2017-08-02T07:19:36.000Z</time>
      </trkpt>
      <trkpt lat="43.38492686860263" lon="-5.934605458751321">
        <ele>123.8</ele>
        <time>2017-08-02T07:19:40.000Z</time>
      </trkpt>
      <trkpt lat="43.38494195602834" lon="-5.9346370585262775">
        <ele>123.8</ele>
        <time>2017-08-02T07:19:42.000Z</time>
      </trkpt>
      <trkpt lat="43.3850047364831" lon="-5.93475004658103">
        <ele>124.4</ele>
        <time>2017-08-02T07:19:50.000Z</time>
      </trkpt>
      <trkpt lat="43.38505486026406" lon="-5.934876780956984">
        <ele>125</ele>
        <time>2017-08-02T07:19:58.000Z</time>
      </trkpt>
      <trkpt lat="43.38506441563368" lon="-5.934905530884862">
        <ele>125.2</ele>
        <time>2017-08-02T07:20:00.000Z</time>
      </trkpt>
      <trkpt lat="43.38507137261331" lon="-5.9349757712334394">
        <ele>125.6</ele>
        <time>2017-08-02T07:20:04.000Z</time>
      </trkpt>
      <trkpt lat="43.38510892353952" lon="-5.935061099007726">
        <ele>126</ele>
        <time>2017-08-02T07:20:10.000Z</time>
      </trkpt>
      <trkpt lat="43.385116970166564" lon="-5.9350755997002125">
        <ele>126</ele>
        <time>2017-08-02T07:20:11.000Z</time>
      </trkpt>
      <trkpt lat="43.38517983444035" lon="-5.935192862525582">
        <ele>127</ele>
        <time>2017-08-02T07:20:20.000Z</time>
      </trkpt>
      <trkpt lat="43.38521202094853" lon="-5.935257822275162">
        <ele>127</ele>
        <time>2017-08-02T07:20:25.000Z</time>
      </trkpt>
      <trkpt lat="43.38522526435554" lon="-5.935282213613391">
        <ele>127</ele>
        <time>2017-08-02T07:20:27.000Z</time>
      </trkpt>
      <trkpt lat="43.38527413085103" lon="-5.935370642691851">
        <ele>127.2</ele>
        <time>2017-08-02T07:20:34.000Z</time>
      </trkpt>
      <trkpt lat="43.38528242893517" lon="-5.935384891927242">
        <ele>127.2</ele>
        <time>2017-08-02T07:20:35.000Z</time>
      </trkpt>
      <trkpt lat="43.38533355854452" lon="-5.935462675988674">
        <ele>128</ele>
        <time>2017-08-02T07:20:40.000Z</time>
      </trkpt>
      <trkpt lat="43.38540396653116" lon="-5.93558756634593">
        <ele>128.8</ele>
        <time>2017-08-02T07:20:48.000Z</time>
      </trkpt>
      <trkpt lat="43.38547169230878" lon="-5.9357005544006824">
        <ele>128.2</ele>
        <time>2017-08-02T07:20:56.000Z</time>
      </trkpt>
      <trkpt lat="43.38550035841763" lon="-5.935742715373635">
        <ele>128.4</ele>
        <time>2017-08-02T07:21:00.000Z</time>
      </trkpt>
      <trkpt lat="43.385526509955525" lon="-5.935783619061112">
        <ele>128.4</ele>
        <time>2017-08-02T07:21:03.000Z</time>
      </trkpt>
      <trkpt lat="43.38557705283165" lon="-5.935864923521876">
        <ele>128.6</ele>
        <time>2017-08-02T07:21:10.000Z</time>
      </trkpt>
      <trkpt lat="43.38563564233482" lon="-5.935959974303842">
        <ele>128.6</ele>
        <time>2017-08-02T07:21:17.000Z</time>
      </trkpt>
      <trkpt lat="43.385700937360525" lon="-5.936065586283803">
        <ele>129.6</ele>
        <time>2017-08-02T07:21:25.000Z</time>
      </trkpt>
      <trkpt lat="43.385775201022625" lon="-5.936185112223029">
        <ele>130.6</ele>
        <time>2017-08-02T07:21:35.000Z</time>
      </trkpt>
      <trkpt lat="43.38582574389875" lon="-5.936272367835045">
        <ele>131.8</ele>
        <time>2017-08-02T07:21:42.000Z</time>
      </trkpt>
      <trkpt lat="43.385900259017944" lon="-5.936386696994305">
        <ele>134.2</ele>
        <time>2017-08-02T07:21:51.000Z</time>
      </trkpt>
      <trkpt lat="43.38592532090843" lon="-5.936415866017342">
        <ele>134.6</ele>
        <time>2017-08-02T07:21:54.000Z</time>
      </trkpt>
      <trkpt lat="43.385952059179544" lon="-5.936454087495804">
        <ele>135.2</ele>
        <time>2017-08-02T07:21:57.000Z</time>
      </trkpt>
      <trkpt lat="43.3859596028924" lon="-5.936463810503483">
        <ele>135.4</ele>
        <time>2017-08-02T07:21:58.000Z</time>
      </trkpt>
      <trkpt lat="43.38601374998689" lon="-5.936555927619338">
        <ele>137.2</ele>
        <time>2017-08-02T07:22:05.000Z</time>
      </trkpt>
      <trkpt lat="43.386068902909756" lon="-5.936641003936529">
        <ele>138.8</ele>
        <time>2017-08-02T07:22:12.000Z</time>
      </trkpt>
      <trkpt lat="43.38613411411643" lon="-5.936758182942867">
        <ele>141.4</ele>
        <time>2017-08-02T07:22:21.000Z</time>
      </trkpt>
      <trkpt lat="43.38618976995349" lon="-5.936880391091108">
        <ele>144</ele>
        <time>2017-08-02T07:22:30.000Z</time>
      </trkpt>
      <trkpt lat="43.386233523488045" lon="-5.936978291720152">
        <ele>145.8</ele>
        <time>2017-08-02T07:22:36.000Z</time>
      </trkpt>
      <trkpt lat="43.38624165393412" lon="-5.936986422166228">
        <ele>146</ele>
        <time>2017-08-02T07:22:37.000Z</time>
      </trkpt>
      <trkpt lat="43.386270739138126" lon="-5.93703537248075">
        <ele>146.8</ele>
        <time>2017-08-02T07:22:41.000Z</time>
      </trkpt>
      <trkpt lat="43.38627979159355" lon="-5.937049956992269">
        <ele>147</ele>
        <time>2017-08-02T07:22:42.000Z</time>
      </trkpt>
      <trkpt lat="43.38632958009839" lon="-5.937155904248357">
        <ele>148.2</ele>
        <time>2017-08-02T07:22:49.000Z</time>
      </trkpt>
      <trkpt lat="43.38637651875615" lon="-5.937267886474729">
        <ele>148.8</ele>
        <time>2017-08-02T07:22:57.000Z</time>
      </trkpt>
      <trkpt lat="43.386429408565164" lon="-5.937375342473388">
        <ele>149.2</ele>
        <time>2017-08-02T07:23:05.000Z</time>
      </trkpt>
      <trkpt lat="43.386461678892374" lon="-5.937437284737825">
        <ele>149.4</ele>
        <time>2017-08-02T07:23:10.000Z</time>
      </trkpt>
      <trkpt lat="43.38647752068937" lon="-5.937455892562866">
        <ele>149.4</ele>
        <time>2017-08-02T07:23:12.000Z</time>
      </trkpt>
      <trkpt lat="43.38652219623327" lon="-5.937454551458359">
        <ele>148.6</ele>
        <time>2017-08-02T07:23:16.000Z</time>
      </trkpt>
      <trkpt lat="43.38654063642025" lon="-5.937458239495754">
        <ele>148.2</ele>
        <time>2017-08-02T07:23:18.000Z</time>
      </trkpt>
      <trkpt lat="43.38661976158619" lon="-5.937492102384567">
        <ele>147</ele>
        <time>2017-08-02T07:23:26.000Z</time>
      </trkpt>
      <trkpt lat="43.3866604976356" lon="-5.937544824555516">
        <ele>146.6</ele>
        <time>2017-08-02T07:23:31.000Z</time>
      </trkpt>
      <trkpt lat="43.386668460443616" lon="-5.9375497698783875">
        <ele>146.4</ele>
        <time>2017-08-02T07:23:32.000Z</time>
      </trkpt>
      <trkpt lat="43.38673559948802" lon="-5.937596457079053">
        <ele>145.8</ele>
        <time>2017-08-02T07:23:39.000Z</time>
      </trkpt>
      <trkpt lat="43.38681371882558" lon="-5.937655717134476">
        <ele>145.4</ele>
        <time>2017-08-02T07:23:46.000Z</time>
      </trkpt>
      <trkpt lat="43.386821346357465" lon="-5.937672648578882">
        <ele>145.6</ele>
        <time>2017-08-02T07:23:47.000Z</time>
      </trkpt>
      <trkpt lat="43.38685286231339" lon="-5.937690082937479">
        <ele>145.4</ele>
        <time>2017-08-02T07:23:50.000Z</time>
      </trkpt>
      <trkpt lat="43.38690608739853" lon="-5.937756886705756">
        <ele>145.6</ele>
        <time>2017-08-02T07:23:56.000Z</time>
      </trkpt>
      <trkpt lat="43.386911200359464" lon="-5.937763676047325">
        <ele>145.6</ele>
        <time>2017-08-02T07:23:57.000Z</time>
      </trkpt>
      <trkpt lat="43.38697406463325" lon="-5.937816398218274">
        <ele>144.6</ele>
        <time>2017-08-02T07:24:03.000Z</time>
      </trkpt>
      <trkpt lat="43.38700348511338" lon="-5.937916981056333">
        <ele>144.8</ele>
        <time>2017-08-02T07:24:10.000Z</time>
      </trkpt>
      <trkpt lat="43.387011447921395" lon="-5.937946317717433">
        <ele>144.8</ele>
        <time>2017-08-02T07:24:12.000Z</time>
      </trkpt>
      <trkpt lat="43.38702938519418" lon="-5.938000716269016">
        <ele>144.6</ele>
        <time>2017-08-02T07:24:16.000Z</time>
      </trkpt>
      <trkpt lat="43.38704623281956" lon="-5.9380607306957245">
        <ele>144.4</ele>
        <time>2017-08-02T07:24:21.000Z</time>
      </trkpt>
      <trkpt lat="43.38704975321889" lon="-5.938082942739129">
        <ele>144.6</ele>
        <time>2017-08-02T07:24:32.000Z</time>
      </trkpt>
      <trkpt lat="43.38705570437014" lon="-5.938113620504737">
        <ele>144.6</ele>
        <time>2017-08-02T07:24:39.000Z</time>
      </trkpt>
      <trkpt lat="43.387079341337085" lon="-5.938220573589206">
        <ele>144.6</ele>
        <time>2017-08-02T07:24:47.000Z</time>
      </trkpt>
      <trkpt lat="43.387122843414545" lon="-5.938304644078016">
        <ele>143.2</ele>
        <time>2017-08-02T07:24:54.000Z</time>
      </trkpt>
      <trkpt lat="43.38715578429401" lon="-5.938369352370501">
        <ele>142.2</ele>
        <time>2017-08-02T07:25:01.000Z</time>
      </trkpt>
      <trkpt lat="43.38717631995678" lon="-5.93841377645731">
        <ele>141.4</ele>
        <time>2017-08-02T07:25:06.000Z</time>
      </trkpt>
      <trkpt lat="43.38718763552606" lon="-5.938439844176173">
        <ele>141.2</ele>
        <time>2017-08-02T07:25:08.000Z</time>
      </trkpt>
      <trkpt lat="43.38719392195344" lon="-5.9384317975491285">
        <ele>140.8</ele>
        <time>2017-08-02T07:25:14.000Z</time>
      </trkpt>
      <trkpt lat="43.38719191029668" lon="-5.938413357362151">
        <ele>141</ele>
        <time>2017-08-02T07:25:19.000Z</time>
      </trkpt>
      <trkpt lat="43.38721487671137" lon="-5.938475467264652">
        <ele>140</ele>
        <time>2017-08-02T07:25:37.000Z</time>
      </trkpt>
      <trkpt lat="43.38722996413708" lon="-5.938521986827254">
        <ele>139.2</ele>
        <time>2017-08-02T07:25:43.000Z</time>
      </trkpt>
      <trkpt lat="43.387230802327394" lon="-5.938545875251293">
        <ele>139</ele>
        <time>2017-08-02T07:25:53.000Z</time>
      </trkpt>
      <trkpt lat="43.38724178262055" lon="-5.938606224954128">
        <ele>138.2</ele>
        <time>2017-08-02T07:26:06.000Z</time>
      </trkpt>
      <trkpt lat="43.387261480093" lon="-5.938670430332422">
        <ele>137.2</ele>
        <time>2017-08-02T07:26:12.000Z</time>
      </trkpt>
      <trkpt lat="43.38727514259517" lon="-5.938747208565474">
        <ele>137.2</ele>
        <time>2017-08-02T07:26:19.000Z</time>
      </trkpt>
      <trkpt lat="43.38728981092572" lon="-5.938816023990512">
        <ele>137.4</ele>
        <time>2017-08-02T07:26:26.000Z</time>
      </trkpt>
      <trkpt lat="43.38730372488499" lon="-5.9388532396405935">
        <ele>137.4</ele>
        <time>2017-08-02T07:26:30.000Z</time>
      </trkpt>
      <trkpt lat="43.38732258416712" lon="-5.938902357593179">
        <ele>137.2</ele>
        <time>2017-08-02T07:26:34.000Z</time>
      </trkpt>
      <trkpt lat="43.38733281008899" lon="-5.938921635970473">
        <ele>137.2</ele>
        <time>2017-08-02T07:26:36.000Z</time>
      </trkpt>
      <trkpt lat="43.38734638877213" lon="-5.938940830528736">
        <ele>136.8</ele>
        <time>2017-08-02T07:26:38.000Z</time>
      </trkpt>
      <trkpt lat="43.387355944141746" lon="-5.938976285979152">
        <ele>136.8</ele>
        <time>2017-08-02T07:26:41.000Z</time>
      </trkpt>
      <trkpt lat="43.38737865909934" lon="-5.939043173566461">
        <ele>136.8</ele>
        <time>2017-08-02T07:26:46.000Z</time>
      </trkpt>
      <trkpt lat="43.38738343678415" lon="-5.939057422801852">
        <ele>136.8</ele>
        <time>2017-08-02T07:26:47.000Z</time>
      </trkpt>
      <trkpt lat="43.387427274137735" lon="-5.939120287075639">
        <ele>136.8</ele>
        <time>2017-08-02T07:26:52.000Z</time>
      </trkpt>
      <trkpt lat="43.38746381923556" lon="-5.9391020983457565">
        <ele>135.8</ele>
        <time>2017-08-02T07:26:57.000Z</time>
      </trkpt>
      <trkpt lat="43.38748670183122" lon="-5.9390779584646225">
        <ele>135</ele>
        <time>2017-08-02T07:27:00.000Z</time>
      </trkpt>
      <trkpt lat="43.38750128634274" lon="-5.939055327326059">
        <ele>134.4</ele>
        <time>2017-08-02T07:27:02.000Z</time>
      </trkpt>
      <trkpt lat="43.38750656694174" lon="-5.939045688137412">
        <ele>134.2</ele>
        <time>2017-08-02T07:27:03.000Z</time>
      </trkpt>
      <trkpt lat="43.387568425387144" lon="-5.938990283757448">
        <ele>132.8</ele>
        <time>2017-08-02T07:27:10.000Z</time>
      </trkpt>
      <trkpt lat="43.387636402621865" lon="-5.938963713124394">
        <ele>131.6</ele>
        <time>2017-08-02T07:27:16.000Z</time>
      </trkpt>
      <trkpt lat="43.38767278008163" lon="-5.938970670104027">
        <ele>131.4</ele>
        <time>2017-08-02T07:27:19.000Z</time>
      </trkpt>
      <trkpt lat="43.38770790025592" lon="-5.938984835520387">
        <ele>131.2</ele>
        <time>2017-08-02T07:27:22.000Z</time>
      </trkpt>
      <trkpt lat="43.387759951874614" lon="-5.939039820805192">
        <ele>131.4</ele>
        <time>2017-08-02T07:27:29.000Z</time>
      </trkpt>
      <trkpt lat="43.38782725855708" lon="-5.939111737534404">
        <ele>131.8</ele>
        <time>2017-08-02T07:27:37.000Z</time>
      </trkpt>
      <trkpt lat="43.38786715641618" lon="-5.939156832173467">
        <ele>132.2</ele>
        <time>2017-08-02T07:27:42.000Z</time>
      </trkpt>
      <trkpt lat="43.38787704706192" lon="-5.939160687848926">
        <ele>132</ele>
        <time>2017-08-02T07:27:43.000Z</time>
      </trkpt>
      <trkpt lat="43.38793572038412" lon="-5.939218858256936">
        <ele>132.6</ele>
        <time>2017-08-02T07:27:50.000Z</time>
      </trkpt>
      <trkpt lat="43.38802255690098" lon="-5.939275603741407">
        <ele>132.6</ele>
        <time>2017-08-02T07:27:58.000Z</time>
      </trkpt>
      <trkpt lat="43.3880300167948" lon="-5.9392826445400715">
        <ele>132.6</ele>
        <time>2017-08-02T07:27:59.000Z</time>
      </trkpt>
      <trkpt lat="43.38807779364288" lon="-5.939303683117032">
        <ele>132</ele>
        <time>2017-08-02T07:28:03.000Z</time>
      </trkpt>
      <trkpt lat="43.38808567263186" lon="-5.939302258193493">
        <ele>131.6</ele>
        <time>2017-08-02T07:28:04.000Z</time>
      </trkpt>
      <trkpt lat="43.38816345669329" lon="-5.939309382811189">
        <ele>129.4</ele>
        <time>2017-08-02T07:28:10.000Z</time>
      </trkpt>
      <trkpt lat="43.38824987411499" lon="-5.9393061976879835">
        <ele>126.6</ele>
        <time>2017-08-02T07:28:16.000Z</time>
      </trkpt>
      <trkpt lat="43.38835380971432" lon="-5.939300917088985">
        <ele>123.6</ele>
        <time>2017-08-02T07:28:23.000Z</time>
      </trkpt>
      <trkpt lat="43.388440227136016" lon="-5.939301252365112">
        <ele>121.8</ele>
        <time>2017-08-02T07:28:29.000Z</time>
      </trkpt>
      <trkpt lat="43.38852781802416" lon="-5.939299240708351">
        <ele>119.8</ele>
        <time>2017-08-02T07:28:36.000Z</time>
      </trkpt>
      <trkpt lat="43.38858464732766" lon="-5.939289601519704">
        <ele>118</ele>
        <time>2017-08-02T07:28:41.000Z</time>
      </trkpt>
      <trkpt lat="43.38862479664385" lon="-5.939284488558769">
        <ele>117.8</ele>
        <time>2017-08-02T07:28:44.000Z</time>
      </trkpt>
      <trkpt lat="43.38863720186055" lon="-5.9392832312732935">
        <ele>117.6</ele>
        <time>2017-08-02T07:28:45.000Z</time>
      </trkpt>
      <trkpt lat="43.38872831314802" lon="-5.939263449981809">
        <ele>117</ele>
        <time>2017-08-02T07:28:52.000Z</time>
      </trkpt>
      <trkpt lat="43.388817915692925" lon="-5.939253056421876">
        <ele>116.6</ele>
        <time>2017-08-02T07:28:59.000Z</time>
      </trkpt>
      <trkpt lat="43.38894917629659" lon="-5.939240483567119">
        <ele>116.6</ele>
        <time>2017-08-02T07:29:08.000Z</time>
      </trkpt>
      <trkpt lat="43.389010364189744" lon="-5.9391984064131975">
        <ele>116.2</ele>
        <time>2017-08-02T07:29:13.000Z</time>
      </trkpt>
      <trkpt lat="43.389048585668206" lon="-5.939121963456273">
        <ele>115.2</ele>
        <time>2017-08-02T07:29:18.000Z</time>
      </trkpt>
      <trkpt lat="43.38905076496303" lon="-5.939107546582818">
        <ele>115</ele>
        <time>2017-08-02T07:29:19.000Z</time>
      </trkpt>
      <trkpt lat="43.38907188735902" lon="-5.93906563706696">
        <ele>114.6</ele>
        <time>2017-08-02T07:29:22.000Z</time>
      </trkpt>
      <trkpt lat="43.389105666428804" lon="-5.939019285142422">
        <ele>114</ele>
        <time>2017-08-02T07:29:26.000Z</time>
      </trkpt>
      <trkpt lat="43.38917724788189" lon="-5.938977459445596">
        <ele>113.6</ele>
        <time>2017-08-02T07:29:33.000Z</time>
      </trkpt>
      <trkpt lat="43.38921396061778" lon="-5.938945859670639">
        <ele>113.4</ele>
        <time>2017-08-02T07:29:37.000Z</time>
      </trkpt>
      <trkpt lat="43.3892285451293" lon="-5.938921887427568">
        <ele>113</ele>
        <time>2017-08-02T07:29:40.000Z</time>
      </trkpt>
      <trkpt lat="43.38923499919474" lon="-5.938910488039255">
        <ele>113</ele>
        <time>2017-08-02T07:29:41.000Z</time>
      </trkpt>
      <trkpt lat="43.38924975134432" lon="-5.938885845243931">
        <ele>112.6</ele>
        <time>2017-08-02T07:29:43.000Z</time>
      </trkpt>
      <trkpt lat="43.389267940074205" lon="-5.938852820545435">
        <ele>112.2</ele>
        <time>2017-08-02T07:29:46.000Z</time>
      </trkpt>
      <trkpt lat="43.389302557334304" lon="-5.9388273395597935">
        <ele>112</ele>
        <time>2017-08-02T07:29:50.000Z</time>
      </trkpt>
      <trkpt lat="43.389313369989395" lon="-5.938819879665971">
        <ele>111.8</ele>
        <time>2017-08-02T07:29:51.000Z</time>
      </trkpt>
      <trkpt lat="43.38932376354933" lon="-5.938805881887674">
        <ele>111.8</ele>
        <time>2017-08-02T07:29:52.000Z</time>
      </trkpt>
      <trkpt lat="43.38934228755534" lon="-5.9387878607958555">
        <ele>111.6</ele>
        <time>2017-08-02T07:29:54.000Z</time>
      </trkpt>
      <trkpt lat="43.3893699478358" lon="-5.93876707367599">
        <ele>111.4</ele>
        <time>2017-08-02T07:29:56.000Z</time>
      </trkpt>
      <trkpt lat="43.38941588066518" lon="-5.938730528578162">
        <ele>111</ele>
        <time>2017-08-02T07:30:00.000Z</time>
      </trkpt>
      <trkpt lat="43.38942443020642" lon="-5.938723990693688">
        <ele>111</ele>
        <time>2017-08-02T07:30:01.000Z</time>
      </trkpt>
      <trkpt lat="43.389493245631456" lon="-5.938723823055625">
        <ele>112</ele>
        <time>2017-08-02T07:30:06.000Z</time>
      </trkpt>
      <trkpt lat="43.3895964268595" lon="-5.93868057243526">
        <ele>112.6</ele>
        <time>2017-08-02T07:30:14.000Z</time>
      </trkpt>
      <trkpt lat="43.38969994336367" lon="-5.938646038994193">
        <ele>113.6</ele>
        <time>2017-08-02T07:30:22.000Z</time>
      </trkpt>
      <trkpt lat="43.389778984710574" lon="-5.93859164044261">
        <ele>113.4</ele>
        <time>2017-08-02T07:30:29.000Z</time>
      </trkpt>
      <trkpt lat="43.38979843072593" lon="-5.938569512218237">
        <ele>113.2</ele>
        <time>2017-08-02T07:30:31.000Z</time>
      </trkpt>
      <trkpt lat="43.38982474990189" lon="-5.9385469648987055">
        <ele>113</ele>
        <time>2017-08-02T07:30:33.000Z</time>
      </trkpt>
      <trkpt lat="43.389859618619084" lon="-5.93852617777884">
        <ele>113</ele>
        <time>2017-08-02T07:30:36.000Z</time>
      </trkpt>
      <trkpt lat="43.38986707851291" lon="-5.938516790047288">
        <ele>113</ele>
        <time>2017-08-02T07:30:37.000Z</time>
      </trkpt>
      <trkpt lat="43.38987453840673" lon="-5.938506480306387">
        <ele>113</ele>
        <time>2017-08-02T07:30:38.000Z</time>
      </trkpt>
      <trkpt lat="43.38992357254028" lon="-5.938453255221248">
        <ele>112.4</ele>
        <time>2017-08-02T07:30:43.000Z</time>
      </trkpt>
      <trkpt lat="43.389938324689865" lon="-5.938452584668994">
        <ele>112.6</ele>
        <time>2017-08-02T07:30:44.000Z</time>
      </trkpt>
      <trkpt lat="43.39001921005547" lon="-5.938402628526092">
        <ele>112.6</ele>
        <time>2017-08-02T07:30:50.000Z</time>
      </trkpt>
      <trkpt lat="43.390042930841446" lon="-5.93838787637651">
        <ele>112.6</ele>
        <time>2017-08-02T07:30:52.000Z</time>
      </trkpt>
      <trkpt lat="43.39008416980505" lon="-5.938323838636279">
        <ele>111.8</ele>
        <time>2017-08-02T07:30:56.000Z</time>
      </trkpt>
      <trkpt lat="43.39009573683143" lon="-5.938311852514744">
        <ele>111.8</ele>
        <time>2017-08-02T07:30:57.000Z</time>
      </trkpt>
      <trkpt lat="43.39013840071857" lon="-5.938259297981858">
        <ele>111.4</ele>
        <time>2017-08-02T07:31:01.000Z</time>
      </trkpt>
      <trkpt lat="43.390237307175994" lon="-5.938131641596556">
        <ele>110.4</ele>
        <time>2017-08-02T07:31:11.000Z</time>
      </trkpt>
      <trkpt lat="43.390305703505874" lon="-5.93808202072978">
        <ele>110.6</ele>
        <time>2017-08-02T07:31:17.000Z</time>
      </trkpt>
      <trkpt lat="43.39038675650954" lon="-5.938005158677697">
        <ele>110.6</ele>
        <time>2017-08-02T07:31:24.000Z</time>
      </trkpt>
      <trkpt lat="43.39039790444076" lon="-5.937993340194225">
        <ele>110.6</ele>
        <time>2017-08-02T07:31:25.000Z</time>
      </trkpt>
      <trkpt lat="43.39048197492957" lon="-5.93788169324398">
        <ele>110.4</ele>
        <time>2017-08-02T07:31:33.000Z</time>
      </trkpt>
      <trkpt lat="43.390554059296846" lon="-5.937800137326121">
        <ele>110.6</ele>
        <time>2017-08-02T07:31:40.000Z</time>
      </trkpt>
      <trkpt lat="43.39063670486212" lon="-5.9376908373087645">
        <ele>110.8</ele>
        <time>2017-08-02T07:31:48.000Z</time>
      </trkpt>
      <trkpt lat="43.39070761576295" lon="-5.937597379088402">
        <ele>110.8</ele>
        <time>2017-08-02T07:31:55.000Z</time>
      </trkpt>
      <trkpt lat="43.39071549475193" lon="-5.937581788748503">
        <ele>111</ele>
        <time>2017-08-02T07:31:56.000Z</time>
      </trkpt>
      <trkpt lat="43.39075061492622" lon="-5.937543483451009">
        <ele>111.2</ele>
        <time>2017-08-02T07:31:59.000Z</time>
      </trkpt>
      <trkpt lat="43.39078196324408" lon="-5.937511548399925">
        <ele>111.4</ele>
        <time>2017-08-02T07:32:02.000Z</time>
      </trkpt>
      <trkpt lat="43.390799313783646" lon="-5.937473578378558">
        <ele>111.4</ele>
        <time>2017-08-02T07:32:08.000Z</time>
      </trkpt>
      <trkpt lat="43.3908361941576" lon="-5.937422448769212">
        <ele>111.8</ele>
        <time>2017-08-02T07:32:13.000Z</time>
      </trkpt>
      <trkpt lat="43.39088757522404" lon="-5.937365032732487">
        <ele>112.6</ele>
        <time>2017-08-02T07:32:18.000Z</time>
      </trkpt>
      <trkpt lat="43.390907272696495" lon="-5.937347849830985">
        <ele>112.8</ele>
        <time>2017-08-02T07:32:20.000Z</time>
      </trkpt>
      <trkpt lat="43.39097877033055" lon="-5.937276687473059">
        <ele>113.4</ele>
        <time>2017-08-02T07:32:27.000Z</time>
      </trkpt>
      <trkpt lat="43.39103325270116" lon="-5.937190689146519">
        <ele>113.4</ele>
        <time>2017-08-02T07:32:33.000Z</time>
      </trkpt>
      <trkpt lat="43.39107071980834" lon="-5.937124220654368">
        <ele>113.4</ele>
        <time>2017-08-02T07:32:39.000Z</time>
      </trkpt>
      <trkpt lat="43.39106451719999" lon="-5.937113910913467">
        <ele>113.2</ele>
        <time>2017-08-02T07:32:41.000Z</time>
      </trkpt>
      <trkpt lat="43.391055297106504" lon="-5.937093961983919">
        <ele>112.8</ele>
        <time>2017-08-02T07:32:47.000Z</time>
      </trkpt>
      <trkpt lat="43.3910415507853" lon="-5.937053728848696">
        <ele>112.6</ele>
        <time>2017-08-02T07:32:54.000Z</time>
      </trkpt>
      <trkpt lat="43.3910174947232" lon="-5.937051465734839">
        <ele>112.4</ele>
        <time>2017-08-02T07:33:03.000Z</time>
      </trkpt>
      <trkpt lat="43.390996204689145" lon="-5.937016597017646">
        <ele>111.8</ele>
        <time>2017-08-02T07:33:15.000Z</time>
      </trkpt>
      <trkpt lat="43.39098379947245" lon="-5.936968568712473">
        <ele>111.2</ele>
        <time>2017-08-02T07:33:26.000Z</time>
      </trkpt>
      <trkpt lat="43.39096946641803" lon="-5.936851724982262">
        <ele>110.6</ele>
        <time>2017-08-02T07:34:02.000Z</time>
      </trkpt>
      <trkpt lat="43.390955636277795" lon="-5.936809731647372">
        <ele>110.8</ele>
        <time>2017-08-02T07:34:19.000Z</time>
      </trkpt>
      <trkpt lat="43.39094272814691" lon="-5.93680864199996">
        <ele>111</ele>
        <time>2017-08-02T07:34:24.000Z</time>
      </trkpt>
      <trkpt lat="43.39092956855893" lon="-5.9368514735251665">
        <ele>110.8</ele>
        <time>2017-08-02T07:34:51.000Z</time>
      </trkpt>
      <trkpt lat="43.39095211587846" lon="-5.936915427446365">
        <ele>110.4</ele>
        <time>2017-08-02T07:35:42.000Z</time>
      </trkpt>
      <trkpt lat="43.39095605537295" lon="-5.936905620619655">
        <ele>110.4</ele>
        <time>2017-08-02T07:35:45.000Z</time>
      </trkpt>
      <trkpt lat="43.39097357355058" lon="-5.936953984200954">
        <ele>111</ele>
        <time>2017-08-02T07:35:59.000Z</time>
      </trkpt>
      <trkpt lat="43.390981536358595" lon="-5.936982901766896">
        <ele>111.4</ele>
        <time>2017-08-02T07:36:04.000Z</time>
      </trkpt>
      <trkpt lat="43.39101640507579" lon="-5.937003185972571">
        <ele>111.8</ele>
        <time>2017-08-02T07:36:09.000Z</time>
      </trkpt>
      <trkpt lat="43.39103509671986" lon="-5.937037719413638">
        <ele>112.4</ele>
        <time>2017-08-02T07:36:15.000Z</time>
      </trkpt>
      <trkpt lat="43.39106183499098" lon="-5.937044927850366">
        <ele>112.6</ele>
        <time>2017-08-02T07:36:21.000Z</time>
      </trkpt>
      <trkpt lat="43.391069546341896" lon="-5.937052723020315">
        <ele>112.8</ele>
        <time>2017-08-02T07:36:31.000Z</time>
      </trkpt>
      <trkpt lat="43.391128638759255" lon="-5.93705196864903">
        <ele>113.4</ele>
        <time>2017-08-02T07:37:35.000Z</time>
      </trkpt>
      <trkpt lat="43.391232658177614" lon="-5.9369725082069635">
        <ele>113.6</ele>
        <time>2017-08-02T07:37:44.000Z</time>
      </trkpt>
      <trkpt lat="43.391252271831036" lon="-5.936974519863725">
        <ele>113.8</ele>
        <time>2017-08-02T07:37:45.000Z</time>
      </trkpt>
      <trkpt lat="43.39129443280399" lon="-5.936953397467732">
        <ele>114</ele>
        <time>2017-08-02T07:37:48.000Z</time>
      </trkpt>
      <trkpt lat="43.39136425405741" lon="-5.936908386647701">
        <ele>114.2</ele>
        <time>2017-08-02T07:37:54.000Z</time>
      </trkpt>
      <trkpt lat="43.391430135816336" lon="-5.93685801140964">
        <ele>114.2</ele>
        <time>2017-08-02T07:38:00.000Z</time>
      </trkpt>
      <trkpt lat="43.391495095565915" lon="-5.936792129650712">
        <ele>114</ele>
        <time>2017-08-02T07:38:06.000Z</time>
      </trkpt>
      <trkpt lat="43.391565922647715" lon="-5.936744352802634">
        <ele>114.2</ele>
        <time>2017-08-02T07:38:12.000Z</time>
      </trkpt>
      <trkpt lat="43.391588386148214" lon="-5.936721134930849">
        <ele>114.2</ele>
        <time>2017-08-02T07:38:14.000Z</time>
      </trkpt>
      <trkpt lat="43.39164588600397" lon="-5.936671681702137">
        <ele>114</ele>
        <time>2017-08-02T07:38:19.000Z</time>
      </trkpt>
      <trkpt lat="43.39164915494621" lon="-5.936660869047046">
        <ele>113.8</ele>
        <time>2017-08-02T07:38:20.000Z</time>
      </trkpt>
      <trkpt lat="43.39167723432183" lon="-5.936616025865078">
        <ele>113.4</ele>
        <time>2017-08-02T07:38:24.000Z</time>
      </trkpt>
      <trkpt lat="43.39172853156924" lon="-5.936544444411993">
        <ele>113</ele>
        <time>2017-08-02T07:38:30.000Z</time>
      </trkpt>
      <trkpt lat="43.39181452989578" lon="-5.936448639258742">
        <ele>113.2</ele>
        <time>2017-08-02T07:38:38.000Z</time>
      </trkpt>
      <trkpt lat="43.39184227399528" lon="-5.936422487720847">
        <ele>113.4</ele>
        <time>2017-08-02T07:38:40.000Z</time>
      </trkpt>
      <trkpt lat="43.39186239056289" lon="-5.936396839097142">
        <ele>113.4</ele>
        <time>2017-08-02T07:38:42.000Z</time>
      </trkpt>
      <trkpt lat="43.391878148540854" lon="-5.93637035228312">
        <ele>113.4</ele>
        <time>2017-08-02T07:38:44.000Z</time>
      </trkpt>
      <trkpt lat="43.39190245606005" lon="-5.936337998136878">
        <ele>113.6</ele>
        <time>2017-08-02T07:38:47.000Z</time>
      </trkpt>
      <trkpt lat="43.39196490123868" lon="-5.936302291229367">
        <ele>114.6</ele>
        <time>2017-08-02T07:38:52.000Z</time>
      </trkpt>
      <trkpt lat="43.392045032233" lon="-5.936268595978618">
        <ele>116</ele>
        <time>2017-08-02T07:38:59.000Z</time>
      </trkpt>
      <trkpt lat="43.39208694174886" lon="-5.936249233782291">
        <ele>116.8</ele>
        <time>2017-08-02T07:39:04.000Z</time>
      </trkpt>
      <trkpt lat="43.392167408019304" lon="-5.936221154406667">
        <ele>118.2</ele>
        <time>2017-08-02T07:39:11.000Z</time>
      </trkpt>
      <trkpt lat="43.39219707995653" lon="-5.936207072809339">
        <ele>118.6</ele>
        <time>2017-08-02T07:39:14.000Z</time>
      </trkpt>
      <trkpt lat="43.392230942845345" lon="-5.936199864372611">
        <ele>119</ele>
        <time>2017-08-02T07:39:17.000Z</time>
      </trkpt>
      <trkpt lat="43.39224250987172" lon="-5.93619592487812">
        <ele>119.2</ele>
        <time>2017-08-02T07:39:18.000Z</time>
      </trkpt>
      <trkpt lat="43.39230931364" lon="-5.936170527711511">
        <ele>120.2</ele>
        <time>2017-08-02T07:39:24.000Z</time>
      </trkpt>
      <trkpt lat="43.39236027561128" lon="-5.936155943199992">
        <ele>121</ele>
        <time>2017-08-02T07:39:29.000Z</time>
      </trkpt>
      <trkpt lat="43.392433701083064" lon="-5.936123840510845">
        <ele>122</ele>
        <time>2017-08-02T07:39:36.000Z</time>
      </trkpt>
      <trkpt lat="43.39245339855552" lon="-5.936121828854084">
        <ele>122.4</ele>
        <time>2017-08-02T07:39:39.000Z</time>
      </trkpt>
      <trkpt lat="43.39246873743832" lon="-5.936119901016355">
        <ele>122.8</ele>
        <time>2017-08-02T07:39:42.000Z</time>
      </trkpt>
      <trkpt lat="43.392477789893746" lon="-5.936153596267104">
        <ele>123.8</ele>
        <time>2017-08-02T07:39:48.000Z</time>
      </trkpt>
      <trkpt lat="43.39246144518256" lon="-5.936182094737887">
        <ele>124.4</ele>
        <time>2017-08-02T07:39:50.000Z</time>
      </trkpt>
      <trkpt lat="43.39244954288006" lon="-5.936213778331876">
        <ele>125</ele>
        <time>2017-08-02T07:39:53.000Z</time>
      </trkpt>
      <trkpt lat="43.39243101887405" lon="-5.936282174661756">
        <ele>126.2</ele>
        <time>2017-08-02T07:39:58.000Z</time>
      </trkpt>
      <trkpt lat="43.39242766611278" lon="-5.936309415847063">
        <ele>126.8</ele>
        <time>2017-08-02T07:40:00.000Z</time>
      </trkpt>
      <trkpt lat="43.39240989647806" lon="-5.936389127746224">
        <ele>128</ele>
        <time>2017-08-02T07:40:06.000Z</time>
      </trkpt>
      <trkpt lat="43.392401514574885" lon="-5.936402538791299">
        <ele>128.2</ele>
        <time>2017-08-02T07:40:07.000Z</time>
      </trkpt>
      <trkpt lat="43.392390199005604" lon="-5.936470264568925">
        <ele>129.4</ele>
        <time>2017-08-02T07:40:12.000Z</time>
      </trkpt>
      <trkpt lat="43.392359940335155" lon="-5.936570931226015">
        <ele>131.2</ele>
        <time>2017-08-02T07:40:19.000Z</time>
      </trkpt>
      <trkpt lat="43.39234560728073" lon="-5.936684841290116">
        <ele>133.8</ele>
        <time>2017-08-02T07:40:26.000Z</time>
      </trkpt>
      <trkpt lat="43.39233856648207" lon="-5.936696156859398">
        <ele>133.8</ele>
        <time>2017-08-02T07:40:27.000Z</time>
      </trkpt>
      <trkpt lat="43.392314510419965" lon="-5.936769330874085">
        <ele>135.2</ele>
        <time>2017-08-02T07:40:32.000Z</time>
      </trkpt>
      <trkpt lat="43.39230688288808" lon="-5.936790956184268">
        <ele>135.6</ele>
        <time>2017-08-02T07:40:34.000Z</time>
      </trkpt>
      <trkpt lat="43.39229422621429" lon="-5.93684384599328">
        <ele>137</ele>
        <time>2017-08-02T07:40:38.000Z</time>
      </trkpt>
      <trkpt lat="43.392285760492086" lon="-5.936887934803963">
        <ele>138.2</ele>
        <time>2017-08-02T07:40:41.000Z</time>
      </trkpt>
      <trkpt lat="43.39228014461696" lon="-5.936925485730171">
        <ele>139.4</ele>
        <time>2017-08-02T07:40:44.000Z</time>
      </trkpt>
      <trkpt lat="43.392272433266044" lon="-5.936932191252708">
        <ele>139.4</ele>
        <time>2017-08-02T07:40:45.000Z</time>
      </trkpt>
      <trkpt lat="43.3922556694597" lon="-5.936976615339518">
        <ele>140.4</ele>
        <time>2017-08-02T07:40:48.000Z</time>
      </trkpt>
      <trkpt lat="43.39225139468908" lon="-5.936988350003958">
        <ele>140.8</ele>
        <time>2017-08-02T07:40:49.000Z</time>
      </trkpt>
      <trkpt lat="43.39220856316388" lon="-5.937062026932836">
        <ele>142.2</ele>
        <time>2017-08-02T07:40:55.000Z</time>
      </trkpt>
      <trkpt lat="43.39217050932348" lon="-5.9371439181268215">
        <ele>142.8</ele>
        <time>2017-08-02T07:41:01.000Z</time>
      </trkpt>
      <trkpt lat="43.39212013408542" lon="-5.937236286699772">
        <ele>142.8</ele>
        <time>2017-08-02T07:41:08.000Z</time>
      </trkpt>
      <trkpt lat="43.392086355015635" lon="-5.937282722443342">
        <ele>142.4</ele>
        <time>2017-08-02T07:41:12.000Z</time>
      </trkpt>
      <trkpt lat="43.39206640608609" lon="-5.93732756562531">
        <ele>142.6</ele>
        <time>2017-08-02T07:41:15.000Z</time>
      </trkpt>
      <trkpt lat="43.39200639165938" lon="-5.937431920319796">
        <ele>142.6</ele>
        <time>2017-08-02T07:41:23.000Z</time>
      </trkpt>
      <trkpt lat="43.39196490123868" lon="-5.937513140961528">
        <ele>142.6</ele>
        <time>2017-08-02T07:41:29.000Z</time>
      </trkpt>
      <trkpt lat="43.39191058650613" lon="-5.937618250027299">
        <ele>142.8</ele>
        <time>2017-08-02T07:41:37.000Z</time>
      </trkpt>
      <trkpt lat="43.39187261648476" lon="-5.93769209459424">
        <ele>142.8</ele>
        <time>2017-08-02T07:41:43.000Z</time>
      </trkpt>
      <trkpt lat="43.39180556125939" lon="-5.937795778736472">
        <ele>142.4</ele>
        <time>2017-08-02T07:41:51.000Z</time>
      </trkpt>
      <trkpt lat="43.39173858985305" lon="-5.9379025641828775">
        <ele>142.2</ele>
        <time>2017-08-02T07:41:59.000Z</time>
      </trkpt>
      <trkpt lat="43.39167019352317" lon="-5.937985964119434">
        <ele>142.2</ele>
        <time>2017-08-02T07:42:06.000Z</time>
      </trkpt>
      <trkpt lat="43.39159115217626" lon="-5.938081433996558">
        <ele>143</ele>
        <time>2017-08-02T07:42:14.000Z</time>
      </trkpt>
      <trkpt lat="43.391526862978935" lon="-5.938178999349475">
        <ele>144.8</ele>
        <time>2017-08-02T07:42:22.000Z</time>
      </trkpt>
      <trkpt lat="43.39143231511116" lon="-5.938306907191873">
        <ele>148.2</ele>
        <time>2017-08-02T07:42:32.000Z</time>
      </trkpt>
      <trkpt lat="43.391361152753234" lon="-5.938402125611901">
        <ele>150.8</ele>
        <time>2017-08-02T07:42:40.000Z</time>
      </trkpt>
      <trkpt lat="43.39131396263838" lon="-5.938476137816906">
        <ele>152.2</ele>
        <time>2017-08-02T07:42:46.000Z</time>
      </trkpt>
      <trkpt lat="43.391238525509834" lon="-5.938608655706048">
        <ele>155.4</ele>
        <time>2017-08-02T07:42:56.000Z</time>
      </trkpt>
      <trkpt lat="43.39117968454957" lon="-5.938725667074323">
        <ele>158.6</ele>
        <time>2017-08-02T07:43:04.000Z</time>
      </trkpt>
      <trkpt lat="43.39111371897161" lon="-5.93884133733809">
        <ele>160.6</ele>
        <time>2017-08-02T07:43:12.000Z</time>
      </trkpt>
      <trkpt lat="43.39105127379298" lon="-5.938942926004529">
        <ele>161.4</ele>
        <time>2017-08-02T07:43:20.000Z</time>
      </trkpt>
      <trkpt lat="43.39096167124808" lon="-5.939072677865624">
        <ele>160.6</ele>
        <time>2017-08-02T07:43:30.000Z</time>
      </trkpt>
      <trkpt lat="43.39089042507112" lon="-5.939178038388491">
        <ele>159.6</ele>
        <time>2017-08-02T07:43:38.000Z</time>
      </trkpt>
      <trkpt lat="43.39082194492221" lon="-5.939287254586816">
        <ele>159.2</ele>
        <time>2017-08-02T07:43:46.000Z</time>
      </trkpt>
      <trkpt lat="43.39071583002806" lon="-5.93942572362721">
        <ele>162.8</ele>
        <time>2017-08-02T07:43:57.000Z</time>
      </trkpt>
      <trkpt lat="43.3906324300915" lon="-5.9395429864525795">
        <ele>166.8</ele>
        <time>2017-08-02T07:44:06.000Z</time>
      </trkpt>
      <trkpt lat="43.39059563353658" lon="-5.939602414146066">
        <ele>168.8</ele>
        <time>2017-08-02T07:44:11.000Z</time>
      </trkpt>
      <trkpt lat="43.39059219695628" lon="-5.939600905403495">
        <ele>168.6</ele>
        <time>2017-08-02T07:44:13.000Z</time>
      </trkpt>
      <trkpt lat="43.3905856590718" lon="-5.939601492136717">
        <ele>168.6</ele>
        <time>2017-08-02T07:44:20.000Z</time>
      </trkpt>
      <trkpt lat="43.3905444201082" lon="-5.939659075811505">
        <ele>170.2</ele>
        <time>2017-08-02T07:44:27.000Z</time>
      </trkpt>
      <trkpt lat="43.39048323221505" lon="-5.939726047217846">
        <ele>171.6</ele>
        <time>2017-08-02T07:44:34.000Z</time>
      </trkpt>
      <trkpt lat="43.390421038493514" lon="-5.939796958118677">
        <ele>172.8</ele>
        <time>2017-08-02T07:44:41.000Z</time>
      </trkpt>
      <trkpt lat="43.39036068879068" lon="-5.939872898161411">
        <ele>174</ele>
        <time>2017-08-02T07:44:48.000Z</time>
      </trkpt>
      <trkpt lat="43.39029958471656" lon="-5.9399529453366995">
        <ele>174</ele>
        <time>2017-08-02T07:44:55.000Z</time>
      </trkpt>
      <trkpt lat="43.39026010595262" lon="-5.940017318353057">
        <ele>174.4</ele>
        <time>2017-08-02T07:45:01.000Z</time>
      </trkpt>
      <trkpt lat="43.39021216146648" lon="-5.940105747431517">
        <ele>175.4</ele>
        <time>2017-08-02T07:45:08.000Z</time>
      </trkpt>
      <trkpt lat="43.39016488753259" lon="-5.940188895910978">
        <ele>176</ele>
        <time>2017-08-02T07:45:15.000Z</time>
      </trkpt>
      <trkpt lat="43.39011778123677" lon="-5.940276067703962">
        <ele>176.8</ele>
        <time>2017-08-02T07:45:22.000Z</time>
      </trkpt>
      <trkpt lat="43.39006857946515" lon="-5.940377488732338">
        <ele>178</ele>
        <time>2017-08-02T07:45:30.000Z</time>
      </trkpt>
      <trkpt lat="43.39005600661039" lon="-5.940417721867561">
        <ele>178.6</ele>
        <time>2017-08-02T07:45:33.000Z</time>
      </trkpt>
      <trkpt lat="43.390031699091196" lon="-5.940477484837174">
        <ele>179.4</ele>
        <time>2017-08-02T07:45:37.000Z</time>
      </trkpt>
      <trkpt lat="43.389994483441114" lon="-5.940560046583414">
        <ele>180.6</ele>
        <time>2017-08-02T07:45:44.000Z</time>
      </trkpt>
      <trkpt lat="43.38995550759137" lon="-5.9406388364732265">
        <ele>181.6</ele>
        <time>2017-08-02T07:45:50.000Z</time>
      </trkpt>
      <trkpt lat="43.38995626196265" lon="-5.940649313852191">
        <ele>182</ele>
        <time>2017-08-02T07:45:51.000Z</time>
      </trkpt>
      <trkpt lat="43.38993363082409" lon="-5.940681081265211">
        <ele>182.4</ele>
        <time>2017-08-02T07:45:54.000Z</time>
      </trkpt>
      <trkpt lat="43.389926087111235" lon="-5.9407248347997665">
        <ele>183.6</ele>
        <time>2017-08-02T07:45:57.000Z</time>
      </trkpt>
      <trkpt lat="43.38991946540773" lon="-5.9407607931643724">
        <ele>184.4</ele>
        <time>2017-08-02T07:46:00.000Z</time>
      </trkpt>
      <trkpt lat="43.389922734349966" lon="-5.940776718780398">
        <ele>184.8</ele>
        <time>2017-08-02T07:46:01.000Z</time>
      </trkpt>
      <trkpt lat="43.38991854339838" lon="-5.94085399992764">
        <ele>186.8</ele>
        <time>2017-08-02T07:46:07.000Z</time>
      </trkpt>
      <trkpt lat="43.38993748649955" lon="-5.940938238054514">
        <ele>189</ele>
        <time>2017-08-02T07:46:13.000Z</time>
      </trkpt>
      <trkpt lat="43.38993614539504" lon="-5.941003113985062">
        <ele>190.6</ele>
        <time>2017-08-02T07:46:18.000Z</time>
      </trkpt>
      <trkpt lat="43.38997034355998" lon="-5.941103445366025">
        <ele>193.2</ele>
        <time>2017-08-02T07:46:24.000Z</time>
      </trkpt>
      <trkpt lat="43.3899970818311" lon="-5.941171506419778">
        <ele>195.2</ele>
        <time>2017-08-02T07:46:30.000Z</time>
      </trkpt>
      <trkpt lat="43.39002843014896" lon="-5.941250044852495">
        <ele>196.6</ele>
        <time>2017-08-02T07:46:36.000Z</time>
      </trkpt>
      <trkpt lat="43.390031699091196" lon="-5.941258678212762">
        <ele>196.6</ele>
        <time>2017-08-02T07:46:37.000Z</time>
      </trkpt>
      <trkpt lat="43.390086684376" lon="-5.941337216645479">
        <ele>197.2</ele>
        <time>2017-08-02T07:46:43.000Z</time>
      </trkpt>
      <trkpt lat="43.39016824029386" lon="-5.941436793655157">
        <ele>198.2</ele>
        <time>2017-08-02T07:46:51.000Z</time>
      </trkpt>
      <trkpt lat="43.3902370557189" lon="-5.941519271582365">
        <ele>198.8</ele>
        <time>2017-08-02T07:46:58.000Z</time>
      </trkpt>
      <trkpt lat="43.39031886309385" lon="-5.941607030108571">
        <ele>199.6</ele>
        <time>2017-08-02T07:47:06.000Z</time>
      </trkpt>
      <trkpt lat="43.3904096391052" lon="-5.941712558269501">
        <ele>200.4</ele>
        <time>2017-08-02T07:47:15.000Z</time>
      </trkpt>
      <trkpt lat="43.39048155583441" lon="-5.941796209663153">
        <ele>201.2</ele>
        <time>2017-08-02T07:47:22.000Z</time>
      </trkpt>
      <trkpt lat="43.39053863659501" lon="-5.941854128614068">
        <ele>201.6</ele>
        <time>2017-08-02T07:47:27.000Z</time>
      </trkpt>
      <trkpt lat="43.390553472563624" lon="-5.941859744489193">
        <ele>201.8</ele>
        <time>2017-08-02T07:47:28.000Z</time>
      </trkpt>
      <trkpt lat="43.39057526551187" lon="-5.941885225474834">
        <ele>201.8</ele>
        <time>2017-08-02T07:47:30.000Z</time>
      </trkpt>
      <trkpt lat="43.39060317724943" lon="-5.941916322335601">
        <ele>202</ele>
        <time>2017-08-02T07:47:33.000Z</time>
      </trkpt>
      <trkpt lat="43.390644919127226" lon="-5.941964518278837">
        <ele>202</ele>
        <time>2017-08-02T07:47:41.000Z</time>
      </trkpt>
      <trkpt lat="43.39064450003207" lon="-5.942063173279166">
        <ele>200.4</ele>
        <time>2017-08-02T07:49:05.000Z</time>
      </trkpt>
      <trkpt lat="43.39067107066512" lon="-5.942198038101196">
        <ele>200</ele>
        <time>2017-08-02T07:49:13.000Z</time>
      </trkpt>
      <trkpt lat="43.39070074260235" lon="-5.942350756376982">
        <ele>198.4</ele>
        <time>2017-08-02T07:49:21.000Z</time>
      </trkpt>
      <trkpt lat="43.390736700966954" lon="-5.942512527108192">
        <ele>197.6</ele>
        <time>2017-08-02T07:49:30.000Z</time>
      </trkpt>
      <trkpt lat="43.39073368348181" lon="-5.942658372223377">
        <ele>197.4</ele>
        <time>2017-08-02T07:49:38.000Z</time>
      </trkpt>
      <trkpt lat="43.39070459827781" lon="-5.942775886505842">
        <ele>197.8</ele>
        <time>2017-08-02T07:49:45.000Z</time>
      </trkpt>
      <trkpt lat="43.39065497741103" lon="-5.9429139364510775">
        <ele>198.2</ele>
        <time>2017-08-02T07:49:54.000Z</time>
      </trkpt>
      <trkpt lat="43.390614157542586" lon="-5.943040754646063">
        <ele>198.8</ele>
        <time>2017-08-02T07:50:02.000Z</time>
      </trkpt>
      <trkpt lat="43.3905980642885" lon="-5.943204956129193">
        <ele>199.4</ele>
        <time>2017-08-02T07:50:11.000Z</time>
      </trkpt>
      <trkpt lat="43.39060099795461" lon="-5.943322470411658">
        <ele>199.4</ele>
        <time>2017-08-02T07:50:18.000Z</time>
      </trkpt>
      <trkpt lat="43.390604685992" lon="-5.943372091278434">
        <ele>199.4</ele>
        <time>2017-08-02T07:50:21.000Z</time>
      </trkpt>
      <trkpt lat="43.39060954749584" lon="-5.9434611070901155">
        <ele>199.6</ele>
        <time>2017-08-02T07:50:26.000Z</time>
      </trkpt>
      <trkpt lat="43.390599908307195" lon="-5.943602090701461">
        <ele>199.8</ele>
        <time>2017-08-02T07:50:34.000Z</time>
      </trkpt>
      <trkpt lat="43.39058549143374" lon="-5.943744080141187">
        <ele>200</ele>
        <time>2017-08-02T07:50:42.000Z</time>
      </trkpt>
      <trkpt lat="43.39057417586446" lon="-5.943857403472066">
        <ele>200.8</ele>
        <time>2017-08-02T07:50:49.000Z</time>
      </trkpt>
      <trkpt lat="43.39056286029518" lon="-5.943973157554865">
        <ele>201.8</ele>
        <time>2017-08-02T07:50:56.000Z</time>
      </trkpt>
      <trkpt lat="43.39054400101304" lon="-5.944104753434658">
        <ele>203.2</ele>
        <time>2017-08-02T07:51:04.000Z</time>
      </trkpt>
      <trkpt lat="43.39052975177765" lon="-5.944233248010278">
        <ele>204.4</ele>
        <time>2017-08-02T07:51:12.000Z</time>
      </trkpt>
      <trkpt lat="43.39052279479802" lon="-5.944353360682726">
        <ele>205.4</ele>
        <time>2017-08-02T07:51:20.000Z</time>
      </trkpt>
      <trkpt lat="43.3905185200274" lon="-5.9444736409932375">
        <ele>206.2</ele>
        <time>2017-08-02T07:51:28.000Z</time>
      </trkpt>
      <trkpt lat="43.39051307179034" lon="-5.944611020386219">
        <ele>207.4</ele>
        <time>2017-08-02T07:51:36.000Z</time>
      </trkpt>
      <trkpt lat="43.39050921611488" lon="-5.94472493045032">
        <ele>209</ele>
        <time>2017-08-02T07:51:43.000Z</time>
      </trkpt>
      <trkpt lat="43.3905082102865" lon="-5.944817382842302">
        <ele>210.4</ele>
        <time>2017-08-02T07:51:49.000Z</time>
      </trkpt>
      <trkpt lat="43.390509467571974" lon="-5.944983009248972">
        <ele>212.8</ele>
        <time>2017-08-02T07:51:58.000Z</time>
      </trkpt>
      <trkpt lat="43.39052975177765" lon="-5.945107061415911">
        <ele>214.8</ele>
        <time>2017-08-02T07:52:06.000Z</time>
      </trkpt>
      <trkpt lat="43.390568643808365" lon="-5.945242345333099">
        <ele>216.4</ele>
        <time>2017-08-02T07:52:15.000Z</time>
      </trkpt>
      <trkpt lat="43.39059043675661" lon="-5.9453698340803385">
        <ele>217.8</ele>
        <time>2017-08-02T07:52:23.000Z</time>
      </trkpt>
      <trkpt lat="43.39059420861304" lon="-5.945496400818229">
        <ele>219</ele>
        <time>2017-08-02T07:52:31.000Z</time>
      </trkpt>
      <trkpt lat="43.3905980642885" lon="-5.945599665865302">
        <ele>220.2</ele>
        <time>2017-08-02T07:52:38.000Z</time>
      </trkpt>
      <trkpt lat="43.39059923775494" lon="-5.9456083830446005">
        <ele>220.2</ele>
        <time>2017-08-02T07:52:39.000Z</time>
      </trkpt>
      <trkpt lat="43.39057752862573" lon="-5.945693040266633">
        <ele>220.4</ele>
        <time>2017-08-02T07:52:44.000Z</time>
      </trkpt>
      <trkpt lat="43.39057669043541" lon="-5.94572464004159">
        <ele>220.6</ele>
        <time>2017-08-02T07:52:46.000Z</time>
      </trkpt>
      <trkpt lat="43.39056646451354" lon="-5.945803094655275">
        <ele>221.2</ele>
        <time>2017-08-02T07:52:51.000Z</time>
      </trkpt>
      <trkpt lat="43.39056654833257" lon="-5.945879789069295">
        <ele>221.8</ele>
        <time>2017-08-02T07:52:56.000Z</time>
      </trkpt>
      <trkpt lat="43.39056629687548" lon="-5.945911472663283">
        <ele>222</ele>
        <time>2017-08-02T07:52:58.000Z</time>
      </trkpt>
      <trkpt lat="43.390521788969636" lon="-5.946024628356099">
        <ele>223</ele>
        <time>2017-08-02T07:53:06.000Z</time>
      </trkpt>
      <trkpt lat="43.39043679647148" lon="-5.946089085191488">
        <ele>223.2</ele>
        <time>2017-08-02T07:53:14.000Z</time>
      </trkpt>
      <trkpt lat="43.390343841165304" lon="-5.946159325540066">
        <ele>223.6</ele>
        <time>2017-08-02T07:53:23.000Z</time>
      </trkpt>
      <trkpt lat="43.39023722335696" lon="-5.946230655536056">
        <ele>224</ele>
        <time>2017-08-02T07:53:33.000Z</time>
      </trkpt>
      <trkpt lat="43.39017025195062" lon="-5.946290921419859">
        <ele>225.2</ele>
        <time>2017-08-02T07:53:39.000Z</time>
      </trkpt>
      <trkpt lat="43.39010369963944" lon="-5.946327466517687">
        <ele>226</ele>
        <time>2017-08-02T07:53:45.000Z</time>
      </trkpt>
      <trkpt lat="43.390030609443784" lon="-5.946392510086298">
        <ele>227.4</ele>
        <time>2017-08-02T07:53:53.000Z</time>
      </trkpt>
      <trkpt lat="43.390010157600045" lon="-5.946458308026195">
        <ele>228.8</ele>
        <time>2017-08-02T07:53:58.000Z</time>
      </trkpt>
      <trkpt lat="43.39001921005547" lon="-5.946475239470601">
        <ele>229.2</ele>
        <time>2017-08-02T07:53:59.000Z</time>
      </trkpt>
      <trkpt lat="43.39004167355597" lon="-5.946504324674606">
        <ele>229.6</ele>
        <time>2017-08-02T07:54:02.000Z</time>
      </trkpt>
      <trkpt lat="43.39007989503443" lon="-5.946567272767425">
        <ele>230.8</ele>
        <time>2017-08-02T07:54:07.000Z</time>
      </trkpt>
      <trkpt lat="43.390079475939274" lon="-5.94658168964088">
        <ele>231</ele>
        <time>2017-08-02T07:54:08.000Z</time>
      </trkpt>
      <trkpt lat="43.39008308015764" lon="-5.946642709895968">
        <ele>232.4</ele>
        <time>2017-08-02T07:54:12.000Z</time>
      </trkpt>
      <trkpt lat="43.390087857842445" lon="-5.946660563349724">
        <ele>232.8</ele>
        <time>2017-08-02T07:54:13.000Z</time>
      </trkpt>
      <trkpt lat="43.390123061835766" lon="-5.946738934144378">
        <ele>234.4</ele>
        <time>2017-08-02T07:54:19.000Z</time>
      </trkpt>
      <trkpt lat="43.39015172794461" lon="-5.946823675185442">
        <ele>235.8</ele>
        <time>2017-08-02T07:54:25.000Z</time>
      </trkpt>
      <trkpt lat="43.3901781309396" lon="-5.946881761774421">
        <ele>236.6</ele>
        <time>2017-08-02T07:54:29.000Z</time>
      </trkpt>
      <trkpt lat="43.390183579176664" lon="-5.946894586086273">
        <ele>236.8</ele>
        <time>2017-08-02T07:54:30.000Z</time>
      </trkpt>
      <trkpt lat="43.39021258056164" lon="-5.9469569474458694">
        <ele>238</ele>
        <time>2017-08-02T07:54:35.000Z</time>
      </trkpt>
      <trkpt lat="43.39023822918534" lon="-5.947003634646535">
        <ele>238.8</ele>
        <time>2017-08-02T07:54:38.000Z</time>
      </trkpt>
      <trkpt lat="43.390286760404706" lon="-5.9471112582832575">
        <ele>240.8</ele>
        <time>2017-08-02T07:54:46.000Z</time>
      </trkpt>
      <trkpt lat="43.39029346592724" lon="-5.947141768410802">
        <ele>241.2</ele>
        <time>2017-08-02T07:54:48.000Z</time>
      </trkpt>
      <trkpt lat="43.39032255113125" lon="-5.947186276316643">
        <ele>241.8</ele>
        <time>2017-08-02T07:54:51.000Z</time>
      </trkpt>
      <trkpt lat="43.390329675748944" lon="-5.947202621027827">
        <ele>242</ele>
        <time>2017-08-02T07:54:53.000Z</time>
      </trkpt>
      <trkpt lat="43.39034853503108" lon="-5.947248889133334">
        <ele>242.6</ele>
        <time>2017-08-02T07:54:56.000Z</time>
      </trkpt>
      <trkpt lat="43.39038776233792" lon="-5.947300940752029">
        <ele>243.8</ele>
        <time>2017-08-02T07:55:01.000Z</time>
      </trkpt>
      <trkpt lat="43.39039455167949" lon="-5.947314100340009">
        <ele>244.2</ele>
        <time>2017-08-02T07:55:02.000Z</time>
      </trkpt>
      <trkpt lat="43.39045029133558" lon="-5.947406301274896">
        <ele>245.8</ele>
        <time>2017-08-02T07:55:09.000Z</time>
      </trkpt>
      <trkpt lat="43.3904994931072" lon="-5.9475241508334875">
        <ele>247.6</ele>
        <time>2017-08-02T07:55:17.000Z</time>
      </trkpt>
      <trkpt lat="43.39053855277598" lon="-5.9476737678050995">
        <ele>249</ele>
        <time>2017-08-02T07:55:26.000Z</time>
      </trkpt>
      <trkpt lat="43.39056059718132" lon="-5.947808129712939">
        <ele>248.8</ele>
        <time>2017-08-02T07:55:34.000Z</time>
      </trkpt>
      <trkpt lat="43.390578869730234" lon="-5.947902090847492">
        <ele>249</ele>
        <time>2017-08-02T07:55:40.000Z</time>
      </trkpt>
      <trkpt lat="43.390577444806695" lon="-5.947898821905255">
        <ele>249</ele>
        <time>2017-08-02T07:55:42.000Z</time>
      </trkpt>
      <trkpt lat="43.39058993384242" lon="-5.947935534641147">
        <ele>249</ele>
        <time>2017-08-02T07:55:52.000Z</time>
      </trkpt>
      <trkpt lat="43.39063988998532" lon="-5.947963194921613">
        <ele>249.8</ele>
        <time>2017-08-02T07:55:58.000Z</time>
      </trkpt>
      <trkpt lat="43.39065791107714" lon="-5.947977192699909">
        <ele>250.2</ele>
        <time>2017-08-02T07:56:04.000Z</time>
      </trkpt>
      <trkpt lat="43.39069152250886" lon="-5.94803343527019">
        <ele>250.4</ele>
        <time>2017-08-02T07:56:10.000Z</time>
      </trkpt>
      <trkpt lat="43.39074240066111" lon="-5.948117338120937">
        <ele>250.6</ele>
        <time>2017-08-02T07:56:17.000Z</time>
      </trkpt>
      <trkpt lat="43.390805181115866" lon="-5.94820249825716">
        <ele>250.8</ele>
        <time>2017-08-02T07:56:24.000Z</time>
      </trkpt>
      <trkpt lat="43.39088547974825" lon="-5.948280617594719">
        <ele>252</ele>
        <time>2017-08-02T07:56:32.000Z</time>
      </trkpt>
      <trkpt lat="43.390956642106175" lon="-5.948315653949976">
        <ele>253.2</ele>
        <time>2017-08-02T07:56:38.000Z</time>
      </trkpt>
      <trkpt lat="43.39105797931552" lon="-5.948364268988371">
        <ele>254</ele>
        <time>2017-08-02T07:56:46.000Z</time>
      </trkpt>
      <trkpt lat="43.391098883002996" lon="-5.948376590386033">
        <ele>254.4</ele>
        <time>2017-08-02T07:56:49.000Z</time>
      </trkpt>
      <trkpt lat="43.39113961905241" lon="-5.948389582335949">
        <ele>254.6</ele>
        <time>2017-08-02T07:56:52.000Z</time>
      </trkpt>
      <trkpt lat="43.3912524394691" lon="-5.94840575940907">
        <ele>255.6</ele>
        <time>2017-08-02T07:57:00.000Z</time>
      </trkpt>
      <trkpt lat="43.391345059499145" lon="-5.948418499901891">
        <ele>256.4</ele>
        <time>2017-08-02T07:57:07.000Z</time>
      </trkpt>
      <trkpt lat="43.39147238060832" lon="-5.948432246223092">
        <ele>256</ele>
        <time>2017-08-02T07:57:17.000Z</time>
      </trkpt>
      <trkpt lat="43.39158562012017" lon="-5.948458816856146">
        <ele>255.2</ele>
        <time>2017-08-02T07:57:26.000Z</time>
      </trkpt>
      <trkpt lat="43.39172777719796" lon="-5.948505587875843">
        <ele>254.4</ele>
        <time>2017-08-02T07:57:37.000Z</time>
      </trkpt>
      <trkpt lat="43.39184721931815" lon="-5.948536517098546">
        <ele>254</ele>
        <time>2017-08-02T07:57:46.000Z</time>
      </trkpt>
      <trkpt lat="43.39197512716055" lon="-5.948549760505557">
        <ele>252.6</ele>
        <time>2017-08-02T07:57:56.000Z</time>
      </trkpt>
      <trkpt lat="43.39202558621764" lon="-5.94855185598135">
        <ele>252.2</ele>
        <time>2017-08-02T07:58:00.000Z</time>
      </trkpt>
      <trkpt lat="43.392039416357875" lon="-5.948554705828428">
        <ele>252</ele>
        <time>2017-08-02T07:58:01.000Z</time>
      </trkpt>
      <trkpt lat="43.39207143522799" lon="-5.9485407918691635">
        <ele>251.8</ele>
        <time>2017-08-02T07:58:04.000Z</time>
      </trkpt>
      <trkpt lat="43.392085852101445" lon="-5.948539115488529">
        <ele>251.6</ele>
        <time>2017-08-02T07:58:05.000Z</time>
      </trkpt>
      <trkpt lat="43.39213748462498" lon="-5.948531152680516">
        <ele>251.4</ele>
        <time>2017-08-02T07:58:11.000Z</time>
      </trkpt>
      <trkpt lat="43.39220764115453" lon="-5.948530565947294">
        <ele>251</ele>
        <time>2017-08-02T07:58:18.000Z</time>
      </trkpt>
      <trkpt lat="43.39221593923867" lon="-5.948529224842787">
        <ele>251</ele>
        <time>2017-08-02T07:58:20.000Z</time>
      </trkpt>
      <trkpt lat="43.39221007190645" lon="-5.948491003364325">
        <ele>251.4</ele>
        <time>2017-08-02T07:58:23.000Z</time>
      </trkpt>
      <trkpt lat="43.392260782420635" lon="-5.948497038334608">
        <ele>250.8</ele>
        <time>2017-08-02T07:58:27.000Z</time>
      </trkpt>
      <trkpt lat="43.39227419346571" lon="-5.948500642552972">
        <ele>250.6</ele>
        <time>2017-08-02T07:58:28.000Z</time>
      </trkpt>
      <trkpt lat="43.392331106588244" lon="-5.94849762506783">
        <ele>250</ele>
        <time>2017-08-02T07:58:32.000Z</time>
      </trkpt>
      <trkpt lat="43.39235784485936" lon="-5.948510030284524">
        <ele>249.6</ele>
        <time>2017-08-02T07:58:34.000Z</time>
      </trkpt>
      <trkpt lat="43.3923835773021" lon="-5.948519753292203">
        <ele>249.2</ele>
        <time>2017-08-02T07:58:36.000Z</time>
      </trkpt>
      <trkpt lat="43.39243361726403" lon="-5.948513634502888">
        <ele>248.8</ele>
        <time>2017-08-02T07:58:40.000Z</time>
      </trkpt>
      <trkpt lat="43.39255574159324" lon="-5.948515394702554">
        <ele>247.8</ele>
        <time>2017-08-02T07:58:50.000Z</time>
      </trkpt>
      <trkpt lat="43.39268960058689" lon="-5.948541462421417">
        <ele>246.6</ele>
        <time>2017-08-02T07:59:02.000Z</time>
      </trkpt>
      <trkpt lat="43.392769480124116" lon="-5.948577001690865">
        <ele>246.2</ele>
        <time>2017-08-02T07:59:08.000Z</time>
      </trkpt>
      <trkpt lat="43.39282496832311" lon="-5.948614049702883">
        <ele>245.8</ele>
        <time>2017-08-02T07:59:13.000Z</time>
      </trkpt>
      <trkpt lat="43.39284391142428" lon="-5.948628047481179">
        <ele>245.8</ele>
        <time>2017-08-02T07:59:15.000Z</time>
      </trkpt>
      <trkpt lat="43.39285355061293" lon="-5.948636680841446">
        <ele>245.8</ele>
        <time>2017-08-02T07:59:17.000Z</time>
      </trkpt>
      <trkpt lat="43.39286293834448" lon="-5.948646320030093">
        <ele>245.6</ele>
        <time>2017-08-02T07:59:18.000Z</time>
      </trkpt>
      <trkpt lat="43.39286746457219" lon="-5.9486474096775055">
        <ele>245.6</ele>
        <time>2017-08-02T07:59:19.000Z</time>
      </trkpt>
      <trkpt lat="43.39292848482728" lon="-5.948695186525583">
        <ele>245.2</ele>
        <time>2017-08-02T07:59:26.000Z</time>
      </trkpt>
      <trkpt lat="43.392953211441636" lon="-5.94873558729887">
        <ele>245</ele>
        <time>2017-08-02T07:59:32.000Z</time>
      </trkpt>
      <trkpt lat="43.393013309687376" lon="-5.948782609775662">
        <ele>244.8</ele>
        <time>2017-08-02T07:59:38.000Z</time>
      </trkpt>
      <trkpt lat="43.393088076263666" lon="-5.948877576738596">
        <ele>245.2</ele>
        <time>2017-08-02T07:59:46.000Z</time>
      </trkpt>
      <trkpt lat="43.39309168048203" lon="-5.94898821786046">
        <ele>244.8</ele>
        <time>2017-08-02T07:59:54.000Z</time>
      </trkpt>
      <trkpt lat="43.39310961775482" lon="-5.948992660269141">
        <ele>245</ele>
        <time>2017-08-02T07:59:58.000Z</time>
      </trkpt>
      <trkpt lat="43.39312302879989" lon="-5.948978075757623">
        <ele>245.2</ele>
        <time>2017-08-02T08:00:00.000Z</time>
      </trkpt>
      <trkpt lat="43.39313141070306" lon="-5.948967933654785">
        <ele>245.4</ele>
        <time>2017-08-02T08:00:03.000Z</time>
      </trkpt>
      <trkpt lat="43.39314264245331" lon="-5.948951672762632">
        <ele>245.4</ele>
        <time>2017-08-02T08:00:09.000Z</time>
      </trkpt>
      <trkpt lat="43.39314482174814" lon="-5.948963072150946">
        <ele>245.4</ele>
        <time>2017-08-02T08:00:26.000Z</time>
      </trkpt>
      <trkpt lat="43.393107606098056" lon="-5.949015459045768">
        <ele>244.8</ele>
        <time>2017-08-02T08:00:40.000Z</time>
      </trkpt>
      <trkpt lat="43.39303392916918" lon="-5.9490912314504385">
        <ele>244</ele>
        <time>2017-08-02T08:00:49.000Z</time>
      </trkpt>
      <trkpt lat="43.39302730746567" lon="-5.949127105996013">
        <ele>244</ele>
        <time>2017-08-02T08:00:56.000Z</time>
      </trkpt>
      <trkpt lat="43.39304331690073" lon="-5.949227353557944">
        <ele>244.2</ele>
        <time>2017-08-02T08:01:03.000Z</time>
      </trkpt>
      <trkpt lat="43.393047424033284" lon="-5.949233556166291">
        <ele>244.2</ele>
        <time>2017-08-02T08:01:04.000Z</time>
      </trkpt>
      <trkpt lat="43.39304340071976" lon="-5.9492449555546045">
        <ele>244.2</ele>
        <time>2017-08-02T08:01:06.000Z</time>
      </trkpt>
      <trkpt lat="43.393043568357825" lon="-5.949248811230063">
        <ele>244.2</ele>
        <time>2017-08-02T08:01:08.000Z</time>
      </trkpt>
      <trkpt lat="43.39304625056684" lon="-5.94926867634058">
        <ele>244.2</ele>
        <time>2017-08-02T08:01:13.000Z</time>
      </trkpt>
      <trkpt lat="43.39303988032043" lon="-5.949253086000681">
        <ele>244.2</ele>
        <time>2017-08-02T08:01:19.000Z</time>
      </trkpt>
      <trkpt lat="43.39302521198988" lon="-5.949239255860448">
        <ele>244</ele>
        <time>2017-08-02T08:02:24.000Z</time>
      </trkpt>
      <trkpt lat="43.39301238767803" lon="-5.949255600571632">
        <ele>244</ele>
        <time>2017-08-02T08:02:29.000Z</time>
      </trkpt>
      <trkpt lat="43.393026972189546" lon="-5.949237160384655">
        <ele>244</ele>
        <time>2017-08-02T08:02:37.000Z</time>
      </trkpt>
      <trkpt lat="43.39302512817085" lon="-5.949236992746592">
        <ele>244</ele>
        <time>2017-08-02T08:02:42.000Z</time>
      </trkpt>
      <trkpt lat="43.39301926083863" lon="-5.949267419055104">
        <ele>244</ele>
        <time>2017-08-02T08:03:16.000Z</time>
      </trkpt>
      <trkpt lat="43.39301724918187" lon="-5.949268760159612">
        <ele>244</ele>
        <time>2017-08-02T08:03:25.000Z</time>
      </trkpt>
      <trkpt lat="43.39302822947502" lon="-5.949259204789996">
        <ele>244</ele>
        <time>2017-08-02T08:03:34.000Z</time>
      </trkpt>
      <trkpt lat="43.39302630163729" lon="-5.9492552652955055">
        <ele>244</ele>
        <time>2017-08-02T08:03:38.000Z</time>
      </trkpt>
      <trkpt lat="43.393029822036624" lon="-5.949253337457776">
        <ele>244</ele>
        <time>2017-08-02T08:03:46.000Z</time>
      </trkpt>
      <trkpt lat="43.39307164773345" lon="-5.949245290830731">
        <ele>244.4</ele>
        <time>2017-08-02T08:17:10.000Z</time>
      </trkpt>
      <trkpt lat="43.39309151284397" lon="-5.94926574267447">
        <ele>244.8</ele>
        <time>2017-08-02T08:19:50.000Z</time>
      </trkpt>
      <trkpt lat="43.39310131967068" lon="-5.9492638148367405">
        <ele>244.8</ele>
        <time>2017-08-02T08:20:00.000Z</time>
      </trkpt>
      <trkpt lat="43.39309419505298" lon="-5.949265407398343">
        <ele>244.8</ele>
        <time>2017-08-02T08:20:08.000Z</time>
      </trkpt>
      <trkpt lat="43.39308589696884" lon="-5.949247889220715">
        <ele>244.6</ele>
        <time>2017-08-02T08:21:24.000Z</time>
      </trkpt>
      <trkpt lat="43.3930881600827" lon="-5.949203297495842">
        <ele>244.6</ele>
        <time>2017-08-02T08:21:54.000Z</time>
      </trkpt>
      <trkpt lat="43.393072821199894" lon="-5.949116460978985">
        <ele>244.6</ele>
        <time>2017-08-02T08:21:59.000Z</time>
      </trkpt>
      <trkpt lat="43.39307994581759" lon="-5.949068935588002">
        <ele>244.6</ele>
        <time>2017-08-02T08:22:02.000Z</time>
      </trkpt>
      <trkpt lat="43.3931122161448" lon="-5.949021158739924">
        <ele>245</ele>
        <time>2017-08-02T08:22:06.000Z</time>
      </trkpt>
      <trkpt lat="43.39314306154847" lon="-5.948968352749944">
        <ele>245.4</ele>
        <time>2017-08-02T08:22:10.000Z</time>
      </trkpt>
      <trkpt lat="43.39316368103027" lon="-5.948957372456789">
        <ele>245.6</ele>
        <time>2017-08-02T08:22:12.000Z</time>
      </trkpt>
      <trkpt lat="43.393190586939454" lon="-5.948988888412714">
        <ele>245.8</ele>
        <time>2017-08-02T08:22:15.000Z</time>
      </trkpt>
      <trkpt lat="43.393280021846294" lon="-5.949118137359619">
        <ele>246.8</ele>
        <time>2017-08-02T08:22:24.000Z</time>
      </trkpt>
      <trkpt lat="43.39335026219487" lon="-5.949225258082151">
        <ele>247.6</ele>
        <time>2017-08-02T08:22:32.000Z</time>
      </trkpt>
      <trkpt lat="43.39340784586966" lon="-5.94930631108582">
        <ele>248.4</ele>
        <time>2017-08-02T08:22:39.000Z</time>
      </trkpt>
      <trkpt lat="43.39347615838051" lon="-5.949401780962944">
        <ele>249</ele>
        <time>2017-08-02T08:22:46.000Z</time>
      </trkpt>
      <trkpt lat="43.39355637319386" lon="-5.9495109133422375">
        <ele>249.8</ele>
        <time>2017-08-02T08:22:55.000Z</time>
      </trkpt>
      <trkpt lat="43.39361630380154" lon="-5.949601521715522">
        <ele>249.8</ele>
        <time>2017-08-02T08:23:02.000Z</time>
      </trkpt>
      <trkpt lat="43.39366290718317" lon="-5.949702523648739">
        <ele>249.4</ele>
        <time>2017-08-02T08:23:09.000Z</time>
      </trkpt>
      <trkpt lat="43.393702721223235" lon="-5.949801933020353">
        <ele>248.4</ele>
        <time>2017-08-02T08:23:15.000Z</time>
      </trkpt>
      <trkpt lat="43.39375033043325" lon="-5.949927074834704">
        <ele>247.4</ele>
        <time>2017-08-02T08:23:23.000Z</time>
      </trkpt>
      <trkpt lat="43.393781343474984" lon="-5.950038889423013">
        <ele>247</ele>
        <time>2017-08-02T08:23:30.000Z</time>
      </trkpt>
      <trkpt lat="43.3938287012279" lon="-5.950150201097131">
        <ele>246.8</ele>
        <time>2017-08-02T08:23:37.000Z</time>
      </trkpt>
      <trkpt lat="43.39384362101555" lon="-5.950182555243373">
        <ele>246.8</ele>
        <time>2017-08-02T08:23:39.000Z</time>
      </trkpt>
      <trkpt lat="43.3938477281481" lon="-5.950200157240033">
        <ele>246.6</ele>
        <time>2017-08-02T08:23:40.000Z</time>
      </trkpt>
      <trkpt lat="43.393865497782826" lon="-5.950233181938529">
        <ele>246.6</ele>
        <time>2017-08-02T08:23:42.000Z</time>
      </trkpt>
      <trkpt lat="43.3938754722476" lon="-5.95024885609746">
        <ele>246.4</ele>
        <time>2017-08-02T08:23:43.000Z</time>
      </trkpt>
      <trkpt lat="43.39390539564192" lon="-5.95036905258894">
        <ele>246</ele>
        <time>2017-08-02T08:23:50.000Z</time>
      </trkpt>
      <trkpt lat="43.39395493268967" lon="-5.950508946552873">
        <ele>246</ele>
        <time>2017-08-02T08:23:59.000Z</time>
      </trkpt>
      <trkpt lat="43.39403288438916" lon="-5.950703239068389">
        <ele>246.2</ele>
        <time>2017-08-02T08:24:11.000Z</time>
      </trkpt>
      <trkpt lat="43.39409432373941" lon="-5.950841372832656">
        <ele>246.2</ele>
        <time>2017-08-02T08:24:20.000Z</time>
      </trkpt>
      <trkpt lat="43.39414805173874" lon="-5.950966347008944">
        <ele>246.2</ele>
        <time>2017-08-02T08:24:28.000Z</time>
      </trkpt>
      <trkpt lat="43.394202115014195" lon="-5.9510741382837296">
        <ele>246.8</ele>
        <time>2017-08-02T08:24:35.000Z</time>
      </trkpt>
      <trkpt lat="43.394205551594496" lon="-5.951092159375548">
        <ele>246.8</ele>
        <time>2017-08-02T08:24:36.000Z</time>
      </trkpt>
      <trkpt lat="43.394242096692324" lon="-5.951166758313775">
        <ele>246.8</ele>
        <time>2017-08-02T08:24:41.000Z</time>
      </trkpt>
      <trkpt lat="43.394286688417196" lon="-5.951270945370197">
        <ele>246.2</ele>
        <time>2017-08-02T08:24:48.000Z</time>
      </trkpt>
      <trkpt lat="43.39431468397379" lon="-5.951330289244652">
        <ele>246</ele>
        <time>2017-08-02T08:24:52.000Z</time>
      </trkpt>
      <trkpt lat="43.394342847168446" lon="-5.951391141861677">
        <ele>245.6</ele>
        <time>2017-08-02T08:24:56.000Z</time>
      </trkpt>
      <trkpt lat="43.39439447969198" lon="-5.951505722478032">
        <ele>245</ele>
        <time>2017-08-02T08:25:04.000Z</time>
      </trkpt>
      <trkpt lat="43.39442859403789" lon="-5.951595241203904">
        <ele>244.8</ele>
        <time>2017-08-02T08:25:10.000Z</time>
      </trkpt>
      <trkpt lat="43.3944867644459" lon="-5.9516893699765205">
        <ele>244.6</ele>
        <time>2017-08-02T08:25:17.000Z</time>
      </trkpt>
      <trkpt lat="43.3945747744292" lon="-5.951807219535112">
        <ele>244</ele>
        <time>2017-08-02T08:25:27.000Z</time>
      </trkpt>
      <trkpt lat="43.39465859346092" lon="-5.9518722631037235">
        <ele>244.2</ele>
        <time>2017-08-02T08:25:35.000Z</time>
      </trkpt>
      <trkpt lat="43.39473336003721" lon="-5.951941665261984">
        <ele>244.6</ele>
        <time>2017-08-02T08:25:42.000Z</time>
      </trkpt>
      <trkpt lat="43.39481424540281" lon="-5.952037051320076">
        <ele>244.8</ele>
        <time>2017-08-02T08:25:50.000Z</time>
      </trkpt>
      <trkpt lat="43.39495145715773" lon="-5.952151045203209">
        <ele>245.8</ele>
        <time>2017-08-02T08:26:02.000Z</time>
      </trkpt>
      <trkpt lat="43.395043071359396" lon="-5.9522242192178965">
        <ele>246.4</ele>
        <time>2017-08-02T08:26:10.000Z</time>
      </trkpt>
      <trkpt lat="43.395194532349706" lon="-5.95232262276113">
        <ele>246.2</ele>
        <time>2017-08-02T08:26:22.000Z</time>
      </trkpt>
      <trkpt lat="43.395267790183425" lon="-5.952342823147774">
        <ele>245.8</ele>
        <time>2017-08-02T08:26:28.000Z</time>
      </trkpt>
      <trkpt lat="43.39535353705287" lon="-5.9523705672472715">
        <ele>245.8</ele>
        <time>2017-08-02T08:26:35.000Z</time>
      </trkpt>
      <trkpt lat="43.39540743269026" lon="-5.952381631359458">
        <ele>245.8</ele>
        <time>2017-08-02T08:26:40.000Z</time>
      </trkpt>
      <trkpt lat="43.395479852333665" lon="-5.95240225084126">
        <ele>245.8</ele>
        <time>2017-08-02T08:26:46.000Z</time>
      </trkpt>
      <trkpt lat="43.395560486242175" lon="-5.95243158750236">
        <ele>246.4</ele>
        <time>2017-08-02T08:26:52.000Z</time>
      </trkpt>
      <trkpt lat="43.39567506685853" lon="-5.952434604987502">
        <ele>246.8</ele>
        <time>2017-08-02T08:27:00.000Z</time>
      </trkpt>
      <trkpt lat="43.39576701633632" lon="-5.952401245012879">
        <ele>246.6</ele>
        <time>2017-08-02T08:27:06.000Z</time>
      </trkpt>
      <trkpt lat="43.39587430469692" lon="-5.95234558917582">
        <ele>246.2</ele>
        <time>2017-08-02T08:27:14.000Z</time>
      </trkpt>
      <trkpt lat="43.39596818201244" lon="-5.9523057751357555">
        <ele>246</ele>
        <time>2017-08-02T08:27:21.000Z</time>
      </trkpt>
      <trkpt lat="43.39607278816402" lon="-5.952301919460297">
        <ele>246.4</ele>
        <time>2017-08-02T08:27:29.000Z</time>
      </trkpt>
      <trkpt lat="43.39618359692395" lon="-5.952315330505371">
        <ele>246.4</ele>
        <time>2017-08-02T08:27:37.000Z</time>
      </trkpt>
      <trkpt lat="43.396306559443474" lon="-5.952333016321063">
        <ele>246.8</ele>
        <time>2017-08-02T08:27:46.000Z</time>
      </trkpt>
      <trkpt lat="43.39645181782544" lon="-5.9523499477654696">
        <ele>248</ele>
        <time>2017-08-02T08:27:56.000Z</time>
      </trkpt>
      <trkpt lat="43.39658391661942" lon="-5.952357826754451">
        <ele>249.6</ele>
        <time>2017-08-02T08:28:05.000Z</time>
      </trkpt>
      <trkpt lat="43.396724816411734" lon="-5.952385235577822">
        <ele>250.8</ele>
        <time>2017-08-02T08:28:15.000Z</time>
      </trkpt>
      <trkpt lat="43.396849539130926" lon="-5.952406525611877">
        <ele>251.6</ele>
        <time>2017-08-02T08:28:24.000Z</time>
      </trkpt>
      <trkpt lat="43.39698524214327" lon="-5.95243108458817">
        <ele>251.4</ele>
        <time>2017-08-02T08:28:34.000Z</time>
      </trkpt>
      <trkpt lat="43.39709051884711" lon="-5.952456900849938">
        <ele>250.8</ele>
        <time>2017-08-02T08:28:42.000Z</time>
      </trkpt>
      <trkpt lat="43.39721289463341" lon="-5.952528649941087">
        <ele>248.6</ele>
        <time>2017-08-02T08:28:52.000Z</time>
      </trkpt>
      <trkpt lat="43.39732127264142" lon="-5.952662257477641">
        <ele>247.8</ele>
        <time>2017-08-02T08:29:03.000Z</time>
      </trkpt>
      <trkpt lat="43.397394362837076" lon="-5.952759236097336">
        <ele>247.6</ele>
        <time>2017-08-02T08:29:11.000Z</time>
      </trkpt>
      <trkpt lat="43.39745672419667" lon="-5.952842300757766">
        <ele>247</ele>
        <time>2017-08-02T08:29:19.000Z</time>
      </trkpt>
      <trkpt lat="43.3975363522768" lon="-5.9529501758515835">
        <ele>246.8</ele>
        <time>2017-08-02T08:29:28.000Z</time>
      </trkpt>
      <trkpt lat="43.39761111885309" lon="-5.953030390664935">
        <ele>247</ele>
        <time>2017-08-02T08:29:36.000Z</time>
      </trkpt>
      <trkpt lat="43.39770499616861" lon="-5.953119741752744">
        <ele>246.2</ele>
        <time>2017-08-02T08:29:45.000Z</time>
      </trkpt>
      <trkpt lat="43.39780834503472" lon="-5.953220492228866">
        <ele>244.6</ele>
        <time>2017-08-02T08:29:55.000Z</time>
      </trkpt>
      <trkpt lat="43.39788964949548" lon="-5.953292995691299">
        <ele>242.4</ele>
        <time>2017-08-02T08:30:03.000Z</time>
      </trkpt>
      <trkpt lat="43.39797397144139" lon="-5.953378574922681">
        <ele>241.8</ele>
        <time>2017-08-02T08:30:11.000Z</time>
      </trkpt>
      <trkpt lat="43.39808318763971" lon="-5.95347136259079">
        <ele>241.2</ele>
        <time>2017-08-02T08:30:21.000Z</time>
      </trkpt>
      <trkpt lat="43.398195169866085" lon="-5.953559121116996">
        <ele>240</ele>
        <time>2017-08-02T08:30:31.000Z</time>
      </trkpt>
      <trkpt lat="43.39831645600498" lon="-5.9536136873066425">
        <ele>239</ele>
        <time>2017-08-02T08:30:41.000Z</time>
      </trkpt>
      <trkpt lat="43.39837906882167" lon="-5.953705469146371">
        <ele>239.4</ele>
        <time>2017-08-02T08:30:48.000Z</time>
      </trkpt>
      <trkpt lat="43.398458110168576" lon="-5.953814098611474">
        <ele>238.8</ele>
        <time>2017-08-02T08:30:57.000Z</time>
      </trkpt>
      <trkpt lat="43.39854083955288" lon="-5.953931696712971">
        <ele>238.8</ele>
        <time>2017-08-02T08:31:06.000Z</time>
      </trkpt>
      <trkpt lat="43.3986312802881" lon="-5.954049462452531">
        <ele>239</ele>
        <time>2017-08-02T08:31:15.000Z</time>
      </trkpt>
      <trkpt lat="43.398706801235676" lon="-5.954148788005114">
        <ele>239</ele>
        <time>2017-08-02T08:31:23.000Z</time>
      </trkpt>
      <trkpt lat="43.398793218657374" lon="-5.954265547916293">
        <ele>238.4</ele>
        <time>2017-08-02T08:31:32.000Z</time>
      </trkpt>
      <trkpt lat="43.39886764995754" lon="-5.954360431060195">
        <ele>238.2</ele>
        <time>2017-08-02T08:31:40.000Z</time>
      </trkpt>
      <trkpt lat="43.39895817451179" lon="-5.95449160784483">
        <ele>238.8</ele>
        <time>2017-08-02T08:31:50.000Z</time>
      </trkpt>
      <trkpt lat="43.3990078791976" lon="-5.954622616991401">
        <ele>239.2</ele>
        <time>2017-08-02T08:31:58.000Z</time>
      </trkpt>
      <trkpt lat="43.399049285799265" lon="-5.954733341932297">
        <ele>239.6</ele>
        <time>2017-08-02T08:32:05.000Z</time>
      </trkpt>
      <trkpt lat="43.39907451532781" lon="-5.95479310490191">
        <ele>239.8</ele>
        <time>2017-08-02T08:32:09.000Z</time>
      </trkpt>
      <trkpt lat="43.39908574707806" lon="-5.954818753525615">
        <ele>239.8</ele>
        <time>2017-08-02T08:32:11.000Z</time>
      </trkpt>
      <trkpt lat="43.39909639209509" lon="-5.954878348857164">
        <ele>239.8</ele>
        <time>2017-08-02T08:32:15.000Z</time>
      </trkpt>
      <trkpt lat="43.39911265298724" lon="-5.95493433997035">
        <ele>239.6</ele>
        <time>2017-08-02T08:32:18.000Z</time>
      </trkpt>
      <trkpt lat="43.39915012009442" lon="-5.954989995807409">
        <ele>239.4</ele>
        <time>2017-08-02T08:32:22.000Z</time>
      </trkpt>
      <trkpt lat="43.39916126802564" lon="-5.955014638602734">
        <ele>239.4</ele>
        <time>2017-08-02T08:32:24.000Z</time>
      </trkpt>
      <trkpt lat="43.399199824780226" lon="-5.955103989690542">
        <ele>239</ele>
        <time>2017-08-02T08:32:29.000Z</time>
      </trkpt>
      <trkpt lat="43.39921474456787" lon="-5.95511513762176">
        <ele>239</ele>
        <time>2017-08-02T08:32:30.000Z</time>
      </trkpt>
      <trkpt lat="43.399236872792244" lon="-5.955183617770672">
        <ele>238.8</ele>
        <time>2017-08-02T08:32:34.000Z</time>
      </trkpt>
      <trkpt lat="43.39927526190877" lon="-5.955294594168663">
        <ele>238.4</ele>
        <time>2017-08-02T08:32:41.000Z</time>
      </trkpt>
      <trkpt lat="43.399318093433976" lon="-5.955357374623418">
        <ele>238.2</ele>
        <time>2017-08-02T08:32:47.000Z</time>
      </trkpt>
      <trkpt lat="43.3993720728904" lon="-5.955417137593031">
        <ele>238</ele>
        <time>2017-08-02T08:32:54.000Z</time>
      </trkpt>
      <trkpt lat="43.39945077896118" lon="-5.955493999645114">
        <ele>236.8</ele>
        <time>2017-08-02T08:33:01.000Z</time>
      </trkpt>
      <trkpt lat="43.39952311478555" lon="-5.955594079568982">
        <ele>235</ele>
        <time>2017-08-02T08:33:08.000Z</time>
      </trkpt>
      <trkpt lat="43.39960006065667" lon="-5.9556652419269085">
        <ele>233.4</ele>
        <time>2017-08-02T08:33:15.000Z</time>
      </trkpt>
      <trkpt lat="43.399669881910086" lon="-5.955691393464804">
        <ele>232.2</ele>
        <time>2017-08-02T08:33:21.000Z</time>
      </trkpt>
      <trkpt lat="43.39976149611175" lon="-5.955702289938927">
        <ele>230.2</ele>
        <time>2017-08-02T08:33:28.000Z</time>
      </trkpt>
      <trkpt lat="43.39988915249705" lon="-5.9556911420077085">
        <ele>227</ele>
        <time>2017-08-02T08:33:38.000Z</time>
      </trkpt>
      <trkpt lat="43.399958135560155" lon="-5.9556876216083765">
        <ele>225.4</ele>
        <time>2017-08-02T08:33:45.000Z</time>
      </trkpt>
      <trkpt lat="43.4000145457685" lon="-5.9557306207716465">
        <ele>224.4</ele>
        <time>2017-08-02T08:33:51.000Z</time>
      </trkpt>
      <trkpt lat="43.40001831762493" lon="-5.955748222768307">
        <ele>224.2</ele>
        <time>2017-08-02T08:33:52.000Z</time>
      </trkpt>
      <trkpt lat="43.40004530735314" lon="-5.955831874161959">
        <ele>223.6</ele>
        <time>2017-08-02T08:33:55.000Z</time>
      </trkpt>
      <trkpt lat="43.40005025267601" lon="-5.955912172794342">
        <ele>223.2</ele>
        <time>2017-08-02T08:33:59.000Z</time>
      </trkpt>
      <trkpt lat="43.400079840794206" lon="-5.956053156405687">
        <ele>221.2</ele>
        <time>2017-08-02T08:34:05.000Z</time>
      </trkpt>
      <trkpt lat="43.40008579194546" lon="-5.956131024286151">
        <ele>220</ele>
        <time>2017-08-02T08:34:08.000Z</time>
      </trkpt>
      <trkpt lat="43.40010926127434" lon="-5.956221297383308">
        <ele>218.6</ele>
        <time>2017-08-02T08:34:12.000Z</time>
      </trkpt>
      <trkpt lat="43.400117978453636" lon="-5.956250801682472">
        <ele>218.2</ele>
        <time>2017-08-02T08:34:14.000Z</time>
      </trkpt>
      <trkpt lat="43.40012367814779" lon="-5.956297991797328">
        <ele>217.8</ele>
        <time>2017-08-02T08:34:17.000Z</time>
      </trkpt>
      <trkpt lat="43.400155026465654" lon="-5.956402597948909">
        <ele>216</ele>
        <time>2017-08-02T08:34:24.000Z</time>
      </trkpt>
      <trkpt lat="43.40016357600689" lon="-5.956421792507172">
        <ele>215.6</ele>
        <time>2017-08-02T08:34:25.000Z</time>
      </trkpt>
      <trkpt lat="43.40022384189069" lon="-5.956522291526198">
        <ele>213.4</ele>
        <time>2017-08-02T08:34:30.000Z</time>
      </trkpt>
      <trkpt lat="43.4002286195755" lon="-5.956605188548565">
        <ele>212.4</ele>
        <time>2017-08-02T08:34:35.000Z</time>
      </trkpt>
      <trkpt lat="43.40024068951607" lon="-5.956597561016679">
        <ele>212.2</ele>
        <time>2017-08-02T08:34:37.000Z</time>
      </trkpt>
      <trkpt lat="43.40025099925697" lon="-5.956612145528197">
        <ele>212</ele>
        <time>2017-08-02T08:34:39.000Z</time>
      </trkpt>
      <trkpt lat="43.400292405858636" lon="-5.956724379211664">
        <ele>210.4</ele>
        <time>2017-08-02T08:34:45.000Z</time>
      </trkpt>
      <trkpt lat="43.40029668062925" lon="-5.956800738349557">
        <ele>209.4</ele>
        <time>2017-08-02T08:34:49.000Z</time>
      </trkpt>
      <trkpt lat="43.40028368867934" lon="-5.956822112202644">
        <ele>209.2</ele>
        <time>2017-08-02T08:34:50.000Z</time>
      </trkpt>
      <trkpt lat="43.40028477832675" lon="-5.956840217113495">
        <ele>208.8</ele>
        <time>2017-08-02T08:34:51.000Z</time>
      </trkpt>
      <trkpt lat="43.40027455240488" lon="-5.956942057237029">
        <ele>207</ele>
        <time>2017-08-02T08:34:57.000Z</time>
      </trkpt>
      <trkpt lat="43.40027656406164" lon="-5.956957312300801">
        <ele>206.8</ele>
        <time>2017-08-02T08:34:58.000Z</time>
      </trkpt>
      <trkpt lat="43.40027656406164" lon="-5.956957312300801">
        <ele>206.8</ele>
        <time>2017-08-02T08:34:58.000Z</time>
      </trkpt>
      <trkpt lat="43.400275809690356" lon="-5.957010369747877">
        <ele>205.8</ele>
        <time>2017-08-02T08:35:02.000Z</time>
      </trkpt>
      <trkpt lat="43.4002735465765" lon="-5.9570099506527185">
        <ele>205.8</ele>
        <time>2017-08-02T08:35:04.000Z</time>
      </trkpt>
      <trkpt lat="43.4003081638366" lon="-5.957038281485438">
        <ele>205.2</ele>
        <time>2017-08-02T08:35:44.000Z</time>
      </trkpt>
      <trkpt lat="43.40034889988601" lon="-5.957052614539862">
        <ele>204.8</ele>
        <time>2017-08-02T08:35:48.000Z</time>
      </trkpt>
      <trkpt lat="43.40038536116481" lon="-5.957066947594285">
        <ele>204.6</ele>
        <time>2017-08-02T08:35:51.000Z</time>
      </trkpt>
      <trkpt lat="43.40039131231606" lon="-5.957067785784602">
        <ele>204.6</ele>
        <time>2017-08-02T08:35:52.000Z</time>
      </trkpt>
      <trkpt lat="43.400439927354455" lon="-5.957071306183934">
        <ele>204.4</ele>
        <time>2017-08-02T08:35:57.000Z</time>
      </trkpt>
      <trkpt lat="43.40047881938517" lon="-5.9570821188390255">
        <ele>204</ele>
        <time>2017-08-02T08:36:02.000Z</time>
      </trkpt>
      <trkpt lat="43.40048669837415" lon="-5.957079688087106">
        <ele>204</ele>
        <time>2017-08-02T08:36:03.000Z</time>
      </trkpt>
      <trkpt lat="43.400490721687675" lon="-5.95707843080163">
        <ele>204</ele>
        <time>2017-08-02T08:36:04.000Z</time>
      </trkpt>
      <trkpt lat="43.40050865896046" lon="-5.957119418308139">
        <ele>203.6</ele>
        <time>2017-08-02T08:36:39.000Z</time>
      </trkpt>
      <trkpt lat="43.400533301755786" lon="-5.957187144085765">
        <ele>203.2</ele>
        <time>2017-08-02T08:36:45.000Z</time>
      </trkpt>
      <trkpt lat="43.40056909248233" lon="-5.957302646711469">
        <ele>202</ele>
        <time>2017-08-02T08:36:53.000Z</time>
      </trkpt>
      <trkpt lat="43.400616282597184" lon="-5.957397697493434">
        <ele>201.6</ele>
        <time>2017-08-02T08:37:00.000Z</time>
      </trkpt>
      <trkpt lat="43.40065324679017" lon="-5.957482773810625">
        <ele>201</ele>
        <time>2017-08-02T08:37:06.000Z</time>
      </trkpt>
      <trkpt lat="43.40069834142923" lon="-5.957601796835661">
        <ele>201</ele>
        <time>2017-08-02T08:37:14.000Z</time>
      </trkpt>
      <trkpt lat="43.400748800486326" lon="-5.957735907286406">
        <ele>200.8</ele>
        <time>2017-08-02T08:37:23.000Z</time>
      </trkpt>
      <trkpt lat="43.40078861452639" lon="-5.957835987210274">
        <ele>201</ele>
        <time>2017-08-02T08:37:30.000Z</time>
      </trkpt>
      <trkpt lat="43.400847455486655" lon="-5.957959620282054">
        <ele>200.6</ele>
        <time>2017-08-02T08:37:38.000Z</time>
      </trkpt>
      <trkpt lat="43.400887520983815" lon="-5.958052324131131">
        <ele>199.8</ele>
        <time>2017-08-02T08:37:44.000Z</time>
      </trkpt>
      <trkpt lat="43.4008829947561" lon="-5.958065399900079">
        <ele>199.8</ele>
        <time>2017-08-02T08:37:45.000Z</time>
      </trkpt>
      <trkpt lat="43.40087469667196" lon="-5.958139915019274">
        <ele>199.8</ele>
        <time>2017-08-02T08:37:49.000Z</time>
      </trkpt>
      <trkpt lat="43.400865560397506" lon="-5.958207892253995">
        <ele>200</ele>
        <time>2017-08-02T08:37:53.000Z</time>
      </trkpt>
      <trkpt lat="43.40087058953941" lon="-5.958257596939802">
        <ele>199.8</ele>
        <time>2017-08-02T08:37:56.000Z</time>
      </trkpt>
      <trkpt lat="43.40091216377914" lon="-5.958406878635287">
        <ele>199.2</ele>
        <time>2017-08-02T08:38:06.000Z</time>
      </trkpt>
      <trkpt lat="43.400995060801506" lon="-5.958497989922762">
        <ele>198.8</ele>
        <time>2017-08-02T08:38:15.000Z</time>
      </trkpt>
      <trkpt lat="43.40109723620117" lon="-5.958535373210907">
        <ele>198.6</ele>
        <time>2017-08-02T08:38:24.000Z</time>
      </trkpt>
      <trkpt lat="43.401239309459925" lon="-5.958571415394545">
        <ele>198</ele>
        <time>2017-08-02T08:38:36.000Z</time>
      </trkpt>
      <trkpt lat="43.40134064666927" lon="-5.9585927054286">
        <ele>197.6</ele>
        <time>2017-08-02T08:38:44.000Z</time>
      </trkpt>
      <trkpt lat="43.40144676156342" lon="-5.958632016554475">
        <ele>196.4</ele>
        <time>2017-08-02T08:38:53.000Z</time>
      </trkpt>
      <trkpt lat="43.40156561695039" lon="-5.958706196397543">
        <ele>195.6</ele>
        <time>2017-08-02T08:39:03.000Z</time>
      </trkpt>
      <trkpt lat="43.401681538671255" lon="-5.958806443959475">
        <ele>194.6</ele>
        <time>2017-08-02T08:39:14.000Z</time>
      </trkpt>
      <trkpt lat="43.401756305247545" lon="-5.958889173343778">
        <ele>194</ele>
        <time>2017-08-02T08:39:22.000Z</time>
      </trkpt>
      <trkpt lat="43.401849092915654" lon="-5.958993695676327">
        <ele>193.4</ele>
        <time>2017-08-02T08:39:32.000Z</time>
      </trkpt>
      <trkpt lat="43.401896031573415" lon="-5.959049686789513">
        <ele>192.8</ele>
        <time>2017-08-02T08:39:37.000Z</time>
      </trkpt>
      <trkpt lat="43.40192570351064" lon="-5.959080532193184">
        <ele>192.6</ele>
        <time>2017-08-02T08:39:40.000Z</time>
      </trkpt>
      <trkpt lat="43.40198412537575" lon="-5.959128392860293">
        <ele>192</ele>
        <time>2017-08-02T08:39:46.000Z</time>
      </trkpt>
      <trkpt lat="43.40198957361281" lon="-5.959143564105034">
        <ele>191.8</ele>
        <time>2017-08-02T08:39:47.000Z</time>
      </trkpt>
      <trkpt lat="43.40197457000613" lon="-5.959249511361122">
        <ele>191</ele>
        <time>2017-08-02T08:39:53.000Z</time>
      </trkpt>
      <trkpt lat="43.40196308679879" lon="-5.9592879842966795">
        <ele>190.8</ele>
        <time>2017-08-02T08:39:56.000Z</time>
      </trkpt>
      <trkpt lat="43.40192746371031" lon="-5.95937255769968">
        <ele>190.4</ele>
        <time>2017-08-02T08:40:01.000Z</time>
      </trkpt>
      <trkpt lat="43.40186602436006" lon="-5.959481354802847">
        <ele>189.8</ele>
        <time>2017-08-02T08:40:09.000Z</time>
      </trkpt>
      <trkpt lat="43.401802657172084" lon="-5.959539441391826">
        <ele>189.6</ele>
        <time>2017-08-02T08:40:16.000Z</time>
      </trkpt>
      <trkpt lat="43.40171313844621" lon="-5.959621919319034">
        <ele>189.4</ele>
        <time>2017-08-02T08:40:24.000Z</time>
      </trkpt>
      <trkpt lat="43.40163040906191" lon="-5.95964077860117">
        <ele>189.6</ele>
        <time>2017-08-02T08:40:32.000Z</time>
      </trkpt>
      <trkpt lat="43.40152152813971" lon="-5.959586463868618">
        <ele>190.4</ele>
        <time>2017-08-02T08:40:41.000Z</time>
      </trkpt>
      <trkpt lat="43.40144139714539" lon="-5.959549332037568">
        <ele>190.8</ele>
        <time>2017-08-02T08:40:48.000Z</time>
      </trkpt>
      <trkpt lat="43.40134056285024" lon="-5.959504572674632">
        <ele>191.6</ele>
        <time>2017-08-02T08:40:57.000Z</time>
      </trkpt>
      <trkpt lat="43.401257833465934" lon="-5.959467440843582">
        <ele>191.8</ele>
        <time>2017-08-02T08:41:04.000Z</time>
      </trkpt>
      <trkpt lat="43.40115029364824" lon="-5.959459561854601">
        <ele>191.2</ele>
        <time>2017-08-02T08:41:13.000Z</time>
      </trkpt>
      <trkpt lat="43.401055661961436" lon="-5.959521420300007">
        <ele>190</ele>
        <time>2017-08-02T08:41:21.000Z</time>
      </trkpt>
      <trkpt lat="43.400936890393496" lon="-5.959577579051256">
        <ele>187.8</ele>
        <time>2017-08-02T08:41:30.000Z</time>
      </trkpt>
      <trkpt lat="43.40086279436946" lon="-5.959669444710016">
        <ele>185.8</ele>
        <time>2017-08-02T08:41:37.000Z</time>
      </trkpt>
      <trkpt lat="43.400854831561446" lon="-5.959825348109007">
        <ele>184</ele>
        <time>2017-08-02T08:41:45.000Z</time>
      </trkpt>
      <trkpt lat="43.40080847963691" lon="-5.959964152425528">
        <ele>181</ele>
        <time>2017-08-02T08:41:53.000Z</time>
      </trkpt>
      <trkpt lat="43.400689791888" lon="-5.960088288411498">
        <ele>176.6</ele>
        <time>2017-08-02T08:42:03.000Z</time>
      </trkpt>
      <trkpt lat="43.400605637580156" lon="-5.960206054151058">
        <ele>172.4</ele>
        <time>2017-08-02T08:42:11.000Z</time>
      </trkpt>
      <trkpt lat="43.40055610053241" lon="-5.960347540676594">
        <ele>168</ele>
        <time>2017-08-02T08:42:19.000Z</time>
      </trkpt>
      <trkpt lat="43.40053204447031" lon="-5.960481064394116">
        <ele>165.6</ele>
        <time>2017-08-02T08:42:26.000Z</time>
      </trkpt>
      <trkpt lat="43.40051779523492" lon="-5.960631184279919">
        <ele>164.4</ele>
        <time>2017-08-02T08:42:34.000Z</time>
      </trkpt>
      <trkpt lat="43.4005050547421" lon="-5.960806952789426">
        <ele>163</ele>
        <time>2017-08-02T08:42:43.000Z</time>
      </trkpt>
      <trkpt lat="43.40049407444894" lon="-5.960976267233491">
        <ele>161.8</ele>
        <time>2017-08-02T08:42:52.000Z</time>
      </trkpt>
      <trkpt lat="43.40049834921956" lon="-5.961093446239829">
        <ele>161.4</ele>
        <time>2017-08-02T08:42:59.000Z</time>
      </trkpt>
      <trkpt lat="43.40050262399018" lon="-5.961258988827467">
        <ele>160.6</ele>
        <time>2017-08-02T08:43:08.000Z</time>
      </trkpt>
      <trkpt lat="43.40049725957215" lon="-5.961424531415105">
        <ele>159.4</ele>
        <time>2017-08-02T08:43:17.000Z</time>
      </trkpt>
      <trkpt lat="43.400495667010546" lon="-5.961463171988726">
        <ele>159.2</ele>
        <time>2017-08-02T08:43:23.000Z</time>
      </trkpt>
      <trkpt lat="43.40051134116948" lon="-5.961461998522282">
        <ele>159.2</ele>
        <time>2017-08-02T08:43:51.000Z</time>
      </trkpt>
      <trkpt lat="43.40049918740988" lon="-5.961512625217438">
        <ele>158.8</ele>
        <time>2017-08-02T08:44:15.000Z</time>
      </trkpt>
      <trkpt lat="43.400448225438595" lon="-5.961654195562005">
        <ele>157.2</ele>
        <time>2017-08-02T08:44:25.000Z</time>
      </trkpt>
      <trkpt lat="43.400387121364474" lon="-5.961791910231113">
        <ele>155.6</ele>
        <time>2017-08-02T08:44:35.000Z</time>
      </trkpt>
      <trkpt lat="43.40033104643226" lon="-5.961944963783026">
        <ele>154.2</ele>
        <time>2017-08-02T08:44:45.000Z</time>
      </trkpt>
      <trkpt lat="43.400273295119405" lon="-5.9621293656528">
        <ele>152.8</ele>
        <time>2017-08-02T08:44:56.000Z</time>
      </trkpt>
      <trkpt lat="43.40025359764695" lon="-5.962305720895529">
        <ele>152.2</ele>
        <time>2017-08-02T08:45:06.000Z</time>
      </trkpt>
      <trkpt lat="43.40025351382792" lon="-5.962482914328575">
        <ele>152</ele>
        <time>2017-08-02T08:45:16.000Z</time>
      </trkpt>
      <trkpt lat="43.400262985378504" lon="-5.962635045871139">
        <ele>152</ele>
        <time>2017-08-02T08:45:25.000Z</time>
      </trkpt>
      <trkpt lat="43.40027564205229" lon="-5.962784914299846">
        <ele>152</ele>
        <time>2017-08-02T08:45:34.000Z</time>
      </trkpt>
      <trkpt lat="43.400296261534095" lon="-5.962933441624045">
        <ele>151.8</ele>
        <time>2017-08-02T08:45:43.000Z</time>
      </trkpt>
      <trkpt lat="43.400331968441606" lon="-5.963081885129213">
        <ele>151</ele>
        <time>2017-08-02T08:45:52.000Z</time>
      </trkpt>
      <trkpt lat="43.40037178248167" lon="-5.963206272572279">
        <ele>150.4</ele>
        <time>2017-08-02T08:46:00.000Z</time>
      </trkpt>
      <trkpt lat="43.400404807180166" lon="-5.963340802118182">
        <ele>150.2</ele>
        <time>2017-08-02T08:46:08.000Z</time>
      </trkpt>
      <trkpt lat="43.400446297600865" lon="-5.96349511295557">
        <ele>150.8</ele>
        <time>2017-08-02T08:46:17.000Z</time>
      </trkpt>
      <trkpt lat="43.400454595685005" lon="-5.9636602364480495">
        <ele>150.2</ele>
        <time>2017-08-02T08:46:26.000Z</time>
      </trkpt>
      <trkpt lat="43.40040799230337" lon="-5.96383516676724">
        <ele>149.4</ele>
        <time>2017-08-02T08:46:36.000Z</time>
      </trkpt>
      <trkpt lat="43.40036164037883" lon="-5.964030800387263">
        <ele>147.4</ele>
        <time>2017-08-02T08:46:48.000Z</time>
      </trkpt>
      <trkpt lat="43.40037262067199" lon="-5.964177064597607">
        <ele>145.8</ele>
        <time>2017-08-02T08:46:56.000Z</time>
      </trkpt>
      <trkpt lat="43.40041997842491" lon="-5.964320143684745">
        <ele>143.4</ele>
        <time>2017-08-02T08:47:05.000Z</time>
      </trkpt>
      <trkpt lat="43.400489296764135" lon="-5.9644421841949224">
        <ele>141.2</ele>
        <time>2017-08-02T08:47:14.000Z</time>
      </trkpt>
      <trkpt lat="43.40058476664126" lon="-5.964586436748505">
        <ele>139.4</ele>
        <time>2017-08-02T08:47:25.000Z</time>
      </trkpt>
      <trkpt lat="43.40064939111471" lon="-5.964717948809266">
        <ele>138.8</ele>
        <time>2017-08-02T08:47:34.000Z</time>
      </trkpt>
      <trkpt lat="43.40065232478082" lon="-5.964709734544158">
        <ele>139</ele>
        <time>2017-08-02T08:47:39.000Z</time>
      </trkpt>
      <trkpt lat="43.40063547715545" lon="-5.9646419249475">
        <ele>139.2</ele>
        <time>2017-08-02T08:48:07.000Z</time>
      </trkpt>
      <trkpt lat="43.40060672722757" lon="-5.964577971026301">
        <ele>139.6</ele>
        <time>2017-08-02T08:48:15.000Z</time>
      </trkpt>
      <trkpt lat="43.4006120916456" lon="-5.964659946039319">
        <ele>139</ele>
        <time>2017-08-02T08:48:58.000Z</time>
      </trkpt>
      <trkpt lat="43.40062843635678" lon="-5.964691881090403">
        <ele>138.8</ele>
        <time>2017-08-02T08:49:05.000Z</time>
      </trkpt>
      <trkpt lat="43.40058426372707" lon="-5.964631866663694">
        <ele>139</ele>
        <time>2017-08-02T08:50:38.000Z</time>
      </trkpt>
      <trkpt lat="43.400590466335416" lon="-5.964604206383228">
        <ele>139.2</ele>
        <time>2017-08-02T08:50:43.000Z</time>
      </trkpt>
      <trkpt lat="43.40057454071939" lon="-5.964576294645667">
        <ele>139.4</ele>
        <time>2017-08-02T08:50:49.000Z</time>
      </trkpt>
      <trkpt lat="43.40058979578316" lon="-5.964594567194581">
        <ele>139.2</ele>
        <time>2017-08-02T08:50:55.000Z</time>
      </trkpt>
      <trkpt lat="43.40061619877815" lon="-5.964645026251674">
        <ele>139.2</ele>
        <time>2017-08-02T08:51:03.000Z</time>
      </trkpt>
      <trkpt lat="43.400628520175815" lon="-5.964694060385227">
        <ele>138.8</ele>
        <time>2017-08-02T08:51:13.000Z</time>
      </trkpt>
      <trkpt lat="43.40064880438149" lon="-5.964750051498413">
        <ele>138.4</ele>
        <time>2017-08-02T08:51:37.000Z</time>
      </trkpt>
      <trkpt lat="43.40067705139518" lon="-5.964834792539477">
        <ele>137.2</ele>
        <time>2017-08-02T08:51:46.000Z</time>
      </trkpt>
      <trkpt lat="43.400711584836245" lon="-5.964944763109088">
        <ele>136</ele>
        <time>2017-08-02T08:51:55.000Z</time>
      </trkpt>
      <trkpt lat="43.40075433254242" lon="-5.965080047026277">
        <ele>134.6</ele>
        <time>2017-08-02T08:52:05.000Z</time>
      </trkpt>
      <trkpt lat="43.400784842669964" lon="-5.965200494974852">
        <ele>133.6</ele>
        <time>2017-08-02T08:52:14.000Z</time>
      </trkpt>
      <trkpt lat="43.40078861452639" lon="-5.965216588228941">
        <ele>133.4</ele>
        <time>2017-08-02T08:52:15.000Z</time>
      </trkpt>
      <trkpt lat="43.40081292204559" lon="-5.965312225744128">
        <ele>132.6</ele>
        <time>2017-08-02T08:52:22.000Z</time>
      </trkpt>
      <trkpt lat="43.40084929950535" lon="-5.965462597087026">
        <ele>132.2</ele>
        <time>2017-08-02T08:52:33.000Z</time>
      </trkpt>
      <trkpt lat="43.40088416822255" lon="-5.965594779700041">
        <ele>132.6</ele>
        <time>2017-08-02T08:52:42.000Z</time>
      </trkpt>
      <trkpt lat="43.40094150044024" lon="-5.965748587623239">
        <ele>133.2</ele>
        <time>2017-08-02T08:52:53.000Z</time>
      </trkpt>
      <trkpt lat="43.40096404775977" lon="-5.965798627585173">
        <ele>133.6</ele>
        <time>2017-08-02T08:52:59.000Z</time>
      </trkpt>
      <trkpt lat="43.401023307815194" lon="-5.965903485193849">
        <ele>134</ele>
        <time>2017-08-02T08:53:07.000Z</time>
      </trkpt>
      <trkpt lat="43.40107250958681" lon="-5.965968109667301">
        <ele>134.2</ele>
        <time>2017-08-02T08:53:13.000Z</time>
      </trkpt>
      <trkpt lat="43.401138642802835" lon="-5.966053772717714">
        <ele>133.8</ele>
        <time>2017-08-02T08:53:21.000Z</time>
      </trkpt>
      <trkpt lat="43.40122933499515" lon="-5.966167598962784">
        <ele>133.2</ele>
        <time>2017-08-02T08:53:31.000Z</time>
      </trkpt>
      <trkpt lat="43.401304269209504" lon="-5.966255776584148">
        <ele>132.8</ele>
        <time>2017-08-02T08:53:40.000Z</time>
      </trkpt>
      <trkpt lat="43.401393704116344" lon="-5.966377565637231">
        <ele>131.6</ele>
        <time>2017-08-02T08:53:50.000Z</time>
      </trkpt>
      <trkpt lat="43.40142086148262" lon="-5.966433892026544">
        <ele>131.4</ele>
        <time>2017-08-02T08:53:54.000Z</time>
      </trkpt>
      <trkpt lat="43.40143787674606" lon="-5.966478483751416">
        <ele>131.4</ele>
        <time>2017-08-02T08:53:57.000Z</time>
      </trkpt>
      <trkpt lat="43.40144315734506" lon="-5.966494157910347">
        <ele>131.4</ele>
        <time>2017-08-02T08:53:58.000Z</time>
      </trkpt>
      <trkpt lat="43.40149411931634" lon="-5.9666399192065">
        <ele>131.4</ele>
        <time>2017-08-02T08:54:08.000Z</time>
      </trkpt>
      <trkpt lat="43.40151113457978" lon="-5.966776628047228">
        <ele>132.8</ele>
        <time>2017-08-02T08:54:16.000Z</time>
      </trkpt>
      <trkpt lat="43.40153560973704" lon="-5.966920796781778">
        <ele>134.2</ele>
        <time>2017-08-02T08:54:25.000Z</time>
      </trkpt>
      <trkpt lat="43.401542734354734" lon="-5.966933034360409">
        <ele>134.4</ele>
        <time>2017-08-02T08:54:26.000Z</time>
      </trkpt>
      <trkpt lat="43.401650274172425" lon="-5.967017859220505">
        <ele>134.4</ele>
        <time>2017-08-02T08:54:36.000Z</time>
      </trkpt>
      <trkpt lat="43.40179033577442" lon="-5.967047531157732">
        <ele>133.2</ele>
        <time>2017-08-02T08:54:47.000Z</time>
      </trkpt>
      <trkpt lat="43.401946406811476" lon="-5.967081477865577">
        <ele>131.6</ele>
        <time>2017-08-02T08:54:59.000Z</time>
      </trkpt>
      <trkpt lat="43.40206492692232" lon="-5.9671475272625685">
        <ele>129.6</ele>
        <time>2017-08-02T08:55:09.000Z</time>
      </trkpt>
      <trkpt lat="43.40216207318008" lon="-5.967237129807472">
        <ele>128.2</ele>
        <time>2017-08-02T08:55:18.000Z</time>
      </trkpt>
      <trkpt lat="43.402270786464214" lon="-5.9673220384866">
        <ele>127.2</ele>
        <time>2017-08-02T08:55:28.000Z</time>
      </trkpt>
      <trkpt lat="43.40235401876271" lon="-5.9674010798335075">
        <ele>126.6</ele>
        <time>2017-08-02T08:55:36.000Z</time>
      </trkpt>
      <trkpt lat="43.40241956524551" lon="-5.9675041772425175">
        <ele>126</ele>
        <time>2017-08-02T08:55:44.000Z</time>
      </trkpt>
      <trkpt lat="43.40245527215302" lon="-5.967608448117971">
        <ele>125.4</ele>
        <time>2017-08-02T08:55:51.000Z</time>
      </trkpt>
      <trkpt lat="43.40252308174968" lon="-5.967750856652856">
        <ele>125.4</ele>
        <time>2017-08-02T08:56:01.000Z</time>
      </trkpt>
      <trkpt lat="43.40260245837271" lon="-5.967906257137656">
        <ele>124.6</ele>
        <time>2017-08-02T08:56:11.000Z</time>
      </trkpt>
      <trkpt lat="43.40264059603214" lon="-5.968069368973374">
        <ele>125.6</ele>
        <time>2017-08-02T08:56:20.000Z</time>
      </trkpt>
      <trkpt lat="43.402666077017784" lon="-5.968270031735301">
        <ele>126.2</ele>
        <time>2017-08-02T08:56:31.000Z</time>
      </trkpt>
      <trkpt lat="43.40269164182246" lon="-5.968416882678866">
        <ele>125.4</ele>
        <time>2017-08-02T08:56:39.000Z</time>
      </trkpt>
      <trkpt lat="43.402722822502255" lon="-5.9685953333973885">
        <ele>123.8</ele>
        <time>2017-08-02T08:56:49.000Z</time>
      </trkpt>
      <trkpt lat="43.40273489244282" lon="-5.968741178512573">
        <ele>122.4</ele>
        <time>2017-08-02T08:56:57.000Z</time>
      </trkpt>
      <trkpt lat="43.402716955170035" lon="-5.968873193487525">
        <ele>122.2</ele>
        <time>2017-08-02T08:57:04.000Z</time>
      </trkpt>
      <trkpt lat="43.40267697349191" lon="-5.968979811295867">
        <ele>122.8</ele>
        <time>2017-08-02T08:57:10.000Z</time>
      </trkpt>
      <trkpt lat="43.40263590216637" lon="-5.969084249809384">
        <ele>123</ele>
        <time>2017-08-02T08:57:16.000Z</time>
      </trkpt>
      <trkpt lat="43.402593741193414" lon="-5.969157759100199">
        <ele>123.4</ele>
        <time>2017-08-02T08:57:21.000Z</time>
      </trkpt>
      <trkpt lat="43.40256507508457" lon="-5.969208385795355">
        <ele>123.6</ele>
        <time>2017-08-02T08:57:25.000Z</time>
      </trkpt>
      <trkpt lat="43.40256976895034" lon="-5.969217354431748">
        <ele>123.6</ele>
        <time>2017-08-02T08:57:26.000Z</time>
      </trkpt>
      <trkpt lat="43.402530290186405" lon="-5.969281559810042">
        <ele>124</ele>
        <time>2017-08-02T08:57:31.000Z</time>
      </trkpt>
      <trkpt lat="43.402490727603436" lon="-5.9693374671041965">
        <ele>124.2</ele>
        <time>2017-08-02T08:57:36.000Z</time>
      </trkpt>
      <trkpt lat="43.40248310007155" lon="-5.969355907291174">
        <ele>124.2</ele>
        <time>2017-08-02T08:57:37.000Z</time>
      </trkpt>
      <trkpt lat="43.402480501681566" lon="-5.969452802091837">
        <ele>123.2</ele>
        <time>2017-08-02T08:57:42.000Z</time>
      </trkpt>
      <trkpt lat="43.402463318780065" lon="-5.969511391595006">
        <ele>123</ele>
        <time>2017-08-02T08:57:45.000Z</time>
      </trkpt>
      <trkpt lat="43.402454014867544" lon="-5.969549361616373">
        <ele>122.8</ele>
        <time>2017-08-02T08:57:47.000Z</time>
      </trkpt>
      <trkpt lat="43.402416463941336" lon="-5.969645585864782">
        <ele>122.8</ele>
        <time>2017-08-02T08:57:53.000Z</time>
      </trkpt>
      <trkpt lat="43.40238159522414" lon="-5.969736445695162">
        <ele>122.6</ele>
        <time>2017-08-02T08:57:58.000Z</time>
      </trkpt>
      <trkpt lat="43.40237405151129" lon="-5.969756143167615">
        <ele>122.6</ele>
        <time>2017-08-02T08:57:59.000Z</time>
      </trkpt>
      <trkpt lat="43.402304984629154" lon="-5.969882793724537">
        <ele>122.8</ele>
        <time>2017-08-02T08:58:07.000Z</time>
      </trkpt>
      <trkpt lat="43.40228428132832" lon="-5.969923613592982">
        <ele>122.6</ele>
        <time>2017-08-02T08:58:10.000Z</time>
      </trkpt>
      <trkpt lat="43.402241449803114" lon="-5.969981951639056">
        <ele>122.8</ele>
        <time>2017-08-02T08:58:15.000Z</time>
      </trkpt>
      <trkpt lat="43.40219291858375" lon="-5.970046240836382">
        <ele>122.8</ele>
        <time>2017-08-02T08:58:20.000Z</time>
      </trkpt>
      <trkpt lat="43.40218126773834" lon="-5.970057724043727">
        <ele>123</ele>
        <time>2017-08-02T08:58:21.000Z</time>
      </trkpt>
      <trkpt lat="43.4021211694926" lon="-5.970169370993972">
        <ele>122</ele>
        <time>2017-08-02T08:58:29.000Z</time>
      </trkpt>
      <trkpt lat="43.40210298076272" lon="-5.970217315480113">
        <ele>121.4</ele>
        <time>2017-08-02T08:58:32.000Z</time>
      </trkpt>
      <trkpt lat="43.40208546258509" lon="-5.970269283279777">
        <ele>120.6</ele>
        <time>2017-08-02T08:58:35.000Z</time>
      </trkpt>
      <trkpt lat="43.40207900851965" lon="-5.970286885276437">
        <ele>120.2</ele>
        <time>2017-08-02T08:58:36.000Z</time>
      </trkpt>
      <trkpt lat="43.40200860053301" lon="-5.970396436750889">
        <ele>119.4</ele>
        <time>2017-08-02T08:58:44.000Z</time>
      </trkpt>
      <trkpt lat="43.401974234730005" lon="-5.970482686534524">
        <ele>118.8</ele>
        <time>2017-08-02T08:58:50.000Z</time>
      </trkpt>
      <trkpt lat="43.40196870267391" lon="-5.970530128106475">
        <ele>118.2</ele>
        <time>2017-08-02T08:58:53.000Z</time>
      </trkpt>
      <trkpt lat="43.40196208097041" lon="-5.970574636012316">
        <ele>117.6</ele>
        <time>2017-08-02T08:58:56.000Z</time>
      </trkpt>
      <trkpt lat="43.40196409262717" lon="-5.970598105341196">
        <ele>117</ele>
        <time>2017-08-02T08:58:58.000Z</time>
      </trkpt>
      <trkpt lat="43.40195629745722" lon="-5.970606571063399">
        <ele>117.2</ele>
        <time>2017-08-02T08:58:59.000Z</time>
      </trkpt>
      <trkpt lat="43.401936097070575" lon="-5.970628866925836">
        <ele>117.4</ele>
        <time>2017-08-02T08:59:01.000Z</time>
      </trkpt>
      <trkpt lat="43.401895025745034" lon="-5.970680331811309">
        <ele>118.4</ele>
        <time>2017-08-02T08:59:06.000Z</time>
      </trkpt>
      <trkpt lat="43.40188605710864" lon="-5.970707656815648">
        <ele>118.6</ele>
        <time>2017-08-02T08:59:08.000Z</time>
      </trkpt>
      <trkpt lat="43.401873065158725" lon="-5.970733305439353">
        <ele>119.2</ele>
        <time>2017-08-02T08:59:10.000Z</time>
      </trkpt>
      <trkpt lat="43.40186158195138" lon="-5.970758115872741">
        <ele>119.6</ele>
        <time>2017-08-02T08:59:12.000Z</time>
      </trkpt>
      <trkpt lat="43.40183375403285" lon="-5.970818717032671">
        <ele>120.4</ele>
        <time>2017-08-02T08:59:17.000Z</time>
      </trkpt>
      <trkpt lat="43.40181330218911" lon="-5.970846628770232">
        <ele>121.2</ele>
        <time>2017-08-02T08:59:19.000Z</time>
      </trkpt>
      <trkpt lat="43.4017931856215" lon="-5.970935057848692">
        <ele>121</ele>
        <time>2017-08-02T08:59:25.000Z</time>
      </trkpt>
      <trkpt lat="43.40176837518811" lon="-5.971014434471726">
        <ele>121.4</ele>
        <time>2017-08-02T08:59:30.000Z</time>
      </trkpt>
      <trkpt lat="43.40172369964421" lon="-5.971149718388915">
        <ele>122.6</ele>
        <time>2017-08-02T08:59:38.000Z</time>
      </trkpt>
      <trkpt lat="43.40172152034938" lon="-5.971185173839331">
        <ele>122.4</ele>
        <time>2017-08-02T08:59:40.000Z</time>
      </trkpt>
      <trkpt lat="43.40169654227793" lon="-5.9712438471615314">
        <ele>123.4</ele>
        <time>2017-08-02T08:59:43.000Z</time>
      </trkpt>
      <trkpt lat="43.40168698690832" lon="-5.97125792875886">
        <ele>123.8</ele>
        <time>2017-08-02T08:59:44.000Z</time>
      </trkpt>
      <trkpt lat="43.40163568966091" lon="-5.9713698271662">
        <ele>124.4</ele>
        <time>2017-08-02T08:59:50.000Z</time>
      </trkpt>
      <trkpt lat="43.40165010653436" lon="-5.971380053088069">
        <ele>123.4</ele>
        <time>2017-08-02T08:59:51.000Z</time>
      </trkpt>
      <trkpt lat="43.401634600013494" lon="-5.971406875178218">
        <ele>123.6</ele>
        <time>2017-08-02T08:59:53.000Z</time>
      </trkpt>
      <trkpt lat="43.40162278153002" lon="-5.971484407782555">
        <ele>122.4</ele>
        <time>2017-08-02T08:59:58.000Z</time>
      </trkpt>
      <trkpt lat="43.40160509571433" lon="-5.971508547663689">
        <ele>122.4</ele>
        <time>2017-08-02T09:00:00.000Z</time>
      </trkpt>
      <trkpt lat="43.40160082094371" lon="-5.971529334783554">
        <ele>122.2</ele>
        <time>2017-08-02T09:00:01.000Z</time>
      </trkpt>
      <trkpt lat="43.40159763582051" lon="-5.971555737778544">
        <ele>121.8</ele>
        <time>2017-08-02T09:00:03.000Z</time>
      </trkpt>
      <trkpt lat="43.40158648788929" lon="-5.9716034308075905">
        <ele>121.4</ele>
        <time>2017-08-02T09:00:06.000Z</time>
      </trkpt>
      <trkpt lat="43.40158103965223" lon="-5.971620781347156">
        <ele>121.4</ele>
        <time>2017-08-02T09:00:07.000Z</time>
      </trkpt>
      <trkpt lat="43.40154005214572" lon="-5.971751287579536">
        <ele>121</ele>
        <time>2017-08-02T09:00:15.000Z</time>
      </trkpt>
      <trkpt lat="43.40150895528495" lon="-5.9718879126012325">
        <ele>119.6</ele>
        <time>2017-08-02T09:00:23.000Z</time>
      </trkpt>
      <trkpt lat="43.40147500857711" lon="-5.972007941454649">
        <ele>118.4</ele>
        <time>2017-08-02T09:00:31.000Z</time>
      </trkpt>
      <trkpt lat="43.401435697451234" lon="-5.9721138048917055">
        <ele>117.6</ele>
        <time>2017-08-02T09:00:38.000Z</time>
      </trkpt>
      <trkpt lat="43.40138238854706" lon="-5.972264762967825">
        <ele>116.8</ele>
        <time>2017-08-02T09:00:47.000Z</time>
      </trkpt>
      <trkpt lat="43.40134408324957" lon="-5.972347743809223">
        <ele>116.2</ele>
        <time>2017-08-02T09:00:53.000Z</time>
      </trkpt>
      <trkpt lat="43.40133444406092" lon="-5.9723626635968685">
        <ele>116</ele>
        <time>2017-08-02T09:00:54.000Z</time>
      </trkpt>
      <trkpt lat="43.401236459612846" lon="-5.972474394366145">
        <ele>114.8</ele>
        <time>2017-08-02T09:01:03.000Z</time>
      </trkpt>
      <trkpt lat="43.40113445185125" lon="-5.972589394077659">
        <ele>113.4</ele>
        <time>2017-08-02T09:01:12.000Z</time>
      </trkpt>
      <trkpt lat="43.4010886028409" lon="-5.972652258351445">
        <ele>112.8</ele>
        <time>2017-08-02T09:01:17.000Z</time>
      </trkpt>
      <trkpt lat="43.40105968527496" lon="-5.972674386575818">
        <ele>113.2</ele>
        <time>2017-08-02T09:01:20.000Z</time>
      </trkpt>
      <trkpt lat="43.40099128894508" lon="-5.972713110968471">
        <ele>114.4</ele>
        <time>2017-08-02T09:01:27.000Z</time>
      </trkpt>
      <trkpt lat="43.40093806385994" lon="-5.97273264080286">
        <ele>115.4</ele>
        <time>2017-08-02T09:01:31.000Z</time>
      </trkpt>
      <trkpt lat="43.40087302029133" lon="-5.972760217264295">
        <ele>116.6</ele>
        <time>2017-08-02T09:01:37.000Z</time>
      </trkpt>
      <trkpt lat="43.40080412104726" lon="-5.972816124558449">
        <ele>117.6</ele>
        <time>2017-08-02T09:01:44.000Z</time>
      </trkpt>
      <trkpt lat="43.40071435086429" lon="-5.972899189218879">
        <ele>118.4</ele>
        <time>2017-08-02T09:01:52.000Z</time>
      </trkpt>
      <trkpt lat="43.400601698085666" lon="-5.973003460094333">
        <ele>118.2</ele>
        <time>2017-08-02T09:02:02.000Z</time>
      </trkpt>
      <trkpt lat="43.400498013943434" lon="-5.973095744848251">
        <ele>117.6</ele>
        <time>2017-08-02T09:02:12.000Z</time>
      </trkpt>
      <trkpt lat="43.40041344054043" lon="-5.973232621327043">
        <ele>115.6</ele>
        <time>2017-08-02T09:02:22.000Z</time>
      </trkpt>
      <trkpt lat="43.40037630870938" lon="-5.973326833918691">
        <ele>115</ele>
        <time>2017-08-02T09:02:28.000Z</time>
      </trkpt>
      <trkpt lat="43.40035334229469" lon="-5.973362037912011">
        <ele>114.8</ele>
        <time>2017-08-02T09:02:31.000Z</time>
      </trkpt>
      <trkpt lat="43.40027849189937" lon="-5.973447365686297">
        <ele>114</ele>
        <time>2017-08-02T09:02:38.000Z</time>
      </trkpt>
      <trkpt lat="43.40026558376849" lon="-5.973487598821521">
        <ele>113.6</ele>
        <time>2017-08-02T09:02:41.000Z</time>
      </trkpt>
      <trkpt lat="43.40025460347533" lon="-5.973533783107996">
        <ele>113.4</ele>
        <time>2017-08-02T09:02:44.000Z</time>
      </trkpt>
      <trkpt lat="43.40024555101991" lon="-5.973589941859245">
        <ele>113.2</ele>
        <time>2017-08-02T09:02:47.000Z</time>
      </trkpt>
      <trkpt lat="43.40023851022124" lon="-5.973609806969762">
        <ele>113.2</ele>
        <time>2017-08-02T09:02:48.000Z</time>
      </trkpt>
      <trkpt lat="43.400233229622245" lon="-5.973648279905319">
        <ele>113.2</ele>
        <time>2017-08-02T09:02:50.000Z</time>
      </trkpt>
      <trkpt lat="43.40022568590939" lon="-5.973693626001477">
        <ele>113</ele>
        <time>2017-08-02T09:02:52.000Z</time>
      </trkpt>
      <trkpt lat="43.40022744610906" lon="-5.973728746175766">
        <ele>112.8</ele>
        <time>2017-08-02T09:02:54.000Z</time>
      </trkpt>
      <trkpt lat="43.4002233389765" lon="-5.973744168877602">
        <ele>112.8</ele>
        <time>2017-08-02T09:02:55.000Z</time>
      </trkpt>
      <trkpt lat="43.40017321519554" lon="-5.973852463066578">
        <ele>112</ele>
        <time>2017-08-02T09:03:02.000Z</time>
      </trkpt>
      <trkpt lat="43.40016206726432" lon="-5.973941311240196">
        <ele>111</ele>
        <time>2017-08-02T09:03:07.000Z</time>
      </trkpt>
      <trkpt lat="43.40015142224729" lon="-5.9739939495921135">
        <ele>110.6</ele>
        <time>2017-08-02T09:03:10.000Z</time>
      </trkpt>
      <trkpt lat="43.40014169923961" lon="-5.97404214553535">
        <ele>110.2</ele>
        <time>2017-08-02T09:03:13.000Z</time>
      </trkpt>
      <trkpt lat="43.4001234266907" lon="-5.974103752523661">
        <ele>109.8</ele>
        <time>2017-08-02T09:03:17.000Z</time>
      </trkpt>
      <trkpt lat="43.40012460015714" lon="-5.974137196317315">
        <ele>109.4</ele>
        <time>2017-08-02T09:03:19.000Z</time>
      </trkpt>
      <trkpt lat="43.40011118911207" lon="-5.974180782213807">
        <ele>109.4</ele>
        <time>2017-08-02T09:03:22.000Z</time>
      </trkpt>
      <trkpt lat="43.40009610168636" lon="-5.974194025620818">
        <ele>109.6</ele>
        <time>2017-08-02T09:03:24.000Z</time>
      </trkpt>
      <trkpt lat="43.40006307698786" lon="-5.974245490506291">
        <ele>109.8</ele>
        <time>2017-08-02T09:03:29.000Z</time>
      </trkpt>
      <trkpt lat="43.40003809891641" lon="-5.974272731691599">
        <ele>110.2</ele>
        <time>2017-08-02T09:03:32.000Z</time>
      </trkpt>
      <trkpt lat="43.400031980127096" lon="-5.974280275404453">
        <ele>110.2</ele>
        <time>2017-08-02T09:03:34.000Z</time>
      </trkpt>
      <trkpt lat="43.40002418495715" lon="-5.97430064342916">
        <ele>110.2</ele>
        <time>2017-08-02T09:03:42.000Z</time>
      </trkpt>
      <trkpt lat="43.40004145167768" lon="-5.974326627328992">
        <ele>110</ele>
        <time>2017-08-02T09:03:57.000Z</time>
      </trkpt>
      <trkpt lat="43.400071542710066" lon="-5.974335847422481">
        <ele>109.4</ele>
        <time>2017-08-02T09:04:03.000Z</time>
      </trkpt>
      <trkpt lat="43.400036841630936" lon="-5.974371721968055">
        <ele>109.8</ele>
        <time>2017-08-02T09:04:08.000Z</time>
      </trkpt>
      <trkpt lat="43.39999157935381" lon="-5.974448416382074">
        <ele>110.2</ele>
        <time>2017-08-02T09:04:13.000Z</time>
      </trkpt>
      <trkpt lat="43.39998730458319" lon="-5.974462665617466">
        <ele>110.2</ele>
        <time>2017-08-02T09:04:14.000Z</time>
      </trkpt>
      <trkpt lat="43.399973809719086" lon="-5.974476998671889">
        <ele>110.4</ele>
        <time>2017-08-02T09:04:15.000Z</time>
      </trkpt>
      <trkpt lat="43.39993751607835" lon="-5.974542293697596">
        <ele>110.8</ele>
        <time>2017-08-02T09:04:19.000Z</time>
      </trkpt>
      <trkpt lat="43.39992385357618" lon="-5.97461043857038">
        <ele>110.6</ele>
        <time>2017-08-02T09:04:23.000Z</time>
      </trkpt>
      <trkpt lat="43.399922009557486" lon="-5.97462703473866">
        <ele>110.4</ele>
        <time>2017-08-02T09:04:24.000Z</time>
      </trkpt>
      <trkpt lat="43.39989334344864" lon="-5.9747130330652">
        <ele>110.4</ele>
        <time>2017-08-02T09:04:29.000Z</time>
      </trkpt>
      <trkpt lat="43.399885296821594" lon="-5.974730299785733">
        <ele>110.4</ele>
        <time>2017-08-02T09:04:30.000Z</time>
      </trkpt>
      <trkpt lat="43.399885296821594" lon="-5.974730299785733">
        <ele>110.4</ele>
        <time>2017-08-02T09:04:30.000Z</time>
      </trkpt>
      <trkpt lat="43.3998591452837" lon="-5.9747907333076">
        <ele>110.4</ele>
        <time>2017-08-02T09:04:34.000Z</time>
      </trkpt>
      <trkpt lat="43.39984162710607" lon="-5.974804647266865">
        <ele>110.6</ele>
        <time>2017-08-02T09:04:36.000Z</time>
      </trkpt>
      <trkpt lat="43.39980214834213" lon="-5.974839264526963">
        <ele>110.8</ele>
        <time>2017-08-02T09:04:40.000Z</time>
      </trkpt>
      <trkpt lat="43.39978018775582" lon="-5.9748603869229555">
        <ele>111</ele>
        <time>2017-08-02T09:04:42.000Z</time>
      </trkpt>
      <trkpt lat="43.39975696988404" lon="-5.974883604794741">
        <ele>111.2</ele>
        <time>2017-08-02T09:04:45.000Z</time>
      </trkpt>
      <trkpt lat="43.399722101166844" lon="-5.974902547895908">
        <ele>111.4</ele>
        <time>2017-08-02T09:04:48.000Z</time>
      </trkpt>
      <trkpt lat="43.39968865737319" lon="-5.974921155720949">
        <ele>111.6</ele>
        <time>2017-08-02T09:04:51.000Z</time>
      </trkpt>
      <trkpt lat="43.39964356273413" lon="-5.9749422781169415">
        <ele>112</ele>
        <time>2017-08-02T09:04:54.000Z</time>
      </trkpt>
      <trkpt lat="43.39956695213914" lon="-5.975019475445151">
        <ele>112.2</ele>
        <time>2017-08-02T09:05:01.000Z</time>
      </trkpt>
      <trkpt lat="43.399501740932465" lon="-5.9750868659466505">
        <ele>112.4</ele>
        <time>2017-08-02T09:05:07.000Z</time>
      </trkpt>
      <trkpt lat="43.399494364857674" lon="-5.975098265334964">
        <ele>112.4</ele>
        <time>2017-08-02T09:05:08.000Z</time>
      </trkpt>
      <trkpt lat="43.39943644590676" lon="-5.975144701078534">
        <ele>112.6</ele>
        <time>2017-08-02T09:05:14.000Z</time>
      </trkpt>
      <trkpt lat="43.3993702288717" lon="-5.975180491805077">
        <ele>113</ele>
        <time>2017-08-02T09:05:20.000Z</time>
      </trkpt>
      <trkpt lat="43.399317506700754" lon="-5.975245367735624">
        <ele>112.8</ele>
        <time>2017-08-02T09:05:26.000Z</time>
      </trkpt>
      <trkpt lat="43.399285320192575" lon="-5.975321056321263">
        <ele>112.2</ele>
        <time>2017-08-02T09:05:31.000Z</time>
      </trkpt>
      <trkpt lat="43.399257911369205" lon="-5.9753610379993916">
        <ele>112</ele>
        <time>2017-08-02T09:05:34.000Z</time>
      </trkpt>
      <trkpt lat="43.399211475625634" lon="-5.975431278347969">
        <ele>111.6</ele>
        <time>2017-08-02T09:05:39.000Z</time>
      </trkpt>
      <trkpt lat="43.399130841717124" lon="-5.975485173985362">
        <ele>111.8</ele>
        <time>2017-08-02T09:05:45.000Z</time>
      </trkpt>
      <trkpt lat="43.39905247092247" lon="-5.975490789860487">
        <ele>113</ele>
        <time>2017-08-02T09:05:51.000Z</time>
      </trkpt>
      <trkpt lat="43.39898516424" lon="-5.975516103208065">
        <ele>113.6</ele>
        <time>2017-08-02T09:05:56.000Z</time>
      </trkpt>
      <trkpt lat="43.39895758777857" lon="-5.975530855357647">
        <ele>113.8</ele>
        <time>2017-08-02T09:05:58.000Z</time>
      </trkpt>
      <trkpt lat="43.398920791223645" lon="-5.975570669397712">
        <ele>113.8</ele>
        <time>2017-08-02T09:06:01.000Z</time>
      </trkpt>
      <trkpt lat="43.39887443929911" lon="-5.975627331063151">
        <ele>113.6</ele>
        <time>2017-08-02T09:06:06.000Z</time>
      </trkpt>
      <trkpt lat="43.39884426444769" lon="-5.975688686594367">
        <ele>113.4</ele>
        <time>2017-08-02T09:06:10.000Z</time>
      </trkpt>
      <trkpt lat="43.398821046575904" lon="-5.975730763748288">
        <ele>113.4</ele>
        <time>2017-08-02T09:06:13.000Z</time>
      </trkpt>
      <trkpt lat="43.39881350286305" lon="-5.975792706012726">
        <ele>112.8</ele>
        <time>2017-08-02T09:06:17.000Z</time>
      </trkpt>
      <trkpt lat="43.398813335224986" lon="-5.9758098889142275">
        <ele>112.8</ele>
        <time>2017-08-02T09:06:18.000Z</time>
      </trkpt>
      <trkpt lat="43.398812748491764" lon="-5.97586814314127">
        <ele>112</ele>
        <time>2017-08-02T09:06:21.000Z</time>
      </trkpt>
      <trkpt lat="43.39879942126572" lon="-5.975946178659797">
        <ele>111.6</ele>
        <time>2017-08-02T09:06:25.000Z</time>
      </trkpt>
      <trkpt lat="43.39878290891647" lon="-5.9760519582778215">
        <ele>110.8</ele>
        <time>2017-08-02T09:06:31.000Z</time>
      </trkpt>
      <trkpt lat="43.398778047412634" lon="-5.976107614114881">
        <ele>110.2</ele>
        <time>2017-08-02T09:06:34.000Z</time>
      </trkpt>
      <trkpt lat="43.39876656420529" lon="-5.9761465061455965">
        <ele>110</ele>
        <time>2017-08-02T09:06:36.000Z</time>
      </trkpt>
      <trkpt lat="43.398732198402286" lon="-5.976206939667463">
        <ele>110.2</ele>
        <time>2017-08-02T09:06:40.000Z</time>
      </trkpt>
      <trkpt lat="43.39872599579394" lon="-5.976224709302187">
        <ele>110.2</ele>
        <time>2017-08-02T09:06:41.000Z</time>
      </trkpt>
      <trkpt lat="43.39867972768843" lon="-5.976277180016041">
        <ele>110.4</ele>
        <time>2017-08-02T09:06:46.000Z</time>
      </trkpt>
      <trkpt lat="43.39861703105271" lon="-5.976326297968626">
        <ele>111</ele>
        <time>2017-08-02T09:06:51.000Z</time>
      </trkpt>
      <trkpt lat="43.398551736027" lon="-5.976359490305185">
        <ele>112.2</ele>
        <time>2017-08-02T09:06:57.000Z</time>
      </trkpt>
      <trkpt lat="43.398488871753216" lon="-5.976400729268789">
        <ele>113.2</ele>
        <time>2017-08-02T09:07:02.000Z</time>
      </trkpt>
      <trkpt lat="43.398435562849045" lon="-5.976494355127215">
        <ele>113</ele>
        <time>2017-08-02T09:07:08.000Z</time>
      </trkpt>
      <trkpt lat="43.39839382097125" lon="-5.976618826389313">
        <ele>112</ele>
        <time>2017-08-02T09:07:15.000Z</time>
      </trkpt>
      <trkpt lat="43.39835601858795" lon="-5.97671689465642">
        <ele>111.2</ele>
        <time>2017-08-02T09:07:22.000Z</time>
      </trkpt>
      <trkpt lat="43.39835216291249" lon="-5.9767938405275345">
        <ele>110</ele>
        <time>2017-08-02T09:07:27.000Z</time>
      </trkpt>
      <trkpt lat="43.39835283346474" lon="-5.976810436695814">
        <ele>109.8</ele>
        <time>2017-08-02T09:07:28.000Z</time>
      </trkpt>
      <trkpt lat="43.39835702441633" lon="-5.976925520226359">
        <ele>107.6</ele>
        <time>2017-08-02T09:07:35.000Z</time>
      </trkpt>
      <trkpt lat="43.39837177656591" lon="-5.977096343412995">
        <ele>104</ele>
        <time>2017-08-02T09:07:44.000Z</time>
      </trkpt>
      <trkpt lat="43.39836733415723" lon="-5.977196171879768">
        <ele>101.8</ele>
        <time>2017-08-02T09:07:49.000Z</time>
      </trkpt>
      <trkpt lat="43.398358868435025" lon="-5.977359535172582">
        <ele>98.8</ele>
        <time>2017-08-02T09:07:58.000Z</time>
      </trkpt>
      <trkpt lat="43.39842885732651" lon="-5.9774544183164835">
        <ele>94.8</ele>
        <time>2017-08-02T09:08:05.000Z</time>
      </trkpt>
      <trkpt lat="43.39849063195288" lon="-5.977547625079751">
        <ele>92.2</ele>
        <time>2017-08-02T09:08:12.000Z</time>
      </trkpt>
      <trkpt lat="43.39853505603969" lon="-5.977659355849028">
        <ele>90</ele>
        <time>2017-08-02T09:08:20.000Z</time>
      </trkpt>
      <trkpt lat="43.39850261807442" lon="-5.977796735242009">
        <ele>88.2</ele>
        <time>2017-08-02T09:08:28.000Z</time>
      </trkpt>
      <trkpt lat="43.39842466637492" lon="-5.9779188595712185">
        <ele>87</ele>
        <time>2017-08-02T09:08:38.000Z</time>
      </trkpt>
      <trkpt lat="43.398355012759566" lon="-5.977982897311449">
        <ele>86.6</ele>
        <time>2017-08-02T09:08:45.000Z</time>
      </trkpt>
      <trkpt lat="43.39825954288244" lon="-5.978106278926134">
        <ele>85.6</ele>
        <time>2017-08-02T09:08:54.000Z</time>
      </trkpt>
      <trkpt lat="43.39816055260599" lon="-5.978228906169534">
        <ele>85.2</ele>
        <time>2017-08-02T09:09:03.000Z</time>
      </trkpt>
      <trkpt lat="43.39802401140332" lon="-5.978321610018611">
        <ele>85.6</ele>
        <time>2017-08-02T09:09:14.000Z</time>
      </trkpt>
      <trkpt lat="43.39792309328914" lon="-5.978396711871028">
        <ele>85.2</ele>
        <time>2017-08-02T09:09:22.000Z</time>
      </trkpt>
      <trkpt lat="43.39783441275358" lon="-5.97848379984498">
        <ele>84.6</ele>
        <time>2017-08-02T09:09:30.000Z</time>
      </trkpt>
      <trkpt lat="43.39772729203105" lon="-5.978597793728113">
        <ele>83.6</ele>
        <time>2017-08-02T09:09:40.000Z</time>
      </trkpt>
      <trkpt lat="43.39762327261269" lon="-5.9787049144506454">
        <ele>82.8</ele>
        <time>2017-08-02T09:09:50.000Z</time>
      </trkpt>
      <trkpt lat="43.39753241278231" lon="-5.97881362773478">
        <ele>82.2</ele>
        <time>2017-08-02T09:09:59.000Z</time>
      </trkpt>
      <trkpt lat="43.397477846592665" lon="-5.9789343271404505">
        <ele>81.6</ele>
        <time>2017-08-02T09:10:07.000Z</time>
      </trkpt>
      <trkpt lat="43.39742437005043" lon="-5.979036670178175">
        <ele>81</ele>
        <time>2017-08-02T09:10:14.000Z</time>
      </trkpt>
      <trkpt lat="43.39737173169851" lon="-5.979125937446952">
        <ele>80.2</ele>
        <time>2017-08-02T09:10:20.000Z</time>
      </trkpt>
      <trkpt lat="43.397302413359284" lon="-5.979232890531421">
        <ele>79.6</ele>
        <time>2017-08-02T09:10:28.000Z</time>
      </trkpt>
      <trkpt lat="43.397226640954614" lon="-5.979360546916723">
        <ele>78.6</ele>
        <time>2017-08-02T09:10:37.000Z</time>
      </trkpt>
      <trkpt lat="43.39716788381338" lon="-5.979459788650274">
        <ele>77.8</ele>
        <time>2017-08-02T09:10:44.000Z</time>
      </trkpt>
      <trkpt lat="43.39711558073759" lon="-5.979545032605529">
        <ele>77.2</ele>
        <time>2017-08-02T09:10:51.000Z</time>
      </trkpt>
      <trkpt lat="43.3970907703042" lon="-5.97964477725327">
        <ele>76.6</ele>
        <time>2017-08-02T09:10:58.000Z</time>
      </trkpt>
      <trkpt lat="43.39709906838834" lon="-5.9796861838549376">
        <ele>76.4</ele>
        <time>2017-08-02T09:11:01.000Z</time>
      </trkpt>
      <trkpt lat="43.39710962958634" lon="-5.979714263230562">
        <ele>76.4</ele>
        <time>2017-08-02T09:11:04.000Z</time>
      </trkpt>
      <trkpt lat="43.397100660949945" lon="-5.979710072278976">
        <ele>76.4</ele>
        <time>2017-08-02T09:11:14.000Z</time>
      </trkpt>
      <trkpt lat="43.397099236026406" lon="-5.979716777801514">
        <ele>76.4</ele>
        <time>2017-08-02T09:11:34.000Z</time>
      </trkpt>
      <trkpt lat="43.3970891777426" lon="-5.9797165263444185">
        <ele>76.2</ele>
        <time>2017-08-02T09:12:29.000Z</time>
      </trkpt>
      <trkpt lat="43.39709118939936" lon="-5.979723818600178">
        <ele>76.2</ele>
        <time>2017-08-02T09:13:09.000Z</time>
      </trkpt>
      <trkpt lat="43.39711792767048" lon="-5.979721136391163">
        <ele>76.4</ele>
        <time>2017-08-02T09:13:43.000Z</time>
      </trkpt>
      <trkpt lat="43.397135362029076" lon="-5.979751981794834">
        <ele>76.6</ele>
        <time>2017-08-02T09:15:17.000Z</time>
      </trkpt>
      <trkpt lat="43.39712874032557" lon="-5.979766231030226">
        <ele>76.6</ele>
        <time>2017-08-02T09:15:18.000Z</time>
      </trkpt>
      <trkpt lat="43.39707945473492" lon="-5.979815935716033">
        <ele>76.2</ele>
        <time>2017-08-02T09:15:23.000Z</time>
      </trkpt>
      <trkpt lat="43.397049363702536" lon="-5.979831861332059">
        <ele>76</ele>
        <time>2017-08-02T09:15:25.000Z</time>
      </trkpt>
      <trkpt lat="43.39701139368117" lon="-5.979853235185146">
        <ele>75.6</ele>
        <time>2017-08-02T09:15:28.000Z</time>
      </trkpt>
      <trkpt lat="43.39696596376598" lon="-5.979882320389152">
        <ele>75.4</ele>
        <time>2017-08-02T09:15:32.000Z</time>
      </trkpt>
      <trkpt lat="43.39693126268685" lon="-5.979915596544743">
        <ele>75.4</ele>
        <time>2017-08-02T09:15:36.000Z</time>
      </trkpt>
      <trkpt lat="43.39689966291189" lon="-5.979935126379132">
        <ele>75.2</ele>
        <time>2017-08-02T09:15:39.000Z</time>
      </trkpt>
      <trkpt lat="43.39681601151824" lon="-5.980000924319029">
        <ele>75.2</ele>
        <time>2017-08-02T09:15:47.000Z</time>
      </trkpt>
      <trkpt lat="43.39673303067684" lon="-5.980069823563099">
        <ele>75.2</ele>
        <time>2017-08-02T09:15:55.000Z</time>
      </trkpt>
      <trkpt lat="43.39668600820005" lon="-5.9801367949694395">
        <ele>75.2</ele>
        <time>2017-08-02T09:16:01.000Z</time>
      </trkpt>
      <trkpt lat="43.39668097905815" lon="-5.980152888223529">
        <ele>75.6</ele>
        <time>2017-08-02T09:16:02.000Z</time>
      </trkpt>
      <trkpt lat="43.39666128158569" lon="-5.9802077896893024">
        <ele>76.4</ele>
        <time>2017-08-02T09:16:06.000Z</time>
      </trkpt>
      <trkpt lat="43.3966351300478" lon="-5.980271575972438">
        <ele>77.4</ele>
        <time>2017-08-02T09:16:10.000Z</time>
      </trkpt>
      <trkpt lat="43.39662532322109" lon="-5.980307701975107">
        <ele>78</ele>
        <time>2017-08-02T09:16:12.000Z</time>
      </trkpt>
      <trkpt lat="43.39662197045982" lon="-5.980310635641217">
        <ele>78</ele>
        <time>2017-08-02T09:16:14.000Z</time>
      </trkpt>
      <trkpt lat="43.39657897129655" lon="-5.980360424146056">
        <ele>78.4</ele>
        <time>2017-08-02T09:16:55.000Z</time>
      </trkpt>
      <trkpt lat="43.396557262167335" lon="-5.980385905131698">
        <ele>78.6</ele>
        <time>2017-08-02T09:16:58.000Z</time>
      </trkpt>
      <trkpt lat="43.396531362086535" lon="-5.980413230136037">
        <ele>78.8</ele>
        <time>2017-08-02T09:17:01.000Z</time>
      </trkpt>
      <trkpt lat="43.3965228125453" lon="-5.980422953143716">
        <ele>79</ele>
        <time>2017-08-02T09:17:02.000Z</time>
      </trkpt>
      <trkpt lat="43.39645232073963" lon="-5.980511214584112">
        <ele>79.8</ele>
        <time>2017-08-02T09:17:09.000Z</time>
      </trkpt>
      <trkpt lat="43.39637478813529" lon="-5.980572234839201">
        <ele>80</ele>
        <time>2017-08-02T09:17:15.000Z</time>
      </trkpt>
      <trkpt lat="43.39636246673763" lon="-5.980584640055895">
        <ele>80.2</ele>
        <time>2017-08-02T09:17:16.000Z</time>
      </trkpt>
      <trkpt lat="43.3963018655777" lon="-5.98066259175539">
        <ele>80.6</ele>
        <time>2017-08-02T09:17:22.000Z</time>
      </trkpt>
      <trkpt lat="43.39629323221743" lon="-5.980674074962735">
        <ele>80.8</ele>
        <time>2017-08-02T09:17:23.000Z</time>
      </trkpt>
      <trkpt lat="43.39621737599373" lon="-5.980760157108307">
        <ele>81</ele>
        <time>2017-08-02T09:17:31.000Z</time>
      </trkpt>
      <trkpt lat="43.39615736156702" lon="-5.980853782966733">
        <ele>81.4</ele>
        <time>2017-08-02T09:17:38.000Z</time>
      </trkpt>
      <trkpt lat="43.39613439515233" lon="-5.980895776301622">
        <ele>81.8</ele>
        <time>2017-08-02T09:17:41.000Z</time>
      </trkpt>
      <trkpt lat="43.39611662551761" lon="-5.980942631140351">
        <ele>82.2</ele>
        <time>2017-08-02T09:17:44.000Z</time>
      </trkpt>
      <trkpt lat="43.39605920948088" lon="-5.981034329161048">
        <ele>83.2</ele>
        <time>2017-08-02T09:17:51.000Z</time>
      </trkpt>
      <trkpt lat="43.39598989114165" lon="-5.981127452105284">
        <ele>83.8</ele>
        <time>2017-08-02T09:17:58.000Z</time>
      </trkpt>
      <trkpt lat="43.39593272656202" lon="-5.981196518987417">
        <ele>84</ele>
        <time>2017-08-02T09:18:04.000Z</time>
      </trkpt>
      <trkpt lat="43.39584949426353" lon="-5.98126944154501">
        <ele>83.4</ele>
        <time>2017-08-02T09:18:12.000Z</time>
      </trkpt>
      <trkpt lat="43.39579425752163" lon="-5.981314284726977">
        <ele>82.6</ele>
        <time>2017-08-02T09:18:17.000Z</time>
      </trkpt>
      <trkpt lat="43.39571010321379" lon="-5.98138427361846">
        <ele>82.2</ele>
        <time>2017-08-02T09:18:25.000Z</time>
      </trkpt>
      <trkpt lat="43.39565897360444" lon="-5.981408329680562">
        <ele>81.6</ele>
        <time>2017-08-02T09:18:29.000Z</time>
      </trkpt>
      <trkpt lat="43.39564086869359" lon="-5.981433307752013">
        <ele>81.6</ele>
        <time>2017-08-02T09:18:31.000Z</time>
      </trkpt>
      <trkpt lat="43.395587895065546" lon="-5.981499440968037">
        <ele>81.6</ele>
        <time>2017-08-02T09:18:37.000Z</time>
      </trkpt>
      <trkpt lat="43.39552955701947" lon="-5.981558701023459">
        <ele>81.6</ele>
        <time>2017-08-02T09:18:43.000Z</time>
      </trkpt>
      <trkpt lat="43.395479433238506" lon="-5.981650147587061">
        <ele>82.6</ele>
        <time>2017-08-02T09:18:50.000Z</time>
      </trkpt>
      <trkpt lat="43.39544917456806" lon="-5.981755089014769">
        <ele>84</ele>
        <time>2017-08-02T09:18:57.000Z</time>
      </trkpt>
      <trkpt lat="43.39541950263083" lon="-5.981859946623445">
        <ele>85.4</ele>
        <time>2017-08-02T09:19:04.000Z</time>
      </trkpt>
      <trkpt lat="43.395404079928994" lon="-5.981976455077529">
        <ele>87</ele>
        <time>2017-08-02T09:19:11.000Z</time>
      </trkpt>
      <trkpt lat="43.39540516957641" lon="-5.982085084542632">
        <ele>88.8</ele>
        <time>2017-08-02T09:19:18.000Z</time>
      </trkpt>
      <trkpt lat="43.3954210113734" lon="-5.982207460328937">
        <ele>90.6</ele>
        <time>2017-08-02T09:19:26.000Z</time>
      </trkpt>
      <trkpt lat="43.3954297285527" lon="-5.982338972389698">
        <ele>92.6</ele>
        <time>2017-08-02T09:19:34.000Z</time>
      </trkpt>
      <trkpt lat="43.395441714674234" lon="-5.982475345954299">
        <ele>95</ele>
        <time>2017-08-02T09:19:42.000Z</time>
      </trkpt>
      <trkpt lat="43.395462334156036" lon="-5.982610462233424">
        <ele>96.2</ele>
        <time>2017-08-02T09:19:50.000Z</time>
      </trkpt>
      <trkpt lat="43.39550835080445" lon="-5.98274415358901">
        <ele>98</ele>
        <time>2017-08-02T09:19:59.000Z</time>
      </trkpt>
      <trkpt lat="43.39554154314101" lon="-5.98284968174994">
        <ele>99.6</ele>
        <time>2017-08-02T09:20:06.000Z</time>
      </trkpt>
      <trkpt lat="43.395600970834494" lon="-5.982995023950934">
        <ele>102</ele>
        <time>2017-08-02T09:20:16.000Z</time>
      </trkpt>
      <trkpt lat="43.39565117843449" lon="-5.983126368373632">
        <ele>103.8</ele>
        <time>2017-08-02T09:20:25.000Z</time>
      </trkpt>
      <trkpt lat="43.39567598886788" lon="-5.983225274831057">
        <ele>105.2</ele>
        <time>2017-08-02T09:20:31.000Z</time>
      </trkpt>
      <trkpt lat="43.39570004492998" lon="-5.98333977162838">
        <ele>106.8</ele>
        <time>2017-08-02T09:20:38.000Z</time>
      </trkpt>
      <trkpt lat="43.39570876210928" lon="-5.983368856832385">
        <ele>107.2</ele>
        <time>2017-08-02T09:20:40.000Z</time>
      </trkpt>
      <trkpt lat="43.39571999385953" lon="-5.983434235677123">
        <ele>108</ele>
        <time>2017-08-02T09:20:44.000Z</time>
      </trkpt>
      <trkpt lat="43.395722256973386" lon="-5.98345167003572">
        <ele>108.2</ele>
        <time>2017-08-02T09:20:45.000Z</time>
      </trkpt>
      <trkpt lat="43.3957283757627" lon="-5.983568429946899">
        <ele>110</ele>
        <time>2017-08-02T09:20:52.000Z</time>
      </trkpt>
      <trkpt lat="43.39573482982814" lon="-5.983697762712836">
        <ele>111.4</ele>
        <time>2017-08-02T09:21:00.000Z</time>
      </trkpt>
      <trkpt lat="43.39573776349425" lon="-5.983765907585621">
        <ele>112.2</ele>
        <time>2017-08-02T09:21:04.000Z</time>
      </trkpt>
      <trkpt lat="43.39573751203716" lon="-5.983811588957906">
        <ele>112.8</ele>
        <time>2017-08-02T09:21:07.000Z</time>
      </trkpt>
      <trkpt lat="43.39573189616203" lon="-5.9839447773993015">
        <ele>113.6</ele>
        <time>2017-08-02T09:21:15.000Z</time>
      </trkpt>
      <trkpt lat="43.395736841484904" lon="-5.984084252268076">
        <ele>114.4</ele>
        <time>2017-08-02T09:21:23.000Z</time>
      </trkpt>
      <trkpt lat="43.39573994278908" lon="-5.984193719923496">
        <ele>114.8</ele>
        <time>2017-08-02T09:21:29.000Z</time>
      </trkpt>
      <trkpt lat="43.39573818258941" lon="-5.984322549775243">
        <ele>115.4</ele>
        <time>2017-08-02T09:21:36.000Z</time>
      </trkpt>
      <trkpt lat="43.395731477066875" lon="-5.984395556151867">
        <ele>115.6</ele>
        <time>2017-08-02T09:21:40.000Z</time>
      </trkpt>
      <trkpt lat="43.39572921395302" lon="-5.9844304248690605">
        <ele>115.8</ele>
        <time>2017-08-02T09:21:42.000Z</time>
      </trkpt>
      <trkpt lat="43.39573172852397" lon="-5.98444408737123">
        <ele>115.8</ele>
        <time>2017-08-02T09:21:43.000Z</time>
      </trkpt>
      <trkpt lat="43.3957215026021" lon="-5.98450175486505">
        <ele>116</ele>
        <time>2017-08-02T09:21:46.000Z</time>
      </trkpt>
      <trkpt lat="43.39571169577539" lon="-5.984628070145845">
        <ele>116.4</ele>
        <time>2017-08-02T09:21:53.000Z</time>
      </trkpt>
      <trkpt lat="43.39569509960711" lon="-5.984772406518459">
        <ele>116.4</ele>
        <time>2017-08-02T09:22:01.000Z</time>
      </trkpt>
      <trkpt lat="43.395682694390416" lon="-5.984930237755179">
        <ele>117</ele>
        <time>2017-08-02T09:22:10.000Z</time>
      </trkpt>
      <trkpt lat="43.39565897360444" lon="-5.985106425359845">
        <ele>118.4</ele>
        <time>2017-08-02T09:22:20.000Z</time>
      </trkpt>
      <trkpt lat="43.395638605579734" lon="-5.985261742025614">
        <ele>119</ele>
        <time>2017-08-02T09:22:29.000Z</time>
      </trkpt>
      <trkpt lat="43.395613711327314" lon="-5.985376825556159">
        <ele>119.8</ele>
        <time>2017-08-02T09:22:36.000Z</time>
      </trkpt>
      <trkpt lat="43.39559116400778" lon="-5.985470786690712">
        <ele>120.4</ele>
        <time>2017-08-02T09:22:42.000Z</time>
      </trkpt>
      <trkpt lat="43.39555445127189" lon="-5.985601209104061">
        <ele>121.4</ele>
        <time>2017-08-02T09:22:50.000Z</time>
      </trkpt>
      <trkpt lat="43.39553383179009" lon="-5.985688883811235">
        <ele>122</ele>
        <time>2017-08-02T09:22:55.000Z</time>
      </trkpt>
      <trkpt lat="43.39553190395236" lon="-5.9857027139514685">
        <ele>122</ele>
        <time>2017-08-02T09:22:56.000Z</time>
      </trkpt>
      <trkpt lat="43.39551229029894" lon="-5.985774379223585">
        <ele>122.6</ele>
        <time>2017-08-02T09:23:00.000Z</time>
      </trkpt>
      <trkpt lat="43.39549242518842" lon="-5.985831627622247">
        <ele>123.2</ele>
        <time>2017-08-02T09:23:03.000Z</time>
      </trkpt>
      <trkpt lat="43.39544054120779" lon="-5.98598962649703">
        <ele>124.6</ele>
        <time>2017-08-02T09:23:12.000Z</time>
      </trkpt>
      <trkpt lat="43.395381616428494" lon="-5.986175369471312">
        <ele>126</ele>
        <time>2017-08-02T09:23:22.000Z</time>
      </trkpt>
      <trkpt lat="43.39536326006055" lon="-5.986366476863623">
        <ele>125.6</ele>
        <time>2017-08-02T09:23:32.000Z</time>
      </trkpt>
      <trkpt lat="43.39537306688726" lon="-5.9865084663033485">
        <ele>125.8</ele>
        <time>2017-08-02T09:23:40.000Z</time>
      </trkpt>
      <trkpt lat="43.395364517346025" lon="-5.986657161265612">
        <ele>126</ele>
        <time>2017-08-02T09:23:47.000Z</time>
      </trkpt>
      <trkpt lat="43.39536434970796" lon="-5.986761515960097">
        <ele>126.2</ele>
        <time>2017-08-02T09:23:53.000Z</time>
      </trkpt>
      <trkpt lat="43.3953641820699" lon="-5.986798899248242">
        <ele>126.4</ele>
        <time>2017-08-02T09:23:55.000Z</time>
      </trkpt>
      <trkpt lat="43.39536719955504" lon="-5.9869668725878">
        <ele>126.4</ele>
        <time>2017-08-02T09:24:04.000Z</time>
      </trkpt>
      <trkpt lat="43.39535831473768" lon="-5.987133337184787">
        <ele>127</ele>
        <time>2017-08-02T09:24:13.000Z</time>
      </trkpt>
      <trkpt lat="43.39532076381147" lon="-5.987298544496298">
        <ele>128</ele>
        <time>2017-08-02T09:24:22.000Z</time>
      </trkpt>
      <trkpt lat="43.39526862837374" lon="-5.987464841455221">
        <ele>128.4</ele>
        <time>2017-08-02T09:24:32.000Z</time>
      </trkpt>
      <trkpt lat="43.395225293934345" lon="-5.987548492848873">
        <ele>128.6</ele>
        <time>2017-08-02T09:24:38.000Z</time>
      </trkpt>
      <trkpt lat="43.395152539014816" lon="-5.987679166719317">
        <ele>129</ele>
        <time>2017-08-02T09:24:47.000Z</time>
      </trkpt>
      <trkpt lat="43.39509738609195" lon="-5.987805565819144">
        <ele>129.6</ele>
        <time>2017-08-02T09:24:55.000Z</time>
      </trkpt>
      <trkpt lat="43.39504667557776" lon="-5.987940598279238">
        <ele>130</ele>
        <time>2017-08-02T09:25:03.000Z</time>
      </trkpt>
      <trkpt lat="43.39496520347893" lon="-5.9881144389510155">
        <ele>130.4</ele>
        <time>2017-08-02T09:25:14.000Z</time>
      </trkpt>
      <trkpt lat="43.394874008372426" lon="-5.988283585757017">
        <ele>131.4</ele>
        <time>2017-08-02T09:25:25.000Z</time>
      </trkpt>
      <trkpt lat="43.3947888482362" lon="-5.988436639308929">
        <ele>132.6</ele>
        <time>2017-08-02T09:25:36.000Z</time>
      </trkpt>
      <trkpt lat="43.394722966477275" lon="-5.988564966246486">
        <ele>133.6</ele>
        <time>2017-08-02T09:25:44.000Z</time>
      </trkpt>
      <trkpt lat="43.394666220992804" lon="-5.988735454156995">
        <ele>134</ele>
        <time>2017-08-02T09:25:54.000Z</time>
      </trkpt>
      <trkpt lat="43.39462364092469" lon="-5.988918766379356">
        <ele>133</ele>
        <time>2017-08-02T09:26:04.000Z</time>
      </trkpt>
      <trkpt lat="43.39461618103087" lon="-5.9891419764608145">
        <ele>132</ele>
        <time>2017-08-02T09:26:16.000Z</time>
      </trkpt>
      <trkpt lat="43.39462632313371" lon="-5.989229315891862">
        <ele>132</ele>
        <time>2017-08-02T09:26:24.000Z</time>
      </trkpt>
      <trkpt lat="43.394624311476946" lon="-5.989207020029426">
        <ele>132</ele>
        <time>2017-08-02T09:26:29.000Z</time>
      </trkpt>
      <trkpt lat="43.39461953379214" lon="-5.989276673644781">
        <ele>132</ele>
        <time>2017-08-02T09:26:37.000Z</time>
      </trkpt>
      <trkpt lat="43.3946302626282" lon="-5.989296790212393">
        <ele>132</ele>
        <time>2017-08-02T09:26:43.000Z</time>
      </trkpt>
      <trkpt lat="43.394608134403825" lon="-5.989359738305211">
        <ele>132.2</ele>
        <time>2017-08-02T09:28:35.000Z</time>
      </trkpt>
      <trkpt lat="43.39460461400449" lon="-5.989384381100535">
        <ele>132.2</ele>
        <time>2017-08-02T09:28:37.000Z</time>
      </trkpt>
      <trkpt lat="43.39460050687194" lon="-5.989447999745607">
        <ele>132.6</ele>
        <time>2017-08-02T09:28:41.000Z</time>
      </trkpt>
      <trkpt lat="43.394592041149735" lon="-5.989573979750276">
        <ele>133</ele>
        <time>2017-08-02T09:28:49.000Z</time>
      </trkpt>
      <trkpt lat="43.394568068906665" lon="-5.989719908684492">
        <ele>133.6</ele>
        <time>2017-08-02T09:28:58.000Z</time>
      </trkpt>
      <trkpt lat="43.394535295665264" lon="-5.989873465150595">
        <ele>134.6</ele>
        <time>2017-08-02T09:29:08.000Z</time>
      </trkpt>
      <trkpt lat="43.3945041988045" lon="-5.989996427670121">
        <ele>135.4</ele>
        <time>2017-08-02T09:29:16.000Z</time>
      </trkpt>
      <trkpt lat="43.39445290155709" lon="-5.990136656910181">
        <ele>136.2</ele>
        <time>2017-08-02T09:29:25.000Z</time>
      </trkpt>
      <trkpt lat="43.394449381157756" lon="-5.990152331069112">
        <ele>136.2</ele>
        <time>2017-08-02T09:29:26.000Z</time>
      </trkpt>
      <trkpt lat="43.394434126093984" lon="-5.9902348928153515">
        <ele>136.8</ele>
        <time>2017-08-02T09:29:31.000Z</time>
      </trkpt>
      <trkpt lat="43.39441350661218" lon="-5.990347797051072">
        <ele>137.6</ele>
        <time>2017-08-02T09:29:38.000Z</time>
      </trkpt>
      <trkpt lat="43.39441241696477" lon="-5.9903656505048275">
        <ele>137.6</ele>
        <time>2017-08-02T09:29:39.000Z</time>
      </trkpt>
      <trkpt lat="43.394419038668275" lon="-5.990482913330197">
        <ele>138.2</ele>
        <time>2017-08-02T09:29:46.000Z</time>
      </trkpt>
      <trkpt lat="43.39442423544824" lon="-5.990640996024013">
        <ele>138.8</ele>
        <time>2017-08-02T09:29:55.000Z</time>
      </trkpt>
      <trkpt lat="43.39443773031235" lon="-5.990775860846043">
        <ele>139</ele>
        <time>2017-08-02T09:30:03.000Z</time>
      </trkpt>
      <trkpt lat="43.394450806081295" lon="-5.9909246396273375">
        <ele>139.2</ele>
        <time>2017-08-02T09:30:11.000Z</time>
      </trkpt>
      <trkpt lat="43.39446027763188" lon="-5.991075932979584">
        <ele>138.8</ele>
        <time>2017-08-02T09:30:19.000Z</time>
      </trkpt>
      <trkpt lat="43.39447100646794" lon="-5.991208115592599">
        <ele>138.2</ele>
        <time>2017-08-02T09:30:26.000Z</time>
      </trkpt>
      <trkpt lat="43.39448131620884" lon="-5.991393439471722">
        <ele>136.8</ele>
        <time>2017-08-02T09:30:36.000Z</time>
      </trkpt>
      <trkpt lat="43.394490871578455" lon="-5.991517240181565">
        <ele>135.6</ele>
        <time>2017-08-02T09:30:43.000Z</time>
      </trkpt>
      <trkpt lat="43.39449455961585" lon="-5.9916753228753805">
        <ele>133.8</ele>
        <time>2017-08-02T09:30:52.000Z</time>
      </trkpt>
      <trkpt lat="43.39449254795909" lon="-5.991853941231966">
        <ele>132.2</ele>
        <time>2017-08-02T09:31:02.000Z</time>
      </trkpt>
      <trkpt lat="43.39448232203722" lon="-5.992060052230954">
        <ele>131.6</ele>
        <time>2017-08-02T09:31:13.000Z</time>
      </trkpt>
      <trkpt lat="43.394486010074615" lon="-5.9921029675751925">
        <ele>131.4</ele>
        <time>2017-08-02T09:31:16.000Z</time>
      </trkpt>
      <trkpt lat="43.39448324404657" lon="-5.992103470489383">
        <ele>131.4</ele>
        <time>2017-08-02T09:31:19.000Z</time>
      </trkpt>
      <trkpt lat="43.39450243860483" lon="-5.992127442732453">
        <ele>131</ele>
        <time>2017-08-02T09:31:26.000Z</time>
      </trkpt>
      <trkpt lat="43.39448584243655" lon="-5.992247220128775">
        <ele>130.2</ele>
        <time>2017-08-02T09:31:33.000Z</time>
      </trkpt>
      <trkpt lat="43.39445248246193" lon="-5.992484595626593">
        <ele>129.2</ele>
        <time>2017-08-02T09:31:46.000Z</time>
      </trkpt>
      <trkpt lat="43.39442415162921" lon="-5.9926581010222435">
        <ele>128.8</ele>
        <time>2017-08-02T09:31:56.000Z</time>
      </trkpt>
      <trkpt lat="43.394398503005505" lon="-5.992815680801868">
        <ele>128.6</ele>
        <time>2017-08-02T09:32:05.000Z</time>
      </trkpt>
      <trkpt lat="43.3943746984005" lon="-5.992959011346102">
        <ele>128.2</ele>
        <time>2017-08-02T09:32:13.000Z</time>
      </trkpt>
      <trkpt lat="43.394338488578796" lon="-5.993136623874307">
        <ele>128.2</ele>
        <time>2017-08-02T09:32:23.000Z</time>
      </trkpt>
      <trkpt lat="43.394308146089315" lon="-5.993277272209525">
        <ele>128</ele>
        <time>2017-08-02T09:32:31.000Z</time>
      </trkpt>
      <trkpt lat="43.394279731437564" lon="-5.99341532215476">
        <ele>127.6</ele>
        <time>2017-08-02T09:32:39.000Z</time>
      </trkpt>
      <trkpt lat="43.394241174682975" lon="-5.993568040430546">
        <ele>127.2</ele>
        <time>2017-08-02T09:32:48.000Z</time>
      </trkpt>
      <trkpt lat="43.39424620382488" lon="-5.993582876399159">
        <ele>127.2</ele>
        <time>2017-08-02T09:32:49.000Z</time>
      </trkpt>
      <trkpt lat="43.39428383857012" lon="-5.993723189458251">
        <ele>127</ele>
        <time>2017-08-02T09:32:57.000Z</time>
      </trkpt>
      <trkpt lat="43.394299764186144" lon="-5.993885295465589">
        <ele>126.4</ele>
        <time>2017-08-02T09:33:06.000Z</time>
      </trkpt>
      <trkpt lat="43.39434829540551" lon="-5.99401437677443">
        <ele>125.4</ele>
        <time>2017-08-02T09:33:14.000Z</time>
      </trkpt>
      <trkpt lat="43.3943900372833" lon="-5.994171621277928">
        <ele>123.6</ele>
        <time>2017-08-02T09:33:23.000Z</time>
      </trkpt>
      <trkpt lat="43.39441828429699" lon="-5.994298690930009">
        <ele>122</ele>
        <time>2017-08-02T09:33:30.000Z</time>
      </trkpt>
      <trkpt lat="43.394449297338724" lon="-5.9944563545286655">
        <ele>120.6</ele>
        <time>2017-08-02T09:33:39.000Z</time>
      </trkpt>
      <trkpt lat="43.39449682272971" lon="-5.994572192430496">
        <ele>119.4</ele>
        <time>2017-08-02T09:33:46.000Z</time>
      </trkpt>
      <trkpt lat="43.39454300701618" lon="-5.994624327868223">
        <ele>119</ele>
        <time>2017-08-02T09:33:51.000Z</time>
      </trkpt>
      <trkpt lat="43.394563123583794" lon="-5.994673278182745">
        <ele>118.6</ele>
        <time>2017-08-02T09:33:54.000Z</time>
      </trkpt>
      <trkpt lat="43.39461735449731" lon="-5.994805628433824">
        <ele>118.2</ele>
        <time>2017-08-02T09:34:02.000Z</time>
      </trkpt>
      <trkpt lat="43.39465322904289" lon="-5.994941582903266">
        <ele>118.2</ele>
        <time>2017-08-02T09:34:10.000Z</time>
      </trkpt>
      <trkpt lat="43.3946595992893" lon="-5.994958262890577">
        <ele>118.2</ele>
        <time>2017-08-02T09:34:11.000Z</time>
      </trkpt>
      <trkpt lat="43.39469329454005" lon="-5.9950601030141115">
        <ele>117.2</ele>
        <time>2017-08-02T09:34:17.000Z</time>
      </trkpt>
      <trkpt lat="43.39472774416208" lon="-5.995206534862518">
        <ele>117.2</ele>
        <time>2017-08-02T09:34:26.000Z</time>
      </trkpt>
      <trkpt lat="43.39473067782819" lon="-5.995253473520279">
        <ele>117.6</ele>
        <time>2017-08-02T09:34:31.000Z</time>
      </trkpt>
      <trkpt lat="43.394735623151064" lon="-5.995266968384385">
        <ele>117.6</ele>
        <time>2017-08-02T09:34:32.000Z</time>
      </trkpt>
      <trkpt lat="43.39476780965924" lon="-5.99535321816802">
        <ele>117.8</ele>
        <time>2017-08-02T09:34:38.000Z</time>
      </trkpt>
      <trkpt lat="43.39480611495674" lon="-5.995457824319601">
        <ele>116.8</ele>
        <time>2017-08-02T09:34:45.000Z</time>
      </trkpt>
      <trkpt lat="43.394833439961076" lon="-5.995565447956324">
        <ele>117</ele>
        <time>2017-08-02T09:34:52.000Z</time>
      </trkpt>
      <trkpt lat="43.394838804379106" lon="-5.995690757408738">
        <ele>116.8</ele>
        <time>2017-08-02T09:34:59.000Z</time>
      </trkpt>
      <trkpt lat="43.39484542608261" lon="-5.995738618075848">
        <ele>116.2</ele>
        <time>2017-08-02T09:35:02.000Z</time>
      </trkpt>
      <trkpt lat="43.39485238306224" lon="-5.9957866463810205">
        <ele>115.8</ele>
        <time>2017-08-02T09:35:05.000Z</time>
      </trkpt>
      <trkpt lat="43.39486093260348" lon="-5.995895946398377">
        <ele>114.8</ele>
        <time>2017-08-02T09:35:11.000Z</time>
      </trkpt>
      <trkpt lat="43.39484475553036" lon="-5.996037852019072">
        <ele>114</ele>
        <time>2017-08-02T09:35:20.000Z</time>
      </trkpt>
      <trkpt lat="43.394840313121676" lon="-5.996064003556967">
        <ele>113.8</ele>
        <time>2017-08-02T09:35:22.000Z</time>
      </trkpt>
      <trkpt lat="43.39482572861016" lon="-5.996121000498533">
        <ele>113.6</ele>
        <time>2017-08-02T09:35:26.000Z</time>
      </trkpt>
      <trkpt lat="43.39482489041984" lon="-5.996162239462137">
        <ele>113</ele>
        <time>2017-08-02T09:35:29.000Z</time>
      </trkpt>
      <trkpt lat="43.394816759973764" lon="-5.9961960185319185">
        <ele>112.8</ele>
        <time>2017-08-02T09:35:31.000Z</time>
      </trkpt>
      <trkpt lat="43.39477459900081" lon="-5.996292997151613">
        <ele>112.2</ele>
        <time>2017-08-02T09:35:38.000Z</time>
      </trkpt>
      <trkpt lat="43.394705364480615" lon="-5.996376480907202">
        <ele>112.4</ele>
        <time>2017-08-02T09:35:45.000Z</time>
      </trkpt>
      <trkpt lat="43.39465825818479" lon="-5.996472118422389">
        <ele>110.8</ele>
        <time>2017-08-02T09:35:52.000Z</time>
      </trkpt>
      <trkpt lat="43.39464451186359" lon="-5.996490977704525">
        <ele>110.4</ele>
        <time>2017-08-02T09:35:54.000Z</time>
      </trkpt>
      <trkpt lat="43.394620874896646" lon="-5.996529785916209">
        <ele>109.6</ele>
        <time>2017-08-02T09:35:58.000Z</time>
      </trkpt>
      <trkpt lat="43.39456723071635" lon="-5.996620897203684">
        <ele>107.6</ele>
        <time>2017-08-02T09:36:06.000Z</time>
      </trkpt>
      <trkpt lat="43.394520124420524" lon="-5.9967011120170355">
        <ele>105.8</ele>
        <time>2017-08-02T09:36:13.000Z</time>
      </trkpt>
      <trkpt lat="43.39446170255542" lon="-5.996787864714861">
        <ele>104</ele>
        <time>2017-08-02T09:36:20.000Z</time>
      </trkpt>
      <trkpt lat="43.39443990960717" lon="-5.996827678754926">
        <ele>103.2</ele>
        <time>2017-08-02T09:36:23.000Z</time>
      </trkpt>
      <trkpt lat="43.394415602087975" lon="-5.996868247166276">
        <ele>102.6</ele>
        <time>2017-08-02T09:36:26.000Z</time>
      </trkpt>
      <trkpt lat="43.39436053298414" lon="-5.99694904871285">
        <ele>101.2</ele>
        <time>2017-08-02T09:36:34.000Z</time>
      </trkpt>
      <trkpt lat="43.39431661181152" lon="-5.997053822502494">
        <ele>99.4</ele>
        <time>2017-08-02T09:36:42.000Z</time>
      </trkpt>
      <trkpt lat="43.394267996773124" lon="-5.997135629877448">
        <ele>98.2</ele>
        <time>2017-08-02T09:36:48.000Z</time>
      </trkpt>
      <trkpt lat="43.39426330290735" lon="-5.997147364541888">
        <ele>98</ele>
        <time>2017-08-02T09:36:49.000Z</time>
      </trkpt>
      <trkpt lat="43.394246539101005" lon="-5.997168738394976">
        <ele>97.6</ele>
        <time>2017-08-02T09:36:52.000Z</time>
      </trkpt>
      <trkpt lat="43.39423614554107" lon="-5.9971752762794495">
        <ele>97.6</ele>
        <time>2017-08-02T09:36:54.000Z</time>
      </trkpt>
      <trkpt lat="43.394226590171456" lon="-5.997191034257412">
        <ele>97.4</ele>
        <time>2017-08-02T09:36:56.000Z</time>
      </trkpt>
      <trkpt lat="43.39419985190034" lon="-5.997241996228695">
        <ele>96.6</ele>
        <time>2017-08-02T09:37:00.000Z</time>
      </trkpt>
      <trkpt lat="43.39417403563857" lon="-5.997320702299476">
        <ele>95.4</ele>
        <time>2017-08-02T09:37:06.000Z</time>
      </trkpt>
      <trkpt lat="43.3942087367177" lon="-5.997400665655732">
        <ele>94</ele>
        <time>2017-08-02T09:37:13.000Z</time>
      </trkpt>
      <trkpt lat="43.39424427598715" lon="-5.997483227401972">
        <ele>92.4</ele>
        <time>2017-08-02T09:37:20.000Z</time>
      </trkpt>
      <trkpt lat="43.394253915175796" lon="-5.997490268200636">
        <ele>92.2</ele>
        <time>2017-08-02T09:37:21.000Z</time>
      </trkpt>
      <trkpt lat="43.39425316080451" lon="-5.997504349797964">
        <ele>92</ele>
        <time>2017-08-02T09:37:22.000Z</time>
      </trkpt>
      <trkpt lat="43.394260201603174" lon="-5.997529327869415">
        <ele>91.8</ele>
        <time>2017-08-02T09:37:25.000Z</time>
      </trkpt>
      <trkpt lat="43.39426095597446" lon="-5.997540391981602">
        <ele>91.8</ele>
        <time>2017-08-02T09:37:26.000Z</time>
      </trkpt>
      <trkpt lat="43.39426632039249" lon="-5.9975760988891125">
        <ele>91.4</ele>
        <time>2017-08-02T09:37:30.000Z</time>
      </trkpt>
      <trkpt lat="43.39426732622087" lon="-5.997578948736191">
        <ele>91.4</ele>
        <time>2017-08-02T09:37:31.000Z</time>
      </trkpt>
      <trkpt lat="43.39425408281386" lon="-5.9976226184517145">
        <ele>91.2</ele>
        <time>2017-08-02T09:37:42.000Z</time>
      </trkpt>
      <trkpt lat="43.39423111639917" lon="-5.997696882113814">
        <ele>90.6</ele>
        <time>2017-08-02T09:37:54.000Z</time>
      </trkpt>
      <trkpt lat="43.39422876946628" lon="-5.997742060571909">
        <ele>90.2</ele>
        <time>2017-08-02T09:37:59.000Z</time>
      </trkpt>
      <trkpt lat="43.394218208268285" lon="-5.997795453295112">
        <ele>89.8</ele>
        <time>2017-08-02T09:38:04.000Z</time>
      </trkpt>
      <trkpt lat="43.39420278556645" lon="-5.9978570602834225">
        <ele>89.4</ele>
        <time>2017-08-02T09:38:10.000Z</time>
      </trkpt>
      <trkpt lat="43.39418761432171" lon="-5.997911207377911">
        <ele>89</ele>
        <time>2017-08-02T09:38:15.000Z</time>
      </trkpt>
      <trkpt lat="43.394158612936735" lon="-5.997987315058708">
        <ele>88.2</ele>
        <time>2017-08-02T09:38:21.000Z</time>
      </trkpt>
      <trkpt lat="43.39411938562989" lon="-5.998104829341173">
        <ele>87</ele>
        <time>2017-08-02T09:38:28.000Z</time>
      </trkpt>
      <trkpt lat="43.3940998557955" lon="-5.998183116316795">
        <ele>86.2</ele>
        <time>2017-08-02T09:38:33.000Z</time>
      </trkpt>
      <trkpt lat="43.394100526347756" lon="-5.998195102438331">
        <ele>86.2</ele>
        <time>2017-08-02T09:38:34.000Z</time>
      </trkpt>
      <trkpt lat="43.39410496875644" lon="-5.9982670191675425">
        <ele>85.6</ele>
        <time>2017-08-02T09:38:39.000Z</time>
      </trkpt>
      <trkpt lat="43.39410153217614" lon="-5.998298786580563">
        <ele>85.4</ele>
        <time>2017-08-02T09:38:41.000Z</time>
      </trkpt>
      <trkpt lat="43.394111674278975" lon="-5.998322255909443">
        <ele>85.2</ele>
        <time>2017-08-02T09:38:42.000Z</time>
      </trkpt>
      <trkpt lat="43.394114691764116" lon="-5.99835142493248">
        <ele>85</ele>
        <time>2017-08-02T09:38:44.000Z</time>
      </trkpt>
      <trkpt lat="43.39412181638181" lon="-5.998466592282057">
        <ele>84</ele>
        <time>2017-08-02T09:38:50.000Z</time>
      </trkpt>
      <trkpt lat="43.394120559096336" lon="-5.9985479805618525">
        <ele>83.6</ele>
        <time>2017-08-02T09:38:55.000Z</time>
      </trkpt>
      <trkpt lat="43.39411796070635" lon="-5.998578323051333">
        <ele>83.4</ele>
        <time>2017-08-02T09:38:57.000Z</time>
      </trkpt>
      <trkpt lat="43.394118044525385" lon="-5.998609084635973">
        <ele>83.2</ele>
        <time>2017-08-02T09:38:59.000Z</time>
      </trkpt>
      <trkpt lat="43.39410756714642" lon="-5.998682593926787">
        <ele>82.6</ele>
        <time>2017-08-02T09:39:03.000Z</time>
      </trkpt>
      <trkpt lat="43.39410278946161" lon="-5.998696675524116">
        <ele>82.6</ele>
        <time>2017-08-02T09:39:05.000Z</time>
      </trkpt>
      <trkpt lat="43.39409281499684" lon="-5.998738249763846">
        <ele>82.4</ele>
        <time>2017-08-02T09:39:08.000Z</time>
      </trkpt>
      <trkpt lat="43.39409692212939" lon="-5.998769011348486">
        <ele>82.2</ele>
        <time>2017-08-02T09:39:10.000Z</time>
      </trkpt>
      <trkpt lat="43.394081415608525" lon="-5.9988398384302855">
        <ele>82.4</ele>
        <time>2017-08-02T09:39:15.000Z</time>
      </trkpt>
      <trkpt lat="43.39408393017948" lon="-5.998857021331787">
        <ele>82.4</ele>
        <time>2017-08-02T09:39:16.000Z</time>
      </trkpt>
      <trkpt lat="43.39408602565527" lon="-5.998931033536792">
        <ele>82.4</ele>
        <time>2017-08-02T09:39:20.000Z</time>
      </trkpt>
      <trkpt lat="43.39408493600786" lon="-5.998995993286371">
        <ele>82.4</ele>
        <time>2017-08-02T09:39:24.000Z</time>
      </trkpt>
      <trkpt lat="43.394083846360445" lon="-5.999010829254985">
        <ele>82.4</ele>
        <time>2017-08-02T09:39:25.000Z</time>
      </trkpt>
      <trkpt lat="43.394082421436906" lon="-5.999086936935782">
        <ele>82.4</ele>
        <time>2017-08-02T09:39:29.000Z</time>
      </trkpt>
      <trkpt lat="43.394085774198174" lon="-5.999120213091373">
        <ele>82.2</ele>
        <time>2017-08-02T09:39:31.000Z</time>
      </trkpt>
      <trkpt lat="43.394094659015536" lon="-5.999218029901385">
        <ele>81.8</ele>
        <time>2017-08-02T09:39:36.000Z</time>
      </trkpt>
      <trkpt lat="43.39410178363323" lon="-5.999280558899045">
        <ele>81.4</ele>
        <time>2017-08-02T09:39:39.000Z</time>
      </trkpt>
      <trkpt lat="43.39409273117781" lon="-5.999334119260311">
        <ele>81.4</ele>
        <time>2017-08-02T09:39:42.000Z</time>
      </trkpt>
      <trkpt lat="43.394092647358775" lon="-5.999357337132096">
        <ele>81.4</ele>
        <time>2017-08-02T09:39:43.000Z</time>
      </trkpt>
      <trkpt lat="43.39409281499684" lon="-5.999470492824912">
        <ele>82.2</ele>
        <time>2017-08-02T09:39:48.000Z</time>
      </trkpt>
      <trkpt lat="43.39408066123724" lon="-5.999559508636594">
        <ele>82.8</ele>
        <time>2017-08-02T09:39:54.000Z</time>
      </trkpt>
      <trkpt lat="43.39407722465694" lon="-5.999575266614556">
        <ele>83</ele>
        <time>2017-08-02T09:39:55.000Z</time>
      </trkpt>
      <trkpt lat="43.39403464458883" lon="-5.999696301296353">
        <ele>83.4</ele>
        <time>2017-08-02T09:40:02.000Z</time>
      </trkpt>
      <trkpt lat="43.39400187134743" lon="-5.9997928608208895">
        <ele>83.4</ele>
        <time>2017-08-02T09:40:08.000Z</time>
      </trkpt>
      <trkpt lat="43.3939962554723" lon="-5.999797638505697">
        <ele>83.6</ele>
        <time>2017-08-02T09:40:09.000Z</time>
      </trkpt>
      <trkpt lat="43.393985107541084" lon="-5.9998243767768145">
        <ele>83.6</ele>
        <time>2017-08-02T09:40:11.000Z</time>
      </trkpt>
      <trkpt lat="43.3939687628299" lon="-5.999870225787163">
        <ele>83</ele>
        <time>2017-08-02T09:40:14.000Z</time>
      </trkpt>
      <trkpt lat="43.39396792463958" lon="-5.999880116432905">
        <ele>83</ele>
        <time>2017-08-02T09:40:15.000Z</time>
      </trkpt>
      <trkpt lat="43.39394252747297" lon="-5.999947674572468">
        <ele>83.4</ele>
        <time>2017-08-02T09:40:19.000Z</time>
      </trkpt>
      <trkpt lat="43.39389734901488" lon="-6.000082874670625">
        <ele>83.8</ele>
        <time>2017-08-02T09:40:27.000Z</time>
      </trkpt>
      <trkpt lat="43.39387874118984" lon="-6.000209609046578">
        <ele>83</ele>
        <time>2017-08-02T09:40:35.000Z</time>
      </trkpt>
      <trkpt lat="43.39387480169535" lon="-6.000277167186141">
        <ele>82.4</ele>
        <time>2017-08-02T09:40:39.000Z</time>
      </trkpt>
      <trkpt lat="43.393874717876315" lon="-6.000314801931381">
        <ele>82</ele>
        <time>2017-08-02T09:40:41.000Z</time>
      </trkpt>
      <trkpt lat="43.39387354440987" lon="-6.0003328230232">
        <ele>81.8</ele>
        <time>2017-08-02T09:40:42.000Z</time>
      </trkpt>
      <trkpt lat="43.393863905221224" lon="-6.000416893512011">
        <ele>81</ele>
        <time>2017-08-02T09:40:47.000Z</time>
      </trkpt>
      <trkpt lat="43.3938530087471" lon="-6.000485122203827">
        <ele>80.4</ele>
        <time>2017-08-02T09:40:52.000Z</time>
      </trkpt>
      <trkpt lat="43.393850326538086" lon="-6.000536922365427">
        <ele>79.8</ele>
        <time>2017-08-02T09:40:57.000Z</time>
      </trkpt>
      <trkpt lat="43.393850829452276" lon="-6.000562235713005">
        <ele>79.6</ele>
        <time>2017-08-02T09:40:59.000Z</time>
      </trkpt>
      <trkpt lat="43.393854685127735" lon="-6.000574054196477">
        <ele>79.4</ele>
        <time>2017-08-02T09:41:00.000Z</time>
      </trkpt>
      <trkpt lat="43.393859630450606" lon="-6.000602301210165">
        <ele>79</ele>
        <time>2017-08-02T09:41:03.000Z</time>
      </trkpt>
      <trkpt lat="43.39386650361121" lon="-6.0006507486104965">
        <ele>78.4</ele>
        <time>2017-08-02T09:41:07.000Z</time>
      </trkpt>
      <trkpt lat="43.39386801235378" lon="-6.00066801533103">
        <ele>78.2</ele>
        <time>2017-08-02T09:41:08.000Z</time>
      </trkpt>
      <trkpt lat="43.39386432431638" lon="-6.000743117183447">
        <ele>77.4</ele>
        <time>2017-08-02T09:41:14.000Z</time>
      </trkpt>
      <trkpt lat="43.39386222884059" lon="-6.0007585398852825">
        <ele>77.2</ele>
        <time>2017-08-02T09:41:15.000Z</time>
      </trkpt>
      <trkpt lat="43.393843369558454" lon="-6.000859960913658">
        <ele>76.4</ele>
        <time>2017-08-02T09:41:20.000Z</time>
      </trkpt>
      <trkpt lat="43.393830796703696" lon="-6.00088644772768">
        <ele>76.4</ele>
        <time>2017-08-02T09:41:22.000Z</time>
      </trkpt>
      <trkpt lat="43.39381478726864" lon="-6.000924417749047">
        <ele>76.2</ele>
        <time>2017-08-02T09:41:25.000Z</time>
      </trkpt>
      <trkpt lat="43.39380841702223" lon="-6.000932129099965">
        <ele>76.2</ele>
        <time>2017-08-02T09:41:26.000Z</time>
      </trkpt>
      <trkpt lat="43.39376114308834" lon="-6.000998765230179">
        <ele>76.2</ele>
        <time>2017-08-02T09:41:30.000Z</time>
      </trkpt>
      <trkpt lat="43.3937478158623" lon="-6.001039333641529">
        <ele>76.2</ele>
        <time>2017-08-02T09:41:33.000Z</time>
      </trkpt>
      <trkpt lat="43.3937406912446" lon="-6.0010589472949505">
        <ele>76</ele>
        <time>2017-08-02T09:41:34.000Z</time>
      </trkpt>
      <trkpt lat="43.39368428103626" lon="-6.00112927146256">
        <ele>76.4</ele>
        <time>2017-08-02T09:41:39.000Z</time>
      </trkpt>
      <trkpt lat="43.393649915233254" lon="-6.001183250918984">
        <ele>76.6</ele>
        <time>2017-08-02T09:41:44.000Z</time>
      </trkpt>
      <trkpt lat="43.393604485318065" lon="-6.001289952546358">
        <ele>76.6</ele>
        <time>2017-08-02T09:41:51.000Z</time>
      </trkpt>
      <trkpt lat="43.39359384030104" lon="-6.001311494037509">
        <ele>76.4</ele>
        <time>2017-08-02T09:41:57.000Z</time>
      </trkpt>
      <trkpt lat="43.39354204013944" lon="-6.001390283927321">
        <ele>76.8</ele>
        <time>2017-08-02T09:42:11.000Z</time>
      </trkpt>
      <trkpt lat="43.39351546950638" lon="-6.001438815146685">
        <ele>77</ele>
        <time>2017-08-02T09:42:16.000Z</time>
      </trkpt>
      <trkpt lat="43.39348990470171" lon="-6.001518275588751">
        <ele>77</ele>
        <time>2017-08-02T09:42:22.000Z</time>
      </trkpt>
      <trkpt lat="43.39347179979086" lon="-6.001624558120966">
        <ele>75.6</ele>
        <time>2017-08-02T09:42:29.000Z</time>
      </trkpt>
      <trkpt lat="43.39344464242458" lon="-6.001715753227472">
        <ele>75.2</ele>
        <time>2017-08-02T09:42:35.000Z</time>
      </trkpt>
      <trkpt lat="43.3934333268553" lon="-6.001839134842157">
        <ele>74.2</ele>
        <time>2017-08-02T09:42:42.000Z</time>
      </trkpt>
      <trkpt lat="43.3934264536947" lon="-6.001944411545992">
        <ele>72.6</ele>
        <time>2017-08-02T09:42:48.000Z</time>
      </trkpt>
      <trkpt lat="43.39343022555113" lon="-6.0019580740481615">
        <ele>72.4</ele>
        <time>2017-08-02T09:42:49.000Z</time>
      </trkpt>
      <trkpt lat="43.39342921972275" lon="-6.002023620530963">
        <ele>71.6</ele>
        <time>2017-08-02T09:42:53.000Z</time>
      </trkpt>
      <trkpt lat="43.39343911036849" lon="-6.002076845616102">
        <ele>70.6</ele>
        <time>2017-08-02T09:42:56.000Z</time>
      </trkpt>
      <trkpt lat="43.39344824664295" lon="-6.002128645777702">
        <ele>69.6</ele>
        <time>2017-08-02T09:42:59.000Z</time>
      </trkpt>
      <trkpt lat="43.393448581919074" lon="-6.002267114818096">
        <ele>67.6</ele>
        <time>2017-08-02T09:43:07.000Z</time>
      </trkpt>
      <trkpt lat="43.39345620945096" lon="-6.002349676564336">
        <ele>66.6</ele>
        <time>2017-08-02T09:43:12.000Z</time>
      </trkpt>
      <trkpt lat="43.39346157386899" lon="-6.002382030710578">
        <ele>66.2</ele>
        <time>2017-08-02T09:43:14.000Z</time>
      </trkpt>
      <trkpt lat="43.39345679618418" lon="-6.002407008782029">
        <ele>65.8</ele>
        <time>2017-08-02T09:43:17.000Z</time>
      </trkpt>
      <trkpt lat="43.393459394574165" lon="-6.002417989075184">
        <ele>65.6</ele>
        <time>2017-08-02T09:43:18.000Z</time>
      </trkpt>
      <trkpt lat="43.39346174150705" lon="-6.002431148663163">
        <ele>65.4</ele>
        <time>2017-08-02T09:43:19.000Z</time>
      </trkpt>
      <trkpt lat="43.393476409837604" lon="-6.002470543608069">
        <ele>64.8</ele>
        <time>2017-08-02T09:43:24.000Z</time>
      </trkpt>
      <trkpt lat="43.393482780084014" lon="-6.002488397061825">
        <ele>64.6</ele>
        <time>2017-08-02T09:43:26.000Z</time>
      </trkpt>
      <trkpt lat="43.39349082671106" lon="-6.002528043463826">
        <ele>64.2</ele>
        <time>2017-08-02T09:43:30.000Z</time>
      </trkpt>
      <trkpt lat="43.393493089824915" lon="-6.002555284649134">
        <ele>64</ele>
        <time>2017-08-02T09:43:37.000Z</time>
      </trkpt>
      <trkpt lat="43.393519492819905" lon="-6.002635499462485">
        <ele>63</ele>
        <time>2017-08-02T09:43:55.000Z</time>
      </trkpt>
      <trkpt lat="43.39356475509703" lon="-6.002699285745621">
        <ele>62.6</ele>
        <time>2017-08-02T09:44:01.000Z</time>
      </trkpt>
      <trkpt lat="43.39357037097216" lon="-6.002710098400712">
        <ele>62.6</ele>
        <time>2017-08-02T09:44:02.000Z</time>
      </trkpt>
      <trkpt lat="43.39359627105296" lon="-6.002758797258139">
        <ele>62.4</ele>
        <time>2017-08-02T09:44:07.000Z</time>
      </trkpt>
      <trkpt lat="43.39361974038184" lon="-6.002793330699205">
        <ele>62.4</ele>
        <time>2017-08-02T09:44:10.000Z</time>
      </trkpt>
      <trkpt lat="43.39364287443459" lon="-6.002826187759638">
        <ele>62.4</ele>
        <time>2017-08-02T09:44:13.000Z</time>
      </trkpt>
      <trkpt lat="43.393664667382836" lon="-6.002855692058802">
        <ele>62.2</ele>
        <time>2017-08-02T09:44:16.000Z</time>
      </trkpt>
      <trkpt lat="43.39367120526731" lon="-6.002864828333259">
        <ele>62</ele>
        <time>2017-08-02T09:44:17.000Z</time>
      </trkpt>
      <trkpt lat="43.39373138733208" lon="-6.002904558554292">
        <ele>61.8</ele>
        <time>2017-08-02T09:44:23.000Z</time>
      </trkpt>
      <trkpt lat="43.39376701042056" lon="-6.002914616838098">
        <ele>61.8</ele>
        <time>2017-08-02T09:44:28.000Z</time>
      </trkpt>
      <trkpt lat="43.39377765543759" lon="-6.002916460856795">
        <ele>61.8</ele>
        <time>2017-08-02T09:44:29.000Z</time>
      </trkpt>
      <trkpt lat="43.39384672231972" lon="-6.002922160550952">
        <ele>62</ele>
        <time>2017-08-02T09:44:36.000Z</time>
      </trkpt>
      <trkpt lat="43.393863318488" lon="-6.002926686778665">
        <ele>62</ele>
        <time>2017-08-02T09:44:44.000Z</time>
      </trkpt>
      <trkpt lat="43.393881507217884" lon="-6.002935068681836">
        <ele>62</ele>
        <time>2017-08-02T09:44:55.000Z</time>
      </trkpt>
      <trkpt lat="43.393938168883324" lon="-6.0029219929128885">
        <ele>62.2</ele>
        <time>2017-08-02T09:45:01.000Z</time>
      </trkpt>
      <trkpt lat="43.3940205629915" lon="-6.002908414229751">
        <ele>62.8</ele>
        <time>2017-08-02T09:45:09.000Z</time>
      </trkpt>
      <trkpt lat="43.39410019107163" lon="-6.002890141680837">
        <ele>63.4</ele>
        <time>2017-08-02T09:45:16.000Z</time>
      </trkpt>
      <trkpt lat="43.39416556991637" lon="-6.002869019284844">
        <ele>63.6</ele>
        <time>2017-08-02T09:45:22.000Z</time>
      </trkpt>
      <trkpt lat="43.394269086420536" lon="-6.00285317748785">
        <ele>63</ele>
        <time>2017-08-02T09:45:31.000Z</time>
      </trkpt>
      <trkpt lat="43.39439523406327" lon="-6.002850411459804">
        <ele>62.2</ele>
        <time>2017-08-02T09:45:41.000Z</time>
      </trkpt>
      <trkpt lat="43.394476203247905" lon="-6.002853428944945">
        <ele>61.4</ele>
        <time>2017-08-02T09:45:48.000Z</time>
      </trkpt>
      <trkpt lat="43.394525991752744" lon="-6.002865415066481">
        <ele>61</ele>
        <time>2017-08-02T09:45:52.000Z</time>
      </trkpt>
      <trkpt lat="43.39455365203321" lon="-6.00286977365613">
        <ele>60.6</ele>
        <time>2017-08-02T09:45:54.000Z</time>
      </trkpt>
      <trkpt lat="43.394588604569435" lon="-6.002878239378333">
        <ele>60.4</ele>
        <time>2017-08-02T09:45:57.000Z</time>
      </trkpt>
      <trkpt lat="43.394656581804156" lon="-6.00289324298501">
        <ele>59.6</ele>
        <time>2017-08-02T09:46:02.000Z</time>
      </trkpt>
      <trkpt lat="43.39471944607794" lon="-6.002904223278165">
        <ele>59.6</ele>
        <time>2017-08-02T09:46:09.000Z</time>
      </trkpt>
      <trkpt lat="43.394666304811835" lon="-6.002888465300202">
        <ele>59.6</ele>
        <time>2017-08-02T09:46:18.000Z</time>
      </trkpt>
      <trkpt lat="43.3945887722075" lon="-6.00288100540638">
        <ele>60.2</ele>
        <time>2017-08-02T09:46:26.000Z</time>
      </trkpt>
      <trkpt lat="43.39454476721585" lon="-6.002880670130253">
        <ele>60.6</ele>
        <time>2017-08-02T09:46:33.000Z</time>
      </trkpt>
      <trkpt lat="43.39453906752169" lon="-6.002887124195695">
        <ele>60.6</ele>
        <time>2017-08-02T09:46:42.000Z</time>
      </trkpt>
      <trkpt lat="43.39452934451401" lon="-6.002856446430087">
        <ele>61</ele>
        <time>2017-08-02T09:47:55.000Z</time>
      </trkpt>
      <trkpt lat="43.39454501867294" lon="-6.002852926030755">
        <ele>61</ele>
        <time>2017-08-02T09:48:00.000Z</time>
      </trkpt>
      <trkpt lat="43.39461115188897" lon="-6.002868767827749">
        <ele>60.2</ele>
        <time>2017-08-02T09:48:06.000Z</time>
      </trkpt>
      <trkpt lat="43.39468449354172" lon="-6.002894667908549">
        <ele>59.4</ele>
        <time>2017-08-02T09:48:13.000Z</time>
      </trkpt>
      <trkpt lat="43.39475775137544" lon="-6.002912521362305">
        <ele>60</ele>
        <time>2017-08-02T09:48:21.000Z</time>
      </trkpt>
      <trkpt lat="43.39476780965924" lon="-6.002917718142271">
        <ele>60</ele>
        <time>2017-08-02T09:48:22.000Z</time>
      </trkpt>
      <trkpt lat="43.394819693639874" lon="-6.002930290997028">
        <ele>60.8</ele>
        <time>2017-08-02T09:48:27.000Z</time>
      </trkpt>
      <trkpt lat="43.39490007609129" lon="-6.0029735416173935">
        <ele>62</ele>
        <time>2017-08-02T09:48:36.000Z</time>
      </trkpt>
      <trkpt lat="43.39498397894204" lon="-6.003039423376322">
        <ele>62.4</ele>
        <time>2017-08-02T09:48:45.000Z</time>
      </trkpt>
      <trkpt lat="43.39507659897208" lon="-6.003098515793681">
        <ele>63.2</ele>
        <time>2017-08-02T09:48:54.000Z</time>
      </trkpt>
      <trkpt lat="43.39514533057809" lon="-6.0031399223953485">
        <ele>63.4</ele>
        <time>2017-08-02T09:49:02.000Z</time>
      </trkpt>
      <trkpt lat="43.3951844740659" lon="-6.003182083368301">
        <ele>63.4</ele>
        <time>2017-08-02T09:49:28.000Z</time>
      </trkpt>
      <trkpt lat="43.39525907300413" lon="-6.0032459534704685">
        <ele>64</ele>
        <time>2017-08-02T09:49:37.000Z</time>
      </trkpt>
      <trkpt lat="43.395263431593776" lon="-6.003249892964959">
        <ele>64.2</ele>
        <time>2017-08-02T09:49:45.000Z</time>
      </trkpt>
      <trkpt lat="43.39530852623284" lon="-6.003280319273472">
        <ele>64.4</ele>
        <time>2017-08-02T09:50:33.000Z</time>
      </trkpt>
      <trkpt lat="43.3953744918108" lon="-6.003308314830065">
        <ele>65</ele>
        <time>2017-08-02T09:50:40.000Z</time>
      </trkpt>
      <trkpt lat="43.39546895585954" lon="-6.003355337306857">
        <ele>64.8</ele>
        <time>2017-08-02T09:50:49.000Z</time>
      </trkpt>
      <trkpt lat="43.39557255618274" lon="-6.003401018679142">
        <ele>65</ele>
        <time>2017-08-02T09:50:58.000Z</time>
      </trkpt>
      <trkpt lat="43.395659727975726" lon="-6.0034621227532625">
        <ele>65</ele>
        <time>2017-08-02T09:51:07.000Z</time>
      </trkpt>
      <trkpt lat="43.395737344399095" lon="-6.003530854359269">
        <ele>65.6</ele>
        <time>2017-08-02T09:51:15.000Z</time>
      </trkpt>
      <trkpt lat="43.39575662277639" lon="-6.00355189293623">
        <ele>65.4</ele>
        <time>2017-08-02T09:51:17.000Z</time>
      </trkpt>
      <trkpt lat="43.39580800384283" lon="-6.003597239032388">
        <ele>65.2</ele>
        <time>2017-08-02T09:51:22.000Z</time>
      </trkpt>
      <trkpt lat="43.3958681859076" lon="-6.003650464117527">
        <ele>65.8</ele>
        <time>2017-08-02T09:51:28.000Z</time>
      </trkpt>
      <trkpt lat="43.39588947594166" lon="-6.00366479717195">
        <ele>66.2</ele>
        <time>2017-08-02T09:51:30.000Z</time>
      </trkpt>
      <trkpt lat="43.3959461376071" lon="-6.0037092212587595">
        <ele>66.2</ele>
        <time>2017-08-02T09:51:35.000Z</time>
      </trkpt>
      <trkpt lat="43.39600942097604" lon="-6.00373076274991">
        <ele>66.6</ele>
        <time>2017-08-02T09:51:41.000Z</time>
      </trkpt>
      <trkpt lat="43.39606398716569" lon="-6.003754232078791">
        <ele>66.8</ele>
        <time>2017-08-02T09:51:45.000Z</time>
      </trkpt>
      <trkpt lat="43.39609147980809" lon="-6.003771834075451">
        <ele>66.8</ele>
        <time>2017-08-02T09:51:47.000Z</time>
      </trkpt>
      <trkpt lat="43.396173706278205" lon="-6.003828831017017">
        <ele>67.6</ele>
        <time>2017-08-02T09:51:55.000Z</time>
      </trkpt>
      <trkpt lat="43.396252915263176" lon="-6.003887755796313">
        <ele>68</ele>
        <time>2017-08-02T09:52:02.000Z</time>
      </trkpt>
      <trkpt lat="43.396333968266845" lon="-6.003952715545893">
        <ele>68</ele>
        <time>2017-08-02T09:52:09.000Z</time>
      </trkpt>
      <trkpt lat="43.39642700739205" lon="-6.004026057198644">
        <ele>68</ele>
        <time>2017-08-02T09:52:17.000Z</time>
      </trkpt>
      <trkpt lat="43.39649364352226" lon="-6.004075761884451">
        <ele>68</ele>
        <time>2017-08-02T09:52:23.000Z</time>
      </trkpt>
      <trkpt lat="43.39655499905348" lon="-6.004127562046051">
        <ele>67.6</ele>
        <time>2017-08-02T09:52:29.000Z</time>
      </trkpt>
      <trkpt lat="43.39655751362443" lon="-6.00413141772151">
        <ele>67.6</ele>
        <time>2017-08-02T09:52:35.000Z</time>
      </trkpt>
      <trkpt lat="43.3965954836458" lon="-6.00419151596725">
        <ele>66.8</ele>
        <time>2017-08-02T09:52:47.000Z</time>
      </trkpt>
      <trkpt lat="43.396668154746294" lon="-6.0042705573141575">
        <ele>66.8</ele>
        <time>2017-08-02T09:52:55.000Z</time>
      </trkpt>
      <trkpt lat="43.39673328213394" lon="-6.004358483478427">
        <ele>67.6</ele>
        <time>2017-08-02T09:53:02.000Z</time>
      </trkpt>
      <trkpt lat="43.396804528310895" lon="-6.004481948912144">
        <ele>67.2</ele>
        <time>2017-08-02T09:53:11.000Z</time>
      </trkpt>
      <trkpt lat="43.39685305953026" lon="-6.004590159282088">
        <ele>65.4</ele>
        <time>2017-08-02T09:53:18.000Z</time>
      </trkpt>
      <trkpt lat="43.396889520809054" lon="-6.004703817889094">
        <ele>64</ele>
        <time>2017-08-02T09:53:25.000Z</time>
      </trkpt>
      <trkpt lat="43.396915420889854" lon="-6.004749331623316">
        <ele>63.4</ele>
        <time>2017-08-02T09:53:28.000Z</time>
      </trkpt>
      <trkpt lat="43.396926652640104" lon="-6.0047797579318285">
        <ele>62.8</ele>
        <time>2017-08-02T09:53:30.000Z</time>
      </trkpt>
      <trkpt lat="43.39696076698601" lon="-6.0048698633909225">
        <ele>61.4</ele>
        <time>2017-08-02T09:53:37.000Z</time>
      </trkpt>
      <trkpt lat="43.396960431709886" lon="-6.004890315234661">
        <ele>61.2</ele>
        <time>2017-08-02T09:53:38.000Z</time>
      </trkpt>
      <trkpt lat="43.39696445502341" lon="-6.00496256724">
        <ele>60.8</ele>
        <time>2017-08-02T09:53:42.000Z</time>
      </trkpt>
      <trkpt lat="43.39696747250855" lon="-6.004998609423637">
        <ele>60.6</ele>
        <time>2017-08-02T09:53:44.000Z</time>
      </trkpt>
      <trkpt lat="43.39700418524444" lon="-6.005170689895749">
        <ele>59.2</ele>
        <time>2017-08-02T09:53:54.000Z</time>
      </trkpt>
      <trkpt lat="43.397031677886844" lon="-6.005289042368531">
        <ele>58.8</ele>
        <time>2017-08-02T09:54:01.000Z</time>
      </trkpt>
      <trkpt lat="43.39705154299736" lon="-6.005419800058007">
        <ele>58.4</ele>
        <time>2017-08-02T09:54:09.000Z</time>
      </trkpt>
      <trkpt lat="43.3970683068037" lon="-6.00554552860558">
        <ele>58.2</ele>
        <time>2017-08-02T09:54:17.000Z</time>
      </trkpt>
      <trkpt lat="43.39709839783609" lon="-6.0056656412780285">
        <ele>58.8</ele>
        <time>2017-08-02T09:54:25.000Z</time>
      </trkpt>
      <trkpt lat="43.3971116412431" lon="-6.005770247429609">
        <ele>59.4</ele>
        <time>2017-08-02T09:54:32.000Z</time>
      </trkpt>
      <trkpt lat="43.39710719883442" lon="-6.005815761163831">
        <ele>59.4</ele>
        <time>2017-08-02T09:54:37.000Z</time>
      </trkpt>
      <trkpt lat="43.39707752689719" lon="-6.005927994847298">
        <ele>59.6</ele>
        <time>2017-08-02T09:54:44.000Z</time>
      </trkpt>
      <trkpt lat="43.39704324491322" lon="-6.00603561848402">
        <ele>59.4</ele>
        <time>2017-08-02T09:54:51.000Z</time>
      </trkpt>
      <trkpt lat="43.396992199122906" lon="-6.0062045976519585">
        <ele>58.8</ele>
        <time>2017-08-02T09:55:01.000Z</time>
      </trkpt>
      <trkpt lat="43.39691827073693" lon="-6.006391765549779">
        <ele>58</ele>
        <time>2017-08-02T09:55:12.000Z</time>
      </trkpt>
      <trkpt lat="43.396817771717906" lon="-6.006536772474647">
        <ele>57.6</ele>
        <time>2017-08-02T09:55:23.000Z</time>
      </trkpt>
      <trkpt lat="43.39668173342943" lon="-6.006655376404524">
        <ele>57.6</ele>
        <time>2017-08-02T09:55:35.000Z</time>
      </trkpt>
      <trkpt lat="43.396589532494545" lon="-6.006767358630896">
        <ele>57.6</ele>
        <time>2017-08-02T09:55:44.000Z</time>
      </trkpt>
      <trkpt lat="43.39652817696333" lon="-6.006909431889653">
        <ele>57.6</ele>
        <time>2017-08-02T09:55:53.000Z</time>
      </trkpt>
      <trkpt lat="43.3964866027236" lon="-6.007051337510347">
        <ele>57.4</ele>
        <time>2017-08-02T09:56:01.000Z</time>
      </trkpt>
      <trkpt lat="43.396445363759995" lon="-6.007217885926366">
        <ele>56.8</ele>
        <time>2017-08-02T09:56:11.000Z</time>
      </trkpt>
      <trkpt lat="43.3964226488024" lon="-6.007334226742387">
        <ele>56.4</ele>
        <time>2017-08-02T09:56:18.000Z</time>
      </trkpt>
      <trkpt lat="43.39640714228153" lon="-6.00751175545156">
        <ele>55.8</ele>
        <time>2017-08-02T09:56:28.000Z</time>
      </trkpt>
      <trkpt lat="43.396405382081866" lon="-6.007653409615159">
        <ele>55.4</ele>
        <time>2017-08-02T09:56:36.000Z</time>
      </trkpt>
      <trkpt lat="43.39641284197569" lon="-6.007776455953717">
        <ele>55.4</ele>
        <time>2017-08-02T09:56:43.000Z</time>
      </trkpt>
      <trkpt lat="43.39641250669956" lon="-6.0078090615570545">
        <ele>55.4</ele>
        <time>2017-08-02T09:56:45.000Z</time>
      </trkpt>
      <trkpt lat="43.396410746499896" lon="-6.007845522835851">
        <ele>55.4</ele>
        <time>2017-08-02T09:56:47.000Z</time>
      </trkpt>
      <trkpt lat="43.39641191996634" lon="-6.007950883358717">
        <ele>55.6</ele>
        <time>2017-08-02T09:56:53.000Z</time>
      </trkpt>
      <trkpt lat="43.396407729014754" lon="-6.008104188367724">
        <ele>56.6</ele>
        <time>2017-08-02T09:57:02.000Z</time>
      </trkpt>
      <trkpt lat="43.396408315747976" lon="-6.008242154493928">
        <ele>57.6</ele>
        <time>2017-08-02T09:57:10.000Z</time>
      </trkpt>
      <trkpt lat="43.396408231928945" lon="-6.008408451452851">
        <ele>58.6</ele>
        <time>2017-08-02T09:57:19.000Z</time>
      </trkpt>
      <trkpt lat="43.396439077332616" lon="-6.008589752018452">
        <ele>58.6</ele>
        <time>2017-08-02T09:57:29.000Z</time>
      </trkpt>
      <trkpt lat="43.39648408815265" lon="-6.0087357647717">
        <ele>58.4</ele>
        <time>2017-08-02T09:57:37.000Z</time>
      </trkpt>
      <trkpt lat="43.39655608870089" lon="-6.008869037032127">
        <ele>58.4</ele>
        <time>2017-08-02T09:57:46.000Z</time>
      </trkpt>
      <trkpt lat="43.3966314420104" lon="-6.008989484980702">
        <ele>59</ele>
        <time>2017-08-02T09:57:55.000Z</time>
      </trkpt>
      <trkpt lat="43.396699083969" lon="-6.009121667593718">
        <ele>60.4</ele>
        <time>2017-08-02T09:58:04.000Z</time>
      </trkpt>
      <trkpt lat="43.39674610644579" lon="-6.00927522405982">
        <ele>61.8</ele>
        <time>2017-08-02T09:58:13.000Z</time>
      </trkpt>
      <trkpt lat="43.396753650158644" lon="-6.00938418880105">
        <ele>62</ele>
        <time>2017-08-02T09:58:19.000Z</time>
      </trkpt>
      <trkpt lat="43.39673378504813" lon="-6.009489130228758">
        <ele>61.8</ele>
        <time>2017-08-02T09:58:25.000Z</time>
      </trkpt>
      <trkpt lat="43.39672364294529" lon="-6.009499104693532">
        <ele>61.6</ele>
        <time>2017-08-02T09:58:26.000Z</time>
      </trkpt>
      <trkpt lat="43.39668550528586" lon="-6.009526178240776">
        <ele>60.8</ele>
        <time>2017-08-02T09:58:29.000Z</time>
      </trkpt>
      <trkpt lat="43.3966248203069" lon="-6.009578732773662">
        <ele>59.8</ele>
        <time>2017-08-02T09:58:34.000Z</time>
      </trkpt>
      <trkpt lat="43.3965278416872" lon="-6.009687865152955">
        <ele>58.4</ele>
        <time>2017-08-02T09:58:44.000Z</time>
      </trkpt>
      <trkpt lat="43.39652365073562" lon="-6.0097987577319145">
        <ele>58.4</ele>
        <time>2017-08-02T09:58:51.000Z</time>
      </trkpt>
      <trkpt lat="43.39656296186149" lon="-6.0098291002213955">
        <ele>59</ele>
        <time>2017-08-02T09:58:57.000Z</time>
      </trkpt>
      <trkpt lat="43.39656539261341" lon="-6.009832201525569">
        <ele>59</ele>
        <time>2017-08-02T09:58:58.000Z</time>
      </trkpt>
      <trkpt lat="43.39659305289388" lon="-6.009892048314214">
        <ele>59.4</ele>
        <time>2017-08-02T09:59:24.000Z</time>
      </trkpt>
      <trkpt lat="43.396648876369" lon="-6.009958013892174">
        <ele>59.8</ele>
        <time>2017-08-02T09:59:31.000Z</time>
      </trkpt>
      <trkpt lat="43.39674434624612" lon="-6.0100544057786465">
        <ele>61.2</ele>
        <time>2017-08-02T09:59:41.000Z</time>
      </trkpt>
      <trkpt lat="43.3968077134341" lon="-6.010142918676138">
        <ele>62</ele>
        <time>2017-08-02T09:59:49.000Z</time>
      </trkpt>
      <trkpt lat="43.39683881029487" lon="-6.010208046063781">
        <ele>62.2</ele>
        <time>2017-08-02T09:59:57.000Z</time>
      </trkpt>
      <trkpt lat="43.396866638213396" lon="-6.010288763791323">
        <ele>62.4</ele>
        <time>2017-08-02T10:00:03.000Z</time>
      </trkpt>
      <trkpt lat="43.39689329266548" lon="-6.010405858978629">
        <ele>62.6</ele>
        <time>2017-08-02T10:00:10.000Z</time>
      </trkpt>
      <trkpt lat="43.39695070870221" lon="-6.010526977479458">
        <ele>64</ele>
        <time>2017-08-02T10:00:18.000Z</time>
      </trkpt>
      <trkpt lat="43.396996054798365" lon="-6.010653292760253">
        <ele>65.6</ele>
        <time>2017-08-02T10:00:26.000Z</time>
      </trkpt>
      <trkpt lat="43.39700527489185" lon="-6.010685143992305">
        <ele>66.2</ele>
        <time>2017-08-02T10:00:28.000Z</time>
      </trkpt>
      <trkpt lat="43.39702304452658" lon="-6.010756390169263">
        <ele>67.2</ele>
        <time>2017-08-02T10:00:32.000Z</time>
      </trkpt>
      <trkpt lat="43.39705950580537" lon="-6.010894440114498">
        <ele>68.6</ele>
        <time>2017-08-02T10:00:40.000Z</time>
      </trkpt>
      <trkpt lat="43.39709697291255" lon="-6.011033160611987">
        <ele>69.2</ele>
        <time>2017-08-02T10:00:48.000Z</time>
      </trkpt>
      <trkpt lat="43.397123627364635" lon="-6.011130725964904">
        <ele>69.8</ele>
        <time>2017-08-02T10:00:54.000Z</time>
      </trkpt>
      <trkpt lat="43.39713955298066" lon="-6.011177077889442">
        <ele>70.2</ele>
        <time>2017-08-02T10:00:57.000Z</time>
      </trkpt>
      <trkpt lat="43.39716536924243" lon="-6.011228458955884">
        <ele>71</ele>
        <time>2017-08-02T10:01:00.000Z</time>
      </trkpt>
      <trkpt lat="43.39716821908951" lon="-6.011258717626333">
        <ele>70.8</ele>
        <time>2017-08-02T10:01:02.000Z</time>
      </trkpt>
      <trkpt lat="43.39718900620937" lon="-6.011303728446364">
        <ele>71.2</ele>
        <time>2017-08-02T10:01:05.000Z</time>
      </trkpt>
      <trkpt lat="43.39719453826547" lon="-6.01131864823401">
        <ele>71.2</ele>
        <time>2017-08-02T10:01:06.000Z</time>
      </trkpt>
      <trkpt lat="43.397190514951944" lon="-6.011335831135511">
        <ele>70.8</ele>
        <time>2017-08-02T10:01:11.000Z</time>
      </trkpt>
      <trkpt lat="43.397172410041094" lon="-6.011413196101785">
        <ele>69</ele>
        <time>2017-08-02T10:02:13.000Z</time>
      </trkpt>
      <trkpt lat="43.39717945083976" lon="-6.011528866365552">
        <ele>67.6</ele>
        <time>2017-08-02T10:02:21.000Z</time>
      </trkpt>
      <trkpt lat="43.39717693626881" lon="-6.011659372597933">
        <ele>67.4</ele>
        <time>2017-08-02T10:02:29.000Z</time>
      </trkpt>
      <trkpt lat="43.39718456380069" lon="-6.0117769706994295">
        <ele>67.8</ele>
        <time>2017-08-02T10:02:36.000Z</time>
      </trkpt>
      <trkpt lat="43.39718003757298" lon="-6.011793566867709">
        <ele>67.6</ele>
        <time>2017-08-02T10:02:37.000Z</time>
      </trkpt>
      <trkpt lat="43.39717601425946" lon="-6.011870177462697">
        <ele>67.6</ele>
        <time>2017-08-02T10:02:42.000Z</time>
      </trkpt>
      <trkpt lat="43.39717995375395" lon="-6.011995067819953">
        <ele>68.2</ele>
        <time>2017-08-02T10:02:50.000Z</time>
      </trkpt>
      <trkpt lat="43.39718573726714" lon="-6.012009903788567">
        <ele>68.4</ele>
        <time>2017-08-02T10:02:51.000Z</time>
      </trkpt>
      <trkpt lat="43.397191520780325" lon="-6.012086849659681">
        <ele>69</ele>
        <time>2017-08-02T10:02:56.000Z</time>
      </trkpt>
      <trkpt lat="43.397192023694515" lon="-6.012175865471363">
        <ele>69.8</ele>
        <time>2017-08-02T10:03:02.000Z</time>
      </trkpt>
      <trkpt lat="43.3971943706274" lon="-6.0122855845838785">
        <ele>71.2</ele>
        <time>2017-08-02T10:03:09.000Z</time>
      </trkpt>
      <trkpt lat="43.397190514951944" lon="-6.01238046772778">
        <ele>72</ele>
        <time>2017-08-02T10:03:15.000Z</time>
      </trkpt>
      <trkpt lat="43.397192442789674" lon="-6.0124684777110815">
        <ele>73</ele>
        <time>2017-08-02T10:03:20.000Z</time>
      </trkpt>
      <trkpt lat="43.39718976058066" lon="-6.012487169355154">
        <ele>73</ele>
        <time>2017-08-02T10:03:21.000Z</time>
      </trkpt>
      <trkpt lat="43.39718850329518" lon="-6.012542070820928">
        <ele>73.6</ele>
        <time>2017-08-02T10:03:24.000Z</time>
      </trkpt>
      <trkpt lat="43.397184647619724" lon="-6.012575514614582">
        <ele>73.8</ele>
        <time>2017-08-02T10:03:26.000Z</time>
      </trkpt>
      <trkpt lat="43.39718498289585" lon="-6.012591859325767">
        <ele>74</ele>
        <time>2017-08-02T10:03:27.000Z</time>
      </trkpt>
      <trkpt lat="43.39718556962907" lon="-6.012647598981857">
        <ele>74.6</ele>
        <time>2017-08-02T10:03:30.000Z</time>
      </trkpt>
      <trkpt lat="43.39718867093325" lon="-6.0127064399421215">
        <ele>74.8</ele>
        <time>2017-08-02T10:03:33.000Z</time>
      </trkpt>
      <trkpt lat="43.397196382284164" lon="-6.012743236497045">
        <ele>75.2</ele>
        <time>2017-08-02T10:03:35.000Z</time>
      </trkpt>
      <trkpt lat="43.3972033392638" lon="-6.012807358056307">
        <ele>75.6</ele>
        <time>2017-08-02T10:03:39.000Z</time>
      </trkpt>
      <trkpt lat="43.39720979332924" lon="-6.012954795733094">
        <ele>75.2</ele>
        <time>2017-08-02T10:03:47.000Z</time>
      </trkpt>
      <trkpt lat="43.39720107614994" lon="-6.01310265250504">
        <ele>72</ele>
        <time>2017-08-02T10:03:55.000Z</time>
      </trkpt>
      <trkpt lat="43.39717970229685" lon="-6.013228548690677">
        <ele>69</ele>
        <time>2017-08-02T10:04:02.000Z</time>
      </trkpt>
      <trkpt lat="43.39716587215662" lon="-6.013352852314711">
        <ele>66</ele>
        <time>2017-08-02T10:04:10.000Z</time>
      </trkpt>
      <trkpt lat="43.39714726433158" lon="-6.013505905866623">
        <ele>62.6</ele>
        <time>2017-08-02T10:04:19.000Z</time>
      </trkpt>
      <trkpt lat="43.39712982997298" lon="-6.013639345765114">
        <ele>60.4</ele>
        <time>2017-08-02T10:04:27.000Z</time>
      </trkpt>
      <trkpt lat="43.39712488465011" lon="-6.013785023242235">
        <ele>58.6</ele>
        <time>2017-08-02T10:04:35.000Z</time>
      </trkpt>
      <trkpt lat="43.39713024906814" lon="-6.013912428170443">
        <ele>57.4</ele>
        <time>2017-08-02T10:04:42.000Z</time>
      </trkpt>
      <trkpt lat="43.397138295695186" lon="-6.013982500880957">
        <ele>56.8</ele>
        <time>2017-08-02T10:04:46.000Z</time>
      </trkpt>
      <trkpt lat="43.39716486632824" lon="-6.014050310477614">
        <ele>56.6</ele>
        <time>2017-08-02T10:04:51.000Z</time>
      </trkpt>
      <trkpt lat="43.397208619862795" lon="-6.014083838090301">
        <ele>56.8</ele>
        <time>2017-08-02T10:04:56.000Z</time>
      </trkpt>
      <trkpt lat="43.39720937423408" lon="-6.014086939394474">
        <ele>56.6</ele>
        <time>2017-08-02T10:04:58.000Z</time>
      </trkpt>
      <trkpt lat="43.397274082526565" lon="-6.0140929743647575">
        <ele>57.8</ele>
        <time>2017-08-02T10:05:22.000Z</time>
      </trkpt>
      <trkpt lat="43.397386064752936" lon="-6.014052489772439">
        <ele>60.2</ele>
        <time>2017-08-02T10:05:31.000Z</time>
      </trkpt>
      <trkpt lat="43.397467536851764" lon="-6.014006640762091">
        <ele>62.6</ele>
        <time>2017-08-02T10:05:39.000Z</time>
      </trkpt>
      <trkpt lat="43.3975556306541" lon="-6.013966826722026">
        <ele>63.6</ele>
        <time>2017-08-02T10:05:47.000Z</time>
      </trkpt>
      <trkpt lat="43.39765411801636" lon="-6.013926342129707">
        <ele>64.4</ele>
        <time>2017-08-02T10:05:55.000Z</time>
      </trkpt>
      <trkpt lat="43.39775168336928" lon="-6.013888958841562">
        <ele>65</ele>
        <time>2017-08-02T10:06:03.000Z</time>
      </trkpt>
      <trkpt lat="43.39786861091852" lon="-6.0138376615941525">
        <ele>63.6</ele>
        <time>2017-08-02T10:06:12.000Z</time>
      </trkpt>
      <trkpt lat="43.39797355234623" lon="-6.0137884598225355">
        <ele>62.4</ele>
        <time>2017-08-02T10:06:20.000Z</time>
      </trkpt>
      <trkpt lat="43.398094084113836" lon="-6.013740682974458">
        <ele>61.8</ele>
        <time>2017-08-02T10:06:29.000Z</time>
      </trkpt>
      <trkpt lat="43.398192739114165" lon="-6.013699192553759">
        <ele>62</ele>
        <time>2017-08-02T10:06:37.000Z</time>
      </trkpt>
      <trkpt lat="43.398280246183276" lon="-6.013671699911356">
        <ele>62</ele>
        <time>2017-08-02T10:06:44.000Z</time>
      </trkpt>
      <trkpt lat="43.39838728308678" lon="-6.013639932498336">
        <ele>61.6</ele>
        <time>2017-08-02T10:06:53.000Z</time>
      </trkpt>
      <trkpt lat="43.39841418899596" lon="-6.0136141162365675">
        <ele>62</ele>
        <time>2017-08-02T10:07:00.000Z</time>
      </trkpt>
      <trkpt lat="43.398442352190614" lon="-6.013607913628221">
        <ele>61.8</ele>
        <time>2017-08-02T10:07:20.000Z</time>
      </trkpt>
      <trkpt lat="43.398432629182935" lon="-6.01361277513206">
        <ele>61.8</ele>
        <time>2017-08-02T10:07:28.000Z</time>
      </trkpt>
      <trkpt lat="43.39843547903001" lon="-6.013629790395498">
        <ele>61.2</ele>
        <time>2017-08-02T10:07:36.000Z</time>
      </trkpt>
      <trkpt lat="43.39844754897058" lon="-6.013581091538072">
        <ele>62.6</ele>
        <time>2017-08-02T10:09:00.000Z</time>
      </trkpt>
      <trkpt lat="43.39845593087375" lon="-6.013624761253595">
        <ele>61.2</ele>
        <time>2017-08-02T10:12:23.000Z</time>
      </trkpt>
      <trkpt lat="43.398457104340196" lon="-6.0136291198432446">
        <ele>61</ele>
        <time>2017-08-02T10:12:40.000Z</time>
      </trkpt>
      <trkpt lat="43.39846313931048" lon="-6.0136541817337275">
        <ele>60.4</ele>
        <time>2017-08-02T10:12:43.000Z</time>
      </trkpt>
      <trkpt lat="43.39846816845238" lon="-6.013656780123711">
        <ele>60.2</ele>
        <time>2017-08-02T10:12:46.000Z</time>
      </trkpt>
      <trkpt lat="43.39846481569111" lon="-6.013667676597834">
        <ele>60</ele>
        <time>2017-08-02T10:12:52.000Z</time>
      </trkpt>
      <trkpt lat="43.398513766005635" lon="-6.013715285807848">
        <ele>58.4</ele>
        <time>2017-08-02T10:13:13.000Z</time>
      </trkpt>
      <trkpt lat="43.39863379485905" lon="-6.013828776776791">
        <ele>56.4</ele>
        <time>2017-08-02T10:13:19.000Z</time>
      </trkpt>
      <trkpt lat="43.39870252646506" lon="-6.01389423944056">
        <ele>56</ele>
        <time>2017-08-02T10:13:25.000Z</time>
      </trkpt>
      <trkpt lat="43.398768827319145" lon="-6.013941178098321">
        <ele>55.6</ele>
        <time>2017-08-02T10:13:32.000Z</time>
      </trkpt>
      <trkpt lat="43.39881015010178" lon="-6.013968922197819">
        <ele>55.4</ele>
        <time>2017-08-02T10:13:36.000Z</time>
      </trkpt>
      <trkpt lat="43.39885641820729" lon="-6.013998091220856">
        <ele>55.4</ele>
        <time>2017-08-02T10:13:40.000Z</time>
      </trkpt>
      <trkpt lat="43.398975022137165" lon="-6.0140906274318695">
        <ele>55.2</ele>
        <time>2017-08-02T10:13:51.000Z</time>
      </trkpt>
      <trkpt lat="43.39904509484768" lon="-6.014195904135704">
        <ele>55</ele>
        <time>2017-08-02T10:13:59.000Z</time>
      </trkpt>
      <trkpt lat="43.39910712093115" lon="-6.014319034293294">
        <ele>55</ele>
        <time>2017-08-02T10:14:07.000Z</time>
      </trkpt>
      <trkpt lat="43.39914978481829" lon="-6.014437889680266">
        <ele>55.6</ele>
        <time>2017-08-02T10:14:15.000Z</time>
      </trkpt>
      <trkpt lat="43.3991043549031" lon="-6.014507124200463">
        <ele>55.6</ele>
        <time>2017-08-02T10:14:20.000Z</time>
      </trkpt>
      <trkpt lat="43.39909312315285" lon="-6.014517853036523">
        <ele>55.6</ele>
        <time>2017-08-02T10:14:21.000Z</time>
      </trkpt>
      <trkpt lat="43.39898591861129" lon="-6.014596475288272">
        <ele>55.6</ele>
        <time>2017-08-02T10:14:30.000Z</time>
      </trkpt>
      <trkpt lat="43.39888592250645" lon="-6.014663614332676">
        <ele>55.6</ele>
        <time>2017-08-02T10:14:38.000Z</time>
      </trkpt>
      <trkpt lat="43.398785926401615" lon="-6.014721281826496">
        <ele>55.4</ele>
        <time>2017-08-02T10:14:46.000Z</time>
      </trkpt>
      <trkpt lat="43.39870747178793" lon="-6.014765286818147">
        <ele>55.2</ele>
        <time>2017-08-02T10:14:53.000Z</time>
      </trkpt>
      <trkpt lat="43.398639326915145" lon="-6.014816164970398">
        <ele>55</ele>
        <time>2017-08-02T10:14:59.000Z</time>
      </trkpt>
      <trkpt lat="43.39855844154954" lon="-6.014885734766722">
        <ele>55</ele>
        <time>2017-08-02T10:15:06.000Z</time>
      </trkpt>
      <trkpt lat="43.39848124422133" lon="-6.014948263764381">
        <ele>55.2</ele>
        <time>2017-08-02T10:15:13.000Z</time>
      </trkpt>
      <trkpt lat="43.398386193439364" lon="-6.015005763620138">
        <ele>55.6</ele>
        <time>2017-08-02T10:15:21.000Z</time>
      </trkpt>
      <trkpt lat="43.39832198806107" lon="-6.015066280961037">
        <ele>55.8</ele>
        <time>2017-08-02T10:15:27.000Z</time>
      </trkpt>
      <trkpt lat="43.398291897028685" lon="-6.015100227668881">
        <ele>55.8</ele>
        <time>2017-08-02T10:15:31.000Z</time>
      </trkpt>
      <trkpt lat="43.39828125201166" lon="-6.015103664249182">
        <ele>55.8</ele>
        <time>2017-08-02T10:15:32.000Z</time>
      </trkpt>
      <trkpt lat="43.39826088398695" lon="-6.015122691169381">
        <ele>56</ele>
        <time>2017-08-02T10:15:37.000Z</time>
      </trkpt>
      <trkpt lat="43.398208413273096" lon="-6.015190668404102">
        <ele>56.2</ele>
        <time>2017-08-02T10:15:43.000Z</time>
      </trkpt>
      <trkpt lat="43.39814471080899" lon="-6.015259567648172">
        <ele>56.4</ele>
        <time>2017-08-02T10:15:50.000Z</time>
      </trkpt>
      <trkpt lat="43.398066172376275" lon="-6.015348248183727">
        <ele>56.8</ele>
        <time>2017-08-02T10:15:57.000Z</time>
      </trkpt>
      <trkpt lat="43.397975815460086" lon="-6.015467019751668">
        <ele>57</ele>
        <time>2017-08-02T10:16:06.000Z</time>
      </trkpt>
      <trkpt lat="43.39789945632219" lon="-6.0155596397817135">
        <ele>57</ele>
        <time>2017-08-02T10:16:14.000Z</time>
      </trkpt>
      <trkpt lat="43.397895684465766" lon="-6.015574391931295">
        <ele>57</ele>
        <time>2017-08-02T10:16:15.000Z</time>
      </trkpt>
      <trkpt lat="43.39784790761769" lon="-6.01563080213964">
        <ele>57.2</ele>
        <time>2017-08-02T10:16:19.000Z</time>
      </trkpt>
      <trkpt lat="43.39778412133455" lon="-6.015715543180704">
        <ele>57.2</ele>
        <time>2017-08-02T10:16:25.000Z</time>
      </trkpt>
      <trkpt lat="43.397735925391316" lon="-6.015768349170685">
        <ele>57.2</ele>
        <time>2017-08-02T10:16:29.000Z</time>
      </trkpt>
      <trkpt lat="43.39769946411252" lon="-6.015816796571016">
        <ele>57</ele>
        <time>2017-08-02T10:16:32.000Z</time>
      </trkpt>
      <trkpt lat="43.397689489647746" lon="-6.015829956158996">
        <ele>57</ele>
        <time>2017-08-02T10:16:33.000Z</time>
      </trkpt>
      <trkpt lat="43.397623524069786" lon="-6.015917547047138">
        <ele>56.8</ele>
        <time>2017-08-02T10:16:39.000Z</time>
      </trkpt>
      <trkpt lat="43.397581446915865" lon="-6.015997929498553">
        <ele>57</ele>
        <time>2017-08-02T10:16:44.000Z</time>
      </trkpt>
      <trkpt lat="43.39754993095994" lon="-6.016082754358649">
        <ele>57.4</ele>
        <time>2017-08-02T10:16:49.000Z</time>
      </trkpt>
      <trkpt lat="43.39754272252321" lon="-6.016114437952638">
        <ele>57.6</ele>
        <time>2017-08-02T10:16:51.000Z</time>
      </trkpt>
      <trkpt lat="43.397533083334565" lon="-6.016151066869497">
        <ele>57.6</ele>
        <time>2017-08-02T10:16:53.000Z</time>
      </trkpt>
      <trkpt lat="43.39751145802438" lon="-6.016260785982013">
        <ele>58.4</ele>
        <time>2017-08-02T10:16:59.000Z</time>
      </trkpt>
      <trkpt lat="43.397511625662446" lon="-6.016396405175328">
        <ele>58.8</ele>
        <time>2017-08-02T10:17:06.000Z</time>
      </trkpt>
      <trkpt lat="43.39754540473223" lon="-6.016525737941265">
        <ele>59.6</ele>
        <time>2017-08-02T10:17:14.000Z</time>
      </trkpt>
      <trkpt lat="43.39758228510618" lon="-6.01667745038867">
        <ele>60.8</ele>
        <time>2017-08-02T10:17:23.000Z</time>
      </trkpt>
      <trkpt lat="43.397605586797" lon="-6.0167965572327375">
        <ele>61.4</ele>
        <time>2017-08-02T10:17:31.000Z</time>
      </trkpt>
      <trkpt lat="43.39760500006378" lon="-6.016788510605693">
        <ele>61.4</ele>
        <time>2017-08-02T10:17:39.000Z</time>
      </trkpt>
      <trkpt lat="43.397605335339904" lon="-6.016869731247425">
        <ele>62</ele>
        <time>2017-08-02T10:17:49.000Z</time>
      </trkpt>
      <trkpt lat="43.397617572918534" lon="-6.017022868618369">
        <ele>62.8</ele>
        <time>2017-08-02T10:17:58.000Z</time>
      </trkpt>
      <trkpt lat="43.39761237613857" lon="-6.01713920943439">
        <ele>63.4</ele>
        <time>2017-08-02T10:18:05.000Z</time>
      </trkpt>
      <trkpt lat="43.397596618160605" lon="-6.017260160297155">
        <ele>64.2</ele>
        <time>2017-08-02T10:18:12.000Z</time>
      </trkpt>
      <trkpt lat="43.39754154905677" lon="-6.01740843616426">
        <ele>65.2</ele>
        <time>2017-08-02T10:18:21.000Z</time>
      </trkpt>
      <trkpt lat="43.397482289001346" lon="-6.017540032044053">
        <ele>65.6</ele>
        <time>2017-08-02T10:18:30.000Z</time>
      </trkpt>
      <trkpt lat="43.39743258431554" lon="-6.017638687044382">
        <ele>66</ele>
        <time>2017-08-02T10:18:37.000Z</time>
      </trkpt>
      <trkpt lat="43.39737315662205" lon="-6.017737006768584">
        <ele>67</ele>
        <time>2017-08-02T10:18:45.000Z</time>
      </trkpt>
      <trkpt lat="43.39731490239501" lon="-6.017834320664406">
        <ele>68.4</ele>
        <time>2017-08-02T10:18:52.000Z</time>
      </trkpt>
      <trkpt lat="43.397267293184996" lon="-6.017911853268743">
        <ele>69.4</ele>
        <time>2017-08-02T10:18:58.000Z</time>
      </trkpt>
      <trkpt lat="43.39720250107348" lon="-6.018024170771241">
        <ele>70.2</ele>
        <time>2017-08-02T10:19:06.000Z</time>
      </trkpt>
      <trkpt lat="43.39712287299335" lon="-6.018129782751203">
        <ele>70.4</ele>
        <time>2017-08-02T10:19:14.000Z</time>
      </trkpt>
      <trkpt lat="43.39703410863876" lon="-6.018233550712466">
        <ele>70.6</ele>
        <time>2017-08-02T10:19:23.000Z</time>
      </trkpt>
      <trkpt lat="43.396946266293526" lon="-6.018330277875066">
        <ele>70.8</ele>
        <time>2017-08-02T10:19:32.000Z</time>
      </trkpt>
      <trkpt lat="43.396852388978004" lon="-6.018434297293425">
        <ele>70.8</ele>
        <time>2017-08-02T10:19:40.000Z</time>
      </trkpt>
      <trkpt lat="43.396805534139276" lon="-6.01848978549242">
        <ele>71</ele>
        <time>2017-08-02T10:19:45.000Z</time>
      </trkpt>
      <trkpt lat="43.396729258820415" lon="-6.018570587038994">
        <ele>71.4</ele>
        <time>2017-08-02T10:19:53.000Z</time>
      </trkpt>
      <trkpt lat="43.3966575935483" lon="-6.018636804074049">
        <ele>71.6</ele>
        <time>2017-08-02T10:20:00.000Z</time>
      </trkpt>
      <trkpt lat="43.396588107571006" lon="-6.0187105648219585">
        <ele>71.2</ele>
        <time>2017-08-02T10:20:07.000Z</time>
      </trkpt>
      <trkpt lat="43.39647017419338" lon="-6.018843250349164">
        <ele>70</ele>
        <time>2017-08-02T10:20:19.000Z</time>
      </trkpt>
      <trkpt lat="43.39638266712427" lon="-6.018974091857672">
        <ele>69</ele>
        <time>2017-08-02T10:20:29.000Z</time>
      </trkpt>
      <trkpt lat="43.39633220806718" lon="-6.019121780991554">
        <ele>68.4</ele>
        <time>2017-08-02T10:20:38.000Z</time>
      </trkpt>
      <trkpt lat="43.39631477370858" lon="-6.019226387143135">
        <ele>67.8</ele>
        <time>2017-08-02T10:20:44.000Z</time>
      </trkpt>
      <trkpt lat="43.396298764273524" lon="-6.019367789849639">
        <ele>67.4</ele>
        <time>2017-08-02T10:20:52.000Z</time>
      </trkpt>
      <trkpt lat="43.396290550008416" lon="-6.019570883363485">
        <ele>67.2</ele>
        <time>2017-08-02T10:21:03.000Z</time>
      </trkpt>
      <trkpt lat="43.39631955139339" lon="-6.0197528544813395">
        <ele>67.2</ele>
        <time>2017-08-02T10:21:13.000Z</time>
      </trkpt>
      <trkpt lat="43.396352995187044" lon="-6.019888389855623">
        <ele>66.8</ele>
        <time>2017-08-02T10:21:21.000Z</time>
      </trkpt>
      <trkpt lat="43.396383756771684" lon="-6.019999198615551">
        <ele>66.4</ele>
        <time>2017-08-02T10:21:28.000Z</time>
      </trkpt>
      <trkpt lat="43.39640638791025" lon="-6.020106319338083">
        <ele>66</ele>
        <time>2017-08-02T10:21:34.000Z</time>
      </trkpt>
      <trkpt lat="43.39645642787218" lon="-6.020263647660613">
        <ele>65.2</ele>
        <time>2017-08-02T10:21:43.000Z</time>
      </trkpt>
      <trkpt lat="43.39651300571859" lon="-6.020417120307684">
        <ele>63.6</ele>
        <time>2017-08-02T10:21:52.000Z</time>
      </trkpt>
      <trkpt lat="43.396581653505564" lon="-6.02057721465826">
        <ele>62.2</ele>
        <time>2017-08-02T10:22:02.000Z</time>
      </trkpt>
      <trkpt lat="43.39664795435965" lon="-6.020742924883962">
        <ele>61</ele>
        <time>2017-08-02T10:22:12.000Z</time>
      </trkpt>
      <trkpt lat="43.39672163128853" lon="-6.020906958729029">
        <ele>61.2</ele>
        <time>2017-08-02T10:22:22.000Z</time>
      </trkpt>
      <trkpt lat="43.396805953234434" lon="-6.021070573478937">
        <ele>60.4</ele>
        <time>2017-08-02T10:22:33.000Z</time>
      </trkpt>
      <trkpt lat="43.39687652885914" lon="-6.021210551261902">
        <ele>60.6</ele>
        <time>2017-08-02T10:22:42.000Z</time>
      </trkpt>
      <trkpt lat="43.39694500900805" lon="-6.021341141313314">
        <ele>61</ele>
        <time>2017-08-02T10:22:51.000Z</time>
      </trkpt>
      <trkpt lat="43.397028325125575" lon="-6.02150802500546">
        <ele>61.2</ele>
        <time>2017-08-02T10:23:02.000Z</time>
      </trkpt>
      <trkpt lat="43.3971097972244" lon="-6.0216703824698925">
        <ele>61.6</ele>
        <time>2017-08-02T10:23:13.000Z</time>
      </trkpt>
      <trkpt lat="43.397173918783665" lon="-6.0217799339443445">
        <ele>61.2</ele>
        <time>2017-08-02T10:23:21.000Z</time>
      </trkpt>
      <trkpt lat="43.39726050384343" lon="-6.021920163184404">
        <ele>61</ele>
        <time>2017-08-02T10:23:31.000Z</time>
      </trkpt>
      <trkpt lat="43.39727969840169" lon="-6.021971460431814">
        <ele>60.8</ele>
        <time>2017-08-02T10:23:35.000Z</time>
      </trkpt>
      <trkpt lat="43.39729621075094" lon="-6.022020578384399">
        <ele>60.4</ele>
        <time>2017-08-02T10:23:38.000Z</time>
      </trkpt>
      <trkpt lat="43.397316159680486" lon="-6.022046562284231">
        <ele>60.4</ele>
        <time>2017-08-02T10:23:40.000Z</time>
      </trkpt>
      <trkpt lat="43.39734993875027" lon="-6.022117808461189">
        <ele>60</ele>
        <time>2017-08-02T10:23:45.000Z</time>
      </trkpt>
      <trkpt lat="43.39740333147347" lon="-6.022221073508263">
        <ele>59.6</ele>
        <time>2017-08-02T10:23:52.000Z</time>
      </trkpt>
      <trkpt lat="43.39746686629951" lon="-6.0223763063549995">
        <ele>58.8</ele>
        <time>2017-08-02T10:24:02.000Z</time>
      </trkpt>
      <trkpt lat="43.397506177425385" lon="-6.0224852710962296">
        <ele>59.6</ele>
        <time>2017-08-02T10:24:09.000Z</time>
      </trkpt>
      <trkpt lat="43.397517409175634" lon="-6.022540675476193">
        <ele>59.8</ele>
        <time>2017-08-02T10:24:13.000Z</time>
      </trkpt>
      <trkpt lat="43.39751380495727" lon="-6.022541513666511">
        <ele>59.8</ele>
        <time>2017-08-02T10:24:16.000Z</time>
      </trkpt>
      <trkpt lat="43.39752243831754" lon="-6.022576047107577">
        <ele>60</ele>
        <time>2017-08-02T10:24:28.000Z</time>
      </trkpt>
      <trkpt lat="43.397517492994666" lon="-6.022666906937957">
        <ele>60</ele>
        <time>2017-08-02T10:24:34.000Z</time>
      </trkpt>
      <trkpt lat="43.397500393912196" lon="-6.022779559716582">
        <ele>59.6</ele>
        <time>2017-08-02T10:24:41.000Z</time>
      </trkpt>
      <trkpt lat="43.39747256599367" lon="-6.022873520851135">
        <ele>59</ele>
        <time>2017-08-02T10:24:47.000Z</time>
      </trkpt>
      <trkpt lat="43.39744892902672" lon="-6.022998075932264">
        <ele>58.6</ele>
        <time>2017-08-02T10:24:54.000Z</time>
      </trkpt>
      <trkpt lat="43.39741313830018" lon="-6.023142579942942">
        <ele>58</ele>
        <time>2017-08-02T10:25:02.000Z</time>
      </trkpt>
      <trkpt lat="43.397376174107194" lon="-6.023299572989345">
        <ele>57</ele>
        <time>2017-08-02T10:25:11.000Z</time>
      </trkpt>
      <trkpt lat="43.39735538698733" lon="-6.02340686134994">
        <ele>56.2</ele>
        <time>2017-08-02T10:25:17.000Z</time>
      </trkpt>
      <trkpt lat="43.39732646942139" lon="-6.023502582684159">
        <ele>55.2</ele>
        <time>2017-08-02T10:25:23.000Z</time>
      </trkpt>
      <trkpt lat="43.3972583245486" lon="-6.023590844124556">
        <ele>53</ele>
        <time>2017-08-02T10:25:31.000Z</time>
      </trkpt>
      <trkpt lat="43.39724734425545" lon="-6.0236262157559395">
        <ele>52.4</ele>
        <time>2017-08-02T10:25:37.000Z</time>
      </trkpt>
      <trkpt lat="43.39726695790887" lon="-6.023722942918539">
        <ele>51.8</ele>
        <time>2017-08-02T10:25:44.000Z</time>
      </trkpt>
      <trkpt lat="43.39727777056396" lon="-6.023852527141571">
        <ele>50.8</ele>
        <time>2017-08-02T10:25:52.000Z</time>
      </trkpt>
      <trkpt lat="43.39731649495661" lon="-6.023964760825038">
        <ele>50.2</ele>
        <time>2017-08-02T10:25:59.000Z</time>
      </trkpt>
      <trkpt lat="43.39735019020736" lon="-6.02403474971652">
        <ele>49.8</ele>
        <time>2017-08-02T10:26:05.000Z</time>
      </trkpt>
      <trkpt lat="43.39735781773925" lon="-6.0240482445806265">
        <ele>50</ele>
        <time>2017-08-02T10:26:06.000Z</time>
      </trkpt>
      <trkpt lat="43.397379191592336" lon="-6.0240832809358835">
        <ele>50.2</ele>
        <time>2017-08-02T10:26:09.000Z</time>
      </trkpt>
      <trkpt lat="43.39740391820669" lon="-6.024131225422025">
        <ele>50.4</ele>
        <time>2017-08-02T10:26:12.000Z</time>
      </trkpt>
      <trkpt lat="43.39746451936662" lon="-6.024230048060417">
        <ele>50.4</ele>
        <time>2017-08-02T10:26:19.000Z</time>
      </trkpt>
      <trkpt lat="43.39747273363173" lon="-6.024245051667094">
        <ele>50.6</ele>
        <time>2017-08-02T10:26:20.000Z</time>
      </trkpt>
      <trkpt lat="43.39751657098532" lon="-6.024304814636707">
        <ele>50.4</ele>
        <time>2017-08-02T10:26:25.000Z</time>
      </trkpt>
      <trkpt lat="43.39752595871687" lon="-6.024319985881448">
        <ele>50.4</ele>
        <time>2017-08-02T10:26:26.000Z</time>
      </trkpt>
      <trkpt lat="43.39756560511887" lon="-6.024371953681111">
        <ele>50.4</ele>
        <time>2017-08-02T10:26:30.000Z</time>
      </trkpt>
      <trkpt lat="43.39760022237897" lon="-6.024416293948889">
        <ele>50.6</ele>
        <time>2017-08-02T10:26:34.000Z</time>
      </trkpt>
      <trkpt lat="43.397650849074125" lon="-6.024486785754561">
        <ele>51</ele>
        <time>2017-08-02T10:26:39.000Z</time>
      </trkpt>
      <trkpt lat="43.397659147158265" lon="-6.024502292275429">
        <ele>51</ele>
        <time>2017-08-02T10:26:40.000Z</time>
      </trkpt>
      <trkpt lat="43.39773089624941" lon="-6.024584854021668">
        <ele>51.8</ele>
        <time>2017-08-02T10:26:48.000Z</time>
      </trkpt>
      <trkpt lat="43.397771967574954" lon="-6.024615867063403">
        <ele>52.2</ele>
        <time>2017-08-02T10:26:52.000Z</time>
      </trkpt>
      <trkpt lat="43.39780348353088" lon="-6.024642186239362">
        <ele>52.6</ele>
        <time>2017-08-02T10:26:55.000Z</time>
      </trkpt>
      <trkpt lat="43.39788721874356" lon="-6.0247238259762526">
        <ele>53.4</ele>
        <time>2017-08-02T10:27:03.000Z</time>
      </trkpt>
      <trkpt lat="43.39791152626276" lon="-6.024748468771577">
        <ele>53.4</ele>
        <time>2017-08-02T10:27:06.000Z</time>
      </trkpt>
      <trkpt lat="43.397947987541556" lon="-6.024790043011308">
        <ele>53.2</ele>
        <time>2017-08-02T10:27:10.000Z</time>
      </trkpt>
      <trkpt lat="43.398069525137544" lon="-6.024879729375243">
        <ele>53</ele>
        <time>2017-08-02T10:27:21.000Z</time>
      </trkpt>
      <trkpt lat="43.398113613948226" lon="-6.024926332756877">
        <ele>52.8</ele>
        <time>2017-08-02T10:27:25.000Z</time>
      </trkpt>
      <trkpt lat="43.39814705774188" lon="-6.024954076856375">
        <ele>52.6</ele>
        <time>2017-08-02T10:27:28.000Z</time>
      </trkpt>
      <trkpt lat="43.39823875576258" lon="-6.025022557005286">
        <ele>52.4</ele>
        <time>2017-08-02T10:27:36.000Z</time>
      </trkpt>
      <trkpt lat="43.3983136061579" lon="-6.025091791525483">
        <ele>52.2</ele>
        <time>2017-08-02T10:27:43.000Z</time>
      </trkpt>
      <trkpt lat="43.39837336912751" lon="-6.025144513696432">
        <ele>52</ele>
        <time>2017-08-02T10:27:49.000Z</time>
      </trkpt>
      <trkpt lat="43.39842651039362" lon="-6.025194386020303">
        <ele>51.8</ele>
        <time>2017-08-02T10:27:55.000Z</time>
      </trkpt>
      <trkpt lat="43.39850530028343" lon="-6.02525481954217">
        <ele>51.6</ele>
        <time>2017-08-02T10:28:02.000Z</time>
      </trkpt>
      <trkpt lat="43.39855609461665" lon="-6.025301171466708">
        <ele>51.4</ele>
        <time>2017-08-02T10:28:06.000Z</time>
      </trkpt>
      <trkpt lat="43.398612923920155" lon="-6.025370322167873">
        <ele>51.2</ele>
        <time>2017-08-02T10:28:12.000Z</time>
      </trkpt>
      <trkpt lat="43.398671597242355" lon="-6.025461684912443">
        <ele>51.6</ele>
        <time>2017-08-02T10:28:20.000Z</time>
      </trkpt>
      <trkpt lat="43.3987296000123" lon="-6.025547850877047">
        <ele>52.4</ele>
        <time>2017-08-02T10:28:26.000Z</time>
      </trkpt>
      <trkpt lat="43.3987866807729" lon="-6.025563022121787">
        <ele>52.2</ele>
        <time>2017-08-02T10:28:31.000Z</time>
      </trkpt>
      <trkpt lat="43.3988125808537" lon="-6.02557391859591">
        <ele>52.2</ele>
        <time>2017-08-02T10:28:33.000Z</time>
      </trkpt>
      <trkpt lat="43.39888835325837" lon="-6.025606021285057">
        <ele>52</ele>
        <time>2017-08-02T10:28:38.000Z</time>
      </trkpt>
      <trkpt lat="43.398975944146514" lon="-6.025663185864687">
        <ele>51.6</ele>
        <time>2017-08-02T10:28:45.000Z</time>
      </trkpt>
      <trkpt lat="43.399048279970884" lon="-6.025730073451996">
        <ele>51.4</ele>
        <time>2017-08-02T10:28:51.000Z</time>
      </trkpt>
      <trkpt lat="43.399117682129145" lon="-6.025792518630624">
        <ele>51.2</ele>
        <time>2017-08-02T10:28:58.000Z</time>
      </trkpt>
      <trkpt lat="43.39920091442764" lon="-6.025852365419269">
        <ele>50.8</ele>
        <time>2017-08-02T10:29:05.000Z</time>
      </trkpt>
      <trkpt lat="43.399217929691076" lon="-6.025864435359836">
        <ele>50.8</ele>
        <time>2017-08-02T10:29:07.000Z</time>
      </trkpt>
      <trkpt lat="43.39925028383732" lon="-6.025883294641972">
        <ele>50.6</ele>
        <time>2017-08-02T10:29:10.000Z</time>
      </trkpt>
      <trkpt lat="43.39934374205768" lon="-6.025943057611585">
        <ele>50.8</ele>
        <time>2017-08-02T10:29:18.000Z</time>
      </trkpt>
      <trkpt lat="43.399427058175206" lon="-6.026004245504737">
        <ele>51</ele>
        <time>2017-08-02T10:29:25.000Z</time>
      </trkpt>
      <trkpt lat="43.399509117007256" lon="-6.026056464761496">
        <ele>51</ele>
        <time>2017-08-02T10:29:33.000Z</time>
      </trkpt>
      <trkpt lat="43.39959335513413" lon="-6.026128213852644">
        <ele>51</ele>
        <time>2017-08-02T10:29:40.000Z</time>
      </trkpt>
      <trkpt lat="43.399679102003574" lon="-6.0262214206159115">
        <ele>51.8</ele>
        <time>2017-08-02T10:29:48.000Z</time>
      </trkpt>
      <trkpt lat="43.39975076727569" lon="-6.026299204677343">
        <ele>52</ele>
        <time>2017-08-02T10:29:55.000Z</time>
      </trkpt>
      <trkpt lat="43.399841375648975" lon="-6.026362739503384">
        <ele>51.8</ele>
        <time>2017-08-02T10:30:03.000Z</time>
      </trkpt>
      <trkpt lat="43.39990801177919" lon="-6.026418562978506">
        <ele>51.8</ele>
        <time>2017-08-02T10:30:09.000Z</time>
      </trkpt>
      <trkpt lat="43.399951262399554" lon="-6.026446809992194">
        <ele>51.8</ele>
        <time>2017-08-02T10:30:13.000Z</time>
      </trkpt>
      <trkpt lat="43.400039188563824" lon="-6.026510260999203">
        <ele>51.6</ele>
        <time>2017-08-02T10:30:21.000Z</time>
      </trkpt>
      <trkpt lat="43.400105740875006" lon="-6.026558540761471">
        <ele>51.4</ele>
        <time>2017-08-02T10:30:27.000Z</time>
      </trkpt>
      <trkpt lat="43.40019349940121" lon="-6.026623919606209">
        <ele>51.2</ele>
        <time>2017-08-02T10:30:35.000Z</time>
      </trkpt>
      <trkpt lat="43.40025368146598" lon="-6.026661721989512">
        <ele>51.4</ele>
        <time>2017-08-02T10:30:41.000Z</time>
      </trkpt>
      <trkpt lat="43.40035141445696" lon="-6.026715282350779">
        <ele>52</ele>
        <time>2017-08-02T10:30:49.000Z</time>
      </trkpt>
      <trkpt lat="43.40043439529836" lon="-6.026770770549774">
        <ele>52.6</ele>
        <time>2017-08-02T10:30:56.000Z</time>
      </trkpt>
      <trkpt lat="43.400522489100695" lon="-6.02684092707932">
        <ele>52.8</ele>
        <time>2017-08-02T10:31:04.000Z</time>
      </trkpt>
      <trkpt lat="43.40063765645027" lon="-6.026908569037914">
        <ele>51.6</ele>
        <time>2017-08-02T10:31:13.000Z</time>
      </trkpt>
      <trkpt lat="43.40074913576245" lon="-6.026979982852936">
        <ele>51</ele>
        <time>2017-08-02T10:31:22.000Z</time>
      </trkpt>
      <trkpt lat="43.40085290372372" lon="-6.027038153260946">
        <ele>50.8</ele>
        <time>2017-08-02T10:31:30.000Z</time>
      </trkpt>
      <trkpt lat="43.400952564552426" lon="-6.027099508792162">
        <ele>50.4</ele>
        <time>2017-08-02T10:31:39.000Z</time>
      </trkpt>
      <trkpt lat="43.401003275066614" lon="-6.027137814089656">
        <ele>50.2</ele>
        <time>2017-08-02T10:31:43.000Z</time>
      </trkpt>
      <trkpt lat="43.40107779018581" lon="-6.027192464098334">
        <ele>50</ele>
        <time>2017-08-02T10:31:49.000Z</time>
      </trkpt>
      <trkpt lat="43.4011610224843" lon="-6.027242001146078">
        <ele>49.8</ele>
        <time>2017-08-02T10:31:56.000Z</time>
      </trkpt>
      <trkpt lat="43.401255905628204" lon="-6.027333363890648">
        <ele>49.8</ele>
        <time>2017-08-02T10:32:05.000Z</time>
      </trkpt>
      <trkpt lat="43.40126839466393" lon="-6.027340907603502">
        <ele>49.8</ele>
        <time>2017-08-02T10:32:06.000Z</time>
      </trkpt>
      <trkpt lat="43.40130846016109" lon="-6.027392037212849">
        <ele>50</ele>
        <time>2017-08-02T10:32:10.000Z</time>
      </trkpt>
      <trkpt lat="43.40132027864456" lon="-6.027401005849242">
        <ele>50.2</ele>
        <time>2017-08-02T10:32:11.000Z</time>
      </trkpt>
      <trkpt lat="43.401406863704324" lon="-6.027470072731376">
        <ele>49.4</ele>
        <time>2017-08-02T10:32:19.000Z</time>
      </trkpt>
      <trkpt lat="43.40143259614706" lon="-6.027490776032209">
        <ele>49.4</ele>
        <time>2017-08-02T10:32:22.000Z</time>
      </trkpt>
      <trkpt lat="43.401449946686625" lon="-6.027504941448569">
        <ele>49.2</ele>
        <time>2017-08-02T10:32:24.000Z</time>
      </trkpt>
      <trkpt lat="43.401521192863584" lon="-6.027552969753742">
        <ele>49</ele>
        <time>2017-08-02T10:32:30.000Z</time>
      </trkpt>
      <trkpt lat="43.40153334662318" lon="-6.027559256181121">
        <ele>49</ele>
        <time>2017-08-02T10:32:31.000Z</time>
      </trkpt>
      <trkpt lat="43.401568718254566" lon="-6.027593957260251">
        <ele>49</ele>
        <time>2017-08-02T10:32:35.000Z</time>
      </trkpt>
      <trkpt lat="43.40159294195473" lon="-6.027607284486294">
        <ele>49</ele>
        <time>2017-08-02T10:32:37.000Z</time>
      </trkpt>
      <trkpt lat="43.40162420645356" lon="-6.02763201110065">
        <ele>49</ele>
        <time>2017-08-02T10:32:40.000Z</time>
      </trkpt>
      <trkpt lat="43.4016655292362" lon="-6.027663694694638">
        <ele>48.8</ele>
        <time>2017-08-02T10:32:44.000Z</time>
      </trkpt>
      <trkpt lat="43.40172462165356" lon="-6.027700575068593">
        <ele>48.4</ele>
        <time>2017-08-02T10:32:49.000Z</time>
      </trkpt>
      <trkpt lat="43.40181305073202" lon="-6.027748184278607">
        <ele>48</ele>
        <time>2017-08-02T10:32:57.000Z</time>
      </trkpt>
      <trkpt lat="43.40190717950463" lon="-6.027788585051894">
        <ele>48</ele>
        <time>2017-08-02T10:33:05.000Z</time>
      </trkpt>
      <trkpt lat="43.40199795551598" lon="-6.027813646942377">
        <ele>48.2</ele>
        <time>2017-08-02T10:33:12.000Z</time>
      </trkpt>
      <trkpt lat="43.402087055146694" lon="-6.027862513437867">
        <ele>49</ele>
        <time>2017-08-02T10:33:19.000Z</time>
      </trkpt>
      <trkpt lat="43.402166264131665" lon="-6.027910960838199">
        <ele>49.8</ele>
        <time>2017-08-02T10:33:26.000Z</time>
      </trkpt>
      <trkpt lat="43.40219157747924" lon="-6.027926048263907">
        <ele>50</ele>
        <time>2017-08-02T10:33:29.000Z</time>
      </trkpt>
      <trkpt lat="43.4022284578532" lon="-6.027938621118665">
        <ele>50</ele>
        <time>2017-08-02T10:33:32.000Z</time>
      </trkpt>
      <trkpt lat="43.40223826467991" lon="-6.027940884232521">
        <ele>50</ele>
        <time>2017-08-02T10:33:33.000Z</time>
      </trkpt>
      <trkpt lat="43.402260560542345" lon="-6.027963599190116">
        <ele>50.2</ele>
        <time>2017-08-02T10:33:35.000Z</time>
      </trkpt>
      <trkpt lat="43.40229123830795" lon="-6.02796720340848">
        <ele>50.2</ele>
        <time>2017-08-02T10:33:38.000Z</time>
      </trkpt>
      <trkpt lat="43.40232644230127" lon="-6.028030989691615">
        <ele>50.4</ele>
        <time>2017-08-02T10:33:43.000Z</time>
      </trkpt>
      <trkpt lat="43.402380337938666" lon="-6.028086729347706">
        <ele>50.4</ele>
        <time>2017-08-02T10:33:48.000Z</time>
      </trkpt>
      <trkpt lat="43.40245611034334" lon="-6.0281136352568865">
        <ele>50</ele>
        <time>2017-08-02T10:33:55.000Z</time>
      </trkpt>
      <trkpt lat="43.4024890512228" lon="-6.028145821765065">
        <ele>50.2</ele>
        <time>2017-08-02T10:33:58.000Z</time>
      </trkpt>
      <trkpt lat="43.40251646004617" lon="-6.028187982738018">
        <ele>50.2</ele>
        <time>2017-08-02T10:34:02.000Z</time>
      </trkpt>
      <trkpt lat="43.40258711948991" lon="-6.028274232521653">
        <ele>50.4</ele>
        <time>2017-08-02T10:34:09.000Z</time>
      </trkpt>
      <trkpt lat="43.40263372287154" lon="-6.028323266655207">
        <ele>50.6</ele>
        <time>2017-08-02T10:34:13.000Z</time>
      </trkpt>
      <trkpt lat="43.40266766957939" lon="-6.02834933437407">
        <ele>50.2</ele>
        <time>2017-08-02T10:34:16.000Z</time>
      </trkpt>
      <trkpt lat="43.40275324881077" lon="-6.028410941362381">
        <ele>49.6</ele>
        <time>2017-08-02T10:34:23.000Z</time>
      </trkpt>
      <trkpt lat="43.40279633179307" lon="-6.028451761230826">
        <ele>49.6</ele>
        <time>2017-08-02T10:34:28.000Z</time>
      </trkpt>
      <trkpt lat="43.40282432734966" lon="-6.028469447046518">
        <ele>49.8</ele>
        <time>2017-08-02T10:34:30.000Z</time>
      </trkpt>
      <trkpt lat="43.40288341976702" lon="-6.028497777879238">
        <ele>50.4</ele>
        <time>2017-08-02T10:34:34.000Z</time>
      </trkpt>
      <trkpt lat="43.402941506356" lon="-6.028547063469887">
        <ele>51</ele>
        <time>2017-08-02T10:34:39.000Z</time>
      </trkpt>
      <trkpt lat="43.40295013971627" lon="-6.028563994914293">
        <ele>51.2</ele>
        <time>2017-08-02T10:34:40.000Z</time>
      </trkpt>
      <trkpt lat="43.402998419478536" lon="-6.028600875288248">
        <ele>51.4</ele>
        <time>2017-08-02T10:34:44.000Z</time>
      </trkpt>
      <trkpt lat="43.403026079759" lon="-6.028657788410783">
        <ele>51.4</ele>
        <time>2017-08-02T10:34:48.000Z</time>
      </trkpt>
      <trkpt lat="43.40304451994598" lon="-6.028680000454187">
        <ele>51.6</ele>
        <time>2017-08-02T10:34:50.000Z</time>
      </trkpt>
      <trkpt lat="43.403050219640136" lon="-6.0286991111934185">
        <ele>51.8</ele>
        <time>2017-08-02T10:34:52.000Z</time>
      </trkpt>
      <trkpt lat="43.40305181220174" lon="-6.028725933283567">
        <ele>51.6</ele>
        <time>2017-08-02T10:34:54.000Z</time>
      </trkpt>
      <trkpt lat="43.40309430845082" lon="-6.028821403160691">
        <ele>52</ele>
        <time>2017-08-02T10:35:01.000Z</time>
      </trkpt>
      <trkpt lat="43.403122555464506" lon="-6.028885776177049">
        <ele>52.2</ele>
        <time>2017-08-02T10:35:08.000Z</time>
      </trkpt>
      <trkpt lat="43.40316672809422" lon="-6.0288934875279665">
        <ele>53</ele>
        <time>2017-08-02T10:35:11.000Z</time>
      </trkpt>
      <trkpt lat="43.40317360125482" lon="-6.028910921886563">
        <ele>53</ele>
        <time>2017-08-02T10:35:13.000Z</time>
      </trkpt>
      <trkpt lat="43.403173768892884" lon="-6.028913604095578">
        <ele>53</ele>
        <time>2017-08-02T10:35:18.000Z</time>
      </trkpt>
      <trkpt lat="43.40317510999739" lon="-6.028930116444826">
        <ele>53</ele>
        <time>2017-08-02T10:35:29.000Z</time>
      </trkpt>
      <trkpt lat="43.40317544527352" lon="-6.028956435620785">
        <ele>53</ele>
        <time>2017-08-02T10:35:47.000Z</time>
      </trkpt>
      <trkpt lat="43.40321308001876" lon="-6.02899482473731">
        <ele>53.4</ele>
        <time>2017-08-02T10:36:04.000Z</time>
      </trkpt>
      <trkpt lat="43.40322238393128" lon="-6.029011337086558">
        <ele>53.6</ele>
        <time>2017-08-02T10:36:06.000Z</time>
      </trkpt>
      <trkpt lat="43.40324769727886" lon="-6.029058024287224">
        <ele>54</ele>
        <time>2017-08-02T10:36:10.000Z</time>
      </trkpt>
      <trkpt lat="43.40327125042677" lon="-6.029092893004417">
        <ele>54.2</ele>
        <time>2017-08-02T10:36:13.000Z</time>
      </trkpt>
      <trkpt lat="43.403306705877185" lon="-6.029170257970691">
        <ele>54</ele>
        <time>2017-08-02T10:36:19.000Z</time>
      </trkpt>
      <trkpt lat="43.40331575833261" lon="-6.029175454750657">
        <ele>54.2</ele>
        <time>2017-08-02T10:36:20.000Z</time>
      </trkpt>
      <trkpt lat="43.40334668755531" lon="-6.029212586581707">
        <ele>55</ele>
        <time>2017-08-02T10:36:24.000Z</time>
      </trkpt>
      <trkpt lat="43.40335632674396" lon="-6.029228763654828">
        <ele>55.2</ele>
        <time>2017-08-02T10:36:25.000Z</time>
      </trkpt>
      <trkpt lat="43.4033767785877" lon="-6.029246365651488">
        <ele>55.8</ele>
        <time>2017-08-02T10:36:27.000Z</time>
      </trkpt>
      <trkpt lat="43.40340066701174" lon="-6.029290873557329">
        <ele>55.4</ele>
        <time>2017-08-02T10:36:30.000Z</time>
      </trkpt>
      <trkpt lat="43.40341357514262" lon="-6.029296154156327">
        <ele>55.6</ele>
        <time>2017-08-02T10:36:31.000Z</time>
      </trkpt>
      <trkpt lat="43.40343737974763" lon="-6.029344601556659">
        <ele>55.6</ele>
        <time>2017-08-02T10:36:35.000Z</time>
      </trkpt>
      <trkpt lat="43.403443582355976" lon="-6.029356587678194">
        <ele>55.6</ele>
        <time>2017-08-02T10:36:36.000Z</time>
      </trkpt>
      <trkpt lat="43.40347442775965" lon="-6.02940084412694">
        <ele>56</ele>
        <time>2017-08-02T10:36:40.000Z</time>
      </trkpt>
      <trkpt lat="43.4034822229296" lon="-6.029409896582365">
        <ele>56.2</ele>
        <time>2017-08-02T10:36:41.000Z</time>
      </trkpt>
      <trkpt lat="43.403515331447124" lon="-6.029488435015082">
        <ele>55.4</ele>
        <time>2017-08-02T10:36:46.000Z</time>
      </trkpt>
      <trkpt lat="43.4035337716341" lon="-6.029545767232776">
        <ele>55</ele>
        <time>2017-08-02T10:36:50.000Z</time>
      </trkpt>
      <trkpt lat="43.40354382991791" lon="-6.029571918770671">
        <ele>54.8</ele>
        <time>2017-08-02T10:36:52.000Z</time>
      </trkpt>
      <trkpt lat="43.40359487570822" lon="-6.029654731974006">
        <ele>54.6</ele>
        <time>2017-08-02T10:36:59.000Z</time>
      </trkpt>
      <trkpt lat="43.40359906665981" lon="-6.029650708660483">
        <ele>54.8</ele>
        <time>2017-08-02T10:37:00.000Z</time>
      </trkpt>
      <trkpt lat="43.403605688363314" lon="-6.029664454981685">
        <ele>55</ele>
        <time>2017-08-02T10:37:04.000Z</time>
      </trkpt>
      <trkpt lat="43.40364650823176" lon="-6.029737796634436">
        <ele>55.6</ele>
        <time>2017-08-02T10:37:10.000Z</time>
      </trkpt>
      <trkpt lat="43.403712725266814" lon="-6.029870146885514">
        <ele>55.2</ele>
        <time>2017-08-02T10:37:20.000Z</time>
      </trkpt>
      <trkpt lat="43.403741056099534" lon="-6.029962515458465">
        <ele>55.2</ele>
        <time>2017-08-02T10:37:26.000Z</time>
      </trkpt>
      <trkpt lat="43.40379017405212" lon="-6.030081789940596">
        <ele>54.2</ele>
        <time>2017-08-02T10:37:34.000Z</time>
      </trkpt>
      <trkpt lat="43.403836861252785" lon="-6.030223863199353">
        <ele>53</ele>
        <time>2017-08-02T10:37:42.000Z</time>
      </trkpt>
      <trkpt lat="43.403881369158626" lon="-6.030352357774973">
        <ele>53.4</ele>
        <time>2017-08-02T10:37:50.000Z</time>
      </trkpt>
      <trkpt lat="43.40394884347916" lon="-6.030570538714528">
        <ele>54.4</ele>
        <time>2017-08-02T10:38:03.000Z</time>
      </trkpt>
      <trkpt lat="43.403982538729906" lon="-6.030730549246073">
        <ele>56.2</ele>
        <time>2017-08-02T10:38:12.000Z</time>
      </trkpt>
      <trkpt lat="43.40398237109184" lon="-6.030953172594309">
        <ele>57.8</ele>
        <time>2017-08-02T10:38:23.000Z</time>
      </trkpt>
      <trkpt lat="43.40395295061171" lon="-6.031142435967922">
        <ele>57.8</ele>
        <time>2017-08-02T10:38:33.000Z</time>
      </trkpt>
      <trkpt lat="43.40392151847482" lon="-6.0312439408153296">
        <ele>57</ele>
        <time>2017-08-02T10:38:40.000Z</time>
      </trkpt>
      <trkpt lat="43.403895031660795" lon="-6.031323233619332">
        <ele>56.4</ele>
        <time>2017-08-02T10:38:47.000Z</time>
      </trkpt>
      <trkpt lat="43.40386996977031" lon="-6.031417362391949">
        <ele>56.2</ele>
        <time>2017-08-02T10:38:55.000Z</time>
      </trkpt>
      <trkpt lat="43.40384155511856" lon="-6.031526243314147">
        <ele>56.2</ele>
        <time>2017-08-02T10:39:03.000Z</time>
      </trkpt>
      <trkpt lat="43.40384490787983" lon="-6.031544096767902">
        <ele>56.6</ele>
        <time>2017-08-02T10:39:07.000Z</time>
      </trkpt>
      <trkpt lat="43.40384432114661" lon="-6.0315425042063">
        <ele>56.4</ele>
        <time>2017-08-02T10:39:08.000Z</time>
      </trkpt>
      <trkpt lat="43.403829485177994" lon="-6.031609391793609">
        <ele>56.6</ele>
        <time>2017-08-02T10:39:28.000Z</time>
      </trkpt>
      <trkpt lat="43.40379654429853" lon="-6.031695054844022">
        <ele>56.2</ele>
        <time>2017-08-02T10:39:35.000Z</time>
      </trkpt>
      <trkpt lat="43.40375731699169" lon="-6.031830087304115">
        <ele>56</ele>
        <time>2017-08-02T10:39:44.000Z</time>
      </trkpt>
      <trkpt lat="43.40372093953192" lon="-6.0319743398576975">
        <ele>56.2</ele>
        <time>2017-08-02T10:39:53.000Z</time>
      </trkpt>
      <trkpt lat="43.403683975338936" lon="-6.032131751999259">
        <ele>57.4</ele>
        <time>2017-08-02T10:40:02.000Z</time>
      </trkpt>
      <trkpt lat="43.403649777173996" lon="-6.032324871048331">
        <ele>58.2</ele>
        <time>2017-08-02T10:40:13.000Z</time>
      </trkpt>
      <trkpt lat="43.403631169348955" lon="-6.0324835404753685">
        <ele>59.4</ele>
        <time>2017-08-02T10:40:22.000Z</time>
      </trkpt>
      <trkpt lat="43.40363175608218" lon="-6.032655285671353">
        <ele>61.2</ele>
        <time>2017-08-02T10:40:32.000Z</time>
      </trkpt>
      <trkpt lat="43.40365061536431" lon="-6.032716054469347">
        <ele>61.6</ele>
        <time>2017-08-02T10:40:36.000Z</time>
      </trkpt>
      <trkpt lat="43.40364759787917" lon="-6.032755449414253">
        <ele>61.2</ele>
        <time>2017-08-02T10:40:38.000Z</time>
      </trkpt>
      <trkpt lat="43.40365354903042" lon="-6.032898528501391">
        <ele>60.8</ele>
        <time>2017-08-02T10:40:46.000Z</time>
      </trkpt>
      <trkpt lat="43.40367282740772" lon="-6.033085361123085">
        <ele>61.2</ele>
        <time>2017-08-02T10:40:56.000Z</time>
      </trkpt>
      <trkpt lat="43.40369436889887" lon="-6.03325953707099">
        <ele>60.8</ele>
        <time>2017-08-02T10:41:05.000Z</time>
      </trkpt>
      <trkpt lat="43.40372311882675" lon="-6.033451063558459">
        <ele>59.6</ele>
        <time>2017-08-02T10:41:15.000Z</time>
      </trkpt>
      <trkpt lat="43.40375639498234" lon="-6.033704532310367">
        <ele>57.4</ele>
        <time>2017-08-02T10:41:28.000Z</time>
      </trkpt>
      <trkpt lat="43.40378489345312" lon="-6.033885749056935">
        <ele>57.8</ele>
        <time>2017-08-02T10:41:38.000Z</time>
      </trkpt>
      <trkpt lat="43.40380744077265" lon="-6.034032600000501">
        <ele>58</ele>
        <time>2017-08-02T10:41:46.000Z</time>
      </trkpt>
      <trkpt lat="43.403815319761634" lon="-6.034277183935046">
        <ele>57.4</ele>
        <time>2017-08-02T10:41:59.000Z</time>
      </trkpt>
      <trkpt lat="43.403806518763304" lon="-6.034486144781113">
        <ele>56.6</ele>
        <time>2017-08-02T10:42:11.000Z</time>
      </trkpt>
      <trkpt lat="43.40379570610821" lon="-6.034674486145377">
        <ele>55.6</ele>
        <time>2017-08-02T10:42:22.000Z</time>
      </trkpt>
      <trkpt lat="43.40377910993993" lon="-6.034812955185771">
        <ele>53.8</ele>
        <time>2017-08-02T10:42:30.000Z</time>
      </trkpt>
      <trkpt lat="43.40377651154995" lon="-6.034927284345031">
        <ele>53.4</ele>
        <time>2017-08-02T10:42:37.000Z</time>
      </trkpt>
      <trkpt lat="43.403776260092854" lon="-6.035088049247861">
        <ele>52.6</ele>
        <time>2017-08-02T10:42:46.000Z</time>
      </trkpt>
      <trkpt lat="43.403786066919565" lon="-6.035219477489591">
        <ele>52</ele>
        <time>2017-08-02T10:42:54.000Z</time>
      </trkpt>
      <trkpt lat="43.40380031615496" lon="-6.0353900492191315">
        <ele>51.4</ele>
        <time>2017-08-02T10:43:04.000Z</time>
      </trkpt>
      <trkpt lat="43.40381121262908" lon="-6.035593142732978">
        <ele>50.8</ele>
        <time>2017-08-02T10:43:15.000Z</time>
      </trkpt>
      <trkpt lat="43.40381649322808" lon="-6.035756003111601">
        <ele>50.6</ele>
        <time>2017-08-02T10:43:24.000Z</time>
      </trkpt>
      <trkpt lat="43.4038255456835" lon="-6.035937555134296">
        <ele>51.4</ele>
        <time>2017-08-02T10:43:34.000Z</time>
      </trkpt>
      <trkpt lat="43.403832502663136" lon="-6.036102343350649">
        <ele>52</ele>
        <time>2017-08-02T10:43:43.000Z</time>
      </trkpt>
      <trkpt lat="43.403838286176324" lon="-6.036247098818421">
        <ele>52.6</ele>
        <time>2017-08-02T10:43:51.000Z</time>
      </trkpt>
      <trkpt lat="43.40384750626981" lon="-6.036423537880182">
        <ele>52.8</ele>
        <time>2017-08-02T10:44:01.000Z</time>
      </trkpt>
      <trkpt lat="43.403859324753284" lon="-6.036552954465151">
        <ele>53</ele>
        <time>2017-08-02T10:44:08.000Z</time>
      </trkpt>
      <trkpt lat="43.40388933196664" lon="-6.036682371050119">
        <ele>53.8</ele>
        <time>2017-08-02T10:44:16.000Z</time>
      </trkpt>
      <trkpt lat="43.40395571663976" lon="-6.036842800676823">
        <ele>54.2</ele>
        <time>2017-08-02T10:44:26.000Z</time>
      </trkpt>
      <trkpt lat="43.40403953567147" lon="-6.03700683452189">
        <ele>54.2</ele>
        <time>2017-08-02T10:44:37.000Z</time>
      </trkpt>
      <trkpt lat="43.40410935692489" lon="-6.0371641628444195">
        <ele>54.6</ele>
        <time>2017-08-02T10:44:47.000Z</time>
      </trkpt>
      <trkpt lat="43.40415830723941" lon="-6.037320904433727">
        <ele>55.4</ele>
        <time>2017-08-02T10:44:56.000Z</time>
      </trkpt>
      <trkpt lat="43.40416350401938" lon="-6.037526344880462">
        <ele>57</ele>
        <time>2017-08-02T10:45:06.000Z</time>
      </trkpt>
      <trkpt lat="43.404150092974305" lon="-6.037714099511504">
        <ele>58</ele>
        <time>2017-08-02T10:45:16.000Z</time>
      </trkpt>
      <trkpt lat="43.404119331389666" lon="-6.037914678454399">
        <ele>59.2</ele>
        <time>2017-08-02T10:45:27.000Z</time>
      </trkpt>
      <trkpt lat="43.40409527532756" lon="-6.038078963756561">
        <ele>60.2</ele>
        <time>2017-08-02T10:45:36.000Z</time>
      </trkpt>
      <trkpt lat="43.40406644158065" lon="-6.03828364983201">
        <ele>61.4</ele>
        <time>2017-08-02T10:45:47.000Z</time>
      </trkpt>
      <trkpt lat="43.40405101887882" lon="-6.0384652856737375">
        <ele>64.4</ele>
        <time>2017-08-02T10:45:57.000Z</time>
      </trkpt>
      <trkpt lat="43.40404288843274" lon="-6.038626050576568">
        <ele>64.6</ele>
        <time>2017-08-02T10:46:06.000Z</time>
      </trkpt>
      <trkpt lat="43.404037188738585" lon="-6.038790503516793">
        <ele>64</ele>
        <time>2017-08-02T10:46:15.000Z</time>
      </trkpt>
      <trkpt lat="43.404044983908534" lon="-6.038879603147507">
        <ele>64.2</ele>
        <time>2017-08-02T10:46:20.000Z</time>
      </trkpt>
      <trkpt lat="43.404073314741254" lon="-6.038921428844333">
        <ele>64.8</ele>
        <time>2017-08-02T10:46:23.000Z</time>
      </trkpt>
      <trkpt lat="43.40409234166145" lon="-6.0389783419668674">
        <ele>65</ele>
        <time>2017-08-02T10:46:27.000Z</time>
      </trkpt>
      <trkpt lat="43.40409024618566" lon="-6.039025783538818">
        <ele>64.4</ele>
        <time>2017-08-02T10:46:30.000Z</time>
      </trkpt>
      <trkpt lat="43.40407473966479" lon="-6.039180513471365">
        <ele>63.4</ele>
        <time>2017-08-02T10:46:39.000Z</time>
      </trkpt>
      <trkpt lat="43.404059652239084" lon="-6.039362316951156">
        <ele>63</ele>
        <time>2017-08-02T10:46:49.000Z</time>
      </trkpt>
      <trkpt lat="43.404051857069135" lon="-6.03951252065599">
        <ele>62.8</ele>
        <time>2017-08-02T10:46:57.000Z</time>
      </trkpt>
      <trkpt lat="43.4040451515466" lon="-6.039667334407568">
        <ele>62.8</ele>
        <time>2017-08-02T10:47:05.000Z</time>
      </trkpt>
      <trkpt lat="43.40403886511922" lon="-6.039798259735107">
        <ele>63</ele>
        <time>2017-08-02T10:47:12.000Z</time>
      </trkpt>
      <trkpt lat="43.40403794310987" lon="-6.039816867560148">
        <ele>63.2</ele>
        <time>2017-08-02T10:47:13.000Z</time>
      </trkpt>
      <trkpt lat="43.40403794310987" lon="-6.039816867560148">
        <ele>63.2</ele>
        <time>2017-08-02T10:47:13.000Z</time>
      </trkpt>
      <trkpt lat="43.40402763336897" lon="-6.039979560300708">
        <ele>63.8</ele>
        <time>2017-08-02T10:47:22.000Z</time>
      </trkpt>
      <trkpt lat="43.40402369387448" lon="-6.040177037939429">
        <ele>65.4</ele>
        <time>2017-08-02T10:47:33.000Z</time>
      </trkpt>
      <trkpt lat="43.40402218513191" lon="-6.040312238037586">
        <ele>66.2</ele>
        <time>2017-08-02T10:47:40.000Z</time>
      </trkpt>
      <trkpt lat="43.40401438996196" lon="-6.040470823645592">
        <ele>67.2</ele>
        <time>2017-08-02T10:47:48.000Z</time>
      </trkpt>
      <trkpt lat="43.40400265529752" lon="-6.0406252183020115">
        <ele>65.2</ele>
        <time>2017-08-02T10:47:57.000Z</time>
      </trkpt>
      <trkpt lat="43.4039949439466" lon="-6.0407559759914875">
        <ele>65.2</ele>
        <time>2017-08-02T10:48:05.000Z</time>
      </trkpt>
      <trkpt lat="43.40398228727281" lon="-6.040785480290651">
        <ele>64.8</ele>
        <time>2017-08-02T10:48:07.000Z</time>
      </trkpt>
      <trkpt lat="43.40394398197532" lon="-6.040830072015524">
        <ele>62.6</ele>
        <time>2017-08-02T10:48:11.000Z</time>
      </trkpt>
      <trkpt lat="43.4039225243032" lon="-6.040842393413186">
        <ele>61.4</ele>
        <time>2017-08-02T10:48:13.000Z</time>
      </trkpt>
      <trkpt lat="43.40391053818166" lon="-6.04084356687963">
        <ele>60.4</ele>
        <time>2017-08-02T10:48:14.000Z</time>
      </trkpt>
      <trkpt lat="43.4038376994431" lon="-6.040868880227208">
        <ele>56.8</ele>
        <time>2017-08-02T10:48:21.000Z</time>
      </trkpt>
      <trkpt lat="43.403789503499866" lon="-6.040891679003835">
        <ele>55.8</ele>
        <time>2017-08-02T10:48:26.000Z</time>
      </trkpt>
      <trkpt lat="43.40379226952791" lon="-6.040907017886639">
        <ele>56.2</ele>
        <time>2017-08-02T10:48:27.000Z</time>
      </trkpt>
      <trkpt lat="43.40376469306648" lon="-6.0409188363701105">
        <ele>55.6</ele>
        <time>2017-08-02T10:48:31.000Z</time>
      </trkpt>
      <trkpt lat="43.403647765517235" lon="-6.040914310142398">
        <ele>52.6</ele>
        <time>2017-08-02T10:48:41.000Z</time>
      </trkpt>
      <trkpt lat="43.403558330610394" lon="-6.040906012058258">
        <ele>50.8</ele>
        <time>2017-08-02T10:48:50.000Z</time>
      </trkpt>
      <trkpt lat="43.403542740270495" lon="-6.0409038327634335">
        <ele>50.8</ele>
        <time>2017-08-02T10:48:53.000Z</time>
      </trkpt>
      <trkpt lat="43.40353888459504" lon="-6.040901318192482">
        <ele>50.8</ele>
        <time>2017-08-02T10:48:55.000Z</time>
      </trkpt>
      <trkpt lat="43.40351575054228" lon="-6.04088363237679">
        <ele>50.6</ele>
        <time>2017-08-02T10:49:32.000Z</time>
      </trkpt>
      <trkpt lat="43.40340728871524" lon="-6.040880950167775">
        <ele>50.6</ele>
        <time>2017-08-02T10:49:41.000Z</time>
      </trkpt>
      <trkpt lat="43.40329119935632" lon="-6.04088413529098">
        <ele>51.4</ele>
        <time>2017-08-02T10:49:50.000Z</time>
      </trkpt>
      <trkpt lat="43.40320251882076" lon="-6.040900647640228">
        <ele>54.8</ele>
        <time>2017-08-02T10:49:58.000Z</time>
      </trkpt>
      <trkpt lat="43.4030295163393" lon="-6.040918752551079">
        <ele>59.8</ele>
        <time>2017-08-02T10:50:12.000Z</time>
      </trkpt>
      <trkpt lat="43.40301526710391" lon="-6.040927888825536">
        <ele>61</ele>
        <time>2017-08-02T10:50:14.000Z</time>
      </trkpt>
      <trkpt lat="43.40300906449556" lon="-6.040938030928373">
        <ele>61.8</ele>
        <time>2017-08-02T10:50:17.000Z</time>
      </trkpt>
      <trkpt lat="43.40301434509456" lon="-6.041010366752744">
        <ele>63.2</ele>
        <time>2017-08-02T10:50:22.000Z</time>
      </trkpt>
      <trkpt lat="43.40301669202745" lon="-6.04104146361351">
        <ele>63.4</ele>
        <time>2017-08-02T10:50:24.000Z</time>
      </trkpt>
      <trkpt lat="43.40302490629256" lon="-6.041088905185461">
        <ele>63.4</ele>
        <time>2017-08-02T10:50:27.000Z</time>
      </trkpt>
      <trkpt lat="43.403026666492224" lon="-6.04110206477344">
        <ele>63.4</ele>
        <time>2017-08-02T10:50:28.000Z</time>
      </trkpt>
      <trkpt lat="43.40302272699773" lon="-6.0411694552749395">
        <ele>64.4</ele>
        <time>2017-08-02T10:50:33.000Z</time>
      </trkpt>
      <trkpt lat="43.40301459655166" lon="-6.041183620691299">
        <ele>65</ele>
        <time>2017-08-02T10:50:34.000Z</time>
      </trkpt>
      <trkpt lat="43.402968160808086" lon="-6.041261153295636">
        <ele>69</ele>
        <time>2017-08-02T10:50:39.000Z</time>
      </trkpt>
      <trkpt lat="43.40296103619039" lon="-6.041279593482614">
        <ele>69.4</ele>
        <time>2017-08-02T10:50:40.000Z</time>
      </trkpt>
      <trkpt lat="43.40296355076134" lon="-6.0413941740989685">
        <ele>69</ele>
        <time>2017-08-02T10:50:46.000Z</time>
      </trkpt>
      <trkpt lat="43.40300101786852" lon="-6.041542198508978">
        <ele>65.8</ele>
        <time>2017-08-02T10:50:55.000Z</time>
      </trkpt>
      <trkpt lat="43.40303186327219" lon="-6.041714949533343">
        <ele>60</ele>
        <time>2017-08-02T10:51:05.000Z</time>
      </trkpt>
      <trkpt lat="43.40305080637336" lon="-6.041854759678245">
        <ele>57.6</ele>
        <time>2017-08-02T10:51:13.000Z</time>
      </trkpt>
      <trkpt lat="43.40305441059172" lon="-6.04187211021781">
        <ele>57.6</ele>
        <time>2017-08-02T10:51:14.000Z</time>
      </trkpt>
      <trkpt lat="43.40307771228254" lon="-6.04193514212966">
        <ele>57.2</ele>
        <time>2017-08-02T10:51:18.000Z</time>
      </trkpt>
      <trkpt lat="43.40308601036668" lon="-6.041989708319306">
        <ele>57.2</ele>
        <time>2017-08-02T10:51:21.000Z</time>
      </trkpt>
      <trkpt lat="43.403097158297896" lon="-6.0420633014291525">
        <ele>57</ele>
        <time>2017-08-02T10:51:25.000Z</time>
      </trkpt>
      <trkpt lat="43.403126494959" lon="-6.04222197085619">
        <ele>56.2</ele>
        <time>2017-08-02T10:51:34.000Z</time>
      </trkpt>
      <trkpt lat="43.4031349606812" lon="-6.042294893413782">
        <ele>56.2</ele>
        <time>2017-08-02T10:51:38.000Z</time>
      </trkpt>
      <trkpt lat="43.40313848108053" lon="-6.04235490784049">
        <ele>56.4</ele>
        <time>2017-08-02T10:51:41.000Z</time>
      </trkpt>
      <trkpt lat="43.40315063484013" lon="-6.042512906715274">
        <ele>56.8</ele>
        <time>2017-08-02T10:51:50.000Z</time>
      </trkpt>
      <trkpt lat="43.40315641835332" lon="-6.0426894295960665">
        <ele>56.6</ele>
        <time>2017-08-02T10:52:00.000Z</time>
      </trkpt>
      <trkpt lat="43.40314283967018" lon="-6.042873663827777">
        <ele>55.8</ele>
        <time>2017-08-02T10:52:10.000Z</time>
      </trkpt>
      <trkpt lat="43.40313898399472" lon="-6.043002912774682">
        <ele>55</ele>
        <time>2017-08-02T10:52:17.000Z</time>
      </trkpt>
      <trkpt lat="43.40313797816634" lon="-6.043019508942962">
        <ele>55</ele>
        <time>2017-08-02T10:52:18.000Z</time>
      </trkpt>
      <trkpt lat="43.40313244611025" lon="-6.043092850595713">
        <ele>54.6</ele>
        <time>2017-08-02T10:52:22.000Z</time>
      </trkpt>
      <trkpt lat="43.40312615968287" lon="-6.043161917477846">
        <ele>54.2</ele>
        <time>2017-08-02T10:52:26.000Z</time>
      </trkpt>
      <trkpt lat="43.403089782223105" lon="-6.0433373507112265">
        <ele>53.2</ele>
        <time>2017-08-02T10:52:36.000Z</time>
      </trkpt>
      <trkpt lat="43.40306354686618" lon="-6.043465426191688">
        <ele>52.6</ele>
        <time>2017-08-02T10:52:43.000Z</time>
      </trkpt>
      <trkpt lat="43.40303027071059" lon="-6.043648822233081">
        <ele>53</ele>
        <time>2017-08-02T10:52:53.000Z</time>
      </trkpt>
      <trkpt lat="43.4029795601964" lon="-6.043829871341586">
        <ele>53</ele>
        <time>2017-08-02T10:53:03.000Z</time>
      </trkpt>
      <trkpt lat="43.402929939329624" lon="-6.043995497748256">
        <ele>52.6</ele>
        <time>2017-08-02T10:53:12.000Z</time>
      </trkpt>
      <trkpt lat="43.40288333594799" lon="-6.044087028130889">
        <ele>52</ele>
        <time>2017-08-02T10:53:18.000Z</time>
      </trkpt>
      <trkpt lat="43.402876714244485" lon="-6.044101947918534">
        <ele>51.8</ele>
        <time>2017-08-02T10:53:19.000Z</time>
      </trkpt>
      <trkpt lat="43.402856262400746" lon="-6.044158944860101">
        <ele>51.4</ele>
        <time>2017-08-02T10:53:23.000Z</time>
      </trkpt>
      <trkpt lat="43.40283254161477" lon="-6.044203536584973">
        <ele>51</ele>
        <time>2017-08-02T10:53:26.000Z</time>
      </trkpt>
      <trkpt lat="43.40281678363681" lon="-6.044235471636057">
        <ele>50.6</ele>
        <time>2017-08-02T10:53:28.000Z</time>
      </trkpt>
      <trkpt lat="43.402792140841484" lon="-6.044300263747573">
        <ele>50.2</ele>
        <time>2017-08-02T10:53:32.000Z</time>
      </trkpt>
      <trkpt lat="43.40276506729424" lon="-6.044402439147234">
        <ele>49.4</ele>
        <time>2017-08-02T10:53:38.000Z</time>
      </trkpt>
      <trkpt lat="43.40276749804616" lon="-6.044550882652402">
        <ele>48.4</ele>
        <time>2017-08-02T10:53:45.000Z</time>
      </trkpt>
      <trkpt lat="43.40277252718806" lon="-6.044652387499809">
        <ele>47.6</ele>
        <time>2017-08-02T10:53:52.000Z</time>
      </trkpt>
      <trkpt lat="43.40276900678873" lon="-6.0447324346750975">
        <ele>47</ele>
        <time>2017-08-02T10:54:04.000Z</time>
      </trkpt>
      <trkpt lat="43.402747716754675" lon="-6.044882219284773">
        <ele>46</ele>
        <time>2017-08-02T10:54:13.000Z</time>
      </trkpt>
      <trkpt lat="43.4027205593884" lon="-6.045009372755885">
        <ele>46.2</ele>
        <time>2017-08-02T10:54:20.000Z</time>
      </trkpt>
      <trkpt lat="43.40269658714533" lon="-6.045107189565897">
        <ele>46.4</ele>
        <time>2017-08-02T10:54:26.000Z</time>
      </trkpt>
      <trkpt lat="43.40265920385718" lon="-6.045227134600282">
        <ele>46.4</ele>
        <time>2017-08-02T10:54:33.000Z</time>
      </trkpt>
      <trkpt lat="43.40265107341111" lon="-6.045242138206959">
        <ele>46.6</ele>
        <time>2017-08-02T10:54:34.000Z</time>
      </trkpt>
      <trkpt lat="43.402620144188404" lon="-6.045352192595601">
        <ele>46.8</ele>
        <time>2017-08-02T10:54:41.000Z</time>
      </trkpt>
      <trkpt lat="43.402606481686234" lon="-6.045417319983244">
        <ele>47</ele>
        <time>2017-08-02T10:54:46.000Z</time>
      </trkpt>
      <trkpt lat="43.40259365737438" lon="-6.04544791392982">
        <ele>47.2</ele>
        <time>2017-08-02T10:54:48.000Z</time>
      </trkpt>
      <trkpt lat="43.402569433674216" lon="-6.0455558728426695">
        <ele>47.2</ele>
        <time>2017-08-02T10:54:54.000Z</time>
      </trkpt>
      <trkpt lat="43.402557615190744" lon="-6.045670285820961">
        <ele>47</ele>
        <time>2017-08-02T10:55:00.000Z</time>
      </trkpt>
      <trkpt lat="43.40253992937505" lon="-6.045822333544493">
        <ele>46.8</ele>
        <time>2017-08-02T10:55:08.000Z</time>
      </trkpt>
      <trkpt lat="43.402539510279894" lon="-6.045858878642321">
        <ele>46.8</ele>
        <time>2017-08-02T10:55:10.000Z</time>
      </trkpt>
      <trkpt lat="43.40253020636737" lon="-6.045913025736809">
        <ele>46.6</ele>
        <time>2017-08-02T10:55:13.000Z</time>
      </trkpt>
      <trkpt lat="43.40253062546253" lon="-6.045986786484718">
        <ele>46.6</ele>
        <time>2017-08-02T10:55:17.000Z</time>
      </trkpt>
      <trkpt lat="43.40252995491028" lon="-6.046022325754166">
        <ele>46.6</ele>
        <time>2017-08-02T10:55:19.000Z</time>
      </trkpt>
      <trkpt lat="43.40252609923482" lon="-6.046060211956501">
        <ele>46.6</ele>
        <time>2017-08-02T10:55:21.000Z</time>
      </trkpt>
      <trkpt lat="43.40250598266721" lon="-6.0461384151130915">
        <ele>46.8</ele>
        <time>2017-08-02T10:55:25.000Z</time>
      </trkpt>
      <trkpt lat="43.402473628520966" lon="-6.046266574412584">
        <ele>47</ele>
        <time>2017-08-02T10:55:32.000Z</time>
      </trkpt>
      <trkpt lat="43.40246642008424" lon="-6.046298844739795">
        <ele>47</ele>
        <time>2017-08-02T10:55:34.000Z</time>
      </trkpt>
      <trkpt lat="43.40246541425586" lon="-6.046326672658324">
        <ele>47</ele>
        <time>2017-08-02T10:55:36.000Z</time>
      </trkpt>
      <trkpt lat="43.402436999604106" lon="-6.046416945755482">
        <ele>47.2</ele>
        <time>2017-08-02T10:55:41.000Z</time>
      </trkpt>
      <trkpt lat="43.40237824246287" lon="-6.0465433448553085">
        <ele>47.4</ele>
        <time>2017-08-02T10:55:49.000Z</time>
      </trkpt>
      <trkpt lat="43.40237078256905" lon="-6.046559019014239">
        <ele>47.4</ele>
        <time>2017-08-02T10:55:50.000Z</time>
      </trkpt>
      <trkpt lat="43.402352929115295" lon="-6.046610483899713">
        <ele>47.4</ele>
        <time>2017-08-02T10:55:53.000Z</time>
      </trkpt>
      <trkpt lat="43.402333902195096" lon="-6.046726992353797">
        <ele>47.6</ele>
        <time>2017-08-02T10:56:00.000Z</time>
      </trkpt>
      <trkpt lat="43.40229190886021" lon="-6.046843836084008">
        <ele>48</ele>
        <time>2017-08-02T10:56:07.000Z</time>
      </trkpt>
      <trkpt lat="43.40224371291697" lon="-6.046942826360464">
        <ele>48</ele>
        <time>2017-08-02T10:56:14.000Z</time>
      </trkpt>
      <trkpt lat="43.40218503959477" lon="-6.0470920242369175">
        <ele>48</ele>
        <time>2017-08-02T10:56:24.000Z</time>
      </trkpt>
      <trkpt lat="43.40214941650629" lon="-6.047237198799849">
        <ele>47</ele>
        <time>2017-08-02T10:56:32.000Z</time>
      </trkpt>
      <trkpt lat="43.402130054309964" lon="-6.04734817519784">
        <ele>46.2</ele>
        <time>2017-08-02T10:56:38.000Z</time>
      </trkpt>
      <trkpt lat="43.40210733935237" lon="-6.047437861561775">
        <ele>45.8</ele>
        <time>2017-08-02T10:56:44.000Z</time>
      </trkpt>
      <trkpt lat="43.40210784226656" lon="-6.047441214323044">
        <ele>45.8</ele>
        <time>2017-08-02T10:56:45.000Z</time>
      </trkpt>
      <trkpt lat="43.402152014896274" lon="-6.0474245343357325">
        <ele>45.8</ele>
        <time>2017-08-02T10:56:51.000Z</time>
      </trkpt>
      <trkpt lat="43.402226781472564" lon="-6.047410620376468">
        <ele>45.8</ele>
        <time>2017-08-02T10:56:57.000Z</time>
      </trkpt>
      <trkpt lat="43.40230833739042" lon="-6.047412129119039">
        <ele>45.8</ele>
        <time>2017-08-02T10:57:05.000Z</time>
      </trkpt>
      <trkpt lat="43.402312863618135" lon="-6.0474195051938295">
        <ele>45.8</ele>
        <time>2017-08-02T10:57:06.000Z</time>
      </trkpt>
      <trkpt lat="43.40237421914935" lon="-6.047415817156434">
        <ele>45.8</ele>
        <time>2017-08-02T10:57:11.000Z</time>
      </trkpt>
      <trkpt lat="43.402422750368714" lon="-6.047412715852261">
        <ele>45.8</ele>
        <time>2017-08-02T10:57:15.000Z</time>
      </trkpt>
      <trkpt lat="43.40243808925152" lon="-6.0474175773561">
        <ele>45.8</ele>
        <time>2017-08-02T10:57:17.000Z</time>
      </trkpt>
      <trkpt lat="43.40250916779041" lon="-6.047445992007852">
        <ele>45.2</ele>
        <time>2017-08-02T10:57:22.000Z</time>
      </trkpt>
      <trkpt lat="43.402599189430475" lon="-6.047515477985144">
        <ele>44</ele>
        <time>2017-08-02T10:57:29.000Z</time>
      </trkpt>
      <trkpt lat="43.40265006758273" lon="-6.047595273703337">
        <ele>43.6</ele>
        <time>2017-08-02T10:57:34.000Z</time>
      </trkpt>
      <trkpt lat="43.40266180224717" lon="-6.047637099400163">
        <ele>43.4</ele>
        <time>2017-08-02T10:57:37.000Z</time>
      </trkpt>
      <trkpt lat="43.40266574174166" lon="-6.0476697050035">
        <ele>43.2</ele>
        <time>2017-08-02T10:57:39.000Z</time>
      </trkpt>
      <trkpt lat="43.4026706032455" lon="-6.047684205695987">
        <ele>43.2</ele>
        <time>2017-08-02T10:57:40.000Z</time>
      </trkpt>
      <trkpt lat="43.40267328545451" lon="-6.047762576490641">
        <ele>42.8</ele>
        <time>2017-08-02T10:57:45.000Z</time>
      </trkpt>
      <trkpt lat="43.40267211198807" lon="-6.0478294640779495">
        <ele>42.6</ele>
        <time>2017-08-02T10:57:49.000Z</time>
      </trkpt>
      <trkpt lat="43.40266968123615" lon="-6.047863243147731">
        <ele>42.6</ele>
        <time>2017-08-02T10:57:51.000Z</time>
      </trkpt>
      <trkpt lat="43.40264160186052" lon="-6.048045549541712">
        <ele>42.4</ele>
        <time>2017-08-02T10:58:01.000Z</time>
      </trkpt>
      <trkpt lat="43.402608996257186" lon="-6.048177313059568">
        <ele>42.6</ele>
        <time>2017-08-02T10:58:09.000Z</time>
      </trkpt>
      <trkpt lat="43.40260094963014" lon="-6.048190556466579">
        <ele>42.6</ele>
        <time>2017-08-02T10:58:10.000Z</time>
      </trkpt>
      <trkpt lat="43.40257605537772" lon="-6.0482565220445395">
        <ele>42.4</ele>
        <time>2017-08-02T10:58:14.000Z</time>
      </trkpt>
      <trkpt lat="43.40257211588323" lon="-6.04827462695539">
        <ele>42.4</ele>
        <time>2017-08-02T10:58:15.000Z</time>
      </trkpt>
      <trkpt lat="43.40256683528423" lon="-6.048305723816156">
        <ele>42.4</ele>
        <time>2017-08-02T10:58:17.000Z</time>
      </trkpt>
      <trkpt lat="43.402546886354685" lon="-6.048365067690611">
        <ele>42.2</ele>
        <time>2017-08-02T10:58:21.000Z</time>
      </trkpt>
      <trkpt lat="43.40250547975302" lon="-6.048500435426831">
        <ele>42</ele>
        <time>2017-08-02T10:58:30.000Z</time>
      </trkpt>
      <trkpt lat="43.40246901847422" lon="-6.048580817878246">
        <ele>42</ele>
        <time>2017-08-02T10:58:36.000Z</time>
      </trkpt>
      <trkpt lat="43.40243716724217" lon="-6.0486367251724005">
        <ele>42.2</ele>
        <time>2017-08-02T10:58:41.000Z</time>
      </trkpt>
      <trkpt lat="43.402385702356696" lon="-6.048753568902612">
        <ele>42.4</ele>
        <time>2017-08-02T10:58:49.000Z</time>
      </trkpt>
      <trkpt lat="43.40234094299376" lon="-6.048851637169719">
        <ele>42.2</ele>
        <time>2017-08-02T10:58:56.000Z</time>
      </trkpt>
      <trkpt lat="43.40226927772164" lon="-6.049031428992748">
        <ele>42</ele>
        <time>2017-08-02T10:59:07.000Z</time>
      </trkpt>
      <trkpt lat="43.40221865102649" lon="-6.049162438139319">
        <ele>42</ele>
        <time>2017-08-02T10:59:15.000Z</time>
      </trkpt>
      <trkpt lat="43.40216559357941" lon="-6.049330327659845">
        <ele>42</ele>
        <time>2017-08-02T10:59:25.000Z</time>
      </trkpt>
      <trkpt lat="43.40210507623851" lon="-6.049476340413094">
        <ele>42.2</ele>
        <time>2017-08-02T10:59:34.000Z</time>
      </trkpt>
      <trkpt lat="43.40203952975571" lon="-6.049597794190049">
        <ele>42.4</ele>
        <time>2017-08-02T10:59:42.000Z</time>
      </trkpt>
      <trkpt lat="43.402015306055546" lon="-6.049643810838461">
        <ele>42.6</ele>
        <time>2017-08-02T10:59:45.000Z</time>
      </trkpt>
      <trkpt lat="43.40195579454303" lon="-6.049740118905902">
        <ele>42.6</ele>
        <time>2017-08-02T10:59:52.000Z</time>
      </trkpt>
      <trkpt lat="43.401881363242865" lon="-6.049873558804393">
        <ele>43</ele>
        <time>2017-08-02T11:00:01.000Z</time>
      </trkpt>
      <trkpt lat="43.40181238017976" lon="-6.050011441111565">
        <ele>43.2</ele>
        <time>2017-08-02T11:00:10.000Z</time>
      </trkpt>
      <trkpt lat="43.401738703250885" lon="-6.050188550725579">
        <ele>43.4</ele>
        <time>2017-08-02T11:00:21.000Z</time>
      </trkpt>
      <trkpt lat="43.40169285424054" lon="-6.050315871834755">
        <ele>43.8</ele>
        <time>2017-08-02T11:00:29.000Z</time>
      </trkpt>
      <trkpt lat="43.401621859520674" lon="-6.050510834902525">
        <ele>44</ele>
        <time>2017-08-02T11:00:41.000Z</time>
      </trkpt>
      <trkpt lat="43.401574082672596" lon="-6.050685765221715">
        <ele>43.8</ele>
        <time>2017-08-02T11:00:51.000Z</time>
      </trkpt>
      <trkpt lat="43.401536950841546" lon="-6.050844518467784">
        <ele>43.6</ele>
        <time>2017-08-02T11:01:00.000Z</time>
      </trkpt>
      <trkpt lat="43.40149621479213" lon="-6.05103780515492">
        <ele>43.2</ele>
        <time>2017-08-02T11:01:11.000Z</time>
      </trkpt>
      <trkpt lat="43.40147358365357" lon="-6.051154732704163">
        <ele>42.8</ele>
        <time>2017-08-02T11:01:18.000Z</time>
      </trkpt>
      <trkpt lat="43.40143159031868" lon="-6.051303679123521">
        <ele>42.2</ele>
        <time>2017-08-02T11:01:27.000Z</time>
      </trkpt>
      <trkpt lat="43.40137685649097" lon="-6.051469556987286">
        <ele>42</ele>
        <time>2017-08-02T11:01:37.000Z</time>
      </trkpt>
      <trkpt lat="43.40131692588329" lon="-6.051656138151884">
        <ele>42.2</ele>
        <time>2017-08-02T11:01:48.000Z</time>
      </trkpt>
      <trkpt lat="43.40127292089164" lon="-6.051826374605298">
        <ele>42.4</ele>
        <time>2017-08-02T11:01:58.000Z</time>
      </trkpt>
      <trkpt lat="43.40123411267996" lon="-6.052039861679077">
        <ele>42.4</ele>
        <time>2017-08-02T11:02:10.000Z</time>
      </trkpt>
      <trkpt lat="43.4012165106833" lon="-6.052199201658368">
        <ele>42.6</ele>
        <time>2017-08-02T11:02:19.000Z</time>
      </trkpt>
      <trkpt lat="43.40119605883956" lon="-6.052400367334485">
        <ele>42.6</ele>
        <time>2017-08-02T11:02:30.000Z</time>
      </trkpt>
      <trkpt lat="43.40116915293038" lon="-6.052559539675713">
        <ele>42</ele>
        <time>2017-08-02T11:02:39.000Z</time>
      </trkpt>
      <trkpt lat="43.4011351224035" lon="-6.0527291893959045">
        <ele>42</ele>
        <time>2017-08-02T11:02:49.000Z</time>
      </trkpt>
      <trkpt lat="43.40112539939582" lon="-6.052859863266349">
        <ele>42</ele>
        <time>2017-08-02T11:02:57.000Z</time>
      </trkpt>
      <trkpt lat="43.40112238191068" lon="-6.052865814417601">
        <ele>42</ele>
        <time>2017-08-02T11:03:04.000Z</time>
      </trkpt>
      <trkpt lat="43.40110846795142" lon="-6.052913507446647">
        <ele>42</ele>
        <time>2017-08-02T11:03:09.000Z</time>
      </trkpt>
      <trkpt lat="43.40108566917479" lon="-6.053087515756488">
        <ele>42</ele>
        <time>2017-08-02T11:03:19.000Z</time>
      </trkpt>
      <trkpt lat="43.40105440467596" lon="-6.053269654512405">
        <ele>42</ele>
        <time>2017-08-02T11:03:29.000Z</time>
      </trkpt>
      <trkpt lat="43.40100981295109" lon="-6.0534633602947">
        <ele>42</ele>
        <time>2017-08-02T11:03:40.000Z</time>
      </trkpt>
      <trkpt lat="43.400977458804846" lon="-6.0536212753504515">
        <ele>41.6</ele>
        <time>2017-08-02T11:03:49.000Z</time>
      </trkpt>
      <trkpt lat="43.4009228926152" lon="-6.05382788926363">
        <ele>40.8</ele>
        <time>2017-08-02T11:04:01.000Z</time>
      </trkpt>
      <trkpt lat="43.400877295061946" lon="-6.053978428244591">
        <ele>40.2</ele>
        <time>2017-08-02T11:04:10.000Z</time>
      </trkpt>
      <trkpt lat="43.400820549577475" lon="-6.05416115373373">
        <ele>39.6</ele>
        <time>2017-08-02T11:04:21.000Z</time>
      </trkpt>
      <trkpt lat="43.400775119662285" lon="-6.054331809282303">
        <ele>39</ele>
        <time>2017-08-02T11:04:31.000Z</time>
      </trkpt>
      <trkpt lat="43.40074301697314" lon="-6.054489808157086">
        <ele>38.2</ele>
        <time>2017-08-02T11:04:40.000Z</time>
      </trkpt>
      <trkpt lat="43.4007104113698" lon="-6.054664570838213">
        <ele>37.4</ele>
        <time>2017-08-02T11:04:50.000Z</time>
      </trkpt>
      <trkpt lat="43.400674453005195" lon="-6.054858528077602">
        <ele>37</ele>
        <time>2017-08-02T11:05:01.000Z</time>
      </trkpt>
      <trkpt lat="43.40064008720219" lon="-6.05504997074604">
        <ele>37.8</ele>
        <time>2017-08-02T11:05:12.000Z</time>
      </trkpt>
      <trkpt lat="43.400602703914046" lon="-6.055245101451874">
        <ele>38.4</ele>
        <time>2017-08-02T11:05:23.000Z</time>
      </trkpt>
      <trkpt lat="43.40057311579585" lon="-6.055402932688594">
        <ele>38.8</ele>
        <time>2017-08-02T11:05:32.000Z</time>
      </trkpt>
      <trkpt lat="43.40055098757148" lon="-6.05558305978775">
        <ele>39.4</ele>
        <time>2017-08-02T11:05:42.000Z</time>
      </trkpt>
      <trkpt lat="43.40054218657315" lon="-6.055741896852851">
        <ele>40</ele>
        <time>2017-08-02T11:05:51.000Z</time>
      </trkpt>
      <trkpt lat="43.40054268948734" lon="-6.055941134691238">
        <ele>40.8</ele>
        <time>2017-08-02T11:06:02.000Z</time>
      </trkpt>
      <trkpt lat="43.400516621768475" lon="-6.0561195854097605">
        <ele>41</ele>
        <time>2017-08-02T11:06:12.000Z</time>
      </trkpt>
      <trkpt lat="43.40045711025596" lon="-6.056249504908919">
        <ele>41.2</ele>
        <time>2017-08-02T11:06:21.000Z</time>
      </trkpt>
      <trkpt lat="43.400362227112055" lon="-6.0563702043145895">
        <ele>41.2</ele>
        <time>2017-08-02T11:06:31.000Z</time>
      </trkpt>
      <trkpt lat="43.400306487455964" lon="-6.056429632008076">
        <ele>41.2</ele>
        <time>2017-08-02T11:06:38.000Z</time>
      </trkpt>
      <trkpt lat="43.40026776306331" lon="-6.056459471583366">
        <ele>41.2</ele>
        <time>2017-08-02T11:06:46.000Z</time>
      </trkpt>
      <trkpt lat="43.40016164816916" lon="-6.05657204054296">
        <ele>40.6</ele>
        <time>2017-08-02T11:06:57.000Z</time>
      </trkpt>
      <trkpt lat="43.40007841587067" lon="-6.056681675836444">
        <ele>39.8</ele>
        <time>2017-08-02T11:07:06.000Z</time>
      </trkpt>
      <trkpt lat="43.40000038035214" lon="-6.056801620870829">
        <ele>39.2</ele>
        <time>2017-08-02T11:07:15.000Z</time>
      </trkpt>
      <trkpt lat="43.399925949051976" lon="-6.05693019926548">
        <ele>38.4</ele>
        <time>2017-08-02T11:07:24.000Z</time>
      </trkpt>
      <trkpt lat="43.399842800572515" lon="-6.057091215625405">
        <ele>37.6</ele>
        <time>2017-08-02T11:07:35.000Z</time>
      </trkpt>
      <trkpt lat="43.399765184149146" lon="-6.057240916416049">
        <ele>37.8</ele>
        <time>2017-08-02T11:07:45.000Z</time>
      </trkpt>
      <trkpt lat="43.3996831253171" lon="-6.057369075715542">
        <ele>38</ele>
        <time>2017-08-02T11:07:54.000Z</time>
      </trkpt>
      <trkpt lat="43.399579022079706" lon="-6.057513244450092">
        <ele>38</ele>
        <time>2017-08-02T11:08:05.000Z</time>
      </trkpt>
      <trkpt lat="43.39949671179056" lon="-6.0576327703893185">
        <ele>38</ele>
        <time>2017-08-02T11:08:14.000Z</time>
      </trkpt>
      <trkpt lat="43.39941934682429" lon="-6.057739472016692">
        <ele>38</ele>
        <time>2017-08-02T11:08:22.000Z</time>
      </trkpt>
      <trkpt lat="43.39932999573648" lon="-6.0578415635973215">
        <ele>38.6</ele>
        <time>2017-08-02T11:08:31.000Z</time>
      </trkpt>
      <trkpt lat="43.399238884449005" lon="-6.057942984625697">
        <ele>39.4</ele>
        <time>2017-08-02T11:08:40.000Z</time>
      </trkpt>
      <trkpt lat="43.399153389036655" lon="-6.058042645454407">
        <ele>40.2</ele>
        <time>2017-08-02T11:08:48.000Z</time>
      </trkpt>
      <trkpt lat="43.399048866704106" lon="-6.058218665421009">
        <ele>41.4</ele>
        <time>2017-08-02T11:09:00.000Z</time>
      </trkpt>
      <trkpt lat="43.39898399077356" lon="-6.058382531628013">
        <ele>42.2</ele>
        <time>2017-08-02T11:09:10.000Z</time>
      </trkpt>
      <trkpt lat="43.398945517838" lon="-6.0585572104901075">
        <ele>42.4</ele>
        <time>2017-08-02T11:09:20.000Z</time>
      </trkpt>
      <trkpt lat="43.398924143984914" lon="-6.058741360902786">
        <ele>42.2</ele>
        <time>2017-08-02T11:09:30.000Z</time>
      </trkpt>
      <trkpt lat="43.398910481482744" lon="-6.0589229967445135">
        <ele>41.6</ele>
        <time>2017-08-02T11:09:40.000Z</time>
      </trkpt>
      <trkpt lat="43.39888240210712" lon="-6.059142434969544">
        <ele>41.6</ele>
        <time>2017-08-02T11:09:52.000Z</time>
      </trkpt>
      <trkpt lat="43.39885398745537" lon="-6.059366315603256">
        <ele>42</ele>
        <time>2017-08-02T11:10:04.000Z</time>
      </trkpt>
      <trkpt lat="43.398831356316805" lon="-6.059531606733799">
        <ele>41.6</ele>
        <time>2017-08-02T11:10:13.000Z</time>
      </trkpt>
      <trkpt lat="43.3987919613719" lon="-6.059769988059998">
        <ele>41.8</ele>
        <time>2017-08-02T11:10:26.000Z</time>
      </trkpt>
      <trkpt lat="43.3987523149699" lon="-6.059944918379188">
        <ele>41.8</ele>
        <time>2017-08-02T11:10:35.000Z</time>
      </trkpt>
      <trkpt lat="43.39870462194085" lon="-6.060098893940449">
        <ele>42</ele>
        <time>2017-08-02T11:10:44.000Z</time>
      </trkpt>
      <trkpt lat="43.39862532913685" lon="-6.060291258618236">
        <ele>41.6</ele>
        <time>2017-08-02T11:10:56.000Z</time>
      </trkpt>
      <trkpt lat="43.398563135415316" lon="-6.060426542535424">
        <ele>41</ele>
        <time>2017-08-02T11:11:05.000Z</time>
      </trkpt>
      <trkpt lat="43.39849255979061" lon="-6.060542715713382">
        <ele>41</ele>
        <time>2017-08-02T11:11:13.000Z</time>
      </trkpt>
      <trkpt lat="43.39846548624337" lon="-6.060583870857954">
        <ele>41</ele>
        <time>2017-08-02T11:11:16.000Z</time>
      </trkpt>
      <trkpt lat="43.39837864972651" lon="-6.0607085935771465">
        <ele>41</ele>
        <time>2017-08-02T11:11:25.000Z</time>
      </trkpt>
      <trkpt lat="43.39829516597092" lon="-6.060807583853602">
        <ele>41</ele>
        <time>2017-08-02T11:11:33.000Z</time>
      </trkpt>
      <trkpt lat="43.39820707216859" lon="-6.060880338773131">
        <ele>41</ele>
        <time>2017-08-02T11:11:40.000Z</time>
      </trkpt>
      <trkpt lat="43.3980855345726" lon="-6.060967678204179">
        <ele>41</ele>
        <time>2017-08-02T11:11:50.000Z</time>
      </trkpt>
      <trkpt lat="43.39807279407978" lon="-6.0609757248312235">
        <ele>41</ele>
        <time>2017-08-02T11:11:51.000Z</time>
      </trkpt>
      <trkpt lat="43.39802443049848" lon="-6.06100439094007">
        <ele>41</ele>
        <time>2017-08-02T11:11:55.000Z</time>
      </trkpt>
      <trkpt lat="43.39789786376059" lon="-6.061097010970116">
        <ele>41.4</ele>
        <time>2017-08-02T11:12:05.000Z</time>
      </trkpt>
      <trkpt lat="43.39777330867946" lon="-6.061186613515019">
        <ele>41.8</ele>
        <time>2017-08-02T11:12:15.000Z</time>
      </trkpt>
      <trkpt lat="43.39765537530184" lon="-6.061261296272278">
        <ele>42.4</ele>
        <time>2017-08-02T11:12:24.000Z</time>
      </trkpt>
      <trkpt lat="43.39752344414592" lon="-6.061344025656581">
        <ele>42.8</ele>
        <time>2017-08-02T11:12:34.000Z</time>
      </trkpt>
      <trkpt lat="43.39741255156696" lon="-6.061425162479281">
        <ele>43</ele>
        <time>2017-08-02T11:12:43.000Z</time>
      </trkpt>
      <trkpt lat="43.39738589711487" lon="-6.061444440856576">
        <ele>43</ele>
        <time>2017-08-02T11:12:45.000Z</time>
      </trkpt>
      <trkpt lat="43.39729570783675" lon="-6.061513759195805">
        <ele>43</ele>
        <time>2017-08-02T11:12:52.000Z</time>
      </trkpt>
      <trkpt lat="43.39716335758567" lon="-6.061600847169757">
        <ele>43</ele>
        <time>2017-08-02T11:13:02.000Z</time>
      </trkpt>
      <trkpt lat="43.397026313468814" lon="-6.061660777777433">
        <ele>42.8</ele>
        <time>2017-08-02T11:13:12.000Z</time>
      </trkpt>
      <trkpt lat="43.39688767679036" lon="-6.061696736142039">
        <ele>42.6</ele>
        <time>2017-08-02T11:13:22.000Z</time>
      </trkpt>
      <trkpt lat="43.39677041396499" lon="-6.061695897951722">
        <ele>42.6</ele>
        <time>2017-08-02T11:13:30.000Z</time>
      </trkpt>
      <trkpt lat="43.39662607759237" lon="-6.061704950407147">
        <ele>42.6</ele>
        <time>2017-08-02T11:13:40.000Z</time>
      </trkpt>
      <trkpt lat="43.39648224413395" lon="-6.0617435071617365">
        <ele>43.2</ele>
        <time>2017-08-02T11:13:50.000Z</time>
      </trkpt>
      <trkpt lat="43.39635274372995" lon="-6.061804359778762">
        <ele>44</ele>
        <time>2017-08-02T11:13:59.000Z</time>
      </trkpt>
      <trkpt lat="43.39624428190291" lon="-6.061875857412815">
        <ele>44.4</ele>
        <time>2017-08-02T11:14:07.000Z</time>
      </trkpt>
      <trkpt lat="43.39616465382278" lon="-6.062003094702959">
        <ele>44.8</ele>
        <time>2017-08-02T11:14:16.000Z</time>
      </trkpt>
      <trkpt lat="43.39615669101477" lon="-6.0620709881186485">
        <ele>44.8</ele>
        <time>2017-08-02T11:14:20.000Z</time>
      </trkpt>
      <trkpt lat="43.396158032119274" lon="-6.062109125778079">
        <ele>44.8</ele>
        <time>2017-08-02T11:14:22.000Z</time>
      </trkpt>
      <trkpt lat="43.39616565965116" lon="-6.062280870974064">
        <ele>44.6</ele>
        <time>2017-08-02T11:14:31.000Z</time>
      </trkpt>
      <trkpt lat="43.39616800658405" lon="-6.062445743009448">
        <ele>44.2</ele>
        <time>2017-08-02T11:14:40.000Z</time>
      </trkpt>
      <trkpt lat="43.396172700449824" lon="-6.0625537019222975">
        <ele>43.8</ele>
        <time>2017-08-02T11:14:47.000Z</time>
      </trkpt>
      <trkpt lat="43.39617722667754" lon="-6.062691332772374">
        <ele>43.2</ele>
        <time>2017-08-02T11:14:54.000Z</time>
      </trkpt>
      <trkpt lat="43.39615937322378" lon="-6.062896102666855">
        <ele>42.6</ele>
        <time>2017-08-02T11:15:05.000Z</time>
      </trkpt>
      <trkpt lat="43.396062729880214" lon="-6.062960727140307">
        <ele>43</ele>
        <time>2017-08-02T11:15:13.000Z</time>
      </trkpt>
      <trkpt lat="43.39596373960376" lon="-6.0629701148718596">
        <ele>43.8</ele>
        <time>2017-08-02T11:15:21.000Z</time>
      </trkpt>
      <trkpt lat="43.395819906145334" lon="-6.062967600300908">
        <ele>44.8</ele>
        <time>2017-08-02T11:15:31.000Z</time>
      </trkpt>
      <trkpt lat="43.39570574462414" lon="-6.062964666634798">
        <ele>44.8</ele>
        <time>2017-08-02T11:15:39.000Z</time>
      </trkpt>
      <trkpt lat="43.39557875879109" lon="-6.062961900606751">
        <ele>45</ele>
        <time>2017-08-02T11:15:48.000Z</time>
      </trkpt>
      <trkpt lat="43.39546141214669" lon="-6.0629545245319605">
        <ele>45</ele>
        <time>2017-08-02T11:15:56.000Z</time>
      </trkpt>
      <trkpt lat="43.395361583679914" lon="-6.062952848151326">
        <ele>45</ele>
        <time>2017-08-02T11:16:03.000Z</time>
      </trkpt>
      <trkpt lat="43.39524415321648" lon="-6.062943711876869">
        <ele>45</ele>
        <time>2017-08-02T11:16:11.000Z</time>
      </trkpt>
      <trkpt lat="43.39509420096874" lon="-6.062946142628789">
        <ele>45</ele>
        <time>2017-08-02T11:16:21.000Z</time>
      </trkpt>
      <trkpt lat="43.394940393045545" lon="-6.062949160113931">
        <ele>45.2</ele>
        <time>2017-08-02T11:16:32.000Z</time>
      </trkpt>
      <trkpt lat="43.39487258344889" lon="-6.0629860404878855">
        <ele>45.4</ele>
        <time>2017-08-02T11:16:39.000Z</time>
      </trkpt>
      <trkpt lat="43.39484727010131" lon="-6.06306005269289">
        <ele>45.4</ele>
        <time>2017-08-02T11:16:47.000Z</time>
      </trkpt>
      <trkpt lat="43.3948237169534" lon="-6.06324914842844">
        <ele>45.6</ele>
        <time>2017-08-02T11:16:57.000Z</time>
      </trkpt>
      <trkpt lat="43.39481365866959" lon="-6.063438327983022">
        <ele>45.6</ele>
        <time>2017-08-02T11:17:07.000Z</time>
      </trkpt>
      <trkpt lat="43.39485355652869" lon="-6.063605211675167">
        <ele>45.4</ele>
        <time>2017-08-02T11:17:16.000Z</time>
      </trkpt>
      <trkpt lat="43.39494131505489" lon="-6.063780812546611">
        <ele>45</ele>
        <time>2017-08-02T11:17:27.000Z</time>
      </trkpt>
      <trkpt lat="43.394995629787445" lon="-6.063869241625071">
        <ele>45</ele>
        <time>2017-08-02T11:17:33.000Z</time>
      </trkpt>
      <trkpt lat="43.39506218209863" lon="-6.063993461430073">
        <ele>44.6</ele>
        <time>2017-08-02T11:17:41.000Z</time>
      </trkpt>
      <trkpt lat="43.39507995173335" lon="-6.064130589365959">
        <ele>44.6</ele>
        <time>2017-08-02T11:17:48.000Z</time>
      </trkpt>
      <trkpt lat="43.39504684321582" lon="-6.064319014549255">
        <ele>44.8</ele>
        <time>2017-08-02T11:17:58.000Z</time>
      </trkpt>
      <trkpt lat="43.394974088296294" lon="-6.064438289031386">
        <ele>45</ele>
        <time>2017-08-02T11:18:06.000Z</time>
      </trkpt>
      <trkpt lat="43.39487501420081" lon="-6.064427392557263">
        <ele>45</ele>
        <time>2017-08-02T11:18:14.000Z</time>
      </trkpt>
      <trkpt lat="43.39478901587427" lon="-6.064327731728554">
        <ele>45</ele>
        <time>2017-08-02T11:18:22.000Z</time>
      </trkpt>
      <trkpt lat="43.394756158813834" lon="-6.064303424209356">
        <ele>45</ele>
        <time>2017-08-02T11:18:25.000Z</time>
      </trkpt>
      <trkpt lat="43.394730761647224" lon="-6.064256401732564">
        <ele>45</ele>
        <time>2017-08-02T11:18:28.000Z</time>
      </trkpt>
      <trkpt lat="43.39471491985023" lon="-6.064223293215036">
        <ele>45</ele>
        <time>2017-08-02T11:18:30.000Z</time>
      </trkpt>
      <trkpt lat="43.39463864453137" lon="-6.0641110595315695">
        <ele>45</ele>
        <time>2017-08-02T11:18:38.000Z</time>
      </trkpt>
      <trkpt lat="43.39461165480316" lon="-6.0640624444931746">
        <ele>45</ele>
        <time>2017-08-02T11:18:44.000Z</time>
      </trkpt>
      <trkpt lat="43.39458357542753" lon="-6.06399480253458">
        <ele>45.2</ele>
        <time>2017-08-02T11:18:49.000Z</time>
      </trkpt>
      <trkpt lat="43.39447611942887" lon="-6.063824398443103">
        <ele>45.2</ele>
        <time>2017-08-02T11:19:00.000Z</time>
      </trkpt>
      <trkpt lat="43.39445047080517" lon="-6.063814340159297">
        <ele>45.2</ele>
        <time>2017-08-02T11:19:02.000Z</time>
      </trkpt>
      <trkpt lat="43.39439976029098" lon="-6.063827080652118">
        <ele>45</ele>
        <time>2017-08-02T11:19:05.000Z</time>
      </trkpt>
      <trkpt lat="43.3943104930222" lon="-6.06388290412724">
        <ele>45</ele>
        <time>2017-08-02T11:19:12.000Z</time>
      </trkpt>
      <trkpt lat="43.394300853833556" lon="-6.063891369849443">
        <ele>45</ele>
        <time>2017-08-02T11:19:13.000Z</time>
      </trkpt>
      <trkpt lat="43.39429138228297" lon="-6.06389413587749">
        <ele>45</ele>
        <time>2017-08-02T11:19:14.000Z</time>
      </trkpt>
      <trkpt lat="43.394229942932725" lon="-6.063931183889508">
        <ele>45</ele>
        <time>2017-08-02T11:19:19.000Z</time>
      </trkpt>
      <trkpt lat="43.39418610557914" lon="-6.063987761735916">
        <ele>45</ele>
        <time>2017-08-02T11:19:24.000Z</time>
      </trkpt>
      <trkpt lat="43.39416112750769" lon="-6.0640003345906734">
        <ele>45</ele>
        <time>2017-08-02T11:19:26.000Z</time>
      </trkpt>
      <trkpt lat="43.394154254347086" lon="-6.064007291570306">
        <ele>45</ele>
        <time>2017-08-02T11:19:27.000Z</time>
      </trkpt>
      <trkpt lat="43.39414226822555" lon="-6.064019948244095">
        <ele>45</ele>
        <time>2017-08-02T11:19:29.000Z</time>
      </trkpt>
      <trkpt lat="43.39408644475043" lon="-6.064084069803357">
        <ele>45.4</ele>
        <time>2017-08-02T11:19:34.000Z</time>
      </trkpt>
      <trkpt lat="43.39402089826763" lon="-6.064163111150265">
        <ele>45.8</ele>
        <time>2017-08-02T11:19:40.000Z</time>
      </trkpt>
      <trkpt lat="43.39397622272372" lon="-6.064210468903184">
        <ele>46.2</ele>
        <time>2017-08-02T11:19:45.000Z</time>
      </trkpt>
      <trkpt lat="43.39395459741354" lon="-6.064236955717206">
        <ele>46.4</ele>
        <time>2017-08-02T11:19:48.000Z</time>
      </trkpt>
      <trkpt lat="43.393942695111036" lon="-6.064252378419042">
        <ele>46.4</ele>
        <time>2017-08-02T11:19:51.000Z</time>
      </trkpt>
      <trkpt lat="43.393916292116046" lon="-6.064274255186319">
        <ele>46.6</ele>
        <time>2017-08-02T11:19:55.000Z</time>
      </trkpt>
      <trkpt lat="43.393854685127735" lon="-6.064308201894164">
        <ele>47</ele>
        <time>2017-08-02T11:20:00.000Z</time>
      </trkpt>
      <trkpt lat="43.39383088052273" lon="-6.064328737556934">
        <ele>47.4</ele>
        <time>2017-08-02T11:20:02.000Z</time>
      </trkpt>
      <trkpt lat="43.3937805891037" lon="-6.0643834713846445">
        <ele>47.8</ele>
        <time>2017-08-02T11:20:05.000Z</time>
      </trkpt>
      <trkpt lat="43.393758377060294" lon="-6.064399732276797">
        <ele>48</ele>
        <time>2017-08-02T11:20:06.000Z</time>
      </trkpt>
      <trkpt lat="43.39374010451138" lon="-6.064409036189318">
        <ele>48.2</ele>
        <time>2017-08-02T11:20:07.000Z</time>
      </trkpt>
      <trkpt lat="43.39365754276514" lon="-6.064466955140233">
        <ele>49.2</ele>
        <time>2017-08-02T11:20:11.000Z</time>
      </trkpt>
      <trkpt lat="43.39364144951105" lon="-6.064475337043405">
        <ele>49.4</ele>
        <time>2017-08-02T11:20:12.000Z</time>
      </trkpt>
      <trkpt lat="43.393601048737764" lon="-6.064511714503169">
        <ele>49.8</ele>
        <time>2017-08-02T11:20:15.000Z</time>
      </trkpt>
      <trkpt lat="43.39357011951506" lon="-6.064556557685137">
        <ele>50.2</ele>
        <time>2017-08-02T11:20:18.000Z</time>
      </trkpt>
      <trkpt lat="43.39354430325329" lon="-6.064580865204334">
        <ele>50.4</ele>
        <time>2017-08-02T11:20:20.000Z</time>
      </trkpt>
      <trkpt lat="43.39352007955313" lon="-6.064615063369274">
        <ele>50.6</ele>
        <time>2017-08-02T11:20:22.000Z</time>
      </trkpt>
      <trkpt lat="43.393496526405215" lon="-6.06465881690383">
        <ele>51</ele>
        <time>2017-08-02T11:20:24.000Z</time>
      </trkpt>
      <trkpt lat="43.39345855638385" lon="-6.064714137464762">
        <ele>51.4</ele>
        <time>2017-08-02T11:20:27.000Z</time>
      </trkpt>
      <trkpt lat="43.39344455860555" lon="-6.064746743068099">
        <ele>51.4</ele>
        <time>2017-08-02T11:20:29.000Z</time>
      </trkpt>
      <trkpt lat="43.39342494495213" lon="-6.064765769988298">
        <ele>51.6</ele>
        <time>2017-08-02T11:20:30.000Z</time>
      </trkpt>
      <trkpt lat="43.39340164326131" lon="-6.064793011173606">
        <ele>52</ele>
        <time>2017-08-02T11:20:32.000Z</time>
      </trkpt>
      <trkpt lat="43.393363170325756" lon="-6.064836932346225">
        <ele>52.4</ele>
        <time>2017-08-02T11:20:35.000Z</time>
      </trkpt>
      <trkpt lat="43.393344059586525" lon="-6.064884290099144">
        <ele>52.6</ele>
        <time>2017-08-02T11:20:38.000Z</time>
      </trkpt>
      <trkpt lat="43.393352860584855" lon="-6.065008090808988">
        <ele>52</ele>
        <time>2017-08-02T11:20:43.000Z</time>
      </trkpt>
      <trkpt lat="43.39335830882192" lon="-6.0651220846921206">
        <ele>51.6</ele>
        <time>2017-08-02T11:20:48.000Z</time>
      </trkpt>
      <trkpt lat="43.39336425997317" lon="-6.065233228728175">
        <ele>50.8</ele>
        <time>2017-08-02T11:20:53.000Z</time>
      </trkpt>
      <trkpt lat="43.393365517258644" lon="-6.065259464085102">
        <ele>50.6</ele>
        <time>2017-08-02T11:20:54.000Z</time>
      </trkpt>
      <trkpt lat="43.39336761273444" lon="-6.065359879285097">
        <ele>49.8</ele>
        <time>2017-08-02T11:20:59.000Z</time>
      </trkpt>
      <trkpt lat="43.39335411787033" lon="-6.065395837649703">
        <ele>49.8</ele>
        <time>2017-08-02T11:21:01.000Z</time>
      </trkpt>
      <trkpt lat="43.39330558665097" lon="-6.065436992794275">
        <ele>50</ele>
        <time>2017-08-02T11:21:04.000Z</time>
      </trkpt>
      <trkpt lat="43.39328370988369" lon="-6.065497929230332">
        <ele>49.8</ele>
        <time>2017-08-02T11:21:07.000Z</time>
      </trkpt>
      <trkpt lat="43.39328421279788" lon="-6.065516704693437">
        <ele>49.8</ele>
        <time>2017-08-02T11:21:08.000Z</time>
      </trkpt>
      <trkpt lat="43.3932779263705" lon="-6.065769670531154">
        <ele>49.2</ele>
        <time>2017-08-02T11:21:20.000Z</time>
      </trkpt>
      <trkpt lat="43.39327197521925" lon="-6.065915767103434">
        <ele>49.8</ele>
        <time>2017-08-02T11:21:27.000Z</time>
      </trkpt>
      <trkpt lat="43.39327088557184" lon="-6.066112909466028">
        <ele>50.6</ele>
        <time>2017-08-02T11:21:37.000Z</time>
      </trkpt>
      <trkpt lat="43.393276082351804" lon="-6.066210977733135">
        <ele>50.8</ele>
        <time>2017-08-02T11:21:43.000Z</time>
      </trkpt>
      <trkpt lat="43.39329502545297" lon="-6.066331760957837">
        <ele>51.4</ele>
        <time>2017-08-02T11:21:50.000Z</time>
      </trkpt>
      <trkpt lat="43.39329217560589" lon="-6.0663509555161">
        <ele>51.6</ele>
        <time>2017-08-02T11:21:51.000Z</time>
      </trkpt>
      <trkpt lat="43.39328086003661" lon="-6.066421112045646">
        <ele>52</ele>
        <time>2017-08-02T11:21:55.000Z</time>
      </trkpt>
      <trkpt lat="43.39327733963728" lon="-6.0664585791528225">
        <ele>52.4</ele>
        <time>2017-08-02T11:21:57.000Z</time>
      </trkpt>
      <trkpt lat="43.39325688779354" lon="-6.066515324637294">
        <ele>52.8</ele>
        <time>2017-08-02T11:22:00.000Z</time>
      </trkpt>
      <trkpt lat="43.39321690611541" lon="-6.066616997122765">
        <ele>53.8</ele>
        <time>2017-08-02T11:22:06.000Z</time>
      </trkpt>
      <trkpt lat="43.39319226332009" lon="-6.066686566919088">
        <ele>54.4</ele>
        <time>2017-08-02T11:22:10.000Z</time>
      </trkpt>
      <trkpt lat="43.39317147620022" lon="-6.066718501970172">
        <ele>54.8</ele>
        <time>2017-08-02T11:22:12.000Z</time>
      </trkpt>
      <trkpt lat="43.39309754781425" lon="-6.066843392327428">
        <ele>55.8</ele>
        <time>2017-08-02T11:22:20.000Z</time>
      </trkpt>
      <trkpt lat="43.39306879788637" lon="-6.066892007365823">
        <ele>56</ele>
        <time>2017-08-02T11:22:24.000Z</time>
      </trkpt>
      <trkpt lat="43.393060667440295" lon="-6.06689871288836">
        <ele>56.2</ele>
        <time>2017-08-02T11:22:25.000Z</time>
      </trkpt>
      <trkpt lat="43.392978608608246" lon="-6.066971216350794">
        <ele>56.4</ele>
        <time>2017-08-02T11:22:32.000Z</time>
      </trkpt>
      <trkpt lat="43.392906188964844" lon="-6.067018071189523">
        <ele>56.2</ele>
        <time>2017-08-02T11:22:37.000Z</time>
      </trkpt>
      <trkpt lat="43.39285120368004" lon="-6.067042462527752">
        <ele>56.2</ele>
        <time>2017-08-02T11:22:42.000Z</time>
      </trkpt>
      <trkpt lat="43.39280082844198" lon="-6.067074565216899">
        <ele>56</ele>
        <time>2017-08-02T11:22:46.000Z</time>
      </trkpt>
      <trkpt lat="43.3927911054343" lon="-6.067087389528751">
        <ele>56.2</ele>
        <time>2017-08-02T11:22:47.000Z</time>
      </trkpt>
      <trkpt lat="43.39271038770676" lon="-6.067145224660635">
        <ele>56.2</ele>
        <time>2017-08-02T11:22:53.000Z</time>
      </trkpt>
      <trkpt lat="43.3926510438323" lon="-6.067178081721067">
        <ele>56.2</ele>
        <time>2017-08-02T11:22:58.000Z</time>
      </trkpt>
      <trkpt lat="43.39259563945234" lon="-6.067190989851952">
        <ele>56.4</ele>
        <time>2017-08-02T11:23:01.000Z</time>
      </trkpt>
      <trkpt lat="43.39256823062897" lon="-6.067209430038929">
        <ele>56.4</ele>
        <time>2017-08-02T11:23:05.000Z</time>
      </trkpt>
      <trkpt lat="43.39254149235785" lon="-6.067219320684671">
        <ele>56.4</ele>
        <time>2017-08-02T11:23:07.000Z</time>
      </trkpt>
      <trkpt lat="43.39251274242997" lon="-6.067236252129078">
        <ele>56.4</ele>
        <time>2017-08-02T11:23:10.000Z</time>
      </trkpt>
      <trkpt lat="43.392465468496084" lon="-6.06726324185729">
        <ele>56.6</ele>
        <time>2017-08-02T11:23:15.000Z</time>
      </trkpt>
      <trkpt lat="43.3924541529268" lon="-6.067266259342432">
        <ele>56.6</ele>
        <time>2017-08-02T11:23:17.000Z</time>
      </trkpt>
      <trkpt lat="43.392404951155186" lon="-6.067284028977156">
        <ele>56.6</ele>
        <time>2017-08-02T11:23:20.000Z</time>
      </trkpt>
      <trkpt lat="43.3923143427819" lon="-6.06737413443625">
        <ele>57</ele>
        <time>2017-08-02T11:23:26.000Z</time>
      </trkpt>
      <trkpt lat="43.39219246990979" lon="-6.0674304608255625">
        <ele>57.2</ele>
        <time>2017-08-02T11:23:32.000Z</time>
      </trkpt>
      <trkpt lat="43.39211937971413" lon="-6.0674395971000195">
        <ele>57.2</ele>
        <time>2017-08-02T11:23:36.000Z</time>
      </trkpt>
      <trkpt lat="43.392093228176236" lon="-6.06746113859117">
        <ele>57.2</ele>
        <time>2017-08-02T11:23:39.000Z</time>
      </trkpt>
      <trkpt lat="43.39207923039794" lon="-6.067465580999851">
        <ele>57.2</ele>
        <time>2017-08-02T11:23:40.000Z</time>
      </trkpt>
      <trkpt lat="43.39204788208008" lon="-6.067500784993172">
        <ele>57.2</ele>
        <time>2017-08-02T11:23:43.000Z</time>
      </trkpt>
      <trkpt lat="43.392031621187925" lon="-6.067526852712035">
        <ele>57.4</ele>
        <time>2017-08-02T11:23:44.000Z</time>
      </trkpt>
      <trkpt lat="43.39201460592449" lon="-6.067538587376475">
        <ele>57.4</ele>
        <time>2017-08-02T11:23:45.000Z</time>
      </trkpt>
      <trkpt lat="43.39194679632783" lon="-6.06757203117013">
        <ele>57.4</ele>
        <time>2017-08-02T11:23:50.000Z</time>
      </trkpt>
      <trkpt lat="43.39185434393585" lon="-6.0675927344709635">
        <ele>57</ele>
        <time>2017-08-02T11:23:56.000Z</time>
      </trkpt>
      <trkpt lat="43.39182995259762" lon="-6.067578485235572">
        <ele>56.8</ele>
        <time>2017-08-02T11:23:59.000Z</time>
      </trkpt>
      <trkpt lat="43.39180799201131" lon="-6.06759306974709">
        <ele>57</ele>
        <time>2017-08-02T11:24:01.000Z</time>
      </trkpt>
      <trkpt lat="43.39177966117859" lon="-6.067613689228892">
        <ele>57</ele>
        <time>2017-08-02T11:24:04.000Z</time>
      </trkpt>
      <trkpt lat="43.39176591485739" lon="-6.067625842988491">
        <ele>57.2</ele>
        <time>2017-08-02T11:24:06.000Z</time>
      </trkpt>
      <trkpt lat="43.39176055043936" lon="-6.067633805796504">
        <ele>57.2</ele>
        <time>2017-08-02T11:24:07.000Z</time>
      </trkpt>
      <trkpt lat="43.39172258041799" lon="-6.067675799131393">
        <ele>57.6</ele>
        <time>2017-08-02T11:24:11.000Z</time>
      </trkpt>
      <trkpt lat="43.39171897619963" lon="-6.067685270681977">
        <ele>57.6</ele>
        <time>2017-08-02T11:24:12.000Z</time>
      </trkpt>
      <trkpt lat="43.39164840057492" lon="-6.067753750830889">
        <ele>58</ele>
        <time>2017-08-02T11:24:19.000Z</time>
      </trkpt>
      <trkpt lat="43.39155804365873" lon="-6.067801779136062">
        <ele>58.8</ele>
        <time>2017-08-02T11:24:26.000Z</time>
      </trkpt>
      <trkpt lat="43.39155393652618" lon="-6.067814938724041">
        <ele>59</ele>
        <time>2017-08-02T11:24:27.000Z</time>
      </trkpt>
      <trkpt lat="43.39153876528144" lon="-6.067840587347746">
        <ele>59.4</ele>
        <time>2017-08-02T11:24:29.000Z</time>
      </trkpt>
      <trkpt lat="43.39152074418962" lon="-6.0678565967828035">
        <ele>59.6</ele>
        <time>2017-08-02T11:24:30.000Z</time>
      </trkpt>
      <trkpt lat="43.39143675751984" lon="-6.0679219756275415">
        <ele>60.6</ele>
        <time>2017-08-02T11:24:35.000Z</time>
      </trkpt>
      <trkpt lat="43.391419909894466" lon="-6.067936895415187">
        <ele>60.8</ele>
        <time>2017-08-02T11:24:36.000Z</time>
      </trkpt>
      <trkpt lat="43.39139308780432" lon="-6.0679711773991585">
        <ele>61.2</ele>
        <time>2017-08-02T11:24:39.000Z</time>
      </trkpt>
      <trkpt lat="43.39137464761734" lon="-6.067993640899658">
        <ele>61.4</ele>
        <time>2017-08-02T11:24:42.000Z</time>
      </trkpt>
      <trkpt lat="43.39137456379831" lon="-6.068030437454581">
        <ele>61.6</ele>
        <time>2017-08-02T11:24:45.000Z</time>
      </trkpt>
      <trkpt lat="43.39137917384505" lon="-6.068098247051239">
        <ele>62</ele>
        <time>2017-08-02T11:24:47.000Z</time>
      </trkpt>
      <trkpt lat="43.391369031742215" lon="-6.068146023899317">
        <ele>62.4</ele>
        <time>2017-08-02T11:24:49.000Z</time>
      </trkpt>
      <trkpt lat="43.391344053670764" lon="-6.068178294226527">
        <ele>62.6</ele>
        <time>2017-08-02T11:24:51.000Z</time>
      </trkpt>
      <trkpt lat="43.391323601827025" lon="-6.068204864859581">
        <ele>62.8</ele>
        <time>2017-08-02T11:24:53.000Z</time>
      </trkpt>
      <trkpt lat="43.391295690089464" lon="-6.068287678062916">
        <ele>63</ele>
        <time>2017-08-02T11:24:58.000Z</time>
      </trkpt>
      <trkpt lat="43.391241040080786" lon="-6.0683628637343645">
        <ele>63.2</ele>
        <time>2017-08-02T11:25:04.000Z</time>
      </trkpt>
      <trkpt lat="43.39122804813087" lon="-6.0683702398091555">
        <ele>63</ele>
        <time>2017-08-02T11:25:05.000Z</time>
      </trkpt>
      <trkpt lat="43.39115831069648" lon="-6.068414831534028">
        <ele>63</ele>
        <time>2017-08-02T11:25:10.000Z</time>
      </trkpt>
      <trkpt lat="43.39110785163939" lon="-6.068466883152723">
        <ele>63</ele>
        <time>2017-08-02T11:25:15.000Z</time>
      </trkpt>
      <trkpt lat="43.39109871536493" lon="-6.06847551651299">
        <ele>63</ele>
        <time>2017-08-02T11:25:16.000Z</time>
      </trkpt>
      <trkpt lat="43.391035264357924" lon="-6.068548019975424">
        <ele>63</ele>
        <time>2017-08-02T11:25:23.000Z</time>
      </trkpt>
      <trkpt lat="43.390986397862434" lon="-6.068594790995121">
        <ele>63</ele>
        <time>2017-08-02T11:25:29.000Z</time>
      </trkpt>
      <trkpt lat="43.39097868651152" lon="-6.068605938926339">
        <ele>63</ele>
        <time>2017-08-02T11:25:30.000Z</time>
      </trkpt>
      <trkpt lat="43.390961084514856" lon="-6.068630162626505">
        <ele>63</ele>
        <time>2017-08-02T11:25:33.000Z</time>
      </trkpt>
      <trkpt lat="43.390900902450085" lon="-6.068698558956385">
        <ele>63</ele>
        <time>2017-08-02T11:25:39.000Z</time>
      </trkpt>
      <trkpt lat="43.390871062874794" lon="-6.068732421845198">
        <ele>63.2</ele>
        <time>2017-08-02T11:25:43.000Z</time>
      </trkpt>
      <trkpt lat="43.39084901846945" lon="-6.0687539633363485">
        <ele>63.2</ele>
        <time>2017-08-02T11:25:45.000Z</time>
      </trkpt>
      <trkpt lat="43.390791434794664" lon="-6.06881950981915">
        <ele>63.6</ele>
        <time>2017-08-02T11:25:51.000Z</time>
      </trkpt>
      <trkpt lat="43.39076000265777" lon="-6.068863430991769">
        <ele>63.8</ele>
        <time>2017-08-02T11:25:55.000Z</time>
      </trkpt>
      <trkpt lat="43.390742652118206" lon="-6.068884385749698">
        <ele>64</ele>
        <time>2017-08-02T11:25:57.000Z</time>
      </trkpt>
      <trkpt lat="43.39071691967547" lon="-6.068924367427826">
        <ele>64.4</ele>
        <time>2017-08-02T11:26:00.000Z</time>
      </trkpt>
      <trkpt lat="43.3907014131546" lon="-6.0689430590718985">
        <ele>64.6</ele>
        <time>2017-08-02T11:26:02.000Z</time>
      </trkpt>
      <trkpt lat="43.39068992994726" lon="-6.0689574759453535">
        <ele>64.6</ele>
        <time>2017-08-02T11:26:03.000Z</time>
      </trkpt>
      <trkpt lat="43.390653217211366" lon="-6.068994021043181">
        <ele>64.8</ele>
        <time>2017-08-02T11:26:06.000Z</time>
      </trkpt>
      <trkpt lat="43.39063628576696" lon="-6.069016316905618">
        <ele>65</ele>
        <time>2017-08-02T11:26:08.000Z</time>
      </trkpt>
      <trkpt lat="43.390633184462786" lon="-6.069027381017804">
        <ele>65.2</ele>
        <time>2017-08-02T11:26:09.000Z</time>
      </trkpt>
      <trkpt lat="43.39061239734292" lon="-6.069084210321307">
        <ele>65.6</ele>
        <time>2017-08-02T11:26:14.000Z</time>
      </trkpt>
      <trkpt lat="43.39060912840068" lon="-6.06911270879209">
        <ele>65.8</ele>
        <time>2017-08-02T11:26:16.000Z</time>
      </trkpt>
      <trkpt lat="43.39060418307781" lon="-6.069145062938333">
        <ele>66</ele>
        <time>2017-08-02T11:26:18.000Z</time>
      </trkpt>
      <trkpt lat="43.39060024358332" lon="-6.069248914718628">
        <ele>66.8</ele>
        <time>2017-08-02T11:26:24.000Z</time>
      </trkpt>
      <trkpt lat="43.39060745202005" lon="-6.06926660053432">
        <ele>67</ele>
        <time>2017-08-02T11:26:25.000Z</time>
      </trkpt>
      <trkpt lat="43.39061030186713" lon="-6.069371625781059">
        <ele>68.4</ele>
        <time>2017-08-02T11:26:31.000Z</time>
      </trkpt>
      <trkpt lat="43.390611140057445" lon="-6.069384533911943">
        <ele>68.6</ele>
        <time>2017-08-02T11:26:32.000Z</time>
      </trkpt>
      <trkpt lat="43.390624299645424" lon="-6.069460809230804">
        <ele>69.6</ele>
        <time>2017-08-02T11:26:36.000Z</time>
      </trkpt>
      <trkpt lat="43.390630753710866" lon="-6.069478914141655">
        <ele>69.8</ele>
        <time>2017-08-02T11:26:37.000Z</time>
      </trkpt>
      <trkpt lat="43.39062589220703" lon="-6.069545969367027">
        <ele>70.4</ele>
        <time>2017-08-02T11:26:41.000Z</time>
      </trkpt>
      <trkpt lat="43.390642991289496" lon="-6.069620568305254">
        <ele>71.4</ele>
        <time>2017-08-02T11:26:46.000Z</time>
      </trkpt>
      <trkpt lat="43.39065137319267" lon="-6.06970245949924">
        <ele>72.4</ele>
        <time>2017-08-02T11:26:51.000Z</time>
      </trkpt>
      <trkpt lat="43.39067014865577" lon="-6.069782758131623">
        <ele>73.6</ele>
        <time>2017-08-02T11:26:56.000Z</time>
      </trkpt>
      <trkpt lat="43.39067065156996" lon="-6.06980069540441">
        <ele>74</ele>
        <time>2017-08-02T11:26:57.000Z</time>
      </trkpt>
      <trkpt lat="43.39070283807814" lon="-6.069890130311251">
        <ele>75.6</ele>
        <time>2017-08-02T11:27:02.000Z</time>
      </trkpt>
      <trkpt lat="43.39069881476462" lon="-6.069924747571349">
        <ele>75.8</ele>
        <time>2017-08-02T11:27:04.000Z</time>
      </trkpt>
      <trkpt lat="43.390707364305854" lon="-6.069940589368343">
        <ele>76</ele>
        <time>2017-08-02T11:27:05.000Z</time>
      </trkpt>
      <trkpt lat="43.390719685703516" lon="-6.069974787533283">
        <ele>76.4</ele>
        <time>2017-08-02T11:27:07.000Z</time>
      </trkpt>
      <trkpt lat="43.39071951806545" lon="-6.069989455863833">
        <ele>76.4</ele>
        <time>2017-08-02T11:27:08.000Z</time>
      </trkpt>
      <trkpt lat="43.3907344378531" lon="-6.070052571594715">
        <ele>76.6</ele>
        <time>2017-08-02T11:27:12.000Z</time>
      </trkpt>
      <trkpt lat="43.390761176124215" lon="-6.070160279050469">
        <ele>76.8</ele>
        <time>2017-08-02T11:27:18.000Z</time>
      </trkpt>
      <trkpt lat="43.39076620526612" lon="-6.070176204666495">
        <ele>76.8</ele>
        <time>2017-08-02T11:27:19.000Z</time>
      </trkpt>
      <trkpt lat="43.390784561634064" lon="-6.070247618481517">
        <ele>77</ele>
        <time>2017-08-02T11:27:23.000Z</time>
      </trkpt>
      <trkpt lat="43.39079428464174" lon="-6.070279134437442">
        <ele>77</ele>
        <time>2017-08-02T11:27:25.000Z</time>
      </trkpt>
      <trkpt lat="43.39081012643874" lon="-6.07037041336298">
        <ele>77</ele>
        <time>2017-08-02T11:27:31.000Z</time>
      </trkpt>
      <trkpt lat="43.39082487858832" lon="-6.070409556850791">
        <ele>77.2</ele>
        <time>2017-08-02T11:27:34.000Z</time>
      </trkpt>
      <trkpt lat="43.390851030126214" lon="-6.070442581549287">
        <ele>77.6</ele>
        <time>2017-08-02T11:27:36.000Z</time>
      </trkpt>
      <trkpt lat="43.39088371954858" lon="-6.070477617904544">
        <ele>78.2</ele>
        <time>2017-08-02T11:27:39.000Z</time>
      </trkpt>
      <trkpt lat="43.3908930234611" lon="-6.070486670359969">
        <ele>78.4</ele>
        <time>2017-08-02T11:27:40.000Z</time>
      </trkpt>
      <trkpt lat="43.39089763350785" lon="-6.070499327033758">
        <ele>78.4</ele>
        <time>2017-08-02T11:27:41.000Z</time>
      </trkpt>
      <trkpt lat="43.39091883972287" lon="-6.070530088618398">
        <ele>79</ele>
        <time>2017-08-02T11:27:44.000Z</time>
      </trkpt>
      <trkpt lat="43.390968879684806" lon="-6.0705710761249065">
        <ele>79.6</ele>
        <time>2017-08-02T11:27:50.000Z</time>
      </trkpt>
      <trkpt lat="43.39098270982504" lon="-6.070582894608378">
        <ele>79.8</ele>
        <time>2017-08-02T11:27:54.000Z</time>
      </trkpt>
      <trkpt lat="43.39100291021168" lon="-6.070591863244772">
        <ele>80</ele>
        <time>2017-08-02T11:27:59.000Z</time>
      </trkpt>
      <trkpt lat="43.39105839841068" lon="-6.070599406957626">
        <ele>80.4</ele>
        <time>2017-08-02T11:28:13.000Z</time>
      </trkpt>
      <trkpt lat="43.391069043427706" lon="-6.070597562938929">
        <ele>80.4</ele>
        <time>2017-08-02T11:28:19.000Z</time>
      </trkpt>
      <trkpt lat="43.39113358408213" lon="-6.070572836324573">
        <ele>80.4</ele>
        <time>2017-08-02T11:28:47.000Z</time>
      </trkpt>
      <trkpt lat="43.3911451511085" lon="-6.070567639544606">
        <ele>80.4</ele>
        <time>2017-08-02T11:29:06.000Z</time>
      </trkpt>
      <trkpt lat="43.39113752357662" lon="-6.070567052811384">
        <ele>80.4</ele>
        <time>2017-08-02T11:29:18.000Z</time>
      </trkpt>
      <trkpt lat="43.39107935316861" lon="-6.070596557110548">
        <ele>80.6</ele>
        <time>2017-08-02T11:29:53.000Z</time>
      </trkpt>
      <trkpt lat="43.39054157026112" lon="-6.069582011550665">
        <ele>71.6</ele>
        <time>2017-08-03T04:54:51.000Z</time>
      </trkpt>
      <trkpt lat="43.39049999602139" lon="-6.069444380700588">
        <ele>69.8</ele>
        <time>2017-08-03T04:54:59.000Z</time>
      </trkpt>
      <trkpt lat="43.390455236658454" lon="-6.069318233057857">
        <ele>69.2</ele>
        <time>2017-08-03T04:55:07.000Z</time>
      </trkpt>
      <trkpt lat="43.39044727385044" lon="-6.069314377382398">
        <ele>69.2</ele>
        <time>2017-08-03T04:55:08.000Z</time>
      </trkpt>
      <trkpt lat="43.39042581617832" lon="-6.069340948015451">
        <ele>69.4</ele>
        <time>2017-08-03T04:55:11.000Z</time>
      </trkpt>
      <trkpt lat="43.39040712453425" lon="-6.069353856146336">
        <ele>69.4</ele>
        <time>2017-08-03T04:55:13.000Z</time>
      </trkpt>
      <trkpt lat="43.39037829078734" lon="-6.06938486918807">
        <ele>69.6</ele>
        <time>2017-08-03T04:55:16.000Z</time>
      </trkpt>
      <trkpt lat="43.39029924944043" lon="-6.069466341286898">
        <ele>70</ele>
        <time>2017-08-03T04:55:24.000Z</time>
      </trkpt>
      <trkpt lat="43.390207048505545" lon="-6.0695509146898985">
        <ele>70.4</ele>
        <time>2017-08-03T04:55:33.000Z</time>
      </trkpt>
      <trkpt lat="43.39012926444411" lon="-6.069626519456506">
        <ele>70.8</ele>
        <time>2017-08-03T04:55:41.000Z</time>
      </trkpt>
      <trkpt lat="43.390051731839776" lon="-6.069704471156001">
        <ele>71.4</ele>
        <time>2017-08-03T04:55:49.000Z</time>
      </trkpt>
      <trkpt lat="43.39003178291023" lon="-6.069718468934298">
        <ele>71.6</ele>
        <time>2017-08-03T04:55:51.000Z</time>
      </trkpt>
      <trkpt lat="43.38999314233661" lon="-6.069756858050823">
        <ele>72</ele>
        <time>2017-08-03T04:55:55.000Z</time>
      </trkpt>
      <trkpt lat="43.38993371464312" lon="-6.069817962124944">
        <ele>72.4</ele>
        <time>2017-08-03T04:56:01.000Z</time>
      </trkpt>
      <trkpt lat="43.38985215872526" lon="-6.0699231550097466">
        <ele>73.2</ele>
        <time>2017-08-03T04:56:10.000Z</time>
      </trkpt>
      <trkpt lat="43.389777978882194" lon="-6.070007728412747">
        <ele>73.8</ele>
        <time>2017-08-03T04:56:18.000Z</time>
      </trkpt>
      <trkpt lat="43.389679407700896" lon="-6.070121303200722">
        <ele>74.6</ele>
        <time>2017-08-03T04:56:28.000Z</time>
      </trkpt>
      <trkpt lat="43.38962534442544" lon="-6.070188358426094">
        <ele>75.2</ele>
        <time>2017-08-03T04:56:34.000Z</time>
      </trkpt>
      <trkpt lat="43.38955879211426" lon="-6.070284079760313">
        <ele>75.8</ele>
        <time>2017-08-03T04:56:42.000Z</time>
      </trkpt>
      <trkpt lat="43.38955108076334" lon="-6.070295311510563">
        <ele>75.8</ele>
        <time>2017-08-03T04:56:43.000Z</time>
      </trkpt>
      <trkpt lat="43.389498023316264" lon="-6.070344345644116">
        <ele>76.4</ele>
        <time>2017-08-03T04:56:48.000Z</time>
      </trkpt>
      <trkpt lat="43.38943624868989" lon="-6.070430260151625">
        <ele>76.8</ele>
        <time>2017-08-03T04:56:55.000Z</time>
      </trkpt>
      <trkpt lat="43.389418479055166" lon="-6.070455322042108">
        <ele>77</ele>
        <time>2017-08-03T04:56:57.000Z</time>
      </trkpt>
      <trkpt lat="43.389397943392396" lon="-6.070494381710887">
        <ele>77.2</ele>
        <time>2017-08-03T04:57:00.000Z</time>
      </trkpt>
      <trkpt lat="43.389359302818775" lon="-6.070550791919231">
        <ele>77.6</ele>
        <time>2017-08-03T04:57:05.000Z</time>
      </trkpt>
      <trkpt lat="43.38934354484081" lon="-6.070573590695858">
        <ele>77.8</ele>
        <time>2017-08-03T04:57:07.000Z</time>
      </trkpt>
      <trkpt lat="43.389278668910265" lon="-6.070671826601028">
        <ele>77.8</ele>
        <time>2017-08-03T04:57:15.000Z</time>
      </trkpt>
      <trkpt lat="43.38921337388456" lon="-6.070774421095848">
        <ele>77.4</ele>
        <time>2017-08-03T04:57:23.000Z</time>
      </trkpt>
      <trkpt lat="43.38913860730827" lon="-6.070864275097847">
        <ele>77</ele>
        <time>2017-08-03T04:57:31.000Z</time>
      </trkpt>
      <trkpt lat="43.38907951489091" lon="-6.070932000875473">
        <ele>76.8</ele>
        <time>2017-08-03T04:57:37.000Z</time>
      </trkpt>
      <trkpt lat="43.3889988809824" lon="-6.071034092456102">
        <ele>76.2</ele>
        <time>2017-08-03T04:57:46.000Z</time>
      </trkpt>
      <trkpt lat="43.388931239023805" lon="-6.071156049147248">
        <ele>76</ele>
        <time>2017-08-03T04:57:55.000Z</time>
      </trkpt>
      <trkpt lat="43.38887055404484" lon="-6.071294350549579">
        <ele>75.6</ele>
        <time>2017-08-03T04:58:04.000Z</time>
      </trkpt>
      <trkpt lat="43.388810623437166" lon="-6.07147372327745">
        <ele>75.6</ele>
        <time>2017-08-03T04:58:14.000Z</time>
      </trkpt>
      <trkpt lat="43.388768546283245" lon="-6.0715871304273605">
        <ele>76</ele>
        <time>2017-08-03T04:58:21.000Z</time>
      </trkpt>
      <trkpt lat="43.388764187693596" lon="-6.071602553129196">
        <ele>76</ele>
        <time>2017-08-03T04:58:22.000Z</time>
      </trkpt>
      <trkpt lat="43.38873568922281" lon="-6.0716731287539005">
        <ele>76.2</ele>
        <time>2017-08-03T04:58:27.000Z</time>
      </trkpt>
      <trkpt lat="43.388733426108956" lon="-6.0717452969402075">
        <ele>76.8</ele>
        <time>2017-08-03T04:58:31.000Z</time>
      </trkpt>
      <trkpt lat="43.388731917366385" lon="-6.071761390194297">
        <ele>76.8</ele>
        <time>2017-08-03T04:58:32.000Z</time>
      </trkpt>
      <trkpt lat="43.38869788683951" lon="-6.071827104315162">
        <ele>77</ele>
        <time>2017-08-03T04:58:37.000Z</time>
      </trkpt>
      <trkpt lat="43.388686906546354" lon="-6.0718354023993015">
        <ele>77</ele>
        <time>2017-08-03T04:58:38.000Z</time>
      </trkpt>
      <trkpt lat="43.38863108307123" lon="-6.071922071278095">
        <ele>77</ele>
        <time>2017-08-03T04:58:45.000Z</time>
      </trkpt>
      <trkpt lat="43.38862127624452" lon="-6.072028521448374">
        <ele>77.6</ele>
        <time>2017-08-03T04:58:51.000Z</time>
      </trkpt>
      <trkpt lat="43.3886069431901" lon="-6.072130026295781">
        <ele>78.2</ele>
        <time>2017-08-03T04:58:57.000Z</time>
      </trkpt>
      <trkpt lat="43.38858406059444" lon="-6.072220886126161">
        <ele>78.2</ele>
        <time>2017-08-03T04:59:04.000Z</time>
      </trkpt>
      <trkpt lat="43.388586239889264" lon="-6.0722356382757425">
        <ele>78.2</ele>
        <time>2017-08-03T04:59:10.000Z</time>
      </trkpt>
      <trkpt lat="43.38857936672866" lon="-6.072335299104452">
        <ele>78.4</ele>
        <time>2017-08-03T04:59:35.000Z</time>
      </trkpt>
      <trkpt lat="43.38853175751865" lon="-6.072491453960538">
        <ele>78.6</ele>
        <time>2017-08-03T04:59:45.000Z</time>
      </trkpt>
      <trkpt lat="43.38847861625254" lon="-6.072652554139495">
        <ele>79</ele>
        <time>2017-08-03T04:59:55.000Z</time>
      </trkpt>
      <trkpt lat="43.38843310251832" lon="-6.072781551629305">
        <ele>79.2</ele>
        <time>2017-08-03T05:00:03.000Z</time>
      </trkpt>
      <trkpt lat="43.38842581026256" lon="-6.072793621569872">
        <ele>79.2</ele>
        <time>2017-08-03T05:00:04.000Z</time>
      </trkpt>
      <trkpt lat="43.38838172145188" lon="-6.072885990142822">
        <ele>79.2</ele>
        <time>2017-08-03T05:00:10.000Z</time>
      </trkpt>
      <trkpt lat="43.38834366761148" lon="-6.072961343452334">
        <ele>79.4</ele>
        <time>2017-08-03T05:00:16.000Z</time>
      </trkpt>
      <trkpt lat="43.38828600011766" lon="-6.073051281273365">
        <ele>79.4</ele>
        <time>2017-08-03T05:00:23.000Z</time>
      </trkpt>
      <trkpt lat="43.38826797902584" lon="-6.073084222152829">
        <ele>79.4</ele>
        <time>2017-08-03T05:00:26.000Z</time>
      </trkpt>
      <trkpt lat="43.38825129903853" lon="-6.073098471388221">
        <ele>79.4</ele>
        <time>2017-08-03T05:00:29.000Z</time>
      </trkpt>
      <trkpt lat="43.38824585080147" lon="-6.07309746555984">
        <ele>79.4</ele>
        <time>2017-08-03T05:00:30.000Z</time>
      </trkpt>
      <trkpt lat="43.38823512196541" lon="-6.073105176910758">
        <ele>79.4</ele>
        <time>2017-08-03T05:00:34.000Z</time>
      </trkpt>
      <trkpt lat="43.38820000179112" lon="-6.073135938495398">
        <ele>79.2</ele>
        <time>2017-08-03T05:00:39.000Z</time>
      </trkpt>
      <trkpt lat="43.3881925418973" lon="-6.073155803605914">
        <ele>79.2</ele>
        <time>2017-08-03T05:00:41.000Z</time>
      </trkpt>
      <trkpt lat="43.388185584917665" lon="-6.0731845535337925">
        <ele>79</ele>
        <time>2017-08-03T05:00:43.000Z</time>
      </trkpt>
      <trkpt lat="43.38816932402551" lon="-6.0732207633554935">
        <ele>79</ele>
        <time>2017-08-03T05:00:46.000Z</time>
      </trkpt>
      <trkpt lat="43.388153314590454" lon="-6.073263930156827">
        <ele>78.8</ele>
        <time>2017-08-03T05:00:49.000Z</time>
      </trkpt>
      <trkpt lat="43.38815180584788" lon="-6.073309695348144">
        <ele>78.6</ele>
        <time>2017-08-03T05:00:52.000Z</time>
      </trkpt>
      <trkpt lat="43.3881093095988" lon="-6.073350766673684">
        <ele>78.4</ele>
        <time>2017-08-03T05:00:56.000Z</time>
      </trkpt>
      <trkpt lat="43.3880974072963" lon="-6.073360489681363">
        <ele>78.4</ele>
        <time>2017-08-03T05:00:57.000Z</time>
      </trkpt>
      <trkpt lat="43.38808382861316" lon="-6.07336325570941">
        <ele>78.4</ele>
        <time>2017-08-03T05:00:58.000Z</time>
      </trkpt>
      <trkpt lat="43.38803730905056" lon="-6.07339845970273">
        <ele>78.2</ele>
        <time>2017-08-03T05:01:02.000Z</time>
      </trkpt>
      <trkpt lat="43.38799523189664" lon="-6.073458893224597">
        <ele>78</ele>
        <time>2017-08-03T05:01:06.000Z</time>
      </trkpt>
      <trkpt lat="43.38795860297978" lon="-6.073506586253643">
        <ele>77.8</ele>
        <time>2017-08-03T05:01:09.000Z</time>
      </trkpt>
      <trkpt lat="43.38791434653103" lon="-6.073541706427932">
        <ele>77.6</ele>
        <time>2017-08-03T05:01:13.000Z</time>
      </trkpt>
      <trkpt lat="43.38789372704923" lon="-6.073549669235945">
        <ele>77.4</ele>
        <time>2017-08-03T05:01:15.000Z</time>
      </trkpt>
      <trkpt lat="43.38782323524356" lon="-6.07362711802125">
        <ele>77.2</ele>
        <time>2017-08-03T05:01:21.000Z</time>
      </trkpt>
      <trkpt lat="43.3877866063267" lon="-6.073677744716406">
        <ele>77</ele>
        <time>2017-08-03T05:01:25.000Z</time>
      </trkpt>
      <trkpt lat="43.38777394965291" lon="-6.073689563199878">
        <ele>76.8</ele>
        <time>2017-08-03T05:01:26.000Z</time>
      </trkpt>
      <trkpt lat="43.38771586306393" lon="-6.0737809259444475">
        <ele>76.6</ele>
        <time>2017-08-03T05:01:32.000Z</time>
      </trkpt>
      <trkpt lat="43.387668589130044" lon="-6.073841862380505">
        <ele>76.2</ele>
        <time>2017-08-03T05:01:37.000Z</time>
      </trkpt>
      <trkpt lat="43.38762181811035" lon="-6.07392031699419">
        <ele>76</ele>
        <time>2017-08-03T05:01:43.000Z</time>
      </trkpt>
      <trkpt lat="43.38761125691235" lon="-6.073942361399531">
        <ele>76</ele>
        <time>2017-08-03T05:01:45.000Z</time>
      </trkpt>
      <trkpt lat="43.38758083060384" lon="-6.074000364169478">
        <ele>76</ele>
        <time>2017-08-03T05:01:49.000Z</time>
      </trkpt>
      <trkpt lat="43.387570856139064" lon="-6.074017295613885">
        <ele>76</ele>
        <time>2017-08-03T05:01:50.000Z</time>
      </trkpt>
      <trkpt lat="43.38754445314407" lon="-6.074059205129743">
        <ele>76</ele>
        <time>2017-08-03T05:01:53.000Z</time>
      </trkpt>
      <trkpt lat="43.387524504214525" lon="-6.0740830935537815">
        <ele>76</ele>
        <time>2017-08-03T05:01:55.000Z</time>
      </trkpt>
      <trkpt lat="43.387510338798165" lon="-6.0740945767611265">
        <ele>76</ele>
        <time>2017-08-03T05:01:56.000Z</time>
      </trkpt>
      <trkpt lat="43.387464405968785" lon="-6.074140761047602">
        <ele>76</ele>
        <time>2017-08-03T05:02:00.000Z</time>
      </trkpt>
      <trkpt lat="43.38739668019116" lon="-6.074225669726729">
        <ele>76.2</ele>
        <time>2017-08-03T05:02:06.000Z</time>
      </trkpt>
      <trkpt lat="43.38731554336846" lon="-6.074314853176475">
        <ele>76.2</ele>
        <time>2017-08-03T05:02:13.000Z</time>
      </trkpt>
      <trkpt lat="43.38724119588733" lon="-6.074370425194502">
        <ele>76</ele>
        <time>2017-08-03T05:02:18.000Z</time>
      </trkpt>
      <trkpt lat="43.38722946122289" lon="-6.074382411316037">
        <ele>76</ele>
        <time>2017-08-03T05:02:19.000Z</time>
      </trkpt>
      <trkpt lat="43.38721403852105" lon="-6.074389955028892">
        <ele>76</ele>
        <time>2017-08-03T05:02:20.000Z</time>
      </trkpt>
      <trkpt lat="43.38715050369501" lon="-6.074378220364451">
        <ele>76</ele>
        <time>2017-08-03T05:02:23.000Z</time>
      </trkpt>
      <trkpt lat="43.387108677998185" lon="-6.074365563690662">
        <ele>75.8</ele>
        <time>2017-08-03T05:02:25.000Z</time>
      </trkpt>
      <trkpt lat="43.38706266134977" lon="-6.074353493750095">
        <ele>75.8</ele>
        <time>2017-08-03T05:02:28.000Z</time>
      </trkpt>
      <trkpt lat="43.38704346679151" lon="-6.074352068826556">
        <ele>75.8</ele>
        <time>2017-08-03T05:02:30.000Z</time>
      </trkpt>
      <trkpt lat="43.387017734348774" lon="-6.074366485700011">
        <ele>75.8</ele>
        <time>2017-08-03T05:02:34.000Z</time>
      </trkpt>
      <trkpt lat="43.38699552230537" lon="-6.074401773512363">
        <ele>75.8</ele>
        <time>2017-08-03T05:02:37.000Z</time>
      </trkpt>
      <trkpt lat="43.38692461140454" lon="-6.074514677748084">
        <ele>75.8</ele>
        <time>2017-08-03T05:02:47.000Z</time>
      </trkpt>
      <trkpt lat="43.38687046431005" lon="-6.074619451537728">
        <ele>75.8</ele>
        <time>2017-08-03T05:02:56.000Z</time>
      </trkpt>
      <trkpt lat="43.386825285851955" lon="-6.074673095718026">
        <ele>76</ele>
        <time>2017-08-03T05:03:02.000Z</time>
      </trkpt>
      <trkpt lat="43.386814054101706" lon="-6.074682651087642">
        <ele>76</ele>
        <time>2017-08-03T05:03:03.000Z</time>
      </trkpt>
      <trkpt lat="43.38678438216448" lon="-6.074727410450578">
        <ele>76</ele>
        <time>2017-08-03T05:03:07.000Z</time>
      </trkpt>
      <trkpt lat="43.38677558116615" lon="-6.074733613058925">
        <ele>76</ele>
        <time>2017-08-03T05:03:08.000Z</time>
      </trkpt>
      <trkpt lat="43.38673115707934" lon="-6.074801087379456">
        <ele>76</ele>
        <time>2017-08-03T05:03:14.000Z</time>
      </trkpt>
      <trkpt lat="43.386700227856636" lon="-6.074865963310003">
        <ele>76.2</ele>
        <time>2017-08-03T05:03:19.000Z</time>
      </trkpt>
      <trkpt lat="43.38669301941991" lon="-6.07487753033638">
        <ele>76.2</ele>
        <time>2017-08-03T05:03:20.000Z</time>
      </trkpt>
      <trkpt lat="43.3866330049932" lon="-6.074977945536375">
        <ele>76.4</ele>
        <time>2017-08-03T05:03:27.000Z</time>
      </trkpt>
      <trkpt lat="43.386562429368496" lon="-6.075060842558742">
        <ele>76.4</ele>
        <time>2017-08-03T05:03:34.000Z</time>
      </trkpt>
      <trkpt lat="43.38654457591474" lon="-6.075079785659909">
        <ele>76.4</ele>
        <time>2017-08-03T05:03:36.000Z</time>
      </trkpt>
      <trkpt lat="43.38653619401157" lon="-6.075133765116334">
        <ele>76.6</ele>
        <time>2017-08-03T05:03:39.000Z</time>
      </trkpt>
      <trkpt lat="43.38652026839554" lon="-6.075180117040873">
        <ele>76.6</ele>
        <time>2017-08-03T05:03:42.000Z</time>
      </trkpt>
      <trkpt lat="43.386517418548465" lon="-6.075207442045212">
        <ele>76.8</ele>
        <time>2017-08-03T05:03:44.000Z</time>
      </trkpt>
      <trkpt lat="43.38651121594012" lon="-6.075238790363073">
        <ele>76.8</ele>
        <time>2017-08-03T05:03:46.000Z</time>
      </trkpt>
      <trkpt lat="43.38649042882025" lon="-6.075279023498297">
        <ele>76.8</ele>
        <time>2017-08-03T05:03:49.000Z</time>
      </trkpt>
      <trkpt lat="43.38644717819989" lon="-6.075328309088945">
        <ele>77</ele>
        <time>2017-08-03T05:03:53.000Z</time>
      </trkpt>
      <trkpt lat="43.386430917307734" lon="-6.075352700427175">
        <ele>77</ele>
        <time>2017-08-03T05:03:55.000Z</time>
      </trkpt>
      <trkpt lat="43.38638464920223" lon="-6.075430400669575">
        <ele>77</ele>
        <time>2017-08-03T05:04:01.000Z</time>
      </trkpt>
      <trkpt lat="43.386333184316754" lon="-6.075501311570406">
        <ele>77.2</ele>
        <time>2017-08-03T05:04:06.000Z</time>
      </trkpt>
      <trkpt lat="43.38631432503462" lon="-6.075530732050538">
        <ele>77.2</ele>
        <time>2017-08-03T05:04:08.000Z</time>
      </trkpt>
      <trkpt lat="43.386238468810916" lon="-6.075586974620819">
        <ele>77.2</ele>
        <time>2017-08-03T05:04:13.000Z</time>
      </trkpt>
      <trkpt lat="43.38616529479623" lon="-6.075675822794437">
        <ele>77.4</ele>
        <time>2017-08-03T05:04:20.000Z</time>
      </trkpt>
      <trkpt lat="43.38615037500858" lon="-6.0757064167410135">
        <ele>77.4</ele>
        <time>2017-08-03T05:04:22.000Z</time>
      </trkpt>
      <trkpt lat="43.386125564575195" lon="-6.07574388384819">
        <ele>77.6</ele>
        <time>2017-08-03T05:04:25.000Z</time>
      </trkpt>
      <trkpt lat="43.386069405823946" lon="-6.0758118610829115">
        <ele>77.6</ele>
        <time>2017-08-03T05:04:31.000Z</time>
      </trkpt>
      <trkpt lat="43.385971589013934" lon="-6.075885035097599">
        <ele>77.6</ele>
        <time>2017-08-03T05:04:39.000Z</time>
      </trkpt>
      <trkpt lat="43.38591316714883" lon="-6.0759608913213015">
        <ele>77.8</ele>
        <time>2017-08-03T05:04:45.000Z</time>
      </trkpt>
      <trkpt lat="43.38589137420058" lon="-6.075979750603437">
        <ele>78</ele>
        <time>2017-08-03T05:04:47.000Z</time>
      </trkpt>
      <trkpt lat="43.38585818186402" lon="-6.076009841635823">
        <ele>78</ele>
        <time>2017-08-03T05:04:50.000Z</time>
      </trkpt>
      <trkpt lat="43.385772267356515" lon="-6.076066335663199">
        <ele>78.2</ele>
        <time>2017-08-03T05:04:57.000Z</time>
      </trkpt>
      <trkpt lat="43.38566305115819" lon="-6.076190052554011">
        <ele>78.4</ele>
        <time>2017-08-03T05:05:08.000Z</time>
      </trkpt>
      <trkpt lat="43.38559364899993" lon="-6.076287282630801">
        <ele>78.6</ele>
        <time>2017-08-03T05:05:16.000Z</time>
      </trkpt>
      <trkpt lat="43.38550656102598" lon="-6.076426422223449">
        <ele>79</ele>
        <time>2017-08-03T05:05:26.000Z</time>
      </trkpt>
      <trkpt lat="43.385457610711455" lon="-6.076546283438802">
        <ele>79.8</ele>
        <time>2017-08-03T05:05:34.000Z</time>
      </trkpt>
      <trkpt lat="43.385427352041006" lon="-6.076671089977026">
        <ele>80.4</ele>
        <time>2017-08-03T05:05:42.000Z</time>
      </trkpt>
      <trkpt lat="43.38538929820061" lon="-6.076789945363998">
        <ele>81.2</ele>
        <time>2017-08-03T05:05:50.000Z</time>
      </trkpt>
      <trkpt lat="43.38533707894385" lon="-6.076895305886865">
        <ele>81.8</ele>
        <time>2017-08-03T05:05:57.000Z</time>
      </trkpt>
      <trkpt lat="43.38527941145003" lon="-6.077001756057143">
        <ele>82.4</ele>
        <time>2017-08-03T05:06:05.000Z</time>
      </trkpt>
      <trkpt lat="43.38523691520095" lon="-6.077106781303883">
        <ele>83</ele>
        <time>2017-08-03T05:06:12.000Z</time>
      </trkpt>
      <trkpt lat="43.385180002078414" lon="-6.0772146563977">
        <ele>83.8</ele>
        <time>2017-08-03T05:06:20.000Z</time>
      </trkpt>
      <trkpt lat="43.38511973619461" lon="-6.077352873980999">
        <ele>84.4</ele>
        <time>2017-08-03T05:06:29.000Z</time>
      </trkpt>
      <trkpt lat="43.38509006425738" lon="-6.077472735196352">
        <ele>84.8</ele>
        <time>2017-08-03T05:06:37.000Z</time>
      </trkpt>
      <trkpt lat="43.38503533042967" lon="-6.077625537291169">
        <ele>85.4</ele>
        <time>2017-08-03T05:06:47.000Z</time>
      </trkpt>
      <trkpt lat="43.384974310174584" lon="-6.077753361314535">
        <ele>85.8</ele>
        <time>2017-08-03T05:06:56.000Z</time>
      </trkpt>
      <trkpt lat="43.384951930493116" lon="-6.077904319390655">
        <ele>86.4</ele>
        <time>2017-08-03T05:07:05.000Z</time>
      </trkpt>
      <trkpt lat="43.384958216920495" lon="-6.0780189000070095">
        <ele>87</ele>
        <time>2017-08-03T05:07:12.000Z</time>
      </trkpt>
      <trkpt lat="43.384960144758224" lon="-6.078086458146572">
        <ele>87.2</ele>
        <time>2017-08-03T05:07:16.000Z</time>
      </trkpt>
      <trkpt lat="43.38495838455856" lon="-6.078142281621695">
        <ele>87.6</ele>
        <time>2017-08-03T05:07:19.000Z</time>
      </trkpt>
      <trkpt lat="43.384967939928174" lon="-6.078204642981291">
        <ele>88.2</ele>
        <time>2017-08-03T05:07:23.000Z</time>
      </trkpt>
      <trkpt lat="43.3849751483649" lon="-6.078236578032374">
        <ele>88.4</ele>
        <time>2017-08-03T05:07:25.000Z</time>
      </trkpt>
      <trkpt lat="43.384994426742196" lon="-6.078317631036043">
        <ele>89.2</ele>
        <time>2017-08-03T05:07:30.000Z</time>
      </trkpt>
      <trkpt lat="43.38500046171248" lon="-6.078354176133871">
        <ele>89.6</ele>
        <time>2017-08-03T05:07:32.000Z</time>
      </trkpt>
      <trkpt lat="43.385022757574916" lon="-6.078476887196302">
        <ele>91</ele>
        <time>2017-08-03T05:07:40.000Z</time>
      </trkpt>
      <trkpt lat="43.38503122329712" lon="-6.07859306037426">
        <ele>92</ele>
        <time>2017-08-03T05:07:47.000Z</time>
      </trkpt>
      <trkpt lat="43.38503818027675" lon="-6.078656343743205">
        <ele>92.8</ele>
        <time>2017-08-03T05:07:51.000Z</time>
      </trkpt>
      <trkpt lat="43.38505536317825" lon="-6.078762793913484">
        <ele>93.8</ele>
        <time>2017-08-03T05:07:57.000Z</time>
      </trkpt>
      <trkpt lat="43.38506994768977" lon="-6.078847199678421">
        <ele>94.8</ele>
        <time>2017-08-03T05:08:02.000Z</time>
      </trkpt>
      <trkpt lat="43.38507581502199" lon="-6.078884666785598">
        <ele>95.2</ele>
        <time>2017-08-03T05:08:04.000Z</time>
      </trkpt>
      <trkpt lat="43.38508612476289" lon="-6.0789987444877625">
        <ele>96.2</ele>
        <time>2017-08-03T05:08:11.000Z</time>
      </trkpt>
      <trkpt lat="43.38507816195488" lon="-6.0791341960430145">
        <ele>97.8</ele>
        <time>2017-08-03T05:08:19.000Z</time>
      </trkpt>
      <trkpt lat="43.38506240397692" lon="-6.079277275130153">
        <ele>99.2</ele>
        <time>2017-08-03T05:08:28.000Z</time>
      </trkpt>
      <trkpt lat="43.38504555635154" lon="-6.079397303983569">
        <ele>100.6</ele>
        <time>2017-08-03T05:08:36.000Z</time>
      </trkpt>
      <trkpt lat="43.38503189384937" lon="-6.0795176681131124">
        <ele>101.8</ele>
        <time>2017-08-03T05:08:44.000Z</time>
      </trkpt>
      <trkpt lat="43.385010017082095" lon="-6.079667871817946">
        <ele>103.4</ele>
        <time>2017-08-03T05:08:54.000Z</time>
      </trkpt>
      <trkpt lat="43.384986128658056" lon="-6.079788990318775">
        <ele>104.6</ele>
        <time>2017-08-03T05:09:01.000Z</time>
      </trkpt>
      <trkpt lat="43.384968526661396" lon="-6.079903403297067">
        <ele>105.6</ele>
        <time>2017-08-03T05:09:08.000Z</time>
      </trkpt>
      <trkpt lat="43.38494287803769" lon="-6.08005603775382">
        <ele>107.4</ele>
        <time>2017-08-03T05:09:18.000Z</time>
      </trkpt>
      <trkpt lat="43.384924437850714" lon="-6.080168271437287">
        <ele>108.8</ele>
        <time>2017-08-03T05:09:25.000Z</time>
      </trkpt>
      <trkpt lat="43.38490658439696" lon="-6.080267513170838">
        <ele>110.2</ele>
        <time>2017-08-03T05:09:31.000Z</time>
      </trkpt>
      <trkpt lat="43.38488261215389" lon="-6.080400953069329">
        <ele>111.8</ele>
        <time>2017-08-03T05:09:39.000Z</time>
      </trkpt>
      <trkpt lat="43.38486475870013" lon="-6.080512683838606">
        <ele>113.2</ele>
        <time>2017-08-03T05:09:46.000Z</time>
      </trkpt>
      <trkpt lat="43.3848422113806" lon="-6.080631706863642">
        <ele>114.8</ele>
        <time>2017-08-03T05:09:54.000Z</time>
      </trkpt>
      <trkpt lat="43.384827710688114" lon="-6.080712676048279">
        <ele>116</ele>
        <time>2017-08-03T05:09:59.000Z</time>
      </trkpt>
      <trkpt lat="43.38481823913753" lon="-6.080773780122399">
        <ele>116.8</ele>
        <time>2017-08-03T05:10:03.000Z</time>
      </trkpt>
      <trkpt lat="43.38481245562434" lon="-6.08080068603158">
        <ele>117.2</ele>
        <time>2017-08-03T05:10:05.000Z</time>
      </trkpt>
      <trkpt lat="43.384796027094126" lon="-6.080857180058956">
        <ele>117.8</ele>
        <time>2017-08-03T05:10:09.000Z</time>
      </trkpt>
      <trkpt lat="43.38478982448578" lon="-6.080900682136416">
        <ele>118.6</ele>
        <time>2017-08-03T05:10:12.000Z</time>
      </trkpt>
      <trkpt lat="43.38477775454521" lon="-6.080936137586832">
        <ele>119</ele>
        <time>2017-08-03T05:10:15.000Z</time>
      </trkpt>
      <trkpt lat="43.384764175862074" lon="-6.080986596643925">
        <ele>119.6</ele>
        <time>2017-08-03T05:10:19.000Z</time>
      </trkpt>
      <trkpt lat="43.38473374955356" lon="-6.08111827634275">
        <ele>121</ele>
        <time>2017-08-03T05:10:28.000Z</time>
      </trkpt>
      <trkpt lat="43.38471162132919" lon="-6.081225397065282">
        <ele>122.4</ele>
        <time>2017-08-03T05:10:35.000Z</time>
      </trkpt>
      <trkpt lat="43.38469753973186" lon="-6.081343581900001">
        <ele>123.8</ele>
        <time>2017-08-03T05:10:43.000Z</time>
      </trkpt>
      <trkpt lat="43.38469401933253" lon="-6.081436034291983">
        <ele>125</ele>
        <time>2017-08-03T05:10:49.000Z</time>
      </trkpt>
      <trkpt lat="43.38469133712351" lon="-6.08156050555408">
        <ele>126.8</ele>
        <time>2017-08-03T05:10:57.000Z</time>
      </trkpt>
      <trkpt lat="43.3846902474761" lon="-6.081680785864592">
        <ele>128.2</ele>
        <time>2017-08-03T05:11:04.000Z</time>
      </trkpt>
      <trkpt lat="43.384694354608655" lon="-6.081803664565086">
        <ele>130</ele>
        <time>2017-08-03T05:11:12.000Z</time>
      </trkpt>
      <trkpt lat="43.38469276204705" lon="-6.0819214303046465">
        <ele>131.2</ele>
        <time>2017-08-03T05:11:20.000Z</time>
      </trkpt>
      <trkpt lat="43.384694773703814" lon="-6.082050343975425">
        <ele>132.2</ele>
        <time>2017-08-03T05:11:28.000Z</time>
      </trkpt>
      <trkpt lat="43.38470290414989" lon="-6.082141455262899">
        <ele>133</ele>
        <time>2017-08-03T05:11:34.000Z</time>
      </trkpt>
      <trkpt lat="43.384701646864414" lon="-6.082157380878925">
        <ele>133</ele>
        <time>2017-08-03T05:11:35.000Z</time>
      </trkpt>
      <trkpt lat="43.384698713198304" lon="-6.082291575148702">
        <ele>134</ele>
        <time>2017-08-03T05:11:43.000Z</time>
      </trkpt>
      <trkpt lat="43.384692929685116" lon="-6.082329712808132">
        <ele>134.4</ele>
        <time>2017-08-03T05:11:45.000Z</time>
      </trkpt>
      <trkpt lat="43.384692426770926" lon="-6.08241168782115">
        <ele>135.4</ele>
        <time>2017-08-03T05:11:50.000Z</time>
      </trkpt>
      <trkpt lat="43.38469007983804" lon="-6.082577230408788">
        <ele>137</ele>
        <time>2017-08-03T05:11:59.000Z</time>
      </trkpt>
      <trkpt lat="43.38467784225941" lon="-6.082701534032822">
        <ele>138.4</ele>
        <time>2017-08-03T05:12:06.000Z</time>
      </trkpt>
      <trkpt lat="43.384647415950894" lon="-6.0828491393476725">
        <ele>138.6</ele>
        <time>2017-08-03T05:12:14.000Z</time>
      </trkpt>
      <trkpt lat="43.38461673818529" lon="-6.082986099645495">
        <ele>138.6</ele>
        <time>2017-08-03T05:12:22.000Z</time>
      </trkpt>
      <trkpt lat="43.384579103440046" lon="-6.083129933103919">
        <ele>138.8</ele>
        <time>2017-08-03T05:12:31.000Z</time>
      </trkpt>
      <trkpt lat="43.384543815627694" lon="-6.083245435729623">
        <ele>139.6</ele>
        <time>2017-08-03T05:12:39.000Z</time>
      </trkpt>
      <trkpt lat="43.38450064882636" lon="-6.083379378542304">
        <ele>140.4</ele>
        <time>2017-08-03T05:12:47.000Z</time>
      </trkpt>
      <trkpt lat="43.38446100242436" lon="-6.083503095433116">
        <ele>141.2</ele>
        <time>2017-08-03T05:12:55.000Z</time>
      </trkpt>
      <trkpt lat="43.38441691361368" lon="-6.083632260560989">
        <ele>142</ele>
        <time>2017-08-03T05:13:03.000Z</time>
      </trkpt>
      <trkpt lat="43.384374333545566" lon="-6.083744913339615">
        <ele>142.8</ele>
        <time>2017-08-03T05:13:10.000Z</time>
      </trkpt>
      <trkpt lat="43.384330747649074" lon="-6.083855219185352">
        <ele>143.6</ele>
        <time>2017-08-03T05:13:17.000Z</time>
      </trkpt>
      <trkpt lat="43.38427819311619" lon="-6.083998130634427">
        <ele>144.4</ele>
        <time>2017-08-03T05:13:26.000Z</time>
      </trkpt>
      <trkpt lat="43.38421382009983" lon="-6.084125954657793">
        <ele>145</ele>
        <time>2017-08-03T05:13:35.000Z</time>
      </trkpt>
      <trkpt lat="43.38415221311152" lon="-6.08423525467515">
        <ele>145.6</ele>
        <time>2017-08-03T05:13:43.000Z</time>
      </trkpt>
      <trkpt lat="43.38409538380802" lon="-6.084333658218384">
        <ele>146.2</ele>
        <time>2017-08-03T05:13:50.000Z</time>
      </trkpt>
      <trkpt lat="43.384032770991325" lon="-6.0844438802450895">
        <ele>146.8</ele>
        <time>2017-08-03T05:13:58.000Z</time>
      </trkpt>
      <trkpt lat="43.38396051898599" lon="-6.084595173597336">
        <ele>147.6</ele>
        <time>2017-08-03T05:14:08.000Z</time>
      </trkpt>
      <trkpt lat="43.38390838354826" lon="-6.084749149158597">
        <ele>148.4</ele>
        <time>2017-08-03T05:14:17.000Z</time>
      </trkpt>
      <trkpt lat="43.383861780166626" lon="-6.08487730845809">
        <ele>148.8</ele>
        <time>2017-08-03T05:14:25.000Z</time>
      </trkpt>
      <trkpt lat="43.383804112672806" lon="-6.0850184597074986">
        <ele>149.2</ele>
        <time>2017-08-03T05:14:34.000Z</time>
      </trkpt>
      <trkpt lat="43.38375432416797" lon="-6.085122898221016">
        <ele>149.6</ele>
        <time>2017-08-03T05:14:41.000Z</time>
      </trkpt>
      <trkpt lat="43.3836851734668" lon="-6.085254494100809">
        <ele>150</ele>
        <time>2017-08-03T05:14:50.000Z</time>
      </trkpt>
      <trkpt lat="43.3836265001446" lon="-6.0853745229542255">
        <ele>150.2</ele>
        <time>2017-08-03T05:14:58.000Z</time>
      </trkpt>
      <trkpt lat="43.38358936831355" lon="-6.085474602878094">
        <ele>150.6</ele>
        <time>2017-08-03T05:15:05.000Z</time>
      </trkpt>
      <trkpt lat="43.38355399668217" lon="-6.085577365010977">
        <ele>150.6</ele>
        <time>2017-08-03T05:15:11.000Z</time>
      </trkpt>
      <trkpt lat="43.383496664464474" lon="-6.085702758282423">
        <ele>150.4</ele>
        <time>2017-08-03T05:15:19.000Z</time>
      </trkpt>
      <trkpt lat="43.38341200724244" lon="-6.085835192352533">
        <ele>150.2</ele>
        <time>2017-08-03T05:15:29.000Z</time>
      </trkpt>
      <trkpt lat="43.383328104391694" lon="-6.085961004719138">
        <ele>149.8</ele>
        <time>2017-08-03T05:15:39.000Z</time>
      </trkpt>
      <trkpt lat="43.383240681141615" lon="-6.086097210645676">
        <ele>149.4</ele>
        <time>2017-08-03T05:15:50.000Z</time>
      </trkpt>
      <trkpt lat="43.38319407775998" lon="-6.086166026070714">
        <ele>149.4</ele>
        <time>2017-08-03T05:15:57.000Z</time>
      </trkpt>
      <trkpt lat="43.38314705528319" lon="-6.086200308054686">
        <ele>149.4</ele>
        <time>2017-08-03T05:16:04.000Z</time>
      </trkpt>
      <trkpt lat="43.38308176025748" lon="-6.08627138659358">
        <ele>149.2</ele>
        <time>2017-08-03T05:16:12.000Z</time>
      </trkpt>
      <trkpt lat="43.38302870281041" lon="-6.086338441818953">
        <ele>149</ele>
        <time>2017-08-03T05:16:20.000Z</time>
      </trkpt>
      <trkpt lat="43.382954858243465" lon="-6.086442796513438">
        <ele>148.8</ele>
        <time>2017-08-03T05:16:29.000Z</time>
      </trkpt>
      <trkpt lat="43.38289249688387" lon="-6.086525609716773">
        <ele>149.2</ele>
        <time>2017-08-03T05:16:36.000Z</time>
      </trkpt>
      <trkpt lat="43.38280783966184" lon="-6.0866577085107565">
        <ele>149.4</ele>
        <time>2017-08-03T05:16:46.000Z</time>
      </trkpt>
      <trkpt lat="43.38273634202778" lon="-6.086783269420266">
        <ele>149.6</ele>
        <time>2017-08-03T05:16:55.000Z</time>
      </trkpt>
      <trkpt lat="43.38265805505216" lon="-6.086903968825936">
        <ele>150</ele>
        <time>2017-08-03T05:17:04.000Z</time>
      </trkpt>
      <trkpt lat="43.38256820105016" lon="-6.087039839476347">
        <ele>149.4</ele>
        <time>2017-08-03T05:17:14.000Z</time>
      </trkpt>
      <trkpt lat="43.38250692933798" lon="-6.087137991562486">
        <ele>148.8</ele>
        <time>2017-08-03T05:17:21.000Z</time>
      </trkpt>
      <trkpt lat="43.3824506867677" lon="-6.087236227467656">
        <ele>148.4</ele>
        <time>2017-08-03T05:17:28.000Z</time>
      </trkpt>
      <trkpt lat="43.382390923798084" lon="-6.087355585768819">
        <ele>147.8</ele>
        <time>2017-08-03T05:17:36.000Z</time>
      </trkpt>
      <trkpt lat="43.38233778253198" lon="-6.087517272680998">
        <ele>147</ele>
        <time>2017-08-03T05:17:45.000Z</time>
      </trkpt>
      <trkpt lat="43.382309786975384" lon="-6.087627913802862">
        <ele>146.8</ele>
        <time>2017-08-03T05:17:51.000Z</time>
      </trkpt>
      <trkpt lat="43.38226662017405" lon="-6.087781973183155">
        <ele>146.4</ele>
        <time>2017-08-03T05:18:00.000Z</time>
      </trkpt>
      <trkpt lat="43.38225496932864" lon="-6.087921867147088">
        <ele>146.2</ele>
        <time>2017-08-03T05:18:08.000Z</time>
      </trkpt>
      <trkpt lat="43.38230366818607" lon="-6.088080620393157">
        <ele>146.8</ele>
        <time>2017-08-03T05:18:18.000Z</time>
      </trkpt>
      <trkpt lat="43.3823211863637" lon="-6.088154213503003">
        <ele>146.8</ele>
        <time>2017-08-03T05:18:57.000Z</time>
      </trkpt>
      <trkpt lat="43.38235228322446" lon="-6.088245660066605">
        <ele>147.2</ele>
        <time>2017-08-03T05:19:04.000Z</time>
      </trkpt>
      <trkpt lat="43.38239653967321" lon="-6.088395109400153">
        <ele>147.6</ele>
        <time>2017-08-03T05:19:14.000Z</time>
      </trkpt>
      <trkpt lat="43.38241967372596" lon="-6.088490830734372">
        <ele>147.6</ele>
        <time>2017-08-03T05:19:20.000Z</time>
      </trkpt>
      <trkpt lat="43.38245118968189" lon="-6.088661570101976">
        <ele>147.6</ele>
        <time>2017-08-03T05:19:30.000Z</time>
      </trkpt>
      <trkpt lat="43.38247968815267" lon="-6.0888079181313515">
        <ele>147.8</ele>
        <time>2017-08-03T05:19:39.000Z</time>
      </trkpt>
      <trkpt lat="43.382522854954004" lon="-6.088954349979758">
        <ele>148</ele>
        <time>2017-08-03T05:19:49.000Z</time>
      </trkpt>
      <trkpt lat="43.38257876224816" lon="-6.089024506509304">
        <ele>148.6</ele>
        <time>2017-08-03T05:19:56.000Z</time>
      </trkpt>
      <trkpt lat="43.382663587108254" lon="-6.089044790714979">
        <ele>149.2</ele>
        <time>2017-08-03T05:20:04.000Z</time>
      </trkpt>
      <trkpt lat="43.38268890045583" lon="-6.089042108505964">
        <ele>149.4</ele>
        <time>2017-08-03T05:20:06.000Z</time>
      </trkpt>
      <trkpt lat="43.38280364871025" lon="-6.089041102677584">
        <ele>150</ele>
        <time>2017-08-03T05:20:15.000Z</time>
      </trkpt>
      <trkpt lat="43.3829203248024" lon="-6.089033391326666">
        <ele>150.8</ele>
        <time>2017-08-03T05:20:24.000Z</time>
      </trkpt>
      <trkpt lat="43.38305803947151" lon="-6.08902676962316">
        <ele>151.6</ele>
        <time>2017-08-03T05:20:35.000Z</time>
      </trkpt>
      <trkpt lat="43.38318561203778" lon="-6.089045042172074">
        <ele>152.4</ele>
        <time>2017-08-03T05:20:45.000Z</time>
      </trkpt>
      <trkpt lat="43.38328250683844" lon="-6.089085945859551">
        <ele>153</ele>
        <time>2017-08-03T05:20:53.000Z</time>
      </trkpt>
      <trkpt lat="43.383405301719904" lon="-6.089199855923653">
        <ele>154.6</ele>
        <time>2017-08-03T05:21:04.000Z</time>
      </trkpt>
      <trkpt lat="43.383498257026076" lon="-6.08934385702014">
        <ele>156</ele>
        <time>2017-08-03T05:21:15.000Z</time>
      </trkpt>
      <trkpt lat="43.383543603122234" lon="-6.089467657729983">
        <ele>156.4</ele>
        <time>2017-08-03T05:21:23.000Z</time>
      </trkpt>
      <trkpt lat="43.38355952873826" lon="-6.089606964960694">
        <ele>157</ele>
        <time>2017-08-03T05:21:31.000Z</time>
      </trkpt>
      <trkpt lat="43.383557349443436" lon="-6.08976798132062">
        <ele>157.6</ele>
        <time>2017-08-03T05:21:40.000Z</time>
      </trkpt>
      <trkpt lat="43.383530443534255" lon="-6.089962357655168">
        <ele>158.2</ele>
        <time>2017-08-03T05:21:51.000Z</time>
      </trkpt>
      <trkpt lat="43.38351367972791" lon="-6.090105855837464">
        <ele>158.6</ele>
        <time>2017-08-03T05:21:59.000Z</time>
      </trkpt>
      <trkpt lat="43.38348275050521" lon="-6.090289251878858">
        <ele>159.2</ele>
        <time>2017-08-03T05:22:09.000Z</time>
      </trkpt>
      <trkpt lat="43.383451821282506" lon="-6.090484885498881">
        <ele>159.4</ele>
        <time>2017-08-03T05:22:20.000Z</time>
      </trkpt>
      <trkpt lat="43.38342793285847" lon="-6.090646907687187">
        <ele>159.6</ele>
        <time>2017-08-03T05:22:29.000Z</time>
      </trkpt>
      <trkpt lat="43.38340069167316" lon="-6.0908188205212355">
        <ele>160</ele>
        <time>2017-08-03T05:22:39.000Z</time>
      </trkpt>
      <trkpt lat="43.38342416100204" lon="-6.090961815789342">
        <ele>160.6</ele>
        <time>2017-08-03T05:22:47.000Z</time>
      </trkpt>
      <trkpt lat="43.38350077159703" lon="-6.09110196121037">
        <ele>161.8</ele>
        <time>2017-08-03T05:22:57.000Z</time>
      </trkpt>
      <trkpt lat="43.38357696309686" lon="-6.091220732778311">
        <ele>161.8</ele>
        <time>2017-08-03T05:23:06.000Z</time>
      </trkpt>
      <trkpt lat="43.38364292867482" lon="-6.091369763016701">
        <ele>162.6</ele>
        <time>2017-08-03T05:23:16.000Z</time>
      </trkpt>
      <trkpt lat="43.38370554149151" lon="-6.091526923701167">
        <ele>162.8</ele>
        <time>2017-08-03T05:23:26.000Z</time>
      </trkpt>
      <trkpt lat="43.383764550089836" lon="-6.091637229546905">
        <ele>162.8</ele>
        <time>2017-08-03T05:23:34.000Z</time>
      </trkpt>
      <trkpt lat="43.3838146738708" lon="-6.091781733557582">
        <ele>162.6</ele>
        <time>2017-08-03T05:23:43.000Z</time>
      </trkpt>
      <trkpt lat="43.38383906520903" lon="-6.091908635571599">
        <ele>162.4</ele>
        <time>2017-08-03T05:23:51.000Z</time>
      </trkpt>
      <trkpt lat="43.383845183998346" lon="-6.092029167339206">
        <ele>162.6</ele>
        <time>2017-08-03T05:23:58.000Z</time>
      </trkpt>
      <trkpt lat="43.38384551927447" lon="-6.092125056311488">
        <ele>162.8</ele>
        <time>2017-08-03T05:24:06.000Z</time>
      </trkpt>
      <trkpt lat="43.38384392671287" lon="-6.092107202857733">
        <ele>162.6</ele>
        <time>2017-08-03T05:24:25.000Z</time>
      </trkpt>
      <trkpt lat="43.383839316666126" lon="-6.092172330245376">
        <ele>162.8</ele>
        <time>2017-08-03T05:24:37.000Z</time>
      </trkpt>
      <trkpt lat="43.38383269496262" lon="-6.092327730730176">
        <ele>163</ele>
        <time>2017-08-03T05:24:47.000Z</time>
      </trkpt>
      <trkpt lat="43.383835293352604" lon="-6.092494949698448">
        <ele>163.2</ele>
        <time>2017-08-03T05:24:57.000Z</time>
      </trkpt>
      <trkpt lat="43.38385071605444" lon="-6.092662336304784">
        <ele>163.4</ele>
        <time>2017-08-03T05:25:07.000Z</time>
      </trkpt>
      <trkpt lat="43.38387192226946" lon="-6.092849588021636">
        <ele>164</ele>
        <time>2017-08-03T05:25:18.000Z</time>
      </trkpt>
      <trkpt lat="43.38390151038766" lon="-6.093058884143829">
        <ele>164.8</ele>
        <time>2017-08-03T05:25:30.000Z</time>
      </trkpt>
      <trkpt lat="43.38391860947013" lon="-6.0932576190680265">
        <ele>166.2</ele>
        <time>2017-08-03T05:25:41.000Z</time>
      </trkpt>
      <trkpt lat="43.383896984159946" lon="-6.0934084095060825">
        <ele>167.2</ele>
        <time>2017-08-03T05:25:50.000Z</time>
      </trkpt>
      <trkpt lat="43.38388985954225" lon="-6.093428274616599">
        <ele>167.4</ele>
        <time>2017-08-03T05:25:55.000Z</time>
      </trkpt>
      <trkpt lat="43.38388692587614" lon="-6.093445122241974">
        <ele>167.4</ele>
        <time>2017-08-03T05:25:56.000Z</time>
      </trkpt>
      <trkpt lat="43.38388038799167" lon="-6.0934932343661785">
        <ele>167.8</ele>
        <time>2017-08-03T05:25:59.000Z</time>
      </trkpt>
      <trkpt lat="43.38387091644108" lon="-6.093577640131116">
        <ele>168.4</ele>
        <time>2017-08-03T05:26:04.000Z</time>
      </trkpt>
      <trkpt lat="43.38386865332723" lon="-6.09371954575181">
        <ele>169.4</ele>
        <time>2017-08-03T05:26:13.000Z</time>
      </trkpt>
      <trkpt lat="43.38386588729918" lon="-6.093834126368165">
        <ele>170.2</ele>
        <time>2017-08-03T05:26:20.000Z</time>
      </trkpt>
      <trkpt lat="43.38385121896863" lon="-6.093995980918407">
        <ele>171.4</ele>
        <time>2017-08-03T05:26:30.000Z</time>
      </trkpt>
      <trkpt lat="43.3838373888284" lon="-6.094090444967151">
        <ele>172</ele>
        <time>2017-08-03T05:26:36.000Z</time>
      </trkpt>
      <trkpt lat="43.38381844572723" lon="-6.094199744984508">
        <ele>172.8</ele>
        <time>2017-08-03T05:26:43.000Z</time>
      </trkpt>
      <trkpt lat="43.38378584012389" lon="-6.094345087185502">
        <ele>174</ele>
        <time>2017-08-03T05:26:52.000Z</time>
      </trkpt>
      <trkpt lat="43.38380243629217" lon="-6.094461847096682">
        <ele>175</ele>
        <time>2017-08-03T05:26:59.000Z</time>
      </trkpt>
      <trkpt lat="43.38383227586746" lon="-6.094592018052936">
        <ele>176</ele>
        <time>2017-08-03T05:27:07.000Z</time>
      </trkpt>
      <trkpt lat="43.38382397778332" lon="-6.094707353040576">
        <ele>176.8</ele>
        <time>2017-08-03T05:27:14.000Z</time>
      </trkpt>
      <trkpt lat="43.38379254564643" lon="-6.094804164022207">
        <ele>177.4</ele>
        <time>2017-08-03T05:27:21.000Z</time>
      </trkpt>
      <trkpt lat="43.383778212592006" lon="-6.094925366342068">
        <ele>177.8</ele>
        <time>2017-08-03T05:27:29.000Z</time>
      </trkpt>
      <trkpt lat="43.383778715506196" lon="-6.095040366053581">
        <ele>178.4</ele>
        <time>2017-08-03T05:27:36.000Z</time>
      </trkpt>
      <trkpt lat="43.383784582838416" lon="-6.095179170370102">
        <ele>179</ele>
        <time>2017-08-03T05:27:44.000Z</time>
      </trkpt>
      <trkpt lat="43.38378366082907" lon="-6.095268856734037">
        <ele>179.6</ele>
        <time>2017-08-03T05:27:49.000Z</time>
      </trkpt>
      <trkpt lat="43.38378290645778" lon="-6.0953070782125">
        <ele>179.6</ele>
        <time>2017-08-03T05:27:51.000Z</time>
      </trkpt>
      <trkpt lat="43.38378785178065" lon="-6.0953447967767715">
        <ele>180</ele>
        <time>2017-08-03T05:27:53.000Z</time>
      </trkpt>
      <trkpt lat="43.3838027715683" lon="-6.095439847558737">
        <ele>180.6</ele>
        <time>2017-08-03T05:27:58.000Z</time>
      </trkpt>
      <trkpt lat="43.383827079087496" lon="-6.095585525035858">
        <ele>181.6</ele>
        <time>2017-08-03T05:28:07.000Z</time>
      </trkpt>
      <trkpt lat="43.38387032970786" lon="-6.095716115087271">
        <ele>182.6</ele>
        <time>2017-08-03T05:28:16.000Z</time>
      </trkpt>
      <trkpt lat="43.383927661925554" lon="-6.095830947160721">
        <ele>183.6</ele>
        <time>2017-08-03T05:28:24.000Z</time>
      </trkpt>
      <trkpt lat="43.38400661945343" lon="-6.095946449786425">
        <ele>184.4</ele>
        <time>2017-08-03T05:28:33.000Z</time>
      </trkpt>
      <trkpt lat="43.38409496471286" lon="-6.096037980169058">
        <ele>184.6</ele>
        <time>2017-08-03T05:28:42.000Z</time>
      </trkpt>
      <trkpt lat="43.38420292362571" lon="-6.096132276579738">
        <ele>184.6</ele>
        <time>2017-08-03T05:28:52.000Z</time>
      </trkpt>
      <trkpt lat="43.38433703407645" lon="-6.096217352896929">
        <ele>184.8</ele>
        <time>2017-08-03T05:29:03.000Z</time>
      </trkpt>
      <trkpt lat="43.38441456668079" lon="-6.0962471924722195">
        <ele>185</ele>
        <time>2017-08-03T05:29:10.000Z</time>
      </trkpt>
      <trkpt lat="43.38451783172786" lon="-6.09629069454968">
        <ele>185.4</ele>
        <time>2017-08-03T05:29:19.000Z</time>
      </trkpt>
      <trkpt lat="43.38464263826609" lon="-6.096340650692582">
        <ele>186</ele>
        <time>2017-08-03T05:29:30.000Z</time>
      </trkpt>
      <trkpt lat="43.384736431762576" lon="-6.096375938504934">
        <ele>186.4</ele>
        <time>2017-08-03T05:29:38.000Z</time>
      </trkpt>
      <trkpt lat="43.38485143147409" lon="-6.096414579078555">
        <ele>186.8</ele>
        <time>2017-08-03T05:29:47.000Z</time>
      </trkpt>
      <trkpt lat="43.38494195602834" lon="-6.096439054235816">
        <ele>187.2</ele>
        <time>2017-08-03T05:29:54.000Z</time>
      </trkpt>
      <trkpt lat="43.38505167514086" lon="-6.096464702859521">
        <ele>187.8</ele>
        <time>2017-08-03T05:30:02.000Z</time>
      </trkpt>
      <trkpt lat="43.38516089133918" lon="-6.096543073654175">
        <ele>188.2</ele>
        <time>2017-08-03T05:30:11.000Z</time>
      </trkpt>
      <trkpt lat="43.38516994379461" lon="-6.096691265702248">
        <ele>188.6</ele>
        <time>2017-08-03T05:30:19.000Z</time>
      </trkpt>
      <trkpt lat="43.385174218565226" lon="-6.096872985363007">
        <ele>189</ele>
        <time>2017-08-03T05:30:29.000Z</time>
      </trkpt>
      <trkpt lat="43.38517740368843" lon="-6.097063086926937">
        <ele>189.6</ele>
        <time>2017-08-03T05:30:39.000Z</time>
      </trkpt>
      <trkpt lat="43.385180085897446" lon="-6.097253020852804">
        <ele>190</ele>
        <time>2017-08-03T05:30:49.000Z</time>
      </trkpt>
      <trkpt lat="43.385195173323154" lon="-6.097438847646117">
        <ele>190.4</ele>
        <time>2017-08-03T05:30:59.000Z</time>
      </trkpt>
      <trkpt lat="43.385210847482085" lon="-6.0976561065763235">
        <ele>190.8</ele>
        <time>2017-08-03T05:31:11.000Z</time>
      </trkpt>
      <trkpt lat="43.38522828184068" lon="-6.097834724932909">
        <ele>191</ele>
        <time>2017-08-03T05:31:21.000Z</time>
      </trkpt>
      <trkpt lat="43.38524085469544" lon="-6.097952993586659">
        <ele>191.2</ele>
        <time>2017-08-03T05:31:28.000Z</time>
      </trkpt>
      <trkpt lat="43.38527505286038" lon="-6.098118536174297">
        <ele>192</ele>
        <time>2017-08-03T05:31:38.000Z</time>
      </trkpt>
      <trkpt lat="43.385333977639675" lon="-6.098279971629381">
        <ele>192.6</ele>
        <time>2017-08-03T05:31:48.000Z</time>
      </trkpt>
      <trkpt lat="43.3853913936764" lon="-6.0983974020928144">
        <ele>193</ele>
        <time>2017-08-03T05:31:56.000Z</time>
      </trkpt>
      <trkpt lat="43.385470854118466" lon="-6.0985328536480665">
        <ele>193.8</ele>
        <time>2017-08-03T05:32:06.000Z</time>
      </trkpt>
      <trkpt lat="43.38554419577122" lon="-6.098652463406324">
        <ele>194.4</ele>
        <time>2017-08-03T05:32:15.000Z</time>
      </trkpt>
      <trkpt lat="43.38560035452247" lon="-6.098748603835702">
        <ele>195.2</ele>
        <time>2017-08-03T05:32:22.000Z</time>
      </trkpt>
      <trkpt lat="43.38562918826938" lon="-6.098802164196968">
        <ele>195.4</ele>
        <time>2017-08-03T05:32:26.000Z</time>
      </trkpt>
      <trkpt lat="43.38564218021929" lon="-6.098827896639705">
        <ele>195.6</ele>
        <time>2017-08-03T05:32:28.000Z</time>
      </trkpt>
      <trkpt lat="43.38565508835018" lon="-6.098854215815663">
        <ele>195.8</ele>
        <time>2017-08-03T05:32:30.000Z</time>
      </trkpt>
      <trkpt lat="43.38570546358824" lon="-6.09894348308444">
        <ele>196.4</ele>
        <time>2017-08-03T05:32:37.000Z</time>
      </trkpt>
      <trkpt lat="43.38575491681695" lon="-6.099025374278426">
        <ele>196.8</ele>
        <time>2017-08-03T05:32:44.000Z</time>
      </trkpt>
      <trkpt lat="43.385804034769535" lon="-6.099142385646701">
        <ele>197.2</ele>
        <time>2017-08-03T05:32:52.000Z</time>
      </trkpt>
      <trkpt lat="43.385840747505426" lon="-6.099273646250367">
        <ele>198.4</ele>
        <time>2017-08-03T05:33:00.000Z</time>
      </trkpt>
      <trkpt lat="43.38587578386068" lon="-6.09942720271647">
        <ele>199.8</ele>
        <time>2017-08-03T05:33:09.000Z</time>
      </trkpt>
      <trkpt lat="43.38591291569173" lon="-6.0995615646243095">
        <ele>201</ele>
        <time>2017-08-03T05:33:17.000Z</time>
      </trkpt>
      <trkpt lat="43.38595390319824" lon="-6.099692238494754">
        <ele>202.2</ele>
        <time>2017-08-03T05:33:25.000Z</time>
      </trkpt>
      <trkpt lat="43.38600737974048" lon="-6.099831461906433">
        <ele>203.4</ele>
        <time>2017-08-03T05:33:34.000Z</time>
      </trkpt>
      <trkpt lat="43.38606119155884" lon="-6.099938666447997">
        <ele>204.2</ele>
        <time>2017-08-03T05:33:42.000Z</time>
      </trkpt>
      <trkpt lat="43.38611106388271" lon="-6.100038662552834">
        <ele>205</ele>
        <time>2017-08-03T05:33:49.000Z</time>
      </trkpt>
      <trkpt lat="43.3861652109772" lon="-6.100150477141142">
        <ele>206</ele>
        <time>2017-08-03T05:33:57.000Z</time>
      </trkpt>
      <trkpt lat="43.3862098865211" lon="-6.100248629227281">
        <ele>206.6</ele>
        <time>2017-08-03T05:34:04.000Z</time>
      </trkpt>
      <trkpt lat="43.386261351406574" lon="-6.100350636988878">
        <ele>207.6</ele>
        <time>2017-08-03T05:34:11.000Z</time>
      </trkpt>
      <trkpt lat="43.38631097227335" lon="-6.10044015571475">
        <ele>209</ele>
        <time>2017-08-03T05:34:18.000Z</time>
      </trkpt>
      <trkpt lat="43.38636537082493" lon="-6.100529590621591">
        <ele>210.4</ele>
        <time>2017-08-03T05:34:25.000Z</time>
      </trkpt>
      <trkpt lat="43.386420691385865" lon="-6.100617600604892">
        <ele>211.8</ele>
        <time>2017-08-03T05:34:32.000Z</time>
      </trkpt>
      <trkpt lat="43.38648724369705" lon="-6.1007363721728325">
        <ele>212.8</ele>
        <time>2017-08-03T05:34:41.000Z</time>
      </trkpt>
      <trkpt lat="43.38653493672609" lon="-6.100845169275999">
        <ele>213.4</ele>
        <time>2017-08-03T05:34:49.000Z</time>
      </trkpt>
      <trkpt lat="43.38657642714679" lon="-6.1009622644633055">
        <ele>214.2</ele>
        <time>2017-08-03T05:34:57.000Z</time>
      </trkpt>
      <trkpt lat="43.386584389954805" lon="-6.100976597517729">
        <ele>214.4</ele>
        <time>2017-08-03T05:34:58.000Z</time>
      </trkpt>
      <trkpt lat="43.386607775464654" lon="-6.101049184799194">
        <ele>215.2</ele>
        <time>2017-08-03T05:35:03.000Z</time>
      </trkpt>
      <trkpt lat="43.38663526810706" lon="-6.101143313571811">
        <ele>215.8</ele>
        <time>2017-08-03T05:35:09.000Z</time>
      </trkpt>
      <trkpt lat="43.38667214848101" lon="-6.10127666965127">
        <ele>216.8</ele>
        <time>2017-08-03T05:35:18.000Z</time>
      </trkpt>
      <trkpt lat="43.38670827448368" lon="-6.101372055709362">
        <ele>217.8</ele>
        <time>2017-08-03T05:35:25.000Z</time>
      </trkpt>
      <trkpt lat="43.386711878702044" lon="-6.101387310773134">
        <ele>218</ele>
        <time>2017-08-03T05:35:26.000Z</time>
      </trkpt>
      <trkpt lat="43.386748004704714" lon="-6.10149996355176">
        <ele>218.8</ele>
        <time>2017-08-03T05:35:34.000Z</time>
      </trkpt>
      <trkpt lat="43.38679829612374" lon="-6.101645892485976">
        <ele>219.6</ele>
        <time>2017-08-03T05:35:44.000Z</time>
      </trkpt>
      <trkpt lat="43.3868246152997" lon="-6.101770363748074">
        <ele>220</ele>
        <time>2017-08-03T05:35:52.000Z</time>
      </trkpt>
      <trkpt lat="43.38685529306531" lon="-6.101920399814844">
        <ele>220</ele>
        <time>2017-08-03T05:36:01.000Z</time>
      </trkpt>
      <trkpt lat="43.386867279186845" lon="-6.102066244930029">
        <ele>219.8</ele>
        <time>2017-08-03T05:36:09.000Z</time>
      </trkpt>
      <trkpt lat="43.38687792420387" lon="-6.102241091430187">
        <ele>220</ele>
        <time>2017-08-03T05:36:19.000Z</time>
      </trkpt>
      <trkpt lat="43.38689502328634" lon="-6.102419961243868">
        <ele>219.6</ele>
        <time>2017-08-03T05:36:29.000Z</time>
      </trkpt>
      <trkpt lat="43.38695461861789" lon="-6.1025850009173155">
        <ele>219.2</ele>
        <time>2017-08-03T05:36:39.000Z</time>
      </trkpt>
      <trkpt lat="43.387036845088005" lon="-6.102718943729997">
        <ele>219</ele>
        <time>2017-08-03T05:36:49.000Z</time>
      </trkpt>
      <trkpt lat="43.387133153155446" lon="-6.102847019210458">
        <ele>219</ele>
        <time>2017-08-03T05:36:59.000Z</time>
      </trkpt>
      <trkpt lat="43.387214709073305" lon="-6.1030373722314835">
        <ele>220.2</ele>
        <time>2017-08-03T05:37:11.000Z</time>
      </trkpt>
      <trkpt lat="43.38725703768432" lon="-6.103268964216113">
        <ele>221.4</ele>
        <time>2017-08-03T05:37:24.000Z</time>
      </trkpt>
      <trkpt lat="43.38728981092572" lon="-6.103465519845486">
        <ele>222.6</ele>
        <time>2017-08-03T05:37:35.000Z</time>
      </trkpt>
      <trkpt lat="43.387329960241914" lon="-6.103661824017763">
        <ele>224.4</ele>
        <time>2017-08-03T05:37:46.000Z</time>
      </trkpt>
      <trkpt lat="43.38737430050969" lon="-6.103826193138957">
        <ele>226</ele>
        <time>2017-08-03T05:37:56.000Z</time>
      </trkpt>
      <trkpt lat="43.38740665465593" lon="-6.1039388459175825">
        <ele>227</ele>
        <time>2017-08-03T05:38:03.000Z</time>
      </trkpt>
      <trkpt lat="43.387453677132726" lon="-6.10409801825881">
        <ele>227.2</ele>
        <time>2017-08-03T05:38:13.000Z</time>
      </trkpt>
      <trkpt lat="43.38752173818648" lon="-6.104244450107217">
        <ele>228.6</ele>
        <time>2017-08-03T05:38:23.000Z</time>
      </trkpt>
      <trkpt lat="43.387602707371116" lon="-6.10438778065145">
        <ele>230.6</ele>
        <time>2017-08-03T05:38:33.000Z</time>
      </trkpt>
      <trkpt lat="43.38765216059983" lon="-6.104510324075818">
        <ele>231.8</ele>
        <time>2017-08-03T05:38:41.000Z</time>
      </trkpt>
      <trkpt lat="43.3876811619848" lon="-6.104621468111873">
        <ele>232</ele>
        <time>2017-08-03T05:38:48.000Z</time>
      </trkpt>
      <trkpt lat="43.38773681782186" lon="-6.1047787964344025">
        <ele>232.6</ele>
        <time>2017-08-03T05:38:58.000Z</time>
      </trkpt>
      <trkpt lat="43.38779800571501" lon="-6.104935118928552">
        <ele>232.4</ele>
        <time>2017-08-03T05:39:08.000Z</time>
      </trkpt>
      <trkpt lat="43.38783161714673" lon="-6.1050833109766245">
        <ele>232.4</ele>
        <time>2017-08-03T05:39:17.000Z</time>
      </trkpt>
      <trkpt lat="43.38783740065992" lon="-6.105202417820692">
        <ele>232.4</ele>
        <time>2017-08-03T05:39:24.000Z</time>
      </trkpt>
      <trkpt lat="43.38782818056643" lon="-6.105355471372604">
        <ele>232.4</ele>
        <time>2017-08-03T05:39:33.000Z</time>
      </trkpt>
      <trkpt lat="43.38781787082553" lon="-6.105484049767256">
        <ele>233</ele>
        <time>2017-08-03T05:39:41.000Z</time>
      </trkpt>
      <trkpt lat="43.387804962694645" lon="-6.105596451088786">
        <ele>234.4</ele>
        <time>2017-08-03T05:39:48.000Z</time>
      </trkpt>
      <trkpt lat="43.38779339566827" lon="-6.105713127180934">
        <ele>235.6</ele>
        <time>2017-08-03T05:39:55.000Z</time>
      </trkpt>
      <trkpt lat="43.38780211284757" lon="-6.105839107185602">
        <ele>237</ele>
        <time>2017-08-03T05:40:03.000Z</time>
      </trkpt>
      <trkpt lat="43.38780965656042" lon="-6.105965171009302">
        <ele>238.4</ele>
        <time>2017-08-03T05:40:11.000Z</time>
      </trkpt>
      <trkpt lat="43.38781787082553" lon="-6.1060289572924376">
        <ele>239.2</ele>
        <time>2017-08-03T05:40:15.000Z</time>
      </trkpt>
      <trkpt lat="43.38781745173037" lon="-6.106073968112469">
        <ele>239.8</ele>
        <time>2017-08-03T05:40:18.000Z</time>
      </trkpt>
      <trkpt lat="43.38782331906259" lon="-6.1061326414346695">
        <ele>240.4</ele>
        <time>2017-08-03T05:40:22.000Z</time>
      </trkpt>
      <trkpt lat="43.38783195242286" lon="-6.106160134077072">
        <ele>240.8</ele>
        <time>2017-08-03T05:40:24.000Z</time>
      </trkpt>
      <trkpt lat="43.38783354498446" lon="-6.106179496273398">
        <ele>241</ele>
        <time>2017-08-03T05:40:25.000Z</time>
      </trkpt>
      <trkpt lat="43.38784192688763" lon="-6.106234816834331">
        <ele>241.8</ele>
        <time>2017-08-03T05:40:29.000Z</time>
      </trkpt>
      <trkpt lat="43.38786371983588" lon="-6.1063137743622065">
        <ele>243.2</ele>
        <time>2017-08-03T05:40:35.000Z</time>
      </trkpt>
      <trkpt lat="43.38787738233805" lon="-6.106397341936827">
        <ele>244.8</ele>
        <time>2017-08-03T05:40:42.000Z</time>
      </trkpt>
      <trkpt lat="43.38787905871868" lon="-6.106422236189246">
        <ele>245.2</ele>
        <time>2017-08-03T05:40:44.000Z</time>
      </trkpt>
      <trkpt lat="43.38788098655641" lon="-6.10646297223866">
        <ele>246</ele>
        <time>2017-08-03T05:40:47.000Z</time>
      </trkpt>
      <trkpt lat="43.387878304347396" lon="-6.106562381610274">
        <ele>248.2</ele>
        <time>2017-08-03T05:40:53.000Z</time>
      </trkpt>
      <trkpt lat="43.38787897489965" lon="-6.106611331924796">
        <ele>249.4</ele>
        <time>2017-08-03T05:40:56.000Z</time>
      </trkpt>
      <trkpt lat="43.387877214699984" lon="-6.1066784709692">
        <ele>250.8</ele>
        <time>2017-08-03T05:41:00.000Z</time>
      </trkpt>
      <trkpt lat="43.38786229491234" lon="-6.106784585863352">
        <ele>253</ele>
        <time>2017-08-03T05:41:06.000Z</time>
      </trkpt>
      <trkpt lat="43.387837652117014" lon="-6.106882067397237">
        <ele>255</ele>
        <time>2017-08-03T05:41:12.000Z</time>
      </trkpt>
      <trkpt lat="43.38777621276677" lon="-6.107025062665343">
        <ele>257.4</ele>
        <time>2017-08-03T05:41:22.000Z</time>
      </trkpt>
      <trkpt lat="43.38777001015842" lon="-6.107052890583873">
        <ele>257.8</ele>
        <time>2017-08-03T05:41:24.000Z</time>
      </trkpt>
      <trkpt lat="43.387751653790474" lon="-6.1070971470326185">
        <ele>258.6</ele>
        <time>2017-08-03T05:41:27.000Z</time>
      </trkpt>
      <trkpt lat="43.387736566364765" lon="-6.107178032398224">
        <ele>260.2</ele>
        <time>2017-08-03T05:41:32.000Z</time>
      </trkpt>
      <trkpt lat="43.38771661743522" lon="-6.107277190312743">
        <ele>261.6</ele>
        <time>2017-08-03T05:41:38.000Z</time>
      </trkpt>
      <trkpt lat="43.38769415393472" lon="-6.107336366549134">
        <ele>262.4</ele>
        <time>2017-08-03T05:41:43.000Z</time>
      </trkpt>
      <trkpt lat="43.387686777859926" lon="-6.107351453974843">
        <ele>262.6</ele>
        <time>2017-08-03T05:41:44.000Z</time>
      </trkpt>
      <trkpt lat="43.387643778696656" lon="-6.10742898657918">
        <ele>263.4</ele>
        <time>2017-08-03T05:41:50.000Z</time>
      </trkpt>
      <trkpt lat="43.38756146840751" lon="-6.10748615115881">
        <ele>263.2</ele>
        <time>2017-08-03T05:41:57.000Z</time>
      </trkpt>
      <trkpt lat="43.38752442039549" lon="-6.107505680993199">
        <ele>263</ele>
        <time>2017-08-03T05:42:00.000Z</time>
      </trkpt>
      <trkpt lat="43.38750706985593" lon="-6.107520768418908">
        <ele>263</ele>
        <time>2017-08-03T05:42:02.000Z</time>
      </trkpt>
      <trkpt lat="43.38747228495777" lon="-6.107528563588858">
        <ele>262.6</ele>
        <time>2017-08-03T05:42:05.000Z</time>
      </trkpt>
      <trkpt lat="43.38746122084558" lon="-6.107532251626253">
        <ele>262.4</ele>
        <time>2017-08-03T05:42:06.000Z</time>
      </trkpt>
      <trkpt lat="43.38740590028465" lon="-6.107536694034934">
        <ele>261.8</ele>
        <time>2017-08-03T05:42:10.000Z</time>
      </trkpt>
      <trkpt lat="43.38739877566695" lon="-6.107544153928757">
        <ele>261.8</ele>
        <time>2017-08-03T05:42:11.000Z</time>
      </trkpt>
      <trkpt lat="43.38733121752739" lon="-6.107580363750458">
        <ele>261.4</ele>
        <time>2017-08-03T05:42:17.000Z</time>
      </trkpt>
      <trkpt lat="43.387285536155105" lon="-6.107648005709052">
        <ele>261.8</ele>
        <time>2017-08-03T05:42:22.000Z</time>
      </trkpt>
      <trkpt lat="43.38727505877614" lon="-6.1076608300209045">
        <ele>261.8</ele>
        <time>2017-08-03T05:42:23.000Z</time>
      </trkpt>
      <trkpt lat="43.387212697416544" lon="-6.107761664316058">
        <ele>262.4</ele>
        <time>2017-08-03T05:42:31.000Z</time>
      </trkpt>
      <trkpt lat="43.387164333835244" lon="-6.107862247154117">
        <ele>263.4</ele>
        <time>2017-08-03T05:42:38.000Z</time>
      </trkpt>
      <trkpt lat="43.38713482953608" lon="-6.107998536899686">
        <ele>265</ele>
        <time>2017-08-03T05:42:46.000Z</time>
      </trkpt>
      <trkpt lat="43.387109600007534" lon="-6.108163744211197">
        <ele>267.8</ele>
        <time>2017-08-03T05:42:55.000Z</time>
      </trkpt>
      <trkpt lat="43.38708453811705" lon="-6.10828603617847">
        <ele>270.4</ele>
        <time>2017-08-03T05:43:02.000Z</time>
      </trkpt>
      <trkpt lat="43.387050507590175" lon="-6.108408076688647">
        <ele>272.8</ele>
        <time>2017-08-03T05:43:09.000Z</time>
      </trkpt>
      <trkpt lat="43.38703516870737" lon="-6.108449902385473">
        <ele>273.6</ele>
        <time>2017-08-03T05:43:12.000Z</time>
      </trkpt>
      <trkpt lat="43.387024691328406" lon="-6.108474126085639">
        <ele>274</ele>
        <time>2017-08-03T05:43:14.000Z</time>
      </trkpt>
      <trkpt lat="43.38701907545328" lon="-6.108489381149411">
        <ele>274.2</ele>
        <time>2017-08-03T05:43:15.000Z</time>
      </trkpt>
      <trkpt lat="43.386947913095355" lon="-6.108626089990139">
        <ele>276.6</ele>
        <time>2017-08-03T05:43:24.000Z</time>
      </trkpt>
      <trkpt lat="43.3869025669992" lon="-6.1087089870125055">
        <ele>277.8</ele>
        <time>2017-08-03T05:43:29.000Z</time>
      </trkpt>
      <trkpt lat="43.38683567941189" lon="-6.108811162412167">
        <ele>279.4</ele>
        <time>2017-08-03T05:43:36.000Z</time>
      </trkpt>
      <trkpt lat="43.38682595640421" lon="-6.108818035572767">
        <ele>279.4</ele>
        <time>2017-08-03T05:43:37.000Z</time>
      </trkpt>
      <trkpt lat="43.386783711612225" lon="-6.108869919553399">
        <ele>280</ele>
        <time>2017-08-03T05:43:41.000Z</time>
      </trkpt>
      <trkpt lat="43.3867141418159" lon="-6.108947452157736">
        <ele>280.8</ele>
        <time>2017-08-03T05:43:48.000Z</time>
      </trkpt>
      <trkpt lat="43.38668430224061" lon="-6.108967233449221">
        <ele>280.6</ele>
        <time>2017-08-03T05:43:51.000Z</time>
      </trkpt>
      <trkpt lat="43.38664918206632" lon="-6.108991457149386">
        <ele>280.4</ele>
        <time>2017-08-03T05:43:54.000Z</time>
      </trkpt>
      <trkpt lat="43.38658598251641" lon="-6.109041245654225">
        <ele>280.2</ele>
        <time>2017-08-03T05:44:00.000Z</time>
      </trkpt>
      <trkpt lat="43.38650442659855" lon="-6.109119448810816">
        <ele>280</ele>
        <time>2017-08-03T05:44:08.000Z</time>
      </trkpt>
      <trkpt lat="43.38644147850573" lon="-6.109214583411813">
        <ele>280.4</ele>
        <time>2017-08-03T05:44:16.000Z</time>
      </trkpt>
      <trkpt lat="43.38639697059989" lon="-6.109312232583761">
        <ele>281</ele>
        <time>2017-08-03T05:44:23.000Z</time>
      </trkpt>
      <trkpt lat="43.38638724759221" lon="-6.109341820701957">
        <ele>281.2</ele>
        <time>2017-08-03T05:44:25.000Z</time>
      </trkpt>
      <trkpt lat="43.3863531332463" lon="-6.109425304457545">
        <ele>282.2</ele>
        <time>2017-08-03T05:44:31.000Z</time>
      </trkpt>
      <trkpt lat="43.38631357066333" lon="-6.109512308612466">
        <ele>283.2</ele>
        <time>2017-08-03T05:44:38.000Z</time>
      </trkpt>
      <trkpt lat="43.38627585209906" lon="-6.109627643600106">
        <ele>285</ele>
        <time>2017-08-03T05:44:46.000Z</time>
      </trkpt>
      <trkpt lat="43.38625179603696" lon="-6.109725460410118">
        <ele>286.8</ele>
        <time>2017-08-03T05:44:53.000Z</time>
      </trkpt>
      <trkpt lat="43.38625037111342" lon="-6.109820259734988">
        <ele>288.2</ele>
        <time>2017-08-03T05:45:00.000Z</time>
      </trkpt>
      <trkpt lat="43.38625037111342" lon="-6.109865102916956">
        <ele>288.6</ele>
        <time>2017-08-03T05:45:03.000Z</time>
      </trkpt>
      <trkpt lat="43.38625439442694" lon="-6.10990927554667">
        <ele>289</ele>
        <time>2017-08-03T05:45:06.000Z</time>
      </trkpt>
      <trkpt lat="43.386265290901065" lon="-6.110028047114611">
        <ele>290.4</ele>
        <time>2017-08-03T05:45:14.000Z</time>
      </trkpt>
      <trkpt lat="43.3862738404423" lon="-6.110122427344322">
        <ele>291.4</ele>
        <time>2017-08-03T05:45:20.000Z</time>
      </trkpt>
      <trkpt lat="43.38628741912544" lon="-6.110237929970026">
        <ele>292.6</ele>
        <time>2017-08-03T05:45:27.000Z</time>
      </trkpt>
      <trkpt lat="43.386293621733785" lon="-6.110369525849819">
        <ele>294.6</ele>
        <time>2017-08-03T05:45:35.000Z</time>
      </trkpt>
      <trkpt lat="43.386294627562165" lon="-6.110384110361338">
        <ele>294.8</ele>
        <time>2017-08-03T05:45:36.000Z</time>
      </trkpt>
      <trkpt lat="43.38629387319088" lon="-6.110467091202736">
        <ele>296</ele>
        <time>2017-08-03T05:45:41.000Z</time>
      </trkpt>
      <trkpt lat="43.38629622012377" lon="-6.110561387613416">
        <ele>297.6</ele>
        <time>2017-08-03T05:45:47.000Z</time>
      </trkpt>
      <trkpt lat="43.386290268972516" lon="-6.110657025128603">
        <ele>298.6</ele>
        <time>2017-08-03T05:45:53.000Z</time>
      </trkpt>
      <trkpt lat="43.38628272525966" lon="-6.110791135579348">
        <ele>299.8</ele>
        <time>2017-08-03T05:46:01.000Z</time>
      </trkpt>
      <trkpt lat="43.38626462034881" lon="-6.110952403396368">
        <ele>301</ele>
        <time>2017-08-03T05:46:10.000Z</time>
      </trkpt>
      <trkpt lat="43.38624894618988" lon="-6.111077377572656">
        <ele>301.8</ele>
        <time>2017-08-03T05:46:17.000Z</time>
      </trkpt>
      <trkpt lat="43.38623804971576" lon="-6.111202435567975">
        <ele>303</ele>
        <time>2017-08-03T05:46:24.000Z</time>
      </trkpt>
      <trkpt lat="43.38622631505132" lon="-6.111345598474145">
        <ele>305</ele>
        <time>2017-08-03T05:46:32.000Z</time>
      </trkpt>
      <trkpt lat="43.38620100170374" lon="-6.11150904558599">
        <ele>306</ele>
        <time>2017-08-03T05:46:41.000Z</time>
      </trkpt>
      <trkpt lat="43.386171413585544" lon="-6.111661093309522">
        <ele>306</ele>
        <time>2017-08-03T05:46:49.000Z</time>
      </trkpt>
      <trkpt lat="43.38614978827536" lon="-6.111826384440064">
        <ele>306.2</ele>
        <time>2017-08-03T05:46:58.000Z</time>
      </trkpt>
      <trkpt lat="43.38614534586668" lon="-6.111995279788971">
        <ele>307.4</ele>
        <time>2017-08-03T05:47:07.000Z</time>
      </trkpt>
      <trkpt lat="43.38615272194147" lon="-6.11215939745307">
        <ele>308.8</ele>
        <time>2017-08-03T05:47:16.000Z</time>
      </trkpt>
      <trkpt lat="43.386169569566846" lon="-6.112295184284449">
        <ele>310.2</ele>
        <time>2017-08-03T05:47:24.000Z</time>
      </trkpt>
      <trkpt lat="43.386184237897396" lon="-6.112401802092791">
        <ele>311</ele>
        <time>2017-08-03T05:47:30.000Z</time>
      </trkpt>
      <trkpt lat="43.38620334863663" lon="-6.1125375889241695">
        <ele>312.2</ele>
        <time>2017-08-03T05:47:38.000Z</time>
      </trkpt>
      <trkpt lat="43.38621768169105" lon="-6.112644290551543">
        <ele>313.2</ele>
        <time>2017-08-03T05:47:44.000Z</time>
      </trkpt>
      <trkpt lat="43.38622220791876" lon="-6.11269298940897">
        <ele>313.4</ele>
        <time>2017-08-03T05:47:47.000Z</time>
      </trkpt>
      <trkpt lat="43.38622631505132" lon="-6.112744621932507">
        <ele>313.8</ele>
        <time>2017-08-03T05:47:50.000Z</time>
      </trkpt>
      <trkpt lat="43.38623704388738" lon="-6.112818131223321">
        <ele>314.4</ele>
        <time>2017-08-03T05:47:54.000Z</time>
      </trkpt>
      <trkpt lat="43.386245258152485" lon="-6.112869847565889">
        <ele>315</ele>
        <time>2017-08-03T05:47:57.000Z</time>
      </trkpt>
      <trkpt lat="43.386247269809246" lon="-6.112919133156538">
        <ele>315.2</ele>
        <time>2017-08-03T05:48:00.000Z</time>
      </trkpt>
      <trkpt lat="43.38625875301659" lon="-6.112988702952862">
        <ele>315.8</ele>
        <time>2017-08-03T05:48:04.000Z</time>
      </trkpt>
      <trkpt lat="43.386266715824604" lon="-6.113039581105113">
        <ele>316.2</ele>
        <time>2017-08-03T05:48:07.000Z</time>
      </trkpt>
      <trkpt lat="43.38627342134714" lon="-6.1130874417722225">
        <ele>316.4</ele>
        <time>2017-08-03T05:48:10.000Z</time>
      </trkpt>
      <trkpt lat="43.386283395811915" lon="-6.11322607845068">
        <ele>318.6</ele>
        <time>2017-08-03T05:48:18.000Z</time>
      </trkpt>
      <trkpt lat="43.386289766058326" lon="-6.113351723179221">
        <ele>320.8</ele>
        <time>2017-08-03T05:48:25.000Z</time>
      </trkpt>
      <trkpt lat="43.38628171943128" lon="-6.113524055108428">
        <ele>322.8</ele>
        <time>2017-08-03T05:48:34.000Z</time>
      </trkpt>
      <trkpt lat="43.38626545853913" lon="-6.113692279905081">
        <ele>324.4</ele>
        <time>2017-08-03T05:48:43.000Z</time>
      </trkpt>
      <trkpt lat="43.38625523261726" lon="-6.113794539123774">
        <ele>324.8</ele>
        <time>2017-08-03T05:48:48.000Z</time>
      </trkpt>
      <trkpt lat="43.38625397533178" lon="-6.113826306536794">
        <ele>324.8</ele>
        <time>2017-08-03T05:48:50.000Z</time>
      </trkpt>
      <trkpt lat="43.386244755238295" lon="-6.113861259073019">
        <ele>324.8</ele>
        <time>2017-08-03T05:48:52.000Z</time>
      </trkpt>
      <trkpt lat="43.38620385155082" lon="-6.114017246291041">
        <ele>325.2</ele>
        <time>2017-08-03T05:49:00.000Z</time>
      </trkpt>
      <trkpt lat="43.386165127158165" lon="-6.114134760573506">
        <ele>325.8</ele>
        <time>2017-08-03T05:49:07.000Z</time>
      </trkpt>
      <trkpt lat="43.386144675314426" lon="-6.114255795255303">
        <ele>326.8</ele>
        <time>2017-08-03T05:49:14.000Z</time>
      </trkpt>
      <trkpt lat="43.38613109663129" lon="-6.114367693662643">
        <ele>327.8</ele>
        <time>2017-08-03T05:49:20.000Z</time>
      </trkpt>
      <trkpt lat="43.386111315339804" lon="-6.114460565149784">
        <ele>328.6</ele>
        <time>2017-08-03T05:49:25.000Z</time>
      </trkpt>
      <trkpt lat="43.38607627898455" lon="-6.114542791619897">
        <ele>328.6</ele>
        <time>2017-08-03T05:49:30.000Z</time>
      </trkpt>
      <trkpt lat="43.38597904890776" lon="-6.114662904292345">
        <ele>327.6</ele>
        <time>2017-08-03T05:49:39.000Z</time>
      </trkpt>
      <trkpt lat="43.385910484939814" lon="-6.114747226238251">
        <ele>327.2</ele>
        <time>2017-08-03T05:49:46.000Z</time>
      </trkpt>
      <trkpt lat="43.38584091514349" lon="-6.114863650873303">
        <ele>326</ele>
        <time>2017-08-03T05:49:54.000Z</time>
      </trkpt>
      <trkpt lat="43.38576472364366" lon="-6.114987367764115">
        <ele>324</ele>
        <time>2017-08-03T05:50:02.000Z</time>
      </trkpt>
      <trkpt lat="43.38566833175719" lon="-6.1150965839624405">
        <ele>322</ele>
        <time>2017-08-03T05:50:11.000Z</time>
      </trkpt>
      <trkpt lat="43.38557847775519" lon="-6.115183001384139">
        <ele>320</ele>
        <time>2017-08-03T05:50:19.000Z</time>
      </trkpt>
      <trkpt lat="43.38550949469209" lon="-6.115303952246904">
        <ele>318.8</ele>
        <time>2017-08-03T05:50:27.000Z</time>
      </trkpt>
      <trkpt lat="43.38544411584735" lon="-6.115461364388466">
        <ele>318.2</ele>
        <time>2017-08-03T05:50:36.000Z</time>
      </trkpt>
      <trkpt lat="43.38540446944535" lon="-6.115560103207827">
        <ele>318</ele>
        <time>2017-08-03T05:50:42.000Z</time>
      </trkpt>
      <trkpt lat="43.38535971008241" lon="-6.115693794563413">
        <ele>317.4</ele>
        <time>2017-08-03T05:50:50.000Z</time>
      </trkpt>
      <trkpt lat="43.385322242975235" lon="-6.1158608458936214">
        <ele>317.2</ele>
        <time>2017-08-03T05:50:59.000Z</time>
      </trkpt>
      <trkpt lat="43.385301288217306" lon="-6.115974169224501">
        <ele>317.2</ele>
        <time>2017-08-03T05:51:05.000Z</time>
      </trkpt>
      <trkpt lat="43.38528796099126" lon="-6.116087827831507">
        <ele>317.4</ele>
        <time>2017-08-03T05:51:11.000Z</time>
      </trkpt>
      <trkpt lat="43.385279243811965" lon="-6.116198971867561">
        <ele>317.8</ele>
        <time>2017-08-03T05:51:17.000Z</time>
      </trkpt>
      <trkpt lat="43.385280249640346" lon="-6.116369962692261">
        <ele>318.8</ele>
        <time>2017-08-03T05:51:26.000Z</time>
      </trkpt>
      <trkpt lat="43.385291984304786" lon="-6.116499379277229">
        <ele>319.6</ele>
        <time>2017-08-03T05:51:33.000Z</time>
      </trkpt>
      <trkpt lat="43.385318806394935" lon="-6.116630639880896">
        <ele>320.8</ele>
        <time>2017-08-03T05:51:40.000Z</time>
      </trkpt>
      <trkpt lat="43.38532148860395" lon="-6.116788052022457">
        <ele>321.2</ele>
        <time>2017-08-03T05:51:48.000Z</time>
      </trkpt>
      <trkpt lat="43.38528469204903" lon="-6.116948649287224">
        <ele>320.6</ele>
        <time>2017-08-03T05:51:56.000Z</time>
      </trkpt>
      <trkpt lat="43.38525149971247" lon="-6.117125423625112">
        <ele>319.8</ele>
        <time>2017-08-03T05:52:05.000Z</time>
      </trkpt>
      <trkpt lat="43.385247057303786" lon="-6.117290128022432">
        <ele>320.4</ele>
        <time>2017-08-03T05:52:13.000Z</time>
      </trkpt>
      <trkpt lat="43.38525812141597" lon="-6.117480816319585">
        <ele>323.2</ele>
        <time>2017-08-03T05:52:23.000Z</time>
      </trkpt>
      <trkpt lat="43.38525149971247" lon="-6.11763646826148">
        <ele>324.8</ele>
        <time>2017-08-03T05:52:31.000Z</time>
      </trkpt>
      <trkpt lat="43.38523750193417" lon="-6.1178151704370975">
        <ele>326.4</ele>
        <time>2017-08-03T05:52:40.000Z</time>
      </trkpt>
      <trkpt lat="43.38523389771581" lon="-6.1179630272090435">
        <ele>328.2</ele>
        <time>2017-08-03T05:52:47.000Z</time>
      </trkpt>
      <trkpt lat="43.385216211900115" lon="-6.118163857609034">
        <ele>329.8</ele>
        <time>2017-08-03T05:52:57.000Z</time>
      </trkpt>
      <trkpt lat="43.38519584387541" lon="-6.118286903947592">
        <ele>331.4</ele>
        <time>2017-08-03T05:53:04.000Z</time>
      </trkpt>
      <trkpt lat="43.385181091725826" lon="-6.118343733251095">
        <ele>332.2</ele>
        <time>2017-08-03T05:53:07.000Z</time>
      </trkpt>
      <trkpt lat="43.385169273242354" lon="-6.1183936055749655">
        <ele>332.8</ele>
        <time>2017-08-03T05:53:10.000Z</time>
      </trkpt>
      <trkpt lat="43.385135075077415" lon="-6.118540707975626">
        <ele>335.2</ele>
        <time>2017-08-03T05:53:18.000Z</time>
      </trkpt>
      <trkpt lat="43.385082269087434" lon="-6.118706837296486">
        <ele>339.2</ele>
        <time>2017-08-03T05:53:27.000Z</time>
      </trkpt>
      <trkpt lat="43.38504999876022" lon="-6.118808593600988">
        <ele>341.6</ele>
        <time>2017-08-03T05:53:33.000Z</time>
      </trkpt>
      <trkpt lat="43.3849614020437" lon="-6.1189154628664255">
        <ele>345.4</ele>
        <time>2017-08-03T05:53:42.000Z</time>
      </trkpt>
      <trkpt lat="43.38485101237893" lon="-6.118949661031365">
        <ele>348.2</ele>
        <time>2017-08-03T05:53:51.000Z</time>
      </trkpt>
      <trkpt lat="43.38476258330047" lon="-6.11901244148612">
        <ele>350.6</ele>
        <time>2017-08-03T05:54:00.000Z</time>
      </trkpt>
      <trkpt lat="43.38473710231483" lon="-6.119121490046382">
        <ele>352.2</ele>
        <time>2017-08-03T05:54:07.000Z</time>
      </trkpt>
      <trkpt lat="43.384741209447384" lon="-6.119222324341536">
        <ele>353</ele>
        <time>2017-08-03T05:54:13.000Z</time>
      </trkpt>
      <trkpt lat="43.38471522554755" lon="-6.1193271819502115">
        <ele>354.6</ele>
        <time>2017-08-03T05:54:20.000Z</time>
      </trkpt>
      <trkpt lat="43.384656300768256" lon="-6.119425501674414">
        <ele>356.8</ele>
        <time>2017-08-03T05:54:28.000Z</time>
      </trkpt>
      <trkpt lat="43.38461506180465" lon="-6.11953723244369">
        <ele>358.8</ele>
        <time>2017-08-03T05:54:36.000Z</time>
      </trkpt>
      <trkpt lat="43.384594693779945" lon="-6.1196299362927675">
        <ele>360.2</ele>
        <time>2017-08-03T05:54:43.000Z</time>
      </trkpt>
      <trkpt lat="43.384577091783285" lon="-6.119681149721146">
        <ele>361</ele>
        <time>2017-08-03T05:54:47.000Z</time>
      </trkpt>
      <trkpt lat="43.38456988334656" lon="-6.119708810001612">
        <ele>361.4</ele>
        <time>2017-08-03T05:54:49.000Z</time>
      </trkpt>
      <trkpt lat="43.3845504373312" lon="-6.11980939283967">
        <ele>362.4</ele>
        <time>2017-08-03T05:54:56.000Z</time>
      </trkpt>
      <trkpt lat="43.384555634111166" lon="-6.119824396446347">
        <ele>362.2</ele>
        <time>2017-08-03T05:54:57.000Z</time>
      </trkpt>
      <trkpt lat="43.38455789722502" lon="-6.119884327054024">
        <ele>362</ele>
        <time>2017-08-03T05:55:01.000Z</time>
      </trkpt>
      <trkpt lat="43.38454247452319" lon="-6.119964709505439">
        <ele>362.2</ele>
        <time>2017-08-03T05:55:06.000Z</time>
      </trkpt>
      <trkpt lat="43.38452202267945" lon="-6.120082810521126">
        <ele>362.2</ele>
        <time>2017-08-03T05:55:13.000Z</time>
      </trkpt>
      <trkpt lat="43.38451288640499" lon="-6.120194457471371">
        <ele>362.2</ele>
        <time>2017-08-03T05:55:20.000Z</time>
      </trkpt>
      <trkpt lat="43.38450601324439" lon="-6.120200240984559">
        <ele>362.2</ele>
        <time>2017-08-03T05:55:21.000Z</time>
      </trkpt>
      <trkpt lat="43.38450198993087" lon="-6.120199151337147">
        <ele>362.4</ele>
        <time>2017-08-03T05:55:25.000Z</time>
      </trkpt>
      <trkpt lat="43.384513054043055" lon="-6.120198732241988">
        <ele>362.2</ele>
        <time>2017-08-03T05:55:53.000Z</time>
      </trkpt>
      <trkpt lat="43.38450341485441" lon="-6.120187835767865">
        <ele>362.4</ele>
        <time>2017-08-03T05:56:17.000Z</time>
      </trkpt>
      <trkpt lat="43.3844986371696" lon="-6.120182974264026">
        <ele>362.4</ele>
        <time>2017-08-03T05:57:01.000Z</time>
      </trkpt>
      <trkpt lat="43.384495452046394" lon="-6.120191523805261">
        <ele>362.6</ele>
        <time>2017-08-03T05:57:13.000Z</time>
      </trkpt>
      <trkpt lat="43.384491093456745" lon="-6.120192529633641">
        <ele>362.6</ele>
        <time>2017-08-03T05:57:19.000Z</time>
      </trkpt>
      <trkpt lat="43.38447902351618" lon="-6.12020225264132">
        <ele>362.8</ele>
        <time>2017-08-03T05:58:03.000Z</time>
      </trkpt>
      <trkpt lat="43.38449570350349" lon="-6.120276600122452">
        <ele>362.2</ele>
        <time>2017-08-03T05:58:38.000Z</time>
      </trkpt>
      <trkpt lat="43.38450601324439" lon="-6.1204321682453156">
        <ele>362.2</ele>
        <time>2017-08-03T05:58:48.000Z</time>
      </trkpt>
      <trkpt lat="43.38449100963771" lon="-6.120556388050318">
        <ele>364.6</ele>
        <time>2017-08-03T05:58:56.000Z</time>
      </trkpt>
      <trkpt lat="43.384495032951236" lon="-6.120565189048648">
        <ele>364.8</ele>
        <time>2017-08-03T05:58:57.000Z</time>
      </trkpt>
      <trkpt lat="43.384495032951236" lon="-6.120565189048648">
        <ele>364.8</ele>
        <time>2017-08-03T05:58:57.000Z</time>
      </trkpt>
      <trkpt lat="43.384497966617346" lon="-6.120578180998564">
        <ele>365</ele>
        <time>2017-08-03T05:59:00.000Z</time>
      </trkpt>
      <trkpt lat="43.38448338210583" lon="-6.120649510994554">
        <ele>365.2</ele>
        <time>2017-08-03T05:59:05.000Z</time>
      </trkpt>
      <trkpt lat="43.38446192443371" lon="-6.1207847110927105">
        <ele>364.4</ele>
        <time>2017-08-03T05:59:13.000Z</time>
      </trkpt>
      <trkpt lat="43.3844381198287" lon="-6.1209303047508">
        <ele>363.8</ele>
        <time>2017-08-03T05:59:22.000Z</time>
      </trkpt>
      <trkpt lat="43.384437784552574" lon="-6.1210765689611435">
        <ele>363</ele>
        <time>2017-08-03T05:59:31.000Z</time>
      </trkpt>
      <trkpt lat="43.38444013148546" lon="-6.121197938919067">
        <ele>362.4</ele>
        <time>2017-08-03T05:59:38.000Z</time>
      </trkpt>
      <trkpt lat="43.3843934442848" lon="-6.12134026363492">
        <ele>361.6</ele>
        <time>2017-08-03T05:59:47.000Z</time>
      </trkpt>
      <trkpt lat="43.38434876874089" lon="-6.121464483439922">
        <ele>360.8</ele>
        <time>2017-08-03T05:59:55.000Z</time>
      </trkpt>
      <trkpt lat="43.384306440129876" lon="-6.121576800942421">
        <ele>358.2</ele>
        <time>2017-08-03T06:00:02.000Z</time>
      </trkpt>
      <trkpt lat="43.38429797440767" lon="-6.121587613597512">
        <ele>358.2</ele>
        <time>2017-08-03T06:00:03.000Z</time>
      </trkpt>
      <trkpt lat="43.38428012095392" lon="-6.121656261384487">
        <ele>357</ele>
        <time>2017-08-03T06:00:07.000Z</time>
      </trkpt>
      <trkpt lat="43.384273163974285" lon="-6.121693644672632">
        <ele>356.4</ele>
        <time>2017-08-03T06:00:09.000Z</time>
      </trkpt>
      <trkpt lat="43.38427006267011" lon="-6.121812080964446">
        <ele>353.8</ele>
        <time>2017-08-03T06:00:16.000Z</time>
      </trkpt>
      <trkpt lat="43.38427626527846" lon="-6.121970834210515">
        <ele>350.4</ele>
        <time>2017-08-03T06:00:25.000Z</time>
      </trkpt>
      <trkpt lat="43.38430115953088" lon="-6.122135957702994">
        <ele>346.2</ele>
        <time>2017-08-03T06:00:34.000Z</time>
      </trkpt>
      <trkpt lat="43.384321024641395" lon="-6.1222731694579124">
        <ele>343</ele>
        <time>2017-08-03T06:00:41.000Z</time>
      </trkpt>
      <trkpt lat="43.38433887809515" lon="-6.122384145855904">
        <ele>341.4</ele>
        <time>2017-08-03T06:00:47.000Z</time>
      </trkpt>
      <trkpt lat="43.38436787948012" lon="-6.122500151395798">
        <ele>339.8</ele>
        <time>2017-08-03T06:00:53.000Z</time>
      </trkpt>
      <trkpt lat="43.384431917220354" lon="-6.122634010389447">
        <ele>338.6</ele>
        <time>2017-08-03T06:01:01.000Z</time>
      </trkpt>
      <trkpt lat="43.38450509123504" lon="-6.122756972908974">
        <ele>338</ele>
        <time>2017-08-03T06:01:09.000Z</time>
      </trkpt>
      <trkpt lat="43.38458027690649" lon="-6.122906841337681">
        <ele>336.8</ele>
        <time>2017-08-03T06:01:18.000Z</time>
      </trkpt>
      <trkpt lat="43.38463207706809" lon="-6.1230656784027815">
        <ele>334.6</ele>
        <time>2017-08-03T06:01:27.000Z</time>
      </trkpt>
      <trkpt lat="43.384669879451394" lon="-6.123202135786414">
        <ele>333.8</ele>
        <time>2017-08-03T06:01:35.000Z</time>
      </trkpt>
      <trkpt lat="43.38471120223403" lon="-6.123341610655189">
        <ele>333.2</ele>
        <time>2017-08-03T06:01:43.000Z</time>
      </trkpt>
      <trkpt lat="43.38474640622735" lon="-6.12348728813231">
        <ele>332.6</ele>
        <time>2017-08-03T06:01:51.000Z</time>
      </trkpt>
      <trkpt lat="43.3847782574594" lon="-6.123595414683223">
        <ele>330.6</ele>
        <time>2017-08-03T06:01:58.000Z</time>
      </trkpt>
      <trkpt lat="43.38484715670347" lon="-6.123765232041478">
        <ele>327</ele>
        <time>2017-08-03T06:02:08.000Z</time>
      </trkpt>
      <trkpt lat="43.38491823524237" lon="-6.123888613656163">
        <ele>324.6</ele>
        <time>2017-08-03T06:02:17.000Z</time>
      </trkpt>
      <trkpt lat="43.38500046171248" lon="-6.124002439901233">
        <ele>323.4</ele>
        <time>2017-08-03T06:02:26.000Z</time>
      </trkpt>
      <trkpt lat="43.38507137261331" lon="-6.124131018295884">
        <ele>320.4</ele>
        <time>2017-08-03T06:02:35.000Z</time>
      </trkpt>
      <trkpt lat="43.385130716487765" lon="-6.124268230050802">
        <ele>316</ele>
        <time>2017-08-03T06:02:44.000Z</time>
      </trkpt>
      <trkpt lat="43.385201543569565" lon="-6.124441986903548">
        <ele>312.8</ele>
        <time>2017-08-03T06:02:55.000Z</time>
      </trkpt>
      <trkpt lat="43.385249990969896" lon="-6.124591855332255">
        <ele>310.4</ele>
        <time>2017-08-03T06:03:04.000Z</time>
      </trkpt>
      <trkpt lat="43.3852862007916" lon="-6.1247284803539515">
        <ele>307.8</ele>
        <time>2017-08-03T06:03:12.000Z</time>
      </trkpt>
      <trkpt lat="43.38534043170512" lon="-6.124900225549936">
        <ele>306.2</ele>
        <time>2017-08-03T06:03:22.000Z</time>
      </trkpt>
      <trkpt lat="43.38538074865937" lon="-6.124993097037077">
        <ele>305.8</ele>
        <time>2017-08-03T06:03:28.000Z</time>
      </trkpt>
      <trkpt lat="43.38542106561363" lon="-6.12513299100101">
        <ele>304.6</ele>
        <time>2017-08-03T06:03:36.000Z</time>
      </trkpt>
      <trkpt lat="43.385453252121806" lon="-6.125276321545243">
        <ele>303.2</ele>
        <time>2017-08-03T06:03:44.000Z</time>
      </trkpt>
      <trkpt lat="43.38547445833683" lon="-6.125366929918528">
        <ele>301.2</ele>
        <time>2017-08-03T06:03:49.000Z</time>
      </trkpt>
      <trkpt lat="43.385485941544175" lon="-6.125395093113184">
        <ele>300.6</ele>
        <time>2017-08-03T06:03:51.000Z</time>
      </trkpt>
      <trkpt lat="43.38550077751279" lon="-6.125421077013016">
        <ele>300.2</ele>
        <time>2017-08-03T06:03:53.000Z</time>
      </trkpt>
      <trkpt lat="43.38552139699459" lon="-6.125451503321528">
        <ele>299.6</ele>
        <time>2017-08-03T06:03:56.000Z</time>
      </trkpt>
      <trkpt lat="43.385532293468714" lon="-6.125476397573948">
        <ele>299.2</ele>
        <time>2017-08-03T06:03:58.000Z</time>
      </trkpt>
      <trkpt lat="43.385563138872385" lon="-6.125524677336216">
        <ele>298.4</ele>
        <time>2017-08-03T06:04:02.000Z</time>
      </trkpt>
      <trkpt lat="43.38556548580527" lon="-6.125536328181624">
        <ele>298</ele>
        <time>2017-08-03T06:04:03.000Z</time>
      </trkpt>
      <trkpt lat="43.385565569624305" lon="-6.125544626265764">
        <ele>297.8</ele>
        <time>2017-08-03T06:04:04.000Z</time>
      </trkpt>
      <trkpt lat="43.38559306226671" lon="-6.125584105029702">
        <ele>297.2</ele>
        <time>2017-08-03T06:04:10.000Z</time>
      </trkpt>
      <trkpt lat="43.385656010359526" lon="-6.125711426138878">
        <ele>296.2</ele>
        <time>2017-08-03T06:04:19.000Z</time>
      </trkpt>
      <trkpt lat="43.385716611519456" lon="-6.125841177999973">
        <ele>295.6</ele>
        <time>2017-08-03T06:04:27.000Z</time>
      </trkpt>
      <trkpt lat="43.385784504935145" lon="-6.125961458310485">
        <ele>292.8</ele>
        <time>2017-08-03T06:04:35.000Z</time>
      </trkpt>
      <trkpt lat="43.385859774425626" lon="-6.126099172979593">
        <ele>289.2</ele>
        <time>2017-08-03T06:04:44.000Z</time>
      </trkpt>
      <trkpt lat="43.38594845496118" lon="-6.126250298693776">
        <ele>285.4</ele>
        <time>2017-08-03T06:04:54.000Z</time>
      </trkpt>
      <trkpt lat="43.386030765250325" lon="-6.1263735964894295">
        <ele>282.8</ele>
        <time>2017-08-03T06:05:03.000Z</time>
      </trkpt>
      <trkpt lat="43.38611374609172" lon="-6.126496475189924">
        <ele>280.8</ele>
        <time>2017-08-03T06:05:12.000Z</time>
      </trkpt>
      <trkpt lat="43.38620745576918" lon="-6.126612648367882">
        <ele>280.2</ele>
        <time>2017-08-03T06:05:21.000Z</time>
      </trkpt>
      <trkpt lat="43.38630183599889" lon="-6.126720272004604">
        <ele>279.6</ele>
        <time>2017-08-03T06:05:30.000Z</time>
      </trkpt>
      <trkpt lat="43.38643024675548" lon="-6.126873409375548">
        <ele>278</ele>
        <time>2017-08-03T06:05:42.000Z</time>
      </trkpt>
      <trkpt lat="43.38653619401157" lon="-6.126995198428631">
        <ele>274.2</ele>
        <time>2017-08-03T06:05:52.000Z</time>
      </trkpt>
      <trkpt lat="43.38664926588535" lon="-6.1271090246737">
        <ele>270.8</ele>
        <time>2017-08-03T06:06:02.000Z</time>
      </trkpt>
      <trkpt lat="43.38673308491707" lon="-6.127173649147153">
        <ele>269</ele>
        <time>2017-08-03T06:06:09.000Z</time>
      </trkpt>
      <trkpt lat="43.38683919981122" lon="-6.127233412116766">
        <ele>267</ele>
        <time>2017-08-03T06:06:17.000Z</time>
      </trkpt>
      <trkpt lat="43.386961659416556" lon="-6.1272609885782">
        <ele>266</ele>
        <time>2017-08-03T06:06:26.000Z</time>
      </trkpt>
      <trkpt lat="43.38698823004961" lon="-6.127245146781206">
        <ele>266.4</ele>
        <time>2017-08-03T06:06:29.000Z</time>
      </trkpt>
      <trkpt lat="43.38701714761555" lon="-6.127214469015598">
        <ele>267</ele>
        <time>2017-08-03T06:06:32.000Z</time>
      </trkpt>
      <trkpt lat="43.38708696886897" lon="-6.127157388255">
        <ele>268.2</ele>
        <time>2017-08-03T06:06:38.000Z</time>
      </trkpt>
      <trkpt lat="43.3871095161885" lon="-6.127132494002581">
        <ele>268.6</ele>
        <time>2017-08-03T06:06:40.000Z</time>
      </trkpt>
      <trkpt lat="43.38718327693641" lon="-6.127076670527458">
        <ele>269.8</ele>
        <time>2017-08-03T06:06:46.000Z</time>
      </trkpt>
      <trkpt lat="43.38725896552205" lon="-6.127010118216276">
        <ele>271</ele>
        <time>2017-08-03T06:06:53.000Z</time>
      </trkpt>
      <trkpt lat="43.387346137315035" lon="-6.126922778785229">
        <ele>272.8</ele>
        <time>2017-08-03T06:07:01.000Z</time>
      </trkpt>
      <trkpt lat="43.38743347674608" lon="-6.126869972795248">
        <ele>274</ele>
        <time>2017-08-03T06:07:09.000Z</time>
      </trkpt>
      <trkpt lat="43.387435907498" lon="-6.126864859834313">
        <ele>274</ele>
        <time>2017-08-03T06:07:16.000Z</time>
      </trkpt>
      <trkpt lat="43.38749206624925" lon="-6.126895705237985">
        <ele>273.2</ele>
        <time>2017-08-03T06:07:25.000Z</time>
      </trkpt>
      <trkpt lat="43.38753757998347" lon="-6.1269785184413195">
        <ele>271.4</ele>
        <time>2017-08-03T06:07:30.000Z</time>
      </trkpt>
      <trkpt lat="43.38758175261319" lon="-6.127118831500411">
        <ele>268.4</ele>
        <time>2017-08-03T06:07:38.000Z</time>
      </trkpt>
      <trkpt lat="43.38761704042554" lon="-6.127242129296064">
        <ele>265.6</ele>
        <time>2017-08-03T06:07:45.000Z</time>
      </trkpt>
      <trkpt lat="43.38765291497111" lon="-6.127377832308412">
        <ele>263.4</ele>
        <time>2017-08-03T06:07:52.000Z</time>
      </trkpt>
      <trkpt lat="43.38769029825926" lon="-6.127493586391211">
        <ele>262.6</ele>
        <time>2017-08-03T06:07:59.000Z</time>
      </trkpt>
      <trkpt lat="43.38772701099515" lon="-6.127632223069668">
        <ele>261.6</ele>
        <time>2017-08-03T06:08:07.000Z</time>
      </trkpt>
      <trkpt lat="43.3877469599247" lon="-6.127739092335105">
        <ele>260.4</ele>
        <time>2017-08-03T06:08:13.000Z</time>
      </trkpt>
      <trkpt lat="43.3877744525671" lon="-6.127892229706049">
        <ele>258.8</ele>
        <time>2017-08-03T06:08:22.000Z</time>
      </trkpt>
      <trkpt lat="43.38779892772436" lon="-6.128053329885006">
        <ele>256.6</ele>
        <time>2017-08-03T06:08:31.000Z</time>
      </trkpt>
      <trkpt lat="43.38779741898179" lon="-6.128196325153112">
        <ele>254</ele>
        <time>2017-08-03T06:08:39.000Z</time>
      </trkpt>
      <trkpt lat="43.38778560049832" lon="-6.128308642655611">
        <ele>251.8</ele>
        <time>2017-08-03T06:08:46.000Z</time>
      </trkpt>
      <trkpt lat="43.38778870180249" lon="-6.128402268514037">
        <ele>250.4</ele>
        <time>2017-08-03T06:08:52.000Z</time>
      </trkpt>
      <trkpt lat="43.38778752833605" lon="-6.128407632932067">
        <ele>250.2</ele>
        <time>2017-08-03T06:08:58.000Z</time>
      </trkpt>
      <trkpt lat="43.38778417557478" lon="-6.1284121591597795">
        <ele>250</ele>
        <time>2017-08-03T06:09:11.000Z</time>
      </trkpt>
      <trkpt lat="43.38780169375241" lon="-6.128374105319381">
        <ele>251.2</ele>
        <time>2017-08-03T06:09:40.000Z</time>
      </trkpt>
      <trkpt lat="43.387801023200154" lon="-6.128366896882653">
        <ele>251.2</ele>
        <time>2017-08-03T06:09:53.000Z</time>
      </trkpt>
      <trkpt lat="43.38780311867595" lon="-6.12832716666162">
        <ele>252</ele>
        <time>2017-08-03T06:10:20.000Z</time>
      </trkpt>
      <trkpt lat="43.38780119083822" lon="-6.128322975710034">
        <ele>252</ele>
        <time>2017-08-03T06:10:25.000Z</time>
      </trkpt>
      <trkpt lat="43.3878109138459" lon="-6.128330267965794">
        <ele>252.2</ele>
        <time>2017-08-03T06:10:36.000Z</time>
      </trkpt>
      <trkpt lat="43.3878212235868" lon="-6.128357006236911">
        <ele>252</ele>
        <time>2017-08-03T06:11:08.000Z</time>
      </trkpt>
      <trkpt lat="43.38781736791134" lon="-6.128369579091668">
        <ele>251.6</ele>
        <time>2017-08-03T06:11:20.000Z</time>
      </trkpt>
      <trkpt lat="43.38779884390533" lon="-6.128379218280315">
        <ele>251</ele>
        <time>2017-08-03T06:13:28.000Z</time>
      </trkpt>
      <trkpt lat="43.38780026882887" lon="-6.128380643203855">
        <ele>251</ele>
        <time>2017-08-03T06:13:33.000Z</time>
      </trkpt>
      <trkpt lat="43.3877985086292" lon="-6.128393216058612">
        <ele>250.8</ele>
        <time>2017-08-03T06:13:57.000Z</time>
      </trkpt>
      <trkpt lat="43.38780244812369" lon="-6.128464043140411">
        <ele>249.6</ele>
        <time>2017-08-03T06:14:22.000Z</time>
      </trkpt>
      <trkpt lat="43.38779599405825" lon="-6.128473849967122">
        <ele>249.4</ele>
        <time>2017-08-03T06:14:23.000Z</time>
      </trkpt>
      <trkpt lat="43.38779238983989" lon="-6.128540905192494">
        <ele>248.2</ele>
        <time>2017-08-03T06:14:27.000Z</time>
      </trkpt>
      <trkpt lat="43.387791719287634" lon="-6.12857979722321">
        <ele>247.4</ele>
        <time>2017-08-03T06:14:29.000Z</time>
      </trkpt>
      <trkpt lat="43.38778853416443" lon="-6.128709968179464">
        <ele>245.2</ele>
        <time>2017-08-03T06:14:36.000Z</time>
      </trkpt>
      <trkpt lat="43.38781242258847" lon="-6.128877773880959">
        <ele>242.6</ele>
        <time>2017-08-03T06:14:45.000Z</time>
      </trkpt>
      <trkpt lat="43.387869419530034" lon="-6.129018170759082">
        <ele>242</ele>
        <time>2017-08-03T06:14:53.000Z</time>
      </trkpt>
      <trkpt lat="43.387946113944054" lon="-6.129122860729694">
        <ele>242.4</ele>
        <time>2017-08-03T06:15:01.000Z</time>
      </trkpt>
      <trkpt lat="43.38803739286959" lon="-6.129202237352729">
        <ele>243.6</ele>
        <time>2017-08-03T06:15:09.000Z</time>
      </trkpt>
      <trkpt lat="43.388144513592124" lon="-6.129317991435528">
        <ele>244</ele>
        <time>2017-08-03T06:15:19.000Z</time>
      </trkpt>
      <trkpt lat="43.388228584080935" lon="-6.129472889006138">
        <ele>241.4</ele>
        <time>2017-08-03T06:15:29.000Z</time>
      </trkpt>
      <trkpt lat="43.388242246583104" lon="-6.129507087171078">
        <ele>240.8</ele>
        <time>2017-08-03T06:15:31.000Z</time>
      </trkpt>
      <trkpt lat="43.38827929459512" lon="-6.129612363874912">
        <ele>238.6</ele>
        <time>2017-08-03T06:15:37.000Z</time>
      </trkpt>
      <trkpt lat="43.38832765817642" lon="-6.12978620454669">
        <ele>235.6</ele>
        <time>2017-08-03T06:15:47.000Z</time>
      </trkpt>
      <trkpt lat="43.38836034759879" lon="-6.129925595596433">
        <ele>236</ele>
        <time>2017-08-03T06:15:55.000Z</time>
      </trkpt>
      <trkpt lat="43.38840032927692" lon="-6.130106812343001">
        <ele>231.2</ele>
        <time>2017-08-03T06:16:05.000Z</time>
      </trkpt>
      <trkpt lat="43.388435784727335" lon="-6.130270091816783">
        <ele>226.6</ele>
        <time>2017-08-03T06:16:14.000Z</time>
      </trkpt>
      <trkpt lat="43.388476353138685" lon="-6.130430521443486">
        <ele>222</ele>
        <time>2017-08-03T06:16:23.000Z</time>
      </trkpt>
      <trkpt lat="43.3885429892689" lon="-6.1305748578161">
        <ele>218.6</ele>
        <time>2017-08-03T06:16:32.000Z</time>
      </trkpt>
      <trkpt lat="43.388651618734" lon="-6.130673512816429">
        <ele>217.8</ele>
        <time>2017-08-03T06:16:42.000Z</time>
      </trkpt>
      <trkpt lat="43.388743652030826" lon="-6.130698239430785">
        <ele>217.8</ele>
        <time>2017-08-03T06:16:49.000Z</time>
      </trkpt>
      <trkpt lat="43.388861836865544" lon="-6.13066672347486">
        <ele>218</ele>
        <time>2017-08-03T06:16:58.000Z</time>
      </trkpt>
      <trkpt lat="43.38894817046821" lon="-6.13062372431159">
        <ele>218.4</ele>
        <time>2017-08-03T06:17:05.000Z</time>
      </trkpt>
      <trkpt lat="43.389059817418456" lon="-6.130567062646151">
        <ele>219.4</ele>
        <time>2017-08-03T06:17:14.000Z</time>
      </trkpt>
      <trkpt lat="43.38912192732096" lon="-6.130558680742979">
        <ele>219.6</ele>
        <time>2017-08-03T06:17:19.000Z</time>
      </trkpt>
      <trkpt lat="43.38921337388456" lon="-6.130586005747318">
        <ele>219.2</ele>
        <time>2017-08-03T06:17:26.000Z</time>
      </trkpt>
      <trkpt lat="43.389218989759684" lon="-6.130602182820439">
        <ele>219</ele>
        <time>2017-08-03T06:17:27.000Z</time>
      </trkpt>
      <trkpt lat="43.38922401890159" lon="-6.130612324923277">
        <ele>218.8</ele>
        <time>2017-08-03T06:17:31.000Z</time>
      </trkpt>
      <trkpt lat="43.38923432864249" lon="-6.130692958831787">
        <ele>218.4</ele>
        <time>2017-08-03T06:17:39.000Z</time>
      </trkpt>
      <trkpt lat="43.389197112992406" lon="-6.130860932171345">
        <ele>216</ele>
        <time>2017-08-03T06:17:49.000Z</time>
      </trkpt>
      <trkpt lat="43.389176493510604" lon="-6.130999820306897">
        <ele>214</ele>
        <time>2017-08-03T06:17:57.000Z</time>
      </trkpt>
      <trkpt lat="43.38916517794132" lon="-6.131134266033769">
        <ele>212</ele>
        <time>2017-08-03T06:18:05.000Z</time>
      </trkpt>
      <trkpt lat="43.38915713131428" lon="-6.131269549950957">
        <ele>210</ele>
        <time>2017-08-03T06:18:12.000Z</time>
      </trkpt>
      <trkpt lat="43.38919250294566" lon="-6.131445737555623">
        <ele>207</ele>
        <time>2017-08-03T06:18:22.000Z</time>
      </trkpt>
      <trkpt lat="43.3892560377717" lon="-6.13158973865211">
        <ele>205.4</ele>
        <time>2017-08-03T06:18:31.000Z</time>
      </trkpt>
      <trkpt lat="43.38932585902512" lon="-6.131678000092506">
        <ele>203.2</ele>
        <time>2017-08-03T06:18:38.000Z</time>
      </trkpt>
      <trkpt lat="43.38940364308655" lon="-6.13174363039434">
        <ele>203.4</ele>
        <time>2017-08-03T06:18:45.000Z</time>
      </trkpt>
      <trkpt lat="43.389498610049486" lon="-6.131854020059109">
        <ele>203.2</ele>
        <time>2017-08-03T06:18:55.000Z</time>
      </trkpt>
      <trkpt lat="43.389564575627446" lon="-6.131925098598003">
        <ele>203.2</ele>
        <time>2017-08-03T06:19:02.000Z</time>
      </trkpt>
      <trkpt lat="43.389638755470514" lon="-6.131994081661105">
        <ele>203.2</ele>
        <time>2017-08-03T06:19:09.000Z</time>
      </trkpt>
      <trkpt lat="43.389704301953316" lon="-6.132077481597662">
        <ele>202.6</ele>
        <time>2017-08-03T06:19:16.000Z</time>
      </trkpt>
      <trkpt lat="43.389807315543294" lon="-6.132184937596321">
        <ele>202</ele>
        <time>2017-08-03T06:19:26.000Z</time>
      </trkpt>
      <trkpt lat="43.389896750450134" lon="-6.132318042218685">
        <ele>201.2</ele>
        <time>2017-08-03T06:19:36.000Z</time>
      </trkpt>
      <trkpt lat="43.389922734349966" lon="-6.132490960881114">
        <ele>200.2</ele>
        <time>2017-08-03T06:19:46.000Z</time>
      </trkpt>
      <trkpt lat="43.38990831747651" lon="-6.1326374765485525">
        <ele>198.6</ele>
        <time>2017-08-03T06:19:54.000Z</time>
      </trkpt>
      <trkpt lat="43.389879148453474" lon="-6.1328404024243355">
        <ele>196.2</ele>
        <time>2017-08-03T06:20:05.000Z</time>
      </trkpt>
      <trkpt lat="43.38987495750189" lon="-6.132981218397617">
        <ele>194.6</ele>
        <time>2017-08-03T06:20:13.000Z</time>
      </trkpt>
      <trkpt lat="43.389887949451804" lon="-6.133124716579914">
        <ele>193.2</ele>
        <time>2017-08-03T06:20:21.000Z</time>
      </trkpt>
      <trkpt lat="43.38990395888686" lon="-6.1332665383815765">
        <ele>192.2</ele>
        <time>2017-08-03T06:20:29.000Z</time>
      </trkpt>
      <trkpt lat="43.38991502299905" lon="-6.133374832570553">
        <ele>191.2</ele>
        <time>2017-08-03T06:20:35.000Z</time>
      </trkpt>
      <trkpt lat="43.38992181234062" lon="-6.133513217791915">
        <ele>190</ele>
        <time>2017-08-03T06:20:43.000Z</time>
      </trkpt>
      <trkpt lat="43.38993857614696" lon="-6.133652525022626">
        <ele>188.8</ele>
        <time>2017-08-03T06:20:51.000Z</time>
      </trkpt>
      <trkpt lat="43.389955423772335" lon="-6.133776661008596">
        <ele>187.6</ele>
        <time>2017-08-03T06:20:58.000Z</time>
      </trkpt>
      <trkpt lat="43.389983251690865" lon="-6.133936420083046">
        <ele>186.2</ele>
        <time>2017-08-03T06:21:07.000Z</time>
      </trkpt>
      <trkpt lat="43.39000546373427" lon="-6.1340959277004">
        <ele>185.4</ele>
        <time>2017-08-03T06:21:16.000Z</time>
      </trkpt>
      <trkpt lat="43.39004762470722" lon="-6.134242527186871">
        <ele>184</ele>
        <time>2017-08-03T06:21:25.000Z</time>
      </trkpt>
      <trkpt lat="43.3900779671967" lon="-6.1343638971447945">
        <ele>183</ele>
        <time>2017-08-03T06:21:32.000Z</time>
      </trkpt>
      <trkpt lat="43.390143094584346" lon="-6.134569840505719">
        <ele>181</ele>
        <time>2017-08-03T06:21:44.000Z</time>
      </trkpt>
      <trkpt lat="43.39018173515797" lon="-6.134701939299703">
        <ele>180.2</ele>
        <time>2017-08-03T06:21:52.000Z</time>
      </trkpt>
      <trkpt lat="43.39019933715463" lon="-6.134776119142771">
        <ele>179.2</ele>
        <time>2017-08-03T06:21:56.000Z</time>
      </trkpt>
      <trkpt lat="43.39020939543843" lon="-6.134807467460632">
        <ele>179.2</ele>
        <time>2017-08-03T06:21:58.000Z</time>
      </trkpt>
      <trkpt lat="43.39024409651756" lon="-6.1349322739988565">
        <ele>178.4</ele>
        <time>2017-08-03T06:22:05.000Z</time>
      </trkpt>
      <trkpt lat="43.39032707735896" lon="-6.135081723332405">
        <ele>177.8</ele>
        <time>2017-08-03T06:22:15.000Z</time>
      </trkpt>
      <trkpt lat="43.3904268220067" lon="-6.13520217128098">
        <ele>177.6</ele>
        <time>2017-08-03T06:22:25.000Z</time>
      </trkpt>
      <trkpt lat="43.39052296243608" lon="-6.135261012241244">
        <ele>177.6</ele>
        <time>2017-08-03T06:22:33.000Z</time>
      </trkpt>
      <trkpt lat="43.39053746312857" lon="-6.135265454649925">
        <ele>177.6</ele>
        <time>2017-08-03T06:22:34.000Z</time>
      </trkpt>
      <trkpt lat="43.39060787111521" lon="-6.135320859029889">
        <ele>177.2</ele>
        <time>2017-08-03T06:22:40.000Z</time>
      </trkpt>
      <trkpt lat="43.39063192717731" lon="-6.135337958112359">
        <ele>177</ele>
        <time>2017-08-03T06:22:42.000Z</time>
      </trkpt>
      <trkpt lat="43.3907291572541" lon="-6.135423872619867">
        <ele>176.4</ele>
        <time>2017-08-03T06:22:51.000Z</time>
      </trkpt>
      <trkpt lat="43.39079319499433" lon="-6.135497884824872">
        <ele>175.8</ele>
        <time>2017-08-03T06:22:58.000Z</time>
      </trkpt>
      <trkpt lat="43.390848180279136" lon="-6.13556670024991">
        <ele>175</ele>
        <time>2017-08-03T06:23:04.000Z</time>
      </trkpt>
      <trkpt lat="43.39089964516461" lon="-6.13565512932837">
        <ele>174.6</ele>
        <time>2017-08-03T06:23:10.000Z</time>
      </trkpt>
      <trkpt lat="43.39094515889883" lon="-6.135796196758747">
        <ele>173.2</ele>
        <time>2017-08-03T06:23:18.000Z</time>
      </trkpt>
      <trkpt lat="43.39097265154123" lon="-6.135964589193463">
        <ele>171.6</ele>
        <time>2017-08-03T06:23:27.000Z</time>
      </trkpt>
      <trkpt lat="43.39105010032654" lon="-6.136110266670585">
        <ele>170.4</ele>
        <time>2017-08-03T06:23:37.000Z</time>
      </trkpt>
      <trkpt lat="43.39113777503371" lon="-6.136243203654885">
        <ele>169.6</ele>
        <time>2017-08-03T06:23:47.000Z</time>
      </trkpt>
      <trkpt lat="43.391219079494476" lon="-6.1363473907113075">
        <ele>169</ele>
        <time>2017-08-03T06:23:55.000Z</time>
      </trkpt>
      <trkpt lat="43.39132075197995" lon="-6.136477896943688">
        <ele>168.2</ele>
        <time>2017-08-03T06:24:05.000Z</time>
      </trkpt>
      <trkpt lat="43.39143424294889" lon="-6.136615611612797">
        <ele>167.6</ele>
        <time>2017-08-03T06:24:16.000Z</time>
      </trkpt>
      <trkpt lat="43.391544967889786" lon="-6.136754667386413">
        <ele>167</ele>
        <time>2017-08-03T06:24:27.000Z</time>
      </trkpt>
      <trkpt lat="43.39164831675589" lon="-6.136901685968041">
        <ele>166</ele>
        <time>2017-08-03T06:24:38.000Z</time>
      </trkpt>
      <trkpt lat="43.39175032451749" lon="-6.1370256543159485">
        <ele>165.2</ele>
        <time>2017-08-03T06:24:48.000Z</time>
      </trkpt>
      <trkpt lat="43.39184369891882" lon="-6.137164542451501">
        <ele>164.2</ele>
        <time>2017-08-03T06:24:58.000Z</time>
      </trkpt>
      <trkpt lat="43.391939252614975" lon="-6.13726856186986">
        <ele>163.4</ele>
        <time>2017-08-03T06:25:07.000Z</time>
      </trkpt>
      <trkpt lat="43.39202902279794" lon="-6.137377442792058">
        <ele>162.6</ele>
        <time>2017-08-03T06:25:16.000Z</time>
      </trkpt>
      <trkpt lat="43.39210261590779" lon="-6.137478863820434">
        <ele>161.8</ele>
        <time>2017-08-03T06:25:24.000Z</time>
      </trkpt>
      <trkpt lat="43.39217369444668" lon="-6.137604340910912">
        <ele>160.6</ele>
        <time>2017-08-03T06:25:33.000Z</time>
      </trkpt>
      <trkpt lat="43.39223957620561" lon="-6.137712970376015">
        <ele>159.8</ele>
        <time>2017-08-03T06:25:41.000Z</time>
      </trkpt>
      <trkpt lat="43.392241755500436" lon="-6.137811709195375">
        <ele>159.2</ele>
        <time>2017-08-03T06:25:47.000Z</time>
      </trkpt>
      <trkpt lat="43.39215936139226" lon="-6.137885889038444">
        <ele>158.2</ele>
        <time>2017-08-03T06:25:55.000Z</time>
      </trkpt>
      <trkpt lat="43.39205626398325" lon="-6.137932240962982">
        <ele>157.4</ele>
        <time>2017-08-03T06:26:03.000Z</time>
      </trkpt>
      <trkpt lat="43.391931373625994" lon="-6.137989740818739">
        <ele>156.4</ele>
        <time>2017-08-03T06:26:13.000Z</time>
      </trkpt>
      <trkpt lat="43.39179592207074" lon="-6.138041038066149">
        <ele>155.6</ele>
        <time>2017-08-03T06:26:24.000Z</time>
      </trkpt>
      <trkpt lat="43.391657872125506" lon="-6.138081941753626">
        <ele>155.4</ele>
        <time>2017-08-03T06:26:35.000Z</time>
      </trkpt>
      <trkpt lat="43.39156189933419" lon="-6.138130556792021">
        <ele>155.6</ele>
        <time>2017-08-03T06:26:43.000Z</time>
      </trkpt>
      <trkpt lat="43.39146064594388" lon="-6.138110859319568">
        <ele>155.4</ele>
        <time>2017-08-03T06:26:51.000Z</time>
      </trkpt>
      <trkpt lat="43.39143709279597" lon="-6.1381041537970304">
        <ele>155.4</ele>
        <time>2017-08-03T06:26:53.000Z</time>
      </trkpt>
      <trkpt lat="43.39134715497494" lon="-6.138078169897199">
        <ele>155.8</ele>
        <time>2017-08-03T06:27:00.000Z</time>
      </trkpt>
      <trkpt lat="43.39125948026776" lon="-6.138060903176665">
        <ele>156</ele>
        <time>2017-08-03T06:27:07.000Z</time>
      </trkpt>
      <trkpt lat="43.391162334010005" lon="-6.138046234846115">
        <ele>156.4</ele>
        <time>2017-08-03T06:27:15.000Z</time>
      </trkpt>
      <trkpt lat="43.391038198024035" lon="-6.138072134926915">
        <ele>156.2</ele>
        <time>2017-08-03T06:27:25.000Z</time>
      </trkpt>
      <trkpt lat="43.39095203205943" lon="-6.138118905946612">
        <ele>156.8</ele>
        <time>2017-08-03T06:27:32.000Z</time>
      </trkpt>
      <trkpt lat="43.39091154746711" lon="-6.138164084404707">
        <ele>158.4</ele>
        <time>2017-08-03T06:27:36.000Z</time>
      </trkpt>
      <trkpt lat="43.39090442284942" lon="-6.13820138387382">
        <ele>159.2</ele>
        <time>2017-08-03T06:27:39.000Z</time>
      </trkpt>
      <trkpt lat="43.390907775610685" lon="-6.138213369995356">
        <ele>159.2</ele>
        <time>2017-08-03T06:27:40.000Z</time>
      </trkpt>
      <trkpt lat="43.390903919935226" lon="-6.138314791023731">
        <ele>160.2</ele>
        <time>2017-08-03T06:27:46.000Z</time>
      </trkpt>
      <trkpt lat="43.390837367624044" lon="-6.138454182073474">
        <ele>163.6</ele>
        <time>2017-08-03T06:27:55.000Z</time>
      </trkpt>
      <trkpt lat="43.390809120610356" lon="-6.13851310685277">
        <ele>164.8</ele>
        <time>2017-08-03T06:28:00.000Z</time>
      </trkpt>
      <trkpt lat="43.39080836623907" lon="-6.138528361916542">
        <ele>165</ele>
        <time>2017-08-03T06:28:01.000Z</time>
      </trkpt>
      <trkpt lat="43.390819346532226" lon="-6.138586029410362">
        <ele>165.2</ele>
        <time>2017-08-03T06:28:05.000Z</time>
      </trkpt>
      <trkpt lat="43.390825213864446" lon="-6.1386036314070225">
        <ele>165.2</ele>
        <time>2017-08-03T06:28:06.000Z</time>
      </trkpt>
      <trkpt lat="43.39084055274725" lon="-6.138687031343579">
        <ele>165.6</ele>
        <time>2017-08-03T06:28:11.000Z</time>
      </trkpt>
      <trkpt lat="43.39084658771753" lon="-6.138722654432058">
        <ele>165.8</ele>
        <time>2017-08-03T06:28:14.000Z</time>
      </trkpt>
      <trkpt lat="43.39087575674057" lon="-6.138752494007349">
        <ele>165.2</ele>
        <time>2017-08-03T06:28:18.000Z</time>
      </trkpt>
      <trkpt lat="43.39091490022838" lon="-6.138797756284475">
        <ele>164.6</ele>
        <time>2017-08-03T06:28:23.000Z</time>
      </trkpt>
      <trkpt lat="43.390973741188645" lon="-6.138820135965943">
        <ele>163</ele>
        <time>2017-08-03T06:28:28.000Z</time>
      </trkpt>
      <trkpt lat="43.391023026779294" lon="-6.138881575316191">
        <ele>163.4</ele>
        <time>2017-08-03T06:28:34.000Z</time>
      </trkpt>
      <trkpt lat="43.39108010753989" lon="-6.138930190354586">
        <ele>162.6</ele>
        <time>2017-08-03T06:28:39.000Z</time>
      </trkpt>
      <trkpt lat="43.39110994711518" lon="-6.13899439573288">
        <ele>162.8</ele>
        <time>2017-08-03T06:28:44.000Z</time>
      </trkpt>
      <trkpt lat="43.39115864597261" lon="-6.139059690758586">
        <ele>162.8</ele>
        <time>2017-08-03T06:28:49.000Z</time>
      </trkpt>
      <trkpt lat="43.391160825267434" lon="-6.139077544212341">
        <ele>163</ele>
        <time>2017-08-03T06:28:50.000Z</time>
      </trkpt>
      <trkpt lat="43.391183372586966" lon="-6.139140911400318">
        <ele>163.6</ele>
        <time>2017-08-03T06:28:54.000Z</time>
      </trkpt>
      <trkpt lat="43.39120130985975" lon="-6.139174019917846">
        <ele>163.6</ele>
        <time>2017-08-03T06:28:56.000Z</time>
      </trkpt>
      <trkpt lat="43.3912056684494" lon="-6.139231771230698">
        <ele>164.4</ele>
        <time>2017-08-03T06:28:59.000Z</time>
      </trkpt>
      <trkpt lat="43.39121472090483" lon="-6.139243422076106">
        <ele>164.4</ele>
        <time>2017-08-03T06:29:00.000Z</time>
      </trkpt>
      <trkpt lat="43.39123877696693" lon="-6.139295976608992">
        <ele>164.8</ele>
        <time>2017-08-03T06:29:04.000Z</time>
      </trkpt>
      <trkpt lat="43.39125595986843" lon="-6.139322463423014">
        <ele>164.8</ele>
        <time>2017-08-03T06:29:06.000Z</time>
      </trkpt>
      <trkpt lat="43.39128957130015" lon="-6.139396643266082">
        <ele>165.2</ele>
        <time>2017-08-03T06:29:12.000Z</time>
      </trkpt>
      <trkpt lat="43.39129317551851" lon="-6.139410557225347">
        <ele>165.4</ele>
        <time>2017-08-03T06:29:13.000Z</time>
      </trkpt>
      <trkpt lat="43.39130281470716" lon="-6.139452299103141">
        <ele>165.8</ele>
        <time>2017-08-03T06:29:16.000Z</time>
      </trkpt>
      <trkpt lat="43.391305496916175" lon="-6.139508290216327">
        <ele>165.6</ele>
        <time>2017-08-03T06:29:20.000Z</time>
      </trkpt>
      <trkpt lat="43.391308430582285" lon="-6.139520276337862">
        <ele>165.6</ele>
        <time>2017-08-03T06:29:21.000Z</time>
      </trkpt>
      <trkpt lat="43.391312872990966" lon="-6.139578195288777">
        <ele>165.4</ele>
        <time>2017-08-03T06:29:27.000Z</time>
      </trkpt>
      <trkpt lat="43.391316309571266" lon="-6.139623038470745">
        <ele>165.2</ele>
        <time>2017-08-03T06:29:31.000Z</time>
      </trkpt>
      <trkpt lat="43.39131220243871" lon="-6.139670563861728">
        <ele>165.2</ele>
        <time>2017-08-03T06:29:35.000Z</time>
      </trkpt>
      <trkpt lat="43.39131949469447" lon="-6.139700738713145">
        <ele>165</ele>
        <time>2017-08-03T06:29:37.000Z</time>
      </trkpt>
      <trkpt lat="43.39133944362402" lon="-6.139776175841689">
        <ele>164.4</ele>
        <time>2017-08-03T06:29:43.000Z</time>
      </trkpt>
      <trkpt lat="43.39135402813554" lon="-6.139833927154541">
        <ele>164.4</ele>
        <time>2017-08-03T06:29:48.000Z</time>
      </trkpt>
      <trkpt lat="43.39135520160198" lon="-6.139845242723823">
        <ele>164.6</ele>
        <time>2017-08-03T06:29:49.000Z</time>
      </trkpt>
      <trkpt lat="43.39136157184839" lon="-6.139855217188597">
        <ele>164.4</ele>
        <time>2017-08-03T06:29:50.000Z</time>
      </trkpt>
      <trkpt lat="43.391370959579945" lon="-6.139920512214303">
        <ele>164.8</ele>
        <time>2017-08-03T06:29:55.000Z</time>
      </trkpt>
      <trkpt lat="43.39137213304639" lon="-6.139968875795603">
        <ele>165.2</ele>
        <time>2017-08-03T06:30:00.000Z</time>
      </trkpt>
      <trkpt lat="43.3913716301322" lon="-6.13997315056622">
        <ele>165.2</ele>
        <time>2017-08-03T06:30:01.000Z</time>
      </trkpt>
      <trkpt lat="43.39136970229447" lon="-6.140002487227321">
        <ele>165.6</ele>
        <time>2017-08-03T06:30:08.000Z</time>
      </trkpt>
      <trkpt lat="43.3913785032928" lon="-6.140075074508786">
        <ele>166</ele>
        <time>2017-08-03T06:30:14.000Z</time>
      </trkpt>
      <trkpt lat="43.391380682587624" lon="-6.140140872448683">
        <ele>166.6</ele>
        <time>2017-08-03T06:30:20.000Z</time>
      </trkpt>
      <trkpt lat="43.391373977065086" lon="-6.140223769471049">
        <ele>167.4</ele>
        <time>2017-08-03T06:30:26.000Z</time>
      </trkpt>
      <trkpt lat="43.39138286188245" lon="-6.140268361195922">
        <ele>167.2</ele>
        <time>2017-08-03T06:30:29.000Z</time>
      </trkpt>
      <trkpt lat="43.39138923212886" lon="-6.140298200771213">
        <ele>167</ele>
        <time>2017-08-03T06:30:31.000Z</time>
      </trkpt>
      <trkpt lat="43.39139618910849" lon="-6.140372548252344">
        <ele>166.8</ele>
        <time>2017-08-03T06:30:37.000Z</time>
      </trkpt>
      <trkpt lat="43.39138981886208" lon="-6.140416888520122">
        <ele>167.2</ele>
        <time>2017-08-03T06:30:41.000Z</time>
      </trkpt>
      <trkpt lat="43.39139526709914" lon="-6.14043097011745">
        <ele>167</ele>
        <time>2017-08-03T06:30:43.000Z</time>
      </trkpt>
      <trkpt lat="43.39141504839063" lon="-6.14045687019825">
        <ele>166.2</ele>
        <time>2017-08-03T06:30:47.000Z</time>
      </trkpt>
      <trkpt lat="43.391427202150226" lon="-6.140491906553507">
        <ele>165.8</ele>
        <time>2017-08-03T06:30:50.000Z</time>
      </trkpt>
      <trkpt lat="43.39143583551049" lon="-6.1404940020293">
        <ele>165.4</ele>
        <time>2017-08-03T06:30:51.000Z</time>
      </trkpt>
      <trkpt lat="43.39148763567209" lon="-6.140535157173872">
        <ele>163.6</ele>
        <time>2017-08-03T06:30:57.000Z</time>
      </trkpt>
      <trkpt lat="43.39150280691683" lon="-6.140573713928461">
        <ele>163</ele>
        <time>2017-08-03T06:31:01.000Z</time>
      </trkpt>
      <trkpt lat="43.39151043444872" lon="-6.140584694221616">
        <ele>162.6</ele>
        <time>2017-08-03T06:31:02.000Z</time>
      </trkpt>
      <trkpt lat="43.3915286231786" lon="-6.140616713091731">
        <ele>162</ele>
        <time>2017-08-03T06:31:05.000Z</time>
      </trkpt>
      <trkpt lat="43.39155209250748" lon="-6.14065719768405">
        <ele>160.8</ele>
        <time>2017-08-03T06:31:09.000Z</time>
      </trkpt>
      <trkpt lat="43.391591403633356" lon="-6.140705393627286">
        <ele>158.8</ele>
        <time>2017-08-03T06:31:15.000Z</time>
      </trkpt>
      <trkpt lat="43.39162250049412" lon="-6.140752583742142">
        <ele>157.4</ele>
        <time>2017-08-03T06:31:20.000Z</time>
      </trkpt>
      <trkpt lat="43.39166642166674" lon="-6.140837240964174">
        <ele>156</ele>
        <time>2017-08-03T06:31:27.000Z</time>
      </trkpt>
      <trkpt lat="43.391710091382265" lon="-6.140893986448646">
        <ele>155.2</ele>
        <time>2017-08-03T06:31:32.000Z</time>
      </trkpt>
      <trkpt lat="43.39173850603402" lon="-6.140916785225272">
        <ele>154.6</ele>
        <time>2017-08-03T06:31:34.000Z</time>
      </trkpt>
      <trkpt lat="43.3917841874063" lon="-6.1410091537982225">
        <ele>153.8</ele>
        <time>2017-08-03T06:31:40.000Z</time>
      </trkpt>
      <trkpt lat="43.39181402698159" lon="-6.141115687787533">
        <ele>153.4</ele>
        <time>2017-08-03T06:31:47.000Z</time>
      </trkpt>
      <trkpt lat="43.39183162897825" lon="-6.1412041168659925">
        <ele>153.6</ele>
        <time>2017-08-03T06:31:53.000Z</time>
      </trkpt>
      <trkpt lat="43.391857193782926" lon="-6.141341328620911">
        <ele>154</ele>
        <time>2017-08-03T06:32:02.000Z</time>
      </trkpt>
      <trkpt lat="43.39187052100897" lon="-6.141408467665315">
        <ele>154</ele>
        <time>2017-08-03T06:32:07.000Z</time>
      </trkpt>
      <trkpt lat="43.39187202975154" lon="-6.141439480707049">
        <ele>154</ele>
        <time>2017-08-03T06:32:09.000Z</time>
      </trkpt>
      <trkpt lat="43.3918914757669" lon="-6.141519192606211">
        <ele>155</ele>
        <time>2017-08-03T06:32:15.000Z</time>
      </trkpt>
      <trkpt lat="43.391897259280086" lon="-6.141545511782169">
        <ele>155.4</ele>
        <time>2017-08-03T06:32:17.000Z</time>
      </trkpt>
      <trkpt lat="43.39190924540162" lon="-6.141638215631247">
        <ele>156.8</ele>
        <time>2017-08-03T06:32:23.000Z</time>
      </trkpt>
      <trkpt lat="43.39194864034653" lon="-6.1417395528405905">
        <ele>157.8</ele>
        <time>2017-08-03T06:32:30.000Z</time>
      </trkpt>
      <trkpt lat="43.39202709496021" lon="-6.141776097938418">
        <ele>157</ele>
        <time>2017-08-03T06:32:38.000Z</time>
      </trkpt>
      <trkpt lat="43.39207109995186" lon="-6.141800321638584">
        <ele>156.6</ele>
        <time>2017-08-03T06:32:42.000Z</time>
      </trkpt>
      <trkpt lat="43.39209389872849" lon="-6.1418146546930075">
        <ele>156.4</ele>
        <time>2017-08-03T06:32:44.000Z</time>
      </trkpt>
      <trkpt lat="43.39211694896221" lon="-6.1418237909674644">
        <ele>156.2</ele>
        <time>2017-08-03T06:32:46.000Z</time>
      </trkpt>
      <trkpt lat="43.39216195978224" lon="-6.141878692433238">
        <ele>156.2</ele>
        <time>2017-08-03T06:32:50.000Z</time>
      </trkpt>
      <trkpt lat="43.39217076078057" lon="-6.141884224489331">
        <ele>156.2</ele>
        <time>2017-08-03T06:32:51.000Z</time>
      </trkpt>
      <trkpt lat="43.392213340848684" lon="-6.141917500644922">
        <ele>156</ele>
        <time>2017-08-03T06:32:54.000Z</time>
      </trkpt>
      <trkpt lat="43.39224921539426" lon="-6.141957649961114">
        <ele>155.8</ele>
        <time>2017-08-03T06:32:58.000Z</time>
      </trkpt>
      <trkpt lat="43.392286682501435" lon="-6.142011294141412">
        <ele>156</ele>
        <time>2017-08-03T06:33:02.000Z</time>
      </trkpt>
      <trkpt lat="43.39230679906905" lon="-6.142037529498339">
        <ele>156</ele>
        <time>2017-08-03T06:33:04.000Z</time>
      </trkpt>
      <trkpt lat="43.392388606444" lon="-6.14211137406528">
        <ele>155.6</ele>
        <time>2017-08-03T06:33:11.000Z</time>
      </trkpt>
      <trkpt lat="43.39250880293548" lon="-6.142177591100335">
        <ele>154.2</ele>
        <time>2017-08-03T06:33:20.000Z</time>
      </trkpt>
      <trkpt lat="43.39263922534883" lon="-6.142214052379131">
        <ele>152.2</ele>
        <time>2017-08-03T06:33:29.000Z</time>
      </trkpt>
      <trkpt lat="43.39266814291477" lon="-6.142235761508346">
        <ele>152.2</ele>
        <time>2017-08-03T06:33:31.000Z</time>
      </trkpt>
      <trkpt lat="43.39272078126669" lon="-6.142273060977459">
        <ele>151</ele>
        <time>2017-08-03T06:33:35.000Z</time>
      </trkpt>
      <trkpt lat="43.39277350343764" lon="-6.142309354618192">
        <ele>150.4</ele>
        <time>2017-08-03T06:33:39.000Z</time>
      </trkpt>
      <trkpt lat="43.39278984814882" lon="-6.142316143959761">
        <ele>150.2</ele>
        <time>2017-08-03T06:33:41.000Z</time>
      </trkpt>
      <trkpt lat="43.392808958888054" lon="-6.142328465357423">
        <ele>150</ele>
        <time>2017-08-03T06:33:43.000Z</time>
      </trkpt>
      <trkpt lat="43.39284625835717" lon="-6.142362328246236">
        <ele>149.8</ele>
        <time>2017-08-03T06:33:46.000Z</time>
      </trkpt>
      <trkpt lat="43.3929325081408" lon="-6.142407758161426">
        <ele>148.6</ele>
        <time>2017-08-03T06:33:53.000Z</time>
      </trkpt>
      <trkpt lat="43.39367900043726" lon="-6.142960796132684">
        <ele>138.4</ele>
        <time>2017-08-03T06:34:29.000Z</time>
      </trkpt>
      <trkpt lat="43.39371118694544" lon="-6.142932549118996">
        <ele>137.6</ele>
        <time>2017-08-03T06:34:30.000Z</time>
      </trkpt>
      <trkpt lat="43.39367690496147" lon="-6.14292349666357">
        <ele>138.6</ele>
        <time>2017-08-03T06:34:33.000Z</time>
      </trkpt>
      <trkpt lat="43.39363650418818" lon="-6.142883012071252">
        <ele>138.4</ele>
        <time>2017-08-03T06:34:38.000Z</time>
      </trkpt>
      <trkpt lat="43.393614795058966" lon="-6.142928944900632">
        <ele>139.2</ele>
        <time>2017-08-03T06:34:45.000Z</time>
      </trkpt>
      <trkpt lat="43.393661146983504" lon="-6.1430147755891085">
        <ele>138.6</ele>
        <time>2017-08-03T06:34:52.000Z</time>
      </trkpt>
      <trkpt lat="43.39374270290136" lon="-6.143128098919988">
        <ele>136.4</ele>
        <time>2017-08-03T06:35:01.000Z</time>
      </trkpt>
      <trkpt lat="43.393827863037586" lon="-6.143204541876912">
        <ele>135.2</ele>
        <time>2017-08-03T06:35:09.000Z</time>
      </trkpt>
      <trkpt lat="43.39392433874309" lon="-6.1433021910488605">
        <ele>134</ele>
        <time>2017-08-03T06:35:18.000Z</time>
      </trkpt>
      <trkpt lat="43.39400983415544" lon="-6.143392715603113">
        <ele>132.8</ele>
        <time>2017-08-03T06:35:26.000Z</time>
      </trkpt>
      <trkpt lat="43.39410304091871" lon="-6.14349271170795">
        <ele>130.2</ele>
        <time>2017-08-03T06:35:35.000Z</time>
      </trkpt>
      <trkpt lat="43.39422692544758" lon="-6.143563287332654">
        <ele>126.2</ele>
        <time>2017-08-03T06:35:45.000Z</time>
      </trkpt>
      <trkpt lat="43.39431619271636" lon="-6.143608633428812">
        <ele>123.4</ele>
        <time>2017-08-03T06:35:52.000Z</time>
      </trkpt>
      <trkpt lat="43.39437184855342" lon="-6.143620116636157">
        <ele>123.4</ele>
        <time>2017-08-03T06:35:56.000Z</time>
      </trkpt>
      <trkpt lat="43.39440604671836" lon="-6.143652135506272">
        <ele>123.4</ele>
        <time>2017-08-03T06:35:59.000Z</time>
      </trkpt>
      <trkpt lat="43.39443261735141" lon="-6.143734697252512">
        <ele>123.8</ele>
        <time>2017-08-03T06:36:04.000Z</time>
      </trkpt>
      <trkpt lat="43.39443504810333" lon="-6.143750958144665">
        <ele>123.8</ele>
        <time>2017-08-03T06:36:05.000Z</time>
      </trkpt>
      <trkpt lat="43.394462037831545" lon="-6.143933096900582">
        <ele>123.4</ele>
        <time>2017-08-03T06:36:15.000Z</time>
      </trkpt>
      <trkpt lat="43.39446782134473" lon="-6.144098974764347">
        <ele>122.8</ele>
        <time>2017-08-03T06:36:24.000Z</time>
      </trkpt>
      <trkpt lat="43.39448274113238" lon="-6.144219255074859">
        <ele>122.2</ele>
        <time>2017-08-03T06:36:31.000Z</time>
      </trkpt>
      <trkpt lat="43.394543593749404" lon="-6.144360238686204">
        <ele>121</ele>
        <time>2017-08-03T06:36:40.000Z</time>
      </trkpt>
      <trkpt lat="43.39456488378346" lon="-6.1443783435970545">
        <ele>120.8</ele>
        <time>2017-08-03T06:36:42.000Z</time>
      </trkpt>
      <trkpt lat="43.39459505863488" lon="-6.144357975572348">
        <ele>120.4</ele>
        <time>2017-08-03T06:36:45.000Z</time>
      </trkpt>
      <trkpt lat="43.39465138502419" lon="-6.144306426867843">
        <ele>120</ele>
        <time>2017-08-03T06:36:50.000Z</time>
      </trkpt>
      <trkpt lat="43.39469932951033" lon="-6.144274994730949">
        <ele>119.6</ele>
        <time>2017-08-03T06:36:54.000Z</time>
      </trkpt>
      <trkpt lat="43.39478138834238" lon="-6.144230989739299">
        <ele>119</ele>
        <time>2017-08-03T06:37:01.000Z</time>
      </trkpt>
      <trkpt lat="43.39486101642251" lon="-6.144146081060171">
        <ele>118.4</ele>
        <time>2017-08-03T06:37:09.000Z</time>
      </trkpt>
      <trkpt lat="43.39490921236575" lon="-6.144097717478871">
        <ele>118</ele>
        <time>2017-08-03T06:37:14.000Z</time>
      </trkpt>
      <trkpt lat="43.39492941275239" lon="-6.144081456586719">
        <ele>117.8</ele>
        <time>2017-08-03T06:37:16.000Z</time>
      </trkpt>
      <trkpt lat="43.394981883466244" lon="-6.144059663638473">
        <ele>117.4</ele>
        <time>2017-08-03T06:37:20.000Z</time>
      </trkpt>
      <trkpt lat="43.394997054710984" lon="-6.144057149067521">
        <ele>117.2</ele>
        <time>2017-08-03T06:37:21.000Z</time>
      </trkpt>
      <trkpt lat="43.39506377466023" lon="-6.144078020006418">
        <ele>116.2</ele>
        <time>2017-08-03T06:37:26.000Z</time>
      </trkpt>
      <trkpt lat="43.39508078992367" lon="-6.144108949229121">
        <ele>115.8</ele>
        <time>2017-08-03T06:37:28.000Z</time>
      </trkpt>
      <trkpt lat="43.39509411714971" lon="-6.144134597852826">
        <ele>115.4</ele>
        <time>2017-08-03T06:37:30.000Z</time>
      </trkpt>
      <trkpt lat="43.3951242081821" lon="-6.144222188740969">
        <ele>114.4</ele>
        <time>2017-08-03T06:37:35.000Z</time>
      </trkpt>
      <trkpt lat="43.3951791934669" lon="-6.144333081319928">
        <ele>113.2</ele>
        <time>2017-08-03T06:37:42.000Z</time>
      </trkpt>
      <trkpt lat="43.395232083275914" lon="-6.144446488469839">
        <ele>112.2</ele>
        <time>2017-08-03T06:37:49.000Z</time>
      </trkpt>
      <trkpt lat="43.39526502415538" lon="-6.144500132650137">
        <ele>111.8</ele>
        <time>2017-08-03T06:37:53.000Z</time>
      </trkpt>
      <trkpt lat="43.39527784846723" lon="-6.144501306116581">
        <ele>111.8</ele>
        <time>2017-08-03T06:37:54.000Z</time>
      </trkpt>
      <trkpt lat="43.39538790285587" lon="-6.144514968618751">
        <ele>111.6</ele>
        <time>2017-08-03T06:38:02.000Z</time>
      </trkpt>
      <trkpt lat="43.3954693749547" lon="-6.144485799595714">
        <ele>111.8</ele>
        <time>2017-08-03T06:38:09.000Z</time>
      </trkpt>
      <trkpt lat="43.39549141936004" lon="-6.14447733387351">
        <ele>111.8</ele>
        <time>2017-08-03T06:38:11.000Z</time>
      </trkpt>
      <trkpt lat="43.39554565027356" lon="-6.144455624744296">
        <ele>112</ele>
        <time>2017-08-03T06:38:15.000Z</time>
      </trkpt>
      <trkpt lat="43.395668528974056" lon="-6.144408937543631">
        <ele>112.2</ele>
        <time>2017-08-03T06:38:24.000Z</time>
      </trkpt>
      <trkpt lat="43.3957836125046" lon="-6.144369877874851">
        <ele>112.4</ele>
        <time>2017-08-03T06:38:33.000Z</time>
      </trkpt>
      <trkpt lat="43.39589852839708" lon="-6.144349593669176">
        <ele>112.6</ele>
        <time>2017-08-03T06:38:42.000Z</time>
      </trkpt>
      <trkpt lat="43.39599156752229" lon="-6.144335260614753">
        <ele>112.8</ele>
        <time>2017-08-03T06:38:49.000Z</time>
      </trkpt>
      <trkpt lat="43.39608469046652" lon="-6.144318915903568">
        <ele>113.6</ele>
        <time>2017-08-03T06:38:56.000Z</time>
      </trkpt>
      <trkpt lat="43.39613280259073" lon="-6.1443224363029">
        <ele>114</ele>
        <time>2017-08-03T06:39:00.000Z</time>
      </trkpt>
      <trkpt lat="43.396152751520276" lon="-6.144330063834786">
        <ele>114</ele>
        <time>2017-08-03T06:39:02.000Z</time>
      </trkpt>
      <trkpt lat="43.39617068879306" lon="-6.144328974187374">
        <ele>114.2</ele>
        <time>2017-08-03T06:39:05.000Z</time>
      </trkpt>
      <trkpt lat="43.396174712106586" lon="-6.144329393282533">
        <ele>114.2</ele>
        <time>2017-08-03T06:39:07.000Z</time>
      </trkpt>
      <trkpt lat="43.396238666027784" lon="-6.144351689144969">
        <ele>114.6</ele>
        <time>2017-08-03T06:39:15.000Z</time>
      </trkpt>
      <trkpt lat="43.39628828689456" lon="-6.144351772964001">
        <ele>115</ele>
        <time>2017-08-03T06:39:20.000Z</time>
      </trkpt>
      <trkpt lat="43.3963761292398" lon="-6.144389407709241">
        <ele>115.6</ele>
        <time>2017-08-03T06:39:27.000Z</time>
      </trkpt>
      <trkpt lat="43.39644527994096" lon="-6.144465012475848">
        <ele>116.2</ele>
        <time>2017-08-03T06:39:34.000Z</time>
      </trkpt>
      <trkpt lat="43.39650294743478" lon="-6.1445830296725035">
        <ele>116.6</ele>
        <time>2017-08-03T06:39:42.000Z</time>
      </trkpt>
      <trkpt lat="43.39655508287251" lon="-6.1447058245539665">
        <ele>117</ele>
        <time>2017-08-03T06:39:51.000Z</time>
      </trkpt>
      <trkpt lat="43.39660353027284" lon="-6.144794672727585">
        <ele>117.4</ele>
        <time>2017-08-03T06:39:57.000Z</time>
      </trkpt>
      <trkpt lat="43.39663873426616" lon="-6.14484965801239">
        <ele>117.6</ele>
        <time>2017-08-03T06:40:01.000Z</time>
      </trkpt>
      <trkpt lat="43.396666226908565" lon="-6.144916880875826">
        <ele>117.6</ele>
        <time>2017-08-03T06:40:05.000Z</time>
      </trkpt>
      <trkpt lat="43.396700508892536" lon="-6.145027941092849">
        <ele>118.4</ele>
        <time>2017-08-03T06:40:12.000Z</time>
      </trkpt>
      <trkpt lat="43.39672112837434" lon="-6.14518535323441">
        <ele>118.8</ele>
        <time>2017-08-03T06:40:21.000Z</time>
      </trkpt>
      <trkpt lat="43.396726828068495" lon="-6.145341340452433">
        <ele>119.2</ele>
        <time>2017-08-03T06:40:30.000Z</time>
      </trkpt>
      <trkpt lat="43.396731773391366" lon="-6.145486934110522">
        <ele>119.4</ele>
        <time>2017-08-03T06:40:38.000Z</time>
      </trkpt>
      <trkpt lat="43.39673135429621" lon="-6.145648704841733">
        <ele>119.4</ele>
        <time>2017-08-03T06:40:47.000Z</time>
      </trkpt>
      <trkpt lat="43.39673303067684" lon="-6.145808380097151">
        <ele>119.8</ele>
        <time>2017-08-03T06:40:56.000Z</time>
      </trkpt>
      <trkpt lat="43.396736634895205" lon="-6.145946681499481">
        <ele>120.4</ele>
        <time>2017-08-03T06:41:04.000Z</time>
      </trkpt>
      <trkpt lat="43.39675046503544" lon="-6.146067548543215">
        <ele>121.2</ele>
        <time>2017-08-03T06:41:11.000Z</time>
      </trkpt>
      <trkpt lat="43.39676127769053" lon="-6.146247172728181">
        <ele>122</ele>
        <time>2017-08-03T06:41:21.000Z</time>
      </trkpt>
      <trkpt lat="43.396765384823084" lon="-6.146346414461732">
        <ele>122.4</ele>
        <time>2017-08-03T06:41:27.000Z</time>
      </trkpt>
      <trkpt lat="43.39676764793694" lon="-6.146461665630341">
        <ele>122.8</ele>
        <time>2017-08-03T06:41:34.000Z</time>
      </trkpt>
      <trkpt lat="43.396764881908894" lon="-6.146594099700451">
        <ele>122.8</ele>
        <time>2017-08-03T06:41:42.000Z</time>
      </trkpt>
      <trkpt lat="43.39676680974662" lon="-6.146717984229326">
        <ele>123</ele>
        <time>2017-08-03T06:41:49.000Z</time>
      </trkpt>
      <trkpt lat="43.396775191649795" lon="-6.146843628957868">
        <ele>123.4</ele>
        <time>2017-08-03T06:41:56.000Z</time>
      </trkpt>
      <trkpt lat="43.39679807424545" lon="-6.147035155445337">
        <ele>124.2</ele>
        <time>2017-08-03T06:42:07.000Z</time>
      </trkpt>
      <trkpt lat="43.396834284067154" lon="-6.147182425484061">
        <ele>125.2</ele>
        <time>2017-08-03T06:42:16.000Z</time>
      </trkpt>
      <trkpt lat="43.39687426574528" lon="-6.1473084054887295">
        <ele>125.8</ele>
        <time>2017-08-03T06:42:24.000Z</time>
      </trkpt>
      <trkpt lat="43.39693243615329" lon="-6.147463135421276">
        <ele>125.8</ele>
        <time>2017-08-03T06:42:34.000Z</time>
      </trkpt>
      <trkpt lat="43.39698306284845" lon="-6.147590456530452">
        <ele>125.8</ele>
        <time>2017-08-03T06:42:43.000Z</time>
      </trkpt>
      <trkpt lat="43.397030755877495" lon="-6.14769883453846">
        <ele>125.8</ele>
        <time>2017-08-03T06:42:51.000Z</time>
      </trkpt>
      <trkpt lat="43.39710175059736" lon="-6.147817773744464">
        <ele>126.2</ele>
        <time>2017-08-03T06:43:00.000Z</time>
      </trkpt>
      <trkpt lat="43.397176349535584" lon="-6.1478932946920395">
        <ele>127.2</ele>
        <time>2017-08-03T06:43:08.000Z</time>
      </trkpt>
      <trkpt lat="43.397240387275815" lon="-6.147941071540117">
        <ele>128.2</ele>
        <time>2017-08-03T06:43:15.000Z</time>
      </trkpt>
      <trkpt lat="43.39732035063207" lon="-6.147984992712736">
        <ele>129.4</ele>
        <time>2017-08-03T06:43:23.000Z</time>
      </trkpt>
      <trkpt lat="43.39740827679634" lon="-6.148013323545456">
        <ele>131</ele>
        <time>2017-08-03T06:43:31.000Z</time>
      </trkpt>
      <trkpt lat="43.39749963954091" lon="-6.148013575002551">
        <ele>132.6</ele>
        <time>2017-08-03T06:43:39.000Z</time>
      </trkpt>
      <trkpt lat="43.39759586378932" lon="-6.148012233898044">
        <ele>134.6</ele>
        <time>2017-08-03T06:43:47.000Z</time>
      </trkpt>
      <trkpt lat="43.39766618795693" lon="-6.148033523932099">
        <ele>135.6</ele>
        <time>2017-08-03T06:43:54.000Z</time>
      </trkpt>
      <trkpt lat="43.3977385237813" lon="-6.148050036281347">
        <ele>136</ele>
        <time>2017-08-03T06:44:01.000Z</time>
      </trkpt>
      <trkpt lat="43.39782318100333" lon="-6.148083480075002">
        <ele>136.8</ele>
        <time>2017-08-03T06:44:09.000Z</time>
      </trkpt>
      <trkpt lat="43.397908341139555" lon="-6.1481123976409435">
        <ele>137.4</ele>
        <time>2017-08-03T06:44:16.000Z</time>
      </trkpt>
      <trkpt lat="43.39802979491651" lon="-6.148138046264648">
        <ele>138.2</ele>
        <time>2017-08-03T06:44:26.000Z</time>
      </trkpt>
      <trkpt lat="43.398143872618675" lon="-6.148124299943447">
        <ele>139.6</ele>
        <time>2017-08-03T06:44:35.000Z</time>
      </trkpt>
      <trkpt lat="43.3982306253165" lon="-6.1480894312262535">
        <ele>140.6</ele>
        <time>2017-08-03T06:44:43.000Z</time>
      </trkpt>
      <trkpt lat="43.3983204793185" lon="-6.148040313273668">
        <ele>141.6</ele>
        <time>2017-08-03T06:44:51.000Z</time>
      </trkpt>
      <trkpt lat="43.39842022396624" lon="-6.147979544475675">
        <ele>142.8</ele>
        <time>2017-08-03T06:44:59.000Z</time>
      </trkpt>
      <trkpt lat="43.39845450595021" lon="-6.147972671315074">
        <ele>143.2</ele>
        <time>2017-08-03T06:45:02.000Z</time>
      </trkpt>
      <trkpt lat="43.398459032177925" lon="-6.147975940257311">
        <ele>143.2</ele>
        <time>2017-08-03T06:45:03.000Z</time>
      </trkpt>
      <trkpt lat="43.39852533303201" lon="-6.147937048226595">
        <ele>143.2</ele>
        <time>2017-08-03T06:45:08.000Z</time>
      </trkpt>
      <trkpt lat="43.398606050759554" lon="-6.147887427359819">
        <ele>142.6</ele>
        <time>2017-08-03T06:45:16.000Z</time>
      </trkpt>
      <trkpt lat="43.39869070798159" lon="-6.147841243073344">
        <ele>142</ele>
        <time>2017-08-03T06:45:23.000Z</time>
      </trkpt>
      <trkpt lat="43.39881987310946" lon="-6.147815678268671">
        <ele>140.8</ele>
        <time>2017-08-03T06:45:33.000Z</time>
      </trkpt>
      <trkpt lat="43.39892137795687" lon="-6.147856833413243">
        <ele>139.6</ele>
        <time>2017-08-03T06:45:41.000Z</time>
      </trkpt>
      <trkpt lat="43.39900637045503" lon="-6.147967725992203">
        <ele>138.4</ele>
        <time>2017-08-03T06:45:50.000Z</time>
      </trkpt>
      <trkpt lat="43.39904953725636" lon="-6.148087838664651">
        <ele>137.6</ele>
        <time>2017-08-03T06:45:58.000Z</time>
      </trkpt>
      <trkpt lat="43.399096140637994" lon="-6.148222787305713">
        <ele>135.8</ele>
        <time>2017-08-03T06:46:06.000Z</time>
      </trkpt>
      <trkpt lat="43.399128997698426" lon="-6.148322951048613">
        <ele>134.4</ele>
        <time>2017-08-03T06:46:12.000Z</time>
      </trkpt>
      <trkpt lat="43.39918456971645" lon="-6.148480111733079">
        <ele>133.6</ele>
        <time>2017-08-03T06:46:22.000Z</time>
      </trkpt>
      <trkpt lat="43.39921407401562" lon="-6.1485538724809885">
        <ele>133.2</ele>
        <time>2017-08-03T06:46:28.000Z</time>
      </trkpt>
      <trkpt lat="43.399268724024296" lon="-6.148671135306358">
        <ele>132.4</ele>
        <time>2017-08-03T06:46:36.000Z</time>
      </trkpt>
      <trkpt lat="43.39928205125034" lon="-6.148701226338744">
        <ele>132.2</ele>
        <time>2017-08-03T06:46:38.000Z</time>
      </trkpt>
      <trkpt lat="43.39931725524366" lon="-6.148777082562447">
        <ele>131.8</ele>
        <time>2017-08-03T06:46:43.000Z</time>
      </trkpt>
      <trkpt lat="43.39933971874416" lon="-6.148835672065616">
        <ele>131.4</ele>
        <time>2017-08-03T06:46:47.000Z</time>
      </trkpt>
      <trkpt lat="43.39935966767371" lon="-6.148900464177132">
        <ele>131.2</ele>
        <time>2017-08-03T06:46:51.000Z</time>
      </trkpt>
      <trkpt lat="43.39939604513347" lon="-6.149003645405173">
        <ele>128.2</ele>
        <time>2017-08-03T06:46:58.000Z</time>
      </trkpt>
      <trkpt lat="43.399424040690064" lon="-6.1490801721811295">
        <ele>125.8</ele>
        <time>2017-08-03T06:47:06.000Z</time>
      </trkpt>
      <trkpt lat="43.399454299360514" lon="-6.149149993434548">
        <ele>123.6</ele>
        <time>2017-08-03T06:47:12.000Z</time>
      </trkpt>
      <trkpt lat="43.39945957995951" lon="-6.149144461378455">
        <ele>123.6</ele>
        <time>2017-08-03T06:47:18.000Z</time>
      </trkpt>
      <trkpt lat="43.39951967820525" lon="-6.149183604866266">
        <ele>121.6</ele>
        <time>2017-08-03T06:47:31.000Z</time>
      </trkpt>
      <trkpt lat="43.39960450306535" lon="-6.149222832173109">
        <ele>119.4</ele>
        <time>2017-08-03T06:47:38.000Z</time>
      </trkpt>
      <trkpt lat="43.39970592409372" lon="-6.149213779717684">
        <ele>118.2</ele>
        <time>2017-08-03T06:47:46.000Z</time>
      </trkpt>
      <trkpt lat="43.399735763669014" lon="-6.149194166064262">
        <ele>118.2</ele>
        <time>2017-08-03T06:47:48.000Z</time>
      </trkpt>
      <trkpt lat="43.39976543560624" lon="-6.149170948192477">
        <ele>118.4</ele>
        <time>2017-08-03T06:47:51.000Z</time>
      </trkpt>
      <trkpt lat="43.39982804842293" lon="-6.14907874725759">
        <ele>120</ele>
        <time>2017-08-03T06:47:58.000Z</time>
      </trkpt>
      <trkpt lat="43.399845231324434" lon="-6.149046225473285">
        <ele>120.6</ele>
        <time>2017-08-03T06:48:02.000Z</time>
      </trkpt>
      <trkpt lat="43.39986107312143" lon="-6.149030216038227">
        <ele>120.8</ele>
        <time>2017-08-03T06:48:03.000Z</time>
      </trkpt>
      <trkpt lat="43.39988051913679" lon="-6.148990653455257">
        <ele>121.6</ele>
        <time>2017-08-03T06:48:06.000Z</time>
      </trkpt>
      <trkpt lat="43.399902898818254" lon="-6.148953102529049">
        <ele>122.2</ele>
        <time>2017-08-03T06:48:09.000Z</time>
      </trkpt>
      <trkpt lat="43.399914717301726" lon="-6.148926364257932">
        <ele>122.6</ele>
        <time>2017-08-03T06:48:11.000Z</time>
      </trkpt>
      <trkpt lat="43.39994179084897" lon="-6.148875989019871">
        <ele>123.2</ele>
        <time>2017-08-03T06:48:14.000Z</time>
      </trkpt>
      <trkpt lat="43.399947909638286" lon="-6.148836677893996">
        <ele>123.8</ele>
        <time>2017-08-03T06:48:17.000Z</time>
      </trkpt>
      <trkpt lat="43.39996031485498" lon="-6.14878018386662">
        <ele>124.6</ele>
        <time>2017-08-03T06:48:21.000Z</time>
      </trkpt>
      <trkpt lat="43.39996945112944" lon="-6.148680942133069">
        <ele>126.2</ele>
        <time>2017-08-03T06:48:28.000Z</time>
      </trkpt>
      <trkpt lat="43.399973809719086" lon="-6.148667279630899">
        <ele>126.4</ele>
        <time>2017-08-03T06:48:29.000Z</time>
      </trkpt>
      <trkpt lat="43.39999241754413" lon="-6.148608773946762">
        <ele>127.2</ele>
        <time>2017-08-03T06:48:34.000Z</time>
      </trkpt>
      <trkpt lat="43.39999535121024" lon="-6.148581113666296">
        <ele>127.8</ele>
        <time>2017-08-03T06:48:36.000Z</time>
      </trkpt>
      <trkpt lat="43.40002812445164" lon="-6.148531157523394">
        <ele>128.2</ele>
        <time>2017-08-03T06:48:41.000Z</time>
      </trkpt>
      <trkpt lat="43.400058299303055" lon="-6.1485034972429276">
        <ele>128.2</ele>
        <time>2017-08-03T06:48:46.000Z</time>
      </trkpt>
      <trkpt lat="43.40007045306265" lon="-6.148505173623562">
        <ele>128</ele>
        <time>2017-08-03T06:48:47.000Z</time>
      </trkpt>
      <trkpt lat="43.40016131289303" lon="-6.148570133373141">
        <ele>125.6</ele>
        <time>2017-08-03T06:48:55.000Z</time>
      </trkpt>
      <trkpt lat="43.40024379082024" lon="-6.148601649329066">
        <ele>124.8</ele>
        <time>2017-08-03T06:49:01.000Z</time>
      </trkpt>
      <trkpt lat="43.400317216292024" lon="-6.148602487519383">
        <ele>124.6</ele>
        <time>2017-08-03T06:49:07.000Z</time>
      </trkpt>
      <trkpt lat="43.400378907099366" lon="-6.148614222183824">
        <ele>124.4</ele>
        <time>2017-08-03T06:49:13.000Z</time>
      </trkpt>
      <trkpt lat="43.400417463853955" lon="-6.148620843887329">
        <ele>124.2</ele>
        <time>2017-08-03T06:49:19.000Z</time>
      </trkpt>
      <trkpt lat="43.40050312690437" lon="-6.148644313216209">
        <ele>122.8</ele>
        <time>2017-08-03T06:49:27.000Z</time>
      </trkpt>
      <trkpt lat="43.4005843475461" lon="-6.14864875562489">
        <ele>121.6</ele>
        <time>2017-08-03T06:49:34.000Z</time>
      </trkpt>
      <trkpt lat="43.400610918179154" lon="-6.148648336529732">
        <ele>121.2</ele>
        <time>2017-08-03T06:49:37.000Z</time>
      </trkpt>
      <trkpt lat="43.40064687654376" lon="-6.148636601865292">
        <ele>121</ele>
        <time>2017-08-03T06:49:41.000Z</time>
      </trkpt>
      <trkpt lat="43.40070412494242" lon="-6.1486324947327375">
        <ele>120.2</ele>
        <time>2017-08-03T06:49:46.000Z</time>
      </trkpt>
      <trkpt lat="43.40072642080486" lon="-6.148631572723389">
        <ele>120</ele>
        <time>2017-08-03T06:49:48.000Z</time>
      </trkpt>
      <trkpt lat="43.4007899556309" lon="-6.1486180778592825">
        <ele>119.4</ele>
        <time>2017-08-03T06:49:54.000Z</time>
      </trkpt>
      <trkpt lat="43.40087218210101" lon="-6.148606343194842">
        <ele>118.6</ele>
        <time>2017-08-03T06:50:01.000Z</time>
      </trkpt>
      <trkpt lat="43.40098802000284" lon="-6.148617574945092">
        <ele>116.6</ele>
        <time>2017-08-03T06:50:10.000Z</time>
      </trkpt>
      <trkpt lat="43.401064379140735" lon="-6.148605924099684">
        <ele>115.8</ele>
        <time>2017-08-03T06:50:16.000Z</time>
      </trkpt>
      <trkpt lat="43.40116487815976" lon="-6.148622436448932">
        <ele>113.8</ele>
        <time>2017-08-03T06:50:24.000Z</time>
      </trkpt>
      <trkpt lat="43.40123805217445" lon="-6.148633165284991">
        <ele>112.2</ele>
        <time>2017-08-03T06:50:31.000Z</time>
      </trkpt>
      <trkpt lat="43.40132346376777" lon="-6.148643139749765">
        <ele>110.8</ele>
        <time>2017-08-03T06:50:38.000Z</time>
      </trkpt>
      <trkpt lat="43.401369731873274" lon="-6.148654371500015">
        <ele>110</ele>
        <time>2017-08-03T06:50:43.000Z</time>
      </trkpt>
      <trkpt lat="43.4014321770519" lon="-6.148663843050599">
        <ele>109</ele>
        <time>2017-08-03T06:50:48.000Z</time>
      </trkpt>
      <trkpt lat="43.4014926943928" lon="-6.148657975718379">
        <ele>108.4</ele>
        <time>2017-08-03T06:50:53.000Z</time>
      </trkpt>
      <trkpt lat="43.401531502604485" lon="-6.148664429783821">
        <ele>107.8</ele>
        <time>2017-08-03T06:50:57.000Z</time>
      </trkpt>
      <trkpt lat="43.40154248289764" lon="-6.148682031780481">
        <ele>107.2</ele>
        <time>2017-08-03T06:50:59.000Z</time>
      </trkpt>
      <trkpt lat="43.40156385675073" lon="-6.148755792528391">
        <ele>105</ele>
        <time>2017-08-03T06:51:05.000Z</time>
      </trkpt>
      <trkpt lat="43.40159344486892" lon="-6.148797869682312">
        <ele>103.4</ele>
        <time>2017-08-03T06:51:09.000Z</time>
      </trkpt>
      <trkpt lat="43.40160408988595" lon="-6.148818237707019">
        <ele>102.8</ele>
        <time>2017-08-03T06:51:11.000Z</time>
      </trkpt>
      <trkpt lat="43.401640048250556" lon="-6.14887204952538">
        <ele>101</ele>
        <time>2017-08-03T06:51:15.000Z</time>
      </trkpt>
      <trkpt lat="43.401655638590455" lon="-6.1488990392535925">
        <ele>100</ele>
        <time>2017-08-03T06:51:17.000Z</time>
      </trkpt>
      <trkpt lat="43.40168229304254" lon="-6.148915132507682">
        <ele>99.4</ele>
        <time>2017-08-03T06:51:19.000Z</time>
      </trkpt>
      <trkpt lat="43.40171682648361" lon="-6.148916138336062">
        <ele>98.8</ele>
        <time>2017-08-03T06:51:22.000Z</time>
      </trkpt>
      <trkpt lat="43.40173199772835" lon="-6.148914378136396">
        <ele>98.8</ele>
        <time>2017-08-03T06:51:23.000Z</time>
      </trkpt>
      <trkpt lat="43.40180181898177" lon="-6.148911276832223">
        <ele>98</ele>
        <time>2017-08-03T06:51:28.000Z</time>
      </trkpt>
      <trkpt lat="43.40187633410096" lon="-6.148906499147415">
        <ele>97.4</ele>
        <time>2017-08-03T06:51:35.000Z</time>
      </trkpt>
      <trkpt lat="43.401950262486935" lon="-6.14890675060451">
        <ele>96.2</ele>
        <time>2017-08-03T06:51:41.000Z</time>
      </trkpt>
      <trkpt lat="43.402021173387766" lon="-6.148882443085313">
        <ele>96</ele>
        <time>2017-08-03T06:51:47.000Z</time>
      </trkpt>
      <trkpt lat="43.40203559026122" lon="-6.148871714249253">
        <ele>96</ele>
        <time>2017-08-03T06:51:49.000Z</time>
      </trkpt>
      <trkpt lat="43.402069369331" lon="-6.1488486640155315">
        <ele>96.4</ele>
        <time>2017-08-03T06:51:52.000Z</time>
      </trkpt>
      <trkpt lat="43.402136424556375" lon="-6.148829134181142">
        <ele>96</ele>
        <time>2017-08-03T06:51:58.000Z</time>
      </trkpt>
      <trkpt lat="43.40215461328626" lon="-6.148814298212528">
        <ele>96.2</ele>
        <time>2017-08-03T06:52:00.000Z</time>
      </trkpt>
      <trkpt lat="43.402195097878575" lon="-6.148810191079974">
        <ele>95.8</ele>
        <time>2017-08-03T06:52:03.000Z</time>
      </trkpt>
      <trkpt lat="43.40226324275136" lon="-6.14878018386662">
        <ele>95.8</ele>
        <time>2017-08-03T06:52:08.000Z</time>
      </trkpt>
      <trkpt lat="43.402338260784745" lon="-6.148780602961779">
        <ele>94.6</ele>
        <time>2017-08-03T06:52:13.000Z</time>
      </trkpt>
      <trkpt lat="43.40234345756471" lon="-6.1487741488963366">
        <ele>94.8</ele>
        <time>2017-08-03T06:52:14.000Z</time>
      </trkpt>
      <trkpt lat="43.40238947421312" lon="-6.148771466687322">
        <ele>94.2</ele>
        <time>2017-08-03T06:52:17.000Z</time>
      </trkpt>
      <trkpt lat="43.40241612866521" lon="-6.148758307099342">
        <ele>94.2</ele>
        <time>2017-08-03T06:52:19.000Z</time>
      </trkpt>
      <trkpt lat="43.40244295075536" lon="-6.148733915761113">
        <ele>94.6</ele>
        <time>2017-08-03T06:52:22.000Z</time>
      </trkpt>
      <trkpt lat="43.40245326049626" lon="-6.148732490837574">
        <ele>94.6</ele>
        <time>2017-08-03T06:52:23.000Z</time>
      </trkpt>
      <trkpt lat="43.40250916779041" lon="-6.148746907711029">
        <ele>93.2</ele>
        <time>2017-08-03T06:52:29.000Z</time>
      </trkpt>
      <trkpt lat="43.40256214141846" lon="-6.148765850812197">
        <ele>91.6</ele>
        <time>2017-08-03T06:52:33.000Z</time>
      </trkpt>
      <trkpt lat="43.40258678421378" lon="-6.148774567991495">
        <ele>91</ele>
        <time>2017-08-03T06:52:36.000Z</time>
      </trkpt>
      <trkpt lat="43.402620730921626" lon="-6.148781273514032">
        <ele>90.2</ele>
        <time>2017-08-03T06:52:44.000Z</time>
      </trkpt>
      <trkpt lat="43.40265652164817" lon="-6.148799546062946">
        <ele>89</ele>
        <time>2017-08-03T06:52:50.000Z</time>
      </trkpt>
      <trkpt lat="43.40267965570092" lon="-6.1488148011267185">
        <ele>88.6</ele>
        <time>2017-08-03T06:52:56.000Z</time>
      </trkpt>
      <trkpt lat="43.40268803760409" lon="-6.148841790854931">
        <ele>87.6</ele>
        <time>2017-08-03T06:53:04.000Z</time>
      </trkpt>
      <trkpt lat="43.40265937149525" lon="-6.148862913250923">
        <ele>86.8</ele>
        <time>2017-08-03T06:53:21.000Z</time>
      </trkpt>
      <trkpt lat="43.40265618637204" lon="-6.148891244083643">
        <ele>85.8</ele>
        <time>2017-08-03T06:53:27.000Z</time>
      </trkpt>
      <trkpt lat="43.402688624337316" lon="-6.148898536339402">
        <ele>85.6</ele>
        <time>2017-08-03T06:53:33.000Z</time>
      </trkpt>
      <trkpt lat="43.402751572430134" lon="-6.148908510804176">
        <ele>85</ele>
        <time>2017-08-03T06:53:39.000Z</time>
      </trkpt>
      <trkpt lat="43.40280865319073" lon="-6.148879341781139">
        <ele>85.8</ele>
        <time>2017-08-03T06:53:45.000Z</time>
      </trkpt>
      <trkpt lat="43.40283748693764" lon="-6.148861572146416">
        <ele>86.4</ele>
        <time>2017-08-03T06:53:48.000Z</time>
      </trkpt>
      <trkpt lat="43.40286246500909" lon="-6.148855034261942">
        <ele>86.6</ele>
        <time>2017-08-03T06:53:51.000Z</time>
      </trkpt>
      <trkpt lat="43.40295139700174" lon="-6.148847909644246">
        <ele>86.6</ele>
        <time>2017-08-03T06:53:58.000Z</time>
      </trkpt>
      <trkpt lat="43.40299825184047" lon="-6.148835336789489">
        <ele>87</ele>
        <time>2017-08-03T06:54:05.000Z</time>
      </trkpt>
      <trkpt lat="43.402999844402075" lon="-6.14885981194675">
        <ele>86</ele>
        <time>2017-08-03T06:54:10.000Z</time>
      </trkpt>
      <trkpt lat="43.40299976058304" lon="-6.148892166092992">
        <ele>84.6</ele>
        <time>2017-08-03T06:54:18.000Z</time>
      </trkpt>
      <trkpt lat="43.402975369244814" lon="-6.14893508143723">
        <ele>83</ele>
        <time>2017-08-03T06:54:24.000Z</time>
      </trkpt>
      <trkpt lat="43.40293446555734" lon="-6.148985791951418">
        <ele>81.6</ele>
        <time>2017-08-03T06:54:32.000Z</time>
      </trkpt>
      <trkpt lat="43.402918791398406" lon="-6.14900884218514">
        <ele>81</ele>
        <time>2017-08-03T06:54:38.000Z</time>
      </trkpt>
      <trkpt lat="43.402873361483216" lon="-6.149069359526038">
        <ele>79.6</ele>
        <time>2017-08-03T06:54:48.000Z</time>
      </trkpt>
      <trkpt lat="43.402881575748324" lon="-6.14911487326026">
        <ele>78.2</ele>
        <time>2017-08-03T06:54:53.000Z</time>
      </trkpt>
      <trkpt lat="43.402901859954" lon="-6.149119818583131">
        <ele>78</ele>
        <time>2017-08-03T06:54:59.000Z</time>
      </trkpt>
      <trkpt lat="43.40292541310191" lon="-6.149134570732713">
        <ele>77.4</ele>
        <time>2017-08-03T06:55:05.000Z</time>
      </trkpt>
      <trkpt lat="43.40300143696368" lon="-6.149162566289306">
        <ele>76.4</ele>
        <time>2017-08-03T06:55:12.000Z</time>
      </trkpt>
      <trkpt lat="43.40306958183646" lon="-6.149186203256249">
        <ele>75.4</ele>
        <time>2017-08-03T06:55:18.000Z</time>
      </trkpt>
      <trkpt lat="43.403153233230114" lon="-6.149218222126365">
        <ele>74.2</ele>
        <time>2017-08-03T06:55:25.000Z</time>
      </trkpt>
      <trkpt lat="43.403213834390044" lon="-6.149261808022857">
        <ele>73</ele>
        <time>2017-08-03T06:55:31.000Z</time>
      </trkpt>
      <trkpt lat="43.403292037546635" lon="-6.1493343114852905">
        <ele>71.4</ele>
        <time>2017-08-03T06:55:39.000Z</time>
      </trkpt>
      <trkpt lat="43.40330100618303" lon="-6.149337999522686">
        <ele>71.2</ele>
        <time>2017-08-03T06:55:40.000Z</time>
      </trkpt>
      <trkpt lat="43.40333595871925" lon="-6.149373538792133">
        <ele>70.4</ele>
        <time>2017-08-03T06:55:44.000Z</time>
      </trkpt>
      <trkpt lat="43.403388261795044" lon="-6.149438079446554">
        <ele>69</ele>
        <time>2017-08-03T06:55:50.000Z</time>
      </trkpt>
      <trkpt lat="43.403406869620085" lon="-6.1494627222418785">
        <ele>68.4</ele>
        <time>2017-08-03T06:55:52.000Z</time>
      </trkpt>
      <trkpt lat="43.40343209914863" lon="-6.1494930647313595">
        <ele>67.6</ele>
        <time>2017-08-03T06:55:55.000Z</time>
      </trkpt>
      <trkpt lat="43.40349110774696" lon="-6.14957177080214">
        <ele>66</ele>
        <time>2017-08-03T06:56:02.000Z</time>
      </trkpt>
      <trkpt lat="43.403559839352965" lon="-6.149644609540701">
        <ele>64.8</ele>
        <time>2017-08-03T06:56:09.000Z</time>
      </trkpt>
      <trkpt lat="43.40364164672792" lon="-6.1497139278799295">
        <ele>63.4</ele>
        <time>2017-08-03T06:56:17.000Z</time>
      </trkpt>
      <trkpt lat="43.40372278355062" lon="-6.149788862094283">
        <ele>61.8</ele>
        <time>2017-08-03T06:56:25.000Z</time>
      </trkpt>
      <trkpt lat="43.403793359175324" lon="-6.149849379435182">
        <ele>61.4</ele>
        <time>2017-08-03T06:56:33.000Z</time>
      </trkpt>
      <trkpt lat="43.40386879630387" lon="-6.149919619783759">
        <ele>60.8</ele>
        <time>2017-08-03T06:56:41.000Z</time>
      </trkpt>
      <trkpt lat="43.40389025397599" lon="-6.149925151839852">
        <ele>60.8</ele>
        <time>2017-08-03T06:56:43.000Z</time>
      </trkpt>
      <trkpt lat="43.403903497383" lon="-6.1499077174812555">
        <ele>61</ele>
        <time>2017-08-03T06:56:47.000Z</time>
      </trkpt>
      <trkpt lat="43.40390316210687" lon="-6.149903777986765">
        <ele>61.2</ele>
        <time>2017-08-03T06:56:58.000Z</time>
      </trkpt>
      <trkpt lat="43.403947837650776" lon="-6.149953063577414">
        <ele>60.8</ele>
        <time>2017-08-03T06:57:32.000Z</time>
      </trkpt>
      <trkpt lat="43.40401874855161" lon="-6.150038642808795">
        <ele>60</ele>
        <time>2017-08-03T06:57:40.000Z</time>
      </trkpt>
      <trkpt lat="43.404086055234075" lon="-6.15012489259243">
        <ele>58.8</ele>
        <time>2017-08-03T06:57:48.000Z</time>
      </trkpt>
      <trkpt lat="43.40416417457163" lon="-6.150232683867216">
        <ele>57</ele>
        <time>2017-08-03T06:57:57.000Z</time>
      </trkpt>
      <trkpt lat="43.40421522036195" lon="-6.150301834568381">
        <ele>55.8</ele>
        <time>2017-08-03T06:58:03.000Z</time>
      </trkpt>
      <trkpt lat="43.404280599206686" lon="-6.150403255596757">
        <ele>54.2</ele>
        <time>2017-08-03T06:58:11.000Z</time>
      </trkpt>
      <trkpt lat="43.40433097444475" lon="-6.150540886446834">
        <ele>52.4</ele>
        <time>2017-08-03T06:58:20.000Z</time>
      </trkpt>
      <trkpt lat="43.40436341241002" lon="-6.150608025491238">
        <ele>51.2</ele>
        <time>2017-08-03T06:58:26.000Z</time>
      </trkpt>
      <trkpt lat="43.404427114874125" lon="-6.150653539225459">
        <ele>51</ele>
        <time>2017-08-03T06:58:33.000Z</time>
      </trkpt>
      <trkpt lat="43.404464246705174" lon="-6.1506931856274605">
        <ele>51</ele>
        <time>2017-08-03T06:58:38.000Z</time>
      </trkpt>
      <trkpt lat="43.40447220951319" lon="-6.150705590844154">
        <ele>51</ele>
        <time>2017-08-03T06:58:39.000Z</time>
      </trkpt>
      <trkpt lat="43.40452308766544" lon="-6.150718247517943">
        <ele>51</ele>
        <time>2017-08-03T06:58:43.000Z</time>
      </trkpt>
      <trkpt lat="43.40455041266978" lon="-6.1507252883166075">
        <ele>51</ele>
        <time>2017-08-03T06:58:45.000Z</time>
      </trkpt>
      <trkpt lat="43.40462828055024" lon="-6.150774238631129">
        <ele>51</ele>
        <time>2017-08-03T06:58:52.000Z</time>
      </trkpt>
      <trkpt lat="43.40469332411885" lon="-6.150808604434133">
        <ele>51</ele>
        <time>2017-08-03T06:58:58.000Z</time>
      </trkpt>
      <trkpt lat="43.40469650924206" lon="-6.150817824527621">
        <ele>51</ele>
        <time>2017-08-03T06:58:59.000Z</time>
      </trkpt>
      <trkpt lat="43.4047391731292" lon="-6.150866104289889">
        <ele>50.8</ele>
        <time>2017-08-03T06:59:04.000Z</time>
      </trkpt>
      <trkpt lat="43.40475149452686" lon="-6.150872893631458">
        <ele>50.8</ele>
        <time>2017-08-03T06:59:05.000Z</time>
      </trkpt>
      <trkpt lat="43.40485534630716" lon="-6.150880102068186">
        <ele>51</ele>
        <time>2017-08-03T06:59:13.000Z</time>
      </trkpt>
      <trkpt lat="43.4049463737756" lon="-6.150859398767352">
        <ele>51.2</ele>
        <time>2017-08-03T06:59:21.000Z</time>
      </trkpt>
      <trkpt lat="43.40504067018628" lon="-6.150869373232126">
        <ele>51</ele>
        <time>2017-08-03T06:59:29.000Z</time>
      </trkpt>
      <trkpt lat="43.40515055693686" lon="-6.150890327990055">
        <ele>50.6</ele>
        <time>2017-08-03T06:59:38.000Z</time>
      </trkpt>
      <trkpt lat="43.405265556648374" lon="-6.150889238342643">
        <ele>50.8</ele>
        <time>2017-08-03T06:59:47.000Z</time>
      </trkpt>
      <trkpt lat="43.405353063717484" lon="-6.15087004378438">
        <ele>51</ele>
        <time>2017-08-03T06:59:54.000Z</time>
      </trkpt>
      <trkpt lat="43.40543118305504" lon="-6.150846993550658">
        <ele>51.4</ele>
        <time>2017-08-03T07:00:00.000Z</time>
      </trkpt>
      <trkpt lat="43.40553620830178" lon="-6.150801898911595">
        <ele>51.8</ele>
        <time>2017-08-03T07:00:09.000Z</time>
      </trkpt>
      <trkpt lat="43.40564073063433" lon="-6.150740124285221">
        <ele>52.4</ele>
        <time>2017-08-03T07:00:18.000Z</time>
      </trkpt>
      <trkpt lat="43.40576034039259" lon="-6.15066435188055">
        <ele>53.2</ele>
        <time>2017-08-03T07:00:28.000Z</time>
      </trkpt>
      <trkpt lat="43.405848601832986" lon="-6.150610037147999">
        <ele>53.8</ele>
        <time>2017-08-03T07:00:36.000Z</time>
      </trkpt>
      <trkpt lat="43.40592412278056" lon="-6.150569468736649">
        <ele>55.4</ele>
        <time>2017-08-03T07:00:44.000Z</time>
      </trkpt>
      <trkpt lat="43.40600366704166" lon="-6.1506048403680325">
        <ele>54</ele>
        <time>2017-08-03T07:00:50.000Z</time>
      </trkpt>
      <trkpt lat="43.406057227402925" lon="-6.150584639981389">
        <ele>53.8</ele>
        <time>2017-08-03T07:00:57.000Z</time>
      </trkpt>
      <trkpt lat="43.40609611943364" lon="-6.1505682952702045">
        <ele>53.6</ele>
        <time>2017-08-03T07:01:04.000Z</time>
      </trkpt>
      <trkpt lat="43.40618253685534" lon="-6.150502748787403">
        <ele>53.8</ele>
        <time>2017-08-03T07:01:12.000Z</time>
      </trkpt>
      <trkpt lat="43.406256129965186" lon="-6.1504449136555195">
        <ele>54</ele>
        <time>2017-08-03T07:01:19.000Z</time>
      </trkpt>
      <trkpt lat="43.40632922016084" lon="-6.1504231207072735">
        <ele>53.8</ele>
        <time>2017-08-03T07:01:25.000Z</time>
      </trkpt>
      <trkpt lat="43.406413458287716" lon="-6.150345001369715">
        <ele>54</ele>
        <time>2017-08-03T07:01:33.000Z</time>
      </trkpt>
      <trkpt lat="43.40649182908237" lon="-6.150290770456195">
        <ele>54.2</ele>
        <time>2017-08-03T07:01:40.000Z</time>
      </trkpt>
      <trkpt lat="43.40657782740891" lon="-6.150229582563043">
        <ele>54.2</ele>
        <time>2017-08-03T07:01:48.000Z</time>
      </trkpt>
      <trkpt lat="43.40667153708637" lon="-6.150179794058204">
        <ele>54.2</ele>
        <time>2017-08-03T07:01:56.000Z</time>
      </trkpt>
      <trkpt lat="43.4067580383271" lon="-6.1501415725797415">
        <ele>54</ele>
        <time>2017-08-03T07:02:03.000Z</time>
      </trkpt>
      <trkpt lat="43.40684319846332" lon="-6.1501038540154696">
        <ele>53.8</ele>
        <time>2017-08-03T07:02:10.000Z</time>
      </trkpt>
      <trkpt lat="43.406930873170495" lon="-6.150073679164052">
        <ele>53.4</ele>
        <time>2017-08-03T07:02:17.000Z</time>
      </trkpt>
      <trkpt lat="43.407015446573496" lon="-6.150066219270229">
        <ele>52.8</ele>
        <time>2017-08-03T07:02:24.000Z</time>
      </trkpt>
      <trkpt lat="43.4070257563144" lon="-6.15006965585053">
        <ele>52.8</ele>
        <time>2017-08-03T07:02:25.000Z</time>
      </trkpt>
      <trkpt lat="43.40706112794578" lon="-6.150065381079912">
        <ele>52.4</ele>
        <time>2017-08-03T07:02:28.000Z</time>
      </trkpt>
      <trkpt lat="43.407123824581504" lon="-6.1500452645123005">
        <ele>52.2</ele>
        <time>2017-08-03T07:02:33.000Z</time>
      </trkpt>
      <trkpt lat="43.407199680805206" lon="-6.150016346946359">
        <ele>51.8</ele>
        <time>2017-08-03T07:02:39.000Z</time>
      </trkpt>
      <trkpt lat="43.40721158310771" lon="-6.150012658908963">
        <ele>51.8</ele>
        <time>2017-08-03T07:02:40.000Z</time>
      </trkpt>
      <trkpt lat="43.40736027806997" lon="-6.149980891495943">
        <ele>51</ele>
        <time>2017-08-03T07:02:51.000Z</time>
      </trkpt>
      <trkpt lat="43.407496148720384" lon="-6.14994702860713">
        <ele>50.2</ele>
        <time>2017-08-03T07:03:01.000Z</time>
      </trkpt>
      <trkpt lat="43.407647190615535" lon="-6.149925738573074">
        <ele>49.4</ele>
        <time>2017-08-03T07:03:12.000Z</time>
      </trkpt>
      <trkpt lat="43.40779261663556" lon="-6.149882236495614">
        <ele>49.2</ele>
        <time>2017-08-03T07:03:23.000Z</time>
      </trkpt>
      <trkpt lat="43.40792949311435" lon="-6.1498364713042974">
        <ele>49</ele>
        <time>2017-08-03T07:03:34.000Z</time>
      </trkpt>
      <trkpt lat="43.408055640757084" lon="-6.14979749545455">
        <ele>48.8</ele>
        <time>2017-08-03T07:03:44.000Z</time>
      </trkpt>
      <trkpt lat="43.40821472927928" lon="-6.149769499897957">
        <ele>48.6</ele>
        <time>2017-08-03T07:03:56.000Z</time>
      </trkpt>
      <trkpt lat="43.4083310700953" lon="-6.1497607827186584">
        <ele>48.4</ele>
        <time>2017-08-03T07:04:04.000Z</time>
      </trkpt>
      <trkpt lat="43.40849041007459" lon="-6.149769583716989">
        <ele>47.2</ele>
        <time>2017-08-03T07:04:15.000Z</time>
      </trkpt>
      <trkpt lat="43.40865612030029" lon="-6.149779139086604">
        <ele>47</ele>
        <time>2017-08-03T07:04:27.000Z</time>
      </trkpt>
      <trkpt lat="43.408766090869904" lon="-6.149780480191112">
        <ele>47</ele>
        <time>2017-08-03T07:04:35.000Z</time>
      </trkpt>
      <trkpt lat="43.408902548253536" lon="-6.149777043610811">
        <ele>47</ele>
        <time>2017-08-03T07:04:45.000Z</time>
      </trkpt>
      <trkpt lat="43.40900941751897" lon="-6.149758603423834">
        <ele>47.8</ele>
        <time>2017-08-03T07:04:53.000Z</time>
      </trkpt>
      <trkpt lat="43.40905920602381" lon="-6.1497460305690765">
        <ele>48.2</ele>
        <time>2017-08-03T07:04:57.000Z</time>
      </trkpt>
      <trkpt lat="43.409099439159036" lon="-6.149736810475588">
        <ele>48.6</ele>
        <time>2017-08-03T07:05:00.000Z</time>
      </trkpt>
      <trkpt lat="43.40918518602848" lon="-6.149718454107642">
        <ele>49.4</ele>
        <time>2017-08-03T07:05:07.000Z</time>
      </trkpt>
      <trkpt lat="43.40927210636437" lon="-6.149696158245206">
        <ele>50.4</ele>
        <time>2017-08-03T07:05:14.000Z</time>
      </trkpt>
      <trkpt lat="43.409376963973045" lon="-6.149672269821167">
        <ele>50.2</ele>
        <time>2017-08-03T07:05:22.000Z</time>
      </trkpt>
      <trkpt lat="43.40949104167521" lon="-6.149650476872921">
        <ele>49.4</ele>
        <time>2017-08-03T07:05:31.000Z</time>
      </trkpt>
      <trkpt lat="43.40964267030358" lon="-6.1496308632195">
        <ele>49.4</ele>
        <time>2017-08-03T07:05:42.000Z</time>
      </trkpt>
      <trkpt lat="43.40977334417403" lon="-6.149605298414826">
        <ele>49.8</ele>
        <time>2017-08-03T07:05:51.000Z</time>
      </trkpt>
      <trkpt lat="43.40992195531726" lon="-6.149568501859903">
        <ele>50.2</ele>
        <time>2017-08-03T07:06:02.000Z</time>
      </trkpt>
      <trkpt lat="43.41005438938737" lon="-6.14952877163887">
        <ele>50.8</ele>
        <time>2017-08-03T07:06:12.000Z</time>
      </trkpt>
      <trkpt lat="43.41020543128252" lon="-6.149493232369423">
        <ele>50.2</ele>
        <time>2017-08-03T07:06:23.000Z</time>
      </trkpt>
      <trkpt lat="43.41021900996566" lon="-6.1494857724756">
        <ele>50.2</ele>
        <time>2017-08-03T07:06:24.000Z</time>
      </trkpt>
      <trkpt lat="43.410236947238445" lon="-6.149479318410158">
        <ele>49.8</ele>
        <time>2017-08-03T07:06:28.000Z</time>
      </trkpt>
      <trkpt lat="43.41027785092592" lon="-6.149477977305651">
        <ele>49</ele>
        <time>2017-08-03T07:06:36.000Z</time>
      </trkpt>
      <trkpt lat="43.410415817052126" lon="-6.1494409292936325">
        <ele>47</ele>
        <time>2017-08-03T07:06:47.000Z</time>
      </trkpt>
      <trkpt lat="43.410528134554625" lon="-6.149392398074269">
        <ele>45.6</ele>
        <time>2017-08-03T07:06:56.000Z</time>
      </trkpt>
      <trkpt lat="43.4106779191643" lon="-6.149327689781785">
        <ele>45.4</ele>
        <time>2017-08-03T07:07:08.000Z</time>
      </trkpt>
      <trkpt lat="43.41072251088917" lon="-6.149310925975442">
        <ele>45.2</ele>
        <time>2017-08-03T07:07:13.000Z</time>
      </trkpt>
      <trkpt lat="43.410803982988" lon="-6.149299358949065">
        <ele>45.2</ele>
        <time>2017-08-03T07:07:20.000Z</time>
      </trkpt>
      <trkpt lat="43.41095200739801" lon="-6.149308914318681">
        <ele>44.8</ele>
        <time>2017-08-03T07:07:32.000Z</time>
      </trkpt>
      <trkpt lat="43.41107463464141" lon="-6.149323582649231">
        <ele>44.2</ele>
        <time>2017-08-03T07:07:41.000Z</time>
      </trkpt>
      <trkpt lat="43.41123246587813" lon="-6.149365492165089">
        <ele>43.2</ele>
        <time>2017-08-03T07:07:53.000Z</time>
      </trkpt>
      <trkpt lat="43.4113515727222" lon="-6.149429613724351">
        <ele>42.6</ele>
        <time>2017-08-03T07:08:03.000Z</time>
      </trkpt>
      <trkpt lat="43.41143581084907" lon="-6.149488957598805">
        <ele>42.6</ele>
        <time>2017-08-03T07:08:11.000Z</time>
      </trkpt>
      <trkpt lat="43.411498088389635" lon="-6.149524245411158">
        <ele>42.6</ele>
        <time>2017-08-03T07:08:16.000Z</time>
      </trkpt>
      <trkpt lat="43.41151191852987" lon="-6.149532962590456">
        <ele>42.8</ele>
        <time>2017-08-03T07:08:17.000Z</time>
      </trkpt>
      <trkpt lat="43.41163085773587" lon="-6.149606304243207">
        <ele>42.8</ele>
        <time>2017-08-03T07:08:26.000Z</time>
      </trkpt>
      <trkpt lat="43.411746276542544" lon="-6.149679226800799">
        <ele>42.8</ele>
        <time>2017-08-03T07:08:35.000Z</time>
      </trkpt>
      <trkpt lat="43.41187896206975" lon="-6.1497551668435335">
        <ele>43</ele>
        <time>2017-08-03T07:08:45.000Z</time>
      </trkpt>
      <trkpt lat="43.412030255421996" lon="-6.149849547073245">
        <ele>43.2</ele>
        <time>2017-08-03T07:08:57.000Z</time>
      </trkpt>
      <trkpt lat="43.41207099147141" lon="-6.149878297001123">
        <ele>43.4</ele>
        <time>2017-08-03T07:09:01.000Z</time>
      </trkpt>
      <trkpt lat="43.41210317797959" lon="-6.149903275072575">
        <ele>43.4</ele>
        <time>2017-08-03T07:09:04.000Z</time>
      </trkpt>
      <trkpt lat="43.41211549937725" lon="-6.149910232052207">
        <ele>43.4</ele>
        <time>2017-08-03T07:09:05.000Z</time>
      </trkpt>
      <trkpt lat="43.4121922776103" lon="-6.14997049793601">
        <ele>43.4</ele>
        <time>2017-08-03T07:09:13.000Z</time>
      </trkpt>
      <trkpt lat="43.412235947325826" lon="-6.150034535676241">
        <ele>43.6</ele>
        <time>2017-08-03T07:09:19.000Z</time>
      </trkpt>
      <trkpt lat="43.41226117685437" lon="-6.150089353322983">
        <ele>43.6</ele>
        <time>2017-08-03T07:09:23.000Z</time>
      </trkpt>
      <trkpt lat="43.412266708910465" lon="-6.15010435692966">
        <ele>43.6</ele>
        <time>2017-08-03T07:09:24.000Z</time>
      </trkpt>
      <trkpt lat="43.412289172410965" lon="-6.150243915617466">
        <ele>43.8</ele>
        <time>2017-08-03T07:09:33.000Z</time>
      </trkpt>
      <trkpt lat="43.412287663668394" lon="-6.15026512183249">
        <ele>43.8</ele>
        <time>2017-08-03T07:09:35.000Z</time>
      </trkpt>
      <trkpt lat="43.412304846569896" lon="-6.150247938930988">
        <ele>43.8</ele>
        <time>2017-08-03T07:09:37.000Z</time>
      </trkpt>
      <trkpt lat="43.41230702586472" lon="-6.150242406874895">
        <ele>43.8</ele>
        <time>2017-08-03T07:09:38.000Z</time>
      </trkpt>
      <trkpt lat="43.41236561536789" lon="-6.150206867605448">
        <ele>44</ele>
        <time>2017-08-03T07:09:43.000Z</time>
      </trkpt>
      <trkpt lat="43.41237743385136" lon="-6.150201084092259">
        <ele>44</ele>
        <time>2017-08-03T07:09:44.000Z</time>
      </trkpt>
      <trkpt lat="43.41244817711413" lon="-6.150159174576402">
        <ele>44.2</ele>
        <time>2017-08-03T07:09:50.000Z</time>
      </trkpt>
      <trkpt lat="43.41248547658324" lon="-6.150170154869556">
        <ele>44.4</ele>
        <time>2017-08-03T07:09:54.000Z</time>
      </trkpt>
      <trkpt lat="43.41251238249242" lon="-6.15017275325954">
        <ele>44.4</ele>
        <time>2017-08-03T07:09:56.000Z</time>
      </trkpt>
      <trkpt lat="43.41253719292581" lon="-6.150184320285916">
        <ele>44.6</ele>
        <time>2017-08-03T07:09:58.000Z</time>
      </trkpt>
      <trkpt lat="43.41256795451045" lon="-6.15020158700645">
        <ele>44.8</ele>
        <time>2017-08-03T07:10:02.000Z</time>
      </trkpt>
      <trkpt lat="43.41263132169843" lon="-6.15025975741446">
        <ele>45</ele>
        <time>2017-08-03T07:10:09.000Z</time>
      </trkpt>
      <trkpt lat="43.41265210881829" lon="-6.150289680808783">
        <ele>45.2</ele>
        <time>2017-08-03T07:10:11.000Z</time>
      </trkpt>
      <trkpt lat="43.4126862231642" lon="-6.150306612253189">
        <ele>45</ele>
        <time>2017-08-03T07:10:14.000Z</time>
      </trkpt>
      <trkpt lat="43.412692341953516" lon="-6.150314826518297">
        <ele>45</ele>
        <time>2017-08-03T07:10:15.000Z</time>
      </trkpt>
      <trkpt lat="43.41272343881428" lon="-6.150332763791084">
        <ele>45</ele>
        <time>2017-08-03T07:10:18.000Z</time>
      </trkpt>
      <trkpt lat="43.412740118801594" lon="-6.150342235341668">
        <ele>44.8</ele>
        <time>2017-08-03T07:10:20.000Z</time>
      </trkpt>
      <trkpt lat="43.41275931335986" lon="-6.150360004976392">
        <ele>44.8</ele>
        <time>2017-08-03T07:10:22.000Z</time>
      </trkpt>
      <trkpt lat="43.41278144158423" lon="-6.150377690792084">
        <ele>44.6</ele>
        <time>2017-08-03T07:10:24.000Z</time>
      </trkpt>
      <trkpt lat="43.41284941881895" lon="-6.15041121840477">
        <ele>44.4</ele>
        <time>2017-08-03T07:10:30.000Z</time>
      </trkpt>
      <trkpt lat="43.41290566138923" lon="-6.150423288345337">
        <ele>44.2</ele>
        <time>2017-08-03T07:10:35.000Z</time>
      </trkpt>
      <trkpt lat="43.41295486316085" lon="-6.150460168719292">
        <ele>44.4</ele>
        <time>2017-08-03T07:10:39.000Z</time>
      </trkpt>
      <trkpt lat="43.41299484483898" lon="-6.150477435439825">
        <ele>44.4</ele>
        <time>2017-08-03T07:10:42.000Z</time>
      </trkpt>
      <trkpt lat="43.41307899914682" lon="-6.150530576705933">
        <ele>44.6</ele>
        <time>2017-08-03T07:10:49.000Z</time>
      </trkpt>
      <trkpt lat="43.41317052952945" lon="-6.150580951943994">
        <ele>44.6</ele>
        <time>2017-08-03T07:10:56.000Z</time>
      </trkpt>
      <trkpt lat="43.41325401328504" lon="-6.150640631094575">
        <ele>44.4</ele>
        <time>2017-08-03T07:11:03.000Z</time>
      </trkpt>
      <trkpt lat="43.41336448676884" lon="-6.150718918070197">
        <ele>43.8</ele>
        <time>2017-08-03T07:11:12.000Z</time>
      </trkpt>
      <trkpt lat="43.413476552814245" lon="-6.150785218924284">
        <ele>43.8</ele>
        <time>2017-08-03T07:11:21.000Z</time>
      </trkpt>
      <trkpt lat="43.4135462064296" lon="-6.150840036571026">
        <ele>43.4</ele>
        <time>2017-08-03T07:11:28.000Z</time>
      </trkpt>
      <trkpt lat="43.41355207376182" lon="-6.150849675759673">
        <ele>43.4</ele>
        <time>2017-08-03T07:11:29.000Z</time>
      </trkpt>
      <trkpt lat="43.413565903902054" lon="-6.1508583929389715">
        <ele>43.4</ele>
        <time>2017-08-03T07:11:30.000Z</time>
      </trkpt>
      <trkpt lat="43.41359633021057" lon="-6.150875659659505">
        <ele>43.2</ele>
        <time>2017-08-03T07:11:33.000Z</time>
      </trkpt>
      <trkpt lat="43.4136083163321" lon="-6.1508863884955645">
        <ele>43</ele>
        <time>2017-08-03T07:11:34.000Z</time>
      </trkpt>
      <trkpt lat="43.41368501074612" lon="-6.150977164506912">
        <ele>42.6</ele>
        <time>2017-08-03T07:11:41.000Z</time>
      </trkpt>
      <trkpt lat="43.413757011294365" lon="-6.151079256087542">
        <ele>42.2</ele>
        <time>2017-08-03T07:11:49.000Z</time>
      </trkpt>
      <trkpt lat="43.41381384059787" lon="-6.151194842532277">
        <ele>42.2</ele>
        <time>2017-08-03T07:11:57.000Z</time>
      </trkpt>
      <trkpt lat="43.41381652280688" lon="-6.15121940150857">
        <ele>42.2</ele>
        <time>2017-08-03T07:11:59.000Z</time>
      </trkpt>
      <trkpt lat="43.4138139244169" lon="-6.151269860565662">
        <ele>42.4</ele>
        <time>2017-08-03T07:12:02.000Z</time>
      </trkpt>
      <trkpt lat="43.413800932466984" lon="-6.151418806985021">
        <ele>43</ele>
        <time>2017-08-03T07:12:11.000Z</time>
      </trkpt>
      <trkpt lat="43.41378601267934" lon="-6.151551492512226">
        <ele>42.8</ele>
        <time>2017-08-03T07:12:19.000Z</time>
      </trkpt>
      <trkpt lat="43.4137708414346" lon="-6.151699684560299">
        <ele>42.6</ele>
        <time>2017-08-03T07:12:28.000Z</time>
      </trkpt>
      <trkpt lat="43.41375726275146" lon="-6.151865143328905">
        <ele>42.4</ele>
        <time>2017-08-03T07:12:38.000Z</time>
      </trkpt>
      <trkpt lat="43.41374225914478" lon="-6.152022136375308">
        <ele>42.2</ele>
        <time>2017-08-03T07:12:48.000Z</time>
      </trkpt>
      <trkpt lat="43.41372800990939" lon="-6.152131939306855">
        <ele>42</ele>
        <time>2017-08-03T07:12:55.000Z</time>
      </trkpt>
      <trkpt lat="43.41371443122625" lon="-6.152246855199337">
        <ele>41.8</ele>
        <time>2017-08-03T07:13:02.000Z</time>
      </trkpt>
      <trkpt lat="43.413699343800545" lon="-6.152437627315521">
        <ele>41.8</ele>
        <time>2017-08-03T07:13:13.000Z</time>
      </trkpt>
      <trkpt lat="43.41368333436549" lon="-6.152586489915848">
        <ele>41.8</ele>
        <time>2017-08-03T07:13:22.000Z</time>
      </trkpt>
      <trkpt lat="43.41366983950138" lon="-6.152711547911167">
        <ele>41.8</ele>
        <time>2017-08-03T07:13:30.000Z</time>
      </trkpt>
      <trkpt lat="43.4136550873518" lon="-6.152844736352563">
        <ele>41.8</ele>
        <time>2017-08-03T07:13:38.000Z</time>
      </trkpt>
      <trkpt lat="43.41365106403828" lon="-6.152899470180273">
        <ele>41.8</ele>
        <time>2017-08-03T07:13:45.000Z</time>
      </trkpt>
      <trkpt lat="43.41363798826933" lon="-6.153011452406645">
        <ele>41.8</ele>
        <time>2017-08-03T07:14:35.000Z</time>
      </trkpt>
      <trkpt lat="43.41361996717751" lon="-6.1532002966851">
        <ele>41.8</ele>
        <time>2017-08-03T07:14:46.000Z</time>
      </trkpt>
      <trkpt lat="43.413601694628596" lon="-6.153396433219314">
        <ele>41.8</ele>
        <time>2017-08-03T07:14:57.000Z</time>
      </trkpt>
      <trkpt lat="43.4135858528316" lon="-6.153558623045683">
        <ele>41.8</ele>
        <time>2017-08-03T07:15:06.000Z</time>
      </trkpt>
      <trkpt lat="43.413574788719416" lon="-6.153694493696094">
        <ele>41.8</ele>
        <time>2017-08-03T07:15:14.000Z</time>
      </trkpt>
      <trkpt lat="43.41355978511274" lon="-6.153811505064368">
        <ele>42</ele>
        <time>2017-08-03T07:15:21.000Z</time>
      </trkpt>
      <trkpt lat="43.41354017145932" lon="-6.153956176713109">
        <ele>41.8</ele>
        <time>2017-08-03T07:15:29.000Z</time>
      </trkpt>
      <trkpt lat="43.41350915841758" lon="-6.154108392074704">
        <ele>42.8</ele>
        <time>2017-08-03T07:15:38.000Z</time>
      </trkpt>
      <trkpt lat="43.41347252950072" lon="-6.154297487810254">
        <ele>43.8</ele>
        <time>2017-08-03T07:15:49.000Z</time>
      </trkpt>
      <trkpt lat="43.413451658561826" lon="-6.154420450329781">
        <ele>44.4</ele>
        <time>2017-08-03T07:15:56.000Z</time>
      </trkpt>
      <trkpt lat="43.413438918069005" lon="-6.154522206634283">
        <ele>44.8</ele>
        <time>2017-08-03T07:16:02.000Z</time>
      </trkpt>
      <trkpt lat="43.413396924734116" lon="-6.1546501982957125">
        <ele>45.6</ele>
        <time>2017-08-03T07:16:10.000Z</time>
      </trkpt>
      <trkpt lat="43.41338594444096" lon="-6.154687497764826">
        <ele>45.6</ele>
        <time>2017-08-03T07:16:12.000Z</time>
      </trkpt>
      <trkpt lat="43.41336498968303" lon="-6.154758743941784">
        <ele>46</ele>
        <time>2017-08-03T07:16:16.000Z</time>
      </trkpt>
      <trkpt lat="43.41331411153078" lon="-6.154901068657637">
        <ele>46.6</ele>
        <time>2017-08-03T07:16:24.000Z</time>
      </trkpt>
      <trkpt lat="43.413285529240966" lon="-6.15498136729002">
        <ele>46.8</ele>
        <time>2017-08-03T07:16:29.000Z</time>
      </trkpt>
      <trkpt lat="43.41328150592744" lon="-6.154997879639268">
        <ele>46.8</ele>
        <time>2017-08-03T07:16:30.000Z</time>
      </trkpt>
      <trkpt lat="43.4132388420403" lon="-6.155131570994854">
        <ele>47.8</ele>
        <time>2017-08-03T07:16:38.000Z</time>
      </trkpt>
      <trkpt lat="43.413207828998566" lon="-6.155235255137086">
        <ele>48.6</ele>
        <time>2017-08-03T07:16:44.000Z</time>
      </trkpt>
      <trkpt lat="43.413198022171855" lon="-6.1552724707871675">
        <ele>48.8</ele>
        <time>2017-08-03T07:16:46.000Z</time>
      </trkpt>
      <trkpt lat="43.41316977515817" lon="-6.155364001169801">
        <ele>49.4</ele>
        <time>2017-08-03T07:16:51.000Z</time>
      </trkpt>
      <trkpt lat="43.41317220591009" lon="-6.155417477712035">
        <ele>49.8</ele>
        <time>2017-08-03T07:16:54.000Z</time>
      </trkpt>
      <trkpt lat="43.413170613348484" lon="-6.155440025031567">
        <ele>50</ele>
        <time>2017-08-03T07:16:55.000Z</time>
      </trkpt>
      <trkpt lat="43.41313926503062" lon="-6.15557162091136">
        <ele>51</ele>
        <time>2017-08-03T07:17:03.000Z</time>
      </trkpt>
      <trkpt lat="43.41312509961426" lon="-6.155627025291324">
        <ele>51.4</ele>
        <time>2017-08-03T07:17:06.000Z</time>
      </trkpt>
      <trkpt lat="43.41312065720558" lon="-6.155659379437566">
        <ele>51.4</ele>
        <time>2017-08-03T07:17:08.000Z</time>
      </trkpt>
      <trkpt lat="43.41310037299991" lon="-6.155770691111684">
        <ele>52</ele>
        <time>2017-08-03T07:17:15.000Z</time>
      </trkpt>
      <trkpt lat="43.413053434342146" lon="-6.155885187909007">
        <ele>52.2</ele>
        <time>2017-08-03T07:17:23.000Z</time>
      </trkpt>
      <trkpt lat="43.41301412321627" lon="-6.155993230640888">
        <ele>52.6</ele>
        <time>2017-08-03T07:17:30.000Z</time>
      </trkpt>
      <trkpt lat="43.41298134997487" lon="-6.156102446839213">
        <ele>53</ele>
        <time>2017-08-03T07:17:37.000Z</time>
      </trkpt>
      <trkpt lat="43.412966933101416" lon="-6.156177632510662">
        <ele>53.2</ele>
        <time>2017-08-03T07:17:42.000Z</time>
      </trkpt>
      <trkpt lat="43.412962490692735" lon="-6.156198168173432">
        <ele>53.4</ele>
        <time>2017-08-03T07:17:43.000Z</time>
      </trkpt>
      <trkpt lat="43.41291672550142" lon="-6.156317191198468">
        <ele>53.6</ele>
        <time>2017-08-03T07:17:50.000Z</time>
      </trkpt>
      <trkpt lat="43.41287171468139" lon="-6.156447362154722">
        <ele>54</ele>
        <time>2017-08-03T07:17:57.000Z</time>
      </trkpt>
      <trkpt lat="43.41285436414182" lon="-6.156583065167069">
        <ele>54.4</ele>
        <time>2017-08-03T07:18:05.000Z</time>
      </trkpt>
      <trkpt lat="43.41288831084967" lon="-6.156723881140351">
        <ele>54.8</ele>
        <time>2017-08-03T07:18:14.000Z</time>
      </trkpt>
      <trkpt lat="43.41287691146135" lon="-6.156846759840846">
        <ele>55</ele>
        <time>2017-08-03T07:18:21.000Z</time>
      </trkpt>
      <trkpt lat="43.41286073438823" lon="-6.15693686529994">
        <ele>55.2</ele>
        <time>2017-08-03T07:18:27.000Z</time>
      </trkpt>
      <trkpt lat="43.41281580738723" lon="-6.157035520300269">
        <ele>55.2</ele>
        <time>2017-08-03T07:18:34.000Z</time>
      </trkpt>
      <trkpt lat="43.412778340280056" lon="-6.157156638801098">
        <ele>55.4</ele>
        <time>2017-08-03T07:18:42.000Z</time>
      </trkpt>
      <trkpt lat="43.412749506533146" lon="-6.157265854999423">
        <ele>56</ele>
        <time>2017-08-03T07:18:50.000Z</time>
      </trkpt>
      <trkpt lat="43.41276333667338" lon="-6.157325366511941">
        <ele>57</ele>
        <time>2017-08-03T07:18:57.000Z</time>
      </trkpt>
      <trkpt lat="43.412741711363196" lon="-6.157315140590072">
        <ele>56.6</ele>
        <time>2017-08-03T07:19:06.000Z</time>
      </trkpt>
      <trkpt lat="43.412720086053014" lon="-6.157308351248503">
        <ele>56.2</ele>
        <time>2017-08-03T07:19:12.000Z</time>
      </trkpt>
      <trkpt lat="43.412694185972214" lon="-6.15731162019074">
        <ele>56</ele>
        <time>2017-08-03T07:19:33.000Z</time>
      </trkpt>
      <trkpt lat="43.41267826035619" lon="-6.157251186668873">
        <ele>55</ele>
        <time>2017-08-03T07:20:03.000Z</time>
      </trkpt>
      <trkpt lat="43.412684043869376" lon="-6.157244062051177">
        <ele>55</ele>
        <time>2017-08-03T07:20:10.000Z</time>
      </trkpt>
      <trkpt lat="43.41267926618457" lon="-6.157280188053846">
        <ele>55.4</ele>
        <time>2017-08-03T07:20:21.000Z</time>
      </trkpt>
      <trkpt lat="43.412675745785236" lon="-6.157326623797417">
        <ele>55.8</ele>
        <time>2017-08-03T07:20:30.000Z</time>
      </trkpt>
      <trkpt lat="43.41266501694918" lon="-6.157417315989733">
        <ele>56.8</ele>
        <time>2017-08-03T07:21:17.000Z</time>
      </trkpt>
      <trkpt lat="43.41267390176654" lon="-6.157448580488563">
        <ele>57.4</ele>
        <time>2017-08-03T07:21:23.000Z</time>
      </trkpt>
      <trkpt lat="43.412681613117456" lon="-6.157457046210766">
        <ele>57.6</ele>
        <time>2017-08-03T07:21:27.000Z</time>
      </trkpt>
      <trkpt lat="43.41268488205969" lon="-6.157457465305924">
        <ele>57.6</ele>
        <time>2017-08-03T07:21:34.000Z</time>
      </trkpt>
      <trkpt lat="43.41268613934517" lon="-6.157451178878546">
        <ele>57.6</ele>
        <time>2017-08-03T07:21:54.000Z</time>
      </trkpt>
      <trkpt lat="43.412675242871046" lon="-6.157453944906592">
        <ele>57.4</ele>
        <time>2017-08-03T07:22:08.000Z</time>
      </trkpt>
      <trkpt lat="43.41266660951078" lon="-6.157450927421451">
        <ele>57.2</ele>
        <time>2017-08-03T07:22:09.000Z</time>
      </trkpt>
      <trkpt lat="43.41264808550477" lon="-6.157451346516609">
        <ele>57</ele>
        <time>2017-08-03T07:22:14.000Z</time>
      </trkpt>
      <trkpt lat="43.41268957592547" lon="-6.157513121142983">
        <ele>58.2</ele>
        <time>2017-08-03T07:22:36.000Z</time>
      </trkpt>
      <trkpt lat="43.4126775059849" lon="-6.157470038160682">
        <ele>57.6</ele>
        <time>2017-08-03T07:22:53.000Z</time>
      </trkpt>
      <trkpt lat="43.41268429532647" lon="-6.157429972663522">
        <ele>57.2</ele>
        <time>2017-08-03T07:22:58.000Z</time>
      </trkpt>
      <trkpt lat="43.41266811825335" lon="-6.157383117824793">
        <ele>56.4</ele>
        <time>2017-08-03T07:23:03.000Z</time>
      </trkpt>
      <trkpt lat="43.41267884708941" lon="-6.157389236614108">
        <ele>56.6</ele>
        <time>2017-08-03T07:23:08.000Z</time>
      </trkpt>
      <trkpt lat="43.412692844867706" lon="-6.1573670245707035">
        <ele>56.6</ele>
        <time>2017-08-03T07:23:12.000Z</time>
      </trkpt>
      <trkpt lat="43.412696197628975" lon="-6.157382279634476">
        <ele>56.8</ele>
        <time>2017-08-03T07:23:17.000Z</time>
      </trkpt>
      <trkpt lat="43.41272327117622" lon="-6.157377753406763">
        <ele>57</ele>
        <time>2017-08-03T07:23:25.000Z</time>
      </trkpt>
      <trkpt lat="43.412698209285736" lon="-6.15733752027154">
        <ele>56.2</ele>
        <time>2017-08-03T07:23:31.000Z</time>
      </trkpt>
      <trkpt lat="43.41268999502063" lon="-6.157348500564694">
        <ele>56.4</ele>
        <time>2017-08-03T07:23:41.000Z</time>
      </trkpt>
      <trkpt lat="43.41267096810043" lon="-6.157335760071874">
        <ele>56</ele>
        <time>2017-08-03T07:24:08.000Z</time>
      </trkpt>
      <trkpt lat="43.41261229477823" lon="-6.157175749540329">
        <ele>54.8</ele>
        <time>2017-08-03T07:26:15.000Z</time>
      </trkpt>
      <trkpt lat="43.412593100219965" lon="-6.157181616872549">
        <ele>54.8</ele>
        <time>2017-08-03T07:34:05.000Z</time>
      </trkpt>
      <trkpt lat="43.41265822760761" lon="-6.157307345420122">
        <ele>55.4</ele>
        <time>2017-08-03T07:36:24.000Z</time>
      </trkpt>
      <trkpt lat="43.41264699585736" lon="-6.157278260216117">
        <ele>55</ele>
        <time>2017-08-03T07:36:35.000Z</time>
      </trkpt>
      <trkpt lat="43.41263987123966" lon="-6.157228639349341">
        <ele>54.8</ele>
        <time>2017-08-03T07:37:26.000Z</time>
      </trkpt>
      <trkpt lat="43.41260751709342" lon="-6.1571216862648726">
        <ele>54.6</ele>
        <time>2017-08-03T07:38:22.000Z</time>
      </trkpt>
      <trkpt lat="43.412669878453016" lon="-6.157261244952679">
        <ele>55</ele>
        <time>2017-08-03T07:40:10.000Z</time>
      </trkpt>
      <trkpt lat="43.41265789233148" lon="-6.157257976010442">
        <ele>55</ele>
        <time>2017-08-03T07:40:17.000Z</time>
      </trkpt>
      <trkpt lat="43.412659065797925" lon="-6.157266106456518">
        <ele>55</ele>
        <time>2017-08-03T07:40:26.000Z</time>
      </trkpt>
      <trkpt lat="43.412664430215955" lon="-6.157295359298587">
        <ele>55.4</ele>
        <time>2017-08-03T07:40:59.000Z</time>
      </trkpt>
      <trkpt lat="43.412661915645" lon="-6.1572609934955835">
        <ele>55</ele>
        <time>2017-08-03T07:44:04.000Z</time>
      </trkpt>
      <trkpt lat="43.412672225385904" lon="-6.157252443954349">
        <ele>55</ele>
        <time>2017-08-03T07:46:32.000Z</time>
      </trkpt>
      <trkpt lat="43.41268429532647" lon="-6.157245067879558">
        <ele>55</ele>
        <time>2017-08-03T07:46:34.000Z</time>
      </trkpt>
      <trkpt lat="43.412677673622966" lon="-6.157308015972376">
        <ele>55.6</ele>
        <time>2017-08-03T07:47:42.000Z</time>
      </trkpt>
      <trkpt lat="43.412649342790246" lon="-6.157185472548008">
        <ele>54.8</ele>
        <time>2017-08-03T07:49:41.000Z</time>
      </trkpt>
      <trkpt lat="43.41266283765435" lon="-6.157151525840163">
        <ele>54.8</ele>
        <time>2017-08-03T07:50:18.000Z</time>
      </trkpt>
      <trkpt lat="43.41268069110811" lon="-6.157158985733986">
        <ele>54.8</ele>
        <time>2017-08-03T07:50:35.000Z</time>
      </trkpt>
      <trkpt lat="43.412698628380895" lon="-6.157317571341991">
        <ele>56</ele>
        <time>2017-08-03T07:52:02.000Z</time>
      </trkpt>
      <trkpt lat="43.41266116127372" lon="-6.15718656219542">
        <ele>54.8</ele>
        <time>2017-08-03T07:52:49.000Z</time>
      </trkpt>
      <trkpt lat="43.412648253142834" lon="-6.157154627144337">
        <ele>54.8</ele>
        <time>2017-08-03T07:53:28.000Z</time>
      </trkpt>
      <trkpt lat="43.41264255344868" lon="-6.157137779518962">
        <ele>54.6</ele>
        <time>2017-08-03T07:53:36.000Z</time>
      </trkpt>
      <trkpt lat="43.4126016497612" lon="-6.157173737883568">
        <ele>54.6</ele>
        <time>2017-08-03T07:53:41.000Z</time>
      </trkpt>
      <trkpt lat="43.41259326785803" lon="-6.157198129221797">
        <ele>54.8</ele>
        <time>2017-08-03T07:53:43.000Z</time>
      </trkpt>
      <trkpt lat="43.4125672839582" lon="-6.15722662769258">
        <ele>54.8</ele>
        <time>2017-08-03T07:53:47.000Z</time>
      </trkpt>
      <trkpt lat="43.41253509745002" lon="-6.157287480309606">
        <ele>54.8</ele>
        <time>2017-08-03T07:53:51.000Z</time>
      </trkpt>
      <trkpt lat="43.41252839192748" lon="-6.157296029850841">
        <ele>54.8</ele>
        <time>2017-08-03T07:53:52.000Z</time>
      </trkpt>
      <trkpt lat="43.412489080801606" lon="-6.157304747030139">
        <ele>54.8</ele>
        <time>2017-08-03T07:53:56.000Z</time>
      </trkpt>
      <trkpt lat="43.41246435418725" lon="-6.157311284914613">
        <ele>54.8</ele>
        <time>2017-08-03T07:53:58.000Z</time>
      </trkpt>
      <trkpt lat="43.41240333393216" lon="-6.157381357625127">
        <ele>54.8</ele>
        <time>2017-08-03T07:54:04.000Z</time>
      </trkpt>
      <trkpt lat="43.41233083046973" lon="-6.157449251040816">
        <ele>54.8</ele>
        <time>2017-08-03T07:54:11.000Z</time>
      </trkpt>
      <trkpt lat="43.412318425253034" lon="-6.157480347901583">
        <ele>54.8</ele>
        <time>2017-08-03T07:54:13.000Z</time>
      </trkpt>
      <trkpt lat="43.41229336336255" lon="-6.1575172282755375">
        <ele>54.8</ele>
        <time>2017-08-03T07:54:16.000Z</time>
      </trkpt>
      <trkpt lat="43.41223862953484" lon="-6.1576279532164335">
        <ele>55</ele>
        <time>2017-08-03T07:54:24.000Z</time>
      </trkpt>
      <trkpt lat="43.41221448965371" lon="-6.157650835812092">
        <ele>55</ele>
        <time>2017-08-03T07:54:27.000Z</time>
      </trkpt>
      <trkpt lat="43.412196887657046" lon="-6.157667264342308">
        <ele>55</ele>
        <time>2017-08-03T07:54:29.000Z</time>
      </trkpt>
      <trkpt lat="43.41218682937324" lon="-6.15768788382411">
        <ele>55</ele>
        <time>2017-08-03T07:54:31.000Z</time>
      </trkpt>
      <trkpt lat="43.412177274003625" lon="-6.15771378390491">
        <ele>55</ele>
        <time>2017-08-03T07:54:34.000Z</time>
      </trkpt>
      <trkpt lat="43.412172915413976" lon="-6.157720237970352">
        <ele>55</ele>
        <time>2017-08-03T07:54:35.000Z</time>
      </trkpt>
      <trkpt lat="43.41214139945805" lon="-6.157800788059831">
        <ele>55.2</ele>
        <time>2017-08-03T07:54:40.000Z</time>
      </trkpt>
      <trkpt lat="43.41208750382066" lon="-6.157892402261496">
        <ele>55.6</ele>
        <time>2017-08-03T07:54:46.000Z</time>
      </trkpt>
      <trkpt lat="43.412015084177256" lon="-6.158004133030772">
        <ele>56</ele>
        <time>2017-08-03T07:54:54.000Z</time>
      </trkpt>
      <trkpt lat="43.41198256239295" lon="-6.158052664250135">
        <ele>56.2</ele>
        <time>2017-08-03T07:54:58.000Z</time>
      </trkpt>
      <trkpt lat="43.411966636776924" lon="-6.158055849373341">
        <ele>56.2</ele>
        <time>2017-08-03T07:55:00.000Z</time>
      </trkpt>
      <trkpt lat="43.411916345357895" lon="-6.158133968710899">
        <ele>56.4</ele>
        <time>2017-08-03T07:55:06.000Z</time>
      </trkpt>
      <trkpt lat="43.41190326958895" lon="-6.1581589467823505">
        <ele>56.4</ele>
        <time>2017-08-03T07:55:08.000Z</time>
      </trkpt>
      <trkpt lat="43.41181366704404" lon="-6.158292051404715">
        <ele>56.4</ele>
        <time>2017-08-03T07:55:18.000Z</time>
      </trkpt>
      <trkpt lat="43.4117556642741" lon="-6.158372601494193">
        <ele>56.4</ele>
        <time>2017-08-03T07:55:25.000Z</time>
      </trkpt>
      <trkpt lat="43.41166161932051" lon="-6.158473351970315">
        <ele>56.2</ele>
        <time>2017-08-03T07:55:36.000Z</time>
      </trkpt>
      <trkpt lat="43.41161551885307" lon="-6.1585241463035345">
        <ele>56</ele>
        <time>2017-08-03T07:55:42.000Z</time>
      </trkpt>
      <trkpt lat="43.41158224269748" lon="-6.158562619239092">
        <ele>56</ele>
        <time>2017-08-03T07:55:46.000Z</time>
      </trkpt>
      <trkpt lat="43.411565562710166" lon="-6.158563792705536">
        <ele>55.8</ele>
        <time>2017-08-03T07:55:48.000Z</time>
      </trkpt>
      <trkpt lat="43.41151636093855" lon="-6.158534036949277">
        <ele>55</ele>
        <time>2017-08-03T07:55:53.000Z</time>
      </trkpt>
      <trkpt lat="43.41150160878897" lon="-6.158528001978993">
        <ele>54.8</ele>
        <time>2017-08-03T07:55:55.000Z</time>
      </trkpt>
      <trkpt lat="43.4114876948297" lon="-6.158520458266139">
        <ele>54.4</ele>
        <time>2017-08-03T07:55:57.000Z</time>
      </trkpt>
      <trkpt lat="43.41145341284573" lon="-6.158503023907542">
        <ele>54</ele>
        <time>2017-08-03T07:56:01.000Z</time>
      </trkpt>
      <trkpt lat="43.41141921468079" lon="-6.15848433226347">
        <ele>53.6</ele>
        <time>2017-08-03T07:56:05.000Z</time>
      </trkpt>
      <trkpt lat="43.41140245087445" lon="-6.158473687246442">
        <ele>53.6</ele>
        <time>2017-08-03T07:56:07.000Z</time>
      </trkpt>
      <trkpt lat="43.41135417111218" lon="-6.15843546576798">
        <ele>53.8</ele>
        <time>2017-08-03T07:56:12.000Z</time>
      </trkpt>
      <trkpt lat="43.411343609914184" lon="-6.158428508788347">
        <ele>53.8</ele>
        <time>2017-08-03T07:56:13.000Z</time>
      </trkpt>
      <trkpt lat="43.41126373037696" lon="-6.158355921506882">
        <ele>54.2</ele>
        <time>2017-08-03T07:56:20.000Z</time>
      </trkpt>
      <trkpt lat="43.41118024662137" lon="-6.158275790512562">
        <ele>54.4</ele>
        <time>2017-08-03T07:56:28.000Z</time>
      </trkpt>
      <trkpt lat="43.411154095083475" lon="-6.158262295648456">
        <ele>54.4</ele>
        <time>2017-08-03T07:56:31.000Z</time>
      </trkpt>
      <trkpt lat="43.41112752445042" lon="-6.158239496871829">
        <ele>54.6</ele>
        <time>2017-08-03T07:56:33.000Z</time>
      </trkpt>
      <trkpt lat="43.41110581532121" lon="-6.158223655074835">
        <ele>54.6</ele>
        <time>2017-08-03T07:56:35.000Z</time>
      </trkpt>
      <trkpt lat="43.41106407344341" lon="-6.158186607062817">
        <ele>54.8</ele>
        <time>2017-08-03T07:56:39.000Z</time>
      </trkpt>
      <trkpt lat="43.410996682941914" lon="-6.158134555444121">
        <ele>55</ele>
        <time>2017-08-03T07:56:44.000Z</time>
      </trkpt>
      <trkpt lat="43.410982098430395" lon="-6.158125167712569">
        <ele>55</ele>
        <time>2017-08-03T07:56:45.000Z</time>
      </trkpt>
      <trkpt lat="43.410879503935575" lon="-6.158030368387699">
        <ele>54.4</ele>
        <time>2017-08-03T07:56:53.000Z</time>
      </trkpt>
      <trkpt lat="43.41078730300069" lon="-6.157963145524263">
        <ele>53.8</ele>
        <time>2017-08-03T07:57:01.000Z</time>
      </trkpt>
      <trkpt lat="43.41067121364176" lon="-6.157866418361664">
        <ele>53</ele>
        <time>2017-08-03T07:57:12.000Z</time>
      </trkpt>
      <trkpt lat="43.41057004407048" lon="-6.157783940434456">
        <ele>52.4</ele>
        <time>2017-08-03T07:57:22.000Z</time>
      </trkpt>
      <trkpt lat="43.41047692112625" lon="-6.157716801390052">
        <ele>51.8</ele>
        <time>2017-08-03T07:57:31.000Z</time>
      </trkpt>
      <trkpt lat="43.410371812060475" lon="-6.157639604061842">
        <ele>51.2</ele>
        <time>2017-08-03T07:57:41.000Z</time>
      </trkpt>
      <trkpt lat="43.410280449315906" lon="-6.157577158883214">
        <ele>50.6</ele>
        <time>2017-08-03T07:57:50.000Z</time>
      </trkpt>
      <trkpt lat="43.41020350344479" lon="-6.157522173598409">
        <ele>50</ele>
        <time>2017-08-03T07:57:58.000Z</time>
      </trkpt>
      <trkpt lat="43.41010903939605" lon="-6.157455034554005">
        <ele>49.4</ele>
        <time>2017-08-03T07:58:07.000Z</time>
      </trkpt>
      <trkpt lat="43.410020526498556" lon="-6.157399211078882">
        <ele>49</ele>
        <time>2017-08-03T07:58:16.000Z</time>
      </trkpt>
      <trkpt lat="43.40989597141743" lon="-6.157339951023459">
        <ele>49</ele>
        <time>2017-08-03T07:58:27.000Z</time>
      </trkpt>
      <trkpt lat="43.40979496948421" lon="-6.157273901626468">
        <ele>49</ele>
        <time>2017-08-03T07:58:36.000Z</time>
      </trkpt>
      <trkpt lat="43.4097127430141" lon="-6.157183209434152">
        <ele>48.8</ele>
        <time>2017-08-03T07:58:46.000Z</time>
      </trkpt>
      <trkpt lat="43.409645687788725" lon="-6.157100480049849">
        <ele>48.6</ele>
        <time>2017-08-03T07:58:54.000Z</time>
      </trkpt>
      <trkpt lat="43.40961065143347" lon="-6.157073490321636">
        <ele>48.6</ele>
        <time>2017-08-03T07:58:57.000Z</time>
      </trkpt>
      <trkpt lat="43.40958567336202" lon="-6.157056977972388">
        <ele>48.4</ele>
        <time>2017-08-03T07:59:00.000Z</time>
      </trkpt>
      <trkpt lat="43.40953295119107" lon="-6.156988078728318">
        <ele>48.4</ele>
        <time>2017-08-03T07:59:07.000Z</time>
      </trkpt>
      <trkpt lat="43.40948039665818" lon="-6.156904175877571">
        <ele>48.6</ele>
        <time>2017-08-03T07:59:14.000Z</time>
      </trkpt>
      <trkpt lat="43.40943295508623" lon="-6.156727988272905">
        <ele>48.8</ele>
        <time>2017-08-03T07:59:25.000Z</time>
      </trkpt>
      <trkpt lat="43.40941526927054" lon="-6.156555823981762">
        <ele>48.8</ele>
        <time>2017-08-03T07:59:35.000Z</time>
      </trkpt>
      <trkpt lat="43.40939976274967" lon="-6.156470160931349">
        <ele>48.8</ele>
        <time>2017-08-03T07:59:43.000Z</time>
      </trkpt>
      <trkpt lat="43.40936992317438" lon="-6.156416852027178">
        <ele>48.8</ele>
        <time>2017-08-03T08:00:08.000Z</time>
      </trkpt>
      <trkpt lat="43.409360870718956" lon="-6.15640620701015">
        <ele>48.8</ele>
        <time>2017-08-03T08:00:09.000Z</time>
      </trkpt>
      <trkpt lat="43.40929708443582" lon="-6.1563135869801044">
        <ele>48.6</ele>
        <time>2017-08-03T08:00:16.000Z</time>
      </trkpt>
      <trkpt lat="43.40923631563783" lon="-6.156226582825184">
        <ele>48.6</ele>
        <time>2017-08-03T08:00:23.000Z</time>
      </trkpt>
      <trkpt lat="43.40915551409125" lon="-6.15611401386559">
        <ele>48.6</ele>
        <time>2017-08-03T08:00:32.000Z</time>
      </trkpt>
      <trkpt lat="43.40906297788024" lon="-6.155992476269603">
        <ele>48.6</ele>
        <time>2017-08-03T08:00:42.000Z</time>
      </trkpt>
      <trkpt lat="43.40896373614669" lon="-6.155931372195482">
        <ele>49</ele>
        <time>2017-08-03T08:00:51.000Z</time>
      </trkpt>
      <trkpt lat="43.40886374004185" lon="-6.1559030413627625">
        <ele>49.4</ele>
        <time>2017-08-03T08:00:59.000Z</time>
      </trkpt>
      <trkpt lat="43.40875561349094" lon="-6.1558441165834665">
        <ele>50</ele>
        <time>2017-08-03T08:01:08.000Z</time>
      </trkpt>
      <trkpt lat="43.40862192213535" lon="-6.155725177377462">
        <ele>50.4</ele>
        <time>2017-08-03T08:01:20.000Z</time>
      </trkpt>
      <trkpt lat="43.40852494351566" lon="-6.155636832118034">
        <ele>50.8</ele>
        <time>2017-08-03T08:01:29.000Z</time>
      </trkpt>
      <trkpt lat="43.40842771343887" lon="-6.1555487383157015">
        <ele>52.4</ele>
        <time>2017-08-03T08:01:38.000Z</time>
      </trkpt>
      <trkpt lat="43.40836610645056" lon="-6.155500961467624">
        <ele>54.2</ele>
        <time>2017-08-03T08:01:44.000Z</time>
      </trkpt>
      <trkpt lat="43.40828572399914" lon="-6.155488304793835">
        <ele>56.8</ele>
        <time>2017-08-03T08:01:51.000Z</time>
      </trkpt>
      <trkpt lat="43.40827910229564" lon="-6.155486460775137">
        <ele>57</ele>
        <time>2017-08-03T08:01:52.000Z</time>
      </trkpt>
      <trkpt lat="43.408244820311666" lon="-6.155525017529726">
        <ele>58.2</ele>
        <time>2017-08-03T08:01:56.000Z</time>
      </trkpt>
      <trkpt lat="43.408239958807826" lon="-6.155533650889993">
        <ele>58.4</ele>
        <time>2017-08-03T08:01:57.000Z</time>
      </trkpt>
      <trkpt lat="43.40820400044322" lon="-6.155593330040574">
        <ele>60</ele>
        <time>2017-08-03T08:02:03.000Z</time>
      </trkpt>
      <trkpt lat="43.40818019583821" lon="-6.155654601752758">
        <ele>60.8</ele>
        <time>2017-08-03T08:02:09.000Z</time>
      </trkpt>
      <trkpt lat="43.40815111063421" lon="-6.155716376379132">
        <ele>61.6</ele>
        <time>2017-08-03T08:02:15.000Z</time>
      </trkpt>
      <trkpt lat="43.408130407333374" lon="-6.155750993639231">
        <ele>62.4</ele>
        <time>2017-08-03T08:02:20.000Z</time>
      </trkpt>
      <trkpt lat="43.408108949661255" lon="-6.1558114271610975">
        <ele>63</ele>
        <time>2017-08-03T08:02:26.000Z</time>
      </trkpt>
      <trkpt lat="43.408096712082624" lon="-6.155829364433885">
        <ele>63.4</ele>
        <time>2017-08-03T08:02:28.000Z</time>
      </trkpt>
      <trkpt lat="43.40807349421084" lon="-6.155876889824867">
        <ele>64</ele>
        <time>2017-08-03T08:02:33.000Z</time>
      </trkpt>
      <trkpt lat="43.40803636237979" lon="-6.155955344438553">
        <ele>65.2</ele>
        <time>2017-08-03T08:02:40.000Z</time>
      </trkpt>
      <trkpt lat="43.40799084864557" lon="-6.156028434634209">
        <ele>66.6</ele>
        <time>2017-08-03T08:02:47.000Z</time>
      </trkpt>
      <trkpt lat="43.40798456221819" lon="-6.156032709404826">
        <ele>66.8</ele>
        <time>2017-08-03T08:02:48.000Z</time>
      </trkpt>
      <trkpt lat="43.40795170515776" lon="-6.156072188168764">
        <ele>67.8</ele>
        <time>2017-08-03T08:02:54.000Z</time>
      </trkpt>
      <trkpt lat="43.40792044065893" lon="-6.15611745044589">
        <ele>68.6</ele>
        <time>2017-08-03T08:03:00.000Z</time>
      </trkpt>
      <trkpt lat="43.407897809520364" lon="-6.156180063262582">
        <ele>69.4</ele>
        <time>2017-08-03T08:03:06.000Z</time>
      </trkpt>
      <trkpt lat="43.40786721557379" lon="-6.15625717677176">
        <ele>70.4</ele>
        <time>2017-08-03T08:03:13.000Z</time>
      </trkpt>
      <trkpt lat="43.40783519670367" lon="-6.156337223947048">
        <ele>71.4</ele>
        <time>2017-08-03T08:03:21.000Z</time>
      </trkpt>
      <trkpt lat="43.40779789723456" lon="-6.156421881169081">
        <ele>72.8</ele>
        <time>2017-08-03T08:03:29.000Z</time>
      </trkpt>
      <trkpt lat="43.40777250006795" lon="-6.156481308862567">
        <ele>73.6</ele>
        <time>2017-08-03T08:03:35.000Z</time>
      </trkpt>
      <trkpt lat="43.40773746371269" lon="-6.156547861173749">
        <ele>75</ele>
        <time>2017-08-03T08:03:42.000Z</time>
      </trkpt>
      <trkpt lat="43.40771282091737" lon="-6.156581304967403">
        <ele>75.8</ele>
        <time>2017-08-03T08:03:46.000Z</time>
      </trkpt>
      <trkpt lat="43.407699912786484" lon="-6.15660410374403">
        <ele>76.2</ele>
        <time>2017-08-03T08:03:48.000Z</time>
      </trkpt>
      <trkpt lat="43.40769027359784" lon="-6.156635116785765">
        <ele>76.6</ele>
        <time>2017-08-03T08:03:51.000Z</time>
      </trkpt>
      <trkpt lat="43.40768851339817" lon="-6.156645258888602">
        <ele>76.6</ele>
        <time>2017-08-03T08:03:55.000Z</time>
      </trkpt>
      <trkpt lat="43.40766068547964" lon="-6.15669253282249">
        <ele>77.6</ele>
        <time>2017-08-03T08:04:01.000Z</time>
      </trkpt>
      <trkpt lat="43.40761475265026" lon="-6.156810466200113">
        <ele>78.8</ele>
        <time>2017-08-03T08:04:11.000Z</time>
      </trkpt>
      <trkpt lat="43.40759480372071" lon="-6.156918006017804">
        <ele>79.4</ele>
        <time>2017-08-03T08:04:19.000Z</time>
      </trkpt>
      <trkpt lat="43.40758281759918" lon="-6.157017666846514">
        <ele>79.8</ele>
        <time>2017-08-03T08:04:27.000Z</time>
      </trkpt>
      <trkpt lat="43.40754761360586" lon="-6.157140210270882">
        <ele>80.6</ele>
        <time>2017-08-03T08:04:36.000Z</time>
      </trkpt>
      <trkpt lat="43.40750972740352" lon="-6.157243894413114">
        <ele>81.4</ele>
        <time>2017-08-03T08:04:44.000Z</time>
      </trkpt>
      <trkpt lat="43.407460777089" lon="-6.157345650717616">
        <ele>82.4</ele>
        <time>2017-08-03T08:04:52.000Z</time>
      </trkpt>
      <trkpt lat="43.407454742118716" lon="-6.157356295734644">
        <ele>82.4</ele>
        <time>2017-08-03T08:04:53.000Z</time>
      </trkpt>
      <trkpt lat="43.407454742118716" lon="-6.157356295734644">
        <ele>82.4</ele>
        <time>2017-08-03T08:04:53.000Z</time>
      </trkpt>
      <trkpt lat="43.407442001625896" lon="-6.157379848882556">
        <ele>82.6</ele>
        <time>2017-08-03T08:04:55.000Z</time>
      </trkpt>
      <trkpt lat="43.407410234212875" lon="-6.1574135441333055">
        <ele>83.2</ele>
        <time>2017-08-03T08:04:59.000Z</time>
      </trkpt>
      <trkpt lat="43.40737762860954" lon="-6.157420082017779">
        <ele>83.4</ele>
        <time>2017-08-03T08:05:03.000Z</time>
      </trkpt>
      <trkpt lat="43.40736337937415" lon="-6.15740935318172">
        <ele>83.6</ele>
        <time>2017-08-03T08:05:05.000Z</time>
      </trkpt>
      <trkpt lat="43.40733043849468" lon="-6.15735461935401">
        <ele>83.8</ele>
        <time>2017-08-03T08:05:11.000Z</time>
      </trkpt>
      <trkpt lat="43.407324235886335" lon="-6.157336011528969">
        <ele>83.8</ele>
        <time>2017-08-03T08:05:13.000Z</time>
      </trkpt>
      <trkpt lat="43.4073209669441" lon="-6.157297622412443">
        <ele>83.6</ele>
        <time>2017-08-03T08:05:16.000Z</time>
      </trkpt>
      <trkpt lat="43.40733043849468" lon="-6.157206175848842">
        <ele>83.2</ele>
        <time>2017-08-03T08:05:23.000Z</time>
      </trkpt>
      <trkpt lat="43.407333036884665" lon="-6.157180359587073">
        <ele>83</ele>
        <time>2017-08-03T08:05:25.000Z</time>
      </trkpt>
      <trkpt lat="43.407330103218555" lon="-6.157123614102602">
        <ele>83</ele>
        <time>2017-08-03T08:05:29.000Z</time>
      </trkpt>
      <trkpt lat="43.40732012875378" lon="-6.157080950215459">
        <ele>82.8</ele>
        <time>2017-08-03T08:05:32.000Z</time>
      </trkpt>
      <trkpt lat="43.40731476433575" lon="-6.157052535563707">
        <ele>82.8</ele>
        <time>2017-08-03T08:05:34.000Z</time>
      </trkpt>
      <trkpt lat="43.407291630283" lon="-6.157004255801439">
        <ele>83</ele>
        <time>2017-08-03T08:05:38.000Z</time>
      </trkpt>
      <trkpt lat="43.40724150650203" lon="-6.156930830329657">
        <ele>83.2</ele>
        <time>2017-08-03T08:05:45.000Z</time>
      </trkpt>
      <trkpt lat="43.40717093087733" lon="-6.156849777325988">
        <ele>83.8</ele>
        <time>2017-08-03T08:05:54.000Z</time>
      </trkpt>
      <trkpt lat="43.40710764750838" lon="-6.156798982992768">
        <ele>84.4</ele>
        <time>2017-08-03T08:06:01.000Z</time>
      </trkpt>
      <trkpt lat="43.407027097418904" lon="-6.1567638628184795">
        <ele>85.2</ele>
        <time>2017-08-03T08:06:09.000Z</time>
      </trkpt>
      <trkpt lat="43.40691955760121" lon="-6.156757241114974">
        <ele>86.6</ele>
        <time>2017-08-03T08:06:19.000Z</time>
      </trkpt>
      <trkpt lat="43.406814532354474" lon="-6.156783644109964">
        <ele>87.8</ele>
        <time>2017-08-03T08:06:29.000Z</time>
      </trkpt>
      <trkpt lat="43.406732473522425" lon="-6.156831001862884">
        <ele>88</ele>
        <time>2017-08-03T08:06:37.000Z</time>
      </trkpt>
      <trkpt lat="43.40668595395982" lon="-6.156864361837506">
        <ele>88.2</ele>
        <time>2017-08-03T08:06:42.000Z</time>
      </trkpt>
      <trkpt lat="43.406630381941795" lon="-6.15690509788692">
        <ele>88.4</ele>
        <time>2017-08-03T08:06:49.000Z</time>
      </trkpt>
      <trkpt lat="43.4063848759979" lon="-6.157069215551019">
        <ele>89</ele>
        <time>2017-08-03T08:07:18.000Z</time>
      </trkpt>
      <trkpt lat="43.406306840479374" lon="-6.157124368473887">
        <ele>89.2</ele>
        <time>2017-08-03T08:07:22.000Z</time>
      </trkpt>
      <trkpt lat="43.40623391792178" lon="-6.157192848622799">
        <ele>89.6</ele>
        <time>2017-08-03T08:07:28.000Z</time>
      </trkpt>
      <trkpt lat="43.406136352568865" lon="-6.157244564965367">
        <ele>89.8</ele>
        <time>2017-08-03T08:07:38.000Z</time>
      </trkpt>
      <trkpt lat="43.40606083162129" lon="-6.157235931605101">
        <ele>89.8</ele>
        <time>2017-08-03T08:07:45.000Z</time>
      </trkpt>
      <trkpt lat="43.40594306588173" lon="-6.157188238576055">
        <ele>90</ele>
        <time>2017-08-03T08:07:55.000Z</time>
      </trkpt>
      <trkpt lat="43.40587768703699" lon="-6.157142976298928">
        <ele>90.2</ele>
        <time>2017-08-03T08:08:02.000Z</time>
      </trkpt>
      <trkpt lat="43.40579512529075" lon="-6.157066281884909">
        <ele>90.2</ele>
        <time>2017-08-03T08:08:11.000Z</time>
      </trkpt>
      <trkpt lat="43.40570501983166" lon="-6.156978942453861">
        <ele>90.4</ele>
        <time>2017-08-03T08:08:21.000Z</time>
      </trkpt>
      <trkpt lat="43.40562882833183" lon="-6.156908115372062">
        <ele>90.4</ele>
        <time>2017-08-03T08:08:29.000Z</time>
      </trkpt>
      <trkpt lat="43.40551072731614" lon="-6.156854387372732">
        <ele>90.2</ele>
        <time>2017-08-03T08:08:39.000Z</time>
      </trkpt>
      <trkpt lat="43.405464543029666" lon="-6.156848268583417">
        <ele>90</ele>
        <time>2017-08-03T08:08:43.000Z</time>
      </trkpt>
      <trkpt lat="43.40543579310179" lon="-6.156849525868893">
        <ele>90</ele>
        <time>2017-08-03T08:08:46.000Z</time>
      </trkpt>
      <trkpt lat="43.40537192299962" lon="-6.1568492744117975">
        <ele>89.8</ele>
        <time>2017-08-03T08:08:53.000Z</time>
      </trkpt>
      <trkpt lat="43.405304783955216" lon="-6.156856315210462">
        <ele>89.6</ele>
        <time>2017-08-03T08:09:00.000Z</time>
      </trkpt>
      <trkpt lat="43.40519808232784" lon="-6.156859835609794">
        <ele>89.2</ele>
        <time>2017-08-03T08:09:10.000Z</time>
      </trkpt>
      <trkpt lat="43.40511929243803" lon="-6.156855309382081">
        <ele>89</ele>
        <time>2017-08-03T08:09:17.000Z</time>
      </trkpt>
      <trkpt lat="43.40500060468912" lon="-6.156863942742348">
        <ele>88.8</ele>
        <time>2017-08-03T08:09:27.000Z</time>
      </trkpt>
      <trkpt lat="43.40488820336759" lon="-6.156911216676235">
        <ele>89</ele>
        <time>2017-08-03T08:09:37.000Z</time>
      </trkpt>
      <trkpt lat="43.40482223778963" lon="-6.156962849199772">
        <ele>89.2</ele>
        <time>2017-08-03T08:09:43.000Z</time>
      </trkpt>
      <trkpt lat="43.404724169522524" lon="-6.157068544998765">
        <ele>89.4</ele>
        <time>2017-08-03T08:09:53.000Z</time>
      </trkpt>
      <trkpt lat="43.404632890596986" lon="-6.157204331830144">
        <ele>90</ele>
        <time>2017-08-03T08:10:04.000Z</time>
      </trkpt>
      <trkpt lat="43.40457337908447" lon="-6.157363168895245">
        <ele>90.8</ele>
        <time>2017-08-03T08:10:15.000Z</time>
      </trkpt>
      <trkpt lat="43.404561560600996" lon="-6.157397031784058">
        <ele>90.8</ele>
        <time>2017-08-03T08:10:17.000Z</time>
      </trkpt>
      <trkpt lat="43.40455309487879" lon="-6.157444808632135">
        <ele>91</ele>
        <time>2017-08-03T08:10:20.000Z</time>
      </trkpt>
      <trkpt lat="43.40453524142504" lon="-6.157588474452496">
        <ele>91.8</ele>
        <time>2017-08-03T08:10:29.000Z</time>
      </trkpt>
      <trkpt lat="43.40451520867646" lon="-6.157716382294893">
        <ele>92.4</ele>
        <time>2017-08-03T08:10:37.000Z</time>
      </trkpt>
      <trkpt lat="43.40450741350651" lon="-6.157730799168348">
        <ele>92.4</ele>
        <time>2017-08-03T08:10:38.000Z</time>
      </trkpt>
      <trkpt lat="43.40448805131018" lon="-6.157809337601066">
        <ele>92.8</ele>
        <time>2017-08-03T08:10:43.000Z</time>
      </trkpt>
      <trkpt lat="43.40446122922003" lon="-6.157939340919256">
        <ele>93.4</ele>
        <time>2017-08-03T08:10:51.000Z</time>
      </trkpt>
      <trkpt lat="43.40445863083005" lon="-6.158008491620421">
        <ele>93.6</ele>
        <time>2017-08-03T08:10:55.000Z</time>
      </trkpt>
      <trkpt lat="43.40446927584708" lon="-6.15806071087718">
        <ele>93.8</ele>
        <time>2017-08-03T08:10:58.000Z</time>
      </trkpt>
      <trkpt lat="43.40447723865509" lon="-6.1581595335155725">
        <ele>94</ele>
        <time>2017-08-03T08:11:04.000Z</time>
      </trkpt>
      <trkpt lat="43.40447380207479" lon="-6.158192893490195">
        <ele>94.2</ele>
        <time>2017-08-03T08:11:06.000Z</time>
      </trkpt>
      <trkpt lat="43.40444756671786" lon="-6.158328512683511">
        <ele>94.6</ele>
        <time>2017-08-03T08:11:14.000Z</time>
      </trkpt>
      <trkpt lat="43.4044196549803" lon="-6.158446278423071">
        <ele>95</ele>
        <time>2017-08-03T08:11:21.000Z</time>
      </trkpt>
      <trkpt lat="43.40438822284341" lon="-6.158582987263799">
        <ele>95.6</ele>
        <time>2017-08-03T08:11:29.000Z</time>
      </trkpt>
      <trkpt lat="43.40434421785176" lon="-6.158730676397681">
        <ele>96.2</ele>
        <time>2017-08-03T08:11:38.000Z</time>
      </trkpt>
      <trkpt lat="43.40431219898164" lon="-6.158825056627393">
        <ele>96.6</ele>
        <time>2017-08-03T08:11:44.000Z</time>
      </trkpt>
      <trkpt lat="43.404299626126885" lon="-6.1588548962026834">
        <ele>96.6</ele>
        <time>2017-08-03T08:11:46.000Z</time>
      </trkpt>
      <trkpt lat="43.404289400205016" lon="-6.158890938386321">
        <ele>96.8</ele>
        <time>2017-08-03T08:11:48.000Z</time>
      </trkpt>
      <trkpt lat="43.404268277809024" lon="-6.158927651122212">
        <ele>97</ele>
        <time>2017-08-03T08:11:51.000Z</time>
      </trkpt>
      <trkpt lat="43.40422653593123" lon="-6.159062432125211">
        <ele>98.8</ele>
        <time>2017-08-03T08:12:00.000Z</time>
      </trkpt>
      <trkpt lat="43.40420600026846" lon="-6.159188495948911">
        <ele>100.2</ele>
        <time>2017-08-03T08:12:08.000Z</time>
      </trkpt>
      <trkpt lat="43.40420264750719" lon="-6.159317158162594">
        <ele>101.2</ele>
        <time>2017-08-03T08:12:16.000Z</time>
      </trkpt>
      <trkpt lat="43.40420692227781" lon="-6.159431152045727">
        <ele>102.2</ele>
        <time>2017-08-03T08:12:23.000Z</time>
      </trkpt>
      <trkpt lat="43.404217483475804" lon="-6.159557970240712">
        <ele>103.2</ele>
        <time>2017-08-03T08:12:31.000Z</time>
      </trkpt>
      <trkpt lat="43.404219411313534" lon="-6.159653859212995">
        <ele>104</ele>
        <time>2017-08-03T08:12:37.000Z</time>
      </trkpt>
      <trkpt lat="43.404217064380646" lon="-6.159663749858737">
        <ele>104</ele>
        <time>2017-08-03T08:12:38.000Z</time>
      </trkpt>
      <trkpt lat="43.4042142983526" lon="-6.159733906388283">
        <ele>104.6</ele>
        <time>2017-08-03T08:12:43.000Z</time>
      </trkpt>
      <trkpt lat="43.404230726882815" lon="-6.159848822280765">
        <ele>105.8</ele>
        <time>2017-08-03T08:12:50.000Z</time>
      </trkpt>
      <trkpt lat="43.40424413792789" lon="-6.159963570535183">
        <ele>106.8</ele>
        <time>2017-08-03T08:12:57.000Z</time>
      </trkpt>
      <trkpt lat="43.404256124049425" lon="-6.1601112596690655">
        <ele>107.8</ele>
        <time>2017-08-03T08:13:06.000Z</time>
      </trkpt>
      <trkpt lat="43.40426743961871" lon="-6.160225253552198">
        <ele>108.6</ele>
        <time>2017-08-03T08:13:13.000Z</time>
      </trkpt>
      <trkpt lat="43.40427749790251" lon="-6.160334134474397">
        <ele>109.4</ele>
        <time>2017-08-03T08:13:20.000Z</time>
      </trkpt>
      <trkpt lat="43.404292752966285" lon="-6.160498335957527">
        <ele>110.4</ele>
        <time>2017-08-03T08:13:30.000Z</time>
      </trkpt>
      <trkpt lat="43.40430381707847" lon="-6.160615012049675">
        <ele>111.2</ele>
        <time>2017-08-03T08:13:38.000Z</time>
      </trkpt>
      <trkpt lat="43.40432368218899" lon="-6.160743674263358">
        <ele>112.6</ele>
        <time>2017-08-03T08:13:46.000Z</time>
      </trkpt>
      <trkpt lat="43.40434933081269" lon="-6.160861607640982">
        <ele>113.6</ele>
        <time>2017-08-03T08:13:53.000Z</time>
      </trkpt>
      <trkpt lat="43.40437699109316" lon="-6.160998232662678">
        <ele>114.8</ele>
        <time>2017-08-03T08:14:01.000Z</time>
      </trkpt>
      <trkpt lat="43.40440507046878" lon="-6.161097390577197">
        <ele>115.6</ele>
        <time>2017-08-03T08:14:07.000Z</time>
      </trkpt>
      <trkpt lat="43.404429629445076" lon="-6.161205265671015">
        <ele>116.6</ele>
        <time>2017-08-03T08:14:14.000Z</time>
      </trkpt>
      <trkpt lat="43.404470114037395" lon="-6.161310961470008">
        <ele>117.2</ele>
        <time>2017-08-03T08:14:21.000Z</time>
      </trkpt>
      <trkpt lat="43.40450456365943" lon="-6.161394026130438">
        <ele>117</ele>
        <time>2017-08-03T08:14:27.000Z</time>
      </trkpt>
      <trkpt lat="43.40451277792454" lon="-6.1614203453063965">
        <ele>117</ele>
        <time>2017-08-03T08:14:29.000Z</time>
      </trkpt>
      <trkpt lat="43.404523925855756" lon="-6.161447251215577">
        <ele>117</ele>
        <time>2017-08-03T08:14:31.000Z</time>
      </trkpt>
      <trkpt lat="43.404541527852416" lon="-6.161487651988864">
        <ele>117.2</ele>
        <time>2017-08-03T08:14:34.000Z</time>
      </trkpt>
      <trkpt lat="43.4045594651252" lon="-6.1615310702472925">
        <ele>117.4</ele>
        <time>2017-08-03T08:14:37.000Z</time>
      </trkpt>
      <trkpt lat="43.40459240600467" lon="-6.161600640043616">
        <ele>117.4</ele>
        <time>2017-08-03T08:14:43.000Z</time>
      </trkpt>
      <trkpt lat="43.40463733300567" lon="-6.16168730892241">
        <ele>117.4</ele>
        <time>2017-08-03T08:14:50.000Z</time>
      </trkpt>
      <trkpt lat="43.404696844518185" lon="-6.161805912852287">
        <ele>117.6</ele>
        <time>2017-08-03T08:14:58.000Z</time>
      </trkpt>
      <trkpt lat="43.40472157113254" lon="-6.161916134878993">
        <ele>118</ele>
        <time>2017-08-03T08:15:05.000Z</time>
      </trkpt>
      <trkpt lat="43.40473188087344" lon="-6.1620396841317415">
        <ele>117.8</ele>
        <time>2017-08-03T08:15:12.000Z</time>
      </trkpt>
      <trkpt lat="43.40473196469247" lon="-6.162130795419216">
        <ele>117.8</ele>
        <time>2017-08-03T08:15:17.000Z</time>
      </trkpt>
      <trkpt lat="43.40472852811217" lon="-6.162163065746427">
        <ele>118</ele>
        <time>2017-08-03T08:15:19.000Z</time>
      </trkpt>
      <trkpt lat="43.404708160087466" lon="-6.162270773202181">
        <ele>118.8</ele>
        <time>2017-08-03T08:15:25.000Z</time>
      </trkpt>
      <trkpt lat="43.404705142602324" lon="-6.162286531180143">
        <ele>118.8</ele>
        <time>2017-08-03T08:15:26.000Z</time>
      </trkpt>
      <trkpt lat="43.40468276292086" lon="-6.162428772076964">
        <ele>120</ele>
        <time>2017-08-03T08:15:34.000Z</time>
      </trkpt>
      <trkpt lat="43.40467404574156" lon="-6.162561876699328">
        <ele>120.8</ele>
        <time>2017-08-03T08:15:42.000Z</time>
      </trkpt>
      <trkpt lat="43.40468033216894" lon="-6.162730269134045">
        <ele>121.2</ele>
        <time>2017-08-03T08:15:52.000Z</time>
      </trkpt>
      <trkpt lat="43.40470187366009" lon="-6.162835881114006">
        <ele>121.4</ele>
        <time>2017-08-03T08:15:59.000Z</time>
      </trkpt>
      <trkpt lat="43.404731126502156" lon="-6.162973511964083">
        <ele>121.6</ele>
        <time>2017-08-03T08:16:08.000Z</time>
      </trkpt>
      <trkpt lat="43.404772533103824" lon="-6.1630934569984674">
        <ele>121.4</ele>
        <time>2017-08-03T08:16:17.000Z</time>
      </trkpt>
      <trkpt lat="43.40479499660432" lon="-6.163194207474589">
        <ele>121</ele>
        <time>2017-08-03T08:16:24.000Z</time>
      </trkpt>
      <trkpt lat="43.40479742735624" lon="-6.1632035952061415">
        <ele>121</ele>
        <time>2017-08-03T08:16:29.000Z</time>
      </trkpt>
      <trkpt lat="43.40480639599264" lon="-6.163270315155387">
        <ele>120.6</ele>
        <time>2017-08-03T08:16:36.000Z</time>
      </trkpt>
      <trkpt lat="43.40483648702502" lon="-6.163386907428503">
        <ele>120</ele>
        <time>2017-08-03T08:16:44.000Z</time>
      </trkpt>
      <trkpt lat="43.40485727414489" lon="-6.163507187739015">
        <ele>120.4</ele>
        <time>2017-08-03T08:16:52.000Z</time>
      </trkpt>
      <trkpt lat="43.40487697161734" lon="-6.163616068661213">
        <ele>121.2</ele>
        <time>2017-08-03T08:16:59.000Z</time>
      </trkpt>
      <trkpt lat="43.404892310500145" lon="-6.163729727268219">
        <ele>122</ele>
        <time>2017-08-03T08:17:06.000Z</time>
      </trkpt>
      <trkpt lat="43.40490731410682" lon="-6.163839278742671">
        <ele>122.8</ele>
        <time>2017-08-03T08:17:13.000Z</time>
      </trkpt>
      <trkpt lat="43.404919216409326" lon="-6.163944136351347">
        <ele>123.6</ele>
        <time>2017-08-03T08:17:20.000Z</time>
      </trkpt>
      <trkpt lat="43.40493556112051" lon="-6.164081934839487">
        <ele>124</ele>
        <time>2017-08-03T08:17:29.000Z</time>
      </trkpt>
      <trkpt lat="43.40494721196592" lon="-6.1641893070191145">
        <ele>124.6</ele>
        <time>2017-08-03T08:17:36.000Z</time>
      </trkpt>
      <trkpt lat="43.40497009456158" lon="-6.164291733875871">
        <ele>125</ele>
        <time>2017-08-03T08:17:43.000Z</time>
      </trkpt>
      <trkpt lat="43.40500429272652" lon="-6.164393657818437">
        <ele>125.6</ele>
        <time>2017-08-03T08:17:51.000Z</time>
      </trkpt>
      <trkpt lat="43.40504058636725" lon="-6.164504047483206">
        <ele>126</ele>
        <time>2017-08-03T08:17:59.000Z</time>
      </trkpt>
      <trkpt lat="43.40504343621433" lon="-6.164518380537629">
        <ele>126.2</ele>
        <time>2017-08-03T08:18:00.000Z</time>
      </trkpt>
      <trkpt lat="43.405050644651055" lon="-6.164565235376358">
        <ele>126.4</ele>
        <time>2017-08-03T08:18:03.000Z</time>
      </trkpt>
      <trkpt lat="43.40506196022034" lon="-6.164592141285539">
        <ele>126.6</ele>
        <time>2017-08-03T08:18:05.000Z</time>
      </trkpt>
      <trkpt lat="43.405083417892456" lon="-6.164661543443799">
        <ele>126.8</ele>
        <time>2017-08-03T08:18:10.000Z</time>
      </trkpt>
      <trkpt lat="43.405092637985945" lon="-6.164698004722595">
        <ele>127</ele>
        <time>2017-08-03T08:18:13.000Z</time>
      </trkpt>
      <trkpt lat="43.40509347617626" lon="-6.164736645296216">
        <ele>127.4</ele>
        <time>2017-08-03T08:18:19.000Z</time>
      </trkpt>
      <trkpt lat="43.40506833046675" lon="-6.164823230355978">
        <ele>128</ele>
        <time>2017-08-03T08:18:25.000Z</time>
      </trkpt>
      <trkpt lat="43.40504352003336" lon="-6.16488927975297">
        <ele>128.4</ele>
        <time>2017-08-03T08:18:30.000Z</time>
      </trkpt>
      <trkpt lat="43.40502608567476" lon="-6.164908306673169">
        <ele>128.6</ele>
        <time>2017-08-03T08:18:32.000Z</time>
      </trkpt>
      <trkpt lat="43.40501510538161" lon="-6.164934374392033">
        <ele>128.8</ele>
        <time>2017-08-03T08:18:34.000Z</time>
      </trkpt>
      <trkpt lat="43.404994988813996" lon="-6.16500218398869">
        <ele>129.6</ele>
        <time>2017-08-03T08:18:39.000Z</time>
      </trkpt>
      <trkpt lat="43.40498845092952" lon="-6.1650946363806725">
        <ele>130.4</ele>
        <time>2017-08-03T08:18:46.000Z</time>
      </trkpt>
      <trkpt lat="43.405019883066416" lon="-6.16521717980504">
        <ele>131.6</ele>
        <time>2017-08-03T08:18:55.000Z</time>
      </trkpt>
      <trkpt lat="43.4050362277776" lon="-6.165285408496857">
        <ele>132.2</ele>
        <time>2017-08-03T08:19:00.000Z</time>
      </trkpt>
      <trkpt lat="43.40503706596792" lon="-6.165300831198692">
        <ele>132.4</ele>
        <time>2017-08-03T08:19:01.000Z</time>
      </trkpt>
      <trkpt lat="43.40503002516925" lon="-6.165387751534581">
        <ele>133.2</ele>
        <time>2017-08-03T08:19:07.000Z</time>
      </trkpt>
      <trkpt lat="43.40502633713186" lon="-6.165445251390338">
        <ele>133.8</ele>
        <time>2017-08-03T08:19:11.000Z</time>
      </trkpt>
      <trkpt lat="43.40502499602735" lon="-6.165460590273142">
        <ele>133.8</ele>
        <time>2017-08-03T08:19:12.000Z</time>
      </trkpt>
      <trkpt lat="43.40501284226775" lon="-6.165550025179982">
        <ele>134.8</ele>
        <time>2017-08-03T08:19:18.000Z</time>
      </trkpt>
      <trkpt lat="43.40501468628645" lon="-6.1656618397682905">
        <ele>136.2</ele>
        <time>2017-08-03T08:19:26.000Z</time>
      </trkpt>
      <trkpt lat="43.40501946397126" lon="-6.165700312703848">
        <ele>136.8</ele>
        <time>2017-08-03T08:19:29.000Z</time>
      </trkpt>
      <trkpt lat="43.40501703321934" lon="-6.1657466646283865">
        <ele>137.4</ele>
        <time>2017-08-03T08:19:32.000Z</time>
      </trkpt>
      <trkpt lat="43.40503488667309" lon="-6.165843643248081">
        <ele>139</ele>
        <time>2017-08-03T08:19:38.000Z</time>
      </trkpt>
      <trkpt lat="43.405050644651055" lon="-6.165901981294155">
        <ele>140</ele>
        <time>2017-08-03T08:19:42.000Z</time>
      </trkpt>
      <trkpt lat="43.40505005791783" lon="-6.165936179459095">
        <ele>140.6</ele>
        <time>2017-08-03T08:19:44.000Z</time>
      </trkpt>
      <trkpt lat="43.405053494498134" lon="-6.165961157530546">
        <ele>141</ele>
        <time>2017-08-03T08:19:46.000Z</time>
      </trkpt>
      <trkpt lat="43.405062379315495" lon="-6.165993260219693">
        <ele>141.6</ele>
        <time>2017-08-03T08:19:48.000Z</time>
      </trkpt>
      <trkpt lat="43.405080484226346" lon="-6.166095435619354">
        <ele>143.2</ele>
        <time>2017-08-03T08:19:55.000Z</time>
      </trkpt>
      <trkpt lat="43.40508157387376" lon="-6.166121168062091">
        <ele>143.6</ele>
        <time>2017-08-03T08:19:57.000Z</time>
      </trkpt>
      <trkpt lat="43.4050898719579" lon="-6.166163664311171">
        <ele>144.4</ele>
        <time>2017-08-03T08:20:00.000Z</time>
      </trkpt>
      <trkpt lat="43.40509280562401" lon="-6.166175818070769">
        <ele>144.6</ele>
        <time>2017-08-03T08:20:01.000Z</time>
      </trkpt>
      <trkpt lat="43.405108312144876" lon="-6.166249997913837">
        <ele>145.8</ele>
        <time>2017-08-03T08:20:06.000Z</time>
      </trkpt>
      <trkpt lat="43.405148293823004" lon="-6.166327111423016">
        <ele>147</ele>
        <time>2017-08-03T08:20:12.000Z</time>
      </trkpt>
      <trkpt lat="43.4052053745836" lon="-6.1663975194096565">
        <ele>147.8</ele>
        <time>2017-08-03T08:20:19.000Z</time>
      </trkpt>
      <trkpt lat="43.405267149209976" lon="-6.166449151933193">
        <ele>149</ele>
        <time>2017-08-03T08:20:26.000Z</time>
      </trkpt>
      <trkpt lat="43.405364882200956" lon="-6.166498688980937">
        <ele>150.4</ele>
        <time>2017-08-03T08:20:34.000Z</time>
      </trkpt>
      <trkpt lat="43.405428836122155" lon="-6.166533557698131">
        <ele>151.2</ele>
        <time>2017-08-03T08:20:40.000Z</time>
      </trkpt>
      <trkpt lat="43.405509470030665" lon="-6.16657605394721">
        <ele>152.4</ele>
        <time>2017-08-03T08:20:47.000Z</time>
      </trkpt>
      <trkpt lat="43.405591025948524" lon="-6.166632464155555">
        <ele>153.8</ele>
        <time>2017-08-03T08:20:54.000Z</time>
      </trkpt>
      <trkpt lat="43.40564366430044" lon="-6.166676552966237">
        <ele>155.2</ele>
        <time>2017-08-03T08:20:59.000Z</time>
      </trkpt>
      <trkpt lat="43.405685322359204" lon="-6.166708907112479">
        <ele>156</ele>
        <time>2017-08-03T08:21:04.000Z</time>
      </trkpt>
      <trkpt lat="43.40579160489142" lon="-6.166734052821994">
        <ele>155.8</ele>
        <time>2017-08-03T08:21:13.000Z</time>
      </trkpt>
      <trkpt lat="43.4057944547385" lon="-6.166729107499123">
        <ele>155.8</ele>
        <time>2017-08-03T08:21:14.000Z</time>
      </trkpt>
      <trkpt lat="43.40582144446671" lon="-6.166731035336852">
        <ele>155.6</ele>
        <time>2017-08-03T08:21:17.000Z</time>
      </trkpt>
      <trkpt lat="43.405834436416626" lon="-6.166739501059055">
        <ele>155.6</ele>
        <time>2017-08-03T08:21:19.000Z</time>
      </trkpt>
      <trkpt lat="43.40584047138691" lon="-6.166745955124497">
        <ele>155.8</ele>
        <time>2017-08-03T08:21:20.000Z</time>
      </trkpt>
      <trkpt lat="43.405853463336825" lon="-6.1667609587311745">
        <ele>156</ele>
        <time>2017-08-03T08:21:22.000Z</time>
      </trkpt>
      <trkpt lat="43.405894953757524" lon="-6.166806472465396">
        <ele>156.6</ele>
        <time>2017-08-03T08:21:27.000Z</time>
      </trkpt>
      <trkpt lat="43.40591389685869" lon="-6.166836814954877">
        <ele>157</ele>
        <time>2017-08-03T08:21:31.000Z</time>
      </trkpt>
      <trkpt lat="43.40594910085201" lon="-6.166884759441018">
        <ele>157.8</ele>
        <time>2017-08-03T08:21:36.000Z</time>
      </trkpt>
      <trkpt lat="43.405989250168204" lon="-6.166937481611967">
        <ele>158.6</ele>
        <time>2017-08-03T08:21:41.000Z</time>
      </trkpt>
      <trkpt lat="43.40599880553782" lon="-6.166952149942517">
        <ele>158.8</ele>
        <time>2017-08-03T08:21:42.000Z</time>
      </trkpt>
      <trkpt lat="43.40603635646403" lon="-6.1669927183538675">
        <ele>159</ele>
        <time>2017-08-03T08:21:48.000Z</time>
      </trkpt>
      <trkpt lat="43.406100226566195" lon="-6.167059689760208">
        <ele>159.4</ele>
        <time>2017-08-03T08:21:57.000Z</time>
      </trkpt>
      <trkpt lat="43.40617650188506" lon="-6.16711987182498">
        <ele>159.6</ele>
        <time>2017-08-03T08:22:03.000Z</time>
      </trkpt>
      <trkpt lat="43.40622687712312" lon="-6.167166642844677">
        <ele>160.2</ele>
        <time>2017-08-03T08:22:09.000Z</time>
      </trkpt>
      <trkpt lat="43.40623542666435" lon="-6.1671715043485165">
        <ele>160.2</ele>
        <time>2017-08-03T08:22:10.000Z</time>
      </trkpt>
      <trkpt lat="43.40626325458288" lon="-6.167206456884742">
        <ele>160.8</ele>
        <time>2017-08-03T08:22:13.000Z</time>
      </trkpt>
      <trkpt lat="43.40629250742495" lon="-6.167231183499098">
        <ele>161</ele>
        <time>2017-08-03T08:22:16.000Z</time>
      </trkpt>
      <trkpt lat="43.406320083886385" lon="-6.167264459654689">
        <ele>161.6</ele>
        <time>2017-08-03T08:22:19.000Z</time>
      </trkpt>
      <trkpt lat="43.406344978138804" lon="-6.167298154905438">
        <ele>162.2</ele>
        <time>2017-08-03T08:22:22.000Z</time>
      </trkpt>
      <trkpt lat="43.40635344386101" lon="-6.167313326150179">
        <ele>162.6</ele>
        <time>2017-08-03T08:22:23.000Z</time>
      </trkpt>
      <trkpt lat="43.40640876442194" lon="-6.167367389425635">
        <ele>163.6</ele>
        <time>2017-08-03T08:22:28.000Z</time>
      </trkpt>
      <trkpt lat="43.40644975192845" lon="-6.16741843521595">
        <ele>164.6</ele>
        <time>2017-08-03T08:22:33.000Z</time>
      </trkpt>
      <trkpt lat="43.40651739388704" lon="-6.167472079396248">
        <ele>165.4</ele>
        <time>2017-08-03T08:22:39.000Z</time>
      </trkpt>
      <trkpt lat="43.406583946198225" lon="-6.167516922578216">
        <ele>166</ele>
        <time>2017-08-03T08:22:46.000Z</time>
      </trkpt>
      <trkpt lat="43.40660557150841" lon="-6.167530249804258">
        <ele>166.2</ele>
        <time>2017-08-03T08:22:48.000Z</time>
      </trkpt>
      <trkpt lat="43.40664957650006" lon="-6.167566459625959">
        <ele>167</ele>
        <time>2017-08-03T08:22:52.000Z</time>
      </trkpt>
      <trkpt lat="43.40671612881124" lon="-6.1676141526550055">
        <ele>167.8</ele>
        <time>2017-08-03T08:22:59.000Z</time>
      </trkpt>
      <trkpt lat="43.4067442920059" lon="-6.167658576741815">
        <ele>169</ele>
        <time>2017-08-03T08:23:03.000Z</time>
      </trkpt>
      <trkpt lat="43.40675409883261" lon="-6.167681962251663">
        <ele>169.8</ele>
        <time>2017-08-03T08:23:05.000Z</time>
      </trkpt>
      <trkpt lat="43.40678066946566" lon="-6.167728481814265">
        <ele>171</ele>
        <time>2017-08-03T08:23:09.000Z</time>
      </trkpt>
      <trkpt lat="43.40680103749037" lon="-6.167743233963847">
        <ele>171.2</ele>
        <time>2017-08-03T08:23:12.000Z</time>
      </trkpt>
      <trkpt lat="43.406803300604224" lon="-6.167760752141476">
        <ele>171.8</ele>
        <time>2017-08-03T08:23:14.000Z</time>
      </trkpt>
      <trkpt lat="43.40680782683194" lon="-6.1677702236920595">
        <ele>172</ele>
        <time>2017-08-03T08:23:15.000Z</time>
      </trkpt>
      <trkpt lat="43.406811682507396" lon="-6.167779192328453">
        <ele>172.4</ele>
        <time>2017-08-03T08:23:16.000Z</time>
      </trkpt>
      <trkpt lat="43.40681922622025" lon="-6.167800230905414">
        <ele>173</ele>
        <time>2017-08-03T08:23:20.000Z</time>
      </trkpt>
      <trkpt lat="43.40683934278786" lon="-6.1678361892700195">
        <ele>173.8</ele>
        <time>2017-08-03T08:23:25.000Z</time>
      </trkpt>
      <trkpt lat="43.40688141994178" lon="-6.167861670255661">
        <ele>174</ele>
        <time>2017-08-03T08:23:29.000Z</time>
      </trkpt>
      <trkpt lat="43.406882509589195" lon="-6.167868040502071">
        <ele>174.2</ele>
        <time>2017-08-03T08:23:30.000Z</time>
      </trkpt>
      <trkpt lat="43.40691955760121" lon="-6.167897628620267">
        <ele>174.8</ele>
        <time>2017-08-03T08:23:34.000Z</time>
      </trkpt>
      <trkpt lat="43.40693204663694" lon="-6.167899472638965">
        <ele>174.6</ele>
        <time>2017-08-03T08:23:35.000Z</time>
      </trkpt>
      <trkpt lat="43.406944032758474" lon="-6.167905507609248">
        <ele>174.6</ele>
        <time>2017-08-03T08:23:36.000Z</time>
      </trkpt>
      <trkpt lat="43.40696825645864" lon="-6.167928474023938">
        <ele>175.2</ele>
        <time>2017-08-03T08:23:38.000Z</time>
      </trkpt>
      <trkpt lat="43.40701234526932" lon="-6.1679537035524845">
        <ele>175.4</ele>
        <time>2017-08-03T08:23:43.000Z</time>
      </trkpt>
      <trkpt lat="43.407043274492025" lon="-6.167977508157492">
        <ele>176</ele>
        <time>2017-08-03T08:23:48.000Z</time>
      </trkpt>
      <trkpt lat="43.40708954259753" lon="-6.168019501492381">
        <ele>176.8</ele>
        <time>2017-08-03T08:23:53.000Z</time>
      </trkpt>
      <trkpt lat="43.40711343102157" lon="-6.168031906709075">
        <ele>177</ele>
        <time>2017-08-03T08:23:55.000Z</time>
      </trkpt>
      <trkpt lat="43.40714603662491" lon="-6.168045317754149">
        <ele>177.2</ele>
        <time>2017-08-03T08:23:58.000Z</time>
      </trkpt>
      <trkpt lat="43.40720077045262" lon="-6.168078845366836">
        <ele>177.8</ele>
        <time>2017-08-03T08:24:02.000Z</time>
      </trkpt>
      <trkpt lat="43.407211834564805" lon="-6.168087227270007">
        <ele>178</ele>
        <time>2017-08-03T08:24:03.000Z</time>
      </trkpt>
      <trkpt lat="43.40721929445863" lon="-6.1680971179157495">
        <ele>178.2</ele>
        <time>2017-08-03T08:24:04.000Z</time>
      </trkpt>
      <trkpt lat="43.4072464518249" lon="-6.168132657185197">
        <ele>179</ele>
        <time>2017-08-03T08:24:08.000Z</time>
      </trkpt>
      <trkpt lat="43.4072813205421" lon="-6.168167358264327">
        <ele>179.6</ele>
        <time>2017-08-03T08:24:12.000Z</time>
      </trkpt>
      <trkpt lat="43.40731417760253" lon="-6.168189570307732">
        <ele>180</ele>
        <time>2017-08-03T08:24:16.000Z</time>
      </trkpt>
      <trkpt lat="43.40732038021088" lon="-6.168193593621254">
        <ele>180</ele>
        <time>2017-08-03T08:24:17.000Z</time>
      </trkpt>
      <trkpt lat="43.407348627224565" lon="-6.168203484266996">
        <ele>180</ele>
        <time>2017-08-03T08:24:21.000Z</time>
      </trkpt>
      <trkpt lat="43.407380478456616" lon="-6.168210189789534">
        <ele>179.8</ele>
        <time>2017-08-03T08:24:25.000Z</time>
      </trkpt>
      <trkpt lat="43.40742330998182" lon="-6.1682231817394495">
        <ele>179.6</ele>
        <time>2017-08-03T08:24:30.000Z</time>
      </trkpt>
      <trkpt lat="43.40742758475244" lon="-6.168230390176177">
        <ele>179.8</ele>
        <time>2017-08-03T08:24:31.000Z</time>
      </trkpt>
      <trkpt lat="43.407495142892" lon="-6.168249668553472">
        <ele>179.6</ele>
        <time>2017-08-03T08:24:36.000Z</time>
      </trkpt>
      <trkpt lat="43.407607628032565" lon="-6.168290488421917">
        <ele>179.4</ele>
        <time>2017-08-03T08:24:44.000Z</time>
      </trkpt>
      <trkpt lat="43.40769102796912" lon="-6.168339187279344">
        <ele>179.8</ele>
        <time>2017-08-03T08:24:51.000Z</time>
      </trkpt>
      <trkpt lat="43.40774760581553" lon="-6.168383024632931">
        <ele>180.4</ele>
        <time>2017-08-03T08:24:57.000Z</time>
      </trkpt>
      <trkpt lat="43.407758586108685" lon="-6.168389730155468">
        <ele>180.4</ele>
        <time>2017-08-03T08:24:58.000Z</time>
      </trkpt>
      <trkpt lat="43.40783108957112" lon="-6.168431220576167">
        <ele>180.6</ele>
        <time>2017-08-03T08:25:04.000Z</time>
      </trkpt>
      <trkpt lat="43.40787408873439" lon="-6.168461479246616">
        <ele>181</ele>
        <time>2017-08-03T08:25:08.000Z</time>
      </trkpt>
      <trkpt lat="43.407893031835556" lon="-6.168468687683344">
        <ele>181</ele>
        <time>2017-08-03T08:25:10.000Z</time>
      </trkpt>
      <trkpt lat="43.40795966796577" lon="-6.168522583320737">
        <ele>181.6</ele>
        <time>2017-08-03T08:25:17.000Z</time>
      </trkpt>
      <trkpt lat="43.408050360158086" lon="-6.168590979650617">
        <ele>181.6</ele>
        <time>2017-08-03T08:25:25.000Z</time>
      </trkpt>
      <trkpt lat="43.408087408170104" lon="-6.1686136946082115">
        <ele>180.8</ele>
        <time>2017-08-03T08:25:28.000Z</time>
      </trkpt>
      <trkpt lat="43.408106518909335" lon="-6.168630374595523">
        <ele>180.6</ele>
        <time>2017-08-03T08:25:30.000Z</time>
      </trkpt>
      <trkpt lat="43.408174915239215" lon="-6.1687008664011955">
        <ele>179.2</ele>
        <time>2017-08-03T08:25:37.000Z</time>
      </trkpt>
      <trkpt lat="43.40818589553237" lon="-6.168718300759792">
        <ele>179.2</ele>
        <time>2017-08-03T08:25:39.000Z</time>
      </trkpt>
      <trkpt lat="43.40821380726993" lon="-6.168732801452279">
        <ele>178.6</ele>
        <time>2017-08-03T08:25:43.000Z</time>
      </trkpt>
      <trkpt lat="43.408244736492634" lon="-6.168792396783829">
        <ele>178.2</ele>
        <time>2017-08-03T08:26:08.000Z</time>
      </trkpt>
      <trkpt lat="43.40828161686659" lon="-6.168845538049936">
        <ele>177.8</ele>
        <time>2017-08-03T08:26:15.000Z</time>
      </trkpt>
      <trkpt lat="43.40827792882919" lon="-6.168831456452608">
        <ele>177.8</ele>
        <time>2017-08-03T08:26:27.000Z</time>
      </trkpt>
      <trkpt lat="43.408279437571764" lon="-6.1688790656626225">
        <ele>178.2</ele>
        <time>2017-08-03T08:27:55.000Z</time>
      </trkpt>
      <trkpt lat="43.408294105902314" lon="-6.1689812410622835">
        <ele>178.8</ele>
        <time>2017-08-03T08:28:04.000Z</time>
      </trkpt>
      <trkpt lat="43.4083033259958" lon="-6.1690045427531">
        <ele>178.8</ele>
        <time>2017-08-03T08:28:06.000Z</time>
      </trkpt>
      <trkpt lat="43.408330315724015" lon="-6.169039746746421">
        <ele>178.2</ele>
        <time>2017-08-03T08:28:09.000Z</time>
      </trkpt>
      <trkpt lat="43.4083450678736" lon="-6.169118620455265">
        <ele>178.2</ele>
        <time>2017-08-03T08:28:14.000Z</time>
      </trkpt>
      <trkpt lat="43.40834699571133" lon="-6.169169163331389">
        <ele>178</ele>
        <time>2017-08-03T08:28:17.000Z</time>
      </trkpt>
      <trkpt lat="43.40835445560515" lon="-6.1692003440111876">
        <ele>177.6</ele>
        <time>2017-08-03T08:28:19.000Z</time>
      </trkpt>
      <trkpt lat="43.40835797600448" lon="-6.1692162696272135">
        <ele>177.4</ele>
        <time>2017-08-03T08:28:20.000Z</time>
      </trkpt>
      <trkpt lat="43.408366525545716" lon="-6.169278547167778">
        <ele>176.8</ele>
        <time>2017-08-03T08:28:24.000Z</time>
      </trkpt>
      <trkpt lat="43.40836711227894" lon="-6.169300675392151">
        <ele>176.8</ele>
        <time>2017-08-03T08:28:26.000Z</time>
      </trkpt>
      <trkpt lat="43.40837591327727" lon="-6.169416345655918">
        <ele>176.2</ele>
        <time>2017-08-03T08:28:33.000Z</time>
      </trkpt>
      <trkpt lat="43.40837876312435" lon="-6.169424643740058">
        <ele>176</ele>
        <time>2017-08-03T08:28:34.000Z</time>
      </trkpt>
      <trkpt lat="43.4083984605968" lon="-6.169465966522694">
        <ele>175.2</ele>
        <time>2017-08-03T08:28:38.000Z</time>
      </trkpt>
      <trkpt lat="43.40839904733002" lon="-6.169478455558419">
        <ele>175.2</ele>
        <time>2017-08-03T08:28:39.000Z</time>
      </trkpt>
      <trkpt lat="43.40840809978545" lon="-6.169534781947732">
        <ele>174.6</ele>
        <time>2017-08-03T08:28:43.000Z</time>
      </trkpt>
      <trkpt lat="43.40842042118311" lon="-6.169585408642888">
        <ele>174</ele>
        <time>2017-08-03T08:28:47.000Z</time>
      </trkpt>
      <trkpt lat="43.40843710117042" lon="-6.16966369561851">
        <ele>173.2</ele>
        <time>2017-08-03T08:28:51.000Z</time>
      </trkpt>
      <trkpt lat="43.4084399510175" lon="-6.169699234887958">
        <ele>173</ele>
        <time>2017-08-03T08:28:53.000Z</time>
      </trkpt>
      <trkpt lat="43.40844305232167" lon="-6.1697295773774385">
        <ele>172.8</ele>
        <time>2017-08-03T08:28:55.000Z</time>
      </trkpt>
      <trkpt lat="43.40846979059279" lon="-6.169762015342712">
        <ele>171.6</ele>
        <time>2017-08-03T08:28:58.000Z</time>
      </trkpt>
      <trkpt lat="43.40849602594972" lon="-6.169828148558736">
        <ele>169.6</ele>
        <time>2017-08-03T08:29:03.000Z</time>
      </trkpt>
      <trkpt lat="43.40850256383419" lon="-6.169837284833193">
        <ele>169.2</ele>
        <time>2017-08-03T08:29:04.000Z</time>
      </trkpt>
      <trkpt lat="43.40852150693536" lon="-6.169892270117998">
        <ele>167.4</ele>
        <time>2017-08-03T08:29:09.000Z</time>
      </trkpt>
      <trkpt lat="43.40849812142551" lon="-6.169971730560064">
        <ele>166.4</ele>
        <time>2017-08-03T08:29:15.000Z</time>
      </trkpt>
      <trkpt lat="43.4084986243397" lon="-6.170023027807474">
        <ele>165.2</ele>
        <time>2017-08-03T08:29:20.000Z</time>
      </trkpt>
      <trkpt lat="43.40851714834571" lon="-6.170051358640194">
        <ele>164</ele>
        <time>2017-08-03T08:29:23.000Z</time>
      </trkpt>
      <trkpt lat="43.40849803760648" lon="-6.1701262928545475">
        <ele>163</ele>
        <time>2017-08-03T08:29:29.000Z</time>
      </trkpt>
      <trkpt lat="43.40849191881716" lon="-6.170141799375415">
        <ele>163</ele>
        <time>2017-08-03T08:29:30.000Z</time>
      </trkpt>
      <trkpt lat="43.40846870094538" lon="-6.170198963955045">
        <ele>162.8</ele>
        <time>2017-08-03T08:29:34.000Z</time>
      </trkpt>
      <trkpt lat="43.40846342034638" lon="-6.170223271474242">
        <ele>162.4</ele>
        <time>2017-08-03T08:29:36.000Z</time>
      </trkpt>
      <trkpt lat="43.4084552899003" lon="-6.170252272859216">
        <ele>162.2</ele>
        <time>2017-08-03T08:29:38.000Z</time>
      </trkpt>
      <trkpt lat="43.408415308222175" lon="-6.170339193195105">
        <ele>162.4</ele>
        <time>2017-08-03T08:29:44.000Z</time>
      </trkpt>
      <trkpt lat="43.40835596434772" lon="-6.1704593896865845">
        <ele>162.8</ele>
        <time>2017-08-03T08:29:52.000Z</time>
      </trkpt>
      <trkpt lat="43.4083363506943" lon="-6.170498030260205">
        <ele>163</ele>
        <time>2017-08-03T08:29:58.000Z</time>
      </trkpt>
      <trkpt lat="43.408297039568424" lon="-6.170563912019134">
        <ele>163.4</ele>
        <time>2017-08-03T08:30:05.000Z</time>
      </trkpt>
      <trkpt lat="43.40827323496342" lon="-6.170603139325976">
        <ele>163.8</ele>
        <time>2017-08-03T08:30:08.000Z</time>
      </trkpt>
      <trkpt lat="43.40825445950031" lon="-6.170629458501935">
        <ele>164.2</ele>
        <time>2017-08-03T08:30:10.000Z</time>
      </trkpt>
      <trkpt lat="43.40820165351033" lon="-6.170721994712949">
        <ele>164.4</ele>
        <time>2017-08-03T08:30:17.000Z</time>
      </trkpt>
      <trkpt lat="43.408173406496644" lon="-6.170774549245834">
        <ele>164.4</ele>
        <time>2017-08-03T08:30:21.000Z</time>
      </trkpt>
      <trkpt lat="43.40816577896476" lon="-6.170802712440491">
        <ele>164</ele>
        <time>2017-08-03T08:30:23.000Z</time>
      </trkpt>
      <trkpt lat="43.40813719667494" lon="-6.170862140133977">
        <ele>164</ele>
        <time>2017-08-03T08:30:28.000Z</time>
      </trkpt>
      <trkpt lat="43.408103585243225" lon="-6.170933889225125">
        <ele>163.8</ele>
        <time>2017-08-03T08:30:34.000Z</time>
      </trkpt>
      <trkpt lat="43.408063016831875" lon="-6.1709897965192795">
        <ele>164.2</ele>
        <time>2017-08-03T08:30:39.000Z</time>
      </trkpt>
      <trkpt lat="43.408020520582795" lon="-6.171080907806754">
        <ele>164</ele>
        <time>2017-08-03T08:30:45.000Z</time>
      </trkpt>
      <trkpt lat="43.408013731241226" lon="-6.171156344935298">
        <ele>162</ele>
        <time>2017-08-03T08:30:50.000Z</time>
      </trkpt>
      <trkpt lat="43.408006774261594" lon="-6.171169253066182">
        <ele>162</ele>
        <time>2017-08-03T08:30:51.000Z</time>
      </trkpt>
      <trkpt lat="43.40796737931669" lon="-6.1712913773953915">
        <ele>160.6</ele>
        <time>2017-08-03T08:30:58.000Z</time>
      </trkpt>
      <trkpt lat="43.407957907766104" lon="-6.171327503398061">
        <ele>160</ele>
        <time>2017-08-03T08:31:00.000Z</time>
      </trkpt>
      <trkpt lat="43.40792153030634" lon="-6.171395899727941">
        <ele>159.8</ele>
        <time>2017-08-03T08:31:04.000Z</time>
      </trkpt>
      <trkpt lat="43.40787962079048" lon="-6.171439988538623">
        <ele>160.8</ele>
        <time>2017-08-03T08:31:08.000Z</time>
      </trkpt>
      <trkpt lat="43.40787081979215" lon="-6.171457674354315">
        <ele>160.6</ele>
        <time>2017-08-03T08:31:09.000Z</time>
      </trkpt>
      <trkpt lat="43.40783645398915" lon="-6.171513916924596">
        <ele>159.6</ele>
        <time>2017-08-03T08:31:13.000Z</time>
      </trkpt>
      <trkpt lat="43.40781114064157" lon="-6.171554317697883">
        <ele>159</ele>
        <time>2017-08-03T08:31:16.000Z</time>
      </trkpt>
      <trkpt lat="43.40777149423957" lon="-6.171611649915576">
        <ele>158.4</ele>
        <time>2017-08-03T08:31:20.000Z</time>
      </trkpt>
      <trkpt lat="43.40775355696678" lon="-6.171639561653137">
        <ele>158</ele>
        <time>2017-08-03T08:31:22.000Z</time>
      </trkpt>
      <trkpt lat="43.4077440854162" lon="-6.17167585529387">
        <ele>156.6</ele>
        <time>2017-08-03T08:31:25.000Z</time>
      </trkpt>
      <trkpt lat="43.40774165466428" lon="-6.171691277995706">
        <ele>156</ele>
        <time>2017-08-03T08:31:27.000Z</time>
      </trkpt>
      <trkpt lat="43.40772841125727" lon="-6.171724805608392">
        <ele>155</ele>
        <time>2017-08-03T08:31:31.000Z</time>
      </trkpt>
      <trkpt lat="43.407695051282644" lon="-6.171798901632428">
        <ele>153.2</ele>
        <time>2017-08-03T08:31:38.000Z</time>
      </trkpt>
      <trkpt lat="43.40765632688999" lon="-6.171882720664144">
        <ele>151.2</ele>
        <time>2017-08-03T08:31:45.000Z</time>
      </trkpt>
      <trkpt lat="43.40761181898415" lon="-6.17196855135262">
        <ele>148.8</ele>
        <time>2017-08-03T08:31:52.000Z</time>
      </trkpt>
      <trkpt lat="43.4075540676713" lon="-6.172027895227075">
        <ele>148.2</ele>
        <time>2017-08-03T08:31:58.000Z</time>
      </trkpt>
      <trkpt lat="43.407511403784156" lon="-6.172087071463466">
        <ele>147.2</ele>
        <time>2017-08-03T08:32:05.000Z</time>
      </trkpt>
      <trkpt lat="43.40758575126529" lon="-6.17216007784009">
        <ele>140.4</ele>
        <time>2017-08-03T08:32:55.000Z</time>
      </trkpt>
      <trkpt lat="43.40758625417948" lon="-6.172164352610707">
        <ele>140.2</ele>
        <time>2017-08-03T08:33:02.000Z</time>
      </trkpt>
      <trkpt lat="43.40751274488866" lon="-6.172238867729902">
        <ele>139.6</ele>
        <time>2017-08-03T08:33:38.000Z</time>
      </trkpt>
      <trkpt lat="43.40744283981621" lon="-6.172297457233071">
        <ele>139.8</ele>
        <time>2017-08-03T08:33:45.000Z</time>
      </trkpt>
      <trkpt lat="43.40742138214409" lon="-6.172311371192336">
        <ele>140</ele>
        <time>2017-08-03T08:33:47.000Z</time>
      </trkpt>
      <trkpt lat="43.407347202301025" lon="-6.172366943210363">
        <ele>140.6</ele>
        <time>2017-08-03T08:33:54.000Z</time>
      </trkpt>
      <trkpt lat="43.40728526003659" lon="-6.172456461936235">
        <ele>139.4</ele>
        <time>2017-08-03T08:34:01.000Z</time>
      </trkpt>
      <trkpt lat="43.407259695231915" lon="-6.172474063932896">
        <ele>139.8</ele>
        <time>2017-08-03T08:34:03.000Z</time>
      </trkpt>
      <trkpt lat="43.40721661224961" lon="-6.1725150514394045">
        <ele>139.8</ele>
        <time>2017-08-03T08:34:07.000Z</time>
      </trkpt>
      <trkpt lat="43.40717394836247" lon="-6.172557799145579">
        <ele>139.8</ele>
        <time>2017-08-03T08:34:12.000Z</time>
      </trkpt>
      <trkpt lat="43.40717478655279" lon="-6.172559056431055">
        <ele>139.6</ele>
        <time>2017-08-03T08:34:13.000Z</time>
      </trkpt>
      <trkpt lat="43.407139498740435" lon="-6.17257833480835">
        <ele>140.2</ele>
        <time>2017-08-03T08:34:17.000Z</time>
      </trkpt>
      <trkpt lat="43.40713002718985" lon="-6.172584788873792">
        <ele>140.4</ele>
        <time>2017-08-03T08:34:18.000Z</time>
      </trkpt>
      <trkpt lat="43.40709515847266" lon="-6.172632398083806">
        <ele>139.8</ele>
        <time>2017-08-03T08:34:22.000Z</time>
      </trkpt>
      <trkpt lat="43.40708124451339" lon="-6.17265896871686">
        <ele>139.2</ele>
        <time>2017-08-03T08:34:24.000Z</time>
      </trkpt>
      <trkpt lat="43.40702014043927" lon="-6.172737758606672">
        <ele>138.4</ele>
        <time>2017-08-03T08:34:32.000Z</time>
      </trkpt>
      <trkpt lat="43.40696230530739" lon="-6.172829205170274">
        <ele>137</ele>
        <time>2017-08-03T08:34:39.000Z</time>
      </trkpt>
      <trkpt lat="43.40694000944495" lon="-6.1728520039469">
        <ele>137</ele>
        <time>2017-08-03T08:34:41.000Z</time>
      </trkpt>
      <trkpt lat="43.406901117414236" lon="-6.172889303416014">
        <ele>137</ele>
        <time>2017-08-03T08:34:45.000Z</time>
      </trkpt>
      <trkpt lat="43.40688611380756" lon="-6.172913275659084">
        <ele>136.6</ele>
        <time>2017-08-03T08:34:47.000Z</time>
      </trkpt>
      <trkpt lat="43.40685895644128" lon="-6.172950658947229">
        <ele>136</ele>
        <time>2017-08-03T08:34:50.000Z</time>
      </trkpt>
      <trkpt lat="43.406848730519414" lon="-6.172961723059416">
        <ele>136</ele>
        <time>2017-08-03T08:34:51.000Z</time>
      </trkpt>
      <trkpt lat="43.40681394562125" lon="-6.17299223318696">
        <ele>136.2</ele>
        <time>2017-08-03T08:34:54.000Z</time>
      </trkpt>
      <trkpt lat="43.40679860673845" lon="-6.173015786334872">
        <ele>135.8</ele>
        <time>2017-08-03T08:34:56.000Z</time>
      </trkpt>
      <trkpt lat="43.406789638102055" lon="-6.173030035570264">
        <ele>135.6</ele>
        <time>2017-08-03T08:34:57.000Z</time>
      </trkpt>
      <trkpt lat="43.406789638102055" lon="-6.173030035570264">
        <ele>135.6</ele>
        <time>2017-08-03T08:34:57.000Z</time>
      </trkpt>
      <trkpt lat="43.406785195693374" lon="-6.173042776063085">
        <ele>135.4</ele>
        <time>2017-08-03T08:34:58.000Z</time>
      </trkpt>
      <trkpt lat="43.406745130196214" lon="-6.173103209584951">
        <ele>134.6</ele>
        <time>2017-08-03T08:35:03.000Z</time>
      </trkpt>
      <trkpt lat="43.40668888762593" lon="-6.1731900461018085">
        <ele>135.2</ele>
        <time>2017-08-03T08:35:10.000Z</time>
      </trkpt>
      <trkpt lat="43.40663365088403" lon="-6.173268249258399">
        <ele>136</ele>
        <time>2017-08-03T08:35:15.000Z</time>
      </trkpt>
      <trkpt lat="43.406580509617925" lon="-6.173318205401301">
        <ele>137.4</ele>
        <time>2017-08-03T08:35:20.000Z</time>
      </trkpt>
      <trkpt lat="43.406532648950815" lon="-6.173361791297793">
        <ele>138.6</ele>
        <time>2017-08-03T08:35:25.000Z</time>
      </trkpt>
      <trkpt lat="43.40648051351309" lon="-6.173407891765237">
        <ele>140</ele>
        <time>2017-08-03T08:35:31.000Z</time>
      </trkpt>
      <trkpt lat="43.406418738886714" lon="-6.173453321680427">
        <ele>141.8</ele>
        <time>2017-08-03T08:35:37.000Z</time>
      </trkpt>
      <trkpt lat="43.40639501810074" lon="-6.1734663136303425">
        <ele>142.6</ele>
        <time>2017-08-03T08:35:40.000Z</time>
      </trkpt>
      <trkpt lat="43.40637540444732" lon="-6.173482909798622">
        <ele>143</ele>
        <time>2017-08-03T08:35:42.000Z</time>
      </trkpt>
      <trkpt lat="43.406333243474364" lon="-6.173535967245698">
        <ele>143.8</ele>
        <time>2017-08-03T08:35:48.000Z</time>
      </trkpt>
      <trkpt lat="43.40629829093814" lon="-6.173598412424326">
        <ele>144.2</ele>
        <time>2017-08-03T08:35:53.000Z</time>
      </trkpt>
      <trkpt lat="43.406319078058004" lon="-6.173679884523153">
        <ele>140.8</ele>
        <time>2017-08-03T08:35:58.000Z</time>
      </trkpt>
      <trkpt lat="43.406315641477704" lon="-6.173718022182584">
        <ele>139.8</ele>
        <time>2017-08-03T08:36:00.000Z</time>
      </trkpt>
      <trkpt lat="43.40630826540291" lon="-6.173766637220979">
        <ele>138.8</ele>
        <time>2017-08-03T08:36:03.000Z</time>
      </trkpt>
      <trkpt lat="43.40628068894148" lon="-6.173850288614631">
        <ele>137.6</ele>
        <time>2017-08-03T08:36:07.000Z</time>
      </trkpt>
      <trkpt lat="43.40625059790909" lon="-6.173921953886747">
        <ele>137</ele>
        <time>2017-08-03T08:36:11.000Z</time>
      </trkpt>
      <trkpt lat="43.40624070726335" lon="-6.173954475671053">
        <ele>136.6</ele>
        <time>2017-08-03T08:36:13.000Z</time>
      </trkpt>
      <trkpt lat="43.406223775818944" lon="-6.174011556431651">
        <ele>136.6</ele>
        <time>2017-08-03T08:36:17.000Z</time>
      </trkpt>
      <trkpt lat="43.4062175732106" lon="-6.174026560038328">
        <ele>136.6</ele>
        <time>2017-08-03T08:36:18.000Z</time>
      </trkpt>
      <trkpt lat="43.40621958486736" lon="-6.17409311234951">
        <ele>135.2</ele>
        <time>2017-08-03T08:36:23.000Z</time>
      </trkpt>
      <trkpt lat="43.40621053241193" lon="-6.174136865884066">
        <ele>134.8</ele>
        <time>2017-08-03T08:36:26.000Z</time>
      </trkpt>
      <trkpt lat="43.40618119575083" lon="-6.174214901402593">
        <ele>135</ele>
        <time>2017-08-03T08:36:31.000Z</time>
      </trkpt>
      <trkpt lat="43.406180776655674" lon="-6.17422747425735">
        <ele>134.8</ele>
        <time>2017-08-03T08:36:32.000Z</time>
      </trkpt>
      <trkpt lat="43.40616258792579" lon="-6.174277598038316">
        <ele>134.8</ele>
        <time>2017-08-03T08:36:36.000Z</time>
      </trkpt>
      <trkpt lat="43.406150015071034" lon="-6.174347922205925">
        <ele>134.2</ele>
        <time>2017-08-03T08:36:41.000Z</time>
      </trkpt>
      <trkpt lat="43.406143225729465" lon="-6.174360411241651">
        <ele>134.2</ele>
        <time>2017-08-03T08:36:42.000Z</time>
      </trkpt>
      <trkpt lat="43.40614205226302" lon="-6.174387400969863">
        <ele>133.8</ele>
        <time>2017-08-03T08:36:44.000Z</time>
      </trkpt>
      <trkpt lat="43.40613819658756" lon="-6.174496868625283">
        <ele>132</ele>
        <time>2017-08-03T08:36:50.000Z</time>
      </trkpt>
      <trkpt lat="43.406108943745494" lon="-6.1745942663401365">
        <ele>131.6</ele>
        <time>2017-08-03T08:36:56.000Z</time>
      </trkpt>
      <trkpt lat="43.40613383799791" lon="-6.174658387899399">
        <ele>129</ele>
        <time>2017-08-03T08:37:00.000Z</time>
      </trkpt>
      <trkpt lat="43.40613677166402" lon="-6.1746894009411335">
        <ele>128</ele>
        <time>2017-08-03T08:37:02.000Z</time>
      </trkpt>
      <trkpt lat="43.406142219901085" lon="-6.174718234688044">
        <ele>127.2</ele>
        <time>2017-08-03T08:37:04.000Z</time>
      </trkpt>
      <trkpt lat="43.40615236200392" lon="-6.174777830019593">
        <ele>125.2</ele>
        <time>2017-08-03T08:37:08.000Z</time>
      </trkpt>
      <trkpt lat="43.40617172420025" lon="-6.174848070368171">
        <ele>123.4</ele>
        <time>2017-08-03T08:37:13.000Z</time>
      </trkpt>
      <trkpt lat="43.40612914413214" lon="-6.174929793924093">
        <ele>125.2</ele>
        <time>2017-08-03T08:37:18.000Z</time>
      </trkpt>
      <trkpt lat="43.40611908584833" lon="-6.174945216625929">
        <ele>125.6</ele>
        <time>2017-08-03T08:37:19.000Z</time>
      </trkpt>
      <trkpt lat="43.40610517188907" lon="-6.1749818455427885">
        <ele>126.2</ele>
        <time>2017-08-03T08:37:21.000Z</time>
      </trkpt>
      <trkpt lat="43.40611229650676" lon="-6.175032136961818">
        <ele>125.4</ele>
        <time>2017-08-03T08:37:24.000Z</time>
      </trkpt>
      <trkpt lat="43.406156888231635" lon="-6.1750902235507965">
        <ele>122.2</ele>
        <time>2017-08-03T08:37:28.000Z</time>
      </trkpt>
      <trkpt lat="43.40615479275584" lon="-6.175104891881347">
        <ele>122.2</ele>
        <time>2017-08-03T08:37:29.000Z</time>
      </trkpt>
      <trkpt lat="43.40615320019424" lon="-6.175174210220575">
        <ele>121.8</ele>
        <time>2017-08-03T08:37:33.000Z</time>
      </trkpt>
      <trkpt lat="43.406142722815275" lon="-6.175215868279338">
        <ele>122</ele>
        <time>2017-08-03T08:37:36.000Z</time>
      </trkpt>
      <trkpt lat="43.4061449021101" lon="-6.17523112334311">
        <ele>121.8</ele>
        <time>2017-08-03T08:37:37.000Z</time>
      </trkpt>
      <trkpt lat="43.40615923516452" lon="-6.1752875335514545">
        <ele>120.4</ele>
        <time>2017-08-03T08:37:41.000Z</time>
      </trkpt>
      <trkpt lat="43.40616342611611" lon="-6.175344111397862">
        <ele>119.8</ele>
        <time>2017-08-03T08:37:45.000Z</time>
      </trkpt>
      <trkpt lat="43.40619871392846" lon="-6.175403706729412">
        <ele>117.2</ele>
        <time>2017-08-03T08:37:49.000Z</time>
      </trkpt>
      <trkpt lat="43.4062019828707" lon="-6.175416028127074">
        <ele>116.8</ele>
        <time>2017-08-03T08:37:50.000Z</time>
      </trkpt>
      <trkpt lat="43.40622109360993" lon="-6.175455003976822">
        <ele>115.4</ele>
        <time>2017-08-03T08:37:53.000Z</time>
      </trkpt>
      <trkpt lat="43.40621539391577" lon="-6.175499428063631">
        <ele>115.2</ele>
        <time>2017-08-03T08:37:56.000Z</time>
      </trkpt>
      <trkpt lat="43.40618924237788" lon="-6.175547372549772">
        <ele>116.4</ele>
        <time>2017-08-03T08:38:00.000Z</time>
      </trkpt>
      <trkpt lat="43.4061879850924" lon="-6.175553994253278">
        <ele>116.4</ele>
        <time>2017-08-03T08:38:01.000Z</time>
      </trkpt>
      <trkpt lat="43.40619234368205" lon="-6.175567153841257">
        <ele>116</ele>
        <time>2017-08-03T08:38:03.000Z</time>
      </trkpt>
      <trkpt lat="43.40620223432779" lon="-6.175588276237249">
        <ele>115.2</ele>
        <time>2017-08-03T08:38:06.000Z</time>
      </trkpt>
      <trkpt lat="43.406195025891066" lon="-6.1756533198058605">
        <ele>115.4</ele>
        <time>2017-08-03T08:38:12.000Z</time>
      </trkpt>
      <trkpt lat="43.406181363388896" lon="-6.175701096653938">
        <ele>116.2</ele>
        <time>2017-08-03T08:38:17.000Z</time>
      </trkpt>
      <trkpt lat="43.40613844804466" lon="-6.175754657015204">
        <ele>118.8</ele>
        <time>2017-08-03T08:38:24.000Z</time>
      </trkpt>
      <trkpt lat="43.406141800805926" lon="-6.175785083323717">
        <ele>118.6</ele>
        <time>2017-08-03T08:38:27.000Z</time>
      </trkpt>
      <trkpt lat="43.40613953769207" lon="-6.175800673663616">
        <ele>118.8</ele>
        <time>2017-08-03T08:38:28.000Z</time>
      </trkpt>
      <trkpt lat="43.406187146902084" lon="-6.17587317712605">
        <ele>115.8</ele>
        <time>2017-08-03T08:38:33.000Z</time>
      </trkpt>
      <trkpt lat="43.406206257641315" lon="-6.175901340320706">
        <ele>114.6</ele>
        <time>2017-08-03T08:38:35.000Z</time>
      </trkpt>
      <trkpt lat="43.40620567090809" lon="-6.1759154219180346">
        <ele>114.8</ele>
        <time>2017-08-03T08:38:36.000Z</time>
      </trkpt>
      <trkpt lat="43.40620893985033" lon="-6.175928162410855">
        <ele>114.6</ele>
        <time>2017-08-03T08:38:37.000Z</time>
      </trkpt>
      <trkpt lat="43.40622352436185" lon="-6.17597091011703">
        <ele>113.6</ele>
        <time>2017-08-03T08:38:40.000Z</time>
      </trkpt>
      <trkpt lat="43.40621539391577" lon="-6.175993625074625">
        <ele>114.2</ele>
        <time>2017-08-03T08:38:42.000Z</time>
      </trkpt>
      <trkpt lat="43.406204245984554" lon="-6.176005778834224">
        <ele>114.8</ele>
        <time>2017-08-03T08:38:43.000Z</time>
      </trkpt>
      <trkpt lat="43.40621103532612" lon="-6.17604861035943">
        <ele>114.4</ele>
        <time>2017-08-03T08:38:46.000Z</time>
      </trkpt>
      <trkpt lat="43.406206760555506" lon="-6.1760644521564245">
        <ele>114.6</ele>
        <time>2017-08-03T08:38:47.000Z</time>
      </trkpt>
      <trkpt lat="43.406180273741484" lon="-6.176106361672282">
        <ele>116.2</ele>
        <time>2017-08-03T08:38:50.000Z</time>
      </trkpt>
      <trkpt lat="43.406167197972536" lon="-6.176172662526369">
        <ele>117</ele>
        <time>2017-08-03T08:38:54.000Z</time>
      </trkpt>
      <trkpt lat="43.40617314912379" lon="-6.1762626003474">
        <ele>116.8</ele>
        <time>2017-08-03T08:38:59.000Z</time>
      </trkpt>
      <trkpt lat="43.4061623364687" lon="-6.176296044141054">
        <ele>117.4</ele>
        <time>2017-08-03T08:39:01.000Z</time>
      </trkpt>
      <trkpt lat="43.40616200119257" lon="-6.1763448268175125">
        <ele>117.6</ele>
        <time>2017-08-03T08:39:04.000Z</time>
      </trkpt>
      <trkpt lat="43.40616066008806" lon="-6.176442392170429">
        <ele>118</ele>
        <time>2017-08-03T08:39:09.000Z</time>
      </trkpt>
      <trkpt lat="43.406160743907094" lon="-6.176462592557073">
        <ele>117.8</ele>
        <time>2017-08-03T08:39:10.000Z</time>
      </trkpt>
      <trkpt lat="43.40618245303631" lon="-6.176532246172428">
        <ele>115.6</ele>
        <time>2017-08-03T08:39:14.000Z</time>
      </trkpt>
      <trkpt lat="43.40620206668973" lon="-6.176602067425847">
        <ele>113.4</ele>
        <time>2017-08-03T08:39:18.000Z</time>
      </trkpt>
      <trkpt lat="43.40620893985033" lon="-6.176615310832858">
        <ele>113</ele>
        <time>2017-08-03T08:39:19.000Z</time>
      </trkpt>
      <trkpt lat="43.40621514245868" lon="-6.176631068810821">
        <ele>112.4</ele>
        <time>2017-08-03T08:39:20.000Z</time>
      </trkpt>
      <trkpt lat="43.406245317310095" lon="-6.176732238382101">
        <ele>109.2</ele>
        <time>2017-08-03T08:39:26.000Z</time>
      </trkpt>
      <trkpt lat="43.40625143609941" lon="-6.1767656821757555">
        <ele>108.4</ele>
        <time>2017-08-03T08:39:28.000Z</time>
      </trkpt>
      <trkpt lat="43.40627339668572" lon="-6.176840029656887">
        <ele>106</ele>
        <time>2017-08-03T08:39:32.000Z</time>
      </trkpt>
      <trkpt lat="43.40630616992712" lon="-6.17693105712533">
        <ele>102.8</ele>
        <time>2017-08-03T08:39:37.000Z</time>
      </trkpt>
      <trkpt lat="43.40633726678789" lon="-6.1770495772361755">
        <ele>102.2</ele>
        <time>2017-08-03T08:39:44.000Z</time>
      </trkpt>
      <trkpt lat="43.40634531341493" lon="-6.177133480086923">
        <ele>102.6</ele>
        <time>2017-08-03T08:39:50.000Z</time>
      </trkpt>
      <trkpt lat="43.40634657070041" lon="-6.1771452985703945">
        <ele>102.8</ele>
        <time>2017-08-03T08:39:51.000Z</time>
      </trkpt>
      <trkpt lat="43.406364591792226" lon="-6.17719248868525">
        <ele>102.6</ele>
        <time>2017-08-03T08:39:54.000Z</time>
      </trkpt>
      <trkpt lat="43.40640247799456" lon="-6.177262561395764">
        <ele>101.8</ele>
        <time>2017-08-03T08:39:59.000Z</time>
      </trkpt>
      <trkpt lat="43.40638772584498" lon="-6.177324503660202">
        <ele>102.8</ele>
        <time>2017-08-03T08:40:03.000Z</time>
      </trkpt>
      <trkpt lat="43.40642938390374" lon="-6.17740111425519">
        <ele>102</ele>
        <time>2017-08-03T08:40:08.000Z</time>
      </trkpt>
      <trkpt lat="43.4064348321408" lon="-6.177411088719964">
        <ele>101.8</ele>
        <time>2017-08-03T08:40:09.000Z</time>
      </trkpt>
      <trkpt lat="43.406490655615926" lon="-6.1774772219359875">
        <ele>100.4</ele>
        <time>2017-08-03T08:40:15.000Z</time>
      </trkpt>
      <trkpt lat="43.40652787126601" lon="-6.177547462284565">
        <ele>99.6</ele>
        <time>2017-08-03T08:40:20.000Z</time>
      </trkpt>
      <trkpt lat="43.40656869113445" lon="-6.1776212230324745">
        <ele>98.8</ele>
        <time>2017-08-03T08:40:24.000Z</time>
      </trkpt>
      <trkpt lat="43.406599033623934" lon="-6.177729517221451">
        <ele>98.4</ele>
        <time>2017-08-03T08:40:30.000Z</time>
      </trkpt>
      <trkpt lat="43.40661705471575" lon="-6.177822137251496">
        <ele>98.2</ele>
        <time>2017-08-03T08:40:35.000Z</time>
      </trkpt>
      <trkpt lat="43.40661562979221" lon="-6.177835967391729">
        <ele>98.4</ele>
        <time>2017-08-03T08:40:36.000Z</time>
      </trkpt>
      <trkpt lat="43.40659693814814" lon="-6.177878547459841">
        <ele>99.2</ele>
        <time>2017-08-03T08:40:42.000Z</time>
      </trkpt>
      <trkpt lat="43.406610349193215" lon="-6.1779257375746965">
        <ele>99.2</ele>
        <time>2017-08-03T08:40:48.000Z</time>
      </trkpt>
      <trkpt lat="43.406684612855315" lon="-6.177913499996066">
        <ele>96.4</ele>
        <time>2017-08-03T08:41:17.000Z</time>
      </trkpt>
      <trkpt lat="43.40669006109238" lon="-6.177905453369021">
        <ele>96.2</ele>
        <time>2017-08-03T08:41:18.000Z</time>
      </trkpt>
      <trkpt lat="43.40668595395982" lon="-6.177875027060509">
        <ele>96.2</ele>
        <time>2017-08-03T08:41:21.000Z</time>
      </trkpt>
      <trkpt lat="43.40666416101158" lon="-6.177864382043481">
        <ele>96.8</ele>
        <time>2017-08-03T08:41:29.000Z</time>
      </trkpt>
      <trkpt lat="43.40659526176751" lon="-6.1778706684708595">
        <ele>99.2</ele>
        <time>2017-08-03T08:41:37.000Z</time>
      </trkpt>
      <trkpt lat="43.40660775080323" lon="-6.177881145849824">
        <ele>99</ele>
        <time>2017-08-03T08:41:47.000Z</time>
      </trkpt>
      <trkpt lat="43.4066111035645" lon="-6.177886929363012">
        <ele>98.8</ele>
        <time>2017-08-03T08:41:53.000Z</time>
      </trkpt>
      <trkpt lat="43.40662040747702" lon="-6.177919786423445">
        <ele>98.8</ele>
        <time>2017-08-03T08:42:01.000Z</time>
      </trkpt>
      <trkpt lat="43.406626442447305" lon="-6.177943088114262">
        <ele>98.6</ele>
        <time>2017-08-03T08:42:03.000Z</time>
      </trkpt>
      <trkpt lat="43.40663457289338" lon="-6.177961025387049">
        <ele>98.4</ele>
        <time>2017-08-03T08:42:05.000Z</time>
      </trkpt>
      <trkpt lat="43.40664320625365" lon="-6.178001258522272">
        <ele>98.4</ele>
        <time>2017-08-03T08:42:09.000Z</time>
      </trkpt>
      <trkpt lat="43.40665636584163" lon="-6.178026823326945">
        <ele>98.2</ele>
        <time>2017-08-03T08:42:11.000Z</time>
      </trkpt>
      <trkpt lat="43.406669525429606" lon="-6.178053980693221">
        <ele>97.8</ele>
        <time>2017-08-03T08:42:14.000Z</time>
      </trkpt>
      <trkpt lat="43.40666935779154" lon="-6.178065463900566">
        <ele>97.8</ele>
        <time>2017-08-03T08:42:15.000Z</time>
      </trkpt>
      <trkpt lat="43.40668980963528" lon="-6.178117599338293">
        <ele>97.4</ele>
        <time>2017-08-03T08:42:19.000Z</time>
      </trkpt>
      <trkpt lat="43.40669852681458" lon="-6.178165543824434">
        <ele>97.4</ele>
        <time>2017-08-03T08:42:22.000Z</time>
      </trkpt>
      <trkpt lat="43.40670724399388" lon="-6.178192533552647">
        <ele>97.2</ele>
        <time>2017-08-03T08:42:24.000Z</time>
      </trkpt>
      <trkpt lat="43.40671353042126" lon="-6.178232096135616">
        <ele>97.2</ele>
        <time>2017-08-03T08:42:27.000Z</time>
      </trkpt>
      <trkpt lat="43.40671017765999" lon="-6.178252883255482">
        <ele>97.4</ele>
        <time>2017-08-03T08:42:29.000Z</time>
      </trkpt>
      <trkpt lat="43.40668980963528" lon="-6.178308455273509">
        <ele>98.2</ele>
        <time>2017-08-03T08:42:34.000Z</time>
      </trkpt>
      <trkpt lat="43.4066644962877" lon="-6.178378947079182">
        <ele>99.2</ele>
        <time>2017-08-03T08:42:39.000Z</time>
      </trkpt>
      <trkpt lat="43.406656282022595" lon="-6.178441056981683">
        <ele>99.6</ele>
        <time>2017-08-03T08:42:43.000Z</time>
      </trkpt>
      <trkpt lat="43.406654857099056" lon="-6.178471315652132">
        <ele>99.6</ele>
        <time>2017-08-03T08:42:45.000Z</time>
      </trkpt>
      <trkpt lat="43.406651420518756" lon="-6.178558906540275">
        <ele>100</ele>
        <time>2017-08-03T08:42:51.000Z</time>
      </trkpt>
      <trkpt lat="43.40669349767268" lon="-6.178678432479501">
        <ele>98.4</ele>
        <time>2017-08-03T08:42:58.000Z</time>
      </trkpt>
      <trkpt lat="43.406696347519755" lon="-6.178721096366644">
        <ele>98.4</ele>
        <time>2017-08-03T08:43:00.000Z</time>
      </trkpt>
      <trkpt lat="43.40670632198453" lon="-6.178754372522235">
        <ele>98</ele>
        <time>2017-08-03T08:43:02.000Z</time>
      </trkpt>
      <trkpt lat="43.40671646408737" lon="-6.178773231804371">
        <ele>97.6</ele>
        <time>2017-08-03T08:43:03.000Z</time>
      </trkpt>
      <trkpt lat="43.406709088012576" lon="-6.178862834349275">
        <ele>98</ele>
        <time>2017-08-03T08:43:08.000Z</time>
      </trkpt>
      <trkpt lat="43.40670397505164" lon="-6.17890901863575">
        <ele>98.4</ele>
        <time>2017-08-03T08:43:11.000Z</time>
      </trkpt>
      <trkpt lat="43.40671269223094" lon="-6.178919496014714">
        <ele>98</ele>
        <time>2017-08-03T08:43:12.000Z</time>
      </trkpt>
      <trkpt lat="43.406717302277684" lon="-6.178943049162626">
        <ele>97.8</ele>
        <time>2017-08-03T08:43:14.000Z</time>
      </trkpt>
      <trkpt lat="43.406725181266665" lon="-6.178987137973309">
        <ele>97.2</ele>
        <time>2017-08-03T08:43:18.000Z</time>
      </trkpt>
      <trkpt lat="43.406721241772175" lon="-6.178999878466129">
        <ele>97.2</ele>
        <time>2017-08-03T08:43:19.000Z</time>
      </trkpt>
      <trkpt lat="43.40671948157251" lon="-6.179080763831735">
        <ele>97</ele>
        <time>2017-08-03T08:43:24.000Z</time>
      </trkpt>
      <trkpt lat="43.40672937221825" lon="-6.17915821261704">
        <ele>96.8</ele>
        <time>2017-08-03T08:43:29.000Z</time>
      </trkpt>
      <trkpt lat="43.40674068778753" lon="-6.179176066070795">
        <ele>96.6</ele>
        <time>2017-08-03T08:43:30.000Z</time>
      </trkpt>
      <trkpt lat="43.40673381462693" lon="-6.179229123517871">
        <ele>97</ele>
        <time>2017-08-03T08:43:33.000Z</time>
      </trkpt>
      <trkpt lat="43.40672744438052" lon="-6.179244378581643">
        <ele>97.2</ele>
        <time>2017-08-03T08:43:34.000Z</time>
      </trkpt>
      <trkpt lat="43.40672836638987" lon="-6.179258292540908">
        <ele>97.2</ele>
        <time>2017-08-03T08:43:35.000Z</time>
      </trkpt>
      <trkpt lat="43.40675669722259" lon="-6.1793040577322245">
        <ele>96.4</ele>
        <time>2017-08-03T08:43:38.000Z</time>
      </trkpt>
      <trkpt lat="43.40675409883261" lon="-6.1793694365769625">
        <ele>96.8</ele>
        <time>2017-08-03T08:43:42.000Z</time>
      </trkpt>
      <trkpt lat="43.406757451593876" lon="-6.1794056463986635">
        <ele>96.8</ele>
        <time>2017-08-03T08:43:45.000Z</time>
      </trkpt>
      <trkpt lat="43.40678829699755" lon="-6.179455099627376">
        <ele>96</ele>
        <time>2017-08-03T08:43:49.000Z</time>
      </trkpt>
      <trkpt lat="43.406790643930435" lon="-6.179466499015689">
        <ele>96</ele>
        <time>2017-08-03T08:43:50.000Z</time>
      </trkpt>
      <trkpt lat="43.40682308189571" lon="-6.179518131539226">
        <ele>95.2</ele>
        <time>2017-08-03T08:43:54.000Z</time>
      </trkpt>
      <trkpt lat="43.40683582238853" lon="-6.179545121267438">
        <ele>95</ele>
        <time>2017-08-03T08:43:59.000Z</time>
      </trkpt>
      <trkpt lat="43.40689139440656" lon="-6.179596586152911">
        <ele>94</ele>
        <time>2017-08-03T08:44:05.000Z</time>
      </trkpt>
      <trkpt lat="43.40693347156048" lon="-6.179647129029036">
        <ele>93.4</ele>
        <time>2017-08-03T08:44:10.000Z</time>
      </trkpt>
      <trkpt lat="43.4069409314543" lon="-6.179659785702825">
        <ele>93.2</ele>
        <time>2017-08-03T08:44:11.000Z</time>
      </trkpt>
      <trkpt lat="43.40696792118251" lon="-6.179738994687796">
        <ele>92.4</ele>
        <time>2017-08-03T08:44:16.000Z</time>
      </trkpt>
      <trkpt lat="43.40697420760989" lon="-6.179771767929196">
        <ele>92</ele>
        <time>2017-08-03T08:44:18.000Z</time>
      </trkpt>
      <trkpt lat="43.406993905082345" lon="-6.179852820932865">
        <ele>91.8</ele>
        <time>2017-08-03T08:44:24.000Z</time>
      </trkpt>
      <trkpt lat="43.407020810991526" lon="-6.179930437356234">
        <ele>91.4</ele>
        <time>2017-08-03T08:44:31.000Z</time>
      </trkpt>
      <trkpt lat="43.40702349320054" lon="-6.180011490359902">
        <ele>91.6</ele>
        <time>2017-08-03T08:44:35.000Z</time>
      </trkpt>
      <trkpt lat="43.40701452456415" lon="-6.180088352411985">
        <ele>92.2</ele>
        <time>2017-08-03T08:44:39.000Z</time>
      </trkpt>
      <trkpt lat="43.407017793506384" lon="-6.180160017684102">
        <ele>92.4</ele>
        <time>2017-08-03T08:44:43.000Z</time>
      </trkpt>
      <trkpt lat="43.407027181237936" lon="-6.180242663249373">
        <ele>92.4</ele>
        <time>2017-08-03T08:44:48.000Z</time>
      </trkpt>
      <trkpt lat="43.40703128837049" lon="-6.180273843929172">
        <ele>92.4</ele>
        <time>2017-08-03T08:44:50.000Z</time>
      </trkpt>
      <trkpt lat="43.40703137218952" lon="-6.180331846699119">
        <ele>92.6</ele>
        <time>2017-08-03T08:44:54.000Z</time>
      </trkpt>
      <trkpt lat="43.40703614987433" lon="-6.1803890112787485">
        <ele>92.6</ele>
        <time>2017-08-03T08:44:57.000Z</time>
      </trkpt>
      <trkpt lat="43.407034892588854" lon="-6.180427065119147">
        <ele>92.8</ele>
        <time>2017-08-03T08:44:59.000Z</time>
      </trkpt>
      <trkpt lat="43.40705727227032" lon="-6.180518427863717">
        <ele>92</ele>
        <time>2017-08-03T08:45:04.000Z</time>
      </trkpt>
      <trkpt lat="43.4070619661361" lon="-6.180586572736502">
        <ele>91.8</ele>
        <time>2017-08-03T08:45:08.000Z</time>
      </trkpt>
      <trkpt lat="43.40705777518451" lon="-6.180627308785915">
        <ele>92</ele>
        <time>2017-08-03T08:45:10.000Z</time>
      </trkpt>
      <trkpt lat="43.40704972855747" lon="-6.180641893297434">
        <ele>92.2</ele>
        <time>2017-08-03T08:45:11.000Z</time>
      </trkpt>
      <trkpt lat="43.40703388676047" lon="-6.180694364011288">
        <ele>93.2</ele>
        <time>2017-08-03T08:45:14.000Z</time>
      </trkpt>
      <trkpt lat="43.40705920010805" lon="-6.1807921808212996">
        <ele>93</ele>
        <time>2017-08-03T08:45:20.000Z</time>
      </trkpt>
      <trkpt lat="43.40706305578351" lon="-6.180807268247008">
        <ele>93</ele>
        <time>2017-08-03T08:45:21.000Z</time>
      </trkpt>
      <trkpt lat="43.40705609880388" lon="-6.180829983204603">
        <ele>93.4</ele>
        <time>2017-08-03T08:45:24.000Z</time>
      </trkpt>
      <trkpt lat="43.407060876488686" lon="-6.180844735354185">
        <ele>93.4</ele>
        <time>2017-08-03T08:45:25.000Z</time>
      </trkpt>
      <trkpt lat="43.407099517062306" lon="-6.180943725630641">
        <ele>93</ele>
        <time>2017-08-03T08:45:31.000Z</time>
      </trkpt>
      <trkpt lat="43.40711871162057" lon="-6.180977756157517">
        <ele>92.6</ele>
        <time>2017-08-03T08:45:33.000Z</time>
      </trkpt>
      <trkpt lat="43.40713740326464" lon="-6.181052103638649">
        <ele>92.6</ele>
        <time>2017-08-03T08:45:38.000Z</time>
      </trkpt>
      <trkpt lat="43.407126758247614" lon="-6.1810873076319695">
        <ele>93.2</ele>
        <time>2017-08-03T08:45:40.000Z</time>
      </trkpt>
      <trkpt lat="43.407107731327415" lon="-6.181121002882719">
        <ele>94</ele>
        <time>2017-08-03T08:45:42.000Z</time>
      </trkpt>
      <trkpt lat="43.40711586177349" lon="-6.1811803467571735">
        <ele>94.2</ele>
        <time>2017-08-03T08:45:45.000Z</time>
      </trkpt>
      <trkpt lat="43.407103875651956" lon="-6.1812501680105925">
        <ele>95.2</ele>
        <time>2017-08-03T08:45:49.000Z</time>
      </trkpt>
      <trkpt lat="43.4071153588593" lon="-6.181351086124778">
        <ele>95.6</ele>
        <time>2017-08-03T08:45:55.000Z</time>
      </trkpt>
      <trkpt lat="43.40716137550771" lon="-6.181439934298396">
        <ele>95</ele>
        <time>2017-08-03T08:46:00.000Z</time>
      </trkpt>
      <trkpt lat="43.40717168524861" lon="-6.181456698104739">
        <ele>94.8</ele>
        <time>2017-08-03T08:46:01.000Z</time>
      </trkpt>
      <trkpt lat="43.40721761807799" lon="-6.181560968980193">
        <ele>93</ele>
        <time>2017-08-03T08:46:07.000Z</time>
      </trkpt>
      <trkpt lat="43.40723069384694" lon="-6.181631125509739">
        <ele>92.4</ele>
        <time>2017-08-03T08:46:11.000Z</time>
      </trkpt>
      <trkpt lat="43.40722759254277" lon="-6.181664569303393">
        <ele>92.4</ele>
        <time>2017-08-03T08:46:13.000Z</time>
      </trkpt>
      <trkpt lat="43.40722088702023" lon="-6.181678734719753">
        <ele>92.6</ele>
        <time>2017-08-03T08:46:14.000Z</time>
      </trkpt>
      <trkpt lat="43.4072189591825" lon="-6.181726176291704">
        <ele>92.4</ele>
        <time>2017-08-03T08:46:17.000Z</time>
      </trkpt>
      <trkpt lat="43.407217701897025" lon="-6.18179876357317">
        <ele>92.2</ele>
        <time>2017-08-03T08:46:22.000Z</time>
      </trkpt>
      <trkpt lat="43.40720965526998" lon="-6.181827345862985">
        <ele>92.4</ele>
        <time>2017-08-03T08:46:24.000Z</time>
      </trkpt>
      <trkpt lat="43.40721585787833" lon="-6.1818780563771725">
        <ele>92</ele>
        <time>2017-08-03T08:46:27.000Z</time>
      </trkpt>
      <trkpt lat="43.40721501968801" lon="-6.1819107457995415">
        <ele>92</ele>
        <time>2017-08-03T08:46:29.000Z</time>
      </trkpt>
      <trkpt lat="43.407224491238594" lon="-6.181969586759806">
        <ele>92.2</ele>
        <time>2017-08-03T08:46:33.000Z</time>
      </trkpt>
      <trkpt lat="43.40721535496414" lon="-6.181986769661307">
        <ele>92.4</ele>
        <time>2017-08-03T08:46:35.000Z</time>
      </trkpt>
      <trkpt lat="43.407204039394855" lon="-6.182004790753126">
        <ele>92.6</ele>
        <time>2017-08-03T08:46:38.000Z</time>
      </trkpt>
      <trkpt lat="43.407218204811215" lon="-6.182008562609553">
        <ele>92.4</ele>
        <time>2017-08-03T08:46:40.000Z</time>
      </trkpt>
      <trkpt lat="43.40720043517649" lon="-6.182024655863643">
        <ele>92.8</ele>
        <time>2017-08-03T08:46:45.000Z</time>
      </trkpt>
      <trkpt lat="43.40720311738551" lon="-6.182047370821238">
        <ele>92.8</ele>
        <time>2017-08-03T08:46:52.000Z</time>
      </trkpt>
      <trkpt lat="43.40719691477716" lon="-6.182053154334426">
        <ele>93</ele>
        <time>2017-08-03T08:46:53.000Z</time>
      </trkpt>
      <trkpt lat="43.40713446959853" lon="-6.182087855413556">
        <ele>94.4</ele>
        <time>2017-08-03T08:46:59.000Z</time>
      </trkpt>
      <trkpt lat="43.40707671828568" lon="-6.182133955881">
        <ele>95.8</ele>
        <time>2017-08-03T08:47:05.000Z</time>
      </trkpt>
      <trkpt lat="43.4070741198957" lon="-6.18214619345963">
        <ele>96</ele>
        <time>2017-08-03T08:47:06.000Z</time>
      </trkpt>
      <trkpt lat="43.40704536996782" lon="-6.182179385796189">
        <ele>96.8</ele>
        <time>2017-08-03T08:47:09.000Z</time>
      </trkpt>
      <trkpt lat="43.40705417096615" lon="-6.182235544547439">
        <ele>96.8</ele>
        <time>2017-08-03T08:47:13.000Z</time>
      </trkpt>
      <trkpt lat="43.40707344934344" lon="-6.1822800524532795">
        <ele>96.4</ele>
        <time>2017-08-03T08:47:16.000Z</time>
      </trkpt>
      <trkpt lat="43.40708795003593" lon="-6.182305114343762">
        <ele>96</ele>
        <time>2017-08-03T08:47:18.000Z</time>
      </trkpt>
      <trkpt lat="43.407086776569486" lon="-6.182329840958118">
        <ele>95.8</ele>
        <time>2017-08-03T08:47:20.000Z</time>
      </trkpt>
      <trkpt lat="43.40706900693476" lon="-6.182379210367799">
        <ele>95.8</ele>
        <time>2017-08-03T08:47:24.000Z</time>
      </trkpt>
      <trkpt lat="43.40704930946231" lon="-6.182447103783488">
        <ele>95.8</ele>
        <time>2017-08-03T08:47:29.000Z</time>
      </trkpt>
      <trkpt lat="43.407015949487686" lon="-6.182526731863618">
        <ele>96</ele>
        <time>2017-08-03T08:47:35.000Z</time>
      </trkpt>
      <trkpt lat="43.40700572356582" lon="-6.182538131251931">
        <ele>96</ele>
        <time>2017-08-03T08:47:36.000Z</time>
      </trkpt>
      <trkpt lat="43.40700228698552" lon="-6.18260501883924">
        <ele>95.6</ele>
        <time>2017-08-03T08:47:41.000Z</time>
      </trkpt>
      <trkpt lat="43.40700522065163" lon="-6.18262161500752">
        <ele>95.4</ele>
        <time>2017-08-03T08:47:42.000Z</time>
      </trkpt>
      <trkpt lat="43.406998850405216" lon="-6.1826304998248816">
        <ele>95.6</ele>
        <time>2017-08-03T08:47:43.000Z</time>
      </trkpt>
      <trkpt lat="43.40699206106365" lon="-6.182676600292325">
        <ele>95.4</ele>
        <time>2017-08-03T08:47:47.000Z</time>
      </trkpt>
      <trkpt lat="43.406971441581845" lon="-6.182750947773457">
        <ele>95.2</ele>
        <time>2017-08-03T08:47:53.000Z</time>
      </trkpt>
      <trkpt lat="43.40694386512041" lon="-6.182816158980131">
        <ele>95.4</ele>
        <time>2017-08-03T08:47:58.000Z</time>
      </trkpt>
      <trkpt lat="43.40690581128001" lon="-6.182895787060261">
        <ele>95.6</ele>
        <time>2017-08-03T08:48:04.000Z</time>
      </trkpt>
      <trkpt lat="43.406879575923085" lon="-6.182945827022195">
        <ele>95.8</ele>
        <time>2017-08-03T08:48:10.000Z</time>
      </trkpt>
      <trkpt lat="43.4068769775331" lon="-6.1830013152211905">
        <ele>95.6</ele>
        <time>2017-08-03T08:48:26.000Z</time>
      </trkpt>
      <trkpt lat="43.40683540329337" lon="-6.183068789541721">
        <ele>96</ele>
        <time>2017-08-03T08:48:53.000Z</time>
      </trkpt>
      <trkpt lat="43.40683439746499" lon="-6.183082954958081">
        <ele>95.8</ele>
        <time>2017-08-03T08:48:54.000Z</time>
      </trkpt>
      <trkpt lat="43.406842863187194" lon="-6.18313861079514">
        <ele>95.4</ele>
        <time>2017-08-03T08:48:58.000Z</time>
      </trkpt>
      <trkpt lat="43.406837498769164" lon="-6.183189572766423">
        <ele>95.2</ele>
        <time>2017-08-03T08:49:02.000Z</time>
      </trkpt>
      <trkpt lat="43.406839929521084" lon="-6.183248329907656">
        <ele>94.6</ele>
        <time>2017-08-03T08:49:06.000Z</time>
      </trkpt>
      <trkpt lat="43.40682132169604" lon="-6.183334998786449">
        <ele>94</ele>
        <time>2017-08-03T08:49:12.000Z</time>
      </trkpt>
      <trkpt lat="43.40683062560856" lon="-6.183414040133357">
        <ele>93.4</ele>
        <time>2017-08-03T08:49:17.000Z</time>
      </trkpt>
      <trkpt lat="43.406833140179515" lon="-6.1834457237273455">
        <ele>93</ele>
        <time>2017-08-03T08:49:19.000Z</time>
      </trkpt>
      <trkpt lat="43.40682551264763" lon="-6.183505151420832">
        <ele>92.6</ele>
        <time>2017-08-03T08:49:23.000Z</time>
      </trkpt>
      <trkpt lat="43.40681931003928" lon="-6.183601878583431">
        <ele>91.8</ele>
        <time>2017-08-03T08:49:29.000Z</time>
      </trkpt>
      <trkpt lat="43.406805312260985" lon="-6.183662731200457">
        <ele>91.6</ele>
        <time>2017-08-03T08:49:33.000Z</time>
      </trkpt>
      <trkpt lat="43.406795505434275" lon="-6.183710675686598">
        <ele>91.4</ele>
        <time>2017-08-03T08:49:36.000Z</time>
      </trkpt>
      <trkpt lat="43.40679340995848" lon="-6.183766331523657">
        <ele>91</ele>
        <time>2017-08-03T08:49:40.000Z</time>
      </trkpt>
      <trkpt lat="43.406794080510736" lon="-6.183795081451535">
        <ele>90.6</ele>
        <time>2017-08-03T08:49:42.000Z</time>
      </trkpt>
      <trkpt lat="43.4067905601114" lon="-6.183828609064221">
        <ele>90.4</ele>
        <time>2017-08-03T08:49:48.000Z</time>
      </trkpt>
      <trkpt lat="43.40669525787234" lon="-6.183871356770396">
        <ele>91.6</ele>
        <time>2017-08-03T08:50:48.000Z</time>
      </trkpt>
      <trkpt lat="43.406659718602896" lon="-6.1838889587670565">
        <ele>92.2</ele>
        <time>2017-08-03T08:50:51.000Z</time>
      </trkpt>
      <trkpt lat="43.40663826093078" lon="-6.183905806392431">
        <ele>92.4</ele>
        <time>2017-08-03T08:50:53.000Z</time>
      </trkpt>
      <trkpt lat="43.406627364456654" lon="-6.183925922960043">
        <ele>92.4</ele>
        <time>2017-08-03T08:50:55.000Z</time>
      </trkpt>
      <trkpt lat="43.40660909190774" lon="-6.183959953486919">
        <ele>92.4</ele>
        <time>2017-08-03T08:50:58.000Z</time>
      </trkpt>
      <trkpt lat="43.406588640064" lon="-6.183992139995098">
        <ele>92.4</ele>
        <time>2017-08-03T08:51:01.000Z</time>
      </trkpt>
      <trkpt lat="43.40652963146567" lon="-6.184118539094925">
        <ele>92</ele>
        <time>2017-08-03T08:51:10.000Z</time>
      </trkpt>
      <trkpt lat="43.406479423865676" lon="-6.1842364724725485">
        <ele>91.6</ele>
        <time>2017-08-03T08:51:18.000Z</time>
      </trkpt>
      <trkpt lat="43.40643969364464" lon="-6.184297995641828">
        <ele>91.6</ele>
        <time>2017-08-03T08:51:23.000Z</time>
      </trkpt>
      <trkpt lat="43.40643214993179" lon="-6.184313083067536">
        <ele>91.6</ele>
        <time>2017-08-03T08:51:24.000Z</time>
      </trkpt>
      <trkpt lat="43.40637699700892" lon="-6.184392040595412">
        <ele>91.6</ele>
        <time>2017-08-03T08:51:30.000Z</time>
      </trkpt>
      <trkpt lat="43.40631186962128" lon="-6.184476530179381">
        <ele>91.8</ele>
        <time>2017-08-03T08:51:37.000Z</time>
      </trkpt>
      <trkpt lat="43.406239030882716" lon="-6.184597900137305">
        <ele>92</ele>
        <time>2017-08-03T08:51:46.000Z</time>
      </trkpt>
      <trkpt lat="43.406197372823954" lon="-6.18470854125917">
        <ele>91.8</ele>
        <time>2017-08-03T08:51:54.000Z</time>
      </trkpt>
      <trkpt lat="43.40619125403464" lon="-6.184716252610087">
        <ele>92</ele>
        <time>2017-08-03T08:51:55.000Z</time>
      </trkpt>
      <trkpt lat="43.40614574030042" lon="-6.184771321713924">
        <ele>92.2</ele>
        <time>2017-08-03T08:52:01.000Z</time>
      </trkpt>
      <trkpt lat="43.40607809834182" lon="-6.18480627425015">
        <ele>92.8</ele>
        <time>2017-08-03T08:52:08.000Z</time>
      </trkpt>
      <trkpt lat="43.40599654242396" lon="-6.184847010299563">
        <ele>93.4</ele>
        <time>2017-08-03T08:52:16.000Z</time>
      </trkpt>
      <trkpt lat="43.40592144057155" lon="-6.184880118817091">
        <ele>94.6</ele>
        <time>2017-08-03T08:52:23.000Z</time>
      </trkpt>
      <trkpt lat="43.405890930444" lon="-6.184891853481531">
        <ele>95</ele>
        <time>2017-08-03T08:52:26.000Z</time>
      </trkpt>
      <trkpt lat="43.40583896264434" lon="-6.184908449649811">
        <ele>95.8</ele>
        <time>2017-08-03T08:52:31.000Z</time>
      </trkpt>
      <trkpt lat="43.40578079223633" lon="-6.184931667521596">
        <ele>96.6</ele>
        <time>2017-08-03T08:52:37.000Z</time>
      </trkpt>
      <trkpt lat="43.405724884942174" lon="-6.1849583219736814">
        <ele>97.6</ele>
        <time>2017-08-03T08:52:44.000Z</time>
      </trkpt>
      <trkpt lat="43.405675515532494" lon="-6.184988832101226">
        <ele>98.2</ele>
        <time>2017-08-03T08:52:51.000Z</time>
      </trkpt>
      <trkpt lat="43.405593540519476" lon="-6.185036106035113">
        <ele>99.4</ele>
        <time>2017-08-03T08:52:59.000Z</time>
      </trkpt>
      <trkpt lat="43.40551399625838" lon="-6.185098048299551">
        <ele>100.4</ele>
        <time>2017-08-03T08:53:08.000Z</time>
      </trkpt>
      <trkpt lat="43.40549656189978" lon="-6.185115985572338">
        <ele>100.6</ele>
        <time>2017-08-03T08:53:14.000Z</time>
      </trkpt>
      <trkpt lat="43.40546563267708" lon="-6.1851379461586475">
        <ele>101</ele>
        <time>2017-08-03T08:53:17.000Z</time>
      </trkpt>
      <trkpt lat="43.40544526465237" lon="-6.1851544585078955">
        <ele>101.2</ele>
        <time>2017-08-03T08:53:19.000Z</time>
      </trkpt>
      <trkpt lat="43.40543537400663" lon="-6.185181783512235">
        <ele>101.2</ele>
        <time>2017-08-03T08:53:21.000Z</time>
      </trkpt>
      <trkpt lat="43.4054281655699" lon="-6.185191506519914">
        <ele>101.4</ele>
        <time>2017-08-03T08:53:22.000Z</time>
      </trkpt>
      <trkpt lat="43.405420957133174" lon="-6.185201900079846">
        <ele>101.4</ele>
        <time>2017-08-03T08:53:23.000Z</time>
      </trkpt>
      <trkpt lat="43.40539983473718" lon="-6.1852319072932005">
        <ele>101.6</ele>
        <time>2017-08-03T08:53:26.000Z</time>
      </trkpt>
      <trkpt lat="43.40537142008543" lon="-6.185266692191362">
        <ele>102</ele>
        <time>2017-08-03T08:53:29.000Z</time>
      </trkpt>
      <trkpt lat="43.405325738713145" lon="-6.1853155586868525">
        <ele>102.4</ele>
        <time>2017-08-03T08:53:34.000Z</time>
      </trkpt>
      <trkpt lat="43.40529874898493" lon="-6.185342716053128">
        <ele>102.8</ele>
        <time>2017-08-03T08:53:37.000Z</time>
      </trkpt>
      <trkpt lat="43.405282236635685" lon="-6.185361072421074">
        <ele>103</ele>
        <time>2017-08-03T08:53:39.000Z</time>
      </trkpt>
      <trkpt lat="43.405203782022" lon="-6.185423685237765">
        <ele>104</ele>
        <time>2017-08-03T08:53:47.000Z</time>
      </trkpt>
      <trkpt lat="43.40515349060297" lon="-6.18547816760838">
        <ele>104.6</ele>
        <time>2017-08-03T08:53:53.000Z</time>
      </trkpt>
      <trkpt lat="43.405109820887446" lon="-6.185596017166972">
        <ele>104.8</ele>
        <time>2017-08-03T08:54:00.000Z</time>
      </trkpt>
      <trkpt lat="43.40506992302835" lon="-6.185708334669471">
        <ele>104.2</ele>
        <time>2017-08-03T08:54:08.000Z</time>
      </trkpt>
      <trkpt lat="43.40503220446408" lon="-6.1858356557786465">
        <ele>103.6</ele>
        <time>2017-08-03T08:54:16.000Z</time>
      </trkpt>
      <trkpt lat="43.40497604571283" lon="-6.1859263479709625">
        <ele>103.6</ele>
        <time>2017-08-03T08:54:23.000Z</time>
      </trkpt>
      <trkpt lat="43.40487688779831" lon="-6.186055680736899">
        <ele>103.8</ele>
        <time>2017-08-03T08:54:33.000Z</time>
      </trkpt>
      <trkpt lat="43.40480078011751" lon="-6.186181744560599">
        <ele>103.6</ele>
        <time>2017-08-03T08:54:42.000Z</time>
      </trkpt>
      <trkpt lat="43.404750153422356" lon="-6.186336474493146">
        <ele>102.8</ele>
        <time>2017-08-03T08:54:52.000Z</time>
      </trkpt>
      <trkpt lat="43.40474638156593" lon="-6.18637427687645">
        <ele>102.6</ele>
        <time>2017-08-03T08:54:54.000Z</time>
      </trkpt>
      <trkpt lat="43.40474110096693" lon="-6.186448540538549">
        <ele>101.8</ele>
        <time>2017-08-03T08:54:58.000Z</time>
      </trkpt>
      <trkpt lat="43.40472098439932" lon="-6.186605030670762">
        <ele>101</ele>
        <time>2017-08-03T08:55:07.000Z</time>
      </trkpt>
      <trkpt lat="43.404700700193644" lon="-6.18677007034421">
        <ele>100.2</ele>
        <time>2017-08-03T08:55:17.000Z</time>
      </trkpt>
      <trkpt lat="43.404677817597985" lon="-6.186922704800963">
        <ele>99.4</ele>
        <time>2017-08-03T08:55:26.000Z</time>
      </trkpt>
      <trkpt lat="43.40463750064373" lon="-6.187089923769236">
        <ele>99.4</ele>
        <time>2017-08-03T08:55:36.000Z</time>
      </trkpt>
      <trkpt lat="43.40458620339632" lon="-6.187194529920816">
        <ele>99.6</ele>
        <time>2017-08-03T08:55:43.000Z</time>
      </trkpt>
      <trkpt lat="43.40447246097028" lon="-6.187273487448692">
        <ele>100.6</ele>
        <time>2017-08-03T08:55:53.000Z</time>
      </trkpt>
      <trkpt lat="43.40437640435994" lon="-6.187332663685083">
        <ele>101.2</ele>
        <time>2017-08-03T08:56:01.000Z</time>
      </trkpt>
      <trkpt lat="43.40428956784308" lon="-6.187430145218968">
        <ele>101.6</ele>
        <time>2017-08-03T08:56:10.000Z</time>
      </trkpt>
      <trkpt lat="43.404223350808024" lon="-6.187576409429312">
        <ele>101.4</ele>
        <time>2017-08-03T08:56:20.000Z</time>
      </trkpt>
      <trkpt lat="43.40416803024709" lon="-6.187726948410273">
        <ele>101.2</ele>
        <time>2017-08-03T08:56:30.000Z</time>
      </trkpt>
      <trkpt lat="43.404137939214706" lon="-6.187864495441318">
        <ele>101</ele>
        <time>2017-08-03T08:56:39.000Z</time>
      </trkpt>
      <trkpt lat="43.40411656536162" lon="-6.188002377748489">
        <ele>100.4</ele>
        <time>2017-08-03T08:56:47.000Z</time>
      </trkpt>
      <trkpt lat="43.404113380238414" lon="-6.188059123232961">
        <ele>100.2</ele>
        <time>2017-08-03T08:56:51.000Z</time>
      </trkpt>
      <trkpt lat="43.404082115739584" lon="-6.188202453777194">
        <ele>100.2</ele>
        <time>2017-08-03T08:56:59.000Z</time>
      </trkpt>
      <trkpt lat="43.40404196642339" lon="-6.188330193981528">
        <ele>100.6</ele>
        <time>2017-08-03T08:57:06.000Z</time>
      </trkpt>
      <trkpt lat="43.40396367944777" lon="-6.188488947227597">
        <ele>101.4</ele>
        <time>2017-08-03T08:57:16.000Z</time>
      </trkpt>
      <trkpt lat="43.4038723167032" lon="-6.188628003001213">
        <ele>102.2</ele>
        <time>2017-08-03T08:57:26.000Z</time>
      </trkpt>
      <trkpt lat="43.40379218570888" lon="-6.188753983005881">
        <ele>103</ele>
        <time>2017-08-03T08:57:35.000Z</time>
      </trkpt>
      <trkpt lat="43.40370618738234" lon="-6.1888982355594635">
        <ele>103.8</ele>
        <time>2017-08-03T08:57:45.000Z</time>
      </trkpt>
      <trkpt lat="43.40366662479937" lon="-6.1890077870339155">
        <ele>104.6</ele>
        <time>2017-08-03T08:57:52.000Z</time>
      </trkpt>
      <trkpt lat="43.40365539304912" lon="-6.189152123406529">
        <ele>105.4</ele>
        <time>2017-08-03T08:58:00.000Z</time>
      </trkpt>
      <trkpt lat="43.40367794036865" lon="-6.189334765076637">
        <ele>106</ele>
        <time>2017-08-03T08:58:11.000Z</time>
      </trkpt>
      <trkpt lat="43.40369093231857" lon="-6.189528303220868">
        <ele>106.8</ele>
        <time>2017-08-03T08:58:22.000Z</time>
      </trkpt>
      <trkpt lat="43.40369923040271" lon="-6.189678255468607">
        <ele>106.8</ele>
        <time>2017-08-03T08:58:31.000Z</time>
      </trkpt>
      <trkpt lat="43.403706941753626" lon="-6.189814209938049">
        <ele>106.8</ele>
        <time>2017-08-03T08:58:39.000Z</time>
      </trkpt>
      <trkpt lat="43.40370761230588" lon="-6.189966844394803">
        <ele>108.2</ele>
        <time>2017-08-03T08:58:48.000Z</time>
      </trkpt>
      <trkpt lat="43.40370434336364" lon="-6.190110677853227">
        <ele>109.8</ele>
        <time>2017-08-03T08:58:57.000Z</time>
      </trkpt>
      <trkpt lat="43.403700990602374" lon="-6.190177816897631">
        <ele>110.4</ele>
        <time>2017-08-03T08:59:01.000Z</time>
      </trkpt>
      <trkpt lat="43.4036978892982" lon="-6.190211595967412">
        <ele>110.8</ele>
        <time>2017-08-03T08:59:03.000Z</time>
      </trkpt>
      <trkpt lat="43.403683472424746" lon="-6.190359117463231">
        <ele>112.4</ele>
        <time>2017-08-03T08:59:12.000Z</time>
      </trkpt>
      <trkpt lat="43.403663858771324" lon="-6.190492222085595">
        <ele>113.6</ele>
        <time>2017-08-03T08:59:20.000Z</time>
      </trkpt>
      <trkpt lat="43.40363787487149" lon="-6.190626583993435">
        <ele>114.4</ele>
        <time>2017-08-03T08:59:28.000Z</time>
      </trkpt>
      <trkpt lat="43.40362697839737" lon="-6.190741080790758">
        <ele>114.8</ele>
        <time>2017-08-03T08:59:35.000Z</time>
      </trkpt>
      <trkpt lat="43.40362689457834" lon="-6.190853649750352">
        <ele>114.8</ele>
        <time>2017-08-03T08:59:42.000Z</time>
      </trkpt>
      <trkpt lat="43.40363862924278" lon="-6.19089555926621">
        <ele>114.6</ele>
        <time>2017-08-03T08:59:45.000Z</time>
      </trkpt>
      <trkpt lat="43.403654135763645" lon="-6.190936211496592">
        <ele>114.4</ele>
        <time>2017-08-03T08:59:48.000Z</time>
      </trkpt>
      <trkpt lat="43.4036598354578" lon="-6.190973510965705">
        <ele>114.2</ele>
        <time>2017-08-03T08:59:51.000Z</time>
      </trkpt>
      <trkpt lat="43.403651705011725" lon="-6.191037716343999">
        <ele>114.4</ele>
        <time>2017-08-03T08:59:55.000Z</time>
      </trkpt>
      <trkpt lat="43.40364784933627" lon="-6.191095719113946">
        <ele>114.6</ele>
        <time>2017-08-03T08:59:59.000Z</time>
      </trkpt>
      <trkpt lat="43.40364365838468" lon="-6.191126313060522">
        <ele>114.8</ele>
        <time>2017-08-03T09:00:01.000Z</time>
      </trkpt>
      <trkpt lat="43.403641479089856" lon="-6.191206695511937">
        <ele>115</ele>
        <time>2017-08-03T09:00:06.000Z</time>
      </trkpt>
      <trkpt lat="43.403631672263145" lon="-6.191252460703254">
        <ele>115.2</ele>
        <time>2017-08-03T09:00:09.000Z</time>
      </trkpt>
      <trkpt lat="43.403616081923246" lon="-6.191287497058511">
        <ele>115.6</ele>
        <time>2017-08-03T09:00:11.000Z</time>
      </trkpt>
      <trkpt lat="43.40359512716532" lon="-6.191332507878542">
        <ele>116.2</ele>
        <time>2017-08-03T09:00:14.000Z</time>
      </trkpt>
      <trkpt lat="43.40358607470989" lon="-6.1913891695439816">
        <ele>116.6</ele>
        <time>2017-08-03T09:00:18.000Z</time>
      </trkpt>
      <trkpt lat="43.403565622866154" lon="-6.191467791795731">
        <ele>117.2</ele>
        <time>2017-08-03T09:00:24.000Z</time>
      </trkpt>
      <trkpt lat="43.403546093031764" lon="-6.191513054072857">
        <ele>117.2</ele>
        <time>2017-08-03T09:00:27.000Z</time>
      </trkpt>
      <trkpt lat="43.40352991595864" lon="-6.191559238359332">
        <ele>117</ele>
        <time>2017-08-03T09:00:30.000Z</time>
      </trkpt>
      <trkpt lat="43.403502590954304" lon="-6.191634172573686">
        <ele>116.8</ele>
        <time>2017-08-03T09:00:35.000Z</time>
      </trkpt>
      <trkpt lat="43.40347928926349" lon="-6.191689660772681">
        <ele>116.8</ele>
        <time>2017-08-03T09:00:39.000Z</time>
      </trkpt>
      <trkpt lat="43.403465962037444" lon="-6.191715896129608">
        <ele>116.8</ele>
        <time>2017-08-03T09:00:41.000Z</time>
      </trkpt>
      <trkpt lat="43.40340661816299" lon="-6.191799463704228">
        <ele>117.2</ele>
        <time>2017-08-03T09:00:47.000Z</time>
      </trkpt>
      <trkpt lat="43.403365798294544" lon="-6.191869284957647">
        <ele>117.4</ele>
        <time>2017-08-03T09:00:53.000Z</time>
      </trkpt>
      <trkpt lat="43.403313579037786" lon="-6.191917480900884">
        <ele>118</ele>
        <time>2017-08-03T09:00:58.000Z</time>
      </trkpt>
      <trkpt lat="43.40329312719405" lon="-6.191944302991033">
        <ele>118.2</ele>
        <time>2017-08-03T09:01:01.000Z</time>
      </trkpt>
      <trkpt lat="43.40327871032059" lon="-6.191959977149963">
        <ele>118.2</ele>
        <time>2017-08-03T09:01:03.000Z</time>
      </trkpt>
      <trkpt lat="43.40322867035866" lon="-6.1920038145035505">
        <ele>118.8</ele>
        <time>2017-08-03T09:01:08.000Z</time>
      </trkpt>
      <trkpt lat="43.403159184381366" lon="-6.192077994346619">
        <ele>119.6</ele>
        <time>2017-08-03T09:01:15.000Z</time>
      </trkpt>
      <trkpt lat="43.403105875477195" lon="-6.192150078713894">
        <ele>120</ele>
        <time>2017-08-03T09:01:21.000Z</time>
      </trkpt>
      <trkpt lat="43.403026247397065" lon="-6.192261390388012">
        <ele>120.6</ele>
        <time>2017-08-03T09:01:30.000Z</time>
      </trkpt>
      <trkpt lat="43.40302029624581" lon="-6.192265246063471">
        <ele>120.6</ele>
        <time>2017-08-03T09:01:31.000Z</time>
      </trkpt>
      <trkpt lat="43.40299749746919" lon="-6.192314280197024">
        <ele>120.6</ele>
        <time>2017-08-03T09:01:36.000Z</time>
      </trkpt>
      <trkpt lat="43.40296598151326" lon="-6.192388124763966">
        <ele>120.4</ele>
        <time>2017-08-03T09:01:42.000Z</time>
      </trkpt>
      <trkpt lat="43.40296204201877" lon="-6.1924022901803255">
        <ele>120.4</ele>
        <time>2017-08-03T09:01:43.000Z</time>
      </trkpt>
      <trkpt lat="43.40294527821243" lon="-6.19250413030386">
        <ele>119.6</ele>
        <time>2017-08-03T09:01:49.000Z</time>
      </trkpt>
      <trkpt lat="43.40294452384114" lon="-6.1925318744033575">
        <ele>119.4</ele>
        <time>2017-08-03T09:01:51.000Z</time>
      </trkpt>
      <trkpt lat="43.40294242836535" lon="-6.192589038982987">
        <ele>118.8</ele>
        <time>2017-08-03T09:01:55.000Z</time>
      </trkpt>
      <trkpt lat="43.40293982997537" lon="-6.192602785304189">
        <ele>118.6</ele>
        <time>2017-08-03T09:01:56.000Z</time>
      </trkpt>
      <trkpt lat="43.40292474254966" lon="-6.192612256854773">
        <ele>118.8</ele>
        <time>2017-08-03T09:02:00.000Z</time>
      </trkpt>
      <trkpt lat="43.402952402830124" lon="-6.192603120580316">
        <ele>118.4</ele>
        <time>2017-08-03T09:02:08.000Z</time>
      </trkpt>
      <trkpt lat="43.40293999761343" lon="-6.192624159157276">
        <ele>118.4</ele>
        <time>2017-08-03T09:02:24.000Z</time>
      </trkpt>
      <trkpt lat="43.40293597429991" lon="-6.192603539675474">
        <ele>118.8</ele>
        <time>2017-08-03T09:02:29.000Z</time>
      </trkpt>
      <trkpt lat="43.40291954576969" lon="-6.192644778639078">
        <ele>118.6</ele>
        <time>2017-08-03T09:02:40.000Z</time>
      </trkpt>
      <trkpt lat="43.402923569083214" lon="-6.192649221047759">
        <ele>118.4</ele>
        <time>2017-08-03T09:02:44.000Z</time>
      </trkpt>
      <trkpt lat="43.40290613472462" lon="-6.192623153328896">
        <ele>119.2</ele>
        <time>2017-08-03T09:02:47.000Z</time>
      </trkpt>
      <trkpt lat="43.40291954576969" lon="-6.192580489441752">
        <ele>119.2</ele>
        <time>2017-08-03T09:02:50.000Z</time>
      </trkpt>
      <trkpt lat="43.40292373672128" lon="-6.192523995414376">
        <ele>119.8</ele>
        <time>2017-08-03T09:02:54.000Z</time>
      </trkpt>
      <trkpt lat="43.40293228626251" lon="-6.1925203911960125">
        <ele>119.6</ele>
        <time>2017-08-03T09:02:55.000Z</time>
      </trkpt>
      <trkpt lat="43.40294544585049" lon="-6.192512093111873">
        <ele>119.4</ele>
        <time>2017-08-03T09:02:56.000Z</time>
      </trkpt>
      <trkpt lat="43.40297260321677" lon="-6.192466579377651">
        <ele>119.4</ele>
        <time>2017-08-03T09:02:59.000Z</time>
      </trkpt>
      <trkpt lat="43.4029933065176" lon="-6.192422406747937">
        <ele>119.4</ele>
        <time>2017-08-03T09:03:02.000Z</time>
      </trkpt>
      <trkpt lat="43.40301367454231" lon="-6.1923769768327475">
        <ele>119.6</ele>
        <time>2017-08-03T09:03:05.000Z</time>
      </trkpt>
      <trkpt lat="43.40302012860775" lon="-6.192362727597356">
        <ele>119.6</ele>
        <time>2017-08-03T09:03:06.000Z</time>
      </trkpt>
      <trkpt lat="43.40306312777102" lon="-6.192284021526575">
        <ele>119.6</ele>
        <time>2017-08-03T09:03:12.000Z</time>
      </trkpt>
      <trkpt lat="43.40307494625449" lon="-6.192272873595357">
        <ele>119.4</ele>
        <time>2017-08-03T09:03:13.000Z</time>
      </trkpt>
      <trkpt lat="43.40311727486551" lon="-6.192218475043774">
        <ele>119</ele>
        <time>2017-08-03T09:03:17.000Z</time>
      </trkpt>
      <trkpt lat="43.40317242778838" lon="-6.192137924954295">
        <ele>118.8</ele>
        <time>2017-08-03T09:03:24.000Z</time>
      </trkpt>
      <trkpt lat="43.40320109389722" lon="-6.192113449797034">
        <ele>118.4</ele>
        <time>2017-08-03T09:03:30.000Z</time>
      </trkpt>
      <trkpt lat="43.4032784588635" lon="-6.192056788131595">
        <ele>117.4</ele>
        <time>2017-08-03T09:03:37.000Z</time>
      </trkpt>
      <trkpt lat="43.40334568172693" lon="-6.19199157692492">
        <ele>116.6</ele>
        <time>2017-08-03T09:03:43.000Z</time>
      </trkpt>
      <trkpt lat="43.40339429676533" lon="-6.191944219172001">
        <ele>116</ele>
        <time>2017-08-03T09:03:48.000Z</time>
      </trkpt>
      <trkpt lat="43.40340997092426" lon="-6.19192217476666">
        <ele>116</ele>
        <time>2017-08-03T09:03:50.000Z</time>
      </trkpt>
      <trkpt lat="43.4034372959286" lon="-6.1918748170137405">
        <ele>115.8</ele>
        <time>2017-08-03T09:03:53.000Z</time>
      </trkpt>
      <trkpt lat="43.40346277691424" lon="-6.191846318542957">
        <ele>115.6</ele>
        <time>2017-08-03T09:03:55.000Z</time>
      </trkpt>
      <trkpt lat="43.4034854080528" lon="-6.19181958027184">
        <ele>115.4</ele>
        <time>2017-08-03T09:03:57.000Z</time>
      </trkpt>
      <trkpt lat="43.403503093868494" lon="-6.191793931648135">
        <ele>115.4</ele>
        <time>2017-08-03T09:03:59.000Z</time>
      </trkpt>
      <trkpt lat="43.40351080521941" lon="-6.191766271367669">
        <ele>115.4</ele>
        <time>2017-08-03T09:04:01.000Z</time>
      </trkpt>
      <trkpt lat="43.40355958789587" lon="-6.191655294969678">
        <ele>115.6</ele>
        <time>2017-08-03T09:04:08.000Z</time>
      </trkpt>
      <trkpt lat="43.40359831228852" lon="-6.191522777080536">
        <ele>116</ele>
        <time>2017-08-03T09:04:16.000Z</time>
      </trkpt>
      <trkpt lat="43.40361532755196" lon="-6.191417584195733">
        <ele>116.2</ele>
        <time>2017-08-03T09:04:22.000Z</time>
      </trkpt>
      <trkpt lat="43.40362396091223" lon="-6.191305266693234">
        <ele>115.4</ele>
        <time>2017-08-03T09:04:28.000Z</time>
      </trkpt>
      <trkpt lat="43.4036307502538" lon="-6.191158331930637">
        <ele>115.2</ele>
        <time>2017-08-03T09:04:36.000Z</time>
      </trkpt>
      <trkpt lat="43.403651202097535" lon="-6.191115919500589">
        <ele>114.6</ele>
        <time>2017-08-03T09:04:40.000Z</time>
      </trkpt>
      <trkpt lat="43.403665870428085" lon="-6.1911332700401545">
        <ele>114.2</ele>
        <time>2017-08-03T09:04:42.000Z</time>
      </trkpt>
      <trkpt lat="43.40367928147316" lon="-6.191175431013107">
        <ele>114</ele>
        <time>2017-08-03T09:04:45.000Z</time>
      </trkpt>
      <trkpt lat="43.403697554022074" lon="-6.191240809857845">
        <ele>113.6</ele>
        <time>2017-08-03T09:04:50.000Z</time>
      </trkpt>
      <trkpt lat="43.403735272586346" lon="-6.191340386867523">
        <ele>113.6</ele>
        <time>2017-08-03T09:04:57.000Z</time>
      </trkpt>
      <trkpt lat="43.40377173386514" lon="-6.191438790410757">
        <ele>113.4</ele>
        <time>2017-08-03T09:05:04.000Z</time>
      </trkpt>
      <trkpt lat="43.40378095395863" lon="-6.191462427377701">
        <ele>113.2</ele>
        <time>2017-08-03T09:05:06.000Z</time>
      </trkpt>
      <trkpt lat="43.403809452429414" lon="-6.191513389348984">
        <ele>112.2</ele>
        <time>2017-08-03T09:05:10.000Z</time>
      </trkpt>
      <trkpt lat="43.40385194867849" lon="-6.191619336605072">
        <ele>110.2</ele>
        <time>2017-08-03T09:05:18.000Z</time>
      </trkpt>
      <trkpt lat="43.40385756455362" lon="-6.1916321609169245">
        <ele>110</ele>
        <time>2017-08-03T09:05:19.000Z</time>
      </trkpt>
      <trkpt lat="43.403895953670144" lon="-6.191707933321595">
        <ele>108.6</ele>
        <time>2017-08-03T09:05:24.000Z</time>
      </trkpt>
      <trkpt lat="43.40390601195395" lon="-6.191737856715918">
        <ele>108.2</ele>
        <time>2017-08-03T09:05:26.000Z</time>
      </trkpt>
      <trkpt lat="43.40393819846213" lon="-6.191822262480855">
        <ele>106.6</ele>
        <time>2017-08-03T09:05:31.000Z</time>
      </trkpt>
      <trkpt lat="43.40397055260837" lon="-6.191900884732604">
        <ele>106.4</ele>
        <time>2017-08-03T09:05:36.000Z</time>
      </trkpt>
      <trkpt lat="43.40401145629585" lon="-6.192008759826422">
        <ele>106</ele>
        <time>2017-08-03T09:05:44.000Z</time>
      </trkpt>
      <trkpt lat="43.40409133583307" lon="-6.192129207774997">
        <ele>105.2</ele>
        <time>2017-08-03T09:05:53.000Z</time>
      </trkpt>
      <trkpt lat="43.404163336381316" lon="-6.192266335710883">
        <ele>104.4</ele>
        <time>2017-08-03T09:06:02.000Z</time>
      </trkpt>
      <trkpt lat="43.40421387925744" lon="-6.1923932377249">
        <ele>104</ele>
        <time>2017-08-03T09:06:10.000Z</time>
      </trkpt>
      <trkpt lat="43.404246401041746" lon="-6.192554756999016">
        <ele>103.6</ele>
        <time>2017-08-03T09:06:20.000Z</time>
      </trkpt>
      <trkpt lat="43.40426458977163" lon="-6.192690879106522">
        <ele>103.6</ele>
        <time>2017-08-03T09:06:28.000Z</time>
      </trkpt>
      <trkpt lat="43.4042782522738" lon="-6.192814260721207">
        <ele>103.4</ele>
        <time>2017-08-03T09:06:35.000Z</time>
      </trkpt>
      <trkpt lat="43.40425872243941" lon="-6.1929400730878115">
        <ele>103.6</ele>
        <time>2017-08-03T09:06:43.000Z</time>
      </trkpt>
      <trkpt lat="43.40420843102038" lon="-6.19307585991919">
        <ele>104</ele>
        <time>2017-08-03T09:06:52.000Z</time>
      </trkpt>
      <trkpt lat="43.40419317595661" lon="-6.193150542676449">
        <ele>104.6</ele>
        <time>2017-08-03T09:06:58.000Z</time>
      </trkpt>
      <trkpt lat="43.404189152643085" lon="-6.193155739456415">
        <ele>104.8</ele>
        <time>2017-08-03T09:06:59.000Z</time>
      </trkpt>
      <trkpt lat="43.40417616069317" lon="-6.193218352273107">
        <ele>105.8</ele>
        <time>2017-08-03T09:07:03.000Z</time>
      </trkpt>
      <trkpt lat="43.40416878461838" lon="-6.193346511572599">
        <ele>107.2</ele>
        <time>2017-08-03T09:07:11.000Z</time>
      </trkpt>
      <trkpt lat="43.404164677485824" lon="-6.193471737205982">
        <ele>108.4</ele>
        <time>2017-08-03T09:07:19.000Z</time>
      </trkpt>
      <trkpt lat="43.40417029336095" lon="-6.1935983039438725">
        <ele>109.6</ele>
        <time>2017-08-03T09:07:27.000Z</time>
      </trkpt>
      <trkpt lat="43.40417297556996" lon="-6.193661084398627">
        <ele>110.2</ele>
        <time>2017-08-03T09:07:32.000Z</time>
      </trkpt>
      <trkpt lat="43.40417481958866" lon="-6.193659659475088">
        <ele>110.2</ele>
        <time>2017-08-03T09:07:33.000Z</time>
      </trkpt>
      <trkpt lat="43.40417758561671" lon="-6.193705927580595">
        <ele>110.6</ele>
        <time>2017-08-03T09:07:39.000Z</time>
      </trkpt>
      <trkpt lat="43.40418797917664" lon="-6.193734090775251">
        <ele>110.6</ele>
        <time>2017-08-03T09:07:41.000Z</time>
      </trkpt>
      <trkpt lat="43.40422217734158" lon="-6.193799469619989">
        <ele>110.8</ele>
        <time>2017-08-03T09:07:46.000Z</time>
      </trkpt>
      <trkpt lat="43.40423986315727" lon="-6.193835427984595">
        <ele>111</ele>
        <time>2017-08-03T09:07:48.000Z</time>
      </trkpt>
      <trkpt lat="43.40429610572755" lon="-6.19394707493484">
        <ele>111.2</ele>
        <time>2017-08-03T09:07:55.000Z</time>
      </trkpt>
      <trkpt lat="43.40435603633523" lon="-6.194095769897103">
        <ele>111.4</ele>
        <time>2017-08-03T09:08:04.000Z</time>
      </trkpt>
      <trkpt lat="43.40441160835326" lon="-6.194251589477062">
        <ele>111.8</ele>
        <time>2017-08-03T09:08:13.000Z</time>
      </trkpt>
      <trkpt lat="43.40447053313255" lon="-6.194452000781894">
        <ele>112.2</ele>
        <time>2017-08-03T09:08:24.000Z</time>
      </trkpt>
      <trkpt lat="43.40451529249549" lon="-6.19458619505167">
        <ele>112.6</ele>
        <time>2017-08-03T09:08:32.000Z</time>
      </trkpt>
      <trkpt lat="43.40456759557128" lon="-6.194735057651997">
        <ele>112.2</ele>
        <time>2017-08-03T09:08:41.000Z</time>
      </trkpt>
      <trkpt lat="43.404604056850076" lon="-6.194880483672023">
        <ele>111.2</ele>
        <time>2017-08-03T09:08:49.000Z</time>
      </trkpt>
      <trkpt lat="43.40460774488747" lon="-6.195024820044637">
        <ele>110.4</ele>
        <time>2017-08-03T09:08:57.000Z</time>
      </trkpt>
      <trkpt lat="43.40458779595792" lon="-6.195175023749471">
        <ele>109.8</ele>
        <time>2017-08-03T09:09:05.000Z</time>
      </trkpt>
      <trkpt lat="43.40454261749983" lon="-6.195334363728762">
        <ele>109.6</ele>
        <time>2017-08-03T09:09:14.000Z</time>
      </trkpt>
      <trkpt lat="43.40452468022704" lon="-6.195461433380842">
        <ele>109.6</ele>
        <time>2017-08-03T09:09:21.000Z</time>
      </trkpt>
      <trkpt lat="43.40450313873589" lon="-6.195549946278334">
        <ele>110</ele>
        <time>2017-08-03T09:09:26.000Z</time>
      </trkpt>
      <trkpt lat="43.40450012125075" lon="-6.195599650964141">
        <ele>110.2</ele>
        <time>2017-08-03T09:09:29.000Z</time>
      </trkpt>
      <trkpt lat="43.40450255200267" lon="-6.1956351064145565">
        <ele>110.2</ele>
        <time>2017-08-03T09:09:31.000Z</time>
      </trkpt>
      <trkpt lat="43.40450699441135" lon="-6.195667460560799">
        <ele>110.2</ele>
        <time>2017-08-03T09:09:33.000Z</time>
      </trkpt>
      <trkpt lat="43.40451420284808" lon="-6.195765109732747">
        <ele>110</ele>
        <time>2017-08-03T09:09:39.000Z</time>
      </trkpt>
      <trkpt lat="43.4045235067606" lon="-6.195855969563127">
        <ele>109.8</ele>
        <time>2017-08-03T09:09:45.000Z</time>
      </trkpt>
      <trkpt lat="43.40453138574958" lon="-6.19589083828032">
        <ele>109.6</ele>
        <time>2017-08-03T09:09:47.000Z</time>
      </trkpt>
      <trkpt lat="43.404550747945905" lon="-6.195938782766461">
        <ele>109.4</ele>
        <time>2017-08-03T09:09:50.000Z</time>
      </trkpt>
      <trkpt lat="43.40459450148046" lon="-6.1960371024906635">
        <ele>108.8</ele>
        <time>2017-08-03T09:09:56.000Z</time>
      </trkpt>
      <trkpt lat="43.40464470908046" lon="-6.196171883493662">
        <ele>108.2</ele>
        <time>2017-08-03T09:10:04.000Z</time>
      </trkpt>
      <trkpt lat="43.40469466522336" lon="-6.196314627304673">
        <ele>107.8</ele>
        <time>2017-08-03T09:10:13.000Z</time>
      </trkpt>
      <trkpt lat="43.40472240932286" lon="-6.196432812139392">
        <ele>107.6</ele>
        <time>2017-08-03T09:10:20.000Z</time>
      </trkpt>
      <trkpt lat="43.404727606102824" lon="-6.1965519189834595">
        <ele>108</ele>
        <time>2017-08-03T09:10:27.000Z</time>
      </trkpt>
      <trkpt lat="43.40473162941635" lon="-6.1966711934655905">
        <ele>108.4</ele>
        <time>2017-08-03T09:10:35.000Z</time>
      </trkpt>
      <trkpt lat="43.40472802519798" lon="-6.196772865951061">
        <ele>108.8</ele>
        <time>2017-08-03T09:10:42.000Z</time>
      </trkpt>
      <trkpt lat="43.404727103188634" lon="-6.196770183742046">
        <ele>108.8</ele>
        <time>2017-08-03T09:10:43.000Z</time>
      </trkpt>
      <trkpt lat="43.404708579182625" lon="-6.1968192178756">
        <ele>109</ele>
        <time>2017-08-03T09:11:00.000Z</time>
      </trkpt>
      <trkpt lat="43.404694413766265" lon="-6.196919130161405">
        <ele>109.6</ele>
        <time>2017-08-03T09:11:07.000Z</time>
      </trkpt>
      <trkpt lat="43.404665580019355" lon="-6.197040835395455">
        <ele>110</ele>
        <time>2017-08-03T09:11:15.000Z</time>
      </trkpt>
      <trkpt lat="43.404644122347236" lon="-6.197144519537687">
        <ele>110.6</ele>
        <time>2017-08-03T09:11:22.000Z</time>
      </trkpt>
      <trkpt lat="43.404627442359924" lon="-6.197242420166731">
        <ele>111</ele>
        <time>2017-08-03T09:11:28.000Z</time>
      </trkpt>
      <trkpt lat="43.40459735132754" lon="-6.197376195341349">
        <ele>112.6</ele>
        <time>2017-08-03T09:11:36.000Z</time>
      </trkpt>
      <trkpt lat="43.40458972379565" lon="-6.197391450405121">
        <ele>112.8</ele>
        <time>2017-08-03T09:11:37.000Z</time>
      </trkpt>
      <trkpt lat="43.404579078778625" lon="-6.197449201717973">
        <ele>113.6</ele>
        <time>2017-08-03T09:11:41.000Z</time>
      </trkpt>
      <trkpt lat="43.404578072950244" lon="-6.197556909173727">
        <ele>115.2</ele>
        <time>2017-08-03T09:11:47.000Z</time>
      </trkpt>
      <trkpt lat="43.404584946110845" lon="-6.1976308375597">
        <ele>116</ele>
        <time>2017-08-03T09:11:51.000Z</time>
      </trkpt>
      <trkpt lat="43.4045993629843" lon="-6.197683559730649">
        <ele>116.6</ele>
        <time>2017-08-03T09:11:54.000Z</time>
      </trkpt>
      <trkpt lat="43.40465007349849" lon="-6.197792440652847">
        <ele>117.4</ele>
        <time>2017-08-03T09:12:01.000Z</time>
      </trkpt>
      <trkpt lat="43.40471771545708" lon="-6.19790643453598">
        <ele>116.2</ele>
        <time>2017-08-03T09:12:09.000Z</time>
      </trkpt>
      <trkpt lat="43.404761888086796" lon="-6.19797432795167">
        <ele>115.2</ele>
        <time>2017-08-03T09:12:14.000Z</time>
      </trkpt>
      <trkpt lat="43.40478393249214" lon="-6.197989080101252">
        <ele>114.8</ele>
        <time>2017-08-03T09:12:16.000Z</time>
      </trkpt>
      <trkpt lat="43.40480396524072" lon="-6.198016237467527">
        <ele>114.4</ele>
        <time>2017-08-03T09:12:18.000Z</time>
      </trkpt>
      <trkpt lat="43.404844366014004" lon="-6.198107600212097">
        <ele>113.6</ele>
        <time>2017-08-03T09:12:24.000Z</time>
      </trkpt>
      <trkpt lat="43.40490706264973" lon="-6.198191503062844">
        <ele>113</ele>
        <time>2017-08-03T09:12:31.000Z</time>
      </trkpt>
      <trkpt lat="43.40501384809613" lon="-6.198287811130285">
        <ele>111.8</ele>
        <time>2017-08-03T09:12:41.000Z</time>
      </trkpt>
      <trkpt lat="43.40509615838528" lon="-6.198335001245141">
        <ele>110.8</ele>
        <time>2017-08-03T09:12:48.000Z</time>
      </trkpt>
      <trkpt lat="43.405183581635356" lon="-6.198368947952986">
        <ele>110</ele>
        <time>2017-08-03T09:12:55.000Z</time>
      </trkpt>
      <trkpt lat="43.40528508648276" lon="-6.198369199410081">
        <ele>108.8</ele>
        <time>2017-08-03T09:13:03.000Z</time>
      </trkpt>
      <trkpt lat="43.405366307124496" lon="-6.198337934911251">
        <ele>107.6</ele>
        <time>2017-08-03T09:13:10.000Z</time>
      </trkpt>
      <trkpt lat="43.40550251305103" lon="-6.19830465875566">
        <ele>105.6</ele>
        <time>2017-08-03T09:13:21.000Z</time>
      </trkpt>
      <trkpt lat="43.4056010004133" lon="-6.198293846100569">
        <ele>104.4</ele>
        <time>2017-08-03T09:13:29.000Z</time>
      </trkpt>
      <trkpt lat="43.40568808838725" lon="-6.198280937969685">
        <ele>103.4</ele>
        <time>2017-08-03T09:13:37.000Z</time>
      </trkpt>
      <trkpt lat="43.40580568648875" lon="-6.198316477239132">
        <ele>102.4</ele>
        <time>2017-08-03T09:13:46.000Z</time>
      </trkpt>
      <trkpt lat="43.40588070452213" lon="-6.198362745344639">
        <ele>101.2</ele>
        <time>2017-08-03T09:13:52.000Z</time>
      </trkpt>
      <trkpt lat="43.40600232593715" lon="-6.198470368981361">
        <ele>99.6</ele>
        <time>2017-08-03T09:14:03.000Z</time>
      </trkpt>
      <trkpt lat="43.406085055321455" lon="-6.198563072830439">
        <ele>99.6</ele>
        <time>2017-08-03T09:14:11.000Z</time>
      </trkpt>
      <trkpt lat="43.40618555434048" lon="-6.198683688417077">
        <ele>99.8</ele>
        <time>2017-08-03T09:14:21.000Z</time>
      </trkpt>
      <trkpt lat="43.40627348050475" lon="-6.198795586824417">
        <ele>99.8</ele>
        <time>2017-08-03T09:14:30.000Z</time>
      </trkpt>
      <trkpt lat="43.40634489431977" lon="-6.198900444433093">
        <ele>99.6</ele>
        <time>2017-08-03T09:14:38.000Z</time>
      </trkpt>
      <trkpt lat="43.40642301365733" lon="-6.199023490771651">
        <ele>100</ele>
        <time>2017-08-03T09:14:47.000Z</time>
      </trkpt>
      <trkpt lat="43.40648730285466" lon="-6.199137484654784">
        <ele>100.4</ele>
        <time>2017-08-03T09:14:55.000Z</time>
      </trkpt>
      <trkpt lat="43.40655871666968" lon="-6.199269248172641">
        <ele>100.8</ele>
        <time>2017-08-03T09:15:04.000Z</time>
      </trkpt>
      <trkpt lat="43.40664446353912" lon="-6.199378045275807">
        <ele>100.6</ele>
        <time>2017-08-03T09:15:13.000Z</time>
      </trkpt>
      <trkpt lat="43.406733898445964" lon="-6.19939330033958">
        <ele>99.8</ele>
        <time>2017-08-03T09:15:21.000Z</time>
      </trkpt>
      <trkpt lat="43.406803803518414" lon="-6.199343930929899">
        <ele>99</ele>
        <time>2017-08-03T09:15:28.000Z</time>
      </trkpt>
      <trkpt lat="43.40689684264362" lon="-6.199290789663792">
        <ele>98.4</ele>
        <time>2017-08-03T09:15:36.000Z</time>
      </trkpt>
      <trkpt lat="43.4069739561528" lon="-6.1992506403476">
        <ele>98</ele>
        <time>2017-08-03T09:15:43.000Z</time>
      </trkpt>
      <trkpt lat="43.40704562142491" lon="-6.199215687811375">
        <ele>97.8</ele>
        <time>2017-08-03T09:15:49.000Z</time>
      </trkpt>
      <trkpt lat="43.407153664156795" lon="-6.199154332280159">
        <ele>97.2</ele>
        <time>2017-08-03T09:15:58.000Z</time>
      </trkpt>
      <trkpt lat="43.40724125504494" lon="-6.199109572917223">
        <ele>96.8</ele>
        <time>2017-08-03T09:16:05.000Z</time>
      </trkpt>
      <trkpt lat="43.407268077135086" lon="-6.199096497148275">
        <ele>96.6</ele>
        <time>2017-08-03T09:16:07.000Z</time>
      </trkpt>
      <trkpt lat="43.40735239908099" lon="-6.19905810803175">
        <ele>96.2</ele>
        <time>2017-08-03T09:16:14.000Z</time>
      </trkpt>
      <trkpt lat="43.407469326630235" lon="-6.19900681078434">
        <ele>95.8</ele>
        <time>2017-08-03T09:16:23.000Z</time>
      </trkpt>
      <trkpt lat="43.40759597718716" lon="-6.19894914329052">
        <ele>95.2</ele>
        <time>2017-08-03T09:16:33.000Z</time>
      </trkpt>
      <trkpt lat="43.407692704349756" lon="-6.19891201145947">
        <ele>95</ele>
        <time>2017-08-03T09:16:41.000Z</time>
      </trkpt>
      <trkpt lat="43.40770276263356" lon="-6.198906395584345">
        <ele>95</ele>
        <time>2017-08-03T09:16:42.000Z</time>
      </trkpt>
      <trkpt lat="43.4077734220773" lon="-6.198928691446781">
        <ele>95</ele>
        <time>2017-08-03T09:16:49.000Z</time>
      </trkpt>
      <trkpt lat="43.40778959915042" lon="-6.198978396132588">
        <ele>95</ele>
        <time>2017-08-03T09:16:52.000Z</time>
      </trkpt>
      <trkpt lat="43.40779538266361" lon="-6.199020808562636">
        <ele>95</ele>
        <time>2017-08-03T09:16:55.000Z</time>
      </trkpt>
      <trkpt lat="43.40779144316912" lon="-6.199133293703198">
        <ele>95.2</ele>
        <time>2017-08-03T09:17:02.000Z</time>
      </trkpt>
      <trkpt lat="43.40778490528464" lon="-6.199307218194008">
        <ele>95.4</ele>
        <time>2017-08-03T09:17:12.000Z</time>
      </trkpt>
      <trkpt lat="43.407776188105345" lon="-6.1994648817926645">
        <ele>95.6</ele>
        <time>2017-08-03T09:17:21.000Z</time>
      </trkpt>
      <trkpt lat="43.40776135213673" lon="-6.199635034427047">
        <ele>95.8</ele>
        <time>2017-08-03T09:17:30.000Z</time>
      </trkpt>
      <trkpt lat="43.40775204822421" lon="-6.199795547872782">
        <ele>96.2</ele>
        <time>2017-08-03T09:17:39.000Z</time>
      </trkpt>
      <trkpt lat="43.40774852782488" lon="-6.199913397431374">
        <ele>96.6</ele>
        <time>2017-08-03T09:17:46.000Z</time>
      </trkpt>
      <trkpt lat="43.40773645788431" lon="-6.200070893391967">
        <ele>97.2</ele>
        <time>2017-08-03T09:17:55.000Z</time>
      </trkpt>
      <trkpt lat="43.4077216219157" lon="-6.200238028541207">
        <ele>97.8</ele>
        <time>2017-08-03T09:18:04.000Z</time>
      </trkpt>
      <trkpt lat="43.40771047398448" lon="-6.2004179041832685">
        <ele>98.4</ele>
        <time>2017-08-03T09:18:14.000Z</time>
      </trkpt>
      <trkpt lat="43.40769438073039" lon="-6.200599288567901">
        <ele>99</ele>
        <time>2017-08-03T09:18:24.000Z</time>
      </trkpt>
      <trkpt lat="43.407680382952094" lon="-6.200777320191264">
        <ele>98.8</ele>
        <time>2017-08-03T09:18:34.000Z</time>
      </trkpt>
      <trkpt lat="43.40767350979149" lon="-6.200916292145848">
        <ele>98.6</ele>
        <time>2017-08-03T09:18:42.000Z</time>
      </trkpt>
      <trkpt lat="43.40767082758248" lon="-6.201053252443671">
        <ele>98.4</ele>
        <time>2017-08-03T09:18:50.000Z</time>
      </trkpt>
      <trkpt lat="43.407656997442245" lon="-6.20124913752079">
        <ele>98.2</ele>
        <time>2017-08-03T09:19:00.000Z</time>
      </trkpt>
      <trkpt lat="43.40765146538615" lon="-6.201421385630965">
        <ele>98</ele>
        <time>2017-08-03T09:19:09.000Z</time>
      </trkpt>
      <trkpt lat="43.40764316730201" lon="-6.2015525624156">
        <ele>98.4</ele>
        <time>2017-08-03T09:19:16.000Z</time>
      </trkpt>
      <trkpt lat="43.40762757696211" lon="-6.201783819124103">
        <ele>99.4</ele>
        <time>2017-08-03T09:19:28.000Z</time>
      </trkpt>
      <trkpt lat="43.40761240571737" lon="-6.201959168538451">
        <ele>100.2</ele>
        <time>2017-08-03T09:19:37.000Z</time>
      </trkpt>
      <trkpt lat="43.407605113461614" lon="-6.2021838035434484">
        <ele>101</ele>
        <time>2017-08-03T09:19:49.000Z</time>
      </trkpt>
      <trkpt lat="43.407599749043584" lon="-6.202334761619568">
        <ele>101.6</ele>
        <time>2017-08-03T09:19:57.000Z</time>
      </trkpt>
      <trkpt lat="43.40758189558983" lon="-6.20254791341722">
        <ele>102.6</ele>
        <time>2017-08-03T09:20:08.000Z</time>
      </trkpt>
      <trkpt lat="43.407577285543084" lon="-6.202625529840589">
        <ele>102.8</ele>
        <time>2017-08-03T09:20:12.000Z</time>
      </trkpt>
      <trkpt lat="43.40757175348699" lon="-6.202685292810202">
        <ele>103.2</ele>
        <time>2017-08-03T09:20:15.000Z</time>
      </trkpt>
      <trkpt lat="43.40756990946829" lon="-6.202703984454274">
        <ele>103.2</ele>
        <time>2017-08-03T09:20:16.000Z</time>
      </trkpt>
      <trkpt lat="43.407555408775806" lon="-6.202895594760776">
        <ele>104</ele>
        <time>2017-08-03T09:20:26.000Z</time>
      </trkpt>
      <trkpt lat="43.40753830969334" lon="-6.203093407675624">
        <ele>104.8</ele>
        <time>2017-08-03T09:20:37.000Z</time>
      </trkpt>
      <trkpt lat="43.40752464719117" lon="-6.203232882544398">
        <ele>105.4</ele>
        <time>2017-08-03T09:20:45.000Z</time>
      </trkpt>
      <trkpt lat="43.407512828707695" lon="-6.203397670760751">
        <ele>105.4</ele>
        <time>2017-08-03T09:20:54.000Z</time>
      </trkpt>
      <trkpt lat="43.407504949718714" lon="-6.203588107600808">
        <ele>105.6</ele>
        <time>2017-08-03T09:21:04.000Z</time>
      </trkpt>
      <trkpt lat="43.40750662609935" lon="-6.203607050701976">
        <ele>105.6</ele>
        <time>2017-08-03T09:21:05.000Z</time>
      </trkpt>
      <trkpt lat="43.407499166205525" lon="-6.203682655468583">
        <ele>105.6</ele>
        <time>2017-08-03T09:21:09.000Z</time>
      </trkpt>
      <trkpt lat="43.4074832405895" lon="-6.203888515010476">
        <ele>105.8</ele>
        <time>2017-08-03T09:21:20.000Z</time>
      </trkpt>
      <trkpt lat="43.40746513567865" lon="-6.204118179157376">
        <ele>105.6</ele>
        <time>2017-08-03T09:21:32.000Z</time>
      </trkpt>
      <trkpt lat="43.40744074434042" lon="-6.204321440309286">
        <ele>106</ele>
        <time>2017-08-03T09:21:43.000Z</time>
      </trkpt>
      <trkpt lat="43.407427333295345" lon="-6.204515481367707">
        <ele>106.2</ele>
        <time>2017-08-03T09:21:53.000Z</time>
      </trkpt>
      <trkpt lat="43.40741375461221" lon="-6.204669289290905">
        <ele>106.6</ele>
        <time>2017-08-03T09:22:01.000Z</time>
      </trkpt>
      <trkpt lat="43.4073915425688" lon="-6.204856373369694">
        <ele>106.6</ele>
        <time>2017-08-03T09:22:11.000Z</time>
      </trkpt>
      <trkpt lat="43.40737528167665" lon="-6.205023592337966">
        <ele>106.2</ele>
        <time>2017-08-03T09:22:20.000Z</time>
      </trkpt>
      <trkpt lat="43.407366732135415" lon="-6.205191146582365">
        <ele>106.2</ele>
        <time>2017-08-03T09:22:29.000Z</time>
      </trkpt>
      <trkpt lat="43.40735315345228" lon="-6.205422403290868">
        <ele>106.4</ele>
        <time>2017-08-03T09:22:41.000Z</time>
      </trkpt>
      <trkpt lat="43.40734804049134" lon="-6.205602781847119">
        <ele>106.8</ele>
        <time>2017-08-03T09:22:50.000Z</time>
      </trkpt>
      <trkpt lat="43.40733429417014" lon="-6.205814257264137">
        <ele>106.8</ele>
        <time>2017-08-03T09:23:01.000Z</time>
      </trkpt>
      <trkpt lat="43.407332953065634" lon="-6.205866476520896">
        <ele>106.8</ele>
        <time>2017-08-03T09:23:04.000Z</time>
      </trkpt>
      <trkpt lat="43.40732700191438" lon="-6.205940572544932">
        <ele>106.8</ele>
        <time>2017-08-03T09:23:08.000Z</time>
      </trkpt>
      <trkpt lat="43.40731434524059" lon="-6.2061054445803165">
        <ele>107</ele>
        <time>2017-08-03T09:23:17.000Z</time>
      </trkpt>
      <trkpt lat="43.407300766557455" lon="-6.206289594992995">
        <ele>107.2</ele>
        <time>2017-08-03T09:23:27.000Z</time>
      </trkpt>
      <trkpt lat="43.40728526003659" lon="-6.206485480070114">
        <ele>107.6</ele>
        <time>2017-08-03T09:23:37.000Z</time>
      </trkpt>
      <trkpt lat="43.407282745465636" lon="-6.206639539450407">
        <ele>108.6</ele>
        <time>2017-08-03T09:23:45.000Z</time>
      </trkpt>
      <trkpt lat="43.40727277100086" lon="-6.206830982118845">
        <ele>109.8</ele>
        <time>2017-08-03T09:23:55.000Z</time>
      </trkpt>
      <trkpt lat="43.407260198146105" lon="-6.206999374553561">
        <ele>110.6</ele>
        <time>2017-08-03T09:24:04.000Z</time>
      </trkpt>
      <trkpt lat="43.40724687092006" lon="-6.207182854413986">
        <ele>111.4</ele>
        <time>2017-08-03T09:24:14.000Z</time>
      </trkpt>
      <trkpt lat="43.40723806992173" lon="-6.207207748666406">
        <ele>111.6</ele>
        <time>2017-08-03T09:24:16.000Z</time>
      </trkpt>
      <trkpt lat="43.4072295203805" lon="-6.207221327349544">
        <ele>111.8</ele>
        <time>2017-08-03T09:24:20.000Z</time>
      </trkpt>
      <trkpt lat="43.40722097083926" lon="-6.207239264622331">
        <ele>111.8</ele>
        <time>2017-08-03T09:24:30.000Z</time>
      </trkpt>
      <trkpt lat="43.40722482651472" lon="-6.207322161644697">
        <ele>112</ele>
        <time>2017-08-03T09:24:40.000Z</time>
      </trkpt>
      <trkpt lat="43.40722491033375" lon="-6.207445291802287">
        <ele>112</ele>
        <time>2017-08-03T09:24:47.000Z</time>
      </trkpt>
      <trkpt lat="43.40721460059285" lon="-6.207599015906453">
        <ele>112</ele>
        <time>2017-08-03T09:24:56.000Z</time>
      </trkpt>
      <trkpt lat="43.40719892643392" lon="-6.207782831043005">
        <ele>112</ele>
        <time>2017-08-03T09:25:06.000Z</time>
      </trkpt>
      <trkpt lat="43.40718065388501" lon="-6.207942673936486">
        <ele>112</ele>
        <time>2017-08-03T09:25:15.000Z</time>
      </trkpt>
      <trkpt lat="43.407163973897696" lon="-6.2081248965114355">
        <ele>111.8</ele>
        <time>2017-08-03T09:25:25.000Z</time>
      </trkpt>
      <trkpt lat="43.40714704245329" lon="-6.208293540403247">
        <ele>112.2</ele>
        <time>2017-08-03T09:25:34.000Z</time>
      </trkpt>
      <trkpt lat="43.407135056331754" lon="-6.208469560369849">
        <ele>112.8</ele>
        <time>2017-08-03T09:25:43.000Z</time>
      </trkpt>
      <trkpt lat="43.40713765472174" lon="-6.208655722439289">
        <ele>113</ele>
        <time>2017-08-03T09:25:53.000Z</time>
      </trkpt>
      <trkpt lat="43.40713790617883" lon="-6.208764519542456">
        <ele>113</ele>
        <time>2017-08-03T09:25:59.000Z</time>
      </trkpt>
      <trkpt lat="43.407126842066646" lon="-6.2089265417307615">
        <ele>113.2</ele>
        <time>2017-08-03T09:26:07.000Z</time>
      </trkpt>
      <trkpt lat="43.40711519122124" lon="-6.209093760699034">
        <ele>114</ele>
        <time>2017-08-03T09:26:16.000Z</time>
      </trkpt>
      <trkpt lat="43.40709708631039" lon="-6.20928218588233">
        <ele>115</ele>
        <time>2017-08-03T09:26:27.000Z</time>
      </trkpt>
      <trkpt lat="43.40707638300955" lon="-6.209433730691671">
        <ele>115.8</ele>
        <time>2017-08-03T09:26:35.000Z</time>
      </trkpt>
      <trkpt lat="43.407048638910055" lon="-6.209625843912363">
        <ele>116.8</ele>
        <time>2017-08-03T09:26:45.000Z</time>
      </trkpt>
      <trkpt lat="43.40703455731273" lon="-6.209754841402173">
        <ele>117.4</ele>
        <time>2017-08-03T09:26:52.000Z</time>
      </trkpt>
      <trkpt lat="43.40701720677316" lon="-6.209898171946406">
        <ele>118</ele>
        <time>2017-08-03T09:27:00.000Z</time>
      </trkpt>
      <trkpt lat="43.406987534835935" lon="-6.210065139457583">
        <ele>118.8</ele>
        <time>2017-08-03T09:27:09.000Z</time>
      </trkpt>
      <trkpt lat="43.40694839134812" lon="-6.210250463336706">
        <ele>119.8</ele>
        <time>2017-08-03T09:27:20.000Z</time>
      </trkpt>
      <trkpt lat="43.406895250082016" lon="-6.210346100851893">
        <ele>120.4</ele>
        <time>2017-08-03T09:27:28.000Z</time>
      </trkpt>
      <trkpt lat="43.40689139440656" lon="-6.210351213812828">
        <ele>120.6</ele>
        <time>2017-08-03T09:27:29.000Z</time>
      </trkpt>
      <trkpt lat="43.40687982738018" lon="-6.210359428077936">
        <ele>120.6</ele>
        <time>2017-08-03T09:27:31.000Z</time>
      </trkpt>
      <trkpt lat="43.406849233433604" lon="-6.210374850779772">
        <ele>120.8</ele>
        <time>2017-08-03T09:27:35.000Z</time>
      </trkpt>
      <trkpt lat="43.406845880672336" lon="-6.2103772815316916">
        <ele>121</ele>
        <time>2017-08-03T09:27:36.000Z</time>
      </trkpt>
      <trkpt lat="43.40683297254145" lon="-6.21040603145957">
        <ele>121.2</ele>
        <time>2017-08-03T09:27:39.000Z</time>
      </trkpt>
      <trkpt lat="43.40683029033244" lon="-6.210411647334695">
        <ele>121.2</ele>
        <time>2017-08-03T09:27:45.000Z</time>
      </trkpt>
      <trkpt lat="43.40682442300022" lon="-6.210415922105312">
        <ele>121.2</ele>
        <time>2017-08-03T09:27:50.000Z</time>
      </trkpt>
      <trkpt lat="43.40684185735881" lon="-6.210431093350053">
        <ele>121.2</ele>
        <time>2017-08-03T09:27:55.000Z</time>
      </trkpt>
      <trkpt lat="43.406828278675675" lon="-6.210399409756064">
        <ele>121.2</ele>
        <time>2017-08-03T09:28:37.000Z</time>
      </trkpt>
      <trkpt lat="43.40680422261357" lon="-6.210362026467919">
        <ele>121.4</ele>
        <time>2017-08-03T09:28:42.000Z</time>
      </trkpt>
      <trkpt lat="43.40677027590573" lon="-6.210365546867251">
        <ele>122</ele>
        <time>2017-08-03T09:28:47.000Z</time>
      </trkpt>
      <trkpt lat="43.406811682507396" lon="-6.210351129993796">
        <ele>121.2</ele>
        <time>2017-08-03T09:29:13.000Z</time>
      </trkpt>
      <trkpt lat="43.40681964531541" lon="-6.210407707840204">
        <ele>121.2</ele>
        <time>2017-08-03T09:29:44.000Z</time>
      </trkpt>
      <trkpt lat="43.406821405515075" lon="-6.210408126935363">
        <ele>121.2</ele>
        <time>2017-08-03T09:29:52.000Z</time>
      </trkpt>
      <trkpt lat="43.40680195949972" lon="-6.210445091128349">
        <ele>121.8</ele>
        <time>2017-08-03T09:29:59.000Z</time>
      </trkpt>
      <trkpt lat="43.40680765919387" lon="-6.210488509386778">
        <ele>121.8</ele>
        <time>2017-08-03T09:30:04.000Z</time>
      </trkpt>
      <trkpt lat="43.40680598281324" lon="-6.210504015907645">
        <ele>121.8</ele>
        <time>2017-08-03T09:30:05.000Z</time>
      </trkpt>
      <trkpt lat="43.406813107430935" lon="-6.210490185767412">
        <ele>121.6</ele>
        <time>2017-08-03T09:30:09.000Z</time>
      </trkpt>
      <trkpt lat="43.40682903304696" lon="-6.2104350328445435">
        <ele>121.2</ele>
        <time>2017-08-03T09:30:23.000Z</time>
      </trkpt>
      <trkpt lat="43.40682157315314" lon="-6.210429165512323">
        <ele>121.2</ele>
        <time>2017-08-03T09:30:24.000Z</time>
      </trkpt>
      <trkpt lat="43.40680757537484" lon="-6.210396056994796">
        <ele>121.4</ele>
        <time>2017-08-03T09:30:29.000Z</time>
      </trkpt>
      <trkpt lat="43.40678854845464" lon="-6.210393542423844">
        <ele>121.8</ele>
        <time>2017-08-03T09:30:35.000Z</time>
      </trkpt>
      <trkpt lat="43.40680933557451" lon="-6.2104196939617395">
        <ele>121.4</ele>
        <time>2017-08-03T09:30:40.000Z</time>
      </trkpt>
      <trkpt lat="43.40682350099087" lon="-6.210480881854892">
        <ele>121.4</ele>
        <time>2017-08-03T09:30:47.000Z</time>
      </trkpt>
      <trkpt lat="43.40684135444462" lon="-6.210481720045209">
        <ele>121.4</ele>
        <time>2017-08-03T09:30:52.000Z</time>
      </trkpt>
      <trkpt lat="43.40684210881591" lon="-6.210461854934692">
        <ele>121.2</ele>
        <time>2017-08-03T09:31:09.000Z</time>
      </trkpt>
      <trkpt lat="43.40682593174279" lon="-6.210453053936362">
        <ele>121.4</ele>
        <time>2017-08-03T09:32:55.000Z</time>
      </trkpt>
      <trkpt lat="43.40682065114379" lon="-6.210437212139368">
        <ele>121.4</ele>
        <time>2017-08-03T09:33:02.000Z</time>
      </trkpt>
      <trkpt lat="43.406828697770834" lon="-6.210403935983777">
        <ele>121.2</ele>
        <time>2017-08-03T09:33:10.000Z</time>
      </trkpt>
      <trkpt lat="43.4068201482296" lon="-6.210420783609152">
        <ele>121.2</ele>
        <time>2017-08-03T09:33:16.000Z</time>
      </trkpt>
      <trkpt lat="43.40682802721858" lon="-6.210427153855562">
        <ele>121.2</ele>
        <time>2017-08-03T09:33:29.000Z</time>
      </trkpt>
      <trkpt lat="43.40684361755848" lon="-6.210424806922674">
        <ele>121.2</ele>
        <time>2017-08-03T09:33:51.000Z</time>
      </trkpt>
      <trkpt lat="43.40684009715915" lon="-6.21038306504488">
        <ele>121</ele>
        <time>2017-08-03T09:34:05.000Z</time>
      </trkpt>
      <trkpt lat="43.4068304579705" lon="-6.210367055609822">
        <ele>121</ele>
        <time>2017-08-03T09:34:13.000Z</time>
      </trkpt>
      <trkpt lat="43.406831715255976" lon="-6.210363786667585">
        <ele>121</ele>
        <time>2017-08-03T09:34:20.000Z</time>
      </trkpt>
      <trkpt lat="43.406850742176175" lon="-6.210352722555399">
        <ele>120.8</ele>
        <time>2017-08-03T09:34:25.000Z</time>
      </trkpt>
      <trkpt lat="43.40684940107167" lon="-6.2103519681841135">
        <ele>120.8</ele>
        <time>2017-08-03T09:34:31.000Z</time>
      </trkpt>
      <trkpt lat="43.40684856288135" lon="-6.210404857993126">
        <ele>121</ele>
        <time>2017-08-03T09:34:35.000Z</time>
      </trkpt>
      <trkpt lat="43.406843449920416" lon="-6.2104403134435415">
        <ele>121.2</ele>
        <time>2017-08-03T09:34:39.000Z</time>
      </trkpt>
      <trkpt lat="43.40684219263494" lon="-6.210448192432523">
        <ele>121.2</ele>
        <time>2017-08-03T09:34:44.000Z</time>
      </trkpt>
      <trkpt lat="43.40682408772409" lon="-6.210453724488616">
        <ele>121.4</ele>
        <time>2017-08-03T09:35:09.000Z</time>
      </trkpt>
      <trkpt lat="43.40684613212943" lon="-6.21044559404254">
        <ele>121.2</ele>
        <time>2017-08-03T09:35:16.000Z</time>
      </trkpt>
      <trkpt lat="43.40685308910906" lon="-6.210451042279601">
        <ele>121.2</ele>
        <time>2017-08-03T09:35:26.000Z</time>
      </trkpt>
      <trkpt lat="43.406837582588196" lon="-6.210436960682273">
        <ele>121.2</ele>
        <time>2017-08-03T09:35:58.000Z</time>
      </trkpt>
      <trkpt lat="43.406843869015574" lon="-6.210429668426514">
        <ele>121.2</ele>
        <time>2017-08-03T09:36:09.000Z</time>
      </trkpt>
      <trkpt lat="43.40685535222292" lon="-6.210441067814827">
        <ele>121</ele>
        <time>2017-08-03T09:37:25.000Z</time>
      </trkpt>
      <trkpt lat="43.40685895644128" lon="-6.210465040057898">
        <ele>121.2</ele>
        <time>2017-08-03T09:38:05.000Z</time>
      </trkpt>
      <trkpt lat="43.40684998780489" lon="-6.210461771115661">
        <ele>121.2</ele>
        <time>2017-08-03T09:38:12.000Z</time>
      </trkpt>
      <trkpt lat="43.40684470720589" lon="-6.210465040057898">
        <ele>121.2</ele>
        <time>2017-08-03T09:38:20.000Z</time>
      </trkpt>
      <trkpt lat="43.4068354871124" lon="-6.210452048107982">
        <ele>121.2</ele>
        <time>2017-08-03T09:40:10.000Z</time>
      </trkpt>
      <trkpt lat="43.406834062188864" lon="-6.210450204089284">
        <ele>121.2</ele>
        <time>2017-08-03T09:40:41.000Z</time>
      </trkpt>
      <trkpt lat="43.406851748004556" lon="-6.21045540086925">
        <ele>121.2</ele>
        <time>2017-08-03T09:40:48.000Z</time>
      </trkpt>
      <trkpt lat="43.40685032308102" lon="-6.210452131927013">
        <ele>121.2</ele>
        <time>2017-08-03T09:40:57.000Z</time>
      </trkpt>
      <trkpt lat="43.40686172246933" lon="-6.210451042279601">
        <ele>121</ele>
        <time>2017-08-03T09:41:30.000Z</time>
      </trkpt>
      <trkpt lat="43.40686172246933" lon="-6.2104506231844425">
        <ele>121</ele>
        <time>2017-08-03T09:41:36.000Z</time>
      </trkpt>
      <trkpt lat="43.40685443021357" lon="-6.210440564900637">
        <ele>121</ele>
        <time>2017-08-03T09:41:56.000Z</time>
      </trkpt>
      <trkpt lat="43.406844371929765" lon="-6.210445845499635">
        <ele>121.2</ele>
        <time>2017-08-03T09:42:07.000Z</time>
      </trkpt>
      <trkpt lat="43.40684546157718" lon="-6.210440397262573">
        <ele>121.2</ele>
        <time>2017-08-03T09:42:13.000Z</time>
      </trkpt>
      <trkpt lat="43.406836995854974" lon="-6.210434529930353">
        <ele>121.2</ele>
        <time>2017-08-03T09:42:27.000Z</time>
      </trkpt>
      <trkpt lat="43.406829284504056" lon="-6.210439978167415">
        <ele>121.2</ele>
        <time>2017-08-03T09:43:15.000Z</time>
      </trkpt>
      <trkpt lat="43.40683146379888" lon="-6.210439810529351">
        <ele>121.2</ele>
        <time>2017-08-03T09:44:47.000Z</time>
      </trkpt>
      <trkpt lat="43.406841941177845" lon="-6.210433524101973">
        <ele>121.2</ele>
        <time>2017-08-03T09:44:55.000Z</time>
      </trkpt>
      <trkpt lat="43.40684018097818" lon="-6.210434613749385">
        <ele>121.2</ele>
        <time>2017-08-03T09:45:06.000Z</time>
      </trkpt>
      <trkpt lat="43.406808245927095" lon="-6.210469901561737">
        <ele>121.6</ele>
        <time>2017-08-03T09:47:11.000Z</time>
      </trkpt>
      <trkpt lat="43.40681444853544" lon="-6.210456658154726">
        <ele>121.4</ele>
        <time>2017-08-03T09:47:30.000Z</time>
      </trkpt>
      <trkpt lat="43.40680858120322" lon="-6.210449701175094">
        <ele>121.6</ele>
        <time>2017-08-03T09:48:23.000Z</time>
      </trkpt>
      <trkpt lat="43.40685082599521" lon="-6.210456574335694">
        <ele>121.2</ele>
        <time>2017-08-03T09:48:34.000Z</time>
      </trkpt>
      <trkpt lat="43.40685820207" lon="-6.210484569892287">
        <ele>121.2</ele>
        <time>2017-08-03T09:48:42.000Z</time>
      </trkpt>
      <trkpt lat="43.406891310587525" lon="-6.210591522976756">
        <ele>121.2</ele>
        <time>2017-08-03T09:48:49.000Z</time>
      </trkpt>
      <trkpt lat="43.4068856947124" lon="-6.210701577365398">
        <ele>121</ele>
        <time>2017-08-03T09:48:56.000Z</time>
      </trkpt>
      <trkpt lat="43.406870774924755" lon="-6.210766872391105">
        <ele>121</ele>
        <time>2017-08-03T09:49:03.000Z</time>
      </trkpt>
      <trkpt lat="43.40686088427901" lon="-6.210805177688599">
        <ele>121</ele>
        <time>2017-08-03T09:49:09.000Z</time>
      </trkpt>
      <trkpt lat="43.40682894922793" lon="-6.210870556533337">
        <ele>121.2</ele>
        <time>2017-08-03T09:49:15.000Z</time>
      </trkpt>
      <trkpt lat="43.4067960921675" lon="-6.210964350029826">
        <ele>121.8</ele>
        <time>2017-08-03T09:49:22.000Z</time>
      </trkpt>
      <trkpt lat="43.406754434108734" lon="-6.21109988540411">
        <ele>122.6</ele>
        <time>2017-08-03T09:49:31.000Z</time>
      </trkpt>
      <trkpt lat="43.406694419682026" lon="-6.211240869015455">
        <ele>124</ele>
        <time>2017-08-03T09:49:41.000Z</time>
      </trkpt>
      <trkpt lat="43.40662962757051" lon="-6.211347654461861">
        <ele>125.6</ele>
        <time>2017-08-03T09:49:49.000Z</time>
      </trkpt>
      <trkpt lat="43.406597105786204" lon="-6.211389983072877">
        <ele>126.6</ele>
        <time>2017-08-03T09:49:53.000Z</time>
      </trkpt>
      <trkpt lat="43.40652359649539" lon="-6.211485369130969">
        <ele>128</ele>
        <time>2017-08-03T09:50:01.000Z</time>
      </trkpt>
      <trkpt lat="43.406450590118766" lon="-6.211561476811767">
        <ele>129.2</ele>
        <time>2017-08-03T09:50:08.000Z</time>
      </trkpt>
      <trkpt lat="43.40640029869974" lon="-6.21161101385951">
        <ele>130</ele>
        <time>2017-08-03T09:50:12.000Z</time>
      </trkpt>
      <trkpt lat="43.406337182968855" lon="-6.211682595312595">
        <ele>130.8</ele>
        <time>2017-08-03T09:50:19.000Z</time>
      </trkpt>
      <trkpt lat="43.40630818158388" lon="-6.211755182594061">
        <ele>130.6</ele>
        <time>2017-08-03T09:50:26.000Z</time>
      </trkpt>
      <trkpt lat="43.406264930963516" lon="-6.2118571903556585">
        <ele>130.6</ele>
        <time>2017-08-03T09:50:34.000Z</time>
      </trkpt>
      <trkpt lat="43.406206760555506" lon="-6.211950900033116">
        <ele>131</ele>
        <time>2017-08-03T09:50:42.000Z</time>
      </trkpt>
      <trkpt lat="43.406148087233305" lon="-6.212042765691876">
        <ele>131.4</ele>
        <time>2017-08-03T09:50:49.000Z</time>
      </trkpt>
      <trkpt lat="43.40608078055084" lon="-6.212154161185026">
        <ele>132</ele>
        <time>2017-08-03T09:50:57.000Z</time>
      </trkpt>
      <trkpt lat="43.406008863821626" lon="-6.212315345183015">
        <ele>132</ele>
        <time>2017-08-03T09:51:08.000Z</time>
      </trkpt>
      <trkpt lat="43.40595153160393" lon="-6.212435457855463">
        <ele>131</ele>
        <time>2017-08-03T09:51:16.000Z</time>
      </trkpt>
      <trkpt lat="43.405886655673385" lon="-6.212570825591683">
        <ele>130</ele>
        <time>2017-08-03T09:51:25.000Z</time>
      </trkpt>
      <trkpt lat="43.40584340505302" lon="-6.212649783119559">
        <ele>129.6</ele>
        <time>2017-08-03T09:51:31.000Z</time>
      </trkpt>
      <trkpt lat="43.40583745390177" lon="-6.212665122002363">
        <ele>129.6</ele>
        <time>2017-08-03T09:51:32.000Z</time>
      </trkpt>
      <trkpt lat="43.40578531846404" lon="-6.212771907448769">
        <ele>128.8</ele>
        <time>2017-08-03T09:51:39.000Z</time>
      </trkpt>
      <trkpt lat="43.405724465847015" lon="-6.2128570675849915">
        <ele>128.6</ele>
        <time>2017-08-03T09:51:46.000Z</time>
      </trkpt>
      <trkpt lat="43.40564651414752" lon="-6.212957231327891">
        <ele>128.6</ele>
        <time>2017-08-03T09:51:54.000Z</time>
      </trkpt>
      <trkpt lat="43.405598318204284" lon="-6.213041972368956">
        <ele>128.2</ele>
        <time>2017-08-03T09:52:01.000Z</time>
      </trkpt>
      <trkpt lat="43.40557962656021" lon="-6.213064352050424">
        <ele>128.2</ele>
        <time>2017-08-03T09:52:03.000Z</time>
      </trkpt>
      <trkpt lat="43.40551760047674" lon="-6.213153284043074">
        <ele>128</ele>
        <time>2017-08-03T09:52:10.000Z</time>
      </trkpt>
      <trkpt lat="43.40543897822499" lon="-6.213273731991649">
        <ele>127.6</ele>
        <time>2017-08-03T09:52:19.000Z</time>
      </trkpt>
      <trkpt lat="43.40533579699695" lon="-6.213417900726199">
        <ele>127.4</ele>
        <time>2017-08-03T09:52:30.000Z</time>
      </trkpt>
      <trkpt lat="43.40525650419295" lon="-6.2135223392397165">
        <ele>127.4</ele>
        <time>2017-08-03T09:52:39.000Z</time>
      </trkpt>
      <trkpt lat="43.40517394244671" lon="-6.213629627600312">
        <ele>127.2</ele>
        <time>2017-08-03T09:52:48.000Z</time>
      </trkpt>
      <trkpt lat="43.40511627495289" lon="-6.213751751929522">
        <ele>127.8</ele>
        <time>2017-08-03T09:52:56.000Z</time>
      </trkpt>
      <trkpt lat="43.405062379315495" lon="-6.213900446891785">
        <ele>128.4</ele>
        <time>2017-08-03T09:53:05.000Z</time>
      </trkpt>
      <trkpt lat="43.405031533911824" lon="-6.214014440774918">
        <ele>128.6</ele>
        <time>2017-08-03T09:53:12.000Z</time>
      </trkpt>
      <trkpt lat="43.40500362217426" lon="-6.214103288948536">
        <ele>129.2</ele>
        <time>2017-08-03T09:53:18.000Z</time>
      </trkpt>
      <trkpt lat="43.40497269295156" lon="-6.214215438812971">
        <ele>130.6</ele>
        <time>2017-08-03T09:53:25.000Z</time>
      </trkpt>
      <trkpt lat="43.404965568333864" lon="-6.214349465444684">
        <ele>130.6</ele>
        <time>2017-08-03T09:53:33.000Z</time>
      </trkpt>
      <trkpt lat="43.40496741235256" lon="-6.2144724279642105">
        <ele>130.2</ele>
        <time>2017-08-03T09:53:41.000Z</time>
      </trkpt>
      <trkpt lat="43.404963640496135" lon="-6.214602179825306">
        <ele>130.2</ele>
        <time>2017-08-03T09:53:49.000Z</time>
      </trkpt>
      <trkpt lat="43.40495249256492" lon="-6.214728243649006">
        <ele>130.4</ele>
        <time>2017-08-03T09:53:59.000Z</time>
      </trkpt>
      <trkpt lat="43.40500387363136" lon="-6.214780630543828">
        <ele>127.6</ele>
        <time>2017-08-03T09:54:03.000Z</time>
      </trkpt>
      <trkpt lat="43.404980739578605" lon="-6.214902587234974">
        <ele>128.4</ele>
        <time>2017-08-03T09:54:08.000Z</time>
      </trkpt>
      <trkpt lat="43.40497621335089" lon="-6.214926475659013">
        <ele>128.6</ele>
        <time>2017-08-03T09:54:09.000Z</time>
      </trkpt>
      <trkpt lat="43.40495115146041" lon="-6.215124288573861">
        <ele>130</ele>
        <time>2017-08-03T09:54:18.000Z</time>
      </trkpt>
      <trkpt lat="43.40493405237794" lon="-6.215301817283034">
        <ele>131.2</ele>
        <time>2017-08-03T09:54:27.000Z</time>
      </trkpt>
      <trkpt lat="43.40492055751383" lon="-6.2154563795775175">
        <ele>132.2</ele>
        <time>2017-08-03T09:54:35.000Z</time>
      </trkpt>
      <trkpt lat="43.404903542250395" lon="-6.215603481978178">
        <ele>133.2</ele>
        <time>2017-08-03T09:54:43.000Z</time>
      </trkpt>
      <trkpt lat="43.4048757981509" lon="-6.215747818350792">
        <ele>134.8</ele>
        <time>2017-08-03T09:54:51.000Z</time>
      </trkpt>
      <trkpt lat="43.40485601685941" lon="-6.215871619060636">
        <ele>136</ele>
        <time>2017-08-03T09:54:58.000Z</time>
      </trkpt>
      <trkpt lat="43.40484470129013" lon="-6.215976057574153">
        <ele>136.8</ele>
        <time>2017-08-03T09:55:05.000Z</time>
      </trkpt>
      <trkpt lat="43.40483942069113" lon="-6.21599349193275">
        <ele>137.2</ele>
        <time>2017-08-03T09:55:06.000Z</time>
      </trkpt>
      <trkpt lat="43.40483095496893" lon="-6.21606876142323">
        <ele>137.8</ele>
        <time>2017-08-03T09:55:11.000Z</time>
      </trkpt>
      <trkpt lat="43.40482810512185" lon="-6.21609466150403">
        <ele>138</ele>
        <time>2017-08-03T09:55:13.000Z</time>
      </trkpt>
      <trkpt lat="43.404815113171935" lon="-6.2161399237811565">
        <ele>138.8</ele>
        <time>2017-08-03T09:55:16.000Z</time>
      </trkpt>
      <trkpt lat="43.404807820916176" lon="-6.216174205765128">
        <ele>139.2</ele>
        <time>2017-08-03T09:55:18.000Z</time>
      </trkpt>
      <trkpt lat="43.40479139238596" lon="-6.216251570731401">
        <ele>140.2</ele>
        <time>2017-08-03T09:55:23.000Z</time>
      </trkpt>
      <trkpt lat="43.40476792305708" lon="-6.216342514380813">
        <ele>141.6</ele>
        <time>2017-08-03T09:55:29.000Z</time>
      </trkpt>
      <trkpt lat="43.40474436990917" lon="-6.216433793306351">
        <ele>143</ele>
        <time>2017-08-03T09:55:34.000Z</time>
      </trkpt>
      <trkpt lat="43.40471092611551" lon="-6.216545859351754">
        <ele>144.6</ele>
        <time>2017-08-03T09:55:41.000Z</time>
      </trkpt>
      <trkpt lat="43.40468284673989" lon="-6.216653985902667">
        <ele>145.8</ele>
        <time>2017-08-03T09:55:48.000Z</time>
      </trkpt>
      <trkpt lat="43.40468091890216" lon="-6.216672761365771">
        <ele>145.8</ele>
        <time>2017-08-03T09:55:49.000Z</time>
      </trkpt>
      <trkpt lat="43.404660718515515" lon="-6.216834364458919">
        <ele>146.8</ele>
        <time>2017-08-03T09:55:58.000Z</time>
      </trkpt>
      <trkpt lat="43.4046271070838" lon="-6.216946430504322">
        <ele>148.2</ele>
        <time>2017-08-03T09:56:03.000Z</time>
      </trkpt>
      <trkpt lat="43.40462048538029" lon="-6.217039301991463">
        <ele>148.8</ele>
        <time>2017-08-03T09:56:08.000Z</time>
      </trkpt>
      <trkpt lat="43.4046199824661" lon="-6.217079870402813">
        <ele>149</ele>
        <time>2017-08-03T09:56:10.000Z</time>
      </trkpt>
      <trkpt lat="43.40462249703705" lon="-6.217203252017498">
        <ele>149.6</ele>
        <time>2017-08-03T09:56:17.000Z</time>
      </trkpt>
      <trkpt lat="43.40462534688413" lon="-6.217300733551383">
        <ele>149.8</ele>
        <time>2017-08-03T09:56:22.000Z</time>
      </trkpt>
      <trkpt lat="43.40462962165475" lon="-6.217327639460564">
        <ele>149.4</ele>
        <time>2017-08-03T09:56:24.000Z</time>
      </trkpt>
      <trkpt lat="43.404630459845066" lon="-6.2174116261303425">
        <ele>148.8</ele>
        <time>2017-08-03T09:56:29.000Z</time>
      </trkpt>
      <trkpt lat="43.404634315520525" lon="-6.217424534261227">
        <ele>148.4</ele>
        <time>2017-08-03T09:56:30.000Z</time>
      </trkpt>
      <trkpt lat="43.4046374168247" lon="-6.217508437111974">
        <ele>147.8</ele>
        <time>2017-08-03T09:56:35.000Z</time>
      </trkpt>
      <trkpt lat="43.40463708154857" lon="-6.217566775158048">
        <ele>147.4</ele>
        <time>2017-08-03T09:56:39.000Z</time>
      </trkpt>
      <trkpt lat="43.40463171713054" lon="-6.217588232830167">
        <ele>147.4</ele>
        <time>2017-08-03T09:56:40.000Z</time>
      </trkpt>
      <trkpt lat="43.40463356114924" lon="-6.217604158446193">
        <ele>147.2</ele>
        <time>2017-08-03T09:56:41.000Z</time>
      </trkpt>
      <trkpt lat="43.40460539795458" lon="-6.21767045930028">
        <ele>147.8</ele>
        <time>2017-08-03T09:56:45.000Z</time>
      </trkpt>
      <trkpt lat="43.40458335354924" lon="-6.217750925570726">
        <ele>148.2</ele>
        <time>2017-08-03T09:56:50.000Z</time>
      </trkpt>
      <trkpt lat="43.40456214733422" lon="-6.217797109857202">
        <ele>148.6</ele>
        <time>2017-08-03T09:56:54.000Z</time>
      </trkpt>
      <trkpt lat="43.40455116704106" lon="-6.217851005494595">
        <ele>148.6</ele>
        <time>2017-08-03T09:56:57.000Z</time>
      </trkpt>
      <trkpt lat="43.40455192141235" lon="-6.21786642819643">
        <ele>148.6</ele>
        <time>2017-08-03T09:56:58.000Z</time>
      </trkpt>
      <trkpt lat="43.404542030766606" lon="-6.217900291085243">
        <ele>148.8</ele>
        <time>2017-08-03T09:57:00.000Z</time>
      </trkpt>
      <trkpt lat="43.40454605408013" lon="-6.217956282198429">
        <ele>148.6</ele>
        <time>2017-08-03T09:57:04.000Z</time>
      </trkpt>
      <trkpt lat="43.40455007739365" lon="-6.218035239726305">
        <ele>148.2</ele>
        <time>2017-08-03T09:57:10.000Z</time>
      </trkpt>
      <trkpt lat="43.404550831764936" lon="-6.218069605529308">
        <ele>148.2</ele>
        <time>2017-08-03T09:57:14.000Z</time>
      </trkpt>
      <trkpt lat="43.40455133467913" lon="-6.218080669641495">
        <ele>148.2</ele>
        <time>2017-08-03T09:57:15.000Z</time>
      </trkpt>
      <trkpt lat="43.40454840101302" lon="-6.218095002695918">
        <ele>148.2</ele>
        <time>2017-08-03T09:57:16.000Z</time>
      </trkpt>
      <trkpt lat="43.40453783981502" lon="-6.2181478925049305">
        <ele>148</ele>
        <time>2017-08-03T09:57:21.000Z</time>
      </trkpt>
      <trkpt lat="43.40453549288213" lon="-6.2181655783206224">
        <ele>147.8</ele>
        <time>2017-08-03T09:57:22.000Z</time>
      </trkpt>
      <trkpt lat="43.40451277792454" lon="-6.218239339068532">
        <ele>147.2</ele>
        <time>2017-08-03T09:57:27.000Z</time>
      </trkpt>
      <trkpt lat="43.40450154617429" lon="-6.218266999348998">
        <ele>147.2</ele>
        <time>2017-08-03T09:57:29.000Z</time>
      </trkpt>
      <trkpt lat="43.40448813512921" lon="-6.218321230262518">
        <ele>146.6</ele>
        <time>2017-08-03T09:57:33.000Z</time>
      </trkpt>
      <trkpt lat="43.40447371825576" lon="-6.218369510024786">
        <ele>146.2</ele>
        <time>2017-08-03T09:57:37.000Z</time>
      </trkpt>
      <trkpt lat="43.40444823727012" lon="-6.218429692089558">
        <ele>146</ele>
        <time>2017-08-03T09:57:42.000Z</time>
      </trkpt>
      <trkpt lat="43.40442451648414" lon="-6.218478223308921">
        <ele>146</ele>
        <time>2017-08-03T09:57:45.000Z</time>
      </trkpt>
      <trkpt lat="43.40440305881202" lon="-6.218502447009087">
        <ele>146.2</ele>
        <time>2017-08-03T09:57:47.000Z</time>
      </trkpt>
      <trkpt lat="43.40433055534959" lon="-6.218566317111254">
        <ele>147.6</ele>
        <time>2017-08-03T09:57:54.000Z</time>
      </trkpt>
      <trkpt lat="43.4042764082551" lon="-6.218598922714591">
        <ele>148.8</ele>
        <time>2017-08-03T09:58:00.000Z</time>
      </trkpt>
      <trkpt lat="43.40427062474191" lon="-6.218605879694223">
        <ele>149</ele>
        <time>2017-08-03T09:58:01.000Z</time>
      </trkpt>
      <trkpt lat="43.40425436384976" lon="-6.218620799481869">
        <ele>149.4</ele>
        <time>2017-08-03T09:58:03.000Z</time>
      </trkpt>
      <trkpt lat="43.40422519482672" lon="-6.218633288517594">
        <ele>150.2</ele>
        <time>2017-08-03T09:58:07.000Z</time>
      </trkpt>
      <trkpt lat="43.40418211184442" lon="-6.21866094879806">
        <ele>151.2</ele>
        <time>2017-08-03T09:58:12.000Z</time>
      </trkpt>
      <trkpt lat="43.40414841659367" lon="-6.218696907162666">
        <ele>151.8</ele>
        <time>2017-08-03T09:58:17.000Z</time>
      </trkpt>
      <trkpt lat="43.40414288453758" lon="-6.218703361228108">
        <ele>152</ele>
        <time>2017-08-03T09:58:18.000Z</time>
      </trkpt>
      <trkpt lat="43.404122684150934" lon="-6.2187212985008955">
        <ele>152.4</ele>
        <time>2017-08-03T09:58:21.000Z</time>
      </trkpt>
      <trkpt lat="43.40411623008549" lon="-6.218727752566338">
        <ele>152.6</ele>
        <time>2017-08-03T09:58:22.000Z</time>
      </trkpt>
      <trkpt lat="43.40408932417631" lon="-6.21880067512393">
        <ele>152.2</ele>
        <time>2017-08-03T09:58:28.000Z</time>
      </trkpt>
      <trkpt lat="43.40408789925277" lon="-6.218809392303228">
        <ele>152.2</ele>
        <time>2017-08-03T09:58:29.000Z</time>
      </trkpt>
      <trkpt lat="43.404061663895845" lon="-6.218844763934612">
        <ele>152.4</ele>
        <time>2017-08-03T09:58:33.000Z</time>
      </trkpt>
      <trkpt lat="43.40405562892556" lon="-6.218840992078185">
        <ele>152.8</ele>
        <time>2017-08-03T09:58:34.000Z</time>
      </trkpt>
      <trkpt lat="43.40403391979635" lon="-6.218886086717248">
        <ele>152.8</ele>
        <time>2017-08-03T09:58:39.000Z</time>
      </trkpt>
      <trkpt lat="43.40403609909117" lon="-6.218891702592373">
        <ele>152.6</ele>
        <time>2017-08-03T09:58:40.000Z</time>
      </trkpt>
      <trkpt lat="43.40402226895094" lon="-6.218936797231436">
        <ele>152.2</ele>
        <time>2017-08-03T09:58:44.000Z</time>
      </trkpt>
      <trkpt lat="43.40401346795261" lon="-6.2189731746912">
        <ele>152.2</ele>
        <time>2017-08-03T09:58:47.000Z</time>
      </trkpt>
      <trkpt lat="43.40400726534426" lon="-6.2190051935613155">
        <ele>152</ele>
        <time>2017-08-03T09:58:49.000Z</time>
      </trkpt>
      <trkpt lat="43.40400164946914" lon="-6.219034614041448">
        <ele>152</ele>
        <time>2017-08-03T09:58:53.000Z</time>
      </trkpt>
      <trkpt lat="43.403995614498854" lon="-6.21903813444078">
        <ele>152.2</ele>
        <time>2017-08-03T09:58:54.000Z</time>
      </trkpt>
      <trkpt lat="43.40398773550987" lon="-6.219044923782349">
        <ele>152.4</ele>
        <time>2017-08-03T09:58:55.000Z</time>
      </trkpt>
      <trkpt lat="43.40397918596864" lon="-6.219093790277839">
        <ele>152.2</ele>
        <time>2017-08-03T09:59:01.000Z</time>
      </trkpt>
      <trkpt lat="43.40399041771889" lon="-6.219167215749621">
        <ele>151.2</ele>
        <time>2017-08-03T09:59:06.000Z</time>
      </trkpt>
      <trkpt lat="43.40403601527214" lon="-6.219263691455126">
        <ele>148.8</ele>
        <time>2017-08-03T09:59:11.000Z</time>
      </trkpt>
      <trkpt lat="43.404041128233075" lon="-6.219279114156961">
        <ele>148.8</ele>
        <time>2017-08-03T09:59:12.000Z</time>
      </trkpt>
      <trkpt lat="43.40407909825444" lon="-6.219372823834419">
        <ele>148.2</ele>
        <time>2017-08-03T09:59:19.000Z</time>
      </trkpt>
      <trkpt lat="43.404097286984324" lon="-6.219408111646771">
        <ele>148</ele>
        <time>2017-08-03T09:59:22.000Z</time>
      </trkpt>
      <trkpt lat="43.40411421842873" lon="-6.219454295933247">
        <ele>147.6</ele>
        <time>2017-08-03T09:59:25.000Z</time>
      </trkpt>
      <trkpt lat="43.404125617817044" lon="-6.219476256519556">
        <ele>147.4</ele>
        <time>2017-08-03T09:59:27.000Z</time>
      </trkpt>
      <trkpt lat="43.404137352481484" lon="-6.219526045024395">
        <ele>147.4</ele>
        <time>2017-08-03T09:59:30.000Z</time>
      </trkpt>
      <trkpt lat="43.404131988063455" lon="-6.219562254846096">
        <ele>147.6</ele>
        <time>2017-08-03T09:59:32.000Z</time>
      </trkpt>
      <trkpt lat="43.404105082154274" lon="-6.21959812939167">
        <ele>148.4</ele>
        <time>2017-08-03T09:59:35.000Z</time>
      </trkpt>
      <trkpt lat="43.40406493283808" lon="-6.2196307349950075">
        <ele>149.6</ele>
        <time>2017-08-03T09:59:39.000Z</time>
      </trkpt>
      <trkpt lat="43.4040483366698" lon="-6.219652276486158">
        <ele>150</ele>
        <time>2017-08-03T09:59:41.000Z</time>
      </trkpt>
      <trkpt lat="43.4040192514658" lon="-6.21972125954926">
        <ele>151</ele>
        <time>2017-08-03T09:59:46.000Z</time>
      </trkpt>
      <trkpt lat="43.404030399397016" lon="-6.219742298126221">
        <ele>150.8</ele>
        <time>2017-08-03T09:59:47.000Z</time>
      </trkpt>
      <trkpt lat="43.40407909825444" lon="-6.219798540696502">
        <ele>150</ele>
        <time>2017-08-03T09:59:52.000Z</time>
      </trkpt>
      <trkpt lat="43.404126623645425" lon="-6.219883868470788">
        <ele>150</ele>
        <time>2017-08-03T09:59:57.000Z</time>
      </trkpt>
      <trkpt lat="43.404142297804356" lon="-6.219921754673123">
        <ele>150.2</ele>
        <time>2017-08-03T09:59:59.000Z</time>
      </trkpt>
      <trkpt lat="43.404153529554605" lon="-6.219948828220367">
        <ele>150.2</ele>
        <time>2017-08-03T10:00:01.000Z</time>
      </trkpt>
      <trkpt lat="43.40415487065911" lon="-6.219970872625709">
        <ele>150.4</ele>
        <time>2017-08-03T10:00:02.000Z</time>
      </trkpt>
      <trkpt lat="43.4041675273329" lon="-6.220039268955588">
        <ele>150.8</ele>
        <time>2017-08-03T10:00:07.000Z</time>
      </trkpt>
      <trkpt lat="43.40419233776629" lon="-6.220125015825033">
        <ele>150.8</ele>
        <time>2017-08-03T10:00:13.000Z</time>
      </trkpt>
      <trkpt lat="43.40419518761337" lon="-6.220137253403664">
        <ele>150.8</ele>
        <time>2017-08-03T10:00:14.000Z</time>
      </trkpt>
      <trkpt lat="43.4041952714324" lon="-6.220157369971275">
        <ele>151</ele>
        <time>2017-08-03T10:00:15.000Z</time>
      </trkpt>
      <trkpt lat="43.40420013293624" lon="-6.220185365527868">
        <ele>151.2</ele>
        <time>2017-08-03T10:00:19.000Z</time>
      </trkpt>
      <trkpt lat="43.40421002358198" lon="-6.22026214376092">
        <ele>151.6</ele>
        <time>2017-08-03T10:00:24.000Z</time>
      </trkpt>
      <trkpt lat="43.40422066859901" lon="-6.220321236178279">
        <ele>152</ele>
        <time>2017-08-03T10:00:28.000Z</time>
      </trkpt>
      <trkpt lat="43.40422217734158" lon="-6.22033984400332">
        <ele>152</ele>
        <time>2017-08-03T10:00:29.000Z</time>
      </trkpt>
      <trkpt lat="43.40423475019634" lon="-6.220426429063082">
        <ele>152.6</ele>
        <time>2017-08-03T10:00:35.000Z</time>
      </trkpt>
      <trkpt lat="43.404243383556604" lon="-6.220434475690126">
        <ele>152.4</ele>
        <time>2017-08-03T10:00:36.000Z</time>
      </trkpt>
      <trkpt lat="43.4042573813349" lon="-6.220486778765917">
        <ele>152.4</ele>
        <time>2017-08-03T10:00:40.000Z</time>
      </trkpt>
      <trkpt lat="43.40425880625844" lon="-6.220542686060071">
        <ele>153</ele>
        <time>2017-08-03T10:00:43.000Z</time>
      </trkpt>
      <trkpt lat="43.40426207520068" lon="-6.220559952780604">
        <ele>153</ele>
        <time>2017-08-03T10:00:44.000Z</time>
      </trkpt>
      <trkpt lat="43.40426668524742" lon="-6.220637820661068">
        <ele>153.6</ele>
        <time>2017-08-03T10:00:50.000Z</time>
      </trkpt>
      <trkpt lat="43.40424170717597" lon="-6.220740247517824">
        <ele>155.2</ele>
        <time>2017-08-03T10:00:56.000Z</time>
      </trkpt>
      <trkpt lat="43.40423692949116" lon="-6.220857175067067">
        <ele>155.4</ele>
        <time>2017-08-03T10:01:03.000Z</time>
      </trkpt>
      <trkpt lat="43.40422854758799" lon="-6.22100193053484">
        <ele>156</ele>
        <time>2017-08-03T10:01:11.000Z</time>
      </trkpt>
      <trkpt lat="43.40422251261771" lon="-6.221061190590262">
        <ele>156.2</ele>
        <time>2017-08-03T10:01:15.000Z</time>
      </trkpt>
      <trkpt lat="43.40422896668315" lon="-6.221104776486754">
        <ele>156</ele>
        <time>2017-08-03T10:01:18.000Z</time>
      </trkpt>
      <trkpt lat="43.40423743240535" lon="-6.221176525577903">
        <ele>155.8</ele>
        <time>2017-08-03T10:01:23.000Z</time>
      </trkpt>
      <trkpt lat="43.404249250888824" lon="-6.2212051916867495">
        <ele>155.4</ele>
        <time>2017-08-03T10:01:25.000Z</time>
      </trkpt>
      <trkpt lat="43.40425645932555" lon="-6.221246346831322">
        <ele>155.2</ele>
        <time>2017-08-03T10:01:28.000Z</time>
      </trkpt>
      <trkpt lat="43.40427489951253" lon="-6.221322789788246">
        <ele>154.6</ele>
        <time>2017-08-03T10:01:33.000Z</time>
      </trkpt>
      <trkpt lat="43.40428068302572" lon="-6.221338715404272">
        <ele>154.4</ele>
        <time>2017-08-03T10:01:34.000Z</time>
      </trkpt>
      <trkpt lat="43.4042935911566" lon="-6.221400825306773">
        <ele>153.8</ele>
        <time>2017-08-03T10:01:38.000Z</time>
      </trkpt>
      <trkpt lat="43.404304487630725" lon="-6.221428485587239">
        <ele>153.4</ele>
        <time>2017-08-03T10:01:40.000Z</time>
      </trkpt>
      <trkpt lat="43.40431806631386" lon="-6.221497720107436">
        <ele>153.2</ele>
        <time>2017-08-03T10:01:44.000Z</time>
      </trkpt>
      <trkpt lat="43.4043163061142" lon="-6.221518339589238">
        <ele>153.4</ele>
        <time>2017-08-03T10:01:45.000Z</time>
      </trkpt>
      <trkpt lat="43.40433365665376" lon="-6.221580617129803">
        <ele>153.4</ele>
        <time>2017-08-03T10:01:49.000Z</time>
      </trkpt>
      <trkpt lat="43.404338266700506" lon="-6.221615569666028">
        <ele>153.4</ele>
        <time>2017-08-03T10:01:51.000Z</time>
      </trkpt>
      <trkpt lat="43.40435075573623" lon="-6.221729647368193">
        <ele>153.8</ele>
        <time>2017-08-03T10:01:58.000Z</time>
      </trkpt>
      <trkpt lat="43.40437514707446" lon="-6.2218159809708595">
        <ele>153.8</ele>
        <time>2017-08-03T10:02:04.000Z</time>
      </trkpt>
      <trkpt lat="43.40437648817897" lon="-6.221847329288721">
        <ele>154</ele>
        <time>2017-08-03T10:02:06.000Z</time>
      </trkpt>
      <trkpt lat="43.40438227169216" lon="-6.221896950155497">
        <ele>154</ele>
        <time>2017-08-03T10:02:09.000Z</time>
      </trkpt>
      <trkpt lat="43.404403142631054" lon="-6.221958138048649">
        <ele>154</ele>
        <time>2017-08-03T10:02:13.000Z</time>
      </trkpt>
      <trkpt lat="43.404398784041405" lon="-6.222044723108411">
        <ele>154.4</ele>
        <time>2017-08-03T10:02:17.000Z</time>
      </trkpt>
      <trkpt lat="43.40440205298364" lon="-6.222059056162834">
        <ele>154.4</ele>
        <time>2017-08-03T10:02:18.000Z</time>
      </trkpt>
      <trkpt lat="43.40440481901169" lon="-6.222077663987875">
        <ele>154.6</ele>
        <time>2017-08-03T10:02:19.000Z</time>
      </trkpt>
      <trkpt lat="43.40441211126745" lon="-6.222128123044968">
        <ele>154.6</ele>
        <time>2017-08-03T10:02:22.000Z</time>
      </trkpt>
      <trkpt lat="43.404415966942906" lon="-6.222162069752812">
        <ele>154.8</ele>
        <time>2017-08-03T10:02:24.000Z</time>
      </trkpt>
      <trkpt lat="43.40441169217229" lon="-6.222219485789537">
        <ele>155.2</ele>
        <time>2017-08-03T10:02:27.000Z</time>
      </trkpt>
      <trkpt lat="43.4044043160975" lon="-6.222279164940119">
        <ele>155.6</ele>
        <time>2017-08-03T10:02:30.000Z</time>
      </trkpt>
      <trkpt lat="43.4043990354985" lon="-6.222294755280018">
        <ele>155.8</ele>
        <time>2017-08-03T10:02:31.000Z</time>
      </trkpt>
      <trkpt lat="43.40437958948314" lon="-6.222371617332101">
        <ele>156.8</ele>
        <time>2017-08-03T10:02:35.000Z</time>
      </trkpt>
      <trkpt lat="43.40437866747379" lon="-6.22245367616415">
        <ele>157.6</ele>
        <time>2017-08-03T10:02:40.000Z</time>
      </trkpt>
      <trkpt lat="43.4043850377202" lon="-6.222538752481341">
        <ele>158.4</ele>
        <time>2017-08-03T10:02:45.000Z</time>
      </trkpt>
      <trkpt lat="43.404388055205345" lon="-6.222579320892692">
        <ele>158.8</ele>
        <time>2017-08-03T10:02:47.000Z</time>
      </trkpt>
      <trkpt lat="43.40439819730818" lon="-6.222631959244609">
        <ele>159</ele>
        <time>2017-08-03T10:02:50.000Z</time>
      </trkpt>
      <trkpt lat="43.40442141517997" lon="-6.222691889852285">
        <ele>159.2</ele>
        <time>2017-08-03T10:02:54.000Z</time>
      </trkpt>
      <trkpt lat="43.40442552231252" lon="-6.2227183766663074">
        <ele>159.4</ele>
        <time>2017-08-03T10:02:56.000Z</time>
      </trkpt>
      <trkpt lat="43.40443775989115" lon="-6.222797082737088">
        <ele>160</ele>
        <time>2017-08-03T10:03:01.000Z</time>
      </trkpt>
      <trkpt lat="43.40443658642471" lon="-6.222807141020894">
        <ele>160.2</ele>
        <time>2017-08-03T10:03:02.000Z</time>
      </trkpt>
      <trkpt lat="43.404459888115525" lon="-6.222933707758784">
        <ele>161</ele>
        <time>2017-08-03T10:03:09.000Z</time>
      </trkpt>
      <trkpt lat="43.404468605294824" lon="-6.223003529012203">
        <ele>161.2</ele>
        <time>2017-08-03T10:03:14.000Z</time>
      </trkpt>
      <trkpt lat="43.40448302216828" lon="-6.2231009267270565">
        <ele>161</ele>
        <time>2017-08-03T10:03:20.000Z</time>
      </trkpt>
      <trkpt lat="43.404484866186976" lon="-6.223115427419543">
        <ele>161</ele>
        <time>2017-08-03T10:03:21.000Z</time>
      </trkpt>
      <trkpt lat="43.40450464747846" lon="-6.2232225481420755">
        <ele>160.6</ele>
        <time>2017-08-03T10:03:27.000Z</time>
      </trkpt>
      <trkpt lat="43.40451244264841" lon="-6.223278287798166">
        <ele>160.6</ele>
        <time>2017-08-03T10:03:30.000Z</time>
      </trkpt>
      <trkpt lat="43.40452124364674" lon="-6.223335703834891">
        <ele>160.4</ele>
        <time>2017-08-03T10:03:33.000Z</time>
      </trkpt>
      <trkpt lat="43.40453180484474" lon="-6.223390689119697">
        <ele>160.2</ele>
        <time>2017-08-03T10:03:36.000Z</time>
      </trkpt>
      <trkpt lat="43.40453281067312" lon="-6.223431006073952">
        <ele>160.2</ele>
        <time>2017-08-03T10:03:38.000Z</time>
      </trkpt>
      <trkpt lat="43.4045441262424" lon="-6.223538797348738">
        <ele>160</ele>
        <time>2017-08-03T10:03:44.000Z</time>
      </trkpt>
      <trkpt lat="43.40454429388046" lon="-6.22358531691134">
        <ele>160.2</ele>
        <time>2017-08-03T10:03:48.000Z</time>
      </trkpt>
      <trkpt lat="43.40453892946243" lon="-6.223611552268267">
        <ele>160.2</ele>
        <time>2017-08-03T10:03:49.000Z</time>
      </trkpt>
      <trkpt lat="43.40453096665442" lon="-6.223685313016176">
        <ele>160.6</ele>
        <time>2017-08-03T10:03:52.000Z</time>
      </trkpt>
      <trkpt lat="43.40452183037996" lon="-6.2237671203911304">
        <ele>160.8</ele>
        <time>2017-08-03T10:03:57.000Z</time>
      </trkpt>
      <trkpt lat="43.40452132746577" lon="-6.22384088113904">
        <ele>160.4</ele>
        <time>2017-08-03T10:04:02.000Z</time>
      </trkpt>
      <trkpt lat="43.404520489275455" lon="-6.2239152286201715">
        <ele>160</ele>
        <time>2017-08-03T10:04:06.000Z</time>
      </trkpt>
      <trkpt lat="43.40451763942838" lon="-6.223978344351053">
        <ele>159.8</ele>
        <time>2017-08-03T10:04:09.000Z</time>
      </trkpt>
      <trkpt lat="43.40452912263572" lon="-6.224023690447211">
        <ele>159.6</ele>
        <time>2017-08-03T10:04:12.000Z</time>
      </trkpt>
      <trkpt lat="43.40452476404607" lon="-6.224076077342033">
        <ele>160</ele>
        <time>2017-08-03T10:04:14.000Z</time>
      </trkpt>
      <trkpt lat="43.40452845208347" lon="-6.224092589691281">
        <ele>160</ele>
        <time>2017-08-03T10:04:15.000Z</time>
      </trkpt>
      <trkpt lat="43.404547311365604" lon="-6.224166937172413">
        <ele>159.6</ele>
        <time>2017-08-03T10:04:21.000Z</time>
      </trkpt>
      <trkpt lat="43.404545886442065" lon="-6.22424446977675">
        <ele>160</ele>
        <time>2017-08-03T10:04:27.000Z</time>
      </trkpt>
      <trkpt lat="43.40454806573689" lon="-6.22428210452199">
        <ele>160</ele>
        <time>2017-08-03T10:04:30.000Z</time>
      </trkpt>
      <trkpt lat="43.40454664081335" lon="-6.2243075016886">
        <ele>160.2</ele>
        <time>2017-08-03T10:04:32.000Z</time>
      </trkpt>
      <trkpt lat="43.404544880613685" lon="-6.224322924390435">
        <ele>160.2</ele>
        <time>2017-08-03T10:04:33.000Z</time>
      </trkpt>
      <trkpt lat="43.40454555116594" lon="-6.224360140040517">
        <ele>160.4</ele>
        <time>2017-08-03T10:04:36.000Z</time>
      </trkpt>
      <trkpt lat="43.4045459702611" lon="-6.224398193880916">
        <ele>160.4</ele>
        <time>2017-08-03T10:04:38.000Z</time>
      </trkpt>
      <trkpt lat="43.40457798913121" lon="-6.224478827789426">
        <ele>159.8</ele>
        <time>2017-08-03T10:04:44.000Z</time>
      </trkpt>
      <trkpt lat="43.40458754450083" lon="-6.224490646272898">
        <ele>159.6</ele>
        <time>2017-08-03T10:04:45.000Z</time>
      </trkpt>
      <trkpt lat="43.40461436659098" lon="-6.224540350958705">
        <ele>159</ele>
        <time>2017-08-03T10:04:49.000Z</time>
      </trkpt>
      <trkpt lat="43.404624508693814" lon="-6.224552085623145">
        <ele>159</ele>
        <time>2017-08-03T10:04:50.000Z</time>
      </trkpt>
      <trkpt lat="43.4046614728868" lon="-6.224625091999769">
        <ele>158.6</ele>
        <time>2017-08-03T10:04:56.000Z</time>
      </trkpt>
      <trkpt lat="43.40467446483672" lon="-6.224682508036494">
        <ele>158.8</ele>
        <time>2017-08-03T10:05:00.000Z</time>
      </trkpt>
      <trkpt lat="43.404710004106164" lon="-6.224776301532984">
        <ele>158.6</ele>
        <time>2017-08-03T10:05:06.000Z</time>
      </trkpt>
      <trkpt lat="43.404727606102824" lon="-6.224829526618123">
        <ele>159</ele>
        <time>2017-08-03T10:05:09.000Z</time>
      </trkpt>
      <trkpt lat="43.40474487282336" lon="-6.224850816652179">
        <ele>158.8</ele>
        <time>2017-08-03T10:05:11.000Z</time>
      </trkpt>
      <trkpt lat="43.40478904545307" lon="-6.224918458610773">
        <ele>159</ele>
        <time>2017-08-03T10:05:16.000Z</time>
      </trkpt>
      <trkpt lat="43.4048118442297" lon="-6.224992386996746">
        <ele>159.6</ele>
        <time>2017-08-03T10:05:21.000Z</time>
      </trkpt>
      <trkpt lat="43.40482550673187" lon="-6.22505659237504">
        <ele>160.4</ele>
        <time>2017-08-03T10:05:25.000Z</time>
      </trkpt>
      <trkpt lat="43.40483866631985" lon="-6.225118031725287">
        <ele>161.2</ele>
        <time>2017-08-03T10:05:28.000Z</time>
      </trkpt>
      <trkpt lat="43.40484797023237" lon="-6.225130017846823">
        <ele>161.2</ele>
        <time>2017-08-03T10:05:29.000Z</time>
      </trkpt>
      <trkpt lat="43.40486465021968" lon="-6.2251968216151">
        <ele>162.2</ele>
        <time>2017-08-03T10:05:33.000Z</time>
      </trkpt>
      <trkpt lat="43.4048652369529" lon="-6.2252311035990715">
        <ele>163</ele>
        <time>2017-08-03T10:05:35.000Z</time>
      </trkpt>
      <trkpt lat="43.40486272238195" lon="-6.2252699956297874">
        <ele>163.8</ele>
        <time>2017-08-03T10:05:38.000Z</time>
      </trkpt>
      <trkpt lat="43.404868841171265" lon="-6.225300505757332">
        <ele>164.2</ele>
        <time>2017-08-03T10:05:42.000Z</time>
      </trkpt>
      <trkpt lat="43.40486926026642" lon="-6.225303774699569">
        <ele>164.4</ele>
        <time>2017-08-03T10:05:43.000Z</time>
      </trkpt>
      <trkpt lat="43.40487873181701" lon="-6.225376864895225">
        <ele>165.6</ele>
        <time>2017-08-03T10:05:55.000Z</time>
      </trkpt>
      <trkpt lat="43.40488677844405" lon="-6.225401759147644">
        <ele>165.8</ele>
        <time>2017-08-03T10:05:57.000Z</time>
      </trkpt>
      <trkpt lat="43.40494302101433" lon="-6.2255041860044">
        <ele>166.6</ele>
        <time>2017-08-03T10:06:04.000Z</time>
      </trkpt>
      <trkpt lat="43.404985684901476" lon="-6.225601667538285">
        <ele>167.6</ele>
        <time>2017-08-03T10:06:11.000Z</time>
      </trkpt>
      <trkpt lat="43.405016865581274" lon="-6.225719349458814">
        <ele>169.4</ele>
        <time>2017-08-03T10:06:18.000Z</time>
      </trkpt>
      <trkpt lat="43.40505902655423" lon="-6.225806353613734">
        <ele>171.2</ele>
        <time>2017-08-03T10:06:24.000Z</time>
      </trkpt>
      <trkpt lat="43.40511669404805" lon="-6.225898554548621">
        <ele>173</ele>
        <time>2017-08-03T10:06:31.000Z</time>
      </trkpt>
      <trkpt lat="43.405166901648045" lon="-6.225969046354294">
        <ele>174</ele>
        <time>2017-08-03T10:06:37.000Z</time>
      </trkpt>
      <trkpt lat="43.4052468650043" lon="-6.226060576736927">
        <ele>175</ele>
        <time>2017-08-03T10:06:45.000Z</time>
      </trkpt>
      <trkpt lat="43.40527921915054" lon="-6.22613207437098">
        <ele>176.4</ele>
        <time>2017-08-03T10:06:50.000Z</time>
      </trkpt>
      <trkpt lat="43.40529615059495" lon="-6.226191921159625">
        <ele>177.8</ele>
        <time>2017-08-03T10:06:54.000Z</time>
      </trkpt>
      <trkpt lat="43.405310148373246" lon="-6.226202063262463">
        <ele>177.8</ele>
        <time>2017-08-03T10:06:56.000Z</time>
      </trkpt>
      <trkpt lat="43.40533688664436" lon="-6.226263586431742">
        <ele>179</ele>
        <time>2017-08-03T10:07:02.000Z</time>
      </trkpt>
      <trkpt lat="43.405350716784596" lon="-6.2262866366654634">
        <ele>178.6</ele>
        <time>2017-08-03T10:07:04.000Z</time>
      </trkpt>
      <trkpt lat="43.40534853748977" lon="-6.226299712434411">
        <ele>178.8</ele>
        <time>2017-08-03T10:07:05.000Z</time>
      </trkpt>
      <trkpt lat="43.40535985305905" lon="-6.226320834830403">
        <ele>178.2</ele>
        <time>2017-08-03T10:07:07.000Z</time>
      </trkpt>
      <trkpt lat="43.405370246618986" lon="-6.226376490667462">
        <ele>178</ele>
        <time>2017-08-03T10:07:11.000Z</time>
      </trkpt>
      <trkpt lat="43.405374521389604" lon="-6.226407252252102">
        <ele>177.8</ele>
        <time>2017-08-03T10:07:13.000Z</time>
      </trkpt>
      <trkpt lat="43.40540084056556" lon="-6.226484198123217">
        <ele>177.2</ele>
        <time>2017-08-03T10:07:19.000Z</time>
      </trkpt>
      <trkpt lat="43.40542766265571" lon="-6.226547481492162">
        <ele>176.6</ele>
        <time>2017-08-03T10:07:24.000Z</time>
      </trkpt>
      <trkpt lat="43.40546043589711" lon="-6.226621074602008">
        <ele>176</ele>
        <time>2017-08-03T10:07:30.000Z</time>
      </trkpt>
      <trkpt lat="43.40548315085471" lon="-6.226647309958935">
        <ele>175.2</ele>
        <time>2017-08-03T10:07:33.000Z</time>
      </trkpt>
      <trkpt lat="43.40550779365003" lon="-6.22668175958097">
        <ele>174.4</ele>
        <time>2017-08-03T10:07:36.000Z</time>
      </trkpt>
      <trkpt lat="43.405535370111465" lon="-6.226755017414689">
        <ele>174</ele>
        <time>2017-08-03T10:07:41.000Z</time>
      </trkpt>
      <trkpt lat="43.40557719580829" lon="-6.2268400099128485">
        <ele>173.2</ele>
        <time>2017-08-03T10:07:47.000Z</time>
      </trkpt>
      <trkpt lat="43.405613573268056" lon="-6.226920308545232">
        <ele>171.8</ele>
        <time>2017-08-03T10:07:53.000Z</time>
      </trkpt>
      <trkpt lat="43.40561877004802" lon="-6.226956183090806">
        <ele>171.6</ele>
        <time>2017-08-03T10:07:56.000Z</time>
      </trkpt>
      <trkpt lat="43.40562731958926" lon="-6.2269863579422235">
        <ele>171.4</ele>
        <time>2017-08-03T10:07:58.000Z</time>
      </trkpt>
      <trkpt lat="43.40565958991647" lon="-6.227056346833706">
        <ele>170</ele>
        <time>2017-08-03T10:08:03.000Z</time>
      </trkpt>
      <trkpt lat="43.40567241422832" lon="-6.227132957428694">
        <ele>169.6</ele>
        <time>2017-08-03T10:08:08.000Z</time>
      </trkpt>
      <trkpt lat="43.40569303371012" lon="-6.227203868329525">
        <ele>169</ele>
        <time>2017-08-03T10:08:13.000Z</time>
      </trkpt>
      <trkpt lat="43.40569353662431" lon="-6.227274443954229">
        <ele>169.4</ele>
        <time>2017-08-03T10:08:17.000Z</time>
      </trkpt>
      <trkpt lat="43.40570057742298" lon="-6.22733898460865">
        <ele>168.4</ele>
        <time>2017-08-03T10:08:21.000Z</time>
      </trkpt>
      <trkpt lat="43.405698481947184" lon="-6.227395227178931">
        <ele>168</ele>
        <time>2017-08-03T10:08:24.000Z</time>
      </trkpt>
      <trkpt lat="43.40570921078324" lon="-6.227403441444039">
        <ele>167.2</ele>
        <time>2017-08-03T10:08:25.000Z</time>
      </trkpt>
      <trkpt lat="43.40571197681129" lon="-6.2274449318647385">
        <ele>166.6</ele>
        <time>2017-08-03T10:08:28.000Z</time>
      </trkpt>
      <trkpt lat="43.40571776032448" lon="-6.227453900501132">
        <ele>166.2</ele>
        <time>2017-08-03T10:08:29.000Z</time>
      </trkpt>
      <trkpt lat="43.40571507811546" lon="-6.227543922141194">
        <ele>165.4</ele>
        <time>2017-08-03T10:08:34.000Z</time>
      </trkpt>
      <trkpt lat="43.40571097098291" lon="-6.227626651525497">
        <ele>165.6</ele>
        <time>2017-08-03T10:08:39.000Z</time>
      </trkpt>
      <trkpt lat="43.40571046806872" lon="-6.227675769478083">
        <ele>165.8</ele>
        <time>2017-08-03T10:08:43.000Z</time>
      </trkpt>
      <trkpt lat="43.40571097098291" lon="-6.2277155835181475">
        <ele>165.8</ele>
        <time>2017-08-03T10:08:45.000Z</time>
      </trkpt>
      <trkpt lat="43.405710216611624" lon="-6.2277688924223185">
        <ele>166</ele>
        <time>2017-08-03T10:08:48.000Z</time>
      </trkpt>
      <trkpt lat="43.405710719525814" lon="-6.227809293195605">
        <ele>166</ele>
        <time>2017-08-03T10:08:50.000Z</time>
      </trkpt>
      <trkpt lat="43.405708875507116" lon="-6.227844329550862">
        <ele>166.2</ele>
        <time>2017-08-03T10:08:52.000Z</time>
      </trkpt>
      <trkpt lat="43.40571482665837" lon="-6.227878779172897">
        <ele>166</ele>
        <time>2017-08-03T10:08:54.000Z</time>
      </trkpt>
      <trkpt lat="43.40571398846805" lon="-6.227910378947854">
        <ele>166.2</ele>
        <time>2017-08-03T10:08:56.000Z</time>
      </trkpt>
      <trkpt lat="43.40572228655219" lon="-6.227991264313459">
        <ele>166</ele>
        <time>2017-08-03T10:09:01.000Z</time>
      </trkpt>
      <trkpt lat="43.405724884942174" lon="-6.228041974827647">
        <ele>166</ele>
        <time>2017-08-03T10:09:04.000Z</time>
      </trkpt>
      <trkpt lat="43.405729327350855" lon="-6.228080028668046">
        <ele>166</ele>
        <time>2017-08-03T10:09:06.000Z</time>
      </trkpt>
      <trkpt lat="43.40572563931346" lon="-6.2280969601124525">
        <ele>166.2</ele>
        <time>2017-08-03T10:09:07.000Z</time>
      </trkpt>
      <trkpt lat="43.4057183470577" lon="-6.228173486888409">
        <ele>164.8</ele>
        <time>2017-08-03T10:09:11.000Z</time>
      </trkpt>
      <trkpt lat="43.40571625158191" lon="-6.2282810267060995">
        <ele>161.2</ele>
        <time>2017-08-03T10:09:17.000Z</time>
      </trkpt>
      <trkpt lat="43.40572572313249" lon="-6.228339951485395">
        <ele>158.8</ele>
        <time>2017-08-03T10:09:21.000Z</time>
      </trkpt>
      <trkpt lat="43.40572807006538" lon="-6.228353278711438">
        <ele>158.2</ele>
        <time>2017-08-03T10:09:22.000Z</time>
      </trkpt>
      <trkpt lat="43.40572387911379" lon="-6.228462494909763">
        <ele>157</ele>
        <time>2017-08-03T10:09:29.000Z</time>
      </trkpt>
      <trkpt lat="43.405721783638" lon="-6.228502225130796">
        <ele>156.6</ele>
        <time>2017-08-03T10:09:39.000Z</time>
      </trkpt>
      <trkpt lat="43.4057114738971" lon="-6.2285322323441505">
        <ele>156.6</ele>
        <time>2017-08-03T10:09:53.000Z</time>
      </trkpt>
      <trkpt lat="43.40569990687072" lon="-6.228557964786887">
        <ele>156.6</ele>
        <time>2017-08-03T10:10:07.000Z</time>
      </trkpt>
      <trkpt lat="43.40570862405002" lon="-6.22863725759089">
        <ele>156</ele>
        <time>2017-08-03T10:10:15.000Z</time>
      </trkpt>
      <trkpt lat="43.40569781139493" lon="-6.22871738858521">
        <ele>155.6</ele>
        <time>2017-08-03T10:10:21.000Z</time>
      </trkpt>
      <trkpt lat="43.40568758547306" lon="-6.228729542344809">
        <ele>155.6</ele>
        <time>2017-08-03T10:10:22.000Z</time>
      </trkpt>
      <trkpt lat="43.405631678178906" lon="-6.228840686380863">
        <ele>155.8</ele>
        <time>2017-08-03T10:10:30.000Z</time>
      </trkpt>
      <trkpt lat="43.40562614612281" lon="-6.228872872889042">
        <ele>155.6</ele>
        <time>2017-08-03T10:10:32.000Z</time>
      </trkpt>
      <trkpt lat="43.40562061406672" lon="-6.228913022205234">
        <ele>155.4</ele>
        <time>2017-08-03T10:10:35.000Z</time>
      </trkpt>
      <trkpt lat="43.405618937686086" lon="-6.228916207328439">
        <ele>155.4</ele>
        <time>2017-08-03T10:10:36.000Z</time>
      </trkpt>
      <trkpt lat="43.40561558492482" lon="-6.228945292532444">
        <ele>155.2</ele>
        <time>2017-08-03T10:10:38.000Z</time>
      </trkpt>
      <trkpt lat="43.40561374090612" lon="-6.2289598770439625">
        <ele>155.2</ele>
        <time>2017-08-03T10:10:39.000Z</time>
      </trkpt>
      <trkpt lat="43.4055991563946" lon="-6.2291050516068935">
        <ele>152.6</ele>
        <time>2017-08-03T10:10:48.000Z</time>
      </trkpt>
      <trkpt lat="43.40559530071914" lon="-6.229200940579176">
        <ele>150.8</ele>
        <time>2017-08-03T10:10:54.000Z</time>
      </trkpt>
      <trkpt lat="43.405590523034334" lon="-6.229286016896367">
        <ele>149.2</ele>
        <time>2017-08-03T10:10:59.000Z</time>
      </trkpt>
      <trkpt lat="43.40559027157724" lon="-6.229308061301708">
        <ele>148.8</ele>
        <time>2017-08-03T10:11:00.000Z</time>
      </trkpt>
      <trkpt lat="43.40557015500963" lon="-6.2294025253504515">
        <ele>148</ele>
        <time>2017-08-03T10:11:05.000Z</time>
      </trkpt>
      <trkpt lat="43.405543668195605" lon="-6.229436555877328">
        <ele>147.8</ele>
        <time>2017-08-03T10:11:09.000Z</time>
      </trkpt>
      <trkpt lat="43.405480552464724" lon="-6.229495899751782">
        <ele>147.8</ele>
        <time>2017-08-03T10:11:15.000Z</time>
      </trkpt>
      <trkpt lat="43.40541793964803" lon="-6.229546442627907">
        <ele>147.6</ele>
        <time>2017-08-03T10:11:21.000Z</time>
      </trkpt>
      <trkpt lat="43.40538810007274" lon="-6.229581814259291">
        <ele>147.6</ele>
        <time>2017-08-03T10:11:24.000Z</time>
      </trkpt>
      <trkpt lat="43.405317356809974" lon="-6.229655323550105">
        <ele>147.4</ele>
        <time>2017-08-03T10:11:31.000Z</time>
      </trkpt>
      <trkpt lat="43.405229933559895" lon="-6.229758420959115">
        <ele>147.2</ele>
        <time>2017-08-03T10:11:39.000Z</time>
      </trkpt>
      <trkpt lat="43.40515893884003" lon="-6.229858249425888">
        <ele>147</ele>
        <time>2017-08-03T10:11:46.000Z</time>
      </trkpt>
      <trkpt lat="43.40508752502501" lon="-6.229962017387152">
        <ele>146.8</ele>
        <time>2017-08-03T10:11:53.000Z</time>
      </trkpt>
      <trkpt lat="43.405034551396966" lon="-6.230037286877632">
        <ele>146.8</ele>
        <time>2017-08-03T10:11:59.000Z</time>
      </trkpt>
      <trkpt lat="43.40496967546642" lon="-6.230152202770114">
        <ele>146.6</ele>
        <time>2017-08-03T10:12:07.000Z</time>
      </trkpt>
      <trkpt lat="43.40492122806609" lon="-6.23026292771101">
        <ele>146.4</ele>
        <time>2017-08-03T10:12:14.000Z</time>
      </trkpt>
      <trkpt lat="43.404874205589294" lon="-6.230394020676613">
        <ele>146.4</ele>
        <time>2017-08-03T10:12:22.000Z</time>
      </trkpt>
      <trkpt lat="43.404834140092134" lon="-6.230495944619179">
        <ele>146.2</ele>
        <time>2017-08-03T10:12:28.000Z</time>
      </trkpt>
      <trkpt lat="43.404768677428365" lon="-6.230621505528688">
        <ele>146</ele>
        <time>2017-08-03T10:12:37.000Z</time>
      </trkpt>
      <trkpt lat="43.40467723086476" lon="-6.230748742818832">
        <ele>146.4</ele>
        <time>2017-08-03T10:12:47.000Z</time>
      </trkpt>
      <trkpt lat="43.404598692432046" lon="-6.23084144666791">
        <ele>146.4</ele>
        <time>2017-08-03T10:12:55.000Z</time>
      </trkpt>
      <trkpt lat="43.40452250093222" lon="-6.230952925980091">
        <ele>146.6</ele>
        <time>2017-08-03T10:13:03.000Z</time>
      </trkpt>
      <trkpt lat="43.404473047703505" lon="-6.231075553223491">
        <ele>147</ele>
        <time>2017-08-03T10:13:11.000Z</time>
      </trkpt>
      <trkpt lat="43.40442929416895" lon="-6.231177980080247">
        <ele>147.2</ele>
        <time>2017-08-03T10:13:18.000Z</time>
      </trkpt>
      <trkpt lat="43.404367519542575" lon="-6.2313188798725605">
        <ele>147.6</ele>
        <time>2017-08-03T10:13:28.000Z</time>
      </trkpt>
      <trkpt lat="43.40430876240134" lon="-6.231457935646176">
        <ele>148</ele>
        <time>2017-08-03T10:13:38.000Z</time>
      </trkpt>
      <trkpt lat="43.404247825965285" lon="-6.231590621173382">
        <ele>148.6</ele>
        <time>2017-08-03T10:13:47.000Z</time>
      </trkpt>
      <trkpt lat="43.40420516207814" lon="-6.231692293658853">
        <ele>149.2</ele>
        <time>2017-08-03T10:13:53.000Z</time>
      </trkpt>
      <trkpt lat="43.40416744351387" lon="-6.231745015829802">
        <ele>149.4</ele>
        <time>2017-08-03T10:13:58.000Z</time>
      </trkpt>
      <trkpt lat="43.40415897779167" lon="-6.231757504865527">
        <ele>149.4</ele>
        <time>2017-08-03T10:13:59.000Z</time>
      </trkpt>
      <trkpt lat="43.40413584373891" lon="-6.231834450736642">
        <ele>149.8</ele>
        <time>2017-08-03T10:14:04.000Z</time>
      </trkpt>
      <trkpt lat="43.40413039550185" lon="-6.231849705800414">
        <ele>149.8</ele>
        <time>2017-08-03T10:14:05.000Z</time>
      </trkpt>
      <trkpt lat="43.40412092395127" lon="-6.231858758255839">
        <ele>150</ele>
        <time>2017-08-03T10:14:06.000Z</time>
      </trkpt>
      <trkpt lat="43.40408337302506" lon="-6.231912486255169">
        <ele>150.2</ele>
        <time>2017-08-03T10:14:10.000Z</time>
      </trkpt>
      <trkpt lat="43.40402863919735" lon="-6.232002591714263">
        <ele>150.6</ele>
        <time>2017-08-03T10:14:17.000Z</time>
      </trkpt>
      <trkpt lat="43.40397382155061" lon="-6.232077274471521">
        <ele>151</ele>
        <time>2017-08-03T10:14:23.000Z</time>
      </trkpt>
      <trkpt lat="43.40395747683942" lon="-6.232085069641471">
        <ele>151</ele>
        <time>2017-08-03T10:14:25.000Z</time>
      </trkpt>
      <trkpt lat="43.403894528746605" lon="-6.232095547020435">
        <ele>151</ele>
        <time>2017-08-03T10:14:30.000Z</time>
      </trkpt>
      <trkpt lat="43.403801238164306" lon="-6.23210116289556">
        <ele>151.2</ele>
        <time>2017-08-03T10:14:38.000Z</time>
      </trkpt>
      <trkpt lat="43.40372487902641" lon="-6.232082135975361">
        <ele>151</ele>
        <time>2017-08-03T10:14:44.000Z</time>
      </trkpt>
      <trkpt lat="43.40364759787917" lon="-6.232079537585378">
        <ele>151</ele>
        <time>2017-08-03T10:14:51.000Z</time>
      </trkpt>
      <trkpt lat="43.40354181826115" lon="-6.232115663588047">
        <ele>151.2</ele>
        <time>2017-08-03T10:14:59.000Z</time>
      </trkpt>
      <trkpt lat="43.40345297008753" lon="-6.2321617640554905">
        <ele>151.4</ele>
        <time>2017-08-03T10:15:07.000Z</time>
      </trkpt>
      <trkpt lat="43.403387842699885" lon="-6.232240051031113">
        <ele>151.8</ele>
        <time>2017-08-03T10:15:15.000Z</time>
      </trkpt>
      <trkpt lat="43.40334417298436" lon="-6.232315320521593">
        <ele>152.2</ele>
        <time>2017-08-03T10:15:21.000Z</time>
      </trkpt>
      <trkpt lat="43.40333201922476" lon="-6.23234105296433">
        <ele>152.4</ele>
        <time>2017-08-03T10:15:25.000Z</time>
      </trkpt>
      <trkpt lat="43.40331919491291" lon="-6.232345663011074">
        <ele>152.4</ele>
        <time>2017-08-03T10:15:27.000Z</time>
      </trkpt>
      <trkpt lat="43.403274938464165" lon="-6.232354464009404">
        <ele>152.4</ele>
        <time>2017-08-03T10:15:33.000Z</time>
      </trkpt>
      <trkpt lat="43.403291115537286" lon="-6.232353877276182">
        <ele>152.4</ele>
        <time>2017-08-03T10:15:40.000Z</time>
      </trkpt>
      <trkpt lat="43.40327066369355" lon="-6.23240752145648">
        <ele>152.8</ele>
        <time>2017-08-03T10:16:27.000Z</time>
      </trkpt>
      <trkpt lat="43.40322330594063" lon="-6.232406096532941">
        <ele>152.8</ele>
        <time>2017-08-03T10:16:32.000Z</time>
      </trkpt>
      <trkpt lat="43.4031434264034" lon="-6.23240802437067">
        <ele>152.8</ele>
        <time>2017-08-03T10:16:41.000Z</time>
      </trkpt>
      <trkpt lat="43.4031072165817" lon="-6.232413724064827">
        <ele>153</ele>
        <time>2017-08-03T10:16:47.000Z</time>
      </trkpt>
      <trkpt lat="43.4030176140368" lon="-6.232396960258484">
        <ele>152.8</ele>
        <time>2017-08-03T10:16:56.000Z</time>
      </trkpt>
      <trkpt lat="43.402936393395066" lon="-6.2323853094130754">
        <ele>152.6</ele>
        <time>2017-08-03T10:17:03.000Z</time>
      </trkpt>
      <trkpt lat="43.402853244915605" lon="-6.232399642467499">
        <ele>152.8</ele>
        <time>2017-08-03T10:17:10.000Z</time>
      </trkpt>
      <trkpt lat="43.402747297659516" lon="-6.232407186180353">
        <ele>152.8</ele>
        <time>2017-08-03T10:17:19.000Z</time>
      </trkpt>
      <trkpt lat="43.40266389772296" lon="-6.232417915016413">
        <ele>153</ele>
        <time>2017-08-03T10:17:26.000Z</time>
      </trkpt>
      <trkpt lat="43.40257002040744" lon="-6.232440881431103">
        <ele>152.6</ele>
        <time>2017-08-03T10:17:34.000Z</time>
      </trkpt>
      <trkpt lat="43.402496008202434" lon="-6.232482371851802">
        <ele>152.4</ele>
        <time>2017-08-03T10:17:42.000Z</time>
      </trkpt>
      <trkpt lat="43.40250078588724" lon="-6.232480863109231">
        <ele>152.4</ele>
        <time>2017-08-03T10:17:51.000Z</time>
      </trkpt>
      <trkpt lat="43.40244169346988" lon="-6.232519084587693">
        <ele>152.4</ele>
        <time>2017-08-03T10:18:09.000Z</time>
      </trkpt>
      <trkpt lat="43.40235510841012" lon="-6.2325935158878565">
        <ele>152.4</ele>
        <time>2017-08-03T10:18:18.000Z</time>
      </trkpt>
      <trkpt lat="43.40223457664251" lon="-6.2326521053910255">
        <ele>152.4</ele>
        <time>2017-08-03T10:18:28.000Z</time>
      </trkpt>
      <trkpt lat="43.40213667601347" lon="-6.23268554918468">
        <ele>152.4</ele>
        <time>2017-08-03T10:18:36.000Z</time>
      </trkpt>
      <trkpt lat="43.402027040719986" lon="-6.232717148959637">
        <ele>152.6</ele>
        <time>2017-08-03T10:18:45.000Z</time>
      </trkpt>
      <trkpt lat="43.401943892240524" lon="-6.23274807818234">
        <ele>152.6</ele>
        <time>2017-08-03T10:18:52.000Z</time>
      </trkpt>
      <trkpt lat="43.40179611928761" lon="-6.232801470905542">
        <ele>152.6</ele>
        <time>2017-08-03T10:19:04.000Z</time>
      </trkpt>
      <trkpt lat="43.40168950147927" lon="-6.232851427048445">
        <ele>152.8</ele>
        <time>2017-08-03T10:19:13.000Z</time>
      </trkpt>
      <trkpt lat="43.40159327723086" lon="-6.232877830043435">
        <ele>153</ele>
        <time>2017-08-03T10:19:21.000Z</time>
      </trkpt>
      <trkpt lat="43.40151163749397" lon="-6.2329151295125484">
        <ele>153.2</ele>
        <time>2017-08-03T10:19:29.000Z</time>
      </trkpt>
      <trkpt lat="43.401406947523355" lon="-6.232997188344598">
        <ele>153.4</ele>
        <time>2017-08-03T10:19:39.000Z</time>
      </trkpt>
      <trkpt lat="43.40129915624857" lon="-6.233091987669468">
        <ele>153.6</ele>
        <time>2017-08-03T10:19:49.000Z</time>
      </trkpt>
      <trkpt lat="43.40121768414974" lon="-6.233172118663788">
        <ele>153.8</ele>
        <time>2017-08-03T10:19:57.000Z</time>
      </trkpt>
      <trkpt lat="43.40112238191068" lon="-6.233261302113533">
        <ele>154</ele>
        <time>2017-08-03T10:20:06.000Z</time>
      </trkpt>
      <trkpt lat="43.401016015559435" lon="-6.233366327360272">
        <ele>154.2</ele>
        <time>2017-08-03T10:20:16.000Z</time>
      </trkpt>
      <trkpt lat="43.40092993341386" lon="-6.233465988188982">
        <ele>154.4</ele>
        <time>2017-08-03T10:20:25.000Z</time>
      </trkpt>
      <trkpt lat="43.40083999559283" lon="-6.2335453648120165">
        <ele>154.6</ele>
        <time>2017-08-03T10:20:33.000Z</time>
      </trkpt>
      <trkpt lat="43.400757014751434" lon="-6.233607558533549">
        <ele>154.6</ele>
        <time>2017-08-03T10:20:41.000Z</time>
      </trkpt>
      <trkpt lat="43.40066984295845" lon="-6.233669752255082">
        <ele>154.6</ele>
        <time>2017-08-03T10:20:49.000Z</time>
      </trkpt>
      <trkpt lat="43.4005980938673" lon="-6.233714846894145">
        <ele>154.8</ele>
        <time>2017-08-03T10:20:56.000Z</time>
      </trkpt>
      <trkpt lat="43.40057889930904" lon="-6.2337317783385515">
        <ele>154.8</ele>
        <time>2017-08-03T10:20:58.000Z</time>
      </trkpt>
      <trkpt lat="43.40054419822991" lon="-6.2337523978203535">
        <ele>154.8</ele>
        <time>2017-08-03T10:21:01.000Z</time>
      </trkpt>
      <trkpt lat="43.40051159262657" lon="-6.233779974281788">
        <ele>154.8</ele>
        <time>2017-08-03T10:21:04.000Z</time>
      </trkpt>
      <trkpt lat="43.400444872677326" lon="-6.233837641775608">
        <ele>154.8</ele>
        <time>2017-08-03T10:21:11.000Z</time>
      </trkpt>
      <trkpt lat="43.40042592957616" lon="-6.233870750293136">
        <ele>154.8</ele>
        <time>2017-08-03T10:21:14.000Z</time>
      </trkpt>
      <trkpt lat="43.40042064897716" lon="-6.233884748071432">
        <ele>155</ele>
        <time>2017-08-03T10:21:17.000Z</time>
      </trkpt>
      <trkpt lat="43.40039173141122" lon="-6.233951719477773">
        <ele>155</ele>
        <time>2017-08-03T10:21:23.000Z</time>
      </trkpt>
      <trkpt lat="43.40034730732441" lon="-6.234066467732191">
        <ele>155.4</ele>
        <time>2017-08-03T10:21:31.000Z</time>
      </trkpt>
      <trkpt lat="43.40030481107533" lon="-6.234208457171917">
        <ele>156</ele>
        <time>2017-08-03T10:21:40.000Z</time>
      </trkpt>
      <trkpt lat="43.400295339524746" lon="-6.234323121607304">
        <ele>156.4</ele>
        <time>2017-08-03T10:21:47.000Z</time>
      </trkpt>
      <trkpt lat="43.400294249877334" lon="-6.234433427453041">
        <ele>156.8</ele>
        <time>2017-08-03T10:21:54.000Z</time>
      </trkpt>
      <trkpt lat="43.400314869359136" lon="-6.2345596589148045">
        <ele>157.2</ele>
        <time>2017-08-03T10:22:02.000Z</time>
      </trkpt>
      <trkpt lat="43.40035409666598" lon="-6.234665270894766">
        <ele>157.6</ele>
        <time>2017-08-03T10:22:09.000Z</time>
      </trkpt>
      <trkpt lat="43.40038636699319" lon="-6.234759986400604">
        <ele>157.8</ele>
        <time>2017-08-03T10:22:16.000Z</time>
      </trkpt>
      <trkpt lat="43.40038108639419" lon="-6.23477834276855">
        <ele>158</ele>
        <time>2017-08-03T10:22:17.000Z</time>
      </trkpt>
      <trkpt lat="43.400386199355125" lon="-6.234790496528149">
        <ele>158</ele>
        <time>2017-08-03T10:22:21.000Z</time>
      </trkpt>
      <trkpt lat="43.40040363371372" lon="-6.234811283648014">
        <ele>158.2</ele>
        <time>2017-08-03T10:22:28.000Z</time>
      </trkpt>
      <trkpt lat="43.40037463232875" lon="-6.234855707734823">
        <ele>158.4</ele>
        <time>2017-08-03T10:22:34.000Z</time>
      </trkpt>
      <trkpt lat="43.40029751881957" lon="-6.234951009973884">
        <ele>159.2</ele>
        <time>2017-08-03T10:22:43.000Z</time>
      </trkpt>
      <trkpt lat="43.40027061291039" lon="-6.234988812357187">
        <ele>159.4</ele>
        <time>2017-08-03T10:22:46.000Z</time>
      </trkpt>
      <trkpt lat="43.40025695040822" lon="-6.235018400475383">
        <ele>159.6</ele>
        <time>2017-08-03T10:22:48.000Z</time>
      </trkpt>
      <trkpt lat="43.40021738782525" lon="-6.235117809846997">
        <ele>160.4</ele>
        <time>2017-08-03T10:22:55.000Z</time>
      </trkpt>
      <trkpt lat="43.40017430484295" lon="-6.235216381028295">
        <ele>161</ele>
        <time>2017-08-03T10:23:02.000Z</time>
      </trkpt>
      <trkpt lat="43.400115463882685" lon="-6.235330626368523">
        <ele>161.6</ele>
        <time>2017-08-03T10:23:11.000Z</time>
      </trkpt>
      <trkpt lat="43.4000906534493" lon="-6.235430287197232">
        <ele>162.2</ele>
        <time>2017-08-03T10:23:18.000Z</time>
      </trkpt>
      <trkpt lat="43.40009165927768" lon="-6.235505389049649">
        <ele>162.8</ele>
        <time>2017-08-03T10:23:24.000Z</time>
      </trkpt>
      <trkpt lat="43.40009031817317" lon="-6.235520392656326">
        <ele>162.8</ele>
        <time>2017-08-03T10:23:25.000Z</time>
      </trkpt>
      <trkpt lat="43.40009802952409" lon="-6.235557775944471">
        <ele>163.2</ele>
        <time>2017-08-03T10:23:28.000Z</time>
      </trkpt>
      <trkpt lat="43.400125689804554" lon="-6.235623490065336">
        <ele>163.8</ele>
        <time>2017-08-03T10:23:33.000Z</time>
      </trkpt>
      <trkpt lat="43.40017665177584" lon="-6.235703118145466">
        <ele>164.4</ele>
        <time>2017-08-03T10:23:39.000Z</time>
      </trkpt>
      <trkpt lat="43.40018318966031" lon="-6.235714517533779">
        <ele>164.4</ele>
        <time>2017-08-03T10:23:40.000Z</time>
      </trkpt>
      <trkpt lat="43.40018964372575" lon="-6.235792217776179">
        <ele>164.8</ele>
        <time>2017-08-03T10:23:45.000Z</time>
      </trkpt>
      <trkpt lat="43.40017715469003" lon="-6.2358027789741755">
        <ele>165</ele>
        <time>2017-08-03T10:23:46.000Z</time>
      </trkpt>
      <trkpt lat="43.400177070870996" lon="-6.235848963260651">
        <ele>165.2</ele>
        <time>2017-08-03T10:23:49.000Z</time>
      </trkpt>
      <trkpt lat="43.40016642585397" lon="-6.235883077606559">
        <ele>165.6</ele>
        <time>2017-08-03T10:23:51.000Z</time>
      </trkpt>
      <trkpt lat="43.40016609057784" lon="-6.235976368188858">
        <ele>166</ele>
        <time>2017-08-03T10:23:56.000Z</time>
      </trkpt>
      <trkpt lat="43.40017531067133" lon="-6.236007548868656">
        <ele>166.2</ele>
        <time>2017-08-03T10:23:58.000Z</time>
      </trkpt>
      <trkpt lat="43.4002164658159" lon="-6.236173678189516">
        <ele>167</ele>
        <time>2017-08-03T10:24:08.000Z</time>
      </trkpt>
      <trkpt lat="43.400249322876334" lon="-6.236281720921397">
        <ele>167.6</ele>
        <time>2017-08-03T10:24:15.000Z</time>
      </trkpt>
      <trkpt lat="43.40026231482625" lon="-6.236381130293012">
        <ele>168.2</ele>
        <time>2017-08-03T10:24:21.000Z</time>
      </trkpt>
      <trkpt lat="43.40025627985597" lon="-6.2364032585173845">
        <ele>168.2</ele>
        <time>2017-08-03T10:24:24.000Z</time>
      </trkpt>
      <trkpt lat="43.4002526756376" lon="-6.236407952383161">
        <ele>168.2</ele>
        <time>2017-08-03T10:24:26.000Z</time>
      </trkpt>
      <trkpt lat="43.40024027042091" lon="-6.23645531013608">
        <ele>168.6</ele>
        <time>2017-08-03T10:24:43.000Z</time>
      </trkpt>
      <trkpt lat="43.400230295956135" lon="-6.236501159146428">
        <ele>168.6</ele>
        <time>2017-08-03T10:24:46.000Z</time>
      </trkpt>
      <trkpt lat="43.40019978582859" lon="-6.236601155251265">
        <ele>169</ele>
        <time>2017-08-03T10:24:52.000Z</time>
      </trkpt>
      <trkpt lat="43.4001958463341" lon="-6.236678184941411">
        <ele>169</ele>
        <time>2017-08-03T10:24:57.000Z</time>
      </trkpt>
      <trkpt lat="43.400193667039275" lon="-6.236699391156435">
        <ele>169</ele>
        <time>2017-08-03T10:24:58.000Z</time>
      </trkpt>
      <trkpt lat="43.40020665898919" lon="-6.2368102837353945">
        <ele>169.2</ele>
        <time>2017-08-03T10:25:05.000Z</time>
      </trkpt>
      <trkpt lat="43.40021738782525" lon="-6.236872393637896">
        <ele>169.2</ele>
        <time>2017-08-03T10:25:09.000Z</time>
      </trkpt>
      <trkpt lat="43.40023641474545" lon="-6.2369416281580925">
        <ele>169.2</ele>
        <time>2017-08-03T10:25:13.000Z</time>
      </trkpt>
      <trkpt lat="43.400243455544114" lon="-6.236953949555755">
        <ele>169.2</ele>
        <time>2017-08-03T10:25:14.000Z</time>
      </trkpt>
      <trkpt lat="43.400252256542444" lon="-6.237007509917021">
        <ele>169.2</ele>
        <time>2017-08-03T10:25:18.000Z</time>
      </trkpt>
      <trkpt lat="43.40025661513209" lon="-6.237019915133715">
        <ele>169.2</ele>
        <time>2017-08-03T10:25:19.000Z</time>
      </trkpt>
      <trkpt lat="43.40027220547199" lon="-6.2371256947517395">
        <ele>169.2</ele>
        <time>2017-08-03T10:25:25.000Z</time>
      </trkpt>
      <trkpt lat="43.40029316022992" lon="-6.237252512946725">
        <ele>169.6</ele>
        <time>2017-08-03T10:25:33.000Z</time>
      </trkpt>
      <trkpt lat="43.4003047272563" lon="-6.237368686124682">
        <ele>170</ele>
        <time>2017-08-03T10:25:41.000Z</time>
      </trkpt>
      <trkpt lat="43.40031377971172" lon="-6.237482680007815">
        <ele>170.6</ele>
        <time>2017-08-03T10:25:48.000Z</time>
      </trkpt>
      <trkpt lat="43.400324676185846" lon="-6.237607318907976">
        <ele>171.2</ele>
        <time>2017-08-03T10:25:55.000Z</time>
      </trkpt>
      <trkpt lat="43.400332974269986" lon="-6.237706812098622">
        <ele>171.6</ele>
        <time>2017-08-03T10:26:01.000Z</time>
      </trkpt>
      <trkpt lat="43.40033959597349" lon="-6.237761462107301">
        <ele>171.8</ele>
        <time>2017-08-03T10:26:04.000Z</time>
      </trkpt>
      <trkpt lat="43.40033498592675" lon="-6.237777806818485">
        <ele>172</ele>
        <time>2017-08-03T10:26:05.000Z</time>
      </trkpt>
      <trkpt lat="43.40033942833543" lon="-6.237850310280919">
        <ele>172.2</ele>
        <time>2017-08-03T10:26:09.000Z</time>
      </trkpt>
      <trkpt lat="43.400340266525745" lon="-6.237868834286928">
        <ele>172.4</ele>
        <time>2017-08-03T10:26:10.000Z</time>
      </trkpt>
      <trkpt lat="43.400349989533424" lon="-6.237973775714636">
        <ele>172.6</ele>
        <time>2017-08-03T10:26:17.000Z</time>
      </trkpt>
      <trkpt lat="43.400362730026245" lon="-6.238088943064213">
        <ele>172.8</ele>
        <time>2017-08-03T10:26:24.000Z</time>
      </trkpt>
      <trkpt lat="43.40037404559553" lon="-6.238206122070551">
        <ele>173.4</ele>
        <time>2017-08-03T10:26:31.000Z</time>
      </trkpt>
      <trkpt lat="43.40035552158952" lon="-6.238341825082898">
        <ele>174</ele>
        <time>2017-08-03T10:26:39.000Z</time>
      </trkpt>
      <trkpt lat="43.40035066008568" lon="-6.2383620254695415">
        <ele>174.2</ele>
        <time>2017-08-03T10:26:42.000Z</time>
      </trkpt>
      <trkpt lat="43.40032048523426" lon="-6.238448191434145">
        <ele>174.8</ele>
        <time>2017-08-03T10:26:48.000Z</time>
      </trkpt>
      <trkpt lat="43.4002872928977" lon="-6.238566543906927">
        <ele>175.4</ele>
        <time>2017-08-03T10:26:55.000Z</time>
      </trkpt>
      <trkpt lat="43.40025988407433" lon="-6.238697804510593">
        <ele>176.2</ele>
        <time>2017-08-03T10:27:03.000Z</time>
      </trkpt>
      <trkpt lat="43.40023356489837" lon="-6.238815318793058">
        <ele>177</ele>
        <time>2017-08-03T10:27:11.000Z</time>
      </trkpt>
      <trkpt lat="43.40018964372575" lon="-6.238967115059495">
        <ele>177.8</ele>
        <time>2017-08-03T10:27:21.000Z</time>
      </trkpt>
      <trkpt lat="43.40012191794813" lon="-6.239075995981693">
        <ele>178.6</ele>
        <time>2017-08-03T10:27:30.000Z</time>
      </trkpt>
      <trkpt lat="43.40006114915013" lon="-6.2391624972224236">
        <ele>179.4</ele>
        <time>2017-08-03T10:27:37.000Z</time>
      </trkpt>
      <trkpt lat="43.3999764919281" lon="-6.239294428378344">
        <ele>180.2</ele>
        <time>2017-08-03T10:27:47.000Z</time>
      </trkpt>
      <trkpt lat="43.39991538785398" lon="-6.239390820264816">
        <ele>181</ele>
        <time>2017-08-03T10:27:54.000Z</time>
      </trkpt>
      <trkpt lat="43.399887727573514" lon="-6.239498779177666">
        <ele>181.6</ele>
        <time>2017-08-03T10:28:01.000Z</time>
      </trkpt>
      <trkpt lat="43.39986400678754" lon="-6.239607241004705">
        <ele>182.2</ele>
        <time>2017-08-03T10:28:08.000Z</time>
      </trkpt>
      <trkpt lat="43.39985327795148" lon="-6.239717127755284">
        <ele>182.8</ele>
        <time>2017-08-03T10:28:15.000Z</time>
      </trkpt>
      <trkpt lat="43.39984749443829" lon="-6.239842101931572">
        <ele>183</ele>
        <time>2017-08-03T10:28:22.000Z</time>
      </trkpt>
      <trkpt lat="43.399842297658324" lon="-6.239975374191999">
        <ele>183.2</ele>
        <time>2017-08-03T10:28:30.000Z</time>
      </trkpt>
      <trkpt lat="43.39987683109939" lon="-6.24014301225543">
        <ele>183.2</ele>
        <time>2017-08-03T10:28:40.000Z</time>
      </trkpt>
      <trkpt lat="43.399912705644965" lon="-6.24018844217062">
        <ele>183.2</ele>
        <time>2017-08-03T10:28:44.000Z</time>
      </trkpt>
      <trkpt lat="43.399963080883026" lon="-6.240212917327881">
        <ele>183.2</ele>
        <time>2017-08-03T10:28:48.000Z</time>
      </trkpt>
      <trkpt lat="43.40011529624462" lon="-6.240683393552899">
        <ele>184</ele>
        <time>2017-08-03T10:29:11.000Z</time>
      </trkpt>
      <trkpt lat="43.40017631649971" lon="-6.240661349147558">
        <ele>183.8</ele>
        <time>2017-08-03T10:29:13.000Z</time>
      </trkpt>
      <trkpt lat="43.400215627625585" lon="-6.240647854283452">
        <ele>183.6</ele>
        <time>2017-08-03T10:29:15.000Z</time>
      </trkpt>
      <trkpt lat="43.400236666202545" lon="-6.240663109347224">
        <ele>183.4</ele>
        <time>2017-08-03T10:29:17.000Z</time>
      </trkpt>
      <trkpt lat="43.40023976750672" lon="-6.240672580897808">
        <ele>183.4</ele>
        <time>2017-08-03T10:29:18.000Z</time>
      </trkpt>
      <trkpt lat="43.40024027042091" lon="-6.2406480219215155">
        <ele>183.4</ele>
        <time>2017-08-03T10:29:21.000Z</time>
      </trkpt>
      <trkpt lat="43.40027069672942" lon="-6.240700660273433">
        <ele>183.2</ele>
        <time>2017-08-03T10:29:34.000Z</time>
      </trkpt>
      <trkpt lat="43.40031227096915" lon="-6.240814905613661">
        <ele>183</ele>
        <time>2017-08-03T10:29:42.000Z</time>
      </trkpt>
      <trkpt lat="43.400345630943775" lon="-6.240960080176592">
        <ele>182.8</ele>
        <time>2017-08-03T10:29:51.000Z</time>
      </trkpt>
      <trkpt lat="43.400349989533424" lon="-6.241134339943528">
        <ele>182.8</ele>
        <time>2017-08-03T10:30:01.000Z</time>
      </trkpt>
      <trkpt lat="43.40033280663192" lon="-6.241283537819982">
        <ele>183</ele>
        <time>2017-08-03T10:30:10.000Z</time>
      </trkpt>
      <trkpt lat="43.4003150369972" lon="-6.241418570280075">
        <ele>183.4</ele>
        <time>2017-08-03T10:30:18.000Z</time>
      </trkpt>
      <trkpt lat="43.40030003339052" lon="-6.241532564163208">
        <ele>183.8</ele>
        <time>2017-08-03T10:30:25.000Z</time>
      </trkpt>
      <trkpt lat="43.40028343722224" lon="-6.241661980748177">
        <ele>184.2</ele>
        <time>2017-08-03T10:30:33.000Z</time>
      </trkpt>
      <trkpt lat="43.40026759542525" lon="-6.241819141432643">
        <ele>184.6</ele>
        <time>2017-08-03T10:30:43.000Z</time>
      </trkpt>
      <trkpt lat="43.40028427541256" lon="-6.241904804483056">
        <ele>184.8</ele>
        <time>2017-08-03T10:30:51.000Z</time>
      </trkpt>
      <trkpt lat="43.40030581690371" lon="-6.2419291120022535">
        <ele>184.8</ele>
        <time>2017-08-03T10:30:57.000Z</time>
      </trkpt>
      <trkpt lat="43.40034789405763" lon="-6.242005471140146">
        <ele>184.8</ele>
        <time>2017-08-03T10:31:03.000Z</time>
      </trkpt>
      <trkpt lat="43.40035367757082" lon="-6.242157435044646">
        <ele>185.4</ele>
        <time>2017-08-03T10:31:12.000Z</time>
      </trkpt>
      <trkpt lat="43.40036549605429" lon="-6.242198757827282">
        <ele>185.6</ele>
        <time>2017-08-03T10:31:15.000Z</time>
      </trkpt>
      <trkpt lat="43.40039290487766" lon="-6.242240080609918">
        <ele>185.8</ele>
        <time>2017-08-03T10:31:18.000Z</time>
      </trkpt>
      <trkpt lat="43.40043590404093" lon="-6.242335634306073">
        <ele>186.2</ele>
        <time>2017-08-03T10:31:25.000Z</time>
      </trkpt>
      <trkpt lat="43.40045769698918" lon="-6.242373939603567">
        <ele>186.4</ele>
        <time>2017-08-03T10:31:31.000Z</time>
      </trkpt>
      <trkpt lat="43.40050312690437" lon="-6.242449963465333">
        <ele>186.8</ele>
        <time>2017-08-03T10:31:37.000Z</time>
      </trkpt>
      <trkpt lat="43.40052668005228" lon="-6.242500841617584">
        <ele>187</ele>
        <time>2017-08-03T10:31:41.000Z</time>
      </trkpt>
      <trkpt lat="43.40054143220186" lon="-6.242527076974511">
        <ele>187.2</ele>
        <time>2017-08-03T10:31:43.000Z</time>
      </trkpt>
      <trkpt lat="43.40056280605495" lon="-6.242561275139451">
        <ele>187.4</ele>
        <time>2017-08-03T10:31:46.000Z</time>
      </trkpt>
      <trkpt lat="43.40058979578316" lon="-6.2426217924803495">
        <ele>187.6</ele>
        <time>2017-08-03T10:31:50.000Z</time>
      </trkpt>
      <trkpt lat="43.40061703696847" lon="-6.24266286380589">
        <ele>187.8</ele>
        <time>2017-08-03T10:31:54.000Z</time>
      </trkpt>
      <trkpt lat="43.40062089264393" lon="-6.242677113041282">
        <ele>187.8</ele>
        <time>2017-08-03T10:31:55.000Z</time>
      </trkpt>
      <trkpt lat="43.400650564581156" lon="-6.242750538513064">
        <ele>188.2</ele>
        <time>2017-08-03T10:32:00.000Z</time>
      </trkpt>
      <trkpt lat="43.40065919794142" lon="-6.24275422655046">
        <ele>188.2</ele>
        <time>2017-08-03T10:32:01.000Z</time>
      </trkpt>
      <trkpt lat="43.40070202946663" lon="-6.242818012833595">
        <ele>188.6</ele>
        <time>2017-08-03T10:32:06.000Z</time>
      </trkpt>
      <trkpt lat="43.40072197839618" lon="-6.242811726406217">
        <ele>188.6</ele>
        <time>2017-08-03T10:32:08.000Z</time>
      </trkpt>
      <trkpt lat="43.40074259787798" lon="-6.242873417213559">
        <ele>188.8</ele>
        <time>2017-08-03T10:32:12.000Z</time>
      </trkpt>
      <trkpt lat="43.40079297311604" lon="-6.24298925511539">
        <ele>189.4</ele>
        <time>2017-08-03T10:32:20.000Z</time>
      </trkpt>
      <trkpt lat="43.40084485709667" lon="-6.243092017248273">
        <ele>189.8</ele>
        <time>2017-08-03T10:32:27.000Z</time>
      </trkpt>
      <trkpt lat="43.40089120902121" lon="-6.243213219568133">
        <ele>190.6</ele>
        <time>2017-08-03T10:32:35.000Z</time>
      </trkpt>
      <trkpt lat="43.400934962555766" lon="-6.2433253694325686">
        <ele>191.2</ele>
        <time>2017-08-03T10:32:42.000Z</time>
      </trkpt>
      <trkpt lat="43.40093580074608" lon="-6.243357975035906">
        <ele>191.4</ele>
        <time>2017-08-03T10:32:44.000Z</time>
      </trkpt>
      <trkpt lat="43.40094728395343" lon="-6.243397369980812">
        <ele>191.6</ele>
        <time>2017-08-03T10:32:47.000Z</time>
      </trkpt>
      <trkpt lat="43.40095633640885" lon="-6.243451768532395">
        <ele>192</ele>
        <time>2017-08-03T10:32:51.000Z</time>
      </trkpt>
      <trkpt lat="43.40095675550401" lon="-6.243460737168789">
        <ele>192</ele>
        <time>2017-08-03T10:32:53.000Z</time>
      </trkpt>
      <trkpt lat="43.40096832253039" lon="-6.243544640019536">
        <ele>192.6</ele>
        <time>2017-08-03T10:33:03.000Z</time>
      </trkpt>
      <trkpt lat="43.40097854845226" lon="-6.243567354977131">
        <ele>192.6</ele>
        <time>2017-08-03T10:33:05.000Z</time>
      </trkpt>
      <trkpt lat="43.40100352652371" lon="-6.24363181181252">
        <ele>192.8</ele>
        <time>2017-08-03T10:33:09.000Z</time>
      </trkpt>
      <trkpt lat="43.40101861394942" lon="-6.243686294183135">
        <ele>193</ele>
        <time>2017-08-03T10:33:13.000Z</time>
      </trkpt>
      <trkpt lat="43.40102473273873" lon="-6.243694676086307">
        <ele>193</ele>
        <time>2017-08-03T10:33:14.000Z</time>
      </trkpt>
      <trkpt lat="43.401029678061604" lon="-6.2437106017023325">
        <ele>193</ele>
        <time>2017-08-03T10:33:15.000Z</time>
      </trkpt>
      <trkpt lat="43.401064379140735" lon="-6.243834989145398">
        <ele>193.4</ele>
        <time>2017-08-03T10:33:22.000Z</time>
      </trkpt>
      <trkpt lat="43.4010576736182" lon="-6.243846891447902">
        <ele>193.6</ele>
        <time>2017-08-03T10:33:23.000Z</time>
      </trkpt>
      <trkpt lat="43.40107494033873" lon="-6.243888046592474">
        <ele>193.6</ele>
        <time>2017-08-03T10:33:26.000Z</time>
      </trkpt>
      <trkpt lat="43.40110654011369" lon="-6.243986031040549">
        <ele>193.6</ele>
        <time>2017-08-03T10:33:32.000Z</time>
      </trkpt>
      <trkpt lat="43.401111820712686" lon="-6.244048308581114">
        <ele>193.4</ele>
        <time>2017-08-03T10:33:36.000Z</time>
      </trkpt>
      <trkpt lat="43.401117604225874" lon="-6.244128774851561">
        <ele>193.4</ele>
        <time>2017-08-03T10:33:41.000Z</time>
      </trkpt>
      <trkpt lat="43.40111844241619" lon="-6.2441447004675865">
        <ele>193.4</ele>
        <time>2017-08-03T10:33:42.000Z</time>
      </trkpt>
      <trkpt lat="43.40112229809165" lon="-6.244178982451558">
        <ele>193.4</ele>
        <time>2017-08-03T10:33:44.000Z</time>
      </trkpt>
      <trkpt lat="43.40112078934908" lon="-6.24421427026391">
        <ele>193.4</ele>
        <time>2017-08-03T10:33:46.000Z</time>
      </trkpt>
      <trkpt lat="43.40111215598881" lon="-6.244330024346709">
        <ele>193.4</ele>
        <time>2017-08-03T10:33:52.000Z</time>
      </trkpt>
      <trkpt lat="43.40111349709332" lon="-6.244345447048545">
        <ele>193.4</ele>
        <time>2017-08-03T10:33:53.000Z</time>
      </trkpt>
      <trkpt lat="43.40112037025392" lon="-6.244420129805803">
        <ele>193.4</ele>
        <time>2017-08-03T10:33:57.000Z</time>
      </trkpt>
      <trkpt lat="43.40113990008831" lon="-6.2444375641644">
        <ele>193.2</ele>
        <time>2017-08-03T10:33:59.000Z</time>
      </trkpt>
      <trkpt lat="43.401165967807174" lon="-6.2445069663226604">
        <ele>192.8</ele>
        <time>2017-08-03T10:34:02.000Z</time>
      </trkpt>
      <trkpt lat="43.40117594227195" lon="-6.244522305205464">
        <ele>192.6</ele>
        <time>2017-08-03T10:34:03.000Z</time>
      </trkpt>
      <trkpt lat="43.401246098801494" lon="-6.244643675163388">
        <ele>192.4</ele>
        <time>2017-08-03T10:34:11.000Z</time>
      </trkpt>
      <trkpt lat="43.40131717734039" lon="-6.244737971574068">
        <ele>192.4</ele>
        <time>2017-08-03T10:34:19.000Z</time>
      </trkpt>
      <trkpt lat="43.4013753477484" lon="-6.244843080639839">
        <ele>192.2</ele>
        <time>2017-08-03T10:34:27.000Z</time>
      </trkpt>
      <trkpt lat="43.40140359476209" lon="-6.244913740083575">
        <ele>192</ele>
        <time>2017-08-03T10:34:32.000Z</time>
      </trkpt>
      <trkpt lat="43.40141935274005" lon="-6.244956739246845">
        <ele>191.8</ele>
        <time>2017-08-03T10:34:35.000Z</time>
      </trkpt>
      <trkpt lat="43.40144030749798" lon="-6.244993032887578">
        <ele>191.8</ele>
        <time>2017-08-03T10:34:38.000Z</time>
      </trkpt>
      <trkpt lat="43.40146126225591" lon="-6.245041228830814">
        <ele>191.6</ele>
        <time>2017-08-03T10:34:41.000Z</time>
      </trkpt>
      <trkpt lat="43.401510464027524" lon="-6.2451377883553505">
        <ele>191.6</ele>
        <time>2017-08-03T10:34:48.000Z</time>
      </trkpt>
      <trkpt lat="43.401519348844886" lon="-6.245156982913613">
        <ele>192</ele>
        <time>2017-08-03T10:34:50.000Z</time>
      </trkpt>
      <trkpt lat="43.40154214762151" lon="-6.245218925178051">
        <ele>192.8</ele>
        <time>2017-08-03T10:34:54.000Z</time>
      </trkpt>
      <trkpt lat="43.401590175926685" lon="-6.245311796665192">
        <ele>194.2</ele>
        <time>2017-08-03T10:35:00.000Z</time>
      </trkpt>
      <trkpt lat="43.40165697969496" lon="-6.245438363403082">
        <ele>196</ele>
        <time>2017-08-03T10:35:08.000Z</time>
      </trkpt>
      <trkpt lat="43.401708360761404" lon="-6.245513465255499">
        <ele>197.2</ele>
        <time>2017-08-03T10:35:14.000Z</time>
      </trkpt>
      <trkpt lat="43.401774913072586" lon="-6.245616227388382">
        <ele>198.8</ele>
        <time>2017-08-03T10:35:22.000Z</time>
      </trkpt>
      <trkpt lat="43.401830568909645" lon="-6.245704991742969">
        <ele>199.4</ele>
        <time>2017-08-03T10:35:29.000Z</time>
      </trkpt>
      <trkpt lat="43.401842806488276" lon="-6.245742458850145">
        <ele>199.4</ele>
        <time>2017-08-03T10:35:32.000Z</time>
      </trkpt>
      <trkpt lat="43.40187197551131" lon="-6.245782189071178">
        <ele>199.4</ele>
        <time>2017-08-03T10:35:35.000Z</time>
      </trkpt>
      <trkpt lat="43.40189904905856" lon="-6.245842957869172">
        <ele>199.6</ele>
        <time>2017-08-03T10:35:40.000Z</time>
      </trkpt>
      <trkpt lat="43.401906257495284" lon="-6.245856871828437">
        <ele>199.6</ele>
        <time>2017-08-03T10:35:41.000Z</time>
      </trkpt>
      <trkpt lat="43.40192553587258" lon="-6.245892075821757">
        <ele>199.6</ele>
        <time>2017-08-03T10:35:44.000Z</time>
      </trkpt>
      <trkpt lat="43.40194062329829" lon="-6.2459297105669975">
        <ele>199.6</ele>
        <time>2017-08-03T10:35:47.000Z</time>
      </trkpt>
      <trkpt lat="43.401972809806466" lon="-6.246015625074506">
        <ele>199.8</ele>
        <time>2017-08-03T10:35:53.000Z</time>
      </trkpt>
      <trkpt lat="43.40197918005288" lon="-6.246030125766993">
        <ele>199.8</ele>
        <time>2017-08-03T10:35:54.000Z</time>
      </trkpt>
      <trkpt lat="43.402009438723326" lon="-6.246112436056137">
        <ele>200</ele>
        <time>2017-08-03T10:36:00.000Z</time>
      </trkpt>
      <trkpt lat="43.40200390666723" lon="-6.246193824335933">
        <ele>200.6</ele>
        <time>2017-08-03T10:36:05.000Z</time>
      </trkpt>
      <trkpt lat="43.40199552476406" lon="-6.246225507929921">
        <ele>200.8</ele>
        <time>2017-08-03T10:36:07.000Z</time>
      </trkpt>
      <trkpt lat="43.40199359692633" lon="-6.2462731171399355">
        <ele>201.2</ele>
        <time>2017-08-03T10:36:10.000Z</time>
      </trkpt>
      <trkpt lat="43.40198211371899" lon="-6.246327431872487">
        <ele>201.8</ele>
        <time>2017-08-03T10:36:14.000Z</time>
      </trkpt>
      <trkpt lat="43.40197783894837" lon="-6.246366826817393">
        <ele>202.2</ele>
        <time>2017-08-03T10:36:16.000Z</time>
      </trkpt>
      <trkpt lat="43.40197381563485" lon="-6.246451148763299">
        <ele>203</ele>
        <time>2017-08-03T10:36:21.000Z</time>
      </trkpt>
      <trkpt lat="43.40197775512934" lon="-6.246484089642763">
        <ele>203.2</ele>
        <time>2017-08-03T10:36:23.000Z</time>
      </trkpt>
      <trkpt lat="43.40196903795004" lon="-6.246607806533575">
        <ele>203.4</ele>
        <time>2017-08-03T10:36:31.000Z</time>
      </trkpt>
      <trkpt lat="43.4019726421684" lon="-6.24667008407414">
        <ele>203.6</ele>
        <time>2017-08-03T10:36:36.000Z</time>
      </trkpt>
      <trkpt lat="43.401972306892276" lon="-6.24668181873858">
        <ele>203.6</ele>
        <time>2017-08-03T10:36:37.000Z</time>
      </trkpt>
      <trkpt lat="43.401980102062225" lon="-6.246786005795002">
        <ele>203.8</ele>
        <time>2017-08-03T10:36:42.000Z</time>
      </trkpt>
      <trkpt lat="43.401998206973076" lon="-6.2468677293509245">
        <ele>203.8</ele>
        <time>2017-08-03T10:36:47.000Z</time>
      </trkpt>
      <trkpt lat="43.4020038228482" lon="-6.246891701593995">
        <ele>204</ele>
        <time>2017-08-03T10:36:48.000Z</time>
      </trkpt>
      <trkpt lat="43.40202435851097" lon="-6.246961019933224">
        <ele>204</ele>
        <time>2017-08-03T10:36:52.000Z</time>
      </trkpt>
      <trkpt lat="43.4020471572876" lon="-6.247027739882469">
        <ele>204</ele>
        <time>2017-08-03T10:36:56.000Z</time>
      </trkpt>
      <trkpt lat="43.40205512009561" lon="-6.247060848399997">
        <ele>204</ele>
        <time>2017-08-03T10:36:58.000Z</time>
      </trkpt>
      <trkpt lat="43.40207029134035" lon="-6.247179200872779">
        <ele>205</ele>
        <time>2017-08-03T10:37:04.000Z</time>
      </trkpt>
      <trkpt lat="43.40207657776773" lon="-6.24717484228313">
        <ele>205</ele>
        <time>2017-08-03T10:37:05.000Z</time>
      </trkpt>
      <trkpt lat="43.402087055146694" lon="-6.247217170894146">
        <ele>205.4</ele>
        <time>2017-08-03T10:37:08.000Z</time>
      </trkpt>
      <trkpt lat="43.40210650116205" lon="-6.247306521981955">
        <ele>206</ele>
        <time>2017-08-03T10:37:14.000Z</time>
      </trkpt>
      <trkpt lat="43.402110608294606" lon="-6.247325800359249">
        <ele>206.2</ele>
        <time>2017-08-03T10:37:15.000Z</time>
      </trkpt>
      <trkpt lat="43.40211999602616" lon="-6.247342145070434">
        <ele>206.2</ele>
        <time>2017-08-03T10:37:17.000Z</time>
      </trkpt>
      <trkpt lat="43.40213558636606" lon="-6.247377851977944">
        <ele>206.4</ele>
        <time>2017-08-03T10:37:20.000Z</time>
      </trkpt>
      <trkpt lat="43.40213684365153" lon="-6.247397381812334">
        <ele>206.4</ele>
        <time>2017-08-03T10:37:21.000Z</time>
      </trkpt>
      <trkpt lat="43.40216098353267" lon="-6.247448176145554">
        <ele>206.6</ele>
        <time>2017-08-03T10:37:25.000Z</time>
      </trkpt>
      <trkpt lat="43.40220985002816" lon="-6.247508777305484">
        <ele>206.8</ele>
        <time>2017-08-03T10:37:31.000Z</time>
      </trkpt>
      <trkpt lat="43.40222569182515" lon="-6.247533168643713">
        <ele>206.8</ele>
        <time>2017-08-03T10:37:33.000Z</time>
      </trkpt>
      <trkpt lat="43.4022765699774" lon="-6.2475994694978">
        <ele>207.2</ele>
        <time>2017-08-03T10:37:40.000Z</time>
      </trkpt>
      <trkpt lat="43.40228612534702" lon="-6.247624112293124">
        <ele>207.2</ele>
        <time>2017-08-03T10:37:41.000Z</time>
      </trkpt>
      <trkpt lat="43.4023130312562" lon="-6.247664848342538">
        <ele>207.6</ele>
        <time>2017-08-03T10:37:44.000Z</time>
      </trkpt>
      <trkpt lat="43.402342703193426" lon="-6.24770893715322">
        <ele>208.4</ele>
        <time>2017-08-03T10:37:48.000Z</time>
      </trkpt>
      <trkpt lat="43.40236424468458" lon="-6.24774556607008">
        <ele>209</ele>
        <time>2017-08-03T10:37:51.000Z</time>
      </trkpt>
      <trkpt lat="43.402398861944675" lon="-6.247795354574919">
        <ele>210</ele>
        <time>2017-08-03T10:37:55.000Z</time>
      </trkpt>
      <trkpt lat="43.40242342092097" lon="-6.247842963784933">
        <ele>210.8</ele>
        <time>2017-08-03T10:38:00.000Z</time>
      </trkpt>
      <trkpt lat="43.402428114786744" lon="-6.2478528544306755">
        <ele>210.8</ele>
        <time>2017-08-03T10:38:01.000Z</time>
      </trkpt>
      <trkpt lat="43.40248159132898" lon="-6.247909516096115">
        <ele>212</ele>
        <time>2017-08-03T10:38:06.000Z</time>
      </trkpt>
      <trkpt lat="43.4024856146425" lon="-6.247923346236348">
        <ele>212.2</ele>
        <time>2017-08-03T10:38:07.000Z</time>
      </trkpt>
      <trkpt lat="43.402522997930646" lon="-6.247977912425995">
        <ele>213.2</ele>
        <time>2017-08-03T10:38:12.000Z</time>
      </trkpt>
      <trkpt lat="43.402535654604435" lon="-6.24800942838192">
        <ele>213.6</ele>
        <time>2017-08-03T10:38:14.000Z</time>
      </trkpt>
      <trkpt lat="43.40255602262914" lon="-6.248080339282751">
        <ele>214.6</ele>
        <time>2017-08-03T10:38:19.000Z</time>
      </trkpt>
      <trkpt lat="43.40256708674133" lon="-6.248089978471398">
        <ele>214.8</ele>
        <time>2017-08-03T10:38:20.000Z</time>
      </trkpt>
      <trkpt lat="43.40257739648223" lon="-6.248138677328825">
        <ele>215.4</ele>
        <time>2017-08-03T10:38:23.000Z</time>
      </trkpt>
      <trkpt lat="43.40259307064116" lon="-6.248194752261043">
        <ele>216</ele>
        <time>2017-08-03T10:38:28.000Z</time>
      </trkpt>
      <trkpt lat="43.40259742923081" lon="-6.248237164691091">
        <ele>216.2</ele>
        <time>2017-08-03T10:38:30.000Z</time>
      </trkpt>
      <trkpt lat="43.40260421857238" lon="-6.248287037014961">
        <ele>216.6</ele>
        <time>2017-08-03T10:38:33.000Z</time>
      </trkpt>
      <trkpt lat="43.40260908007622" lon="-6.248321570456028">
        <ele>216.6</ele>
        <time>2017-08-03T10:38:35.000Z</time>
      </trkpt>
      <trkpt lat="43.40261176228523" lon="-6.248350236564875">
        <ele>216.8</ele>
        <time>2017-08-03T10:38:37.000Z</time>
      </trkpt>
      <trkpt lat="43.40260866098106" lon="-6.248391726985574">
        <ele>217</ele>
        <time>2017-08-03T10:38:40.000Z</time>
      </trkpt>
      <trkpt lat="43.402603045105934" lon="-6.248429613187909">
        <ele>217.2</ele>
        <time>2017-08-03T10:38:43.000Z</time>
      </trkpt>
      <trkpt lat="43.40258779004216" lon="-6.248489376157522">
        <ele>217.4</ele>
        <time>2017-08-03T10:38:46.000Z</time>
      </trkpt>
      <trkpt lat="43.40258192270994" lon="-6.24851762317121">
        <ele>217.4</ele>
        <time>2017-08-03T10:38:48.000Z</time>
      </trkpt>
      <trkpt lat="43.40258468873799" lon="-6.248571015894413">
        <ele>217.8</ele>
        <time>2017-08-03T10:38:52.000Z</time>
      </trkpt>
      <trkpt lat="43.40257898904383" lon="-6.248609069734812">
        <ele>217.8</ele>
        <time>2017-08-03T10:38:56.000Z</time>
      </trkpt>
      <trkpt lat="43.402570774778724" lon="-6.248620469123125">
        <ele>218</ele>
        <time>2017-08-03T10:38:57.000Z</time>
      </trkpt>
      <trkpt lat="43.40253984555602" lon="-6.248723734170198">
        <ele>218.2</ele>
        <time>2017-08-03T10:39:03.000Z</time>
      </trkpt>
      <trkpt lat="43.40252802707255" lon="-6.248809900134802">
        <ele>218.6</ele>
        <time>2017-08-03T10:39:07.000Z</time>
      </trkpt>
      <trkpt lat="43.40252509340644" lon="-6.248830519616604">
        <ele>218.6</ele>
        <time>2017-08-03T10:39:08.000Z</time>
      </trkpt>
      <trkpt lat="43.40254663489759" lon="-6.248976532369852">
        <ele>219.6</ele>
        <time>2017-08-03T10:39:16.000Z</time>
      </trkpt>
      <trkpt lat="43.40256708674133" lon="-6.249055238440633">
        <ele>220.2</ele>
        <time>2017-08-03T10:39:22.000Z</time>
      </trkpt>
      <trkpt lat="43.40257639065385" lon="-6.249158922582865">
        <ele>220.4</ele>
        <time>2017-08-03T10:39:27.000Z</time>
      </trkpt>
      <trkpt lat="43.40257848612964" lon="-6.249221786856651">
        <ele>220.6</ele>
        <time>2017-08-03T10:39:31.000Z</time>
      </trkpt>
      <trkpt lat="43.40258586220443" lon="-6.249254811555147">
        <ele>220.6</ele>
        <time>2017-08-03T10:39:33.000Z</time>
      </trkpt>
      <trkpt lat="43.402587873861194" lon="-6.249290099367499">
        <ele>220.8</ele>
        <time>2017-08-03T10:39:35.000Z</time>
      </trkpt>
      <trkpt lat="43.40258443728089" lon="-6.249301582574844">
        <ele>220.8</ele>
        <time>2017-08-03T10:39:36.000Z</time>
      </trkpt>
      <trkpt lat="43.402599692344666" lon="-6.249368637800217">
        <ele>221</ele>
        <time>2017-08-03T10:39:40.000Z</time>
      </trkpt>
      <trkpt lat="43.40260103344917" lon="-6.249395376071334">
        <ele>221</ele>
        <time>2017-08-03T10:39:42.000Z</time>
      </trkpt>
      <trkpt lat="43.40261586941779" lon="-6.249463353306055">
        <ele>221.2</ele>
        <time>2017-08-03T10:39:46.000Z</time>
      </trkpt>
      <trkpt lat="43.40264000929892" lon="-6.249508028849959">
        <ele>221.4</ele>
        <time>2017-08-03T10:39:48.000Z</time>
      </trkpt>
      <trkpt lat="43.40266155079007" lon="-6.2495427299290895">
        <ele>221.4</ele>
        <time>2017-08-03T10:39:51.000Z</time>
      </trkpt>
      <trkpt lat="43.402700778096914" lon="-6.249578269198537">
        <ele>221.8</ele>
        <time>2017-08-03T10:39:56.000Z</time>
      </trkpt>
      <trkpt lat="43.402709579095244" lon="-6.249587070196867">
        <ele>221.8</ele>
        <time>2017-08-03T10:39:57.000Z</time>
      </trkpt>
      <trkpt lat="43.40275073423982" lon="-6.2495948653668165">
        <ele>222.2</ele>
        <time>2017-08-03T10:40:03.000Z</time>
      </trkpt>
      <trkpt lat="43.40275869704783" lon="-6.2496113777160645">
        <ele>222.2</ele>
        <time>2017-08-03T10:40:04.000Z</time>
      </trkpt>
      <trkpt lat="43.40278359130025" lon="-6.249621352180839">
        <ele>222.4</ele>
        <time>2017-08-03T10:40:07.000Z</time>
      </trkpt>
      <trkpt lat="43.40286506339908" lon="-6.249635685235262">
        <ele>223.2</ele>
        <time>2017-08-03T10:40:14.000Z</time>
      </trkpt>
      <trkpt lat="43.40297679416835" lon="-6.249634092673659">
        <ele>224.2</ele>
        <time>2017-08-03T10:40:23.000Z</time>
      </trkpt>
      <trkpt lat="43.40298785828054" lon="-6.249634427949786">
        <ele>224.2</ele>
        <time>2017-08-03T10:40:24.000Z</time>
      </trkpt>
      <trkpt lat="43.40301342308521" lon="-6.249631745740771">
        <ele>224.6</ele>
        <time>2017-08-03T10:40:26.000Z</time>
      </trkpt>
      <trkpt lat="43.403040831908584" lon="-6.24962629750371">
        <ele>224.8</ele>
        <time>2017-08-03T10:40:28.000Z</time>
      </trkpt>
      <trkpt lat="43.40316102840006" lon="-6.249618837609887">
        <ele>225.8</ele>
        <time>2017-08-03T10:40:37.000Z</time>
      </trkpt>
      <trkpt lat="43.403202602639794" lon="-6.249618669971824">
        <ele>226.2</ele>
        <time>2017-08-03T10:40:41.000Z</time>
      </trkpt>
      <trkpt lat="43.40324141085148" lon="-6.24962973408401">
        <ele>226.8</ele>
        <time>2017-08-03T10:40:44.000Z</time>
      </trkpt>
      <trkpt lat="43.40332699008286" lon="-6.249639289453626">
        <ele>227.6</ele>
        <time>2017-08-03T10:40:51.000Z</time>
      </trkpt>
      <trkpt lat="43.40340812690556" lon="-6.249652868136764">
        <ele>228.4</ele>
        <time>2017-08-03T10:40:59.000Z</time>
      </trkpt>
      <trkpt lat="43.40341558679938" lon="-6.249646162614226">
        <ele>228.4</ele>
        <time>2017-08-03T10:41:00.000Z</time>
      </trkpt>
      <trkpt lat="43.40341877192259" lon="-6.249649850651622">
        <ele>228.6</ele>
        <time>2017-08-03T10:41:05.000Z</time>
      </trkpt>
      <trkpt lat="43.40343218296766" lon="-6.2496602442115545">
        <ele>228.8</ele>
        <time>2017-08-03T10:41:13.000Z</time>
      </trkpt>
      <trkpt lat="43.40342614799738" lon="-6.249664016067982">
        <ele>228.6</ele>
        <time>2017-08-03T10:41:53.000Z</time>
      </trkpt>
      <trkpt lat="43.40342237614095" lon="-6.249663345515728">
        <ele>228.6</ele>
        <time>2017-08-03T10:42:00.000Z</time>
      </trkpt>
      <trkpt lat="43.403441570699215" lon="-6.249641384929419">
        <ele>228.6</ele>
        <time>2017-08-03T10:42:54.000Z</time>
      </trkpt>
      <trkpt lat="43.40345070697367" lon="-6.24962436966598">
        <ele>228.6</ele>
        <time>2017-08-03T10:43:06.000Z</time>
      </trkpt>
      <trkpt lat="43.403463531285524" lon="-6.249608611688018">
        <ele>228.8</ele>
        <time>2017-08-03T10:43:44.000Z</time>
      </trkpt>
      <trkpt lat="43.40345305390656" lon="-6.249673152342439">
        <ele>229</ele>
        <time>2017-08-03T10:44:15.000Z</time>
      </trkpt>
      <trkpt lat="43.40349270030856" lon="-6.2497462425380945">
        <ele>229.6</ele>
        <time>2017-08-03T10:44:22.000Z</time>
      </trkpt>
      <trkpt lat="43.40358607470989" lon="-6.249847998842597">
        <ele>229.8</ele>
        <time>2017-08-03T10:44:33.000Z</time>
      </trkpt>
      <trkpt lat="43.40365572832525" lon="-6.249920167028904">
        <ele>229.8</ele>
        <time>2017-08-03T10:44:41.000Z</time>
      </trkpt>
      <trkpt lat="43.40371783822775" lon="-6.250008596107364">
        <ele>229.8</ele>
        <time>2017-08-03T10:44:49.000Z</time>
      </trkpt>
      <trkpt lat="43.40380299836397" lon="-6.2501464784145355">
        <ele>229.6</ele>
        <time>2017-08-03T10:45:00.000Z</time>
      </trkpt>
      <trkpt lat="43.40385924093425" lon="-6.250258795917034">
        <ele>229.6</ele>
        <time>2017-08-03T10:45:09.000Z</time>
      </trkpt>
      <trkpt lat="43.40390752069652" lon="-6.250352505594492">
        <ele>230.2</ele>
        <time>2017-08-03T10:45:16.000Z</time>
      </trkpt>
      <trkpt lat="43.403968792408705" lon="-6.250545037910342">
        <ele>231.4</ele>
        <time>2017-08-03T10:45:29.000Z</time>
      </trkpt>
      <trkpt lat="43.403997207060456" lon="-6.25066950917244">
        <ele>232</ele>
        <time>2017-08-03T10:45:37.000Z</time>
      </trkpt>
      <trkpt lat="43.40404079295695" lon="-6.2508191261440516">
        <ele>232.2</ele>
        <time>2017-08-03T10:45:46.000Z</time>
      </trkpt>
      <trkpt lat="43.40409125201404" lon="-6.250943010672927">
        <ele>232</ele>
        <time>2017-08-03T10:45:54.000Z</time>
      </trkpt>
      <trkpt lat="43.40415772050619" lon="-6.251044850796461">
        <ele>231.4</ele>
        <time>2017-08-03T10:46:02.000Z</time>
      </trkpt>
      <trkpt lat="43.40422418899834" lon="-6.2511607725173235">
        <ele>230.6</ele>
        <time>2017-08-03T10:46:12.000Z</time>
      </trkpt>
      <trkpt lat="43.40423986315727" lon="-6.251180386170745">
        <ele>230.6</ele>
        <time>2017-08-03T10:46:19.000Z</time>
      </trkpt>
      <trkpt lat="43.40426157228649" lon="-6.251175608485937">
        <ele>230.4</ele>
        <time>2017-08-03T10:46:28.000Z</time>
      </trkpt>
      <trkpt lat="43.40426760725677" lon="-6.251213997602463">
        <ele>230.2</ele>
        <time>2017-08-03T10:46:41.000Z</time>
      </trkpt>
      <trkpt lat="43.40427967719734" lon="-6.251254985108972">
        <ele>230</ele>
        <time>2017-08-03T10:46:44.000Z</time>
      </trkpt>
      <trkpt lat="43.40429560281336" lon="-6.25129597261548">
        <ele>229.8</ele>
        <time>2017-08-03T10:46:47.000Z</time>
      </trkpt>
      <trkpt lat="43.40434027835727" lon="-6.2513843178749084">
        <ele>229</ele>
        <time>2017-08-03T10:46:54.000Z</time>
      </trkpt>
      <trkpt lat="43.40440054424107" lon="-6.25152220018208">
        <ele>228</ele>
        <time>2017-08-03T10:47:03.000Z</time>
      </trkpt>
      <trkpt lat="43.40450070798397" lon="-6.251616328954697">
        <ele>226.8</ele>
        <time>2017-08-03T10:47:12.000Z</time>
      </trkpt>
      <trkpt lat="43.40460028499365" lon="-6.251655388623476">
        <ele>225.6</ele>
        <time>2017-08-03T10:47:20.000Z</time>
      </trkpt>
      <trkpt lat="43.4046199824661" lon="-6.251671062782407">
        <ele>225.4</ele>
        <time>2017-08-03T10:47:21.000Z</time>
      </trkpt>
      <trkpt lat="43.4046717826277" lon="-6.2517197616398335">
        <ele>224.8</ele>
        <time>2017-08-03T10:47:25.000Z</time>
      </trkpt>
      <trkpt lat="43.4047444537282" lon="-6.251853536814451">
        <ele>223.6</ele>
        <time>2017-08-03T10:47:33.000Z</time>
      </trkpt>
      <trkpt lat="43.40475367382169" lon="-6.251868372783065">
        <ele>223.4</ele>
        <time>2017-08-03T10:47:34.000Z</time>
      </trkpt>
      <trkpt lat="43.404818046838045" lon="-6.251936685293913">
        <ele>223.2</ele>
        <time>2017-08-03T10:47:40.000Z</time>
      </trkpt>
      <trkpt lat="43.40487948618829" lon="-6.252069203183055">
        <ele>223</ele>
        <time>2017-08-03T10:47:49.000Z</time>
      </trkpt>
      <trkpt lat="43.40494469739497" lon="-6.252181688323617">
        <ele>222.8</ele>
        <time>2017-08-03T10:47:57.000Z</time>
      </trkpt>
      <trkpt lat="43.405015021562576" lon="-6.252253437414765">
        <ele>222.4</ele>
        <time>2017-08-03T10:48:04.000Z</time>
      </trkpt>
      <trkpt lat="43.40509179979563" lon="-6.252316804602742">
        <ele>222.4</ele>
        <time>2017-08-03T10:48:11.000Z</time>
      </trkpt>
      <trkpt lat="43.40522934682667" lon="-6.252446053549647">
        <ele>222.4</ele>
        <time>2017-08-03T10:48:24.000Z</time>
      </trkpt>
      <trkpt lat="43.40531861409545" lon="-6.252564070746303">
        <ele>222.6</ele>
        <time>2017-08-03T10:48:34.000Z</time>
      </trkpt>
      <trkpt lat="43.40538935735822" lon="-6.2526883743703365">
        <ele>222.8</ele>
        <time>2017-08-03T10:48:43.000Z</time>
      </trkpt>
      <trkpt lat="43.40543772093952" lon="-6.25283413566649">
        <ele>223.2</ele>
        <time>2017-08-03T10:48:52.000Z</time>
      </trkpt>
      <trkpt lat="43.40545456856489" lon="-6.25292943790555">
        <ele>223.6</ele>
        <time>2017-08-03T10:49:00.000Z</time>
      </trkpt>
      <trkpt lat="43.405452221632004" lon="-6.2529819924384356">
        <ele>224</ele>
        <time>2017-08-03T10:49:07.000Z</time>
      </trkpt>
      <trkpt lat="43.4054818097502" lon="-6.253178045153618">
        <ele>224.6</ele>
        <time>2017-08-03T10:49:19.000Z</time>
      </trkpt>
      <trkpt lat="43.40552908368409" lon="-6.253247614949942">
        <ele>224.4</ele>
        <time>2017-08-03T10:49:25.000Z</time>
      </trkpt>
      <trkpt lat="43.40556328184903" lon="-6.25334233045578">
        <ele>224.2</ele>
        <time>2017-08-03T10:49:32.000Z</time>
      </trkpt>
      <trkpt lat="43.405624302104115" lon="-6.253462443128228">
        <ele>224</ele>
        <time>2017-08-03T10:49:41.000Z</time>
      </trkpt>
      <trkpt lat="43.40567568317056" lon="-6.253606276586652">
        <ele>224.6</ele>
        <time>2017-08-03T10:49:51.000Z</time>
      </trkpt>
      <trkpt lat="43.405732261016965" lon="-6.253772657364607">
        <ele>225.4</ele>
        <time>2017-08-03T10:50:02.000Z</time>
      </trkpt>
      <trkpt lat="43.405750785022974" lon="-6.253849184140563">
        <ele>225.8</ele>
        <time>2017-08-03T10:50:08.000Z</time>
      </trkpt>
      <trkpt lat="43.40575162321329" lon="-6.253862930461764">
        <ele>225.8</ele>
        <time>2017-08-03T10:50:09.000Z</time>
      </trkpt>
      <trkpt lat="43.405804093927145" lon="-6.253996370360255">
        <ele>226.6</ele>
        <time>2017-08-03T10:50:18.000Z</time>
      </trkpt>
      <trkpt lat="43.40585723519325" lon="-6.254138695076108">
        <ele>227.4</ele>
        <time>2017-08-03T10:50:27.000Z</time>
      </trkpt>
      <trkpt lat="43.405914567410946" lon="-6.2543700356036425">
        <ele>228.4</ele>
        <time>2017-08-03T10:50:41.000Z</time>
      </trkpt>
      <trkpt lat="43.405954549089074" lon="-6.254529878497124">
        <ele>229</ele>
        <time>2017-08-03T10:50:51.000Z</time>
      </trkpt>
      <trkpt lat="43.406011210754514" lon="-6.254696846008301">
        <ele>229.4</ele>
        <time>2017-08-03T10:51:02.000Z</time>
      </trkpt>
      <trkpt lat="43.406062508001924" lon="-6.2548724468797445">
        <ele>229.8</ele>
        <time>2017-08-03T10:51:13.000Z</time>
      </trkpt>
      <trkpt lat="43.40611984021962" lon="-6.255042431876063">
        <ele>229.6</ele>
        <time>2017-08-03T10:51:24.000Z</time>
      </trkpt>
      <trkpt lat="43.40618941001594" lon="-6.2552238162606955">
        <ele>229.6</ele>
        <time>2017-08-03T10:51:36.000Z</time>
      </trkpt>
      <trkpt lat="43.40625772252679" lon="-6.255354909226298">
        <ele>229.4</ele>
        <time>2017-08-03T10:51:46.000Z</time>
      </trkpt>
      <trkpt lat="43.406266355887055" lon="-6.255385335534811">
        <ele>229.6</ele>
        <time>2017-08-03T10:51:48.000Z</time>
      </trkpt>
      <trkpt lat="43.40629988349974" lon="-6.255456078797579">
        <ele>230.2</ele>
        <time>2017-08-03T10:51:53.000Z</time>
      </trkpt>
      <trkpt lat="43.406365010887384" lon="-6.2555798795074224">
        <ele>231.2</ele>
        <time>2017-08-03T10:52:02.000Z</time>
      </trkpt>
      <trkpt lat="43.40637012384832" lon="-6.255594044923782">
        <ele>231.2</ele>
        <time>2017-08-03T10:52:03.000Z</time>
      </trkpt>
      <trkpt lat="43.40640977025032" lon="-6.255703596398234">
        <ele>231.6</ele>
        <time>2017-08-03T10:52:10.000Z</time>
      </trkpt>
      <trkpt lat="43.40647263452411" lon="-6.255843406543136">
        <ele>232.2</ele>
        <time>2017-08-03T10:52:20.000Z</time>
      </trkpt>
      <trkpt lat="43.40653432533145" lon="-6.255915658548474">
        <ele>232.4</ele>
        <time>2017-08-03T10:52:27.000Z</time>
      </trkpt>
      <trkpt lat="43.40654019266367" lon="-6.255928818136454">
        <ele>232.4</ele>
        <time>2017-08-03T10:52:28.000Z</time>
      </trkpt>
      <trkpt lat="43.40656466782093" lon="-6.255964525043964">
        <ele>232.6</ele>
        <time>2017-08-03T10:52:31.000Z</time>
      </trkpt>
      <trkpt lat="43.40657212771475" lon="-6.255977684631944">
        <ele>232.6</ele>
        <time>2017-08-03T10:52:32.000Z</time>
      </trkpt>
      <trkpt lat="43.40658771805465" lon="-6.2560169119387865">
        <ele>232.6</ele>
        <time>2017-08-03T10:52:35.000Z</time>
      </trkpt>
      <trkpt lat="43.40662183240056" lon="-6.256072735413909">
        <ele>232.8</ele>
        <time>2017-08-03T10:52:39.000Z</time>
      </trkpt>
      <trkpt lat="43.40664982795715" lon="-6.2561435624957085">
        <ele>233</ele>
        <time>2017-08-03T10:52:46.000Z</time>
      </trkpt>
      <trkpt lat="43.406681679189205" lon="-6.256173988804221">
        <ele>233.2</ele>
        <time>2017-08-03T10:52:50.000Z</time>
      </trkpt>
      <trkpt lat="43.40669173747301" lon="-6.256186394020915">
        <ele>233.2</ele>
        <time>2017-08-03T10:52:51.000Z</time>
      </trkpt>
      <trkpt lat="43.40675175189972" lon="-6.256301226094365">
        <ele>233.6</ele>
        <time>2017-08-03T10:52:59.000Z</time>
      </trkpt>
      <trkpt lat="43.40675711631775" lon="-6.256315223872662">
        <ele>233.6</ele>
        <time>2017-08-03T10:53:00.000Z</time>
      </trkpt>
      <trkpt lat="43.40682853013277" lon="-6.256409604102373">
        <ele>233.8</ele>
        <time>2017-08-03T10:53:08.000Z</time>
      </trkpt>
      <trkpt lat="43.40688653290272" lon="-6.256484538316727">
        <ele>233.8</ele>
        <time>2017-08-03T10:53:14.000Z</time>
      </trkpt>
      <trkpt lat="43.40695073828101" lon="-6.256618229672313">
        <ele>234</ele>
        <time>2017-08-03T10:53:23.000Z</time>
      </trkpt>
      <trkpt lat="43.40695861726999" lon="-6.256625102832913">
        <ele>234</ele>
        <time>2017-08-03T10:53:24.000Z</time>
      </trkpt>
      <trkpt lat="43.40696834027767" lon="-6.256639435887337">
        <ele>234</ele>
        <time>2017-08-03T10:53:28.000Z</time>
      </trkpt>
      <trkpt lat="43.4069633949548" lon="-6.256714956834912">
        <ele>234.2</ele>
        <time>2017-08-03T10:53:50.000Z</time>
      </trkpt>
      <trkpt lat="43.406967082992196" lon="-6.256727948784828">
        <ele>234.2</ele>
        <time>2017-08-03T10:53:51.000Z</time>
      </trkpt>
      <trkpt lat="43.407031539827585" lon="-6.256873877719045">
        <ele>234.4</ele>
        <time>2017-08-03T10:54:02.000Z</time>
      </trkpt>
      <trkpt lat="43.407060876488686" lon="-6.256928946822882">
        <ele>234.6</ele>
        <time>2017-08-03T10:54:06.000Z</time>
      </trkpt>
      <trkpt lat="43.40708518400788" lon="-6.256962474435568">
        <ele>234.6</ele>
        <time>2017-08-03T10:54:09.000Z</time>
      </trkpt>
      <trkpt lat="43.40713304467499" lon="-6.257012765854597">
        <ele>234.6</ele>
        <time>2017-08-03T10:54:14.000Z</time>
      </trkpt>
      <trkpt lat="43.4071394149214" lon="-6.257023746147752">
        <ele>234.6</ele>
        <time>2017-08-03T10:54:15.000Z</time>
      </trkpt>
      <trkpt lat="43.40716070495546" lon="-6.257061380892992">
        <ele>234.6</ele>
        <time>2017-08-03T10:54:18.000Z</time>
      </trkpt>
      <trkpt lat="43.407173277810216" lon="-6.2570897955447435">
        <ele>234.8</ele>
        <time>2017-08-03T10:54:20.000Z</time>
      </trkpt>
      <trkpt lat="43.407196495682" lon="-6.257128603756428">
        <ele>234.8</ele>
        <time>2017-08-03T10:54:23.000Z</time>
      </trkpt>
      <trkpt lat="43.40722826309502" lon="-6.257176045328379">
        <ele>235</ele>
        <time>2017-08-03T10:54:27.000Z</time>
      </trkpt>
      <trkpt lat="43.4072881937027" lon="-6.257283417508006">
        <ele>235.2</ele>
        <time>2017-08-03T10:54:35.000Z</time>
      </trkpt>
      <trkpt lat="43.40733068995178" lon="-6.257376540452242">
        <ele>235.4</ele>
        <time>2017-08-03T10:54:42.000Z</time>
      </trkpt>
      <trkpt lat="43.40734485536814" lon="-6.257402943447232">
        <ele>235.6</ele>
        <time>2017-08-03T10:54:44.000Z</time>
      </trkpt>
      <trkpt lat="43.40739095583558" lon="-6.257504196837544">
        <ele>235.6</ele>
        <time>2017-08-03T10:54:51.000Z</time>
      </trkpt>
      <trkpt lat="43.40743261389434" lon="-6.257616430521011">
        <ele>236.2</ele>
        <time>2017-08-03T10:54:59.000Z</time>
      </trkpt>
      <trkpt lat="43.40748131275177" lon="-6.25774928368628">
        <ele>237</ele>
        <time>2017-08-03T10:55:08.000Z</time>
      </trkpt>
      <trkpt lat="43.407542668282986" lon="-6.257919017225504">
        <ele>237.8</ele>
        <time>2017-08-03T10:55:19.000Z</time>
      </trkpt>
      <trkpt lat="43.407588098198175" lon="-6.258035944774747">
        <ele>238.6</ele>
        <time>2017-08-03T10:55:27.000Z</time>
      </trkpt>
      <trkpt lat="43.40762699022889" lon="-6.258149184286594">
        <ele>239.2</ele>
        <time>2017-08-03T10:55:35.000Z</time>
      </trkpt>
      <trkpt lat="43.407655069604516" lon="-6.258226130157709">
        <ele>239.2</ele>
        <time>2017-08-03T10:55:40.000Z</time>
      </trkpt>
      <trkpt lat="43.40766118839383" lon="-6.258240044116974">
        <ele>239.2</ele>
        <time>2017-08-03T10:55:41.000Z</time>
      </trkpt>
      <trkpt lat="43.40768901631236" lon="-6.258358228951693">
        <ele>239.2</ele>
        <time>2017-08-03T10:55:49.000Z</time>
      </trkpt>
      <trkpt lat="43.40773385949433" lon="-6.258488399907947">
        <ele>239.2</ele>
        <time>2017-08-03T10:55:58.000Z</time>
      </trkpt>
      <trkpt lat="43.40777258388698" lon="-6.258573392406106">
        <ele>239.2</ele>
        <time>2017-08-03T10:56:04.000Z</time>
      </trkpt>
      <trkpt lat="43.40781197883189" lon="-6.258661150932312">
        <ele>239.2</ele>
        <time>2017-08-03T10:56:11.000Z</time>
      </trkpt>
      <trkpt lat="43.407814828678966" lon="-6.25870062969625">
        <ele>239.2</ele>
        <time>2017-08-03T10:56:18.000Z</time>
      </trkpt>
      <trkpt lat="43.40780217200518" lon="-6.258756034076214">
        <ele>239.4</ele>
        <time>2017-08-03T10:56:26.000Z</time>
      </trkpt>
      <trkpt lat="43.40780870988965" lon="-6.2587811797857285">
        <ele>239.4</ele>
        <time>2017-08-03T10:56:28.000Z</time>
      </trkpt>
      <trkpt lat="43.40782287530601" lon="-6.258854940533638">
        <ele>239.8</ele>
        <time>2017-08-03T10:56:33.000Z</time>
      </trkpt>
      <trkpt lat="43.40783905237913" lon="-6.258907914161682">
        <ele>240</ele>
        <time>2017-08-03T10:56:37.000Z</time>
      </trkpt>
      <trkpt lat="43.4078476857394" lon="-6.258933562785387">
        <ele>240.2</ele>
        <time>2017-08-03T10:56:40.000Z</time>
      </trkpt>
      <trkpt lat="43.40785766020417" lon="-6.2589428666979074">
        <ele>240.2</ele>
        <time>2017-08-03T10:56:41.000Z</time>
      </trkpt>
      <trkpt lat="43.4078854881227" lon="-6.25898209400475">
        <ele>240.4</ele>
        <time>2017-08-03T10:56:45.000Z</time>
      </trkpt>
      <trkpt lat="43.40789085254073" lon="-6.2589917331933975">
        <ele>240.4</ele>
        <time>2017-08-03T10:56:46.000Z</time>
      </trkpt>
      <trkpt lat="43.40791457332671" lon="-6.2590323854237795">
        <ele>240.8</ele>
        <time>2017-08-03T10:56:50.000Z</time>
      </trkpt>
      <trkpt lat="43.40792798437178" lon="-6.259036073461175">
        <ele>240.8</ele>
        <time>2017-08-03T10:56:51.000Z</time>
      </trkpt>
      <trkpt lat="43.40794307179749" lon="-6.259052753448486">
        <ele>241</ele>
        <time>2017-08-03T10:56:53.000Z</time>
      </trkpt>
      <trkpt lat="43.407953046262264" lon="-6.259091980755329">
        <ele>241.2</ele>
        <time>2017-08-03T10:56:56.000Z</time>
      </trkpt>
      <trkpt lat="43.40797777287662" lon="-6.259129783138633">
        <ele>241.4</ele>
        <time>2017-08-03T10:56:59.000Z</time>
      </trkpt>
      <trkpt lat="43.40800425969064" lon="-6.259168339893222">
        <ele>241.6</ele>
        <time>2017-08-03T10:57:02.000Z</time>
      </trkpt>
      <trkpt lat="43.40801456943154" lon="-6.259178062900901">
        <ele>241.8</ele>
        <time>2017-08-03T10:57:03.000Z</time>
      </trkpt>
      <trkpt lat="43.40804214589298" lon="-6.259220223873854">
        <ele>242</ele>
        <time>2017-08-03T10:57:09.000Z</time>
      </trkpt>
      <trkpt lat="43.4080860670656" lon="-6.2592938169837">
        <ele>242.6</ele>
        <time>2017-08-03T10:57:15.000Z</time>
      </trkpt>
      <trkpt lat="43.40810777619481" lon="-6.259302282705903">
        <ele>242.6</ele>
        <time>2017-08-03T10:57:16.000Z</time>
      </trkpt>
      <trkpt lat="43.4081220254302" lon="-6.259313682094216">
        <ele>242.6</ele>
        <time>2017-08-03T10:57:17.000Z</time>
      </trkpt>
      <trkpt lat="43.40820400044322" lon="-6.259367996826768">
        <ele>243.2</ele>
        <time>2017-08-03T10:57:23.000Z</time>
      </trkpt>
      <trkpt lat="43.40825739316642" lon="-6.259416863322258">
        <ele>243.4</ele>
        <time>2017-08-03T10:57:28.000Z</time>
      </trkpt>
      <trkpt lat="43.408284885808825" lon="-6.25944972038269">
        <ele>243.8</ele>
        <time>2017-08-03T10:57:31.000Z</time>
      </trkpt>
      <trkpt lat="43.40832017362118" lon="-6.259476961567998">
        <ele>244</ele>
        <time>2017-08-03T10:57:34.000Z</time>
      </trkpt>
      <trkpt lat="43.408342972397804" lon="-6.259489534422755">
        <ele>244</ele>
        <time>2017-08-03T10:57:36.000Z</time>
      </trkpt>
      <trkpt lat="43.40835026465356" lon="-6.259499257430434">
        <ele>244</ele>
        <time>2017-08-03T10:57:37.000Z</time>
      </trkpt>
      <trkpt lat="43.40835001319647" lon="-6.259553572162986">
        <ele>244.4</ele>
        <time>2017-08-03T10:57:40.000Z</time>
      </trkpt>
      <trkpt lat="43.408353701233864" lon="-6.259596571326256">
        <ele>244.6</ele>
        <time>2017-08-03T10:57:43.000Z</time>
      </trkpt>
      <trkpt lat="43.40835705399513" lon="-6.259642420336604">
        <ele>245</ele>
        <time>2017-08-03T10:57:46.000Z</time>
      </trkpt>
      <trkpt lat="43.40833936817944" lon="-6.25975507311523">
        <ele>245.6</ele>
        <time>2017-08-03T10:57:53.000Z</time>
      </trkpt>
      <trkpt lat="43.408339619636536" lon="-6.259768400341272">
        <ele>245.6</ele>
        <time>2017-08-03T10:57:54.000Z</time>
      </trkpt>
      <trkpt lat="43.40833601541817" lon="-6.25979614444077">
        <ele>245.8</ele>
        <time>2017-08-03T10:57:56.000Z</time>
      </trkpt>
      <trkpt lat="43.40834238566458" lon="-6.259829672053456">
        <ele>246</ele>
        <time>2017-08-03T10:57:59.000Z</time>
      </trkpt>
      <trkpt lat="43.40836342424154" lon="-6.259943749755621">
        <ele>246.6</ele>
        <time>2017-08-03T10:58:07.000Z</time>
      </trkpt>
      <trkpt lat="43.40836577117443" lon="-6.259960345923901">
        <ele>246.6</ele>
        <time>2017-08-03T10:58:08.000Z</time>
      </trkpt>
      <trkpt lat="43.40836317278445" lon="-6.2600018363446">
        <ele>246.8</ele>
        <time>2017-08-03T10:58:11.000Z</time>
      </trkpt>
      <trkpt lat="43.40836526826024" lon="-6.260024132207036">
        <ele>246.8</ele>
        <time>2017-08-03T10:58:13.000Z</time>
      </trkpt>
      <trkpt lat="43.4083656873554" lon="-6.260041147470474">
        <ele>246.8</ele>
        <time>2017-08-03T10:58:14.000Z</time>
      </trkpt>
      <trkpt lat="43.408388402312994" lon="-6.260178778320551">
        <ele>247.2</ele>
        <time>2017-08-03T10:58:23.000Z</time>
      </trkpt>
      <trkpt lat="43.40839787386358" lon="-6.260243821889162">
        <ele>247.2</ele>
        <time>2017-08-03T10:58:28.000Z</time>
      </trkpt>
      <trkpt lat="43.40839586220682" lon="-6.260285563766956">
        <ele>247.4</ele>
        <time>2017-08-03T10:58:31.000Z</time>
      </trkpt>
      <trkpt lat="43.40839636512101" lon="-6.260299310088158">
        <ele>247.4</ele>
        <time>2017-08-03T10:58:32.000Z</time>
      </trkpt>
      <trkpt lat="43.40839510783553" lon="-6.260316828265786">
        <ele>247.4</ele>
        <time>2017-08-03T10:58:33.000Z</time>
      </trkpt>
      <trkpt lat="43.408396700397134" lon="-6.2604039162397385">
        <ele>247.6</ele>
        <time>2017-08-03T10:58:37.000Z</time>
      </trkpt>
      <trkpt lat="43.40839996933937" lon="-6.260491507127881">
        <ele>247.8</ele>
        <time>2017-08-03T10:58:41.000Z</time>
      </trkpt>
      <trkpt lat="43.40840416029096" lon="-6.260519754141569">
        <ele>248</ele>
        <time>2017-08-03T10:58:43.000Z</time>
      </trkpt>
      <trkpt lat="43.40840960852802" lon="-6.260529393330216">
        <ele>248</ele>
        <time>2017-08-03T10:58:44.000Z</time>
      </trkpt>
      <trkpt lat="43.40843550860882" lon="-6.260548671707511">
        <ele>248</ele>
        <time>2017-08-03T10:58:47.000Z</time>
      </trkpt>
      <trkpt lat="43.40844162739813" lon="-6.260557556524873">
        <ele>248</ele>
        <time>2017-08-03T10:58:48.000Z</time>
      </trkpt>
      <trkpt lat="43.408506251871586" lon="-6.260596113279462">
        <ele>247.8</ele>
        <time>2017-08-03T10:58:54.000Z</time>
      </trkpt>
      <trkpt lat="43.40856400318444" lon="-6.260613966733217">
        <ele>247.6</ele>
        <time>2017-08-03T10:58:57.000Z</time>
      </trkpt>
      <trkpt lat="43.408583449199796" lon="-6.260639447718859">
        <ele>247.4</ele>
        <time>2017-08-03T10:58:59.000Z</time>
      </trkpt>
      <trkpt lat="43.40862359851599" lon="-6.2606733944267035">
        <ele>247.2</ele>
        <time>2017-08-03T10:59:02.000Z</time>
      </trkpt>
      <trkpt lat="43.40863700956106" lon="-6.2606992945075035">
        <ele>247.2</ele>
        <time>2017-08-03T10:59:04.000Z</time>
      </trkpt>
      <trkpt lat="43.408653354272246" lon="-6.260714549571276">
        <ele>247.2</ele>
        <time>2017-08-03T10:59:06.000Z</time>
      </trkpt>
      <trkpt lat="43.40870833955705" lon="-6.260766182094812">
        <ele>247</ele>
        <time>2017-08-03T10:59:12.000Z</time>
      </trkpt>
      <trkpt lat="43.40879391878843" lon="-6.26079292036593">
        <ele>246.6</ele>
        <time>2017-08-03T10:59:19.000Z</time>
      </trkpt>
      <trkpt lat="43.40881487354636" lon="-6.260814126580954">
        <ele>246.4</ele>
        <time>2017-08-03T10:59:21.000Z</time>
      </trkpt>
      <trkpt lat="43.40884278528392" lon="-6.260846313089132">
        <ele>246.4</ele>
        <time>2017-08-03T10:59:24.000Z</time>
      </trkpt>
      <trkpt lat="43.40885108336806" lon="-6.260875565931201">
        <ele>246.4</ele>
        <time>2017-08-03T10:59:26.000Z</time>
      </trkpt>
      <trkpt lat="43.408854100853205" lon="-6.260930132120848">
        <ele>246.6</ele>
        <time>2017-08-03T10:59:29.000Z</time>
      </trkpt>
      <trkpt lat="43.40886700898409" lon="-6.260938094928861">
        <ele>246.4</ele>
        <time>2017-08-03T10:59:30.000Z</time>
      </trkpt>
      <trkpt lat="43.408895088359714" lon="-6.261030547320843">
        <ele>246.6</ele>
        <time>2017-08-03T10:59:36.000Z</time>
      </trkpt>
      <trkpt lat="43.4089336451143" lon="-6.261080419644713">
        <ele>246.6</ele>
        <time>2017-08-03T10:59:42.000Z</time>
      </trkpt>
      <trkpt lat="43.40893699787557" lon="-6.261095004156232">
        <ele>246.8</ele>
        <time>2017-08-03T10:59:43.000Z</time>
      </trkpt>
      <trkpt lat="43.40899508446455" lon="-6.261134315282106">
        <ele>246.8</ele>
        <time>2017-08-03T10:59:48.000Z</time>
      </trkpt>
      <trkpt lat="43.40901805087924" lon="-6.261172452941537">
        <ele>247</ele>
        <time>2017-08-03T10:59:51.000Z</time>
      </trkpt>
      <trkpt lat="43.40901235118508" lon="-6.261204220354557">
        <ele>247.2</ele>
        <time>2017-08-03T10:59:53.000Z</time>
      </trkpt>
      <trkpt lat="43.40902039781213" lon="-6.261230120435357">
        <ele>247.4</ele>
        <time>2017-08-03T10:59:56.000Z</time>
      </trkpt>
      <trkpt lat="43.40904403477907" lon="-6.261263228952885">
        <ele>247.4</ele>
        <time>2017-08-03T10:59:59.000Z</time>
      </trkpt>
      <trkpt lat="43.40904730372131" lon="-6.261276891455054">
        <ele>247.6</ele>
        <time>2017-08-03T11:00:00.000Z</time>
      </trkpt>
      <trkpt lat="43.409063313156366" lon="-6.261308826506138">
        <ele>247.8</ele>
        <time>2017-08-03T11:00:02.000Z</time>
      </trkpt>
      <trkpt lat="43.40909373946488" lon="-6.2613690085709095">
        <ele>248</ele>
        <time>2017-08-03T11:00:07.000Z</time>
      </trkpt>
      <trkpt lat="43.40913372114301" lon="-6.261483673006296">
        <ele>248.6</ele>
        <time>2017-08-03T11:00:15.000Z</time>
      </trkpt>
      <trkpt lat="43.409135146066546" lon="-6.261495407670736">
        <ele>248.6</ele>
        <time>2017-08-03T11:00:16.000Z</time>
      </trkpt>
      <trkpt lat="43.40914947912097" lon="-6.261527594178915">
        <ele>248.8</ele>
        <time>2017-08-03T11:00:18.000Z</time>
      </trkpt>
      <trkpt lat="43.409149730578065" lon="-6.2615604512393475">
        <ele>248.8</ele>
        <time>2017-08-03T11:00:20.000Z</time>
      </trkpt>
      <trkpt lat="43.409158531576395" lon="-6.2616213876754045">
        <ele>249.2</ele>
        <time>2017-08-03T11:00:23.000Z</time>
      </trkpt>
      <trkpt lat="43.40915786102414" lon="-6.261635469272733">
        <ele>249.2</ele>
        <time>2017-08-03T11:00:24.000Z</time>
      </trkpt>
      <trkpt lat="43.409155094996095" lon="-6.261672768741846">
        <ele>249.4</ele>
        <time>2017-08-03T11:00:27.000Z</time>
      </trkpt>
      <trkpt lat="43.40915911830962" lon="-6.261688442900777">
        <ele>249.4</ele>
        <time>2017-08-03T11:00:29.000Z</time>
      </trkpt>
      <trkpt lat="43.4091841802001" lon="-6.261753318831325">
        <ele>249.8</ele>
        <time>2017-08-03T11:00:35.000Z</time>
      </trkpt>
      <trkpt lat="43.40919147245586" lon="-6.26176874153316">
        <ele>249.8</ele>
        <time>2017-08-03T11:00:36.000Z</time>
      </trkpt>
      <trkpt lat="43.40919247828424" lon="-6.261835545301437">
        <ele>250.2</ele>
        <time>2017-08-03T11:00:41.000Z</time>
      </trkpt>
      <trkpt lat="43.40919432230294" lon="-6.261908803135157">
        <ele>250.4</ele>
        <time>2017-08-03T11:00:46.000Z</time>
      </trkpt>
      <trkpt lat="43.40919256210327" lon="-6.261927075684071">
        <ele>250.6</ele>
        <time>2017-08-03T11:00:47.000Z</time>
      </trkpt>
      <trkpt lat="43.409206895157695" lon="-6.262024138122797">
        <ele>251</ele>
        <time>2017-08-03T11:00:53.000Z</time>
      </trkpt>
      <trkpt lat="43.40921016409993" lon="-6.262080632150173">
        <ele>251.2</ele>
        <time>2017-08-03T11:00:57.000Z</time>
      </trkpt>
      <trkpt lat="43.40921552851796" lon="-6.2621041014790535">
        <ele>251.4</ele>
        <time>2017-08-03T11:00:59.000Z</time>
      </trkpt>
      <trkpt lat="43.40923061594367" lon="-6.262155985459685">
        <ele>251.6</ele>
        <time>2017-08-03T11:01:03.000Z</time>
      </trkpt>
      <trkpt lat="43.40924528427422" lon="-6.262180712074041">
        <ele>251.6</ele>
        <time>2017-08-03T11:01:05.000Z</time>
      </trkpt>
      <trkpt lat="43.40926271863282" lon="-6.262224381789565">
        <ele>251.8</ele>
        <time>2017-08-03T11:01:09.000Z</time>
      </trkpt>
      <trkpt lat="43.409336898475885" lon="-6.262243827804923">
        <ele>250.2</ele>
        <time>2017-08-04T04:59:20.000Z</time>
      </trkpt>
      <trkpt lat="43.40936397202313" lon="-6.2622348591685295">
        <ele>250</ele>
        <time>2017-08-04T04:59:25.000Z</time>
      </trkpt>
      <trkpt lat="43.40937822125852" lon="-6.26224366016686">
        <ele>250</ele>
        <time>2017-08-04T04:59:27.000Z</time>
      </trkpt>
      <trkpt lat="43.409377383068204" lon="-6.26221532933414">
        <ele>249.8</ele>
        <time>2017-08-04T04:59:31.000Z</time>
      </trkpt>
      <trkpt lat="43.40937729924917" lon="-6.262205354869366">
        <ele>249.6</ele>
        <time>2017-08-04T04:59:32.000Z</time>
      </trkpt>
      <trkpt lat="43.40938735753298" lon="-6.26213519833982">
        <ele>249.2</ele>
        <time>2017-08-04T04:59:38.000Z</time>
      </trkpt>
      <trkpt lat="43.409423399716616" lon="-6.262132935225964">
        <ele>248.8</ele>
        <time>2017-08-04T04:59:45.000Z</time>
      </trkpt>
      <trkpt lat="43.40943136252463" lon="-6.262170318514109">
        <ele>249</ele>
        <time>2017-08-04T04:59:52.000Z</time>
      </trkpt>
      <trkpt lat="43.40943672694266" lon="-6.262212311848998">
        <ele>249.4</ele>
        <time>2017-08-04T05:00:01.000Z</time>
      </trkpt>
      <trkpt lat="43.40944066643715" lon="-6.262248521670699">
        <ele>249.8</ele>
        <time>2017-08-04T05:00:06.000Z</time>
      </trkpt>
      <trkpt lat="43.409444354474545" lon="-6.262293700128794">
        <ele>250.2</ele>
        <time>2017-08-04T05:00:11.000Z</time>
      </trkpt>
      <trkpt lat="43.40944955125451" lon="-6.262352541089058">
        <ele>250.8</ele>
        <time>2017-08-04T05:00:18.000Z</time>
      </trkpt>
      <trkpt lat="43.40946673415601" lon="-6.2623827159404755">
        <ele>251</ele>
        <time>2017-08-04T05:00:22.000Z</time>
      </trkpt>
      <trkpt lat="43.40951442718506" lon="-6.262444071471691">
        <ele>251.4</ele>
        <time>2017-08-04T05:00:29.000Z</time>
      </trkpt>
      <trkpt lat="43.409568071365356" lon="-6.262510707601905">
        <ele>251.8</ele>
        <time>2017-08-04T05:00:35.000Z</time>
      </trkpt>
      <trkpt lat="43.40961660258472" lon="-6.262559657916427">
        <ele>252</ele>
        <time>2017-08-04T05:00:42.000Z</time>
      </trkpt>
      <trkpt lat="43.409678125754" lon="-6.262639285996556">
        <ele>253</ele>
        <time>2017-08-04T05:00:50.000Z</time>
      </trkpt>
      <trkpt lat="43.409739984199405" lon="-6.26271178945899">
        <ele>253.6</ele>
        <time>2017-08-04T05:00:58.000Z</time>
      </trkpt>
      <trkpt lat="43.409826904535294" lon="-6.2627617456018925">
        <ele>253.6</ele>
        <time>2017-08-04T05:01:06.000Z</time>
      </trkpt>
      <trkpt lat="43.40990552678704" lon="-6.262838859111071">
        <ele>253.8</ele>
        <time>2017-08-04T05:01:14.000Z</time>
      </trkpt>
      <trkpt lat="43.40991667471826" lon="-6.2628632504493">
        <ele>254</ele>
        <time>2017-08-04T05:01:16.000Z</time>
      </trkpt>
      <trkpt lat="43.40992539189756" lon="-6.262896442785859">
        <ele>254.4</ele>
        <time>2017-08-04T05:01:19.000Z</time>
      </trkpt>
      <trkpt lat="43.40992975048721" lon="-6.262910021468997">
        <ele>254.4</ele>
        <time>2017-08-04T05:01:20.000Z</time>
      </trkpt>
      <trkpt lat="43.409989178180695" lon="-6.263056118041277">
        <ele>255.4</ele>
        <time>2017-08-04T05:01:26.000Z</time>
      </trkpt>
      <trkpt lat="43.410095712170005" lon="-6.263266922906041">
        <ele>255.6</ele>
        <time>2017-08-04T05:01:35.000Z</time>
      </trkpt>
      <trkpt lat="43.41009495779872" lon="-6.263293242082">
        <ele>255.8</ele>
        <time>2017-08-04T05:01:36.000Z</time>
      </trkpt>
      <trkpt lat="43.41012806631625" lon="-6.263405308127403">
        <ele>255.8</ele>
        <time>2017-08-04T05:01:41.000Z</time>
      </trkpt>
      <trkpt lat="43.41014156118035" lon="-6.263494156301022">
        <ele>256</ele>
        <time>2017-08-04T05:01:45.000Z</time>
      </trkpt>
      <trkpt lat="43.41015011072159" lon="-6.263508489355445">
        <ele>256</ele>
        <time>2017-08-04T05:01:46.000Z</time>
      </trkpt>
      <trkpt lat="43.41018841601908" lon="-6.263619968667626">
        <ele>255.6</ele>
        <time>2017-08-04T05:01:51.000Z</time>
      </trkpt>
      <trkpt lat="43.410225212574005" lon="-6.263752486556768">
        <ele>254.6</ele>
        <time>2017-08-04T05:01:58.000Z</time>
      </trkpt>
      <trkpt lat="43.41027768328786" lon="-6.26391920261085">
        <ele>254.6</ele>
        <time>2017-08-04T05:02:07.000Z</time>
      </trkpt>
      <trkpt lat="43.410300901159644" lon="-6.263970918953419">
        <ele>254.8</ele>
        <time>2017-08-04T05:02:10.000Z</time>
      </trkpt>
      <trkpt lat="43.4103171620518" lon="-6.264021378010511">
        <ele>255</ele>
        <time>2017-08-04T05:02:13.000Z</time>
      </trkpt>
      <trkpt lat="43.41036577709019" lon="-6.2641791254282">
        <ele>255</ele>
        <time>2017-08-04T05:02:22.000Z</time>
      </trkpt>
      <trkpt lat="43.410406932234764" lon="-6.26430619508028">
        <ele>255.6</ele>
        <time>2017-08-04T05:02:29.000Z</time>
      </trkpt>
      <trkpt lat="43.41044330969453" lon="-6.264451704919338">
        <ele>257</ele>
        <time>2017-08-04T05:02:37.000Z</time>
      </trkpt>
      <trkpt lat="43.41049569658935" lon="-6.264612386003137">
        <ele>258</ele>
        <time>2017-08-04T05:02:46.000Z</time>
      </trkpt>
      <trkpt lat="43.41053819283843" lon="-6.264739288017154">
        <ele>258.8</ele>
        <time>2017-08-04T05:02:55.000Z</time>
      </trkpt>
      <trkpt lat="43.41057004407048" lon="-6.26483291387558">
        <ele>259.4</ele>
        <time>2017-08-04T05:03:03.000Z</time>
      </trkpt>
      <trkpt lat="43.41061790473759" lon="-6.264927629381418">
        <ele>259.6</ele>
        <time>2017-08-04T05:03:11.000Z</time>
      </trkpt>
      <trkpt lat="43.4106435533613" lon="-6.265000468119979">
        <ele>260</ele>
        <time>2017-08-04T05:03:16.000Z</time>
      </trkpt>
      <trkpt lat="43.41069057583809" lon="-6.265144469216466">
        <ele>260.6</ele>
        <time>2017-08-04T05:03:26.000Z</time>
      </trkpt>
      <trkpt lat="43.41072728857398" lon="-6.265256619080901">
        <ele>260.8</ele>
        <time>2017-08-04T05:03:34.000Z</time>
      </trkpt>
      <trkpt lat="43.41076106764376" lon="-6.265372205525637">
        <ele>261.4</ele>
        <time>2017-08-04T05:03:42.000Z</time>
      </trkpt>
      <trkpt lat="43.41077481396496" lon="-6.265454851090908">
        <ele>262.2</ele>
        <time>2017-08-04T05:03:49.000Z</time>
      </trkpt>
      <trkpt lat="43.410786632448435" lon="-6.2655209843069315">
        <ele>262.4</ele>
        <time>2017-08-04T05:03:54.000Z</time>
      </trkpt>
      <trkpt lat="43.41080850921571" lon="-6.265534898266196">
        <ele>262.4</ele>
        <time>2017-08-04T05:04:00.000Z</time>
      </trkpt>
      <trkpt lat="43.410823261365294" lon="-6.265633134171367">
        <ele>262.8</ele>
        <time>2017-08-04T05:04:06.000Z</time>
      </trkpt>
      <trkpt lat="43.41085687279701" lon="-6.265752492472529">
        <ele>263.4</ele>
        <time>2017-08-04T05:04:13.000Z</time>
      </trkpt>
      <trkpt lat="43.41090062633157" lon="-6.265881070867181">
        <ele>263</ele>
        <time>2017-08-04T05:04:21.000Z</time>
      </trkpt>
      <trkpt lat="43.41094756498933" lon="-6.2659757025539875">
        <ele>262.4</ele>
        <time>2017-08-04T05:04:28.000Z</time>
      </trkpt>
      <trkpt lat="43.41101327911019" lon="-6.266088942065835">
        <ele>262</ele>
        <time>2017-08-04T05:04:36.000Z</time>
      </trkpt>
      <trkpt lat="43.411055942997336" lon="-6.266181981191039">
        <ele>261.4</ele>
        <time>2017-08-04T05:04:43.000Z</time>
      </trkpt>
      <trkpt lat="43.41112014837563" lon="-6.266309469938278">
        <ele>261</ele>
        <time>2017-08-04T05:04:53.000Z</time>
      </trkpt>
      <trkpt lat="43.41112811118364" lon="-6.2663134932518005">
        <ele>261.2</ele>
        <time>2017-08-04T05:04:54.000Z</time>
      </trkpt>
      <trkpt lat="43.41114453971386" lon="-6.266360096633434">
        <ele>261.8</ele>
        <time>2017-08-04T05:04:58.000Z</time>
      </trkpt>
      <trkpt lat="43.41115250252187" lon="-6.266371663659811">
        <ele>262</ele>
        <time>2017-08-04T05:04:59.000Z</time>
      </trkpt>
      <trkpt lat="43.41117932461202" lon="-6.266425643116236">
        <ele>262.8</ele>
        <time>2017-08-04T05:05:05.000Z</time>
      </trkpt>
      <trkpt lat="43.41120757162571" lon="-6.266489597037435">
        <ele>263.8</ele>
        <time>2017-08-04T05:05:10.000Z</time>
      </trkpt>
      <trkpt lat="43.411240512505174" lon="-6.266572577878833">
        <ele>263.8</ele>
        <time>2017-08-04T05:05:16.000Z</time>
      </trkpt>
      <trkpt lat="43.41123749502003" lon="-6.266591856256127">
        <ele>263.8</ele>
        <time>2017-08-04T05:05:18.000Z</time>
      </trkpt>
      <trkpt lat="43.41125559993088" lon="-6.26662471331656">
        <ele>264.2</ele>
        <time>2017-08-04T05:05:20.000Z</time>
      </trkpt>
      <trkpt lat="43.41128661297262" lon="-6.266691768541932">
        <ele>265.2</ele>
        <time>2017-08-04T05:05:25.000Z</time>
      </trkpt>
      <trkpt lat="43.41130932793021" lon="-6.266757398843765">
        <ele>265</ele>
        <time>2017-08-04T05:05:31.000Z</time>
      </trkpt>
      <trkpt lat="43.411345118656754" lon="-6.266826214268804">
        <ele>264.2</ele>
        <time>2017-08-04T05:05:36.000Z</time>
      </trkpt>
      <trkpt lat="43.41140412725508" lon="-6.2669131346046925">
        <ele>264.6</ele>
        <time>2017-08-04T05:05:43.000Z</time>
      </trkpt>
      <trkpt lat="43.41145634651184" lon="-6.2670232728123665">
        <ele>266.2</ele>
        <time>2017-08-04T05:05:50.000Z</time>
      </trkpt>
      <trkpt lat="43.41152122244239" lon="-6.267134919762611">
        <ele>265.4</ele>
        <time>2017-08-04T05:05:58.000Z</time>
      </trkpt>
      <trkpt lat="43.411571346223354" lon="-6.267220247536898">
        <ele>265.6</ele>
        <time>2017-08-04T05:06:04.000Z</time>
      </trkpt>
      <trkpt lat="43.41159808449447" lon="-6.2672703713178635">
        <ele>265.8</ele>
        <time>2017-08-04T05:06:08.000Z</time>
      </trkpt>
      <trkpt lat="43.41161417774856" lon="-6.267296774312854">
        <ele>266</ele>
        <time>2017-08-04T05:06:10.000Z</time>
      </trkpt>
      <trkpt lat="43.411675030365586" lon="-6.267426945269108">
        <ele>267.2</ele>
        <time>2017-08-04T05:06:18.000Z</time>
      </trkpt>
      <trkpt lat="43.41169070452452" lon="-6.2674826849251986">
        <ele>268.2</ele>
        <time>2017-08-04T05:06:22.000Z</time>
      </trkpt>
      <trkpt lat="43.41170302592218" lon="-6.267500203102827">
        <ele>268.6</ele>
        <time>2017-08-04T05:06:23.000Z</time>
      </trkpt>
      <trkpt lat="43.41177376918495" lon="-6.2675943318754435">
        <ele>270.8</ele>
        <time>2017-08-04T05:06:31.000Z</time>
      </trkpt>
      <trkpt lat="43.41179799288511" lon="-6.267641186714172">
        <ele>272.4</ele>
        <time>2017-08-04T05:06:36.000Z</time>
      </trkpt>
      <trkpt lat="43.411799501627684" lon="-6.267660381272435">
        <ele>273</ele>
        <time>2017-08-04T05:06:37.000Z</time>
      </trkpt>
      <trkpt lat="43.41183537617326" lon="-6.267718048766255">
        <ele>275</ele>
        <time>2017-08-04T05:06:41.000Z</time>
      </trkpt>
      <trkpt lat="43.411875776946545" lon="-6.267773285508156">
        <ele>278.8</ele>
        <time>2017-08-04T05:06:46.000Z</time>
      </trkpt>
      <trkpt lat="43.41188482940197" lon="-6.267785942181945">
        <ele>279.2</ele>
        <time>2017-08-04T05:06:47.000Z</time>
      </trkpt>
      <trkpt lat="43.41190980747342" lon="-6.267818547785282">
        <ele>280.6</ele>
        <time>2017-08-04T05:06:51.000Z</time>
      </trkpt>
      <trkpt lat="43.411976946517825" lon="-6.2678867764770985">
        <ele>283.4</ele>
        <time>2017-08-04T05:06:58.000Z</time>
      </trkpt>
      <trkpt lat="43.41204224154353" lon="-6.267904881387949">
        <ele>283.8</ele>
        <time>2017-08-04T05:07:06.000Z</time>
      </trkpt>
      <trkpt lat="43.41206897981465" lon="-6.26793472096324">
        <ele>284.2</ele>
        <time>2017-08-04T05:07:09.000Z</time>
      </trkpt>
      <trkpt lat="43.4120730869472" lon="-6.267948132008314">
        <ele>284.6</ele>
        <time>2017-08-04T05:07:10.000Z</time>
      </trkpt>
      <trkpt lat="43.412118097767234" lon="-6.267978893592954">
        <ele>284.8</ele>
        <time>2017-08-04T05:07:14.000Z</time>
      </trkpt>
      <trkpt lat="43.41216000728309" lon="-6.268004793673754">
        <ele>285.2</ele>
        <time>2017-08-04T05:07:18.000Z</time>
      </trkpt>
      <trkpt lat="43.412172915413976" lon="-6.268019545823336">
        <ele>285.6</ele>
        <time>2017-08-04T05:07:20.000Z</time>
      </trkpt>
      <trkpt lat="43.41219110414386" lon="-6.268050475046039">
        <ele>286.2</ele>
        <time>2017-08-04T05:07:22.000Z</time>
      </trkpt>
      <trkpt lat="43.4122374560684" lon="-6.26811895519495">
        <ele>288.2</ele>
        <time>2017-08-04T05:07:27.000Z</time>
      </trkpt>
      <trkpt lat="43.41226939111948" lon="-6.268144603818655">
        <ele>288.8</ele>
        <time>2017-08-04T05:07:29.000Z</time>
      </trkpt>
      <trkpt lat="43.41228104196489" lon="-6.2681621219962835">
        <ele>289.2</ele>
        <time>2017-08-04T05:07:31.000Z</time>
      </trkpt>
      <trkpt lat="43.41231104917824" lon="-6.2681942246854305">
        <ele>290</ele>
        <time>2017-08-04T05:07:34.000Z</time>
      </trkpt>
      <trkpt lat="43.4123548027128" lon="-6.268259435892105">
        <ele>292</ele>
        <time>2017-08-04T05:07:39.000Z</time>
      </trkpt>
      <trkpt lat="43.412411883473396" lon="-6.268335795029998">
        <ele>293.8</ele>
        <time>2017-08-04T05:07:44.000Z</time>
      </trkpt>
      <trkpt lat="43.41248178854585" lon="-6.2683868408203125">
        <ele>294</ele>
        <time>2017-08-04T05:07:50.000Z</time>
      </trkpt>
      <trkpt lat="43.41252101585269" lon="-6.2684263195842505">
        <ele>294.6</ele>
        <time>2017-08-04T05:07:55.000Z</time>
      </trkpt>
      <trkpt lat="43.41253719292581" lon="-6.268440904095769">
        <ele>294.8</ele>
        <time>2017-08-04T05:07:56.000Z</time>
      </trkpt>
      <trkpt lat="43.41256099753082" lon="-6.26850058324635">
        <ele>296</ele>
        <time>2017-08-04T05:07:59.000Z</time>
      </trkpt>
      <trkpt lat="43.41261279769242" lon="-6.26854358240962">
        <ele>296</ele>
        <time>2017-08-04T05:08:03.000Z</time>
      </trkpt>
      <trkpt lat="43.41264573857188" lon="-6.268562441691756">
        <ele>296</ele>
        <time>2017-08-04T05:08:06.000Z</time>
      </trkpt>
      <trkpt lat="43.41267096810043" lon="-6.268561100587249">
        <ele>295.6</ele>
        <time>2017-08-04T05:08:09.000Z</time>
      </trkpt>
      <trkpt lat="43.4126809425652" lon="-6.268579289317131">
        <ele>295.8</ele>
        <time>2017-08-04T05:08:10.000Z</time>
      </trkpt>
      <trkpt lat="43.412731317803264" lon="-6.268603764474392">
        <ele>295.6</ele>
        <time>2017-08-04T05:08:13.000Z</time>
      </trkpt>
      <trkpt lat="43.41275026090443" lon="-6.268622875213623">
        <ele>295.8</ele>
        <time>2017-08-04T05:08:16.000Z</time>
      </trkpt>
      <trkpt lat="43.41276249848306" lon="-6.268628658726811">
        <ele>295.8</ele>
        <time>2017-08-04T05:08:17.000Z</time>
      </trkpt>
      <trkpt lat="43.41277071274817" lon="-6.268640393391252">
        <ele>296</ele>
        <time>2017-08-04T05:08:18.000Z</time>
      </trkpt>
      <trkpt lat="43.412833996117115" lon="-6.268691439181566">
        <ele>296.8</ele>
        <time>2017-08-04T05:08:22.000Z</time>
      </trkpt>
      <trkpt lat="43.41286743991077" lon="-6.268716836348176">
        <ele>297.2</ele>
        <time>2017-08-04T05:08:26.000Z</time>
      </trkpt>
      <trkpt lat="43.41291815042496" lon="-6.268750950694084">
        <ele>295.8</ele>
        <time>2017-08-04T05:08:31.000Z</time>
      </trkpt>
      <trkpt lat="43.4129589702934" lon="-6.268791267648339">
        <ele>294.8</ele>
        <time>2017-08-04T05:08:35.000Z</time>
      </trkpt>
      <trkpt lat="43.413011357188225" lon="-6.268833512440324">
        <ele>293.6</ele>
        <time>2017-08-04T05:08:38.000Z</time>
      </trkpt>
      <trkpt lat="43.413038179278374" lon="-6.26885823905468">
        <ele>293.2</ele>
        <time>2017-08-04T05:08:40.000Z</time>
      </trkpt>
      <trkpt lat="43.41306734830141" lon="-6.268896795809269">
        <ele>293.8</ele>
        <time>2017-08-04T05:08:43.000Z</time>
      </trkpt>
      <trkpt lat="43.41311478987336" lon="-6.2689711432904005">
        <ele>294.6</ele>
        <time>2017-08-04T05:08:49.000Z</time>
      </trkpt>
      <trkpt lat="43.41311604715884" lon="-6.268985392525792">
        <ele>294.8</ele>
        <time>2017-08-04T05:08:50.000Z</time>
      </trkpt>
      <trkpt lat="43.413166254758835" lon="-6.269035013392568">
        <ele>294.2</ele>
        <time>2017-08-04T05:08:54.000Z</time>
      </trkpt>
      <trkpt lat="43.41323146596551" lon="-6.269130064174533">
        <ele>293.4</ele>
        <time>2017-08-04T05:09:00.000Z</time>
      </trkpt>
      <trkpt lat="43.41326080262661" lon="-6.269206590950489">
        <ele>293.4</ele>
        <time>2017-08-04T05:09:04.000Z</time>
      </trkpt>
      <trkpt lat="43.41327563859522" lon="-6.269236262887716">
        <ele>293</ele>
        <time>2017-08-04T05:09:06.000Z</time>
      </trkpt>
      <trkpt lat="43.41328946873546" lon="-6.269259564578533">
        <ele>292.6</ele>
        <time>2017-08-04T05:09:08.000Z</time>
      </trkpt>
      <trkpt lat="43.41332333162427" lon="-6.269305916503072">
        <ele>292.2</ele>
        <time>2017-08-04T05:09:11.000Z</time>
      </trkpt>
      <trkpt lat="43.41333657503128" lon="-6.269393591210246">
        <ele>292</ele>
        <time>2017-08-04T05:09:16.000Z</time>
      </trkpt>
      <trkpt lat="43.41334537602961" lon="-6.269424604251981">
        <ele>292.4</ele>
        <time>2017-08-04T05:09:18.000Z</time>
      </trkpt>
      <trkpt lat="43.41335593722761" lon="-6.269452851265669">
        <ele>292.6</ele>
        <time>2017-08-04T05:09:21.000Z</time>
      </trkpt>
      <trkpt lat="43.41336918063462" lon="-6.269467938691378">
        <ele>292.6</ele>
        <time>2017-08-04T05:09:22.000Z</time>
      </trkpt>
      <trkpt lat="43.413406731560826" lon="-6.269516553729773">
        <ele>293</ele>
        <time>2017-08-04T05:09:26.000Z</time>
      </trkpt>
      <trkpt lat="43.413411006331444" lon="-6.2695496622473">
        <ele>293.2</ele>
        <time>2017-08-04T05:09:27.000Z</time>
      </trkpt>
      <trkpt lat="43.41342139989138" lon="-6.269563911482692">
        <ele>293.2</ele>
        <time>2017-08-04T05:09:29.000Z</time>
      </trkpt>
      <trkpt lat="43.413448641076684" lon="-6.26960339024663">
        <ele>293</ele>
        <time>2017-08-04T05:09:34.000Z</time>
      </trkpt>
      <trkpt lat="43.41345383785665" lon="-6.269613448530436">
        <ele>293</ele>
        <time>2017-08-04T05:09:35.000Z</time>
      </trkpt>
      <trkpt lat="43.413491137325764" lon="-6.269664661958814">
        <ele>292.8</ele>
        <time>2017-08-04T05:09:39.000Z</time>
      </trkpt>
      <trkpt lat="43.413503458723426" lon="-6.2696815095841885">
        <ele>293.2</ele>
        <time>2017-08-04T05:09:40.000Z</time>
      </trkpt>
      <trkpt lat="43.413532795384526" lon="-6.2697256822139025">
        <ele>293.8</ele>
        <time>2017-08-04T05:09:44.000Z</time>
      </trkpt>
      <trkpt lat="43.41353950090706" lon="-6.269736243411899">
        <ele>293.6</ele>
        <time>2017-08-04T05:09:45.000Z</time>
      </trkpt>
      <trkpt lat="43.41356129385531" lon="-6.269820146262646">
        <ele>294.2</ele>
        <time>2017-08-04T05:09:52.000Z</time>
      </trkpt>
      <trkpt lat="43.413564059883356" lon="-6.269831210374832">
        <ele>294.2</ele>
        <time>2017-08-04T05:09:54.000Z</time>
      </trkpt>
      <trkpt lat="43.41357604600489" lon="-6.269845627248287">
        <ele>294.2</ele>
        <time>2017-08-04T05:09:57.000Z</time>
      </trkpt>
      <trkpt lat="43.41360337100923" lon="-6.2698970921337605">
        <ele>294.6</ele>
        <time>2017-08-04T05:10:02.000Z</time>
      </trkpt>
      <trkpt lat="43.41363547369838" lon="-6.269984096288681">
        <ele>295.6</ele>
        <time>2017-08-04T05:10:08.000Z</time>
      </trkpt>
      <trkpt lat="43.41363815590739" lon="-6.270009661093354">
        <ele>296</ele>
        <time>2017-08-04T05:10:10.000Z</time>
      </trkpt>
      <trkpt lat="43.4136601164937" lon="-6.270038578659296">
        <ele>296.4</ele>
        <time>2017-08-04T05:10:13.000Z</time>
      </trkpt>
      <trkpt lat="43.41369037516415" lon="-6.27012575045228">
        <ele>297.4</ele>
        <time>2017-08-04T05:10:18.000Z</time>
      </trkpt>
      <trkpt lat="43.413724824786186" lon="-6.270183669403195">
        <ele>297</ele>
        <time>2017-08-04T05:10:22.000Z</time>
      </trkpt>
      <trkpt lat="43.413733541965485" lon="-6.270207641646266">
        <ele>296.8</ele>
        <time>2017-08-04T05:10:24.000Z</time>
      </trkpt>
      <trkpt lat="43.413745276629925" lon="-6.270237900316715">
        <ele>297.2</ele>
        <time>2017-08-04T05:10:26.000Z</time>
      </trkpt>
      <trkpt lat="43.41375826857984" lon="-6.27031140960753">
        <ele>298.8</ele>
        <time>2017-08-04T05:10:31.000Z</time>
      </trkpt>
      <trkpt lat="43.4137845877558" lon="-6.270390199497342">
        <ele>299.4</ele>
        <time>2017-08-04T05:10:36.000Z</time>
      </trkpt>
      <trkpt lat="43.413796154782176" lon="-6.2704757787287235">
        <ele>300.6</ele>
        <time>2017-08-04T05:10:40.000Z</time>
      </trkpt>
      <trkpt lat="43.41382180340588" lon="-6.270529171451926">
        <ele>301.4</ele>
        <time>2017-08-04T05:10:44.000Z</time>
      </trkpt>
      <trkpt lat="43.41382892802358" lon="-6.270565297454596">
        <ele>302</ele>
        <time>2017-08-04T05:10:46.000Z</time>
      </trkpt>
      <trkpt lat="43.4138466976583" lon="-6.270628245547414">
        <ele>302.6</ele>
        <time>2017-08-04T05:10:50.000Z</time>
      </trkpt>
      <trkpt lat="43.41385709121823" lon="-6.270677279680967">
        <ele>303.4</ele>
        <time>2017-08-04T05:10:53.000Z</time>
      </trkpt>
      <trkpt lat="43.41387586668134" lon="-6.270721536129713">
        <ele>303.6</ele>
        <time>2017-08-04T05:10:56.000Z</time>
      </trkpt>
      <trkpt lat="43.413890451192856" lon="-6.270772917196155">
        <ele>304.4</ele>
        <time>2017-08-04T05:10:59.000Z</time>
      </trkpt>
      <trkpt lat="43.4138900320977" lon="-6.270785741508007">
        <ele>304.8</ele>
        <time>2017-08-04T05:11:00.000Z</time>
      </trkpt>
      <trkpt lat="43.41389170847833" lon="-6.270821364596486">
        <ele>306.2</ele>
        <time>2017-08-04T05:11:02.000Z</time>
      </trkpt>
      <trkpt lat="43.413940742611885" lon="-6.270915074273944">
        <ele>308.4</ele>
        <time>2017-08-04T05:11:08.000Z</time>
      </trkpt>
      <trkpt lat="43.41396203264594" lon="-6.270935442298651">
        <ele>308.4</ele>
        <time>2017-08-04T05:11:09.000Z</time>
      </trkpt>
      <trkpt lat="43.414002265781164" lon="-6.2709631863981485">
        <ele>307.2</ele>
        <time>2017-08-04T05:11:12.000Z</time>
      </trkpt>
      <trkpt lat="43.414031183347106" lon="-6.271021775901318">
        <ele>307</ele>
        <time>2017-08-04T05:11:16.000Z</time>
      </trkpt>
      <trkpt lat="43.41403126716614" lon="-6.271028900519013">
        <ele>307.2</ele>
        <time>2017-08-04T05:11:17.000Z</time>
      </trkpt>
      <trkpt lat="43.4140385594219" lon="-6.271049100905657">
        <ele>307.4</ele>
        <time>2017-08-04T05:11:18.000Z</time>
      </trkpt>
      <trkpt lat="43.41407242231071" lon="-6.271084053441882">
        <ele>306.8</ele>
        <time>2017-08-04T05:11:20.000Z</time>
      </trkpt>
      <trkpt lat="43.41417099349201" lon="-6.271174913272262">
        <ele>303.8</ele>
        <time>2017-08-04T05:11:27.000Z</time>
      </trkpt>
      <trkpt lat="43.41419748030603" lon="-6.271199304610491">
        <ele>303.6</ele>
        <time>2017-08-04T05:11:30.000Z</time>
      </trkpt>
      <trkpt lat="43.41425430960953" lon="-6.271251188591123">
        <ele>302.6</ele>
        <time>2017-08-04T05:11:35.000Z</time>
      </trkpt>
      <trkpt lat="43.41430736705661" lon="-6.271311370655894">
        <ele>301.2</ele>
        <time>2017-08-04T05:11:41.000Z</time>
      </trkpt>
      <trkpt lat="43.414313569664955" lon="-6.271320339292288">
        <ele>301.2</ele>
        <time>2017-08-04T05:11:42.000Z</time>
      </trkpt>
      <trkpt lat="43.41434198431671" lon="-6.271347748115659">
        <ele>301</ele>
        <time>2017-08-04T05:11:46.000Z</time>
      </trkpt>
      <trkpt lat="43.41435338370502" lon="-6.271370043978095">
        <ele>301.4</ele>
        <time>2017-08-04T05:11:48.000Z</time>
      </trkpt>
      <trkpt lat="43.41438037343323" lon="-6.27138689160347">
        <ele>300.8</ele>
        <time>2017-08-04T05:11:53.000Z</time>
      </trkpt>
      <trkpt lat="43.414429826661944" lon="-6.271431315690279">
        <ele>299.4</ele>
        <time>2017-08-04T05:11:58.000Z</time>
      </trkpt>
      <trkpt lat="43.41443644836545" lon="-6.271441793069243">
        <ele>299.6</ele>
        <time>2017-08-04T05:11:59.000Z</time>
      </trkpt>
      <trkpt lat="43.41447567567229" lon="-6.271490575745702">
        <ele>300</ele>
        <time>2017-08-04T05:12:05.000Z</time>
      </trkpt>
      <trkpt lat="43.414509538561106" lon="-6.271532317623496">
        <ele>300</ele>
        <time>2017-08-04T05:12:09.000Z</time>
      </trkpt>
      <trkpt lat="43.414535438641906" lon="-6.2715510930866">
        <ele>299</ele>
        <time>2017-08-04T05:12:11.000Z</time>
      </trkpt>
      <trkpt lat="43.41454356908798" lon="-6.271564504131675">
        <ele>298.8</ele>
        <time>2017-08-04T05:12:13.000Z</time>
      </trkpt>
      <trkpt lat="43.41456393711269" lon="-6.2715863808989525">
        <ele>298.2</ele>
        <time>2017-08-04T05:12:16.000Z</time>
      </trkpt>
      <trkpt lat="43.41458891518414" lon="-6.271623848006129">
        <ele>298.2</ele>
        <time>2017-08-04T05:12:19.000Z</time>
      </trkpt>
      <trkpt lat="43.41460173949599" lon="-6.271641701459885">
        <ele>298.4</ele>
        <time>2017-08-04T05:12:21.000Z</time>
      </trkpt>
      <trkpt lat="43.41462110169232" lon="-6.271702134981751">
        <ele>300.4</ele>
        <time>2017-08-04T05:12:26.000Z</time>
      </trkpt>
      <trkpt lat="43.414650689810514" lon="-6.271741697564721">
        <ele>300.8</ele>
        <time>2017-08-04T05:12:30.000Z</time>
      </trkpt>
      <trkpt lat="43.41465295292437" lon="-6.271747816354036">
        <ele>301</ele>
        <time>2017-08-04T05:12:31.000Z</time>
      </trkpt>
      <trkpt lat="43.414677092805505" lon="-6.271778577938676">
        <ele>301.4</ele>
        <time>2017-08-04T05:12:36.000Z</time>
      </trkpt>
      <trkpt lat="43.41468715108931" lon="-6.271787462756038">
        <ele>301.4</ele>
        <time>2017-08-04T05:12:37.000Z</time>
      </trkpt>
      <trkpt lat="43.41471347026527" lon="-6.271823337301612">
        <ele>302.6</ele>
        <time>2017-08-04T05:12:41.000Z</time>
      </trkpt>
      <trkpt lat="43.414724031463265" lon="-6.271851332858205">
        <ele>303.8</ele>
        <time>2017-08-04T05:12:43.000Z</time>
      </trkpt>
      <trkpt lat="43.41473467648029" lon="-6.271868264302611">
        <ele>303.6</ele>
        <time>2017-08-04T05:12:45.000Z</time>
      </trkpt>
      <trkpt lat="43.41474238783121" lon="-6.2718817591667175">
        <ele>303.6</ele>
        <time>2017-08-04T05:12:47.000Z</time>
      </trkpt>
      <trkpt lat="43.414763091132045" lon="-6.271891230717301">
        <ele>303.6</ele>
        <time>2017-08-04T05:12:48.000Z</time>
      </trkpt>
      <trkpt lat="43.41478153131902" lon="-6.271912436932325">
        <ele>304.2</ele>
        <time>2017-08-04T05:12:50.000Z</time>
      </trkpt>
      <trkpt lat="43.414811957627535" lon="-6.271947473287582">
        <ele>305.4</ele>
        <time>2017-08-04T05:12:54.000Z</time>
      </trkpt>
      <trkpt lat="43.41484246775508" lon="-6.271969182416797">
        <ele>305.8</ele>
        <time>2017-08-04T05:12:58.000Z</time>
      </trkpt>
      <trkpt lat="43.414884544909" lon="-6.27198695205152">
        <ele>305.2</ele>
        <time>2017-08-04T05:13:02.000Z</time>
      </trkpt>
      <trkpt lat="43.41490952298045" lon="-6.272006733343005">
        <ele>304.6</ele>
        <time>2017-08-04T05:13:05.000Z</time>
      </trkpt>
      <trkpt lat="43.41494606807828" lon="-6.272024922072887">
        <ele>303.4</ele>
        <time>2017-08-04T05:13:08.000Z</time>
      </trkpt>
      <trkpt lat="43.414988396689296" lon="-6.272048391401768">
        <ele>302.8</ele>
        <time>2017-08-04T05:13:11.000Z</time>
      </trkpt>
      <trkpt lat="43.415002562105656" lon="-6.272062808275223">
        <ele>303.4</ele>
        <time>2017-08-04T05:13:12.000Z</time>
      </trkpt>
      <trkpt lat="43.414999544620514" lon="-6.272085607051849">
        <ele>304.4</ele>
        <time>2017-08-04T05:13:15.000Z</time>
      </trkpt>
      <trkpt lat="43.41501538641751" lon="-6.272093150764704">
        <ele>304.8</ele>
        <time>2017-08-04T05:13:16.000Z</time>
      </trkpt>
      <trkpt lat="43.415088476613164" lon="-6.272129779681563">
        <ele>305</ele>
        <time>2017-08-04T05:13:24.000Z</time>
      </trkpt>
      <trkpt lat="43.415104653686285" lon="-6.272131456062198">
        <ele>304.8</ele>
        <time>2017-08-04T05:13:26.000Z</time>
      </trkpt>
      <trkpt lat="43.4150951821357" lon="-6.272113602608442">
        <ele>304.6</ele>
        <time>2017-08-04T05:13:27.000Z</time>
      </trkpt>
      <trkpt lat="43.41511705890298" lon="-6.272128606215119">
        <ele>304.6</ele>
        <time>2017-08-04T05:13:29.000Z</time>
      </trkpt>
      <trkpt lat="43.41515821404755" lon="-6.272138748317957">
        <ele>304</ele>
        <time>2017-08-04T05:13:32.000Z</time>
      </trkpt>
      <trkpt lat="43.415224347263575" lon="-6.272177305072546">
        <ele>304.8</ele>
        <time>2017-08-04T05:13:36.000Z</time>
      </trkpt>
      <trkpt lat="43.415274638682604" lon="-6.272197086364031">
        <ele>305.6</ele>
        <time>2017-08-04T05:13:40.000Z</time>
      </trkpt>
      <trkpt lat="43.41529995203018" lon="-6.2722027860581875">
        <ele>306.6</ele>
        <time>2017-08-04T05:13:42.000Z</time>
      </trkpt>
      <trkpt lat="43.41534873470664" lon="-6.272231452167034">
        <ele>309.2</ele>
        <time>2017-08-04T05:13:46.000Z</time>
      </trkpt>
      <trkpt lat="43.41535845771432" lon="-6.272233296185732">
        <ele>309.6</ele>
        <time>2017-08-04T05:13:47.000Z</time>
      </trkpt>
      <trkpt lat="43.41537656262517" lon="-6.272250395268202">
        <ele>311</ele>
        <time>2017-08-04T05:13:48.000Z</time>
      </trkpt>
      <trkpt lat="43.41541721485555" lon="-6.272274954244494">
        <ele>313.4</ele>
        <time>2017-08-04T05:13:52.000Z</time>
      </trkpt>
      <trkpt lat="43.41542945243418" lon="-6.272275121882558">
        <ele>313.4</ele>
        <time>2017-08-04T05:13:53.000Z</time>
      </trkpt>
      <trkpt lat="43.41547412797809" lon="-6.272288532927632">
        <ele>313.8</ele>
        <time>2017-08-04T05:13:56.000Z</time>
      </trkpt>
      <trkpt lat="43.4155061468482" lon="-6.2723117507994175">
        <ele>314.4</ele>
        <time>2017-08-04T05:13:59.000Z</time>
      </trkpt>
      <trkpt lat="43.41551536694169" lon="-6.272324156016111">
        <ele>314.8</ele>
        <time>2017-08-04T05:14:00.000Z</time>
      </trkpt>
      <trkpt lat="43.415574291720986" lon="-6.272343350574374">
        <ele>315.8</ele>
        <time>2017-08-04T05:14:05.000Z</time>
      </trkpt>
      <trkpt lat="43.415639251470566" lon="-6.272371513769031">
        <ele>316.8</ele>
        <time>2017-08-04T05:14:10.000Z</time>
      </trkpt>
      <trkpt lat="43.415665654465556" lon="-6.272379392758012">
        <ele>317</ele>
        <time>2017-08-04T05:14:11.000Z</time>
      </trkpt>
      <trkpt lat="43.41572499834001" lon="-6.272414429113269">
        <ele>317.6</ele>
        <time>2017-08-04T05:14:16.000Z</time>
      </trkpt>
      <trkpt lat="43.41579574160278" lon="-6.272454997524619">
        <ele>319</ele>
        <time>2017-08-04T05:14:22.000Z</time>
      </trkpt>
      <trkpt lat="43.41580797918141" lon="-6.272465139627457">
        <ele>319.2</ele>
        <time>2017-08-04T05:14:24.000Z</time>
      </trkpt>
      <trkpt lat="43.4158309455961" lon="-6.2724740244448185">
        <ele>319.8</ele>
        <time>2017-08-04T05:14:26.000Z</time>
      </trkpt>
      <trkpt lat="43.415846871212125" lon="-6.272481065243483">
        <ele>320.2</ele>
        <time>2017-08-04T05:14:28.000Z</time>
      </trkpt>
      <trkpt lat="43.415882578119636" lon="-6.272482741624117">
        <ele>320.6</ele>
        <time>2017-08-04T05:14:31.000Z</time>
      </trkpt>
      <trkpt lat="43.41588634997606" lon="-6.272489782422781">
        <ele>320.8</ele>
        <time>2017-08-04T05:14:33.000Z</time>
      </trkpt>
      <trkpt lat="43.41589598916471" lon="-6.272494308650494">
        <ele>321.2</ele>
        <time>2017-08-04T05:14:34.000Z</time>
      </trkpt>
      <trkpt lat="43.415922140702605" lon="-6.27251417376101">
        <ele>322.2</ele>
        <time>2017-08-04T05:14:37.000Z</time>
      </trkpt>
      <trkpt lat="43.415951393544674" lon="-6.272540409117937">
        <ele>323.4</ele>
        <time>2017-08-04T05:14:40.000Z</time>
      </trkpt>
      <trkpt lat="43.4159984998405" lon="-6.272586174309254">
        <ele>325.4</ele>
        <time>2017-08-04T05:14:44.000Z</time>
      </trkpt>
      <trkpt lat="43.41605767607689" lon="-6.272631688043475">
        <ele>327</ele>
        <time>2017-08-04T05:14:50.000Z</time>
      </trkpt>
      <trkpt lat="43.41609346680343" lon="-6.2726398184895515">
        <ele>327.2</ele>
        <time>2017-08-04T05:14:54.000Z</time>
      </trkpt>
      <trkpt lat="43.41611551120877" lon="-6.272646859288216">
        <ele>327.4</ele>
        <time>2017-08-04T05:14:56.000Z</time>
      </trkpt>
      <trkpt lat="43.41613386757672" lon="-6.272662114351988">
        <ele>327.8</ele>
        <time>2017-08-04T05:14:58.000Z</time>
      </trkpt>
      <trkpt lat="43.4161435905844" lon="-6.272664461284876">
        <ele>327.8</ele>
        <time>2017-08-04T05:14:59.000Z</time>
      </trkpt>
      <trkpt lat="43.416148871183395" lon="-6.272662952542305">
        <ele>327.8</ele>
        <time>2017-08-04T05:15:00.000Z</time>
      </trkpt>
      <trkpt lat="43.41621349565685" lon="-6.272690948098898">
        <ele>328.6</ele>
        <time>2017-08-04T05:15:05.000Z</time>
      </trkpt>
      <trkpt lat="43.41625967994332" lon="-6.272703353315592">
        <ele>329</ele>
        <time>2017-08-04T05:15:09.000Z</time>
      </trkpt>
      <trkpt lat="43.41630737297237" lon="-6.272717854008079">
        <ele>329.4</ele>
        <time>2017-08-04T05:15:14.000Z</time>
      </trkpt>
      <trkpt lat="43.41631734743714" lon="-6.272729421034455">
        <ele>329.8</ele>
        <time>2017-08-04T05:15:15.000Z</time>
      </trkpt>
      <trkpt lat="43.416356490924954" lon="-6.272750208154321">
        <ele>330</ele>
        <time>2017-08-04T05:15:18.000Z</time>
      </trkpt>
      <trkpt lat="43.41640560887754" lon="-6.272794213145971">
        <ele>329.6</ele>
        <time>2017-08-04T05:15:22.000Z</time>
      </trkpt>
      <trkpt lat="43.41643108986318" lon="-6.2728129886090755">
        <ele>329.2</ele>
        <time>2017-08-04T05:15:24.000Z</time>
      </trkpt>
      <trkpt lat="43.41652647592127" lon="-6.272871410474181">
        <ele>327.8</ele>
        <time>2017-08-04T05:15:31.000Z</time>
      </trkpt>
      <trkpt lat="43.416554890573025" lon="-6.272899070754647">
        <ele>327.6</ele>
        <time>2017-08-04T05:15:34.000Z</time>
      </trkpt>
      <trkpt lat="43.41657576151192" lon="-6.27292606048286">
        <ele>327.6</ele>
        <time>2017-08-04T05:15:36.000Z</time>
      </trkpt>
      <trkpt lat="43.41662890277803" lon="-6.273005688562989">
        <ele>327.6</ele>
        <time>2017-08-04T05:15:42.000Z</time>
      </trkpt>
      <trkpt lat="43.416647678241134" lon="-6.273022284731269">
        <ele>327.2</ele>
        <time>2017-08-04T05:15:44.000Z</time>
      </trkpt>
      <trkpt lat="43.416667794808745" lon="-6.273077102378011">
        <ele>327</ele>
        <time>2017-08-04T05:15:48.000Z</time>
      </trkpt>
      <trkpt lat="43.41670014895499" lon="-6.273133931681514">
        <ele>326.8</ele>
        <time>2017-08-04T05:15:53.000Z</time>
      </trkpt>
      <trkpt lat="43.41671037487686" lon="-6.273179780691862">
        <ele>327</ele>
        <time>2017-08-04T05:15:56.000Z</time>
      </trkpt>
      <trkpt lat="43.416708866134286" lon="-6.273198053240776">
        <ele>327</ele>
        <time>2017-08-04T05:15:57.000Z</time>
      </trkpt>
      <trkpt lat="43.41672705486417" lon="-6.273238118737936">
        <ele>327.2</ele>
        <time>2017-08-04T05:16:00.000Z</time>
      </trkpt>
      <trkpt lat="43.416728815063834" lon="-6.273256642743945">
        <ele>327.4</ele>
        <time>2017-08-04T05:16:01.000Z</time>
      </trkpt>
      <trkpt lat="43.41673552058637" lon="-6.27327642403543">
        <ele>327.4</ele>
        <time>2017-08-04T05:16:02.000Z</time>
      </trkpt>
      <trkpt lat="43.41673459857702" lon="-6.2733616679906845">
        <ele>328.4</ele>
        <time>2017-08-04T05:16:07.000Z</time>
      </trkpt>
      <trkpt lat="43.416728815063834" lon="-6.2733936868608">
        <ele>328.8</ele>
        <time>2017-08-04T05:16:09.000Z</time>
      </trkpt>
      <trkpt lat="43.4167202655226" lon="-6.2734361831098795">
        <ele>329.4</ele>
        <time>2017-08-04T05:16:12.000Z</time>
      </trkpt>
      <trkpt lat="43.416721103712916" lon="-6.273446744307876">
        <ele>329.6</ele>
        <time>2017-08-04T05:16:13.000Z</time>
      </trkpt>
      <trkpt lat="43.416718170046806" lon="-6.27348848618567">
        <ele>330</ele>
        <time>2017-08-04T05:16:16.000Z</time>
      </trkpt>
      <trkpt lat="43.416716661304235" lon="-6.2735124584287405">
        <ele>330.2</ele>
        <time>2017-08-04T05:16:18.000Z</time>
      </trkpt>
      <trkpt lat="43.416718086227775" lon="-6.273529808968306">
        <ele>330.2</ele>
        <time>2017-08-04T05:16:19.000Z</time>
      </trkpt>
      <trkpt lat="43.416721019893885" lon="-6.273577753454447">
        <ele>330.6</ele>
        <time>2017-08-04T05:16:23.000Z</time>
      </trkpt>
      <trkpt lat="43.41672621667385" lon="-6.273603234440088">
        <ele>330.8</ele>
        <time>2017-08-04T05:16:25.000Z</time>
      </trkpt>
      <trkpt lat="43.41673283837736" lon="-6.273710774257779">
        <ele>331.8</ele>
        <time>2017-08-04T05:16:31.000Z</time>
      </trkpt>
      <trkpt lat="43.41673644259572" lon="-6.273747738450766">
        <ele>332.2</ele>
        <time>2017-08-04T05:16:34.000Z</time>
      </trkpt>
      <trkpt lat="43.416746500879526" lon="-6.273776153102517">
        <ele>332.2</ele>
        <time>2017-08-04T05:16:36.000Z</time>
      </trkpt>
      <trkpt lat="43.416754715144634" lon="-6.273817727342248">
        <ele>332.6</ele>
        <time>2017-08-04T05:16:39.000Z</time>
      </trkpt>
      <trkpt lat="43.41675857082009" lon="-6.273848908022046">
        <ele>332.8</ele>
        <time>2017-08-04T05:16:41.000Z</time>
      </trkpt>
      <trkpt lat="43.41677759774029" lon="-6.273929374292493">
        <ele>333.6</ele>
        <time>2017-08-04T05:16:46.000Z</time>
      </trkpt>
      <trkpt lat="43.41678380034864" lon="-6.27394731156528">
        <ele>333.8</ele>
        <time>2017-08-04T05:16:47.000Z</time>
      </trkpt>
      <trkpt lat="43.416821183636785" lon="-6.273981677368283">
        <ele>332.8</ele>
        <time>2017-08-04T05:16:49.000Z</time>
      </trkpt>
      <trkpt lat="43.41682143509388" lon="-6.273999949917197">
        <ele>332.8</ele>
        <time>2017-08-04T05:16:51.000Z</time>
      </trkpt>
      <trkpt lat="43.41683409176767" lon="-6.274031549692154">
        <ele>332.6</ele>
        <time>2017-08-04T05:16:53.000Z</time>
      </trkpt>
      <trkpt lat="43.41687097214162" lon="-6.274098018184304">
        <ele>331.6</ele>
        <time>2017-08-04T05:16:58.000Z</time>
      </trkpt>
      <trkpt lat="43.416909612715244" lon="-6.2741356529295444">
        <ele>330.6</ele>
        <time>2017-08-04T05:17:03.000Z</time>
      </trkpt>
      <trkpt lat="43.41692604124546" lon="-6.2741586193442345">
        <ele>330.6</ele>
        <time>2017-08-04T05:17:05.000Z</time>
      </trkpt>
      <trkpt lat="43.41694749891758" lon="-6.274190302938223">
        <ele>330.8</ele>
        <time>2017-08-04T05:17:08.000Z</time>
      </trkpt>
      <trkpt lat="43.41696811839938" lon="-6.274210838600993">
        <ele>331</ele>
        <time>2017-08-04T05:17:10.000Z</time>
      </trkpt>
      <trkpt lat="43.41698672622442" lon="-6.274227267131209">
        <ele>331</ele>
        <time>2017-08-04T05:17:12.000Z</time>
      </trkpt>
      <trkpt lat="43.41699552722275" lon="-6.2742452044039965">
        <ele>331.2</ele>
        <time>2017-08-04T05:17:15.000Z</time>
      </trkpt>
      <trkpt lat="43.41699787415564" lon="-6.274255011230707">
        <ele>331.4</ele>
        <time>2017-08-04T05:17:16.000Z</time>
      </trkpt>
      <trkpt lat="43.41700064018369" lon="-6.274304464459419">
        <ele>331.8</ele>
        <time>2017-08-04T05:17:20.000Z</time>
      </trkpt>
      <trkpt lat="43.41701094992459" lon="-6.274362131953239">
        <ele>332.2</ele>
        <time>2017-08-04T05:17:23.000Z</time>
      </trkpt>
      <trkpt lat="43.417017320171" lon="-6.274401526898146">
        <ele>332.6</ele>
        <time>2017-08-04T05:17:26.000Z</time>
      </trkpt>
      <trkpt lat="43.41704472899437" lon="-6.27446330152452">
        <ele>333.2</ele>
        <time>2017-08-04T05:17:31.000Z</time>
      </trkpt>
      <trkpt lat="43.41704682447016" lon="-6.2744740303605795">
        <ele>333.4</ele>
        <time>2017-08-04T05:17:32.000Z</time>
      </trkpt>
      <trkpt lat="43.41705805622041" lon="-6.2745594419538975">
        <ele>334</ele>
        <time>2017-08-04T05:17:37.000Z</time>
      </trkpt>
      <trkpt lat="43.41705738566816" lon="-6.274579809978604">
        <ele>334</ele>
        <time>2017-08-04T05:17:38.000Z</time>
      </trkpt>
      <trkpt lat="43.41705847531557" lon="-6.274659773334861">
        <ele>334</ele>
        <time>2017-08-04T05:17:43.000Z</time>
      </trkpt>
      <trkpt lat="43.41705126687884" lon="-6.274702688679099">
        <ele>334.6</ele>
        <time>2017-08-04T05:17:46.000Z</time>
      </trkpt>
      <trkpt lat="43.41704238206148" lon="-6.274741664528847">
        <ele>335.2</ele>
        <time>2017-08-04T05:17:49.000Z</time>
      </trkpt>
      <trkpt lat="43.41704523190856" lon="-6.274810563772917">
        <ele>336</ele>
        <time>2017-08-04T05:17:54.000Z</time>
      </trkpt>
      <trkpt lat="43.41705738566816" lon="-6.274848869070411">
        <ele>335.4</ele>
        <time>2017-08-04T05:17:58.000Z</time>
      </trkpt>
      <trkpt lat="43.417059229686856" lon="-6.274861358106136">
        <ele>335.4</ele>
        <time>2017-08-04T05:17:59.000Z</time>
      </trkpt>
      <trkpt lat="43.41708395630121" lon="-6.274932101368904">
        <ele>334.2</ele>
        <time>2017-08-04T05:18:04.000Z</time>
      </trkpt>
      <trkpt lat="43.417120752856135" lon="-6.275026984512806">
        <ele>333.6</ele>
        <time>2017-08-04T05:18:10.000Z</time>
      </trkpt>
      <trkpt lat="43.417171128094196" lon="-6.275105774402618">
        <ele>330.4</ele>
        <time>2017-08-04T05:18:16.000Z</time>
      </trkpt>
      <trkpt lat="43.41719660907984" lon="-6.27516838721931">
        <ele>328.4</ele>
        <time>2017-08-04T05:18:21.000Z</time>
      </trkpt>
      <trkpt lat="43.417204823344946" lon="-6.275204848498106">
        <ele>328.2</ele>
        <time>2017-08-04T05:18:23.000Z</time>
      </trkpt>
      <trkpt lat="43.41721219941974" lon="-6.275218008086085">
        <ele>328</ele>
        <time>2017-08-04T05:18:24.000Z</time>
      </trkpt>
      <trkpt lat="43.41723868623376" lon="-6.275263438001275">
        <ele>327.8</ele>
        <time>2017-08-04T05:18:27.000Z</time>
      </trkpt>
      <trkpt lat="43.417246313765645" lon="-6.275266706943512">
        <ele>327.8</ele>
        <time>2017-08-04T05:18:28.000Z</time>
      </trkpt>
      <trkpt lat="43.417274225503206" lon="-6.275310544297099">
        <ele>327.6</ele>
        <time>2017-08-04T05:18:32.000Z</time>
      </trkpt>
      <trkpt lat="43.417300544679165" lon="-6.27539754845202">
        <ele>327.4</ele>
        <time>2017-08-04T05:18:37.000Z</time>
      </trkpt>
      <trkpt lat="43.41730875894427" lon="-6.27548354677856">
        <ele>326.4</ele>
        <time>2017-08-04T05:18:42.000Z</time>
      </trkpt>
      <trkpt lat="43.41733641922474" lon="-6.275592008605599">
        <ele>325.6</ele>
        <time>2017-08-04T05:18:48.000Z</time>
      </trkpt>
      <trkpt lat="43.41734287329018" lon="-6.275633331388235">
        <ele>325.6</ele>
        <time>2017-08-04T05:18:50.000Z</time>
      </trkpt>
      <trkpt lat="43.4173468966037" lon="-6.275767777115107">
        <ele>326</ele>
        <time>2017-08-04T05:18:57.000Z</time>
      </trkpt>
      <trkpt lat="43.4173590503633" lon="-6.275884537026286">
        <ele>327.6</ele>
        <time>2017-08-04T05:19:03.000Z</time>
      </trkpt>
      <trkpt lat="43.41737765818834" lon="-6.276034656912088">
        <ele>328</ele>
        <time>2017-08-04T05:19:11.000Z</time>
      </trkpt>
      <trkpt lat="43.41737547889352" lon="-6.276045385748148">
        <ele>328</ele>
        <time>2017-08-04T05:19:12.000Z</time>
      </trkpt>
      <trkpt lat="43.41737765818834" lon="-6.276123505085707">
        <ele>328.6</ele>
        <time>2017-08-04T05:19:16.000Z</time>
      </trkpt>
      <trkpt lat="43.417379669845104" lon="-6.276144459843636">
        <ele>328.8</ele>
        <time>2017-08-04T05:19:17.000Z</time>
      </trkpt>
      <trkpt lat="43.41737112030387" lon="-6.276253256946802">
        <ele>330</ele>
        <time>2017-08-04T05:19:23.000Z</time>
      </trkpt>
      <trkpt lat="43.417364079505205" lon="-6.276274379342794">
        <ele>330.2</ele>
        <time>2017-08-04T05:19:24.000Z</time>
      </trkpt>
      <trkpt lat="43.41734966263175" lon="-6.276348223909736">
        <ele>331.2</ele>
        <time>2017-08-04T05:19:29.000Z</time>
      </trkpt>
      <trkpt lat="43.41733214445412" lon="-6.276395497843623">
        <ele>331.8</ele>
        <time>2017-08-04T05:19:34.000Z</time>
      </trkpt>
      <trkpt lat="43.41732409782708" lon="-6.276408741250634">
        <ele>332</ele>
        <time>2017-08-04T05:19:36.000Z</time>
      </trkpt>
      <trkpt lat="43.41732711531222" lon="-6.27640513703227">
        <ele>332</ele>
        <time>2017-08-04T05:19:43.000Z</time>
      </trkpt>
      <trkpt lat="43.41734169982374" lon="-6.276380494236946">
        <ele>331.6</ele>
        <time>2017-08-04T05:20:02.000Z</time>
      </trkpt>
      <trkpt lat="43.417357206344604" lon="-6.276369262486696">
        <ele>331.4</ele>
        <time>2017-08-04T05:20:20.000Z</time>
      </trkpt>
      <trkpt lat="43.41733541339636" lon="-6.276396168395877">
        <ele>331.8</ele>
        <time>2017-08-04T05:20:27.000Z</time>
      </trkpt>
      <trkpt lat="43.417302975431085" lon="-6.276428271085024">
        <ele>332.4</ele>
        <time>2017-08-04T05:20:31.000Z</time>
      </trkpt>
      <trkpt lat="43.417249666526914" lon="-6.276501612737775">
        <ele>333.6</ele>
        <time>2017-08-04T05:20:38.000Z</time>
      </trkpt>
      <trkpt lat="43.417189149186015" lon="-6.276583336293697">
        <ele>335.2</ele>
        <time>2017-08-04T05:20:46.000Z</time>
      </trkpt>
      <trkpt lat="43.417133409529924" lon="-6.276638573035598">
        <ele>337</ele>
        <time>2017-08-04T05:20:52.000Z</time>
      </trkpt>
      <trkpt lat="43.4171122033149" lon="-6.276652235537767">
        <ele>337.6</ele>
        <time>2017-08-04T05:20:54.000Z</time>
      </trkpt>
      <trkpt lat="43.41700709424913" lon="-6.276725577190518">
        <ele>340.4</ele>
        <time>2017-08-04T05:21:04.000Z</time>
      </trkpt>
      <trkpt lat="43.4169930126518" lon="-6.276734629645944">
        <ele>340.8</ele>
        <time>2017-08-04T05:21:05.000Z</time>
      </trkpt>
      <trkpt lat="43.41695227660239" lon="-6.276758434250951">
        <ele>342</ele>
        <time>2017-08-04T05:21:09.000Z</time>
      </trkpt>
      <trkpt lat="43.41694322414696" lon="-6.276773940771818">
        <ele>342</ele>
        <time>2017-08-04T05:21:10.000Z</time>
      </trkpt>
      <trkpt lat="43.41691430658102" lon="-6.276820879429579">
        <ele>342.6</ele>
        <time>2017-08-04T05:21:14.000Z</time>
      </trkpt>
      <trkpt lat="43.41692310757935" lon="-6.2768342066556215">
        <ele>341.8</ele>
        <time>2017-08-04T05:21:15.000Z</time>
      </trkpt>
      <trkpt lat="43.41689335182309" lon="-6.27686932682991">
        <ele>343.2</ele>
        <time>2017-08-04T05:21:18.000Z</time>
      </trkpt>
      <trkpt lat="43.41688639484346" lon="-6.27688248641789">
        <ele>343.4</ele>
        <time>2017-08-04T05:21:19.000Z</time>
      </trkpt>
      <trkpt lat="43.41684523969889" lon="-6.276996731758118">
        <ele>345</ele>
        <time>2017-08-04T05:21:26.000Z</time>
      </trkpt>
      <trkpt lat="43.4168447367847" lon="-6.277008131146431">
        <ele>345</ele>
        <time>2017-08-04T05:21:27.000Z</time>
      </trkpt>
      <trkpt lat="43.416819758713245" lon="-6.277118856087327">
        <ele>346.6</ele>
        <time>2017-08-04T05:21:34.000Z</time>
      </trkpt>
      <trkpt lat="43.41678933240473" lon="-6.277262605726719">
        <ele>348.2</ele>
        <time>2017-08-04T05:21:43.000Z</time>
      </trkpt>
      <trkpt lat="43.41677298769355" lon="-6.277346592396498">
        <ele>348.6</ele>
        <time>2017-08-04T05:21:48.000Z</time>
      </trkpt>
      <trkpt lat="43.41676586307585" lon="-6.2773760966956615">
        <ele>348.6</ele>
        <time>2017-08-04T05:21:50.000Z</time>
      </trkpt>
      <trkpt lat="43.41674440540373" lon="-6.277518169954419">
        <ele>348</ele>
        <time>2017-08-04T05:21:58.000Z</time>
      </trkpt>
      <trkpt lat="43.4167289827019" lon="-6.277552954852581">
        <ele>348.4</ele>
        <time>2017-08-04T05:22:00.000Z</time>
      </trkpt>
      <trkpt lat="43.41671825386584" lon="-6.277581537142396">
        <ele>348.6</ele>
        <time>2017-08-04T05:22:02.000Z</time>
      </trkpt>
      <trkpt lat="43.41671213507652" lon="-6.27761154435575">
        <ele>348.6</ele>
        <time>2017-08-04T05:22:04.000Z</time>
      </trkpt>
      <trkpt lat="43.416699478402734" lon="-6.277679018676281">
        <ele>348.8</ele>
        <time>2017-08-04T05:22:08.000Z</time>
      </trkpt>
      <trkpt lat="43.41669729910791" lon="-6.277693854644895">
        <ele>349.2</ele>
        <time>2017-08-04T05:22:09.000Z</time>
      </trkpt>
      <trkpt lat="43.416687827557325" lon="-6.277770800516009">
        <ele>350.2</ele>
        <time>2017-08-04T05:22:13.000Z</time>
      </trkpt>
      <trkpt lat="43.4166872408241" lon="-6.277795024216175">
        <ele>350.4</ele>
        <time>2017-08-04T05:22:15.000Z</time>
      </trkpt>
      <trkpt lat="43.41668791137636" lon="-6.277861660346389">
        <ele>350.8</ele>
        <time>2017-08-04T05:22:19.000Z</time>
      </trkpt>
      <trkpt lat="43.41668497771025" lon="-6.27795310690999">
        <ele>351.6</ele>
        <time>2017-08-04T05:22:25.000Z</time>
      </trkpt>
      <trkpt lat="43.41668514534831" lon="-6.277962494641542">
        <ele>351.6</ele>
        <time>2017-08-04T05:22:26.000Z</time>
      </trkpt>
      <trkpt lat="43.41667684726417" lon="-6.277995184063911">
        <ele>352</ele>
        <time>2017-08-04T05:22:28.000Z</time>
      </trkpt>
      <trkpt lat="43.41667885892093" lon="-6.278032902628183">
        <ele>351.8</ele>
        <time>2017-08-04T05:22:30.000Z</time>
      </trkpt>
      <trkpt lat="43.416675589978695" lon="-6.2780502531677485">
        <ele>352</ele>
        <time>2017-08-04T05:22:31.000Z</time>
      </trkpt>
      <trkpt lat="43.41664348728955" lon="-6.278152177110314">
        <ele>353</ele>
        <time>2017-08-04T05:22:37.000Z</time>
      </trkpt>
      <trkpt lat="43.416625801473856" lon="-6.278176484629512">
        <ele>353.6</ele>
        <time>2017-08-04T05:22:39.000Z</time>
      </trkpt>
      <trkpt lat="43.416614066809416" lon="-6.278204647824168">
        <ele>354</ele>
        <time>2017-08-04T05:22:41.000Z</time>
      </trkpt>
      <trkpt lat="43.41660887002945" lon="-6.2782337330281734">
        <ele>354.2</ele>
        <time>2017-08-04T05:22:43.000Z</time>
      </trkpt>
      <trkpt lat="43.41659998521209" lon="-6.278241528198123">
        <ele>354.6</ele>
        <time>2017-08-04T05:22:44.000Z</time>
      </trkpt>
      <trkpt lat="43.416533851996064" lon="-6.278302548453212">
        <ele>357.2</ele>
        <time>2017-08-04T05:22:50.000Z</time>
      </trkpt>
      <trkpt lat="43.41651222668588" lon="-6.278368262574077">
        <ele>358.4</ele>
        <time>2017-08-04T05:22:55.000Z</time>
      </trkpt>
      <trkpt lat="43.41650694608688" lon="-6.2783977668732405">
        <ele>358.8</ele>
        <time>2017-08-04T05:22:57.000Z</time>
      </trkpt>
      <trkpt lat="43.41651105321944" lon="-6.278455099090934">
        <ele>358.6</ele>
        <time>2017-08-04T05:23:00.000Z</time>
      </trkpt>
      <trkpt lat="43.41651013121009" lon="-6.278520729392767">
        <ele>358.4</ele>
        <time>2017-08-04T05:23:03.000Z</time>
      </trkpt>
      <trkpt lat="43.41650526970625" lon="-6.278542438521981">
        <ele>358.4</ele>
        <time>2017-08-04T05:23:04.000Z</time>
      </trkpt>
      <trkpt lat="43.41651348397136" lon="-6.278565237298608">
        <ele>358.2</ele>
        <time>2017-08-04T05:23:05.000Z</time>
      </trkpt>
      <trkpt lat="43.41651524417102" lon="-6.278619719669223">
        <ele>358.2</ele>
        <time>2017-08-04T05:23:08.000Z</time>
      </trkpt>
      <trkpt lat="43.416509879752994" lon="-6.278640003874898">
        <ele>358.6</ele>
        <time>2017-08-04T05:23:09.000Z</time>
      </trkpt>
      <trkpt lat="43.41652111150324" lon="-6.278659785166383">
        <ele>358.2</ele>
        <time>2017-08-04T05:23:10.000Z</time>
      </trkpt>
      <trkpt lat="43.41653200797737" lon="-6.278717033565044">
        <ele>357.6</ele>
        <time>2017-08-04T05:23:13.000Z</time>
      </trkpt>
      <trkpt lat="43.41653217561543" lon="-6.278731198981404">
        <ele>357.6</ele>
        <time>2017-08-04T05:23:14.000Z</time>
      </trkpt>
      <trkpt lat="43.41653058305383" lon="-6.278765983879566">
        <ele>357.6</ele>
        <time>2017-08-04T05:23:16.000Z</time>
      </trkpt>
      <trkpt lat="43.41652974486351" lon="-6.2788221426308155">
        <ele>357.8</ele>
        <time>2017-08-04T05:23:19.000Z</time>
      </trkpt>
      <trkpt lat="43.41653795912862" lon="-6.278838654980063">
        <ele>357.4</ele>
        <time>2017-08-04T05:23:20.000Z</time>
      </trkpt>
      <trkpt lat="43.41653762385249" lon="-6.278891880065203">
        <ele>357.6</ele>
        <time>2017-08-04T05:23:23.000Z</time>
      </trkpt>
      <trkpt lat="43.416539719328284" lon="-6.278921300545335">
        <ele>357.6</ele>
        <time>2017-08-04T05:23:25.000Z</time>
      </trkpt>
      <trkpt lat="43.41653075069189" lon="-6.278995396569371">
        <ele>358</ele>
        <time>2017-08-04T05:23:29.000Z</time>
      </trkpt>
      <trkpt lat="43.41653569601476" lon="-6.2790124118328094">
        <ele>357.8</ele>
        <time>2017-08-04T05:23:30.000Z</time>
      </trkpt>
      <trkpt lat="43.41654298827052" lon="-6.279064631089568">
        <ele>357.4</ele>
        <time>2017-08-04T05:23:33.000Z</time>
      </trkpt>
      <trkpt lat="43.41654634103179" lon="-6.279139649122953">
        <ele>357.2</ele>
        <time>2017-08-04T05:23:37.000Z</time>
      </trkpt>
      <trkpt lat="43.41654634103179" lon="-6.27915314398706">
        <ele>357.2</ele>
        <time>2017-08-04T05:23:38.000Z</time>
      </trkpt>
      <trkpt lat="43.41656737960875" lon="-6.279231095686555">
        <ele>356.2</ele>
        <time>2017-08-04T05:23:42.000Z</time>
      </trkpt>
      <trkpt lat="43.416572073474526" lon="-6.279275184497237">
        <ele>356.2</ele>
        <time>2017-08-04T05:23:44.000Z</time>
      </trkpt>
      <trkpt lat="43.41657081618905" lon="-6.279341485351324">
        <ele>356.6</ele>
        <time>2017-08-04T05:23:48.000Z</time>
      </trkpt>
      <trkpt lat="43.41657626442611" lon="-6.279378114268184">
        <ele>356.4</ele>
        <time>2017-08-04T05:23:50.000Z</time>
      </trkpt>
      <trkpt lat="43.41658657416701" lon="-6.279436452314258">
        <ele>356.4</ele>
        <time>2017-08-04T05:23:53.000Z</time>
      </trkpt>
      <trkpt lat="43.4165854845196" lon="-6.279467297717929">
        <ele>357</ele>
        <time>2017-08-04T05:23:55.000Z</time>
      </trkpt>
      <trkpt lat="43.41654340736568" lon="-6.2795366160571575">
        <ele>360</ele>
        <time>2017-08-04T05:23:58.000Z</time>
      </trkpt>
      <trkpt lat="43.41653695330024" lon="-6.279578693211079">
        <ele>361.2</ele>
        <time>2017-08-04T05:24:00.000Z</time>
      </trkpt>
      <trkpt lat="43.416525553911924" lon="-6.2796031683683395">
        <ele>362</ele>
        <time>2017-08-04T05:24:02.000Z</time>
      </trkpt>
      <trkpt lat="43.41653997078538" lon="-6.27962663769722">
        <ele>361.8</ele>
        <time>2017-08-04T05:24:04.000Z</time>
      </trkpt>
      <trkpt lat="43.41654885560274" lon="-6.279632672667503">
        <ele>361.6</ele>
        <time>2017-08-04T05:24:05.000Z</time>
      </trkpt>
      <trkpt lat="43.41655321419239" lon="-6.279649352654815">
        <ele>361.6</ele>
        <time>2017-08-04T05:24:06.000Z</time>
      </trkpt>
      <trkpt lat="43.4165667090565" lon="-6.279724203050137">
        <ele>362.2</ele>
        <time>2017-08-04T05:24:10.000Z</time>
      </trkpt>
      <trkpt lat="43.41657425276935" lon="-6.27973803319037">
        <ele>362.2</ele>
        <time>2017-08-04T05:24:11.000Z</time>
      </trkpt>
      <trkpt lat="43.41659428551793" lon="-6.279766280204058">
        <ele>361.8</ele>
        <time>2017-08-04T05:24:14.000Z</time>
      </trkpt>
      <trkpt lat="43.416603757068515" lon="-6.279793521389365">
        <ele>362</ele>
        <time>2017-08-04T05:24:15.000Z</time>
      </trkpt>
      <trkpt lat="43.41661867685616" lon="-6.279832161962986">
        <ele>362</ele>
        <time>2017-08-04T05:24:17.000Z</time>
      </trkpt>
      <trkpt lat="43.41662898659706" lon="-6.279863342642784">
        <ele>362.2</ele>
        <time>2017-08-04T05:24:19.000Z</time>
      </trkpt>
      <trkpt lat="43.416639463976026" lon="-6.279879603534937">
        <ele>362</ele>
        <time>2017-08-04T05:24:20.000Z</time>
      </trkpt>
      <trkpt lat="43.416644828394055" lon="-6.279891422018409">
        <ele>362.2</ele>
        <time>2017-08-04T05:24:21.000Z</time>
      </trkpt>
      <trkpt lat="43.416663855314255" lon="-6.27993400208652">
        <ele>362.4</ele>
        <time>2017-08-04T05:24:24.000Z</time>
      </trkpt>
      <trkpt lat="43.41667156666517" lon="-6.279963422566652">
        <ele>362.4</ele>
        <time>2017-08-04T05:24:26.000Z</time>
      </trkpt>
      <trkpt lat="43.416686821728945" lon="-6.280041625723243">
        <ele>362.8</ele>
        <time>2017-08-04T05:24:30.000Z</time>
      </trkpt>
      <trkpt lat="43.416691264137626" lon="-6.280058976262808">
        <ele>362.8</ele>
        <time>2017-08-04T05:24:31.000Z</time>
      </trkpt>
      <trkpt lat="43.416699478402734" lon="-6.280087223276496">
        <ele>362.8</ele>
        <time>2017-08-04T05:24:33.000Z</time>
      </trkpt>
      <trkpt lat="43.416697634384036" lon="-6.28017732873559">
        <ele>363.8</ele>
        <time>2017-08-04T05:24:40.000Z</time>
      </trkpt>
      <trkpt lat="43.416691264137626" lon="-6.280208509415388">
        <ele>364.2</ele>
        <time>2017-08-04T05:24:42.000Z</time>
      </trkpt>
      <trkpt lat="43.41667500324547" lon="-6.280275983735919">
        <ele>365.6</ele>
        <time>2017-08-04T05:24:46.000Z</time>
      </trkpt>
      <trkpt lat="43.41666201129556" lon="-6.28034639172256">
        <ele>366.8</ele>
        <time>2017-08-04T05:24:50.000Z</time>
      </trkpt>
      <trkpt lat="43.41666469350457" lon="-6.28036349080503">
        <ele>366.8</ele>
        <time>2017-08-04T05:24:51.000Z</time>
      </trkpt>
      <trkpt lat="43.416678104549646" lon="-6.280415961518884">
        <ele>367</ele>
        <time>2017-08-04T05:24:54.000Z</time>
      </trkpt>
      <trkpt lat="43.416683385148644" lon="-6.280487794429064">
        <ele>367.2</ele>
        <time>2017-08-04T05:24:58.000Z</time>
      </trkpt>
      <trkpt lat="43.41668992303312" lon="-6.280516879633069">
        <ele>367.2</ele>
        <time>2017-08-04T05:25:00.000Z</time>
      </trkpt>
      <trkpt lat="43.41669201850891" lon="-6.280531883239746">
        <ele>367.2</ele>
        <time>2017-08-04T05:25:01.000Z</time>
      </trkpt>
      <trkpt lat="43.41669478453696" lon="-6.280550071969628">
        <ele>367.4</ele>
        <time>2017-08-04T05:25:02.000Z</time>
      </trkpt>
      <trkpt lat="43.41671984642744" lon="-6.2806030455976725">
        <ele>367</ele>
        <time>2017-08-04T05:25:06.000Z</time>
      </trkpt>
      <trkpt lat="43.416726384311914" lon="-6.280612349510193">
        <ele>366.8</ele>
        <time>2017-08-04T05:25:07.000Z</time>
      </trkpt>
      <trkpt lat="43.416755720973015" lon="-6.28067278303206">
        <ele>366.4</ele>
        <time>2017-08-04T05:25:13.000Z</time>
      </trkpt>
      <trkpt lat="43.41676460579038" lon="-6.280682673677802">
        <ele>366</ele>
        <time>2017-08-04T05:25:14.000Z</time>
      </trkpt>
      <trkpt lat="43.41677684336901" lon="-6.28071921877563">
        <ele>366</ele>
        <time>2017-08-04T05:25:17.000Z</time>
      </trkpt>
      <trkpt lat="43.41675848700106" lon="-6.280766744166613">
        <ele>367.6</ele>
        <time>2017-08-04T05:25:21.000Z</time>
      </trkpt>
      <trkpt lat="43.41675153002143" lon="-6.280790716409683">
        <ele>368.2</ele>
        <time>2017-08-04T05:25:23.000Z</time>
      </trkpt>
      <trkpt lat="43.41674926690757" lon="-6.280824579298496">
        <ele>368.8</ele>
        <time>2017-08-04T05:25:25.000Z</time>
      </trkpt>
      <trkpt lat="43.416752284392715" lon="-6.2808410078287125">
        <ele>368.8</ele>
        <time>2017-08-04T05:25:26.000Z</time>
      </trkpt>
      <trkpt lat="43.41675437986851" lon="-6.280855257064104">
        <ele>369</ele>
        <time>2017-08-04T05:25:27.000Z</time>
      </trkpt>
      <trkpt lat="43.41676049865782" lon="-6.2809431832283735">
        <ele>370</ele>
        <time>2017-08-04T05:25:33.000Z</time>
      </trkpt>
      <trkpt lat="43.41676829382777" lon="-6.280956845730543">
        <ele>370</ele>
        <time>2017-08-04T05:25:34.000Z</time>
      </trkpt>
      <trkpt lat="43.41676829382777" lon="-6.280956845730543">
        <ele>370</ele>
        <time>2017-08-04T05:25:34.000Z</time>
      </trkpt>
      <trkpt lat="43.41676477342844" lon="-6.280972771346569">
        <ele>370.4</ele>
        <time>2017-08-04T05:25:35.000Z</time>
      </trkpt>
      <trkpt lat="43.41677265241742" lon="-6.2810342106968164">
        <ele>371.2</ele>
        <time>2017-08-04T05:25:39.000Z</time>
      </trkpt>
      <trkpt lat="43.41678338125348" lon="-6.281061619520187">
        <ele>371</ele>
        <time>2017-08-04T05:25:41.000Z</time>
      </trkpt>
      <trkpt lat="43.41680156998336" lon="-6.281098164618015">
        <ele>370.6</ele>
        <time>2017-08-04T05:25:44.000Z</time>
      </trkpt>
      <trkpt lat="43.4168048389256" lon="-6.2811122462153435">
        <ele>370.8</ele>
        <time>2017-08-04T05:25:45.000Z</time>
      </trkpt>
      <trkpt lat="43.41682353056967" lon="-6.281162369996309">
        <ele>370.2</ele>
        <time>2017-08-04T05:25:48.000Z</time>
      </trkpt>
      <trkpt lat="43.41685261577368" lon="-6.281190449371934">
        <ele>368.2</ele>
        <time>2017-08-04T05:25:50.000Z</time>
      </trkpt>
      <trkpt lat="43.41688362881541" lon="-6.28123277798295">
        <ele>366</ele>
        <time>2017-08-04T05:25:53.000Z</time>
      </trkpt>
      <trkpt lat="43.41693735681474" lon="-6.2813587579876184">
        <ele>362.6</ele>
        <time>2017-08-04T05:26:01.000Z</time>
      </trkpt>
      <trkpt lat="43.41699603013694" lon="-6.281492281705141">
        <ele>361.4</ele>
        <time>2017-08-04T05:26:10.000Z</time>
      </trkpt>
      <trkpt lat="43.41700994409621" lon="-6.281598061323166">
        <ele>360.8</ele>
        <time>2017-08-04T05:26:16.000Z</time>
      </trkpt>
      <trkpt lat="43.41700994409621" lon="-6.281635360792279">
        <ele>361.4</ele>
        <time>2017-08-04T05:26:18.000Z</time>
      </trkpt>
      <trkpt lat="43.416994186118245" lon="-6.281776092946529">
        <ele>364.4</ele>
        <time>2017-08-04T05:26:26.000Z</time>
      </trkpt>
      <trkpt lat="43.416993683204055" lon="-6.281877346336842">
        <ele>365.8</ele>
        <time>2017-08-04T05:26:32.000Z</time>
      </trkpt>
      <trkpt lat="43.41698815114796" lon="-6.282028555870056">
        <ele>369.2</ele>
        <time>2017-08-04T05:26:41.000Z</time>
      </trkpt>
      <trkpt lat="43.416963424533606" lon="-6.282169120386243">
        <ele>373.2</ele>
        <time>2017-08-04T05:26:50.000Z</time>
      </trkpt>
      <trkpt lat="43.416941966861486" lon="-6.282302895560861">
        <ele>375.6</ele>
        <time>2017-08-04T05:26:58.000Z</time>
      </trkpt>
      <trkpt lat="43.41692880727351" lon="-6.282438011839986">
        <ele>377.6</ele>
        <time>2017-08-04T05:27:06.000Z</time>
      </trkpt>
      <trkpt lat="43.416923359036446" lon="-6.282538175582886">
        <ele>378.6</ele>
        <time>2017-08-04T05:27:12.000Z</time>
      </trkpt>
      <trkpt lat="43.41692369431257" lon="-6.282553179189563">
        <ele>378.8</ele>
        <time>2017-08-04T05:27:13.000Z</time>
      </trkpt>
      <trkpt lat="43.416920341551304" lon="-6.2825871258974075">
        <ele>379.2</ele>
        <time>2017-08-04T05:27:15.000Z</time>
      </trkpt>
      <trkpt lat="43.416913552209735" lon="-6.282639931887388">
        <ele>380.2</ele>
        <time>2017-08-04T05:27:19.000Z</time>
      </trkpt>
      <trkpt lat="43.41691925190389" lon="-6.282667759805918">
        <ele>379.8</ele>
        <time>2017-08-04T05:27:21.000Z</time>
      </trkpt>
      <trkpt lat="43.41691103763878" lon="-6.282708747312427">
        <ele>381</ele>
        <time>2017-08-04T05:27:24.000Z</time>
      </trkpt>
      <trkpt lat="43.41688605956733" lon="-6.282780161127448">
        <ele>383</ele>
        <time>2017-08-04T05:27:28.000Z</time>
      </trkpt>
      <trkpt lat="43.4168875683099" lon="-6.28280907869339">
        <ele>382.8</ele>
        <time>2017-08-04T05:27:30.000Z</time>
      </trkpt>
      <trkpt lat="43.416881784796715" lon="-6.282860795035958">
        <ele>383.2</ele>
        <time>2017-08-04T05:27:33.000Z</time>
      </trkpt>
      <trkpt lat="43.41687700711191" lon="-6.28287504427135">
        <ele>383.6</ele>
        <time>2017-08-04T05:27:34.000Z</time>
      </trkpt>
      <trkpt lat="43.416877929121256" lon="-6.282895412296057">
        <ele>383.6</ele>
        <time>2017-08-04T05:27:35.000Z</time>
      </trkpt>
      <trkpt lat="43.41687281616032" lon="-6.282961377874017">
        <ele>384</ele>
        <time>2017-08-04T05:27:39.000Z</time>
      </trkpt>
      <trkpt lat="43.41686233878136" lon="-6.283074365928769">
        <ele>384.6</ele>
        <time>2017-08-04T05:27:46.000Z</time>
      </trkpt>
      <trkpt lat="43.41686409898102" lon="-6.283089788630605">
        <ele>384.4</ele>
        <time>2017-08-04T05:27:47.000Z</time>
      </trkpt>
      <trkpt lat="43.41685060411692" lon="-6.28315893933177">
        <ele>384.8</ele>
        <time>2017-08-04T05:27:52.000Z</time>
      </trkpt>
      <trkpt lat="43.41685068793595" lon="-6.283175786957145">
        <ele>384.6</ele>
        <time>2017-08-04T05:27:53.000Z</time>
      </trkpt>
      <trkpt lat="43.416841216385365" lon="-6.283219121396542">
        <ele>385</ele>
        <time>2017-08-04T05:27:56.000Z</time>
      </trkpt>
      <trkpt lat="43.41683031991124" lon="-6.283232616260648">
        <ele>386</ele>
        <time>2017-08-04T05:27:57.000Z</time>
      </trkpt>
      <trkpt lat="43.41682814061642" lon="-6.283243093639612">
        <ele>386</ele>
        <time>2017-08-04T05:27:58.000Z</time>
      </trkpt>
      <trkpt lat="43.4168188367039" lon="-6.283309059217572">
        <ele>386</ele>
        <time>2017-08-04T05:28:02.000Z</time>
      </trkpt>
      <trkpt lat="43.41682185418904" lon="-6.283387932926416">
        <ele>384.8</ele>
        <time>2017-08-04T05:28:08.000Z</time>
      </trkpt>
      <trkpt lat="43.41681900434196" lon="-6.283400673419237">
        <ele>385</ele>
        <time>2017-08-04T05:28:09.000Z</time>
      </trkpt>
      <trkpt lat="43.41680777259171" lon="-6.283430932089686">
        <ele>385.8</ele>
        <time>2017-08-04T05:28:11.000Z</time>
      </trkpt>
      <trkpt lat="43.4168238658458" lon="-6.283491952344775">
        <ele>384.2</ele>
        <time>2017-08-04T05:28:15.000Z</time>
      </trkpt>
      <trkpt lat="43.416807018220425" lon="-6.283535286784172">
        <ele>385.6</ele>
        <time>2017-08-04T05:28:18.000Z</time>
      </trkpt>
      <trkpt lat="43.4168066829443" lon="-6.283559678122401">
        <ele>385.6</ele>
        <time>2017-08-04T05:28:20.000Z</time>
      </trkpt>
      <trkpt lat="43.416806012392044" lon="-6.283626984804869">
        <ele>385.8</ele>
        <time>2017-08-04T05:28:24.000Z</time>
      </trkpt>
      <trkpt lat="43.41680576093495" lon="-6.283660344779491">
        <ele>386</ele>
        <time>2017-08-04T05:28:26.000Z</time>
      </trkpt>
      <trkpt lat="43.4168101195246" lon="-6.283691441640258">
        <ele>386</ele>
        <time>2017-08-04T05:28:28.000Z</time>
      </trkpt>
      <trkpt lat="43.41680970042944" lon="-6.283706445246935">
        <ele>386.2</ele>
        <time>2017-08-04T05:28:29.000Z</time>
      </trkpt>
      <trkpt lat="43.41677164658904" lon="-6.283783810213208">
        <ele>390.2</ele>
        <time>2017-08-04T05:28:33.000Z</time>
      </trkpt>
      <trkpt lat="43.41674675233662" lon="-6.283881543204188">
        <ele>392.4</ele>
        <time>2017-08-04T05:28:39.000Z</time>
      </trkpt>
      <trkpt lat="43.41673443093896" lon="-6.283946670591831">
        <ele>393</ele>
        <time>2017-08-04T05:28:43.000Z</time>
      </trkpt>
      <trkpt lat="43.41673920862377" lon="-6.283962009474635">
        <ele>392.6</ele>
        <time>2017-08-04T05:28:44.000Z</time>
      </trkpt>
      <trkpt lat="43.416737699881196" lon="-6.283975839614868">
        <ele>392.6</ele>
        <time>2017-08-04T05:28:45.000Z</time>
      </trkpt>
      <trkpt lat="43.416711715981364" lon="-6.284018503502011">
        <ele>394.4</ele>
        <time>2017-08-04T05:28:48.000Z</time>
      </trkpt>
      <trkpt lat="43.41671138070524" lon="-6.284032417461276">
        <ele>394.4</ele>
        <time>2017-08-04T05:28:49.000Z</time>
      </trkpt>
      <trkpt lat="43.41671691276133" lon="-6.284129396080971">
        <ele>394.4</ele>
        <time>2017-08-04T05:28:55.000Z</time>
      </trkpt>
      <trkpt lat="43.416714649647474" lon="-6.284146830439568">
        <ele>394.6</ele>
        <time>2017-08-04T05:28:56.000Z</time>
      </trkpt>
      <trkpt lat="43.416723450645804" lon="-6.284227212890983">
        <ele>393.6</ele>
        <time>2017-08-04T05:29:01.000Z</time>
      </trkpt>
      <trkpt lat="43.416726468130946" lon="-6.284266440197825">
        <ele>393.4</ele>
        <time>2017-08-04T05:29:04.000Z</time>
      </trkpt>
      <trkpt lat="43.41676443815231" lon="-6.284354366362095">
        <ele>391.6</ele>
        <time>2017-08-04T05:29:09.000Z</time>
      </trkpt>
      <trkpt lat="43.41676753945649" lon="-6.284416476264596">
        <ele>391.8</ele>
        <time>2017-08-04T05:29:13.000Z</time>
      </trkpt>
      <trkpt lat="43.41676091775298" lon="-6.284507000818849">
        <ele>392</ele>
        <time>2017-08-04T05:29:19.000Z</time>
      </trkpt>
      <trkpt lat="43.41675169765949" lon="-6.284579755738378">
        <ele>392.6</ele>
        <time>2017-08-04T05:29:23.000Z</time>
      </trkpt>
      <trkpt lat="43.416747003793716" lon="-6.284605823457241">
        <ele>393</ele>
        <time>2017-08-04T05:29:25.000Z</time>
      </trkpt>
      <trkpt lat="43.4167358558625" lon="-6.28466097638011">
        <ele>393.6</ele>
        <time>2017-08-04T05:29:28.000Z</time>
      </trkpt>
      <trkpt lat="43.41671917587519" lon="-6.284694001078606">
        <ele>394.8</ele>
        <time>2017-08-04T05:29:30.000Z</time>
      </trkpt>
      <trkpt lat="43.41668673790991" lon="-6.284787459298968">
        <ele>397.4</ele>
        <time>2017-08-04T05:29:36.000Z</time>
      </trkpt>
      <trkpt lat="43.416677098721266" lon="-6.284904638305306">
        <ele>399</ele>
        <time>2017-08-04T05:29:43.000Z</time>
      </trkpt>
      <trkpt lat="43.416681457310915" lon="-6.284946883097291">
        <ele>399.2</ele>
        <time>2017-08-04T05:29:46.000Z</time>
      </trkpt>
      <trkpt lat="43.41669478453696" lon="-6.285020392388105">
        <ele>398.8</ele>
        <time>2017-08-04T05:29:50.000Z</time>
      </trkpt>
      <trkpt lat="43.416701992973685" lon="-6.2850527465343475">
        <ele>398.6</ele>
        <time>2017-08-04T05:29:52.000Z</time>
      </trkpt>
      <trkpt lat="43.41670266352594" lon="-6.285070599988103">
        <ele>398.8</ele>
        <time>2017-08-04T05:29:54.000Z</time>
      </trkpt>
      <trkpt lat="43.416702831164" lon="-6.285144696012139">
        <ele>399</ele>
        <time>2017-08-04T05:29:59.000Z</time>
      </trkpt>
      <trkpt lat="43.416703920811415" lon="-6.28525760024786">
        <ele>399.6</ele>
        <time>2017-08-04T05:30:06.000Z</time>
      </trkpt>
      <trkpt lat="43.416718672961" lon="-6.285340581089258">
        <ele>399.2</ele>
        <time>2017-08-04T05:30:11.000Z</time>
      </trkpt>
      <trkpt lat="43.41672428883612" lon="-6.2853811495006084">
        <ele>399</ele>
        <time>2017-08-04T05:30:13.000Z</time>
      </trkpt>
      <trkpt lat="43.41672814451158" lon="-6.28541199490428">
        <ele>399</ele>
        <time>2017-08-04T05:30:15.000Z</time>
      </trkpt>
      <trkpt lat="43.41673099435866" lon="-6.285427752882242">
        <ele>398.6</ele>
        <time>2017-08-04T05:30:16.000Z</time>
      </trkpt>
      <trkpt lat="43.416730323806405" lon="-6.285442924126983">
        <ele>398.6</ele>
        <time>2017-08-04T05:30:17.000Z</time>
      </trkpt>
      <trkpt lat="43.41674071736634" lon="-6.285521546378732">
        <ele>397.6</ele>
        <time>2017-08-04T05:30:22.000Z</time>
      </trkpt>
      <trkpt lat="43.416743064299226" lon="-6.285594552755356">
        <ele>398</ele>
        <time>2017-08-04T05:30:26.000Z</time>
      </trkpt>
      <trkpt lat="43.41674138791859" lon="-6.285626823082566">
        <ele>398.4</ele>
        <time>2017-08-04T05:30:28.000Z</time>
      </trkpt>
      <trkpt lat="43.416751278564334" lon="-6.285677785053849">
        <ele>397.8</ele>
        <time>2017-08-04T05:30:31.000Z</time>
      </trkpt>
      <trkpt lat="43.41674976982176" lon="-6.285730339586735">
        <ele>397.4</ele>
        <time>2017-08-04T05:30:34.000Z</time>
      </trkpt>
      <trkpt lat="43.41675563715398" lon="-6.285766717046499">
        <ele>396.6</ele>
        <time>2017-08-04T05:30:36.000Z</time>
      </trkpt>
      <trkpt lat="43.41677935793996" lon="-6.285817343741655">
        <ele>394.8</ele>
        <time>2017-08-04T05:30:39.000Z</time>
      </trkpt>
      <trkpt lat="43.41677315533161" lon="-6.285849949344993">
        <ele>395.2</ele>
        <time>2017-08-04T05:30:41.000Z</time>
      </trkpt>
      <trkpt lat="43.41677558608353" lon="-6.285881465300918">
        <ele>395</ele>
        <time>2017-08-04T05:30:43.000Z</time>
      </trkpt>
      <trkpt lat="43.41677449643612" lon="-6.285972744226456">
        <ele>396</ele>
        <time>2017-08-04T05:30:49.000Z</time>
      </trkpt>
      <trkpt lat="43.41677935793996" lon="-6.285989172756672">
        <ele>396</ele>
        <time>2017-08-04T05:30:50.000Z</time>
      </trkpt>
      <trkpt lat="43.41677399352193" lon="-6.286040050908923">
        <ele>397.2</ele>
        <time>2017-08-04T05:30:53.000Z</time>
      </trkpt>
      <trkpt lat="43.416767958551645" lon="-6.286076847463846">
        <ele>398.4</ele>
        <time>2017-08-04T05:30:55.000Z</time>
      </trkpt>
      <trkpt lat="43.41676712036133" lon="-6.286106016486883">
        <ele>399</ele>
        <time>2017-08-04T05:30:57.000Z</time>
      </trkpt>
      <trkpt lat="43.4167649410665" lon="-6.286145159974694">
        <ele>400</ele>
        <time>2017-08-04T05:31:00.000Z</time>
      </trkpt>
      <trkpt lat="43.41676879674196" lon="-6.286163851618767">
        <ele>400.2</ele>
        <time>2017-08-04T05:31:01.000Z</time>
      </trkpt>
      <trkpt lat="43.41677147895098" lon="-6.2862528674304485">
        <ele>401.6</ele>
        <time>2017-08-04T05:31:06.000Z</time>
      </trkpt>
      <trkpt lat="43.41676753945649" lon="-6.286273654550314">
        <ele>402.2</ele>
        <time>2017-08-04T05:31:07.000Z</time>
      </trkpt>
      <trkpt lat="43.416742561385036" lon="-6.286366945132613">
        <ele>405.2</ele>
        <time>2017-08-04T05:31:12.000Z</time>
      </trkpt>
      <trkpt lat="43.4167374484241" lon="-6.286386558786035">
        <ele>405.8</ele>
        <time>2017-08-04T05:31:13.000Z</time>
      </trkpt>
      <trkpt lat="43.41673267073929" lon="-6.286428216844797">
        <ele>406.6</ele>
        <time>2017-08-04T05:31:16.000Z</time>
      </trkpt>
      <trkpt lat="43.41673552058637" lon="-6.286444645375013">
        <ele>406.6</ele>
        <time>2017-08-04T05:31:17.000Z</time>
      </trkpt>
      <trkpt lat="43.416745914146304" lon="-6.286490997299552">
        <ele>406.6</ele>
        <time>2017-08-04T05:31:20.000Z</time>
      </trkpt>
      <trkpt lat="43.416743567213416" lon="-6.286506420001388">
        <ele>407</ele>
        <time>2017-08-04T05:31:21.000Z</time>
      </trkpt>
      <trkpt lat="43.41674423776567" lon="-6.286545982584357">
        <ele>407.4</ele>
        <time>2017-08-04T05:31:24.000Z</time>
      </trkpt>
      <trkpt lat="43.416751278564334" lon="-6.286658551543951">
        <ele>408.8</ele>
        <time>2017-08-04T05:31:30.000Z</time>
      </trkpt>
      <trkpt lat="43.41676091775298" lon="-6.2867494113743305">
        <ele>410</ele>
        <time>2017-08-04T05:31:35.000Z</time>
      </trkpt>
      <trkpt lat="43.41676611453295" lon="-6.286767516285181">
        <ele>410</ele>
        <time>2017-08-04T05:31:36.000Z</time>
      </trkpt>
      <trkpt lat="43.416789500042796" lon="-6.28688863478601">
        <ele>409.4</ele>
        <time>2017-08-04T05:31:43.000Z</time>
      </trkpt>
      <trkpt lat="43.41681556776166" lon="-6.287009418010712">
        <ele>408.4</ele>
        <time>2017-08-04T05:31:50.000Z</time>
      </trkpt>
      <trkpt lat="43.41683425940573" lon="-6.287123914808035">
        <ele>409.2</ele>
        <time>2017-08-04T05:31:56.000Z</time>
      </trkpt>
      <trkpt lat="43.41683375649154" lon="-6.287193484604359">
        <ele>410.2</ele>
        <time>2017-08-04T05:32:00.000Z</time>
      </trkpt>
      <trkpt lat="43.4168394561857" lon="-6.287225252017379">
        <ele>410</ele>
        <time>2017-08-04T05:32:02.000Z</time>
      </trkpt>
      <trkpt lat="43.41684834100306" lon="-6.287268670275807">
        <ele>410.2</ele>
        <time>2017-08-04T05:32:05.000Z</time>
      </trkpt>
      <trkpt lat="43.41685060411692" lon="-6.2872897926718">
        <ele>410.4</ele>
        <time>2017-08-04T05:32:07.000Z</time>
      </trkpt>
      <trkpt lat="43.41685873456299" lon="-6.287320554256439">
        <ele>410.4</ele>
        <time>2017-08-04T05:32:09.000Z</time>
      </trkpt>
      <trkpt lat="43.41685999184847" lon="-6.287393644452095">
        <ele>411.6</ele>
        <time>2017-08-04T05:32:13.000Z</time>
      </trkpt>
      <trkpt lat="43.41686300933361" lon="-6.287427004426718">
        <ele>412.2</ele>
        <time>2017-08-04T05:32:15.000Z</time>
      </trkpt>
      <trkpt lat="43.416863260790706" lon="-6.287444187328219">
        <ele>412.4</ele>
        <time>2017-08-04T05:32:16.000Z</time>
      </trkpt>
      <trkpt lat="43.416893519461155" lon="-6.287509817630053">
        <ele>411.6</ele>
        <time>2017-08-04T05:32:21.000Z</time>
      </trkpt>
      <trkpt lat="43.41689771041274" lon="-6.287523228675127">
        <ele>411.6</ele>
        <time>2017-08-04T05:32:22.000Z</time>
      </trkpt>
      <trkpt lat="43.41690005734563" lon="-6.287539824843407">
        <ele>411.6</ele>
        <time>2017-08-04T05:32:23.000Z</time>
      </trkpt>
      <trkpt lat="43.41691195964813" lon="-6.287570670247078">
        <ele>411.4</ele>
        <time>2017-08-04T05:32:25.000Z</time>
      </trkpt>
      <trkpt lat="43.41693693771958" lon="-6.287661110982299">
        <ele>411.2</ele>
        <time>2017-08-04T05:32:30.000Z</time>
      </trkpt>
      <trkpt lat="43.416940877214074" lon="-6.287673348560929">
        <ele>411.2</ele>
        <time>2017-08-04T05:32:31.000Z</time>
      </trkpt>
      <trkpt lat="43.41694657690823" lon="-6.287694554775953">
        <ele>411.2</ele>
        <time>2017-08-04T05:32:33.000Z</time>
      </trkpt>
      <trkpt lat="43.41695127077401" lon="-6.287710564211011">
        <ele>410.8</ele>
        <time>2017-08-04T05:32:34.000Z</time>
      </trkpt>
      <trkpt lat="43.41696803458035" lon="-6.287757754325867">
        <ele>410.6</ele>
        <time>2017-08-04T05:32:37.000Z</time>
      </trkpt>
      <trkpt lat="43.41699527576566" lon="-6.287793964147568">
        <ele>409.2</ele>
        <time>2017-08-04T05:32:40.000Z</time>
      </trkpt>
      <trkpt lat="43.416998628526926" lon="-6.287807207554579">
        <ele>409.4</ele>
        <time>2017-08-04T05:32:41.000Z</time>
      </trkpt>
      <trkpt lat="43.41700960882008" lon="-6.287833610549569">
        <ele>409</ele>
        <time>2017-08-04T05:32:43.000Z</time>
      </trkpt>
      <trkpt lat="43.41701195575297" lon="-6.28790058195591">
        <ele>410</ele>
        <time>2017-08-04T05:32:47.000Z</time>
      </trkpt>
      <trkpt lat="43.417012710124254" lon="-6.287914915010333">
        <ele>410.2</ele>
        <time>2017-08-04T05:32:48.000Z</time>
      </trkpt>
      <trkpt lat="43.41700064018369" lon="-6.287963194772601">
        <ele>411.8</ele>
        <time>2017-08-04T05:32:51.000Z</time>
      </trkpt>
      <trkpt lat="43.41699795797467" lon="-6.287990938872099">
        <ele>412.4</ele>
        <time>2017-08-04T05:32:53.000Z</time>
      </trkpt>
      <trkpt lat="43.41698857024312" lon="-6.288023209199309">
        <ele>413.8</ele>
        <time>2017-08-04T05:32:55.000Z</time>
      </trkpt>
      <trkpt lat="43.41697406955063" lon="-6.288054222241044">
        <ele>415.4</ele>
        <time>2017-08-04T05:32:57.000Z</time>
      </trkpt>
      <trkpt lat="43.416950684040785" lon="-6.288122283294797">
        <ele>418.6</ele>
        <time>2017-08-04T05:33:02.000Z</time>
      </trkpt>
      <trkpt lat="43.41695789247751" lon="-6.288184812292457">
        <ele>419.4</ele>
        <time>2017-08-04T05:33:07.000Z</time>
      </trkpt>
      <trkpt lat="43.416967112571" lon="-6.288249101489782">
        <ele>419.8</ele>
        <time>2017-08-04T05:33:11.000Z</time>
      </trkpt>
      <trkpt lat="43.416966358199716" lon="-6.288263686001301">
        <ele>420</ele>
        <time>2017-08-04T05:33:12.000Z</time>
      </trkpt>
      <trkpt lat="43.41695671901107" lon="-6.28828221000731">
        <ele>421</ele>
        <time>2017-08-04T05:33:13.000Z</time>
      </trkpt>
      <trkpt lat="43.416969291865826" lon="-6.288310708478093">
        <ele>420.6</ele>
        <time>2017-08-04T05:33:15.000Z</time>
      </trkpt>
      <trkpt lat="43.41699887998402" lon="-6.288374327123165">
        <ele>419.2</ele>
        <time>2017-08-04T05:33:19.000Z</time>
      </trkpt>
      <trkpt lat="43.41701136901975" lon="-6.2884042505174875">
        <ele>418.6</ele>
        <time>2017-08-04T05:33:21.000Z</time>
      </trkpt>
      <trkpt lat="43.417032742872834" lon="-6.288467450067401">
        <ele>417.6</ele>
        <time>2017-08-04T05:33:25.000Z</time>
      </trkpt>
      <trkpt lat="43.41703743673861" lon="-6.288484130054712">
        <ele>417.2</ele>
        <time>2017-08-04T05:33:26.000Z</time>
      </trkpt>
      <trkpt lat="43.41704020276666" lon="-6.288575492799282">
        <ele>417.2</ele>
        <time>2017-08-04T05:33:32.000Z</time>
      </trkpt>
      <trkpt lat="43.41704229824245" lon="-6.288643553853035">
        <ele>416.6</ele>
        <time>2017-08-04T05:33:36.000Z</time>
      </trkpt>
      <trkpt lat="43.41703710146248" lon="-6.288658306002617">
        <ele>417</ele>
        <time>2017-08-04T05:33:37.000Z</time>
      </trkpt>
      <trkpt lat="43.4170429687947" lon="-6.288714716210961">
        <ele>416.2</ele>
        <time>2017-08-04T05:33:40.000Z</time>
      </trkpt>
      <trkpt lat="43.4170500934124" lon="-6.2887591402977705">
        <ele>416.2</ele>
        <time>2017-08-04T05:33:43.000Z</time>
      </trkpt>
      <trkpt lat="43.41706241481006" lon="-6.288784788921475">
        <ele>415.6</ele>
        <time>2017-08-04T05:33:45.000Z</time>
      </trkpt>
      <trkpt lat="43.41707708314061" lon="-6.288823178038001">
        <ele>415.2</ele>
        <time>2017-08-04T05:33:48.000Z</time>
      </trkpt>
      <trkpt lat="43.41708093881607" lon="-6.28883340395987">
        <ele>415</ele>
        <time>2017-08-04T05:33:49.000Z</time>
      </trkpt>
      <trkpt lat="43.41710893437266" lon="-6.2889354955405">
        <ele>413.6</ele>
        <time>2017-08-04T05:33:56.000Z</time>
      </trkpt>
      <trkpt lat="43.41711605899036" lon="-6.288968939334154">
        <ele>413.6</ele>
        <time>2017-08-04T05:33:58.000Z</time>
      </trkpt>
      <trkpt lat="43.41712829656899" lon="-6.2890515848994255">
        <ele>414</ele>
        <time>2017-08-04T05:34:02.000Z</time>
      </trkpt>
      <trkpt lat="43.417138773947954" lon="-6.289139846339822">
        <ele>414.4</ele>
        <time>2017-08-04T05:34:06.000Z</time>
      </trkpt>
      <trkpt lat="43.4171399474144" lon="-6.2892097514122725">
        <ele>414.8</ele>
        <time>2017-08-04T05:34:10.000Z</time>
      </trkpt>
      <trkpt lat="43.41713215224445" lon="-6.28925459459424">
        <ele>415.6</ele>
        <time>2017-08-04T05:34:13.000Z</time>
      </trkpt>
      <trkpt lat="43.417130978778005" lon="-6.2892671674489975">
        <ele>415.8</ele>
        <time>2017-08-04T05:34:14.000Z</time>
      </trkpt>
      <trkpt lat="43.41712896712124" lon="-6.289397506043315">
        <ele>416.4</ele>
        <time>2017-08-04T05:34:21.000Z</time>
      </trkpt>
      <trkpt lat="43.417119327932596" lon="-6.289496663957834">
        <ele>418.2</ele>
        <time>2017-08-04T05:34:27.000Z</time>
      </trkpt>
      <trkpt lat="43.41711371205747" lon="-6.289571598172188">
        <ele>419.8</ele>
        <time>2017-08-04T05:34:32.000Z</time>
      </trkpt>
      <trkpt lat="43.41711153276265" lon="-6.28959565423429">
        <ele>420.4</ele>
        <time>2017-08-04T05:34:34.000Z</time>
      </trkpt>
      <trkpt lat="43.41711111366749" lon="-6.289697410538793">
        <ele>421.4</ele>
        <time>2017-08-04T05:34:40.000Z</time>
      </trkpt>
      <trkpt lat="43.417106503620744" lon="-6.28976522013545">
        <ele>421.4</ele>
        <time>2017-08-04T05:34:44.000Z</time>
      </trkpt>
      <trkpt lat="43.41710013337433" lon="-6.289777373895049">
        <ele>422</ele>
        <time>2017-08-04T05:34:45.000Z</time>
      </trkpt>
      <trkpt lat="43.41709426604211" lon="-6.289851553738117">
        <ele>423.2</ele>
        <time>2017-08-04T05:34:50.000Z</time>
      </trkpt>
      <trkpt lat="43.41708135791123" lon="-6.289916932582855">
        <ele>424.8</ele>
        <time>2017-08-04T05:34:55.000Z</time>
      </trkpt>
      <trkpt lat="43.41705487109721" lon="-6.289972839877009">
        <ele>426.2</ele>
        <time>2017-08-04T05:34:59.000Z</time>
      </trkpt>
      <trkpt lat="43.41705386526883" lon="-6.289985496550798">
        <ele>426.2</ele>
        <time>2017-08-04T05:35:00.000Z</time>
      </trkpt>
      <trkpt lat="43.41704682447016" lon="-6.290018856525421">
        <ele>426.6</ele>
        <time>2017-08-04T05:35:05.000Z</time>
      </trkpt>
      <trkpt lat="43.417079262435436" lon="-6.290033860132098">
        <ele>425.2</ele>
        <time>2017-08-04T05:35:32.000Z</time>
      </trkpt>
      <trkpt lat="43.41707062907517" lon="-6.2900361232459545">
        <ele>425.6</ele>
        <time>2017-08-04T05:35:39.000Z</time>
      </trkpt>
      <trkpt lat="43.417101642116904" lon="-6.2901283241808414">
        <ele>424.2</ele>
        <time>2017-08-04T05:35:58.000Z</time>
      </trkpt>
      <trkpt lat="43.41709359548986" lon="-6.290235947817564">
        <ele>424.6</ele>
        <time>2017-08-04T05:36:03.000Z</time>
      </trkpt>
      <trkpt lat="43.41709619387984" lon="-6.290254471823573">
        <ele>424.6</ele>
        <time>2017-08-04T05:36:04.000Z</time>
      </trkpt>
      <trkpt lat="43.41708839870989" lon="-6.290304344147444">
        <ele>425</ele>
        <time>2017-08-04T05:36:07.000Z</time>
      </trkpt>
      <trkpt lat="43.41707423329353" lon="-6.290372908115387">
        <ele>425.4</ele>
        <time>2017-08-04T05:36:11.000Z</time>
      </trkpt>
      <trkpt lat="43.417053278535604" lon="-6.290448261424899">
        <ele>425.6</ele>
        <time>2017-08-04T05:36:16.000Z</time>
      </trkpt>
      <trkpt lat="43.41705101542175" lon="-6.290486650541425">
        <ele>425.2</ele>
        <time>2017-08-04T05:36:18.000Z</time>
      </trkpt>
      <trkpt lat="43.417045483365655" lon="-6.290530487895012">
        <ele>424.8</ele>
        <time>2017-08-04T05:36:21.000Z</time>
      </trkpt>
      <trkpt lat="43.41705210506916" lon="-6.290551945567131">
        <ele>424</ele>
        <time>2017-08-04T05:36:23.000Z</time>
      </trkpt>
      <trkpt lat="43.41708010062575" lon="-6.290608858689666">
        <ele>421.2</ele>
        <time>2017-08-04T05:36:28.000Z</time>
      </trkpt>
      <trkpt lat="43.417096780613065" lon="-6.290621431544423">
        <ele>420.2</ele>
        <time>2017-08-04T05:36:29.000Z</time>
      </trkpt>
      <trkpt lat="43.41711706481874" lon="-6.290665604174137">
        <ele>419</ele>
        <time>2017-08-04T05:36:33.000Z</time>
      </trkpt>
      <trkpt lat="43.417140701785684" lon="-6.290702149271965">
        <ele>417.4</ele>
        <time>2017-08-04T05:36:36.000Z</time>
      </trkpt>
      <trkpt lat="43.417150592431426" lon="-6.290729222819209">
        <ele>416.8</ele>
        <time>2017-08-04T05:36:38.000Z</time>
      </trkpt>
      <trkpt lat="43.41716249473393" lon="-6.290755374357104">
        <ele>416</ele>
        <time>2017-08-04T05:36:40.000Z</time>
      </trkpt>
      <trkpt lat="43.41716869734228" lon="-6.290789237245917">
        <ele>415.4</ele>
        <time>2017-08-04T05:36:42.000Z</time>
      </trkpt>
      <trkpt lat="43.41718210838735" lon="-6.290837684646249">
        <ele>415</ele>
        <time>2017-08-04T05:36:46.000Z</time>
      </trkpt>
      <trkpt lat="43.417195016518235" lon="-6.290867105126381">
        <ele>414.4</ele>
        <time>2017-08-04T05:36:47.000Z</time>
      </trkpt>
      <trkpt lat="43.417203817516565" lon="-6.290917731821537">
        <ele>414.4</ele>
        <time>2017-08-04T05:36:50.000Z</time>
      </trkpt>
      <trkpt lat="43.41719811782241" lon="-6.290989648550749">
        <ele>414.8</ele>
        <time>2017-08-04T05:36:54.000Z</time>
      </trkpt>
      <trkpt lat="43.4171949326992" lon="-6.291027870029211">
        <ele>415</ele>
        <time>2017-08-04T05:36:56.000Z</time>
      </trkpt>
      <trkpt lat="43.41717096045613" lon="-6.291116550564766">
        <ele>416</ele>
        <time>2017-08-04T05:37:01.000Z</time>
      </trkpt>
      <trkpt lat="43.417175989598036" lon="-6.291160136461258">
        <ele>415.8</ele>
        <time>2017-08-04T05:37:03.000Z</time>
      </trkpt>
      <trkpt lat="43.41716576367617" lon="-6.291191736236215">
        <ele>416</ele>
        <time>2017-08-04T05:37:05.000Z</time>
      </trkpt>
      <trkpt lat="43.4171708766371" lon="-6.291248230263591">
        <ele>416</ele>
        <time>2017-08-04T05:37:08.000Z</time>
      </trkpt>
      <trkpt lat="43.41717858798802" lon="-6.291316458955407">
        <ele>415.6</ele>
        <time>2017-08-04T05:37:12.000Z</time>
      </trkpt>
      <trkpt lat="43.41715914197266" lon="-6.291463980451226">
        <ele>414.2</ele>
        <time>2017-08-04T05:37:20.000Z</time>
      </trkpt>
      <trkpt lat="43.41715813614428" lon="-6.291482420638204">
        <ele>414.2</ele>
        <time>2017-08-04T05:37:21.000Z</time>
      </trkpt>
      <trkpt lat="43.41716165654361" lon="-6.291550062596798">
        <ele>413.4</ele>
        <time>2017-08-04T05:37:24.000Z</time>
      </trkpt>
      <trkpt lat="43.41716484166682" lon="-6.291589038446546">
        <ele>412.8</ele>
        <time>2017-08-04T05:37:26.000Z</time>
      </trkpt>
      <trkpt lat="43.41717381030321" lon="-6.291632121428847">
        <ele>412.2</ele>
        <time>2017-08-04T05:37:29.000Z</time>
      </trkpt>
      <trkpt lat="43.41718018054962" lon="-6.291641844436526">
        <ele>412.2</ele>
        <time>2017-08-04T05:37:30.000Z</time>
      </trkpt>
      <trkpt lat="43.41718546114862" lon="-6.2917001824826">
        <ele>412.4</ele>
        <time>2017-08-04T05:37:33.000Z</time>
      </trkpt>
      <trkpt lat="43.41718780808151" lon="-6.291718874126673">
        <ele>412.4</ele>
        <time>2017-08-04T05:37:34.000Z</time>
      </trkpt>
      <trkpt lat="43.41720147058368" lon="-6.291758352890611">
        <ele>412.6</ele>
        <time>2017-08-04T05:37:38.000Z</time>
      </trkpt>
      <trkpt lat="43.417204739525914" lon="-6.291777128353715">
        <ele>412.6</ele>
        <time>2017-08-04T05:37:40.000Z</time>
      </trkpt>
      <trkpt lat="43.41721672564745" lon="-6.2918296828866005">
        <ele>413</ele>
        <time>2017-08-04T05:37:43.000Z</time>
      </trkpt>
      <trkpt lat="43.4172176476568" lon="-6.29184627905488">
        <ele>413</ele>
        <time>2017-08-04T05:37:44.000Z</time>
      </trkpt>
      <trkpt lat="43.41722443699837" lon="-6.291895732283592">
        <ele>413.6</ele>
        <time>2017-08-04T05:37:47.000Z</time>
      </trkpt>
      <trkpt lat="43.41724120080471" lon="-6.291990280151367">
        <ele>415.2</ele>
        <time>2017-08-04T05:37:53.000Z</time>
      </trkpt>
      <trkpt lat="43.41724958270788" lon="-6.292000338435173">
        <ele>415.6</ele>
        <time>2017-08-04T05:37:54.000Z</time>
      </trkpt>
      <trkpt lat="43.417258048430085" lon="-6.292027411982417">
        <ele>416</ele>
        <time>2017-08-04T05:37:56.000Z</time>
      </trkpt>
      <trkpt lat="43.41724522411823" lon="-6.292066723108292">
        <ele>416.4</ele>
        <time>2017-08-04T05:38:01.000Z</time>
      </trkpt>
      <trkpt lat="43.41723776422441" lon="-6.2920962274074554">
        <ele>416.8</ele>
        <time>2017-08-04T05:38:04.000Z</time>
      </trkpt>
      <trkpt lat="43.41725863516331" lon="-6.292134951800108">
        <ele>418</ele>
        <time>2017-08-04T05:38:14.000Z</time>
      </trkpt>
      <trkpt lat="43.41730129905045" lon="-6.292076697573066">
        <ele>417.8</ele>
        <time>2017-08-04T05:38:35.000Z</time>
      </trkpt>
      <trkpt lat="43.41731932014227" lon="-6.2921289168298244">
        <ele>419.8</ele>
        <time>2017-08-04T05:39:13.000Z</time>
      </trkpt>
      <trkpt lat="43.417313788086176" lon="-6.292099663987756">
        <ele>418.8</ele>
        <time>2017-08-04T05:39:17.000Z</time>
      </trkpt>
      <trkpt lat="43.41731219552457" lon="-6.2920785415917635">
        <ele>418.2</ele>
        <time>2017-08-04T05:39:19.000Z</time>
      </trkpt>
      <trkpt lat="43.41730230487883" lon="-6.292006876319647">
        <ele>416.6</ele>
        <time>2017-08-04T05:39:24.000Z</time>
      </trkpt>
      <trkpt lat="43.417277578264475" lon="-6.291949125006795">
        <ele>415.4</ele>
        <time>2017-08-04T05:39:28.000Z</time>
      </trkpt>
      <trkpt lat="43.41727766208351" lon="-6.291935378685594">
        <ele>415.2</ele>
        <time>2017-08-04T05:39:29.000Z</time>
      </trkpt>
      <trkpt lat="43.41728059574962" lon="-6.29188634455204">
        <ele>414.4</ele>
        <time>2017-08-04T05:39:33.000Z</time>
      </trkpt>
      <trkpt lat="43.41727699153125" lon="-6.291873352602124">
        <ele>414.2</ele>
        <time>2017-08-04T05:39:34.000Z</time>
      </trkpt>
      <trkpt lat="43.41728218831122" lon="-6.29182037897408">
        <ele>413.8</ele>
        <time>2017-08-04T05:39:38.000Z</time>
      </trkpt>
      <trkpt lat="43.4172779135406" lon="-6.291797999292612">
        <ele>413.6</ele>
        <time>2017-08-04T05:39:40.000Z</time>
      </trkpt>
      <trkpt lat="43.41727766208351" lon="-6.2917333748191595">
        <ele>413.2</ele>
        <time>2017-08-04T05:39:44.000Z</time>
      </trkpt>
      <trkpt lat="43.417266765609384" lon="-6.29165324382484">
        <ele>412.8</ele>
        <time>2017-08-04T05:39:50.000Z</time>
      </trkpt>
      <trkpt lat="43.417264921590686" lon="-6.291574453935027">
        <ele>412.8</ele>
        <time>2017-08-04T05:39:55.000Z</time>
      </trkpt>
      <trkpt lat="43.41726374812424" lon="-6.291556349024177">
        <ele>412.6</ele>
        <time>2017-08-04T05:39:56.000Z</time>
      </trkpt>
      <trkpt lat="43.417265340685844" lon="-6.291540926322341">
        <ele>412.8</ele>
        <time>2017-08-04T05:39:57.000Z</time>
      </trkpt>
      <trkpt lat="43.41725871898234" lon="-6.29148468375206">
        <ele>413.4</ele>
        <time>2017-08-04T05:40:01.000Z</time>
      </trkpt>
      <trkpt lat="43.417257545515895" lon="-6.2914450373500586">
        <ele>413.8</ele>
        <time>2017-08-04T05:40:04.000Z</time>
      </trkpt>
      <trkpt lat="43.41725285165012" lon="-6.291430369019508">
        <ele>414</ele>
        <time>2017-08-04T05:40:05.000Z</time>
      </trkpt>
      <trkpt lat="43.417248241603374" lon="-6.29141285084188">
        <ele>414.2</ele>
        <time>2017-08-04T05:40:06.000Z</time>
      </trkpt>
      <trkpt lat="43.41724597848952" lon="-6.2913985177874565">
        <ele>414.2</ele>
        <time>2017-08-04T05:40:07.000Z</time>
      </trkpt>
      <trkpt lat="43.4172382671386" lon="-6.291352417320013">
        <ele>414.8</ele>
        <time>2017-08-04T05:40:10.000Z</time>
      </trkpt>
      <trkpt lat="43.417234579101205" lon="-6.291261138394475">
        <ele>414.6</ele>
        <time>2017-08-04T05:40:15.000Z</time>
      </trkpt>
      <trkpt lat="43.417234579101205" lon="-6.291234148666263">
        <ele>414.6</ele>
        <time>2017-08-04T05:40:16.000Z</time>
      </trkpt>
      <trkpt lat="43.41723960824311" lon="-6.29121595993638">
        <ele>414.6</ele>
        <time>2017-08-04T05:40:17.000Z</time>
      </trkpt>
      <trkpt lat="43.41725930571556" lon="-6.291155442595482">
        <ele>414.4</ele>
        <time>2017-08-04T05:40:21.000Z</time>
      </trkpt>
      <trkpt lat="43.41726425103843" lon="-6.291056536138058">
        <ele>414.2</ele>
        <time>2017-08-04T05:40:27.000Z</time>
      </trkpt>
      <trkpt lat="43.41725243255496" lon="-6.29100632853806">
        <ele>413.8</ele>
        <time>2017-08-04T05:40:30.000Z</time>
      </trkpt>
      <trkpt lat="43.41724069789052" lon="-6.290978584438562">
        <ele>413.8</ele>
        <time>2017-08-04T05:40:32.000Z</time>
      </trkpt>
      <trkpt lat="43.41721094213426" lon="-6.2908772472292185">
        <ele>414.2</ele>
        <time>2017-08-04T05:40:39.000Z</time>
      </trkpt>
      <trkpt lat="43.41720884665847" lon="-6.290864506736398">
        <ele>414.2</ele>
        <time>2017-08-04T05:40:40.000Z</time>
      </trkpt>
      <trkpt lat="43.41717607341707" lon="-6.290807593613863">
        <ele>415</ele>
        <time>2017-08-04T05:40:45.000Z</time>
      </trkpt>
      <trkpt lat="43.41715453192592" lon="-6.290768450126052">
        <ele>416.4</ele>
        <time>2017-08-04T05:40:48.000Z</time>
      </trkpt>
      <trkpt lat="43.41714053414762" lon="-6.290738694369793">
        <ele>417.2</ele>
        <time>2017-08-04T05:40:50.000Z</time>
      </trkpt>
      <trkpt lat="43.41712293215096" lon="-6.2906507682055235">
        <ele>418.8</ele>
        <time>2017-08-04T05:40:57.000Z</time>
      </trkpt>
      <trkpt lat="43.41711262241006" lon="-6.29058999940753">
        <ele>419.6</ele>
        <time>2017-08-04T05:41:01.000Z</time>
      </trkpt>
      <trkpt lat="43.417109018191695" lon="-6.290553202852607">
        <ele>420.6</ele>
        <time>2017-08-04T05:41:04.000Z</time>
      </trkpt>
      <trkpt lat="43.41711555607617" lon="-6.290532499551773">
        <ele>420.4</ele>
        <time>2017-08-04T05:41:05.000Z</time>
      </trkpt>
      <trkpt lat="43.41712192632258" lon="-6.290498888120055">
        <ele>420.8</ele>
        <time>2017-08-04T05:41:07.000Z</time>
      </trkpt>
      <trkpt lat="43.417128548026085" lon="-6.290465109050274">
        <ele>420.8</ele>
        <time>2017-08-04T05:41:09.000Z</time>
      </trkpt>
      <trkpt lat="43.41713500209153" lon="-6.290427893400192">
        <ele>421</ele>
        <time>2017-08-04T05:41:11.000Z</time>
      </trkpt>
      <trkpt lat="43.417135924100876" lon="-6.29039746709168">
        <ele>421.4</ele>
        <time>2017-08-04T05:41:13.000Z</time>
      </trkpt>
      <trkpt lat="43.417141288518906" lon="-6.29033007659018">
        <ele>422</ele>
        <time>2017-08-04T05:41:17.000Z</time>
      </trkpt>
      <trkpt lat="43.41713617555797" lon="-6.290279449895024">
        <ele>423</ele>
        <time>2017-08-04T05:41:20.000Z</time>
      </trkpt>
      <trkpt lat="43.41713114641607" lon="-6.290264446288347">
        <ele>423.2</ele>
        <time>2017-08-04T05:41:21.000Z</time>
      </trkpt>
      <trkpt lat="43.41712133958936" lon="-6.290227063000202">
        <ele>423.4</ele>
        <time>2017-08-04T05:41:23.000Z</time>
      </trkpt>
      <trkpt lat="43.41710180975497" lon="-6.2901771068573">
        <ele>424.2</ele>
        <time>2017-08-04T05:41:26.000Z</time>
      </trkpt>
      <trkpt lat="43.417091416195035" lon="-6.290161265060306">
        <ele>424.6</ele>
        <time>2017-08-04T05:41:27.000Z</time>
      </trkpt>
      <trkpt lat="43.41706677339971" lon="-6.290142489597201">
        <ele>425.8</ele>
        <time>2017-08-04T05:41:30.000Z</time>
      </trkpt>
      <trkpt lat="43.41703047975898" lon="-6.290195379406214">
        <ele>427.2</ele>
        <time>2017-08-04T05:41:34.000Z</time>
      </trkpt>
      <trkpt lat="43.41701681725681" lon="-6.290235193446279">
        <ele>428</ele>
        <time>2017-08-04T05:41:37.000Z</time>
      </trkpt>
      <trkpt lat="43.417000975459814" lon="-6.290293699130416">
        <ele>428.8</ele>
        <time>2017-08-04T05:41:41.000Z</time>
      </trkpt>
      <trkpt lat="43.41699452139437" lon="-6.290309289470315">
        <ele>429.2</ele>
        <time>2017-08-04T05:41:42.000Z</time>
      </trkpt>
      <trkpt lat="43.41697624884546" lon="-6.290361676365137">
        <ele>430.2</ele>
        <time>2017-08-04T05:41:45.000Z</time>
      </trkpt>
      <trkpt lat="43.41696769930422" lon="-6.290391096845269">
        <ele>430.6</ele>
        <time>2017-08-04T05:41:47.000Z</time>
      </trkpt>
      <trkpt lat="43.41694020666182" lon="-6.290455553680658">
        <ele>432</ele>
        <time>2017-08-04T05:41:51.000Z</time>
      </trkpt>
      <trkpt lat="43.41692444868386" lon="-6.290547922253609">
        <ele>432</ele>
        <time>2017-08-04T05:41:57.000Z</time>
      </trkpt>
      <trkpt lat="43.41691070236266" lon="-6.290616067126393">
        <ele>431.4</ele>
        <time>2017-08-04T05:42:02.000Z</time>
      </trkpt>
      <trkpt lat="43.41690651141107" lon="-6.2906295619904995">
        <ele>431.4</ele>
        <time>2017-08-04T05:42:03.000Z</time>
      </trkpt>
      <trkpt lat="43.41689217835665" lon="-6.290700808167458">
        <ele>431</ele>
        <time>2017-08-04T05:42:09.000Z</time>
      </trkpt>
      <trkpt lat="43.41689377091825" lon="-6.290714470669627">
        <ele>430.6</ele>
        <time>2017-08-04T05:42:10.000Z</time>
      </trkpt>
      <trkpt lat="43.416888574138284" lon="-6.290788650512695">
        <ele>429.8</ele>
        <time>2017-08-04T05:42:15.000Z</time>
      </trkpt>
      <trkpt lat="43.41689435765147" lon="-6.290849084034562">
        <ele>429.2</ele>
        <time>2017-08-04T05:42:19.000Z</time>
      </trkpt>
      <trkpt lat="43.41689025051892" lon="-6.290883449837565">
        <ele>429.2</ele>
        <time>2017-08-04T05:42:21.000Z</time>
      </trkpt>
      <trkpt lat="43.4168841317296" lon="-6.290897447615862">
        <ele>429.6</ele>
        <time>2017-08-04T05:42:22.000Z</time>
      </trkpt>
      <trkpt lat="43.41687315143645" lon="-6.290920749306679">
        <ele>430</ele>
        <time>2017-08-04T05:42:24.000Z</time>
      </trkpt>
      <trkpt lat="43.416863260790706" lon="-6.290979087352753">
        <ele>430.2</ele>
        <time>2017-08-04T05:42:28.000Z</time>
      </trkpt>
      <trkpt lat="43.41686753556132" lon="-6.291058296337724">
        <ele>429.4</ele>
        <time>2017-08-04T05:42:32.000Z</time>
      </trkpt>
      <trkpt lat="43.41686359606683" lon="-6.291073635220528">
        <ele>429.6</ele>
        <time>2017-08-04T05:42:33.000Z</time>
      </trkpt>
      <trkpt lat="43.416845155879855" lon="-6.291152676567435">
        <ele>430</ele>
        <time>2017-08-04T05:42:38.000Z</time>
      </trkpt>
      <trkpt lat="43.41681749559939" lon="-6.29124378785491">
        <ele>431</ele>
        <time>2017-08-04T05:42:43.000Z</time>
      </trkpt>
      <trkpt lat="43.41680886223912" lon="-6.291284691542387">
        <ele>431.2</ele>
        <time>2017-08-04T05:42:46.000Z</time>
      </trkpt>
      <trkpt lat="43.41680869460106" lon="-6.291307155042887">
        <ele>431</ele>
        <time>2017-08-04T05:42:48.000Z</time>
      </trkpt>
      <trkpt lat="43.41680131852627" lon="-6.291334731504321">
        <ele>431.2</ele>
        <time>2017-08-04T05:42:50.000Z</time>
      </trkpt>
      <trkpt lat="43.41679570265114" lon="-6.291346214711666">
        <ele>431.4</ele>
        <time>2017-08-04T05:42:51.000Z</time>
      </trkpt>
      <trkpt lat="43.41677759774029" lon="-6.29137622192502">
        <ele>431.6</ele>
        <time>2017-08-04T05:42:54.000Z</time>
      </trkpt>
      <trkpt lat="43.41676234267652" lon="-6.291401535272598">
        <ele>432</ele>
        <time>2017-08-04T05:42:56.000Z</time>
      </trkpt>
      <trkpt lat="43.416708363220096" lon="-6.291466578841209">
        <ele>433.6</ele>
        <time>2017-08-04T05:43:01.000Z</time>
      </trkpt>
      <trkpt lat="43.416670644655824" lon="-6.291517624631524">
        <ele>434.6</ele>
        <time>2017-08-04T05:43:06.000Z</time>
      </trkpt>
      <trkpt lat="43.416628148406744" lon="-6.291570346802473">
        <ele>436</ele>
        <time>2017-08-04T05:43:10.000Z</time>
      </trkpt>
      <trkpt lat="43.41660702601075" lon="-6.291625667363405">
        <ele>436</ele>
        <time>2017-08-04T05:43:15.000Z</time>
      </trkpt>
      <trkpt lat="43.41660065576434" lon="-6.291650226339698">
        <ele>435.8</ele>
        <time>2017-08-04T05:43:17.000Z</time>
      </trkpt>
      <trkpt lat="43.41659042984247" lon="-6.291671097278595">
        <ele>435.8</ele>
        <time>2017-08-04T05:43:19.000Z</time>
      </trkpt>
      <trkpt lat="43.41655497439206" lon="-6.29171434789896">
        <ele>437</ele>
        <time>2017-08-04T05:43:23.000Z</time>
      </trkpt>
      <trkpt lat="43.41650661081076" lon="-6.291770003736019">
        <ele>438.8</ele>
        <time>2017-08-04T05:43:29.000Z</time>
      </trkpt>
      <trkpt lat="43.41649982146919" lon="-6.291779475286603">
        <ele>439</ele>
        <time>2017-08-04T05:43:30.000Z</time>
      </trkpt>
      <trkpt lat="43.416487919166684" lon="-6.291797831654549">
        <ele>439.2</ele>
        <time>2017-08-04T05:43:32.000Z</time>
      </trkpt>
      <trkpt lat="43.416432263329625" lon="-6.2918526493012905">
        <ele>441.4</ele>
        <time>2017-08-04T05:43:38.000Z</time>
      </trkpt>
      <trkpt lat="43.41641985811293" lon="-6.291862037032843">
        <ele>442</ele>
        <time>2017-08-04T05:43:40.000Z</time>
      </trkpt>
      <trkpt lat="43.41641340404749" lon="-6.2918296828866005">
        <ele>443.4</ele>
        <time>2017-08-04T05:43:44.000Z</time>
      </trkpt>
      <trkpt lat="43.41642078012228" lon="-6.29175441339612">
        <ele>445</ele>
        <time>2017-08-04T05:43:50.000Z</time>
      </trkpt>
      <trkpt lat="43.41641390696168" lon="-6.291720634326339">
        <ele>446.4</ele>
        <time>2017-08-04T05:43:53.000Z</time>
      </trkpt>
      <trkpt lat="43.416413655504584" lon="-6.291682496666908">
        <ele>447.6</ele>
        <time>2017-08-04T05:43:56.000Z</time>
      </trkpt>
      <trkpt lat="43.416417092084885" lon="-6.291646622121334">
        <ele>448.4</ele>
        <time>2017-08-04T05:43:59.000Z</time>
      </trkpt>
      <trkpt lat="43.416428407654166" lon="-6.291597839444876">
        <ele>449</ele>
        <time>2017-08-04T05:44:03.000Z</time>
      </trkpt>
      <trkpt lat="43.41642379760742" lon="-6.291550314053893">
        <ele>450.4</ele>
        <time>2017-08-04T05:44:06.000Z</time>
      </trkpt>
      <trkpt lat="43.41642698273063" lon="-6.29150521941483">
        <ele>451.2</ele>
        <time>2017-08-04T05:44:09.000Z</time>
      </trkpt>
      <trkpt lat="43.41643310151994" lon="-6.29147638566792">
        <ele>451.2</ele>
        <time>2017-08-04T05:44:12.000Z</time>
      </trkpt>
      <trkpt lat="43.41642949730158" lon="-6.291460543870926">
        <ele>451.8</ele>
        <time>2017-08-04T05:44:13.000Z</time>
      </trkpt>
      <trkpt lat="43.41642279177904" lon="-6.291408156976104">
        <ele>453.2</ele>
        <time>2017-08-04T05:44:17.000Z</time>
      </trkpt>
      <trkpt lat="43.41642379760742" lon="-6.291369684040546">
        <ele>453.8</ele>
        <time>2017-08-04T05:44:20.000Z</time>
      </trkpt>
      <trkpt lat="43.41642270796001" lon="-6.291327271610498">
        <ele>454.6</ele>
        <time>2017-08-04T05:44:23.000Z</time>
      </trkpt>
      <trkpt lat="43.416406866163015" lon="-6.291268095374107">
        <ele>456</ele>
        <time>2017-08-04T05:44:28.000Z</time>
      </trkpt>
      <trkpt lat="43.41638750396669" lon="-6.291191903874278">
        <ele>457.4</ele>
        <time>2017-08-04T05:44:34.000Z</time>
      </trkpt>
      <trkpt lat="43.41636939905584" lon="-6.291101714596152">
        <ele>458.6</ele>
        <time>2017-08-04T05:44:41.000Z</time>
      </trkpt>
      <trkpt lat="43.416352635249496" lon="-6.2910109385848045">
        <ele>460.2</ele>
        <time>2017-08-04T05:44:48.000Z</time>
      </trkpt>
      <trkpt lat="43.41634701937437" lon="-6.290952684357762">
        <ele>461.4</ele>
        <time>2017-08-04T05:44:52.000Z</time>
      </trkpt>
      <trkpt lat="43.416309636086226" lon="-6.290971962735057">
        <ele>462.2</ele>
        <time>2017-08-04T05:44:56.000Z</time>
      </trkpt>
      <trkpt lat="43.416307624429464" lon="-6.291005993261933">
        <ele>461.8</ele>
        <time>2017-08-04T05:44:58.000Z</time>
      </trkpt>
      <trkpt lat="43.41630259528756" lon="-6.291015213355422">
        <ele>461.8</ele>
        <time>2017-08-04T05:44:59.000Z</time>
      </trkpt>
      <trkpt lat="43.416292956098914" lon="-6.291024684906006">
        <ele>461.8</ele>
        <time>2017-08-04T05:45:00.000Z</time>
      </trkpt>
      <trkpt lat="43.41626428999007" lon="-6.291063828393817">
        <ele>462.2</ele>
        <time>2017-08-04T05:45:04.000Z</time>
      </trkpt>
      <trkpt lat="43.416265211999416" lon="-6.291072964668274">
        <ele>462.2</ele>
        <time>2017-08-04T05:45:05.000Z</time>
      </trkpt>
      <trkpt lat="43.416237719357014" lon="-6.291130548343062">
        <ele>463.2</ele>
        <time>2017-08-04T05:45:11.000Z</time>
      </trkpt>
      <trkpt lat="43.41623277403414" lon="-6.291172122582793">
        <ele>463.4</ele>
        <time>2017-08-04T05:45:16.000Z</time>
      </trkpt>
      <trkpt lat="43.416209472343326" lon="-6.291204644367099">
        <ele>464</ele>
        <time>2017-08-04T05:45:20.000Z</time>
      </trkpt>
      <trkpt lat="43.416190110147" lon="-6.291241021826863">
        <ele>464.6</ele>
        <time>2017-08-04T05:45:23.000Z</time>
      </trkpt>
      <trkpt lat="43.416184829548" lon="-6.291260803118348">
        <ele>464.8</ele>
        <time>2017-08-04T05:45:25.000Z</time>
      </trkpt>
      <trkpt lat="43.41618223115802" lon="-6.2912706937640905">
        <ele>464.8</ele>
        <time>2017-08-04T05:45:26.000Z</time>
      </trkpt>
      <trkpt lat="43.41614803299308" lon="-6.291317297145724">
        <ele>465.8</ele>
        <time>2017-08-04T05:45:32.000Z</time>
      </trkpt>
      <trkpt lat="43.416097490116954" lon="-6.291381418704987">
        <ele>467.4</ele>
        <time>2017-08-04T05:45:40.000Z</time>
      </trkpt>
      <trkpt lat="43.41607477515936" lon="-6.291408576071262">
        <ele>467.8</ele>
        <time>2017-08-04T05:45:43.000Z</time>
      </trkpt>
      <trkpt lat="43.41606345959008" lon="-6.291421568021178">
        <ele>468</ele>
        <time>2017-08-04T05:45:45.000Z</time>
      </trkpt>
      <trkpt lat="43.416063375771046" lon="-6.291432799771428">
        <ele>467.8</ele>
        <time>2017-08-04T05:45:46.000Z</time>
      </trkpt>
      <trkpt lat="43.41605524532497" lon="-6.291459957137704">
        <ele>467.8</ele>
        <time>2017-08-04T05:45:48.000Z</time>
      </trkpt>
      <trkpt lat="43.416015515103936" lon="-6.291500693187118">
        <ele>468.2</ele>
        <time>2017-08-04T05:45:52.000Z</time>
      </trkpt>
      <trkpt lat="43.41600788757205" lon="-6.291511841118336">
        <ele>468.2</ele>
        <time>2017-08-04T05:45:53.000Z</time>
      </trkpt>
      <trkpt lat="43.41597863472998" lon="-6.291555929929018">
        <ele>468.4</ele>
        <time>2017-08-04T05:45:57.000Z</time>
      </trkpt>
      <trkpt lat="43.41593890450895" lon="-6.291595576331019">
        <ele>468.6</ele>
        <time>2017-08-04T05:46:00.000Z</time>
      </trkpt>
      <trkpt lat="43.4159274213016" lon="-6.291604461148381">
        <ele>468.8</ele>
        <time>2017-08-04T05:46:01.000Z</time>
      </trkpt>
      <trkpt lat="43.41591007076204" lon="-6.291624661535025">
        <ele>469</ele>
        <time>2017-08-04T05:46:04.000Z</time>
      </trkpt>
      <trkpt lat="43.41589070856571" lon="-6.291637569665909">
        <ele>469.2</ele>
        <time>2017-08-04T05:46:06.000Z</time>
      </trkpt>
      <trkpt lat="43.415867825970054" lon="-6.291656848043203">
        <ele>469.6</ele>
        <time>2017-08-04T05:46:12.000Z</time>
      </trkpt>
      <trkpt lat="43.415841925889254" lon="-6.291657434776425">
        <ele>469.8</ele>
        <time>2017-08-04T05:46:18.000Z</time>
      </trkpt>
      <trkpt lat="43.415811667218804" lon="-6.291671013459563">
        <ele>470.2</ele>
        <time>2017-08-04T05:46:22.000Z</time>
      </trkpt>
      <trkpt lat="43.41579691506922" lon="-6.29168794490397">
        <ele>470.4</ele>
        <time>2017-08-04T05:46:24.000Z</time>
      </trkpt>
      <trkpt lat="43.41579230502248" lon="-6.291698170825839">
        <ele>470.6</ele>
        <time>2017-08-04T05:46:25.000Z</time>
      </trkpt>
      <trkpt lat="43.41576933860779" lon="-6.29172021523118">
        <ele>471</ele>
        <time>2017-08-04T05:46:27.000Z</time>
      </trkpt>
      <trkpt lat="43.41575869359076" lon="-6.291750725358725">
        <ele>471.2</ele>
        <time>2017-08-04T05:46:29.000Z</time>
      </trkpt>
      <trkpt lat="43.415751568973064" lon="-6.2917678244411945">
        <ele>471.4</ele>
        <time>2017-08-04T05:46:30.000Z</time>
      </trkpt>
      <trkpt lat="43.4157358109951" lon="-6.29181107506156">
        <ele>471.8</ele>
        <time>2017-08-04T05:46:33.000Z</time>
      </trkpt>
      <trkpt lat="43.415671437978745" lon="-6.291879722848535">
        <ele>473</ele>
        <time>2017-08-04T05:46:39.000Z</time>
      </trkpt>
      <trkpt lat="43.41561192646623" lon="-6.291900426149368">
        <ele>474</ele>
        <time>2017-08-04T05:46:44.000Z</time>
      </trkpt>
      <trkpt lat="43.41558996587992" lon="-6.291905790567398">
        <ele>474.2</ele>
        <time>2017-08-04T05:46:50.000Z</time>
      </trkpt>
      <trkpt lat="43.415557108819485" lon="-6.291920458897948">
        <ele>474.8</ele>
        <time>2017-08-04T05:46:54.000Z</time>
      </trkpt>
      <trkpt lat="43.41554034501314" lon="-6.2919421680271626">
        <ele>475</ele>
        <time>2017-08-04T05:46:56.000Z</time>
      </trkpt>
      <trkpt lat="43.415508745238185" lon="-6.292056832462549">
        <ele>475.8</ele>
        <time>2017-08-04T05:47:03.000Z</time>
      </trkpt>
      <trkpt lat="43.41550623066723" lon="-6.292073931545019">
        <ele>475.8</ele>
        <time>2017-08-04T05:47:04.000Z</time>
      </trkpt>
      <trkpt lat="43.415499944239855" lon="-6.292148279026151">
        <ele>476.2</ele>
        <time>2017-08-04T05:47:08.000Z</time>
      </trkpt>
      <trkpt lat="43.41549877077341" lon="-6.292164707556367">
        <ele>476.2</ele>
        <time>2017-08-04T05:47:09.000Z</time>
      </trkpt>
      <trkpt lat="43.415473625063896" lon="-6.292261686176062">
        <ele>476.6</ele>
        <time>2017-08-04T05:47:14.000Z</time>
      </trkpt>
      <trkpt lat="43.415464824065566" lon="-6.292302506044507">
        <ele>476.8</ele>
        <time>2017-08-04T05:47:16.000Z</time>
      </trkpt>
      <trkpt lat="43.415455520153046" lon="-6.29237936809659">
        <ele>477</ele>
        <time>2017-08-04T05:47:20.000Z</time>
      </trkpt>
      <trkpt lat="43.41543565504253" lon="-6.292461762204766">
        <ele>477.4</ele>
        <time>2017-08-04T05:47:24.000Z</time>
      </trkpt>
      <trkpt lat="43.41542978771031" lon="-6.292478609830141">
        <ele>477.6</ele>
        <time>2017-08-04T05:47:25.000Z</time>
      </trkpt>
      <trkpt lat="43.415404725819826" lon="-6.292598890140653">
        <ele>478.8</ele>
        <time>2017-08-04T05:47:31.000Z</time>
      </trkpt>
      <trkpt lat="43.41538041830063" lon="-6.292723780497909">
        <ele>480.4</ele>
        <time>2017-08-04T05:47:37.000Z</time>
      </trkpt>
      <trkpt lat="43.41536298394203" lon="-6.292884210124612">
        <ele>481</ele>
        <time>2017-08-04T05:47:45.000Z</time>
      </trkpt>
      <trkpt lat="43.41534487903118" lon="-6.293015806004405">
        <ele>482</ele>
        <time>2017-08-04T05:47:51.000Z</time>
      </trkpt>
      <trkpt lat="43.41532518155873" lon="-6.293136840686202">
        <ele>482.2</ele>
        <time>2017-08-04T05:47:57.000Z</time>
      </trkpt>
      <trkpt lat="43.41529416851699" lon="-6.293278327211738">
        <ele>482.4</ele>
        <time>2017-08-04T05:48:04.000Z</time>
      </trkpt>
      <trkpt lat="43.415267430245876" lon="-6.293391901999712">
        <ele>482.6</ele>
        <time>2017-08-04T05:48:10.000Z</time>
      </trkpt>
      <trkpt lat="43.41526131145656" lon="-6.293431045487523">
        <ele>482.6</ele>
        <time>2017-08-04T05:48:12.000Z</time>
      </trkpt>
      <trkpt lat="43.41525100171566" lon="-6.293491646647453">
        <ele>482.8</ele>
        <time>2017-08-04T05:48:15.000Z</time>
      </trkpt>
      <trkpt lat="43.41523398645222" lon="-6.293570268899202">
        <ele>483.4</ele>
        <time>2017-08-04T05:48:19.000Z</time>
      </trkpt>
      <trkpt lat="43.415192076936364" lon="-6.2937133479863405">
        <ele>484.6</ele>
        <time>2017-08-04T05:48:27.000Z</time>
      </trkpt>
      <trkpt lat="43.41517229564488" lon="-6.293786019086838">
        <ele>485</ele>
        <time>2017-08-04T05:48:31.000Z</time>
      </trkpt>
      <trkpt lat="43.41516307555139" lon="-6.293824072927237">
        <ele>485.2</ele>
        <time>2017-08-04T05:48:33.000Z</time>
      </trkpt>
      <trkpt lat="43.41514580883086" lon="-6.293918201699853">
        <ele>485.8</ele>
        <time>2017-08-04T05:48:38.000Z</time>
      </trkpt>
      <trkpt lat="43.41513994149864" lon="-6.293934714049101">
        <ele>485.8</ele>
        <time>2017-08-04T05:48:39.000Z</time>
      </trkpt>
      <trkpt lat="43.41509182937443" lon="-6.294052395969629">
        <ele>486.8</ele>
        <time>2017-08-04T05:48:45.000Z</time>
      </trkpt>
      <trkpt lat="43.41505947522819" lon="-6.29416479729116">
        <ele>486.8</ele>
        <time>2017-08-04T05:48:51.000Z</time>
      </trkpt>
      <trkpt lat="43.41505855321884" lon="-6.29418290220201">
        <ele>486.6</ele>
        <time>2017-08-04T05:48:52.000Z</time>
      </trkpt>
      <trkpt lat="43.41505109332502" lon="-6.294284909963608">
        <ele>485.4</ele>
        <time>2017-08-04T05:48:58.000Z</time>
      </trkpt>
      <trkpt lat="43.41504782438278" lon="-6.2943025957793">
        <ele>485.2</ele>
        <time>2017-08-04T05:48:59.000Z</time>
      </trkpt>
      <trkpt lat="43.41501597315073" lon="-6.294417763128877">
        <ele>484</ele>
        <time>2017-08-04T05:49:05.000Z</time>
      </trkpt>
      <trkpt lat="43.41498948633671" lon="-6.294516669586301">
        <ele>483.2</ele>
        <time>2017-08-04T05:49:10.000Z</time>
      </trkpt>
      <trkpt lat="43.41494078747928" lon="-6.294637704268098">
        <ele>483.4</ele>
        <time>2017-08-04T05:49:17.000Z</time>
      </trkpt>
      <trkpt lat="43.41488856822252" lon="-6.294759074226022">
        <ele>485.4</ele>
        <time>2017-08-04T05:49:24.000Z</time>
      </trkpt>
      <trkpt lat="43.414841797202826" lon="-6.294877342879772">
        <ele>486.6</ele>
        <time>2017-08-04T05:49:31.000Z</time>
      </trkpt>
      <trkpt lat="43.41479024849832" lon="-6.295001730322838">
        <ele>488.4</ele>
        <time>2017-08-04T05:49:38.000Z</time>
      </trkpt>
      <trkpt lat="43.41473987326026" lon="-6.295151682570577">
        <ele>490</ele>
        <time>2017-08-04T05:49:46.000Z</time>
      </trkpt>
      <trkpt lat="43.414701987057924" lon="-6.295264419168234">
        <ele>491.8</ele>
        <time>2017-08-04T05:49:52.000Z</time>
      </trkpt>
      <trkpt lat="43.414671728387475" lon="-6.2953944224864244">
        <ele>493.8</ele>
        <time>2017-08-04T05:49:58.000Z</time>
      </trkpt>
      <trkpt lat="43.41463141143322" lon="-6.295515205711126">
        <ele>495.6</ele>
        <time>2017-08-04T05:50:04.000Z</time>
      </trkpt>
      <trkpt lat="43.41461137868464" lon="-6.295587625354528">
        <ele>494.2</ele>
        <time>2017-08-04T05:50:08.000Z</time>
      </trkpt>
      <trkpt lat="43.4146115463227" lon="-6.295620985329151">
        <ele>493.2</ele>
        <time>2017-08-04T05:50:10.000Z</time>
      </trkpt>
      <trkpt lat="43.4145943634212" lon="-6.295687956735492">
        <ele>492.2</ele>
        <time>2017-08-04T05:50:14.000Z</time>
      </trkpt>
      <trkpt lat="43.414579443633556" lon="-6.295725172385573">
        <ele>492</ele>
        <time>2017-08-04T05:50:16.000Z</time>
      </trkpt>
      <trkpt lat="43.41453082859516" lon="-6.295849559828639">
        <ele>491</ele>
        <time>2017-08-04T05:50:23.000Z</time>
      </trkpt>
      <trkpt lat="43.41445212252438" lon="-6.296013258397579">
        <ele>490.4</ele>
        <time>2017-08-04T05:50:32.000Z</time>
      </trkpt>
      <trkpt lat="43.41437961906195" lon="-6.2961301021277905">
        <ele>491</ele>
        <time>2017-08-04T05:50:39.000Z</time>
      </trkpt>
      <trkpt lat="43.41431281529367" lon="-6.296259937807918">
        <ele>491.2</ele>
        <time>2017-08-04T05:50:47.000Z</time>
      </trkpt>
      <trkpt lat="43.414248609915376" lon="-6.2963851634413">
        <ele>491</ele>
        <time>2017-08-04T05:50:55.000Z</time>
      </trkpt>
      <trkpt lat="43.41417644172907" lon="-6.296483147889376">
        <ele>491.4</ele>
        <time>2017-08-04T05:51:02.000Z</time>
      </trkpt>
      <trkpt lat="43.414106871932745" lon="-6.2965585850179195">
        <ele>491.8</ele>
        <time>2017-08-04T05:51:08.000Z</time>
      </trkpt>
      <trkpt lat="43.414079966023564" lon="-6.296606948599219">
        <ele>491.4</ele>
        <time>2017-08-04T05:51:14.000Z</time>
      </trkpt>
      <trkpt lat="43.41403545811772" lon="-6.296651288866997">
        <ele>491.6</ele>
        <time>2017-08-04T05:51:19.000Z</time>
      </trkpt>
      <trkpt lat="43.41394929215312" lon="-6.296724211424589">
        <ele>492.2</ele>
        <time>2017-08-04T05:51:26.000Z</time>
      </trkpt>
      <trkpt lat="43.41386312618852" lon="-6.296816831454635">
        <ele>492.4</ele>
        <time>2017-08-04T05:51:34.000Z</time>
      </trkpt>
      <trkpt lat="43.41378693468869" lon="-6.29688011482358">
        <ele>493.4</ele>
        <time>2017-08-04T05:51:39.000Z</time>
      </trkpt>
      <trkpt lat="43.413702780380845" lon="-6.29695831798017">
        <ele>493.8</ele>
        <time>2017-08-04T05:51:45.000Z</time>
      </trkpt>
      <trkpt lat="43.41364528052509" lon="-6.297025205567479">
        <ele>493.8</ele>
        <time>2017-08-04T05:51:50.000Z</time>
      </trkpt>
      <trkpt lat="43.413588870316744" lon="-6.29710441455245">
        <ele>493.4</ele>
        <time>2017-08-04T05:51:56.000Z</time>
      </trkpt>
      <trkpt lat="43.413523910567164" lon="-6.297178426757455">
        <ele>494.2</ele>
        <time>2017-08-04T05:52:02.000Z</time>
      </trkpt>
      <trkpt lat="43.413511756807566" lon="-6.297190999612212">
        <ele>494.4</ele>
        <time>2017-08-04T05:52:03.000Z</time>
      </trkpt>
      <trkpt lat="43.413511756807566" lon="-6.297190999612212">
        <ele>494.4</ele>
        <time>2017-08-04T05:52:03.000Z</time>
      </trkpt>
      <trkpt lat="43.413437996059656" lon="-6.297272136434913">
        <ele>495.2</ele>
        <time>2017-08-04T05:52:10.000Z</time>
      </trkpt>
      <trkpt lat="43.41342450119555" lon="-6.297283452004194">
        <ele>495.4</ele>
        <time>2017-08-04T05:52:11.000Z</time>
      </trkpt>
      <trkpt lat="43.41337672434747" lon="-6.297346651554108">
        <ele>495.8</ele>
        <time>2017-08-04T05:52:16.000Z</time>
      </trkpt>
      <trkpt lat="43.41334839351475" lon="-6.297390656545758">
        <ele>495.8</ele>
        <time>2017-08-04T05:52:19.000Z</time>
      </trkpt>
      <trkpt lat="43.41332106851041" lon="-6.2974353320896626">
        <ele>495.8</ele>
        <time>2017-08-04T05:52:22.000Z</time>
      </trkpt>
      <trkpt lat="43.4133046399802" lon="-6.297467602416873">
        <ele>496.2</ele>
        <time>2017-08-04T05:52:24.000Z</time>
      </trkpt>
      <trkpt lat="43.41326407156885" lon="-6.297552343457937">
        <ele>497.6</ele>
        <time>2017-08-04T05:52:29.000Z</time>
      </trkpt>
      <trkpt lat="43.41324219480157" lon="-6.2976129446178675">
        <ele>498.2</ele>
        <time>2017-08-04T05:52:32.000Z</time>
      </trkpt>
      <trkpt lat="43.41322953812778" lon="-6.297710761427879">
        <ele>498.4</ele>
        <time>2017-08-04T05:52:37.000Z</time>
      </trkpt>
      <trkpt lat="43.413222497329116" lon="-6.297856522724032">
        <ele>498.4</ele>
        <time>2017-08-04T05:52:44.000Z</time>
      </trkpt>
      <trkpt lat="43.41327245347202" lon="-6.297975964844227">
        <ele>500</ele>
        <time>2017-08-04T05:52:50.000Z</time>
      </trkpt>
      <trkpt lat="43.413338754326105" lon="-6.298063639551401">
        <ele>500.8</ele>
        <time>2017-08-04T05:52:57.000Z</time>
      </trkpt>
      <trkpt lat="43.41340832412243" lon="-6.298110326752067">
        <ele>501</ele>
        <time>2017-08-04T05:53:02.000Z</time>
      </trkpt>
      <trkpt lat="43.413490718230605" lon="-6.298157516866922">
        <ele>502</ele>
        <time>2017-08-04T05:53:08.000Z</time>
      </trkpt>
      <trkpt lat="43.41360043734312" lon="-6.298150895163417">
        <ele>502.4</ele>
        <time>2017-08-04T05:53:16.000Z</time>
      </trkpt>
      <trkpt lat="43.413681238889694" lon="-6.298144105821848">
        <ele>501.6</ele>
        <time>2017-08-04T05:53:22.000Z</time>
      </trkpt>
      <trkpt lat="43.413788275793195" lon="-6.298123234882951">
        <ele>500.6</ele>
        <time>2017-08-04T05:53:29.000Z</time>
      </trkpt>
      <trkpt lat="43.41388718225062" lon="-6.298116026446223">
        <ele>500.4</ele>
        <time>2017-08-04T05:53:35.000Z</time>
      </trkpt>
      <trkpt lat="43.41398944146931" lon="-6.298105213791132">
        <ele>499.4</ele>
        <time>2017-08-04T05:53:42.000Z</time>
      </trkpt>
      <trkpt lat="43.41408432461321" lon="-6.298091970384121">
        <ele>498.6</ele>
        <time>2017-08-04T05:53:49.000Z</time>
      </trkpt>
      <trkpt lat="43.414210472255945" lon="-6.298087276518345">
        <ele>497.6</ele>
        <time>2017-08-04T05:53:56.000Z</time>
      </trkpt>
      <trkpt lat="43.414336536079645" lon="-6.298077553510666">
        <ele>496.2</ele>
        <time>2017-08-04T05:54:04.000Z</time>
      </trkpt>
      <trkpt lat="43.41443301178515" lon="-6.298071267083287">
        <ele>494</ele>
        <time>2017-08-04T05:54:11.000Z</time>
      </trkpt>
      <trkpt lat="43.41453468427062" lon="-6.298092557117343">
        <ele>492.6</ele>
        <time>2017-08-04T05:54:19.000Z</time>
      </trkpt>
      <trkpt lat="43.414628310129046" lon="-6.298181908205152">
        <ele>491.4</ele>
        <time>2017-08-04T05:54:29.000Z</time>
      </trkpt>
      <trkpt lat="43.41466041281819" lon="-6.298246197402477">
        <ele>491</ele>
        <time>2017-08-04T05:54:33.000Z</time>
      </trkpt>
      <trkpt lat="43.414693186059594" lon="-6.298377960920334">
        <ele>492.8</ele>
        <time>2017-08-04T05:54:41.000Z</time>
      </trkpt>
      <trkpt lat="43.414709782227874" lon="-6.298538809642196">
        <ele>496.6</ele>
        <time>2017-08-04T05:54:50.000Z</time>
      </trkpt>
      <trkpt lat="43.41470047831535" lon="-6.298711895942688">
        <ele>500.4</ele>
        <time>2017-08-04T05:54:59.000Z</time>
      </trkpt>
      <trkpt lat="43.41470215469599" lon="-6.298730252310634">
        <ele>500.8</ele>
        <time>2017-08-04T05:55:00.000Z</time>
      </trkpt>
      <trkpt lat="43.41470081359148" lon="-6.298777190968394">
        <ele>501.8</ele>
        <time>2017-08-04T05:55:03.000Z</time>
      </trkpt>
      <trkpt lat="43.41470777057111" lon="-6.298845084384084">
        <ele>503</ele>
        <time>2017-08-04T05:55:07.000Z</time>
      </trkpt>
      <trkpt lat="43.41471162624657" lon="-6.298875343054533">
        <ele>503.6</ele>
        <time>2017-08-04T05:55:09.000Z</time>
      </trkpt>
      <trkpt lat="43.41471254825592" lon="-6.2988934479653835">
        <ele>503.8</ele>
        <time>2017-08-04T05:55:10.000Z</time>
      </trkpt>
      <trkpt lat="43.4147014003247" lon="-6.298963017761707">
        <ele>505.2</ele>
        <time>2017-08-04T05:55:14.000Z</time>
      </trkpt>
      <trkpt lat="43.4146858099848" lon="-6.299000987783074">
        <ele>506.4</ele>
        <time>2017-08-04T05:55:16.000Z</time>
      </trkpt>
      <trkpt lat="43.41466745361686" lon="-6.299033258110285">
        <ele>507.6</ele>
        <time>2017-08-04T05:55:18.000Z</time>
      </trkpt>
      <trkpt lat="43.414650186896324" lon="-6.299124369397759">
        <ele>509.8</ele>
        <time>2017-08-04T05:55:23.000Z</time>
      </trkpt>
      <trkpt lat="43.414623783901334" lon="-6.299228640273213">
        <ele>511.8</ele>
        <time>2017-08-04T05:55:29.000Z</time>
      </trkpt>
      <trkpt lat="43.41462420299649" lon="-6.299249092116952">
        <ele>512.2</ele>
        <time>2017-08-04T05:55:30.000Z</time>
      </trkpt>
      <trkpt lat="43.41461976058781" lon="-6.299307513982058">
        <ele>513</ele>
        <time>2017-08-04T05:55:33.000Z</time>
      </trkpt>
      <trkpt lat="43.41461724601686" lon="-6.299344226717949">
        <ele>513.6</ele>
        <time>2017-08-04T05:55:35.000Z</time>
      </trkpt>
      <trkpt lat="43.41463836841285" lon="-6.299426704645157">
        <ele>514.2</ele>
        <time>2017-08-04T05:55:40.000Z</time>
      </trkpt>
      <trkpt lat="43.41463233344257" lon="-6.299480767920613">
        <ele>515.2</ele>
        <time>2017-08-04T05:55:43.000Z</time>
      </trkpt>
      <trkpt lat="43.41462998650968" lon="-6.299511529505253">
        <ele>515.6</ele>
        <time>2017-08-04T05:55:45.000Z</time>
      </trkpt>
      <trkpt lat="43.41461137868464" lon="-6.299591073766351">
        <ele>517</ele>
        <time>2017-08-04T05:55:51.000Z</time>
      </trkpt>
      <trkpt lat="43.41460953466594" lon="-6.299671623855829">
        <ele>518</ele>
        <time>2017-08-04T05:56:04.000Z</time>
      </trkpt>
      <trkpt lat="43.4146081097424" lon="-6.299680341035128">
        <ele>518.2</ele>
        <time>2017-08-04T05:56:05.000Z</time>
      </trkpt>
      <trkpt lat="43.41460567899048" lon="-6.299705235287547">
        <ele>518.8</ele>
        <time>2017-08-04T05:56:11.000Z</time>
      </trkpt>
      <trkpt lat="43.41459469869733" lon="-6.299758460372686">
        <ele>520.4</ele>
        <time>2017-08-04T05:56:15.000Z</time>
      </trkpt>
      <trkpt lat="43.41459562070668" lon="-6.299798106774688">
        <ele>521</ele>
        <time>2017-08-04T05:56:17.000Z</time>
      </trkpt>
      <trkpt lat="43.41460358351469" lon="-6.299876645207405">
        <ele>521.8</ele>
        <time>2017-08-04T05:56:23.000Z</time>
      </trkpt>
      <trkpt lat="43.414606181904674" lon="-6.29988863132894">
        <ele>521.8</ele>
        <time>2017-08-04T05:56:24.000Z</time>
      </trkpt>
      <trkpt lat="43.41462294571102" lon="-6.2999736238271">
        <ele>522.2</ele>
        <time>2017-08-04T05:56:30.000Z</time>
      </trkpt>
      <trkpt lat="43.414628310129046" lon="-6.299987286329269">
        <ele>522</ele>
        <time>2017-08-04T05:56:31.000Z</time>
      </trkpt>
      <trkpt lat="43.41465496458113" lon="-6.300061717629433">
        <ele>521.8</ele>
        <time>2017-08-04T05:56:37.000Z</time>
      </trkpt>
      <trkpt lat="43.414664855226874" lon="-6.300095580518246">
        <ele>521.8</ele>
        <time>2017-08-04T05:56:40.000Z</time>
      </trkpt>
      <trkpt lat="43.41467441059649" lon="-6.300118211656809">
        <ele>521.8</ele>
        <time>2017-08-04T05:56:42.000Z</time>
      </trkpt>
      <trkpt lat="43.41471062041819" lon="-6.300204545259476">
        <ele>521.6</ele>
        <time>2017-08-04T05:56:49.000Z</time>
      </trkpt>
      <trkpt lat="43.41476149857044" lon="-6.300318539142609">
        <ele>522.2</ele>
        <time>2017-08-04T05:56:58.000Z</time>
      </trkpt>
      <trkpt lat="43.4147690422833" lon="-6.300332536920905">
        <ele>522.4</ele>
        <time>2017-08-04T05:56:59.000Z</time>
      </trkpt>
      <trkpt lat="43.41480148024857" lon="-6.3003871869295835">
        <ele>522.6</ele>
        <time>2017-08-04T05:57:04.000Z</time>
      </trkpt>
      <trkpt lat="43.414841797202826" lon="-6.3004381489008665">
        <ele>523.2</ele>
        <time>2017-08-04T05:57:09.000Z</time>
      </trkpt>
      <trkpt lat="43.41487775556743" lon="-6.300544515252113">
        <ele>525</ele>
        <time>2017-08-04T05:57:17.000Z</time>
      </trkpt>
      <trkpt lat="43.41494330205023" lon="-6.300626657903194">
        <ele>525.8</ele>
        <time>2017-08-04T05:57:25.000Z</time>
      </trkpt>
      <trkpt lat="43.414999041706324" lon="-6.300683571025729">
        <ele>526.2</ele>
        <time>2017-08-04T05:57:33.000Z</time>
      </trkpt>
      <trkpt lat="43.41504128649831" lon="-6.300688851624727">
        <ele>526</ele>
        <time>2017-08-04T05:57:42.000Z</time>
      </trkpt>
      <trkpt lat="43.41507892124355" lon="-6.300691114738584">
        <ele>525.8</ele>
        <time>2017-08-04T05:57:49.000Z</time>
      </trkpt>
      <trkpt lat="43.41511772945523" lon="-6.300687678158283">
        <ele>525.8</ele>
        <time>2017-08-04T05:57:55.000Z</time>
      </trkpt>
      <trkpt lat="43.41515075415373" lon="-6.300678877159953">
        <ele>525.6</ele>
        <time>2017-08-04T05:58:00.000Z</time>
      </trkpt>
      <trkpt lat="43.41520397923887" lon="-6.300680134445429">
        <ele>525.6</ele>
        <time>2017-08-04T05:58:07.000Z</time>
      </trkpt>
      <trkpt lat="43.415273716673255" lon="-6.300692623481154">
        <ele>525.6</ele>
        <time>2017-08-04T05:58:15.000Z</time>
      </trkpt>
      <trkpt lat="43.415316296741366" lon="-6.300726654008031">
        <ele>526</ele>
        <time>2017-08-04T05:58:21.000Z</time>
      </trkpt>
      <trkpt lat="43.41538494452834" lon="-6.3007850758731365">
        <ele>525.8</ele>
        <time>2017-08-04T05:58:28.000Z</time>
      </trkpt>
      <trkpt lat="43.4154406003654" lon="-6.30088347941637">
        <ele>525.8</ele>
        <time>2017-08-04T05:58:36.000Z</time>
      </trkpt>
      <trkpt lat="43.415450155735016" lon="-6.300983056426048">
        <ele>526.6</ele>
        <time>2017-08-04T05:58:42.000Z</time>
      </trkpt>
      <trkpt lat="43.41544839553535" lon="-6.301013734191656">
        <ele>527</ele>
        <time>2017-08-04T05:58:44.000Z</time>
      </trkpt>
      <trkpt lat="43.41545702889562" lon="-6.301089841872454">
        <ele>527.8</ele>
        <time>2017-08-04T05:58:49.000Z</time>
      </trkpt>
      <trkpt lat="43.415472116321325" lon="-6.301184054464102">
        <ele>528</ele>
        <time>2017-08-04T05:58:55.000Z</time>
      </trkpt>
      <trkpt lat="43.415482342243195" lon="-6.301241721957922">
        <ele>528</ele>
        <time>2017-08-04T05:58:59.000Z</time>
      </trkpt>
      <trkpt lat="43.41548913158476" lon="-6.3012718968093395">
        <ele>527.8</ele>
        <time>2017-08-04T05:59:01.000Z</time>
      </trkpt>
      <trkpt lat="43.41548946686089" lon="-6.301328307017684">
        <ele>528</ele>
        <time>2017-08-04T05:59:05.000Z</time>
      </trkpt>
      <trkpt lat="43.41549441218376" lon="-6.301380693912506">
        <ele>528.2</ele>
        <time>2017-08-04T05:59:09.000Z</time>
      </trkpt>
      <trkpt lat="43.41549491509795" lon="-6.301422351971269">
        <ele>528.4</ele>
        <time>2017-08-04T05:59:12.000Z</time>
      </trkpt>
      <trkpt lat="43.41550279408693" lon="-6.301450012251735">
        <ele>528.4</ele>
        <time>2017-08-04T05:59:14.000Z</time>
      </trkpt>
      <trkpt lat="43.415512181818485" lon="-6.301483120769262">
        <ele>528.6</ele>
        <time>2017-08-04T05:59:16.000Z</time>
      </trkpt>
      <trkpt lat="43.415531292557716" lon="-6.301530981436372">
        <ele>528.4</ele>
        <time>2017-08-04T05:59:19.000Z</time>
      </trkpt>
      <trkpt lat="43.415536070242524" lon="-6.301598707213998">
        <ele>528.8</ele>
        <time>2017-08-04T05:59:23.000Z</time>
      </trkpt>
      <trkpt lat="43.415543865412474" lon="-6.3016588892787695">
        <ele>528.4</ele>
        <time>2017-08-04T05:59:28.000Z</time>
      </trkpt>
      <trkpt lat="43.41556071303785" lon="-6.301701469346881">
        <ele>527.4</ele>
        <time>2017-08-04T05:59:31.000Z</time>
      </trkpt>
      <trkpt lat="43.41556180268526" lon="-6.301715383306146">
        <ele>527.4</ele>
        <time>2017-08-04T05:59:32.000Z</time>
      </trkpt>
      <trkpt lat="43.41555786319077" lon="-6.301730554550886">
        <ele>527.4</ele>
        <time>2017-08-04T05:59:33.000Z</time>
      </trkpt>
      <trkpt lat="43.41555786319077" lon="-6.301795765757561">
        <ele>527.2</ele>
        <time>2017-08-04T05:59:38.000Z</time>
      </trkpt>
      <trkpt lat="43.41557680629194" lon="-6.3018561992794275">
        <ele>526.2</ele>
        <time>2017-08-04T05:59:43.000Z</time>
      </trkpt>
      <trkpt lat="43.4155788179487" lon="-6.30190908908844">
        <ele>526.4</ele>
        <time>2017-08-04T05:59:47.000Z</time>
      </trkpt>
      <trkpt lat="43.415576638653874" lon="-6.301956195384264">
        <ele>526.6</ele>
        <time>2017-08-04T05:59:50.000Z</time>
      </trkpt>
      <trkpt lat="43.41559801250696" lon="-6.301984693855047">
        <ele>526</ele>
        <time>2017-08-04T05:59:53.000Z</time>
      </trkpt>
      <trkpt lat="43.41560320928693" lon="-6.3020234182477">
        <ele>526</ele>
        <time>2017-08-04T05:59:57.000Z</time>
      </trkpt>
      <trkpt lat="43.4156134352088" lon="-6.302058203145862">
        <ele>525.6</ele>
        <time>2017-08-04T06:00:01.000Z</time>
      </trkpt>
      <trkpt lat="43.41561117209494" lon="-6.302069937810302">
        <ele>525.8</ele>
        <time>2017-08-04T06:00:02.000Z</time>
      </trkpt>
      <trkpt lat="43.415619134902954" lon="-6.302123162895441">
        <ele>526.4</ele>
        <time>2017-08-04T06:00:08.000Z</time>
      </trkpt>
      <trkpt lat="43.41562642715871" lon="-6.302168425172567">
        <ele>527</ele>
        <time>2017-08-04T06:00:13.000Z</time>
      </trkpt>
      <trkpt lat="43.415637239813805" lon="-6.302223410457373">
        <ele>527</ele>
        <time>2017-08-04T06:00:18.000Z</time>
      </trkpt>
      <trkpt lat="43.41564302332699" lon="-6.302239838987589">
        <ele>526.8</ele>
        <time>2017-08-04T06:00:19.000Z</time>
      </trkpt>
      <trkpt lat="43.41563547961414" lon="-6.302293064072728">
        <ele>527.2</ele>
        <time>2017-08-04T06:00:22.000Z</time>
      </trkpt>
      <trkpt lat="43.415617290884256" lon="-6.302340170368552">
        <ele>527.8</ele>
        <time>2017-08-04T06:00:25.000Z</time>
      </trkpt>
      <trkpt lat="43.415618631988764" lon="-6.302352659404278">
        <ele>527.8</ele>
        <time>2017-08-04T06:00:26.000Z</time>
      </trkpt>
      <trkpt lat="43.41562592424452" lon="-6.302414853125811">
        <ele>528</ele>
        <time>2017-08-04T06:00:31.000Z</time>
      </trkpt>
      <trkpt lat="43.41563179157674" lon="-6.3024399150162935">
        <ele>528.2</ele>
        <time>2017-08-04T06:00:33.000Z</time>
      </trkpt>
      <trkpt lat="43.41561561450362" lon="-6.302486266940832">
        <ele>528.6</ele>
        <time>2017-08-04T06:00:37.000Z</time>
      </trkpt>
      <trkpt lat="43.41560966335237" lon="-6.302499091252685">
        <ele>528.8</ele>
        <time>2017-08-04T06:00:38.000Z</time>
      </trkpt>
      <trkpt lat="43.415591306984425" lon="-6.302517196163535">
        <ele>529.2</ele>
        <time>2017-08-04T06:00:40.000Z</time>
      </trkpt>
      <trkpt lat="43.41556523926556" lon="-6.302533373236656">
        <ele>529.8</ele>
        <time>2017-08-04T06:00:43.000Z</time>
      </trkpt>
      <trkpt lat="43.41555643826723" lon="-6.3025345467031">
        <ele>529.8</ele>
        <time>2017-08-04T06:00:44.000Z</time>
      </trkpt>
      <trkpt lat="43.41552576050162" lon="-6.302522728219628">
        <ele>530.6</ele>
        <time>2017-08-04T06:00:48.000Z</time>
      </trkpt>
      <trkpt lat="43.41551184654236" lon="-6.302487272769213">
        <ele>531</ele>
        <time>2017-08-04T06:00:53.000Z</time>
      </trkpt>
      <trkpt lat="43.415459878742695" lon="-6.302383253350854">
        <ele>532.6</ele>
        <time>2017-08-04T06:01:03.000Z</time>
      </trkpt>
      <trkpt lat="43.4154561907053" lon="-6.302370261400938">
        <ele>532.8</ele>
        <time>2017-08-04T06:01:04.000Z</time>
      </trkpt>
      <trkpt lat="43.41543481685221" lon="-6.30230245180428">
        <ele>533.4</ele>
        <time>2017-08-04T06:01:09.000Z</time>
      </trkpt>
      <trkpt lat="43.41540405526757" lon="-6.302253920584917">
        <ele>534.2</ele>
        <time>2017-08-04T06:01:13.000Z</time>
      </trkpt>
      <trkpt lat="43.415373377501965" lon="-6.302236067131162">
        <ele>535.2</ele>
        <time>2017-08-04T06:01:19.000Z</time>
      </trkpt>
      <trkpt lat="43.41536625288427" lon="-6.302246376872063">
        <ele>535.6</ele>
        <time>2017-08-04T06:01:20.000Z</time>
      </trkpt>
      <trkpt lat="43.41534781269729" lon="-6.302311001345515">
        <ele>536.6</ele>
        <time>2017-08-04T06:01:25.000Z</time>
      </trkpt>
      <trkpt lat="43.41532199643552" lon="-6.302427006885409">
        <ele>538.2</ele>
        <time>2017-08-04T06:01:33.000Z</time>
      </trkpt>
      <trkpt lat="43.41531462036073" lon="-6.302521973848343">
        <ele>539.2</ele>
        <time>2017-08-04T06:01:39.000Z</time>
      </trkpt>
      <trkpt lat="43.41531126759946" lon="-6.302542760968208">
        <ele>539.4</ele>
        <time>2017-08-04T06:01:40.000Z</time>
      </trkpt>
      <trkpt lat="43.41530799865723" lon="-6.302571762353182">
        <ele>539.8</ele>
        <time>2017-08-04T06:01:42.000Z</time>
      </trkpt>
      <trkpt lat="43.4153058193624" lon="-6.302576959133148">
        <ele>540</ele>
        <time>2017-08-04T06:01:44.000Z</time>
      </trkpt>
      <trkpt lat="43.41530179604888" lon="-6.302660359069705">
        <ele>540.6</ele>
        <time>2017-08-04T06:01:50.000Z</time>
      </trkpt>
      <trkpt lat="43.41529743745923" lon="-6.302754655480385">
        <ele>541.4</ele>
        <time>2017-08-04T06:01:55.000Z</time>
      </trkpt>
      <trkpt lat="43.41529659926891" lon="-6.302787344902754">
        <ele>541.8</ele>
        <time>2017-08-04T06:01:57.000Z</time>
      </trkpt>
      <trkpt lat="43.415297688916326" lon="-6.302873929962516">
        <ele>542.8</ele>
        <time>2017-08-04T06:02:04.000Z</time>
      </trkpt>
      <trkpt lat="43.41529291123152" lon="-6.302925646305084">
        <ele>543.6</ele>
        <time>2017-08-04T06:02:10.000Z</time>
      </trkpt>
      <trkpt lat="43.41529534198344" lon="-6.302941320464015">
        <ele>543.6</ele>
        <time>2017-08-04T06:02:11.000Z</time>
      </trkpt>
      <trkpt lat="43.41529659926891" lon="-6.302983649075031">
        <ele>544</ele>
        <time>2017-08-04T06:02:14.000Z</time>
      </trkpt>
      <trkpt lat="43.415287379175425" lon="-6.303049027919769">
        <ele>545.2</ele>
        <time>2017-08-04T06:02:18.000Z</time>
      </trkpt>
      <trkpt lat="43.415286457166076" lon="-6.303132344037294">
        <ele>546.2</ele>
        <time>2017-08-04T06:02:23.000Z</time>
      </trkpt>
      <trkpt lat="43.415298694744706" lon="-6.30325329490006">
        <ele>546.8</ele>
        <time>2017-08-04T06:02:30.000Z</time>
      </trkpt>
      <trkpt lat="43.415318224579096" lon="-6.303392518311739">
        <ele>546.6</ele>
        <time>2017-08-04T06:02:38.000Z</time>
      </trkpt>
      <trkpt lat="43.415337670594454" lon="-6.3035557977855206">
        <ele>546.4</ele>
        <time>2017-08-04T06:02:47.000Z</time>
      </trkpt>
      <trkpt lat="43.41533465310931" lon="-6.303708683699369">
        <ele>545.4</ele>
        <time>2017-08-04T06:02:55.000Z</time>
      </trkpt>
      <trkpt lat="43.41529659926891" lon="-6.303863413631916">
        <ele>546.4</ele>
        <time>2017-08-04T06:03:03.000Z</time>
      </trkpt>
      <trkpt lat="43.41522116214037" lon="-6.30397011525929">
        <ele>548.4</ele>
        <time>2017-08-04T06:03:10.000Z</time>
      </trkpt>
      <trkpt lat="43.41511806473136" lon="-6.304130963981152">
        <ele>549.4</ele>
        <time>2017-08-04T06:03:20.000Z</time>
      </trkpt>
      <trkpt lat="43.415039693936706" lon="-6.304287286475301">
        <ele>550.4</ele>
        <time>2017-08-04T06:03:30.000Z</time>
      </trkpt>
      <trkpt lat="43.414984960108995" lon="-6.304422905668616">
        <ele>551</ele>
        <time>2017-08-04T06:03:38.000Z</time>
      </trkpt>
      <trkpt lat="43.414943385869265" lon="-6.304560117423534">
        <ele>552.4</ele>
        <time>2017-08-04T06:03:46.000Z</time>
      </trkpt>
      <trkpt lat="43.41490591876209" lon="-6.304690204560757">
        <ele>553.8</ele>
        <time>2017-08-04T06:03:54.000Z</time>
      </trkpt>
      <trkpt lat="43.414887143298984" lon="-6.304771341383457">
        <ele>555</ele>
        <time>2017-08-04T06:03:59.000Z</time>
      </trkpt>
      <trkpt lat="43.41486074030399" lon="-6.304878294467926">
        <ele>556.8</ele>
        <time>2017-08-04T06:04:06.000Z</time>
      </trkpt>
      <trkpt lat="43.4148293081671" lon="-6.3049461878836155">
        <ele>558.2</ele>
        <time>2017-08-04T06:04:11.000Z</time>
      </trkpt>
      <trkpt lat="43.414817824959755" lon="-6.304975859820843">
        <ele>558.8</ele>
        <time>2017-08-04T06:04:13.000Z</time>
      </trkpt>
      <trkpt lat="43.414799720048904" lon="-6.305006789043546">
        <ele>559.6</ele>
        <time>2017-08-04T06:04:16.000Z</time>
      </trkpt>
      <trkpt lat="43.41479326598346" lon="-6.305044172331691">
        <ele>560.4</ele>
        <time>2017-08-04T06:04:19.000Z</time>
      </trkpt>
      <trkpt lat="43.41478882357478" lon="-6.305073592811823">
        <ele>560.8</ele>
        <time>2017-08-04T06:04:21.000Z</time>
      </trkpt>
      <trkpt lat="43.41476677916944" lon="-6.3051446713507175">
        <ele>562.4</ele>
        <time>2017-08-04T06:04:26.000Z</time>
      </trkpt>
      <trkpt lat="43.414743058383465" lon="-6.305233854800463">
        <ele>563.6</ele>
        <time>2017-08-04T06:04:32.000Z</time>
      </trkpt>
      <trkpt lat="43.414728892967105" lon="-6.305309878662229">
        <ele>564.4</ele>
        <time>2017-08-04T06:04:37.000Z</time>
      </trkpt>
      <trkpt lat="43.4147238638252" lon="-6.305342232808471">
        <ele>564.6</ele>
        <time>2017-08-04T06:04:39.000Z</time>
      </trkpt>
      <trkpt lat="43.414713805541396" lon="-6.305387746542692">
        <ele>565</ele>
        <time>2017-08-04T06:04:42.000Z</time>
      </trkpt>
      <trkpt lat="43.41470265761018" lon="-6.30546385422349">
        <ele>565.8</ele>
        <time>2017-08-04T06:04:47.000Z</time>
      </trkpt>
      <trkpt lat="43.41467835009098" lon="-6.305554546415806">
        <ele>566.4</ele>
        <time>2017-08-04T06:04:53.000Z</time>
      </trkpt>
      <trkpt lat="43.414648342877626" lon="-6.305629229173064">
        <ele>566.8</ele>
        <time>2017-08-04T06:04:58.000Z</time>
      </trkpt>
      <trkpt lat="43.414633171632886" lon="-6.305661918595433">
        <ele>567</ele>
        <time>2017-08-04T06:05:00.000Z</time>
      </trkpt>
      <trkpt lat="43.414595033973455" lon="-6.305784545838833">
        <ele>567.6</ele>
        <time>2017-08-04T06:05:08.000Z</time>
      </trkpt>
      <trkpt lat="43.41460349969566" lon="-6.3057931791990995">
        <ele>567.2</ele>
        <time>2017-08-04T06:05:13.000Z</time>
      </trkpt>
      <trkpt lat="43.41462596319616" lon="-6.305784545838833">
        <ele>566.8</ele>
        <time>2017-08-04T06:05:29.000Z</time>
      </trkpt>
      <trkpt lat="43.41461137868464" lon="-6.305838776752353">
        <ele>566.6</ele>
        <time>2017-08-04T06:05:34.000Z</time>
      </trkpt>
      <trkpt lat="43.4145927708596" lon="-6.305907927453518">
        <ele>566.2</ele>
        <time>2017-08-04T06:05:41.000Z</time>
      </trkpt>
      <trkpt lat="43.41455949470401" lon="-6.306004403159022">
        <ele>565.4</ele>
        <time>2017-08-04T06:05:48.000Z</time>
      </trkpt>
      <trkpt lat="43.4145029168576" lon="-6.306122001260519">
        <ele>565.4</ele>
        <time>2017-08-04T06:05:56.000Z</time>
      </trkpt>
      <trkpt lat="43.41445748694241" lon="-6.3061996176838875">
        <ele>565.8</ele>
        <time>2017-08-04T06:06:02.000Z</time>
      </trkpt>
      <trkpt lat="43.41441105119884" lon="-6.306268433108926">
        <ele>566.2</ele>
        <time>2017-08-04T06:06:08.000Z</time>
      </trkpt>
      <trkpt lat="43.41432765126228" lon="-6.306344037875533">
        <ele>567.2</ele>
        <time>2017-08-04T06:06:16.000Z</time>
      </trkpt>
      <trkpt lat="43.414282808080316" lon="-6.3064054772257805">
        <ele>567.4</ele>
        <time>2017-08-04T06:06:25.000Z</time>
      </trkpt>
      <trkpt lat="43.414241233840585" lon="-6.306439591571689">
        <ele>568</ele>
        <time>2017-08-04T06:06:33.000Z</time>
      </trkpt>
      <trkpt lat="43.4141886793077" lon="-6.306455181911588">
        <ele>569.2</ele>
        <time>2017-08-04T06:06:40.000Z</time>
      </trkpt>
      <trkpt lat="43.41410402208567" lon="-6.306452164426446">
        <ele>571.2</ele>
        <time>2017-08-04T06:06:49.000Z</time>
      </trkpt>
      <trkpt lat="43.41409144923091" lon="-6.306450488045812">
        <ele>571.6</ele>
        <time>2017-08-04T06:06:50.000Z</time>
      </trkpt>
      <trkpt lat="43.41404375620186" lon="-6.306449230760336">
        <ele>572.8</ele>
        <time>2017-08-04T06:06:55.000Z</time>
      </trkpt>
      <trkpt lat="43.413942167535424" lon="-6.3064829260110855">
        <ele>574.6</ele>
        <time>2017-08-04T06:07:05.000Z</time>
      </trkpt>
      <trkpt lat="43.41386270709336" lon="-6.306523075327277">
        <ele>575.6</ele>
        <time>2017-08-04T06:07:13.000Z</time>
      </trkpt>
      <trkpt lat="43.41377327218652" lon="-6.306584011763334">
        <ele>576.8</ele>
        <time>2017-08-04T06:07:22.000Z</time>
      </trkpt>
      <trkpt lat="43.41371459886432" lon="-6.306641763076186">
        <ele>577.2</ele>
        <time>2017-08-04T06:07:29.000Z</time>
      </trkpt>
      <trkpt lat="43.41363941319287" lon="-6.30672256462276">
        <ele>577.4</ele>
        <time>2017-08-04T06:07:38.000Z</time>
      </trkpt>
      <trkpt lat="43.41358467936516" lon="-6.30679976195097">
        <ele>577.4</ele>
        <time>2017-08-04T06:07:46.000Z</time>
      </trkpt>
      <trkpt lat="43.41352508403361" lon="-6.306882072240114">
        <ele>577.6</ele>
        <time>2017-08-04T06:07:54.000Z</time>
      </trkpt>
      <trkpt lat="43.413454759866" lon="-6.306966478005052">
        <ele>577.8</ele>
        <time>2017-08-04T06:08:03.000Z</time>
      </trkpt>
      <trkpt lat="43.41337773017585" lon="-6.3070333655923605">
        <ele>578.2</ele>
        <time>2017-08-04T06:08:12.000Z</time>
      </trkpt>
      <trkpt lat="43.41330690309405" lon="-6.307074939832091">
        <ele>579</ele>
        <time>2017-08-04T06:08:19.000Z</time>
      </trkpt>
      <trkpt lat="43.413297263905406" lon="-6.307082315906882">
        <ele>579.2</ele>
        <time>2017-08-04T06:08:20.000Z</time>
      </trkpt>
      <trkpt lat="43.41324672102928" lon="-6.307111317291856">
        <ele>580</ele>
        <time>2017-08-04T06:08:25.000Z</time>
      </trkpt>
      <trkpt lat="43.41322937048972" lon="-6.307120872661471">
        <ele>580.4</ele>
        <time>2017-08-04T06:08:27.000Z</time>
      </trkpt>
      <trkpt lat="43.413159465417266" lon="-6.307170996442437">
        <ele>581.2</ele>
        <time>2017-08-04T06:08:35.000Z</time>
      </trkpt>
      <trkpt lat="43.41307916678488" lon="-6.307219276204705">
        <ele>582.2</ele>
        <time>2017-08-04T06:08:43.000Z</time>
      </trkpt>
      <trkpt lat="43.412998197600245" lon="-6.307281889021397">
        <ele>583</ele>
        <time>2017-08-04T06:08:52.000Z</time>
      </trkpt>
      <trkpt lat="43.4129193238914" lon="-6.307325726374984">
        <ele>584.6</ele>
        <time>2017-08-04T06:09:00.000Z</time>
      </trkpt>
      <trkpt lat="43.41285486705601" lon="-6.307374006137252">
        <ele>585.4</ele>
        <time>2017-08-04T06:09:07.000Z</time>
      </trkpt>
      <trkpt lat="43.412788566201925" lon="-6.307414239272475">
        <ele>586.6</ele>
        <time>2017-08-04T06:09:14.000Z</time>
      </trkpt>
      <trkpt lat="43.412699634209275" lon="-6.30745698697865">
        <ele>588.2</ele>
        <time>2017-08-04T06:09:23.000Z</time>
      </trkpt>
      <trkpt lat="43.41262788511813" lon="-6.307499231770635">
        <ele>589.4</ele>
        <time>2017-08-04T06:09:31.000Z</time>
      </trkpt>
      <trkpt lat="43.41258396394551" lon="-6.307516749948263">
        <ele>590.2</ele>
        <time>2017-08-04T06:09:36.000Z</time>
      </trkpt>
      <trkpt lat="43.41250249184668" lon="-6.307559916749597">
        <ele>591.6</ele>
        <time>2017-08-04T06:09:45.000Z</time>
      </trkpt>
      <trkpt lat="43.41243862174451" lon="-6.30758648738265">
        <ele>592.8</ele>
        <time>2017-08-04T06:09:52.000Z</time>
      </trkpt>
      <trkpt lat="43.41236318461597" lon="-6.3076211884617805">
        <ele>594</ele>
        <time>2017-08-04T06:10:00.000Z</time>
      </trkpt>
      <trkpt lat="43.41233728453517" lon="-6.3076371140778065">
        <ele>594.2</ele>
        <time>2017-08-04T06:10:03.000Z</time>
      </trkpt>
      <trkpt lat="43.41233476996422" lon="-6.307643232867122">
        <ele>594.2</ele>
        <time>2017-08-04T06:10:06.000Z</time>
      </trkpt>
      <trkpt lat="43.41227777302265" lon="-6.307667791843414">
        <ele>595</ele>
        <time>2017-08-04T06:10:30.000Z</time>
      </trkpt>
      <trkpt lat="43.412183560431004" lon="-6.307700565084815">
        <ele>596.6</ele>
        <time>2017-08-04T06:10:39.000Z</time>
      </trkpt>
      <trkpt lat="43.41209144331515" lon="-6.307735936716199">
        <ele>598.6</ele>
        <time>2017-08-04T06:10:48.000Z</time>
      </trkpt>
      <trkpt lat="43.412024891003966" lon="-6.307756220921874">
        <ele>600.4</ele>
        <time>2017-08-04T06:10:55.000Z</time>
      </trkpt>
      <trkpt lat="43.41195515356958" lon="-6.307775247842073">
        <ele>602.2</ele>
        <time>2017-08-04T06:11:02.000Z</time>
      </trkpt>
      <trkpt lat="43.41188432648778" lon="-6.30778974853456">
        <ele>603.2</ele>
        <time>2017-08-04T06:11:09.000Z</time>
      </trkpt>
      <trkpt lat="43.41179489158094" lon="-6.307793604210019">
        <ele>603.6</ele>
        <time>2017-08-04T06:11:17.000Z</time>
      </trkpt>
      <trkpt lat="43.411719873547554" lon="-6.307802991941571">
        <ele>604</ele>
        <time>2017-08-04T06:11:24.000Z</time>
      </trkpt>
      <trkpt lat="43.41164669953287" lon="-6.307794526219368">
        <ele>604.2</ele>
        <time>2017-08-04T06:11:31.000Z</time>
      </trkpt>
      <trkpt lat="43.41153337620199" lon="-6.307780612260103">
        <ele>604.6</ele>
        <time>2017-08-04T06:11:41.000Z</time>
      </trkpt>
      <trkpt lat="43.4115085657686" lon="-6.307777343317866">
        <ele>604.8</ele>
        <time>2017-08-04T06:11:44.000Z</time>
      </trkpt>
      <trkpt lat="43.41149247251451" lon="-6.307772733271122">
        <ele>605</ele>
        <time>2017-08-04T06:11:46.000Z</time>
      </trkpt>
      <trkpt lat="43.41148132458329" lon="-6.307769296690822">
        <ele>605</ele>
        <time>2017-08-04T06:11:47.000Z</time>
      </trkpt>
      <trkpt lat="43.41143446974456" lon="-6.307764267548919">
        <ele>605.4</ele>
        <time>2017-08-04T06:11:51.000Z</time>
      </trkpt>
      <trkpt lat="43.411387614905834" lon="-6.307757310569286">
        <ele>605.8</ele>
        <time>2017-08-04T06:11:55.000Z</time>
      </trkpt>
      <trkpt lat="43.4112942405045" lon="-6.307737026363611">
        <ele>606.6</ele>
        <time>2017-08-04T06:12:03.000Z</time>
      </trkpt>
      <trkpt lat="43.41118284501135" lon="-6.307718586176634">
        <ele>607.4</ele>
        <time>2017-08-04T06:12:12.000Z</time>
      </trkpt>
      <trkpt lat="43.41109483502805" lon="-6.307719424366951">
        <ele>608</ele>
        <time>2017-08-04T06:12:20.000Z</time>
      </trkpt>
      <trkpt lat="43.411047561094165" lon="-6.307734260335565">
        <ele>609</ele>
        <time>2017-08-04T06:12:25.000Z</time>
      </trkpt>
      <trkpt lat="43.41104387305677" lon="-6.307734763249755">
        <ele>609</ele>
        <time>2017-08-04T06:12:27.000Z</time>
      </trkpt>
      <trkpt lat="43.41102643869817" lon="-6.307739960029721">
        <ele>609.6</ele>
        <time>2017-08-04T06:12:31.000Z</time>
      </trkpt>
      <trkpt lat="43.4109974373132" lon="-6.307768626138568">
        <ele>610.2</ele>
        <time>2017-08-04T06:12:39.000Z</time>
      </trkpt>
      <trkpt lat="43.410993749275804" lon="-6.3078326638787985">
        <ele>610.4</ele>
        <time>2017-08-04T06:13:44.000Z</time>
      </trkpt>
      <trkpt lat="43.4109905641526" lon="-6.307851439341903">
        <ele>610.6</ele>
        <time>2017-08-04T06:13:53.000Z</time>
      </trkpt>
      <trkpt lat="43.41099299490452" lon="-6.3078132178634405">
        <ele>610.4</ele>
        <time>2017-08-04T06:15:04.000Z</time>
      </trkpt>
      <trkpt lat="43.41099618002772" lon="-6.307790335267782">
        <ele>610.2</ele>
        <time>2017-08-04T06:15:10.000Z</time>
      </trkpt>
      <trkpt lat="43.410986540839076" lon="-6.3077896647155285">
        <ele>610.6</ele>
        <time>2017-08-04T06:15:30.000Z</time>
      </trkpt>
      <trkpt lat="43.41098905541003" lon="-6.307802656665444">
        <ele>610.4</ele>
        <time>2017-08-04T06:15:39.000Z</time>
      </trkpt>
      <trkpt lat="43.41099416837096" lon="-6.307838363572955">
        <ele>610.4</ele>
        <time>2017-08-04T06:15:47.000Z</time>
      </trkpt>
      <trkpt lat="43.41098126024008" lon="-6.307859653607011">
        <ele>610.8</ele>
        <time>2017-08-04T06:15:58.000Z</time>
      </trkpt>
      <trkpt lat="43.41097581200302" lon="-6.307868957519531">
        <ele>611</ele>
        <time>2017-08-04T06:16:00.000Z</time>
      </trkpt>
      <trkpt lat="43.41098234988749" lon="-6.307834843173623">
        <ele>610.6</ele>
        <time>2017-08-04T06:18:09.000Z</time>
      </trkpt>
      <trkpt lat="43.41098100878298" lon="-6.307803662493825">
        <ele>610.6</ele>
        <time>2017-08-04T06:18:18.000Z</time>
      </trkpt>
      <trkpt lat="43.4109903126955" lon="-6.307857893407345">
        <ele>610.6</ele>
        <time>2017-08-04T06:18:24.000Z</time>
      </trkpt>
      <trkpt lat="43.41099450364709" lon="-6.307871639728546">
        <ele>610.6</ele>
        <time>2017-08-04T06:18:32.000Z</time>
      </trkpt>
      <trkpt lat="43.41099081560969" lon="-6.3078739028424025">
        <ele>610.6</ele>
        <time>2017-08-04T06:20:02.000Z</time>
      </trkpt>
      <trkpt lat="43.410977236926556" lon="-6.30791774019599">
        <ele>611</ele>
        <time>2017-08-04T06:20:41.000Z</time>
      </trkpt>
      <trkpt lat="43.41097095049918" lon="-6.307984879240394">
        <ele>611.4</ele>
        <time>2017-08-04T06:20:54.000Z</time>
      </trkpt>
      <trkpt lat="43.410960556939244" lon="-6.308089233934879">
        <ele>612</ele>
        <time>2017-08-04T06:21:02.000Z</time>
      </trkpt>
      <trkpt lat="43.41094798408449" lon="-6.3081813510507345">
        <ele>612.6</ele>
        <time>2017-08-04T06:21:09.000Z</time>
      </trkpt>
      <trkpt lat="43.410926442593336" lon="-6.308294422924519">
        <ele>613.4</ele>
        <time>2017-08-04T06:21:17.000Z</time>
      </trkpt>
      <trkpt lat="43.41091152280569" lon="-6.308418391272426">
        <ele>613.8</ele>
        <time>2017-08-04T06:21:25.000Z</time>
      </trkpt>
      <trkpt lat="43.41089786030352" lon="-6.308537581935525">
        <ele>614.6</ele>
        <time>2017-08-04T06:21:33.000Z</time>
      </trkpt>
      <trkpt lat="43.41088403016329" lon="-6.308626681566238">
        <ele>615</ele>
        <time>2017-08-04T06:21:39.000Z</time>
      </trkpt>
      <trkpt lat="43.41086810454726" lon="-6.308730198070407">
        <ele>615.2</ele>
        <time>2017-08-04T06:21:46.000Z</time>
      </trkpt>
      <trkpt lat="43.41084354557097" lon="-6.308870846405625">
        <ele>615.8</ele>
        <time>2017-08-04T06:21:55.000Z</time>
      </trkpt>
      <trkpt lat="43.410820411518216" lon="-6.30903085693717">
        <ele>617.2</ele>
        <time>2017-08-04T06:22:06.000Z</time>
      </trkpt>
      <trkpt lat="43.410809598863125" lon="-6.3091211300343275">
        <ele>618</ele>
        <time>2017-08-04T06:22:12.000Z</time>
      </trkpt>
      <trkpt lat="43.41079476289451" lon="-6.309168906882405">
        <ele>618.6</ele>
        <time>2017-08-04T06:22:15.000Z</time>
      </trkpt>
      <trkpt lat="43.41078788973391" lon="-6.309198495000601">
        <ele>619</ele>
        <time>2017-08-04T06:22:17.000Z</time>
      </trkpt>
      <trkpt lat="43.410779340192676" lon="-6.30928642116487">
        <ele>619.4</ele>
        <time>2017-08-04T06:22:24.000Z</time>
      </trkpt>
      <trkpt lat="43.41077665798366" lon="-6.30930352024734">
        <ele>619.6</ele>
        <time>2017-08-04T06:22:25.000Z</time>
      </trkpt>
      <trkpt lat="43.41076576150954" lon="-6.309381723403931">
        <ele>620.2</ele>
        <time>2017-08-04T06:22:31.000Z</time>
      </trkpt>
      <trkpt lat="43.41076232492924" lon="-6.309418771415949">
        <ele>620.4</ele>
        <time>2017-08-04T06:22:39.000Z</time>
      </trkpt>
      <trkpt lat="43.41075017116964" lon="-6.309531256556511">
        <ele>620.8</ele>
        <time>2017-08-04T06:22:47.000Z</time>
      </trkpt>
      <trkpt lat="43.410747991874814" lon="-6.309613902121782">
        <ele>621</ele>
        <time>2017-08-04T06:22:53.000Z</time>
      </trkpt>
      <trkpt lat="43.41073717921972" lon="-6.309722783043981">
        <ele>621.6</ele>
        <time>2017-08-04T06:23:01.000Z</time>
      </trkpt>
      <trkpt lat="43.41072577983141" lon="-6.309840800240636">
        <ele>622</ele>
        <time>2017-08-04T06:23:09.000Z</time>
      </trkpt>
      <trkpt lat="43.410693760961294" lon="-6.309979101642966">
        <ele>623</ele>
        <time>2017-08-04T06:23:17.000Z</time>
      </trkpt>
      <trkpt lat="43.41063944622874" lon="-6.310109188780189">
        <ele>624.6</ele>
        <time>2017-08-04T06:23:25.000Z</time>
      </trkpt>
      <trkpt lat="43.41056803241372" lon="-6.310262829065323">
        <ele>626.8</ele>
        <time>2017-08-04T06:23:35.000Z</time>
      </trkpt>
      <trkpt lat="43.410505335778" lon="-6.310403142124414">
        <ele>628.6</ele>
        <time>2017-08-04T06:23:44.000Z</time>
      </trkpt>
      <trkpt lat="43.41041690669954" lon="-6.310577820986509">
        <ele>629.6</ele>
        <time>2017-08-04T06:23:55.000Z</time>
      </trkpt>
      <trkpt lat="43.410341972485185" lon="-6.3106876239180565">
        <ele>630</ele>
        <time>2017-08-04T06:24:03.000Z</time>
      </trkpt>
      <trkpt lat="43.41024365276098" lon="-6.31081385537982">
        <ele>630.6</ele>
        <time>2017-08-04T06:24:12.000Z</time>
      </trkpt>
      <trkpt lat="43.41014734469354" lon="-6.3109382428228855">
        <ele>631.2</ele>
        <time>2017-08-04T06:24:22.000Z</time>
      </trkpt>
      <trkpt lat="43.4100494440645" lon="-6.3110581040382385">
        <ele>631.8</ele>
        <time>2017-08-04T06:24:32.000Z</time>
      </trkpt>
      <trkpt lat="43.40997417457402" lon="-6.3111715111881495">
        <ele>633.2</ele>
        <time>2017-08-04T06:24:41.000Z</time>
      </trkpt>
      <trkpt lat="43.40991114266217" lon="-6.3112931326031685">
        <ele>634.8</ele>
        <time>2017-08-04T06:24:50.000Z</time>
      </trkpt>
      <trkpt lat="43.40987610630691" lon="-6.311389189213514">
        <ele>635.8</ele>
        <time>2017-08-04T06:24:57.000Z</time>
      </trkpt>
      <trkpt lat="43.40982900001109" lon="-6.311491364613175">
        <ele>637.2</ele>
        <time>2017-08-04T06:25:05.000Z</time>
      </trkpt>
      <trkpt lat="43.40975590981543" lon="-6.311633354052901">
        <ele>639.8</ele>
        <time>2017-08-04T06:25:15.000Z</time>
      </trkpt>
      <trkpt lat="43.40970268473029" lon="-6.311742318794131">
        <ele>640.8</ele>
        <time>2017-08-04T06:25:23.000Z</time>
      </trkpt>
      <trkpt lat="43.40965859591961" lon="-6.311833681538701">
        <ele>641</ele>
        <time>2017-08-04T06:25:30.000Z</time>
      </trkpt>
      <trkpt lat="43.40961995534599" lon="-6.3119221944361925">
        <ele>640.8</ele>
        <time>2017-08-04T06:25:37.000Z</time>
      </trkpt>
      <trkpt lat="43.40961123816669" lon="-6.311944322660565">
        <ele>640.6</ele>
        <time>2017-08-04T06:25:39.000Z</time>
      </trkpt>
      <trkpt lat="43.40958206914365" lon="-6.311993021517992">
        <ele>640.6</ele>
        <time>2017-08-04T06:25:43.000Z</time>
      </trkpt>
      <trkpt lat="43.40953102335334" lon="-6.312068123370409">
        <ele>640.4</ele>
        <time>2017-08-04T06:25:49.000Z</time>
      </trkpt>
      <trkpt lat="43.409447288140655" lon="-6.312174154445529">
        <ele>640.6</ele>
        <time>2017-08-04T06:25:58.000Z</time>
      </trkpt>
      <trkpt lat="43.40935424901545" lon="-6.312269624322653">
        <ele>641.4</ele>
        <time>2017-08-04T06:26:07.000Z</time>
      </trkpt>
      <trkpt lat="43.40926615521312" lon="-6.312346989288926">
        <ele>642.4</ele>
        <time>2017-08-04T06:26:16.000Z</time>
      </trkpt>
      <trkpt lat="43.4091754630208" lon="-6.312412787228823">
        <ele>643.6</ele>
        <time>2017-08-04T06:26:25.000Z</time>
      </trkpt>
      <trkpt lat="43.40909969061613" lon="-6.312458887696266">
        <ele>644.8</ele>
        <time>2017-08-04T06:26:32.000Z</time>
      </trkpt>
      <trkpt lat="43.40901209972799" lon="-6.312503898516297">
        <ele>646.4</ele>
        <time>2017-08-04T06:26:40.000Z</time>
      </trkpt>
      <trkpt lat="43.408988546580076" lon="-6.312515297904611">
        <ele>646.8</ele>
        <time>2017-08-04T06:26:42.000Z</time>
      </trkpt>
      <trkpt lat="43.40894269756973" lon="-6.312537677586079">
        <ele>647.6</ele>
        <time>2017-08-04T06:26:46.000Z</time>
      </trkpt>
      <trkpt lat="43.40885577723384" lon="-6.312569780275226">
        <ele>649.2</ele>
        <time>2017-08-04T06:26:54.000Z</time>
      </trkpt>
      <trkpt lat="43.40880271978676" lon="-6.312587466090918">
        <ele>649.8</ele>
        <time>2017-08-04T06:27:00.000Z</time>
      </trkpt>
      <trkpt lat="43.408724600449204" lon="-6.312558464705944">
        <ele>651.4</ele>
        <time>2017-08-04T06:27:06.000Z</time>
      </trkpt>
      <trkpt lat="43.4086989518255" lon="-6.312538515776396">
        <ele>652</ele>
        <time>2017-08-04T06:27:09.000Z</time>
      </trkpt>
      <trkpt lat="43.408671375364065" lon="-6.312506916001439">
        <ele>652.8</ele>
        <time>2017-08-04T06:27:13.000Z</time>
      </trkpt>
      <trkpt lat="43.4086556173861" lon="-6.312493085861206">
        <ele>653.2</ele>
        <time>2017-08-04T06:27:15.000Z</time>
      </trkpt>
      <trkpt lat="43.40862410143018" lon="-6.312474645674229">
        <ele>654</ele>
        <time>2017-08-04T06:27:18.000Z</time>
      </trkpt>
      <trkpt lat="43.40857867151499" lon="-6.312456037849188">
        <ele>655</ele>
        <time>2017-08-04T06:27:24.000Z</time>
      </trkpt>
      <trkpt lat="43.408538438379765" lon="-6.312427623197436">
        <ele>655.4</ele>
        <time>2017-08-04T06:27:28.000Z</time>
      </trkpt>
      <trkpt lat="43.40851337648928" lon="-6.312426868826151">
        <ele>655.6</ele>
        <time>2017-08-04T06:27:30.000Z</time>
      </trkpt>
      <trkpt lat="43.408494936302304" lon="-6.312430305406451">
        <ele>655.8</ele>
        <time>2017-08-04T06:27:32.000Z</time>
      </trkpt>
      <trkpt lat="43.40846534818411" lon="-6.312448158860207">
        <ele>655.8</ele>
        <time>2017-08-04T06:27:35.000Z</time>
      </trkpt>
      <trkpt lat="43.408413380384445" lon="-6.312490403652191">
        <ele>656.2</ele>
        <time>2017-08-04T06:27:41.000Z</time>
      </trkpt>
      <trkpt lat="43.408397790044546" lon="-6.312496019527316">
        <ele>656.4</ele>
        <time>2017-08-04T06:27:47.000Z</time>
      </trkpt>
      <trkpt lat="43.40838379226625" lon="-6.312495935708284">
        <ele>656.4</ele>
        <time>2017-08-04T06:27:49.000Z</time>
      </trkpt>
      <trkpt lat="43.408360071480274" lon="-6.312515381723642">
        <ele>656.6</ele>
        <time>2017-08-04T06:27:52.000Z</time>
      </trkpt>
      <trkpt lat="43.408347917720675" lon="-6.312536587938666">
        <ele>656.8</ele>
        <time>2017-08-04T06:27:55.000Z</time>
      </trkpt>
      <trkpt lat="43.40834674425423" lon="-6.3125362526625395">
        <ele>656.8</ele>
        <time>2017-08-04T06:27:57.000Z</time>
      </trkpt>
      <trkpt lat="43.40831095352769" lon="-6.312588304281235">
        <ele>657</ele>
        <time>2017-08-04T06:28:07.000Z</time>
      </trkpt>
      <trkpt lat="43.408277425915" lon="-6.31263398565352">
        <ele>657.4</ele>
        <time>2017-08-04T06:28:11.000Z</time>
      </trkpt>
      <trkpt lat="43.40826258994639" lon="-6.312640439718962">
        <ele>657.4</ele>
        <time>2017-08-04T06:28:12.000Z</time>
      </trkpt>
      <trkpt lat="43.40822344645858" lon="-6.312673212960362">
        <ele>658</ele>
        <time>2017-08-04T06:28:16.000Z</time>
      </trkpt>
      <trkpt lat="43.4082050062716" lon="-6.312695173546672">
        <ele>658.2</ele>
        <time>2017-08-04T06:28:18.000Z</time>
      </trkpt>
      <trkpt lat="43.408153373748064" lon="-6.312782010063529">
        <ele>658.4</ele>
        <time>2017-08-04T06:28:25.000Z</time>
      </trkpt>
      <trkpt lat="43.40812319889665" lon="-6.312906397506595">
        <ele>658.4</ele>
        <time>2017-08-04T06:28:32.000Z</time>
      </trkpt>
      <trkpt lat="43.40809470042586" lon="-6.313041681423783">
        <ele>657.8</ele>
        <time>2017-08-04T06:28:40.000Z</time>
      </trkpt>
      <trkpt lat="43.40807483531535" lon="-6.313158273696899">
        <ele>656.8</ele>
        <time>2017-08-04T06:28:47.000Z</time>
      </trkpt>
      <trkpt lat="43.40806427411735" lon="-6.313301771879196">
        <ele>655.8</ele>
        <time>2017-08-04T06:28:55.000Z</time>
      </trkpt>
      <trkpt lat="43.408048851415515" lon="-6.313423728570342">
        <ele>655.4</ele>
        <time>2017-08-04T06:29:05.000Z</time>
      </trkpt>
      <trkpt lat="43.40803896076977" lon="-6.313494220376015">
        <ele>655.2</ele>
        <time>2017-08-04T06:29:11.000Z</time>
      </trkpt>
      <trkpt lat="43.40803116559982" lon="-6.313561862334609">
        <ele>655</ele>
        <time>2017-08-04T06:29:16.000Z</time>
      </trkpt>
      <trkpt lat="43.40801716782153" lon="-6.313599497079849">
        <ele>655</ele>
        <time>2017-08-04T06:29:19.000Z</time>
      </trkpt>
      <trkpt lat="43.40800115838647" lon="-6.313637886196375">
        <ele>655</ele>
        <time>2017-08-04T06:29:25.000Z</time>
      </trkpt>
      <trkpt lat="43.407965283840895" lon="-6.313691362738609">
        <ele>655.2</ele>
        <time>2017-08-04T06:29:35.000Z</time>
      </trkpt>
      <trkpt lat="43.40789655223489" lon="-6.313762525096536">
        <ele>655.8</ele>
        <time>2017-08-04T06:29:41.000Z</time>
      </trkpt>
      <trkpt lat="43.40779202990234" lon="-6.313844919204712">
        <ele>656.6</ele>
        <time>2017-08-04T06:29:50.000Z</time>
      </trkpt>
      <trkpt lat="43.40766839683056" lon="-6.313910465687513">
        <ele>657</ele>
        <time>2017-08-04T06:30:00.000Z</time>
      </trkpt>
      <trkpt lat="43.40756110846996" lon="-6.313960086554289">
        <ele>657.2</ele>
        <time>2017-08-04T06:30:09.000Z</time>
      </trkpt>
      <trkpt lat="43.40746999718249" lon="-6.314000152051449">
        <ele>657.4</ele>
        <time>2017-08-04T06:30:18.000Z</time>
      </trkpt>
      <trkpt lat="43.40736983343959" lon="-6.314039546996355">
        <ele>657.2</ele>
        <time>2017-08-04T06:30:27.000Z</time>
      </trkpt>
      <trkpt lat="43.40725550428033" lon="-6.314102662727237">
        <ele>657</ele>
        <time>2017-08-04T06:30:37.000Z</time>
      </trkpt>
      <trkpt lat="43.40714402496815" lon="-6.314178770408034">
        <ele>657.2</ele>
        <time>2017-08-04T06:30:47.000Z</time>
      </trkpt>
      <trkpt lat="43.407030031085014" lon="-6.314260913059115">
        <ele>657.8</ele>
        <time>2017-08-04T06:30:57.000Z</time>
      </trkpt>
      <trkpt lat="43.40691628865898" lon="-6.314335176721215">
        <ele>658.4</ele>
        <time>2017-08-04T06:31:07.000Z</time>
      </trkpt>
      <trkpt lat="43.406820902600884" lon="-6.3143510185182095">
        <ele>658.6</ele>
        <time>2017-08-04T06:31:15.000Z</time>
      </trkpt>
      <trkpt lat="43.40673431754112" lon="-6.314397202804685">
        <ele>658.6</ele>
        <time>2017-08-04T06:31:23.000Z</time>
      </trkpt>
      <trkpt lat="43.4066613111645" lon="-6.314464593306184">
        <ele>658.4</ele>
        <time>2017-08-04T06:31:30.000Z</time>
      </trkpt>
      <trkpt lat="43.40657522901893" lon="-6.314539276063442">
        <ele>657.8</ele>
        <time>2017-08-04T06:31:38.000Z</time>
      </trkpt>
      <trkpt lat="43.40645612217486" lon="-6.314630806446075">
        <ele>656.6</ele>
        <time>2017-08-04T06:31:49.000Z</time>
      </trkpt>
      <trkpt lat="43.40637305751443" lon="-6.31470481865108">
        <ele>655.8</ele>
        <time>2017-08-04T06:31:57.000Z</time>
      </trkpt>
      <trkpt lat="43.40627063065767" lon="-6.314791655167937">
        <ele>655.2</ele>
        <time>2017-08-04T06:32:07.000Z</time>
      </trkpt>
      <trkpt lat="43.40617365203798" lon="-6.314867092296481">
        <ele>654.6</ele>
        <time>2017-08-04T06:32:16.000Z</time>
      </trkpt>
      <trkpt lat="43.406049348413944" lon="-6.314953425899148">
        <ele>654</ele>
        <time>2017-08-04T06:32:27.000Z</time>
      </trkpt>
      <trkpt lat="43.40594759210944" lon="-6.3150436989963055">
        <ele>653.4</ele>
        <time>2017-08-04T06:32:37.000Z</time>
      </trkpt>
      <trkpt lat="43.40587173588574" lon="-6.315127266570926">
        <ele>652.8</ele>
        <time>2017-08-04T06:32:45.000Z</time>
      </trkpt>
      <trkpt lat="43.40577065013349" lon="-6.315251654013991">
        <ele>652</ele>
        <time>2017-08-04T06:32:56.000Z</time>
      </trkpt>
      <trkpt lat="43.40570895932615" lon="-6.315336311236024">
        <ele>651.6</ele>
        <time>2017-08-04T06:33:03.000Z</time>
      </trkpt>
      <trkpt lat="43.40562991797924" lon="-6.3154456950724125">
        <ele>651</ele>
        <time>2017-08-04T06:33:12.000Z</time>
      </trkpt>
      <trkpt lat="43.40555179864168" lon="-6.315552648156881">
        <ele>650.8</ele>
        <time>2017-08-04T06:33:21.000Z</time>
      </trkpt>
      <trkpt lat="43.40547728352249" lon="-6.315659265965223">
        <ele>650.4</ele>
        <time>2017-08-04T06:33:30.000Z</time>
      </trkpt>
      <trkpt lat="43.405399080365896" lon="-6.315767811611295">
        <ele>650</ele>
        <time>2017-08-04T06:33:39.000Z</time>
      </trkpt>
      <trkpt lat="43.405321799218655" lon="-6.31587652489543">
        <ele>649.6</ele>
        <time>2017-08-04T06:33:48.000Z</time>
      </trkpt>
      <trkpt lat="43.405243093147874" lon="-6.3159875851124525">
        <ele>649.2</ele>
        <time>2017-08-04T06:33:57.000Z</time>
      </trkpt>
      <trkpt lat="43.40517042204738" lon="-6.316078864037991">
        <ele>649</ele>
        <time>2017-08-04T06:34:05.000Z</time>
      </trkpt>
      <trkpt lat="43.40508551336825" lon="-6.316182212904096">
        <ele>648.6</ele>
        <time>2017-08-04T06:34:14.000Z</time>
      </trkpt>
      <trkpt lat="43.405005130916834" lon="-6.316267708316445">
        <ele>648.2</ele>
        <time>2017-08-04T06:34:22.000Z</time>
      </trkpt>
      <trkpt lat="43.404901111498475" lon="-6.316371476277709">
        <ele>647.8</ele>
        <time>2017-08-04T06:34:32.000Z</time>
      </trkpt>
      <trkpt lat="43.40480891056359" lon="-6.316459234803915">
        <ele>647.6</ele>
        <time>2017-08-04T06:34:41.000Z</time>
      </trkpt>
      <trkpt lat="43.4047167096287" lon="-6.31654305383563">
        <ele>647.2</ele>
        <time>2017-08-04T06:34:50.000Z</time>
      </trkpt>
      <trkpt lat="43.4046234190464" lon="-6.316624693572521">
        <ele>647</ele>
        <time>2017-08-04T06:34:59.000Z</time>
      </trkpt>
      <trkpt lat="43.404510263353586" lon="-6.316731395199895">
        <ele>646.6</ele>
        <time>2017-08-04T06:35:10.000Z</time>
      </trkpt>
      <trkpt lat="43.404421247541904" lon="-6.316794008016586">
        <ele>646.4</ele>
        <time>2017-08-04T06:35:18.000Z</time>
      </trkpt>
      <trkpt lat="43.404321586713195" lon="-6.3168590515851974">
        <ele>646.2</ele>
        <time>2017-08-04T06:35:27.000Z</time>
      </trkpt>
      <trkpt lat="43.404196528717875" lon="-6.316951420158148">
        <ele>646</ele>
        <time>2017-08-04T06:35:38.000Z</time>
      </trkpt>
      <trkpt lat="43.40410768054426" lon="-6.3170431181788445">
        <ele>645.8</ele>
        <time>2017-08-04T06:35:47.000Z</time>
      </trkpt>
      <trkpt lat="43.40403517708182" lon="-6.317124171182513">
        <ele>645.6</ele>
        <time>2017-08-04T06:35:55.000Z</time>
      </trkpt>
      <trkpt lat="43.4039603266865" lon="-6.317206984385848">
        <ele>645.2</ele>
        <time>2017-08-04T06:36:03.000Z</time>
      </trkpt>
      <trkpt lat="43.40387474745512" lon="-6.317300442606211">
        <ele>644.6</ele>
        <time>2017-08-04T06:36:12.000Z</time>
      </trkpt>
      <trkpt lat="43.403806518763304" lon="-6.3173803221434355">
        <ele>644.4</ele>
        <time>2017-08-04T06:36:20.000Z</time>
      </trkpt>
      <trkpt lat="43.40373108163476" lon="-6.317487023770809">
        <ele>644.2</ele>
        <time>2017-08-04T06:36:29.000Z</time>
      </trkpt>
      <trkpt lat="43.403679030016065" lon="-6.317562377080321">
        <ele>643.8</ele>
        <time>2017-08-04T06:36:36.000Z</time>
      </trkpt>
      <trkpt lat="43.403673665598035" lon="-6.317575536668301">
        <ele>643.8</ele>
        <time>2017-08-04T06:36:37.000Z</time>
      </trkpt>
      <trkpt lat="43.40364407747984" lon="-6.3176159374415874">
        <ele>643.6</ele>
        <time>2017-08-04T06:36:41.000Z</time>
      </trkpt>
      <trkpt lat="43.40363427065313" lon="-6.317626666277647">
        <ele>643.6</ele>
        <time>2017-08-04T06:36:42.000Z</time>
      </trkpt>
      <trkpt lat="43.40355774387717" lon="-6.317723644897342">
        <ele>643.4</ele>
        <time>2017-08-04T06:36:51.000Z</time>
      </trkpt>
      <trkpt lat="43.403485072776675" lon="-6.3178253173828125">
        <ele>643.8</ele>
        <time>2017-08-04T06:37:00.000Z</time>
      </trkpt>
      <trkpt lat="43.40341164730489" lon="-6.317909890785813">
        <ele>644.2</ele>
        <time>2017-08-04T06:37:08.000Z</time>
      </trkpt>
      <trkpt lat="43.40336848050356" lon="-6.317968983203173">
        <ele>644.4</ele>
        <time>2017-08-04T06:37:14.000Z</time>
      </trkpt>
      <trkpt lat="43.40329002588987" lon="-6.3180615194141865">
        <ele>644.4</ele>
        <time>2017-08-04T06:37:23.000Z</time>
      </trkpt>
      <trkpt lat="43.403220707550645" lon="-6.318137878552079">
        <ele>643.8</ele>
        <time>2017-08-04T06:37:30.000Z</time>
      </trkpt>
      <trkpt lat="43.40312959626317" lon="-6.318242065608501">
        <ele>642.8</ele>
        <time>2017-08-04T06:37:40.000Z</time>
      </trkpt>
      <trkpt lat="43.40303756296635" lon="-6.318340888246894">
        <ele>642.6</ele>
        <time>2017-08-04T06:37:50.000Z</time>
      </trkpt>
      <trkpt lat="43.40297335758805" lon="-6.318420013412833">
        <ele>642.2</ele>
        <time>2017-08-04T06:37:57.000Z</time>
      </trkpt>
      <trkpt lat="43.40288953855634" lon="-6.31851414218545">
        <ele>641.8</ele>
        <time>2017-08-04T06:38:06.000Z</time>
      </trkpt>
      <trkpt lat="43.40280915610492" lon="-6.318602906540036">
        <ele>641.6</ele>
        <time>2017-08-04T06:38:14.000Z</time>
      </trkpt>
      <trkpt lat="43.402723828330636" lon="-6.318694436922669">
        <ele>641.6</ele>
        <time>2017-08-04T06:38:23.000Z</time>
      </trkpt>
      <trkpt lat="43.40261553414166" lon="-6.318808766081929">
        <ele>641.6</ele>
        <time>2017-08-04T06:38:34.000Z</time>
      </trkpt>
      <trkpt lat="43.402503384277225" lon="-6.318916976451874">
        <ele>641.4</ele>
        <time>2017-08-04T06:38:45.000Z</time>
      </trkpt>
      <trkpt lat="43.402386205270886" lon="-6.318984953686595">
        <ele>641</ele>
        <time>2017-08-04T06:38:55.000Z</time>
      </trkpt>
      <trkpt lat="43.40227640233934" lon="-6.319006327539682">
        <ele>640.6</ele>
        <time>2017-08-04T06:39:04.000Z</time>
      </trkpt>
      <trkpt lat="43.4021766576916" lon="-6.319016553461552">
        <ele>640.2</ele>
        <time>2017-08-04T06:39:12.000Z</time>
      </trkpt>
      <trkpt lat="43.40206869877875" lon="-6.31900473497808">
        <ele>639.4</ele>
        <time>2017-08-04T06:39:21.000Z</time>
      </trkpt>
      <trkpt lat="43.40195965021849" lon="-6.319015463814139">
        <ele>638.8</ele>
        <time>2017-08-04T06:39:30.000Z</time>
      </trkpt>
      <trkpt lat="43.401862755417824" lon="-6.319030299782753">
        <ele>638.6</ele>
        <time>2017-08-04T06:39:38.000Z</time>
      </trkpt>
      <trkpt lat="43.40176493860781" lon="-6.319054523482919">
        <ele>638.4</ele>
        <time>2017-08-04T06:39:46.000Z</time>
      </trkpt>
      <trkpt lat="43.40165329165757" lon="-6.319073885679245">
        <ele>638.4</ele>
        <time>2017-08-04T06:39:55.000Z</time>
      </trkpt>
      <trkpt lat="43.40162915177643" lon="-6.319079082459211">
        <ele>638.2</ele>
        <time>2017-08-04T06:39:57.000Z</time>
      </trkpt>
      <trkpt lat="43.40152337215841" lon="-6.319125015288591">
        <ele>638</ele>
        <time>2017-08-04T06:40:06.000Z</time>
      </trkpt>
      <trkpt lat="43.401458244770765" lon="-6.319231716915965">
        <ele>636.8</ele>
        <time>2017-08-04T06:40:15.000Z</time>
      </trkpt>
      <trkpt lat="43.401452880352736" lon="-6.3193276058882475">
        <ele>635.8</ele>
        <time>2017-08-04T06:40:22.000Z</time>
      </trkpt>
      <trkpt lat="43.401440139859915" lon="-6.319345207884908">
        <ele>635.6</ele>
        <time>2017-08-04T06:40:25.000Z</time>
      </trkpt>
      <trkpt lat="43.401441145688295" lon="-6.319359624758363">
        <ele>635.4</ele>
        <time>2017-08-04T06:40:26.000Z</time>
      </trkpt>
      <trkpt lat="43.40143879875541" lon="-6.319421734660864">
        <ele>635</ele>
        <time>2017-08-04T06:40:29.000Z</time>
      </trkpt>
      <trkpt lat="43.401442570611835" lon="-6.319473953917623">
        <ele>634.8</ele>
        <time>2017-08-04T06:40:31.000Z</time>
      </trkpt>
      <trkpt lat="43.401437709107995" lon="-6.3194984290748835">
        <ele>634.6</ele>
        <time>2017-08-04T06:40:32.000Z</time>
      </trkpt>
      <trkpt lat="43.401414323598146" lon="-6.31959306076169">
        <ele>634.2</ele>
        <time>2017-08-04T06:40:36.000Z</time>
      </trkpt>
      <trkpt lat="43.401418598368764" lon="-6.319678137078881">
        <ele>633.8</ele>
        <time>2017-08-04T06:40:42.000Z</time>
      </trkpt>
      <trkpt lat="43.40142563916743" lon="-6.319711077958345">
        <ele>633.6</ele>
        <time>2017-08-04T06:40:44.000Z</time>
      </trkpt>
      <trkpt lat="43.4014237113297" lon="-6.319726752117276">
        <ele>633.6</ele>
        <time>2017-08-04T06:40:45.000Z</time>
      </trkpt>
      <trkpt lat="43.401433350518346" lon="-6.319757848978043">
        <ele>633.4</ele>
        <time>2017-08-04T06:40:47.000Z</time>
      </trkpt>
      <trkpt lat="43.40142413042486" lon="-6.319818114861846">
        <ele>633.2</ele>
        <time>2017-08-04T06:40:51.000Z</time>
      </trkpt>
      <trkpt lat="43.40142195113003" lon="-6.319832531735301">
        <ele>633.2</ele>
        <time>2017-08-04T06:40:52.000Z</time>
      </trkpt>
      <trkpt lat="43.40139898471534" lon="-6.319952979683876">
        <ele>632.8</ele>
        <time>2017-08-04T06:41:00.000Z</time>
      </trkpt>
      <trkpt lat="43.40136227197945" lon="-6.320089856162667">
        <ele>633</ele>
        <time>2017-08-04T06:41:09.000Z</time>
      </trkpt>
      <trkpt lat="43.40129907242954" lon="-6.320178620517254">
        <ele>633</ele>
        <time>2017-08-04T06:41:17.000Z</time>
      </trkpt>
      <trkpt lat="43.40121164917946" lon="-6.320205358788371">
        <ele>633</ele>
        <time>2017-08-04T06:41:25.000Z</time>
      </trkpt>
      <trkpt lat="43.401100086048245" lon="-6.320254392921925">
        <ele>633</ele>
        <time>2017-08-04T06:41:35.000Z</time>
      </trkpt>
      <trkpt lat="43.40101635083556" lon="-6.320303259417415">
        <ele>632.4</ele>
        <time>2017-08-04T06:41:43.000Z</time>
      </trkpt>
      <trkpt lat="43.40099623426795" lon="-6.3203121442347765">
        <ele>632.4</ele>
        <time>2017-08-04T06:41:45.000Z</time>
      </trkpt>
      <trkpt lat="43.40094108134508" lon="-6.3203424867242575">
        <ele>632</ele>
        <time>2017-08-04T06:41:50.000Z</time>
      </trkpt>
      <trkpt lat="43.40085105970502" lon="-6.320383222773671">
        <ele>631.6</ele>
        <time>2017-08-04T06:41:58.000Z</time>
      </trkpt>
      <trkpt lat="43.40077059343457" lon="-6.320427227765322">
        <ele>631.2</ele>
        <time>2017-08-04T06:42:06.000Z</time>
      </trkpt>
      <trkpt lat="43.40068442746997" lon="-6.320474501699209">
        <ele>631.2</ele>
        <time>2017-08-04T06:42:14.000Z</time>
      </trkpt>
      <trkpt lat="43.40059700421989" lon="-6.320520183071494">
        <ele>631</ele>
        <time>2017-08-04T06:42:22.000Z</time>
      </trkpt>
      <trkpt lat="43.400495164096355" lon="-6.320573827251792">
        <ele>630.8</ele>
        <time>2017-08-04T06:42:31.000Z</time>
      </trkpt>
      <trkpt lat="43.40039977803826" lon="-6.320642055943608">
        <ele>630.6</ele>
        <time>2017-08-04T06:42:40.000Z</time>
      </trkpt>
      <trkpt lat="43.40030958876014" lon="-6.320718750357628">
        <ele>630.2</ele>
        <time>2017-08-04T06:42:49.000Z</time>
      </trkpt>
      <trkpt lat="43.40022769756615" lon="-6.320814555510879">
        <ele>630</ele>
        <time>2017-08-04T06:42:58.000Z</time>
      </trkpt>
      <trkpt lat="43.40016055852175" lon="-6.320928381755948">
        <ele>629.6</ele>
        <time>2017-08-04T06:43:07.000Z</time>
      </trkpt>
      <trkpt lat="43.40008461847901" lon="-6.321023600175977">
        <ele>629.4</ele>
        <time>2017-08-04T06:43:16.000Z</time>
      </trkpt>
      <trkpt lat="43.399986466392875" lon="-6.321122087538242">
        <ele>629.4</ele>
        <time>2017-08-04T06:43:26.000Z</time>
      </trkpt>
      <trkpt lat="43.39989686384797" lon="-6.321172546595335">
        <ele>629.6</ele>
        <time>2017-08-04T06:43:34.000Z</time>
      </trkpt>
      <trkpt lat="43.39983081445098" lon="-6.32120406255126">
        <ele>629.6</ele>
        <time>2017-08-04T06:43:40.000Z</time>
      </trkpt>
      <trkpt lat="43.3997381106019" lon="-6.321240104734898">
        <ele>629.4</ele>
        <time>2017-08-04T06:43:48.000Z</time>
      </trkpt>
      <trkpt lat="43.39964842423797" lon="-6.321287043392658">
        <ele>629.2</ele>
        <time>2017-08-04T06:43:56.000Z</time>
      </trkpt>
      <trkpt lat="43.399572065100074" lon="-6.321341525763273">
        <ele>629.2</ele>
        <time>2017-08-04T06:44:03.000Z</time>
      </trkpt>
      <trkpt lat="43.39947282336652" lon="-6.321406150236726">
        <ele>629.2</ele>
        <time>2017-08-04T06:44:12.000Z</time>
      </trkpt>
      <trkpt lat="43.39941448532045" lon="-6.321489047259092">
        <ele>629.6</ele>
        <time>2017-08-04T06:44:19.000Z</time>
      </trkpt>
      <trkpt lat="43.39939487166703" lon="-6.321581080555916">
        <ele>630.6</ele>
        <time>2017-08-04T06:44:25.000Z</time>
      </trkpt>
      <trkpt lat="43.39938472956419" lon="-6.321704126894474">
        <ele>631.2</ele>
        <time>2017-08-04T06:44:33.000Z</time>
      </trkpt>
      <trkpt lat="43.39939730241895" lon="-6.3217829167842865">
        <ele>631.6</ele>
        <time>2017-08-04T06:44:38.000Z</time>
      </trkpt>
      <trkpt lat="43.39940727688372" lon="-6.321806302294135">
        <ele>631.6</ele>
        <time>2017-08-04T06:44:40.000Z</time>
      </trkpt>
      <trkpt lat="43.39946494437754" lon="-6.321888444945216">
        <ele>632.2</ele>
        <time>2017-08-04T06:44:47.000Z</time>
      </trkpt>
      <trkpt lat="43.39952881447971" lon="-6.321956003084779">
        <ele>632.8</ele>
        <time>2017-08-04T06:44:55.000Z</time>
      </trkpt>
      <trkpt lat="43.39955136179924" lon="-6.321978969499469">
        <ele>633</ele>
        <time>2017-08-04T06:45:00.000Z</time>
      </trkpt>
      <trkpt lat="43.39961531572044" lon="-6.322041749954224">
        <ele>633.6</ele>
        <time>2017-08-04T06:45:07.000Z</time>
      </trkpt>
      <trkpt lat="43.39967063628137" lon="-6.322107128798962">
        <ele>633.8</ele>
        <time>2017-08-04T06:45:14.000Z</time>
      </trkpt>
      <trkpt lat="43.39968228712678" lon="-6.322114337235689">
        <ele>633.8</ele>
        <time>2017-08-04T06:45:15.000Z</time>
      </trkpt>
      <trkpt lat="43.39972922578454" lon="-6.322158593684435">
        <ele>634</ele>
        <time>2017-08-04T06:45:20.000Z</time>
      </trkpt>
      <trkpt lat="43.39979762211442" lon="-6.322224056348205">
        <ele>634.2</ele>
        <time>2017-08-04T06:45:28.000Z</time>
      </trkpt>
      <trkpt lat="43.39987481944263" lon="-6.3223218731582165">
        <ele>634.6</ele>
        <time>2017-08-04T06:45:37.000Z</time>
      </trkpt>
      <trkpt lat="43.39993047527969" lon="-6.322412062436342">
        <ele>634.8</ele>
        <time>2017-08-04T06:45:44.000Z</time>
      </trkpt>
      <trkpt lat="43.399990908801556" lon="-6.322524296119809">
        <ele>635.2</ele>
        <time>2017-08-04T06:45:52.000Z</time>
      </trkpt>
      <trkpt lat="43.400036338716745" lon="-6.322636529803276">
        <ele>635.4</ele>
        <time>2017-08-04T06:45:59.000Z</time>
      </trkpt>
      <trkpt lat="43.40007816441357" lon="-6.3227421417832375">
        <ele>635.6</ele>
        <time>2017-08-04T06:46:06.000Z</time>
      </trkpt>
      <trkpt lat="43.400131557136774" lon="-6.322892848402262">
        <ele>636</ele>
        <time>2017-08-04T06:46:16.000Z</time>
      </trkpt>
      <trkpt lat="43.400143291801214" lon="-6.322923107072711">
        <ele>636</ele>
        <time>2017-08-04T06:46:22.000Z</time>
      </trkpt>
      <trkpt lat="43.400154020637274" lon="-6.322970213368535">
        <ele>636.2</ele>
        <time>2017-08-04T06:46:30.000Z</time>
      </trkpt>
      <trkpt lat="43.400158546864986" lon="-6.322984546422958">
        <ele>636.2</ele>
        <time>2017-08-04T06:46:36.000Z</time>
      </trkpt>
      <trkpt lat="43.40015393681824" lon="-6.3229933474212885">
        <ele>636.2</ele>
        <time>2017-08-04T06:46:47.000Z</time>
      </trkpt>
      <trkpt lat="43.400148153305054" lon="-6.322978595271707">
        <ele>636.2</ele>
        <time>2017-08-04T06:47:31.000Z</time>
      </trkpt>
      <trkpt lat="43.40014664456248" lon="-6.322979601100087">
        <ele>636.2</ele>
        <time>2017-08-04T06:48:10.000Z</time>
      </trkpt>
      <trkpt lat="43.40015033259988" lon="-6.32297825999558">
        <ele>636.2</ele>
        <time>2017-08-04T06:48:23.000Z</time>
      </trkpt>
      <trkpt lat="43.400150667876005" lon="-6.322977589443326">
        <ele>636.2</ele>
        <time>2017-08-04T06:48:57.000Z</time>
      </trkpt>
      <trkpt lat="43.400154607370496" lon="-6.322983372956514">
        <ele>636.2</ele>
        <time>2017-08-04T06:49:08.000Z</time>
      </trkpt>
      <trkpt lat="43.40015636757016" lon="-6.322985300794244">
        <ele>636.2</ele>
        <time>2017-08-04T06:49:18.000Z</time>
      </trkpt>
      <trkpt lat="43.40015569701791" lon="-6.323004998266697">
        <ele>636.4</ele>
        <time>2017-08-04T06:49:22.000Z</time>
      </trkpt>
      <trkpt lat="43.40017732232809" lon="-6.322979601100087">
        <ele>636.2</ele>
        <time>2017-08-04T06:50:37.000Z</time>
      </trkpt>
      <trkpt lat="43.40018008835614" lon="-6.3229812774807215">
        <ele>636.2</ele>
        <time>2017-08-04T06:50:47.000Z</time>
      </trkpt>
      <trkpt lat="43.400158965960145" lon="-6.322997035458684">
        <ele>636.2</ele>
        <time>2017-08-04T06:51:06.000Z</time>
      </trkpt>
      <trkpt lat="43.40017229318619" lon="-6.323024025186896">
        <ele>636.4</ele>
        <time>2017-08-04T06:51:08.000Z</time>
      </trkpt>
      <trkpt lat="43.400179920718074" lon="-6.323072221130133">
        <ele>636.4</ele>
        <time>2017-08-04T06:51:11.000Z</time>
      </trkpt>
      <trkpt lat="43.400182938203216" lon="-6.323087057098746">
        <ele>636.6</ele>
        <time>2017-08-04T06:51:12.000Z</time>
      </trkpt>
      <trkpt lat="43.40021068230271" lon="-6.323158051818609">
        <ele>637</ele>
        <time>2017-08-04T06:51:18.000Z</time>
      </trkpt>
      <trkpt lat="43.40022166259587" lon="-6.323193171992898">
        <ele>637.4</ele>
        <time>2017-08-04T06:51:21.000Z</time>
      </trkpt>
      <trkpt lat="43.4002407733351" lon="-6.3232277892529964">
        <ele>637.6</ele>
        <time>2017-08-04T06:51:24.000Z</time>
      </trkpt>
      <trkpt lat="43.40026726014912" lon="-6.3233069982379675">
        <ele>637.8</ele>
        <time>2017-08-04T06:51:29.000Z</time>
      </trkpt>
      <trkpt lat="43.4002788271755" lon="-6.3233420345932245">
        <ele>637.8</ele>
        <time>2017-08-04T06:51:31.000Z</time>
      </trkpt>
      <trkpt lat="43.40028687380254" lon="-6.323392242193222">
        <ele>637.8</ele>
        <time>2017-08-04T06:51:34.000Z</time>
      </trkpt>
      <trkpt lat="43.400298189371824" lon="-6.323441108688712">
        <ele>637.6</ele>
        <time>2017-08-04T06:51:37.000Z</time>
      </trkpt>
      <trkpt lat="43.400321155786514" lon="-6.323565412312746">
        <ele>637.8</ele>
        <time>2017-08-04T06:51:45.000Z</time>
      </trkpt>
      <trkpt lat="43.40033574029803" lon="-6.323642190545797">
        <ele>638</ele>
        <time>2017-08-04T06:51:50.000Z</time>
      </trkpt>
      <trkpt lat="43.400381840765476" lon="-6.323770768940449">
        <ele>638.2</ele>
        <time>2017-08-04T06:51:59.000Z</time>
      </trkpt>
      <trkpt lat="43.40041142888367" lon="-6.323896665126085">
        <ele>638.4</ele>
        <time>2017-08-04T06:52:07.000Z</time>
      </trkpt>
      <trkpt lat="43.40044395066798" lon="-6.323996661230922">
        <ele>638.6</ele>
        <time>2017-08-04T06:52:14.000Z</time>
      </trkpt>
      <trkpt lat="43.400460463017225" lon="-6.324059190228581">
        <ele>638.8</ele>
        <time>2017-08-04T06:52:18.000Z</time>
      </trkpt>
      <trkpt lat="43.40047471225262" lon="-6.3241012673825026">
        <ele>639</ele>
        <time>2017-08-04T06:52:21.000Z</time>
      </trkpt>
      <trkpt lat="43.4004791546613" lon="-6.32411627098918">
        <ele>639</ele>
        <time>2017-08-04T06:52:22.000Z</time>
      </trkpt>
      <trkpt lat="43.40050186961889" lon="-6.324233869090676">
        <ele>639.4</ele>
        <time>2017-08-04T06:52:30.000Z</time>
      </trkpt>
      <trkpt lat="43.40050270780921" lon="-6.324359597638249">
        <ele>639.8</ele>
        <time>2017-08-04T06:52:38.000Z</time>
      </trkpt>
      <trkpt lat="43.40048812329769" lon="-6.324487337842584">
        <ele>640.6</ele>
        <time>2017-08-04T06:52:46.000Z</time>
      </trkpt>
      <trkpt lat="43.40047831647098" lon="-6.324612312018871">
        <ele>641.6</ele>
        <time>2017-08-04T06:52:54.000Z</time>
      </trkpt>
      <trkpt lat="43.40046121738851" lon="-6.32476176135242">
        <ele>642.4</ele>
        <time>2017-08-04T06:53:03.000Z</time>
      </trkpt>
      <trkpt lat="43.4004495665431" lon="-6.324885645881295">
        <ele>643.2</ele>
        <time>2017-08-04T06:53:11.000Z</time>
      </trkpt>
      <trkpt lat="43.400426683947444" lon="-6.324996957555413">
        <ele>643.8</ele>
        <time>2017-08-04T06:53:18.000Z</time>
      </trkpt>
      <trkpt lat="43.40038787573576" lon="-6.325121009722352">
        <ele>644.2</ele>
        <time>2017-08-04T06:53:26.000Z</time>
      </trkpt>
      <trkpt lat="43.40035275556147" lon="-6.325232740491629">
        <ele>644.4</ele>
        <time>2017-08-04T06:53:33.000Z</time>
      </trkpt>
      <trkpt lat="43.400307996198535" lon="-6.325383447110653">
        <ele>645.4</ele>
        <time>2017-08-04T06:53:43.000Z</time>
      </trkpt>
      <trkpt lat="43.40027337893844" lon="-6.325507583096623">
        <ele>646.2</ele>
        <time>2017-08-04T06:53:51.000Z</time>
      </trkpt>
      <trkpt lat="43.400241611525416" lon="-6.325646638870239">
        <ele>647</ele>
        <time>2017-08-04T06:54:00.000Z</time>
      </trkpt>
      <trkpt lat="43.400214118883014" lon="-6.325747221708298">
        <ele>647.4</ele>
        <time>2017-08-04T06:54:07.000Z</time>
      </trkpt>
      <trkpt lat="43.40017103590071" lon="-6.32592961192131">
        <ele>648.2</ele>
        <time>2017-08-04T06:54:18.000Z</time>
      </trkpt>
      <trkpt lat="43.400144297629595" lon="-6.326034385710955">
        <ele>648.6</ele>
        <time>2017-08-04T06:54:25.000Z</time>
      </trkpt>
      <trkpt lat="43.400135999545455" lon="-6.3260633032768965">
        <ele>648.8</ele>
        <time>2017-08-04T06:54:27.000Z</time>
      </trkpt>
      <trkpt lat="43.400115547701716" lon="-6.326136477291584">
        <ele>648.8</ele>
        <time>2017-08-04T06:54:32.000Z</time>
      </trkpt>
      <trkpt lat="43.40009182691574" lon="-6.326184589415789">
        <ele>648.8</ele>
        <time>2017-08-04T06:54:36.000Z</time>
      </trkpt>
      <trkpt lat="43.40006249025464" lon="-6.32621543481946">
        <ele>648.6</ele>
        <time>2017-08-04T06:54:39.000Z</time>
      </trkpt>
      <trkpt lat="43.39999401010573" lon="-6.326297074556351">
        <ele>648</ele>
        <time>2017-08-04T06:54:46.000Z</time>
      </trkpt>
      <trkpt lat="43.3999196626246" lon="-6.326439315453172">
        <ele>648</ele>
        <time>2017-08-04T06:54:56.000Z</time>
      </trkpt>
      <trkpt lat="43.39988512918353" lon="-6.326537970453501">
        <ele>648</ele>
        <time>2017-08-04T06:55:03.000Z</time>
      </trkpt>
      <trkpt lat="43.39986543171108" lon="-6.326596140861511">
        <ele>648.2</ele>
        <time>2017-08-04T06:55:07.000Z</time>
      </trkpt>
      <trkpt lat="43.399857301265" lon="-6.3266234658658504">
        <ele>648.2</ele>
        <time>2017-08-04T06:55:09.000Z</time>
      </trkpt>
      <trkpt lat="43.39982352219522" lon="-6.326747015118599">
        <ele>648.8</ele>
        <time>2017-08-04T06:55:17.000Z</time>
      </trkpt>
      <trkpt lat="43.39978890493512" lon="-6.326870815828443">
        <ele>649.4</ele>
        <time>2017-08-04T06:55:24.000Z</time>
      </trkpt>
      <trkpt lat="43.39975034818053" lon="-6.327005764469504">
        <ele>650.6</ele>
        <time>2017-08-04T06:55:32.000Z</time>
      </trkpt>
      <trkpt lat="43.39970592409372" lon="-6.327130571007729">
        <ele>651.6</ele>
        <time>2017-08-04T06:55:40.000Z</time>
      </trkpt>
      <trkpt lat="43.39963409118354" lon="-6.3272899109870195">
        <ele>652.4</ele>
        <time>2017-08-04T06:55:50.000Z</time>
      </trkpt>
      <trkpt lat="43.39957541786134" lon="-6.327397953718901">
        <ele>652.8</ele>
        <time>2017-08-04T06:55:58.000Z</time>
      </trkpt>
      <trkpt lat="43.39951976202428" lon="-6.32749174721539">
        <ele>652.8</ele>
        <time>2017-08-04T06:56:05.000Z</time>
      </trkpt>
      <trkpt lat="43.39948673732579" lon="-6.32756064645946">
        <ele>652.8</ele>
        <time>2017-08-04T06:56:10.000Z</time>
      </trkpt>
      <trkpt lat="43.39947500266135" lon="-6.3275885581970215">
        <ele>653</ele>
        <time>2017-08-04T06:56:12.000Z</time>
      </trkpt>
      <trkpt lat="43.39942378923297" lon="-6.327695259824395">
        <ele>653</ele>
        <time>2017-08-04T06:56:19.000Z</time>
      </trkpt>
      <trkpt lat="43.399417167529464" lon="-6.327708838507533">
        <ele>653</ele>
        <time>2017-08-04T06:56:20.000Z</time>
      </trkpt>
      <trkpt lat="43.39935924857855" lon="-6.327841188758612">
        <ele>653.4</ele>
        <time>2017-08-04T06:56:29.000Z</time>
      </trkpt>
      <trkpt lat="43.399332761764526" lon="-6.327951913699508">
        <ele>654</ele>
        <time>2017-08-04T06:56:36.000Z</time>
      </trkpt>
      <trkpt lat="43.399292696267366" lon="-6.328076049685478">
        <ele>654.4</ele>
        <time>2017-08-04T06:56:44.000Z</time>
      </trkpt>
      <trkpt lat="43.39927953667939" lon="-6.328173028305173">
        <ele>654.6</ele>
        <time>2017-08-04T06:56:50.000Z</time>
      </trkpt>
      <trkpt lat="43.39927023276687" lon="-6.328290123492479">
        <ele>655</ele>
        <time>2017-08-04T06:56:57.000Z</time>
      </trkpt>
      <trkpt lat="43.39926981367171" lon="-6.328322561457753">
        <ele>655</ele>
        <time>2017-08-04T06:56:59.000Z</time>
      </trkpt>
      <trkpt lat="43.39927123859525" lon="-6.3284252397716045">
        <ele>655.4</ele>
        <time>2017-08-04T06:57:05.000Z</time>
      </trkpt>
      <trkpt lat="43.39928322471678" lon="-6.32854132913053">
        <ele>656.4</ele>
        <time>2017-08-04T06:57:11.000Z</time>
      </trkpt>
      <trkpt lat="43.39928121306002" lon="-6.32864979095757">
        <ele>657.2</ele>
        <time>2017-08-04T06:57:16.000Z</time>
      </trkpt>
      <trkpt lat="43.39927853085101" lon="-6.328670410439372">
        <ele>657.2</ele>
        <time>2017-08-04T06:57:17.000Z</time>
      </trkpt>
      <trkpt lat="43.39927584864199" lon="-6.328696561977267">
        <ele>657.4</ele>
        <time>2017-08-04T06:57:19.000Z</time>
      </trkpt>
      <trkpt lat="43.39925028383732" lon="-6.328811729326844">
        <ele>658.2</ele>
        <time>2017-08-04T06:57:27.000Z</time>
      </trkpt>
      <trkpt lat="43.39920770376921" lon="-6.328926645219326">
        <ele>658.6</ele>
        <time>2017-08-04T06:57:35.000Z</time>
      </trkpt>
      <trkpt lat="43.39916252531111" lon="-6.3290198519825935">
        <ele>658.6</ele>
        <time>2017-08-04T06:57:42.000Z</time>
      </trkpt>
      <trkpt lat="43.399111898615956" lon="-6.329136276617646">
        <ele>659</ele>
        <time>2017-08-04T06:57:50.000Z</time>
      </trkpt>
      <trkpt lat="43.399091362953186" lon="-6.329264938831329">
        <ele>660.2</ele>
        <time>2017-08-04T06:57:58.000Z</time>
      </trkpt>
      <trkpt lat="43.399039981886744" lon="-6.329385135322809">
        <ele>661.2</ele>
        <time>2017-08-04T06:58:06.000Z</time>
      </trkpt>
      <trkpt lat="43.3989732619375" lon="-6.329471468925476">
        <ele>661.6</ele>
        <time>2017-08-04T06:58:13.000Z</time>
      </trkpt>
      <trkpt lat="43.398908553645015" lon="-6.329554449766874">
        <ele>662</ele>
        <time>2017-08-04T06:58:20.000Z</time>
      </trkpt>
      <trkpt lat="43.39886002242565" lon="-6.329652601853013">
        <ele>662.8</ele>
        <time>2017-08-04T06:58:27.000Z</time>
      </trkpt>
      <trkpt lat="43.39882917702198" lon="-6.329755363985896">
        <ele>663.6</ele>
        <time>2017-08-04T06:58:34.000Z</time>
      </trkpt>
      <trkpt lat="43.39878751896322" lon="-6.329854186624289">
        <ele>664.2</ele>
        <time>2017-08-04T06:58:41.000Z</time>
      </trkpt>
      <trkpt lat="43.398744435980916" lon="-6.329946471378207">
        <ele>664.6</ele>
        <time>2017-08-04T06:58:47.000Z</time>
      </trkpt>
      <trkpt lat="43.3986952342093" lon="-6.3300409354269505">
        <ele>664.8</ele>
        <time>2017-08-04T06:58:54.000Z</time>
      </trkpt>
      <trkpt lat="43.398641757667065" lon="-6.330154426395893">
        <ele>665</ele>
        <time>2017-08-04T06:59:02.000Z</time>
      </trkpt>
      <trkpt lat="43.39857855811715" lon="-6.330265570431948">
        <ele>665</ele>
        <time>2017-08-04T06:59:10.000Z</time>
      </trkpt>
      <trkpt lat="43.39849046431482" lon="-6.3304005190730095">
        <ele>664.6</ele>
        <time>2017-08-04T06:59:20.000Z</time>
      </trkpt>
      <trkpt lat="43.398410165682435" lon="-6.330525744706392">
        <ele>664.2</ele>
        <time>2017-08-04T06:59:29.000Z</time>
      </trkpt>
      <trkpt lat="43.39832441881299" lon="-6.330643845722079">
        <ele>663.6</ele>
        <time>2017-08-04T06:59:38.000Z</time>
      </trkpt>
      <trkpt lat="43.39825065806508" lon="-6.330747613683343">
        <ele>663.4</ele>
        <time>2017-08-04T06:59:46.000Z</time>
      </trkpt>
      <trkpt lat="43.39819793589413" lon="-6.3308449275791645">
        <ele>663.4</ele>
        <time>2017-08-04T06:59:53.000Z</time>
      </trkpt>
      <trkpt lat="43.39814311824739" lon="-6.330904103815556">
        <ele>663.2</ele>
        <time>2017-08-04T06:59:58.000Z</time>
      </trkpt>
      <trkpt lat="43.39812928810716" lon="-6.330926651135087">
        <ele>663.2</ele>
        <time>2017-08-04T07:00:00.000Z</time>
      </trkpt>
      <trkpt lat="43.3981079980731" lon="-6.330949869006872">
        <ele>663.2</ele>
        <time>2017-08-04T07:00:03.000Z</time>
      </trkpt>
      <trkpt lat="43.398087210953236" lon="-6.330965459346771">
        <ele>663</ele>
        <time>2017-08-04T07:00:05.000Z</time>
      </trkpt>
      <trkpt lat="43.39799760840833" lon="-6.331035867333412">
        <ele>662.8</ele>
        <time>2017-08-04T07:00:13.000Z</time>
      </trkpt>
      <trkpt lat="43.39790280908346" lon="-6.331126224249601">
        <ele>663.2</ele>
        <time>2017-08-04T07:00:22.000Z</time>
      </trkpt>
      <trkpt lat="43.39779468253255" lon="-6.3312428165227175">
        <ele>664</ele>
        <time>2017-08-04T07:00:33.000Z</time>
      </trkpt>
      <trkpt lat="43.39769762009382" lon="-6.331360498443246">
        <ele>664.8</ele>
        <time>2017-08-04T07:00:43.000Z</time>
      </trkpt>
      <trkpt lat="43.39759879745543" lon="-6.3314899150282145">
        <ele>665</ele>
        <time>2017-08-04T07:00:54.000Z</time>
      </trkpt>
      <trkpt lat="43.397520426660776" lon="-6.331580691039562">
        <ele>665.2</ele>
        <time>2017-08-04T07:01:03.000Z</time>
      </trkpt>
      <trkpt lat="43.397463681176305" lon="-6.331621175631881">
        <ele>665</ele>
        <time>2017-08-04T07:01:10.000Z</time>
      </trkpt>
      <trkpt lat="43.39745764620602" lon="-6.331625785678625">
        <ele>664.8</ele>
        <time>2017-08-04T07:01:11.000Z</time>
      </trkpt>
      <trkpt lat="43.39745622128248" lon="-6.331626204773784">
        <ele>664.8</ele>
        <time>2017-08-04T07:01:17.000Z</time>
      </trkpt>
      <trkpt lat="43.39742328040302" lon="-6.331626707687974">
        <ele>664.6</ele>
        <time>2017-08-04T07:01:23.000Z</time>
      </trkpt>
      <trkpt lat="43.39735882356763" lon="-6.331601981073618">
        <ele>663.6</ele>
        <time>2017-08-04T07:01:30.000Z</time>
      </trkpt>
      <trkpt lat="43.39727718383074" lon="-6.3315800204873085">
        <ele>662.6</ele>
        <time>2017-08-04T07:01:37.000Z</time>
      </trkpt>
      <trkpt lat="43.39718741364777" lon="-6.3315432239323854">
        <ele>661.6</ele>
        <time>2017-08-04T07:01:46.000Z</time>
      </trkpt>
      <trkpt lat="43.397116670385" lon="-6.331515060737729">
        <ele>661</ele>
        <time>2017-08-04T07:01:53.000Z</time>
      </trkpt>
      <trkpt lat="43.397034695371985" lon="-6.331452699378133">
        <ele>660</ele>
        <time>2017-08-04T07:02:01.000Z</time>
      </trkpt>
      <trkpt lat="43.39697887189686" lon="-6.3314423058182">
        <ele>659.4</ele>
        <time>2017-08-04T07:02:06.000Z</time>
      </trkpt>
      <trkpt lat="43.39690754190087" lon="-6.331413052976131">
        <ele>658.4</ele>
        <time>2017-08-04T07:02:13.000Z</time>
      </trkpt>
      <trkpt lat="43.396883150562644" lon="-6.331386398524046">
        <ele>658</ele>
        <time>2017-08-04T07:02:20.000Z</time>
      </trkpt>
      <trkpt lat="43.39687862433493" lon="-6.331357229501009">
        <ele>657.8</ele>
        <time>2017-08-04T07:02:30.000Z</time>
      </trkpt>
      <trkpt lat="43.39688826352358" lon="-6.331364354118705">
        <ele>657.8</ele>
        <time>2017-08-04T07:02:43.000Z</time>
      </trkpt>
      <trkpt lat="43.39688591659069" lon="-6.331395786255598">
        <ele>658</ele>
        <time>2017-08-04T07:03:02.000Z</time>
      </trkpt>
      <trkpt lat="43.396868482232094" lon="-6.331428475677967">
        <ele>658.2</ele>
        <time>2017-08-04T07:03:10.000Z</time>
      </trkpt>
      <trkpt lat="43.39685398153961" lon="-6.331474827602506">
        <ele>658.2</ele>
        <time>2017-08-04T07:03:16.000Z</time>
      </trkpt>
      <trkpt lat="43.39683570899069" lon="-6.33151120506227">
        <ele>658.4</ele>
        <time>2017-08-04T07:03:20.000Z</time>
      </trkpt>
      <trkpt lat="43.39681701734662" lon="-6.33153660222888">
        <ele>658.4</ele>
        <time>2017-08-04T07:03:23.000Z</time>
      </trkpt>
      <trkpt lat="43.39680905453861" lon="-6.331569962203503">
        <ele>658.4</ele>
        <time>2017-08-04T07:03:26.000Z</time>
      </trkpt>
      <trkpt lat="43.39678818359971" lon="-6.331605669111013">
        <ele>658.6</ele>
        <time>2017-08-04T07:03:31.000Z</time>
      </trkpt>
      <trkpt lat="43.396745435893536" lon="-6.331673646345735">
        <ele>658.6</ele>
        <time>2017-08-04T07:03:37.000Z</time>
      </trkpt>
      <trkpt lat="43.396739484742284" lon="-6.331673813983798">
        <ele>658.4</ele>
        <time>2017-08-04T07:03:38.000Z</time>
      </trkpt>
      <trkpt lat="43.39672892354429" lon="-6.331685548648238">
        <ele>658.4</ele>
        <time>2017-08-04T07:03:40.000Z</time>
      </trkpt>
      <trkpt lat="43.3967197034508" lon="-6.331700552254915">
        <ele>658.4</ele>
        <time>2017-08-04T07:03:41.000Z</time>
      </trkpt>
      <trkpt lat="43.396696988493204" lon="-6.331739695742726">
        <ele>658.4</ele>
        <time>2017-08-04T07:03:44.000Z</time>
      </trkpt>
      <trkpt lat="43.39667963795364" lon="-6.331785963848233">
        <ele>658.6</ele>
        <time>2017-08-04T07:03:47.000Z</time>
      </trkpt>
      <trkpt lat="43.39666991494596" lon="-6.331827873364091">
        <ele>658.8</ele>
        <time>2017-08-04T07:03:50.000Z</time>
      </trkpt>
      <trkpt lat="43.39665818028152" lon="-6.331860478967428">
        <ele>659</ele>
        <time>2017-08-04T07:03:52.000Z</time>
      </trkpt>
      <trkpt lat="43.39664317667484" lon="-6.331890821456909">
        <ele>659</ele>
        <time>2017-08-04T07:03:54.000Z</time>
      </trkpt>
      <trkpt lat="43.39661224745214" lon="-6.331979585811496">
        <ele>659.4</ele>
        <time>2017-08-04T07:04:00.000Z</time>
      </trkpt>
      <trkpt lat="43.396599339321256" lon="-6.331993835046887">
        <ele>659.2</ele>
        <time>2017-08-04T07:04:01.000Z</time>
      </trkpt>
      <trkpt lat="43.39658785611391" lon="-6.332036750391126">
        <ele>659.4</ele>
        <time>2017-08-04T07:04:04.000Z</time>
      </trkpt>
      <trkpt lat="43.396571930497885" lon="-6.332056615501642">
        <ele>659.4</ele>
        <time>2017-08-04T07:04:06.000Z</time>
      </trkpt>
      <trkpt lat="43.396545108407736" lon="-6.332117719575763">
        <ele>659.6</ele>
        <time>2017-08-04T07:04:10.000Z</time>
      </trkpt>
      <trkpt lat="43.396525075659156" lon="-6.332150157541037">
        <ele>659.6</ele>
        <time>2017-08-04T07:04:13.000Z</time>
      </trkpt>
      <trkpt lat="43.39650655165315" lon="-6.332194413989782">
        <ele>659.6</ele>
        <time>2017-08-04T07:04:16.000Z</time>
      </trkpt>
      <trkpt lat="43.39645139873028" lon="-6.332331374287605">
        <ele>659.6</ele>
        <time>2017-08-04T07:04:24.000Z</time>
      </trkpt>
      <trkpt lat="43.39641242288053" lon="-6.332430113106966">
        <ele>659.6</ele>
        <time>2017-08-04T07:04:30.000Z</time>
      </trkpt>
      <trkpt lat="43.39637671597302" lon="-6.332539580762386">
        <ele>659.6</ele>
        <time>2017-08-04T07:04:37.000Z</time>
      </trkpt>
      <trkpt lat="43.396325670182705" lon="-6.332630272954702">
        <ele>659.4</ele>
        <time>2017-08-04T07:04:44.000Z</time>
      </trkpt>
      <trkpt lat="43.39629616588354" lon="-6.3326814863830805">
        <ele>659.4</ele>
        <time>2017-08-04T07:04:48.000Z</time>
      </trkpt>
      <trkpt lat="43.396285185590386" lon="-6.3327147625386715">
        <ele>659.4</ele>
        <time>2017-08-04T07:04:50.000Z</time>
      </trkpt>
      <trkpt lat="43.39624126441777" lon="-6.332831187173724">
        <ele>659.6</ele>
        <time>2017-08-04T07:04:58.000Z</time>
      </trkpt>
      <trkpt lat="43.396230870857835" lon="-6.332888267934322">
        <ele>659.6</ele>
        <time>2017-08-04T07:05:02.000Z</time>
      </trkpt>
      <trkpt lat="43.396230870857835" lon="-6.332905367016792">
        <ele>659.6</ele>
        <time>2017-08-04T07:05:03.000Z</time>
      </trkpt>
      <trkpt lat="43.396195163950324" lon="-6.333018187433481">
        <ele>659.8</ele>
        <time>2017-08-04T07:05:10.000Z</time>
      </trkpt>
      <trkpt lat="43.39614654891193" lon="-6.333086667582393">
        <ele>659.8</ele>
        <time>2017-08-04T07:05:15.000Z</time>
      </trkpt>
      <trkpt lat="43.396090641617775" lon="-6.333208624273539">
        <ele>659.8</ele>
        <time>2017-08-04T07:05:23.000Z</time>
      </trkpt>
      <trkpt lat="43.39603808708489" lon="-6.333320941776037">
        <ele>660</ele>
        <time>2017-08-04T07:05:30.000Z</time>
      </trkpt>
      <trkpt lat="43.39602115564048" lon="-6.333413142710924">
        <ele>660.4</ele>
        <time>2017-08-04T07:05:35.000Z</time>
      </trkpt>
      <trkpt lat="43.396023167297244" lon="-6.333428984507918">
        <ele>660.6</ele>
        <time>2017-08-04T07:05:36.000Z</time>
      </trkpt>
      <trkpt lat="43.39602551423013" lon="-6.333516826853156">
        <ele>660.8</ele>
        <time>2017-08-04T07:05:41.000Z</time>
      </trkpt>
      <trkpt lat="43.39602501131594" lon="-6.333528058603406">
        <ele>660.8</ele>
        <time>2017-08-04T07:05:42.000Z</time>
      </trkpt>
      <trkpt lat="43.39601998217404" lon="-6.333595532923937">
        <ele>661.2</ele>
        <time>2017-08-04T07:05:48.000Z</time>
      </trkpt>
      <trkpt lat="43.39600523002446" lon="-6.333624282851815">
        <ele>661.2</ele>
        <time>2017-08-04T07:05:52.000Z</time>
      </trkpt>
      <trkpt lat="43.39600279927254" lon="-6.3336086086928844">
        <ele>661.2</ele>
        <time>2017-08-04T07:05:55.000Z</time>
      </trkpt>
      <trkpt lat="43.39599274098873" lon="-6.333624701946974">
        <ele>661.2</ele>
        <time>2017-08-04T07:06:01.000Z</time>
      </trkpt>
      <trkpt lat="43.39596935547888" lon="-6.333623947575688">
        <ele>661.2</ele>
        <time>2017-08-04T07:06:08.000Z</time>
      </trkpt>
      <trkpt lat="43.39594488032162" lon="-6.333620427176356">
        <ele>661.2</ele>
        <time>2017-08-04T07:06:15.000Z</time>
      </trkpt>
      <trkpt lat="43.3959305472672" lon="-6.333627048879862">
        <ele>661.2</ele>
        <time>2017-08-04T07:06:23.000Z</time>
      </trkpt>
      <trkpt lat="43.395954351872206" lon="-6.333637190982699">
        <ele>661.2</ele>
        <time>2017-08-04T07:06:33.000Z</time>
      </trkpt>
      <trkpt lat="43.39596985839307" lon="-6.3336483389139175">
        <ele>661.4</ele>
        <time>2017-08-04T07:06:35.000Z</time>
      </trkpt>
      <trkpt lat="43.39598469436169" lon="-6.3336483389139175">
        <ele>661.4</ele>
        <time>2017-08-04T07:06:36.000Z</time>
      </trkpt>
      <trkpt lat="43.39601654559374" lon="-6.333628389984369">
        <ele>661.2</ele>
        <time>2017-08-04T07:06:40.000Z</time>
      </trkpt>
      <trkpt lat="43.396018305793405" lon="-6.333642555400729">
        <ele>661.4</ele>
        <time>2017-08-04T07:06:41.000Z</time>
      </trkpt>
      <trkpt lat="43.39602006599307" lon="-6.333680273965001">
        <ele>661.6</ele>
        <time>2017-08-04T07:06:43.000Z</time>
      </trkpt>
      <trkpt lat="43.39601369574666" lon="-6.333706257864833">
        <ele>661.8</ele>
        <time>2017-08-04T07:06:46.000Z</time>
      </trkpt>
      <trkpt lat="43.39599324390292" lon="-6.333686308935285">
        <ele>661.6</ele>
        <time>2017-08-04T07:06:48.000Z</time>
      </trkpt>
      <trkpt lat="43.39592769742012" lon="-6.333662336692214">
        <ele>661.4</ele>
        <time>2017-08-04T07:06:52.000Z</time>
      </trkpt>
      <trkpt lat="43.39582795277238" lon="-6.333701312541962">
        <ele>661.4</ele>
        <time>2017-08-04T07:10:24.000Z</time>
      </trkpt>
      <trkpt lat="43.39588461443782" lon="-6.333667365834117">
        <ele>661.4</ele>
        <time>2017-08-04T07:10:25.000Z</time>
      </trkpt>
      <trkpt lat="43.39588142931461" lon="-6.333600142970681">
        <ele>661.2</ele>
        <time>2017-08-04T07:10:27.000Z</time>
      </trkpt>
      <trkpt lat="43.395873717963696" lon="-6.333538368344307">
        <ele>661</ele>
        <time>2017-08-04T07:10:29.000Z</time>
      </trkpt>
      <trkpt lat="43.39582904241979" lon="-6.333409622311592">
        <ele>660</ele>
        <time>2017-08-04T07:10:33.000Z</time>
      </trkpt>
      <trkpt lat="43.39584169909358" lon="-6.333435103297234">
        <ele>660.2</ele>
        <time>2017-08-04T07:10:35.000Z</time>
      </trkpt>
      <trkpt lat="43.39599114842713" lon="-6.333871548995376">
        <ele>662.8</ele>
        <time>2017-08-04T07:13:17.000Z</time>
      </trkpt>
      <trkpt lat="43.39600254781544" lon="-6.333851348608732">
        <ele>662.8</ele>
        <time>2017-08-04T07:13:21.000Z</time>
      </trkpt>
      <trkpt lat="43.396007996052504" lon="-6.3338512647897005">
        <ele>662.8</ele>
        <time>2017-08-04T07:13:22.000Z</time>
      </trkpt>
      <trkpt lat="43.39602970518172" lon="-6.333803655579686">
        <ele>662.6</ele>
        <time>2017-08-04T07:13:29.000Z</time>
      </trkpt>
      <trkpt lat="43.39585494250059" lon="-6.333683207631111">
        <ele>661.4</ele>
        <time>2017-08-04T07:13:49.000Z</time>
      </trkpt>
      <trkpt lat="43.39584178291261" lon="-6.333680525422096">
        <ele>661.4</ele>
        <time>2017-08-04T07:13:50.000Z</time>
      </trkpt>
      <trkpt lat="43.395863408222795" lon="-6.333582624793053">
        <ele>661</ele>
        <time>2017-08-04T07:14:41.000Z</time>
      </trkpt>
      <trkpt lat="43.39585863053799" lon="-6.333525376394391">
        <ele>660.8</ele>
        <time>2017-08-04T07:15:00.000Z</time>
      </trkpt>
      <trkpt lat="43.395861899480224" lon="-6.333542643114924">
        <ele>661</ele>
        <time>2017-08-04T07:15:05.000Z</time>
      </trkpt>
      <trkpt lat="43.39585645124316" lon="-6.333503415808082">
        <ele>660.8</ele>
        <time>2017-08-04T07:15:07.000Z</time>
      </trkpt>
      <trkpt lat="43.39586039073765" lon="-6.333431247621775">
        <ele>660.2</ele>
        <time>2017-08-04T07:15:10.000Z</time>
      </trkpt>
      <trkpt lat="43.395856032148004" lon="-6.333423452451825">
        <ele>660.2</ele>
        <time>2017-08-04T07:15:11.000Z</time>
      </trkpt>
      <trkpt lat="43.395838513970375" lon="-6.333427308127284">
        <ele>660.2</ele>
        <time>2017-08-04T07:15:15.000Z</time>
      </trkpt>
      <trkpt lat="43.39594420976937" lon="-6.333659486845136">
        <ele>661.4</ele>
        <time>2017-08-04T07:17:02.000Z</time>
      </trkpt>
      <trkpt lat="43.39588897302747" lon="-6.33366116322577">
        <ele>661.4</ele>
        <time>2017-08-04T07:17:06.000Z</time>
      </trkpt>
      <trkpt lat="43.395822336897254" lon="-6.333675496280193">
        <ele>661.4</ele>
        <time>2017-08-04T07:17:09.000Z</time>
      </trkpt>
      <trkpt lat="43.395814122632146" lon="-6.333694020286202">
        <ele>661.4</ele>
        <time>2017-08-04T07:17:13.000Z</time>
      </trkpt>
      <trkpt lat="43.3958182297647" lon="-6.333705252036452">
        <ele>661.6</ele>
        <time>2017-08-04T07:17:14.000Z</time>
      </trkpt>
      <trkpt lat="43.395859552547336" lon="-6.333748167380691">
        <ele>661.6</ele>
        <time>2017-08-04T07:17:17.000Z</time>
      </trkpt>
      <trkpt lat="43.39602844789624" lon="-6.333723021671176">
        <ele>662</ele>
        <time>2017-08-04T07:18:06.000Z</time>
      </trkpt>
      <trkpt lat="43.39600489474833" lon="-6.333741964772344">
        <ele>662</ele>
        <time>2017-08-04T07:18:07.000Z</time>
      </trkpt>
      <trkpt lat="43.39603657834232" lon="-6.333637358620763">
        <ele>661.4</ele>
        <time>2017-08-04T07:18:09.000Z</time>
      </trkpt>
      <trkpt lat="43.396006571128964" lon="-6.333702066913247">
        <ele>661.8</ele>
        <time>2017-08-04T07:18:14.000Z</time>
      </trkpt>
      <trkpt lat="43.39591931551695" lon="-6.333713298663497">
        <ele>661.6</ele>
        <time>2017-08-04T07:18:22.000Z</time>
      </trkpt>
      <trkpt lat="43.3959287032485" lon="-6.333705335855484">
        <ele>661.6</ele>
        <time>2017-08-04T07:18:26.000Z</time>
      </trkpt>
      <trkpt lat="43.39593272656202" lon="-6.333679351955652">
        <ele>661.4</ele>
        <time>2017-08-04T07:18:36.000Z</time>
      </trkpt>
      <trkpt lat="43.39591562747955" lon="-6.333679435774684">
        <ele>661.4</ele>
        <time>2017-08-04T07:18:38.000Z</time>
      </trkpt>
      <trkpt lat="43.39583331719041" lon="-6.33357860147953">
        <ele>661</ele>
        <time>2017-08-04T07:18:46.000Z</time>
      </trkpt>
      <trkpt lat="43.39584136381745" lon="-6.333569549024105">
        <ele>661</ele>
        <time>2017-08-04T07:18:48.000Z</time>
      </trkpt>
      <trkpt lat="43.395837591961026" lon="-6.333601903170347">
        <ele>661.2</ele>
        <time>2017-08-04T07:20:06.000Z</time>
      </trkpt>
      <trkpt lat="43.39581227861345" lon="-6.333613134920597">
        <ele>661.2</ele>
        <time>2017-08-04T07:20:26.000Z</time>
      </trkpt>
      <trkpt lat="43.395805321633816" lon="-6.333599723875523">
        <ele>661.2</ele>
        <time>2017-08-04T07:20:27.000Z</time>
      </trkpt>
      <trkpt lat="43.39583482593298" lon="-6.333566028624773">
        <ele>661</ele>
        <time>2017-08-04T07:20:30.000Z</time>
      </trkpt>
      <trkpt lat="43.395871790125966" lon="-6.333567034453154">
        <ele>661</ele>
        <time>2017-08-04T07:20:33.000Z</time>
      </trkpt>
      <trkpt lat="43.39587883092463" lon="-6.333545995876193">
        <ele>661</ele>
        <time>2017-08-04T07:20:35.000Z</time>
      </trkpt>
      <trkpt lat="43.39586433023214" lon="-6.333481036126614">
        <ele>660.6</ele>
        <time>2017-08-04T07:20:46.000Z</time>
      </trkpt>
      <trkpt lat="43.39585938490927" lon="-6.333468044176698">
        <ele>660.6</ele>
        <time>2017-08-04T07:20:47.000Z</time>
      </trkpt>
      <trkpt lat="43.39586106128991" lon="-6.3334578182548285">
        <ele>660.4</ele>
        <time>2017-08-04T07:20:54.000Z</time>
      </trkpt>
      <trkpt lat="43.39586080983281" lon="-6.333502242341638">
        <ele>660.8</ele>
        <time>2017-08-04T07:21:00.000Z</time>
      </trkpt>
      <trkpt lat="43.39607949368656" lon="-6.333629563450813">
        <ele>661.4</ele>
        <time>2017-08-04T07:21:24.000Z</time>
      </trkpt>
      <trkpt lat="43.396056443452835" lon="-6.333573739975691">
        <ele>661</ele>
        <time>2017-08-04T07:21:27.000Z</time>
      </trkpt>
      <trkpt lat="43.39602576568723" lon="-6.333546079695225">
        <ele>661</ele>
        <time>2017-08-04T07:21:29.000Z</time>
      </trkpt>
      <trkpt lat="43.39597958140075" lon="-6.3335977122187614">
        <ele>661.2</ele>
        <time>2017-08-04T07:21:32.000Z</time>
      </trkpt>
      <trkpt lat="43.39592761360109" lon="-6.3335405476391315">
        <ele>661</ele>
        <time>2017-08-04T07:21:42.000Z</time>
      </trkpt>
      <trkpt lat="43.3959099277854" lon="-6.333506181836128">
        <ele>660.8</ele>
        <time>2017-08-04T07:21:48.000Z</time>
      </trkpt>
      <trkpt lat="43.39592635631561" lon="-6.3335237838327885">
        <ele>660.8</ele>
        <time>2017-08-04T07:21:54.000Z</time>
      </trkpt>
      <trkpt lat="43.395927445963025" lon="-6.333498973399401">
        <ele>660.8</ele>
        <time>2017-08-04T07:21:56.000Z</time>
      </trkpt>
      <trkpt lat="43.39592333883047" lon="-6.333489837124944">
        <ele>660.8</ele>
        <time>2017-08-04T07:21:57.000Z</time>
      </trkpt>
      <trkpt lat="43.395900623872876" lon="-6.333465194329619">
        <ele>660.6</ele>
        <time>2017-08-04T07:22:01.000Z</time>
      </trkpt>
      <trkpt lat="43.39595410041511" lon="-6.33379066362977">
        <ele>662.2</ele>
        <time>2017-08-04T07:23:25.000Z</time>
      </trkpt>
      <trkpt lat="43.395919566974044" lon="-6.333690583705902">
        <ele>661.4</ele>
        <time>2017-08-04T07:23:28.000Z</time>
      </trkpt>
      <trkpt lat="43.395974887534976" lon="-6.333562089130282">
        <ele>661</ele>
        <time>2017-08-04T07:23:33.000Z</time>
      </trkpt>
      <trkpt lat="43.3959979377687" lon="-6.333565358072519">
        <ele>661</ele>
        <time>2017-08-04T07:23:34.000Z</time>
      </trkpt>
      <trkpt lat="43.39598184451461" lon="-6.333621768280864">
        <ele>661.2</ele>
        <time>2017-08-04T07:23:38.000Z</time>
      </trkpt>
      <trkpt lat="43.39599005877972" lon="-6.333624701946974">
        <ele>661.2</ele>
        <time>2017-08-04T07:23:39.000Z</time>
      </trkpt>
      <trkpt lat="43.3959392644465" lon="-6.333671305328608">
        <ele>661.4</ele>
        <time>2017-08-04T07:23:49.000Z</time>
      </trkpt>
      <trkpt lat="43.396028615534306" lon="-6.333696786314249">
        <ele>661.8</ele>
        <time>2017-08-04T07:24:27.000Z</time>
      </trkpt>
      <trkpt lat="43.39599642902613" lon="-6.333692008629441">
        <ele>661.6</ele>
        <time>2017-08-04T07:24:33.000Z</time>
      </trkpt>
      <trkpt lat="43.39595887809992" lon="-6.333602070808411">
        <ele>661.2</ele>
        <time>2017-08-04T07:24:38.000Z</time>
      </trkpt>
      <trkpt lat="43.39594856835902" lon="-6.333502158522606">
        <ele>660.8</ele>
        <time>2017-08-04T07:24:43.000Z</time>
      </trkpt>
      <trkpt lat="43.39595695026219" lon="-6.333526466041803">
        <ele>660.8</ele>
        <time>2017-08-04T07:24:45.000Z</time>
      </trkpt>
      <trkpt lat="43.39598352089524" lon="-6.333569632843137">
        <ele>661</ele>
        <time>2017-08-04T07:24:48.000Z</time>
      </trkpt>
      <trkpt lat="43.39593272656202" lon="-6.3336147274822">
        <ele>661.2</ele>
        <time>2017-08-04T07:24:53.000Z</time>
      </trkpt>
      <trkpt lat="43.39595393277705" lon="-6.333558317273855">
        <ele>661</ele>
        <time>2017-08-04T07:25:00.000Z</time>
      </trkpt>
      <trkpt lat="43.395923087373376" lon="-6.333599053323269">
        <ele>661.2</ele>
        <time>2017-08-04T07:25:03.000Z</time>
      </trkpt>
      <trkpt lat="43.395922081544995" lon="-6.333598382771015">
        <ele>661.2</ele>
        <time>2017-08-04T07:25:04.000Z</time>
      </trkpt>
      <trkpt lat="43.39595175348222" lon="-6.333600394427776">
        <ele>661.2</ele>
        <time>2017-08-04T07:25:06.000Z</time>
      </trkpt>
      <trkpt lat="43.396015372127295" lon="-6.333499224856496">
        <ele>660.8</ele>
        <time>2017-08-04T07:25:11.000Z</time>
      </trkpt>
      <trkpt lat="43.39600430801511" lon="-6.33346569724381">
        <ele>660.6</ele>
        <time>2017-08-04T07:25:12.000Z</time>
      </trkpt>
      <trkpt lat="43.396006152033806" lon="-6.333438707515597">
        <ele>660.6</ele>
        <time>2017-08-04T07:25:13.000Z</time>
      </trkpt>
      <trkpt lat="43.396006152033806" lon="-6.333438707515597">
        <ele>660.6</ele>
        <time>2017-08-04T07:25:13.000Z</time>
      </trkpt>
      <trkpt lat="43.39588863775134" lon="-6.333613218739629">
        <ele>661.2</ele>
        <time>2017-08-04T07:35:55.000Z</time>
      </trkpt>
      <trkpt lat="43.39588662609458" lon="-6.333616906777024">
        <ele>661.2</ele>
        <time>2017-08-04T07:35:56.000Z</time>
      </trkpt>
      <trkpt lat="43.395843375474215" lon="-6.333670215681195">
        <ele>661.4</ele>
        <time>2017-08-04T07:36:02.000Z</time>
      </trkpt>
      <trkpt lat="43.395824851468205" lon="-6.333734421059489">
        <ele>661.6</ele>
        <time>2017-08-04T07:36:07.000Z</time>
      </trkpt>
      <trkpt lat="43.39581529609859" lon="-6.333758225664496">
        <ele>661.6</ele>
        <time>2017-08-04T07:36:09.000Z</time>
      </trkpt>
      <trkpt lat="43.395793084055185" lon="-6.333798123523593">
        <ele>661.8</ele>
        <time>2017-08-04T07:36:12.000Z</time>
      </trkpt>
      <trkpt lat="43.395769614726305" lon="-6.333838440477848">
        <ele>661.8</ele>
        <time>2017-08-04T07:36:15.000Z</time>
      </trkpt>
      <trkpt lat="43.39575905352831" lon="-6.333849253132939">
        <ele>661.8</ele>
        <time>2017-08-04T07:36:16.000Z</time>
      </trkpt>
      <trkpt lat="43.39572929777205" lon="-6.333894683048129">
        <ele>661.8</ele>
        <time>2017-08-04T07:36:19.000Z</time>
      </trkpt>
      <trkpt lat="43.39571261778474" lon="-6.333933575078845">
        <ele>661.6</ele>
        <time>2017-08-04T07:36:22.000Z</time>
      </trkpt>
      <trkpt lat="43.395680179819465" lon="-6.334042539820075">
        <ele>661.8</ele>
        <time>2017-08-04T07:36:29.000Z</time>
      </trkpt>
      <trkpt lat="43.395646987482905" lon="-6.334100961685181">
        <ele>661.8</ele>
        <time>2017-08-04T07:36:35.000Z</time>
      </trkpt>
      <trkpt lat="43.395641120150685" lon="-6.33411462418735">
        <ele>661.8</ele>
        <time>2017-08-04T07:36:36.000Z</time>
      </trkpt>
      <trkpt lat="43.39558336883783" lon="-6.334236580878496">
        <ele>661</ele>
        <time>2017-08-04T07:36:45.000Z</time>
      </trkpt>
      <trkpt lat="43.395603485405445" lon="-6.334322076290846">
        <ele>660.8</ele>
        <time>2017-08-04T07:36:49.000Z</time>
      </trkpt>
      <trkpt lat="43.39562527835369" lon="-6.334357699379325">
        <ele>660.8</ele>
        <time>2017-08-04T07:36:51.000Z</time>
      </trkpt>
      <trkpt lat="43.39566073380411" lon="-6.334413355216384">
        <ele>661</ele>
        <time>2017-08-04T07:36:55.000Z</time>
      </trkpt>
      <trkpt lat="43.39566132053733" lon="-6.3344579469412565">
        <ele>660.8</ele>
        <time>2017-08-04T07:36:57.000Z</time>
      </trkpt>
      <trkpt lat="43.39563701301813" lon="-6.33455291390419">
        <ele>660.2</ele>
        <time>2017-08-04T07:37:03.000Z</time>
      </trkpt>
      <trkpt lat="43.39562410488725" lon="-6.334558948874474">
        <ele>660.2</ele>
        <time>2017-08-04T07:37:04.000Z</time>
      </trkpt>
      <trkpt lat="43.395570795983076" lon="-6.334583591669798">
        <ele>659.6</ele>
        <time>2017-08-04T07:37:09.000Z</time>
      </trkpt>
      <trkpt lat="43.395536011084914" lon="-6.334593649953604">
        <ele>659.4</ele>
        <time>2017-08-04T07:37:13.000Z</time>
      </trkpt>
      <trkpt lat="43.39552293531597" lon="-6.334625082090497">
        <ele>659.2</ele>
        <time>2017-08-04T07:37:15.000Z</time>
      </trkpt>
      <trkpt lat="43.39549317955971" lon="-6.334703452885151">
        <ele>658.8</ele>
        <time>2017-08-04T07:37:20.000Z</time>
      </trkpt>
      <trkpt lat="43.395491084083915" lon="-6.334714684635401">
        <ele>658.8</ele>
        <time>2017-08-04T07:37:21.000Z</time>
      </trkpt>
      <trkpt lat="43.395444732159376" lon="-6.334788193926215">
        <ele>658.4</ele>
        <time>2017-08-04T07:37:27.000Z</time>
      </trkpt>
      <trkpt lat="43.3953863941133" lon="-6.33487687446177">
        <ele>657.8</ele>
        <time>2017-08-04T07:37:34.000Z</time>
      </trkpt>
      <trkpt lat="43.39532118290663" lon="-6.334994807839394">
        <ele>657.2</ele>
        <time>2017-08-04T07:37:42.000Z</time>
      </trkpt>
      <trkpt lat="43.39527893811464" lon="-6.335082231089473">
        <ele>657.2</ele>
        <time>2017-08-04T07:37:49.000Z</time>
      </trkpt>
      <trkpt lat="43.39527240023017" lon="-6.335110981017351">
        <ele>657</ele>
        <time>2017-08-04T07:37:51.000Z</time>
      </trkpt>
      <trkpt lat="43.395251696929336" lon="-6.335166385397315">
        <ele>657</ele>
        <time>2017-08-04T07:37:55.000Z</time>
      </trkpt>
      <trkpt lat="43.39520995505154" lon="-6.335273087024689">
        <ele>657</ele>
        <time>2017-08-04T07:38:02.000Z</time>
      </trkpt>
      <trkpt lat="43.39516838081181" lon="-6.33537626825273">
        <ele>657.2</ele>
        <time>2017-08-04T07:38:09.000Z</time>
      </trkpt>
      <trkpt lat="43.39512437582016" lon="-6.335473665967584">
        <ele>657.4</ele>
        <time>2017-08-04T07:38:16.000Z</time>
      </trkpt>
      <trkpt lat="43.39510199613869" lon="-6.335512474179268">
        <ele>657.4</ele>
        <time>2017-08-04T07:38:19.000Z</time>
      </trkpt>
      <trkpt lat="43.39509638026357" lon="-6.335535440593958">
        <ele>657.4</ele>
        <time>2017-08-04T07:38:21.000Z</time>
      </trkpt>
      <trkpt lat="43.39505069889128" lon="-6.3356212712824345">
        <ele>657.2</ele>
        <time>2017-08-04T07:38:27.000Z</time>
      </trkpt>
      <trkpt lat="43.39502714574337" lon="-6.335632083937526">
        <ele>657.2</ele>
        <time>2017-08-04T07:38:30.000Z</time>
      </trkpt>
      <trkpt lat="43.39498749934137" lon="-6.335638957098126">
        <ele>657</ele>
        <time>2017-08-04T07:38:33.000Z</time>
      </trkpt>
      <trkpt lat="43.39492589235306" lon="-6.335694864392281">
        <ele>657</ele>
        <time>2017-08-04T07:38:39.000Z</time>
      </trkpt>
      <trkpt lat="43.394869985058904" lon="-6.335821179673076">
        <ele>657</ele>
        <time>2017-08-04T07:38:47.000Z</time>
      </trkpt>
      <trkpt lat="43.39482824318111" lon="-6.335921762511134">
        <ele>657</ele>
        <time>2017-08-04T07:38:54.000Z</time>
      </trkpt>
      <trkpt lat="43.39478859677911" lon="-6.336028380319476">
        <ele>657</ele>
        <time>2017-08-04T07:39:01.000Z</time>
      </trkpt>
      <trkpt lat="43.39472891762853" lon="-6.336142206564546">
        <ele>657</ele>
        <time>2017-08-04T07:39:09.000Z</time>
      </trkpt>
      <trkpt lat="43.394664293155074" lon="-6.336246225982904">
        <ele>657.2</ele>
        <time>2017-08-04T07:39:17.000Z</time>
      </trkpt>
      <trkpt lat="43.39461341500282" lon="-6.336347982287407">
        <ele>657.2</ele>
        <time>2017-08-04T07:39:24.000Z</time>
      </trkpt>
      <trkpt lat="43.39456781744957" lon="-6.336464323103428">
        <ele>657</ele>
        <time>2017-08-04T07:39:32.000Z</time>
      </trkpt>
      <trkpt lat="43.39452330954373" lon="-6.336564738303423">
        <ele>656.8</ele>
        <time>2017-08-04T07:39:39.000Z</time>
      </trkpt>
      <trkpt lat="43.394484501332045" lon="-6.336671859025955">
        <ele>656.4</ele>
        <time>2017-08-04T07:39:46.000Z</time>
      </trkpt>
      <trkpt lat="43.39444845914841" lon="-6.33676883764565">
        <ele>655.8</ele>
        <time>2017-08-04T07:39:53.000Z</time>
      </trkpt>
      <trkpt lat="43.394385343417525" lon="-6.336900349706411">
        <ele>655</ele>
        <time>2017-08-04T07:40:02.000Z</time>
      </trkpt>
      <trkpt lat="43.39436883106828" lon="-6.336965812370181">
        <ele>655</ele>
        <time>2017-08-04T07:40:07.000Z</time>
      </trkpt>
      <trkpt lat="43.394318874925375" lon="-6.337091289460659">
        <ele>654.6</ele>
        <time>2017-08-04T07:40:15.000Z</time>
      </trkpt>
      <trkpt lat="43.39427302591503" lon="-6.337231015786529">
        <ele>654.6</ele>
        <time>2017-08-04T07:40:23.000Z</time>
      </trkpt>
      <trkpt lat="43.394226003438234" lon="-6.337343417108059">
        <ele>654.6</ele>
        <time>2017-08-04T07:40:30.000Z</time>
      </trkpt>
      <trkpt lat="43.39416028931737" lon="-6.337444670498371">
        <ele>654.8</ele>
        <time>2017-08-04T07:40:38.000Z</time>
      </trkpt>
      <trkpt lat="43.39408518746495" lon="-6.33758096024394">
        <ele>655.2</ele>
        <time>2017-08-04T07:40:48.000Z</time>
      </trkpt>
      <trkpt lat="43.394007654860616" lon="-6.3377181719988585">
        <ele>655.4</ele>
        <time>2017-08-04T07:40:58.000Z</time>
      </trkpt>
      <trkpt lat="43.39392249472439" lon="-6.337892850860953">
        <ele>656.4</ele>
        <time>2017-08-04T07:41:10.000Z</time>
      </trkpt>
      <trkpt lat="43.39385543949902" lon="-6.338024530559778">
        <ele>657</ele>
        <time>2017-08-04T07:41:19.000Z</time>
      </trkpt>
      <trkpt lat="43.39385535567999" lon="-6.338042467832565">
        <ele>657</ele>
        <time>2017-08-04T07:41:20.000Z</time>
      </trkpt>
      <trkpt lat="43.39388184249401" lon="-6.338109942153096">
        <ele>656.8</ele>
        <time>2017-08-04T07:41:24.000Z</time>
      </trkpt>
      <trkpt lat="43.39388511143625" lon="-6.338126370683312">
        <ele>656.8</ele>
        <time>2017-08-04T07:41:25.000Z</time>
      </trkpt>
      <trkpt lat="43.393881507217884" lon="-6.338247070088983">
        <ele>656.8</ele>
        <time>2017-08-04T07:41:32.000Z</time>
      </trkpt>
      <trkpt lat="43.39383456856012" lon="-6.338341115042567">
        <ele>657</ele>
        <time>2017-08-04T07:41:39.000Z</time>
      </trkpt>
      <trkpt lat="43.393808752298355" lon="-6.338407164439559">
        <ele>657</ele>
        <time>2017-08-04T07:41:43.000Z</time>
      </trkpt>
      <trkpt lat="43.39379006065428" lon="-6.338446643203497">
        <ele>657</ele>
        <time>2017-08-04T07:41:46.000Z</time>
      </trkpt>
      <trkpt lat="43.393781343474984" lon="-6.338462568819523">
        <ele>657</ele>
        <time>2017-08-04T07:41:47.000Z</time>
      </trkpt>
      <trkpt lat="43.39375485666096" lon="-6.338557116687298">
        <ele>656.8</ele>
        <time>2017-08-04T07:41:53.000Z</time>
      </trkpt>
      <trkpt lat="43.39375041425228" lon="-6.338682509958744">
        <ele>656.4</ele>
        <time>2017-08-04T07:42:00.000Z</time>
      </trkpt>
      <trkpt lat="43.39368830434978" lon="-6.338839000090957">
        <ele>656.6</ele>
        <time>2017-08-04T07:42:10.000Z</time>
      </trkpt>
      <trkpt lat="43.393672378733754" lon="-6.338886022567749">
        <ele>656.6</ele>
        <time>2017-08-04T07:42:13.000Z</time>
      </trkpt>
      <trkpt lat="43.39365259744227" lon="-6.338949222117662">
        <ele>656.4</ele>
        <time>2017-08-04T07:42:17.000Z</time>
      </trkpt>
      <trkpt lat="43.393611861392856" lon="-6.339067993685603">
        <ele>656</ele>
        <time>2017-08-04T07:42:24.000Z</time>
      </trkpt>
      <trkpt lat="43.393579591065645" lon="-6.339154243469238">
        <ele>656</ele>
        <time>2017-08-04T07:42:29.000Z</time>
      </trkpt>
      <trkpt lat="43.39355385862291" lon="-6.339246109127998">
        <ele>656</ele>
        <time>2017-08-04T07:42:35.000Z</time>
      </trkpt>
      <trkpt lat="43.39354178868234" lon="-6.33936588652432">
        <ele>656.2</ele>
        <time>2017-08-04T07:42:42.000Z</time>
      </trkpt>
      <trkpt lat="43.39354572817683" lon="-6.339511564001441">
        <ele>656.6</ele>
        <time>2017-08-04T07:42:50.000Z</time>
      </trkpt>
      <trkpt lat="43.39355427771807" lon="-6.339615164324641">
        <ele>656.8</ele>
        <time>2017-08-04T07:42:56.000Z</time>
      </trkpt>
      <trkpt lat="43.393541537225246" lon="-6.339780874550343">
        <ele>657.6</ele>
        <time>2017-08-04T07:43:05.000Z</time>
      </trkpt>
      <trkpt lat="43.39350013062358" lon="-6.339911129325628">
        <ele>658.2</ele>
        <time>2017-08-04T07:43:13.000Z</time>
      </trkpt>
      <trkpt lat="43.39344883337617" lon="-6.339985728263855">
        <ele>658.6</ele>
        <time>2017-08-04T07:43:18.000Z</time>
      </trkpt>
      <trkpt lat="43.39338085614145" lon="-6.340072229504585">
        <ele>659.2</ele>
        <time>2017-08-04T07:43:25.000Z</time>
      </trkpt>
      <trkpt lat="43.39330650866032" lon="-6.340186558663845">
        <ele>659.8</ele>
        <time>2017-08-04T07:43:34.000Z</time>
      </trkpt>
      <trkpt lat="43.39325345121324" lon="-6.340329889208078">
        <ele>660.4</ele>
        <time>2017-08-04T07:43:43.000Z</time>
      </trkpt>
      <trkpt lat="43.39321514591575" lon="-6.3404367584735155">
        <ele>660.8</ele>
        <time>2017-08-04T07:43:50.000Z</time>
      </trkpt>
      <trkpt lat="43.393193604424596" lon="-6.340498700737953">
        <ele>661.2</ele>
        <time>2017-08-04T07:43:54.000Z</time>
      </trkpt>
      <trkpt lat="43.39318254031241" lon="-6.340528456494212">
        <ele>661.2</ele>
        <time>2017-08-04T07:43:56.000Z</time>
      </trkpt>
      <trkpt lat="43.393145157024264" lon="-6.340649742633104">
        <ele>661.8</ele>
        <time>2017-08-04T07:44:04.000Z</time>
      </trkpt>
      <trkpt lat="43.39311942458153" lon="-6.340768346562982">
        <ele>662.6</ele>
        <time>2017-08-04T07:44:11.000Z</time>
      </trkpt>
      <trkpt lat="43.39308246038854" lon="-6.340903798118234">
        <ele>663.6</ele>
        <time>2017-08-04T07:44:20.000Z</time>
      </trkpt>
      <trkpt lat="43.393062595278025" lon="-6.341008152812719">
        <ele>664.6</ele>
        <time>2017-08-04T07:44:27.000Z</time>
      </trkpt>
      <trkpt lat="43.393041053786874" lon="-6.34111175313592">
        <ele>665.4</ele>
        <time>2017-08-04T07:44:33.000Z</time>
      </trkpt>
      <trkpt lat="43.39299973100424" lon="-6.3412051275372505">
        <ele>665.8</ele>
        <time>2017-08-04T07:44:40.000Z</time>
      </trkpt>
      <trkpt lat="43.3929877448827" lon="-6.341217365115881">
        <ele>665.6</ele>
        <time>2017-08-04T07:44:41.000Z</time>
      </trkpt>
      <trkpt lat="43.39291825890541" lon="-6.341309733688831">
        <ele>665.6</ele>
        <time>2017-08-04T07:44:49.000Z</time>
      </trkpt>
      <trkpt lat="43.39285749010742" lon="-6.341411741450429">
        <ele>666</ele>
        <time>2017-08-04T07:44:57.000Z</time>
      </trkpt>
      <trkpt lat="43.39283972047269" lon="-6.34145381860435">
        <ele>666.2</ele>
        <time>2017-08-04T07:45:00.000Z</time>
      </trkpt>
      <trkpt lat="43.392822202295065" lon="-6.341477790847421">
        <ele>666.2</ele>
        <time>2017-08-04T07:45:02.000Z</time>
      </trkpt>
      <trkpt lat="43.39277199469507" lon="-6.341567812487483">
        <ele>666.6</ele>
        <time>2017-08-04T07:45:08.000Z</time>
      </trkpt>
      <trkpt lat="43.39272681623697" lon="-6.341655235737562">
        <ele>667.2</ele>
        <time>2017-08-04T07:45:14.000Z</time>
      </trkpt>
      <trkpt lat="43.39266571216285" lon="-6.341769648715854">
        <ele>668</ele>
        <time>2017-08-04T07:45:22.000Z</time>
      </trkpt>
      <trkpt lat="43.392588682472706" lon="-6.341889845207334">
        <ele>668.6</ele>
        <time>2017-08-04T07:45:31.000Z</time>
      </trkpt>
      <trkpt lat="43.39252288453281" lon="-6.341991852968931">
        <ele>668.8</ele>
        <time>2017-08-04T07:45:39.000Z</time>
      </trkpt>
      <trkpt lat="43.39248759672046" lon="-6.3420656975358725">
        <ele>669</ele>
        <time>2017-08-04T07:45:45.000Z</time>
      </trkpt>
      <trkpt lat="43.392443088814616" lon="-6.342129735276103">
        <ele>669.4</ele>
        <time>2017-08-04T07:45:50.000Z</time>
      </trkpt>
      <trkpt lat="43.392376117408276" lon="-6.3422332517802715">
        <ele>670.2</ele>
        <time>2017-08-04T07:45:58.000Z</time>
      </trkpt>
      <trkpt lat="43.3923180308193" lon="-6.3423266261816025">
        <ele>671</ele>
        <time>2017-08-04T07:46:05.000Z</time>
      </trkpt>
      <trkpt lat="43.39229665696621" lon="-6.342375660315156">
        <ele>671.6</ele>
        <time>2017-08-04T07:46:09.000Z</time>
      </trkpt>
      <trkpt lat="43.39229162782431" lon="-6.3423846289515495">
        <ele>671.6</ele>
        <time>2017-08-04T07:46:10.000Z</time>
      </trkpt>
      <trkpt lat="43.3922625426203" lon="-6.342411953955889">
        <ele>671.8</ele>
        <time>2017-08-04T07:46:13.000Z</time>
      </trkpt>
      <trkpt lat="43.392222644761205" lon="-6.3424609042704105">
        <ele>672.2</ele>
        <time>2017-08-04T07:46:17.000Z</time>
      </trkpt>
      <trkpt lat="43.39218316599727" lon="-6.342509351670742">
        <ele>672.4</ele>
        <time>2017-08-04T07:46:22.000Z</time>
      </trkpt>
      <trkpt lat="43.3921227324754" lon="-6.342587638646364">
        <ele>673</ele>
        <time>2017-08-04T07:46:29.000Z</time>
      </trkpt>
      <trkpt lat="43.392106806859374" lon="-6.342610353603959">
        <ele>673.2</ele>
        <time>2017-08-04T07:46:31.000Z</time>
      </trkpt>
      <trkpt lat="43.3920812420547" lon="-6.342635583132505">
        <ele>673.2</ele>
        <time>2017-08-04T07:46:34.000Z</time>
      </trkpt>
      <trkpt lat="43.392008654773235" lon="-6.342727784067392">
        <ele>674</ele>
        <time>2017-08-04T07:46:41.000Z</time>
      </trkpt>
      <trkpt lat="43.39192969724536" lon="-6.342834820970893">
        <ele>674.8</ele>
        <time>2017-08-04T07:46:49.000Z</time>
      </trkpt>
      <trkpt lat="43.391843447461724" lon="-6.342970188707113">
        <ele>675.2</ele>
        <time>2017-08-04T07:46:59.000Z</time>
      </trkpt>
      <trkpt lat="43.391786869615316" lon="-6.343062724918127">
        <ele>675.4</ele>
        <time>2017-08-04T07:47:06.000Z</time>
      </trkpt>
      <trkpt lat="43.39173708111048" lon="-6.343137491494417">
        <ele>675.6</ele>
        <time>2017-08-04T07:47:12.000Z</time>
      </trkpt>
      <trkpt lat="43.3916874602437" lon="-6.343216868117452">
        <ele>675.8</ele>
        <time>2017-08-04T07:47:20.000Z</time>
      </trkpt>
      <trkpt lat="43.391665164381266" lon="-6.343241427093744">
        <ele>675.8</ele>
        <time>2017-08-04T07:47:23.000Z</time>
      </trkpt>
      <trkpt lat="43.39164052158594" lon="-6.343263806775212">
        <ele>675.8</ele>
        <time>2017-08-04T07:47:26.000Z</time>
      </trkpt>
      <trkpt lat="43.391624512150884" lon="-6.343270344659686">
        <ele>675.8</ele>
        <time>2017-08-04T07:47:28.000Z</time>
      </trkpt>
      <trkpt lat="43.391600204631686" lon="-6.34329934604466">
        <ele>675.8</ele>
        <time>2017-08-04T07:47:31.000Z</time>
      </trkpt>
      <trkpt lat="43.39159199036658" lon="-6.343318289145827">
        <ele>675.8</ele>
        <time>2017-08-04T07:47:32.000Z</time>
      </trkpt>
      <trkpt lat="43.39158101007342" lon="-6.343327928334475">
        <ele>675.8</ele>
        <time>2017-08-04T07:47:33.000Z</time>
      </trkpt>
      <trkpt lat="43.39155628345907" lon="-6.343363132327795">
        <ele>676</ele>
        <time>2017-08-04T07:47:36.000Z</time>
      </trkpt>
      <trkpt lat="43.39153700508177" lon="-6.343381153419614">
        <ele>676</ele>
        <time>2017-08-04T07:47:38.000Z</time>
      </trkpt>
      <trkpt lat="43.39149442501366" lon="-6.343434965237975">
        <ele>676</ele>
        <time>2017-08-04T07:47:43.000Z</time>
      </trkpt>
      <trkpt lat="43.3914268668741" lon="-6.343503529205918">
        <ele>676</ele>
        <time>2017-08-04T07:47:49.000Z</time>
      </trkpt>
      <trkpt lat="43.3913766592741" lon="-6.343544013798237">
        <ele>676</ele>
        <time>2017-08-04T07:47:54.000Z</time>
      </trkpt>
      <trkpt lat="43.39134774170816" lon="-6.343566728755832">
        <ele>676</ele>
        <time>2017-08-04T07:47:57.000Z</time>
      </trkpt>
      <trkpt lat="43.391266353428364" lon="-6.343594724312425">
        <ele>676.2</ele>
        <time>2017-08-04T07:48:04.000Z</time>
      </trkpt>
      <trkpt lat="43.391195107251406" lon="-6.343571171164513">
        <ele>675.4</ele>
        <time>2017-08-04T07:48:11.000Z</time>
      </trkpt>
      <trkpt lat="43.391117909923196" lon="-6.343491710722446">
        <ele>674.4</ele>
        <time>2017-08-04T07:48:19.000Z</time>
      </trkpt>
      <trkpt lat="43.39105764403939" lon="-6.343423398211598">
        <ele>674.2</ele>
        <time>2017-08-04T07:48:25.000Z</time>
      </trkpt>
      <trkpt lat="43.39101070538163" lon="-6.343347206711769">
        <ele>674.2</ele>
        <time>2017-08-04T07:48:31.000Z</time>
      </trkpt>
      <trkpt lat="43.39098430238664" lon="-6.343329772353172">
        <ele>674.6</ele>
        <time>2017-08-04T07:48:33.000Z</time>
      </trkpt>
      <trkpt lat="43.390974160283804" lon="-6.343315104022622">
        <ele>674.6</ele>
        <time>2017-08-04T07:48:35.000Z</time>
      </trkpt>
      <trkpt lat="43.39095865376294" lon="-6.343290209770203">
        <ele>674.8</ele>
        <time>2017-08-04T07:48:37.000Z</time>
      </trkpt>
      <trkpt lat="43.39092671871185" lon="-6.3432510662823915">
        <ele>675.2</ele>
        <time>2017-08-04T07:48:41.000Z</time>
      </trkpt>
      <trkpt lat="43.39086603373289" lon="-6.343195661902428">
        <ele>675.8</ele>
        <time>2017-08-04T07:48:48.000Z</time>
      </trkpt>
      <trkpt lat="43.39079512283206" lon="-6.343133300542831">
        <ele>676</ele>
        <time>2017-08-04T07:48:55.000Z</time>
      </trkpt>
      <trkpt lat="43.39070677757263" lon="-6.3430675864219666">
        <ele>677</ele>
        <time>2017-08-04T07:49:03.000Z</time>
      </trkpt>
      <trkpt lat="43.39062111452222" lon="-6.34301939047873">
        <ele>678.2</ele>
        <time>2017-08-04T07:49:10.000Z</time>
      </trkpt>
      <trkpt lat="43.39054542593658" lon="-6.342980582267046">
        <ele>679.6</ele>
        <time>2017-08-04T07:49:16.000Z</time>
      </trkpt>
      <trkpt lat="43.39044333435595" lon="-6.342973206192255">
        <ele>679.8</ele>
        <time>2017-08-04T07:49:24.000Z</time>
      </trkpt>
      <trkpt lat="43.39033814147115" lon="-6.342959627509117">
        <ele>680.2</ele>
        <time>2017-08-04T07:49:32.000Z</time>
      </trkpt>
      <trkpt lat="43.390220208093524" lon="-6.342987874522805">
        <ele>681</ele>
        <time>2017-08-04T07:49:41.000Z</time>
      </trkpt>
      <trkpt lat="43.3901646360755" lon="-6.343057444319129">
        <ele>681.2</ele>
        <time>2017-08-04T07:49:47.000Z</time>
      </trkpt>
      <trkpt lat="43.39009649120271" lon="-6.343092815950513">
        <ele>681.2</ele>
        <time>2017-08-04T07:49:53.000Z</time>
      </trkpt>
      <trkpt lat="43.39007142931223" lon="-6.343098096549511">
        <ele>681.4</ele>
        <time>2017-08-04T07:49:55.000Z</time>
      </trkpt>
      <trkpt lat="43.39003270491958" lon="-6.343149645254016">
        <ele>681.4</ele>
        <time>2017-08-04T07:49:59.000Z</time>
      </trkpt>
      <trkpt lat="43.38996724225581" lon="-6.343252072110772">
        <ele>681.8</ele>
        <time>2017-08-04T07:50:07.000Z</time>
      </trkpt>
      <trkpt lat="43.38994100689888" lon="-6.343384673818946">
        <ele>683</ele>
        <time>2017-08-04T07:50:14.000Z</time>
      </trkpt>
      <trkpt lat="43.38992080651224" lon="-6.343462876975536">
        <ele>684</ele>
        <time>2017-08-04T07:50:20.000Z</time>
      </trkpt>
      <trkpt lat="43.389912424609065" lon="-6.343565722927451">
        <ele>685.4</ele>
        <time>2017-08-04T07:50:26.000Z</time>
      </trkpt>
      <trkpt lat="43.3899296913296" lon="-6.343707712367177">
        <ele>688.6</ele>
        <time>2017-08-04T07:50:35.000Z</time>
      </trkpt>
      <trkpt lat="43.38992977514863" lon="-6.343809217214584">
        <ele>690.8</ele>
        <time>2017-08-04T07:50:42.000Z</time>
      </trkpt>
      <trkpt lat="43.38991904631257" lon="-6.343886749818921">
        <ele>692.4</ele>
        <time>2017-08-04T07:50:47.000Z</time>
      </trkpt>
      <trkpt lat="43.38991560973227" lon="-6.343915918841958">
        <ele>692.8</ele>
        <time>2017-08-04T07:50:49.000Z</time>
      </trkpt>
      <trkpt lat="43.389895325526595" lon="-6.344030499458313">
        <ele>694.8</ele>
        <time>2017-08-04T07:50:57.000Z</time>
      </trkpt>
      <trkpt lat="43.38987998664379" lon="-6.3441472593694925">
        <ele>696.6</ele>
        <time>2017-08-04T07:51:05.000Z</time>
      </trkpt>
      <trkpt lat="43.38985215872526" lon="-6.3442715629935265">
        <ele>697.8</ele>
        <time>2017-08-04T07:51:12.000Z</time>
      </trkpt>
      <trkpt lat="43.38984570465982" lon="-6.344287572428584">
        <ele>697.8</ele>
        <time>2017-08-04T07:51:13.000Z</time>
      </trkpt>
      <trkpt lat="43.389823073521256" lon="-6.3443254586309195">
        <ele>698.2</ele>
        <time>2017-08-04T07:51:16.000Z</time>
      </trkpt>
      <trkpt lat="43.389806896448135" lon="-6.344379689544439">
        <ele>698.6</ele>
        <time>2017-08-04T07:51:19.000Z</time>
      </trkpt>
      <trkpt lat="43.38979155756533" lon="-6.344420677050948">
        <ele>698.8</ele>
        <time>2017-08-04T07:51:21.000Z</time>
      </trkpt>
      <trkpt lat="43.38979407213628" lon="-6.344449343159795">
        <ele>699</ele>
        <time>2017-08-04T07:51:23.000Z</time>
      </trkpt>
      <trkpt lat="43.38979407213628" lon="-6.344459569081664">
        <ele>699.2</ele>
        <time>2017-08-04T07:51:24.000Z</time>
      </trkpt>
      <trkpt lat="43.38979599997401" lon="-6.344521846622229">
        <ele>699.6</ele>
        <time>2017-08-04T07:51:28.000Z</time>
      </trkpt>
      <trkpt lat="43.38978451676667" lon="-6.344570880755782">
        <ele>699.8</ele>
        <time>2017-08-04T07:51:31.000Z</time>
      </trkpt>
      <trkpt lat="43.38976272381842" lon="-6.344711445271969">
        <ele>700.2</ele>
        <time>2017-08-04T07:51:39.000Z</time>
      </trkpt>
      <trkpt lat="43.389777056872845" lon="-6.344848908483982">
        <ele>699.6</ele>
        <time>2017-08-04T07:51:47.000Z</time>
      </trkpt>
      <trkpt lat="43.38979599997401" lon="-6.344972793012857">
        <ele>700.2</ele>
        <time>2017-08-04T07:51:54.000Z</time>
      </trkpt>
      <trkpt lat="43.389797592535615" lon="-6.34512048214674">
        <ele>700.2</ele>
        <time>2017-08-04T07:52:02.000Z</time>
      </trkpt>
      <trkpt lat="43.389796083793044" lon="-6.345246294513345">
        <ele>700.6</ele>
        <time>2017-08-04T07:52:09.000Z</time>
      </trkpt>
      <trkpt lat="43.3897967543453" lon="-6.345273284241557">
        <ele>700.8</ele>
        <time>2017-08-04T07:52:12.000Z</time>
      </trkpt>
      <trkpt lat="43.38979893364012" lon="-6.345272362232208">
        <ele>700.8</ele>
        <time>2017-08-04T07:52:14.000Z</time>
      </trkpt>
      <trkpt lat="43.389780996367335" lon="-6.345286443829536">
        <ele>700.6</ele>
        <time>2017-08-04T07:52:20.000Z</time>
      </trkpt>
      <trkpt lat="43.389771189540625" lon="-6.3453159481287">
        <ele>700.8</ele>
        <time>2017-08-04T07:52:25.000Z</time>
      </trkpt>
      <trkpt lat="43.389711091294885" lon="-6.34539901278913">
        <ele>700.4</ele>
        <time>2017-08-04T07:52:32.000Z</time>
      </trkpt>
      <trkpt lat="43.389655351638794" lon="-6.345485765486956">
        <ele>700.2</ele>
        <time>2017-08-04T07:52:38.000Z</time>
      </trkpt>
      <trkpt lat="43.38960137218237" lon="-6.345563214272261">
        <ele>700.2</ele>
        <time>2017-08-04T07:52:44.000Z</time>
      </trkpt>
      <trkpt lat="43.38960438966751" lon="-6.345592215657234">
        <ele>700.6</ele>
        <time>2017-08-04T07:52:45.000Z</time>
      </trkpt>
      <trkpt lat="43.38956390507519" lon="-6.345640243962407">
        <ele>700.6</ele>
        <time>2017-08-04T07:52:49.000Z</time>
      </trkpt>
      <trkpt lat="43.38954328559339" lon="-6.345669161528349">
        <ele>700.6</ele>
        <time>2017-08-04T07:52:52.000Z</time>
      </trkpt>
      <trkpt lat="43.389543537050486" lon="-6.345674274489284">
        <ele>700.6</ele>
        <time>2017-08-04T07:52:55.000Z</time>
      </trkpt>
      <trkpt lat="43.38953658007085" lon="-6.345673771575093">
        <ele>700.6</ele>
        <time>2017-08-04T07:53:05.000Z</time>
      </trkpt>
      <trkpt lat="43.389533227309585" lon="-6.345716854557395">
        <ele>701</ele>
        <time>2017-08-04T07:54:05.000Z</time>
      </trkpt>
      <trkpt lat="43.38954680599272" lon="-6.345706963911653">
        <ele>701.2</ele>
        <time>2017-08-04T07:54:10.000Z</time>
      </trkpt>
      <trkpt lat="43.3895496558398" lon="-6.345694726333022">
        <ele>701</ele>
        <time>2017-08-04T07:54:21.000Z</time>
      </trkpt>
      <trkpt lat="43.38954269886017" lon="-6.345716770738363">
        <ele>701.2</ele>
        <time>2017-08-04T07:54:29.000Z</time>
      </trkpt>
      <trkpt lat="43.38953834027052" lon="-6.345736971125007">
        <ele>701.4</ele>
        <time>2017-08-04T07:54:34.000Z</time>
      </trkpt>
      <trkpt lat="43.38953356258571" lon="-6.34574786759913">
        <ele>701.6</ele>
        <time>2017-08-04T07:54:46.000Z</time>
      </trkpt>
      <trkpt lat="43.389498023316264" lon="-6.345818359404802">
        <ele>702</ele>
        <time>2017-08-04T07:54:51.000Z</time>
      </trkpt>
      <trkpt lat="43.389466842636466" lon="-6.345891449600458">
        <ele>702.4</ele>
        <time>2017-08-04T07:54:54.000Z</time>
      </trkpt>
      <trkpt lat="43.38946273550391" lon="-6.34590569883585">
        <ele>702.6</ele>
        <time>2017-08-04T07:54:55.000Z</time>
      </trkpt>
      <trkpt lat="43.38943876326084" lon="-6.3459367118775845">
        <ele>702.6</ele>
        <time>2017-08-04T07:54:59.000Z</time>
      </trkpt>
      <trkpt lat="43.38942401111126" lon="-6.34596386924386">
        <ele>702.6</ele>
        <time>2017-08-04T07:55:01.000Z</time>
      </trkpt>
      <trkpt lat="43.38940599001944" lon="-6.346005108207464">
        <ele>702.8</ele>
        <time>2017-08-04T07:55:04.000Z</time>
      </trkpt>
      <trkpt lat="43.389354441314936" lon="-6.346132513135672">
        <ele>703.2</ele>
        <time>2017-08-04T07:55:12.000Z</time>
      </trkpt>
      <trkpt lat="43.38932275772095" lon="-6.3462247140705585">
        <ele>703.8</ele>
        <time>2017-08-04T07:55:18.000Z</time>
      </trkpt>
      <trkpt lat="43.38928587734699" lon="-6.34636745788157">
        <ele>705</ele>
        <time>2017-08-04T07:55:27.000Z</time>
      </trkpt>
      <trkpt lat="43.38923499919474" lon="-6.346490001305938">
        <ele>704.2</ele>
        <time>2017-08-04T07:55:35.000Z</time>
      </trkpt>
      <trkpt lat="43.389204908162355" lon="-6.346591925248504">
        <ele>703.8</ele>
        <time>2017-08-04T07:55:43.000Z</time>
      </trkpt>
      <trkpt lat="43.38918789289892" lon="-6.3466541189700365">
        <ele>703.8</ele>
        <time>2017-08-04T07:55:48.000Z</time>
      </trkpt>
      <trkpt lat="43.38918152265251" lon="-6.346666105091572">
        <ele>703.6</ele>
        <time>2017-08-04T07:55:49.000Z</time>
      </trkpt>
      <trkpt lat="43.38917925953865" lon="-6.346682198345661">
        <ele>703.6</ele>
        <time>2017-08-04T07:55:50.000Z</time>
      </trkpt>
      <trkpt lat="43.389162411913276" lon="-6.346743470057845">
        <ele>703.6</ele>
        <time>2017-08-04T07:55:55.000Z</time>
      </trkpt>
      <trkpt lat="43.389135925099254" lon="-6.346834329888225">
        <ele>703.6</ele>
        <time>2017-08-04T07:56:01.000Z</time>
      </trkpt>
      <trkpt lat="43.38913835585117" lon="-6.346889566630125">
        <ele>704</ele>
        <time>2017-08-04T07:56:04.000Z</time>
      </trkpt>
      <trkpt lat="43.38913223706186" lon="-6.346903312951326">
        <ele>704</ele>
        <time>2017-08-04T07:56:05.000Z</time>
      </trkpt>
      <trkpt lat="43.38913190178573" lon="-6.3469556998461485">
        <ele>704.6</ele>
        <time>2017-08-04T07:56:08.000Z</time>
      </trkpt>
      <trkpt lat="43.389120418578386" lon="-6.34708184748888">
        <ele>705.6</ele>
        <time>2017-08-04T07:56:15.000Z</time>
      </trkpt>
      <trkpt lat="43.38911212049425" lon="-6.347218472510576">
        <ele>707</ele>
        <time>2017-08-04T07:56:23.000Z</time>
      </trkpt>
      <trkpt lat="43.389113042503595" lon="-6.347336154431105">
        <ele>707.8</ele>
        <time>2017-08-04T07:56:30.000Z</time>
      </trkpt>
      <trkpt lat="43.389122262597084" lon="-6.347453165799379">
        <ele>708.8</ele>
        <time>2017-08-04T07:56:37.000Z</time>
      </trkpt>
      <trkpt lat="43.389132991433144" lon="-6.347553413361311">
        <ele>709.6</ele>
        <time>2017-08-04T07:56:44.000Z</time>
      </trkpt>
      <trkpt lat="43.3891077619046" lon="-6.347642345353961">
        <ele>710</ele>
        <time>2017-08-04T07:56:50.000Z</time>
      </trkpt>
      <trkpt lat="43.389059230685234" lon="-6.347730690613389">
        <ele>710.2</ele>
        <time>2017-08-04T07:56:57.000Z</time>
      </trkpt>
      <trkpt lat="43.38904866948724" lon="-6.347757009789348">
        <ele>710.4</ele>
        <time>2017-08-04T07:56:59.000Z</time>
      </trkpt>
      <trkpt lat="43.389016315340996" lon="-6.347811156883836">
        <ele>710.8</ele>
        <time>2017-08-04T07:57:03.000Z</time>
      </trkpt>
      <trkpt lat="43.38895646855235" lon="-6.347885085269809">
        <ele>711.2</ele>
        <time>2017-08-04T07:57:10.000Z</time>
      </trkpt>
      <trkpt lat="43.38890424929559" lon="-6.34796965867281">
        <ele>711.8</ele>
        <time>2017-08-04T07:57:17.000Z</time>
      </trkpt>
      <trkpt lat="43.38886518962681" lon="-6.348043670877814">
        <ele>712.2</ele>
        <time>2017-08-04T07:57:23.000Z</time>
      </trkpt>
      <trkpt lat="43.3888606633991" lon="-6.3480577524751425">
        <ele>712.4</ele>
        <time>2017-08-04T07:57:24.000Z</time>
      </trkpt>
      <trkpt lat="43.38880115188658" lon="-6.348144421353936">
        <ele>712.4</ele>
        <time>2017-08-04T07:57:31.000Z</time>
      </trkpt>
      <trkpt lat="43.38875463232398" lon="-6.348241986706853">
        <ele>712.6</ele>
        <time>2017-08-04T07:57:38.000Z</time>
      </trkpt>
      <trkpt lat="43.38871062733233" lon="-6.348324129357934">
        <ele>712.8</ele>
        <time>2017-08-04T07:57:44.000Z</time>
      </trkpt>
      <trkpt lat="43.388676261529326" lon="-6.348440470173955">
        <ele>713.6</ele>
        <time>2017-08-04T07:57:51.000Z</time>
      </trkpt>
      <trkpt lat="43.388628736138344" lon="-6.348541053012013">
        <ele>714.2</ele>
        <time>2017-08-04T07:57:58.000Z</time>
      </trkpt>
      <trkpt lat="43.38859420269728" lon="-6.348666613921523">
        <ele>716</ele>
        <time>2017-08-04T07:58:06.000Z</time>
      </trkpt>
      <trkpt lat="43.38857836090028" lon="-6.3487934321165085">
        <ele>718</ele>
        <time>2017-08-04T07:58:14.000Z</time>
      </trkpt>
      <trkpt lat="43.388509629294276" lon="-6.3488903269171715">
        <ele>718.2</ele>
        <time>2017-08-04T07:58:21.000Z</time>
      </trkpt>
      <trkpt lat="43.38843955658376" lon="-6.348972721025348">
        <ele>717.8</ele>
        <time>2017-08-04T07:58:28.000Z</time>
      </trkpt>
      <trkpt lat="43.3883410692215" lon="-6.349088726565242">
        <ele>717.4</ele>
        <time>2017-08-04T07:58:38.000Z</time>
      </trkpt>
      <trkpt lat="43.38824652135372" lon="-6.3491874653846025">
        <ele>715.8</ele>
        <time>2017-08-04T07:58:47.000Z</time>
      </trkpt>
      <trkpt lat="43.38814300484955" lon="-6.349289892241359">
        <ele>713.6</ele>
        <time>2017-08-04T07:58:57.000Z</time>
      </trkpt>
      <trkpt lat="43.38804803788662" lon="-6.349377483129501">
        <ele>711.4</ele>
        <time>2017-08-04T07:59:06.000Z</time>
      </trkpt>
      <trkpt lat="43.38795273564756" lon="-6.349452333524823">
        <ele>711.4</ele>
        <time>2017-08-04T07:59:14.000Z</time>
      </trkpt>
      <trkpt lat="43.38786548003554" lon="-6.349521316587925">
        <ele>712.2</ele>
        <time>2017-08-04T07:59:22.000Z</time>
      </trkpt>
      <trkpt lat="43.387761963531375" lon="-6.349581498652697">
        <ele>712.6</ele>
        <time>2017-08-04T07:59:31.000Z</time>
      </trkpt>
      <trkpt lat="43.38765408843756" lon="-6.349640339612961">
        <ele>713</ele>
        <time>2017-08-04T07:59:40.000Z</time>
      </trkpt>
      <trkpt lat="43.387571442872286" lon="-6.349687110632658">
        <ele>713.2</ele>
        <time>2017-08-04T07:59:47.000Z</time>
      </trkpt>
      <trkpt lat="43.387474128976464" lon="-6.34977662935853">
        <ele>713.4</ele>
        <time>2017-08-04T07:59:56.000Z</time>
      </trkpt>
      <trkpt lat="43.38740162551403" lon="-6.349874194711447">
        <ele>714.6</ele>
        <time>2017-08-04T08:00:04.000Z</time>
      </trkpt>
      <trkpt lat="43.38732928968966" lon="-6.349977292120457">
        <ele>715.8</ele>
        <time>2017-08-04T08:00:13.000Z</time>
      </trkpt>
      <trkpt lat="43.38724630884826" lon="-6.350004952400923">
        <ele>716</ele>
        <time>2017-08-04T08:00:20.000Z</time>
      </trkpt>
      <trkpt lat="43.38722066022456" lon="-6.350015262141824">
        <ele>716.2</ele>
        <time>2017-08-04T08:00:22.000Z</time>
      </trkpt>
      <trkpt lat="43.38716592639685" lon="-6.350009394809604">
        <ele>716.4</ele>
        <time>2017-08-04T08:00:26.000Z</time>
      </trkpt>
      <trkpt lat="43.38708294555545" lon="-6.349983662366867">
        <ele>717.8</ele>
        <time>2017-08-04T08:00:33.000Z</time>
      </trkpt>
      <trkpt lat="43.387007508426905" lon="-6.349957007914782">
        <ele>719</ele>
        <time>2017-08-04T08:00:40.000Z</time>
      </trkpt>
      <trkpt lat="43.38690558448434" lon="-6.349895317107439">
        <ele>720</ele>
        <time>2017-08-04T08:00:49.000Z</time>
      </trkpt>
      <trkpt lat="43.38682210072875" lon="-6.349812839180231">
        <ele>720</ele>
        <time>2017-08-04T08:00:57.000Z</time>
      </trkpt>
      <trkpt lat="43.38680190034211" lon="-6.349803954362869">
        <ele>720.2</ele>
        <time>2017-08-04T08:00:58.000Z</time>
      </trkpt>
      <trkpt lat="43.386776419356465" lon="-6.349766822531819">
        <ele>720</ele>
        <time>2017-08-04T08:01:01.000Z</time>
      </trkpt>
      <trkpt lat="43.386727049946785" lon="-6.349679064005613">
        <ele>719.2</ele>
        <time>2017-08-04T08:01:08.000Z</time>
      </trkpt>
      <trkpt lat="43.38667801581323" lon="-6.34957630187273">
        <ele>717.4</ele>
        <time>2017-08-04T08:01:15.000Z</time>
      </trkpt>
      <trkpt lat="43.38664666749537" lon="-6.349540427327156">
        <ele>717.6</ele>
        <time>2017-08-04T08:01:19.000Z</time>
      </trkpt>
      <trkpt lat="43.38662562891841" lon="-6.349531123414636">
        <ele>717.8</ele>
        <time>2017-08-04T08:01:21.000Z</time>
      </trkpt>
      <trkpt lat="43.38659629225731" lon="-6.3495193887501955">
        <ele>717.6</ele>
        <time>2017-08-04T08:01:25.000Z</time>
      </trkpt>
      <trkpt lat="43.38658573105931" lon="-6.34952743537724">
        <ele>717.6</ele>
        <time>2017-08-04T08:01:27.000Z</time>
      </trkpt>
      <trkpt lat="43.38651389814913" lon="-6.349528022110462">
        <ele>717.8</ele>
        <time>2017-08-04T08:01:32.000Z</time>
      </trkpt>
      <trkpt lat="43.38648338802159" lon="-6.3495485577732325">
        <ele>718.2</ele>
        <time>2017-08-04T08:01:36.000Z</time>
      </trkpt>
      <trkpt lat="43.38646838441491" lon="-6.349569512531161">
        <ele>718.6</ele>
        <time>2017-08-04T08:01:38.000Z</time>
      </trkpt>
      <trkpt lat="43.38640786707401" lon="-6.3496345560997725">
        <ele>720</ele>
        <time>2017-08-04T08:01:45.000Z</time>
      </trkpt>
      <trkpt lat="43.386400155723095" lon="-6.349645620211959">
        <ele>720.2</ele>
        <time>2017-08-04T08:01:46.000Z</time>
      </trkpt>
      <trkpt lat="43.38638783432543" lon="-6.34965299628675">
        <ele>720.4</ele>
        <time>2017-08-04T08:01:47.000Z</time>
      </trkpt>
      <trkpt lat="43.38636587373912" lon="-6.3496707659214735">
        <ele>720.8</ele>
        <time>2017-08-04T08:01:50.000Z</time>
      </trkpt>
      <trkpt lat="43.38636067695916" lon="-6.349679064005613">
        <ele>721</ele>
        <time>2017-08-04T08:01:51.000Z</time>
      </trkpt>
      <trkpt lat="43.38635640218854" lon="-6.3496919721364975">
        <ele>721.4</ele>
        <time>2017-08-04T08:01:52.000Z</time>
      </trkpt>
      <trkpt lat="43.386335698887706" lon="-6.3497252482920885">
        <ele>722.4</ele>
        <time>2017-08-04T08:01:55.000Z</time>
      </trkpt>
      <trkpt lat="43.38628700003028" lon="-6.349794566631317">
        <ele>724.8</ele>
        <time>2017-08-04T08:02:00.000Z</time>
      </trkpt>
      <trkpt lat="43.38625866919756" lon="-6.349846450611949">
        <ele>726.4</ele>
        <time>2017-08-04T08:02:05.000Z</time>
      </trkpt>
      <trkpt lat="43.38621810078621" lon="-6.349880984053016">
        <ele>727.8</ele>
        <time>2017-08-04T08:02:08.000Z</time>
      </trkpt>
      <trkpt lat="43.386194966733456" lon="-6.349915768951178">
        <ele>729</ele>
        <time>2017-08-04T08:02:11.000Z</time>
      </trkpt>
      <trkpt lat="43.38617912493646" lon="-6.349943596869707">
        <ele>729.8</ele>
        <time>2017-08-04T08:02:13.000Z</time>
      </trkpt>
      <trkpt lat="43.3861771132797" lon="-6.349957678467035">
        <ele>730.2</ele>
        <time>2017-08-04T08:02:14.000Z</time>
      </trkpt>
      <trkpt lat="43.38615900836885" lon="-6.350001851096749">
        <ele>731.4</ele>
        <time>2017-08-04T08:02:18.000Z</time>
      </trkpt>
      <trkpt lat="43.386144675314426" lon="-6.350033283233643">
        <ele>732.2</ele>
        <time>2017-08-04T08:02:22.000Z</time>
      </trkpt>
      <trkpt lat="43.38608524762094" lon="-6.350136045366526">
        <ele>734.8</ele>
        <time>2017-08-04T08:02:29.000Z</time>
      </trkpt>
      <trkpt lat="43.386072842404246" lon="-6.350162699818611">
        <ele>735.2</ele>
        <time>2017-08-04T08:02:31.000Z</time>
      </trkpt>
      <trkpt lat="43.386057671159506" lon="-6.350190779194236">
        <ele>735.4</ele>
        <time>2017-08-04T08:02:33.000Z</time>
      </trkpt>
      <trkpt lat="43.3860579226166" lon="-6.350229252129793">
        <ele>736.2</ele>
        <time>2017-08-04T08:02:35.000Z</time>
      </trkpt>
      <trkpt lat="43.38603403419256" lon="-6.350291026756167">
        <ele>736.4</ele>
        <time>2017-08-04T08:02:39.000Z</time>
      </trkpt>
      <trkpt lat="43.38599547743797" lon="-6.350376773625612">
        <ele>736.4</ele>
        <time>2017-08-04T08:02:45.000Z</time>
      </trkpt>
      <trkpt lat="43.38598164729774" lon="-6.350445169955492">
        <ele>736.8</ele>
        <time>2017-08-04T08:02:49.000Z</time>
      </trkpt>
      <trkpt lat="43.38593831285834" lon="-6.350494539365172">
        <ele>736.2</ele>
        <time>2017-08-04T08:02:53.000Z</time>
      </trkpt>
      <trkpt lat="43.38592900894582" lon="-6.350507279857993">
        <ele>736.2</ele>
        <time>2017-08-04T08:02:54.000Z</time>
      </trkpt>
      <trkpt lat="43.3859265781939" lon="-6.350520690903068">
        <ele>736.2</ele>
        <time>2017-08-04T08:02:55.000Z</time>
      </trkpt>
      <trkpt lat="43.38588978163898" lon="-6.350595289841294">
        <ele>736.6</ele>
        <time>2017-08-04T08:03:00.000Z</time>
      </trkpt>
      <trkpt lat="43.385874358937144" lon="-6.350619429722428">
        <ele>736.8</ele>
        <time>2017-08-04T08:03:02.000Z</time>
      </trkpt>
      <trkpt lat="43.385847033932805" lon="-6.350664691999555">
        <ele>736.8</ele>
        <time>2017-08-04T08:03:05.000Z</time>
      </trkpt>
      <trkpt lat="43.385784421116114" lon="-6.35077097453177">
        <ele>737.2</ele>
        <time>2017-08-04T08:03:12.000Z</time>
      </trkpt>
      <trkpt lat="43.385734632611275" lon="-6.35088387876749">
        <ele>738</ele>
        <time>2017-08-04T08:03:19.000Z</time>
      </trkpt>
      <trkpt lat="43.385716108605266" lon="-6.350982533767819">
        <ele>739.2</ele>
        <time>2017-08-04T08:03:25.000Z</time>
      </trkpt>
      <trkpt lat="43.38568459264934" lon="-6.351098706945777">
        <ele>740.6</ele>
        <time>2017-08-04T08:03:32.000Z</time>
      </trkpt>
      <trkpt lat="43.38564729318023" lon="-6.351204654201865">
        <ele>741.6</ele>
        <time>2017-08-04T08:03:39.000Z</time>
      </trkpt>
      <trkpt lat="43.38561225682497" lon="-6.351314289495349">
        <ele>742.2</ele>
        <time>2017-08-04T08:03:46.000Z</time>
      </trkpt>
      <trkpt lat="43.38559800758958" lon="-6.351398611441255">
        <ele>743</ele>
        <time>2017-08-04T08:03:51.000Z</time>
      </trkpt>
      <trkpt lat="43.38558451272547" lon="-6.351440940052271">
        <ele>743.4</ele>
        <time>2017-08-04T08:03:54.000Z</time>
      </trkpt>
      <trkpt lat="43.385563641786575" lon="-6.351487543433905">
        <ele>743.8</ele>
        <time>2017-08-04T08:03:57.000Z</time>
      </trkpt>
      <trkpt lat="43.3855053037405" lon="-6.351591311395168">
        <ele>744.4</ele>
        <time>2017-08-04T08:04:03.000Z</time>
      </trkpt>
      <trkpt lat="43.38550379499793" lon="-6.351603548973799">
        <ele>744.4</ele>
        <time>2017-08-04T08:04:04.000Z</time>
      </trkpt>
      <trkpt lat="43.38548862375319" lon="-6.351659540086985">
        <ele>745</ele>
        <time>2017-08-04T08:04:08.000Z</time>
      </trkpt>
      <trkpt lat="43.38547823019326" lon="-6.351698348298669">
        <ele>745.2</ele>
        <time>2017-08-04T08:04:11.000Z</time>
      </trkpt>
      <trkpt lat="43.38546574115753" lon="-6.351705640554428">
        <ele>745.2</ele>
        <time>2017-08-04T08:04:12.000Z</time>
      </trkpt>
      <trkpt lat="43.385449815541506" lon="-6.351761212572455">
        <ele>745.6</ele>
        <time>2017-08-04T08:04:16.000Z</time>
      </trkpt>
      <trkpt lat="43.38544772006571" lon="-6.3517762161791325">
        <ele>745.8</ele>
        <time>2017-08-04T08:04:17.000Z</time>
      </trkpt>
      <trkpt lat="43.385448474437" lon="-6.351837236434221">
        <ele>746.4</ele>
        <time>2017-08-04T08:04:21.000Z</time>
      </trkpt>
      <trkpt lat="43.385446378961205" lon="-6.351855844259262">
        <ele>746.6</ele>
        <time>2017-08-04T08:04:22.000Z</time>
      </trkpt>
      <trkpt lat="43.38543187826872" lon="-6.351923234760761">
        <ele>747.2</ele>
        <time>2017-08-04T08:04:26.000Z</time>
      </trkpt>
      <trkpt lat="43.38542056269944" lon="-6.351992636919022">
        <ele>747.8</ele>
        <time>2017-08-04T08:04:30.000Z</time>
      </trkpt>
      <trkpt lat="43.38541402481496" lon="-6.352112917229533">
        <ele>749.8</ele>
        <time>2017-08-04T08:04:36.000Z</time>
      </trkpt>
      <trkpt lat="43.385406816378236" lon="-6.352188857272267">
        <ele>751</ele>
        <time>2017-08-04T08:04:40.000Z</time>
      </trkpt>
      <trkpt lat="43.38540715165436" lon="-6.352235460653901">
        <ele>751.8</ele>
        <time>2017-08-04T08:04:43.000Z</time>
      </trkpt>
      <trkpt lat="43.385401451960206" lon="-6.352289943024516">
        <ele>752.8</ele>
        <time>2017-08-04T08:04:46.000Z</time>
      </trkpt>
      <trkpt lat="43.38540304452181" lon="-6.352346688508987">
        <ele>753.8</ele>
        <time>2017-08-04T08:04:49.000Z</time>
      </trkpt>
      <trkpt lat="43.38540455326438" lon="-6.352453222498298">
        <ele>755.8</ele>
        <time>2017-08-04T08:04:55.000Z</time>
      </trkpt>
      <trkpt lat="43.38540648110211" lon="-6.352465292438865">
        <ele>756</ele>
        <time>2017-08-04T08:04:56.000Z</time>
      </trkpt>
      <trkpt lat="43.38542282581329" lon="-6.35260971263051">
        <ele>758.8</ele>
        <time>2017-08-04T08:05:05.000Z</time>
      </trkpt>
      <trkpt lat="43.385416120290756" lon="-6.352686071768403">
        <ele>760.2</ele>
        <time>2017-08-04T08:05:09.000Z</time>
      </trkpt>
      <trkpt lat="43.38541829958558" lon="-6.352702584117651">
        <ele>760.4</ele>
        <time>2017-08-04T08:05:10.000Z</time>
      </trkpt>
      <trkpt lat="43.38542466983199" lon="-6.352813895791769">
        <ele>762.6</ele>
        <time>2017-08-04T08:05:16.000Z</time>
      </trkpt>
      <trkpt lat="43.38542517274618" lon="-6.352905509993434">
        <ele>763.8</ele>
        <time>2017-08-04T08:05:21.000Z</time>
      </trkpt>
      <trkpt lat="43.38542525656521" lon="-6.353021766990423">
        <ele>765</ele>
        <time>2017-08-04T08:05:28.000Z</time>
      </trkpt>
      <trkpt lat="43.38540933094919" lon="-6.353129893541336">
        <ele>765.6</ele>
        <time>2017-08-04T08:05:34.000Z</time>
      </trkpt>
      <trkpt lat="43.38534554466605" lon="-6.353214383125305">
        <ele>765.6</ele>
        <time>2017-08-04T08:05:41.000Z</time>
      </trkpt>
      <trkpt lat="43.385257786139846" lon="-6.353318989276886">
        <ele>765.6</ele>
        <time>2017-08-04T08:05:49.000Z</time>
      </trkpt>
      <trkpt lat="43.385225515812635" lon="-6.353370202705264">
        <ele>765.6</ele>
        <time>2017-08-04T08:05:53.000Z</time>
      </trkpt>
      <trkpt lat="43.38517799042165" lon="-6.353435581550002">
        <ele>765.4</ele>
        <time>2017-08-04T08:06:00.000Z</time>
      </trkpt>
      <trkpt lat="43.38519332930446" lon="-6.353421164676547">
        <ele>765.6</ele>
        <time>2017-08-04T08:06:05.000Z</time>
      </trkpt>
      <trkpt lat="43.385195173323154" lon="-6.353416973724961">
        <ele>765.6</ele>
        <time>2017-08-04T08:06:12.000Z</time>
      </trkpt>
      <trkpt lat="43.38520338758826" lon="-6.353414207696915">
        <ele>765.6</ele>
        <time>2017-08-04T08:06:28.000Z</time>
      </trkpt>
      <trkpt lat="43.38519936427474" lon="-6.35340029373765">
        <ele>765.4</ele>
        <time>2017-08-04T08:06:43.000Z</time>
      </trkpt>
      <trkpt lat="43.38519986718893" lon="-6.353402808308601">
        <ele>765.4</ele>
        <time>2017-08-04T08:07:33.000Z</time>
      </trkpt>
      <trkpt lat="43.38516189716756" lon="-6.353458799421787">
        <ele>765.2</ele>
        <time>2017-08-04T08:07:40.000Z</time>
      </trkpt>
      <trkpt lat="43.385143373161554" lon="-6.3534764014184475">
        <ele>765</ele>
        <time>2017-08-04T08:07:44.000Z</time>
      </trkpt>
      <trkpt lat="43.38508738204837" lon="-6.353551335632801">
        <ele>764.8</ele>
        <time>2017-08-04T08:07:50.000Z</time>
      </trkpt>
      <trkpt lat="43.385048070922494" lon="-6.353598358109593">
        <ele>764.2</ele>
        <time>2017-08-04T08:07:54.000Z</time>
      </trkpt>
      <trkpt lat="43.385030049830675" lon="-6.353606320917606">
        <ele>763.8</ele>
        <time>2017-08-04T08:07:55.000Z</time>
      </trkpt>
      <trkpt lat="43.385002641007304" lon="-6.353640267625451">
        <ele>763.4</ele>
        <time>2017-08-04T08:07:58.000Z</time>
      </trkpt>
      <trkpt lat="43.38499752804637" lon="-6.353681338950992">
        <ele>763.6</ele>
        <time>2017-08-04T08:08:00.000Z</time>
      </trkpt>
      <trkpt lat="43.38497313670814" lon="-6.3537011202424765">
        <ele>763</ele>
        <time>2017-08-04T08:08:02.000Z</time>
      </trkpt>
      <trkpt lat="43.38495360687375" lon="-6.353728026151657">
        <ele>762.8</ele>
        <time>2017-08-04T08:08:04.000Z</time>
      </trkpt>
      <trkpt lat="43.38490725494921" lon="-6.353800781071186">
        <ele>762.6</ele>
        <time>2017-08-04T08:08:09.000Z</time>
      </trkpt>
      <trkpt lat="43.38487456552684" lon="-6.353842858225107">
        <ele>762.2</ele>
        <time>2017-08-04T08:08:13.000Z</time>
      </trkpt>
      <trkpt lat="43.38486911728978" lon="-6.353851491585374">
        <ele>762.2</ele>
        <time>2017-08-04T08:08:14.000Z</time>
      </trkpt>
      <trkpt lat="43.38480608537793" lon="-6.3539414294064045">
        <ele>762.4</ele>
        <time>2017-08-04T08:08:21.000Z</time>
      </trkpt>
      <trkpt lat="43.38475327938795" lon="-6.3540153577923775">
        <ele>762.6</ele>
        <time>2017-08-04T08:08:27.000Z</time>
      </trkpt>
      <trkpt lat="43.384693348780274" lon="-6.35408241301775">
        <ele>762.4</ele>
        <time>2017-08-04T08:08:34.000Z</time>
      </trkpt>
      <trkpt lat="43.38466686196625" lon="-6.354121053591371">
        <ele>762.4</ele>
        <time>2017-08-04T08:08:40.000Z</time>
      </trkpt>
      <trkpt lat="43.384637190029025" lon="-6.354154413565993">
        <ele>762.4</ele>
        <time>2017-08-04T08:08:44.000Z</time>
      </trkpt>
      <trkpt lat="43.38462914340198" lon="-6.354170339182019">
        <ele>762.6</ele>
        <time>2017-08-04T08:08:45.000Z</time>
      </trkpt>
      <trkpt lat="43.38461891748011" lon="-6.3541770447045565">
        <ele>762.6</ele>
        <time>2017-08-04T08:08:46.000Z</time>
      </trkpt>
      <trkpt lat="43.38456862606108" lon="-6.35423831641674">
        <ele>762.8</ele>
        <time>2017-08-04T08:08:51.000Z</time>
      </trkpt>
      <trkpt lat="43.3845485933125" lon="-6.354258852079511">
        <ele>762.8</ele>
        <time>2017-08-04T08:08:53.000Z</time>
      </trkpt>
      <trkpt lat="43.38450006209314" lon="-6.354335378855467">
        <ele>763.4</ele>
        <time>2017-08-04T08:08:59.000Z</time>
      </trkpt>
      <trkpt lat="43.384433928877115" lon="-6.354421209543943">
        <ele>763.8</ele>
        <time>2017-08-04T08:09:06.000Z</time>
      </trkpt>
      <trkpt lat="43.3844190929085" lon="-6.354458089917898">
        <ele>764</ele>
        <time>2017-08-04T08:09:08.000Z</time>
      </trkpt>
      <trkpt lat="43.3844003174454" lon="-6.354479463770986">
        <ele>763.6</ele>
        <time>2017-08-04T08:09:10.000Z</time>
      </trkpt>
      <trkpt lat="43.38435304351151" lon="-6.354547021910548">
        <ele>762.8</ele>
        <time>2017-08-04T08:09:15.000Z</time>
      </trkpt>
      <trkpt lat="43.38431331329048" lon="-6.3546146638691425">
        <ele>762.2</ele>
        <time>2017-08-04T08:09:22.000Z</time>
      </trkpt>
      <trkpt lat="43.38425774127245" lon="-6.35468540713191">
        <ele>761</ele>
        <time>2017-08-04T08:09:28.000Z</time>
      </trkpt>
      <trkpt lat="43.38423728942871" lon="-6.354716839268804">
        <ele>760.6</ele>
        <time>2017-08-04T08:09:30.000Z</time>
      </trkpt>
      <trkpt lat="43.38421675376594" lon="-6.354744918644428">
        <ele>760.2</ele>
        <time>2017-08-04T08:09:32.000Z</time>
      </trkpt>
      <trkpt lat="43.38413570076227" lon="-6.3548600021749735">
        <ele>758.6</ele>
        <time>2017-08-04T08:09:41.000Z</time>
      </trkpt>
      <trkpt lat="43.3840686455369" lon="-6.354949688538909">
        <ele>757.4</ele>
        <time>2017-08-04T08:09:48.000Z</time>
      </trkpt>
      <trkpt lat="43.38404048234224" lon="-6.354995034635067">
        <ele>757.4</ele>
        <time>2017-08-04T08:09:52.000Z</time>
      </trkpt>
      <trkpt lat="43.384025897830725" lon="-6.355018671602011">
        <ele>757.4</ele>
        <time>2017-08-04T08:09:54.000Z</time>
      </trkpt>
      <trkpt lat="43.38397233746946" lon="-6.355105172842741">
        <ele>757.4</ele>
        <time>2017-08-04T08:10:02.000Z</time>
      </trkpt>
      <trkpt lat="43.3839185256511" lon="-6.355176251381636">
        <ele>757</ele>
        <time>2017-08-04T08:10:08.000Z</time>
      </trkpt>
      <trkpt lat="43.38388332165778" lon="-6.355239786207676">
        <ele>757</ele>
        <time>2017-08-04T08:10:14.000Z</time>
      </trkpt>
      <trkpt lat="43.383836299180984" lon="-6.355287982150912">
        <ele>756.6</ele>
        <time>2017-08-04T08:10:19.000Z</time>
      </trkpt>
      <trkpt lat="43.38380050845444" lon="-6.355352606624365">
        <ele>756.8</ele>
        <time>2017-08-04T08:10:23.000Z</time>
      </trkpt>
      <trkpt lat="43.38377494364977" lon="-6.355400467291474">
        <ele>757.2</ele>
        <time>2017-08-04T08:10:26.000Z</time>
      </trkpt>
      <trkpt lat="43.383718030527234" lon="-6.355511359870434">
        <ele>758</ele>
        <time>2017-08-04T08:10:32.000Z</time>
      </trkpt>
      <trkpt lat="43.38366899639368" lon="-6.355612110346556">
        <ele>758.6</ele>
        <time>2017-08-04T08:10:39.000Z</time>
      </trkpt>
      <trkpt lat="43.38364636525512" lon="-6.355633987113833">
        <ele>758.4</ele>
        <time>2017-08-04T08:10:41.000Z</time>
      </trkpt>
      <trkpt lat="43.38364309631288" lon="-6.355671035125852">
        <ele>759.2</ele>
        <time>2017-08-04T08:10:43.000Z</time>
      </trkpt>
      <trkpt lat="43.38360847905278" lon="-6.355719566345215">
        <ele>759.2</ele>
        <time>2017-08-04T08:10:47.000Z</time>
      </trkpt>
      <trkpt lat="43.383568078279495" lon="-6.3557779882103205">
        <ele>759.2</ele>
        <time>2017-08-04T08:10:52.000Z</time>
      </trkpt>
      <trkpt lat="43.38356195949018" lon="-6.355787543579936">
        <ele>759.4</ele>
        <time>2017-08-04T08:10:53.000Z</time>
      </trkpt>
      <trkpt lat="43.38354435749352" lon="-6.355822328478098">
        <ele>759.8</ele>
        <time>2017-08-04T08:10:58.000Z</time>
      </trkpt>
      <trkpt lat="43.38351585902274" lon="-6.355914194136858">
        <ele>761</ele>
        <time>2017-08-04T08:11:03.000Z</time>
      </trkpt>
      <trkpt lat="43.38349448516965" lon="-6.3559396751224995">
        <ele>761</ele>
        <time>2017-08-04T08:11:05.000Z</time>
      </trkpt>
      <trkpt lat="43.383431285619736" lon="-6.356037324294448">
        <ele>761.6</ele>
        <time>2017-08-04T08:11:12.000Z</time>
      </trkpt>
      <trkpt lat="43.38340697810054" lon="-6.3560648169368505">
        <ele>761.6</ele>
        <time>2017-08-04T08:11:14.000Z</time>
      </trkpt>
      <trkpt lat="43.38335492648184" lon="-6.35611804202199">
        <ele>761</ele>
        <time>2017-08-04T08:11:19.000Z</time>
      </trkpt>
      <trkpt lat="43.38328158482909" lon="-6.3561873603612185">
        <ele>760.4</ele>
        <time>2017-08-04T08:11:25.000Z</time>
      </trkpt>
      <trkpt lat="43.383230958133936" lon="-6.356245446950197">
        <ele>760.2</ele>
        <time>2017-08-04T08:11:31.000Z</time>
      </trkpt>
      <trkpt lat="43.38318041525781" lon="-6.356294061988592">
        <ele>760</ele>
        <time>2017-08-04T08:11:36.000Z</time>
      </trkpt>
      <trkpt lat="43.38311939500272" lon="-6.35637410916388">
        <ele>760.2</ele>
        <time>2017-08-04T08:11:43.000Z</time>
      </trkpt>
      <trkpt lat="43.38306055404246" lon="-6.356426579877734">
        <ele>760.4</ele>
        <time>2017-08-04T08:11:48.000Z</time>
      </trkpt>
      <trkpt lat="43.383057871833444" lon="-6.35644493624568">
        <ele>760.6</ele>
        <time>2017-08-04T08:11:49.000Z</time>
      </trkpt>
      <trkpt lat="43.38300313800573" lon="-6.356536466628313">
        <ele>761.6</ele>
        <time>2017-08-04T08:11:56.000Z</time>
      </trkpt>
      <trkpt lat="43.38300003670156" lon="-6.356558343395591">
        <ele>762</ele>
        <time>2017-08-04T08:11:57.000Z</time>
      </trkpt>
      <trkpt lat="43.3829686883837" lon="-6.356578543782234">
        <ele>761.8</ele>
        <time>2017-08-04T08:12:00.000Z</time>
      </trkpt>
      <trkpt lat="43.382932478562" lon="-6.356598660349846">
        <ele>761.4</ele>
        <time>2017-08-04T08:12:05.000Z</time>
      </trkpt>
      <trkpt lat="43.382928958162665" lon="-6.356598911806941">
        <ele>761.4</ele>
        <time>2017-08-04T08:12:06.000Z</time>
      </trkpt>
      <trkpt lat="43.382915714755654" lon="-6.3566020131111145">
        <ele>761.2</ele>
        <time>2017-08-04T08:12:08.000Z</time>
      </trkpt>
      <trkpt lat="43.38290800340474" lon="-6.3565928768366575">
        <ele>760.8</ele>
        <time>2017-08-04T08:12:11.000Z</time>
      </trkpt>
      <trkpt lat="43.382887886837125" lon="-6.356589440256357">
        <ele>760.2</ele>
        <time>2017-08-04T08:12:15.000Z</time>
      </trkpt>
      <trkpt lat="43.38283156044781" lon="-6.35656613856554">
        <ele>758.6</ele>
        <time>2017-08-04T08:12:19.000Z</time>
      </trkpt>
      <trkpt lat="43.38277925737202" lon="-6.356557672843337">
        <ele>757.2</ele>
        <time>2017-08-04T08:12:24.000Z</time>
      </trkpt>
      <trkpt lat="43.382760817185044" lon="-6.356558678671718">
        <ele>756.8</ele>
        <time>2017-08-04T08:12:26.000Z</time>
      </trkpt>
      <trkpt lat="43.382711028680205" lon="-6.356588350608945">
        <ele>756.6</ele>
        <time>2017-08-04T08:12:30.000Z</time>
      </trkpt>
      <trkpt lat="43.38266937062144" lon="-6.356646101921797">
        <ele>757.2</ele>
        <time>2017-08-04T08:12:35.000Z</time>
      </trkpt>
      <trkpt lat="43.38265394791961" lon="-6.3566880114376545">
        <ele>758.2</ele>
        <time>2017-08-04T08:12:39.000Z</time>
      </trkpt>
      <trkpt lat="43.38264866732061" lon="-6.356684910133481">
        <ele>758</ele>
        <time>2017-08-04T08:12:41.000Z</time>
      </trkpt>
      <trkpt lat="43.382606422528625" lon="-6.356696644797921">
        <ele>757.6</ele>
        <time>2017-08-04T08:12:45.000Z</time>
      </trkpt>
      <trkpt lat="43.382595693692565" lon="-6.356695303693414">
        <ele>757.2</ele>
        <time>2017-08-04T08:12:46.000Z</time>
      </trkpt>
      <trkpt lat="43.38254448026419" lon="-6.356685915961862">
        <ele>756</ele>
        <time>2017-08-04T08:12:52.000Z</time>
      </trkpt>
      <trkpt lat="43.382519418373704" lon="-6.356679880991578">
        <ele>755.4</ele>
        <time>2017-08-04T08:12:54.000Z</time>
      </trkpt>
      <trkpt lat="43.38243953883648" lon="-6.356665212661028">
        <ele>753.8</ele>
        <time>2017-08-04T08:12:59.000Z</time>
      </trkpt>
      <trkpt lat="43.38235999457538" lon="-6.356648448854685">
        <ele>752.4</ele>
        <time>2017-08-04T08:13:05.000Z</time>
      </trkpt>
      <trkpt lat="43.382348511368036" lon="-6.356649035587907">
        <ele>752.4</ele>
        <time>2017-08-04T08:13:06.000Z</time>
      </trkpt>
      <trkpt lat="43.38227475062013" lon="-6.356642162427306">
        <ele>751.4</ele>
        <time>2017-08-04T08:13:11.000Z</time>
      </trkpt>
      <trkpt lat="43.38216788135469" lon="-6.3566376361995935">
        <ele>750</ele>
        <time>2017-08-04T08:13:18.000Z</time>
      </trkpt>
      <trkpt lat="43.382062101736665" lon="-6.356627242639661">
        <ele>748.6</ele>
        <time>2017-08-04T08:13:25.000Z</time>
      </trkpt>
      <trkpt lat="43.38200183585286" lon="-6.356632523238659">
        <ele>748.2</ele>
        <time>2017-08-04T08:13:30.000Z</time>
      </trkpt>
      <trkpt lat="43.381945760920644" lon="-6.3566432520747185">
        <ele>747.8</ele>
        <time>2017-08-04T08:13:35.000Z</time>
      </trkpt>
      <trkpt lat="43.381946263834834" lon="-6.356641994789243">
        <ele>747.8</ele>
        <time>2017-08-04T08:13:36.000Z</time>
      </trkpt>
      <trkpt lat="43.3819168433547" lon="-6.356648951768875">
        <ele>747.6</ele>
        <time>2017-08-04T08:13:39.000Z</time>
      </trkpt>
      <trkpt lat="43.381808465346694" lon="-6.356690693646669">
        <ele>745.8</ele>
        <time>2017-08-04T08:13:47.000Z</time>
      </trkpt>
      <trkpt lat="43.38169623166323" lon="-6.356761017814279">
        <ele>744.6</ele>
        <time>2017-08-04T08:13:56.000Z</time>
      </trkpt>
      <trkpt lat="43.38160000741482" lon="-6.3568314258009195">
        <ele>744</ele>
        <time>2017-08-04T08:14:04.000Z</time>
      </trkpt>
      <trkpt lat="43.381512416526675" lon="-6.356885069981217">
        <ele>743</ele>
        <time>2017-08-04T08:14:11.000Z</time>
      </trkpt>
      <trkpt lat="43.381439158692956" lon="-6.356939719989896">
        <ele>742.2</ele>
        <time>2017-08-04T08:14:17.000Z</time>
      </trkpt>
      <trkpt lat="43.38133639656007" lon="-6.357019767165184">
        <ele>741.4</ele>
        <time>2017-08-04T08:14:26.000Z</time>
      </trkpt>
      <trkpt lat="43.38125417008996" lon="-6.357131917029619">
        <ele>742.2</ele>
        <time>2017-08-04T08:14:35.000Z</time>
      </trkpt>
      <trkpt lat="43.38119759224355" lon="-6.357240546494722">
        <ele>743.4</ele>
        <time>2017-08-04T08:14:43.000Z</time>
      </trkpt>
      <trkpt lat="43.381187450140715" lon="-6.357248425483704">
        <ele>743.4</ele>
        <time>2017-08-04T08:14:44.000Z</time>
      </trkpt>
      <trkpt lat="43.381134644150734" lon="-6.357304751873016">
        <ele>743.6</ele>
        <time>2017-08-04T08:14:49.000Z</time>
      </trkpt>
      <trkpt lat="43.38107722811401" lon="-6.357374908402562">
        <ele>743.8</ele>
        <time>2017-08-04T08:14:56.000Z</time>
      </trkpt>
      <trkpt lat="43.381060464307666" lon="-6.357393013313413">
        <ele>743.6</ele>
        <time>2017-08-04T08:14:58.000Z</time>
      </trkpt>
      <trkpt lat="43.38104445487261" lon="-6.357418075203896">
        <ele>743.8</ele>
        <time>2017-08-04T08:15:05.000Z</time>
      </trkpt>
      <trkpt lat="43.381012603640556" lon="-6.357457470148802">
        <ele>743.6</ele>
        <time>2017-08-04T08:15:22.000Z</time>
      </trkpt>
      <trkpt lat="43.38094328530133" lon="-6.357554784044623">
        <ele>742.6</ele>
        <time>2017-08-04T08:15:30.000Z</time>
      </trkpt>
      <trkpt lat="43.380897184833884" lon="-6.3576210010796785">
        <ele>741.8</ele>
        <time>2017-08-04T08:15:35.000Z</time>
      </trkpt>
      <trkpt lat="43.38085795752704" lon="-6.357673807069659">
        <ele>741.2</ele>
        <time>2017-08-04T08:15:39.000Z</time>
      </trkpt>
      <trkpt lat="43.38077816180885" lon="-6.357796434313059">
        <ele>739.8</ele>
        <time>2017-08-04T08:15:48.000Z</time>
      </trkpt>
      <trkpt lat="43.38070498779416" lon="-6.3578960951417685">
        <ele>738.2</ele>
        <time>2017-08-04T08:15:56.000Z</time>
      </trkpt>
      <trkpt lat="43.380647487938404" lon="-6.35796750895679">
        <ele>736.8</ele>
        <time>2017-08-04T08:16:02.000Z</time>
      </trkpt>
      <trkpt lat="43.380565932020545" lon="-6.358052501454949">
        <ele>734.6</ele>
        <time>2017-08-04T08:16:10.000Z</time>
      </trkpt>
      <trkpt lat="43.38052117265761" lon="-6.35810773819685">
        <ele>734</ele>
        <time>2017-08-04T08:16:14.000Z</time>
      </trkpt>
      <trkpt lat="43.38044598698616" lon="-6.358182756230235">
        <ele>732.6</ele>
        <time>2017-08-04T08:16:20.000Z</time>
      </trkpt>
      <trkpt lat="43.38037172332406" lon="-6.358275460079312">
        <ele>731.6</ele>
        <time>2017-08-04T08:16:27.000Z</time>
      </trkpt>
      <trkpt lat="43.380299638956785" lon="-6.3583222310990095">
        <ele>729.6</ele>
        <time>2017-08-04T08:16:33.000Z</time>
      </trkpt>
      <trkpt lat="43.38020668365061" lon="-6.358392219990492">
        <ele>727</ele>
        <time>2017-08-04T08:16:41.000Z</time>
      </trkpt>
      <trkpt lat="43.380129067227244" lon="-6.358485259115696">
        <ele>725.2</ele>
        <time>2017-08-04T08:16:49.000Z</time>
      </trkpt>
      <trkpt lat="43.3801157400012" lon="-6.358511075377464">
        <ele>725</ele>
        <time>2017-08-04T08:16:52.000Z</time>
      </trkpt>
      <trkpt lat="43.38009545579553" lon="-6.358551224693656">
        <ele>724.8</ele>
        <time>2017-08-04T08:16:55.000Z</time>
      </trkpt>
      <trkpt lat="43.38005907833576" lon="-6.358628673478961">
        <ele>724.2</ele>
        <time>2017-08-04T08:17:01.000Z</time>
      </trkpt>
      <trkpt lat="43.38002052158117" lon="-6.358763789758086">
        <ele>724.2</ele>
        <time>2017-08-04T08:17:09.000Z</time>
      </trkpt>
      <trkpt lat="43.379990849643946" lon="-6.358884572982788">
        <ele>724</ele>
        <time>2017-08-04T08:17:16.000Z</time>
      </trkpt>
      <trkpt lat="43.37997978553176" lon="-6.358954310417175">
        <ele>723.8</ele>
        <time>2017-08-04T08:17:21.000Z</time>
      </trkpt>
      <trkpt lat="43.37997634895146" lon="-6.3589610159397125">
        <ele>723.8</ele>
        <time>2017-08-04T08:17:23.000Z</time>
      </trkpt>
      <trkpt lat="43.379919435828924" lon="-6.3590882532298565">
        <ele>722.8</ele>
        <time>2017-08-04T08:17:32.000Z</time>
      </trkpt>
      <trkpt lat="43.37986629456282" lon="-6.35920082218945">
        <ele>722.8</ele>
        <time>2017-08-04T08:17:40.000Z</time>
      </trkpt>
      <trkpt lat="43.37983318604529" lon="-6.359318923205137">
        <ele>723.8</ele>
        <time>2017-08-04T08:17:48.000Z</time>
      </trkpt>
      <trkpt lat="43.37980359792709" lon="-6.3594145607203245">
        <ele>724.6</ele>
        <time>2017-08-04T08:17:54.000Z</time>
      </trkpt>
      <trkpt lat="43.379790522158146" lon="-6.359539618715644">
        <ele>725.6</ele>
        <time>2017-08-04T08:18:01.000Z</time>
      </trkpt>
      <trkpt lat="43.37977468036115" lon="-6.359652606770396">
        <ele>726.6</ele>
        <time>2017-08-04T08:18:08.000Z</time>
      </trkpt>
      <trkpt lat="43.37976671755314" lon="-6.359672136604786">
        <ele>726.6</ele>
        <time>2017-08-04T08:18:09.000Z</time>
      </trkpt>
      <trkpt lat="43.3797428291291" lon="-6.359759476035833">
        <ele>726.4</ele>
        <time>2017-08-04T08:18:14.000Z</time>
      </trkpt>
      <trkpt lat="43.37971366010606" lon="-6.359900124371052">
        <ele>726.4</ele>
        <time>2017-08-04T08:18:22.000Z</time>
      </trkpt>
      <trkpt lat="43.37967988103628" lon="-6.360062984749675">
        <ele>725.8</ele>
        <time>2017-08-04T08:18:31.000Z</time>
      </trkpt>
      <trkpt lat="43.379642916843295" lon="-6.360228024423122">
        <ele>725.2</ele>
        <time>2017-08-04T08:18:40.000Z</time>
      </trkpt>
      <trkpt lat="43.379611149430275" lon="-6.360348891466856">
        <ele>725.8</ele>
        <time>2017-08-04T08:18:47.000Z</time>
      </trkpt>
      <trkpt lat="43.37955800816417" lon="-6.36051619425416">
        <ele>727.8</ele>
        <time>2017-08-04T08:18:57.000Z</time>
      </trkpt>
      <trkpt lat="43.379474356770515" lon="-6.360664973035455">
        <ele>727.2</ele>
        <time>2017-08-04T08:19:07.000Z</time>
      </trkpt>
      <trkpt lat="43.37941266596317" lon="-6.3607678189873695">
        <ele>726.6</ele>
        <time>2017-08-04T08:19:14.000Z</time>
      </trkpt>
      <trkpt lat="43.37934695184231" lon="-6.360876448452473">
        <ele>726.8</ele>
        <time>2017-08-04T08:19:22.000Z</time>
      </trkpt>
      <trkpt lat="43.3792591933161" lon="-6.3609604351222515">
        <ele>726.6</ele>
        <time>2017-08-04T08:19:30.000Z</time>
      </trkpt>
      <trkpt lat="43.37914486415684" lon="-6.361013324931264">
        <ele>725.6</ele>
        <time>2017-08-04T08:19:39.000Z</time>
      </trkpt>
      <trkpt lat="43.379020895808935" lon="-6.361085744574666">
        <ele>723.6</ele>
        <time>2017-08-04T08:19:49.000Z</time>
      </trkpt>
      <trkpt lat="43.378862142562866" lon="-6.361228572204709">
        <ele>720.8</ele>
        <time>2017-08-04T08:20:03.000Z</time>
      </trkpt>
      <trkpt lat="43.378844959661365" lon="-6.3612522929906845">
        <ele>720.4</ele>
        <time>2017-08-04T08:20:05.000Z</time>
      </trkpt>
      <trkpt lat="43.378773629665375" lon="-6.36135958135128">
        <ele>719.6</ele>
        <time>2017-08-04T08:20:13.000Z</time>
      </trkpt>
      <trkpt lat="43.378711855039" lon="-6.3615356013178825">
        <ele>721</ele>
        <time>2017-08-04T08:20:23.000Z</time>
      </trkpt>
      <trkpt lat="43.378686206415296" lon="-6.3616283889859915">
        <ele>722</ele>
        <time>2017-08-04T08:20:28.000Z</time>
      </trkpt>
      <trkpt lat="43.378677321597934" lon="-6.361682116985321">
        <ele>723.8</ele>
        <time>2017-08-04T08:20:31.000Z</time>
      </trkpt>
      <trkpt lat="43.37862250395119" lon="-6.361804744228721">
        <ele>727.2</ele>
        <time>2017-08-04T08:20:39.000Z</time>
      </trkpt>
      <trkpt lat="43.37857556529343" lon="-6.361847827211022">
        <ele>727.8</ele>
        <time>2017-08-04T08:20:44.000Z</time>
      </trkpt>
      <trkpt lat="43.37855536490679" lon="-6.361856879666448">
        <ele>728</ele>
        <time>2017-08-04T08:20:46.000Z</time>
      </trkpt>
      <trkpt lat="43.37852560915053" lon="-6.361864255741239">
        <ele>728.2</ele>
        <time>2017-08-04T08:20:49.000Z</time>
      </trkpt>
      <trkpt lat="43.37851529940963" lon="-6.361867105588317">
        <ele>728.2</ele>
        <time>2017-08-04T08:20:50.000Z</time>
      </trkpt>
      <trkpt lat="43.37841781787574" lon="-6.361871296539903">
        <ele>727.6</ele>
        <time>2017-08-04T08:20:58.000Z</time>
      </trkpt>
      <trkpt lat="43.37840675376356" lon="-6.361873978748918">
        <ele>727.6</ele>
        <time>2017-08-04T08:20:59.000Z</time>
      </trkpt>
      <trkpt lat="43.37838051840663" lon="-6.3618698716163635">
        <ele>727.2</ele>
        <time>2017-08-04T08:21:01.000Z</time>
      </trkpt>
      <trkpt lat="43.378354869782925" lon="-6.361862495541573">
        <ele>726.8</ele>
        <time>2017-08-04T08:21:03.000Z</time>
      </trkpt>
      <trkpt lat="43.37834430858493" lon="-6.361850090324879">
        <ele>726.4</ele>
        <time>2017-08-04T08:21:04.000Z</time>
      </trkpt>
      <trkpt lat="43.37829510681331" lon="-6.361806755885482">
        <ele>724.8</ele>
        <time>2017-08-04T08:21:09.000Z</time>
      </trkpt>
      <trkpt lat="43.37827993556857" lon="-6.361808264628053">
        <ele>725</ele>
        <time>2017-08-04T08:21:10.000Z</time>
      </trkpt>
      <trkpt lat="43.37824699468911" lon="-6.361779095605016">
        <ele>724</ele>
        <time>2017-08-04T08:21:13.000Z</time>
      </trkpt>
      <trkpt lat="43.378230817615986" lon="-6.361772892996669">
        <ele>724</ele>
        <time>2017-08-04T08:21:15.000Z</time>
      </trkpt>
      <trkpt lat="43.378221932798624" lon="-6.3617567997425795">
        <ele>723.4</ele>
        <time>2017-08-04T08:21:16.000Z</time>
      </trkpt>
      <trkpt lat="43.37819276377559" lon="-6.361750764772296">
        <ele>723.4</ele>
        <time>2017-08-04T08:21:18.000Z</time>
      </trkpt>
      <trkpt lat="43.37816510349512" lon="-6.361750094220042">
        <ele>723.4</ele>
        <time>2017-08-04T08:21:20.000Z</time>
      </trkpt>
      <trkpt lat="43.378141885623336" lon="-6.361733749508858">
        <ele>723.2</ele>
        <time>2017-08-04T08:21:22.000Z</time>
      </trkpt>
      <trkpt lat="43.37802336551249" lon="-6.361678680405021">
        <ele>722.4</ele>
        <time>2017-08-04T08:21:31.000Z</time>
      </trkpt>
      <trkpt lat="43.37790325284004" lon="-6.361655127257109">
        <ele>722.2</ele>
        <time>2017-08-04T08:21:40.000Z</time>
      </trkpt>
      <trkpt lat="43.377774422988296" lon="-6.36160290800035">
        <ele>721</ele>
        <time>2017-08-04T08:21:49.000Z</time>
      </trkpt>
      <trkpt lat="43.377656154334545" lon="-6.361560998484492">
        <ele>718.4</ele>
        <time>2017-08-04T08:21:58.000Z</time>
      </trkpt>
      <trkpt lat="43.3775133267045" lon="-6.361558064818382">
        <ele>716.4</ele>
        <time>2017-08-04T08:22:09.000Z</time>
      </trkpt>
      <trkpt lat="43.37746244855225" lon="-6.361570050939918">
        <ele>716.4</ele>
        <time>2017-08-04T08:22:13.000Z</time>
      </trkpt>
      <trkpt lat="43.37742934003472" lon="-6.361599639058113">
        <ele>716.4</ele>
        <time>2017-08-04T08:22:16.000Z</time>
      </trkpt>
      <trkpt lat="43.37737921625376" lon="-6.361686810851097">
        <ele>716.6</ele>
        <time>2017-08-04T08:22:22.000Z</time>
      </trkpt>
      <trkpt lat="43.37729640305042" lon="-6.361778257414699">
        <ele>715.8</ele>
        <time>2017-08-04T08:22:30.000Z</time>
      </trkpt>
      <trkpt lat="43.377214008942246" lon="-6.36190046556294">
        <ele>715.8</ele>
        <time>2017-08-04T08:22:39.000Z</time>
      </trkpt>
      <trkpt lat="43.37713345885277" lon="-6.362054357305169">
        <ele>716</ele>
        <time>2017-08-04T08:22:49.000Z</time>
      </trkpt>
      <trkpt lat="43.37703245691955" lon="-6.362229287624359">
        <ele>716.2</ele>
        <time>2017-08-04T08:23:01.000Z</time>
      </trkpt>
      <trkpt lat="43.37692064233124" lon="-6.362399272620678">
        <ele>715.4</ele>
        <time>2017-08-04T08:23:13.000Z</time>
      </trkpt>
      <trkpt lat="43.37682475335896" lon="-6.362538076937199">
        <ele>715</ele>
        <time>2017-08-04T08:23:23.000Z</time>
      </trkpt>
      <trkpt lat="43.376705311238766" lon="-6.362727675586939">
        <ele>714.8</ele>
        <time>2017-08-04T08:23:36.000Z</time>
      </trkpt>
      <trkpt lat="43.3766966778785" lon="-6.362744187936187">
        <ele>715</ele>
        <time>2017-08-04T08:23:37.000Z</time>
      </trkpt>
      <trkpt lat="43.376593831926584" lon="-6.362898834049702">
        <ele>714.4</ele>
        <time>2017-08-04T08:23:48.000Z</time>
      </trkpt>
      <trkpt lat="43.376499535515904" lon="-6.363043673336506">
        <ele>714</ele>
        <time>2017-08-04T08:23:58.000Z</time>
      </trkpt>
      <trkpt lat="43.3764012157917" lon="-6.3631589245051146">
        <ele>713.2</ele>
        <time>2017-08-04T08:24:07.000Z</time>
      </trkpt>
      <trkpt lat="43.376288898289204" lon="-6.363246515393257">
        <ele>712.2</ele>
        <time>2017-08-04T08:24:16.000Z</time>
      </trkpt>
      <trkpt lat="43.37627221830189" lon="-6.363253220915794">
        <ele>712</ele>
        <time>2017-08-04T08:24:17.000Z</time>
      </trkpt>
      <trkpt lat="43.37617146782577" lon="-6.363340308889747">
        <ele>711.6</ele>
        <time>2017-08-04T08:24:26.000Z</time>
      </trkpt>
      <trkpt lat="43.37607230991125" lon="-6.363496463745832">
        <ele>712.6</ele>
        <time>2017-08-04T08:24:37.000Z</time>
      </trkpt>
      <trkpt lat="43.37597222998738" lon="-6.363671226426959">
        <ele>713.2</ele>
        <time>2017-08-04T08:24:49.000Z</time>
      </trkpt>
      <trkpt lat="43.375868294388056" lon="-6.3638158980757">
        <ele>713</ele>
        <time>2017-08-04T08:25:00.000Z</time>
      </trkpt>
      <trkpt lat="43.375764694064856" lon="-6.3639299757778645">
        <ele>711.6</ele>
        <time>2017-08-04T08:25:10.000Z</time>
      </trkpt>
      <trkpt lat="43.37569755502045" lon="-6.36400256305933">
        <ele>710.8</ele>
        <time>2017-08-04T08:25:16.000Z</time>
      </trkpt>
      <trkpt lat="43.37562999688089" lon="-6.364068612456322">
        <ele>709.8</ele>
        <time>2017-08-04T08:25:23.000Z</time>
      </trkpt>
      <trkpt lat="43.37562303990126" lon="-6.364080179482698">
        <ele>709.6</ele>
        <time>2017-08-04T08:25:30.000Z</time>
      </trkpt>
      <trkpt lat="43.37560451589525" lon="-6.3640860468149185">
        <ele>709.4</ele>
        <time>2017-08-04T08:25:32.000Z</time>
      </trkpt>
      <trkpt lat="43.375592697411776" lon="-6.364105409011245">
        <ele>709.2</ele>
        <time>2017-08-04T08:25:34.000Z</time>
      </trkpt>
      <trkpt lat="43.375596050173044" lon="-6.364118987694383">
        <ele>709.4</ele>
        <time>2017-08-04T08:25:40.000Z</time>
      </trkpt>
      <trkpt lat="43.37554106488824" lon="-6.364128878340125">
        <ele>708.4</ele>
        <time>2017-08-04T08:26:20.000Z</time>
      </trkpt>
      <trkpt lat="43.3755068667233" lon="-6.364170620217919">
        <ele>708.2</ele>
        <time>2017-08-04T08:26:26.000Z</time>
      </trkpt>
      <trkpt lat="43.37546587921679" lon="-6.364198448136449">
        <ele>708.2</ele>
        <time>2017-08-04T08:26:33.000Z</time>
      </trkpt>
      <trkpt lat="43.37538910098374" lon="-6.364256031811237">
        <ele>708</ele>
        <time>2017-08-04T08:26:42.000Z</time>
      </trkpt>
      <trkpt lat="43.37530025281012" lon="-6.36432945728302">
        <ele>707.6</ele>
        <time>2017-08-04T08:26:52.000Z</time>
      </trkpt>
      <trkpt lat="43.37519480846822" lon="-6.364444121718407">
        <ele>708.2</ele>
        <time>2017-08-04T08:27:04.000Z</time>
      </trkpt>
      <trkpt lat="43.37517871521413" lon="-6.364473709836602">
        <ele>708.8</ele>
        <time>2017-08-04T08:27:07.000Z</time>
      </trkpt>
      <trkpt lat="43.37518357671797" lon="-6.3645074889063835">
        <ele>709.8</ele>
        <time>2017-08-04T08:27:11.000Z</time>
      </trkpt>
      <trkpt lat="43.37518944405019" lon="-6.364507740363479">
        <ele>710</ele>
        <time>2017-08-04T08:27:18.000Z</time>
      </trkpt>
      <trkpt lat="43.37519749067724" lon="-6.3645104225724936">
        <ele>710.2</ele>
        <time>2017-08-04T08:27:41.000Z</time>
      </trkpt>
      <trkpt lat="43.37518357671797" lon="-6.3644980173558">
        <ele>709.6</ele>
        <time>2017-08-04T08:28:26.000Z</time>
      </trkpt>
      <trkpt lat="43.37517754174769" lon="-6.364474380388856">
        <ele>708.8</ele>
        <time>2017-08-04T08:29:01.000Z</time>
      </trkpt>
      <trkpt lat="43.3751958142966" lon="-6.364496760070324">
        <ele>709.8</ele>
        <time>2017-08-04T08:29:08.000Z</time>
      </trkpt>
      <trkpt lat="43.37517963722348" lon="-6.364494161680341">
        <ele>709.4</ele>
        <time>2017-08-04T08:29:56.000Z</time>
      </trkpt>
      <trkpt lat="43.375197825953364" lon="-6.364491647109389">
        <ele>709.6</ele>
        <time>2017-08-04T08:30:01.000Z</time>
      </trkpt>
      <trkpt lat="43.37520754896104" lon="-6.364496173337102">
        <ele>710</ele>
        <time>2017-08-04T08:30:02.000Z</time>
      </trkpt>
      <trkpt lat="43.375220289453864" lon="-6.3645189721137285">
        <ele>710.8</ele>
        <time>2017-08-04T08:30:06.000Z</time>
      </trkpt>
      <trkpt lat="43.375209644436836" lon="-6.364517714828253">
        <ele>710.6</ele>
        <time>2017-08-04T08:30:53.000Z</time>
      </trkpt>
      <trkpt lat="43.37521065026522" lon="-6.364518720656633">
        <ele>710.6</ele>
        <time>2017-08-04T08:31:03.000Z</time>
      </trkpt>
      <trkpt lat="43.37520184926689" lon="-6.364482846111059">
        <ele>709.4</ele>
        <time>2017-08-04T08:31:30.000Z</time>
      </trkpt>
      <trkpt lat="43.3751717582345" lon="-6.364464992657304">
        <ele>708.4</ele>
        <time>2017-08-04T08:31:33.000Z</time>
      </trkpt>
      <trkpt lat="43.37515600025654" lon="-6.364467926323414">
        <ele>708.4</ele>
        <time>2017-08-04T08:31:35.000Z</time>
      </trkpt>
      <trkpt lat="43.375158263370395" lon="-6.364458538591862">
        <ele>708.2</ele>
        <time>2017-08-04T08:31:43.000Z</time>
      </trkpt>
      <trkpt lat="43.37514384649694" lon="-6.364431632682681">
        <ele>707.4</ele>
        <time>2017-08-04T08:31:54.000Z</time>
      </trkpt>
      <trkpt lat="43.37513982318342" lon="-6.364433979615569">
        <ele>707.4</ele>
        <time>2017-08-04T08:32:04.000Z</time>
      </trkpt>
      <trkpt lat="43.37516052648425" lon="-6.36446138843894">
        <ele>708.2</ele>
        <time>2017-08-04T08:32:23.000Z</time>
      </trkpt>
      <trkpt lat="43.37515759281814" lon="-6.364479996263981">
        <ele>708.6</ele>
        <time>2017-08-04T08:32:29.000Z</time>
      </trkpt>
      <trkpt lat="43.37518542073667" lon="-6.364482678472996">
        <ele>709.2</ele>
        <time>2017-08-04T08:33:12.000Z</time>
      </trkpt>
      <trkpt lat="43.37519162334502" lon="-6.36448192410171">
        <ele>709.2</ele>
        <time>2017-08-04T08:33:43.000Z</time>
      </trkpt>
      <trkpt lat="43.37519522756338" lon="-6.364464154466987">
        <ele>708.8</ele>
        <time>2017-08-04T08:33:51.000Z</time>
      </trkpt>
      <trkpt lat="43.37520000524819" lon="-6.364467842504382">
        <ele>709</ele>
        <time>2017-08-04T08:34:02.000Z</time>
      </trkpt>
      <trkpt lat="43.37521425448358" lon="-6.364419562742114">
        <ele>708</ele>
        <time>2017-08-04T08:34:18.000Z</time>
      </trkpt>
      <trkpt lat="43.37522146292031" lon="-6.3643514178693295">
        <ele>706.8</ele>
        <time>2017-08-04T08:34:22.000Z</time>
      </trkpt>
      <trkpt lat="43.375217355787754" lon="-6.364365415647626">
        <ele>707</ele>
        <time>2017-08-04T08:34:35.000Z</time>
      </trkpt>
      <trkpt lat="43.37520872242749" lon="-6.364371282979846">
        <ele>707</ele>
        <time>2017-08-04T08:34:43.000Z</time>
      </trkpt>
      <trkpt lat="43.37519229389727" lon="-6.364390980452299">
        <ele>707.2</ele>
        <time>2017-08-04T08:35:37.000Z</time>
      </trkpt>
      <trkpt lat="43.37520260363817" lon="-6.36438176035881">
        <ele>707.2</ele>
        <time>2017-08-04T08:35:53.000Z</time>
      </trkpt>
      <trkpt lat="43.3752029389143" lon="-6.364380922168493">
        <ele>707.2</ele>
        <time>2017-08-04T08:35:55.000Z</time>
      </trkpt>
      <trkpt lat="43.37519430555403" lon="-6.3643784914165735">
        <ele>707</ele>
        <time>2017-08-04T08:36:03.000Z</time>
      </trkpt>
      <trkpt lat="43.37517997249961" lon="-6.3644129410386086">
        <ele>707.4</ele>
        <time>2017-08-04T08:36:09.000Z</time>
      </trkpt>
      <trkpt lat="43.37517594918609" lon="-6.3644197303801775">
        <ele>707.6</ele>
        <time>2017-08-04T08:36:10.000Z</time>
      </trkpt>
      <trkpt lat="43.37520285509527" lon="-6.364430291578174">
        <ele>708</ele>
        <time>2017-08-04T08:36:18.000Z</time>
      </trkpt>
      <trkpt lat="43.375212997198105" lon="-6.3644179701805115">
        <ele>708</ele>
        <time>2017-08-04T08:36:23.000Z</time>
      </trkpt>
      <trkpt lat="43.375218864530325" lon="-6.364429956302047">
        <ele>708.2</ele>
        <time>2017-08-04T08:37:34.000Z</time>
      </trkpt>
      <trkpt lat="43.37522590532899" lon="-6.364412438124418">
        <ele>708</ele>
        <time>2017-08-04T08:38:33.000Z</time>
      </trkpt>
      <trkpt lat="43.37521769106388" lon="-6.364400368183851">
        <ele>707.6</ele>
        <time>2017-08-04T08:38:40.000Z</time>
      </trkpt>
      <trkpt lat="43.375203190371394" lon="-6.364370947703719">
        <ele>707</ele>
        <time>2017-08-04T08:38:49.000Z</time>
      </trkpt>
      <trkpt lat="43.375217942520976" lon="-6.364398021250963">
        <ele>707.6</ele>
        <time>2017-08-04T08:39:11.000Z</time>
      </trkpt>
      <trkpt lat="43.37519966997206" lon="-6.3644335605204105">
        <ele>708.2</ele>
        <time>2017-08-04T08:39:16.000Z</time>
      </trkpt>
      <trkpt lat="43.37517351843417" lon="-6.36446968652308">
        <ele>708.6</ele>
        <time>2017-08-04T08:39:22.000Z</time>
      </trkpt>
      <trkpt lat="43.37517670355737" lon="-6.364473374560475">
        <ele>708.8</ele>
        <time>2017-08-04T08:39:29.000Z</time>
      </trkpt>
      <trkpt lat="43.375185169279575" lon="-6.3644918985664845">
        <ele>709.4</ele>
        <time>2017-08-04T08:39:37.000Z</time>
      </trkpt>
      <trkpt lat="43.37517645210028" lon="-6.364486198872328">
        <ele>709</ele>
        <time>2017-08-04T08:41:04.000Z</time>
      </trkpt>
      <trkpt lat="43.37521215900779" lon="-6.364481337368488">
        <ele>709.6</ele>
        <time>2017-08-04T08:42:04.000Z</time>
      </trkpt>
      <trkpt lat="43.37520000524819" lon="-6.364477649331093">
        <ele>709.2</ele>
        <time>2017-08-04T08:42:10.000Z</time>
      </trkpt>
      <trkpt lat="43.37518835440278" lon="-6.36448192410171">
        <ele>709.2</ele>
        <time>2017-08-04T08:42:18.000Z</time>
      </trkpt>
      <trkpt lat="43.375201346352696" lon="-6.364471195265651">
        <ele>709.2</ele>
        <time>2017-08-04T08:42:23.000Z</time>
      </trkpt>
      <trkpt lat="43.37519212625921" lon="-6.364474128931761">
        <ele>709</ele>
        <time>2017-08-04T08:42:42.000Z</time>
      </trkpt>
      <trkpt lat="43.37517410516739" lon="-6.364444037899375">
        <ele>708</ele>
        <time>2017-08-04T08:44:00.000Z</time>
      </trkpt>
      <trkpt lat="43.37517268024385" lon="-6.364457113668323">
        <ele>708.4</ele>
        <time>2017-08-04T08:44:09.000Z</time>
      </trkpt>
      <trkpt lat="43.37517259642482" lon="-6.364464238286018">
        <ele>708.4</ele>
        <time>2017-08-04T08:44:47.000Z</time>
      </trkpt>
      <trkpt lat="43.37517075240612" lon="-6.364466082304716">
        <ele>708.4</ele>
        <time>2017-08-04T08:44:56.000Z</time>
      </trkpt>
      <trkpt lat="43.37517527863383" lon="-6.364444876089692">
        <ele>708</ele>
        <time>2017-08-04T08:45:12.000Z</time>
      </trkpt>
      <trkpt lat="43.37517661973834" lon="-6.364417718723416">
        <ele>707.6</ele>
        <time>2017-08-04T08:45:34.000Z</time>
      </trkpt>
      <trkpt lat="43.37518743239343" lon="-6.364460550248623">
        <ele>708.6</ele>
        <time>2017-08-04T08:46:15.000Z</time>
      </trkpt>
      <trkpt lat="43.37519288063049" lon="-6.364472368732095">
        <ele>709</ele>
        <time>2017-08-04T08:46:23.000Z</time>
      </trkpt>
      <trkpt lat="43.37520771659911" lon="-6.364457113668323">
        <ele>708.8</ele>
        <time>2017-08-04T08:48:45.000Z</time>
      </trkpt>
      <trkpt lat="43.37518458254635" lon="-6.364424591884017">
        <ele>707.8</ele>
        <time>2017-08-04T08:50:23.000Z</time>
      </trkpt>
      <trkpt lat="43.37512188591063" lon="-6.364468177780509">
        <ele>708</ele>
        <time>2017-08-04T08:50:30.000Z</time>
      </trkpt>
      <trkpt lat="43.37511274963617" lon="-6.364476643502712">
        <ele>708.2</ele>
        <time>2017-08-04T08:50:31.000Z</time>
      </trkpt>
      <trkpt lat="43.375066397711635" lon="-6.364496340975165">
        <ele>708</ele>
        <time>2017-08-04T08:50:36.000Z</time>
      </trkpt>
      <trkpt lat="43.375056590884924" lon="-6.364498855546117">
        <ele>708</ele>
        <time>2017-08-04T08:50:37.000Z</time>
      </trkpt>
      <trkpt lat="43.37499590590596" lon="-6.3645154517143965">
        <ele>707.6</ele>
        <time>2017-08-04T08:50:44.000Z</time>
      </trkpt>
      <trkpt lat="43.37498978711665" lon="-6.364519810304046">
        <ele>707.8</ele>
        <time>2017-08-04T08:50:53.000Z</time>
      </trkpt>
      <trkpt lat="43.374957935884595" lon="-6.364544788375497">
        <ele>708</ele>
        <time>2017-08-04T08:51:10.000Z</time>
      </trkpt>
      <trkpt lat="43.37492985650897" lon="-6.364557780325413">
        <ele>707.8</ele>
        <time>2017-08-04T08:51:15.000Z</time>
      </trkpt>
      <trkpt lat="43.37489465251565" lon="-6.3645843509584665">
        <ele>708</ele>
        <time>2017-08-04T08:51:19.000Z</time>
      </trkpt>
      <trkpt lat="43.37488979101181" lon="-6.364587368443608">
        <ele>708</ele>
        <time>2017-08-04T08:51:20.000Z</time>
      </trkpt>
      <trkpt lat="43.37485416792333" lon="-6.364620309323072">
        <ele>708.4</ele>
        <time>2017-08-04T08:51:25.000Z</time>
      </trkpt>
      <trkpt lat="43.3747848495841" lon="-6.364690214395523">
        <ele>709</ele>
        <time>2017-08-04T08:51:34.000Z</time>
      </trkpt>
      <trkpt lat="43.37472206912935" lon="-6.364764142781496">
        <ele>709</ele>
        <time>2017-08-04T08:51:42.000Z</time>
      </trkpt>
      <trkpt lat="43.374654008075595" lon="-6.36484494432807">
        <ele>708.8</ele>
        <time>2017-08-04T08:51:50.000Z</time>
      </trkpt>
      <trkpt lat="43.374586030840874" lon="-6.36491484940052">
        <ele>708.6</ele>
        <time>2017-08-04T08:51:58.000Z</time>
      </trkpt>
      <trkpt lat="43.374508917331696" lon="-6.364975282922387">
        <ele>708.2</ele>
        <time>2017-08-04T08:52:06.000Z</time>
      </trkpt>
      <trkpt lat="43.3744359947741" lon="-6.364999674260616">
        <ele>707.6</ele>
        <time>2017-08-04T08:52:11.000Z</time>
      </trkpt>
      <trkpt lat="43.37437706999481" lon="-6.365010486915708">
        <ele>707</ele>
        <time>2017-08-04T08:52:16.000Z</time>
      </trkpt>
      <trkpt lat="43.374365251511335" lon="-6.365010067820549">
        <ele>706.8</ele>
        <time>2017-08-04T08:52:17.000Z</time>
      </trkpt>
      <trkpt lat="43.374309511855245" lon="-6.365020042285323">
        <ele>706.4</ele>
        <time>2017-08-04T08:52:22.000Z</time>
      </trkpt>
      <trkpt lat="43.37429660372436" lon="-6.3650240655988455">
        <ele>706.2</ele>
        <time>2017-08-04T08:52:23.000Z</time>
      </trkpt>
      <trkpt lat="43.374214796349406" lon="-6.365055330097675">
        <ele>705.6</ele>
        <time>2017-08-04T08:52:30.000Z</time>
      </trkpt>
      <trkpt lat="43.374149249866605" lon="-6.365125821903348">
        <ele>705.4</ele>
        <time>2017-08-04T08:52:37.000Z</time>
      </trkpt>
      <trkpt lat="43.37407540529966" lon="-6.365216849371791">
        <ele>705.4</ele>
        <time>2017-08-04T08:52:45.000Z</time>
      </trkpt>
      <trkpt lat="43.374012876302004" lon="-6.365220872685313">
        <ele>705</ele>
        <time>2017-08-04T08:52:51.000Z</time>
      </trkpt>
      <trkpt lat="43.37400055490434" lon="-6.3652166817337275">
        <ele>704.8</ele>
        <time>2017-08-04T08:52:52.000Z</time>
      </trkpt>
      <trkpt lat="43.37390667758882" lon="-6.365195391699672">
        <ele>704</ele>
        <time>2017-08-04T08:52:59.000Z</time>
      </trkpt>
      <trkpt lat="43.37384808808565" lon="-6.365234116092324">
        <ele>703.8</ele>
        <time>2017-08-04T08:53:05.000Z</time>
      </trkpt>
      <trkpt lat="43.3737713098526" lon="-6.365308212116361">
        <ele>704</ele>
        <time>2017-08-04T08:53:13.000Z</time>
      </trkpt>
      <trkpt lat="43.3737107925117" lon="-6.365351965650916">
        <ele>704</ele>
        <time>2017-08-04T08:53:19.000Z</time>
      </trkpt>
      <trkpt lat="43.37361599318683" lon="-6.365382978692651">
        <ele>703.4</ele>
        <time>2017-08-04T08:53:27.000Z</time>
      </trkpt>
      <trkpt lat="43.37354256771505" lon="-6.365440646186471">
        <ele>703.6</ele>
        <time>2017-08-04T08:53:34.000Z</time>
      </trkpt>
      <trkpt lat="43.37347660213709" lon="-6.365495380014181">
        <ele>704</ele>
        <time>2017-08-04T08:53:41.000Z</time>
      </trkpt>
      <trkpt lat="43.37337861768901" lon="-6.365576516836882">
        <ele>704.8</ele>
        <time>2017-08-04T08:53:51.000Z</time>
      </trkpt>
      <trkpt lat="43.37332086637616" lon="-6.36562236584723">
        <ele>705.4</ele>
        <time>2017-08-04T08:53:57.000Z</time>
      </trkpt>
      <trkpt lat="43.37331047281623" lon="-6.365627394989133">
        <ele>705.4</ele>
        <time>2017-08-04T08:53:58.000Z</time>
      </trkpt>
      <trkpt lat="43.37326412089169" lon="-6.3656743336468935">
        <ele>706.2</ele>
        <time>2017-08-04T08:54:03.000Z</time>
      </trkpt>
      <trkpt lat="43.373245261609554" lon="-6.365691432729363">
        <ele>706.4</ele>
        <time>2017-08-04T08:54:05.000Z</time>
      </trkpt>
      <trkpt lat="43.373161777853966" lon="-6.3657620921730995">
        <ele>707.2</ele>
        <time>2017-08-04T08:54:13.000Z</time>
      </trkpt>
      <trkpt lat="43.37309145368636" lon="-6.365828728303313">
        <ele>708.2</ele>
        <time>2017-08-04T08:54:20.000Z</time>
      </trkpt>
      <trkpt lat="43.37301869876683" lon="-6.365879774093628">
        <ele>708.8</ele>
        <time>2017-08-04T08:54:27.000Z</time>
      </trkpt>
      <trkpt lat="43.373009730130434" lon="-6.365886479616165">
        <ele>709</ele>
        <time>2017-08-04T08:54:28.000Z</time>
      </trkpt>
      <trkpt lat="43.372974526137114" lon="-6.365920677781105">
        <ele>709.6</ele>
        <time>2017-08-04T08:54:32.000Z</time>
      </trkpt>
      <trkpt lat="43.37296564131975" lon="-6.365928137674928">
        <ele>709.6</ele>
        <time>2017-08-04T08:54:33.000Z</time>
      </trkpt>
      <trkpt lat="43.372889030724764" lon="-6.365990582853556">
        <ele>710.8</ele>
        <time>2017-08-04T08:54:41.000Z</time>
      </trkpt>
      <trkpt lat="43.37281049229205" lon="-6.366045568138361">
        <ele>711.6</ele>
        <time>2017-08-04T08:54:49.000Z</time>
      </trkpt>
      <trkpt lat="43.37271871045232" lon="-6.366081275045872">
        <ele>711.8</ele>
        <time>2017-08-04T08:54:57.000Z</time>
      </trkpt>
      <trkpt lat="43.37264444679022" lon="-6.366079933941364">
        <ele>711</ele>
        <time>2017-08-04T08:55:04.000Z</time>
      </trkpt>
      <trkpt lat="43.372566578909755" lon="-6.366095943376422">
        <ele>710.4</ele>
        <time>2017-08-04T08:55:11.000Z</time>
      </trkpt>
      <trkpt lat="43.37255794554949" lon="-6.366099379956722">
        <ele>710.2</ele>
        <time>2017-08-04T08:55:12.000Z</time>
      </trkpt>
      <trkpt lat="43.37249063886702" lon="-6.366097703576088">
        <ele>709.6</ele>
        <time>2017-08-04T08:55:18.000Z</time>
      </trkpt>
      <trkpt lat="43.37246901355684" lon="-6.366090159863234">
        <ele>709.2</ele>
        <time>2017-08-04T08:55:20.000Z</time>
      </trkpt>
      <trkpt lat="43.37239961139858" lon="-6.366070210933685">
        <ele>709.2</ele>
        <time>2017-08-04T08:55:26.000Z</time>
      </trkpt>
      <trkpt lat="43.372303638607264" lon="-6.366053111851215">
        <ele>709.6</ele>
        <time>2017-08-04T08:55:34.000Z</time>
      </trkpt>
      <trkpt lat="43.37223197333515" lon="-6.366042969748378">
        <ele>709.8</ele>
        <time>2017-08-04T08:55:41.000Z</time>
      </trkpt>
      <trkpt lat="43.37216676212847" lon="-6.3660436403006315">
        <ele>710</ele>
        <time>2017-08-04T08:55:47.000Z</time>
      </trkpt>
      <trkpt lat="43.372156620025635" lon="-6.366045735776424">
        <ele>710</ele>
        <time>2017-08-04T08:55:48.000Z</time>
      </trkpt>
      <trkpt lat="43.372108675539494" lon="-6.3660469930619">
        <ele>710.4</ele>
        <time>2017-08-04T08:55:52.000Z</time>
      </trkpt>
      <trkpt lat="43.372040363028646" lon="-6.366064762696624">
        <ele>711</ele>
        <time>2017-08-04T08:55:58.000Z</time>
      </trkpt>
      <trkpt lat="43.372017899528146" lon="-6.366069624200463">
        <ele>711.2</ele>
        <time>2017-08-04T08:56:00.000Z</time>
      </trkpt>
      <trkpt lat="43.37200691923499" lon="-6.366074737161398">
        <ele>711.4</ele>
        <time>2017-08-04T08:56:01.000Z</time>
      </trkpt>
      <trkpt lat="43.37195562198758" lon="-6.366092171519995">
        <ele>711.8</ele>
        <time>2017-08-04T08:56:05.000Z</time>
      </trkpt>
      <trkpt lat="43.37191949598491" lon="-6.366102900356054">
        <ele>712.2</ele>
        <time>2017-08-04T08:56:08.000Z</time>
      </trkpt>
      <trkpt lat="43.37187012657523" lon="-6.366124022752047">
        <ele>712.4</ele>
        <time>2017-08-04T08:56:12.000Z</time>
      </trkpt>
      <trkpt lat="43.37185696698725" lon="-6.366128129884601">
        <ele>712.4</ele>
        <time>2017-08-04T08:56:13.000Z</time>
      </trkpt>
      <trkpt lat="43.37178513407707" lon="-6.3661743979901075">
        <ele>712.8</ele>
        <time>2017-08-04T08:56:19.000Z</time>
      </trkpt>
      <trkpt lat="43.37169175967574" lon="-6.3662557024508715">
        <ele>713.4</ele>
        <time>2017-08-04T08:56:27.000Z</time>
      </trkpt>
      <trkpt lat="43.37161984294653" lon="-6.366335079073906">
        <ele>713.8</ele>
        <time>2017-08-04T08:56:34.000Z</time>
      </trkpt>
      <trkpt lat="43.37158556096256" lon="-6.366380425170064">
        <ele>714</ele>
        <time>2017-08-04T08:56:38.000Z</time>
      </trkpt>
      <trkpt lat="43.37156846188009" lon="-6.366406744346023">
        <ele>714</ele>
        <time>2017-08-04T08:56:40.000Z</time>
      </trkpt>
      <trkpt lat="43.37149327620864" lon="-6.366517636924982">
        <ele>714.2</ele>
        <time>2017-08-04T08:56:49.000Z</time>
      </trkpt>
      <trkpt lat="43.37144407443702" lon="-6.366573376581073">
        <ele>714.2</ele>
        <time>2017-08-04T08:56:57.000Z</time>
      </trkpt>
      <trkpt lat="43.37141121737659" lon="-6.366636157035828">
        <ele>714.4</ele>
        <time>2017-08-04T08:57:03.000Z</time>
      </trkpt>
      <trkpt lat="43.37133636698127" lon="-6.366756772622466">
        <ele>715.2</ele>
        <time>2017-08-04T08:57:12.000Z</time>
      </trkpt>
      <trkpt lat="43.371281046420336" lon="-6.366854170337319">
        <ele>715.4</ele>
        <time>2017-08-04T08:57:19.000Z</time>
      </trkpt>
      <trkpt lat="43.37120653130114" lon="-6.366969672963023">
        <ele>715.4</ele>
        <time>2017-08-04T08:57:28.000Z</time>
      </trkpt>
      <trkpt lat="43.37113159708679" lon="-6.367087438702583">
        <ele>715.2</ele>
        <time>2017-08-04T08:57:37.000Z</time>
      </trkpt>
      <trkpt lat="43.37105347774923" lon="-6.367177460342646">
        <ele>714.8</ele>
        <time>2017-08-04T08:57:45.000Z</time>
      </trkpt>
      <trkpt lat="43.3710274938494" lon="-6.367218531668186">
        <ele>715</ele>
        <time>2017-08-04T08:57:48.000Z</time>
      </trkpt>
      <trkpt lat="43.37101022712886" lon="-6.367244850844145">
        <ele>715</ele>
        <time>2017-08-04T08:57:50.000Z</time>
      </trkpt>
      <trkpt lat="43.37094015441835" lon="-6.367364125326276">
        <ele>715.2</ele>
        <time>2017-08-04T08:57:59.000Z</time>
      </trkpt>
      <trkpt lat="43.37088315747678" lon="-6.367456493899226">
        <ele>715.2</ele>
        <time>2017-08-04T08:58:06.000Z</time>
      </trkpt>
      <trkpt lat="43.37082540616393" lon="-6.3675441686064005">
        <ele>715.6</ele>
        <time>2017-08-04T08:58:13.000Z</time>
      </trkpt>
      <trkpt lat="43.370776288211346" lon="-6.367653552442789">
        <ele>716.4</ele>
        <time>2017-08-04T08:58:20.000Z</time>
      </trkpt>
      <trkpt lat="43.370730355381966" lon="-6.367762852460146">
        <ele>717.2</ele>
        <time>2017-08-04T08:58:27.000Z</time>
      </trkpt>
      <trkpt lat="43.37073144502938" lon="-6.367779280990362">
        <ele>717.2</ele>
        <time>2017-08-04T08:58:28.000Z</time>
      </trkpt>
      <trkpt lat="43.370724990963936" lon="-6.367832003161311">
        <ele>717.6</ele>
        <time>2017-08-04T08:58:31.000Z</time>
      </trkpt>
      <trkpt lat="43.37071635760367" lon="-6.3678887486457825">
        <ele>718</ele>
        <time>2017-08-04T08:58:35.000Z</time>
      </trkpt>
      <trkpt lat="43.370714178308845" lon="-6.367929819971323">
        <ele>718.4</ele>
        <time>2017-08-04T08:58:37.000Z</time>
      </trkpt>
      <trkpt lat="43.37072993628681" lon="-6.367968376725912">
        <ele>718.6</ele>
        <time>2017-08-04T08:58:40.000Z</time>
      </trkpt>
      <trkpt lat="43.37079372256994" lon="-6.368045071139932">
        <ele>719.2</ele>
        <time>2017-08-04T08:58:47.000Z</time>
      </trkpt>
      <trkpt lat="43.37085365317762" lon="-6.3681072648614645">
        <ele>719.8</ele>
        <time>2017-08-04T08:58:53.000Z</time>
      </trkpt>
      <trkpt lat="43.370900424197316" lon="-6.368162585422397">
        <ele>720.4</ele>
        <time>2017-08-04T08:58:58.000Z</time>
      </trkpt>
      <trkpt lat="43.37092221714556" lon="-6.368186390027404">
        <ele>720.8</ele>
        <time>2017-08-04T08:59:00.000Z</time>
      </trkpt>
      <trkpt lat="43.37097594514489" lon="-6.368244141340256">
        <ele>721.8</ele>
        <time>2017-08-04T08:59:04.000Z</time>
      </trkpt>
      <trkpt lat="43.37099891155958" lon="-6.368267023935914">
        <ele>722.2</ele>
        <time>2017-08-04T08:59:06.000Z</time>
      </trkpt>
      <trkpt lat="43.37109547108412" lon="-6.36832938529551">
        <ele>723.4</ele>
        <time>2017-08-04T08:59:13.000Z</time>
      </trkpt>
      <trkpt lat="43.37117669172585" lon="-6.368342712521553">
        <ele>724.2</ele>
        <time>2017-08-04T08:59:19.000Z</time>
      </trkpt>
      <trkpt lat="43.371272245422006" lon="-6.368336593732238">
        <ele>725.2</ele>
        <time>2017-08-04T08:59:26.000Z</time>
      </trkpt>
      <trkpt lat="43.371372912079096" lon="-6.368323685601354">
        <ele>726.6</ele>
        <time>2017-08-04T08:59:33.000Z</time>
      </trkpt>
      <trkpt lat="43.37139990180731" lon="-6.368325361981988">
        <ele>727.4</ele>
        <time>2017-08-04T08:59:35.000Z</time>
      </trkpt>
      <trkpt lat="43.371455390006304" lon="-6.3683355040848255">
        <ele>728.8</ele>
        <time>2017-08-04T08:59:39.000Z</time>
      </trkpt>
      <trkpt lat="43.37148942053318" lon="-6.368336006999016">
        <ele>729.8</ele>
        <time>2017-08-04T08:59:43.000Z</time>
      </trkpt>
      <trkpt lat="43.3714934438467" lon="-6.3683487474918365">
        <ele>730</ele>
        <time>2017-08-04T08:59:44.000Z</time>
      </trkpt>
      <trkpt lat="43.371528312563896" lon="-6.368389902636409">
        <ele>731</ele>
        <time>2017-08-04T08:59:48.000Z</time>
      </trkpt>
      <trkpt lat="43.37152789346874" lon="-6.368503477424383">
        <ele>731.6</ele>
        <time>2017-08-04T08:59:54.000Z</time>
      </trkpt>
      <trkpt lat="43.37152319960296" lon="-6.368523426353931">
        <ele>731.4</ele>
        <time>2017-08-04T08:59:55.000Z</time>
      </trkpt>
      <trkpt lat="43.371507441625" lon="-6.3686497416347265">
        <ele>732.2</ele>
        <time>2017-08-04T09:00:01.000Z</time>
      </trkpt>
      <trkpt lat="43.371478943154216" lon="-6.368831964209676">
        <ele>733.4</ele>
        <time>2017-08-04T09:00:10.000Z</time>
      </trkpt>
      <trkpt lat="43.37146561592817" lon="-6.36895140632987">
        <ele>735.2</ele>
        <time>2017-08-04T09:00:16.000Z</time>
      </trkpt>
      <trkpt lat="43.371454048901796" lon="-6.369027262553573">
        <ele>736.4</ele>
        <time>2017-08-04T09:00:20.000Z</time>
      </trkpt>
      <trkpt lat="43.37144943885505" lon="-6.369047965854406">
        <ele>736.4</ele>
        <time>2017-08-04T09:00:21.000Z</time>
      </trkpt>
      <trkpt lat="43.371439883485436" lon="-6.369121642783284">
        <ele>737.2</ele>
        <time>2017-08-04T09:00:25.000Z</time>
      </trkpt>
      <trkpt lat="43.37143409997225" lon="-6.369149722158909">
        <ele>737.4</ele>
        <time>2017-08-04T09:00:27.000Z</time>
      </trkpt>
      <trkpt lat="43.37141373194754" lon="-6.369240079075098">
        <ele>738.4</ele>
        <time>2017-08-04T09:00:32.000Z</time>
      </trkpt>
      <trkpt lat="43.37138531729579" lon="-6.369345942512155">
        <ele>739.6</ele>
        <time>2017-08-04T09:00:38.000Z</time>
      </trkpt>
      <trkpt lat="43.37137643247843" lon="-6.369367316365242">
        <ele>739.8</ele>
        <time>2017-08-04T09:00:39.000Z</time>
      </trkpt>
      <trkpt lat="43.371335780248046" lon="-6.3694937992841005">
        <ele>741</ele>
        <time>2017-08-04T09:00:46.000Z</time>
      </trkpt>
      <trkpt lat="43.37129889987409" lon="-6.369648948311806">
        <ele>742.4</ele>
        <time>2017-08-04T09:00:53.000Z</time>
      </trkpt>
      <trkpt lat="43.37126813828945" lon="-6.369776437059045">
        <ele>743.8</ele>
        <time>2017-08-04T09:00:59.000Z</time>
      </trkpt>
      <trkpt lat="43.371265372261405" lon="-6.369793536141515">
        <ele>744</ele>
        <time>2017-08-04T09:01:00.000Z</time>
      </trkpt>
      <trkpt lat="43.37125036865473" lon="-6.369849946349859">
        <ele>744.6</ele>
        <time>2017-08-04T09:01:03.000Z</time>
      </trkpt>
      <trkpt lat="43.371212063357234" lon="-6.369955809786916">
        <ele>745.4</ele>
        <time>2017-08-04T09:01:09.000Z</time>
      </trkpt>
      <trkpt lat="43.37119865231216" lon="-6.369995875284076">
        <ele>745.4</ele>
        <time>2017-08-04T09:01:12.000Z</time>
      </trkpt>
      <trkpt lat="43.37118306197226" lon="-6.370018003508449">
        <ele>745.2</ele>
        <time>2017-08-04T09:01:15.000Z</time>
      </trkpt>
      <trkpt lat="43.37115724571049" lon="-6.370095368474722">
        <ele>745</ele>
        <time>2017-08-04T09:01:21.000Z</time>
      </trkpt>
      <trkpt lat="43.37113386020064" lon="-6.370133254677057">
        <ele>744.6</ele>
        <time>2017-08-04T09:01:26.000Z</time>
      </trkpt>
      <trkpt lat="43.371119694784284" lon="-6.370163094252348">
        <ele>744.6</ele>
        <time>2017-08-04T09:01:32.000Z</time>
      </trkpt>
      <trkpt lat="43.37107510305941" lon="-6.370271136984229">
        <ele>744.4</ele>
        <time>2017-08-04T09:01:40.000Z</time>
      </trkpt>
      <trkpt lat="43.37103604339063" lon="-6.370383538305759">
        <ele>744.6</ele>
        <time>2017-08-04T09:01:48.000Z</time>
      </trkpt>
      <trkpt lat="43.37098851799965" lon="-6.370498705655336">
        <ele>744.6</ele>
        <time>2017-08-04T09:01:55.000Z</time>
      </trkpt>
      <trkpt lat="43.370946273207664" lon="-6.370613370090723">
        <ele>744.8</ele>
        <time>2017-08-04T09:02:02.000Z</time>
      </trkpt>
      <trkpt lat="43.37094509974122" lon="-6.370649076998234">
        <ele>745.2</ele>
        <time>2017-08-04T09:02:04.000Z</time>
      </trkpt>
      <trkpt lat="43.370937472209334" lon="-6.3707001227885485">
        <ele>745.4</ele>
        <time>2017-08-04T09:02:07.000Z</time>
      </trkpt>
      <trkpt lat="43.37093319743872" lon="-6.3707145396620035">
        <ele>745.4</ele>
        <time>2017-08-04T09:02:08.000Z</time>
      </trkpt>
      <trkpt lat="43.37088684551418" lon="-6.370818894356489">
        <ele>745.2</ele>
        <time>2017-08-04T09:02:15.000Z</time>
      </trkpt>
      <trkpt lat="43.37087041698396" lon="-6.370859546586871">
        <ele>745.2</ele>
        <time>2017-08-04T09:02:18.000Z</time>
      </trkpt>
      <trkpt lat="43.370856838300824" lon="-6.370910424739122">
        <ele>745.6</ele>
        <time>2017-08-04T09:02:21.000Z</time>
      </trkpt>
      <trkpt lat="43.37084351107478" lon="-6.370953256264329">
        <ele>745.6</ele>
        <time>2017-08-04T09:02:25.000Z</time>
      </trkpt>
      <trkpt lat="43.37081761099398" lon="-6.371064651757479">
        <ele>746.2</ele>
        <time>2017-08-04T09:02:32.000Z</time>
      </trkpt>
      <trkpt lat="43.37078978307545" lon="-6.371158780530095">
        <ele>746.4</ele>
        <time>2017-08-04T09:02:38.000Z</time>
      </trkpt>
      <trkpt lat="43.37075994350016" lon="-6.371270595118403">
        <ele>746.8</ele>
        <time>2017-08-04T09:02:45.000Z</time>
      </trkpt>
      <trkpt lat="43.37073219940066" lon="-6.371386935934424">
        <ele>747.4</ele>
        <time>2017-08-04T09:02:52.000Z</time>
      </trkpt>
      <trkpt lat="43.37071769870818" lon="-6.371446950361133">
        <ele>748</ele>
        <time>2017-08-04T09:02:57.000Z</time>
      </trkpt>
      <trkpt lat="43.37068115361035" lon="-6.371532529592514">
        <ele>748.4</ele>
        <time>2017-08-04T09:03:02.000Z</time>
      </trkpt>
      <trkpt lat="43.3706767950207" lon="-6.371548371389508">
        <ele>748.6</ele>
        <time>2017-08-04T09:03:03.000Z</time>
      </trkpt>
      <trkpt lat="43.370674112811685" lon="-6.371643338352442">
        <ele>750</ele>
        <time>2017-08-04T09:03:09.000Z</time>
      </trkpt>
      <trkpt lat="43.37066455744207" lon="-6.3717323541641235">
        <ele>750.8</ele>
        <time>2017-08-04T09:03:14.000Z</time>
      </trkpt>
      <trkpt lat="43.37063781917095" lon="-6.371830590069294">
        <ele>751.2</ele>
        <time>2017-08-04T09:03:20.000Z</time>
      </trkpt>
      <trkpt lat="43.370624240487814" lon="-6.371896723285317">
        <ele>751.8</ele>
        <time>2017-08-04T09:03:24.000Z</time>
      </trkpt>
      <trkpt lat="43.37062030099332" lon="-6.371908625587821">
        <ele>751.8</ele>
        <time>2017-08-04T09:03:25.000Z</time>
      </trkpt>
      <trkpt lat="43.370609655976295" lon="-6.371970567852259">
        <ele>752.6</ele>
        <time>2017-08-04T09:03:29.000Z</time>
      </trkpt>
      <trkpt lat="43.37060739286244" lon="-6.371979787945747">
        <ele>752.6</ele>
        <time>2017-08-04T09:03:30.000Z</time>
      </trkpt>
      <trkpt lat="43.37058392353356" lon="-6.372054386883974">
        <ele>753.2</ele>
        <time>2017-08-04T09:03:36.000Z</time>
      </trkpt>
      <trkpt lat="43.37055668234825" lon="-6.372104762122035">
        <ele>753.4</ele>
        <time>2017-08-04T09:03:40.000Z</time>
      </trkpt>
      <trkpt lat="43.370536398142576" lon="-6.372147593647242">
        <ele>753.8</ele>
        <time>2017-08-04T09:03:43.000Z</time>
      </trkpt>
      <trkpt lat="43.370505049824715" lon="-6.372207859531045">
        <ele>754.2</ele>
        <time>2017-08-04T09:03:48.000Z</time>
      </trkpt>
      <trkpt lat="43.37050010450184" lon="-6.372219510376453">
        <ele>754.2</ele>
        <time>2017-08-04T09:03:49.000Z</time>
      </trkpt>
      <trkpt lat="43.3704624697566" lon="-6.372296456247568">
        <ele>755</ele>
        <time>2017-08-04T09:03:54.000Z</time>
      </trkpt>
      <trkpt lat="43.370455764234066" lon="-6.372315064072609">
        <ele>755.2</ele>
        <time>2017-08-04T09:03:55.000Z</time>
      </trkpt>
      <trkpt lat="43.370418129488826" lon="-6.372385555878282">
        <ele>755.8</ele>
        <time>2017-08-04T09:04:00.000Z</time>
      </trkpt>
      <trkpt lat="43.370400527492166" lon="-6.372433919459581">
        <ele>756.2</ele>
        <time>2017-08-04T09:04:04.000Z</time>
      </trkpt>
      <trkpt lat="43.37039985693991" lon="-6.3724438939243555">
        <ele>756.4</ele>
        <time>2017-08-04T09:04:05.000Z</time>
      </trkpt>
      <trkpt lat="43.37039985693991" lon="-6.372440038248897">
        <ele>756.4</ele>
        <time>2017-08-04T09:04:06.000Z</time>
      </trkpt>
      <trkpt lat="43.370386362075806" lon="-6.372413635253906">
        <ele>755.8</ele>
        <time>2017-08-04T09:04:11.000Z</time>
      </trkpt>
      <trkpt lat="43.370372699573636" lon="-6.3724680338054895">
        <ele>756.4</ele>
        <time>2017-08-04T09:04:15.000Z</time>
      </trkpt>
      <trkpt lat="43.370360461995006" lon="-6.372503992170095">
        <ele>756.4</ele>
        <time>2017-08-04T09:04:17.000Z</time>
      </trkpt>
      <trkpt lat="43.37032601237297" lon="-6.372633408755064">
        <ele>756.6</ele>
        <time>2017-08-04T09:04:24.000Z</time>
      </trkpt>
      <trkpt lat="43.370322743430734" lon="-6.372670875862241">
        <ele>756.6</ele>
        <time>2017-08-04T09:04:26.000Z</time>
      </trkpt>
      <trkpt lat="43.37030933238566" lon="-6.372703397646546">
        <ele>756.8</ele>
        <time>2017-08-04T09:04:29.000Z</time>
      </trkpt>
      <trkpt lat="43.37029634043574" lon="-6.372731393203139">
        <ele>756.8</ele>
        <time>2017-08-04T09:04:31.000Z</time>
      </trkpt>
      <trkpt lat="43.3702639862895" lon="-6.372810686007142">
        <ele>756.8</ele>
        <time>2017-08-04T09:04:36.000Z</time>
      </trkpt>
      <trkpt lat="43.37025593966246" lon="-6.372817307710648">
        <ele>756.8</ele>
        <time>2017-08-04T09:04:37.000Z</time>
      </trkpt>
      <trkpt lat="43.370234398171306" lon="-6.372826779261231">
        <ele>756.4</ele>
        <time>2017-08-04T09:04:42.000Z</time>
      </trkpt>
      <trkpt lat="43.370223082602024" lon="-6.372895175591111">
        <ele>756.6</ele>
        <time>2017-08-04T09:04:47.000Z</time>
      </trkpt>
      <trkpt lat="43.37018460966647" lon="-6.372974049299955">
        <ele>756.2</ele>
        <time>2017-08-04T09:04:53.000Z</time>
      </trkpt>
      <trkpt lat="43.37017731741071" lon="-6.372984442859888">
        <ele>756.2</ele>
        <time>2017-08-04T09:04:54.000Z</time>
      </trkpt>
      <trkpt lat="43.37015904486179" lon="-6.373029453679919">
        <ele>756</ele>
        <time>2017-08-04T09:04:57.000Z</time>
      </trkpt>
      <trkpt lat="43.37012912146747" lon="-6.373089300468564">
        <ele>755.6</ele>
        <time>2017-08-04T09:05:01.000Z</time>
      </trkpt>
      <trkpt lat="43.37012266740203" lon="-6.373102962970734">
        <ele>755.6</ele>
        <time>2017-08-04T09:05:02.000Z</time>
      </trkpt>
      <trkpt lat="43.37011244148016" lon="-6.373133305460215">
        <ele>755.6</ele>
        <time>2017-08-04T09:05:04.000Z</time>
      </trkpt>
      <trkpt lat="43.370094588026404" lon="-6.373190386220813">
        <ele>755.6</ele>
        <time>2017-08-04T09:05:08.000Z</time>
      </trkpt>
      <trkpt lat="43.37007908150554" lon="-6.373241599649191">
        <ele>755.4</ele>
        <time>2017-08-04T09:05:11.000Z</time>
      </trkpt>
      <trkpt lat="43.370062904432416" lon="-6.373303793370724">
        <ele>755.6</ele>
        <time>2017-08-04T09:05:16.000Z</time>
      </trkpt>
      <trkpt lat="43.370056953281164" lon="-6.373320305719972">
        <ele>755.4</ele>
        <time>2017-08-04T09:05:17.000Z</time>
      </trkpt>
      <trkpt lat="43.370035914704204" lon="-6.373376380652189">
        <ele>755</ele>
        <time>2017-08-04T09:05:21.000Z</time>
      </trkpt>
      <trkpt lat="43.36999819613993" lon="-6.373482160270214">
        <ele>754.6</ele>
        <time>2017-08-04T09:05:29.000Z</time>
      </trkpt>
      <trkpt lat="43.36997665464878" lon="-6.373531445860863">
        <ele>754.2</ele>
        <time>2017-08-04T09:05:32.000Z</time>
      </trkpt>
      <trkpt lat="43.36996064521372" lon="-6.37355474755168">
        <ele>753.8</ele>
        <time>2017-08-04T09:05:34.000Z</time>
      </trkpt>
      <trkpt lat="43.369886968284845" lon="-6.373643763363361">
        <ele>754.4</ele>
        <time>2017-08-04T09:05:41.000Z</time>
      </trkpt>
      <trkpt lat="43.36987590417266" lon="-6.373658096417785">
        <ele>754.6</ele>
        <time>2017-08-04T09:05:42.000Z</time>
      </trkpt>
      <trkpt lat="43.369800969958305" lon="-6.373716685920954">
        <ele>754.8</ele>
        <time>2017-08-04T09:05:47.000Z</time>
      </trkpt>
      <trkpt lat="43.36979158222675" lon="-6.37373261153698">
        <ele>755</ele>
        <time>2017-08-04T09:05:48.000Z</time>
      </trkpt>
      <trkpt lat="43.36976207792759" lon="-6.373777873814106">
        <ele>755.4</ele>
        <time>2017-08-04T09:05:52.000Z</time>
      </trkpt>
      <trkpt lat="43.36972067132592" lon="-6.373824812471867">
        <ele>755.8</ele>
        <time>2017-08-04T09:05:58.000Z</time>
      </trkpt>
      <trkpt lat="43.36971019394696" lon="-6.37384844943881">
        <ele>756</ele>
        <time>2017-08-04T09:06:00.000Z</time>
      </trkpt>
      <trkpt lat="43.36969359777868" lon="-6.3738940469920635">
        <ele>756.6</ele>
        <time>2017-08-04T09:06:04.000Z</time>
      </trkpt>
      <trkpt lat="43.36967264302075" lon="-6.373916761949658">
        <ele>756.8</ele>
        <time>2017-08-04T09:06:06.000Z</time>
      </trkpt>
      <trkpt lat="43.36965504102409" lon="-6.373931178823113">
        <ele>757</ele>
        <time>2017-08-04T09:06:09.000Z</time>
      </trkpt>
      <trkpt lat="43.36958505213261" lon="-6.3739438354969025">
        <ele>756.8</ele>
        <time>2017-08-04T09:06:15.000Z</time>
      </trkpt>
      <trkpt lat="43.36957801133394" lon="-6.373950792476535">
        <ele>757</ele>
        <time>2017-08-04T09:06:16.000Z</time>
      </trkpt>
      <trkpt lat="43.3695371914655" lon="-6.373967304825783">
        <ele>756.8</ele>
        <time>2017-08-04T09:06:20.000Z</time>
      </trkpt>
      <trkpt lat="43.36952176876366" lon="-6.373973255977035">
        <ele>756.8</ele>
        <time>2017-08-04T09:06:21.000Z</time>
      </trkpt>
      <trkpt lat="43.36947332136333" lon="-6.373993707820773">
        <ele>756.8</ele>
        <time>2017-08-04T09:06:25.000Z</time>
      </trkpt>
      <trkpt lat="43.369443230330944" lon="-6.374002089723945">
        <ele>756.6</ele>
        <time>2017-08-04T09:06:28.000Z</time>
      </trkpt>
      <trkpt lat="43.36940450593829" lon="-6.3740006648004055">
        <ele>756.2</ele>
        <time>2017-08-04T09:06:31.000Z</time>
      </trkpt>
      <trkpt lat="43.369350442662835" lon="-6.374026732519269">
        <ele>756.8</ele>
        <time>2017-08-04T09:06:35.000Z</time>
      </trkpt>
      <trkpt lat="43.369333762675524" lon="-6.374031426385045">
        <ele>756.8</ele>
        <time>2017-08-04T09:06:36.000Z</time>
      </trkpt>
      <trkpt lat="43.36927919648588" lon="-6.374081047251821">
        <ele>758</ele>
        <time>2017-08-04T09:06:41.000Z</time>
      </trkpt>
      <trkpt lat="43.36925312876701" lon="-6.374109797179699">
        <ele>758.6</ele>
        <time>2017-08-04T09:06:44.000Z</time>
      </trkpt>
      <trkpt lat="43.36922563612461" lon="-6.374133853241801">
        <ele>759</ele>
        <time>2017-08-04T09:06:47.000Z</time>
      </trkpt>
      <trkpt lat="43.36920862086117" lon="-6.374154891818762">
        <ele>759.4</ele>
        <time>2017-08-04T09:06:50.000Z</time>
      </trkpt>
      <trkpt lat="43.369198478758335" lon="-6.374153466895223">
        <ele>759.4</ele>
        <time>2017-08-04T09:06:51.000Z</time>
      </trkpt>
      <trkpt lat="43.36918959394097" lon="-6.374154556542635">
        <ele>759.4</ele>
        <time>2017-08-04T09:06:52.000Z</time>
      </trkpt>
      <trkpt lat="43.36916796863079" lon="-6.374169141054153">
        <ele>759.6</ele>
        <time>2017-08-04T09:06:55.000Z</time>
      </trkpt>
      <trkpt lat="43.369155311957" lon="-6.374178612604737">
        <ele>759.8</ele>
        <time>2017-08-04T09:06:57.000Z</time>
      </trkpt>
      <trkpt lat="43.36910443380475" lon="-6.374218426644802">
        <ele>760.8</ele>
        <time>2017-08-04T09:07:02.000Z</time>
      </trkpt>
      <trkpt lat="43.36905950680375" lon="-6.374262096360326">
        <ele>761.8</ele>
        <time>2017-08-04T09:07:07.000Z</time>
      </trkpt>
      <trkpt lat="43.369002509862185" lon="-6.374304257333279">
        <ele>763</ele>
        <time>2017-08-04T09:07:13.000Z</time>
      </trkpt>
      <trkpt lat="43.368954649195075" lon="-6.374352788552642">
        <ele>764.2</ele>
        <time>2017-08-04T09:07:18.000Z</time>
      </trkpt>
      <trkpt lat="43.368903351947665" lon="-6.374399475753307">
        <ele>765.4</ele>
        <time>2017-08-04T09:07:23.000Z</time>
      </trkpt>
      <trkpt lat="43.36887191981077" lon="-6.374412719160318">
        <ele>766</ele>
        <time>2017-08-04T09:07:26.000Z</time>
      </trkpt>
      <trkpt lat="43.36886068806052" lon="-6.374421352520585">
        <ele>766.2</ele>
        <time>2017-08-04T09:07:27.000Z</time>
      </trkpt>
      <trkpt lat="43.36883973330259" lon="-6.374435853213072">
        <ele>766.6</ele>
        <time>2017-08-04T09:07:29.000Z</time>
      </trkpt>
      <trkpt lat="43.36877301335335" lon="-6.374460496008396">
        <ele>767</ele>
        <time>2017-08-04T09:07:35.000Z</time>
      </trkpt>
      <trkpt lat="43.368750382214785" lon="-6.374476170167327">
        <ele>767.4</ele>
        <time>2017-08-04T09:07:37.000Z</time>
      </trkpt>
      <trkpt lat="43.368704449385405" lon="-6.374511374160647">
        <ele>768</ele>
        <time>2017-08-04T09:07:42.000Z</time>
      </trkpt>
      <trkpt lat="43.368658516556025" lon="-6.374536016955972">
        <ele>768.4</ele>
        <time>2017-08-04T09:07:46.000Z</time>
      </trkpt>
      <trkpt lat="43.3686476200819" lon="-6.374541716650128">
        <ele>768.6</ele>
        <time>2017-08-04T09:07:47.000Z</time>
      </trkpt>
      <trkpt lat="43.368596909567714" lon="-6.374563090503216">
        <ele>769</ele>
        <time>2017-08-04T09:07:51.000Z</time>
      </trkpt>
      <trkpt lat="43.36858450435102" lon="-6.374573735520244">
        <ele>769.2</ele>
        <time>2017-08-04T09:07:53.000Z</time>
      </trkpt>
      <trkpt lat="43.36854754015803" lon="-6.374599803239107">
        <ele>769.6</ele>
        <time>2017-08-04T09:07:57.000Z</time>
      </trkpt>
      <trkpt lat="43.36852532811463" lon="-6.374616315588355">
        <ele>769.8</ele>
        <time>2017-08-04T09:07:59.000Z</time>
      </trkpt>
      <trkpt lat="43.36846330203116" lon="-6.374683538451791">
        <ele>771.2</ele>
        <time>2017-08-04T09:08:06.000Z</time>
      </trkpt>
      <trkpt lat="43.36841602809727" lon="-6.374749336391687">
        <ele>772</ele>
        <time>2017-08-04T09:08:12.000Z</time>
      </trkpt>
      <trkpt lat="43.36838618852198" lon="-6.374800717458129">
        <ele>772.6</ele>
        <time>2017-08-04T09:08:16.000Z</time>
      </trkpt>
      <trkpt lat="43.36836716160178" lon="-6.374822510406375">
        <ele>773</ele>
        <time>2017-08-04T09:08:18.000Z</time>
      </trkpt>
      <trkpt lat="43.3683542534709" lon="-6.374845560640097">
        <ele>773.2</ele>
        <time>2017-08-04T09:08:20.000Z</time>
      </trkpt>
      <trkpt lat="43.3683384116739" lon="-6.374877747148275">
        <ele>773.8</ele>
        <time>2017-08-04T09:08:22.000Z</time>
      </trkpt>
      <trkpt lat="43.36832935921848" lon="-6.374902809038758">
        <ele>774.2</ele>
        <time>2017-08-04T09:08:24.000Z</time>
      </trkpt>
      <trkpt lat="43.36827781051397" lon="-6.374965840950608">
        <ele>774.8</ele>
        <time>2017-08-04T09:08:30.000Z</time>
      </trkpt>
      <trkpt lat="43.368247132748365" lon="-6.37502065859735">
        <ele>775.4</ele>
        <time>2017-08-04T09:08:36.000Z</time>
      </trkpt>
      <trkpt lat="43.36821083910763" lon="-6.375074302777648">
        <ele>776.2</ele>
        <time>2017-08-04T09:08:41.000Z</time>
      </trkpt>
      <trkpt lat="43.36820296011865" lon="-6.375083355233073">
        <ele>776.2</ele>
        <time>2017-08-04T09:08:42.000Z</time>
      </trkpt>
      <trkpt lat="43.36817488074303" lon="-6.375107327476144">
        <ele>776.4</ele>
        <time>2017-08-04T09:08:45.000Z</time>
      </trkpt>
      <trkpt lat="43.36815945804119" lon="-6.375127360224724">
        <ele>776.6</ele>
        <time>2017-08-04T09:08:47.000Z</time>
      </trkpt>
      <trkpt lat="43.3681174647063" lon="-6.375203467905521">
        <ele>777.6</ele>
        <time>2017-08-04T09:08:53.000Z</time>
      </trkpt>
      <trkpt lat="43.36804755963385" lon="-6.375303883105516">
        <ele>778</ele>
        <time>2017-08-04T09:09:02.000Z</time>
      </trkpt>
      <trkpt lat="43.3679985255003" lon="-6.3753939885646105">
        <ele>778.4</ele>
        <time>2017-08-04T09:09:09.000Z</time>
      </trkpt>
      <trkpt lat="43.36794404312968" lon="-6.37550781480968">
        <ele>778.8</ele>
        <time>2017-08-04T09:09:17.000Z</time>
      </trkpt>
      <trkpt lat="43.367886962369084" lon="-6.375605380162597">
        <ele>779.4</ele>
        <time>2017-08-04T09:09:25.000Z</time>
      </trkpt>
      <trkpt lat="43.3678690250963" lon="-6.375633208081126">
        <ele>779.4</ele>
        <time>2017-08-04T09:09:29.000Z</time>
      </trkpt>
      <trkpt lat="43.367841029539704" lon="-6.375671178102493">
        <ele>779.6</ele>
        <time>2017-08-04T09:09:33.000Z</time>
      </trkpt>
      <trkpt lat="43.36782468482852" lon="-6.375694647431374">
        <ele>779.8</ele>
        <time>2017-08-04T09:09:35.000Z</time>
      </trkpt>
      <trkpt lat="43.36781018413603" lon="-6.375723481178284">
        <ele>780</ele>
        <time>2017-08-04T09:09:37.000Z</time>
      </trkpt>
      <trkpt lat="43.367781518027186" lon="-6.375753404572606">
        <ele>780</ele>
        <time>2017-08-04T09:09:40.000Z</time>
      </trkpt>
      <trkpt lat="43.36775192990899" lon="-6.375817861407995">
        <ele>780.6</ele>
        <time>2017-08-04T09:09:45.000Z</time>
      </trkpt>
      <trkpt lat="43.36774849332869" lon="-6.375826662406325">
        <ele>780.6</ele>
        <time>2017-08-04T09:09:46.000Z</time>
      </trkpt>
      <trkpt lat="43.36773784831166" lon="-6.37585524469614">
        <ele>780.8</ele>
        <time>2017-08-04T09:09:49.000Z</time>
      </trkpt>
      <trkpt lat="43.36773332208395" lon="-6.375867649912834">
        <ele>780.8</ele>
        <time>2017-08-04T09:09:50.000Z</time>
      </trkpt>
      <trkpt lat="43.367673894390464" lon="-6.375977201387286">
        <ele>781.2</ele>
        <time>2017-08-04T09:09:58.000Z</time>
      </trkpt>
      <trkpt lat="43.367620166391134" lon="-6.376080550253391">
        <ele>781.4</ele>
        <time>2017-08-04T09:10:05.000Z</time>
      </trkpt>
      <trkpt lat="43.36756367236376" lon="-6.37620753608644">
        <ele>781.2</ele>
        <time>2017-08-04T09:10:13.000Z</time>
      </trkpt>
      <trkpt lat="43.36754799820483" lon="-6.376238130033016">
        <ele>781</ele>
        <time>2017-08-04T09:10:15.000Z</time>
      </trkpt>
      <trkpt lat="43.36751279421151" lon="-6.376288002356887">
        <ele>780.6</ele>
        <time>2017-08-04T09:10:19.000Z</time>
      </trkpt>
      <trkpt lat="43.36744121275842" lon="-6.376398392021656">
        <ele>779.6</ele>
        <time>2017-08-04T09:10:27.000Z</time>
      </trkpt>
      <trkpt lat="43.36738103069365" lon="-6.376497549936175">
        <ele>778.2</ele>
        <time>2017-08-04T09:10:36.000Z</time>
      </trkpt>
      <trkpt lat="43.367367116734385" lon="-6.376483803614974">
        <ele>777.6</ele>
        <time>2017-08-04T09:10:41.000Z</time>
      </trkpt>
      <trkpt lat="43.367340210825205" lon="-6.376543818041682">
        <ele>777.2</ele>
        <time>2017-08-04T09:10:54.000Z</time>
      </trkpt>
      <trkpt lat="43.36730148643255" lon="-6.376593355089426">
        <ele>776.2</ele>
        <time>2017-08-04T09:11:00.000Z</time>
      </trkpt>
      <trkpt lat="43.36729637347162" lon="-6.376604586839676">
        <ele>776</ele>
        <time>2017-08-04T09:11:01.000Z</time>
      </trkpt>
      <trkpt lat="43.367269802838564" lon="-6.376659069210291">
        <ele>775.6</ele>
        <time>2017-08-04T09:11:06.000Z</time>
      </trkpt>
      <trkpt lat="43.36722990497947" lon="-6.376730566844344">
        <ele>775</ele>
        <time>2017-08-04T09:11:12.000Z</time>
      </trkpt>
      <trkpt lat="43.367223367094994" lon="-6.376755461096764">
        <ele>775</ele>
        <time>2017-08-04T09:11:14.000Z</time>
      </trkpt>
      <trkpt lat="43.367204423993826" lon="-6.37681488879025">
        <ele>774.8</ele>
        <time>2017-08-04T09:11:18.000Z</time>
      </trkpt>
      <trkpt lat="43.36721205152571" lon="-6.376879597082734">
        <ele>775.6</ele>
        <time>2017-08-04T09:11:22.000Z</time>
      </trkpt>
      <trkpt lat="43.3671797811985" lon="-6.376936845481396">
        <ele>775.2</ele>
        <time>2017-08-04T09:11:27.000Z</time>
      </trkpt>
      <trkpt lat="43.367163771763444" lon="-6.377009516581893">
        <ele>775.6</ele>
        <time>2017-08-04T09:11:32.000Z</time>
      </trkpt>
      <trkpt lat="43.36713409982622" lon="-6.377088641747832">
        <ele>776</ele>
        <time>2017-08-04T09:11:38.000Z</time>
      </trkpt>
      <trkpt lat="43.3671057689935" lon="-6.377181094139814">
        <ele>776.4</ele>
        <time>2017-08-04T09:11:46.000Z</time>
      </trkpt>
      <trkpt lat="43.3671020809561" lon="-6.377194672822952">
        <ele>776.6</ele>
        <time>2017-08-04T09:11:47.000Z</time>
      </trkpt>
      <trkpt lat="43.36706981062889" lon="-6.377288298681378">
        <ele>777.4</ele>
        <time>2017-08-04T09:11:53.000Z</time>
      </trkpt>
      <trkpt lat="43.36705639958382" lon="-6.377332387492061">
        <ele>777.8</ele>
        <time>2017-08-04T09:11:56.000Z</time>
      </trkpt>
      <trkpt lat="43.367035863921046" lon="-6.377387121319771">
        <ele>778.4</ele>
        <time>2017-08-04T09:11:59.000Z</time>
      </trkpt>
      <trkpt lat="43.36696461774409" lon="-6.377552663907409">
        <ele>779.2</ele>
        <time>2017-08-04T09:12:08.000Z</time>
      </trkpt>
      <trkpt lat="43.36691156029701" lon="-6.377673447132111">
        <ele>779.4</ele>
        <time>2017-08-04T09:12:16.000Z</time>
      </trkpt>
      <trkpt lat="43.36691105738282" lon="-6.377687947824597">
        <ele>779.4</ele>
        <time>2017-08-04T09:12:17.000Z</time>
      </trkpt>
      <trkpt lat="43.36688892915845" lon="-6.377774951979518">
        <ele>780</ele>
        <time>2017-08-04T09:12:22.000Z</time>
      </trkpt>
      <trkpt lat="43.3668552339077" lon="-6.37787813320756">
        <ele>780.4</ele>
        <time>2017-08-04T09:12:29.000Z</time>
      </trkpt>
      <trkpt lat="43.36683872155845" lon="-6.377934794872999">
        <ele>780.6</ele>
        <time>2017-08-04T09:12:33.000Z</time>
      </trkpt>
      <trkpt lat="43.36679697968066" lon="-6.378018781542778">
        <ele>780.6</ele>
        <time>2017-08-04T09:12:39.000Z</time>
      </trkpt>
      <trkpt lat="43.366769487038255" lon="-6.378060691058636">
        <ele>780.6</ele>
        <time>2017-08-04T09:12:43.000Z</time>
      </trkpt>
      <trkpt lat="43.366751885041595" lon="-6.37807946652174">
        <ele>780.4</ele>
        <time>2017-08-04T09:12:45.000Z</time>
      </trkpt>
      <trkpt lat="43.36671492084861" lon="-6.378135792911053">
        <ele>780.4</ele>
        <time>2017-08-04T09:12:50.000Z</time>
      </trkpt>
      <trkpt lat="43.366661444306374" lon="-6.378206619992852">
        <ele>780.4</ele>
        <time>2017-08-04T09:12:57.000Z</time>
      </trkpt>
      <trkpt lat="43.366652224212885" lon="-6.378230424597859">
        <ele>780.4</ele>
        <time>2017-08-04T09:12:59.000Z</time>
      </trkpt>
      <trkpt lat="43.36663185618818" lon="-6.378259677439928">
        <ele>780.4</ele>
        <time>2017-08-04T09:13:02.000Z</time>
      </trkpt>
      <trkpt lat="43.36662515066564" lon="-6.378263616934419">
        <ele>780.4</ele>
        <time>2017-08-04T09:13:03.000Z</time>
      </trkpt>
      <trkpt lat="43.36657393723726" lon="-6.378327906131744">
        <ele>780.4</ele>
        <time>2017-08-04T09:13:09.000Z</time>
      </trkpt>
      <trkpt lat="43.36652213707566" lon="-6.378410216420889">
        <ele>780.2</ele>
        <time>2017-08-04T09:13:15.000Z</time>
      </trkpt>
      <trkpt lat="43.36645307019353" lon="-6.378495125100017">
        <ele>780</ele>
        <time>2017-08-04T09:13:21.000Z</time>
      </trkpt>
      <trkpt lat="43.3663977496326" lon="-6.378590678796172">
        <ele>780</ele>
        <time>2017-08-04T09:13:28.000Z</time>
      </trkpt>
      <trkpt lat="43.36635961197317" lon="-6.378659745678306">
        <ele>779.8</ele>
        <time>2017-08-04T09:13:33.000Z</time>
      </trkpt>
      <trkpt lat="43.3663303591311" lon="-6.378721687942743">
        <ele>779.8</ele>
        <time>2017-08-04T09:13:37.000Z</time>
      </trkpt>
      <trkpt lat="43.36631761863828" lon="-6.378747588023543">
        <ele>779.8</ele>
        <time>2017-08-04T09:13:39.000Z</time>
      </trkpt>
      <trkpt lat="43.36628953926265" lon="-6.378828473389149">
        <ele>780.2</ele>
        <time>2017-08-04T09:13:44.000Z</time>
      </trkpt>
      <trkpt lat="43.36628057062626" lon="-6.3789118733257055">
        <ele>781.2</ele>
        <time>2017-08-04T09:13:51.000Z</time>
      </trkpt>
      <trkpt lat="43.366269674152136" lon="-6.378979766741395">
        <ele>782.4</ele>
        <time>2017-08-04T09:13:56.000Z</time>
      </trkpt>
      <trkpt lat="43.3662230707705" lon="-6.37905428186059">
        <ele>783.2</ele>
        <time>2017-08-04T09:14:02.000Z</time>
      </trkpt>
      <trkpt lat="43.366213012486696" lon="-6.379066435620189">
        <ele>783.4</ele>
        <time>2017-08-04T09:14:03.000Z</time>
      </trkpt>
      <trkpt lat="43.366143023595214" lon="-6.379128713160753">
        <ele>783.6</ele>
        <time>2017-08-04T09:14:10.000Z</time>
      </trkpt>
      <trkpt lat="43.366093235090375" lon="-6.3791728019714355">
        <ele>783.8</ele>
        <time>2017-08-04T09:14:15.000Z</time>
      </trkpt>
      <trkpt lat="43.36607580073178" lon="-6.379200965166092">
        <ele>784</ele>
        <time>2017-08-04T09:14:17.000Z</time>
      </trkpt>
      <trkpt lat="43.36605476215482" lon="-6.3792570400983095">
        <ele>784.6</ele>
        <time>2017-08-04T09:14:21.000Z</time>
      </trkpt>
      <trkpt lat="43.366043446585536" lon="-6.379282353445888">
        <ele>784.8</ele>
        <time>2017-08-04T09:14:23.000Z</time>
      </trkpt>
      <trkpt lat="43.36602031253278" lon="-6.379335159435868">
        <ele>785.2</ele>
        <time>2017-08-04T09:14:27.000Z</time>
      </trkpt>
      <trkpt lat="43.36600832641125" lon="-6.379358125850558">
        <ele>785.2</ele>
        <time>2017-08-04T09:14:29.000Z</time>
      </trkpt>
      <trkpt lat="43.3659452944994" lon="-6.379412608221173">
        <ele>785.2</ele>
        <time>2017-08-04T09:14:36.000Z</time>
      </trkpt>
      <trkpt lat="43.36589642800391" lon="-6.379432221874595">
        <ele>785</ele>
        <time>2017-08-04T09:14:41.000Z</time>
      </trkpt>
      <trkpt lat="43.365869941189885" lon="-6.379451751708984">
        <ele>785</ele>
        <time>2017-08-04T09:14:45.000Z</time>
      </trkpt>
      <trkpt lat="43.36585317738354" lon="-6.379464576020837">
        <ele>785.2</ele>
        <time>2017-08-04T09:14:47.000Z</time>
      </trkpt>
      <trkpt lat="43.365790229290724" lon="-6.379500534385443">
        <ele>785.2</ele>
        <time>2017-08-04T09:14:54.000Z</time>
      </trkpt>
      <trkpt lat="43.365777572616935" lon="-6.379507156088948">
        <ele>785.2</ele>
        <time>2017-08-04T09:14:56.000Z</time>
      </trkpt>
      <trkpt lat="43.365753181278706" lon="-6.379512185230851">
        <ele>785.2</ele>
        <time>2017-08-04T09:14:58.000Z</time>
      </trkpt>
      <trkpt lat="43.365703308954835" lon="-6.379523668438196">
        <ele>785.2</ele>
        <time>2017-08-04T09:15:04.000Z</time>
      </trkpt>
      <trkpt lat="43.36568109691143" lon="-6.379526099190116">
        <ele>785</ele>
        <time>2017-08-04T09:15:06.000Z</time>
      </trkpt>
      <trkpt lat="43.365630051121116" lon="-6.379538672044873">
        <ele>785.2</ele>
        <time>2017-08-04T09:15:10.000Z</time>
      </trkpt>
      <trkpt lat="43.365568025037646" lon="-6.379545209929347">
        <ele>785.4</ele>
        <time>2017-08-04T09:15:15.000Z</time>
      </trkpt>
      <trkpt lat="43.36554229259491" lon="-6.379548478871584">
        <ele>785.4</ele>
        <time>2017-08-04T09:15:18.000Z</time>
      </trkpt>
      <trkpt lat="43.36553256958723" lon="-6.3795494846999645">
        <ele>785.4</ele>
        <time>2017-08-04T09:15:19.000Z</time>
      </trkpt>
      <trkpt lat="43.36546836420894" lon="-6.379572367295623">
        <ele>785.8</ele>
        <time>2017-08-04T09:15:24.000Z</time>
      </trkpt>
      <trkpt lat="43.36546065285802" lon="-6.379576558247209">
        <ele>785.8</ele>
        <time>2017-08-04T09:15:25.000Z</time>
      </trkpt>
      <trkpt lat="43.36544849909842" lon="-6.379575384780765">
        <ele>785.8</ele>
        <time>2017-08-04T09:15:26.000Z</time>
      </trkpt>
      <trkpt lat="43.36540449410677" lon="-6.3795930705964565">
        <ele>785.8</ele>
        <time>2017-08-04T09:15:30.000Z</time>
      </trkpt>
      <trkpt lat="43.365394016727805" lon="-6.379596590995789">
        <ele>785.8</ele>
        <time>2017-08-04T09:15:31.000Z</time>
      </trkpt>
      <trkpt lat="43.36534003727138" lon="-6.3796113431453705">
        <ele>786</ele>
        <time>2017-08-04T09:15:37.000Z</time>
      </trkpt>
      <trkpt lat="43.36532796733081" lon="-6.379607990384102">
        <ele>785.8</ele>
        <time>2017-08-04T09:15:38.000Z</time>
      </trkpt>
      <trkpt lat="43.36528396233916" lon="-6.379607822746038">
        <ele>785.6</ele>
        <time>2017-08-04T09:15:42.000Z</time>
      </trkpt>
      <trkpt lat="43.36527264676988" lon="-6.379609247669578">
        <ele>785.6</ele>
        <time>2017-08-04T09:15:43.000Z</time>
      </trkpt>
      <trkpt lat="43.36526141501963" lon="-6.3796010334044695">
        <ele>785.2</ele>
        <time>2017-08-04T09:15:44.000Z</time>
      </trkpt>
      <trkpt lat="43.3652285579592" lon="-6.379601871594787">
        <ele>785</ele>
        <time>2017-08-04T09:15:47.000Z</time>
      </trkpt>
      <trkpt lat="43.36521531455219" lon="-6.37959860265255">
        <ele>784.8</ele>
        <time>2017-08-04T09:15:48.000Z</time>
      </trkpt>
      <trkpt lat="43.365144738927484" lon="-6.379589047282934">
        <ele>783.8</ele>
        <time>2017-08-04T09:15:54.000Z</time>
      </trkpt>
      <trkpt lat="43.36513476446271" lon="-6.379589466378093">
        <ele>783.8</ele>
        <time>2017-08-04T09:15:55.000Z</time>
      </trkpt>
      <trkpt lat="43.36511925794184" lon="-6.379579491913319">
        <ele>783.4</ele>
        <time>2017-08-04T09:15:56.000Z</time>
      </trkpt>
      <trkpt lat="43.36507969535887" lon="-6.379577815532684">
        <ele>782.8</ele>
        <time>2017-08-04T09:15:59.000Z</time>
      </trkpt>
      <trkpt lat="43.36504289880395" lon="-6.379581922665238">
        <ele>782.4</ele>
        <time>2017-08-04T09:16:06.000Z</time>
      </trkpt>
      <trkpt lat="43.364987410604954" lon="-6.379601452499628">
        <ele>782.2</ele>
        <time>2017-08-04T09:16:28.000Z</time>
      </trkpt>
      <trkpt lat="43.36492865346372" lon="-6.379603799432516">
        <ele>781</ele>
        <time>2017-08-04T09:16:33.000Z</time>
      </trkpt>
      <trkpt lat="43.364858413115144" lon="-6.379626095294952">
        <ele>779.8</ele>
        <time>2017-08-04T09:16:39.000Z</time>
      </trkpt>
      <trkpt lat="43.364797895774245" lon="-6.379655096679926">
        <ele>779</ele>
        <time>2017-08-04T09:16:44.000Z</time>
      </trkpt>
      <trkpt lat="43.36474592797458" lon="-6.379672782495618">
        <ele>778.2</ele>
        <time>2017-08-04T09:16:48.000Z</time>
      </trkpt>
      <trkpt lat="43.36472296155989" lon="-6.37967973947525">
        <ele>777.8</ele>
        <time>2017-08-04T09:16:50.000Z</time>
      </trkpt>
      <trkpt lat="43.36465096101165" lon="-6.379706813022494">
        <ele>777</ele>
        <time>2017-08-04T09:16:56.000Z</time>
      </trkpt>
      <trkpt lat="43.36460796184838" lon="-6.379720475524664">
        <ele>776.6</ele>
        <time>2017-08-04T09:17:01.000Z</time>
      </trkpt>
      <trkpt lat="43.364598993211985" lon="-6.379724247381091">
        <ele>776.6</ele>
        <time>2017-08-04T09:17:02.000Z</time>
      </trkpt>
      <trkpt lat="43.36454786360264" lon="-6.379742603749037">
        <ele>776.2</ele>
        <time>2017-08-04T09:17:09.000Z</time>
      </trkpt>
      <trkpt lat="43.364471504464746" lon="-6.379764648154378">
        <ele>775.6</ele>
        <time>2017-08-04T09:17:15.000Z</time>
      </trkpt>
      <trkpt lat="43.36436849087477" lon="-6.379791973158717">
        <ele>774.6</ele>
        <time>2017-08-04T09:17:22.000Z</time>
      </trkpt>
      <trkpt lat="43.36430311203003" lon="-6.37979750521481">
        <ele>773.4</ele>
        <time>2017-08-04T09:17:27.000Z</time>
      </trkpt>
      <trkpt lat="43.36421870626509" lon="-6.37979406863451">
        <ele>772.4</ele>
        <time>2017-08-04T09:17:34.000Z</time>
      </trkpt>
      <trkpt lat="43.364118626341224" lon="-6.379847293719649">
        <ele>772</ele>
        <time>2017-08-04T09:17:42.000Z</time>
      </trkpt>
      <trkpt lat="43.364030281081796" lon="-6.379885599017143">
        <ele>770.8</ele>
        <time>2017-08-04T09:17:50.000Z</time>
      </trkpt>
      <trkpt lat="43.36402114480734" lon="-6.379892053082585">
        <ele>770.6</ele>
        <time>2017-08-04T09:17:51.000Z</time>
      </trkpt>
      <trkpt lat="43.363947719335556" lon="-6.379947541281581">
        <ele>769.8</ele>
        <time>2017-08-04T09:17:57.000Z</time>
      </trkpt>
      <trkpt lat="43.363881753757596" lon="-6.37999783270061">
        <ele>769</ele>
        <time>2017-08-04T09:18:03.000Z</time>
      </trkpt>
      <trkpt lat="43.363812854513526" lon="-6.3800271693617105">
        <ele>767.8</ele>
        <time>2017-08-04T09:18:09.000Z</time>
      </trkpt>
      <trkpt lat="43.363719899207354" lon="-6.38004275970161">
        <ele>765.8</ele>
        <time>2017-08-04T09:18:16.000Z</time>
      </trkpt>
      <trkpt lat="43.36370757780969" lon="-6.3800398260355">
        <ele>765.4</ele>
        <time>2017-08-04T09:18:17.000Z</time>
      </trkpt>
      <trkpt lat="43.36362199857831" lon="-6.3800586853176355">
        <ele>763.6</ele>
        <time>2017-08-04T09:18:24.000Z</time>
      </trkpt>
      <trkpt lat="43.36356592364609" lon="-6.3800798915326595">
        <ele>762.4</ele>
        <time>2017-08-04T09:18:29.000Z</time>
      </trkpt>
      <trkpt lat="43.36347774602473" lon="-6.380115011706948">
        <ele>761.4</ele>
        <time>2017-08-04T09:18:36.000Z</time>
      </trkpt>
      <trkpt lat="43.36339560337365" lon="-6.380139486864209">
        <ele>760.2</ele>
        <time>2017-08-04T09:18:43.000Z</time>
      </trkpt>
      <trkpt lat="43.363335840404034" lon="-6.380151389166713">
        <ele>759.4</ele>
        <time>2017-08-04T09:18:49.000Z</time>
      </trkpt>
      <trkpt lat="43.36325889453292" lon="-6.380154071375728">
        <ele>758.2</ele>
        <time>2017-08-04T09:18:56.000Z</time>
      </trkpt>
      <trkpt lat="43.363171219825745" lon="-6.380168404430151">
        <ele>757.2</ele>
        <time>2017-08-04T09:19:03.000Z</time>
      </trkpt>
      <trkpt lat="43.36308111436665" lon="-6.380178881809115">
        <ele>756</ele>
        <time>2017-08-04T09:19:10.000Z</time>
      </trkpt>
      <trkpt lat="43.363057896494865" lon="-6.380184665322304">
        <ele>755.8</ele>
        <time>2017-08-04T09:19:12.000Z</time>
      </trkpt>
      <trkpt lat="43.362984051927924" lon="-6.3801727630198">
        <ele>754.4</ele>
        <time>2017-08-04T09:19:18.000Z</time>
      </trkpt>
      <trkpt lat="43.362920014187694" lon="-6.380166979506612">
        <ele>753.2</ele>
        <time>2017-08-04T09:19:22.000Z</time>
      </trkpt>
      <trkpt lat="43.36288967169821" lon="-6.38016739860177">
        <ele>752.6</ele>
        <time>2017-08-04T09:19:25.000Z</time>
      </trkpt>
      <trkpt lat="43.362812558189034" lon="-6.380169577896595">
        <ele>751.2</ele>
        <time>2017-08-04T09:19:31.000Z</time>
      </trkpt>
      <trkpt lat="43.36278749629855" lon="-6.380174020305276">
        <ele>751</ele>
        <time>2017-08-04T09:19:33.000Z</time>
      </trkpt>
      <trkpt lat="43.36273645050824" lon="-6.380173768848181">
        <ele>750.2</ele>
        <time>2017-08-04T09:19:37.000Z</time>
      </trkpt>
      <trkpt lat="43.36262262426317" lon="-6.38018055818975">
        <ele>748.2</ele>
        <time>2017-08-04T09:19:46.000Z</time>
      </trkpt>
      <trkpt lat="43.36254701949656" lon="-6.380174607038498">
        <ele>746.8</ele>
        <time>2017-08-04T09:19:52.000Z</time>
      </trkpt>
      <trkpt lat="43.36246839724481" lon="-6.3801932986825705">
        <ele>745.6</ele>
        <time>2017-08-04T09:19:58.000Z</time>
      </trkpt>
      <trkpt lat="43.362397318705916" lon="-6.380288265645504">
        <ele>745.4</ele>
        <time>2017-08-04T09:20:06.000Z</time>
      </trkpt>
      <trkpt lat="43.362388936802745" lon="-6.380298910662532">
        <ele>745.4</ele>
        <time>2017-08-04T09:20:07.000Z</time>
      </trkpt>
      <trkpt lat="43.36235197260976" lon="-6.380358338356018">
        <ele>745.2</ele>
        <time>2017-08-04T09:20:12.000Z</time>
      </trkpt>
      <trkpt lat="43.36232950910926" lon="-6.380390441045165">
        <ele>745.2</ele>
        <time>2017-08-04T09:20:17.000Z</time>
      </trkpt>
      <trkpt lat="43.362296568229795" lon="-6.380461603403091">
        <ele>745.2</ele>
        <time>2017-08-04T09:20:23.000Z</time>
      </trkpt>
      <trkpt lat="43.36226111277938" lon="-6.380548859015107">
        <ele>745.4</ele>
        <time>2017-08-04T09:20:30.000Z</time>
      </trkpt>
      <trkpt lat="43.36223219521344" lon="-6.380657907575369">
        <ele>745.6</ele>
        <time>2017-08-04T09:20:37.000Z</time>
      </trkpt>
      <trkpt lat="43.36221585050225" lon="-6.3807696383446455">
        <ele>746.2</ele>
        <time>2017-08-04T09:20:44.000Z</time>
      </trkpt>
      <trkpt lat="43.36220554076135" lon="-6.380831580609083">
        <ele>746.4</ele>
        <time>2017-08-04T09:20:48.000Z</time>
      </trkpt>
      <trkpt lat="43.36221274919808" lon="-6.380862174555659">
        <ele>746.6</ele>
        <time>2017-08-04T09:20:51.000Z</time>
      </trkpt>
      <trkpt lat="43.362211575731635" lon="-6.380945071578026">
        <ele>746.8</ele>
        <time>2017-08-04T09:20:56.000Z</time>
      </trkpt>
      <trkpt lat="43.36220654658973" lon="-6.3809967041015625">
        <ele>747</ele>
        <time>2017-08-04T09:21:00.000Z</time>
      </trkpt>
      <trkpt lat="43.362201768904924" lon="-6.381013551726937">
        <ele>747</ele>
        <time>2017-08-04T09:21:01.000Z</time>
      </trkpt>
      <trkpt lat="43.3621855918318" lon="-6.381103405728936">
        <ele>747.2</ele>
        <time>2017-08-04T09:21:07.000Z</time>
      </trkpt>
      <trkpt lat="43.362163715064526" lon="-6.3811183255165815">
        <ele>747</ele>
        <time>2017-08-04T09:21:08.000Z</time>
      </trkpt>
      <trkpt lat="43.3621528185904" lon="-6.381149170920253">
        <ele>747.2</ele>
        <time>2017-08-04T09:21:10.000Z</time>
      </trkpt>
      <trkpt lat="43.36214527487755" lon="-6.381177334114909">
        <ele>747.2</ele>
        <time>2017-08-04T09:21:12.000Z</time>
      </trkpt>
      <trkpt lat="43.36213169619441" lon="-6.381215387955308">
        <ele>747.4</ele>
        <time>2017-08-04T09:21:15.000Z</time>
      </trkpt>
      <trkpt lat="43.36212247610092" lon="-6.38123014010489">
        <ele>747.4</ele>
        <time>2017-08-04T09:21:16.000Z</time>
      </trkpt>
      <trkpt lat="43.36209054104984" lon="-6.381308762356639">
        <ele>747.6</ele>
        <time>2017-08-04T09:21:22.000Z</time>
      </trkpt>
      <trkpt lat="43.362082997336984" lon="-6.381322592496872">
        <ele>747.6</ele>
        <time>2017-08-04T09:21:23.000Z</time>
      </trkpt>
      <trkpt lat="43.36204553022981" lon="-6.381367268040776">
        <ele>747.6</ele>
        <time>2017-08-04T09:21:27.000Z</time>
      </trkpt>
      <trkpt lat="43.362039998173714" lon="-6.381378583610058">
        <ele>747.6</ele>
        <time>2017-08-04T09:21:28.000Z</time>
      </trkpt>
      <trkpt lat="43.36198844946921" lon="-6.381466425955296">
        <ele>747.6</ele>
        <time>2017-08-04T09:21:34.000Z</time>
      </trkpt>
      <trkpt lat="43.361953999847174" lon="-6.381530798971653">
        <ele>747.8</ele>
        <time>2017-08-04T09:21:39.000Z</time>
      </trkpt>
      <trkpt lat="43.36194486357272" lon="-6.381552340462804">
        <ele>747.8</ele>
        <time>2017-08-04T09:21:41.000Z</time>
      </trkpt>
      <trkpt lat="43.36192726157606" lon="-6.38160833157599">
        <ele>748</ele>
        <time>2017-08-04T09:21:45.000Z</time>
      </trkpt>
      <trkpt lat="43.36190789937973" lon="-6.381645547226071">
        <ele>748</ele>
        <time>2017-08-04T09:21:47.000Z</time>
      </trkpt>
      <trkpt lat="43.36187118664384" lon="-6.381725845858455">
        <ele>748</ele>
        <time>2017-08-04T09:21:52.000Z</time>
      </trkpt>
      <trkpt lat="43.36185006424785" lon="-6.381783429533243">
        <ele>748</ele>
        <time>2017-08-04T09:21:56.000Z</time>
      </trkpt>
      <trkpt lat="43.36183665320277" lon="-6.381816286593676">
        <ele>748</ele>
        <time>2017-08-04T09:21:58.000Z</time>
      </trkpt>
      <trkpt lat="43.36180279031396" lon="-6.381902284920216">
        <ele>747.8</ele>
        <time>2017-08-04T09:22:04.000Z</time>
      </trkpt>
      <trkpt lat="43.36179415695369" lon="-6.381916869431734">
        <ele>747.8</ele>
        <time>2017-08-04T09:22:05.000Z</time>
      </trkpt>
      <trkpt lat="43.36177697405219" lon="-6.3819703459739685">
        <ele>748</ele>
        <time>2017-08-04T09:22:08.000Z</time>
      </trkpt>
      <trkpt lat="43.36176901124418" lon="-6.38200462795794">
        <ele>748.2</ele>
        <time>2017-08-04T09:22:10.000Z</time>
      </trkpt>
      <trkpt lat="43.361752750352025" lon="-6.382059194147587">
        <ele>748.4</ele>
        <time>2017-08-04T09:22:13.000Z</time>
      </trkpt>
      <trkpt lat="43.36170991882682" lon="-6.382174948230386">
        <ele>748.6</ele>
        <time>2017-08-04T09:22:19.000Z</time>
      </trkpt>
      <trkpt lat="43.361697178334" lon="-6.382209733128548">
        <ele>748.6</ele>
        <time>2017-08-04T09:22:21.000Z</time>
      </trkpt>
      <trkpt lat="43.36167714558542" lon="-6.382265221327543">
        <ele>748.8</ele>
        <time>2017-08-04T09:22:25.000Z</time>
      </trkpt>
      <trkpt lat="43.36166633293033" lon="-6.3822984136641026">
        <ele>749</ele>
        <time>2017-08-04T09:22:27.000Z</time>
      </trkpt>
      <trkpt lat="43.36164688691497" lon="-6.38236622326076">
        <ele>749.4</ele>
        <time>2017-08-04T09:22:31.000Z</time>
      </trkpt>
      <trkpt lat="43.3616313803941" lon="-6.382419699802995">
        <ele>749.6</ele>
        <time>2017-08-04T09:22:34.000Z</time>
      </trkpt>
      <trkpt lat="43.36161796934903" lon="-6.382471164688468">
        <ele>749.8</ele>
        <time>2017-08-04T09:22:37.000Z</time>
      </trkpt>
      <trkpt lat="43.36160992272198" lon="-6.382503435015678">
        <ele>749.8</ele>
        <time>2017-08-04T09:22:39.000Z</time>
      </trkpt>
      <trkpt lat="43.36160288192332" lon="-6.382541824132204">
        <ele>750</ele>
        <time>2017-08-04T09:22:41.000Z</time>
      </trkpt>
      <trkpt lat="43.361585615202785" lon="-6.382591025903821">
        <ele>749.8</ele>
        <time>2017-08-04T09:22:45.000Z</time>
      </trkpt>
      <trkpt lat="43.36157505400479" lon="-6.382632348686457">
        <ele>749.8</ele>
        <time>2017-08-04T09:22:48.000Z</time>
      </trkpt>
      <trkpt lat="43.3615642413497" lon="-6.38267258182168">
        <ele>749.8</ele>
        <time>2017-08-04T09:22:51.000Z</time>
      </trkpt>
      <trkpt lat="43.36156105622649" lon="-6.38268331065774">
        <ele>749.8</ele>
        <time>2017-08-04T09:22:52.000Z</time>
      </trkpt>
      <trkpt lat="43.36156105622649" lon="-6.382693871855736">
        <ele>749.8</ele>
        <time>2017-08-04T09:22:53.000Z</time>
      </trkpt>
      <trkpt lat="43.361558709293604" lon="-6.382735446095467">
        <ele>750</ele>
        <time>2017-08-04T09:22:57.000Z</time>
      </trkpt>
      <trkpt lat="43.36152518168092" lon="-6.382793616503477">
        <ele>749.8</ele>
        <time>2017-08-04T09:23:01.000Z</time>
      </trkpt>
      <trkpt lat="43.361502634361386" lon="-6.382834687829018">
        <ele>749.8</ele>
        <time>2017-08-04T09:23:04.000Z</time>
      </trkpt>
      <trkpt lat="43.361474219709635" lon="-6.382922111079097">
        <ele>750</ele>
        <time>2017-08-04T09:23:09.000Z</time>
      </trkpt>
      <trkpt lat="43.36146474815905" lon="-6.3829451613128185">
        <ele>750</ele>
        <time>2017-08-04T09:23:11.000Z</time>
      </trkpt>
      <trkpt lat="43.36143482476473" lon="-6.383011294528842">
        <ele>749.8</ele>
        <time>2017-08-04T09:23:15.000Z</time>
      </trkpt>
      <trkpt lat="43.36143281310797" lon="-6.383023783564568">
        <ele>749.8</ele>
        <time>2017-08-04T09:23:16.000Z</time>
      </trkpt>
      <trkpt lat="43.361409762874246" lon="-6.383068459108472">
        <ele>749.8</ele>
        <time>2017-08-04T09:23:19.000Z</time>
      </trkpt>
      <trkpt lat="43.36137003265321" lon="-6.383165856823325">
        <ele>749.8</ele>
        <time>2017-08-04T09:23:25.000Z</time>
      </trkpt>
      <trkpt lat="43.36136299185455" lon="-6.383178345859051">
        <ele>749.6</ele>
        <time>2017-08-04T09:23:26.000Z</time>
      </trkpt>
      <trkpt lat="43.361330050975084" lon="-6.383237354457378">
        <ele>749.4</ele>
        <time>2017-08-04T09:23:30.000Z</time>
      </trkpt>
      <trkpt lat="43.361306078732014" lon="-6.383286053314805">
        <ele>749.4</ele>
        <time>2017-08-04T09:23:33.000Z</time>
      </trkpt>
      <trkpt lat="43.3612634986639" lon="-6.383363585919142">
        <ele>748.8</ele>
        <time>2017-08-04T09:23:38.000Z</time>
      </trkpt>
      <trkpt lat="43.36121597327292" lon="-6.383422929793596">
        <ele>748</ele>
        <time>2017-08-04T09:23:43.000Z</time>
      </trkpt>
      <trkpt lat="43.36113911122084" lon="-6.3835197407752275">
        <ele>747</ele>
        <time>2017-08-04T09:23:50.000Z</time>
      </trkpt>
      <trkpt lat="43.36109636351466" lon="-6.383593250066042">
        <ele>746.4</ele>
        <time>2017-08-04T09:23:55.000Z</time>
      </trkpt>
      <trkpt lat="43.361062752082944" lon="-6.383674470707774">
        <ele>746.2</ele>
        <time>2017-08-04T09:24:00.000Z</time>
      </trkpt>
      <trkpt lat="43.36105571128428" lon="-6.38368746265769">
        <ele>746.2</ele>
        <time>2017-08-04T09:24:01.000Z</time>
      </trkpt>
      <trkpt lat="43.36103073321283" lon="-6.383758708834648">
        <ele>746.4</ele>
        <time>2017-08-04T09:24:06.000Z</time>
      </trkpt>
      <trkpt lat="43.36101765744388" lon="-6.383794164285064">
        <ele>746.4</ele>
        <time>2017-08-04T09:24:09.000Z</time>
      </trkpt>
      <trkpt lat="43.36100994609296" lon="-6.383804474025965">
        <ele>746.4</ele>
        <time>2017-08-04T09:24:10.000Z</time>
      </trkpt>
      <trkpt lat="43.360988488420844" lon="-6.383833643049002">
        <ele>746.4</ele>
        <time>2017-08-04T09:24:12.000Z</time>
      </trkpt>
      <trkpt lat="43.36091506294906" lon="-6.383915366604924">
        <ele>746</ele>
        <time>2017-08-04T09:24:19.000Z</time>
      </trkpt>
      <trkpt lat="43.36088379845023" lon="-6.3839514926075935">
        <ele>746</ele>
        <time>2017-08-04T09:24:22.000Z</time>
      </trkpt>
      <trkpt lat="43.360845325514674" lon="-6.3839943241328">
        <ele>745.8</ele>
        <time>2017-08-04T09:24:26.000Z</time>
      </trkpt>
      <trkpt lat="43.36082671768963" lon="-6.38401485979557">
        <ele>745.8</ele>
        <time>2017-08-04T09:24:28.000Z</time>
      </trkpt>
      <trkpt lat="43.36078983731568" lon="-6.384055512025952">
        <ele>745.6</ele>
        <time>2017-08-04T09:24:32.000Z</time>
      </trkpt>
      <trkpt lat="43.36078271269798" lon="-6.384059702977538">
        <ele>745.6</ele>
        <time>2017-08-04T09:24:33.000Z</time>
      </trkpt>
      <trkpt lat="43.36077466607094" lon="-6.384080238640308">
        <ele>745.6</ele>
        <time>2017-08-04T09:24:36.000Z</time>
      </trkpt>
      <trkpt lat="43.36075044237077" lon="-6.384101528674364">
        <ele>745.2</ele>
        <time>2017-08-04T09:24:38.000Z</time>
      </trkpt>
      <trkpt lat="43.36067601107061" lon="-6.384185515344143">
        <ele>744.2</ele>
        <time>2017-08-04T09:24:45.000Z</time>
      </trkpt>
      <trkpt lat="43.36063100025058" lon="-6.384229017421603">
        <ele>743.4</ele>
        <time>2017-08-04T09:24:49.000Z</time>
      </trkpt>
      <trkpt lat="43.36062069050968" lon="-6.384236980229616">
        <ele>743.2</ele>
        <time>2017-08-04T09:24:50.000Z</time>
      </trkpt>
      <trkpt lat="43.360543912276626" lon="-6.384300095960498">
        <ele>741.8</ele>
        <time>2017-08-04T09:24:57.000Z</time>
      </trkpt>
      <trkpt lat="43.36047409102321" lon="-6.384340329095721">
        <ele>741</ele>
        <time>2017-08-04T09:25:03.000Z</time>
      </trkpt>
      <trkpt lat="43.36046394892037" lon="-6.384349633008242">
        <ele>740.8</ele>
        <time>2017-08-04T09:25:04.000Z</time>
      </trkpt>
      <trkpt lat="43.36038574576378" lon="-6.3844050373882055">
        <ele>740</ele>
        <time>2017-08-04T09:25:11.000Z</time>
      </trkpt>
      <trkpt lat="43.360364036634564" lon="-6.384418532252312">
        <ele>740</ele>
        <time>2017-08-04T09:25:13.000Z</time>
      </trkpt>
      <trkpt lat="43.36032522842288" lon="-6.384454155340791">
        <ele>739.6</ele>
        <time>2017-08-04T09:25:16.000Z</time>
      </trkpt>
      <trkpt lat="43.360259011387825" lon="-6.38449371792376">
        <ele>739.2</ele>
        <time>2017-08-04T09:25:21.000Z</time>
      </trkpt>
      <trkpt lat="43.36019857786596" lon="-6.384544679895043">
        <ele>738.8</ele>
        <time>2017-08-04T09:25:27.000Z</time>
      </trkpt>
      <trkpt lat="43.36014141328633" lon="-6.384586505591869">
        <ele>738.6</ele>
        <time>2017-08-04T09:25:33.000Z</time>
      </trkpt>
      <trkpt lat="43.36013169027865" lon="-6.384592121466994">
        <ele>738.6</ele>
        <time>2017-08-04T09:25:34.000Z</time>
      </trkpt>
      <trkpt lat="43.360064048320055" lon="-6.384630594402552">
        <ele>738.4</ele>
        <time>2017-08-04T09:25:40.000Z</time>
      </trkpt>
      <trkpt lat="43.36004418320954" lon="-6.384632019326091">
        <ele>738.2</ele>
        <time>2017-08-04T09:25:42.000Z</time>
      </trkpt>
      <trkpt lat="43.36003043688834" lon="-6.384637383744121">
        <ele>738.2</ele>
        <time>2017-08-04T09:25:45.000Z</time>
      </trkpt>
      <trkpt lat="43.360009817406535" lon="-6.384651465341449">
        <ele>738.2</ele>
        <time>2017-08-04T09:25:47.000Z</time>
      </trkpt>
      <trkpt lat="43.35997670888901" lon="-6.384678538888693">
        <ele>738</ele>
        <time>2017-08-04T09:25:50.000Z</time>
      </trkpt>
      <trkpt lat="43.359969248995185" lon="-6.384690525010228">
        <ele>738</ele>
        <time>2017-08-04T09:25:51.000Z</time>
      </trkpt>
      <trkpt lat="43.359939912334085" lon="-6.384708881378174">
        <ele>738</ele>
        <time>2017-08-04T09:25:53.000Z</time>
      </trkpt>
      <trkpt lat="43.35988442413509" lon="-6.384753808379173">
        <ele>737.6</ele>
        <time>2017-08-04T09:25:58.000Z</time>
      </trkpt>
      <trkpt lat="43.35982323624194" lon="-6.384792281314731">
        <ele>737.2</ele>
        <time>2017-08-04T09:26:03.000Z</time>
      </trkpt>
      <trkpt lat="43.35976380854845" lon="-6.3848320953547955">
        <ele>736.8</ele>
        <time>2017-08-04T09:26:08.000Z</time>
      </trkpt>
      <trkpt lat="43.35975006222725" lon="-6.384842321276665">
        <ele>736.8</ele>
        <time>2017-08-04T09:26:09.000Z</time>
      </trkpt>
      <trkpt lat="43.359656101092696" lon="-6.3848963007330894">
        <ele>736.2</ele>
        <time>2017-08-04T09:26:15.000Z</time>
      </trkpt>
      <trkpt lat="43.359598852694035" lon="-6.38494374230504">
        <ele>736</ele>
        <time>2017-08-04T09:26:20.000Z</time>
      </trkpt>
      <trkpt lat="43.35958493873477" lon="-6.3849560637027025">
        <ele>735.8</ele>
        <time>2017-08-04T09:26:21.000Z</time>
      </trkpt>
      <trkpt lat="43.359567588195205" lon="-6.384976012632251">
        <ele>735.8</ele>
        <time>2017-08-04T09:26:26.000Z</time>
      </trkpt>
      <trkpt lat="43.35952777415514" lon="-6.38502630405128">
        <ele>735.6</ele>
        <time>2017-08-04T09:26:33.000Z</time>
      </trkpt>
      <trkpt lat="43.35949122905731" lon="-6.385052874684334">
        <ele>735.2</ele>
        <time>2017-08-04T09:26:37.000Z</time>
      </trkpt>
      <trkpt lat="43.35942517966032" lon="-6.385119846090674">
        <ele>734.8</ele>
        <time>2017-08-04T09:26:43.000Z</time>
      </trkpt>
      <trkpt lat="43.35939450189471" lon="-6.385150691494346">
        <ele>734.6</ele>
        <time>2017-08-04T09:26:46.000Z</time>
      </trkpt>
      <trkpt lat="43.35936550050974" lon="-6.385170053690672">
        <ele>734.2</ele>
        <time>2017-08-04T09:26:48.000Z</time>
      </trkpt>
      <trkpt lat="43.359298361465335" lon="-6.385229146108031">
        <ele>733.8</ele>
        <time>2017-08-04T09:26:54.000Z</time>
      </trkpt>
      <trkpt lat="43.359283776953816" lon="-6.38523786328733">
        <ele>733.6</ele>
        <time>2017-08-04T09:26:55.000Z</time>
      </trkpt>
      <trkpt lat="43.359249914065" lon="-6.385269379243255">
        <ele>733.4</ele>
        <time>2017-08-04T09:26:58.000Z</time>
      </trkpt>
      <trkpt lat="43.359160060063004" lon="-6.385341212153435">
        <ele>732.6</ele>
        <time>2017-08-04T09:27:05.000Z</time>
      </trkpt>
      <trkpt lat="43.35913541726768" lon="-6.38535269536078">
        <ele>732.4</ele>
        <time>2017-08-04T09:27:08.000Z</time>
      </trkpt>
      <trkpt lat="43.359107756987214" lon="-6.385365854948759">
        <ele>732.2</ele>
        <time>2017-08-04T09:27:10.000Z</time>
      </trkpt>
      <trkpt lat="43.359013963490725" lon="-6.385397287085652">
        <ele>731.8</ele>
        <time>2017-08-04T09:27:16.000Z</time>
      </trkpt>
      <trkpt lat="43.35899854078889" lon="-6.385405417531729">
        <ele>731.6</ele>
        <time>2017-08-04T09:27:17.000Z</time>
      </trkpt>
      <trkpt lat="43.358987644314766" lon="-6.385417487472296">
        <ele>731.6</ele>
        <time>2017-08-04T09:27:18.000Z</time>
      </trkpt>
      <trkpt lat="43.35893073119223" lon="-6.38544749468565">
        <ele>731.4</ele>
        <time>2017-08-04T09:27:22.000Z</time>
      </trkpt>
      <trkpt lat="43.358914805576205" lon="-6.3854588102549314">
        <ele>731.2</ele>
        <time>2017-08-04T09:27:23.000Z</time>
      </trkpt>
      <trkpt lat="43.35882822051644" lon="-6.385543718934059">
        <ele>731</ele>
        <time>2017-08-04T09:27:30.000Z</time>
      </trkpt>
      <trkpt lat="43.35876988247037" lon="-6.385615048930049">
        <ele>731</ele>
        <time>2017-08-04T09:27:36.000Z</time>
      </trkpt>
      <trkpt lat="43.35872998461127" lon="-6.38567372225225">
        <ele>731.2</ele>
        <time>2017-08-04T09:27:41.000Z</time>
      </trkpt>
      <trkpt lat="43.358695954084396" lon="-6.385753350332379">
        <ele>731.2</ele>
        <time>2017-08-04T09:27:47.000Z</time>
      </trkpt>
      <trkpt lat="43.35868145339191" lon="-6.385786542668939">
        <ele>731.4</ele>
        <time>2017-08-04T09:27:49.000Z</time>
      </trkpt>
      <trkpt lat="43.35868212394416" lon="-6.385820992290974">
        <ele>731.4</ele>
        <time>2017-08-04T09:27:51.000Z</time>
      </trkpt>
      <trkpt lat="43.35869260132313" lon="-6.385936578735709">
        <ele>732</ele>
        <time>2017-08-04T09:27:57.000Z</time>
      </trkpt>
      <trkpt lat="43.35870299488306" lon="-6.38598594814539">
        <ele>732.2</ele>
        <time>2017-08-04T09:28:00.000Z</time>
      </trkpt>
      <trkpt lat="43.358705174177885" lon="-6.386022241786122">
        <ele>732.2</ele>
        <time>2017-08-04T09:28:02.000Z</time>
      </trkpt>
      <trkpt lat="43.35869947448373" lon="-6.386125590652227">
        <ele>732.4</ele>
        <time>2017-08-04T09:28:08.000Z</time>
      </trkpt>
      <trkpt lat="43.35870215669274" lon="-6.386142019182444">
        <ele>732.4</ele>
        <time>2017-08-04T09:28:09.000Z</time>
      </trkpt>
      <trkpt lat="43.35869134403765" lon="-6.386216701939702">
        <ele>732.4</ele>
        <time>2017-08-04T09:28:13.000Z</time>
      </trkpt>
      <trkpt lat="43.35868438705802" lon="-6.386276884004474">
        <ele>732.4</ele>
        <time>2017-08-04T09:28:18.000Z</time>
      </trkpt>
      <trkpt lat="43.35865898989141" lon="-6.386379394680262">
        <ele>732.2</ele>
        <time>2017-08-04T09:28:23.000Z</time>
      </trkpt>
      <trkpt lat="43.3586507756263" lon="-6.386438738554716">
        <ele>732</ele>
        <time>2017-08-04T09:28:27.000Z</time>
      </trkpt>
      <trkpt lat="43.35862588137388" lon="-6.386538064107299">
        <ele>731.6</ele>
        <time>2017-08-04T09:28:32.000Z</time>
      </trkpt>
      <trkpt lat="43.3586180023849" lon="-6.386560443788767">
        <ele>731.4</ele>
        <time>2017-08-04T09:28:33.000Z</time>
      </trkpt>
      <trkpt lat="43.35859335958958" lon="-6.386615261435509">
        <ele>731.2</ele>
        <time>2017-08-04T09:28:36.000Z</time>
      </trkpt>
      <trkpt lat="43.35857265628874" lon="-6.386650297790766">
        <ele>730.8</ele>
        <time>2017-08-04T09:28:38.000Z</time>
      </trkpt>
      <trkpt lat="43.35853108204901" lon="-6.3867357932031155">
        <ele>730</ele>
        <time>2017-08-04T09:28:43.000Z</time>
      </trkpt>
      <trkpt lat="43.35852420888841" lon="-6.3867519702762365">
        <ele>729.8</ele>
        <time>2017-08-04T09:28:44.000Z</time>
      </trkpt>
      <trkpt lat="43.3584937825799" lon="-6.386814247816801">
        <ele>729.2</ele>
        <time>2017-08-04T09:28:49.000Z</time>
      </trkpt>
      <trkpt lat="43.35846729576588" lon="-6.386848110705614">
        <ele>728.8</ele>
        <time>2017-08-04T09:28:56.000Z</time>
      </trkpt>
      <trkpt lat="43.358457991853356" lon="-6.386861437931657">
        <ele>728.6</ele>
        <time>2017-08-04T09:28:57.000Z</time>
      </trkpt>
      <trkpt lat="43.358422787860036" lon="-6.386933606117964">
        <ele>727.8</ele>
        <time>2017-08-04T09:29:02.000Z</time>
      </trkpt>
      <trkpt lat="43.35841474123299" lon="-6.387037038803101">
        <ele>727</ele>
        <time>2017-08-04T09:29:08.000Z</time>
      </trkpt>
      <trkpt lat="43.35839571431279" lon="-6.387087078765035">
        <ele>726.4</ele>
        <time>2017-08-04T09:29:12.000Z</time>
      </trkpt>
      <trkpt lat="43.35839713923633" lon="-6.387105016037822">
        <ele>726.4</ele>
        <time>2017-08-04T09:29:13.000Z</time>
      </trkpt>
      <trkpt lat="43.358391942456365" lon="-6.387184476479888">
        <ele>725.8</ele>
        <time>2017-08-04T09:29:17.000Z</time>
      </trkpt>
      <trkpt lat="43.3583954628557" lon="-6.3871957920491695">
        <ele>725.6</ele>
        <time>2017-08-04T09:29:18.000Z</time>
      </trkpt>
      <trkpt lat="43.358399737626314" lon="-6.3872049283236265">
        <ele>725.6</ele>
        <time>2017-08-04T09:29:19.000Z</time>
      </trkpt>
      <trkpt lat="43.35839470848441" lon="-6.387269804254174">
        <ele>725.2</ele>
        <time>2017-08-04T09:29:23.000Z</time>
      </trkpt>
      <trkpt lat="43.358390433713794" lon="-6.3872994761914015">
        <ele>725</ele>
        <time>2017-08-04T09:29:25.000Z</time>
      </trkpt>
      <trkpt lat="43.358370903879404" lon="-6.387378266081214">
        <ele>724.2</ele>
        <time>2017-08-04T09:29:30.000Z</time>
      </trkpt>
      <trkpt lat="43.35836042650044" lon="-6.387410284951329">
        <ele>723.8</ele>
        <time>2017-08-04T09:29:32.000Z</time>
      </trkpt>
      <trkpt lat="43.35830426774919" lon="-6.387500558048487">
        <ele>723</ele>
        <time>2017-08-04T09:29:39.000Z</time>
      </trkpt>
      <trkpt lat="43.35828859359026" lon="-6.387527044862509">
        <ele>722.8</ele>
        <time>2017-08-04T09:29:42.000Z</time>
      </trkpt>
      <trkpt lat="43.35827895440161" lon="-6.387530146166682">
        <ele>722.8</ele>
        <time>2017-08-04T09:29:43.000Z</time>
      </trkpt>
      <trkpt lat="43.35821139626205" lon="-6.387593764811754">
        <ele>722.2</ele>
        <time>2017-08-04T09:29:48.000Z</time>
      </trkpt>
      <trkpt lat="43.35816730745137" lon="-6.387644475325942">
        <ele>722</ele>
        <time>2017-08-04T09:29:52.000Z</time>
      </trkpt>
      <trkpt lat="43.35815574042499" lon="-6.387655874714255">
        <ele>721.8</ele>
        <time>2017-08-04T09:29:53.000Z</time>
      </trkpt>
      <trkpt lat="43.35809027776122" lon="-6.38773038983345">
        <ele>721.4</ele>
        <time>2017-08-04T09:29:59.000Z</time>
      </trkpt>
      <trkpt lat="43.35798860527575" lon="-6.387815214693546">
        <ele>720.4</ele>
        <time>2017-08-04T09:30:07.000Z</time>
      </trkpt>
      <trkpt lat="43.35789640434086" lon="-6.387874223291874">
        <ele>719.2</ele>
        <time>2017-08-04T09:30:14.000Z</time>
      </trkpt>
      <trkpt lat="43.357826080173254" lon="-6.38794245198369">
        <ele>718.2</ele>
        <time>2017-08-04T09:30:20.000Z</time>
      </trkpt>
      <trkpt lat="43.35778836160898" lon="-6.388010596856475">
        <ele>717.6</ele>
        <time>2017-08-04T09:30:25.000Z</time>
      </trkpt>
      <trkpt lat="43.35774871520698" lon="-6.388098523020744">
        <ele>717.6</ele>
        <time>2017-08-04T09:30:31.000Z</time>
      </trkpt>
      <trkpt lat="43.35773220285773" lon="-6.3881205674260855">
        <ele>717.6</ele>
        <time>2017-08-04T09:30:33.000Z</time>
      </trkpt>
      <trkpt lat="43.357698591426015" lon="-6.388148060068488">
        <ele>717.4</ele>
        <time>2017-08-04T09:30:36.000Z</time>
      </trkpt>
      <trkpt lat="43.35764788091183" lon="-6.388173373416066">
        <ele>717</ele>
        <time>2017-08-04T09:30:40.000Z</time>
      </trkpt>
      <trkpt lat="43.35759968496859" lon="-6.388204218819737">
        <ele>716.8</ele>
        <time>2017-08-04T09:30:45.000Z</time>
      </trkpt>
      <trkpt lat="43.35756976157427" lon="-6.388235483318567">
        <ele>716.6</ele>
        <time>2017-08-04T09:30:49.000Z</time>
      </trkpt>
      <trkpt lat="43.357559284195304" lon="-6.3882392551749945">
        <ele>716.6</ele>
        <time>2017-08-04T09:30:50.000Z</time>
      </trkpt>
      <trkpt lat="43.35750111378729" lon="-6.388291725888848">
        <ele>716.4</ele>
        <time>2017-08-04T09:30:55.000Z</time>
      </trkpt>
      <trkpt lat="43.35747932083905" lon="-6.388313686475158">
        <ele>716.4</ele>
        <time>2017-08-04T09:30:57.000Z</time>
      </trkpt>
      <trkpt lat="43.35746926255524" lon="-6.388317961245775">
        <ele>716.4</ele>
        <time>2017-08-04T09:30:58.000Z</time>
      </trkpt>
      <trkpt lat="43.35744361393154" lon="-6.388377891853452">
        <ele>717</ele>
        <time>2017-08-04T09:31:03.000Z</time>
      </trkpt>
      <trkpt lat="43.35743498057127" lon="-6.388393482193351">
        <ele>717.2</ele>
        <time>2017-08-04T09:31:04.000Z</time>
      </trkpt>
      <trkpt lat="43.35739483125508" lon="-6.388469506055117">
        <ele>718</ele>
        <time>2017-08-04T09:31:09.000Z</time>
      </trkpt>
      <trkpt lat="43.35737764835358" lon="-6.388501608744264">
        <ele>718.2</ele>
        <time>2017-08-04T09:31:11.000Z</time>
      </trkpt>
      <trkpt lat="43.357352335006" lon="-6.388577213510871">
        <ele>719.2</ele>
        <time>2017-08-04T09:31:16.000Z</time>
      </trkpt>
      <trkpt lat="43.35733783431351" lon="-6.388605963438749">
        <ele>719.4</ele>
        <time>2017-08-04T09:31:18.000Z</time>
      </trkpt>
      <trkpt lat="43.35733129642904" lon="-6.388625409454107">
        <ele>719.8</ele>
        <time>2017-08-04T09:31:20.000Z</time>
      </trkpt>
      <trkpt lat="43.357328698039055" lon="-6.388637563213706">
        <ele>719.8</ele>
        <time>2017-08-04T09:31:21.000Z</time>
      </trkpt>
      <trkpt lat="43.35731436498463" lon="-6.3887140061706305">
        <ele>720.8</ele>
        <time>2017-08-04T09:31:26.000Z</time>
      </trkpt>
      <trkpt lat="43.357307408005" lon="-6.388734290376306">
        <ele>721.2</ele>
        <time>2017-08-04T09:31:27.000Z</time>
      </trkpt>
      <trkpt lat="43.357298942282796" lon="-6.388776367530227">
        <ele>721.6</ele>
        <time>2017-08-04T09:31:30.000Z</time>
      </trkpt>
      <trkpt lat="43.357297936454415" lon="-6.388824312016368">
        <ele>722.4</ele>
        <time>2017-08-04T09:31:33.000Z</time>
      </trkpt>
      <trkpt lat="43.35729575715959" lon="-6.388842919841409">
        <ele>722.6</ele>
        <time>2017-08-04T09:31:34.000Z</time>
      </trkpt>
      <trkpt lat="43.357290560379624" lon="-6.388894384726882">
        <ele>723.2</ele>
        <time>2017-08-04T09:31:37.000Z</time>
      </trkpt>
      <trkpt lat="43.357289554551244" lon="-6.388925397768617">
        <ele>723.4</ele>
        <time>2017-08-04T09:31:39.000Z</time>
      </trkpt>
      <trkpt lat="43.35728980600834" lon="-6.388982981443405">
        <ele>724.2</ele>
        <time>2017-08-04T09:31:43.000Z</time>
      </trkpt>
      <trkpt lat="43.357293074950576" lon="-6.389004187658429">
        <ele>724.4</ele>
        <time>2017-08-04T09:31:45.000Z</time>
      </trkpt>
      <trkpt lat="43.35728980600834" lon="-6.389088425785303">
        <ele>725</ele>
        <time>2017-08-04T09:31:50.000Z</time>
      </trkpt>
      <trkpt lat="43.357284776866436" lon="-6.389100747182965">
        <ele>725.2</ele>
        <time>2017-08-04T09:31:51.000Z</time>
      </trkpt>
      <trkpt lat="43.357272958382964" lon="-6.389144416898489">
        <ele>725.4</ele>
        <time>2017-08-04T09:31:55.000Z</time>
      </trkpt>
      <trkpt lat="43.35723649710417" lon="-6.3892170041799545">
        <ele>725.4</ele>
        <time>2017-08-04T09:32:01.000Z</time>
      </trkpt>
      <trkpt lat="43.357232389971614" lon="-6.389227481558919">
        <ele>725.6</ele>
        <time>2017-08-04T09:32:02.000Z</time>
      </trkpt>
      <trkpt lat="43.35718369111419" lon="-6.389319179579616">
        <ele>725.6</ele>
        <time>2017-08-04T09:32:09.000Z</time>
      </trkpt>
      <trkpt lat="43.35712183266878" lon="-6.389414565637708">
        <ele>725.6</ele>
        <time>2017-08-04T09:32:16.000Z</time>
      </trkpt>
      <trkpt lat="43.357027200981975" lon="-6.389519087970257">
        <ele>725.2</ele>
        <time>2017-08-04T09:32:24.000Z</time>
      </trkpt>
      <trkpt lat="43.35693709552288" lon="-6.3896119594573975">
        <ele>725</ele>
        <time>2017-08-04T09:32:31.000Z</time>
      </trkpt>
      <trkpt lat="43.35686434060335" lon="-6.389677757397294">
        <ele>724.8</ele>
        <time>2017-08-04T09:32:37.000Z</time>
      </trkpt>
      <trkpt lat="43.35680742748082" lon="-6.38973324559629">
        <ele>725</ele>
        <time>2017-08-04T09:32:43.000Z</time>
      </trkpt>
      <trkpt lat="43.356740456074476" lon="-6.38980315066874">
        <ele>725.2</ele>
        <time>2017-08-04T09:32:50.000Z</time>
      </trkpt>
      <trkpt lat="43.35664833895862" lon="-6.389898369088769">
        <ele>725.6</ele>
        <time>2017-08-04T09:32:58.000Z</time>
      </trkpt>
      <trkpt lat="43.35657776333392" lon="-6.389977829530835">
        <ele>725.8</ele>
        <time>2017-08-04T09:33:05.000Z</time>
      </trkpt>
      <trkpt lat="43.35650903172791" lon="-6.39004404656589">
        <ele>725.6</ele>
        <time>2017-08-04T09:33:12.000Z</time>
      </trkpt>
      <trkpt lat="43.3564921002835" lon="-6.390064749866724">
        <ele>725.8</ele>
        <time>2017-08-04T09:33:14.000Z</time>
      </trkpt>
      <trkpt lat="43.35647391155362" lon="-6.3901005405932665">
        <ele>725.8</ele>
        <time>2017-08-04T09:33:17.000Z</time>
      </trkpt>
      <trkpt lat="43.35646905004978" lon="-6.390106407925487">
        <ele>725.8</ele>
        <time>2017-08-04T09:33:18.000Z</time>
      </trkpt>
      <trkpt lat="43.3564558904618" lon="-6.39011730439961">
        <ele>725.8</ele>
        <time>2017-08-04T09:33:27.000Z</time>
      </trkpt>
      <trkpt lat="43.35638984106481" lon="-6.3901877123862505">
        <ele>725.8</ele>
        <time>2017-08-04T09:33:35.000Z</time>
      </trkpt>
      <trkpt lat="43.35630250163376" lon="-6.39026440680027">
        <ele>725.4</ele>
        <time>2017-08-04T09:33:42.000Z</time>
      </trkpt>
      <trkpt lat="43.356211641803384" lon="-6.390349734574556">
        <ele>724.6</ele>
        <time>2017-08-04T09:33:50.000Z</time>
      </trkpt>
      <trkpt lat="43.35614659823477" lon="-6.390400864183903">
        <ele>723.8</ele>
        <time>2017-08-04T09:33:56.000Z</time>
      </trkpt>
      <trkpt lat="43.35608968511224" lon="-6.3904510717839">
        <ele>723.2</ele>
        <time>2017-08-04T09:34:02.000Z</time>
      </trkpt>
      <trkpt lat="43.356079291552305" lon="-6.390461549162865">
        <ele>723</ele>
        <time>2017-08-04T09:34:03.000Z</time>
      </trkpt>
      <trkpt lat="43.35603444837034" lon="-6.390511002391577">
        <ele>722.6</ele>
        <time>2017-08-04T09:34:08.000Z</time>
      </trkpt>
      <trkpt lat="43.35601709783077" lon="-6.390529191121459">
        <ele>722.4</ele>
        <time>2017-08-04T09:34:10.000Z</time>
      </trkpt>
      <trkpt lat="43.35600662045181" lon="-6.390541261062026">
        <ele>722.4</ele>
        <time>2017-08-04T09:34:11.000Z</time>
      </trkpt>
      <trkpt lat="43.3559725061059" lon="-6.390598593279719">
        <ele>722.2</ele>
        <time>2017-08-04T09:34:15.000Z</time>
      </trkpt>
      <trkpt lat="43.355963956564665" lon="-6.390610579401255">
        <ele>722.2</ele>
        <time>2017-08-04T09:34:16.000Z</time>
      </trkpt>
      <trkpt lat="43.35596177726984" lon="-6.390627594664693">
        <ele>722.2</ele>
        <time>2017-08-04T09:34:17.000Z</time>
      </trkpt>
      <trkpt lat="43.35593587718904" lon="-6.39066263101995">
        <ele>722</ele>
        <time>2017-08-04T09:34:20.000Z</time>
      </trkpt>
      <trkpt lat="43.355933697894216" lon="-6.390668917447329">
        <ele>722</ele>
        <time>2017-08-04T09:34:21.000Z</time>
      </trkpt>
      <trkpt lat="43.355920957401395" lon="-6.3906721863895655">
        <ele>722</ele>
        <time>2017-08-04T09:34:25.000Z</time>
      </trkpt>
      <trkpt lat="43.35585951805115" lon="-6.390719711780548">
        <ele>721.4</ele>
        <time>2017-08-04T09:34:30.000Z</time>
      </trkpt>
      <trkpt lat="43.355802269652486" lon="-6.3907679077237844">
        <ele>721</ele>
        <time>2017-08-04T09:34:36.000Z</time>
      </trkpt>
      <trkpt lat="43.35572683252394" lon="-6.390808979049325">
        <ele>720.8</ele>
        <time>2017-08-04T09:34:42.000Z</time>
      </trkpt>
      <trkpt lat="43.35563446395099" lon="-6.390855330973864">
        <ele>720.8</ele>
        <time>2017-08-04T09:34:50.000Z</time>
      </trkpt>
      <trkpt lat="43.35560412146151" lon="-6.390874022617936">
        <ele>720.8</ele>
        <time>2017-08-04T09:34:53.000Z</time>
      </trkpt>
      <trkpt lat="43.35555575788021" lon="-6.390898330137134">
        <ele>720.8</ele>
        <time>2017-08-04T09:34:57.000Z</time>
      </trkpt>
      <trkpt lat="43.3555078972131" lon="-6.390915596857667">
        <ele>720.8</ele>
        <time>2017-08-04T09:35:02.000Z</time>
      </trkpt>
      <trkpt lat="43.35542608983815" lon="-6.39092406257987">
        <ele>721.2</ele>
        <time>2017-08-04T09:35:09.000Z</time>
      </trkpt>
      <trkpt lat="43.355382923036814" lon="-6.390930516645312">
        <ele>721.4</ele>
        <time>2017-08-04T09:35:13.000Z</time>
      </trkpt>
      <trkpt lat="43.355359956622124" lon="-6.390924146398902">
        <ele>721.4</ele>
        <time>2017-08-04T09:35:15.000Z</time>
      </trkpt>
      <trkpt lat="43.35530027747154" lon="-6.390913249924779">
        <ele>721.2</ele>
        <time>2017-08-04T09:35:20.000Z</time>
      </trkpt>
      <trkpt lat="43.355221236124635" lon="-6.390883745625615">
        <ele>721</ele>
        <time>2017-08-04T09:35:25.000Z</time>
      </trkpt>
      <trkpt lat="43.35521218366921" lon="-6.390883075073361">
        <ele>721</ele>
        <time>2017-08-04T09:35:26.000Z</time>
      </trkpt>
      <trkpt lat="43.355166083201766" lon="-6.390866227447987">
        <ele>721</ele>
        <time>2017-08-04T09:35:30.000Z</time>
      </trkpt>
      <trkpt lat="43.35507865995169" lon="-6.390833035111427">
        <ele>721.4</ele>
        <time>2017-08-04T09:35:38.000Z</time>
      </trkpt>
      <trkpt lat="43.35498972795904" lon="-6.390816941857338">
        <ele>721.8</ele>
        <time>2017-08-04T09:35:45.000Z</time>
      </trkpt>
      <trkpt lat="43.35488051176071" lon="-6.390826581045985">
        <ele>722.4</ele>
        <time>2017-08-04T09:35:53.000Z</time>
      </trkpt>
      <trkpt lat="43.354765847325325" lon="-6.390855247154832">
        <ele>722.8</ele>
        <time>2017-08-04T09:36:01.000Z</time>
      </trkpt>
      <trkpt lat="43.35465990006924" lon="-6.3908918760716915">
        <ele>723.2</ele>
        <time>2017-08-04T09:36:09.000Z</time>
      </trkpt>
      <trkpt lat="43.354605585336685" lon="-6.3909045327454805">
        <ele>723</ele>
        <time>2017-08-04T09:36:15.000Z</time>
      </trkpt>
      <trkpt lat="43.35452704690397" lon="-6.3909239787608385">
        <ele>723</ele>
        <time>2017-08-04T09:36:21.000Z</time>
      </trkpt>
      <trkpt lat="43.354409197345376" lon="-6.390966726467013">
        <ele>723</ele>
        <time>2017-08-04T09:36:30.000Z</time>
      </trkpt>
      <trkpt lat="43.35428916849196" lon="-6.391009474173188">
        <ele>723</ele>
        <time>2017-08-04T09:36:39.000Z</time>
      </trkpt>
      <trkpt lat="43.354178527370095" lon="-6.391046103090048">
        <ele>723</ele>
        <time>2017-08-04T09:36:47.000Z</time>
      </trkpt>
      <trkpt lat="43.35405891761184" lon="-6.391091113910079">
        <ele>722.8</ele>
        <time>2017-08-04T09:36:56.000Z</time>
      </trkpt>
      <trkpt lat="43.35395238362253" lon="-6.391138471662998">
        <ele>722.4</ele>
        <time>2017-08-04T09:37:04.000Z</time>
      </trkpt>
      <trkpt lat="43.353817434981465" lon="-6.391230337321758">
        <ele>721.8</ele>
        <time>2017-08-04T09:37:15.000Z</time>
      </trkpt>
      <trkpt lat="43.35371995344758" lon="-6.391312060877681">
        <ele>721</ele>
        <time>2017-08-04T09:37:24.000Z</time>
      </trkpt>
      <trkpt lat="43.35366723127663" lon="-6.391360256820917">
        <ele>720.6</ele>
        <time>2017-08-04T09:37:30.000Z</time>
      </trkpt>
      <trkpt lat="43.35356790572405" lon="-6.391431670635939">
        <ele>720</ele>
        <time>2017-08-04T09:37:39.000Z</time>
      </trkpt>
      <trkpt lat="43.35352532565594" lon="-6.3914708979427814">
        <ele>719.8</ele>
        <time>2017-08-04T09:37:45.000Z</time>
      </trkpt>
      <trkpt lat="43.35355709306896" lon="-6.391435358673334">
        <ele>720</ele>
        <time>2017-08-04T09:37:50.000Z</time>
      </trkpt>
      <trkpt lat="43.3535513933748" lon="-6.39143661595881">
        <ele>720</ele>
        <time>2017-08-04T09:37:58.000Z</time>
      </trkpt>
      <trkpt lat="43.35350001230836" lon="-6.391481375321746">
        <ele>719.8</ele>
        <time>2017-08-04T09:38:18.000Z</time>
      </trkpt>
      <trkpt lat="43.353432370349765" lon="-6.39151188544929">
        <ele>719.6</ele>
        <time>2017-08-04T09:38:24.000Z</time>
      </trkpt>
      <trkpt lat="43.35338953882456" lon="-6.39156561344862">
        <ele>719.4</ele>
        <time>2017-08-04T09:38:31.000Z</time>
      </trkpt>
      <trkpt lat="43.35332650691271" lon="-6.391571396961808">
        <ele>719.2</ele>
        <time>2017-08-04T09:39:21.000Z</time>
      </trkpt>
      <trkpt lat="43.353268252685666" lon="-6.391608361154795">
        <ele>719</ele>
        <time>2017-08-04T09:39:27.000Z</time>
      </trkpt>
      <trkpt lat="43.3532353118062" lon="-6.3916228618472815">
        <ele>718.8</ele>
        <time>2017-08-04T09:39:31.000Z</time>
      </trkpt>
      <trkpt lat="43.35322240367532" lon="-6.391639541834593">
        <ele>718.8</ele>
        <time>2017-08-04T09:39:33.000Z</time>
      </trkpt>
      <trkpt lat="43.353205723688006" lon="-6.391654210165143">
        <ele>718.6</ele>
        <time>2017-08-04T09:39:41.000Z</time>
      </trkpt>
      <trkpt lat="43.35319323465228" lon="-6.39166577719152">
        <ele>718.6</ele>
        <time>2017-08-04T09:39:56.000Z</time>
      </trkpt>
      <trkpt lat="43.35318921133876" lon="-6.391660496592522">
        <ele>718.6</ele>
        <time>2017-08-04T09:40:24.000Z</time>
      </trkpt>
      <trkpt lat="43.35318929515779" lon="-6.39165404252708">
        <ele>718.6</ele>
        <time>2017-08-04T09:40:50.000Z</time>
      </trkpt>
      <trkpt lat="43.353201700374484" lon="-6.39167265035212">
        <ele>718.6</ele>
        <time>2017-08-04T09:41:22.000Z</time>
      </trkpt>
      <trkpt lat="43.35320346057415" lon="-6.391658736392856">
        <ele>718.6</ele>
        <time>2017-08-04T09:42:06.000Z</time>
      </trkpt>
      <trkpt lat="43.3532231580466" lon="-6.391671393066645">
        <ele>718.6</ele>
        <time>2017-08-04T09:42:18.000Z</time>
      </trkpt>
      <trkpt lat="43.35322986356914" lon="-6.391673739999533">
        <ele>718.6</ele>
        <time>2017-08-04T09:42:48.000Z</time>
      </trkpt>
      <trkpt lat="43.353221733123064" lon="-6.391690252348781">
        <ele>718.6</ele>
        <time>2017-08-04T09:42:55.000Z</time>
      </trkpt>
      <trkpt lat="43.35320203565061" lon="-6.39169997535646">
        <ele>718.4</ele>
        <time>2017-08-04T09:43:06.000Z</time>
      </trkpt>
      <trkpt lat="43.35319088771939" lon="-6.391680613160133">
        <ele>718.4</ele>
        <time>2017-08-04T09:46:19.000Z</time>
      </trkpt>
      <trkpt lat="43.35330504924059" lon="-6.391664016991854">
        <ele>719</ele>
        <time>2017-08-04T09:50:30.000Z</time>
      </trkpt>
      <trkpt lat="43.35330320522189" lon="-6.3916493486613035">
        <ele>719</ele>
        <time>2017-08-04T09:50:41.000Z</time>
      </trkpt>
      <trkpt lat="43.353304797783494" lon="-6.3916470017284155">
        <ele>719</ele>
        <time>2017-08-04T09:50:47.000Z</time>
      </trkpt>
      <trkpt lat="43.353291638195515" lon="-6.391649600118399">
        <ele>719</ele>
        <time>2017-08-04T09:50:51.000Z</time>
      </trkpt>
      <trkpt lat="43.35328853689134" lon="-6.391659155488014">
        <ele>719</ele>
        <time>2017-08-04T09:51:00.000Z</time>
      </trkpt>
      <trkpt lat="43.35323858074844" lon="-6.391633506864309">
        <ele>718.8</ele>
        <time>2017-08-04T09:51:27.000Z</time>
      </trkpt>
      <trkpt lat="43.35320773534477" lon="-6.391687151044607">
        <ele>718.6</ele>
        <time>2017-08-04T09:52:03.000Z</time>
      </trkpt>
      <trkpt lat="43.35320354439318" lon="-6.391683295369148">
        <ele>718.6</ele>
        <time>2017-08-04T09:53:16.000Z</time>
      </trkpt>
      <trkpt lat="43.35320354439318" lon="-6.391696035861969">
        <ele>718.4</ele>
        <time>2017-08-04T09:53:28.000Z</time>
      </trkpt>
      <trkpt lat="43.35322801955044" lon="-6.391671560704708">
        <ele>718.6</ele>
        <time>2017-08-04T09:54:20.000Z</time>
      </trkpt>
      <trkpt lat="43.353215949609876" lon="-6.391713134944439">
        <ele>718.4</ele>
        <time>2017-08-04T09:54:34.000Z</time>
      </trkpt>
      <trkpt lat="43.35319667123258" lon="-6.391749009490013">
        <ele>718.2</ele>
        <time>2017-08-04T09:55:06.000Z</time>
      </trkpt>
      <trkpt lat="43.353176638484" lon="-6.391725372523069">
        <ele>718.2</ele>
        <time>2017-08-04T09:55:34.000Z</time>
      </trkpt>
      <trkpt lat="43.35321955382824" lon="-6.391723109409213">
        <ele>718.4</ele>
        <time>2017-08-04T09:56:06.000Z</time>
      </trkpt>
      <trkpt lat="43.35320924408734" lon="-6.39172344468534">
        <ele>718.4</ele>
        <time>2017-08-04T09:56:25.000Z</time>
      </trkpt>
      <trkpt lat="43.35316373035312" lon="-6.391761330887675">
        <ele>718</ele>
        <time>2017-08-04T09:56:48.000Z</time>
      </trkpt>
      <trkpt lat="43.353114277124405" lon="-6.391819836571813">
        <ele>717.6</ele>
        <time>2017-08-04T09:56:54.000Z</time>
      </trkpt>
      <trkpt lat="43.35303389467299" lon="-6.391887394711375">
        <ele>717.2</ele>
        <time>2017-08-04T09:57:02.000Z</time>
      </trkpt>
      <trkpt lat="43.352956445887685" lon="-6.391935171559453">
        <ele>715.8</ele>
        <time>2017-08-04T09:57:08.000Z</time>
      </trkpt>
      <trkpt lat="43.35288587026298" lon="-6.391989570111036">
        <ele>714.4</ele>
        <time>2017-08-04T09:57:14.000Z</time>
      </trkpt>
      <trkpt lat="43.3528605569154" lon="-6.39200096949935">
        <ele>714</ele>
        <time>2017-08-04T09:57:16.000Z</time>
      </trkpt>
      <trkpt lat="43.352829962968826" lon="-6.392015889286995">
        <ele>713.4</ele>
        <time>2017-08-04T09:57:18.000Z</time>
      </trkpt>
      <trkpt lat="43.352805906906724" lon="-6.392028881236911">
        <ele>712.8</ele>
        <time>2017-08-04T09:57:20.000Z</time>
      </trkpt>
      <trkpt lat="43.352734660729766" lon="-6.392059978097677">
        <ele>711.4</ele>
        <time>2017-08-04T09:57:25.000Z</time>
      </trkpt>
      <trkpt lat="43.352718986570835" lon="-6.392067605629563">
        <ele>711.2</ele>
        <time>2017-08-04T09:57:26.000Z</time>
      </trkpt>
      <trkpt lat="43.35262653417885" lon="-6.392112281173468">
        <ele>710</ele>
        <time>2017-08-04T09:57:32.000Z</time>
      </trkpt>
      <trkpt lat="43.35259770043194" lon="-6.392131224274635">
        <ele>709.8</ele>
        <time>2017-08-04T09:57:35.000Z</time>
      </trkpt>
      <trkpt lat="43.35257523693144" lon="-6.392150167375803">
        <ele>709.4</ele>
        <time>2017-08-04T09:57:37.000Z</time>
      </trkpt>
      <trkpt lat="43.35247289389372" lon="-6.392232310026884">
        <ele>708.2</ele>
        <time>2017-08-04T09:57:45.000Z</time>
      </trkpt>
      <trkpt lat="43.352381363511086" lon="-6.39231763780117">
        <ele>707.8</ele>
        <time>2017-08-04T09:57:52.000Z</time>
      </trkpt>
      <trkpt lat="43.352293437346816" lon="-6.392411766573787">
        <ele>707.4</ele>
        <time>2017-08-04T09:57:59.000Z</time>
      </trkpt>
      <trkpt lat="43.35222478955984" lon="-6.392513774335384">
        <ele>707.4</ele>
        <time>2017-08-04T09:58:05.000Z</time>
      </trkpt>
      <trkpt lat="43.35213870741427" lon="-6.3926624692976475">
        <ele>707.6</ele>
        <time>2017-08-04T09:58:13.000Z</time>
      </trkpt>
      <trkpt lat="43.35209461860359" lon="-6.392786353826523">
        <ele>707.8</ele>
        <time>2017-08-04T09:58:20.000Z</time>
      </trkpt>
      <trkpt lat="43.352064192295074" lon="-6.39285902492702">
        <ele>708</ele>
        <time>2017-08-04T09:58:24.000Z</time>
      </trkpt>
      <trkpt lat="43.352020774036646" lon="-6.392931696027517">
        <ele>708</ele>
        <time>2017-08-04T09:58:28.000Z</time>
      </trkpt>
      <trkpt lat="43.35198230110109" lon="-6.393002271652222">
        <ele>708.2</ele>
        <time>2017-08-04T09:58:32.000Z</time>
      </trkpt>
      <trkpt lat="43.3519297465682" lon="-6.393078463152051">
        <ele>708.2</ele>
        <time>2017-08-04T09:58:37.000Z</time>
      </trkpt>
      <trkpt lat="43.35184902884066" lon="-6.3931481167674065">
        <ele>707.8</ele>
        <time>2017-08-04T09:58:43.000Z</time>
      </trkpt>
      <trkpt lat="43.351757414638996" lon="-6.393223470076919">
        <ele>707.2</ele>
        <time>2017-08-04T09:58:50.000Z</time>
      </trkpt>
      <trkpt lat="43.35168222896755" lon="-6.393259260803461">
        <ele>706.4</ele>
        <time>2017-08-04T09:58:55.000Z</time>
      </trkpt>
      <trkpt lat="43.35165993310511" lon="-6.3932874239981174">
        <ele>706.4</ele>
        <time>2017-08-04T09:58:57.000Z</time>
      </trkpt>
      <trkpt lat="43.3516242261976" lon="-6.393305277451873">
        <ele>706</ele>
        <time>2017-08-04T09:59:00.000Z</time>
      </trkpt>
      <trkpt lat="43.351565385237336" lon="-6.393341403454542">
        <ele>705.8</ele>
        <time>2017-08-04T09:59:05.000Z</time>
      </trkpt>
      <trkpt lat="43.35148994810879" lon="-6.3933683931827545">
        <ele>705.4</ele>
        <time>2017-08-04T09:59:11.000Z</time>
      </trkpt>
      <trkpt lat="43.35148433223367" lon="-6.393374931067228">
        <ele>705.4</ele>
        <time>2017-08-04T09:59:15.000Z</time>
      </trkpt>
      <trkpt lat="43.351464215666056" lon="-6.393380966037512">
        <ele>705.4</ele>
        <time>2017-08-04T09:59:23.000Z</time>
      </trkpt>
      <trkpt lat="43.35139565169811" lon="-6.393398903310299">
        <ele>705</ele>
        <time>2017-08-04T09:59:28.000Z</time>
      </trkpt>
      <trkpt lat="43.35133069194853" lon="-6.3934246357530355">
        <ele>704.8</ele>
        <time>2017-08-04T09:59:35.000Z</time>
      </trkpt>
      <trkpt lat="43.35127520374954" lon="-6.393461683765054">
        <ele>704.8</ele>
        <time>2017-08-04T09:59:41.000Z</time>
      </trkpt>
      <trkpt lat="43.35120060481131" lon="-6.393455313518643">
        <ele>704.6</ele>
        <time>2017-08-04T09:59:46.000Z</time>
      </trkpt>
      <trkpt lat="43.35107755847275" lon="-6.393446512520313">
        <ele>704.6</ele>
        <time>2017-08-04T09:59:54.000Z</time>
      </trkpt>
      <trkpt lat="43.35097764618695" lon="-6.393427066504955">
        <ele>704.2</ele>
        <time>2017-08-04T10:00:01.000Z</time>
      </trkpt>
      <trkpt lat="43.350904220715165" lon="-6.393404016271234">
        <ele>703.8</ele>
        <time>2017-08-04T10:00:07.000Z</time>
      </trkpt>
      <trkpt lat="43.35083557292819" lon="-6.393380798399448">
        <ele>703.4</ele>
        <time>2017-08-04T10:00:13.000Z</time>
      </trkpt>
      <trkpt lat="43.350775726139545" lon="-6.393357748165727">
        <ele>703.2</ele>
        <time>2017-08-04T10:00:18.000Z</time>
      </trkpt>
      <trkpt lat="43.3507142867893" lon="-6.39330661855638">
        <ele>703</ele>
        <time>2017-08-04T10:00:24.000Z</time>
      </trkpt>
      <trkpt lat="43.35061454214156" lon="-6.393224727362394">
        <ele>702.4</ele>
        <time>2017-08-04T10:00:33.000Z</time>
      </trkpt>
      <trkpt lat="43.35054321214557" lon="-6.393107045441866">
        <ele>701.6</ele>
        <time>2017-08-04T10:00:39.000Z</time>
      </trkpt>
      <trkpt lat="43.350478084757924" lon="-6.393051976338029">
        <ele>701</ele>
        <time>2017-08-04T10:00:44.000Z</time>
      </trkpt>
      <trkpt lat="43.35046115331352" lon="-6.393066393211484">
        <ele>701</ele>
        <time>2017-08-04T10:00:45.000Z</time>
      </trkpt>
      <trkpt lat="43.35044137202203" lon="-6.393186589702964">
        <ele>701.6</ele>
        <time>2017-08-04T10:00:49.000Z</time>
      </trkpt>
      <trkpt lat="43.35044522769749" lon="-6.39338624663651">
        <ele>702.6</ele>
        <time>2017-08-04T10:00:55.000Z</time>
      </trkpt>
      <trkpt lat="43.35045243613422" lon="-6.3934938702732325">
        <ele>702.6</ele>
        <time>2017-08-04T10:01:00.000Z</time>
      </trkpt>
      <trkpt lat="43.35045788437128" lon="-6.393514405936003">
        <ele>702.6</ele>
        <time>2017-08-04T10:01:01.000Z</time>
      </trkpt>
      <trkpt lat="43.350519658997655" lon="-6.393662765622139">
        <ele>703</ele>
        <time>2017-08-04T10:01:09.000Z</time>
      </trkpt>
      <trkpt lat="43.35057648830116" lon="-6.393764857202768">
        <ele>703.2</ele>
        <time>2017-08-04T10:01:15.000Z</time>
      </trkpt>
      <trkpt lat="43.35067916661501" lon="-6.393913887441158">
        <ele>703.8</ele>
        <time>2017-08-04T10:01:24.000Z</time>
      </trkpt>
      <trkpt lat="43.35075577721" lon="-6.394017739221454">
        <ele>704</ele>
        <time>2017-08-04T10:01:31.000Z</time>
      </trkpt>
      <trkpt lat="43.35078377276659" lon="-6.39413827098906">
        <ele>704</ele>
        <time>2017-08-04T10:01:38.000Z</time>
      </trkpt>
      <trkpt lat="43.35076902061701" lon="-6.394162243232131">
        <ele>704</ele>
        <time>2017-08-04T10:01:40.000Z</time>
      </trkpt>
      <trkpt lat="43.35073582828045" lon="-6.394201721996069">
        <ele>704</ele>
        <time>2017-08-04T10:01:44.000Z</time>
      </trkpt>
      <trkpt lat="43.35073046386242" lon="-6.394213205203414">
        <ele>704.2</ele>
        <time>2017-08-04T10:01:50.000Z</time>
      </trkpt>
      <trkpt lat="43.35072518326342" lon="-6.394222006201744">
        <ele>704.2</ele>
        <time>2017-08-04T10:02:05.000Z</time>
      </trkpt>
      <trkpt lat="43.350770361721516" lon="-6.394185880199075">
        <ele>704.2</ele>
        <time>2017-08-04T10:02:10.000Z</time>
      </trkpt>
      <trkpt lat="43.350785952061415" lon="-6.3941258657723665">
        <ele>704</ele>
        <time>2017-08-04T10:02:15.000Z</time>
      </trkpt>
      <trkpt lat="43.35078184492886" lon="-6.394114047288895">
        <ele>704</ele>
        <time>2017-08-04T10:02:16.000Z</time>
      </trkpt>
      <trkpt lat="43.350778156891465" lon="-6.394108179956675">
        <ele>704</ele>
        <time>2017-08-04T10:02:22.000Z</time>
      </trkpt>
      <trkpt lat="43.35077203810215" lon="-6.394114131107926">
        <ele>704</ele>
        <time>2017-08-04T10:02:31.000Z</time>
      </trkpt>
      <trkpt lat="43.350762063637376" lon="-6.39416366815567">
        <ele>704</ele>
        <time>2017-08-04T10:02:36.000Z</time>
      </trkpt>
      <trkpt lat="43.35075116716325" lon="-6.394182611256838">
        <ele>704</ele>
        <time>2017-08-04T10:02:38.000Z</time>
      </trkpt>
      <trkpt lat="43.35072224959731" lon="-6.39420859515667">
        <ele>704</ele>
        <time>2017-08-04T10:02:42.000Z</time>
      </trkpt>
      <trkpt lat="43.35067631676793" lon="-6.394231393933296">
        <ele>704</ele>
        <time>2017-08-04T10:02:45.000Z</time>
      </trkpt>
      <trkpt lat="43.35060632787645" lon="-6.394266597926617">
        <ele>704</ele>
        <time>2017-08-04T10:02:51.000Z</time>
      </trkpt>
      <trkpt lat="43.35052762180567" lon="-6.394304903224111">
        <ele>704</ele>
        <time>2017-08-04T10:02:58.000Z</time>
      </trkpt>
      <trkpt lat="43.350437516346574" lon="-6.3943579606711864">
        <ele>703.8</ele>
        <time>2017-08-04T10:03:06.000Z</time>
      </trkpt>
      <trkpt lat="43.35042846389115" lon="-6.394368605688214">
        <ele>703.6</ele>
        <time>2017-08-04T10:03:07.000Z</time>
      </trkpt>
      <trkpt lat="43.35036166012287" lon="-6.394464075565338">
        <ele>703.6</ele>
        <time>2017-08-04T10:03:15.000Z</time>
      </trkpt>
      <trkpt lat="43.35033291019499" lon="-6.394571028649807">
        <ele>704</ele>
        <time>2017-08-04T10:03:22.000Z</time>
      </trkpt>
      <trkpt lat="43.35034598596394" lon="-6.394674209877849">
        <ele>704.4</ele>
        <time>2017-08-04T10:03:29.000Z</time>
      </trkpt>
      <trkpt lat="43.350359816104174" lon="-6.39477102085948">
        <ele>704.8</ele>
        <time>2017-08-04T10:03:36.000Z</time>
      </trkpt>
      <trkpt lat="43.350357972085476" lon="-6.39478619210422">
        <ele>704.8</ele>
        <time>2017-08-04T10:03:37.000Z</time>
      </trkpt>
      <trkpt lat="43.350365264341235" lon="-6.39485215768218">
        <ele>705</ele>
        <time>2017-08-04T10:03:41.000Z</time>
      </trkpt>
      <trkpt lat="43.35039275698364" lon="-6.394963804632425">
        <ele>706</ele>
        <time>2017-08-04T10:03:49.000Z</time>
      </trkpt>
      <trkpt lat="43.350417567417026" lon="-6.395068159326911">
        <ele>706.6</ele>
        <time>2017-08-04T10:03:56.000Z</time>
      </trkpt>
      <trkpt lat="43.350453274324536" lon="-6.395163545385003">
        <ele>707.2</ele>
        <time>2017-08-04T10:04:03.000Z</time>
      </trkpt>
      <trkpt lat="43.35046224296093" lon="-6.3951964024454355">
        <ele>707.4</ele>
        <time>2017-08-04T10:04:05.000Z</time>
      </trkpt>
      <trkpt lat="43.35047288797796" lon="-6.3952411618083715">
        <ele>707.6</ele>
        <time>2017-08-04T10:04:08.000Z</time>
      </trkpt>
      <trkpt lat="43.350495686754584" lon="-6.395312072709203">
        <ele>708.4</ele>
        <time>2017-08-04T10:04:13.000Z</time>
      </trkpt>
      <trkpt lat="43.350502559915185" lon="-6.395340571179986">
        <ele>708.6</ele>
        <time>2017-08-04T10:04:15.000Z</time>
      </trkpt>
      <trkpt lat="43.350512785837054" lon="-6.395417181774974">
        <ele>709.2</ele>
        <time>2017-08-04T10:04:20.000Z</time>
      </trkpt>
      <trkpt lat="43.350525023415685" lon="-6.395556656643748">
        <ele>710.2</ele>
        <time>2017-08-04T10:04:28.000Z</time>
      </trkpt>
      <trkpt lat="43.35054539144039" lon="-6.395678864791989">
        <ele>710.6</ele>
        <time>2017-08-04T10:04:36.000Z</time>
      </trkpt>
      <trkpt lat="43.3505673520267" lon="-6.395802162587643">
        <ele>711.4</ele>
        <time>2017-08-04T10:04:44.000Z</time>
      </trkpt>
      <trkpt lat="43.3506054058671" lon="-6.3959285616874695">
        <ele>712.6</ele>
        <time>2017-08-04T10:04:53.000Z</time>
      </trkpt>
      <trkpt lat="43.350635915994644" lon="-6.396009027957916">
        <ele>713.2</ele>
        <time>2017-08-04T10:04:59.000Z</time>
      </trkpt>
      <trkpt lat="43.350667180493474" lon="-6.3960678689181805">
        <ele>713.4</ele>
        <time>2017-08-04T10:05:04.000Z</time>
      </trkpt>
      <trkpt lat="43.35067723877728" lon="-6.396098965778947">
        <ele>713.6</ele>
        <time>2017-08-04T10:05:06.000Z</time>
      </trkpt>
      <trkpt lat="43.350676987320185" lon="-6.396119249984622">
        <ele>713.8</ele>
        <time>2017-08-04T10:05:07.000Z</time>
      </trkpt>
      <trkpt lat="43.3506986964494" lon="-6.396179012954235">
        <ele>714</ele>
        <time>2017-08-04T10:05:11.000Z</time>
      </trkpt>
      <trkpt lat="43.350750748068094" lon="-6.39632192440331">
        <ele>715.4</ele>
        <time>2017-08-04T10:05:21.000Z</time>
      </trkpt>
      <trkpt lat="43.350795675069094" lon="-6.3964577950537205">
        <ele>716.4</ele>
        <time>2017-08-04T10:05:30.000Z</time>
      </trkpt>
      <trkpt lat="43.3508453797549" lon="-6.396583188325167">
        <ele>717.2</ele>
        <time>2017-08-04T10:05:39.000Z</time>
      </trkpt>
      <trkpt lat="43.35088997147977" lon="-6.396701876074076">
        <ele>717.8</ele>
        <time>2017-08-04T10:05:47.000Z</time>
      </trkpt>
      <trkpt lat="43.35094244219363" lon="-6.396814696490765">
        <ele>718.2</ele>
        <time>2017-08-04T10:05:55.000Z</time>
      </trkpt>
      <trkpt lat="43.3509820047766" lon="-6.396914608776569">
        <ele>719</ele>
        <time>2017-08-04T10:06:02.000Z</time>
      </trkpt>
      <trkpt lat="43.35100430063903" lon="-6.396999601274729">
        <ele>719.8</ele>
        <time>2017-08-04T10:06:08.000Z</time>
      </trkpt>
      <trkpt lat="43.35100371390581" lon="-6.397050898522139">
        <ele>720</ele>
        <time>2017-08-04T10:06:11.000Z</time>
      </trkpt>
      <trkpt lat="43.35100522264838" lon="-6.397101441398263">
        <ele>720.2</ele>
        <time>2017-08-04T10:06:14.000Z</time>
      </trkpt>
      <trkpt lat="43.35104118101299" lon="-6.397201437503099">
        <ele>720.8</ele>
        <time>2017-08-04T10:06:20.000Z</time>
      </trkpt>
      <trkpt lat="43.35105677135289" lon="-6.397286346182227">
        <ele>721.2</ele>
        <time>2017-08-04T10:06:26.000Z</time>
      </trkpt>
      <trkpt lat="43.35105886682868" lon="-6.397301098331809">
        <ele>721.2</ele>
        <time>2017-08-04T10:06:27.000Z</time>
      </trkpt>
      <trkpt lat="43.351068422198296" lon="-6.3973119109869">
        <ele>721.4</ele>
        <time>2017-08-04T10:06:28.000Z</time>
      </trkpt>
      <trkpt lat="43.35106766782701" lon="-6.397375529631972">
        <ele>721.6</ele>
        <time>2017-08-04T10:06:32.000Z</time>
      </trkpt>
      <trkpt lat="43.35107973776758" lon="-6.397472340613604">
        <ele>722</ele>
        <time>2017-08-04T10:06:38.000Z</time>
      </trkpt>
      <trkpt lat="43.35108610801399" lon="-6.3975766114890575">
        <ele>722.4</ele>
        <time>2017-08-04T10:06:45.000Z</time>
      </trkpt>
      <trkpt lat="43.351089879870415" lon="-6.397610809653997">
        <ele>722.6</ele>
        <time>2017-08-04T10:06:48.000Z</time>
      </trkpt>
      <trkpt lat="43.35109289735556" lon="-6.397671410813928">
        <ele>722.8</ele>
        <time>2017-08-04T10:06:52.000Z</time>
      </trkpt>
      <trkpt lat="43.351096250116825" lon="-6.397776268422604">
        <ele>723.6</ele>
        <time>2017-08-04T10:06:59.000Z</time>
      </trkpt>
      <trkpt lat="43.35109993815422" lon="-6.397888250648975">
        <ele>724.8</ele>
        <time>2017-08-04T10:07:07.000Z</time>
      </trkpt>
      <trkpt lat="43.351097675040364" lon="-6.397959245368838">
        <ele>725.6</ele>
        <time>2017-08-04T10:07:11.000Z</time>
      </trkpt>
      <trkpt lat="43.35110102780163" lon="-6.39798229560256">
        <ele>725.8</ele>
        <time>2017-08-04T10:07:13.000Z</time>
      </trkpt>
      <trkpt lat="43.351103123277426" lon="-6.398071143776178">
        <ele>727</ele>
        <time>2017-08-04T10:07:19.000Z</time>
      </trkpt>
      <trkpt lat="43.35110764950514" lon="-6.39817482791841">
        <ele>728.2</ele>
        <time>2017-08-04T10:07:26.000Z</time>
      </trkpt>
      <trkpt lat="43.35111108608544" lon="-6.398186730220914">
        <ele>728.4</ele>
        <time>2017-08-04T10:07:27.000Z</time>
      </trkpt>
      <trkpt lat="43.35111418738961" lon="-6.398263340815902">
        <ele>729.2</ele>
        <time>2017-08-04T10:07:32.000Z</time>
      </trkpt>
      <trkpt lat="43.35111904889345" lon="-6.398325869813561">
        <ele>730.2</ele>
        <time>2017-08-04T10:07:37.000Z</time>
      </trkpt>
      <trkpt lat="43.3511215634644" lon="-6.398347914218903">
        <ele>730.4</ele>
        <time>2017-08-04T10:07:39.000Z</time>
      </trkpt>
      <trkpt lat="43.35113648325205" lon="-6.39840641990304">
        <ele>731.2</ele>
        <time>2017-08-04T10:07:43.000Z</time>
      </trkpt>
      <trkpt lat="43.35113748908043" lon="-6.398445144295692">
        <ele>731.8</ele>
        <time>2017-08-04T10:07:46.000Z</time>
      </trkpt>
      <trkpt lat="43.35114444606006" lon="-6.398460483178496">
        <ele>732</ele>
        <time>2017-08-04T10:07:47.000Z</time>
      </trkpt>
      <trkpt lat="43.351149475201964" lon="-6.398489400744438">
        <ele>732.4</ele>
        <time>2017-08-04T10:07:49.000Z</time>
      </trkpt>
      <trkpt lat="43.35117646493018" lon="-6.398614710196853">
        <ele>733</ele>
        <time>2017-08-04T10:07:57.000Z</time>
      </trkpt>
      <trkpt lat="43.351212088018656" lon="-6.398724429309368">
        <ele>732.6</ele>
        <time>2017-08-04T10:08:04.000Z</time>
      </trkpt>
      <trkpt lat="43.351239413022995" lon="-6.398814534768462">
        <ele>733</ele>
        <time>2017-08-04T10:08:10.000Z</time>
      </trkpt>
      <trkpt lat="43.35126598365605" lon="-6.398846637457609">
        <ele>733.6</ele>
        <time>2017-08-04T10:08:13.000Z</time>
      </trkpt>
      <trkpt lat="43.35127227008343" lon="-6.398867424577475">
        <ele>733.6</ele>
        <time>2017-08-04T10:08:15.000Z</time>
      </trkpt>
      <trkpt lat="43.35131359286606" lon="-6.398946717381477">
        <ele>733.8</ele>
        <time>2017-08-04T10:08:22.000Z</time>
      </trkpt>
      <trkpt lat="43.351320549845695" lon="-6.398959206417203">
        <ele>733.8</ele>
        <time>2017-08-04T10:08:23.000Z</time>
      </trkpt>
      <trkpt lat="43.35138852708042" lon="-6.3990088272839785">
        <ele>734.2</ele>
        <time>2017-08-04T10:08:30.000Z</time>
      </trkpt>
      <trkpt lat="43.351443596184254" lon="-6.3990403432399035">
        <ele>734.4</ele>
        <time>2017-08-04T10:08:36.000Z</time>
      </trkpt>
      <trkpt lat="43.351464718580246" lon="-6.399048808962107">
        <ele>734.4</ele>
        <time>2017-08-04T10:08:38.000Z</time>
      </trkpt>
      <trkpt lat="43.35150629281998" lon="-6.399068422615528">
        <ele>734.6</ele>
        <time>2017-08-04T10:08:42.000Z</time>
      </trkpt>
      <trkpt lat="43.35152414627373" lon="-6.399090131744742">
        <ele>734.6</ele>
        <time>2017-08-04T10:08:44.000Z</time>
      </trkpt>
      <trkpt lat="43.35154711268842" lon="-6.399167999625206">
        <ele>734.6</ele>
        <time>2017-08-04T10:08:49.000Z</time>
      </trkpt>
      <trkpt lat="43.35154929198325" lon="-6.399196162819862">
        <ele>734.6</ele>
        <time>2017-08-04T10:08:51.000Z</time>
      </trkpt>
      <trkpt lat="43.35154099389911" lon="-6.399281993508339">
        <ele>734.2</ele>
        <time>2017-08-04T10:08:56.000Z</time>
      </trkpt>
      <trkpt lat="43.35152707993984" lon="-6.399340834468603">
        <ele>733.8</ele>
        <time>2017-08-04T10:08:59.000Z</time>
      </trkpt>
      <trkpt lat="43.35152272135019" lon="-6.399377631023526">
        <ele>733.6</ele>
        <time>2017-08-04T10:09:02.000Z</time>
      </trkpt>
      <trkpt lat="43.351519368588924" lon="-6.3994458597153425">
        <ele>733.6</ele>
        <time>2017-08-04T10:09:08.000Z</time>
      </trkpt>
      <trkpt lat="43.35151182487607" lon="-6.399475280195475">
        <ele>733.8</ele>
        <time>2017-08-04T10:09:10.000Z</time>
      </trkpt>
      <trkpt lat="43.351503275334835" lon="-6.399490451440215">
        <ele>734</ele>
        <time>2017-08-04T10:09:12.000Z</time>
      </trkpt>
      <trkpt lat="43.35149212740362" lon="-6.3995021022856236">
        <ele>734</ele>
        <time>2017-08-04T10:09:13.000Z</time>
      </trkpt>
      <trkpt lat="43.35146161727607" lon="-6.399546191096306">
        <ele>734.6</ele>
        <time>2017-08-04T10:09:17.000Z</time>
      </trkpt>
      <trkpt lat="43.35144728422165" lon="-6.399564882740378">
        <ele>734.8</ele>
        <time>2017-08-04T10:09:19.000Z</time>
      </trkpt>
      <trkpt lat="43.35144150070846" lon="-6.399569241330028">
        <ele>734.8</ele>
        <time>2017-08-04T10:09:20.000Z</time>
      </trkpt>
      <trkpt lat="43.351397663354874" lon="-6.399614587426186">
        <ele>735.2</ele>
        <time>2017-08-04T10:09:26.000Z</time>
      </trkpt>
      <trkpt lat="43.351386515423656" lon="-6.3996596820652485">
        <ele>735.6</ele>
        <time>2017-08-04T10:09:32.000Z</time>
      </trkpt>
      <trkpt lat="43.35136413574219" lon="-6.399700250476599">
        <ele>736.2</ele>
        <time>2017-08-04T10:09:37.000Z</time>
      </trkpt>
      <trkpt lat="43.35130747407675" lon="-6.39975649304688">
        <ele>737</ele>
        <time>2017-08-04T10:09:44.000Z</time>
      </trkpt>
      <trkpt lat="43.351255087181926" lon="-6.399792870506644">
        <ele>737.4</ele>
        <time>2017-08-04T10:09:50.000Z</time>
      </trkpt>
      <trkpt lat="43.351249219849706" lon="-6.399787589907646">
        <ele>737.4</ele>
        <time>2017-08-04T10:09:51.000Z</time>
      </trkpt>
      <trkpt lat="43.351218290627" lon="-6.399791780859232">
        <ele>737.2</ele>
        <time>2017-08-04T10:09:55.000Z</time>
      </trkpt>
      <trkpt lat="43.35120948962867" lon="-6.399795720353723">
        <ele>737.4</ele>
        <time>2017-08-04T10:09:56.000Z</time>
      </trkpt>
      <trkpt lat="43.35120311938226" lon="-6.399793205782771">
        <ele>737.2</ele>
        <time>2017-08-04T10:09:57.000Z</time>
      </trkpt>
      <trkpt lat="43.35117612965405" lon="-6.399802342057228">
        <ele>737.4</ele>
        <time>2017-08-04T10:10:02.000Z</time>
      </trkpt>
      <trkpt lat="43.35114696063101" lon="-6.39983125962317">
        <ele>737.8</ele>
        <time>2017-08-04T10:10:07.000Z</time>
      </trkpt>
      <trkpt lat="43.35109557956457" lon="-6.3998649548739195">
        <ele>738.2</ele>
        <time>2017-08-04T10:10:14.000Z</time>
      </trkpt>
      <trkpt lat="43.35105702280998" lon="-6.39989672228694">
        <ele>738.6</ele>
        <time>2017-08-04T10:10:18.000Z</time>
      </trkpt>
      <trkpt lat="43.3510285243392" lon="-6.399932764470577">
        <ele>738.8</ele>
        <time>2017-08-04T10:10:23.000Z</time>
      </trkpt>
      <trkpt lat="43.35102031007409" lon="-6.399941062554717">
        <ele>739</ele>
        <time>2017-08-04T10:10:25.000Z</time>
      </trkpt>
      <trkpt lat="43.351017544046044" lon="-6.399932345375419">
        <ele>738.8</ele>
        <time>2017-08-04T10:10:33.000Z</time>
      </trkpt>
      <trkpt lat="43.350989716127515" lon="-6.39996855519712">
        <ele>739</ele>
        <time>2017-08-04T10:10:58.000Z</time>
      </trkpt>
      <trkpt lat="43.35093087516725" lon="-6.400044914335012">
        <ele>740</ele>
        <time>2017-08-04T10:11:27.000Z</time>
      </trkpt>
      <trkpt lat="43.35086842998862" lon="-6.400123788043857">
        <ele>741</ele>
        <time>2017-08-04T10:11:36.000Z</time>
      </trkpt>
      <trkpt lat="43.350828448310494" lon="-6.40022411942482">
        <ele>742.8</ele>
        <time>2017-08-04T10:11:44.000Z</time>
      </trkpt>
      <trkpt lat="43.35079735144973" lon="-6.400308022275567">
        <ele>743.8</ele>
        <time>2017-08-04T10:11:50.000Z</time>
      </trkpt>
      <trkpt lat="43.35075745359063" lon="-6.400428134948015">
        <ele>745</ele>
        <time>2017-08-04T10:11:58.000Z</time>
      </trkpt>
      <trkpt lat="43.35072258487344" lon="-6.400534920394421">
        <ele>745.8</ele>
        <time>2017-08-04T10:12:06.000Z</time>
      </trkpt>
      <trkpt lat="43.3506709523499" lon="-6.400628630071878">
        <ele>746.2</ele>
        <time>2017-08-04T10:12:14.000Z</time>
      </trkpt>
      <trkpt lat="43.35066047497094" lon="-6.400643549859524">
        <ele>746.2</ele>
        <time>2017-08-04T10:12:16.000Z</time>
      </trkpt>
      <trkpt lat="43.35064513608813" lon="-6.400675568729639">
        <ele>746.4</ele>
        <time>2017-08-04T10:12:19.000Z</time>
      </trkpt>
      <trkpt lat="43.35063901729882" lon="-6.400701720267534">
        <ele>746.8</ele>
        <time>2017-08-04T10:12:22.000Z</time>
      </trkpt>
      <trkpt lat="43.35063273087144" lon="-6.4007078390568495">
        <ele>746.8</ele>
        <time>2017-08-04T10:12:23.000Z</time>
      </trkpt>
      <trkpt lat="43.350623259320855" lon="-6.400715801864862">
        <ele>746.6</ele>
        <time>2017-08-04T10:12:24.000Z</time>
      </trkpt>
      <trkpt lat="43.350610435009" lon="-6.4007670152932405">
        <ele>747.2</ele>
        <time>2017-08-04T10:12:30.000Z</time>
      </trkpt>
      <trkpt lat="43.350555868819356" lon="-6.400826778262854">
        <ele>747.2</ele>
        <time>2017-08-04T10:12:36.000Z</time>
      </trkpt>
      <trkpt lat="43.35050373338163" lon="-6.400878997519612">
        <ele>747.2</ele>
        <time>2017-08-04T10:12:42.000Z</time>
      </trkpt>
      <trkpt lat="43.350486466661096" lon="-6.400890313088894">
        <ele>747.2</ele>
        <time>2017-08-04T10:12:44.000Z</time>
      </trkpt>
      <trkpt lat="43.350433157756925" lon="-6.400916213169694">
        <ele>746.8</ele>
        <time>2017-08-04T10:12:49.000Z</time>
      </trkpt>
      <trkpt lat="43.35041278973222" lon="-6.400925600901246">
        <ele>746.6</ele>
        <time>2017-08-04T10:12:51.000Z</time>
      </trkpt>
      <trkpt lat="43.35036761127412" lon="-6.400936329737306">
        <ele>746.2</ele>
        <time>2017-08-04T10:12:55.000Z</time>
      </trkpt>
      <trkpt lat="43.350346740335226" lon="-6.400937922298908">
        <ele>746</ele>
        <time>2017-08-04T10:12:57.000Z</time>
      </trkpt>
      <trkpt lat="43.350288569927216" lon="-6.400946555659175">
        <ele>745.2</ele>
        <time>2017-08-04T10:13:03.000Z</time>
      </trkpt>
      <trkpt lat="43.35026325657964" lon="-6.400943705812097">
        <ele>744.8</ele>
        <time>2017-08-04T10:13:05.000Z</time>
      </trkpt>
      <trkpt lat="43.350233752280474" lon="-6.400947226211429">
        <ele>744.6</ele>
        <time>2017-08-04T10:13:08.000Z</time>
      </trkpt>
      <trkpt lat="43.35020776838064" lon="-6.400945130735636">
        <ele>744.4</ele>
        <time>2017-08-04T10:13:11.000Z</time>
      </trkpt>
      <trkpt lat="43.35016652941704" lon="-6.400948986411095">
        <ele>744.4</ele>
        <time>2017-08-04T10:13:15.000Z</time>
      </trkpt>
      <trkpt lat="43.35008220747113" lon="-6.400945046916604">
        <ele>744</ele>
        <time>2017-08-04T10:13:22.000Z</time>
      </trkpt>
      <trkpt lat="43.35007139481604" lon="-6.400947896763682">
        <ele>744</ele>
        <time>2017-08-04T10:13:24.000Z</time>
      </trkpt>
      <trkpt lat="43.35003233514726" lon="-6.400953596457839">
        <ele>744</ele>
        <time>2017-08-04T10:13:27.000Z</time>
      </trkpt>
      <trkpt lat="43.34995362907648" lon="-6.400943705812097">
        <ele>743.4</ele>
        <time>2017-08-04T10:13:33.000Z</time>
      </trkpt>
      <trkpt lat="43.34993585944176" lon="-6.40093750320375">
        <ele>743.2</ele>
        <time>2017-08-04T10:13:34.000Z</time>
      </trkpt>
      <trkpt lat="43.34983921609819" lon="-6.4009487349539995">
        <ele>743.2</ele>
        <time>2017-08-04T10:13:41.000Z</time>
      </trkpt>
      <trkpt lat="43.34975665435195" lon="-6.400968348607421">
        <ele>743.4</ele>
        <time>2017-08-04T10:13:47.000Z</time>
      </trkpt>
      <trkpt lat="43.34966780617833" lon="-6.400988381356001">
        <ele>743.8</ele>
        <time>2017-08-04T10:13:54.000Z</time>
      </trkpt>
      <trkpt lat="43.34956160746515" lon="-6.401009084656835">
        <ele>743.4</ele>
        <time>2017-08-04T10:14:02.000Z</time>
      </trkpt>
      <trkpt lat="43.34947661496699" lon="-6.401025764644146">
        <ele>743</ele>
        <time>2017-08-04T10:14:08.000Z</time>
      </trkpt>
      <trkpt lat="43.349364548921585" lon="-6.401034565642476">
        <ele>742.6</ele>
        <time>2017-08-04T10:14:16.000Z</time>
      </trkpt>
      <trkpt lat="43.34929447621107" lon="-6.401026686653495">
        <ele>742.2</ele>
        <time>2017-08-04T10:14:22.000Z</time>
      </trkpt>
      <trkpt lat="43.34919724613428" lon="-6.401029704138637">
        <ele>741.8</ele>
        <time>2017-08-04T10:14:30.000Z</time>
      </trkpt>
      <trkpt lat="43.34908886812627" lon="-6.4010462164878845">
        <ele>741.2</ele>
        <time>2017-08-04T10:14:39.000Z</time>
      </trkpt>
      <trkpt lat="43.34897772409022" lon="-6.401083013042808">
        <ele>740.4</ele>
        <time>2017-08-04T10:14:48.000Z</time>
      </trkpt>
      <trkpt lat="43.34888644516468" lon="-6.4011298678815365">
        <ele>740</ele>
        <time>2017-08-04T10:14:56.000Z</time>
      </trkpt>
      <trkpt lat="43.34878955036402" lon="-6.401175130158663">
        <ele>739.6</ele>
        <time>2017-08-04T10:15:05.000Z</time>
      </trkpt>
      <trkpt lat="43.348734732717276" lon="-6.401197928935289">
        <ele>739.4</ele>
        <time>2017-08-04T10:15:10.000Z</time>
      </trkpt>
      <trkpt lat="43.34872433915734" lon="-6.401197509840131">
        <ele>739.4</ele>
        <time>2017-08-04T10:15:11.000Z</time>
      </trkpt>
      <trkpt lat="43.348685363307595" lon="-6.401206646114588">
        <ele>739.2</ele>
        <time>2017-08-04T10:15:14.000Z</time>
      </trkpt>
      <trkpt lat="43.34865032695234" lon="-6.4012158662080765">
        <ele>739</ele>
        <time>2017-08-04T10:15:17.000Z</time>
      </trkpt>
      <trkpt lat="43.34855418652296" lon="-6.4012108370661736">
        <ele>738.2</ele>
        <time>2017-08-04T10:15:24.000Z</time>
      </trkpt>
      <trkpt lat="43.34846902638674" lon="-6.401207819581032">
        <ele>737</ele>
        <time>2017-08-04T10:15:31.000Z</time>
      </trkpt>
      <trkpt lat="43.34834388457239" lon="-6.401201700791717">
        <ele>735.4</ele>
        <time>2017-08-04T10:15:41.000Z</time>
      </trkpt>
      <trkpt lat="43.348247073590755" lon="-6.401211088523269">
        <ele>734.4</ele>
        <time>2017-08-04T10:15:48.000Z</time>
      </trkpt>
      <trkpt lat="43.348148334771395" lon="-6.401252327486873">
        <ele>733.6</ele>
        <time>2017-08-04T10:15:56.000Z</time>
      </trkpt>
      <trkpt lat="43.34805957041681" lon="-6.401352323591709">
        <ele>733.4</ele>
        <time>2017-08-04T10:16:05.000Z</time>
      </trkpt>
      <trkpt lat="43.347938284277916" lon="-6.401444859802723">
        <ele>733.6</ele>
        <time>2017-08-04T10:16:16.000Z</time>
      </trkpt>
      <trkpt lat="43.34785739891231" lon="-6.401487272232771">
        <ele>734</ele>
        <time>2017-08-04T10:16:23.000Z</time>
      </trkpt>
      <trkpt lat="43.34776586852968" lon="-6.401529097929597">
        <ele>734.2</ele>
        <time>2017-08-04T10:16:31.000Z</time>
      </trkpt>
      <trkpt lat="43.347679786384106" lon="-6.4015857595950365">
        <ele>734.6</ele>
        <time>2017-08-04T10:16:39.000Z</time>
      </trkpt>
      <trkpt lat="43.347608456388116" lon="-6.401649881154299">
        <ele>735</ele>
        <time>2017-08-04T10:16:47.000Z</time>
      </trkpt>
      <trkpt lat="43.34757090546191" lon="-6.401676619425416">
        <ele>735.2</ele>
        <time>2017-08-04T10:16:51.000Z</time>
      </trkpt>
      <trkpt lat="43.347559506073594" lon="-6.401683324947953">
        <ele>735.2</ele>
        <time>2017-08-04T10:16:52.000Z</time>
      </trkpt>
      <trkpt lat="43.34753042086959" lon="-6.40170075930655">
        <ele>735.2</ele>
        <time>2017-08-04T10:16:55.000Z</time>
      </trkpt>
      <trkpt lat="43.347494127228856" lon="-6.401740154251456">
        <ele>735.4</ele>
        <time>2017-08-04T10:16:58.000Z</time>
      </trkpt>
      <trkpt lat="43.34742749109864" lon="-6.401802599430084">
        <ele>735.2</ele>
        <time>2017-08-04T10:17:06.000Z</time>
      </trkpt>
      <trkpt lat="43.34735305979848" lon="-6.40185272321105">
        <ele>734.6</ele>
        <time>2017-08-04T10:17:13.000Z</time>
      </trkpt>
      <trkpt lat="43.34729824215174" lon="-6.401892369613051">
        <ele>734.2</ele>
        <time>2017-08-04T10:17:17.000Z</time>
      </trkpt>
      <trkpt lat="43.34721400402486" lon="-6.401920784264803">
        <ele>733.4</ele>
        <time>2017-08-04T10:17:24.000Z</time>
      </trkpt>
      <trkpt lat="43.34712825715542" lon="-6.401931596919894">
        <ele>732.4</ele>
        <time>2017-08-04T10:17:31.000Z</time>
      </trkpt>
      <trkpt lat="43.34702138788998" lon="-6.401925897225738">
        <ele>731.2</ele>
        <time>2017-08-04T10:17:39.000Z</time>
      </trkpt>
      <trkpt lat="43.346911668777466" lon="-6.4019194431602955">
        <ele>730</ele>
        <time>2017-08-04T10:17:47.000Z</time>
      </trkpt>
      <trkpt lat="43.34680672734976" lon="-6.4018885139375925">
        <ele>729.2</ele>
        <time>2017-08-04T10:17:56.000Z</time>
      </trkpt>
      <trkpt lat="43.346714861691" lon="-6.401861105114222">
        <ele>728.4</ele>
        <time>2017-08-04T10:18:04.000Z</time>
      </trkpt>
      <trkpt lat="43.346636574715376" lon="-6.401828331872821">
        <ele>727.8</ele>
        <time>2017-08-04T10:18:11.000Z</time>
      </trkpt>
      <trkpt lat="43.34653959609568" lon="-6.401788434013724">
        <ele>727</ele>
        <time>2017-08-04T10:18:19.000Z</time>
      </trkpt>
      <trkpt lat="43.34644907154143" lon="-6.401752810925245">
        <ele>726.2</ele>
        <time>2017-08-04T10:18:27.000Z</time>
      </trkpt>
      <trkpt lat="43.34635536186397" lon="-6.401722552254796">
        <ele>725.4</ele>
        <time>2017-08-04T10:18:35.000Z</time>
      </trkpt>
      <trkpt lat="43.346229549497366" lon="-6.401703106239438">
        <ele>723.8</ele>
        <time>2017-08-04T10:18:45.000Z</time>
      </trkpt>
      <trkpt lat="43.3461257815361" lon="-6.40169832855463">
        <ele>722.6</ele>
        <time>2017-08-04T10:18:53.000Z</time>
      </trkpt>
      <trkpt lat="43.34603366442025" lon="-6.401706878095865">
        <ele>721.6</ele>
        <time>2017-08-04T10:19:01.000Z</time>
      </trkpt>
      <trkpt lat="43.34599183872342" lon="-6.401710147038102">
        <ele>720.8</ele>
        <time>2017-08-04T10:19:07.000Z</time>
      </trkpt>
      <trkpt lat="43.34593182429671" lon="-6.4017141703516245">
        <ele>720</ele>
        <time>2017-08-04T10:19:13.000Z</time>
      </trkpt>
      <trkpt lat="43.34580617956817" lon="-6.401739735156298">
        <ele>718.2</ele>
        <time>2017-08-04T10:19:23.000Z</time>
      </trkpt>
      <trkpt lat="43.345716493204236" lon="-6.40176136046648">
        <ele>717.2</ele>
        <time>2017-08-04T10:19:31.000Z</time>
      </trkpt>
      <trkpt lat="43.345595709979534" lon="-6.401781728491187">
        <ele>716</ele>
        <time>2017-08-04T10:19:41.000Z</time>
      </trkpt>
      <trkpt lat="43.345489175990224" lon="-6.4017686527222395">
        <ele>715.4</ele>
        <time>2017-08-04T10:19:49.000Z</time>
      </trkpt>
      <trkpt lat="43.345421869307756" lon="-6.401731604710221">
        <ele>715</ele>
        <time>2017-08-04T10:19:55.000Z</time>
      </trkpt>
      <trkpt lat="43.34534157067537" lon="-6.4016729313880205">
        <ele>714.6</ele>
        <time>2017-08-04T10:20:02.000Z</time>
      </trkpt>
      <trkpt lat="43.34527929313481" lon="-6.401574527844787">
        <ele>714.2</ele>
        <time>2017-08-04T10:20:10.000Z</time>
      </trkpt>
      <trkpt lat="43.34526630118489" lon="-6.4014859311282635">
        <ele>714.6</ele>
        <time>2017-08-04T10:20:16.000Z</time>
      </trkpt>
      <trkpt lat="43.34523595869541" lon="-6.401410326361656">
        <ele>714.8</ele>
        <time>2017-08-04T10:20:22.000Z</time>
      </trkpt>
      <trkpt lat="43.3452298399061" lon="-6.401403537020087">
        <ele>714.8</ele>
        <time>2017-08-04T10:20:23.000Z</time>
      </trkpt>
      <trkpt lat="43.345185834914446" lon="-6.401380989700556">
        <ele>714.4</ele>
        <time>2017-08-04T10:20:28.000Z</time>
      </trkpt>
      <trkpt lat="43.34517074748874" lon="-6.401374451816082">
        <ele>714.2</ele>
        <time>2017-08-04T10:20:30.000Z</time>
      </trkpt>
      <trkpt lat="43.345116935670376" lon="-6.4013731107115746">
        <ele>713.6</ele>
        <time>2017-08-04T10:20:36.000Z</time>
      </trkpt>
      <trkpt lat="43.34511215798557" lon="-6.401378810405731">
        <ele>713.6</ele>
        <time>2017-08-04T10:20:37.000Z</time>
      </trkpt>
      <trkpt lat="43.34506974555552" lon="-6.401401273906231">
        <ele>713</ele>
        <time>2017-08-04T10:20:42.000Z</time>
      </trkpt>
      <trkpt lat="43.345051975920796" lon="-6.401413595303893">
        <ele>712.6</ele>
        <time>2017-08-04T10:20:44.000Z</time>
      </trkpt>
      <trkpt lat="43.345021130517125" lon="-6.401463216170669">
        <ele>712</ele>
        <time>2017-08-04T10:20:50.000Z</time>
      </trkpt>
      <trkpt lat="43.3450052049011" lon="-6.401559440419078">
        <ele>711</ele>
        <time>2017-08-04T10:20:57.000Z</time>
      </trkpt>
      <trkpt lat="43.34499548189342" lon="-6.4016964845359325">
        <ele>710.2</ele>
        <time>2017-08-04T10:21:07.000Z</time>
      </trkpt>
      <trkpt lat="43.34499824792147" lon="-6.401758845895529">
        <ele>709.8</ele>
        <time>2017-08-04T10:21:12.000Z</time>
      </trkpt>
      <trkpt lat="43.344994224607944" lon="-6.4017978217452765">
        <ele>709.4</ele>
        <time>2017-08-04T10:21:15.000Z</time>
      </trkpt>
      <trkpt lat="43.34499363787472" lon="-6.40180922113359">
        <ele>709.4</ele>
        <time>2017-08-04T10:21:16.000Z</time>
      </trkpt>
      <trkpt lat="43.34499154239893" lon="-6.401834534481168">
        <ele>709</ele>
        <time>2017-08-04T10:21:18.000Z</time>
      </trkpt>
      <trkpt lat="43.344985507428646" lon="-6.401886083185673">
        <ele>708.6</ele>
        <time>2017-08-04T10:21:22.000Z</time>
      </trkpt>
      <trkpt lat="43.344979137182236" lon="-6.401930255815387">
        <ele>708.4</ele>
        <time>2017-08-04T10:21:25.000Z</time>
      </trkpt>
      <trkpt lat="43.34497201256454" lon="-6.401999071240425">
        <ele>708</ele>
        <time>2017-08-04T10:21:31.000Z</time>
      </trkpt>
      <trkpt lat="43.344953656196594" lon="-6.4020805433392525">
        <ele>707.4</ele>
        <time>2017-08-04T10:21:38.000Z</time>
      </trkpt>
      <trkpt lat="43.34495491348207" lon="-6.402092445641756">
        <ele>707.4</ele>
        <time>2017-08-04T10:21:39.000Z</time>
      </trkpt>
      <trkpt lat="43.34493588656187" lon="-6.402126979082823">
        <ele>707</ele>
        <time>2017-08-04T10:21:44.000Z</time>
      </trkpt>
      <trkpt lat="43.344902945682406" lon="-6.402209792286158">
        <ele>706.4</ele>
        <time>2017-08-04T10:21:52.000Z</time>
      </trkpt>
      <trkpt lat="43.34487377665937" lon="-6.402297802269459">
        <ele>706.6</ele>
        <time>2017-08-04T10:22:00.000Z</time>
      </trkpt>
      <trkpt lat="43.34486547857523" lon="-6.402349937707186">
        <ele>706.4</ele>
        <time>2017-08-04T10:22:05.000Z</time>
      </trkpt>
      <trkpt lat="43.344856007024646" lon="-6.402404336258769">
        <ele>706.2</ele>
        <time>2017-08-04T10:22:09.000Z</time>
      </trkpt>
      <trkpt lat="43.34485441446304" lon="-6.402424117550254">
        <ele>706.2</ele>
        <time>2017-08-04T10:22:11.000Z</time>
      </trkpt>
      <trkpt lat="43.34485801868141" lon="-6.40250944532454">
        <ele>706.6</ele>
        <time>2017-08-04T10:22:17.000Z</time>
      </trkpt>
      <trkpt lat="43.344874028116465" lon="-6.4025679510086775">
        <ele>707.4</ele>
        <time>2017-08-04T10:22:22.000Z</time>
      </trkpt>
      <trkpt lat="43.34488014690578" lon="-6.402576919645071">
        <ele>707.4</ele>
        <time>2017-08-04T10:22:23.000Z</time>
      </trkpt>
      <trkpt lat="43.3448844216764" lon="-6.402596449479461">
        <ele>707.6</ele>
        <time>2017-08-04T10:22:24.000Z</time>
      </trkpt>
      <trkpt lat="43.344895988702774" lon="-6.4026356767863035">
        <ele>708</ele>
        <time>2017-08-04T10:22:27.000Z</time>
      </trkpt>
      <trkpt lat="43.344898000359535" lon="-6.402652272954583">
        <ele>708.2</ele>
        <time>2017-08-04T10:22:28.000Z</time>
      </trkpt>
      <trkpt lat="43.34490277804434" lon="-6.402740702033043">
        <ele>709</ele>
        <time>2017-08-04T10:22:34.000Z</time>
      </trkpt>
      <trkpt lat="43.344897078350186" lon="-6.402758890762925">
        <ele>709.4</ele>
        <time>2017-08-04T10:22:36.000Z</time>
      </trkpt>
      <trkpt lat="43.34488978609443" lon="-6.402779426425695">
        <ele>710</ele>
        <time>2017-08-04T10:22:38.000Z</time>
      </trkpt>
      <trkpt lat="43.34488308057189" lon="-6.402809098362923">
        <ele>710.8</ele>
        <time>2017-08-04T10:22:41.000Z</time>
      </trkpt>
      <trkpt lat="43.34485868923366" lon="-6.402851343154907">
        <ele>711.8</ele>
        <time>2017-08-04T10:22:45.000Z</time>
      </trkpt>
      <trkpt lat="43.344838907942176" lon="-6.402902640402317">
        <ele>712.8</ele>
        <time>2017-08-04T10:22:49.000Z</time>
      </trkpt>
      <trkpt lat="43.34483220241964" lon="-6.402903143316507">
        <ele>712.8</ele>
        <time>2017-08-04T10:22:50.000Z</time>
      </trkpt>
      <trkpt lat="43.34479314275086" lon="-6.4029234275221825">
        <ele>713.8</ele>
        <time>2017-08-04T10:22:54.000Z</time>
      </trkpt>
      <trkpt lat="43.344778306782246" lon="-6.402932060882449">
        <ele>714.2</ele>
        <time>2017-08-04T10:22:56.000Z</time>
      </trkpt>
      <trkpt lat="43.34473212249577" lon="-6.4029016345739365">
        <ele>713.6</ele>
        <time>2017-08-04T10:23:02.000Z</time>
      </trkpt>
      <trkpt lat="43.34466364234686" lon="-6.40287397429347">
        <ele>713.4</ele>
        <time>2017-08-04T10:23:10.000Z</time>
      </trkpt>
      <trkpt lat="43.34463397040963" lon="-6.402846900746226">
        <ele>713.4</ele>
        <time>2017-08-04T10:23:13.000Z</time>
      </trkpt>
      <trkpt lat="43.34462366066873" lon="-6.402844553813338">
        <ele>713.6</ele>
        <time>2017-08-04T10:23:15.000Z</time>
      </trkpt>
      <trkpt lat="43.34462223574519" lon="-6.402835166081786">
        <ele>713.4</ele>
        <time>2017-08-04T10:23:16.000Z</time>
      </trkpt>
      <trkpt lat="43.3445905521512" lon="-6.4028197433799505">
        <ele>713.8</ele>
        <time>2017-08-04T10:23:19.000Z</time>
      </trkpt>
      <trkpt lat="43.34457655437291" lon="-6.402809685096145">
        <ele>713.8</ele>
        <time>2017-08-04T10:23:24.000Z</time>
      </trkpt>
      <trkpt lat="43.344523161649704" lon="-6.4027779176831245">
        <ele>714.6</ele>
        <time>2017-08-04T10:23:31.000Z</time>
      </trkpt>
      <trkpt lat="43.34445308893919" lon="-6.40274204313755">
        <ele>715.6</ele>
        <time>2017-08-04T10:23:37.000Z</time>
      </trkpt>
      <trkpt lat="43.34437387995422" lon="-6.402724189683795">
        <ele>716.8</ele>
        <time>2017-08-04T10:23:44.000Z</time>
      </trkpt>
      <trkpt lat="43.34432794712484" lon="-6.402703234925866">
        <ele>717</ele>
        <time>2017-08-04T10:23:49.000Z</time>
      </trkpt>
      <trkpt lat="43.34428209811449" lon="-6.402680771425366">
        <ele>717.2</ele>
        <time>2017-08-04T10:23:53.000Z</time>
      </trkpt>
      <trkpt lat="43.344271536916494" lon="-6.402668701484799">
        <ele>717</ele>
        <time>2017-08-04T10:23:55.000Z</time>
      </trkpt>
      <trkpt lat="43.34421068429947" lon="-6.402616566047072">
        <ele>717</ele>
        <time>2017-08-04T10:24:01.000Z</time>
      </trkpt>
      <trkpt lat="43.344172798097134" lon="-6.402584882453084">
        <ele>717.2</ele>
        <time>2017-08-04T10:24:06.000Z</time>
      </trkpt>
      <trkpt lat="43.344150334596634" lon="-6.402556048706174">
        <ele>717.2</ele>
        <time>2017-08-04T10:24:08.000Z</time>
      </trkpt>
      <trkpt lat="43.34410800598562" lon="-6.402510534971952">
        <ele>717</ele>
        <time>2017-08-04T10:24:12.000Z</time>
      </trkpt>
      <trkpt lat="43.34406316280365" lon="-6.4024728164076805">
        <ele>717</ele>
        <time>2017-08-04T10:24:17.000Z</time>
      </trkpt>
      <trkpt lat="43.34402837790549" lon="-6.402441719546914">
        <ele>717</ele>
        <time>2017-08-04T10:24:21.000Z</time>
      </trkpt>
      <trkpt lat="43.34398462437093" lon="-6.402415568009019">
        <ele>717</ele>
        <time>2017-08-04T10:24:24.000Z</time>
      </trkpt>
      <trkpt lat="43.343967692926526" lon="-6.402396457269788">
        <ele>716.8</ele>
        <time>2017-08-04T10:24:27.000Z</time>
      </trkpt>
      <trkpt lat="43.34395662881434" lon="-6.402389919385314">
        <ele>717</ele>
        <time>2017-08-04T10:24:28.000Z</time>
      </trkpt>
      <trkpt lat="43.343922179192305" lon="-6.402340717613697">
        <ele>716.8</ele>
        <time>2017-08-04T10:24:33.000Z</time>
      </trkpt>
      <trkpt lat="43.34388714283705" lon="-6.402305765077472">
        <ele>717.4</ele>
        <time>2017-08-04T10:24:36.000Z</time>
      </trkpt>
      <trkpt lat="43.343868870288134" lon="-6.402291180565953">
        <ele>717.8</ele>
        <time>2017-08-04T10:24:39.000Z</time>
      </trkpt>
      <trkpt lat="43.34382310509682" lon="-6.402248935773969">
        <ele>718</ele>
        <time>2017-08-04T10:24:45.000Z</time>
      </trkpt>
      <trkpt lat="43.34378723055124" lon="-6.402220521122217">
        <ele>718</ele>
        <time>2017-08-04T10:24:49.000Z</time>
      </trkpt>
      <trkpt lat="43.34377666935325" lon="-6.40221431851387">
        <ele>718</ele>
        <time>2017-08-04T10:24:50.000Z</time>
      </trkpt>
      <trkpt lat="43.34371657110751" lon="-6.402181042358279">
        <ele>718</ele>
        <time>2017-08-04T10:24:56.000Z</time>
      </trkpt>
      <trkpt lat="43.34365773014724" lon="-6.402176097035408">
        <ele>718.4</ele>
        <time>2017-08-04T10:25:02.000Z</time>
      </trkpt>
      <trkpt lat="43.343630488961935" lon="-6.402169391512871">
        <ele>718.6</ele>
        <time>2017-08-04T10:25:05.000Z</time>
      </trkpt>
      <trkpt lat="43.34358673542738" lon="-6.402169140055776">
        <ele>719</ele>
        <time>2017-08-04T10:25:10.000Z</time>
      </trkpt>
      <trkpt lat="43.34353309124708" lon="-6.4021609257906675">
        <ele>719.6</ele>
        <time>2017-08-04T10:25:15.000Z</time>
      </trkpt>
      <trkpt lat="43.343522446230054" lon="-6.402160841971636">
        <ele>719.8</ele>
        <time>2017-08-04T10:25:16.000Z</time>
      </trkpt>
      <trkpt lat="43.34347098134458" lon="-6.402149274945259">
        <ele>720.2</ele>
        <time>2017-08-04T10:25:20.000Z</time>
      </trkpt>
      <trkpt lat="43.34344952367246" lon="-6.402146760374308">
        <ele>720.4</ele>
        <time>2017-08-04T10:25:22.000Z</time>
      </trkpt>
      <trkpt lat="43.343389090150595" lon="-6.402143323794007">
        <ele>721.2</ele>
        <time>2017-08-04T10:25:27.000Z</time>
      </trkpt>
      <trkpt lat="43.34336830303073" lon="-6.402145000174642">
        <ele>721.6</ele>
        <time>2017-08-04T10:25:28.000Z</time>
      </trkpt>
      <trkpt lat="43.3433439116925" lon="-6.402145083993673">
        <ele>722</ele>
        <time>2017-08-04T10:25:30.000Z</time>
      </trkpt>
      <trkpt lat="43.343318263068795" lon="-6.40215614810586">
        <ele>722.8</ele>
        <time>2017-08-04T10:25:33.000Z</time>
      </trkpt>
      <trkpt lat="43.3432627748698" lon="-6.402138881385326">
        <ele>723.4</ele>
        <time>2017-08-04T10:25:37.000Z</time>
      </trkpt>
      <trkpt lat="43.3432487770915" lon="-6.4021397195756435">
        <ele>723.4</ele>
        <time>2017-08-04T10:25:39.000Z</time>
      </trkpt>
      <trkpt lat="43.343203430995345" lon="-6.402136031538248">
        <ele>723.8</ele>
        <time>2017-08-04T10:25:43.000Z</time>
      </trkpt>
      <trkpt lat="43.3431935403496" lon="-6.4021294098347425">
        <ele>723.8</ele>
        <time>2017-08-04T10:25:44.000Z</time>
      </trkpt>
      <trkpt lat="43.34314450621605" lon="-6.4021435752511024">
        <ele>724.4</ele>
        <time>2017-08-04T10:25:49.000Z</time>
      </trkpt>
      <trkpt lat="43.343076361343265" lon="-6.402141228318214">
        <ele>724.8</ele>
        <time>2017-08-04T10:25:54.000Z</time>
      </trkpt>
      <trkpt lat="43.343010479584336" lon="-6.40214005485177">
        <ele>725.6</ele>
        <time>2017-08-04T10:26:00.000Z</time>
      </trkpt>
      <trkpt lat="43.342941580340266" lon="-6.402123710140586">
        <ele>726</ele>
        <time>2017-08-04T10:26:06.000Z</time>
      </trkpt>
      <trkpt lat="43.34288693033159" lon="-6.402115914970636">
        <ele>726.4</ele>
        <time>2017-08-04T10:26:11.000Z</time>
      </trkpt>
      <trkpt lat="43.342806212604046" lon="-6.402099234983325">
        <ele>726.8</ele>
        <time>2017-08-04T10:26:17.000Z</time>
      </trkpt>
      <trkpt lat="43.34278936497867" lon="-6.402091775089502">
        <ele>726.8</ele>
        <time>2017-08-04T10:26:18.000Z</time>
      </trkpt>
      <trkpt lat="43.34276891313493" lon="-6.402074759826064">
        <ele>726.8</ele>
        <time>2017-08-04T10:26:20.000Z</time>
      </trkpt>
      <trkpt lat="43.3427257463336" lon="-6.402066210284829">
        <ele>727</ele>
        <time>2017-08-04T10:26:23.000Z</time>
      </trkpt>
      <trkpt lat="43.34271350875497" lon="-6.402064869180322">
        <ele>727</ele>
        <time>2017-08-04T10:26:24.000Z</time>
      </trkpt>
      <trkpt lat="43.342620469629765" lon="-6.4020502008497715">
        <ele>727</ele>
        <time>2017-08-04T10:26:31.000Z</time>
      </trkpt>
      <trkpt lat="43.34260957315564" lon="-6.402044501155615">
        <ele>727</ele>
        <time>2017-08-04T10:26:32.000Z</time>
      </trkpt>
      <trkpt lat="43.342535896226764" lon="-6.40201885253191">
        <ele>727</ele>
        <time>2017-08-04T10:26:38.000Z</time>
      </trkpt>
      <trkpt lat="43.342522233724594" lon="-6.402023546397686">
        <ele>727.2</ele>
        <time>2017-08-04T10:26:39.000Z</time>
      </trkpt>
      <trkpt lat="43.34246615879238" lon="-6.402003346011043">
        <ele>727.2</ele>
        <time>2017-08-04T10:26:44.000Z</time>
      </trkpt>
      <trkpt lat="43.34243791177869" lon="-6.401996053755283">
        <ele>727</ele>
        <time>2017-08-04T10:26:46.000Z</time>
      </trkpt>
      <trkpt lat="43.3423338085413" lon="-6.401975769549608">
        <ele>725.8</ele>
        <time>2017-08-04T10:26:53.000Z</time>
      </trkpt>
      <trkpt lat="43.342225681990385" lon="-6.401952216401696">
        <ele>724.6</ele>
        <time>2017-08-04T10:27:01.000Z</time>
      </trkpt>
      <trkpt lat="43.34217505529523" lon="-6.401948612183332">
        <ele>724</ele>
        <time>2017-08-04T10:27:05.000Z</time>
      </trkpt>
      <trkpt lat="43.34213842637837" lon="-6.401942912489176">
        <ele>723.6</ele>
        <time>2017-08-04T10:27:08.000Z</time>
      </trkpt>
      <trkpt lat="43.34200599230826" lon="-6.401905948296189">
        <ele>722</ele>
        <time>2017-08-04T10:27:18.000Z</time>
      </trkpt>
      <trkpt lat="43.34188152104616" lon="-6.401845850050449">
        <ele>720.6</ele>
        <time>2017-08-04T10:27:28.000Z</time>
      </trkpt>
      <trkpt lat="43.34176652133465" lon="-6.401788936927915">
        <ele>720</ele>
        <time>2017-08-04T10:27:37.000Z</time>
      </trkpt>
      <trkpt lat="43.341667028144" lon="-6.401745183393359">
        <ele>719.6</ele>
        <time>2017-08-04T10:27:45.000Z</time>
      </trkpt>
      <trkpt lat="43.34156669676304" lon="-6.40169832855463">
        <ele>719.2</ele>
        <time>2017-08-04T10:27:53.000Z</time>
      </trkpt>
      <trkpt lat="43.34146561101079" lon="-6.401650132611394">
        <ele>719</ele>
        <time>2017-08-04T10:28:01.000Z</time>
      </trkpt>
      <trkpt lat="43.34139185026288" lon="-6.401617610827088">
        <ele>719</ele>
        <time>2017-08-04T10:28:07.000Z</time>
      </trkpt>
      <trkpt lat="43.341291937977076" lon="-6.40155759640038">
        <ele>718.6</ele>
        <time>2017-08-04T10:28:15.000Z</time>
      </trkpt>
      <trkpt lat="43.34117928519845" lon="-6.401464976370335">
        <ele>718</ele>
        <time>2017-08-04T10:28:25.000Z</time>
      </trkpt>
      <trkpt lat="43.34104819223285" lon="-6.4013799000531435">
        <ele>718</ele>
        <time>2017-08-04T10:28:36.000Z</time>
      </trkpt>
      <trkpt lat="43.34092657081783" lon="-6.401306055486202">
        <ele>718</ele>
        <time>2017-08-04T10:28:46.000Z</time>
      </trkpt>
      <trkpt lat="43.34081240929663" lon="-6.401237156242132">
        <ele>717.6</ele>
        <time>2017-08-04T10:28:56.000Z</time>
      </trkpt>
      <trkpt lat="43.34071853198111" lon="-6.401181081309915">
        <ele>716.8</ele>
        <time>2017-08-04T10:29:04.000Z</time>
      </trkpt>
      <trkpt lat="43.34063982591033" lon="-6.401150655001402">
        <ele>716.2</ele>
        <time>2017-08-04T10:29:11.000Z</time>
      </trkpt>
      <trkpt lat="43.34054309874773" lon="-6.401130789890885">
        <ele>715.4</ele>
        <time>2017-08-04T10:29:19.000Z</time>
      </trkpt>
      <trkpt lat="43.34040194749832" lon="-6.40114126726985">
        <ele>714.8</ele>
        <time>2017-08-04T10:29:30.000Z</time>
      </trkpt>
      <trkpt lat="43.340290719643235" lon="-6.4011740405112505">
        <ele>714.6</ele>
        <time>2017-08-04T10:29:39.000Z</time>
      </trkpt>
      <trkpt lat="43.34021461196244" lon="-6.4012520760297775">
        <ele>714.4</ele>
        <time>2017-08-04T10:29:46.000Z</time>
      </trkpt>
      <trkpt lat="43.34012635052204" lon="-6.401353916153312">
        <ele>714.2</ele>
        <time>2017-08-04T10:29:55.000Z</time>
      </trkpt>
      <trkpt lat="43.340070359408855" lon="-6.4014894515275955">
        <ele>714.8</ele>
        <time>2017-08-04T10:30:04.000Z</time>
      </trkpt>
      <trkpt lat="43.34003590978682" lon="-6.401596153154969">
        <ele>715</ele>
        <time>2017-08-04T10:30:11.000Z</time>
      </trkpt>
      <trkpt lat="43.33999098278582" lon="-6.4017021004110575">
        <ele>715</ele>
        <time>2017-08-04T10:30:18.000Z</time>
      </trkpt>
      <trkpt lat="43.33991873078048" lon="-6.401826739311218">
        <ele>715</ele>
        <time>2017-08-04T10:30:27.000Z</time>
      </trkpt>
      <trkpt lat="43.33984983153641" lon="-6.401925897225738">
        <ele>715</ele>
        <time>2017-08-04T10:30:35.000Z</time>
      </trkpt>
      <trkpt lat="43.33979316987097" lon="-6.402015080675483">
        <ele>715.4</ele>
        <time>2017-08-04T10:30:42.000Z</time>
      </trkpt>
      <trkpt lat="43.339731227606535" lon="-6.402121698483825">
        <ele>715.8</ele>
        <time>2017-08-04T10:30:50.000Z</time>
      </trkpt>
      <trkpt lat="43.339658388867974" lon="-6.402227394282818">
        <ele>715.8</ele>
        <time>2017-08-04T10:30:58.000Z</time>
      </trkpt>
      <trkpt lat="43.33958689123392" lon="-6.40233744867146">
        <ele>715</ele>
        <time>2017-08-04T10:31:06.000Z</time>
      </trkpt>
      <trkpt lat="43.33948412910104" lon="-6.402478767558932">
        <ele>714</ele>
        <time>2017-08-04T10:31:17.000Z</time>
      </trkpt>
      <trkpt lat="43.3393944427371" lon="-6.402588989585638">
        <ele>713</ele>
        <time>2017-08-04T10:31:26.000Z</time>
      </trkpt>
      <trkpt lat="43.33930291235447" lon="-6.402654703706503">
        <ele>713.6</ele>
        <time>2017-08-04T10:31:34.000Z</time>
      </trkpt>
      <trkpt lat="43.33920576609671" lon="-6.402682531625032">
        <ele>714.4</ele>
        <time>2017-08-04T10:31:42.000Z</time>
      </trkpt>
      <trkpt lat="43.33913158625364" lon="-6.402682783082128">
        <ele>715</ele>
        <time>2017-08-04T10:31:48.000Z</time>
      </trkpt>
      <trkpt lat="43.33904307335615" lon="-6.402678927406669">
        <ele>717.2</ele>
        <time>2017-08-04T10:31:55.000Z</time>
      </trkpt>
      <trkpt lat="43.33895975723863" lon="-6.402654033154249">
        <ele>719.6</ele>
        <time>2017-08-04T10:32:02.000Z</time>
      </trkpt>
      <trkpt lat="43.33893251605332" lon="-6.402651770040393">
        <ele>720.4</ele>
        <time>2017-08-04T10:32:04.000Z</time>
      </trkpt>
      <trkpt lat="43.33891650661826" lon="-6.402641963213682">
        <ele>720.6</ele>
        <time>2017-08-04T10:32:06.000Z</time>
      </trkpt>
      <trkpt lat="43.33884760737419" lon="-6.402603993192315">
        <ele>721.8</ele>
        <time>2017-08-04T10:32:13.000Z</time>
      </trkpt>
      <trkpt lat="43.33884031511843" lon="-6.402599718421698">
        <ele>722</ele>
        <time>2017-08-04T10:32:14.000Z</time>
      </trkpt>
      <trkpt lat="43.33878885023296" lon="-6.4025788474828005">
        <ele>722.8</ele>
        <time>2017-08-04T10:32:20.000Z</time>
      </trkpt>
      <trkpt lat="43.338739732280374" lon="-6.402555042877793">
        <ele>723.4</ele>
        <time>2017-08-04T10:32:24.000Z</time>
      </trkpt>
      <trkpt lat="43.338734451681376" lon="-6.402552779763937">
        <ele>723.6</ele>
        <time>2017-08-04T10:32:25.000Z</time>
      </trkpt>
      <trkpt lat="43.33867904730141" lon="-6.402519922703505">
        <ele>724.4</ele>
        <time>2017-08-04T10:32:31.000Z</time>
      </trkpt>
      <trkpt lat="43.33866320550442" lon="-6.402521096169949">
        <ele>724.6</ele>
        <time>2017-08-04T10:32:33.000Z</time>
      </trkpt>
      <trkpt lat="43.3386520575732" lon="-6.40252998098731">
        <ele>724.8</ele>
        <time>2017-08-04T10:32:35.000Z</time>
      </trkpt>
      <trkpt lat="43.338628336787224" lon="-6.4025270473212">
        <ele>725.2</ele>
        <time>2017-08-04T10:32:37.000Z</time>
      </trkpt>
      <trkpt lat="43.338594641536474" lon="-6.402522940188646">
        <ele>725.8</ele>
        <time>2017-08-04T10:32:40.000Z</time>
      </trkpt>
      <trkpt lat="43.33853370510042" lon="-6.402525957673788">
        <ele>726.4</ele>
        <time>2017-08-04T10:32:45.000Z</time>
      </trkpt>
      <trkpt lat="43.33846136927605" lon="-6.4025508519262075">
        <ele>727.2</ele>
        <time>2017-08-04T10:32:52.000Z</time>
      </trkpt>
      <trkpt lat="43.33846262656152" lon="-6.402558647096157">
        <ele>727.2</ele>
        <time>2017-08-04T10:32:53.000Z</time>
      </trkpt>
      <trkpt lat="43.338434379547834" lon="-6.402582703158259">
        <ele>727.4</ele>
        <time>2017-08-04T10:32:56.000Z</time>
      </trkpt>
      <trkpt lat="43.33841744810343" lon="-6.402603155001998">
        <ele>727.6</ele>
        <time>2017-08-04T10:32:58.000Z</time>
      </trkpt>
      <trkpt lat="43.33837151527405" lon="-6.402670880779624">
        <ele>728.2</ele>
        <time>2017-08-04T10:33:03.000Z</time>
      </trkpt>
      <trkpt lat="43.3383565954864" lon="-6.402679933235049">
        <ele>728.2</ele>
        <time>2017-08-04T10:33:04.000Z</time>
      </trkpt>
      <trkpt lat="43.33831745199859" lon="-6.402704576030374">
        <ele>728.6</ele>
        <time>2017-08-04T10:33:08.000Z</time>
      </trkpt>
      <trkpt lat="43.33829280920327" lon="-6.402740869671106">
        <ele>729</ele>
        <time>2017-08-04T10:33:11.000Z</time>
      </trkpt>
      <trkpt lat="43.33826607093215" lon="-6.402773978188634">
        <ele>728.8</ele>
        <time>2017-08-04T10:33:14.000Z</time>
      </trkpt>
      <trkpt lat="43.33824997767806" lon="-6.402816977351904">
        <ele>728.8</ele>
        <time>2017-08-04T10:33:17.000Z</time>
      </trkpt>
      <trkpt lat="43.338214019313455" lon="-6.402886714786291">
        <ele>728.4</ele>
        <time>2017-08-04T10:33:22.000Z</time>
      </trkpt>
      <trkpt lat="43.338168170303106" lon="-6.402977155521512">
        <ele>728.2</ele>
        <time>2017-08-04T10:33:30.000Z</time>
      </trkpt>
      <trkpt lat="43.33815383724868" lon="-6.403011018410325">
        <ele>728</ele>
        <time>2017-08-04T10:33:37.000Z</time>
      </trkpt>
      <trkpt lat="43.338145120069385" lon="-6.403032056987286">
        <ele>728</ele>
        <time>2017-08-04T10:33:46.000Z</time>
      </trkpt>
      <trkpt lat="43.33812726661563" lon="-6.403089724481106">
        <ele>727.4</ele>
        <time>2017-08-04T10:33:53.000Z</time>
      </trkpt>
      <trkpt lat="43.33809834904969" lon="-6.403191732242703">
        <ele>726.4</ele>
        <time>2017-08-04T10:34:01.000Z</time>
      </trkpt>
      <trkpt lat="43.338088458403945" lon="-6.403219141066074">
        <ele>726.2</ele>
        <time>2017-08-04T10:34:03.000Z</time>
      </trkpt>
      <trkpt lat="43.33806909620762" lon="-6.403262726962566">
        <ele>725.8</ele>
        <time>2017-08-04T10:34:07.000Z</time>
      </trkpt>
      <trkpt lat="43.338017631322145" lon="-6.4033902157098055">
        <ele>725</ele>
        <time>2017-08-04T10:34:16.000Z</time>
      </trkpt>
      <trkpt lat="43.33796398714185" lon="-6.403539665043354">
        <ele>724.6</ele>
        <time>2017-08-04T10:34:26.000Z</time>
      </trkpt>
      <trkpt lat="43.33792006596923" lon="-6.403670758008957">
        <ele>724</ele>
        <time>2017-08-04T10:34:35.000Z</time>
      </trkpt>
      <trkpt lat="43.33787874318659" lon="-6.403799671679735">
        <ele>723.8</ele>
        <time>2017-08-04T10:34:44.000Z</time>
      </trkpt>
      <trkpt lat="43.33786642178893" lon="-6.4038266614079475">
        <ele>723.8</ele>
        <time>2017-08-04T10:34:46.000Z</time>
      </trkpt>
      <trkpt lat="43.337841695174575" lon="-6.403902769088745">
        <ele>723.8</ele>
        <time>2017-08-04T10:34:51.000Z</time>
      </trkpt>
      <trkpt lat="43.33780959248543" lon="-6.404015002772212">
        <ele>723.6</ele>
        <time>2017-08-04T10:34:58.000Z</time>
      </trkpt>
      <trkpt lat="43.337783608585596" lon="-6.4041155856102705">
        <ele>723.6</ele>
        <time>2017-08-04T10:35:05.000Z</time>
      </trkpt>
      <trkpt lat="43.337747398763895" lon="-6.404264280572534">
        <ele>723.2</ele>
        <time>2017-08-04T10:35:14.000Z</time>
      </trkpt>
      <trkpt lat="43.337714206427336" lon="-6.404412807896733">
        <ele>722.8</ele>
        <time>2017-08-04T10:35:23.000Z</time>
      </trkpt>
      <trkpt lat="43.33767548203468" lon="-6.404528310522437">
        <ele>722.6</ele>
        <time>2017-08-04T10:35:30.000Z</time>
      </trkpt>
      <trkpt lat="43.33764505572617" lon="-6.404694775119424">
        <ele>723</ele>
        <time>2017-08-04T10:35:40.000Z</time>
      </trkpt>
      <trkpt lat="43.33763516508043" lon="-6.404802398756146">
        <ele>723.2</ele>
        <time>2017-08-04T10:35:47.000Z</time>
      </trkpt>
      <trkpt lat="43.33761731162667" lon="-6.4049390237778425">
        <ele>723.4</ele>
        <time>2017-08-04T10:35:55.000Z</time>
      </trkpt>
      <trkpt lat="43.33759183064103" lon="-6.4050444681197405">
        <ele>722.8</ele>
        <time>2017-08-04T10:36:02.000Z</time>
      </trkpt>
      <trkpt lat="43.33759568631649" lon="-6.405036840587854">
        <ele>722.8</ele>
        <time>2017-08-04T10:36:10.000Z</time>
      </trkpt>
      <trkpt lat="43.33758872933686" lon="-6.404987722635269">
        <ele>722.8</ele>
        <time>2017-08-04T10:36:14.000Z</time>
      </trkpt>
      <trkpt lat="43.33759023807943" lon="-6.404989818111062">
        <ele>722.8</ele>
        <time>2017-08-04T10:36:15.000Z</time>
      </trkpt>
      <trkpt lat="43.337584622204304" lon="-6.404992751777172">
        <ele>722.8</ele>
        <time>2017-08-04T10:36:23.000Z</time>
      </trkpt>
      <trkpt lat="43.337586214765906" lon="-6.405015382915735">
        <ele>722.6</ele>
        <time>2017-08-04T10:36:30.000Z</time>
      </trkpt>
      <trkpt lat="43.33758001215756" lon="-6.405037343502045">
        <ele>722.4</ele>
        <time>2017-08-04T10:36:39.000Z</time>
      </trkpt>
      <trkpt lat="43.33755469880998" lon="-6.405183440074325">
        <ele>721.6</ele>
        <time>2017-08-04T10:37:51.000Z</time>
      </trkpt>
      <trkpt lat="43.33754631690681" lon="-6.405253009870648">
        <ele>721.6</ele>
        <time>2017-08-04T10:37:59.000Z</time>
      </trkpt>
      <trkpt lat="43.337553357705474" lon="-6.405306654050946">
        <ele>722</ele>
        <time>2017-08-04T10:38:35.000Z</time>
      </trkpt>
      <trkpt lat="43.33753902465105" lon="-6.405386617407203">
        <ele>722</ele>
        <time>2017-08-04T10:38:41.000Z</time>
      </trkpt>
      <trkpt lat="43.33752645179629" lon="-6.405460881069303">
        <ele>721.8</ele>
        <time>2017-08-04T10:38:47.000Z</time>
      </trkpt>
      <trkpt lat="43.337523099035025" lon="-6.40555358491838">
        <ele>721.8</ele>
        <time>2017-08-04T10:38:54.000Z</time>
      </trkpt>
      <trkpt lat="43.33752586506307" lon="-6.405581999570131">
        <ele>721.8</ele>
        <time>2017-08-04T10:38:56.000Z</time>
      </trkpt>
      <trkpt lat="43.337518237531185" lon="-6.405637152493">
        <ele>721.6</ele>
        <time>2017-08-04T10:39:00.000Z</time>
      </trkpt>
      <trkpt lat="43.33752041682601" lon="-6.405698172748089">
        <ele>721.6</ele>
        <time>2017-08-04T10:39:05.000Z</time>
      </trkpt>
      <trkpt lat="43.33751957863569" lon="-6.405699346214533">
        <ele>721.6</ele>
        <time>2017-08-04T10:39:06.000Z</time>
      </trkpt>
      <trkpt lat="43.337520249187946" lon="-6.405712170526385">
        <ele>721.6</ele>
        <time>2017-08-04T10:39:07.000Z</time>
      </trkpt>
      <trkpt lat="43.33751815371215" lon="-6.405733460560441">
        <ele>721.6</ele>
        <time>2017-08-04T10:39:11.000Z</time>
      </trkpt>
      <trkpt lat="43.337518237531185" lon="-6.405779728665948">
        <ele>721.6</ele>
        <time>2017-08-04T10:39:18.000Z</time>
      </trkpt>
      <trkpt lat="43.33751169964671" lon="-6.405877210199833">
        <ele>721.2</ele>
        <time>2017-08-04T10:39:24.000Z</time>
      </trkpt>
      <trkpt lat="43.337510442361236" lon="-6.405958347022533">
        <ele>720.8</ele>
        <time>2017-08-04T10:39:30.000Z</time>
      </trkpt>
      <trkpt lat="43.33751396276057" lon="-6.406070915982127">
        <ele>720.6</ele>
        <time>2017-08-04T10:39:37.000Z</time>
      </trkpt>
      <trkpt lat="43.33751471713185" lon="-6.406163200736046">
        <ele>720.6</ele>
        <time>2017-08-04T10:39:43.000Z</time>
      </trkpt>
      <trkpt lat="43.33750641904771" lon="-6.4062663819640875">
        <ele>720.2</ele>
        <time>2017-08-04T10:39:49.000Z</time>
      </trkpt>
      <trkpt lat="43.337495690211654" lon="-6.406400911509991">
        <ele>719.8</ele>
        <time>2017-08-04T10:39:57.000Z</time>
      </trkpt>
      <trkpt lat="43.33747238852084" lon="-6.406509289517999">
        <ele>719.4</ele>
        <time>2017-08-04T10:40:03.000Z</time>
      </trkpt>
      <trkpt lat="43.33744430914521" lon="-6.406644741073251">
        <ele>718.6</ele>
        <time>2017-08-04T10:40:11.000Z</time>
      </trkpt>
      <trkpt lat="43.337428299710155" lon="-6.406776336953044">
        <ele>718.2</ele>
        <time>2017-08-04T10:40:19.000Z</time>
      </trkpt>
      <trkpt lat="43.33741530776024" lon="-6.406881278380752">
        <ele>717.8</ele>
        <time>2017-08-04T10:40:25.000Z</time>
      </trkpt>
      <trkpt lat="43.337413212284446" lon="-6.406897455453873">
        <ele>717.8</ele>
        <time>2017-08-04T10:40:26.000Z</time>
      </trkpt>
      <trkpt lat="43.33739938214421" lon="-6.407018657773733">
        <ele>718</ele>
        <time>2017-08-04T10:40:33.000Z</time>
      </trkpt>
      <trkpt lat="43.33739862777293" lon="-6.407134495675564">
        <ele>718.8</ele>
        <time>2017-08-04T10:40:40.000Z</time>
      </trkpt>
      <trkpt lat="43.33738764747977" lon="-6.40726231969893">
        <ele>718.8</ele>
        <time>2017-08-04T10:40:47.000Z</time>
      </trkpt>
      <trkpt lat="43.33736836910248" lon="-6.407452085986733">
        <ele>718.2</ele>
        <time>2017-08-04T10:40:57.000Z</time>
      </trkpt>
      <trkpt lat="43.33734875544906" lon="-6.407564152032137">
        <ele>717.2</ele>
        <time>2017-08-04T10:41:03.000Z</time>
      </trkpt>
      <trkpt lat="43.33733567968011" lon="-6.407662387937307">
        <ele>716.4</ele>
        <time>2017-08-04T10:41:09.000Z</time>
      </trkpt>
      <trkpt lat="43.33733467385173" lon="-6.407677391543984">
        <ele>716.4</ele>
        <time>2017-08-04T10:41:10.000Z</time>
      </trkpt>
      <trkpt lat="43.337328638881445" lon="-6.407718043774366">
        <ele>716</ele>
        <time>2017-08-04T10:41:17.000Z</time>
      </trkpt>
      <trkpt lat="43.3373187482357" lon="-6.407786523923278">
        <ele>715.6</ele>
        <time>2017-08-04T10:41:23.000Z</time>
      </trkpt>
      <trkpt lat="43.337311120703816" lon="-6.407884676009417">
        <ele>715.4</ele>
        <time>2017-08-04T10:41:30.000Z</time>
      </trkpt>
      <trkpt lat="43.33729913458228" lon="-6.408012416213751">
        <ele>714.2</ele>
        <time>2017-08-04T10:41:38.000Z</time>
      </trkpt>
      <trkpt lat="43.33728010766208" lon="-6.408152310177684">
        <ele>713.6</ele>
        <time>2017-08-04T10:41:47.000Z</time>
      </trkpt>
      <trkpt lat="43.33726250566542" lon="-6.4082646276801825">
        <ele>713.2</ele>
        <time>2017-08-04T10:41:54.000Z</time>
      </trkpt>
      <trkpt lat="43.33724012598395" lon="-6.408421788364649">
        <ele>714.2</ele>
        <time>2017-08-04T10:42:03.000Z</time>
      </trkpt>
      <trkpt lat="43.33721891976893" lon="-6.408599568530917">
        <ele>715.4</ele>
        <time>2017-08-04T10:42:13.000Z</time>
      </trkpt>
      <trkpt lat="43.337188912555575" lon="-6.408726805821061">
        <ele>715.2</ele>
        <time>2017-08-04T10:42:20.000Z</time>
      </trkpt>
      <trkpt lat="43.33717013709247" lon="-6.408877093344927">
        <ele>714.8</ele>
        <time>2017-08-04T10:42:28.000Z</time>
      </trkpt>
      <trkpt lat="43.33714331500232" lon="-6.409005168825388">
        <ele>713.6</ele>
        <time>2017-08-04T10:42:36.000Z</time>
      </trkpt>
      <trkpt lat="43.3371392916888" lon="-6.409196862950921">
        <ele>712.2</ele>
        <time>2017-08-04T10:42:47.000Z</time>
      </trkpt>
      <trkpt lat="43.33715387620032" lon="-6.409346982836723">
        <ele>710.4</ele>
        <time>2017-08-04T10:42:56.000Z</time>
      </trkpt>
      <trkpt lat="43.33717432804406" lon="-6.409470364451408">
        <ele>709.8</ele>
        <time>2017-08-04T10:43:04.000Z</time>
      </trkpt>
      <trkpt lat="43.33718220703304" lon="-6.409560469910502">
        <ele>709.6</ele>
        <time>2017-08-04T10:43:10.000Z</time>
      </trkpt>
      <trkpt lat="43.33717600442469" lon="-6.409586453810334">
        <ele>709.4</ele>
        <time>2017-08-04T10:43:12.000Z</time>
      </trkpt>
      <trkpt lat="43.33719511516392" lon="-6.409650994464755">
        <ele>709.8</ele>
        <time>2017-08-04T10:43:16.000Z</time>
      </trkpt>
      <trkpt lat="43.33719243295491" lon="-6.409723330289125">
        <ele>709.8</ele>
        <time>2017-08-04T10:43:20.000Z</time>
      </trkpt>
      <trkpt lat="43.337195198982954" lon="-6.409744368866086">
        <ele>710</ele>
        <time>2017-08-04T10:43:21.000Z</time>
      </trkpt>
      <trkpt lat="43.33720022812486" lon="-6.409870432689786">
        <ele>710.6</ele>
        <time>2017-08-04T10:43:28.000Z</time>
      </trkpt>
      <trkpt lat="43.33720332942903" lon="-6.409993311390281">
        <ele>711.4</ele>
        <time>2017-08-04T10:43:35.000Z</time>
      </trkpt>
      <trkpt lat="43.33720978349447" lon="-6.410094313323498">
        <ele>712.4</ele>
        <time>2017-08-04T10:43:42.000Z</time>
      </trkpt>
      <trkpt lat="43.33720073103905" lon="-6.4101156033575535">
        <ele>712.2</ele>
        <time>2017-08-04T10:43:43.000Z</time>
      </trkpt>
      <trkpt lat="43.33719075657427" lon="-6.410174025222659">
        <ele>712</ele>
        <time>2017-08-04T10:43:47.000Z</time>
      </trkpt>
      <trkpt lat="43.3371860627085" lon="-6.410225825384259">
        <ele>712.2</ele>
        <time>2017-08-04T10:43:50.000Z</time>
      </trkpt>
      <trkpt lat="43.33717675879598" lon="-6.410269746556878">
        <ele>712</ele>
        <time>2017-08-04T10:43:53.000Z</time>
      </trkpt>
      <trkpt lat="43.337158318609" lon="-6.41033093445003">
        <ele>711.2</ele>
        <time>2017-08-04T10:43:58.000Z</time>
      </trkpt>
      <trkpt lat="43.337140968069434" lon="-6.410375609993935">
        <ele>710.4</ele>
        <time>2017-08-04T10:44:01.000Z</time>
      </trkpt>
      <trkpt lat="43.33712814375758" lon="-6.410414082929492">
        <ele>709.8</ele>
        <time>2017-08-04T10:44:03.000Z</time>
      </trkpt>
      <trkpt lat="43.33709243685007" lon="-6.410532854497433">
        <ele>708</ele>
        <time>2017-08-04T10:44:10.000Z</time>
      </trkpt>
      <trkpt lat="43.33703611046076" lon="-6.410631844773889">
        <ele>707.2</ele>
        <time>2017-08-04T10:44:18.000Z</time>
      </trkpt>
      <trkpt lat="43.33698238246143" lon="-6.410701749846339">
        <ele>706</ele>
        <time>2017-08-04T10:44:24.000Z</time>
      </trkpt>
      <trkpt lat="43.336894791573286" lon="-6.410814318805933">
        <ele>704</ele>
        <time>2017-08-04T10:44:32.000Z</time>
      </trkpt>
      <trkpt lat="43.33680560812354" lon="-6.4109213557094336">
        <ele>702.6</ele>
        <time>2017-08-04T10:44:40.000Z</time>
      </trkpt>
      <trkpt lat="43.33672195672989" lon="-6.411069380119443">
        <ele>702.4</ele>
        <time>2017-08-04T10:44:49.000Z</time>
      </trkpt>
      <trkpt lat="43.33666663616896" lon="-6.411237018182874">
        <ele>700.6</ele>
        <time>2017-08-04T10:44:59.000Z</time>
      </trkpt>
      <trkpt lat="43.33661508746445" lon="-6.411399208009243">
        <ele>698.6</ele>
        <time>2017-08-04T10:45:09.000Z</time>
      </trkpt>
      <trkpt lat="43.336584493517876" lon="-6.411580089479685">
        <ele>697.2</ele>
        <time>2017-08-04T10:45:19.000Z</time>
      </trkpt>
      <trkpt lat="43.33656613714993" lon="-6.4117381721735">
        <ele>697</ele>
        <time>2017-08-04T10:45:28.000Z</time>
      </trkpt>
      <trkpt lat="43.3365383092314" lon="-6.411946462467313">
        <ele>697.8</ele>
        <time>2017-08-04T10:45:40.000Z</time>
      </trkpt>
      <trkpt lat="43.336517941206694" lon="-6.4120932295918465">
        <ele>697.2</ele>
        <time>2017-08-04T10:45:49.000Z</time>
      </trkpt>
      <trkpt lat="43.336492627859116" lon="-6.412212252616882">
        <ele>696</ele>
        <time>2017-08-04T10:45:56.000Z</time>
      </trkpt>
      <trkpt lat="43.336468655616045" lon="-6.412344938144088">
        <ele>696</ele>
        <time>2017-08-04T10:46:03.000Z</time>
      </trkpt>
      <trkpt lat="43.336444180458784" lon="-6.4124999195337296">
        <ele>695</ele>
        <time>2017-08-04T10:46:12.000Z</time>
      </trkpt>
      <trkpt lat="43.33641802892089" lon="-6.412626150995493">
        <ele>694.4</ele>
        <time>2017-08-04T10:46:19.000Z</time>
      </trkpt>
      <trkpt lat="43.33634200505912" lon="-6.4127779472619295">
        <ele>692.2</ele>
        <time>2017-08-04T10:46:29.000Z</time>
      </trkpt>
      <trkpt lat="43.336272267624736" lon="-6.412921193987131">
        <ele>691.8</ele>
        <time>2017-08-04T10:46:38.000Z</time>
      </trkpt>
      <trkpt lat="43.33622449077666" lon="-6.413019429892302">
        <ele>691.6</ele>
        <time>2017-08-04T10:46:45.000Z</time>
      </trkpt>
      <trkpt lat="43.33617771975696" lon="-6.41314247623086">
        <ele>690.4</ele>
        <time>2017-08-04T10:46:53.000Z</time>
      </trkpt>
      <trkpt lat="43.336155507713556" lon="-6.41324263997376">
        <ele>690</ele>
        <time>2017-08-04T10:47:00.000Z</time>
      </trkpt>
      <trkpt lat="43.336135474964976" lon="-6.413320256397128">
        <ele>689.6</ele>
        <time>2017-08-04T10:47:06.000Z</time>
      </trkpt>
      <trkpt lat="43.3361326251179" lon="-6.4133313205093145">
        <ele>689.4</ele>
        <time>2017-08-04T10:47:07.000Z</time>
      </trkpt>
      <trkpt lat="43.336121728643775" lon="-6.413372391834855">
        <ele>689.2</ele>
        <time>2017-08-04T10:47:10.000Z</time>
      </trkpt>
      <trkpt lat="43.33610152825713" lon="-6.413414301350713">
        <ele>688.6</ele>
        <time>2017-08-04T10:47:13.000Z</time>
      </trkpt>
      <trkpt lat="43.336098762229085" lon="-6.413428382948041">
        <ele>688.6</ele>
        <time>2017-08-04T10:47:14.000Z</time>
      </trkpt>
      <trkpt lat="43.33608811721206" lon="-6.413444979116321">
        <ele>688.2</ele>
        <time>2017-08-04T10:47:15.000Z</time>
      </trkpt>
      <trkpt lat="43.33605291321874" lon="-6.413496946915984">
        <ele>687.2</ele>
        <time>2017-08-04T10:47:19.000Z</time>
      </trkpt>
      <trkpt lat="43.33603992126882" lon="-6.413527959957719">
        <ele>687</ele>
        <time>2017-08-04T10:47:21.000Z</time>
      </trkpt>
      <trkpt lat="43.33602977916598" lon="-6.413573389872909">
        <ele>686.8</ele>
        <time>2017-08-04T10:47:24.000Z</time>
      </trkpt>
      <trkpt lat="43.33603011444211" lon="-6.413604402914643">
        <ele>687</ele>
        <time>2017-08-04T10:47:26.000Z</time>
      </trkpt>
      <trkpt lat="43.336014272645116" lon="-6.413676319643855">
        <ele>687.4</ele>
        <time>2017-08-04T10:47:30.000Z</time>
      </trkpt>
      <trkpt lat="43.33598921075463" lon="-6.413736250251532">
        <ele>687.2</ele>
        <time>2017-08-04T10:47:34.000Z</time>
      </trkpt>
      <trkpt lat="43.3359701000154" lon="-6.413800874724984">
        <ele>687.2</ele>
        <time>2017-08-04T10:47:38.000Z</time>
      </trkpt>
      <trkpt lat="43.33592022769153" lon="-6.413876730948687">
        <ele>686.4</ele>
        <time>2017-08-04T10:47:43.000Z</time>
      </trkpt>
      <trkpt lat="43.335915030911565" lon="-6.4138915669173">
        <ele>686.2</ele>
        <time>2017-08-04T10:47:44.000Z</time>
      </trkpt>
      <trkpt lat="43.335869600996375" lon="-6.414007907733321">
        <ele>685</ele>
        <time>2017-08-04T10:47:51.000Z</time>
      </trkpt>
      <trkpt lat="43.335819728672504" lon="-6.414166325703263">
        <ele>683.8</ele>
        <time>2017-08-04T10:48:00.000Z</time>
      </trkpt>
      <trkpt lat="43.335810927674174" lon="-6.4142136834561825">
        <ele>683.8</ele>
        <time>2017-08-04T10:48:03.000Z</time>
      </trkpt>
      <trkpt lat="43.335798773914576" lon="-6.414282917976379">
        <ele>683.8</ele>
        <time>2017-08-04T10:48:07.000Z</time>
      </trkpt>
      <trkpt lat="43.33575585857034" lon="-6.414452902972698">
        <ele>683.4</ele>
        <time>2017-08-04T10:48:17.000Z</time>
      </trkpt>
      <trkpt lat="43.33573456853628" lon="-6.4145170245319605">
        <ele>682.8</ele>
        <time>2017-08-04T10:48:21.000Z</time>
      </trkpt>
      <trkpt lat="43.3357250969857" lon="-6.414575362578034">
        <ele>682.6</ele>
        <time>2017-08-04T10:48:25.000Z</time>
      </trkpt>
      <trkpt lat="43.33571579307318" lon="-6.414605537429452">
        <ele>682.2</ele>
        <time>2017-08-04T10:48:27.000Z</time>
      </trkpt>
      <trkpt lat="43.33567589521408" lon="-6.414706539362669">
        <ele>681.4</ele>
        <time>2017-08-04T10:48:34.000Z</time>
      </trkpt>
      <trkpt lat="43.33560096099973" lon="-6.414849115535617">
        <ele>680.4</ele>
        <time>2017-08-04T10:48:45.000Z</time>
      </trkpt>
      <trkpt lat="43.33554916083813" lon="-6.414910135790706">
        <ele>679.6</ele>
        <time>2017-08-04T10:48:52.000Z</time>
      </trkpt>
      <trkpt lat="43.33554429933429" lon="-6.414922457188368">
        <ele>679.4</ele>
        <time>2017-08-04T10:48:53.000Z</time>
      </trkpt>
      <trkpt lat="43.335486548021436" lon="-6.415016753599048">
        <ele>678.4</ele>
        <time>2017-08-04T10:49:00.000Z</time>
      </trkpt>
      <trkpt lat="43.33546249195933" lon="-6.415036115795374">
        <ele>678.2</ele>
        <time>2017-08-04T10:49:02.000Z</time>
      </trkpt>
      <trkpt lat="43.33537682890892" lon="-6.415126724168658">
        <ele>676.8</ele>
        <time>2017-08-04T10:49:10.000Z</time>
      </trkpt>
      <trkpt lat="43.33530440926552" lon="-6.415193025022745">
        <ele>676</ele>
        <time>2017-08-04T10:49:19.000Z</time>
      </trkpt>
      <trkpt lat="43.33523861132562" lon="-6.41519813798368">
        <ele>675.2</ele>
        <time>2017-08-04T10:49:40.000Z</time>
      </trkpt>
      <trkpt lat="43.33514180034399" lon="-6.4152388740330935">
        <ele>674.4</ele>
        <time>2017-08-04T10:49:48.000Z</time>
      </trkpt>
      <trkpt lat="43.33506493829191" lon="-6.415294781327248">
        <ele>673.6</ele>
        <time>2017-08-04T10:49:55.000Z</time>
      </trkpt>
      <trkpt lat="43.335042810067534" lon="-6.415312299504876">
        <ele>673.2</ele>
        <time>2017-08-04T10:49:57.000Z</time>
      </trkpt>
      <trkpt lat="43.33494960330427" lon="-6.415386060252786">
        <ele>672</ele>
        <time>2017-08-04T10:50:06.000Z</time>
      </trkpt>
      <trkpt lat="43.33489595912397" lon="-6.4154371060431">
        <ele>671.2</ele>
        <time>2017-08-04T10:50:12.000Z</time>
      </trkpt>
      <trkpt lat="43.33480325527489" lon="-6.415550177916884">
        <ele>669.8</ele>
        <time>2017-08-04T10:50:21.000Z</time>
      </trkpt>
      <trkpt lat="43.334751119837165" lon="-6.415611784905195">
        <ele>668.6</ele>
        <time>2017-08-04T10:50:25.000Z</time>
      </trkpt>
      <trkpt lat="43.33474609069526" lon="-6.415620921179652">
        <ele>668.6</ele>
        <time>2017-08-04T10:50:26.000Z</time>
      </trkpt>
      <trkpt lat="43.33473586477339" lon="-6.415637014433742">
        <ele>668.2</ele>
        <time>2017-08-04T10:50:27.000Z</time>
      </trkpt>
      <trkpt lat="43.334694961085916" lon="-6.415692083537579">
        <ele>667.4</ele>
        <time>2017-08-04T10:50:32.000Z</time>
      </trkpt>
      <trkpt lat="43.33468993194401" lon="-6.4156965259462595">
        <ele>667.4</ele>
        <time>2017-08-04T10:50:33.000Z</time>
      </trkpt>
      <trkpt lat="43.33468448370695" lon="-6.415712451562285">
        <ele>667.2</ele>
        <time>2017-08-04T10:50:37.000Z</time>
      </trkpt>
      <trkpt lat="43.33464450202882" lon="-6.415776908397675">
        <ele>665.8</ele>
        <time>2017-08-04T10:50:44.000Z</time>
      </trkpt>
      <trkpt lat="43.33462497219443" lon="-6.415846478193998">
        <ele>665.2</ele>
        <time>2017-08-04T10:50:50.000Z</time>
      </trkpt>
      <trkpt lat="43.334602089598775" lon="-6.415863074362278">
        <ele>664.8</ele>
        <time>2017-08-04T10:50:54.000Z</time>
      </trkpt>
      <trkpt lat="43.33459504880011" lon="-6.415873887017369">
        <ele>664.6</ele>
        <time>2017-08-04T10:50:55.000Z</time>
      </trkpt>
      <trkpt lat="43.3345643710345" lon="-6.415913701057434">
        <ele>664</ele>
        <time>2017-08-04T10:50:59.000Z</time>
      </trkpt>
      <trkpt lat="43.33451977930963" lon="-6.41597019508481">
        <ele>663.2</ele>
        <time>2017-08-04T10:51:05.000Z</time>
      </trkpt>
      <trkpt lat="43.33447418175638" lon="-6.41603859141469">
        <ele>662</ele>
        <time>2017-08-04T10:51:12.000Z</time>
      </trkpt>
      <trkpt lat="43.33446504548192" lon="-6.416039764881134">
        <ele>662</ele>
        <time>2017-08-04T10:51:13.000Z</time>
      </trkpt>
      <trkpt lat="43.3344507124275" lon="-6.416051583364606">
        <ele>661.8</ele>
        <time>2017-08-04T10:51:15.000Z</time>
      </trkpt>
      <trkpt lat="43.334437385201454" lon="-6.416075471788645">
        <ele>661.4</ele>
        <time>2017-08-04T10:51:17.000Z</time>
      </trkpt>
      <trkpt lat="43.33443218842149" lon="-6.4160876255482435">
        <ele>661.2</ele>
        <time>2017-08-04T10:51:18.000Z</time>
      </trkpt>
      <trkpt lat="43.33440796472132" lon="-6.416149148717523">
        <ele>660.2</ele>
        <time>2017-08-04T10:51:22.000Z</time>
      </trkpt>
      <trkpt lat="43.334395894780755" lon="-6.416189884766936">
        <ele>659.6</ele>
        <time>2017-08-04T10:51:25.000Z</time>
      </trkpt>
      <trkpt lat="43.33438600413501" lon="-6.416205391287804">
        <ele>659.2</ele>
        <time>2017-08-04T10:51:26.000Z</time>
      </trkpt>
      <trkpt lat="43.33434082567692" lon="-6.416262304410338">
        <ele>658</ele>
        <time>2017-08-04T10:51:31.000Z</time>
      </trkpt>
      <trkpt lat="43.3343365509063" lon="-6.416272111237049">
        <ele>658</ele>
        <time>2017-08-04T10:51:32.000Z</time>
      </trkpt>
      <trkpt lat="43.3343365509063" lon="-6.416272111237049">
        <ele>658</ele>
        <time>2017-08-04T10:51:32.000Z</time>
      </trkpt>
      <trkpt lat="43.334286427125335" lon="-6.416343441233039">
        <ele>656.6</ele>
        <time>2017-08-04T10:51:38.000Z</time>
      </trkpt>
      <trkpt lat="43.33428282290697" lon="-6.416356852278113">
        <ele>656.2</ele>
        <time>2017-08-04T10:51:39.000Z</time>
      </trkpt>
      <trkpt lat="43.33427938632667" lon="-6.416366910561919">
        <ele>656.2</ele>
        <time>2017-08-04T10:51:42.000Z</time>
      </trkpt>
      <trkpt lat="43.334227334707975" lon="-6.416380740702152">
        <ele>655.6</ele>
        <time>2017-08-04T10:51:49.000Z</time>
      </trkpt>
      <trkpt lat="43.334211660549045" lon="-6.416394151747227">
        <ele>655.4</ele>
        <time>2017-08-04T10:51:50.000Z</time>
      </trkpt>
      <trkpt lat="43.33415248431265" lon="-6.416475540027022">
        <ele>654.4</ele>
        <time>2017-08-04T10:51:54.000Z</time>
      </trkpt>
      <trkpt lat="43.33405123092234" lon="-6.416579224169254">
        <ele>653</ele>
        <time>2017-08-04T10:52:00.000Z</time>
      </trkpt>
      <trkpt lat="43.33402189426124" lon="-6.416600095108151">
        <ele>652.6</ele>
        <time>2017-08-04T10:52:02.000Z</time>
      </trkpt>
      <trkpt lat="43.33396674133837" lon="-6.416607555001974">
        <ele>652.2</ele>
        <time>2017-08-04T10:52:07.000Z</time>
      </trkpt>
      <trkpt lat="43.333932710811496" lon="-6.416630940511823">
        <ele>651.8</ele>
        <time>2017-08-04T10:52:15.000Z</time>
      </trkpt>
      <trkpt lat="43.333871103823185" lon="-6.416677460074425">
        <ele>651.2</ele>
        <time>2017-08-04T10:52:22.000Z</time>
      </trkpt>
      <trkpt lat="43.33377496339381" lon="-6.416706210002303">
        <ele>650.2</ele>
        <time>2017-08-04T10:52:32.000Z</time>
      </trkpt>
      <trkpt lat="43.333744620904326" lon="-6.416734037920833">
        <ele>650</ele>
        <time>2017-08-04T10:52:36.000Z</time>
      </trkpt>
      <trkpt lat="43.3337426930666" lon="-6.416750382632017">
        <ele>650</ele>
        <time>2017-08-04T10:52:39.000Z</time>
      </trkpt>
      <trkpt lat="43.333767000585794" lon="-6.416698666289449">
        <ele>650.2</ele>
        <time>2017-08-04T10:53:00.000Z</time>
      </trkpt>
      <trkpt lat="43.33378594368696" lon="-6.41673831269145">
        <ele>650.4</ele>
        <time>2017-08-04T10:53:03.000Z</time>
      </trkpt>
      <trkpt lat="43.335736664012074" lon="-6.415703231468797">
        <ele>664.4</ele>
        <time>2017-08-05T04:18:22.000Z</time>
      </trkpt>
      <trkpt lat="43.33573976531625" lon="-6.415681354701519">
        <ele>665</ele>
        <time>2017-08-05T04:18:23.000Z</time>
      </trkpt>
      <trkpt lat="43.335749404504895" lon="-6.415656376630068">
        <ele>665.4</ele>
        <time>2017-08-05T04:18:26.000Z</time>
      </trkpt>
      <trkpt lat="43.33575242199004" lon="-6.415641540661454">
        <ele>665.8</ele>
        <time>2017-08-05T04:18:27.000Z</time>
      </trkpt>
      <trkpt lat="43.335777316242456" lon="-6.4155858010053635">
        <ele>666.8</ele>
        <time>2017-08-05T04:18:32.000Z</time>
      </trkpt>
      <trkpt lat="43.33578150719404" lon="-6.415574988350272">
        <ele>667</ele>
        <time>2017-08-05T04:18:33.000Z</time>
      </trkpt>
      <trkpt lat="43.33579399622977" lon="-6.415534419938922">
        <ele>668</ele>
        <time>2017-08-05T04:18:37.000Z</time>
      </trkpt>
      <trkpt lat="43.33582819439471" lon="-6.4154906664043665">
        <ele>668.6</ele>
        <time>2017-08-05T04:18:43.000Z</time>
      </trkpt>
      <trkpt lat="43.33582928404212" lon="-6.415441632270813">
        <ele>669.6</ele>
        <time>2017-08-05T04:18:49.000Z</time>
      </trkpt>
      <trkpt lat="43.335808077827096" lon="-6.415423443540931">
        <ele>670.2</ele>
        <time>2017-08-05T04:18:52.000Z</time>
      </trkpt>
      <trkpt lat="43.33579642698169" lon="-6.415418162941933">
        <ele>670.4</ele>
        <time>2017-08-05T04:18:55.000Z</time>
      </trkpt>
      <trkpt lat="43.33581562153995" lon="-6.415427215397358">
        <ele>670</ele>
        <time>2017-08-05T04:18:58.000Z</time>
      </trkpt>
      <trkpt lat="43.33582618273795" lon="-6.415428053587675">
        <ele>670</ele>
        <time>2017-08-05T04:19:11.000Z</time>
      </trkpt>
      <trkpt lat="43.33585526794195" lon="-6.415437860414386">
        <ele>669.6</ele>
        <time>2017-08-05T04:19:16.000Z</time>
      </trkpt>
      <trkpt lat="43.33591025322676" lon="-6.415402991697192">
        <ele>670</ele>
        <time>2017-08-05T04:19:22.000Z</time>
      </trkpt>
      <trkpt lat="43.336009411141276" lon="-6.415341468527913">
        <ele>670.6</ele>
        <time>2017-08-05T04:19:31.000Z</time>
      </trkpt>
      <trkpt lat="43.336079148575664" lon="-6.4152968768030405">
        <ele>671</ele>
        <time>2017-08-05T04:19:38.000Z</time>
      </trkpt>
      <trkpt lat="43.336168080568314" lon="-6.415265193209052">
        <ele>671</ele>
        <time>2017-08-05T04:19:46.000Z</time>
      </trkpt>
      <trkpt lat="43.336284924298525" lon="-6.4152350183576345">
        <ele>671</ele>
        <time>2017-08-05T04:19:56.000Z</time>
      </trkpt>
      <trkpt lat="43.33632247522473" lon="-6.415225127711892">
        <ele>670.8</ele>
        <time>2017-08-05T04:19:59.000Z</time>
      </trkpt>
      <trkpt lat="43.33639598451555" lon="-6.41522504389286">
        <ele>670.8</ele>
        <time>2017-08-05T04:20:04.000Z</time>
      </trkpt>
      <trkpt lat="43.336412999778986" lon="-6.415223870426416">
        <ele>670.8</ele>
        <time>2017-08-05T04:20:05.000Z</time>
      </trkpt>
      <trkpt lat="43.33645700477064" lon="-6.415205765515566">
        <ele>671.2</ele>
        <time>2017-08-05T04:20:10.000Z</time>
      </trkpt>
      <trkpt lat="43.33654652349651" lon="-6.415203670039773">
        <ele>671.6</ele>
        <time>2017-08-05T04:20:17.000Z</time>
      </trkpt>
      <trkpt lat="43.33663227036595" lon="-6.415207106620073">
        <ele>671.8</ele>
        <time>2017-08-05T04:20:25.000Z</time>
      </trkpt>
      <trkpt lat="43.33667954429984" lon="-6.415202161297202">
        <ele>672.2</ele>
        <time>2017-08-05T04:20:29.000Z</time>
      </trkpt>
      <trkpt lat="43.336706114932895" lon="-6.415203334763646">
        <ele>672</ele>
        <time>2017-08-05T04:20:31.000Z</time>
      </trkpt>
      <trkpt lat="43.336765710264444" lon="-6.415206016972661">
        <ele>672</ele>
        <time>2017-08-05T04:20:35.000Z</time>
      </trkpt>
      <trkpt lat="43.33680669777095" lon="-6.415206519886851">
        <ele>672</ele>
        <time>2017-08-05T04:20:38.000Z</time>
      </trkpt>
      <trkpt lat="43.33683343604207" lon="-6.415201406925917">
        <ele>672.2</ele>
        <time>2017-08-05T04:20:40.000Z</time>
      </trkpt>
      <trkpt lat="43.33689680323005" lon="-6.415193025022745">
        <ele>672.4</ele>
        <time>2017-08-05T04:20:45.000Z</time>
      </trkpt>
      <trkpt lat="43.336975844576955" lon="-6.415198724716902">
        <ele>673.2</ele>
        <time>2017-08-05T04:20:51.000Z</time>
      </trkpt>
      <trkpt lat="43.33699109964073" lon="-6.415197215974331">
        <ele>673.4</ele>
        <time>2017-08-05T04:20:52.000Z</time>
      </trkpt>
      <trkpt lat="43.337054466828704" lon="-6.415189756080508">
        <ele>674.4</ele>
        <time>2017-08-05T04:20:57.000Z</time>
      </trkpt>
      <trkpt lat="43.33706829696894" lon="-6.415190426632762">
        <ele>674.4</ele>
        <time>2017-08-05T04:20:58.000Z</time>
      </trkpt>
      <trkpt lat="43.33707575686276" lon="-6.415176596492529">
        <ele>674.8</ele>
        <time>2017-08-05T04:20:59.000Z</time>
      </trkpt>
      <trkpt lat="43.33709914237261" lon="-6.415154971182346">
        <ele>675.6</ele>
        <time>2017-08-05T04:21:03.000Z</time>
      </trkpt>
      <trkpt lat="43.33718899637461" lon="-6.415128903463483">
        <ele>677.4</ele>
        <time>2017-08-05T04:21:11.000Z</time>
      </trkpt>
      <trkpt lat="43.33727021701634" lon="-6.415098058059812">
        <ele>680</ele>
        <time>2017-08-05T04:21:18.000Z</time>
      </trkpt>
      <trkpt lat="43.33734850399196" lon="-6.4150559809058905">
        <ele>682.6</ele>
        <time>2017-08-05T04:21:25.000Z</time>
      </trkpt>
      <trkpt lat="43.33741924725473" lon="-6.414997223764658">
        <ele>685.8</ele>
        <time>2017-08-05T04:21:32.000Z</time>
      </trkpt>
      <trkpt lat="43.33750583231449" lon="-6.414966462180018">
        <ele>687.2</ele>
        <time>2017-08-05T04:21:39.000Z</time>
      </trkpt>
      <trkpt lat="43.337516728788614" lon="-6.41496604308486">
        <ele>687.2</ele>
        <time>2017-08-05T04:21:40.000Z</time>
      </trkpt>
      <trkpt lat="43.3375608175993" lon="-6.414950201287866">
        <ele>687.6</ele>
        <time>2017-08-05T04:21:44.000Z</time>
      </trkpt>
      <trkpt lat="43.33757070824504" lon="-6.41494357958436">
        <ele>687.8</ele>
        <time>2017-08-05T04:21:45.000Z</time>
      </trkpt>
      <trkpt lat="43.337654611095786" lon="-6.414917930960655">
        <ele>688.2</ele>
        <time>2017-08-05T04:21:53.000Z</time>
      </trkpt>
      <trkpt lat="43.33769484423101" lon="-6.414901753887534">
        <ele>688.6</ele>
        <time>2017-08-05T04:21:59.000Z</time>
      </trkpt>
      <trkpt lat="43.33769962191582" lon="-6.414901837706566">
        <ele>688.6</ele>
        <time>2017-08-05T04:22:00.000Z</time>
      </trkpt>
      <trkpt lat="43.33773884922266" lon="-6.414906028658152">
        <ele>688.6</ele>
        <time>2017-08-05T04:22:06.000Z</time>
      </trkpt>
      <trkpt lat="43.33777111954987" lon="-6.414923127740622">
        <ele>688.8</ele>
        <time>2017-08-05T04:22:13.000Z</time>
      </trkpt>
      <trkpt lat="43.33779257722199" lon="-6.414932766929269">
        <ele>688.8</ele>
        <time>2017-08-05T04:22:15.000Z</time>
      </trkpt>
      <trkpt lat="43.33781353197992" lon="-6.414937628433108">
        <ele>688.8</ele>
        <time>2017-08-05T04:22:17.000Z</time>
      </trkpt>
      <trkpt lat="43.337875893339515" lon="-6.414965875446796">
        <ele>688.8</ele>
        <time>2017-08-05T04:22:23.000Z</time>
      </trkpt>
      <trkpt lat="43.33793439902365" lon="-6.4150135684758425">
        <ele>688.2</ele>
        <time>2017-08-05T04:22:29.000Z</time>
      </trkpt>
      <trkpt lat="43.33795225247741" lon="-6.415026979520917">
        <ele>688</ele>
        <time>2017-08-05T04:22:31.000Z</time>
      </trkpt>
      <trkpt lat="43.33798846229911" lon="-6.415063105523586">
        <ele>687.8</ele>
        <time>2017-08-05T04:22:35.000Z</time>
      </trkpt>
      <trkpt lat="43.338065072894096" lon="-6.415124628692865">
        <ele>688.4</ele>
        <time>2017-08-05T04:22:43.000Z</time>
      </trkpt>
      <trkpt lat="43.338135816156864" lon="-6.415198976173997">
        <ele>688.6</ele>
        <time>2017-08-05T04:22:51.000Z</time>
      </trkpt>
      <trkpt lat="43.33821770735085" lon="-6.41528807580471">
        <ele>688.4</ele>
        <time>2017-08-05T04:22:59.000Z</time>
      </trkpt>
      <trkpt lat="43.338343519717455" lon="-6.415377426892519">
        <ele>689.8</ele>
        <time>2017-08-05T04:23:09.000Z</time>
      </trkpt>
      <trkpt lat="43.33846061490476" lon="-6.415410451591015">
        <ele>691.8</ele>
        <time>2017-08-05T04:23:18.000Z</time>
      </trkpt>
      <trkpt lat="43.338560024276376" lon="-6.415425706654787">
        <ele>693.6</ele>
        <time>2017-08-05T04:23:26.000Z</time>
      </trkpt>
      <trkpt lat="43.33860780112445" lon="-6.4154344238340855">
        <ele>694.2</ele>
        <time>2017-08-05T04:23:32.000Z</time>
      </trkpt>
      <trkpt lat="43.33870243281126" lon="-6.415454791858792">
        <ele>695.6</ele>
        <time>2017-08-05T04:23:39.000Z</time>
      </trkpt>
      <trkpt lat="43.338763285428286" lon="-6.415501814335585">
        <ele>696</ele>
        <time>2017-08-05T04:23:44.000Z</time>
      </trkpt>
      <trkpt lat="43.33877669647336" lon="-6.415517907589674">
        <ele>695.8</ele>
        <time>2017-08-05T04:23:46.000Z</time>
      </trkpt>
      <trkpt lat="43.33879974670708" lon="-6.415591752156615">
        <ele>695</ele>
        <time>2017-08-05T04:23:51.000Z</time>
      </trkpt>
      <trkpt lat="43.33880117163062" lon="-6.415620585903525">
        <ele>694.6</ele>
        <time>2017-08-05T04:23:53.000Z</time>
      </trkpt>
      <trkpt lat="43.33880611695349" lon="-6.415713038295507">
        <ele>693.8</ele>
        <time>2017-08-05T04:23:59.000Z</time>
      </trkpt>
      <trkpt lat="43.33881667815149" lon="-6.415831977501512">
        <ele>692.8</ele>
        <time>2017-08-05T04:24:07.000Z</time>
      </trkpt>
      <trkpt lat="43.338815588504076" lon="-6.415938511490822">
        <ele>691.6</ele>
        <time>2017-08-05T04:24:14.000Z</time>
      </trkpt>
      <trkpt lat="43.3388212043792" lon="-6.416080249473453">
        <ele>690.4</ele>
        <time>2017-08-05T04:24:22.000Z</time>
      </trkpt>
      <trkpt lat="43.338835537433624" lon="-6.416207402944565">
        <ele>691</ele>
        <time>2017-08-05T04:24:30.000Z</time>
      </trkpt>
      <trkpt lat="43.33886361680925" lon="-6.416330365464091">
        <ele>692.8</ele>
        <time>2017-08-05T04:24:38.000Z</time>
      </trkpt>
      <trkpt lat="43.33890510722995" lon="-6.416477635502815">
        <ele>693.6</ele>
        <time>2017-08-05T04:24:47.000Z</time>
      </trkpt>
      <trkpt lat="43.33895405754447" lon="-6.416605124250054">
        <ele>694.8</ele>
        <time>2017-08-05T04:24:55.000Z</time>
      </trkpt>
      <trkpt lat="43.33901331759989" lon="-6.416713250800967">
        <ele>697</ele>
        <time>2017-08-05T04:25:03.000Z</time>
      </trkpt>
      <trkpt lat="43.339081797748804" lon="-6.416840571910143">
        <ele>698.4</ele>
        <time>2017-08-05T04:25:12.000Z</time>
      </trkpt>
      <trkpt lat="43.339147260412574" lon="-6.4169740956276655">
        <ele>699.2</ele>
        <time>2017-08-05T04:25:21.000Z</time>
      </trkpt>
      <trkpt lat="43.33917550742626" lon="-6.41715170815587">
        <ele>698</ele>
        <time>2017-08-05T04:25:31.000Z</time>
      </trkpt>
      <trkpt lat="43.339197132736444" lon="-6.417289925739169">
        <ele>697.8</ele>
        <time>2017-08-05T04:25:39.000Z</time>
      </trkpt>
      <trkpt lat="43.3392287325114" lon="-6.4174414705485106">
        <ele>698.2</ele>
        <time>2017-08-05T04:25:48.000Z</time>
      </trkpt>
      <trkpt lat="43.339273324236274" lon="-6.417587650939822">
        <ele>699.6</ele>
        <time>2017-08-05T04:25:57.000Z</time>
      </trkpt>
      <trkpt lat="43.339319843798876" lon="-6.417722683399916">
        <ele>699.8</ele>
        <time>2017-08-05T04:26:06.000Z</time>
      </trkpt>
      <trkpt lat="43.339354461058974" lon="-6.417865343391895">
        <ele>700</ele>
        <time>2017-08-05T04:26:15.000Z</time>
      </trkpt>
      <trkpt lat="43.33940374664962" lon="-6.418018648400903">
        <ele>702.2</ele>
        <time>2017-08-05T04:26:25.000Z</time>
      </trkpt>
      <trkpt lat="43.339442387223244" lon="-6.4181592129170895">
        <ele>702.4</ele>
        <time>2017-08-05T04:26:34.000Z</time>
      </trkpt>
      <trkpt lat="43.33947038277984" lon="-6.418285947293043">
        <ele>702.4</ele>
        <time>2017-08-05T04:26:42.000Z</time>
      </trkpt>
      <trkpt lat="43.3395138848573" lon="-6.418439336121082">
        <ele>703</ele>
        <time>2017-08-05T04:26:52.000Z</time>
      </trkpt>
      <trkpt lat="43.33955688402057" lon="-6.418606387451291">
        <ele>703.2</ele>
        <time>2017-08-05T04:27:01.000Z</time>
      </trkpt>
      <trkpt lat="43.339594937860966" lon="-6.418765392154455">
        <ele>702.8</ele>
        <time>2017-08-05T04:27:10.000Z</time>
      </trkpt>
      <trkpt lat="43.33962544798851" lon="-6.418946776539087">
        <ele>701.8</ele>
        <time>2017-08-05T04:27:20.000Z</time>
      </trkpt>
      <trkpt lat="43.33965193480253" lon="-6.41910083591938">
        <ele>701.4</ele>
        <time>2017-08-05T04:27:29.000Z</time>
      </trkpt>
      <trkpt lat="43.33964640274644" lon="-6.419165041297674">
        <ele>701.2</ele>
        <time>2017-08-05T04:27:33.000Z</time>
      </trkpt>
      <trkpt lat="43.33964271470904" lon="-6.419218350201845">
        <ele>701.2</ele>
        <time>2017-08-05T04:27:36.000Z</time>
      </trkpt>
      <trkpt lat="43.339623687788844" lon="-6.419302420690656">
        <ele>700.6</ele>
        <time>2017-08-05T04:27:42.000Z</time>
      </trkpt>
      <trkpt lat="43.33958437666297" lon="-6.419373415410519">
        <ele>699.6</ele>
        <time>2017-08-05T04:27:48.000Z</time>
      </trkpt>
      <trkpt lat="43.33958622068167" lon="-6.419382467865944">
        <ele>699.6</ele>
        <time>2017-08-05T04:27:49.000Z</time>
      </trkpt>
      <trkpt lat="43.339564595371485" lon="-6.419437034055591">
        <ele>699.4</ele>
        <time>2017-08-05T04:27:52.000Z</time>
      </trkpt>
      <trkpt lat="43.339552944526076" lon="-6.419513812288642">
        <ele>699.8</ele>
        <time>2017-08-05T04:27:57.000Z</time>
      </trkpt>
      <trkpt lat="43.339555878192186" lon="-6.419652029871941">
        <ele>702.2</ele>
        <time>2017-08-05T04:28:05.000Z</time>
      </trkpt>
      <trkpt lat="43.33956249989569" lon="-6.419776836410165">
        <ele>704</ele>
        <time>2017-08-05T04:28:12.000Z</time>
      </trkpt>
      <trkpt lat="43.33957473747432" lon="-6.419892758131027">
        <ele>705.4</ele>
        <time>2017-08-05T04:28:19.000Z</time>
      </trkpt>
      <trkpt lat="43.33957565948367" lon="-6.419907510280609">
        <ele>705.6</ele>
        <time>2017-08-05T04:28:20.000Z</time>
      </trkpt>
      <trkpt lat="43.339587561786175" lon="-6.420020749792457">
        <ele>706.4</ele>
        <time>2017-08-05T04:28:27.000Z</time>
      </trkpt>
      <trkpt lat="43.339603655040264" lon="-6.4201215002685785">
        <ele>706.6</ele>
        <time>2017-08-05T04:28:34.000Z</time>
      </trkpt>
      <trkpt lat="43.33960524760187" lon="-6.420218562707305">
        <ele>706.4</ele>
        <time>2017-08-05T04:28:40.000Z</time>
      </trkpt>
      <trkpt lat="43.339621843770146" lon="-6.4203468058258295">
        <ele>706</ele>
        <time>2017-08-05T04:28:48.000Z</time>
      </trkpt>
      <trkpt lat="43.33962980657816" lon="-6.420486280694604">
        <ele>706.2</ele>
        <time>2017-08-05T04:28:56.000Z</time>
      </trkpt>
      <trkpt lat="43.33963952958584" lon="-6.420654840767384">
        <ele>706.4</ele>
        <time>2017-08-05T04:29:05.000Z</time>
      </trkpt>
      <trkpt lat="43.33965285681188" lon="-6.420816024765372">
        <ele>706.8</ele>
        <time>2017-08-05T04:29:14.000Z</time>
      </trkpt>
      <trkpt lat="43.339670710265636" lon="-6.420973856002092">
        <ele>706.6</ele>
        <time>2017-08-05T04:29:23.000Z</time>
      </trkpt>
      <trkpt lat="43.339700885117054" lon="-6.4211072120815516">
        <ele>706.6</ele>
        <time>2017-08-05T04:29:31.000Z</time>
      </trkpt>
      <trkpt lat="43.33973726257682" lon="-6.421228749677539">
        <ele>705.8</ele>
        <time>2017-08-05T04:29:38.000Z</time>
      </trkpt>
      <trkpt lat="43.33977120928466" lon="-6.421337798237801">
        <ele>705.6</ele>
        <time>2017-08-05T04:29:45.000Z</time>
      </trkpt>
      <trkpt lat="43.339801551774144" lon="-6.421411391347647">
        <ele>706.4</ele>
        <time>2017-08-05T04:29:51.000Z</time>
      </trkpt>
      <trkpt lat="43.33979903720319" lon="-6.421424383297563">
        <ele>706.2</ele>
        <time>2017-08-05T04:29:52.000Z</time>
      </trkpt>
      <trkpt lat="43.33981890231371" lon="-6.421490348875523">
        <ele>706.8</ele>
        <time>2017-08-05T04:29:56.000Z</time>
      </trkpt>
      <trkpt lat="43.339822171255946" lon="-6.421501161530614">
        <ele>706.8</ele>
        <time>2017-08-05T04:29:57.000Z</time>
      </trkpt>
      <trkpt lat="43.3398471493274" lon="-6.421584729105234">
        <ele>707</ele>
        <time>2017-08-05T04:30:03.000Z</time>
      </trkpt>
      <trkpt lat="43.33987204357982" lon="-6.4216844737529755">
        <ele>707</ele>
        <time>2017-08-05T04:30:09.000Z</time>
      </trkpt>
      <trkpt lat="43.33989702165127" lon="-6.421744069084525">
        <ele>707.6</ele>
        <time>2017-08-05T04:30:12.000Z</time>
      </trkpt>
      <trkpt lat="43.33992778323591" lon="-6.421829899773002">
        <ele>708.4</ele>
        <time>2017-08-05T04:30:17.000Z</time>
      </trkpt>
      <trkpt lat="43.339977990835905" lon="-6.421936936676502">
        <ele>709.4</ele>
        <time>2017-08-05T04:30:24.000Z</time>
      </trkpt>
      <trkpt lat="43.340021912008524" lon="-6.422010026872158">
        <ele>709.6</ele>
        <time>2017-08-05T04:30:29.000Z</time>
      </trkpt>
      <trkpt lat="43.340080669149756" lon="-6.422095522284508">
        <ele>710</ele>
        <time>2017-08-05T04:30:36.000Z</time>
      </trkpt>
      <trkpt lat="43.34009936079383" lon="-6.4221132081002">
        <ele>710.2</ele>
        <time>2017-08-05T04:30:41.000Z</time>
      </trkpt>
      <trkpt lat="43.340093828737736" lon="-6.422125697135925">
        <ele>709.8</ele>
        <time>2017-08-05T04:30:47.000Z</time>
      </trkpt>
      <trkpt lat="43.34013540297747" lon="-6.422145813703537">
        <ele>710.8</ele>
        <time>2017-08-05T04:30:52.000Z</time>
      </trkpt>
      <trkpt lat="43.34021385759115" lon="-6.422195686027408">
        <ele>712.4</ele>
        <time>2017-08-05T04:30:59.000Z</time>
      </trkpt>
      <trkpt lat="43.340313686057925" lon="-6.422241032123566">
        <ele>713.4</ele>
        <time>2017-08-05T04:31:06.000Z</time>
      </trkpt>
      <trkpt lat="43.340409491211176" lon="-6.4222910720855">
        <ele>713.8</ele>
        <time>2017-08-05T04:31:13.000Z</time>
      </trkpt>
      <trkpt lat="43.34042826667428" lon="-6.422304483130574">
        <ele>714.2</ele>
        <time>2017-08-05T04:31:18.000Z</time>
      </trkpt>
      <trkpt lat="43.34042784757912" lon="-6.422304902225733">
        <ele>714</ele>
        <time>2017-08-05T04:31:19.000Z</time>
      </trkpt>
      <trkpt lat="43.34051191806793" lon="-6.422354690730572">
        <ele>715.8</ele>
        <time>2017-08-05T04:31:57.000Z</time>
      </trkpt>
      <trkpt lat="43.34057930856943" lon="-6.422440521419048">
        <ele>716.2</ele>
        <time>2017-08-05T04:32:04.000Z</time>
      </trkpt>
      <trkpt lat="43.34063555113971" lon="-6.4225229155272245">
        <ele>716.2</ele>
        <time>2017-08-05T04:32:11.000Z</time>
      </trkpt>
      <trkpt lat="43.34068031050265" lon="-6.422610506415367">
        <ele>715.6</ele>
        <time>2017-08-05T04:32:17.000Z</time>
      </trkpt>
      <trkpt lat="43.340715598315" lon="-6.422716621309519">
        <ele>715.2</ele>
        <time>2017-08-05T04:32:24.000Z</time>
      </trkpt>
      <trkpt lat="43.340753484517336" lon="-6.4228118397295475">
        <ele>714.6</ele>
        <time>2017-08-05T04:32:30.000Z</time>
      </trkpt>
      <trkpt lat="43.34078290499747" lon="-6.422893144190311">
        <ele>713.8</ele>
        <time>2017-08-05T04:32:35.000Z</time>
      </trkpt>
      <trkpt lat="43.34079807624221" lon="-6.422925163060427">
        <ele>713.6</ele>
        <time>2017-08-05T04:32:37.000Z</time>
      </trkpt>
      <trkpt lat="43.34087887778878" lon="-6.423031194135547">
        <ele>713.4</ele>
        <time>2017-08-05T04:32:46.000Z</time>
      </trkpt>
      <trkpt lat="43.340947357937694" lon="-6.423096656799316">
        <ele>713.6</ele>
        <time>2017-08-05T04:32:53.000Z</time>
      </trkpt>
      <trkpt lat="43.3410126529634" lon="-6.423176536336541">
        <ele>714.2</ele>
        <time>2017-08-05T04:33:00.000Z</time>
      </trkpt>
      <trkpt lat="43.3410559874028" lon="-6.423251302912831">
        <ele>714.6</ele>
        <time>2017-08-05T04:33:06.000Z</time>
      </trkpt>
      <trkpt lat="43.34110829047859" lon="-6.423337468877435">
        <ele>714.8</ele>
        <time>2017-08-05T04:33:13.000Z</time>
      </trkpt>
      <trkpt lat="43.341128658503294" lon="-6.42336605116725">
        <ele>715</ele>
        <time>2017-08-05T04:33:16.000Z</time>
      </trkpt>
      <trkpt lat="43.34113729186356" lon="-6.423388430848718">
        <ele>715</ele>
        <time>2017-08-05T04:33:18.000Z</time>
      </trkpt>
      <trkpt lat="43.34115187637508" lon="-6.423399997875094">
        <ele>715.2</ele>
        <time>2017-08-05T04:33:19.000Z</time>
      </trkpt>
      <trkpt lat="43.34118649363518" lon="-6.423442242667079">
        <ele>715.6</ele>
        <time>2017-08-05T04:33:23.000Z</time>
      </trkpt>
      <trkpt lat="43.34125832654536" lon="-6.423528324812651">
        <ele>717.4</ele>
        <time>2017-08-05T04:33:32.000Z</time>
      </trkpt>
      <trkpt lat="43.341322699561715" lon="-6.423665871843696">
        <ele>720.2</ele>
        <time>2017-08-05T04:33:41.000Z</time>
      </trkpt>
      <trkpt lat="43.341353964060545" lon="-6.4237619284540415">
        <ele>722.8</ele>
        <time>2017-08-05T04:33:47.000Z</time>
      </trkpt>
      <trkpt lat="43.34136259742081" lon="-6.423777351155877">
        <ele>723.4</ele>
        <time>2017-08-05T04:33:48.000Z</time>
      </trkpt>
      <trkpt lat="43.341368632391095" lon="-6.423819176852703">
        <ele>724.2</ele>
        <time>2017-08-05T04:33:52.000Z</time>
      </trkpt>
      <trkpt lat="43.34139285609126" lon="-6.4238967932760715">
        <ele>726.2</ele>
        <time>2017-08-05T04:33:57.000Z</time>
      </trkpt>
      <trkpt lat="43.34139738231897" lon="-6.423926297575235">
        <ele>727.2</ele>
        <time>2017-08-05T04:34:00.000Z</time>
      </trkpt>
      <trkpt lat="43.34139076061547" lon="-6.423968626186252">
        <ele>728</ele>
        <time>2017-08-05T04:34:03.000Z</time>
      </trkpt>
      <trkpt lat="43.341386150568724" lon="-6.424007015302777">
        <ele>728.8</ele>
        <time>2017-08-05T04:34:07.000Z</time>
      </trkpt>
      <trkpt lat="43.34138271398842" lon="-6.424016151577234">
        <ele>729</ele>
        <time>2017-08-05T04:34:08.000Z</time>
      </trkpt>
      <trkpt lat="43.34133803844452" lon="-6.4240369386971">
        <ele>728.2</ele>
        <time>2017-08-05T04:34:12.000Z</time>
      </trkpt>
      <trkpt lat="43.34131515584886" lon="-6.42404573969543">
        <ele>727.8</ele>
        <time>2017-08-05T04:34:14.000Z</time>
      </trkpt>
      <trkpt lat="43.34125732071698" lon="-6.424082536250353">
        <ele>727.6</ele>
        <time>2017-08-05T04:34:20.000Z</time>
      </trkpt>
      <trkpt lat="43.34121976979077" lon="-6.424145400524139">
        <ele>728.2</ele>
        <time>2017-08-05T04:34:26.000Z</time>
      </trkpt>
      <trkpt lat="43.34121247753501" lon="-6.42414984293282">
        <ele>728.2</ele>
        <time>2017-08-05T04:34:27.000Z</time>
      </trkpt>
      <trkpt lat="43.34117693826556" lon="-6.424180772155523">
        <ele>728.4</ele>
        <time>2017-08-05T04:34:31.000Z</time>
      </trkpt>
      <trkpt lat="43.34117014892399" lon="-6.424185466021299">
        <ele>728.4</ele>
        <time>2017-08-05T04:34:32.000Z</time>
      </trkpt>
      <trkpt lat="43.34115732461214" lon="-6.424209019169211">
        <ele>728.8</ele>
        <time>2017-08-05T04:34:35.000Z</time>
      </trkpt>
      <trkpt lat="43.34114894270897" lon="-6.424206085503101">
        <ele>728.6</ele>
        <time>2017-08-05T04:34:38.000Z</time>
      </trkpt>
      <trkpt lat="43.34114299155772" lon="-6.424185633659363">
        <ele>727.8</ele>
        <time>2017-08-05T04:35:04.000Z</time>
      </trkpt>
      <trkpt lat="43.34112170152366" lon="-6.424190243706107">
        <ele>727.4</ele>
        <time>2017-08-05T04:35:39.000Z</time>
      </trkpt>
      <trkpt lat="43.341124299913645" lon="-6.424184879288077">
        <ele>727.4</ele>
        <time>2017-08-05T04:35:44.000Z</time>
      </trkpt>
      <trkpt lat="43.341126227751374" lon="-6.424175323918462">
        <ele>727.2</ele>
        <time>2017-08-05T04:35:59.000Z</time>
      </trkpt>
      <trkpt lat="43.34115003235638" lon="-6.42418697476387">
        <ele>728</ele>
        <time>2017-08-05T04:36:53.000Z</time>
      </trkpt>
      <trkpt lat="43.34114458411932" lon="-6.424164846539497">
        <ele>727.2</ele>
        <time>2017-08-05T04:37:01.000Z</time>
      </trkpt>
      <trkpt lat="43.3411368727684" lon="-6.42419284209609">
        <ele>727.8</ele>
        <time>2017-08-05T04:37:29.000Z</time>
      </trkpt>
      <trkpt lat="43.341138549149036" lon="-6.4242148865014315">
        <ele>728.6</ele>
        <time>2017-08-05T04:37:49.000Z</time>
      </trkpt>
      <trkpt lat="43.34111826494336" lon="-6.424227459356189">
        <ele>728.4</ele>
        <time>2017-08-05T04:38:04.000Z</time>
      </trkpt>
      <trkpt lat="43.34107191301882" lon="-6.424259981140494">
        <ele>728.4</ele>
        <time>2017-08-05T04:38:10.000Z</time>
      </trkpt>
      <trkpt lat="43.3410039357841" lon="-6.424337597563863">
        <ele>729.4</ele>
        <time>2017-08-05T04:38:18.000Z</time>
      </trkpt>
      <trkpt lat="43.34099320694804" lon="-6.424353187903762">
        <ele>729.6</ele>
        <time>2017-08-05T04:38:20.000Z</time>
      </trkpt>
      <trkpt lat="43.34095993079245" lon="-6.424375483766198">
        <ele>729.6</ele>
        <time>2017-08-05T04:38:23.000Z</time>
      </trkpt>
      <trkpt lat="43.34092506207526" lon="-6.424411945044994">
        <ele>730.2</ele>
        <time>2017-08-05T04:38:28.000Z</time>
      </trkpt>
      <trkpt lat="43.34089430049062" lon="-6.424417477101088">
        <ele>729.8</ele>
        <time>2017-08-05T04:38:30.000Z</time>
      </trkpt>
      <trkpt lat="43.34086798131466" lon="-6.424408592283726">
        <ele>729</ele>
        <time>2017-08-05T04:38:33.000Z</time>
      </trkpt>
      <trkpt lat="43.340808721259236" lon="-6.424412112683058">
        <ele>728</ele>
        <time>2017-08-05T04:38:38.000Z</time>
      </trkpt>
      <trkpt lat="43.34073764272034" lon="-6.424418231472373">
        <ele>727.4</ele>
        <time>2017-08-05T04:38:44.000Z</time>
      </trkpt>
      <trkpt lat="43.34064804017544" lon="-6.424435079097748">
        <ele>727.2</ele>
        <time>2017-08-05T04:38:52.000Z</time>
      </trkpt>
      <trkpt lat="43.340532621368766" lon="-6.424472965300083">
        <ele>727.2</ele>
        <time>2017-08-05T04:39:02.000Z</time>
      </trkpt>
      <trkpt lat="43.34045710042119" lon="-6.424516383558512">
        <ele>726.8</ele>
        <time>2017-08-05T04:39:09.000Z</time>
      </trkpt>
      <trkpt lat="43.34036657586694" lon="-6.424579583108425">
        <ele>726.2</ele>
        <time>2017-08-05T04:39:17.000Z</time>
      </trkpt>
      <trkpt lat="43.34031444042921" lon="-6.424610512331128">
        <ele>725.8</ele>
        <time>2017-08-05T04:39:22.000Z</time>
      </trkpt>
      <trkpt lat="43.340305890887976" lon="-6.424619983881712">
        <ele>725.8</ele>
        <time>2017-08-05T04:39:23.000Z</time>
      </trkpt>
      <trkpt lat="43.340241350233555" lon="-6.424676226451993">
        <ele>725.6</ele>
        <time>2017-08-05T04:39:30.000Z</time>
      </trkpt>
      <trkpt lat="43.34015065804124" lon="-6.424758285284042">
        <ele>724</ele>
        <time>2017-08-05T04:39:39.000Z</time>
      </trkpt>
      <trkpt lat="43.340064492076635" lon="-6.424821233376861">
        <ele>722</ele>
        <time>2017-08-05T04:39:46.000Z</time>
      </trkpt>
      <trkpt lat="43.33998369053006" lon="-6.424898765981197">
        <ele>720.4</ele>
        <time>2017-08-05T04:39:53.000Z</time>
      </trkpt>
      <trkpt lat="43.33992501720786" lon="-6.424970263615251">
        <ele>720</ele>
        <time>2017-08-05T04:39:59.000Z</time>
      </trkpt>
      <trkpt lat="43.33992199972272" lon="-6.424987446516752">
        <ele>720.2</ele>
        <time>2017-08-05T04:40:00.000Z</time>
      </trkpt>
      <trkpt lat="43.33988796919584" lon="-6.425058105960488">
        <ele>720.4</ele>
        <time>2017-08-05T04:40:05.000Z</time>
      </trkpt>
      <trkpt lat="43.33985762670636" lon="-6.425114767625928">
        <ele>720.4</ele>
        <time>2017-08-05T04:40:10.000Z</time>
      </trkpt>
      <trkpt lat="43.33983851596713" lon="-6.425157766789198">
        <ele>720.4</ele>
        <time>2017-08-05T04:40:13.000Z</time>
      </trkpt>
      <trkpt lat="43.33980440162122" lon="-6.425219960510731">
        <ele>720.4</ele>
        <time>2017-08-05T04:40:19.000Z</time>
      </trkpt>
      <trkpt lat="43.33979744464159" lon="-6.425246866419911">
        <ele>720.4</ele>
        <time>2017-08-05T04:40:21.000Z</time>
      </trkpt>
      <trkpt lat="43.33977489732206" lon="-6.42531668767333">
        <ele>721</ele>
        <time>2017-08-05T04:40:26.000Z</time>
      </trkpt>
      <trkpt lat="43.33974279463291" lon="-6.425397489219904">
        <ele>721.4</ele>
        <time>2017-08-05T04:40:32.000Z</time>
      </trkpt>
      <trkpt lat="43.33970574662089" lon="-6.425441913306713">
        <ele>721.2</ele>
        <time>2017-08-05T04:40:36.000Z</time>
      </trkpt>
      <trkpt lat="43.33969225175679" lon="-6.425446858629584">
        <ele>721</ele>
        <time>2017-08-05T04:40:37.000Z</time>
      </trkpt>
      <trkpt lat="43.339639864861965" lon="-6.425455324351788">
        <ele>720.8</ele>
        <time>2017-08-05T04:40:41.000Z</time>
      </trkpt>
      <trkpt lat="43.33961270749569" lon="-6.425455156713724">
        <ele>720.6</ele>
        <time>2017-08-05T04:40:43.000Z</time>
      </trkpt>
      <trkpt lat="43.33956241607666" lon="-6.4254391472786665">
        <ele>720.2</ele>
        <time>2017-08-05T04:40:47.000Z</time>
      </trkpt>
      <trkpt lat="43.33953802473843" lon="-6.4254339504987">
        <ele>720</ele>
        <time>2017-08-05T04:40:49.000Z</time>
      </trkpt>
      <trkpt lat="43.33945747464895" lon="-6.425415091216564">
        <ele>718.8</ele>
        <time>2017-08-05T04:40:56.000Z</time>
      </trkpt>
      <trkpt lat="43.339426377788186" lon="-6.425414169207215">
        <ele>718.4</ele>
        <time>2017-08-05T04:40:58.000Z</time>
      </trkpt>
      <trkpt lat="43.339392598718405" lon="-6.4254029374569654">
        <ele>717.6</ele>
        <time>2017-08-05T04:41:01.000Z</time>
      </trkpt>
      <trkpt lat="43.33936125040054" lon="-6.4253926277160645">
        <ele>717.4</ele>
        <time>2017-08-05T04:41:04.000Z</time>
      </trkpt>
      <trkpt lat="43.33931657485664" lon="-6.4253599382936954">
        <ele>716.6</ele>
        <time>2017-08-05T04:41:08.000Z</time>
      </trkpt>
      <trkpt lat="43.339277263730764" lon="-6.425304030999541">
        <ele>715.2</ele>
        <time>2017-08-05T04:41:13.000Z</time>
      </trkpt>
      <trkpt lat="43.33926234394312" lon="-6.425277879461646">
        <ele>714.6</ele>
        <time>2017-08-05T04:41:15.000Z</time>
      </trkpt>
      <trkpt lat="43.33922864869237" lon="-6.425252314656973">
        <ele>713.8</ele>
        <time>2017-08-05T04:41:18.000Z</time>
      </trkpt>
      <trkpt lat="43.339206436648965" lon="-6.425231276080012">
        <ele>713.4</ele>
        <time>2017-08-05T04:41:20.000Z</time>
      </trkpt>
      <trkpt lat="43.33917140029371" lon="-6.425223648548126">
        <ele>713.2</ele>
        <time>2017-08-05T04:41:23.000Z</time>
      </trkpt>
      <trkpt lat="43.33914323709905" lon="-6.425214847549796">
        <ele>713</ele>
        <time>2017-08-05T04:41:25.000Z</time>
      </trkpt>
      <trkpt lat="43.33910317160189" lon="-6.4252109080553055">
        <ele>713</ele>
        <time>2017-08-05T04:41:29.000Z</time>
      </trkpt>
      <trkpt lat="43.33909370005131" lon="-6.425221050158143">
        <ele>713.2</ele>
        <time>2017-08-05T04:41:30.000Z</time>
      </trkpt>
      <trkpt lat="43.339088167995214" lon="-6.425235467031598">
        <ele>713.6</ele>
        <time>2017-08-05T04:41:31.000Z</time>
      </trkpt>
      <trkpt lat="43.339044246822596" lon="-6.425279136747122">
        <ele>714.4</ele>
        <time>2017-08-05T04:41:36.000Z</time>
      </trkpt>
      <trkpt lat="43.338992949575186" lon="-6.42531962133944">
        <ele>715.2</ele>
        <time>2017-08-05T04:41:41.000Z</time>
      </trkpt>
      <trkpt lat="43.33898641169071" lon="-6.425322974100709">
        <ele>715.2</ele>
        <time>2017-08-05T04:41:42.000Z</time>
      </trkpt>
      <trkpt lat="43.338970402255654" lon="-6.425339486449957">
        <ele>715.4</ele>
        <time>2017-08-05T04:41:44.000Z</time>
      </trkpt>
      <trkpt lat="43.3389351144433" lon="-6.4253634586930275">
        <ele>716</ele>
        <time>2017-08-05T04:41:48.000Z</time>
      </trkpt>
      <trkpt lat="43.33886227570474" lon="-6.425390532240272">
        <ele>716.4</ele>
        <time>2017-08-05T04:41:54.000Z</time>
      </trkpt>
      <trkpt lat="43.33885012194514" lon="-6.425400841981173">
        <ele>716.6</ele>
        <time>2017-08-05T04:41:55.000Z</time>
      </trkpt>
      <trkpt lat="43.33877636119723" lon="-6.42546471208334">
        <ele>716.8</ele>
        <time>2017-08-05T04:42:02.000Z</time>
      </trkpt>
      <trkpt lat="43.33871039561927" lon="-6.425524475052953">
        <ele>716.8</ele>
        <time>2017-08-05T04:42:09.000Z</time>
      </trkpt>
      <trkpt lat="43.33863797597587" lon="-6.425595050677657">
        <ele>717.4</ele>
        <time>2017-08-05T04:42:16.000Z</time>
      </trkpt>
      <trkpt lat="43.33856647834182" lon="-6.42567970789969">
        <ele>718.2</ele>
        <time>2017-08-05T04:42:24.000Z</time>
      </trkpt>
      <trkpt lat="43.338495986536145" lon="-6.425749026238918">
        <ele>718.2</ele>
        <time>2017-08-05T04:42:31.000Z</time>
      </trkpt>
      <trkpt lat="43.3384292665869" lon="-6.425827983766794">
        <ele>718.4</ele>
        <time>2017-08-05T04:42:38.000Z</time>
      </trkpt>
      <trkpt lat="43.33835508674383" lon="-6.425930494442582">
        <ele>718.6</ele>
        <time>2017-08-05T04:42:46.000Z</time>
      </trkpt>
      <trkpt lat="43.33831334486604" lon="-6.425988078117371">
        <ele>718.6</ele>
        <time>2017-08-05T04:42:51.000Z</time>
      </trkpt>
      <trkpt lat="43.33829842507839" lon="-6.426008529961109">
        <ele>718.8</ele>
        <time>2017-08-05T04:42:53.000Z</time>
      </trkpt>
      <trkpt lat="43.338249726220965" lon="-6.426102239638567">
        <ele>719.4</ele>
        <time>2017-08-05T04:43:00.000Z</time>
      </trkpt>
      <trkpt lat="43.33824511617422" lon="-6.426117327064276">
        <ele>719.8</ele>
        <time>2017-08-05T04:43:01.000Z</time>
      </trkpt>
      <trkpt lat="43.338204212486744" lon="-6.4262039959430695">
        <ele>720.8</ele>
        <time>2017-08-05T04:43:07.000Z</time>
      </trkpt>
      <trkpt lat="43.338193986564875" lon="-6.426218496635556">
        <ele>721</ele>
        <time>2017-08-05T04:43:08.000Z</time>
      </trkpt>
      <trkpt lat="43.33813849836588" lon="-6.4262826181948185">
        <ele>721.2</ele>
        <time>2017-08-05T04:43:13.000Z</time>
      </trkpt>
      <trkpt lat="43.338098181411624" lon="-6.426305249333382">
        <ele>721.2</ele>
        <time>2017-08-05T04:43:16.000Z</time>
      </trkpt>
      <trkpt lat="43.33801000379026" lon="-6.4263226836919785">
        <ele>719.8</ele>
        <time>2017-08-05T04:43:24.000Z</time>
      </trkpt>
      <trkpt lat="43.337902715429664" lon="-6.4263285510241985">
        <ele>718</ele>
        <time>2017-08-05T04:43:33.000Z</time>
      </trkpt>
      <trkpt lat="43.337892573326826" lon="-6.426322348415852">
        <ele>717.8</ele>
        <time>2017-08-05T04:43:34.000Z</time>
      </trkpt>
      <trkpt lat="43.33783666603267" lon="-6.426320420578122">
        <ele>716.6</ele>
        <time>2017-08-05T04:43:38.000Z</time>
      </trkpt>
      <trkpt lat="43.33775309845805" lon="-6.426320085301995">
        <ele>715</ele>
        <time>2017-08-05T04:43:43.000Z</time>
      </trkpt>
      <trkpt lat="43.33771487697959" lon="-6.426339279860258">
        <ele>714.8</ele>
        <time>2017-08-05T04:43:47.000Z</time>
      </trkpt>
      <trkpt lat="43.33769576624036" lon="-6.426351349800825">
        <ele>714.8</ele>
        <time>2017-08-05T04:43:49.000Z</time>
      </trkpt>
      <trkpt lat="43.33765980787575" lon="-6.42637062817812">
        <ele>714.8</ele>
        <time>2017-08-05T04:43:53.000Z</time>
      </trkpt>
      <trkpt lat="43.337615048512816" lon="-6.42644296400249">
        <ele>715</ele>
        <time>2017-08-05T04:43:59.000Z</time>
      </trkpt>
      <trkpt lat="43.337570456787944" lon="-6.426522005349398">
        <ele>715.2</ele>
        <time>2017-08-05T04:44:06.000Z</time>
      </trkpt>
      <trkpt lat="43.33753516897559" lon="-6.426590569317341">
        <ele>715.8</ele>
        <time>2017-08-05T04:44:12.000Z</time>
      </trkpt>
      <trkpt lat="43.33751756697893" lon="-6.426637172698975">
        <ele>716.4</ele>
        <time>2017-08-05T04:44:16.000Z</time>
      </trkpt>
      <trkpt lat="43.33748680539429" lon="-6.426712358370423">
        <ele>717.4</ele>
        <time>2017-08-05T04:44:21.000Z</time>
      </trkpt>
      <trkpt lat="43.337456630542874" lon="-6.426798775792122">
        <ele>718.8</ele>
        <time>2017-08-05T04:44:27.000Z</time>
      </trkpt>
      <trkpt lat="43.33743148483336" lon="-6.426860047504306">
        <ele>719.8</ele>
        <time>2017-08-05T04:44:32.000Z</time>
      </trkpt>
      <trkpt lat="43.33740298636258" lon="-6.426902124658227">
        <ele>720.4</ele>
        <time>2017-08-05T04:44:38.000Z</time>
      </trkpt>
      <trkpt lat="43.33736518397927" lon="-6.426988039165735">
        <ele>721.6</ele>
        <time>2017-08-05T04:44:44.000Z</time>
      </trkpt>
      <trkpt lat="43.33734204992652" lon="-6.427065739408135">
        <ele>722.8</ele>
        <time>2017-08-05T04:44:49.000Z</time>
      </trkpt>
      <trkpt lat="43.33731950260699" lon="-6.427164310589433">
        <ele>724</ele>
        <time>2017-08-05T04:44:54.000Z</time>
      </trkpt>
      <trkpt lat="43.33728195168078" lon="-6.42727704718709">
        <ele>724.6</ele>
        <time>2017-08-05T04:45:00.000Z</time>
      </trkpt>
      <trkpt lat="43.33725982345641" lon="-6.427378635853529">
        <ele>725.2</ele>
        <time>2017-08-05T04:45:06.000Z</time>
      </trkpt>
      <trkpt lat="43.33722679875791" lon="-6.427467064931989">
        <ele>726.2</ele>
        <time>2017-08-05T04:45:12.000Z</time>
      </trkpt>
      <trkpt lat="43.33721347153187" lon="-6.427499502897263">
        <ele>726.4</ele>
        <time>2017-08-05T04:45:14.000Z</time>
      </trkpt>
      <trkpt lat="43.3371667843312" lon="-6.427611568942666">
        <ele>727</ele>
        <time>2017-08-05T04:45:21.000Z</time>
      </trkpt>
      <trkpt lat="43.33715002052486" lon="-6.427700249478221">
        <ele>728</ele>
        <time>2017-08-05T04:45:26.000Z</time>
      </trkpt>
      <trkpt lat="43.337127389386296" lon="-6.427803430706263">
        <ele>729</ele>
        <time>2017-08-05T04:45:32.000Z</time>
      </trkpt>
      <trkpt lat="43.33711892366409" lon="-6.427832851186395">
        <ele>729.2</ele>
        <time>2017-08-05T04:45:34.000Z</time>
      </trkpt>
      <trkpt lat="43.33709889091551" lon="-6.427897894755006">
        <ele>729.8</ele>
        <time>2017-08-05T04:45:38.000Z</time>
      </trkpt>
      <trkpt lat="43.33712127059698" lon="-6.427963441237807">
        <ele>731.6</ele>
        <time>2017-08-05T04:45:41.000Z</time>
      </trkpt>
      <trkpt lat="43.337124455720186" lon="-6.42798313871026">
        <ele>732.2</ele>
        <time>2017-08-05T04:45:42.000Z</time>
      </trkpt>
      <trkpt lat="43.33710375241935" lon="-6.428033011034131">
        <ele>732.4</ele>
        <time>2017-08-05T04:45:46.000Z</time>
      </trkpt>
      <trkpt lat="43.33709243685007" lon="-6.428104424849153">
        <ele>733.2</ele>
        <time>2017-08-05T04:45:50.000Z</time>
      </trkpt>
      <trkpt lat="43.33708606660366" lon="-6.428119596093893">
        <ele>733.2</ele>
        <time>2017-08-05T04:45:51.000Z</time>
      </trkpt>
      <trkpt lat="43.337043821811676" lon="-6.428216239437461">
        <ele>733.2</ele>
        <time>2017-08-05T04:45:58.000Z</time>
      </trkpt>
      <trkpt lat="43.33703828975558" lon="-6.42823820002377">
        <ele>733.4</ele>
        <time>2017-08-05T04:46:00.000Z</time>
      </trkpt>
      <trkpt lat="43.33702093921602" lon="-6.428293017670512">
        <ele>733.6</ele>
        <time>2017-08-05T04:46:03.000Z</time>
      </trkpt>
      <trkpt lat="43.33698992617428" lon="-6.428405502811074">
        <ele>734.2</ele>
        <time>2017-08-05T04:46:10.000Z</time>
      </trkpt>
      <trkpt lat="43.33696444518864" lon="-6.428522262722254">
        <ele>735.2</ele>
        <time>2017-08-05T04:46:18.000Z</time>
      </trkpt>
      <trkpt lat="43.3369698934257" lon="-6.4285447262227535">
        <ele>735.8</ele>
        <time>2017-08-05T04:46:20.000Z</time>
      </trkpt>
      <trkpt lat="43.336967127397656" lon="-6.428594347089529">
        <ele>736.6</ele>
        <time>2017-08-05T04:46:24.000Z</time>
      </trkpt>
      <trkpt lat="43.3369476813823" lon="-6.428648242726922">
        <ele>737</ele>
        <time>2017-08-05T04:46:28.000Z</time>
      </trkpt>
      <trkpt lat="43.33694231696427" lon="-6.428663833066821">
        <ele>737.2</ele>
        <time>2017-08-05T04:46:29.000Z</time>
      </trkpt>
      <trkpt lat="43.33694139495492" lon="-6.428688643500209">
        <ele>737.6</ele>
        <time>2017-08-05T04:46:31.000Z</time>
      </trkpt>
      <trkpt lat="43.336932342499495" lon="-6.4287453051656485">
        <ele>738.6</ele>
        <time>2017-08-05T04:46:35.000Z</time>
      </trkpt>
      <trkpt lat="43.33692932501435" lon="-6.428852090612054">
        <ele>740.6</ele>
        <time>2017-08-05T04:46:41.000Z</time>
      </trkpt>
      <trkpt lat="43.3369183447212" lon="-6.4289655815809965">
        <ele>740.8</ele>
        <time>2017-08-05T04:46:47.000Z</time>
      </trkpt>
      <trkpt lat="43.336905939504504" lon="-6.4290928188711405">
        <ele>741</ele>
        <time>2017-08-05T04:46:54.000Z</time>
      </trkpt>
      <trkpt lat="43.33690417930484" lon="-6.429153252393007">
        <ele>741.2</ele>
        <time>2017-08-05T04:46:59.000Z</time>
      </trkpt>
      <trkpt lat="43.336897641420364" lon="-6.429184768348932">
        <ele>741</ele>
        <time>2017-08-05T04:47:01.000Z</time>
      </trkpt>
      <trkpt lat="43.33689261227846" lon="-6.429236400872469">
        <ele>741</ele>
        <time>2017-08-05T04:47:04.000Z</time>
      </trkpt>
      <trkpt lat="43.3368974737823" lon="-6.429253751412034">
        <ele>741.2</ele>
        <time>2017-08-05T04:47:05.000Z</time>
      </trkpt>
      <trkpt lat="43.33689462393522" lon="-6.429304126650095">
        <ele>741.4</ele>
        <time>2017-08-05T04:47:08.000Z</time>
      </trkpt>
      <trkpt lat="43.336887918412685" lon="-6.429384173825383">
        <ele>741.2</ele>
        <time>2017-08-05T04:47:13.000Z</time>
      </trkpt>
      <trkpt lat="43.336890852078795" lon="-6.42939230427146">
        <ele>741.4</ele>
        <time>2017-08-05T04:47:14.000Z</time>
      </trkpt>
      <trkpt lat="43.33688364364207" lon="-6.42941283993423">
        <ele>741.2</ele>
        <time>2017-08-05T04:47:16.000Z</time>
      </trkpt>
      <trkpt lat="43.33688515238464" lon="-6.429440751671791">
        <ele>741.4</ele>
        <time>2017-08-05T04:47:18.000Z</time>
      </trkpt>
      <trkpt lat="43.336903592571616" lon="-6.4295092318207026">
        <ele>742.2</ele>
        <time>2017-08-05T04:47:23.000Z</time>
      </trkpt>
      <trkpt lat="43.33689604885876" lon="-6.429543513804674">
        <ele>741.8</ele>
        <time>2017-08-05T04:47:25.000Z</time>
      </trkpt>
      <trkpt lat="43.33689345046878" lon="-6.429571257904172">
        <ele>741.8</ele>
        <time>2017-08-05T04:47:27.000Z</time>
      </trkpt>
      <trkpt lat="43.336892360821366" lon="-6.429585507139564">
        <ele>741.8</ele>
        <time>2017-08-05T04:47:28.000Z</time>
      </trkpt>
      <trkpt lat="43.336893785744905" lon="-6.429638313129544">
        <ele>741.8</ele>
        <time>2017-08-05T04:47:33.000Z</time>
      </trkpt>
      <trkpt lat="43.3369009103626" lon="-6.429662453010678">
        <ele>742</ele>
        <time>2017-08-05T04:47:35.000Z</time>
      </trkpt>
      <trkpt lat="43.33688858896494" lon="-6.429687011986971">
        <ele>741.6</ele>
        <time>2017-08-05T04:47:37.000Z</time>
      </trkpt>
      <trkpt lat="43.33688775077462" lon="-6.429727664217353">
        <ele>741.8</ele>
        <time>2017-08-05T04:47:40.000Z</time>
      </trkpt>
      <trkpt lat="43.33689110353589" lon="-6.429787427186966">
        <ele>742.4</ele>
        <time>2017-08-05T04:47:45.000Z</time>
      </trkpt>
      <trkpt lat="43.33688682876527" lon="-6.429824223741889">
        <ele>742.6</ele>
        <time>2017-08-05T04:47:46.000Z</time>
      </trkpt>
      <trkpt lat="43.33689847961068" lon="-6.4298823941498995">
        <ele>743.2</ele>
        <time>2017-08-05T04:47:50.000Z</time>
      </trkpt>
      <trkpt lat="43.33690996281803" lon="-6.429953053593636">
        <ele>744.2</ele>
        <time>2017-08-05T04:47:55.000Z</time>
      </trkpt>
      <trkpt lat="43.33691691979766" lon="-6.4299822226166725">
        <ele>744.8</ele>
        <time>2017-08-05T04:47:57.000Z</time>
      </trkpt>
      <trkpt lat="43.33692773245275" lon="-6.429997561499476">
        <ele>745.6</ele>
        <time>2017-08-05T04:48:00.000Z</time>
      </trkpt>
      <trkpt lat="43.33692882210016" lon="-6.430013487115502">
        <ele>746.2</ele>
        <time>2017-08-05T04:48:01.000Z</time>
      </trkpt>
      <trkpt lat="43.33693502470851" lon="-6.430088421329856">
        <ele>748.2</ele>
        <time>2017-08-05T04:48:05.000Z</time>
      </trkpt>
      <trkpt lat="43.33694206550717" lon="-6.430125553160906">
        <ele>749.6</ele>
        <time>2017-08-05T04:48:08.000Z</time>
      </trkpt>
      <trkpt lat="43.33694667555392" lon="-6.430152291432023">
        <ele>750.4</ele>
        <time>2017-08-05T04:48:10.000Z</time>
      </trkpt>
      <trkpt lat="43.33695447072387" lon="-6.430178862065077">
        <ele>751.4</ele>
        <time>2017-08-05T04:48:12.000Z</time>
      </trkpt>
      <trkpt lat="43.33695857785642" lon="-6.43022202886641">
        <ele>752.4</ele>
        <time>2017-08-05T04:48:15.000Z</time>
      </trkpt>
      <trkpt lat="43.33695623092353" lon="-6.430243570357561">
        <ele>752.6</ele>
        <time>2017-08-05T04:48:17.000Z</time>
      </trkpt>
      <trkpt lat="43.33695027977228" lon="-6.430258322507143">
        <ele>752.6</ele>
        <time>2017-08-05T04:48:18.000Z</time>
      </trkpt>
      <trkpt lat="43.33694156259298" lon="-6.430301908403635">
        <ele>753.4</ele>
        <time>2017-08-05T04:48:21.000Z</time>
      </trkpt>
      <trkpt lat="43.33693301305175" lon="-6.430313978344202">
        <ele>753.2</ele>
        <time>2017-08-05T04:48:22.000Z</time>
      </trkpt>
      <trkpt lat="43.33688867278397" lon="-6.4303801115602255">
        <ele>753.4</ele>
        <time>2017-08-05T04:48:29.000Z</time>
      </trkpt>
      <trkpt lat="43.3368786983192" lon="-6.430411878973246">
        <ele>753.8</ele>
        <time>2017-08-05T04:48:33.000Z</time>
      </trkpt>
      <trkpt lat="43.33684793673456" lon="-6.4304781798273325">
        <ele>754.2</ele>
        <time>2017-08-05T04:48:39.000Z</time>
      </trkpt>
      <trkpt lat="43.336837543174624" lon="-6.430481448769569">
        <ele>754</ele>
        <time>2017-08-05T04:48:40.000Z</time>
      </trkpt>
      <trkpt lat="43.33679680712521" lon="-6.4305194187909365">
        <ele>753.6</ele>
        <time>2017-08-05T04:48:45.000Z</time>
      </trkpt>
      <trkpt lat="43.336734948679805" lon="-6.430536936968565">
        <ele>752.2</ele>
        <time>2017-08-05T04:48:51.000Z</time>
      </trkpt>
      <trkpt lat="43.33669136278331" lon="-6.430534925311804">
        <ele>751</ele>
        <time>2017-08-05T04:48:56.000Z</time>
      </trkpt>
      <trkpt lat="43.336639227345586" lon="-6.43053668551147">
        <ele>749.6</ele>
        <time>2017-08-05T04:49:01.000Z</time>
      </trkpt>
      <trkpt lat="43.33662187680602" lon="-6.430539200082421">
        <ele>749</ele>
        <time>2017-08-05T04:49:03.000Z</time>
      </trkpt>
      <trkpt lat="43.33656622096896" lon="-6.430569877848029">
        <ele>749.2</ele>
        <time>2017-08-05T04:49:08.000Z</time>
      </trkpt>
      <trkpt lat="43.33652447909117" lon="-6.430602231994271">
        <ele>749.4</ele>
        <time>2017-08-05T04:49:12.000Z</time>
      </trkpt>
      <trkpt lat="43.336516516283154" lon="-6.430615643039346">
        <ele>749.6</ele>
        <time>2017-08-05T04:49:13.000Z</time>
      </trkpt>
      <trkpt lat="43.33650520071387" lon="-6.430613799020648">
        <ele>749.4</ele>
        <time>2017-08-05T04:49:14.000Z</time>
      </trkpt>
      <trkpt lat="43.33645164035261" lon="-6.430690996348858">
        <ele>750.6</ele>
        <time>2017-08-05T04:49:20.000Z</time>
      </trkpt>
      <trkpt lat="43.336420292034745" lon="-6.430760733783245">
        <ele>751.6</ele>
        <time>2017-08-05T04:49:25.000Z</time>
      </trkpt>
      <trkpt lat="43.336402690038085" lon="-6.430787472054362">
        <ele>752</ele>
        <time>2017-08-05T04:49:27.000Z</time>
      </trkpt>
      <trkpt lat="43.33636052906513" lon="-6.430876404047012">
        <ele>753.4</ele>
        <time>2017-08-05T04:49:33.000Z</time>
      </trkpt>
      <trkpt lat="43.33633513189852" lon="-6.430978327989578">
        <ele>754.8</ele>
        <time>2017-08-05T04:49:38.000Z</time>
      </trkpt>
      <trkpt lat="43.3363260794431" lon="-6.4309794176369905">
        <ele>754.8</ele>
        <time>2017-08-05T04:49:39.000Z</time>
      </trkpt>
      <trkpt lat="43.33630244247615" lon="-6.431017052382231">
        <ele>755</ele>
        <time>2017-08-05T04:49:42.000Z</time>
      </trkpt>
      <trkpt lat="43.33627687767148" lon="-6.431057369336486">
        <ele>755.4</ele>
        <time>2017-08-05T04:49:45.000Z</time>
      </trkpt>
      <trkpt lat="43.33622273057699" lon="-6.431133225560188">
        <ele>755.8</ele>
        <time>2017-08-05T04:49:52.000Z</time>
      </trkpt>
      <trkpt lat="43.336180318146944" lon="-6.431207992136478">
        <ele>756.4</ele>
        <time>2017-08-05T04:49:57.000Z</time>
      </trkpt>
      <trkpt lat="43.33615634590387" lon="-6.4312241692095995">
        <ele>756.2</ele>
        <time>2017-08-05T04:49:59.000Z</time>
      </trkpt>
      <trkpt lat="43.336121728643775" lon="-6.431266665458679">
        <ele>756.4</ele>
        <time>2017-08-05T04:50:02.000Z</time>
      </trkpt>
      <trkpt lat="43.33608032204211" lon="-6.43134294077754">
        <ele>756.8</ele>
        <time>2017-08-05T04:50:08.000Z</time>
      </trkpt>
      <trkpt lat="43.3360686711967" lon="-6.431358363479376">
        <ele>756.8</ele>
        <time>2017-08-05T04:50:09.000Z</time>
      </trkpt>
      <trkpt lat="43.33602768369019" lon="-6.431445786729455">
        <ele>757</ele>
        <time>2017-08-05T04:50:14.000Z</time>
      </trkpt>
      <trkpt lat="43.335996586829424" lon="-6.431510159745812">
        <ele>757</ele>
        <time>2017-08-05T04:50:18.000Z</time>
      </trkpt>
      <trkpt lat="43.335986360907555" lon="-6.431537987664342">
        <ele>757.2</ele>
        <time>2017-08-05T04:50:20.000Z</time>
      </trkpt>
      <trkpt lat="43.33593841642141" lon="-6.431614346802235">
        <ele>756.8</ele>
        <time>2017-08-05T04:50:26.000Z</time>
      </trkpt>
      <trkpt lat="43.33588594570756" lon="-6.431714175269008">
        <ele>756.8</ele>
        <time>2017-08-05T04:50:33.000Z</time>
      </trkpt>
      <trkpt lat="43.335843198001385" lon="-6.431823140010238">
        <ele>757.2</ele>
        <time>2017-08-05T04:50:40.000Z</time>
      </trkpt>
      <trkpt lat="43.335801623761654" lon="-6.43193319439888">
        <ele>757.8</ele>
        <time>2017-08-05T04:50:47.000Z</time>
      </trkpt>
      <trkpt lat="43.3357594627887" lon="-6.432065209373832">
        <ele>759.2</ele>
        <time>2017-08-05T04:50:55.000Z</time>
      </trkpt>
      <trkpt lat="43.33571830764413" lon="-6.432216335088015">
        <ele>760.8</ele>
        <time>2017-08-05T04:51:04.000Z</time>
      </trkpt>
      <trkpt lat="43.3356957603246" lon="-6.432361174374819">
        <ele>761</ele>
        <time>2017-08-05T04:51:12.000Z</time>
      </trkpt>
      <trkpt lat="43.33568603731692" lon="-6.432518754154444">
        <ele>761.8</ele>
        <time>2017-08-05T04:51:21.000Z</time>
      </trkpt>
      <trkpt lat="43.33567287772894" lon="-6.432667281478643">
        <ele>761.2</ele>
        <time>2017-08-05T04:51:30.000Z</time>
      </trkpt>
      <trkpt lat="43.33566508255899" lon="-6.432790411636233">
        <ele>761</ele>
        <time>2017-08-05T04:51:38.000Z</time>
      </trkpt>
      <trkpt lat="43.335657035931945" lon="-6.432913038879633">
        <ele>761.4</ele>
        <time>2017-08-05T04:51:46.000Z</time>
      </trkpt>
      <trkpt lat="43.335645804181695" lon="-6.432961570098996">
        <ele>761</ele>
        <time>2017-08-05T04:51:52.000Z</time>
      </trkpt>
      <trkpt lat="43.335650665685534" lon="-6.433085286989808">
        <ele>762.2</ele>
        <time>2017-08-05T04:51:59.000Z</time>
      </trkpt>
      <trkpt lat="43.33564706146717" lon="-6.4332041423767805">
        <ele>763</ele>
        <time>2017-08-05T04:52:07.000Z</time>
      </trkpt>
      <trkpt lat="43.335630213841796" lon="-6.433322411030531">
        <ele>762.4</ele>
        <time>2017-08-05T04:52:14.000Z</time>
      </trkpt>
      <trkpt lat="43.3356246817857" lon="-6.433439506217837">
        <ele>762.6</ele>
        <time>2017-08-05T04:52:21.000Z</time>
      </trkpt>
      <trkpt lat="43.33561688661575" lon="-6.4335596188902855">
        <ele>762.8</ele>
        <time>2017-08-05T04:52:28.000Z</time>
      </trkpt>
      <trkpt lat="43.33561001345515" lon="-6.433692220598459">
        <ele>762.6</ele>
        <time>2017-08-05T04:52:36.000Z</time>
      </trkpt>
      <trkpt lat="43.335615964606404" lon="-6.433821553364396">
        <ele>762.6</ele>
        <time>2017-08-05T04:52:44.000Z</time>
      </trkpt>
      <trkpt lat="43.33564261905849" lon="-6.433957340195775">
        <ele>763</ele>
        <time>2017-08-05T04:52:53.000Z</time>
      </trkpt>
      <trkpt lat="43.33566105924547" lon="-6.434063706547022">
        <ele>763.4</ele>
        <time>2017-08-05T04:53:00.000Z</time>
      </trkpt>
      <trkpt lat="43.33569986745715" lon="-6.4341645408421755">
        <ele>764.8</ele>
        <time>2017-08-05T04:53:08.000Z</time>
      </trkpt>
      <trkpt lat="43.33575560711324" lon="-6.434264201670885">
        <ele>765.8</ele>
        <time>2017-08-05T04:53:16.000Z</time>
      </trkpt>
      <trkpt lat="43.33582978695631" lon="-6.434346679598093">
        <ele>766.8</ele>
        <time>2017-08-05T04:53:24.000Z</time>
      </trkpt>
      <trkpt lat="43.335908660665154" lon="-6.434414153918624">
        <ele>767.8</ele>
        <time>2017-08-05T04:53:32.000Z</time>
      </trkpt>
      <trkpt lat="43.33600186742842" lon="-6.434463439509273">
        <ele>768.8</ele>
        <time>2017-08-05T04:53:40.000Z</time>
      </trkpt>
      <trkpt lat="43.33607034757733" lon="-6.4344867412000895">
        <ele>769.8</ele>
        <time>2017-08-05T04:53:47.000Z</time>
      </trkpt>
      <trkpt lat="43.33614243194461" lon="-6.434477940201759">
        <ele>771.6</ele>
        <time>2017-08-05T04:53:54.000Z</time>
      </trkpt>
      <trkpt lat="43.336223904043436" lon="-6.434467379003763">
        <ele>773.6</ele>
        <time>2017-08-05T04:54:01.000Z</time>
      </trkpt>
      <trkpt lat="43.33630780689418" lon="-6.434478862211108">
        <ele>775</ele>
        <time>2017-08-05T04:54:08.000Z</time>
      </trkpt>
      <trkpt lat="43.336317110806704" lon="-6.434470061212778">
        <ele>775.4</ele>
        <time>2017-08-05T04:54:10.000Z</time>
      </trkpt>
      <trkpt lat="43.3363395743072" lon="-6.434481460601091">
        <ele>775.8</ele>
        <time>2017-08-05T04:54:12.000Z</time>
      </trkpt>
      <trkpt lat="43.33636396564543" lon="-6.434488082304597">
        <ele>776.2</ele>
        <time>2017-08-05T04:54:14.000Z</time>
      </trkpt>
      <trkpt lat="43.336397828534245" lon="-6.434515826404095">
        <ele>776.2</ele>
        <time>2017-08-05T04:54:18.000Z</time>
      </trkpt>
      <trkpt lat="43.33640822209418" lon="-6.434525717049837">
        <ele>776.2</ele>
        <time>2017-08-05T04:54:19.000Z</time>
      </trkpt>
      <trkpt lat="43.336441749706864" lon="-6.4345700573176146">
        <ele>776</ele>
        <time>2017-08-05T04:54:24.000Z</time>
      </trkpt>
      <trkpt lat="43.33644099533558" lon="-6.434577517211437">
        <ele>775.8</ele>
        <time>2017-08-05T04:54:25.000Z</time>
      </trkpt>
      <trkpt lat="43.33646991290152" lon="-6.434626970440149">
        <ele>775.4</ele>
        <time>2017-08-05T04:54:29.000Z</time>
      </trkpt>
      <trkpt lat="43.3364780433476" lon="-6.434635436162353">
        <ele>775.4</ele>
        <time>2017-08-05T04:54:30.000Z</time>
      </trkpt>
      <trkpt lat="43.33649824373424" lon="-6.434666449204087">
        <ele>775.2</ele>
        <time>2017-08-05T04:54:33.000Z</time>
      </trkpt>
      <trkpt lat="43.336505787447095" lon="-6.434680111706257">
        <ele>775</ele>
        <time>2017-08-05T04:54:34.000Z</time>
      </trkpt>
      <trkpt lat="43.33655817434192" lon="-6.434724032878876">
        <ele>775</ele>
        <time>2017-08-05T04:54:39.000Z</time>
      </trkpt>
      <trkpt lat="43.33657586015761" lon="-6.434752698987722">
        <ele>774.4</ele>
        <time>2017-08-05T04:54:41.000Z</time>
      </trkpt>
      <trkpt lat="43.33660435862839" lon="-6.434776587411761">
        <ele>774.8</ele>
        <time>2017-08-05T04:54:45.000Z</time>
      </trkpt>
      <trkpt lat="43.33660905249417" lon="-6.434794524684548">
        <ele>774.6</ele>
        <time>2017-08-05T04:54:47.000Z</time>
      </trkpt>
      <trkpt lat="43.33666143938899" lon="-6.434850767254829">
        <ele>774.6</ele>
        <time>2017-08-05T04:54:52.000Z</time>
      </trkpt>
      <trkpt lat="43.33672690205276" lon="-6.434917990118265">
        <ele>775.2</ele>
        <time>2017-08-05T04:54:59.000Z</time>
      </trkpt>
      <trkpt lat="43.33678247407079" lon="-6.434976160526276">
        <ele>776.2</ele>
        <time>2017-08-05T04:55:06.000Z</time>
      </trkpt>
      <trkpt lat="43.3368213661015" lon="-6.435022009536624">
        <ele>776.8</ele>
        <time>2017-08-05T04:55:11.000Z</time>
      </trkpt>
      <trkpt lat="43.33685849793255" lon="-6.435066936537623">
        <ele>777.4</ele>
        <time>2017-08-05T04:55:15.000Z</time>
      </trkpt>
      <trkpt lat="43.33687140606344" lon="-6.435079341754317">
        <ele>777.8</ele>
        <time>2017-08-05T04:55:16.000Z</time>
      </trkpt>
      <trkpt lat="43.33691440522671" lon="-6.435160730034113">
        <ele>778.6</ele>
        <time>2017-08-05T04:55:22.000Z</time>
      </trkpt>
      <trkpt lat="43.33694474771619" lon="-6.435252092778683">
        <ele>779.2</ele>
        <time>2017-08-05T04:55:27.000Z</time>
      </trkpt>
      <trkpt lat="43.336952878162265" lon="-6.435267934575677">
        <ele>779.8</ele>
        <time>2017-08-05T04:55:28.000Z</time>
      </trkpt>
      <trkpt lat="43.33696545101702" lon="-6.435350999236107">
        <ele>780.4</ele>
        <time>2017-08-05T04:55:32.000Z</time>
      </trkpt>
      <trkpt lat="43.33697232417762" lon="-6.4353761449456215">
        <ele>780.6</ele>
        <time>2017-08-05T04:55:34.000Z</time>
      </trkpt>
      <trkpt lat="43.33698053844273" lon="-6.435432890430093">
        <ele>781.2</ele>
        <time>2017-08-05T04:55:38.000Z</time>
      </trkpt>
      <trkpt lat="43.33698523230851" lon="-6.435517044737935">
        <ele>781.4</ele>
        <time>2017-08-05T04:55:43.000Z</time>
      </trkpt>
      <trkpt lat="43.33699277602136" lon="-6.435636905953288">
        <ele>781.4</ele>
        <time>2017-08-05T04:55:50.000Z</time>
      </trkpt>
      <trkpt lat="43.33699814043939" lon="-6.435665152966976">
        <ele>781.6</ele>
        <time>2017-08-05T04:55:52.000Z</time>
      </trkpt>
      <trkpt lat="43.33699956536293" lon="-6.435726257041097">
        <ele>781.4</ele>
        <time>2017-08-05T04:55:56.000Z</time>
      </trkpt>
      <trkpt lat="43.33700492978096" lon="-6.435739584267139">
        <ele>781.8</ele>
        <time>2017-08-05T04:55:57.000Z</time>
      </trkpt>
      <trkpt lat="43.3370047621429" lon="-6.435805214568973">
        <ele>781.8</ele>
        <time>2017-08-05T04:56:01.000Z</time>
      </trkpt>
      <trkpt lat="43.33700057119131" lon="-6.435926919803023">
        <ele>781.4</ele>
        <time>2017-08-05T04:56:09.000Z</time>
      </trkpt>
      <trkpt lat="43.33699378184974" lon="-6.436009565368295">
        <ele>781.2</ele>
        <time>2017-08-05T04:56:15.000Z</time>
      </trkpt>
      <trkpt lat="43.33698305301368" lon="-6.4361353777348995">
        <ele>780.6</ele>
        <time>2017-08-05T04:56:23.000Z</time>
      </trkpt>
      <trkpt lat="43.33698741160333" lon="-6.436176197603345">
        <ele>780.8</ele>
        <time>2017-08-05T04:56:26.000Z</time>
      </trkpt>
      <trkpt lat="43.33697651512921" lon="-6.436227913945913">
        <ele>780.2</ele>
        <time>2017-08-05T04:56:30.000Z</time>
      </trkpt>
      <trkpt lat="43.33698531612754" lon="-6.436344506219029">
        <ele>780.6</ele>
        <time>2017-08-05T04:56:38.000Z</time>
      </trkpt>
      <trkpt lat="43.33698397502303" lon="-6.436351211741567">
        <ele>780.6</ele>
        <time>2017-08-05T04:56:39.000Z</time>
      </trkpt>
      <trkpt lat="43.33699646405876" lon="-6.4364110585302114">
        <ele>781.2</ele>
        <time>2017-08-05T04:56:43.000Z</time>
      </trkpt>
      <trkpt lat="43.336998391896486" lon="-6.43646378070116">
        <ele>781.4</ele>
        <time>2017-08-05T04:56:47.000Z</time>
      </trkpt>
      <trkpt lat="43.33699847571552" lon="-6.436559502035379">
        <ele>781.2</ele>
        <time>2017-08-05T04:56:53.000Z</time>
      </trkpt>
      <trkpt lat="43.33700886927545" lon="-6.436636950820684">
        <ele>780.8</ele>
        <time>2017-08-05T04:56:58.000Z</time>
      </trkpt>
      <trkpt lat="43.33702345378697" lon="-6.436708029359579">
        <ele>781.4</ele>
        <time>2017-08-05T04:57:03.000Z</time>
      </trkpt>
      <trkpt lat="43.337025716900826" lon="-6.436762930825353">
        <ele>781.4</ele>
        <time>2017-08-05T04:57:07.000Z</time>
      </trkpt>
      <trkpt lat="43.337024208158255" lon="-6.436776509508491">
        <ele>781.4</ele>
        <time>2017-08-05T04:57:08.000Z</time>
      </trkpt>
      <trkpt lat="43.33702186122537" lon="-6.436795704066753">
        <ele>781.2</ele>
        <time>2017-08-05T04:57:09.000Z</time>
      </trkpt>
      <trkpt lat="43.33704633638263" lon="-6.436879187822342">
        <ele>782</ele>
        <time>2017-08-05T04:57:15.000Z</time>
      </trkpt>
      <trkpt lat="43.337050108239055" lon="-6.43691916950047">
        <ele>782</ele>
        <time>2017-08-05T04:57:18.000Z</time>
      </trkpt>
      <trkpt lat="43.33704952150583" lon="-6.436993097886443">
        <ele>782.4</ele>
        <time>2017-08-05T04:57:22.000Z</time>
      </trkpt>
      <trkpt lat="43.337049186229706" lon="-6.437058392912149">
        <ele>782.8</ele>
        <time>2017-08-05T04:57:26.000Z</time>
      </trkpt>
      <trkpt lat="43.33704750984907" lon="-6.43709602765739">
        <ele>783</ele>
        <time>2017-08-05T04:57:28.000Z</time>
      </trkpt>
      <trkpt lat="43.33704901859164" lon="-6.437230557203293">
        <ele>784.2</ele>
        <time>2017-08-05T04:57:36.000Z</time>
      </trkpt>
      <trkpt lat="43.337054969742894" lon="-6.437261234968901">
        <ele>784.6</ele>
        <time>2017-08-05T04:57:38.000Z</time>
      </trkpt>
      <trkpt lat="43.33705714903772" lon="-6.437331642955542">
        <ele>785.2</ele>
        <time>2017-08-05T04:57:42.000Z</time>
      </trkpt>
      <trkpt lat="43.337074499577284" lon="-6.437440607696772">
        <ele>786.6</ele>
        <time>2017-08-05T04:57:49.000Z</time>
      </trkpt>
      <trkpt lat="43.33708112128079" lon="-6.4375166315585375">
        <ele>787.4</ele>
        <time>2017-08-05T04:57:53.000Z</time>
      </trkpt>
      <trkpt lat="43.33708707243204" lon="-6.437528869137168">
        <ele>787.6</ele>
        <time>2017-08-05T04:57:54.000Z</time>
      </trkpt>
      <trkpt lat="43.33708816207945" lon="-6.43756072036922">
        <ele>787.8</ele>
        <time>2017-08-05T04:57:56.000Z</time>
      </trkpt>
      <trkpt lat="43.337098471820354" lon="-6.437624087557197">
        <ele>788.2</ele>
        <time>2017-08-05T04:58:00.000Z</time>
      </trkpt>
      <trkpt lat="43.337118085473776" lon="-6.43767555244267">
        <ele>788.8</ele>
        <time>2017-08-05T04:58:04.000Z</time>
      </trkpt>
      <trkpt lat="43.33711875602603" lon="-6.437692986801267">
        <ele>789</ele>
        <time>2017-08-05T04:58:05.000Z</time>
      </trkpt>
      <trkpt lat="43.33712328225374" lon="-6.437696004286408">
        <ele>789</ele>
        <time>2017-08-05T04:58:06.000Z</time>
      </trkpt>
      <trkpt lat="43.337124371901155" lon="-6.437753336504102">
        <ele>789.2</ele>
        <time>2017-08-05T04:58:09.000Z</time>
      </trkpt>
      <trkpt lat="43.33713409490883" lon="-6.437808405607939">
        <ele>789.4</ele>
        <time>2017-08-05T04:58:13.000Z</time>
      </trkpt>
      <trkpt lat="43.33715546876192" lon="-6.437892224639654">
        <ele>789.8</ele>
        <time>2017-08-05T04:58:19.000Z</time>
      </trkpt>
      <trkpt lat="43.33717105910182" lon="-6.437950311228633">
        <ele>790.2</ele>
        <time>2017-08-05T04:58:23.000Z</time>
      </trkpt>
      <trkpt lat="43.33718731999397" lon="-6.438031699508429">
        <ele>790.6</ele>
        <time>2017-08-05T04:58:28.000Z</time>
      </trkpt>
      <trkpt lat="43.33718388341367" lon="-6.438067238777876">
        <ele>789.8</ele>
        <time>2017-08-05T04:58:31.000Z</time>
      </trkpt>
      <trkpt lat="43.33720911294222" lon="-6.438104789704084">
        <ele>790.4</ele>
        <time>2017-08-05T04:58:34.000Z</time>
      </trkpt>
      <trkpt lat="43.337255297228694" lon="-6.438186848536134">
        <ele>791</ele>
        <time>2017-08-05T04:58:40.000Z</time>
      </trkpt>
      <trkpt lat="43.33729695528746" lon="-6.438229763880372">
        <ele>792</ele>
        <time>2017-08-05T04:58:44.000Z</time>
      </trkpt>
      <trkpt lat="43.33730575628579" lon="-6.438245689496398">
        <ele>792.2</ele>
        <time>2017-08-05T04:58:45.000Z</time>
      </trkpt>
      <trkpt lat="43.337363759055734" lon="-6.4383176900446415">
        <ele>793.4</ele>
        <time>2017-08-05T04:58:51.000Z</time>
      </trkpt>
      <trkpt lat="43.337441459298134" lon="-6.438400000333786">
        <ele>794.2</ele>
        <time>2017-08-05T04:58:59.000Z</time>
      </trkpt>
      <trkpt lat="43.3374863024801" lon="-6.438452387228608">
        <ele>794.2</ele>
        <time>2017-08-05T04:59:05.000Z</time>
      </trkpt>
      <trkpt lat="43.33753910847008" lon="-6.438502846285701">
        <ele>794.6</ele>
        <time>2017-08-05T04:59:11.000Z</time>
      </trkpt>
      <trkpt lat="43.33759761415422" lon="-6.4385471027344465">
        <ele>795.4</ele>
        <time>2017-08-05T04:59:17.000Z</time>
      </trkpt>
      <trkpt lat="43.3376453910023" lon="-6.438597058877349">
        <ele>795.8</ele>
        <time>2017-08-05T04:59:22.000Z</time>
      </trkpt>
      <trkpt lat="43.33769232966006" lon="-6.438644751906395">
        <ele>796</ele>
        <time>2017-08-05T04:59:26.000Z</time>
      </trkpt>
      <trkpt lat="43.33771571516991" lon="-6.438660426065326">
        <ele>796.2</ele>
        <time>2017-08-05T04:59:28.000Z</time>
      </trkpt>
      <trkpt lat="43.337760893628" lon="-6.438694708049297">
        <ele>796.4</ele>
        <time>2017-08-05T04:59:33.000Z</time>
      </trkpt>
      <trkpt lat="43.33777581341565" lon="-6.438710885122418">
        <ele>796.4</ele>
        <time>2017-08-05T04:59:35.000Z</time>
      </trkpt>
      <trkpt lat="43.33779316395521" lon="-6.438730917870998">
        <ele>796.2</ele>
        <time>2017-08-05T04:59:37.000Z</time>
      </trkpt>
      <trkpt lat="43.337813783437014" lon="-6.43875983543694">
        <ele>796</ele>
        <time>2017-08-05T04:59:43.000Z</time>
      </trkpt>
      <trkpt lat="43.33784521557391" lon="-6.438787998631597">
        <ele>796.2</ele>
        <time>2017-08-05T04:59:46.000Z</time>
      </trkpt>
      <trkpt lat="43.3378784917295" lon="-6.438804846256971">
        <ele>797.2</ele>
        <time>2017-08-05T04:59:49.000Z</time>
      </trkpt>
      <trkpt lat="43.33788771182299" lon="-6.438807360827923">
        <ele>797.6</ele>
        <time>2017-08-05T04:59:50.000Z</time>
      </trkpt>
      <trkpt lat="43.33789416588843" lon="-6.438801074400544">
        <ele>798</ele>
        <time>2017-08-05T04:59:51.000Z</time>
      </trkpt>
      <trkpt lat="43.33790640346706" lon="-6.438816832378507">
        <ele>798</ele>
        <time>2017-08-05T04:59:53.000Z</time>
      </trkpt>
      <trkpt lat="43.33797664381564" lon="-6.438862597569823">
        <ele>799.8</ele>
        <time>2017-08-05T05:00:00.000Z</time>
      </trkpt>
      <trkpt lat="43.33801067434251" lon="-6.438879864290357">
        <ele>800.6</ele>
        <time>2017-08-05T05:00:04.000Z</time>
      </trkpt>
      <trkpt lat="43.3380336407572" lon="-6.438893191516399">
        <ele>800.6</ele>
        <time>2017-08-05T05:00:06.000Z</time>
      </trkpt>
      <trkpt lat="43.338058702647686" lon="-6.4389214385300875">
        <ele>800</ele>
        <time>2017-08-05T05:00:09.000Z</time>
      </trkpt>
      <trkpt lat="43.33812475204468" lon="-6.438981285318732">
        <ele>799.2</ele>
        <time>2017-08-05T05:00:15.000Z</time>
      </trkpt>
      <trkpt lat="43.33813606761396" lon="-6.438988158479333">
        <ele>799.2</ele>
        <time>2017-08-05T05:00:16.000Z</time>
      </trkpt>
      <trkpt lat="43.33816942758858" lon="-6.439031744375825">
        <ele>798.8</ele>
        <time>2017-08-05T05:00:20.000Z</time>
      </trkpt>
      <trkpt lat="43.338213097304106" lon="-6.4390813652426">
        <ele>799.4</ele>
        <time>2017-08-05T05:00:25.000Z</time>
      </trkpt>
      <trkpt lat="43.33824905566871" lon="-6.4391096122562885">
        <ele>800.4</ele>
        <time>2017-08-05T05:00:28.000Z</time>
      </trkpt>
      <trkpt lat="43.33828451111913" lon="-6.439143558964133">
        <ele>801</ele>
        <time>2017-08-05T05:00:31.000Z</time>
      </trkpt>
      <trkpt lat="43.33833647891879" lon="-6.4391835406422615">
        <ele>801</ele>
        <time>2017-08-05T05:00:37.000Z</time>
      </trkpt>
      <trkpt lat="43.33842306397855" lon="-6.439254619181156">
        <ele>800.8</ele>
        <time>2017-08-05T05:00:44.000Z</time>
      </trkpt>
      <trkpt lat="43.33844888024032" lon="-6.439293511211872">
        <ele>800.8</ele>
        <time>2017-08-05T05:00:47.000Z</time>
      </trkpt>
      <trkpt lat="43.338443683460355" lon="-6.43931639380753">
        <ele>800.6</ele>
        <time>2017-08-05T05:00:49.000Z</time>
      </trkpt>
      <trkpt lat="43.33844946697354" lon="-6.43936425447464">
        <ele>800.4</ele>
        <time>2017-08-05T05:00:53.000Z</time>
      </trkpt>
      <trkpt lat="43.33845952525735" lon="-6.43936668522656">
        <ele>800.8</ele>
        <time>2017-08-05T05:00:54.000Z</time>
      </trkpt>
      <trkpt lat="43.338488107547164" lon="-6.439443463459611">
        <ele>801.4</ele>
        <time>2017-08-05T05:01:00.000Z</time>
      </trkpt>
      <trkpt lat="43.338488107547164" lon="-6.439461149275303">
        <ele>801.2</ele>
        <time>2017-08-05T05:01:01.000Z</time>
      </trkpt>
      <trkpt lat="43.338472517207265" lon="-6.439592158421874">
        <ele>799.8</ele>
        <time>2017-08-05T05:01:07.000Z</time>
      </trkpt>
      <trkpt lat="43.33846773952246" lon="-6.439612274989486">
        <ele>799.6</ele>
        <time>2017-08-05T05:01:08.000Z</time>
      </trkpt>
      <trkpt lat="43.33845810033381" lon="-6.43971118144691">
        <ele>799.4</ele>
        <time>2017-08-05T05:01:14.000Z</time>
      </trkpt>
      <trkpt lat="43.338453993201256" lon="-6.43974051810801">
        <ele>799.2</ele>
        <time>2017-08-05T05:01:16.000Z</time>
      </trkpt>
      <trkpt lat="43.33844938315451" lon="-6.4398079086095095">
        <ele>798.8</ele>
        <time>2017-08-05T05:01:20.000Z</time>
      </trkpt>
      <trkpt lat="43.33844896405935" lon="-6.43982257694006">
        <ele>798.8</ele>
        <time>2017-08-05T05:01:21.000Z</time>
      </trkpt>
      <trkpt lat="43.338443683460355" lon="-6.439835065975785">
        <ele>798.4</ele>
        <time>2017-08-05T05:01:22.000Z</time>
      </trkpt>
      <trkpt lat="43.33844410255551" lon="-6.439898097887635">
        <ele>798.6</ele>
        <time>2017-08-05T05:01:26.000Z</time>
      </trkpt>
      <trkpt lat="43.33844292908907" lon="-6.439997674897313">
        <ele>798.6</ele>
        <time>2017-08-05T05:01:32.000Z</time>
      </trkpt>
      <trkpt lat="43.33844100125134" lon="-6.440014857798815">
        <ele>798.4</ele>
        <time>2017-08-05T05:01:33.000Z</time>
      </trkpt>
      <trkpt lat="43.33843463100493" lon="-6.44007814116776">
        <ele>798.2</ele>
        <time>2017-08-05T05:01:37.000Z</time>
      </trkpt>
      <trkpt lat="43.33843278698623" lon="-6.4400894567370415">
        <ele>798.2</ele>
        <time>2017-08-05T05:01:38.000Z</time>
      </trkpt>
      <trkpt lat="43.33843672648072" lon="-6.4401680789887905">
        <ele>798.4</ele>
        <time>2017-08-05T05:01:42.000Z</time>
      </trkpt>
      <trkpt lat="43.338444605469704" lon="-6.440192135050893">
        <ele>798.6</ele>
        <time>2017-08-05T05:01:43.000Z</time>
      </trkpt>
      <trkpt lat="43.338443264365196" lon="-6.440210239961743">
        <ele>798.6</ele>
        <time>2017-08-05T05:01:44.000Z</time>
      </trkpt>
      <trkpt lat="43.33844250999391" lon="-6.440312415361404">
        <ele>798.4</ele>
        <time>2017-08-05T05:01:50.000Z</time>
      </trkpt>
      <trkpt lat="43.338432954624295" lon="-6.44039086997509">
        <ele>797.8</ele>
        <time>2017-08-05T05:01:54.000Z</time>
      </trkpt>
      <trkpt lat="43.338435804471374" lon="-6.440406879410148">
        <ele>797.8</ele>
        <time>2017-08-05T05:01:55.000Z</time>
      </trkpt>
      <trkpt lat="43.33844770677388" lon="-6.440439820289612">
        <ele>798.2</ele>
        <time>2017-08-05T05:01:58.000Z</time>
      </trkpt>
      <trkpt lat="43.33845139481127" lon="-6.440490446984768">
        <ele>798</ele>
        <time>2017-08-05T05:02:00.000Z</time>
      </trkpt>
      <trkpt lat="43.338462794199586" lon="-6.440524058416486">
        <ele>798.2</ele>
        <time>2017-08-05T05:02:02.000Z</time>
      </trkpt>
      <trkpt lat="43.33847226575017" lon="-6.440578373149037">
        <ele>798.4</ele>
        <time>2017-08-05T05:02:05.000Z</time>
      </trkpt>
      <trkpt lat="43.338494980707765" lon="-6.440663365647197">
        <ele>798.6</ele>
        <time>2017-08-05T05:02:10.000Z</time>
      </trkpt>
      <trkpt lat="43.33849422633648" lon="-6.440676860511303">
        <ele>798.4</ele>
        <time>2017-08-05T05:02:11.000Z</time>
      </trkpt>
      <trkpt lat="43.33851182833314" lon="-6.440748358145356">
        <ele>798.4</ele>
        <time>2017-08-05T05:02:16.000Z</time>
      </trkpt>
      <trkpt lat="43.338552145287395" lon="-6.440818766131997">
        <ele>799.4</ele>
        <time>2017-08-05T05:02:21.000Z</time>
      </trkpt>
      <trkpt lat="43.338563377037644" lon="-6.440833518281579">
        <ele>799.6</ele>
        <time>2017-08-05T05:02:22.000Z</time>
      </trkpt>
      <trkpt lat="43.33856890909374" lon="-6.440854053944349">
        <ele>799.4</ele>
        <time>2017-08-05T05:02:23.000Z</time>
      </trkpt>
      <trkpt lat="43.33860998041928" lon="-6.4409249648451805">
        <ele>799.4</ele>
        <time>2017-08-05T05:02:28.000Z</time>
      </trkpt>
      <trkpt lat="43.33867569454014" lon="-6.441002916544676">
        <ele>800.2</ele>
        <time>2017-08-05T05:02:34.000Z</time>
      </trkpt>
      <trkpt lat="43.338734451681376" lon="-6.441082209348679">
        <ele>800.6</ele>
        <time>2017-08-05T05:02:41.000Z</time>
      </trkpt>
      <trkpt lat="43.338754903525114" lon="-6.441143564879894">
        <ele>800</ele>
        <time>2017-08-05T05:02:45.000Z</time>
      </trkpt>
      <trkpt lat="43.33877376280725" lon="-6.441181618720293">
        <ele>799.8</ele>
        <time>2017-08-05T05:02:48.000Z</time>
      </trkpt>
      <trkpt lat="43.33882313221693" lon="-6.441271640360355">
        <ele>799.4</ele>
        <time>2017-08-05T05:02:54.000Z</time>
      </trkpt>
      <trkpt lat="43.338849199935794" lon="-6.441292176023126">
        <ele>799.8</ele>
        <time>2017-08-05T05:02:57.000Z</time>
      </trkpt>
      <trkpt lat="43.33887057378888" lon="-6.4413055870682">
        <ele>800.2</ele>
        <time>2017-08-05T05:02:59.000Z</time>
      </trkpt>
      <trkpt lat="43.33890267647803" lon="-6.4413469936698675">
        <ele>800.4</ele>
        <time>2017-08-05T05:03:04.000Z</time>
      </trkpt>
      <trkpt lat="43.338908879086375" lon="-6.441354285925627">
        <ele>800.6</ele>
        <time>2017-08-05T05:03:05.000Z</time>
      </trkpt>
      <trkpt lat="43.33891726098955" lon="-6.441356800496578">
        <ele>800.8</ele>
        <time>2017-08-05T05:03:07.000Z</time>
      </trkpt>
      <trkpt lat="43.33893938921392" lon="-6.441372809931636">
        <ele>801.4</ele>
        <time>2017-08-05T05:03:10.000Z</time>
      </trkpt>
      <trkpt lat="43.33896520547569" lon="-6.441388316452503">
        <ele>802.2</ele>
        <time>2017-08-05T05:03:15.000Z</time>
      </trkpt>
      <trkpt lat="43.3390096295625" lon="-6.441467944532633">
        <ele>803</ele>
        <time>2017-08-05T05:03:21.000Z</time>
      </trkpt>
      <trkpt lat="43.33900837227702" lon="-6.441492754966021">
        <ele>802.6</ele>
        <time>2017-08-05T05:03:23.000Z</time>
      </trkpt>
      <trkpt lat="43.339013988152146" lon="-6.441533658653498">
        <ele>802.4</ele>
        <time>2017-08-05T05:03:26.000Z</time>
      </trkpt>
      <trkpt lat="43.33901415579021" lon="-6.441633319482207">
        <ele>801.4</ele>
        <time>2017-08-05T05:03:32.000Z</time>
      </trkpt>
      <trkpt lat="43.33901599980891" lon="-6.441653100773692">
        <ele>801.2</ele>
        <time>2017-08-05T05:03:33.000Z</time>
      </trkpt>
      <trkpt lat="43.33902832120657" lon="-6.441718647256494">
        <ele>801.2</ele>
        <time>2017-08-05T05:03:37.000Z</time>
      </trkpt>
      <trkpt lat="43.33904013969004" lon="-6.44174337387085">
        <ele>801.4</ele>
        <time>2017-08-05T05:03:39.000Z</time>
      </trkpt>
      <trkpt lat="43.33904206752777" lon="-6.441776817664504">
        <ele>801</ele>
        <time>2017-08-05T05:03:41.000Z</time>
      </trkpt>
      <trkpt lat="43.3390405587852" lon="-6.441854769363999">
        <ele>800.2</ele>
        <time>2017-08-05T05:03:46.000Z</time>
      </trkpt>
      <trkpt lat="43.33907919935882" lon="-6.441906150430441">
        <ele>800.8</ele>
        <time>2017-08-05T05:03:51.000Z</time>
      </trkpt>
      <trkpt lat="43.33911205641925" lon="-6.441984353587031">
        <ele>801.4</ele>
        <time>2017-08-05T05:03:58.000Z</time>
      </trkpt>
      <trkpt lat="43.339116582646966" lon="-6.442004134878516">
        <ele>801.4</ele>
        <time>2017-08-05T05:03:59.000Z</time>
      </trkpt>
      <trkpt lat="43.33915388211608" lon="-6.442053923383355">
        <ele>802.2</ele>
        <time>2017-08-05T05:04:04.000Z</time>
      </trkpt>
      <trkpt lat="43.339161928743124" lon="-6.442061886191368">
        <ele>802.4</ele>
        <time>2017-08-05T05:04:05.000Z</time>
      </trkpt>
      <trkpt lat="43.33919445052743" lon="-6.442118212580681">
        <ele>803.2</ele>
        <time>2017-08-05T05:04:10.000Z</time>
      </trkpt>
      <trkpt lat="43.33920048549771" lon="-6.4421348087489605">
        <ele>803.4</ele>
        <time>2017-08-05T05:04:11.000Z</time>
      </trkpt>
      <trkpt lat="43.33924490958452" lon="-6.4421807415783405">
        <ele>804.6</ele>
        <time>2017-08-05T05:04:16.000Z</time>
      </trkpt>
      <trkpt lat="43.339265529066324" lon="-6.442198259755969">
        <ele>805.2</ele>
        <time>2017-08-05T05:04:18.000Z</time>
      </trkpt>
      <trkpt lat="43.33928296342492" lon="-6.442227177321911">
        <ele>805.6</ele>
        <time>2017-08-05T05:04:21.000Z</time>
      </trkpt>
      <trkpt lat="43.33930970169604" lon="-6.442280486226082">
        <ele>806.2</ele>
        <time>2017-08-05T05:04:26.000Z</time>
      </trkpt>
      <trkpt lat="43.339316826313734" lon="-6.442307895049453">
        <ele>806.2</ele>
        <time>2017-08-05T05:04:29.000Z</time>
      </trkpt>
      <trkpt lat="43.33933359012008" lon="-6.442326921969652">
        <ele>806.6</ele>
        <time>2017-08-05T05:04:32.000Z</time>
      </trkpt>
      <trkpt lat="43.339343229308724" lon="-6.442400347441435">
        <ele>806</ele>
        <time>2017-08-05T05:04:37.000Z</time>
      </trkpt>
      <trkpt lat="43.33934155292809" lon="-6.442426750436425">
        <ele>805.8</ele>
        <time>2017-08-05T05:04:39.000Z</time>
      </trkpt>
      <trkpt lat="43.33934674970806" lon="-6.442506546154618">
        <ele>805.2</ele>
        <time>2017-08-05T05:04:43.000Z</time>
      </trkpt>
      <trkpt lat="43.33934658206999" lon="-6.442559435963631">
        <ele>805</ele>
        <time>2017-08-05T05:04:47.000Z</time>
      </trkpt>
      <trkpt lat="43.339364267885685" lon="-6.442604111507535">
        <ele>805.8</ele>
        <time>2017-08-05T05:04:49.000Z</time>
      </trkpt>
      <trkpt lat="43.33940885961056" lon="-6.442662449553609">
        <ele>808.2</ele>
        <time>2017-08-05T05:04:51.000Z</time>
      </trkpt>
      <trkpt lat="43.3394137211144" lon="-6.442727157846093">
        <ele>808.6</ele>
        <time>2017-08-05T05:04:55.000Z</time>
      </trkpt>
      <trkpt lat="43.33942268975079" lon="-6.442765379324555">
        <ele>809.2</ele>
        <time>2017-08-05T05:04:58.000Z</time>
      </trkpt>
      <trkpt lat="43.339424366131425" lon="-6.4427936263382435">
        <ele>809.4</ele>
        <time>2017-08-05T05:05:00.000Z</time>
      </trkpt>
      <trkpt lat="43.33943107165396" lon="-6.44286286085844">
        <ele>809.6</ele>
        <time>2017-08-05T05:05:04.000Z</time>
      </trkpt>
      <trkpt lat="43.33942595869303" lon="-6.442869734019041">
        <ele>809.4</ele>
        <time>2017-08-05T05:05:05.000Z</time>
      </trkpt>
      <trkpt lat="43.33942654542625" lon="-6.442914744839072">
        <ele>809.4</ele>
        <time>2017-08-05T05:05:07.000Z</time>
      </trkpt>
      <trkpt lat="43.33944381214678" lon="-6.443007867783308">
        <ele>810.4</ele>
        <time>2017-08-05T05:05:13.000Z</time>
      </trkpt>
      <trkpt lat="43.33944657817483" lon="-6.443021195009351">
        <ele>810.6</ele>
        <time>2017-08-05T05:05:14.000Z</time>
      </trkpt>
      <trkpt lat="43.33945529535413" lon="-6.443131500855088">
        <ele>811.8</ele>
        <time>2017-08-05T05:05:21.000Z</time>
      </trkpt>
      <trkpt lat="43.33945211023092" lon="-6.443203669041395">
        <ele>812.2</ele>
        <time>2017-08-05T05:05:26.000Z</time>
      </trkpt>
      <trkpt lat="43.3394586481154" lon="-6.443240884691477">
        <ele>812.8</ele>
        <time>2017-08-05T05:05:28.000Z</time>
      </trkpt>
      <trkpt lat="43.339441046118736" lon="-6.4434141386300325">
        <ele>812.6</ele>
        <time>2017-08-05T05:05:33.000Z</time>
      </trkpt>
      <trkpt lat="43.33944456651807" lon="-6.4434335846453905">
        <ele>812.8</ele>
        <time>2017-08-05T05:05:35.000Z</time>
      </trkpt>
      <trkpt lat="43.33944666199386" lon="-6.443454036489129">
        <ele>813</ele>
        <time>2017-08-05T05:05:36.000Z</time>
      </trkpt>
      <trkpt lat="43.33947256207466" lon="-6.4435625821352005">
        <ele>814.6</ele>
        <time>2017-08-05T05:05:43.000Z</time>
      </trkpt>
      <trkpt lat="43.33947499282658" lon="-6.443609772250056">
        <ele>814.4</ele>
        <time>2017-08-05T05:05:47.000Z</time>
      </trkpt>
      <trkpt lat="43.339488822966814" lon="-6.443635672330856">
        <ele>814.8</ele>
        <time>2017-08-05T05:05:49.000Z</time>
      </trkpt>
      <trkpt lat="43.339512376114726" lon="-6.443706750869751">
        <ele>815.4</ele>
        <time>2017-08-05T05:05:55.000Z</time>
      </trkpt>
      <trkpt lat="43.33953198976815" lon="-6.4437713753432035">
        <ele>816</ele>
        <time>2017-08-05T05:06:00.000Z</time>
      </trkpt>
      <trkpt lat="43.33954732865095" lon="-6.4438544400036335">
        <ele>816.4</ele>
        <time>2017-08-05T05:06:06.000Z</time>
      </trkpt>
      <trkpt lat="43.33958194591105" lon="-6.443929625675082">
        <ele>817.8</ele>
        <time>2017-08-05T05:06:11.000Z</time>
      </trkpt>
      <trkpt lat="43.33961455151439" lon="-6.44399793818593">
        <ele>818.6</ele>
        <time>2017-08-05T05:06:17.000Z</time>
      </trkpt>
      <trkpt lat="43.33966794423759" lon="-6.4440585393458605">
        <ele>820.6</ele>
        <time>2017-08-05T05:06:24.000Z</time>
      </trkpt>
      <trkpt lat="43.33967758342624" lon="-6.444068932905793">
        <ele>820.8</ele>
        <time>2017-08-05T05:06:25.000Z</time>
      </trkpt>
      <trkpt lat="43.339693592861295" lon="-6.444077650085092">
        <ele>821.6</ele>
        <time>2017-08-05T05:06:27.000Z</time>
      </trkpt>
      <trkpt lat="43.33971982821822" lon="-6.44411570392549">
        <ele>822.4</ele>
        <time>2017-08-05T05:06:31.000Z</time>
      </trkpt>
      <trkpt lat="43.33974405191839" lon="-6.4441376645118">
        <ele>823.2</ele>
        <time>2017-08-05T05:06:34.000Z</time>
      </trkpt>
      <trkpt lat="43.339772215113044" lon="-6.444186698645353">
        <ele>823.6</ele>
        <time>2017-08-05T05:06:38.000Z</time>
      </trkpt>
      <trkpt lat="43.339817225933075" lon="-6.44423539750278">
        <ele>824.8</ele>
        <time>2017-08-05T05:06:43.000Z</time>
      </trkpt>
      <trkpt lat="43.3398437127471" lon="-6.444258531555533">
        <ele>825.4</ele>
        <time>2017-08-05T05:06:46.000Z</time>
      </trkpt>
      <trkpt lat="43.33986232057214" lon="-6.44427789375186">
        <ele>825.6</ele>
        <time>2017-08-05T05:06:48.000Z</time>
      </trkpt>
      <trkpt lat="43.3399245981127" lon="-6.444349642843008">
        <ele>825.4</ele>
        <time>2017-08-05T05:06:55.000Z</time>
      </trkpt>
      <trkpt lat="43.33997958339751" lon="-6.444401778280735">
        <ele>826</ele>
        <time>2017-08-05T05:07:01.000Z</time>
      </trkpt>
      <trkpt lat="43.34001160226762" lon="-6.444430947303772">
        <ele>826.8</ele>
        <time>2017-08-05T05:07:04.000Z</time>
      </trkpt>
      <trkpt lat="43.34003641270101" lon="-6.444454668089747">
        <ele>827.2</ele>
        <time>2017-08-05T05:07:07.000Z</time>
      </trkpt>
      <trkpt lat="43.340057199820876" lon="-6.444472689181566">
        <ele>827.8</ele>
        <time>2017-08-05T05:07:09.000Z</time>
      </trkpt>
      <trkpt lat="43.34007740020752" lon="-6.444485010579228">
        <ele>828.4</ele>
        <time>2017-08-05T05:07:11.000Z</time>
      </trkpt>
      <trkpt lat="43.340093828737736" lon="-6.444492219015956">
        <ele>829</ele>
        <time>2017-08-05T05:07:13.000Z</time>
      </trkpt>
      <trkpt lat="43.34016038104892" lon="-6.444528512656689">
        <ele>831</ele>
        <time>2017-08-05T05:07:20.000Z</time>
      </trkpt>
      <trkpt lat="43.34019307047129" lon="-6.444550305604935">
        <ele>831.4</ele>
        <time>2017-08-05T05:07:23.000Z</time>
      </trkpt>
      <trkpt lat="43.340234979987144" lon="-6.444585090503097">
        <ele>831.8</ele>
        <time>2017-08-05T05:07:28.000Z</time>
      </trkpt>
      <trkpt lat="43.34024394862354" lon="-6.4445907063782215">
        <ele>832</ele>
        <time>2017-08-05T05:07:29.000Z</time>
      </trkpt>
      <trkpt lat="43.340266244485974" lon="-6.4446198754012585">
        <ele>832</ele>
        <time>2017-08-05T05:07:32.000Z</time>
      </trkpt>
      <trkpt lat="43.34027328528464" lon="-6.444628424942493">
        <ele>832</ele>
        <time>2017-08-05T05:07:33.000Z</time>
      </trkpt>
      <trkpt lat="43.34031921811402" lon="-6.4446967374533415">
        <ele>832.2</ele>
        <time>2017-08-05T05:07:39.000Z</time>
      </trkpt>
      <trkpt lat="43.340394236147404" lon="-6.444755997508764">
        <ele>834.4</ele>
        <time>2017-08-05T05:07:46.000Z</time>
      </trkpt>
      <trkpt lat="43.34044151008129" lon="-6.444783071056008">
        <ele>836.2</ele>
        <time>2017-08-05T05:07:51.000Z</time>
      </trkpt>
      <trkpt lat="43.340451484546065" lon="-6.4447936322540045">
        <ele>836.2</ele>
        <time>2017-08-05T05:07:52.000Z</time>
      </trkpt>
      <trkpt lat="43.340484173968434" lon="-6.444829758256674">
        <ele>836.4</ele>
        <time>2017-08-05T05:07:56.000Z</time>
      </trkpt>
      <trkpt lat="43.340504206717014" lon="-6.444840654730797">
        <ele>836.8</ele>
        <time>2017-08-05T05:07:58.000Z</time>
      </trkpt>
      <trkpt lat="43.340543853119016" lon="-6.444879211485386">
        <ele>836.4</ele>
        <time>2017-08-05T05:08:03.000Z</time>
      </trkpt>
      <trkpt lat="43.3406035322696" lon="-6.44492975436151">
        <ele>836</ele>
        <time>2017-08-05T05:08:10.000Z</time>
      </trkpt>
      <trkpt lat="43.34061409346759" lon="-6.444936627522111">
        <ele>836</ele>
        <time>2017-08-05T05:08:11.000Z</time>
      </trkpt>
      <trkpt lat="43.34064535796642" lon="-6.444955570623279">
        <ele>836.4</ele>
        <time>2017-08-05T05:08:14.000Z</time>
      </trkpt>
      <trkpt lat="43.34066237322986" lon="-6.444966467097402">
        <ele>836.6</ele>
        <time>2017-08-05T05:08:16.000Z</time>
      </trkpt>
      <trkpt lat="43.340698666870594" lon="-6.444992534816265">
        <ele>836.8</ele>
        <time>2017-08-05T05:08:20.000Z</time>
      </trkpt>
      <trkpt lat="43.340735882520676" lon="-6.445027654990554">
        <ele>836.4</ele>
        <time>2017-08-05T05:08:24.000Z</time>
      </trkpt>
      <trkpt lat="43.340782234445214" lon="-6.445069061592221">
        <ele>836.6</ele>
        <time>2017-08-05T05:08:30.000Z</time>
      </trkpt>
      <trkpt lat="43.34078751504421" lon="-6.445079203695059">
        <ele>836.6</ele>
        <time>2017-08-05T05:08:31.000Z</time>
      </trkpt>
      <trkpt lat="43.340819953009486" lon="-6.445120358839631">
        <ele>835.8</ele>
        <time>2017-08-05T05:08:35.000Z</time>
      </trkpt>
      <trkpt lat="43.340861862525344" lon="-6.4451405592262745">
        <ele>836.2</ele>
        <time>2017-08-05T05:08:39.000Z</time>
      </trkpt>
      <trkpt lat="43.34090913645923" lon="-6.445170985534787">
        <ele>836.4</ele>
        <time>2017-08-05T05:08:44.000Z</time>
      </trkpt>
      <trkpt lat="43.34093461744487" lon="-6.4451915211975574">
        <ele>836.4</ele>
        <time>2017-08-05T05:08:47.000Z</time>
      </trkpt>
      <trkpt lat="43.34095263853669" lon="-6.445212140679359">
        <ele>836.4</ele>
        <time>2017-08-05T05:08:49.000Z</time>
      </trkpt>
      <trkpt lat="43.34099664352834" lon="-6.445237873122096">
        <ele>836.8</ele>
        <time>2017-08-05T05:08:53.000Z</time>
      </trkpt>
      <trkpt lat="43.34108708426356" lon="-6.445279447361827">
        <ele>838.2</ele>
        <time>2017-08-05T05:09:02.000Z</time>
      </trkpt>
      <trkpt lat="43.34114441648126" lon="-6.4452919363975525">
        <ele>839.6</ele>
        <time>2017-08-05T05:09:08.000Z</time>
      </trkpt>
      <trkpt lat="43.34120317362249" lon="-6.445331331342459">
        <ele>840.4</ele>
        <time>2017-08-05T05:09:15.000Z</time>
      </trkpt>
      <trkpt lat="43.341247430071235" lon="-6.445371983572841">
        <ele>840.8</ele>
        <time>2017-08-05T05:09:21.000Z</time>
      </trkpt>
      <trkpt lat="43.34127408452332" lon="-6.4454135578125715">
        <ele>841.6</ele>
        <time>2017-08-05T05:09:26.000Z</time>
      </trkpt>
      <trkpt lat="43.34127567708492" lon="-6.4454209338873625">
        <ele>841.4</ele>
        <time>2017-08-05T05:09:27.000Z</time>
      </trkpt>
      <trkpt lat="43.34128732793033" lon="-6.445457898080349">
        <ele>841.4</ele>
        <time>2017-08-05T05:09:31.000Z</time>
      </trkpt>
      <trkpt lat="43.34129855968058" lon="-6.445521684363484">
        <ele>841.2</ele>
        <time>2017-08-05T05:09:33.000Z</time>
      </trkpt>
      <trkpt lat="43.341304594650865" lon="-6.44553660415113">
        <ele>841.2</ele>
        <time>2017-08-05T05:09:35.000Z</time>
      </trkpt>
      <trkpt lat="43.34131624549627" lon="-6.4455740712583065">
        <ele>841.4</ele>
        <time>2017-08-05T05:09:38.000Z</time>
      </trkpt>
      <trkpt lat="43.34132571704686" lon="-6.445600390434265">
        <ele>841.8</ele>
        <time>2017-08-05T05:09:40.000Z</time>
      </trkpt>
      <trkpt lat="43.34133309312165" lon="-6.445614974945784">
        <ele>842.2</ele>
        <time>2017-08-05T05:09:41.000Z</time>
      </trkpt>
      <trkpt lat="43.3413475099951" lon="-6.445661159232259">
        <ele>842.8</ele>
        <time>2017-08-05T05:09:44.000Z</time>
      </trkpt>
      <trkpt lat="43.34134675562382" lon="-6.445676581934094">
        <ele>842.6</ele>
        <time>2017-08-05T05:09:46.000Z</time>
      </trkpt>
      <trkpt lat="43.34134683944285" lon="-6.445690495893359">
        <ele>842.6</ele>
        <time>2017-08-05T05:09:47.000Z</time>
      </trkpt>
      <trkpt lat="43.341351952403784" lon="-6.445760820060968">
        <ele>842.6</ele>
        <time>2017-08-05T05:09:52.000Z</time>
      </trkpt>
      <trkpt lat="43.34135371260345" lon="-6.445789905264974">
        <ele>842.6</ele>
        <time>2017-08-05T05:09:54.000Z</time>
      </trkpt>
      <trkpt lat="43.34134499542415" lon="-6.445838185027242">
        <ele>842.6</ele>
        <time>2017-08-05T05:09:57.000Z</time>
      </trkpt>
      <trkpt lat="43.34134440869093" lon="-6.445865258574486">
        <ele>843.2</ele>
        <time>2017-08-05T05:09:59.000Z</time>
      </trkpt>
      <trkpt lat="43.34134457632899" lon="-6.445929799228907">
        <ele>844.8</ele>
        <time>2017-08-05T05:10:04.000Z</time>
      </trkpt>
      <trkpt lat="43.34132672287524" lon="-6.446000291034579">
        <ele>845.6</ele>
        <time>2017-08-05T05:10:09.000Z</time>
      </trkpt>
      <trkpt lat="43.341308031231165" lon="-6.44602669402957">
        <ele>845.2</ele>
        <time>2017-08-05T05:10:13.000Z</time>
      </trkpt>
      <trkpt lat="43.34130392409861" lon="-6.446028873324394">
        <ele>845</ele>
        <time>2017-08-05T05:10:14.000Z</time>
      </trkpt>
      <trkpt lat="43.34128917194903" lon="-6.446047984063625">
        <ele>844.8</ele>
        <time>2017-08-05T05:10:18.000Z</time>
      </trkpt>
      <trkpt lat="43.34127073176205" lon="-6.446080673485994">
        <ele>844.6</ele>
        <time>2017-08-05T05:10:23.000Z</time>
      </trkpt>
      <trkpt lat="43.3412457536906" lon="-6.446134066209197">
        <ele>845</ele>
        <time>2017-08-05T05:10:29.000Z</time>
      </trkpt>
      <trkpt lat="43.34124382585287" lon="-6.446166755631566">
        <ele>846</ele>
        <time>2017-08-05T05:10:31.000Z</time>
      </trkpt>
      <trkpt lat="43.341235779225826" lon="-6.446190057322383">
        <ele>846.4</ele>
        <time>2017-08-05T05:10:33.000Z</time>
      </trkpt>
      <trkpt lat="43.341229325160384" lon="-6.446187375113368">
        <ele>846</ele>
        <time>2017-08-05T05:10:34.000Z</time>
      </trkpt>
      <trkpt lat="43.34122127853334" lon="-6.446226937696338">
        <ele>847</ele>
        <time>2017-08-05T05:10:36.000Z</time>
      </trkpt>
      <trkpt lat="43.34121348336339" lon="-6.446287119761109">
        <ele>848.6</ele>
        <time>2017-08-05T05:10:40.000Z</time>
      </trkpt>
      <trkpt lat="43.34120459854603" lon="-6.446328861638904">
        <ele>849.4</ele>
        <time>2017-08-05T05:10:43.000Z</time>
      </trkpt>
      <trkpt lat="43.34119303151965" lon="-6.446355516090989">
        <ele>849.8</ele>
        <time>2017-08-05T05:10:44.000Z</time>
      </trkpt>
      <trkpt lat="43.34117727354169" lon="-6.44639952108264">
        <ele>850.4</ele>
        <time>2017-08-05T05:10:47.000Z</time>
      </trkpt>
      <trkpt lat="43.34117081947625" lon="-6.4464072324335575">
        <ele>850.4</ele>
        <time>2017-08-05T05:10:48.000Z</time>
      </trkpt>
      <trkpt lat="43.34113041870296" lon="-6.446497337892652">
        <ele>851.2</ele>
        <time>2017-08-05T05:10:54.000Z</time>
      </trkpt>
      <trkpt lat="43.34109228104353" lon="-6.446598172187805">
        <ele>852.6</ele>
        <time>2017-08-05T05:11:00.000Z</time>
      </trkpt>
      <trkpt lat="43.341076355427504" lon="-6.4466142654418945">
        <ele>852.2</ele>
        <time>2017-08-05T05:11:02.000Z</time>
      </trkpt>
      <trkpt lat="43.34106202237308" lon="-6.44664871506393">
        <ele>852.6</ele>
        <time>2017-08-05T05:11:05.000Z</time>
      </trkpt>
      <trkpt lat="43.341061770915985" lon="-6.446665143594146">
        <ele>853.2</ele>
        <time>2017-08-05T05:11:06.000Z</time>
      </trkpt>
      <trkpt lat="43.34103964269161" lon="-6.446709232404828">
        <ele>853.4</ele>
        <time>2017-08-05T05:11:10.000Z</time>
      </trkpt>
      <trkpt lat="43.341011898592114" lon="-6.446747705340385">
        <ele>853.2</ele>
        <time>2017-08-05T05:11:15.000Z</time>
      </trkpt>
      <trkpt lat="43.340975269675255" lon="-6.44681878387928">
        <ele>853.6</ele>
        <time>2017-08-05T05:11:22.000Z</time>
      </trkpt>
      <trkpt lat="43.34095951169729" lon="-6.446857340633869">
        <ele>854</ele>
        <time>2017-08-05T05:11:25.000Z</time>
      </trkpt>
      <trkpt lat="43.340957667678595" lon="-6.446865973994136">
        <ele>854</ele>
        <time>2017-08-05T05:11:26.000Z</time>
      </trkpt>
      <trkpt lat="43.34094375371933" lon="-6.4469220489263535">
        <ele>855</ele>
        <time>2017-08-05T05:11:31.000Z</time>
      </trkpt>
      <trkpt lat="43.34093017503619" lon="-6.446955408900976">
        <ele>855.2</ele>
        <time>2017-08-05T05:11:33.000Z</time>
      </trkpt>
      <trkpt lat="43.3409056160599" lon="-6.447029169648886">
        <ele>856.2</ele>
        <time>2017-08-05T05:11:38.000Z</time>
      </trkpt>
      <trkpt lat="43.34088617004454" lon="-6.4470946323126554">
        <ele>857</ele>
        <time>2017-08-05T05:11:42.000Z</time>
      </trkpt>
      <trkpt lat="43.34087485447526" lon="-6.447130925953388">
        <ele>857.4</ele>
        <time>2017-08-05T05:11:45.000Z</time>
      </trkpt>
      <trkpt lat="43.34083470515907" lon="-6.447207536548376">
        <ele>857.4</ele>
        <time>2017-08-05T05:11:51.000Z</time>
      </trkpt>
      <trkpt lat="43.34080369211733" lon="-6.447274591773748">
        <ele>857.2</ele>
        <time>2017-08-05T05:11:56.000Z</time>
      </trkpt>
      <trkpt lat="43.34076203405857" lon="-6.447351286187768">
        <ele>856.8</ele>
        <time>2017-08-05T05:12:02.000Z</time>
      </trkpt>
      <trkpt lat="43.34074133075774" lon="-6.447390345856547">
        <ele>856.8</ele>
        <time>2017-08-05T05:12:05.000Z</time>
      </trkpt>
      <trkpt lat="43.34072741679847" lon="-6.447428902611136">
        <ele>856.8</ele>
        <time>2017-08-05T05:12:07.000Z</time>
      </trkpt>
      <trkpt lat="43.340719789266586" lon="-6.447445917874575">
        <ele>856.8</ele>
        <time>2017-08-05T05:12:08.000Z</time>
      </trkpt>
      <trkpt lat="43.34068140015006" lon="-6.447530323639512">
        <ele>856.2</ele>
        <time>2017-08-05T05:12:14.000Z</time>
      </trkpt>
      <trkpt lat="43.340670419856906" lon="-6.4475637674331665">
        <ele>856</ele>
        <time>2017-08-05T05:12:16.000Z</time>
      </trkpt>
      <trkpt lat="43.34066270850599" lon="-6.447622273117304">
        <ele>856</ele>
        <time>2017-08-05T05:12:20.000Z</time>
      </trkpt>
      <trkpt lat="43.34065021947026" lon="-6.447725538164377">
        <ele>856.6</ele>
        <time>2017-08-05T05:12:26.000Z</time>
      </trkpt>
      <trkpt lat="43.340647369623184" lon="-6.447741128504276">
        <ele>856.6</ele>
        <time>2017-08-05T05:12:27.000Z</time>
      </trkpt>
      <trkpt lat="43.34064535796642" lon="-6.447793431580067">
        <ele>857.2</ele>
        <time>2017-08-05T05:12:30.000Z</time>
      </trkpt>
      <trkpt lat="43.34064527414739" lon="-6.44783902913332">
        <ele>858</ele>
        <time>2017-08-05T05:12:33.000Z</time>
      </trkpt>
      <trkpt lat="43.340643430128694" lon="-6.447898456826806">
        <ele>858.8</ele>
        <time>2017-08-05T05:12:37.000Z</time>
      </trkpt>
      <trkpt lat="43.34064066410065" lon="-6.4479227643460035">
        <ele>859</ele>
        <time>2017-08-05T05:12:39.000Z</time>
      </trkpt>
      <trkpt lat="43.34064326249063" lon="-6.447973223403096">
        <ele>859.6</ele>
        <time>2017-08-05T05:12:42.000Z</time>
      </trkpt>
      <trkpt lat="43.34064426831901" lon="-6.448017144575715">
        <ele>860</ele>
        <time>2017-08-05T05:12:45.000Z</time>
      </trkpt>
      <trkpt lat="43.340651309117675" lon="-6.448150333017111">
        <ele>861.4</ele>
        <time>2017-08-05T05:12:53.000Z</time>
      </trkpt>
      <trkpt lat="43.340652314946055" lon="-6.4482299610972404">
        <ele>862</ele>
        <time>2017-08-05T05:12:59.000Z</time>
      </trkpt>
      <trkpt lat="43.34065239876509" lon="-6.448243288323283">
        <ele>862</ele>
        <time>2017-08-05T05:13:00.000Z</time>
      </trkpt>
      <trkpt lat="43.340655164793134" lon="-6.4483068231493235">
        <ele>862.6</ele>
        <time>2017-08-05T05:13:04.000Z</time>
      </trkpt>
      <trkpt lat="43.34065306931734" lon="-6.44836088642478">
        <ele>863</ele>
        <time>2017-08-05T05:13:08.000Z</time>
      </trkpt>
      <trkpt lat="43.340655248612165" lon="-6.448375387117267">
        <ele>863.2</ele>
        <time>2017-08-05T05:13:09.000Z</time>
      </trkpt>
      <trkpt lat="43.340664468705654" lon="-6.448430120944977">
        <ele>864.2</ele>
        <time>2017-08-05T05:13:14.000Z</time>
      </trkpt>
      <trkpt lat="43.340667402371764" lon="-6.448530871421099">
        <ele>864.6</ele>
        <time>2017-08-05T05:13:20.000Z</time>
      </trkpt>
      <trkpt lat="43.340669330209494" lon="-6.448590299114585">
        <ele>865</ele>
        <time>2017-08-05T05:13:26.000Z</time>
      </trkpt>
      <trkpt lat="43.34069883450866" lon="-6.448713261634111">
        <ele>866.2</ele>
        <time>2017-08-05T05:13:34.000Z</time>
      </trkpt>
      <trkpt lat="43.340719286352396" lon="-6.448791716247797">
        <ele>867</ele>
        <time>2017-08-05T05:13:39.000Z</time>
      </trkpt>
      <trkpt lat="43.34072322584689" lon="-6.448853155598044">
        <ele>867.2</ele>
        <time>2017-08-05T05:13:43.000Z</time>
      </trkpt>
      <trkpt lat="43.34072439931333" lon="-6.448880899697542">
        <ele>867.4</ele>
        <time>2017-08-05T05:13:45.000Z</time>
      </trkpt>
      <trkpt lat="43.34072599187493" lon="-6.448891879990697">
        <ele>867.4</ele>
        <time>2017-08-05T05:13:46.000Z</time>
      </trkpt>
      <trkpt lat="43.34073018282652" lon="-6.448960779234767">
        <ele>867.8</ele>
        <time>2017-08-05T05:13:50.000Z</time>
      </trkpt>
      <trkpt lat="43.340730937197804" lon="-6.448973352089524">
        <ele>867.8</ele>
        <time>2017-08-05T05:13:51.000Z</time>
      </trkpt>
      <trkpt lat="43.340730937197804" lon="-6.448973352089524">
        <ele>867.8</ele>
        <time>2017-08-05T05:13:51.000Z</time>
      </trkpt>
      <trkpt lat="43.34073747508228" lon="-6.449011070653796">
        <ele>867.8</ele>
        <time>2017-08-05T05:13:54.000Z</time>
      </trkpt>
      <trkpt lat="43.34075138904154" lon="-6.449080305173993">
        <ele>868.2</ele>
        <time>2017-08-05T05:13:59.000Z</time>
      </trkpt>
      <trkpt lat="43.34077603183687" lon="-6.449179295450449">
        <ele>868.8</ele>
        <time>2017-08-05T05:14:06.000Z</time>
      </trkpt>
      <trkpt lat="43.34078432992101" lon="-6.4492409862577915">
        <ele>869.2</ele>
        <time>2017-08-05T05:14:11.000Z</time>
      </trkpt>
      <trkpt lat="43.34077846258879" lon="-6.449289936572313">
        <ele>869.2</ele>
        <time>2017-08-05T05:14:14.000Z</time>
      </trkpt>
      <trkpt lat="43.340781731531024" lon="-6.449300749227405">
        <ele>869.4</ele>
        <time>2017-08-05T05:14:15.000Z</time>
      </trkpt>
      <trkpt lat="43.340796483680606" lon="-6.449377108365297">
        <ele>870</ele>
        <time>2017-08-05T05:14:21.000Z</time>
      </trkpt>
      <trkpt lat="43.34080092608929" lon="-6.449388172477484">
        <ele>870</ele>
        <time>2017-08-05T05:14:22.000Z</time>
      </trkpt>
      <trkpt lat="43.340811654925346" lon="-6.4494415652006865">
        <ele>870.4</ele>
        <time>2017-08-05T05:14:26.000Z</time>
      </trkpt>
      <trkpt lat="43.340831687673926" lon="-6.44949059933424">
        <ele>870.8</ele>
        <time>2017-08-05T05:14:29.000Z</time>
      </trkpt>
      <trkpt lat="43.34085691720247" lon="-6.449576010927558">
        <ele>871.6</ele>
        <time>2017-08-05T05:14:35.000Z</time>
      </trkpt>
      <trkpt lat="43.340855995193124" lon="-6.449591685086489">
        <ele>871.6</ele>
        <time>2017-08-05T05:14:36.000Z</time>
      </trkpt>
      <trkpt lat="43.34086353890598" lon="-6.449656058102846">
        <ele>871.8</ele>
        <time>2017-08-05T05:14:40.000Z</time>
      </trkpt>
      <trkpt lat="43.34087108261883" lon="-6.4496898371726274">
        <ele>871.8</ele>
        <time>2017-08-05T05:14:42.000Z</time>
      </trkpt>
      <trkpt lat="43.34088667295873" lon="-6.449778433889151">
        <ele>872.4</ele>
        <time>2017-08-05T05:14:47.000Z</time>
      </trkpt>
      <trkpt lat="43.34091676399112" lon="-6.449909778311849">
        <ele>873</ele>
        <time>2017-08-05T05:14:54.000Z</time>
      </trkpt>
      <trkpt lat="43.340947860851884" lon="-6.450049253180623">
        <ele>873.2</ele>
        <time>2017-08-05T05:15:02.000Z</time>
      </trkpt>
      <trkpt lat="43.340984573587775" lon="-6.450194092467427">
        <ele>873.4</ele>
        <time>2017-08-05T05:15:11.000Z</time>
      </trkpt>
      <trkpt lat="43.34100770764053" lon="-6.450352007523179">
        <ele>873.6</ele>
        <time>2017-08-05T05:15:21.000Z</time>
      </trkpt>
      <trkpt lat="43.341046180576086" lon="-6.450472874566913">
        <ele>873.8</ele>
        <time>2017-08-05T05:15:29.000Z</time>
      </trkpt>
      <trkpt lat="43.34105674177408" lon="-6.4504950027912855">
        <ele>874</ele>
        <time>2017-08-05T05:15:31.000Z</time>
      </trkpt>
      <trkpt lat="43.34107082337141" lon="-6.4505488984286785">
        <ele>874</ele>
        <time>2017-08-05T05:15:34.000Z</time>
      </trkpt>
      <trkpt lat="43.34107417613268" lon="-6.450567338615656">
        <ele>874.2</ele>
        <time>2017-08-05T05:15:35.000Z</time>
      </trkpt>
      <trkpt lat="43.341105692088604" lon="-6.450666915625334">
        <ele>874.8</ele>
        <time>2017-08-05T05:15:42.000Z</time>
      </trkpt>
      <trkpt lat="43.34114944562316" lon="-6.450752327218652">
        <ele>875.2</ele>
        <time>2017-08-05T05:15:49.000Z</time>
      </trkpt>
      <trkpt lat="43.34117040038109" lon="-6.450787112116814">
        <ele>875.4</ele>
        <time>2017-08-05T05:15:53.000Z</time>
      </trkpt>
      <trkpt lat="43.34117132239044" lon="-6.450808318331838">
        <ele>875.4</ele>
        <time>2017-08-05T05:15:55.000Z</time>
      </trkpt>
      <trkpt lat="43.34117375314236" lon="-6.450838828459382">
        <ele>875.4</ele>
        <time>2017-08-05T05:15:57.000Z</time>
      </trkpt>
      <trkpt lat="43.3411817997694" lon="-6.45088073797524">
        <ele>875.6</ele>
        <time>2017-08-05T05:16:01.000Z</time>
      </trkpt>
      <trkpt lat="43.341198563575745" lon="-6.450895154848695">
        <ele>875.8</ele>
        <time>2017-08-05T05:16:07.000Z</time>
      </trkpt>
      <trkpt lat="43.341199234128" lon="-6.450890460982919">
        <ele>875.8</ele>
        <time>2017-08-05T05:16:35.000Z</time>
      </trkpt>
      <trkpt lat="43.3412214461714" lon="-6.450891047716141">
        <ele>875.8</ele>
        <time>2017-08-05T05:18:11.000Z</time>
      </trkpt>
      <trkpt lat="43.34116470068693" lon="-6.4508475456386805">
        <ele>875.4</ele>
        <time>2017-08-05T05:18:53.000Z</time>
      </trkpt>
      <trkpt lat="43.341268468648195" lon="-6.4509187918156385">
        <ele>876</ele>
        <time>2017-08-05T05:21:58.000Z</time>
      </trkpt>
      <trkpt lat="43.341266959905624" lon="-6.45091250538826">
        <ele>876</ele>
        <time>2017-08-05T05:22:03.000Z</time>
      </trkpt>
      <trkpt lat="43.341267965734005" lon="-6.45091250538826">
        <ele>876</ele>
        <time>2017-08-05T05:22:22.000Z</time>
      </trkpt>
      <trkpt lat="43.341206358745694" lon="-6.450941590592265">
        <ele>876</ele>
        <time>2017-08-05T05:26:51.000Z</time>
      </trkpt>
      <trkpt lat="43.34121046587825" lon="-6.450974196195602">
        <ele>876</ele>
        <time>2017-08-05T05:26:58.000Z</time>
      </trkpt>
      <trkpt lat="43.341217590495944" lon="-6.451024068519473">
        <ele>876.2</ele>
        <time>2017-08-05T05:27:04.000Z</time>
      </trkpt>
      <trkpt lat="43.341222032904625" lon="-6.451040748506784">
        <ele>876.4</ele>
        <time>2017-08-05T05:27:12.000Z</time>
      </trkpt>
      <trkpt lat="43.3412164170295" lon="-6.451096069067717">
        <ele>876.6</ele>
        <time>2017-08-05T05:27:31.000Z</time>
      </trkpt>
      <trkpt lat="43.341188337653875" lon="-6.451145773753524">
        <ele>876.4</ele>
        <time>2017-08-05T05:27:36.000Z</time>
      </trkpt>
      <trkpt lat="43.34114835597575" lon="-6.451249374076724">
        <ele>876.2</ele>
        <time>2017-08-05T05:27:44.000Z</time>
      </trkpt>
      <trkpt lat="43.341132681816816" lon="-6.451390441507101">
        <ele>876.2</ele>
        <time>2017-08-05T05:27:53.000Z</time>
      </trkpt>
      <trkpt lat="43.34112647920847" lon="-6.451553553342819">
        <ele>876.2</ele>
        <time>2017-08-05T05:28:03.000Z</time>
      </trkpt>
      <trkpt lat="43.341120947152376" lon="-6.45159512758255">
        <ele>876.2</ele>
        <time>2017-08-05T05:28:09.000Z</time>
      </trkpt>
      <trkpt lat="43.341111056506634" lon="-6.451707696542144">
        <ele>876</ele>
        <time>2017-08-05T05:28:16.000Z</time>
      </trkpt>
      <trkpt lat="43.34107283502817" lon="-6.451876675710082">
        <ele>876.8</ele>
        <time>2017-08-05T05:28:26.000Z</time>
      </trkpt>
      <trkpt lat="43.34102681837976" lon="-6.45201581530273">
        <ele>877.2</ele>
        <time>2017-08-05T05:28:35.000Z</time>
      </trkpt>
      <trkpt lat="43.341019190847874" lon="-6.4520585630089045">
        <ele>877.2</ele>
        <time>2017-08-05T05:28:39.000Z</time>
      </trkpt>
      <trkpt lat="43.3410160895437" lon="-6.452075075358152">
        <ele>877.4</ele>
        <time>2017-08-05T05:28:41.000Z</time>
      </trkpt>
      <trkpt lat="43.34099714644253" lon="-6.452109692618251">
        <ele>877.4</ele>
        <time>2017-08-05T05:28:44.000Z</time>
      </trkpt>
      <trkpt lat="43.34098122082651" lon="-6.452149925753474">
        <ele>877.4</ele>
        <time>2017-08-05T05:28:47.000Z</time>
      </trkpt>
      <trkpt lat="43.3409262355417" lon="-6.4522920828312635">
        <ele>878</ele>
        <time>2017-08-05T05:28:56.000Z</time>
      </trkpt>
      <trkpt lat="43.34088457748294" lon="-6.452444214373827">
        <ele>879</ele>
        <time>2017-08-05T05:29:05.000Z</time>
      </trkpt>
      <trkpt lat="43.340890696272254" lon="-6.45245854742825">
        <ele>879.2</ele>
        <time>2017-08-05T05:29:06.000Z</time>
      </trkpt>
      <trkpt lat="43.340956158936024" lon="-6.452498193830252">
        <ele>879.6</ele>
        <time>2017-08-05T05:29:12.000Z</time>
      </trkpt>
      <trkpt lat="43.34096638485789" lon="-6.452502552419901">
        <ele>879.8</ele>
        <time>2017-08-05T05:29:13.000Z</time>
      </trkpt>
      <trkpt lat="43.341059172526" lon="-6.4525380078703165">
        <ele>880.4</ele>
        <time>2017-08-05T05:29:22.000Z</time>
      </trkpt>
      <trkpt lat="43.34112212061882" lon="-6.45255334675312">
        <ele>880.4</ele>
        <time>2017-08-05T05:29:28.000Z</time>
      </trkpt>
      <trkpt lat="43.34119630046189" lon="-6.452576648443937">
        <ele>880.6</ele>
        <time>2017-08-05T05:29:34.000Z</time>
      </trkpt>
      <trkpt lat="43.34128581918776" lon="-6.452628448605537">
        <ele>881.4</ele>
        <time>2017-08-05T05:29:42.000Z</time>
      </trkpt>
      <trkpt lat="43.341314401477575" lon="-6.452673962339759">
        <ele>882</ele>
        <time>2017-08-05T05:29:46.000Z</time>
      </trkpt>
      <trkpt lat="43.34132982417941" lon="-6.452735150232911">
        <ele>882.6</ele>
        <time>2017-08-05T05:29:50.000Z</time>
      </trkpt>
      <trkpt lat="43.34136050194502" lon="-6.452888119965792">
        <ele>883.4</ele>
        <time>2017-08-05T05:30:00.000Z</time>
      </trkpt>
      <trkpt lat="43.341400902718306" lon="-6.453040251508355">
        <ele>883.8</ele>
        <time>2017-08-05T05:30:10.000Z</time>
      </trkpt>
      <trkpt lat="43.34143124520779" lon="-6.4531853422522545">
        <ele>884.2</ele>
        <time>2017-08-05T05:30:19.000Z</time>
      </trkpt>
      <trkpt lat="43.341444823890924" lon="-6.45331216044724">
        <ele>884.2</ele>
        <time>2017-08-05T05:30:27.000Z</time>
      </trkpt>
      <trkpt lat="43.34145387634635" lon="-6.453346274793148">
        <ele>884.2</ele>
        <time>2017-08-05T05:30:31.000Z</time>
      </trkpt>
      <trkpt lat="43.341458989307284" lon="-6.453431937843561">
        <ele>883.8</ele>
        <time>2017-08-05T05:30:37.000Z</time>
      </trkpt>
      <trkpt lat="43.34145940840244" lon="-6.453435625880957">
        <ele>883.8</ele>
        <time>2017-08-05T05:30:38.000Z</time>
      </trkpt>
      <trkpt lat="43.34146552719176" lon="-6.453504860401154">
        <ele>883.4</ele>
        <time>2017-08-05T05:30:43.000Z</time>
      </trkpt>
      <trkpt lat="43.34147734567523" lon="-6.453615082427859">
        <ele>882.6</ele>
        <time>2017-08-05T05:30:50.000Z</time>
      </trkpt>
      <trkpt lat="43.341495199128985" lon="-6.453687502071261">
        <ele>882.6</ele>
        <time>2017-08-05T05:30:56.000Z</time>
      </trkpt>
      <trkpt lat="43.34149645641446" lon="-6.453701499849558">
        <ele>882.8</ele>
        <time>2017-08-05T05:30:57.000Z</time>
      </trkpt>
      <trkpt lat="43.341511795297265" lon="-6.453791270032525">
        <ele>882.4</ele>
        <time>2017-08-05T05:31:04.000Z</time>
      </trkpt>
      <trkpt lat="43.341521518304944" lon="-6.453890427947044">
        <ele>882</ele>
        <time>2017-08-05T05:31:10.000Z</time>
      </trkpt>
      <trkpt lat="43.34152520634234" lon="-6.453922279179096">
        <ele>882.2</ele>
        <time>2017-08-05T05:31:12.000Z</time>
      </trkpt>
      <trkpt lat="43.341524535790086" lon="-6.4539737440645695">
        <ele>882.8</ele>
        <time>2017-08-05T05:31:16.000Z</time>
      </trkpt>
      <trkpt lat="43.34153191186488" lon="-6.454077931120992">
        <ele>883.4</ele>
        <time>2017-08-05T05:31:23.000Z</time>
      </trkpt>
      <trkpt lat="43.34154314361513" lon="-6.454221596941352">
        <ele>884.4</ele>
        <time>2017-08-05T05:31:32.000Z</time>
      </trkpt>
      <trkpt lat="43.34154641255736" lon="-6.45423861220479">
        <ele>884.6</ele>
        <time>2017-08-05T05:31:33.000Z</time>
      </trkpt>
      <trkpt lat="43.34156200289726" lon="-6.454298794269562">
        <ele>884.6</ele>
        <time>2017-08-05T05:31:38.000Z</time>
      </trkpt>
      <trkpt lat="43.34159888327122" lon="-6.454351097345352">
        <ele>884</ele>
        <time>2017-08-05T05:31:45.000Z</time>
      </trkpt>
      <trkpt lat="43.341608103364706" lon="-6.454375237226486">
        <ele>884</ele>
        <time>2017-08-05T05:31:47.000Z</time>
      </trkpt>
      <trkpt lat="43.34161992184818" lon="-6.454400802031159">
        <ele>883.8</ele>
        <time>2017-08-05T05:31:51.000Z</time>
      </trkpt>
      <trkpt lat="43.34166795015335" lon="-6.454456290230155">
        <ele>883.2</ele>
        <time>2017-08-05T05:32:09.000Z</time>
      </trkpt>
      <trkpt lat="43.341732658445835" lon="-6.4545483235269785">
        <ele>882.4</ele>
        <time>2017-08-05T05:32:17.000Z</time>
      </trkpt>
      <trkpt lat="43.34174891933799" lon="-6.454575229436159">
        <ele>882.2</ele>
        <time>2017-08-05T05:32:20.000Z</time>
      </trkpt>
      <trkpt lat="43.34175520576537" lon="-6.454595681279898">
        <ele>882.2</ele>
        <time>2017-08-05T05:32:22.000Z</time>
      </trkpt>
      <trkpt lat="43.3417949359864" lon="-6.454667346552014">
        <ele>881.2</ele>
        <time>2017-08-05T05:32:27.000Z</time>
      </trkpt>
      <trkpt lat="43.341811783611774" lon="-6.454802295193076">
        <ele>881.2</ele>
        <time>2017-08-05T05:32:35.000Z</time>
      </trkpt>
      <trkpt lat="43.34178144112229" lon="-6.454935651272535">
        <ele>882.4</ele>
        <time>2017-08-05T05:32:44.000Z</time>
      </trkpt>
      <trkpt lat="43.34176945500076" lon="-6.454988960176706">
        <ele>882.8</ele>
        <time>2017-08-05T05:32:49.000Z</time>
      </trkpt>
      <trkpt lat="43.341742884367704" lon="-6.455072024837136">
        <ele>883.8</ele>
        <time>2017-08-05T05:32:56.000Z</time>
      </trkpt>
      <trkpt lat="43.341721426695585" lon="-6.455144779756665">
        <ele>884.4</ele>
        <time>2017-08-05T05:33:03.000Z</time>
      </trkpt>
      <trkpt lat="43.34168312139809" lon="-6.45525055937469">
        <ele>885.6</ele>
        <time>2017-08-05T05:33:11.000Z</time>
      </trkpt>
      <trkpt lat="43.341645235195756" lon="-6.455348543822765">
        <ele>886.6</ele>
        <time>2017-08-05T05:33:18.000Z</time>
      </trkpt>
      <trkpt lat="43.34158840589225" lon="-6.4554807264357805">
        <ele>888</ele>
        <time>2017-08-05T05:33:28.000Z</time>
      </trkpt>
      <trkpt lat="43.3415290620178" lon="-6.455596899613738">
        <ele>889.4</ele>
        <time>2017-08-05T05:33:37.000Z</time>
      </trkpt>
      <trkpt lat="43.341467790305614" lon="-6.455699326470494">
        <ele>890.4</ele>
        <time>2017-08-05T05:33:46.000Z</time>
      </trkpt>
      <trkpt lat="43.341404255479574" lon="-6.455790940672159">
        <ele>891.6</ele>
        <time>2017-08-05T05:33:54.000Z</time>
      </trkpt>
      <trkpt lat="43.3413268905133" lon="-6.455894038081169">
        <ele>893.2</ele>
        <time>2017-08-05T05:34:03.000Z</time>
      </trkpt>
      <trkpt lat="43.34125321358442" lon="-6.45598984323442">
        <ele>894.4</ele>
        <time>2017-08-05T05:34:12.000Z</time>
      </trkpt>
      <trkpt lat="43.34118456579745" lon="-6.456084810197353">
        <ele>895.6</ele>
        <time>2017-08-05T05:34:21.000Z</time>
      </trkpt>
      <trkpt lat="43.34110787138343" lon="-6.456195283681154">
        <ele>896.4</ele>
        <time>2017-08-05T05:34:30.000Z</time>
      </trkpt>
      <trkpt lat="43.341019777581096" lon="-6.45630793645978">
        <ele>897.6</ele>
        <time>2017-08-05T05:34:40.000Z</time>
      </trkpt>
      <trkpt lat="43.34092749282718" lon="-6.456421930342913">
        <ele>899.2</ele>
        <time>2017-08-05T05:34:51.000Z</time>
      </trkpt>
      <trkpt lat="43.340835543349385" lon="-6.456536008045077">
        <ele>900.6</ele>
        <time>2017-08-05T05:35:02.000Z</time>
      </trkpt>
      <trkpt lat="43.340754406526685" lon="-6.4566378481686115">
        <ele>901.8</ele>
        <time>2017-08-05T05:35:12.000Z</time>
      </trkpt>
      <trkpt lat="43.3406878542155" lon="-6.456714291125536">
        <ele>902.6</ele>
        <time>2017-08-05T05:35:20.000Z</time>
      </trkpt>
      <trkpt lat="43.34061107598245" lon="-6.4567903988063335">
        <ele>903.8</ele>
        <time>2017-08-05T05:35:28.000Z</time>
      </trkpt>
      <trkpt lat="43.340534046292305" lon="-6.4568957593292">
        <ele>904.8</ele>
        <time>2017-08-05T05:35:38.000Z</time>
      </trkpt>
      <trkpt lat="43.34047227166593" lon="-6.456991313025355">
        <ele>906.2</ele>
        <time>2017-08-05T05:35:47.000Z</time>
      </trkpt>
      <trkpt lat="43.340421644970775" lon="-6.457080412656069">
        <ele>907.8</ele>
        <time>2017-08-05T05:35:55.000Z</time>
      </trkpt>
      <trkpt lat="43.3403910510242" lon="-6.457176301628351">
        <ele>909.4</ele>
        <time>2017-08-05T05:36:02.000Z</time>
      </trkpt>
      <trkpt lat="43.340384513139725" lon="-6.457287948578596">
        <ele>911.2</ele>
        <time>2017-08-05T05:36:10.000Z</time>
      </trkpt>
      <trkpt lat="43.3404029533267" lon="-6.457381239160895">
        <ele>912.2</ele>
        <time>2017-08-05T05:36:17.000Z</time>
      </trkpt>
      <trkpt lat="43.34043966606259" lon="-6.4574710093438625">
        <ele>912.4</ele>
        <time>2017-08-05T05:36:24.000Z</time>
      </trkpt>
      <trkpt lat="43.34045416675508" lon="-6.457494981586933">
        <ele>912.2</ele>
        <time>2017-08-05T05:36:26.000Z</time>
      </trkpt>
      <trkpt lat="43.340484676882625" lon="-6.4575375616550446">
        <ele>911.8</ele>
        <time>2017-08-05T05:36:30.000Z</time>
      </trkpt>
      <trkpt lat="43.340549217537045" lon="-6.457630097866058">
        <ele>910.6</ele>
        <time>2017-08-05T05:36:38.000Z</time>
      </trkpt>
      <trkpt lat="43.340596659108996" lon="-6.457723053172231">
        <ele>910.2</ele>
        <time>2017-08-05T05:36:45.000Z</time>
      </trkpt>
      <trkpt lat="43.34064091555774" lon="-6.4578924514353275">
        <ele>909.6</ele>
        <time>2017-08-05T05:36:55.000Z</time>
      </trkpt>
      <trkpt lat="43.34065843373537" lon="-6.458072578534484">
        <ele>909.2</ele>
        <time>2017-08-05T05:37:05.000Z</time>
      </trkpt>
      <trkpt lat="43.34066966548562" lon="-6.458202246576548">
        <ele>908.2</ele>
        <time>2017-08-05T05:37:13.000Z</time>
      </trkpt>
      <trkpt lat="43.34066949784756" lon="-6.458216160535812">
        <ele>908.2</ele>
        <time>2017-08-05T05:37:15.000Z</time>
      </trkpt>
      <trkpt lat="43.340672347694635" lon="-6.458246083930135">
        <ele>908.2</ele>
        <time>2017-08-05T05:37:17.000Z</time>
      </trkpt>
      <trkpt lat="43.34066974930465" lon="-6.458293190225959">
        <ele>908.2</ele>
        <time>2017-08-05T05:37:20.000Z</time>
      </trkpt>
      <trkpt lat="43.34067050367594" lon="-6.458362340927124">
        <ele>908.2</ele>
        <time>2017-08-05T05:37:24.000Z</time>
      </trkpt>
      <trkpt lat="43.34066757000983" lon="-6.458483878523111">
        <ele>908.4</ele>
        <time>2017-08-05T05:37:31.000Z</time>
      </trkpt>
      <trkpt lat="43.340647369623184" lon="-6.458631986752152">
        <ele>909.2</ele>
        <time>2017-08-05T05:37:39.000Z</time>
      </trkpt>
      <trkpt lat="43.34061065688729" lon="-6.4587851241230965">
        <ele>910</ele>
        <time>2017-08-05T05:37:48.000Z</time>
      </trkpt>
      <trkpt lat="43.34055290557444" lon="-6.4589612279087305">
        <ele>911</ele>
        <time>2017-08-05T05:37:59.000Z</time>
      </trkpt>
      <trkpt lat="43.34052164107561" lon="-6.45906281657517">
        <ele>911.6</ele>
        <time>2017-08-05T05:38:06.000Z</time>
      </trkpt>
      <trkpt lat="43.34051535464823" lon="-6.459073880687356">
        <ele>911.6</ele>
        <time>2017-08-05T05:38:07.000Z</time>
      </trkpt>
      <trkpt lat="43.340507140383124" lon="-6.4591009542346">
        <ele>911.8</ele>
        <time>2017-08-05T05:38:09.000Z</time>
      </trkpt>
      <trkpt lat="43.3404996804893" lon="-6.459134817123413">
        <ele>912</ele>
        <time>2017-08-05T05:38:11.000Z</time>
      </trkpt>
      <trkpt lat="43.34048333577812" lon="-6.4591809175908566">
        <ele>912.2</ele>
        <time>2017-08-05T05:38:14.000Z</time>
      </trkpt>
      <trkpt lat="43.340438827872276" lon="-6.459322907030582">
        <ele>912</ele>
        <time>2017-08-05T05:38:23.000Z</time>
      </trkpt>
      <trkpt lat="43.34039591252804" lon="-6.459466069936752">
        <ele>911.4</ele>
        <time>2017-08-05T05:38:32.000Z</time>
      </trkpt>
      <trkpt lat="43.340349392965436" lon="-6.459633708000183">
        <ele>910</ele>
        <time>2017-08-05T05:38:42.000Z</time>
      </trkpt>
      <trkpt lat="43.34031100384891" lon="-6.459821127355099">
        <ele>908.6</ele>
        <time>2017-08-05T05:38:53.000Z</time>
      </trkpt>
      <trkpt lat="43.34027202799916" lon="-6.459988597780466">
        <ele>907.8</ele>
        <time>2017-08-05T05:39:03.000Z</time>
      </trkpt>
      <trkpt lat="43.340214025229216" lon="-6.460145842283964">
        <ele>906.8</ele>
        <time>2017-08-05T05:39:13.000Z</time>
      </trkpt>
      <trkpt lat="43.34015694446862" lon="-6.4602926932275295">
        <ele>906.4</ele>
        <time>2017-08-05T05:39:23.000Z</time>
      </trkpt>
      <trkpt lat="43.34011369384825" lon="-6.460428982973099">
        <ele>906.2</ele>
        <time>2017-08-05T05:39:32.000Z</time>
      </trkpt>
      <trkpt lat="43.340062061324716" lon="-6.460566194728017">
        <ele>906</ele>
        <time>2017-08-05T05:39:41.000Z</time>
      </trkpt>
      <trkpt lat="43.3400075789541" lon="-6.460704328492284">
        <ele>904.8</ele>
        <time>2017-08-05T05:39:50.000Z</time>
      </trkpt>
      <trkpt lat="43.33994102664292" lon="-6.46085511893034">
        <ele>903.8</ele>
        <time>2017-08-05T05:40:01.000Z</time>
      </trkpt>
      <trkpt lat="43.33990104496479" lon="-6.460965508595109">
        <ele>903</ele>
        <time>2017-08-05T05:40:08.000Z</time>
      </trkpt>
      <trkpt lat="43.339830469340086" lon="-6.4611258544027805">
        <ele>902.2</ele>
        <time>2017-08-05T05:40:19.000Z</time>
      </trkpt>
      <trkpt lat="43.33975628949702" lon="-6.461291732266545">
        <ele>902</ele>
        <time>2017-08-05T05:40:30.000Z</time>
      </trkpt>
      <trkpt lat="43.339675990864635" lon="-6.46146884188056">
        <ele>901.8</ele>
        <time>2017-08-05T05:40:42.000Z</time>
      </trkpt>
      <trkpt lat="43.339624274522066" lon="-6.461593313142657">
        <ele>900.8</ele>
        <time>2017-08-05T05:40:51.000Z</time>
      </trkpt>
      <trkpt lat="43.33960801362991" lon="-6.461632791906595">
        <ele>900.6</ele>
        <time>2017-08-05T05:40:54.000Z</time>
      </trkpt>
      <trkpt lat="43.33958588540554" lon="-6.461671264842153">
        <ele>900.4</ele>
        <time>2017-08-05T05:40:57.000Z</time>
      </trkpt>
      <trkpt lat="43.33953467197716" lon="-6.461765058338642">
        <ele>899.2</ele>
        <time>2017-08-05T05:41:05.000Z</time>
      </trkpt>
      <trkpt lat="43.33947792649269" lon="-6.461865808814764">
        <ele>898.2</ele>
        <time>2017-08-05T05:41:13.000Z</time>
      </trkpt>
      <trkpt lat="43.339403411373496" lon="-6.461988100782037">
        <ele>896.8</ele>
        <time>2017-08-05T05:41:23.000Z</time>
      </trkpt>
      <trkpt lat="43.33933719433844" lon="-6.4620656333863735">
        <ele>895.6</ele>
        <time>2017-08-05T05:41:31.000Z</time>
      </trkpt>
      <trkpt lat="43.33929067477584" lon="-6.462130090221763">
        <ele>894.6</ele>
        <time>2017-08-05T05:41:38.000Z</time>
      </trkpt>
      <trkpt lat="43.339194785803556" lon="-6.462238468229771">
        <ele>893</ele>
        <time>2017-08-05T05:41:48.000Z</time>
      </trkpt>
      <trkpt lat="43.339122449979186" lon="-6.462301667779684">
        <ele>892.8</ele>
        <time>2017-08-05T05:41:55.000Z</time>
      </trkpt>
      <trkpt lat="43.33903511054814" lon="-6.462360760197043">
        <ele>892.4</ele>
        <time>2017-08-05T05:42:04.000Z</time>
      </trkpt>
      <trkpt lat="43.338961601257324" lon="-6.4623907674103975">
        <ele>892.6</ele>
        <time>2017-08-05T05:42:11.000Z</time>
      </trkpt>
      <trkpt lat="43.33888951689005" lon="-6.462453380227089">
        <ele>892.2</ele>
        <time>2017-08-05T05:42:18.000Z</time>
      </trkpt>
      <trkpt lat="43.33887082524598" lon="-6.462472239509225">
        <ele>892</ele>
        <time>2017-08-05T05:42:20.000Z</time>
      </trkpt>
      <trkpt lat="43.33882363513112" lon="-6.462511131539941">
        <ele>891.8</ele>
        <time>2017-08-05T05:42:24.000Z</time>
      </trkpt>
      <trkpt lat="43.33880946971476" lon="-6.4625185914337635">
        <ele>891.8</ele>
        <time>2017-08-05T05:42:25.000Z</time>
      </trkpt>
      <trkpt lat="43.338734451681376" lon="-6.462588664144278">
        <ele>891</ele>
        <time>2017-08-05T05:42:32.000Z</time>
      </trkpt>
      <trkpt lat="43.33864040672779" lon="-6.46268698386848">
        <ele>890</ele>
        <time>2017-08-05T05:42:41.000Z</time>
      </trkpt>
      <trkpt lat="43.33856463432312" lon="-6.462776670232415">
        <ele>888.8</ele>
        <time>2017-08-05T05:42:49.000Z</time>
      </trkpt>
      <trkpt lat="43.33850847557187" lon="-6.462851855903864">
        <ele>887.4</ele>
        <time>2017-08-05T05:42:56.000Z</time>
      </trkpt>
      <trkpt lat="43.33844544366002" lon="-6.4629320707172155">
        <ele>885.8</ele>
        <time>2017-08-05T05:43:03.000Z</time>
      </trkpt>
      <trkpt lat="43.33838190883398" lon="-6.46302804350853">
        <ele>884</ele>
        <time>2017-08-05T05:43:10.000Z</time>
      </trkpt>
      <trkpt lat="43.33831116557121" lon="-6.463131811469793">
        <ele>882.4</ele>
        <time>2017-08-05T05:43:18.000Z</time>
      </trkpt>
      <trkpt lat="43.33822516724467" lon="-6.463273884728551">
        <ele>880.4</ele>
        <time>2017-08-05T05:43:28.000Z</time>
      </trkpt>
      <trkpt lat="43.33813983947039" lon="-6.46341897547245">
        <ele>878.4</ele>
        <time>2017-08-05T05:43:38.000Z</time>
      </trkpt>
      <trkpt lat="43.338077645748854" lon="-6.4635151997208595">
        <ele>877</ele>
        <time>2017-08-05T05:43:45.000Z</time>
      </trkpt>
      <trkpt lat="43.33801897242665" lon="-6.463588122278452">
        <ele>876.2</ele>
        <time>2017-08-05T05:43:51.000Z</time>
      </trkpt>
      <trkpt lat="43.337951665744185" lon="-6.463652662932873">
        <ele>875.4</ele>
        <time>2017-08-05T05:43:58.000Z</time>
      </trkpt>
      <trkpt lat="43.33794261328876" lon="-6.463660374283791">
        <ele>875.4</ele>
        <time>2017-08-05T05:43:59.000Z</time>
      </trkpt>
      <trkpt lat="43.337908582761884" lon="-6.463691387325525">
        <ele>875</ele>
        <time>2017-08-05T05:44:02.000Z</time>
      </trkpt>
      <trkpt lat="43.33784538321197" lon="-6.46372877061367">
        <ele>874.8</ele>
        <time>2017-08-05T05:44:07.000Z</time>
      </trkpt>
      <trkpt lat="43.33775578066707" lon="-6.463783588260412">
        <ele>874.2</ele>
        <time>2017-08-05T05:44:15.000Z</time>
      </trkpt>
      <trkpt lat="43.33767564967275" lon="-6.4638379868119955">
        <ele>873.2</ele>
        <time>2017-08-05T05:44:22.000Z</time>
      </trkpt>
      <trkpt lat="43.33760851062834" lon="-6.463901353999972">
        <ele>871.8</ele>
        <time>2017-08-05T05:44:28.000Z</time>
      </trkpt>
      <trkpt lat="43.33753013983369" lon="-6.463956590741873">
        <ele>870.2</ele>
        <time>2017-08-05T05:44:37.000Z</time>
      </trkpt>
      <trkpt lat="43.337440034374595" lon="-6.464026244357228">
        <ele>868.2</ele>
        <time>2017-08-05T05:44:46.000Z</time>
      </trkpt>
      <trkpt lat="43.33736795000732" lon="-6.464078212156892">
        <ele>867</ele>
        <time>2017-08-05T05:44:53.000Z</time>
      </trkpt>
      <trkpt lat="43.337305169552565" lon="-6.464153230190277">
        <ele>865.6</ele>
        <time>2017-08-05T05:45:00.000Z</time>
      </trkpt>
      <trkpt lat="43.337227553129196" lon="-6.464234534651041">
        <ele>863.8</ele>
        <time>2017-08-05T05:45:08.000Z</time>
      </trkpt>
      <trkpt lat="43.337152786552906" lon="-6.464296979829669">
        <ele>862.6</ele>
        <time>2017-08-05T05:45:16.000Z</time>
      </trkpt>
      <trkpt lat="43.33706561475992" lon="-6.464357748627663">
        <ele>861.8</ele>
        <time>2017-08-05T05:45:24.000Z</time>
      </trkpt>
      <trkpt lat="43.33699906244874" lon="-6.464402340352535">
        <ele>861.2</ele>
        <time>2017-08-05T05:45:30.000Z</time>
      </trkpt>
      <trkpt lat="43.33690334111452" lon="-6.464477777481079">
        <ele>860.6</ele>
        <time>2017-08-05T05:45:39.000Z</time>
      </trkpt>
      <trkpt lat="43.33681935444474" lon="-6.46455941721797">
        <ele>860</ele>
        <time>2017-08-05T05:45:47.000Z</time>
      </trkpt>
      <trkpt lat="43.336764536798" lon="-6.464633429422975">
        <ele>859.4</ele>
        <time>2017-08-05T05:45:53.000Z</time>
      </trkpt>
      <trkpt lat="43.33668390288949" lon="-6.464718170464039">
        <ele>858.8</ele>
        <time>2017-08-05T05:46:01.000Z</time>
      </trkpt>
      <trkpt lat="43.33659295924008" lon="-6.464822273701429">
        <ele>858</ele>
        <time>2017-08-05T05:46:10.000Z</time>
      </trkpt>
      <trkpt lat="43.336553229019046" lon="-6.464875917881727">
        <ele>857.4</ele>
        <time>2017-08-05T05:46:16.000Z</time>
      </trkpt>
      <trkpt lat="43.336506290361285" lon="-6.464923694729805">
        <ele>857.2</ele>
        <time>2017-08-05T05:47:03.000Z</time>
      </trkpt>
      <trkpt lat="43.336457926779985" lon="-6.464980188757181">
        <ele>856.6</ele>
        <time>2017-08-05T05:47:10.000Z</time>
      </trkpt>
      <trkpt lat="43.33639170974493" lon="-6.465064343065023">
        <ele>856.2</ele>
        <time>2017-08-05T05:47:18.000Z</time>
      </trkpt>
      <trkpt lat="43.33631694316864" lon="-6.465170960873365">
        <ele>855.8</ele>
        <time>2017-08-05T05:47:27.000Z</time>
      </trkpt>
      <trkpt lat="43.33624703809619" lon="-6.465241117402911">
        <ele>855.8</ele>
        <time>2017-08-05T05:47:34.000Z</time>
      </trkpt>
      <trkpt lat="43.33613798953593" lon="-6.465280596166849">
        <ele>856.4</ele>
        <time>2017-08-05T05:47:43.000Z</time>
      </trkpt>
      <trkpt lat="43.336123237386346" lon="-6.465294091030955">
        <ele>856.6</ele>
        <time>2017-08-05T05:47:45.000Z</time>
      </trkpt>
      <trkpt lat="43.33609951660037" lon="-6.465297359973192">
        <ele>856.8</ele>
        <time>2017-08-05T05:47:48.000Z</time>
      </trkpt>
      <trkpt lat="43.33607747219503" lon="-6.465308926999569">
        <ele>857</ele>
        <time>2017-08-05T05:47:50.000Z</time>
      </trkpt>
      <trkpt lat="43.336012260988355" lon="-6.465345472097397">
        <ele>857.2</ele>
        <time>2017-08-05T05:47:56.000Z</time>
      </trkpt>
      <trkpt lat="43.3359288610518" lon="-6.465407246723771">
        <ele>857.4</ele>
        <time>2017-08-05T05:48:04.000Z</time>
      </trkpt>
      <trkpt lat="43.33587320521474" lon="-6.465439181774855">
        <ele>857.6</ele>
        <time>2017-08-05T05:48:10.000Z</time>
      </trkpt>
      <trkpt lat="43.33577371202409" lon="-6.465509505942464">
        <ele>858</ele>
        <time>2017-08-05T05:48:19.000Z</time>
      </trkpt>
      <trkpt lat="43.33566902205348" lon="-6.465607071295381">
        <ele>857.8</ele>
        <time>2017-08-05T05:48:29.000Z</time>
      </trkpt>
      <trkpt lat="43.33559392020106" lon="-6.465654848143458">
        <ele>857.6</ele>
        <time>2017-08-05T05:48:36.000Z</time>
      </trkpt>
      <trkpt lat="43.33550624549389" lon="-6.465683598071337">
        <ele>857.4</ele>
        <time>2017-08-05T05:48:43.000Z</time>
      </trkpt>
      <trkpt lat="43.33539149723947" lon="-6.465713521465659">
        <ele>856.8</ele>
        <time>2017-08-05T05:48:52.000Z</time>
      </trkpt>
      <trkpt lat="43.33527113310993" lon="-6.465719053521752">
        <ele>856</ele>
        <time>2017-08-05T05:49:01.000Z</time>
      </trkpt>
      <trkpt lat="43.33514850586653" lon="-6.465708240866661">
        <ele>854.4</ele>
        <time>2017-08-05T05:49:10.000Z</time>
      </trkpt>
      <trkpt lat="43.33499478176236" lon="-6.465697847306728">
        <ele>851.2</ele>
        <time>2017-08-05T05:49:21.000Z</time>
      </trkpt>
      <trkpt lat="43.33490123972297" lon="-6.4657157845795155">
        <ele>849.4</ele>
        <time>2017-08-05T05:49:28.000Z</time>
      </trkpt>
      <trkpt lat="43.33482027053833" lon="-6.465734392404556">
        <ele>848.4</ele>
        <time>2017-08-05T05:49:34.000Z</time>
      </trkpt>
      <trkpt lat="43.334722789004445" lon="-6.465747384354472">
        <ele>846.6</ele>
        <time>2017-08-05T05:49:41.000Z</time>
      </trkpt>
      <trkpt lat="43.33461055532098" lon="-6.465773871168494">
        <ele>844</ele>
        <time>2017-08-05T05:49:49.000Z</time>
      </trkpt>
      <trkpt lat="43.33452606573701" lon="-6.465813349932432">
        <ele>842.4</ele>
        <time>2017-08-05T05:49:55.000Z</time>
      </trkpt>
      <trkpt lat="43.33444559946656" lon="-6.465866323560476">
        <ele>840.8</ele>
        <time>2017-08-05T05:50:01.000Z</time>
      </trkpt>
      <trkpt lat="43.334349459037185" lon="-6.46593346260488">
        <ele>839</ele>
        <time>2017-08-05T05:50:08.000Z</time>
      </trkpt>
      <trkpt lat="43.33424518816173" lon="-6.46601258777082">
        <ele>837.2</ele>
        <time>2017-08-05T05:50:16.000Z</time>
      </trkpt>
      <trkpt lat="43.33414108492434" lon="-6.46609322167933">
        <ele>835.4</ele>
        <time>2017-08-05T05:50:24.000Z</time>
      </trkpt>
      <trkpt lat="43.33402524702251" lon="-6.466188691556454">
        <ele>833.6</ele>
        <time>2017-08-05T05:50:33.000Z</time>
      </trkpt>
      <trkpt lat="43.3339377399534" lon="-6.466267900541425">
        <ele>832.2</ele>
        <time>2017-08-05T05:50:40.000Z</time>
      </trkpt>
      <trkpt lat="43.333876049146056" lon="-6.46632825024426">
        <ele>831.4</ele>
        <time>2017-08-05T05:50:45.000Z</time>
      </trkpt>
      <trkpt lat="43.333837408572435" lon="-6.4663658849895">
        <ele>830.8</ele>
        <time>2017-08-05T05:50:48.000Z</time>
      </trkpt>
      <trkpt lat="43.33375928923488" lon="-6.46643428131938">
        <ele>828.8</ele>
        <time>2017-08-05T05:50:54.000Z</time>
      </trkpt>
      <trkpt lat="43.333673207089305" lon="-6.466510808095336">
        <ele>826.8</ele>
        <time>2017-08-05T05:51:01.000Z</time>
      </trkpt>
      <trkpt lat="43.33357086405158" lon="-6.466605355963111">
        <ele>824.2</ele>
        <time>2017-08-05T05:51:09.000Z</time>
      </trkpt>
      <trkpt lat="43.33346433006227" lon="-6.466676350682974">
        <ele>821.6</ele>
        <time>2017-08-05T05:51:17.000Z</time>
      </trkpt>
      <trkpt lat="43.33336307667196" lon="-6.466716332361102">
        <ele>819.2</ele>
        <time>2017-08-05T05:51:24.000Z</time>
      </trkpt>
      <trkpt lat="43.333260817453265" lon="-6.466765450313687">
        <ele>817.2</ele>
        <time>2017-08-05T05:51:32.000Z</time>
      </trkpt>
      <trkpt lat="43.33312385715544" lon="-6.466789003461599">
        <ele>815.8</ele>
        <time>2017-08-05T05:51:42.000Z</time>
      </trkpt>
      <trkpt lat="43.333018412813544" lon="-6.466793864965439">
        <ele>814.6</ele>
        <time>2017-08-05T05:51:49.000Z</time>
      </trkpt>
      <trkpt lat="43.332919757813215" lon="-6.466815657913685">
        <ele>814</ele>
        <time>2017-08-05T05:51:56.000Z</time>
      </trkpt>
      <trkpt lat="43.33286535926163" lon="-6.46686133928597">
        <ele>813.6</ele>
        <time>2017-08-05T05:52:01.000Z</time>
      </trkpt>
      <trkpt lat="43.33286334760487" lon="-6.466863686218858">
        <ele>813.6</ele>
        <time>2017-08-05T05:52:02.000Z</time>
      </trkpt>
      <trkpt lat="43.33285538479686" lon="-6.466863937675953">
        <ele>813.6</ele>
        <time>2017-08-05T05:52:03.000Z</time>
      </trkpt>
      <trkpt lat="43.33283627405763" lon="-6.466871062293649">
        <ele>813.6</ele>
        <time>2017-08-05T05:52:05.000Z</time>
      </trkpt>
      <trkpt lat="43.33282554522157" lon="-6.466878606006503">
        <ele>813.4</ele>
        <time>2017-08-05T05:52:06.000Z</time>
      </trkpt>
      <trkpt lat="43.33270652219653" lon="-6.466948427259922">
        <ele>812.6</ele>
        <time>2017-08-05T05:52:15.000Z</time>
      </trkpt>
      <trkpt lat="43.3325906842947" lon="-6.467003580182791">
        <ele>810.2</ele>
        <time>2017-08-05T05:52:24.000Z</time>
      </trkpt>
      <trkpt lat="43.332480043172836" lon="-6.467043645679951">
        <ele>808</ele>
        <time>2017-08-05T05:52:32.000Z</time>
      </trkpt>
      <trkpt lat="43.3323850762099" lon="-6.46708220243454">
        <ele>806.4</ele>
        <time>2017-08-05T05:52:39.000Z</time>
      </trkpt>
      <trkpt lat="43.33224769681692" lon="-6.4671441446989775">
        <ele>804.2</ele>
        <time>2017-08-05T05:52:49.000Z</time>
      </trkpt>
      <trkpt lat="43.3321398217231" lon="-6.467188484966755">
        <ele>803</ele>
        <time>2017-08-05T05:52:57.000Z</time>
      </trkpt>
      <trkpt lat="43.33206798881292" lon="-6.467216312885284">
        <ele>802.6</ele>
        <time>2017-08-05T05:53:02.000Z</time>
      </trkpt>
      <trkpt lat="43.33192373625934" lon="-6.467290241271257">
        <ele>801.8</ele>
        <time>2017-08-05T05:53:13.000Z</time>
      </trkpt>
      <trkpt lat="43.33177822642028" lon="-6.467368360608816">
        <ele>800.6</ele>
        <time>2017-08-05T05:53:24.000Z</time>
      </trkpt>
      <trkpt lat="43.33165233023465" lon="-6.467456286773086">
        <ele>799.4</ele>
        <time>2017-08-05T05:53:34.000Z</time>
      </trkpt>
      <trkpt lat="43.33156256005168" lon="-6.467568101361394">
        <ele>798.6</ele>
        <time>2017-08-05T05:53:43.000Z</time>
      </trkpt>
      <trkpt lat="43.33151905797422" lon="-6.467702379450202">
        <ele>798.6</ele>
        <time>2017-08-05T05:53:51.000Z</time>
      </trkpt>
      <trkpt lat="43.331478321924806" lon="-6.467834813520312">
        <ele>798.8</ele>
        <time>2017-08-05T05:53:59.000Z</time>
      </trkpt>
      <trkpt lat="43.33146776072681" lon="-6.4678638987243176">
        <ele>798.6</ele>
        <time>2017-08-05T05:54:01.000Z</time>
      </trkpt>
      <trkpt lat="43.331479243934155" lon="-6.467900024726987">
        <ele>799</ele>
        <time>2017-08-05T05:54:04.000Z</time>
      </trkpt>
      <trkpt lat="43.331485195085406" lon="-6.467913603410125">
        <ele>799</ele>
        <time>2017-08-05T05:54:05.000Z</time>
      </trkpt>
      <trkpt lat="43.3315269369632" lon="-6.46801209077239">
        <ele>798.8</ele>
        <time>2017-08-05T05:54:12.000Z</time>
      </trkpt>
      <trkpt lat="43.33154881373048" lon="-6.468056766316295">
        <ele>798.8</ele>
        <time>2017-08-05T05:54:16.000Z</time>
      </trkpt>
      <trkpt lat="43.33157982677221" lon="-6.468107728287578">
        <ele>798.8</ele>
        <time>2017-08-05T05:54:20.000Z</time>
      </trkpt>
      <trkpt lat="43.331631710752845" lon="-6.468189619481564">
        <ele>799</ele>
        <time>2017-08-05T05:54:27.000Z</time>
      </trkpt>
      <trkpt lat="43.331645959988236" lon="-6.468204203993082">
        <ele>799</ele>
        <time>2017-08-05T05:54:29.000Z</time>
      </trkpt>
      <trkpt lat="43.33165383897722" lon="-6.468228343874216">
        <ele>799.2</ele>
        <time>2017-08-05T05:54:33.000Z</time>
      </trkpt>
      <trkpt lat="43.33168904297054" lon="-6.468281568959355">
        <ele>799.2</ele>
        <time>2017-08-05T05:54:38.000Z</time>
      </trkpt>
      <trkpt lat="43.331697173416615" lon="-6.4682896155864">
        <ele>799.2</ele>
        <time>2017-08-05T05:54:43.000Z</time>
      </trkpt>
      <trkpt lat="43.33172516897321" lon="-6.468339320272207">
        <ele>798.8</ele>
        <time>2017-08-05T05:54:50.000Z</time>
      </trkpt>
      <trkpt lat="43.33172634243965" lon="-6.468340242281556">
        <ele>798.8</ele>
        <time>2017-08-05T05:54:51.000Z</time>
      </trkpt>
      <trkpt lat="43.331739250570536" lon="-6.468359101563692">
        <ele>798.6</ele>
        <time>2017-08-05T05:54:55.000Z</time>
      </trkpt>
      <trkpt lat="43.331766910851" lon="-6.4683931320905685">
        <ele>798.2</ele>
        <time>2017-08-05T05:54:58.000Z</time>
      </trkpt>
      <trkpt lat="43.331848131492734" lon="-6.468480806797743">
        <ele>797.6</ele>
        <time>2017-08-05T05:55:06.000Z</time>
      </trkpt>
      <trkpt lat="43.33194603212178" lon="-6.468587843701243">
        <ele>797.2</ele>
        <time>2017-08-05T05:55:16.000Z</time>
      </trkpt>
      <trkpt lat="43.33200420252979" lon="-6.468642745167017">
        <ele>797</ele>
        <time>2017-08-05T05:55:22.000Z</time>
      </trkpt>
      <trkpt lat="43.33208877593279" lon="-6.468705106526613">
        <ele>797</ele>
        <time>2017-08-05T05:55:30.000Z</time>
      </trkpt>
      <trkpt lat="43.332159435376525" lon="-6.468729916960001">
        <ele>797</ele>
        <time>2017-08-05T05:55:35.000Z</time>
      </trkpt>
      <trkpt lat="43.33218080922961" lon="-6.468747183680534">
        <ele>797</ele>
        <time>2017-08-05T05:55:37.000Z</time>
      </trkpt>
      <trkpt lat="43.332214169204235" lon="-6.468780627474189">
        <ele>797.4</ele>
        <time>2017-08-05T05:55:40.000Z</time>
      </trkpt>
      <trkpt lat="43.332304023206234" lon="-6.468854220584035">
        <ele>798.2</ele>
        <time>2017-08-05T05:55:47.000Z</time>
      </trkpt>
      <trkpt lat="43.33239454776049" lon="-6.468935525044799">
        <ele>798.2</ele>
        <time>2017-08-05T05:55:55.000Z</time>
      </trkpt>
      <trkpt lat="43.332486832514405" lon="-6.469017919152975">
        <ele>800</ele>
        <time>2017-08-05T05:56:03.000Z</time>
      </trkpt>
      <trkpt lat="43.33257542923093" lon="-6.469100313261151">
        <ele>802.2</ele>
        <time>2017-08-05T05:56:11.000Z</time>
      </trkpt>
      <trkpt lat="43.33267014473677" lon="-6.469226041808724">
        <ele>803.6</ele>
        <time>2017-08-05T05:56:21.000Z</time>
      </trkpt>
      <trkpt lat="43.33268104121089" lon="-6.469229143112898">
        <ele>803.8</ele>
        <time>2017-08-05T05:56:25.000Z</time>
      </trkpt>
      <trkpt lat="43.33269671536982" lon="-6.469293180853128">
        <ele>804</ele>
        <time>2017-08-05T05:56:37.000Z</time>
      </trkpt>
      <trkpt lat="43.33274055272341" lon="-6.469420166686177">
        <ele>804.4</ele>
        <time>2017-08-05T05:56:45.000Z</time>
      </trkpt>
      <trkpt lat="43.33278606645763" lon="-6.469545979052782">
        <ele>805.2</ele>
        <time>2017-08-05T05:56:53.000Z</time>
      </trkpt>
      <trkpt lat="43.33282529376447" lon="-6.469657709822059">
        <ele>805.6</ele>
        <time>2017-08-05T05:57:00.000Z</time>
      </trkpt>
      <trkpt lat="43.332863682881" lon="-6.469789557158947">
        <ele>805.4</ele>
        <time>2017-08-05T05:57:08.000Z</time>
      </trkpt>
      <trkpt lat="43.332921266555786" lon="-6.4699646551162004">
        <ele>806</ele>
        <time>2017-08-05T05:57:18.000Z</time>
      </trkpt>
      <trkpt lat="43.332980861887336" lon="-6.4701275154948235">
        <ele>806.2</ele>
        <time>2017-08-05T05:57:28.000Z</time>
      </trkpt>
      <trkpt lat="43.332985723391175" lon="-6.470252824947238">
        <ele>804.6</ele>
        <time>2017-08-05T05:57:35.000Z</time>
      </trkpt>
      <trkpt lat="43.33300449885428" lon="-6.470395568758249">
        <ele>804.4</ele>
        <time>2017-08-05T05:57:43.000Z</time>
      </trkpt>
      <trkpt lat="43.33301045000553" lon="-6.470579970628023">
        <ele>803.8</ele>
        <time>2017-08-05T05:57:53.000Z</time>
      </trkpt>
      <trkpt lat="43.333008689805865" lon="-6.470724726095796">
        <ele>802.8</ele>
        <time>2017-08-05T05:58:01.000Z</time>
      </trkpt>
      <trkpt lat="43.33300558850169" lon="-6.470893369987607">
        <ele>801.4</ele>
        <time>2017-08-05T05:58:10.000Z</time>
      </trkpt>
      <trkpt lat="43.332998380064964" lon="-6.471094116568565">
        <ele>799.8</ele>
        <time>2017-08-05T05:58:21.000Z</time>
      </trkpt>
      <trkpt lat="43.33299460820854" lon="-6.471289750188589">
        <ele>798.2</ele>
        <time>2017-08-05T05:58:32.000Z</time>
      </trkpt>
      <trkpt lat="43.333004331216216" lon="-6.47148035466671">
        <ele>797.2</ele>
        <time>2017-08-05T05:58:43.000Z</time>
      </trkpt>
      <trkpt lat="43.333014054223895" lon="-6.4716000482439995">
        <ele>796.6</ele>
        <time>2017-08-05T05:58:50.000Z</time>
      </trkpt>
      <trkpt lat="43.33302277140319" lon="-6.471740193665028">
        <ele>796</ele>
        <time>2017-08-05T05:58:58.000Z</time>
      </trkpt>
      <trkpt lat="43.33302989602089" lon="-6.471927026286721">
        <ele>795.6</ele>
        <time>2017-08-05T05:59:08.000Z</time>
      </trkpt>
      <trkpt lat="43.33303861320019" lon="-6.472092987969518">
        <ele>795.8</ele>
        <time>2017-08-05T05:59:17.000Z</time>
      </trkpt>
      <trkpt lat="43.33304397761822" lon="-6.472251154482365">
        <ele>795.8</ele>
        <time>2017-08-05T05:59:26.000Z</time>
      </trkpt>
      <trkpt lat="43.333051605150104" lon="-6.4723392482846975">
        <ele>796</ele>
        <time>2017-08-05T05:59:34.000Z</time>
      </trkpt>
      <trkpt lat="43.333058478310704" lon="-6.4723925571888685">
        <ele>796.2</ele>
        <time>2017-08-05T05:59:41.000Z</time>
      </trkpt>
      <trkpt lat="43.333061914891005" lon="-6.472393898293376">
        <ele>796.4</ele>
        <time>2017-08-05T05:59:42.000Z</time>
      </trkpt>
      <trkpt lat="43.333064429461956" lon="-6.472389791160822">
        <ele>796.4</ele>
        <time>2017-08-05T05:59:47.000Z</time>
      </trkpt>
      <trkpt lat="43.33305303007364" lon="-6.472453158348799">
        <ele>796</ele>
        <time>2017-08-05T05:59:52.000Z</time>
      </trkpt>
      <trkpt lat="43.33307205699384" lon="-6.472628004848957">
        <ele>795.4</ele>
        <time>2017-08-05T06:00:02.000Z</time>
      </trkpt>
      <trkpt lat="43.33308697678149" lon="-6.47280746139586">
        <ele>794.4</ele>
        <time>2017-08-05T06:00:12.000Z</time>
      </trkpt>
      <trkpt lat="43.33309896290302" lon="-6.472935955971479">
        <ele>793.8</ele>
        <time>2017-08-05T06:00:20.000Z</time>
      </trkpt>
      <trkpt lat="43.333115223795176" lon="-6.473048105835915">
        <ele>793</ele>
        <time>2017-08-05T06:00:27.000Z</time>
      </trkpt>
      <trkpt lat="43.33313265815377" lon="-6.473170816898346">
        <ele>792.8</ele>
        <time>2017-08-05T06:00:34.000Z</time>
      </trkpt>
      <trkpt lat="43.33314196206629" lon="-6.473296545445919">
        <ele>792.2</ele>
        <time>2017-08-05T06:00:41.000Z</time>
      </trkpt>
      <trkpt lat="43.33315487019718" lon="-6.473357230424881">
        <ele>792</ele>
        <time>2017-08-05T06:00:45.000Z</time>
      </trkpt>
      <trkpt lat="43.33316182717681" lon="-6.4733868185430765">
        <ele>792</ele>
        <time>2017-08-05T06:00:47.000Z</time>
      </trkpt>
      <trkpt lat="43.33316543139517" lon="-6.473416993394494">
        <ele>792</ele>
        <time>2017-08-05T06:00:49.000Z</time>
      </trkpt>
      <trkpt lat="43.33317247219384" lon="-6.47352235391736">
        <ele>791.4</ele>
        <time>2017-08-05T06:00:55.000Z</time>
      </trkpt>
      <trkpt lat="43.33318202756345" lon="-6.473661158233881">
        <ele>790.4</ele>
        <time>2017-08-05T06:01:02.000Z</time>
      </trkpt>
      <trkpt lat="43.333190996199846" lon="-6.473777582868934">
        <ele>790</ele>
        <time>2017-08-05T06:01:08.000Z</time>
      </trkpt>
      <trkpt lat="43.33320641890168" lon="-6.473893420770764">
        <ele>789.8</ele>
        <time>2017-08-05T06:01:14.000Z</time>
      </trkpt>
      <trkpt lat="43.33321664482355" lon="-6.474026860669255">
        <ele>788.4</ele>
        <time>2017-08-05T06:01:22.000Z</time>
      </trkpt>
      <trkpt lat="43.333220751956105" lon="-6.474147140979767">
        <ele>787.2</ele>
        <time>2017-08-05T06:01:28.000Z</time>
      </trkpt>
      <trkpt lat="43.33322888240218" lon="-6.474228193983436">
        <ele>786.2</ele>
        <time>2017-08-05T06:01:33.000Z</time>
      </trkpt>
      <trkpt lat="43.33323550410569" lon="-6.474263900890946">
        <ele>785.8</ele>
        <time>2017-08-05T06:01:35.000Z</time>
      </trkpt>
      <trkpt lat="43.33325176499784" lon="-6.474364651367068">
        <ele>784.6</ele>
        <time>2017-08-05T06:01:41.000Z</time>
      </trkpt>
      <trkpt lat="43.33326341584325" lon="-6.474457019940019">
        <ele>783.2</ele>
        <time>2017-08-05T06:01:48.000Z</time>
      </trkpt>
      <trkpt lat="43.33325662650168" lon="-6.474580485373735">
        <ele>781.2</ele>
        <time>2017-08-05T06:01:53.000Z</time>
      </trkpt>
      <trkpt lat="43.33325176499784" lon="-6.47468869574368">
        <ele>779.6</ele>
        <time>2017-08-05T06:01:57.000Z</time>
      </trkpt>
      <trkpt lat="43.333255453035235" lon="-6.47473219782114">
        <ele>779</ele>
        <time>2017-08-05T06:01:59.000Z</time>
      </trkpt>
      <trkpt lat="43.33326609805226" lon="-6.474764216691256">
        <ele>778.8</ele>
        <time>2017-08-05T06:02:01.000Z</time>
      </trkpt>
      <trkpt lat="43.33327263593674" lon="-6.474824566394091">
        <ele>778.2</ele>
        <time>2017-08-05T06:02:06.000Z</time>
      </trkpt>
      <trkpt lat="43.333276491612196" lon="-6.47485189139843">
        <ele>777.8</ele>
        <time>2017-08-05T06:02:08.000Z</time>
      </trkpt>
      <trkpt lat="43.33328395150602" lon="-6.474857842549682">
        <ele>777.8</ele>
        <time>2017-08-05T06:02:11.000Z</time>
      </trkpt>
      <trkpt lat="43.33332862704992" lon="-6.47494375705719">
        <ele>777.4</ele>
        <time>2017-08-05T06:02:48.000Z</time>
      </trkpt>
      <trkpt lat="43.3333230111748" lon="-6.4750175178050995">
        <ele>776.6</ele>
        <time>2017-08-05T06:02:55.000Z</time>
      </trkpt>
      <trkpt lat="43.3333124499768" lon="-6.475123213604093">
        <ele>775.6</ele>
        <time>2017-08-05T06:03:02.000Z</time>
      </trkpt>
      <trkpt lat="43.33329149521887" lon="-6.475220024585724">
        <ele>774.4</ele>
        <time>2017-08-05T06:03:09.000Z</time>
      </trkpt>
      <trkpt lat="43.333285208791494" lon="-6.475330498069525">
        <ele>773.6</ele>
        <time>2017-08-05T06:03:17.000Z</time>
      </trkpt>
      <trkpt lat="43.33326634950936" lon="-6.475408198311925">
        <ele>772.4</ele>
        <time>2017-08-05T06:03:22.000Z</time>
      </trkpt>
      <trkpt lat="43.33326299674809" lon="-6.47542311809957">
        <ele>772.2</ele>
        <time>2017-08-05T06:03:23.000Z</time>
      </trkpt>
      <trkpt lat="43.3332519326359" lon="-6.475483383983374">
        <ele>771.4</ele>
        <time>2017-08-05T06:03:27.000Z</time>
      </trkpt>
      <trkpt lat="43.333244221284986" lon="-6.475554294884205">
        <ele>770.8</ele>
        <time>2017-08-05T06:03:31.000Z</time>
      </trkpt>
      <trkpt lat="43.3332244399935" lon="-6.475643310695887">
        <ele>769.4</ele>
        <time>2017-08-05T06:03:37.000Z</time>
      </trkpt>
      <trkpt lat="43.333224188536406" lon="-6.475725872442126">
        <ele>768.6</ele>
        <time>2017-08-05T06:03:42.000Z</time>
      </trkpt>
      <trkpt lat="43.33322485908866" lon="-6.4757726434618235">
        <ele>768</ele>
        <time>2017-08-05T06:03:45.000Z</time>
      </trkpt>
      <trkpt lat="43.333221673965454" lon="-6.475822599604726">
        <ele>767.4</ele>
        <time>2017-08-05T06:03:48.000Z</time>
      </trkpt>
      <trkpt lat="43.33322184160352" lon="-6.475834585726261">
        <ele>767.4</ele>
        <time>2017-08-05T06:03:49.000Z</time>
      </trkpt>
      <trkpt lat="43.33321765065193" lon="-6.475916812196374">
        <ele>766.4</ele>
        <time>2017-08-05T06:03:54.000Z</time>
      </trkpt>
      <trkpt lat="43.3332141302526" lon="-6.475932989269495">
        <ele>766.2</ele>
        <time>2017-08-05T06:03:55.000Z</time>
      </trkpt>
      <trkpt lat="43.33320918492973" lon="-6.475978083908558">
        <ele>765.4</ele>
        <time>2017-08-05T06:03:58.000Z</time>
      </trkpt>
      <trkpt lat="43.33320499397814" lon="-6.476015131920576">
        <ele>764.8</ele>
        <time>2017-08-05T06:04:00.000Z</time>
      </trkpt>
      <trkpt lat="43.333201641216874" lon="-6.476042959839106">
        <ele>764.4</ele>
        <time>2017-08-05T06:04:02.000Z</time>
      </trkpt>
      <trkpt lat="43.33320298232138" lon="-6.476092915982008">
        <ele>763.6</ele>
        <time>2017-08-05T06:04:06.000Z</time>
      </trkpt>
      <trkpt lat="43.33320432342589" lon="-6.476202802732587">
        <ele>762.6</ele>
        <time>2017-08-05T06:04:14.000Z</time>
      </trkpt>
      <trkpt lat="43.333200719207525" lon="-6.476217973977327">
        <ele>762.4</ele>
        <time>2017-08-05T06:04:15.000Z</time>
      </trkpt>
      <trkpt lat="43.33320239558816" lon="-6.4762962609529495">
        <ele>761.8</ele>
        <time>2017-08-05T06:04:20.000Z</time>
      </trkpt>
      <trkpt lat="43.33319418132305" lon="-6.476357951760292">
        <ele>761.2</ele>
        <time>2017-08-05T06:04:24.000Z</time>
      </trkpt>
      <trkpt lat="43.333182614296675" lon="-6.476424504071474">
        <ele>760.4</ele>
        <time>2017-08-05T06:04:29.000Z</time>
      </trkpt>
      <trkpt lat="43.333181189373136" lon="-6.476480830460787">
        <ele>760</ele>
        <time>2017-08-05T06:04:32.000Z</time>
      </trkpt>
      <trkpt lat="43.33318864926696" lon="-6.47650932893157">
        <ele>760</ele>
        <time>2017-08-05T06:04:34.000Z</time>
      </trkpt>
      <trkpt lat="43.33319024182856" lon="-6.4765405934304">
        <ele>760</ele>
        <time>2017-08-05T06:04:36.000Z</time>
      </trkpt>
      <trkpt lat="43.3331795129925" lon="-6.476592058315873">
        <ele>759.6</ele>
        <time>2017-08-05T06:04:39.000Z</time>
      </trkpt>
      <trkpt lat="43.3331742323935" lon="-6.476628100499511">
        <ele>759.2</ele>
        <time>2017-08-05T06:04:42.000Z</time>
      </trkpt>
      <trkpt lat="43.33317222073674" lon="-6.476656347513199">
        <ele>759.2</ele>
        <time>2017-08-05T06:04:44.000Z</time>
      </trkpt>
      <trkpt lat="43.333167526870966" lon="-6.476665064692497">
        <ele>759</ele>
        <time>2017-08-05T06:04:45.000Z</time>
      </trkpt>
      <trkpt lat="43.33315009251237" lon="-6.47671309299767">
        <ele>758.2</ele>
        <time>2017-08-05T06:04:49.000Z</time>
      </trkpt>
      <trkpt lat="43.333147410303354" lon="-6.47672088816762">
        <ele>758</ele>
        <time>2017-08-05T06:04:50.000Z</time>
      </trkpt>
      <trkpt lat="43.333140118047595" lon="-6.476765396073461">
        <ele>757.6</ele>
        <time>2017-08-05T06:04:54.000Z</time>
      </trkpt>
      <trkpt lat="43.333142045885324" lon="-6.476771933957934">
        <ele>757.6</ele>
        <time>2017-08-05T06:04:55.000Z</time>
      </trkpt>
      <trkpt lat="43.33314087241888" lon="-6.476796744391322">
        <ele>757.4</ele>
        <time>2017-08-05T06:04:57.000Z</time>
      </trkpt>
      <trkpt lat="43.33313358016312" lon="-6.476819040253758">
        <ele>757</ele>
        <time>2017-08-05T06:04:59.000Z</time>
      </trkpt>
      <trkpt lat="43.33310558460653" lon="-6.476894477382302">
        <ele>756</ele>
        <time>2017-08-05T06:05:04.000Z</time>
      </trkpt>
      <trkpt lat="43.333101058378816" lon="-6.476911744102836">
        <ele>755.8</ele>
        <time>2017-08-05T06:05:05.000Z</time>
      </trkpt>
      <trkpt lat="43.333093766123056" lon="-6.476935716345906">
        <ele>755.4</ele>
        <time>2017-08-05T06:05:09.000Z</time>
      </trkpt>
      <trkpt lat="43.33305923268199" lon="-6.47698231972754">
        <ele>754</ele>
        <time>2017-08-05T06:05:59.000Z</time>
      </trkpt>
      <trkpt lat="43.333061495795846" lon="-6.477021798491478">
        <ele>753.6</ele>
        <time>2017-08-05T06:06:37.000Z</time>
      </trkpt>
      <trkpt lat="43.33308169618249" lon="-6.477057253941894">
        <ele>753.8</ele>
        <time>2017-08-05T06:07:05.000Z</time>
      </trkpt>
      <trkpt lat="43.33307825960219" lon="-6.477071084082127">
        <ele>753.6</ele>
        <time>2017-08-05T06:07:15.000Z</time>
      </trkpt>
      <trkpt lat="43.33308320492506" lon="-6.477075442671776">
        <ele>753.6</ele>
        <time>2017-08-05T06:07:23.000Z</time>
      </trkpt>
      <trkpt lat="43.3330846298486" lon="-6.477113580331206">
        <ele>753.2</ele>
        <time>2017-08-05T06:07:31.000Z</time>
      </trkpt>
      <trkpt lat="43.33308798260987" lon="-6.477165212854743">
        <ele>752.8</ele>
        <time>2017-08-05T06:07:36.000Z</time>
      </trkpt>
      <trkpt lat="43.33309795707464" lon="-6.477212235331535">
        <ele>752.6</ele>
        <time>2017-08-05T06:07:39.000Z</time>
      </trkpt>
      <trkpt lat="43.33310030400753" lon="-6.477303011342883">
        <ele>751</ele>
        <time>2017-08-05T06:07:45.000Z</time>
      </trkpt>
      <trkpt lat="43.33311094902456" lon="-6.477392110973597">
        <ele>749.8</ele>
        <time>2017-08-05T06:07:51.000Z</time>
      </trkpt>
      <trkpt lat="43.333131819963455" lon="-6.47749780677259">
        <ele>748.4</ele>
        <time>2017-08-05T06:07:57.000Z</time>
      </trkpt>
      <trkpt lat="43.333146991208196" lon="-6.477549774572253">
        <ele>748</ele>
        <time>2017-08-05T06:08:01.000Z</time>
      </trkpt>
      <trkpt lat="43.33316870033741" lon="-6.4776133093982935">
        <ele>747.4</ele>
        <time>2017-08-05T06:08:05.000Z</time>
      </trkpt>
      <trkpt lat="43.33317540585995" lon="-6.477640634402633">
        <ele>747</ele>
        <time>2017-08-05T06:08:07.000Z</time>
      </trkpt>
      <trkpt lat="43.33319795317948" lon="-6.47776267491281">
        <ele>745</ele>
        <time>2017-08-05T06:08:14.000Z</time>
      </trkpt>
      <trkpt lat="43.33323667757213" lon="-6.477882955223322">
        <ele>743.4</ele>
        <time>2017-08-05T06:08:23.000Z</time>
      </trkpt>
      <trkpt lat="43.33328504115343" lon="-6.477948082610965">
        <ele>742.6</ele>
        <time>2017-08-05T06:08:30.000Z</time>
      </trkpt>
      <trkpt lat="43.33329954184592" lon="-6.477957470342517">
        <ele>742.6</ele>
        <time>2017-08-05T06:08:32.000Z</time>
      </trkpt>
      <trkpt lat="43.33332912996411" lon="-6.477991417050362">
        <ele>742.2</ele>
        <time>2017-08-05T06:08:36.000Z</time>
      </trkpt>
      <trkpt lat="43.33336181938648" lon="-6.47801480256021">
        <ele>742.4</ele>
        <time>2017-08-05T06:08:39.000Z</time>
      </trkpt>
      <trkpt lat="43.333367854356766" lon="-6.478026872500777">
        <ele>742.2</ele>
        <time>2017-08-05T06:08:40.000Z</time>
      </trkpt>
      <trkpt lat="43.33339677192271" lon="-6.478053359314799">
        <ele>742.2</ele>
        <time>2017-08-05T06:08:44.000Z</time>
      </trkpt>
      <trkpt lat="43.333416637033224" lon="-6.478062411770225">
        <ele>742.6</ele>
        <time>2017-08-05T06:08:46.000Z</time>
      </trkpt>
      <trkpt lat="43.33345267921686" lon="-6.478088311851025">
        <ele>742.8</ele>
        <time>2017-08-05T06:08:49.000Z</time>
      </trkpt>
      <trkpt lat="43.33350674249232" lon="-6.4781189896166325">
        <ele>743.2</ele>
        <time>2017-08-05T06:08:53.000Z</time>
      </trkpt>
      <trkpt lat="43.33358025178313" lon="-6.478174813091755">
        <ele>742.4</ele>
        <time>2017-08-05T06:08:59.000Z</time>
      </trkpt>
      <trkpt lat="43.33367580547929" lon="-6.478235078975558">
        <ele>740.4</ele>
        <time>2017-08-05T06:09:06.000Z</time>
      </trkpt>
      <trkpt lat="43.33373112604022" lon="-6.478274809196591">
        <ele>739.8</ele>
        <time>2017-08-05T06:09:11.000Z</time>
      </trkpt>
      <trkpt lat="43.3337545953691" lon="-6.478283945471048">
        <ele>739.6</ele>
        <time>2017-08-05T06:09:13.000Z</time>
      </trkpt>
      <trkpt lat="43.33381955511868" lon="-6.4783351588994265">
        <ele>738.6</ele>
        <time>2017-08-05T06:09:19.000Z</time>
      </trkpt>
      <trkpt lat="43.33385710604489" lon="-6.47836466319859">
        <ele>738</ele>
        <time>2017-08-05T06:09:23.000Z</time>
      </trkpt>
      <trkpt lat="43.33386356011033" lon="-6.478374553844333">
        <ele>737.8</ele>
        <time>2017-08-05T06:09:24.000Z</time>
      </trkpt>
      <trkpt lat="43.333871606737375" lon="-6.4783846121281385">
        <ele>737.4</ele>
        <time>2017-08-05T06:09:25.000Z</time>
      </trkpt>
      <trkpt lat="43.33391577936709" lon="-6.478438843041658">
        <ele>736</ele>
        <time>2017-08-05T06:09:31.000Z</time>
      </trkpt>
      <trkpt lat="43.33395970053971" lon="-6.4784929901361465">
        <ele>734.8</ele>
        <time>2017-08-05T06:09:36.000Z</time>
      </trkpt>
      <trkpt lat="43.33398752845824" lon="-6.478534564375877">
        <ele>734.4</ele>
        <time>2017-08-05T06:09:40.000Z</time>
      </trkpt>
      <trkpt lat="43.33400957286358" lon="-6.47856742143631">
        <ele>734</ele>
        <time>2017-08-05T06:09:42.000Z</time>
      </trkpt>
      <trkpt lat="43.334061205387115" lon="-6.478658281266689">
        <ele>732.6</ele>
        <time>2017-08-05T06:09:48.000Z</time>
      </trkpt>
      <trkpt lat="43.33410621620715" lon="-6.478734724223614">
        <ele>731</ele>
        <time>2017-08-05T06:09:53.000Z</time>
      </trkpt>
      <trkpt lat="43.3341206330806" lon="-6.4787692576646805">
        <ele>730.2</ele>
        <time>2017-08-05T06:09:56.000Z</time>
      </trkpt>
      <trkpt lat="43.33412792533636" lon="-6.478775041177869">
        <ele>730.2</ele>
        <time>2017-08-05T06:09:57.000Z</time>
      </trkpt>
      <trkpt lat="43.334162374958396" lon="-6.47882885299623">
        <ele>729</ele>
        <time>2017-08-05T06:10:02.000Z</time>
      </trkpt>
      <trkpt lat="43.33417025394738" lon="-6.478840420022607">
        <ele>728.8</ele>
        <time>2017-08-05T06:10:03.000Z</time>
      </trkpt>
      <trkpt lat="43.33418198861182" lon="-6.478859027847648">
        <ele>728.4</ele>
        <time>2017-08-05T06:10:05.000Z</time>
      </trkpt>
      <trkpt lat="43.334197495132685" lon="-6.478869505226612">
        <ele>728.4</ele>
        <time>2017-08-05T06:10:09.000Z</time>
      </trkpt>
      <trkpt lat="43.33422155119479" lon="-6.478906217962503">
        <ele>727.6</ele>
        <time>2017-08-05T06:10:13.000Z</time>
      </trkpt>
      <trkpt lat="43.33423035219312" lon="-6.478918706998229">
        <ele>727.2</ele>
        <time>2017-08-05T06:10:14.000Z</time>
      </trkpt>
      <trkpt lat="43.334254659712315" lon="-6.479000765830278">
        <ele>724.6</ele>
        <time>2017-08-05T06:10:19.000Z</time>
      </trkpt>
      <trkpt lat="43.334283996373415" lon="-6.47908441722393">
        <ele>723.4</ele>
        <time>2017-08-05T06:10:24.000Z</time>
      </trkpt>
      <trkpt lat="43.33431274630129" lon="-6.479158848524094">
        <ele>722.6</ele>
        <time>2017-08-05T06:10:29.000Z</time>
      </trkpt>
      <trkpt lat="43.3343471121043" lon="-6.479231268167496">
        <ele>722.4</ele>
        <time>2017-08-05T06:10:34.000Z</time>
      </trkpt>
      <trkpt lat="43.33438139408827" lon="-6.479311063885689">
        <ele>721.4</ele>
        <time>2017-08-05T06:10:39.000Z</time>
      </trkpt>
      <trkpt lat="43.33442045375705" lon="-6.479403516277671">
        <ele>720.2</ele>
        <time>2017-08-05T06:10:44.000Z</time>
      </trkpt>
      <trkpt lat="43.3344435878098" lon="-6.479470739141107">
        <ele>719.6</ele>
        <time>2017-08-05T06:10:48.000Z</time>
      </trkpt>
      <trkpt lat="43.33447275683284" lon="-6.479553133249283">
        <ele>719.2</ele>
        <time>2017-08-05T06:10:54.000Z</time>
      </trkpt>
      <trkpt lat="43.33451248705387" lon="-6.479612644761801">
        <ele>719.4</ele>
        <time>2017-08-05T06:11:00.000Z</time>
      </trkpt>
      <trkpt lat="43.33454567939043" lon="-6.479652626439929">
        <ele>719.4</ele>
        <time>2017-08-05T06:11:04.000Z</time>
      </trkpt>
      <trkpt lat="43.3345574978739" lon="-6.479677436873317">
        <ele>719.2</ele>
        <time>2017-08-05T06:11:06.000Z</time>
      </trkpt>
      <trkpt lat="43.3345662150532" lon="-6.479682717472315">
        <ele>719.2</ele>
        <time>2017-08-05T06:11:07.000Z</time>
      </trkpt>
      <trkpt lat="43.33457887172699" lon="-6.4796975534409285">
        <ele>719.2</ele>
        <time>2017-08-05T06:11:10.000Z</time>
      </trkpt>
      <trkpt lat="43.334623044356704" lon="-6.479761255905032">
        <ele>718.8</ele>
        <time>2017-08-05T06:11:15.000Z</time>
      </trkpt>
      <trkpt lat="43.33465891890228" lon="-6.479827221482992">
        <ele>718.6</ele>
        <time>2017-08-05T06:11:20.000Z</time>
      </trkpt>
      <trkpt lat="43.33466570824385" lon="-6.47983786650002">
        <ele>718.6</ele>
        <time>2017-08-05T06:11:21.000Z</time>
      </trkpt>
      <trkpt lat="43.334668977186084" lon="-6.479853540658951">
        <ele>718.4</ele>
        <time>2017-08-05T06:11:22.000Z</time>
      </trkpt>
      <trkpt lat="43.33470703102648" lon="-6.479915818199515">
        <ele>717.8</ele>
        <time>2017-08-05T06:11:26.000Z</time>
      </trkpt>
      <trkpt lat="43.33473921753466" lon="-6.479976503178477">
        <ele>717</ele>
        <time>2017-08-05T06:11:30.000Z</time>
      </trkpt>
      <trkpt lat="43.33476201631129" lon="-6.4800129644572735">
        <ele>716.4</ele>
        <time>2017-08-05T06:11:33.000Z</time>
      </trkpt>
      <trkpt lat="43.33478758111596" lon="-6.480071805417538">
        <ele>715.2</ele>
        <time>2017-08-05T06:11:37.000Z</time>
      </trkpt>
      <trkpt lat="43.33480551838875" lon="-6.480106171220541">
        <ele>714.6</ele>
        <time>2017-08-05T06:11:40.000Z</time>
      </trkpt>
      <trkpt lat="43.33483971655369" lon="-6.480169706046581">
        <ele>713.8</ele>
        <time>2017-08-05T06:11:45.000Z</time>
      </trkpt>
      <trkpt lat="43.334863521158695" lon="-6.48021949455142">
        <ele>713.4</ele>
        <time>2017-08-05T06:11:48.000Z</time>
      </trkpt>
      <trkpt lat="43.33488120697439" lon="-6.480247238650918">
        <ele>713.2</ele>
        <time>2017-08-05T06:11:50.000Z</time>
      </trkpt>
      <trkpt lat="43.33492579869926" lon="-6.480335080996156">
        <ele>712.2</ele>
        <time>2017-08-05T06:11:56.000Z</time>
      </trkpt>
      <trkpt lat="43.334968127310276" lon="-6.480406075716019">
        <ele>711.2</ele>
        <time>2017-08-05T06:12:02.000Z</time>
      </trkpt>
      <trkpt lat="43.33498070016503" lon="-6.480485619977117">
        <ele>709.6</ele>
        <time>2017-08-05T06:12:07.000Z</time>
      </trkpt>
      <trkpt lat="43.33500207401812" lon="-6.480562565848231">
        <ele>708.4</ele>
        <time>2017-08-05T06:12:12.000Z</time>
      </trkpt>
      <trkpt lat="43.33501514978707" lon="-6.480578072369099">
        <ele>708.4</ele>
        <time>2017-08-05T06:12:13.000Z</time>
      </trkpt>
      <trkpt lat="43.33502948284149" lon="-6.480659209191799">
        <ele>707.2</ele>
        <time>2017-08-05T06:12:18.000Z</time>
      </trkpt>
      <trkpt lat="43.33504599519074" lon="-6.480736909434199">
        <ele>706</ele>
        <time>2017-08-05T06:12:23.000Z</time>
      </trkpt>
      <trkpt lat="43.33504658192396" lon="-6.480743363499641">
        <ele>705.8</ele>
        <time>2017-08-05T06:12:24.000Z</time>
      </trkpt>
      <trkpt lat="43.33504750393331" lon="-6.480765324085951">
        <ele>705.4</ele>
        <time>2017-08-05T06:12:26.000Z</time>
      </trkpt>
      <trkpt lat="43.33504850976169" lon="-6.480791559442878">
        <ele>705</ele>
        <time>2017-08-05T06:12:28.000Z</time>
      </trkpt>
      <trkpt lat="43.335059909150004" lon="-6.480877222493291">
        <ele>703.8</ele>
        <time>2017-08-05T06:12:34.000Z</time>
      </trkpt>
      <trkpt lat="43.335065776482224" lon="-6.480924831703305">
        <ele>703.2</ele>
        <time>2017-08-05T06:12:37.000Z</time>
      </trkpt>
      <trkpt lat="43.33506762050092" lon="-6.480951486155391">
        <ele>702.8</ele>
        <time>2017-08-05T06:12:39.000Z</time>
      </trkpt>
      <trkpt lat="43.33507784642279" lon="-6.48103111423552">
        <ele>701.8</ele>
        <time>2017-08-05T06:12:45.000Z</time>
      </trkpt>
      <trkpt lat="43.33508471958339" lon="-6.481094732880592">
        <ele>701</ele>
        <time>2017-08-05T06:12:50.000Z</time>
      </trkpt>
      <trkpt lat="43.33507181145251" lon="-6.481136055663228">
        <ele>700.4</ele>
        <time>2017-08-05T06:12:53.000Z</time>
      </trkpt>
      <trkpt lat="43.33507399074733" lon="-6.481175115332007">
        <ele>700</ele>
        <time>2017-08-05T06:12:56.000Z</time>
      </trkpt>
      <trkpt lat="43.33507130853832" lon="-6.481203027069569">
        <ele>699.6</ele>
        <time>2017-08-05T06:12:58.000Z</time>
      </trkpt>
      <trkpt lat="43.335074661299586" lon="-6.48121333681047">
        <ele>699.6</ele>
        <time>2017-08-05T06:12:59.000Z</time>
      </trkpt>
      <trkpt lat="43.33507969044149" lon="-6.481254156678915">
        <ele>699.2</ele>
        <time>2017-08-05T06:13:02.000Z</time>
      </trkpt>
      <trkpt lat="43.3350910898298" lon="-6.481340657919645">
        <ele>698.4</ele>
        <time>2017-08-05T06:13:08.000Z</time>
      </trkpt>
      <trkpt lat="43.33509771153331" lon="-6.481422297656536">
        <ele>697.4</ele>
        <time>2017-08-05T06:13:13.000Z</time>
      </trkpt>
      <trkpt lat="43.33510802127421" lon="-6.481490191072226">
        <ele>696.2</ele>
        <time>2017-08-05T06:13:18.000Z</time>
      </trkpt>
      <trkpt lat="43.33511288277805" lon="-6.481526987627149">
        <ele>695.8</ele>
        <time>2017-08-05T06:13:21.000Z</time>
      </trkpt>
      <trkpt lat="43.33512746728957" lon="-6.481551043689251">
        <ele>695.4</ele>
        <time>2017-08-05T06:13:23.000Z</time>
      </trkpt>
      <trkpt lat="43.335157642140985" lon="-6.481656571850181">
        <ele>694</ele>
        <time>2017-08-05T06:13:30.000Z</time>
      </trkpt>
      <trkpt lat="43.3351740706712" lon="-6.481745671480894">
        <ele>692.8</ele>
        <time>2017-08-05T06:13:36.000Z</time>
      </trkpt>
      <trkpt lat="43.33517842926085" lon="-6.481762183830142">
        <ele>692.6</ele>
        <time>2017-08-05T06:13:37.000Z</time>
      </trkpt>
      <trkpt lat="43.335210867226124" lon="-6.481812810525298">
        <ele>692.4</ele>
        <time>2017-08-05T06:13:41.000Z</time>
      </trkpt>
      <trkpt lat="43.33521111868322" lon="-6.481817755848169">
        <ele>692.4</ele>
        <time>2017-08-05T06:13:42.000Z</time>
      </trkpt>
      <trkpt lat="43.33522142842412" lon="-6.481838375329971">
        <ele>692.2</ele>
        <time>2017-08-05T06:13:45.000Z</time>
      </trkpt>
      <trkpt lat="43.33524095825851" lon="-6.481891684234142">
        <ele>691.8</ele>
        <time>2017-08-05T06:13:49.000Z</time>
      </trkpt>
      <trkpt lat="43.3352467417717" lon="-6.481906436383724">
        <ele>691.8</ele>
        <time>2017-08-05T06:13:50.000Z</time>
      </trkpt>
      <trkpt lat="43.33526543341577" lon="-6.4819629304111">
        <ele>691</ele>
        <time>2017-08-05T06:13:54.000Z</time>
      </trkpt>
      <trkpt lat="43.33527314476669" lon="-6.481997631490231">
        <ele>690.4</ele>
        <time>2017-08-05T06:13:56.000Z</time>
      </trkpt>
      <trkpt lat="43.33528462797403" lon="-6.482007689774036">
        <ele>690.4</ele>
        <time>2017-08-05T06:13:58.000Z</time>
      </trkpt>
      <trkpt lat="43.335286220535636" lon="-6.482040714472532">
        <ele>689.8</ele>
        <time>2017-08-05T06:14:01.000Z</time>
      </trkpt>
      <trkpt lat="43.33532553166151" lon="-6.482137609273195">
        <ele>688.4</ele>
        <time>2017-08-05T06:14:07.000Z</time>
      </trkpt>
      <trkpt lat="43.335329219698906" lon="-6.482155881822109">
        <ele>688.2</ele>
        <time>2017-08-05T06:14:08.000Z</time>
      </trkpt>
      <trkpt lat="43.33535143174231" lon="-6.482220254838467">
        <ele>687.2</ele>
        <time>2017-08-05T06:14:13.000Z</time>
      </trkpt>
      <trkpt lat="43.33535646088421" lon="-6.4822612423449755">
        <ele>686.4</ele>
        <time>2017-08-05T06:14:15.000Z</time>
      </trkpt>
      <trkpt lat="43.33538529463112" lon="-6.482329135760665">
        <ele>685.2</ele>
        <time>2017-08-05T06:14:20.000Z</time>
      </trkpt>
      <trkpt lat="43.335399543866515" lon="-6.482409769669175">
        <ele>683.6</ele>
        <time>2017-08-05T06:14:25.000Z</time>
      </trkpt>
      <trkpt lat="43.33540415391326" lon="-6.482417648658156">
        <ele>683.6</ele>
        <time>2017-08-05T06:14:26.000Z</time>
      </trkpt>
      <trkpt lat="43.33542678505182" lon="-6.482468191534281">
        <ele>682.6</ele>
        <time>2017-08-05T06:14:30.000Z</time>
      </trkpt>
      <trkpt lat="43.335431227460504" lon="-6.482471125200391">
        <ele>682.6</ele>
        <time>2017-08-05T06:14:31.000Z</time>
      </trkpt>
      <trkpt lat="43.33545645698905" lon="-6.482520494610071">
        <ele>681.8</ele>
        <time>2017-08-05T06:14:35.000Z</time>
      </trkpt>
      <trkpt lat="43.335483614355326" lon="-6.482576234266162">
        <ele>680.8</ele>
        <time>2017-08-05T06:14:40.000Z</time>
      </trkpt>
      <trkpt lat="43.33549845032394" lon="-6.482598027214408">
        <ele>680.6</ele>
        <time>2017-08-05T06:14:42.000Z</time>
      </trkpt>
      <trkpt lat="43.335516387596726" lon="-6.48262451402843">
        <ele>680.2</ele>
        <time>2017-08-05T06:14:44.000Z</time>
      </trkpt>
      <trkpt lat="43.33552342839539" lon="-6.482636332511902">
        <ele>680.2</ele>
        <time>2017-08-05T06:14:45.000Z</time>
      </trkpt>
      <trkpt lat="43.33554924465716" lon="-6.482705399394035">
        <ele>679</ele>
        <time>2017-08-05T06:14:50.000Z</time>
      </trkpt>
      <trkpt lat="43.335578413680196" lon="-6.482753427699208">
        <ele>678.6</ele>
        <time>2017-08-05T06:14:54.000Z</time>
      </trkpt>
      <trkpt lat="43.33559568040073" lon="-6.4827904757112265">
        <ele>678.2</ele>
        <time>2017-08-05T06:14:57.000Z</time>
      </trkpt>
      <trkpt lat="43.335601799190044" lon="-6.482795421034098">
        <ele>678.2</ele>
        <time>2017-08-05T06:14:58.000Z</time>
      </trkpt>
      <trkpt lat="43.335609594359994" lon="-6.482806988060474">
        <ele>678</ele>
        <time>2017-08-05T06:15:00.000Z</time>
      </trkpt>
      <trkpt lat="43.33562501706183" lon="-6.4828323014080524">
        <ele>677.8</ele>
        <time>2017-08-05T06:15:03.000Z</time>
      </trkpt>
      <trkpt lat="43.33563616499305" lon="-6.48283950984478">
        <ele>677.8</ele>
        <time>2017-08-05T06:15:05.000Z</time>
      </trkpt>
      <trkpt lat="43.33564010448754" lon="-6.482847388833761">
        <ele>677.8</ele>
        <time>2017-08-05T06:15:06.000Z</time>
      </trkpt>
      <trkpt lat="43.3356698602438" lon="-6.482904804870486">
        <ele>677</ele>
        <time>2017-08-05T06:15:10.000Z</time>
      </trkpt>
      <trkpt lat="43.33569492213428" lon="-6.482951072975993">
        <ele>676.2</ele>
        <time>2017-08-05T06:15:14.000Z</time>
      </trkpt>
      <trkpt lat="43.33571998402476" lon="-6.482981834560633">
        <ele>675.8</ele>
        <time>2017-08-05T06:15:18.000Z</time>
      </trkpt>
      <trkpt lat="43.33576574921608" lon="-6.483040759339929">
        <ele>675</ele>
        <time>2017-08-05T06:15:25.000Z</time>
      </trkpt>
      <trkpt lat="43.335796343162656" lon="-6.483097840100527">
        <ele>673.6</ele>
        <time>2017-08-05T06:15:31.000Z</time>
      </trkpt>
      <trkpt lat="43.33583666011691" lon="-6.483160872012377">
        <ele>671.8</ele>
        <time>2017-08-05T06:15:37.000Z</time>
      </trkpt>
      <trkpt lat="43.33587069064379" lon="-6.483212001621723">
        <ele>670.4</ele>
        <time>2017-08-05T06:15:42.000Z</time>
      </trkpt>
      <trkpt lat="43.335894495248795" lon="-6.483236392959952">
        <ele>669.8</ele>
        <time>2017-08-05T06:15:45.000Z</time>
      </trkpt>
      <trkpt lat="43.335927771404386" lon="-6.483267154544592">
        <ele>668.8</ele>
        <time>2017-08-05T06:15:48.000Z</time>
      </trkpt>
      <trkpt lat="43.33595442585647" lon="-6.483294311910868">
        <ele>667.8</ele>
        <time>2017-08-05T06:15:51.000Z</time>
      </trkpt>
      <trkpt lat="43.33598309196532" lon="-6.483328342437744">
        <ele>666.8</ele>
        <time>2017-08-05T06:15:55.000Z</time>
      </trkpt>
      <trkpt lat="43.336003040894866" lon="-6.483351895585656">
        <ele>666.2</ele>
        <time>2017-08-05T06:15:58.000Z</time>
      </trkpt>
      <trkpt lat="43.336013685911894" lon="-6.483356673270464">
        <ele>666</ele>
        <time>2017-08-05T06:15:59.000Z</time>
      </trkpt>
      <trkpt lat="43.3360446151346" lon="-6.4833741914480925">
        <ele>665.4</ele>
        <time>2017-08-05T06:16:02.000Z</time>
      </trkpt>
      <trkpt lat="43.33606272004545" lon="-6.483388859778643">
        <ele>664.8</ele>
        <time>2017-08-05T06:16:05.000Z</time>
      </trkpt>
      <trkpt lat="43.336081663146615" lon="-6.483395900577307">
        <ele>664.6</ele>
        <time>2017-08-05T06:16:07.000Z</time>
      </trkpt>
      <trkpt lat="43.336102198809385" lon="-6.483408808708191">
        <ele>664</ele>
        <time>2017-08-05T06:16:10.000Z</time>
      </trkpt>
      <trkpt lat="43.33613715134561" lon="-6.483436217531562">
        <ele>662.8</ele>
        <time>2017-08-05T06:16:14.000Z</time>
      </trkpt>
      <trkpt lat="43.33618350327015" lon="-6.4834498800337315">
        <ele>662.2</ele>
        <time>2017-08-05T06:16:18.000Z</time>
      </trkpt>
      <trkpt lat="43.33621091209352" lon="-6.483460860326886">
        <ele>661.8</ele>
        <time>2017-08-05T06:16:21.000Z</time>
      </trkpt>
      <trkpt lat="43.336257096379995" lon="-6.483496148139238">
        <ele>660.6</ele>
        <time>2017-08-05T06:16:25.000Z</time>
      </trkpt>
      <trkpt lat="43.336271261796355" lon="-6.483497740700841">
        <ele>660.6</ele>
        <time>2017-08-05T06:16:26.000Z</time>
      </trkpt>
      <trkpt lat="43.336318619549274" lon="-6.483526574447751">
        <ele>659.6</ele>
        <time>2017-08-05T06:16:30.000Z</time>
      </trkpt>
      <trkpt lat="43.336351895704865" lon="-6.483568400144577">
        <ele>658.2</ele>
        <time>2017-08-05T06:16:34.000Z</time>
      </trkpt>
      <trkpt lat="43.33636673167348" lon="-6.483569825068116">
        <ele>658.2</ele>
        <time>2017-08-05T06:16:35.000Z</time>
      </trkpt>
      <trkpt lat="43.33637704141438" lon="-6.483576949685812">
        <ele>657.8</ele>
        <time>2017-08-05T06:16:36.000Z</time>
      </trkpt>
      <trkpt lat="43.336408054456115" lon="-6.48359689861536">
        <ele>657.4</ele>
        <time>2017-08-05T06:16:40.000Z</time>
      </trkpt>
      <trkpt lat="43.33641358651221" lon="-6.483604358509183">
        <ele>657.4</ele>
        <time>2017-08-05T06:16:41.000Z</time>
      </trkpt>
      <trkpt lat="43.33647703751922" lon="-6.483649369329214">
        <ele>656.4</ele>
        <time>2017-08-05T06:16:47.000Z</time>
      </trkpt>
      <trkpt lat="43.336487263441086" lon="-6.483656577765942">
        <ele>656.2</ele>
        <time>2017-08-05T06:16:48.000Z</time>
      </trkpt>
      <trkpt lat="43.33655096590519" lon="-6.483702510595322">
        <ele>655.4</ele>
        <time>2017-08-05T06:16:54.000Z</time>
      </trkpt>
      <trkpt lat="43.33656471222639" lon="-6.483702091500163">
        <ele>655.4</ele>
        <time>2017-08-05T06:16:55.000Z</time>
      </trkpt>
      <trkpt lat="43.33659304305911" lon="-6.48370829410851">
        <ele>655.4</ele>
        <time>2017-08-05T06:16:58.000Z</time>
      </trkpt>
      <trkpt lat="43.336609806865454" lon="-6.483724806457758">
        <ele>655</ele>
        <time>2017-08-05T06:17:00.000Z</time>
      </trkpt>
      <trkpt lat="43.336623050272465" lon="-6.483736373484135">
        <ele>654.8</ele>
        <time>2017-08-05T06:17:02.000Z</time>
      </trkpt>
      <trkpt lat="43.33665833808482" lon="-6.483747772872448">
        <ele>654.2</ele>
        <time>2017-08-05T06:17:05.000Z</time>
      </trkpt>
      <trkpt lat="43.33670477382839" lon="-6.483765710145235">
        <ele>653.4</ele>
        <time>2017-08-05T06:17:10.000Z</time>
      </trkpt>
      <trkpt lat="43.33679563365877" lon="-6.483770404011011">
        <ele>652.4</ele>
        <time>2017-08-05T06:17:17.000Z</time>
      </trkpt>
      <trkpt lat="43.33680745214224" lon="-6.483770655468106">
        <ele>652.2</ele>
        <time>2017-08-05T06:17:18.000Z</time>
      </trkpt>
      <trkpt lat="43.3368802908808" lon="-6.483742073178291">
        <ele>652.4</ele>
        <time>2017-08-05T06:17:24.000Z</time>
      </trkpt>
      <trkpt lat="43.336939634755254" lon="-6.483710473403335">
        <ele>652.4</ele>
        <time>2017-08-05T06:17:29.000Z</time>
      </trkpt>
      <trkpt lat="43.33696276880801" lon="-6.4837022591382265">
        <ele>652.4</ele>
        <time>2017-08-05T06:17:31.000Z</time>
      </trkpt>
      <trkpt lat="43.337013982236385" lon="-6.48368189111352">
        <ele>652.2</ele>
        <time>2017-08-05T06:17:34.000Z</time>
      </trkpt>
      <trkpt lat="43.33702638745308" lon="-6.483675101771951">
        <ele>652.2</ele>
        <time>2017-08-05T06:17:35.000Z</time>
      </trkpt>
      <trkpt lat="43.337056478485465" lon="-6.483654733747244">
        <ele>652.4</ele>
        <time>2017-08-05T06:17:37.000Z</time>
      </trkpt>
      <trkpt lat="43.33709763363004" lon="-6.483625313267112">
        <ele>652.6</ele>
        <time>2017-08-05T06:17:40.000Z</time>
      </trkpt>
      <trkpt lat="43.3371252939105" lon="-6.483606286346912">
        <ele>652.8</ele>
        <time>2017-08-05T06:17:43.000Z</time>
      </trkpt>
      <trkpt lat="43.33715974353254" lon="-6.483587846159935">
        <ele>652.8</ele>
        <time>2017-08-05T06:17:46.000Z</time>
      </trkpt>
      <trkpt lat="43.337184553965926" lon="-6.483572004362941">
        <ele>652.6</ele>
        <time>2017-08-05T06:17:48.000Z</time>
      </trkpt>
      <trkpt lat="43.33721405826509" lon="-6.48355289362371">
        <ele>652.2</ele>
        <time>2017-08-05T06:17:51.000Z</time>
      </trkpt>
      <trkpt lat="43.33722394891083" lon="-6.48354409262538">
        <ele>652</ele>
        <time>2017-08-05T06:17:52.000Z</time>
      </trkpt>
      <trkpt lat="43.33728672936559" lon="-6.483502350747585">
        <ele>651</ele>
        <time>2017-08-05T06:17:57.000Z</time>
      </trkpt>
      <trkpt lat="43.33729946985841" lon="-6.483493968844414">
        <ele>651</ele>
        <time>2017-08-05T06:17:58.000Z</time>
      </trkpt>
      <trkpt lat="43.337361915037036" lon="-6.4834307692945">
        <ele>650.4</ele>
        <time>2017-08-05T06:18:03.000Z</time>
      </trkpt>
      <trkpt lat="43.3374347537756" lon="-6.4833736047148705">
        <ele>649.6</ele>
        <time>2017-08-05T06:18:08.000Z</time>
      </trkpt>
      <trkpt lat="43.337535755708814" lon="-6.483313757926226">
        <ele>646.4</ele>
        <time>2017-08-05T06:18:14.000Z</time>
      </trkpt>
      <trkpt lat="43.33760096691549" lon="-6.483253156766295">
        <ele>644.2</ele>
        <time>2017-08-05T06:18:20.000Z</time>
      </trkpt>
      <trkpt lat="43.33766031078994" lon="-6.483200350776315">
        <ele>642.2</ele>
        <time>2017-08-05T06:18:25.000Z</time>
      </trkpt>
      <trkpt lat="43.33773449063301" lon="-6.483121812343597">
        <ele>640</ele>
        <time>2017-08-05T06:18:32.000Z</time>
      </trkpt>
      <trkpt lat="43.33778201602399" lon="-6.483048973605037">
        <ele>638.8</ele>
        <time>2017-08-05T06:18:38.000Z</time>
      </trkpt>
      <trkpt lat="43.33780104294419" lon="-6.483034556731582">
        <ele>638.2</ele>
        <time>2017-08-05T06:18:40.000Z</time>
      </trkpt>
      <trkpt lat="43.33782928995788" lon="-6.482997173443437">
        <ele>637.4</ele>
        <time>2017-08-05T06:18:43.000Z</time>
      </trkpt>
      <trkpt lat="43.33784990943968" lon="-6.482984013855457">
        <ele>636.6</ele>
        <time>2017-08-05T06:18:45.000Z</time>
      </trkpt>
      <trkpt lat="43.33786533214152" lon="-6.482961382716894">
        <ele>636.2</ele>
        <time>2017-08-05T06:18:47.000Z</time>
      </trkpt>
      <trkpt lat="43.337873965501785" lon="-6.482949480414391">
        <ele>636</ele>
        <time>2017-08-05T06:18:48.000Z</time>
      </trkpt>
      <trkpt lat="43.337910091504455" lon="-6.482910085469484">
        <ele>634.8</ele>
        <time>2017-08-05T06:18:52.000Z</time>
      </trkpt>
      <trkpt lat="43.33791931159794" lon="-6.482899188995361">
        <ele>634.6</ele>
        <time>2017-08-05T06:18:55.000Z</time>
      </trkpt>
      <trkpt lat="43.337940601632" lon="-6.482884353026748">
        <ele>633.8</ele>
        <time>2017-08-05T06:19:01.000Z</time>
      </trkpt>
      <trkpt lat="43.337924759835005" lon="-6.482893573120236">
        <ele>634.4</ele>
        <time>2017-08-05T06:19:05.000Z</time>
      </trkpt>
      <trkpt lat="43.33796222694218" lon="-6.482822746038437">
        <ele>633.6</ele>
        <time>2017-08-05T06:19:25.000Z</time>
      </trkpt>
      <trkpt lat="43.33797245286405" lon="-6.482799109071493">
        <ele>633.4</ele>
        <time>2017-08-05T06:19:31.000Z</time>
      </trkpt>
      <trkpt lat="43.33797873929143" lon="-6.4827784057706594">
        <ele>633.4</ele>
        <time>2017-08-05T06:20:15.000Z</time>
      </trkpt>
      <trkpt lat="43.33793674595654" lon="-6.482740519568324">
        <ele>635.8</ele>
        <time>2017-08-05T06:22:13.000Z</time>
      </trkpt>
      <trkpt lat="43.33795677870512" lon="-6.482740854844451">
        <ele>634.8</ele>
        <time>2017-08-05T06:23:51.000Z</time>
      </trkpt>
      <trkpt lat="43.33798812702298" lon="-6.482766671106219">
        <ele>633.2</ele>
        <time>2017-08-05T06:24:08.000Z</time>
      </trkpt>
      <trkpt lat="43.337947726249695" lon="-6.482799863442779">
        <ele>634.6</ele>
        <time>2017-08-05T06:24:35.000Z</time>
      </trkpt>
      <trkpt lat="43.3379527553916" lon="-6.4827789925038815">
        <ele>634.6</ele>
        <time>2017-08-05T06:25:01.000Z</time>
      </trkpt>
      <trkpt lat="43.33801478147507" lon="-6.482751332223415">
        <ele>632</ele>
        <time>2017-08-05T06:26:56.000Z</time>
      </trkpt>
      <trkpt lat="43.33799868822098" lon="-6.482746973633766">
        <ele>632.8</ele>
        <time>2017-08-05T06:27:38.000Z</time>
      </trkpt>
      <trkpt lat="43.338021486997604" lon="-6.482702298089862">
        <ele>632.2</ele>
        <time>2017-08-05T06:27:49.000Z</time>
      </trkpt>
      <trkpt lat="43.33803741261363" lon="-6.482660723850131">
        <ele>631.8</ele>
        <time>2017-08-05T06:27:55.000Z</time>
      </trkpt>
      <trkpt lat="43.33806264214218" lon="-6.482617054134607">
        <ele>630.8</ele>
        <time>2017-08-05T06:27:58.000Z</time>
      </trkpt>
      <trkpt lat="43.33807127550244" lon="-6.4825898967683315">
        <ele>630.6</ele>
        <time>2017-08-05T06:28:00.000Z</time>
      </trkpt>
      <trkpt lat="43.338146125897765" lon="-6.482495432719588">
        <ele>627.6</ele>
        <time>2017-08-05T06:28:08.000Z</time>
      </trkpt>
      <trkpt lat="43.33817856386304" lon="-6.482421001419425">
        <ele>626.4</ele>
        <time>2017-08-05T06:28:14.000Z</time>
      </trkpt>
      <trkpt lat="43.338217958807945" lon="-6.482351431623101">
        <ele>624.8</ele>
        <time>2017-08-05T06:28:20.000Z</time>
      </trkpt>
      <trkpt lat="43.33822147920728" lon="-6.482335841283202">
        <ele>624.8</ele>
        <time>2017-08-05T06:28:21.000Z</time>
      </trkpt>
      <trkpt lat="43.3382566832006" lon="-6.482292423024774">
        <ele>623.2</ele>
        <time>2017-08-05T06:28:25.000Z</time>
      </trkpt>
      <trkpt lat="43.33829339593649" lon="-6.48222578689456">
        <ele>621.8</ele>
        <time>2017-08-05T06:28:30.000Z</time>
      </trkpt>
      <trkpt lat="43.33830035291612" lon="-6.482214471325278">
        <ele>621.6</ele>
        <time>2017-08-05T06:28:31.000Z</time>
      </trkpt>
      <trkpt lat="43.33833605982363" lon="-6.482176082208753">
        <ele>620.4</ele>
        <time>2017-08-05T06:28:34.000Z</time>
      </trkpt>
      <trkpt lat="43.338376292958856" lon="-6.482137609273195">
        <ele>619</ele>
        <time>2017-08-05T06:28:37.000Z</time>
      </trkpt>
      <trkpt lat="43.338404623791575" lon="-6.482087066397071">
        <ele>618.4</ele>
        <time>2017-08-05T06:28:42.000Z</time>
      </trkpt>
      <trkpt lat="43.33840076811612" lon="-6.482087904587388">
        <ele>618.4</ele>
        <time>2017-08-05T06:28:43.000Z</time>
      </trkpt>
      <trkpt lat="43.338427506387234" lon="-6.482045743614435">
        <ele>617.8</ele>
        <time>2017-08-05T06:28:48.000Z</time>
      </trkpt>
      <trkpt lat="43.33847125992179" lon="-6.481965444982052">
        <ele>616.6</ele>
        <time>2017-08-05T06:28:55.000Z</time>
      </trkpt>
      <trkpt lat="43.338497495278716" lon="-6.481888834387064">
        <ele>616.8</ele>
        <time>2017-08-05T06:29:01.000Z</time>
      </trkpt>
      <trkpt lat="43.33852079696953" lon="-6.481840219348669">
        <ele>617</ele>
        <time>2017-08-05T06:29:05.000Z</time>
      </trkpt>
      <trkpt lat="43.33853873424232" lon="-6.481813313439488">
        <ele>616.8</ele>
        <time>2017-08-05T06:29:07.000Z</time>
      </trkpt>
      <trkpt lat="43.338558515533805" lon="-6.481778025627136">
        <ele>616.8</ele>
        <time>2017-08-05T06:29:10.000Z</time>
      </trkpt>
      <trkpt lat="43.33858206868172" lon="-6.481746258214116">
        <ele>616.4</ele>
        <time>2017-08-05T06:29:13.000Z</time>
      </trkpt>
      <trkpt lat="43.33860319107771" lon="-6.481718430295587">
        <ele>616</ele>
        <time>2017-08-05T06:29:16.000Z</time>
      </trkpt>
      <trkpt lat="43.33863093517721" lon="-6.4816769398748875">
        <ele>615.6</ele>
        <time>2017-08-05T06:29:20.000Z</time>
      </trkpt>
      <trkpt lat="43.33867703564465" lon="-6.481613740324974">
        <ele>614.8</ele>
        <time>2017-08-05T06:29:26.000Z</time>
      </trkpt>
      <trkpt lat="43.33868273533881" lon="-6.481608878821135">
        <ele>614.6</ele>
        <time>2017-08-05T06:29:33.000Z</time>
      </trkpt>
      <trkpt lat="43.33869623020291" lon="-6.481542661786079">
        <ele>615.4</ele>
        <time>2017-08-05T06:29:55.000Z</time>
      </trkpt>
      <trkpt lat="43.33872891962528" lon="-6.481491615995765">
        <ele>615</ele>
        <time>2017-08-05T06:30:00.000Z</time>
      </trkpt>
      <trkpt lat="43.33873964846134" lon="-6.481468733400106">
        <ele>615</ele>
        <time>2017-08-05T06:30:02.000Z</time>
      </trkpt>
      <trkpt lat="43.33878390491009" lon="-6.4814086351543665">
        <ele>614.2</ele>
        <time>2017-08-05T06:30:08.000Z</time>
      </trkpt>
      <trkpt lat="43.33879865705967" lon="-6.481401594355702">
        <ele>613.6</ele>
        <time>2017-08-05T06:30:09.000Z</time>
      </trkpt>
      <trkpt lat="43.33883251994848" lon="-6.481356415897608">
        <ele>613</ele>
        <time>2017-08-05T06:30:14.000Z</time>
      </trkpt>
      <trkpt lat="43.33886185660958" lon="-6.481312746182084">
        <ele>612.8</ele>
        <time>2017-08-05T06:30:19.000Z</time>
      </trkpt>
      <trkpt lat="43.33890276029706" lon="-6.481257760897279">
        <ele>612.2</ele>
        <time>2017-08-05T06:30:24.000Z</time>
      </trkpt>
      <trkpt lat="43.33895606920123" lon="-6.481178551912308">
        <ele>611.6</ele>
        <time>2017-08-05T06:30:33.000Z</time>
      </trkpt>
      <trkpt lat="43.338978784158826" lon="-6.481119878590107">
        <ele>611.8</ele>
        <time>2017-08-05T06:30:38.000Z</time>
      </trkpt>
      <trkpt lat="43.33898724988103" lon="-6.481110826134682">
        <ele>611.8</ele>
        <time>2017-08-05T06:30:39.000Z</time>
      </trkpt>
      <trkpt lat="43.33901113830507" lon="-6.481034383177757">
        <ele>611.4</ele>
        <time>2017-08-05T06:30:45.000Z</time>
      </trkpt>
      <trkpt lat="43.33902044221759" lon="-6.481003370136023">
        <ele>611.2</ele>
        <time>2017-08-05T06:30:47.000Z</time>
      </trkpt>
      <trkpt lat="43.33902773447335" lon="-6.480931034311652">
        <ele>611.4</ele>
        <time>2017-08-05T06:30:52.000Z</time>
      </trkpt>
      <trkpt lat="43.33907274529338" lon="-6.480850651860237">
        <ele>609.8</ele>
        <time>2017-08-05T06:30:58.000Z</time>
      </trkpt>
      <trkpt lat="43.33911960013211" lon="-6.4807698503136635">
        <ele>608.4</ele>
        <time>2017-08-05T06:31:04.000Z</time>
      </trkpt>
      <trkpt lat="43.339120941236615" lon="-6.480756858363748">
        <ele>608.2</ele>
        <time>2017-08-05T06:31:05.000Z</time>
      </trkpt>
      <trkpt lat="43.33915203809738" lon="-6.480708075687289">
        <ele>608</ele>
        <time>2017-08-05T06:31:09.000Z</time>
      </trkpt>
      <trkpt lat="43.33915765397251" lon="-6.480697179213166">
        <ele>608</ele>
        <time>2017-08-05T06:31:10.000Z</time>
      </trkpt>
      <trkpt lat="43.33919679746032" lon="-6.4806385058909655">
        <ele>607.6</ele>
        <time>2017-08-05T06:31:16.000Z</time>
      </trkpt>
      <trkpt lat="43.33920777775347" lon="-6.480620987713337">
        <ele>607.6</ele>
        <time>2017-08-05T06:31:18.000Z</time>
      </trkpt>
      <trkpt lat="43.33924683742225" lon="-6.480551417917013">
        <ele>607.2</ele>
        <time>2017-08-05T06:31:24.000Z</time>
      </trkpt>
      <trkpt lat="43.33925471641123" lon="-6.480537503957748">
        <ele>607.2</ele>
        <time>2017-08-05T06:31:25.000Z</time>
      </trkpt>
      <trkpt lat="43.3392702229321" lon="-6.4805095084011555">
        <ele>607</ele>
        <time>2017-08-05T06:31:28.000Z</time>
      </trkpt>
      <trkpt lat="43.33928371779621" lon="-6.48048629052937">
        <ele>607</ele>
        <time>2017-08-05T06:31:30.000Z</time>
      </trkpt>
      <trkpt lat="43.33933895453811" lon="-6.480434909462929">
        <ele>606.2</ele>
        <time>2017-08-05T06:31:36.000Z</time>
      </trkpt>
      <trkpt lat="43.33940257318318" lon="-6.480435077100992">
        <ele>605.4</ele>
        <time>2017-08-05T06:31:42.000Z</time>
      </trkpt>
      <trkpt lat="43.3394499309361" lon="-6.480453014373779">
        <ele>606.4</ele>
        <time>2017-08-05T06:31:46.000Z</time>
      </trkpt>
      <trkpt lat="43.33947650156915" lon="-6.4804706163704395">
        <ele>607</ele>
        <time>2017-08-05T06:31:48.000Z</time>
      </trkpt>
      <trkpt lat="43.339546574279666" lon="-6.480517722666264">
        <ele>607.4</ele>
        <time>2017-08-05T06:31:55.000Z</time>
      </trkpt>
      <trkpt lat="43.33956392481923" lon="-6.480526188388467">
        <ele>607.6</ele>
        <time>2017-08-05T06:31:57.000Z</time>
      </trkpt>
      <trkpt lat="43.339584125205874" lon="-6.480534067377448">
        <ele>607.8</ele>
        <time>2017-08-05T06:31:59.000Z</time>
      </trkpt>
      <trkpt lat="43.33959518931806" lon="-6.480549741536379">
        <ele>607.8</ele>
        <time>2017-08-05T06:32:01.000Z</time>
      </trkpt>
      <trkpt lat="43.33966836333275" lon="-6.480544628575444">
        <ele>609</ele>
        <time>2017-08-05T06:32:07.000Z</time>
      </trkpt>
      <trkpt lat="43.339699963107705" lon="-6.480569690465927">
        <ele>609.2</ele>
        <time>2017-08-05T06:32:11.000Z</time>
      </trkpt>
      <trkpt lat="43.339745895937085" lon="-6.480584777891636">
        <ele>610</ele>
        <time>2017-08-05T06:32:15.000Z</time>
      </trkpt>
      <trkpt lat="43.33974665030837" lon="-6.480592992156744">
        <ele>610</ele>
        <time>2017-08-05T06:32:16.000Z</time>
      </trkpt>
      <trkpt lat="43.33975444547832" lon="-6.480597602203488">
        <ele>610</ele>
        <time>2017-08-05T06:32:17.000Z</time>
      </trkpt>
      <trkpt lat="43.339799121022224" lon="-6.480619814246893">
        <ele>610.6</ele>
        <time>2017-08-05T06:32:21.000Z</time>
      </trkpt>
      <trkpt lat="43.33983206190169" lon="-6.4806546829640865">
        <ele>611</ele>
        <time>2017-08-05T06:32:26.000Z</time>
      </trkpt>
      <trkpt lat="43.33987665362656" lon="-6.480688042938709">
        <ele>611.6</ele>
        <time>2017-08-05T06:32:32.000Z</time>
      </trkpt>
      <trkpt lat="43.33988671191037" lon="-6.48069441318512">
        <ele>611.8</ele>
        <time>2017-08-05T06:32:33.000Z</time>
      </trkpt>
      <trkpt lat="43.33993557840586" lon="-6.480732634663582">
        <ele>612.4</ele>
        <time>2017-08-05T06:32:39.000Z</time>
      </trkpt>
      <trkpt lat="43.33993666805327" lon="-6.480743112042546">
        <ele>612.2</ele>
        <time>2017-08-05T06:32:40.000Z</time>
      </trkpt>
      <trkpt lat="43.33998050540686" lon="-6.480756858363748">
        <ele>612.8</ele>
        <time>2017-08-05T06:32:44.000Z</time>
      </trkpt>
      <trkpt lat="43.34003741852939" lon="-6.4807601273059845">
        <ele>613.6</ele>
        <time>2017-08-05T06:32:49.000Z</time>
      </trkpt>
      <trkpt lat="43.34009114652872" lon="-6.480743698775768">
        <ele>614.4</ele>
        <time>2017-08-05T06:32:55.000Z</time>
      </trkpt>
      <trkpt lat="43.34009936079383" lon="-6.48072718642652">
        <ele>614.6</ele>
        <time>2017-08-05T06:32:59.000Z</time>
      </trkpt>
      <trkpt lat="43.340132385492325" lon="-6.480682846158743">
        <ele>615.4</ele>
        <time>2017-08-05T06:33:03.000Z</time>
      </trkpt>
      <trkpt lat="43.340138755738735" lon="-6.480674967169762">
        <ele>615.6</ele>
        <time>2017-08-05T06:33:04.000Z</time>
      </trkpt>
      <trkpt lat="43.34015912376344" lon="-6.480649067088962">
        <ele>616.2</ele>
        <time>2017-08-05T06:33:07.000Z</time>
      </trkpt>
      <trkpt lat="43.34019717760384" lon="-6.480618808418512">
        <ele>616.8</ele>
        <time>2017-08-05T06:33:10.000Z</time>
      </trkpt>
      <trkpt lat="43.34025677293539" lon="-6.480579664930701">
        <ele>617.8</ele>
        <time>2017-08-05T06:33:18.000Z</time>
      </trkpt>
      <trkpt lat="43.34030228666961" lon="-6.480603972449899">
        <ele>618</ele>
        <time>2017-08-05T06:33:23.000Z</time>
      </trkpt>
      <trkpt lat="43.34032164886594" lon="-6.4806093368679285">
        <ele>618</ele>
        <time>2017-08-05T06:33:25.000Z</time>
      </trkpt>
      <trkpt lat="43.340349392965436" lon="-6.480602212250233">
        <ele>618.2</ele>
        <time>2017-08-05T06:33:29.000Z</time>
      </trkpt>
      <trkpt lat="43.34037152118981" lon="-6.480540689080954">
        <ele>619</ele>
        <time>2017-08-05T06:33:34.000Z</time>
      </trkpt>
      <trkpt lat="43.34037923254073" lon="-6.480431975796819">
        <ele>620</ele>
        <time>2017-08-05T06:33:41.000Z</time>
      </trkpt>
      <trkpt lat="43.34037453867495" lon="-6.480357628315687">
        <ele>620.4</ele>
        <time>2017-08-05T06:33:47.000Z</time>
      </trkpt>
      <trkpt lat="43.340348806232214" lon="-6.480286130681634">
        <ele>620.8</ele>
        <time>2017-08-05T06:33:53.000Z</time>
      </trkpt>
      <trkpt lat="43.34032617509365" lon="-6.480253022164106">
        <ele>620.8</ele>
        <time>2017-08-05T06:34:00.000Z</time>
      </trkpt>
      <trkpt lat="43.34032072685659" lon="-6.480213375762105">
        <ele>621.2</ele>
        <time>2017-08-05T06:34:12.000Z</time>
      </trkpt>
      <trkpt lat="43.340325839817524" lon="-6.480221590027213">
        <ele>621.2</ele>
        <time>2017-08-05T06:34:41.000Z</time>
      </trkpt>
      <trkpt lat="43.34031980484724" lon="-6.480117235332727">
        <ele>622.2</ele>
        <time>2017-08-05T06:39:24.000Z</time>
      </trkpt>
      <trkpt lat="43.34030262194574" lon="-6.480037439614534">
        <ele>623</ele>
        <time>2017-08-05T06:39:31.000Z</time>
      </trkpt>
      <trkpt lat="43.34029038436711" lon="-6.479959404096007">
        <ele>623.6</ele>
        <time>2017-08-05T06:39:37.000Z</time>
      </trkpt>
      <trkpt lat="43.340285355225205" lon="-6.479934006929398">
        <ele>623.6</ele>
        <time>2017-08-05T06:39:39.000Z</time>
      </trkpt>
      <trkpt lat="43.34027395583689" lon="-6.47986670024693">
        <ele>624</ele>
        <time>2017-08-05T06:39:44.000Z</time>
      </trkpt>
      <trkpt lat="43.34026909433305" lon="-6.479779863730073">
        <ele>624.6</ele>
        <time>2017-08-05T06:39:51.000Z</time>
      </trkpt>
      <trkpt lat="43.34026012569666" lon="-6.479768715798855">
        <ele>624.8</ele>
        <time>2017-08-05T06:39:53.000Z</time>
      </trkpt>
      <trkpt lat="43.34025635384023" lon="-6.479768548160791">
        <ele>624.8</ele>
        <time>2017-08-05T06:39:56.000Z</time>
      </trkpt>
      <trkpt lat="43.34025274962187" lon="-6.47979243658483">
        <ele>624.6</ele>
        <time>2017-08-05T06:39:58.000Z</time>
      </trkpt>
      <trkpt lat="43.340246714651585" lon="-6.479847338050604">
        <ele>624.2</ele>
        <time>2017-08-05T06:40:02.000Z</time>
      </trkpt>
      <trkpt lat="43.34023422561586" lon="-6.479953872039914">
        <ele>623.2</ele>
        <time>2017-08-05T06:40:09.000Z</time>
      </trkpt>
      <trkpt lat="43.340223245322704" lon="-6.480036433786154">
        <ele>622.4</ele>
        <time>2017-08-05T06:40:15.000Z</time>
      </trkpt>
      <trkpt lat="43.34021419286728" lon="-6.480057388544083">
        <ele>622.2</ele>
        <time>2017-08-05T06:40:18.000Z</time>
      </trkpt>
      <trkpt lat="43.34021016955376" lon="-6.480056382715702">
        <ele>622</ele>
        <time>2017-08-05T06:40:20.000Z</time>
      </trkpt>
      <trkpt lat="43.34015325643122" lon="-6.480041965842247">
        <ele>621.8</ele>
        <time>2017-08-05T06:40:33.000Z</time>
      </trkpt>
      <trkpt lat="43.34016147069633" lon="-6.480009276419878">
        <ele>622.2</ele>
        <time>2017-08-05T06:40:38.000Z</time>
      </trkpt>
      <trkpt lat="43.34016130305827" lon="-6.479963595047593">
        <ele>622.8</ele>
        <time>2017-08-05T06:40:45.000Z</time>
      </trkpt>
      <trkpt lat="43.340131882578135" lon="-6.479967450723052">
        <ele>622.4</ele>
        <time>2017-08-05T06:40:48.000Z</time>
      </trkpt>
      <trkpt lat="43.34012081846595" lon="-6.479973820969462">
        <ele>622.4</ele>
        <time>2017-08-05T06:40:49.000Z</time>
      </trkpt>
      <trkpt lat="43.34011981263757" lon="-6.4799481723457575">
        <ele>622.6</ele>
        <time>2017-08-05T06:40:54.000Z</time>
      </trkpt>
      <trkpt lat="43.340130960568786" lon="-6.479932079091668">
        <ele>622.8</ele>
        <time>2017-08-05T06:40:56.000Z</time>
      </trkpt>
      <trkpt lat="43.34012970328331" lon="-6.479932582005858">
        <ele>622.6</ele>
        <time>2017-08-05T06:41:00.000Z</time>
      </trkpt>
      <trkpt lat="43.34012920036912" lon="-6.479892684146762">
        <ele>623</ele>
        <time>2017-08-05T06:41:05.000Z</time>
      </trkpt>
      <trkpt lat="43.34010028280318" lon="-6.47982956841588">
        <ele>623.2</ele>
        <time>2017-08-05T06:41:12.000Z</time>
      </trkpt>
      <trkpt lat="43.34011545404792" lon="-6.479809703305364">
        <ele>623.4</ele>
        <time>2017-08-05T06:41:13.000Z</time>
      </trkpt>
      <trkpt lat="43.340120231732726" lon="-6.479771817103028">
        <ele>623.8</ele>
        <time>2017-08-05T06:41:16.000Z</time>
      </trkpt>
      <trkpt lat="43.34011654369533" lon="-6.479738038033247">
        <ele>624</ele>
        <time>2017-08-05T06:41:19.000Z</time>
      </trkpt>
      <trkpt lat="43.34010707214475" lon="-6.4797246269881725">
        <ele>624</ele>
        <time>2017-08-05T06:41:29.000Z</time>
      </trkpt>
      <trkpt lat="43.34005267359316" lon="-6.479557743296027">
        <ele>624</ele>
        <time>2017-08-05T06:43:17.000Z</time>
      </trkpt>
      <trkpt lat="43.34003574214876" lon="-6.479608453810215">
        <ele>623.8</ele>
        <time>2017-08-05T06:43:29.000Z</time>
      </trkpt>
      <trkpt lat="43.3400250133127" lon="-6.479625469073653">
        <ele>623.8</ele>
        <time>2017-08-05T06:43:33.000Z</time>
      </trkpt>
      <trkpt lat="43.34001637995243" lon="-6.479669390246272">
        <ele>623.6</ele>
        <time>2017-08-05T06:43:37.000Z</time>
      </trkpt>
      <trkpt lat="43.340028449893" lon="-6.479702917858958">
        <ele>623.6</ele>
        <time>2017-08-05T06:43:39.000Z</time>
      </trkpt>
      <trkpt lat="43.34002451039851" lon="-6.479735607281327">
        <ele>623.4</ele>
        <time>2017-08-05T06:43:43.000Z</time>
      </trkpt>
      <trkpt lat="43.34001738578081" lon="-6.479735104367137">
        <ele>623.4</ele>
        <time>2017-08-05T06:43:44.000Z</time>
      </trkpt>
      <trkpt lat="43.34000741131604" lon="-6.479690261185169">
        <ele>623.4</ele>
        <time>2017-08-05T06:43:54.000Z</time>
      </trkpt>
      <trkpt lat="43.33998746238649" lon="-6.479667378589511">
        <ele>623.4</ele>
        <time>2017-08-05T06:44:01.000Z</time>
      </trkpt>
      <trkpt lat="43.340007830411196" lon="-6.47963653318584">
        <ele>623.6</ele>
        <time>2017-08-05T06:44:07.000Z</time>
      </trkpt>
      <trkpt lat="43.340044375509024" lon="-6.479623541235924">
        <ele>624</ele>
        <time>2017-08-05T06:44:11.000Z</time>
      </trkpt>
      <trkpt lat="43.34005049429834" lon="-6.479638880118728">
        <ele>624</ele>
        <time>2017-08-05T06:44:12.000Z</time>
      </trkpt>
      <trkpt lat="43.34004026837647" lon="-6.479697469621897">
        <ele>623.6</ele>
        <time>2017-08-05T06:44:15.000Z</time>
      </trkpt>
      <trkpt lat="43.34003155119717" lon="-6.479690345004201">
        <ele>623.6</ele>
        <time>2017-08-05T06:44:16.000Z</time>
      </trkpt>
      <trkpt lat="43.340037167072296" lon="-6.479706354439259">
        <ele>623.6</ele>
        <time>2017-08-05T06:44:20.000Z</time>
      </trkpt>
      <trkpt lat="43.34004957228899" lon="-6.479689674451947">
        <ele>623.8</ele>
        <time>2017-08-05T06:44:25.000Z</time>
      </trkpt>
      <trkpt lat="43.340018475428224" lon="-6.479678861796856">
        <ele>623.6</ele>
        <time>2017-08-05T06:44:29.000Z</time>
      </trkpt>
      <trkpt lat="43.34000397473574" lon="-6.479646675288677">
        <ele>623.6</ele>
        <time>2017-08-05T06:44:32.000Z</time>
      </trkpt>
      <trkpt lat="43.34001034498215" lon="-6.4796230383217335">
        <ele>623.6</ele>
        <time>2017-08-05T06:44:34.000Z</time>
      </trkpt>
      <trkpt lat="43.33998084068298" lon="-6.479553887620568">
        <ele>623.2</ele>
        <time>2017-08-05T06:44:37.000Z</time>
      </trkpt>
      <trkpt lat="43.33993926644325" lon="-6.479510301724076">
        <ele>622.6</ele>
        <time>2017-08-05T06:44:43.000Z</time>
      </trkpt>
      <trkpt lat="43.33995385095477" lon="-6.479460010305047">
        <ele>623</ele>
        <time>2017-08-05T06:44:48.000Z</time>
      </trkpt>
      <trkpt lat="43.33995292894542" lon="-6.47946210578084">
        <ele>623</ele>
        <time>2017-08-05T06:44:49.000Z</time>
      </trkpt>
      <trkpt lat="43.34007220342755" lon="-6.479377951472998">
        <ele>624</ele>
        <time>2017-08-05T06:45:23.000Z</time>
      </trkpt>
      <trkpt lat="43.3400992769748" lon="-6.479324894025922">
        <ele>624.2</ele>
        <time>2017-08-05T06:45:28.000Z</time>
      </trkpt>
      <trkpt lat="43.34008821286261" lon="-6.479315171018243">
        <ele>624</ele>
        <time>2017-08-05T06:45:30.000Z</time>
      </trkpt>
      <trkpt lat="43.340109419077635" lon="-6.479303436353803">
        <ele>624.2</ele>
        <time>2017-08-05T06:45:32.000Z</time>
      </trkpt>
      <trkpt lat="43.340153424069285" lon="-6.479278709739447">
        <ele>624.6</ele>
        <time>2017-08-05T06:45:37.000Z</time>
      </trkpt>
      <trkpt lat="43.3401611354202" lon="-6.479279296472669">
        <ele>624.6</ele>
        <time>2017-08-05T06:45:38.000Z</time>
      </trkpt>
      <trkpt lat="43.34017421118915" lon="-6.479319948703051">
        <ele>625</ele>
        <time>2017-08-05T06:45:43.000Z</time>
      </trkpt>
      <trkpt lat="43.34017110988498" lon="-6.4793226309120655">
        <ele>625</ele>
        <time>2017-08-05T06:45:44.000Z</time>
      </trkpt>
      <trkpt lat="43.340180832892656" lon="-6.479318188503385">
        <ele>625</ele>
        <time>2017-08-05T06:45:45.000Z</time>
      </trkpt>
      <trkpt lat="43.340184688568115" lon="-6.479326905682683">
        <ele>625</ele>
        <time>2017-08-05T06:45:49.000Z</time>
      </trkpt>
      <trkpt lat="43.34014110267162" lon="-6.479398151859641">
        <ele>624.8</ele>
        <time>2017-08-05T06:45:54.000Z</time>
      </trkpt>
      <trkpt lat="43.340134313330054" lon="-6.479435786604881">
        <ele>625</ele>
        <time>2017-08-05T06:45:56.000Z</time>
      </trkpt>
      <trkpt lat="43.340119142085314" lon="-6.4794745948165655">
        <ele>624.8</ele>
        <time>2017-08-05T06:45:59.000Z</time>
      </trkpt>
      <trkpt lat="43.340116711333394" lon="-6.47949387319386">
        <ele>624.8</ele>
        <time>2017-08-05T06:46:00.000Z</time>
      </trkpt>
      <trkpt lat="43.3401127718389" lon="-6.479531591758132">
        <ele>624.6</ele>
        <time>2017-08-05T06:46:04.000Z</time>
      </trkpt>
      <trkpt lat="43.34010640159249" lon="-6.479542069137096">
        <ele>624.6</ele>
        <time>2017-08-05T06:46:05.000Z</time>
      </trkpt>
      <trkpt lat="43.340118303895" lon="-6.479565119370818">
        <ele>624.8</ele>
        <time>2017-08-05T06:46:09.000Z</time>
      </trkpt>
      <trkpt lat="43.34011511877179" lon="-6.479516085237265">
        <ele>624.8</ele>
        <time>2017-08-05T06:46:14.000Z</time>
      </trkpt>
      <trkpt lat="43.340113274753094" lon="-6.479520024731755">
        <ele>624.8</ele>
        <time>2017-08-05T06:46:20.000Z</time>
      </trkpt>
      <trkpt lat="43.34011008962989" lon="-6.479539889842272">
        <ele>624.6</ele>
        <time>2017-08-05T06:46:32.000Z</time>
      </trkpt>
      <trkpt lat="43.34007924422622" lon="-6.479518683627248">
        <ele>624.4</ele>
        <time>2017-08-05T06:46:37.000Z</time>
      </trkpt>
      <trkpt lat="43.34011076018214" lon="-6.4795037638396025">
        <ele>624.6</ele>
        <time>2017-08-05T06:46:42.000Z</time>
      </trkpt>
      <trkpt lat="43.34010531194508" lon="-6.479516252875328">
        <ele>624.6</ele>
        <time>2017-08-05T06:46:48.000Z</time>
      </trkpt>
      <trkpt lat="43.34008636884391" lon="-6.4794916938990355">
        <ele>624.4</ele>
        <time>2017-08-05T06:46:52.000Z</time>
      </trkpt>
      <trkpt lat="43.34007899276912" lon="-6.479493957012892">
        <ele>624.4</ele>
        <time>2017-08-05T06:47:04.000Z</time>
      </trkpt>
      <trkpt lat="43.34008628502488" lon="-6.4795261435210705">
        <ele>624.4</ele>
        <time>2017-08-05T06:47:08.000Z</time>
      </trkpt>
      <trkpt lat="43.340101540088654" lon="-6.4795066975057125">
        <ele>624.6</ele>
        <time>2017-08-05T06:47:17.000Z</time>
      </trkpt>
      <trkpt lat="43.34012098610401" lon="-6.479481048882008">
        <ele>624.8</ele>
        <time>2017-08-05T06:47:22.000Z</time>
      </trkpt>
      <trkpt lat="43.34012350067496" lon="-6.479476438835263">
        <ele>624.8</ele>
        <time>2017-08-05T06:47:26.000Z</time>
      </trkpt>
      <trkpt lat="43.34014671854675" lon="-6.47947870194912">
        <ele>625</ele>
        <time>2017-08-05T06:47:34.000Z</time>
      </trkpt>
      <trkpt lat="43.34015811793506" lon="-6.47943620570004">
        <ele>625.2</ele>
        <time>2017-08-05T06:47:40.000Z</time>
      </trkpt>
      <trkpt lat="43.34014722146094" lon="-6.4793679770082235">
        <ele>624.8</ele>
        <time>2017-08-05T06:47:52.000Z</time>
      </trkpt>
      <trkpt lat="43.340126015245914" lon="-6.479353811591864">
        <ele>624.6</ele>
        <time>2017-08-05T06:48:05.000Z</time>
      </trkpt>
      <trkpt lat="43.34013255313039" lon="-6.4793523866683245">
        <ele>624.6</ele>
        <time>2017-08-05T06:48:06.000Z</time>
      </trkpt>
      <trkpt lat="43.340117298066616" lon="-6.479345429688692">
        <ele>624.4</ele>
        <time>2017-08-05T06:48:11.000Z</time>
      </trkpt>
      <trkpt lat="43.340107910335064" lon="-6.479387925937772">
        <ele>624.4</ele>
        <time>2017-08-05T06:48:17.000Z</time>
      </trkpt>
      <trkpt lat="43.340100701898336" lon="-6.479398487135768">
        <ele>624.4</ele>
        <time>2017-08-05T06:48:24.000Z</time>
      </trkpt>
      <trkpt lat="43.34010321646929" lon="-6.479440815746784">
        <ele>624.6</ele>
        <time>2017-08-05T06:48:31.000Z</time>
      </trkpt>
      <trkpt lat="43.340097265318036" lon="-6.479468978941441">
        <ele>624.6</ele>
        <time>2017-08-05T06:48:37.000Z</time>
      </trkpt>
      <trkpt lat="43.34010145626962" lon="-6.479526478797197">
        <ele>624.6</ele>
        <time>2017-08-05T06:48:51.000Z</time>
      </trkpt>
      <trkpt lat="43.34011109545827" lon="-6.479560844600201">
        <ele>624.6</ele>
        <time>2017-08-05T06:48:58.000Z</time>
      </trkpt>
      <trkpt lat="43.340127440169454" lon="-6.479548271745443">
        <ele>624.8</ele>
        <time>2017-08-05T06:49:02.000Z</time>
      </trkpt>
      <trkpt lat="43.340122662484646" lon="-6.479636449366808">
        <ele>624.4</ele>
        <time>2017-08-05T06:49:21.000Z</time>
      </trkpt>
      <trkpt lat="43.34011696279049" lon="-6.4796901773661375">
        <ele>624.2</ele>
        <time>2017-08-05T06:49:31.000Z</time>
      </trkpt>
      <trkpt lat="43.34011838771403" lon="-6.479729823768139">
        <ele>624</ele>
        <time>2017-08-05T06:49:34.000Z</time>
      </trkpt>
      <trkpt lat="43.340119142085314" lon="-6.479716999456286">
        <ele>624.2</ele>
        <time>2017-08-05T06:49:36.000Z</time>
      </trkpt>
      <trkpt lat="43.34011788479984" lon="-6.4797084499150515">
        <ele>624.2</ele>
        <time>2017-08-05T06:49:42.000Z</time>
      </trkpt>
      <trkpt lat="43.34010631777346" lon="-6.479660673066974">
        <ele>624.2</ele>
        <time>2017-08-05T06:50:01.000Z</time>
      </trkpt>
      <trkpt lat="43.34011520259082" lon="-6.479678777977824">
        <ele>624.2</ele>
        <time>2017-08-05T06:50:07.000Z</time>
      </trkpt>
      <trkpt lat="43.34010120481253" lon="-6.4797084499150515">
        <ele>624</ele>
        <time>2017-08-05T06:50:15.000Z</time>
      </trkpt>
      <trkpt lat="43.34009106270969" lon="-6.479755472391844">
        <ele>623.6</ele>
        <time>2017-08-05T06:50:22.000Z</time>
      </trkpt>
      <trkpt lat="43.34007538855076" lon="-6.479769051074982">
        <ele>623.4</ele>
        <time>2017-08-05T06:50:28.000Z</time>
      </trkpt>
      <trkpt lat="43.340083016082644" lon="-6.4798380341380835">
        <ele>623</ele>
        <time>2017-08-05T06:50:32.000Z</time>
      </trkpt>
      <trkpt lat="43.34009894169867" lon="-6.479847757145762">
        <ele>623</ele>
        <time>2017-08-05T06:50:33.000Z</time>
      </trkpt>
      <trkpt lat="43.34006415680051" lon="-6.479878267273307">
        <ele>622.6</ele>
        <time>2017-08-05T06:50:36.000Z</time>
      </trkpt>
      <trkpt lat="43.34005267359316" lon="-6.479886146262288">
        <ele>622.4</ele>
        <time>2017-08-05T06:50:37.000Z</time>
      </trkpt>
      <trkpt lat="43.34004211239517" lon="-6.479878267273307">
        <ele>622.4</ele>
        <time>2017-08-05T06:50:39.000Z</time>
      </trkpt>
      <trkpt lat="43.340060049667954" lon="-6.479871980845928">
        <ele>622.6</ele>
        <time>2017-08-05T06:50:42.000Z</time>
      </trkpt>
      <trkpt lat="43.34008268080652" lon="-6.4798707235604525">
        <ele>622.8</ele>
        <time>2017-08-05T06:50:43.000Z</time>
      </trkpt>
      <trkpt lat="43.34012660197914" lon="-6.479844572022557">
        <ele>623.4</ele>
        <time>2017-08-05T06:50:46.000Z</time>
      </trkpt>
      <trkpt lat="43.34014596417546" lon="-6.479898802936077">
        <ele>623</ele>
        <time>2017-08-05T06:50:50.000Z</time>
      </trkpt>
      <trkpt lat="43.34015032276511" lon="-6.479945154860616">
        <ele>622.8</ele>
        <time>2017-08-05T06:50:54.000Z</time>
      </trkpt>
      <trkpt lat="43.340154346078634" lon="-6.479978347197175">
        <ele>622.6</ele>
        <time>2017-08-05T06:50:56.000Z</time>
      </trkpt>
      <trkpt lat="43.340200865641236" lon="-6.479992177337408">
        <ele>622.8</ele>
        <time>2017-08-05T06:51:02.000Z</time>
      </trkpt>
      <trkpt lat="43.340215450152755" lon="-6.480007180944085">
        <ele>622.6</ele>
        <time>2017-08-05T06:51:05.000Z</time>
      </trkpt>
      <trkpt lat="43.34020723588765" lon="-6.479963678866625">
        <ele>623</ele>
        <time>2017-08-05T06:51:08.000Z</time>
      </trkpt>
      <trkpt lat="43.3402010332793" lon="-6.4799366891384125">
        <ele>623.2</ele>
        <time>2017-08-05T06:51:11.000Z</time>
      </trkpt>
      <trkpt lat="43.34019315429032" lon="-6.479907855391502">
        <ele>623.4</ele>
        <time>2017-08-05T06:51:14.000Z</time>
      </trkpt>
      <trkpt lat="43.34019751287997" lon="-6.47989746183157">
        <ele>623.4</ele>
        <time>2017-08-05T06:51:15.000Z</time>
      </trkpt>
      <trkpt lat="43.34020832553506" lon="-6.47997616790235">
        <ele>623</ele>
        <time>2017-08-05T06:51:20.000Z</time>
      </trkpt>
      <trkpt lat="43.34023900330067" lon="-6.479994859546423">
        <ele>623</ele>
        <time>2017-08-05T06:51:24.000Z</time>
      </trkpt>
      <trkpt lat="43.34022735245526" lon="-6.480004834011197">
        <ele>622.8</ele>
        <time>2017-08-05T06:51:27.000Z</time>
      </trkpt>
      <trkpt lat="43.34013414569199" lon="-6.479976335540414">
        <ele>622.4</ele>
        <time>2017-08-05T06:51:47.000Z</time>
      </trkpt>
      <trkpt lat="43.34002861753106" lon="-6.479892851784825">
        <ele>622.2</ele>
        <time>2017-08-05T06:51:52.000Z</time>
      </trkpt>
      <trkpt lat="43.340027360245585" lon="-6.47990140132606">
        <ele>622.2</ele>
        <time>2017-08-05T06:51:53.000Z</time>
      </trkpt>
      <trkpt lat="43.340094247832894" lon="-6.4797355234622955">
        <ele>623.8</ele>
        <time>2017-08-05T06:52:01.000Z</time>
      </trkpt>
      <trkpt lat="43.340117298066616" lon="-6.479713227599859">
        <ele>624.2</ele>
        <time>2017-08-05T06:52:05.000Z</time>
      </trkpt>
      <trkpt lat="43.340111346915364" lon="-6.479697218164802">
        <ele>624.2</ele>
        <time>2017-08-05T06:52:13.000Z</time>
      </trkpt>
      <trkpt lat="43.340102545917034" lon="-6.479675341397524">
        <ele>624.2</ele>
        <time>2017-08-05T06:52:15.000Z</time>
      </trkpt>
      <trkpt lat="43.3401008695364" lon="-6.4796380419284105">
        <ele>624.4</ele>
        <time>2017-08-05T06:52:20.000Z</time>
      </trkpt>
      <trkpt lat="43.34007689729333" lon="-6.479582889005542">
        <ele>624.4</ele>
        <time>2017-08-05T06:52:26.000Z</time>
      </trkpt>
      <trkpt lat="43.34007094614208" lon="-6.47957107052207">
        <ele>624.2</ele>
        <time>2017-08-05T06:52:33.000Z</time>
      </trkpt>
      <trkpt lat="43.34008729085326" lon="-6.479599233716726">
        <ele>624.4</ele>
        <time>2017-08-05T06:52:40.000Z</time>
      </trkpt>
      <trkpt lat="43.34008955396712" lon="-6.479614907875657">
        <ele>624.4</ele>
        <time>2017-08-05T06:52:46.000Z</time>
      </trkpt>
      <trkpt lat="43.34007052704692" lon="-6.479609962552786">
        <ele>624.2</ele>
        <time>2017-08-05T06:52:47.000Z</time>
      </trkpt>
      <trkpt lat="43.34002560004592" lon="-6.479635275900364">
        <ele>623.8</ele>
        <time>2017-08-05T06:52:50.000Z</time>
      </trkpt>
      <trkpt lat="43.340027276426554" lon="-6.47964047268033">
        <ele>623.8</ele>
        <time>2017-08-05T06:52:51.000Z</time>
      </trkpt>
      <trkpt lat="43.34004554897547" lon="-6.479648435488343">
        <ele>623.8</ele>
        <time>2017-08-05T06:52:55.000Z</time>
      </trkpt>
      <trkpt lat="43.34009642712772" lon="-6.479614404961467">
        <ele>624.4</ele>
        <time>2017-08-05T06:53:12.000Z</time>
      </trkpt>
      <trkpt lat="43.340106066316366" lon="-6.479618763551116">
        <ele>624.4</ele>
        <time>2017-08-05T06:53:17.000Z</time>
      </trkpt>
      <trkpt lat="43.34010120481253" lon="-6.479657236486673">
        <ele>624.2</ele>
        <time>2017-08-05T06:53:34.000Z</time>
      </trkpt>
      <trkpt lat="43.340129451826215" lon="-6.479655224829912">
        <ele>624.4</ele>
        <time>2017-08-05T06:53:44.000Z</time>
      </trkpt>
      <trkpt lat="43.34012283012271" lon="-6.479606023058295">
        <ele>624.6</ele>
        <time>2017-08-05T06:53:51.000Z</time>
      </trkpt>
      <trkpt lat="43.34011604078114" lon="-6.479558665305376">
        <ele>624.8</ele>
        <time>2017-08-05T06:53:56.000Z</time>
      </trkpt>
      <trkpt lat="43.34009952843189" lon="-6.4795031771063805">
        <ele>624.6</ele>
        <time>2017-08-05T06:54:02.000Z</time>
      </trkpt>
      <trkpt lat="43.3400924038142" lon="-6.4794704876840115">
        <ele>624.4</ele>
        <time>2017-08-05T06:54:10.000Z</time>
      </trkpt>
      <trkpt lat="43.34010380320251" lon="-6.479531591758132">
        <ele>624.6</ele>
        <time>2017-08-05T06:54:29.000Z</time>
      </trkpt>
      <trkpt lat="43.340110927820206" lon="-6.479542488232255">
        <ele>624.6</ele>
        <time>2017-08-05T06:54:34.000Z</time>
      </trkpt>
      <trkpt lat="43.340129032731056" lon="-6.479527400806546">
        <ele>624.8</ele>
        <time>2017-08-05T06:54:42.000Z</time>
      </trkpt>
      <trkpt lat="43.340153340250254" lon="-6.479537962004542">
        <ele>625</ele>
        <time>2017-08-05T06:54:47.000Z</time>
      </trkpt>
      <trkpt lat="43.34011469967663" lon="-6.47956763394177">
        <ele>624.6</ele>
        <time>2017-08-05T06:54:54.000Z</time>
      </trkpt>
      <trkpt lat="43.34018460474908" lon="-6.479547098278999">
        <ele>625.2</ele>
        <time>2017-08-05T06:55:01.000Z</time>
      </trkpt>
      <trkpt lat="43.34019273519516" lon="-6.479534860700369">
        <ele>625.4</ele>
        <time>2017-08-05T06:55:04.000Z</time>
      </trkpt>
      <trkpt lat="43.34017429500818" lon="-6.479512564837933">
        <ele>625.4</ele>
        <time>2017-08-05T06:55:14.000Z</time>
      </trkpt>
      <trkpt lat="43.34016046486795" lon="-6.479508960619569">
        <ele>625.2</ele>
        <time>2017-08-05T06:55:22.000Z</time>
      </trkpt>
      <trkpt lat="43.3401801623404" lon="-6.479520360007882">
        <ele>625.4</ele>
        <time>2017-08-05T06:55:28.000Z</time>
      </trkpt>
      <trkpt lat="43.340234057977796" lon="-6.479525389149785">
        <ele>625.6</ele>
        <time>2017-08-05T06:55:34.000Z</time>
      </trkpt>
      <trkpt lat="43.34021234884858" lon="-6.479488257318735">
        <ele>625.6</ele>
        <time>2017-08-05T06:55:51.000Z</time>
      </trkpt>
      <trkpt lat="43.3402010332793" lon="-6.479471744969487">
        <ele>625.6</ele>
        <time>2017-08-05T06:55:52.000Z</time>
      </trkpt>
      <trkpt lat="43.340213019400835" lon="-6.47948750294745">
        <ele>625.6</ele>
        <time>2017-08-05T06:55:55.000Z</time>
      </trkpt>
      <trkpt lat="43.34019650705159" lon="-6.479497225955129">
        <ele>625.6</ele>
        <time>2017-08-05T06:55:59.000Z</time>
      </trkpt>
      <trkpt lat="43.340216372162104" lon="-6.479515163227916">
        <ele>625.6</ele>
        <time>2017-08-05T06:56:04.000Z</time>
      </trkpt>
      <trkpt lat="43.34024688228965" lon="-6.479524215683341">
        <ele>625.8</ele>
        <time>2017-08-05T06:56:11.000Z</time>
      </trkpt>
      <trkpt lat="43.340255515649915" lon="-6.479510301724076">
        <ele>625.8</ele>
        <time>2017-08-05T06:56:16.000Z</time>
      </trkpt>
      <trkpt lat="43.34023833274841" lon="-6.479516085237265">
        <ele>625.8</ele>
        <time>2017-08-05T06:56:19.000Z</time>
      </trkpt>
      <trkpt lat="43.34024839103222" lon="-6.479512648656964">
        <ele>625.8</ele>
        <time>2017-08-05T06:56:23.000Z</time>
      </trkpt>
      <trkpt lat="43.34019315429032" lon="-6.479987651109695">
        <ele>622.8</ele>
        <time>2017-08-05T06:59:29.000Z</time>
      </trkpt>
      <trkpt lat="43.340211007744074" lon="-6.480003576725721">
        <ele>622.8</ele>
        <time>2017-08-05T06:59:33.000Z</time>
      </trkpt>
      <trkpt lat="43.34025518037379" lon="-6.480043809860945">
        <ele>622.6</ele>
        <time>2017-08-05T06:59:40.000Z</time>
      </trkpt>
      <trkpt lat="43.3402752969414" lon="-6.480081444606185">
        <ele>622.4</ele>
        <time>2017-08-05T06:59:45.000Z</time>
      </trkpt>
      <trkpt lat="43.34030672907829" lon="-6.480166269466281">
        <ele>621.6</ele>
        <time>2017-08-05T06:59:53.000Z</time>
      </trkpt>
      <trkpt lat="43.340341513976455" lon="-6.4802479930222034">
        <ele>621</ele>
        <time>2017-08-05T07:00:00.000Z</time>
      </trkpt>
      <trkpt lat="43.3403580263257" lon="-6.480287052690983">
        <ele>620.8</ele>
        <time>2017-08-05T07:00:06.000Z</time>
      </trkpt>
      <trkpt lat="43.34038149565458" lon="-6.480389814823866">
        <ele>620.2</ele>
        <time>2017-08-05T07:00:13.000Z</time>
      </trkpt>
      <trkpt lat="43.340377723798156" lon="-6.480531971901655">
        <ele>619.2</ele>
        <time>2017-08-05T07:00:22.000Z</time>
      </trkpt>
      <trkpt lat="43.34034553728998" lon="-6.480587460100651">
        <ele>618.4</ele>
        <time>2017-08-05T07:00:29.000Z</time>
      </trkpt>
      <trkpt lat="43.34030228666961" lon="-6.480525014922023">
        <ele>618.6</ele>
        <time>2017-08-05T07:00:36.000Z</time>
      </trkpt>
      <trkpt lat="43.340260963886976" lon="-6.480535743758082">
        <ele>618.4</ele>
        <time>2017-08-05T07:00:41.000Z</time>
      </trkpt>
      <trkpt lat="43.340248642489314" lon="-6.480599697679281">
        <ele>617.6</ele>
        <time>2017-08-05T07:00:46.000Z</time>
      </trkpt>
      <trkpt lat="43.34021670743823" lon="-6.480638002976775">
        <ele>616.8</ele>
        <time>2017-08-05T07:00:51.000Z</time>
      </trkpt>
      <trkpt lat="43.34018829278648" lon="-6.480664908885956">
        <ele>616.2</ele>
        <time>2017-08-05T07:00:55.000Z</time>
      </trkpt>
      <trkpt lat="43.340185694396496" lon="-6.480674045160413">
        <ele>616.2</ele>
        <time>2017-08-05T07:00:56.000Z</time>
      </trkpt>
      <trkpt lat="43.34016130305827" lon="-6.4806941617280245">
        <ele>615.6</ele>
        <time>2017-08-05T07:00:59.000Z</time>
      </trkpt>
      <trkpt lat="43.340145628899336" lon="-6.480703800916672">
        <ele>615.4</ele>
        <time>2017-08-05T07:01:01.000Z</time>
      </trkpt>
      <trkpt lat="43.34009508602321" lon="-6.4807103388011456">
        <ele>614.8</ele>
        <time>2017-08-05T07:01:08.000Z</time>
      </trkpt>
      <trkpt lat="43.340059630572796" lon="-6.480681337416172">
        <ele>614.6</ele>
        <time>2017-08-05T07:01:14.000Z</time>
      </trkpt>
      <trkpt lat="43.34001696668565" lon="-6.480639846995473">
        <ele>614.2</ele>
        <time>2017-08-05T07:01:20.000Z</time>
      </trkpt>
      <trkpt lat="43.33998905494809" lon="-6.480616880580783">
        <ele>614</ele>
        <time>2017-08-05T07:01:24.000Z</time>
      </trkpt>
      <trkpt lat="43.33998452872038" lon="-6.480610258877277">
        <ele>614</ele>
        <time>2017-08-05T07:01:25.000Z</time>
      </trkpt>
      <trkpt lat="43.33993800915778" lon="-6.4805725403130054">
        <ele>613.6</ele>
        <time>2017-08-05T07:01:31.000Z</time>
      </trkpt>
      <trkpt lat="43.33989014849067" lon="-6.480538425967097">
        <ele>613</ele>
        <time>2017-08-05T07:01:37.000Z</time>
      </trkpt>
      <trkpt lat="43.339829882606864" lon="-6.480489559471607">
        <ele>612.4</ele>
        <time>2017-08-05T07:01:43.000Z</time>
      </trkpt>
      <trkpt lat="43.33982393145561" lon="-6.480484195053577">
        <ele>612.4</ele>
        <time>2017-08-05T07:01:44.000Z</time>
      </trkpt>
      <trkpt lat="43.3398141246289" lon="-6.480483440682292">
        <ele>612.2</ele>
        <time>2017-08-05T07:01:45.000Z</time>
      </trkpt>
      <trkpt lat="43.3397744782269" lon="-6.4804774057120085">
        <ele>611.6</ele>
        <time>2017-08-05T07:01:49.000Z</time>
      </trkpt>
      <trkpt lat="43.33973491564393" lon="-6.480477908626199">
        <ele>610.8</ele>
        <time>2017-08-05T07:01:55.000Z</time>
      </trkpt>
      <trkpt lat="43.33965428173542" lon="-6.480466341599822">
        <ele>609.6</ele>
        <time>2017-08-05T07:02:01.000Z</time>
      </trkpt>
      <trkpt lat="43.33959351293743" lon="-6.480425605550408">
        <ele>609.2</ele>
        <time>2017-08-05T07:02:07.000Z</time>
      </trkpt>
      <trkpt lat="43.3395326603204" lon="-6.48039048537612">
        <ele>608.4</ele>
        <time>2017-08-05T07:02:12.000Z</time>
      </trkpt>
      <trkpt lat="43.339463425800204" lon="-6.480375481769443">
        <ele>607</ele>
        <time>2017-08-05T07:02:18.000Z</time>
      </trkpt>
      <trkpt lat="43.33945621736348" lon="-6.480376152321696">
        <ele>606.8</ele>
        <time>2017-08-05T07:02:19.000Z</time>
      </trkpt>
      <trkpt lat="43.33941631950438" lon="-6.480398364365101">
        <ele>606</ele>
        <time>2017-08-05T07:02:23.000Z</time>
      </trkpt>
      <trkpt lat="43.33941154181957" lon="-6.48040615953505">
        <ele>605.8</ele>
        <time>2017-08-05T07:02:24.000Z</time>
      </trkpt>
      <trkpt lat="43.33938932977617" lon="-6.48041982203722">
        <ele>605.6</ele>
        <time>2017-08-05T07:02:28.000Z</time>
      </trkpt>
      <trkpt lat="43.339384300634265" lon="-6.4804355800151825">
        <ele>605.6</ele>
        <time>2017-08-05T07:02:29.000Z</time>
      </trkpt>
      <trkpt lat="43.33935865201056" lon="-6.480460138991475">
        <ele>606</ele>
        <time>2017-08-05T07:02:32.000Z</time>
      </trkpt>
      <trkpt lat="43.33932193927467" lon="-6.480483105406165">
        <ele>606.4</ele>
        <time>2017-08-05T07:02:36.000Z</time>
      </trkpt>
      <trkpt lat="43.339313473552465" lon="-6.48048872128129">
        <ele>606.4</ele>
        <time>2017-08-05T07:02:37.000Z</time>
      </trkpt>
      <trkpt lat="43.33924239501357" lon="-6.480533732101321">
        <ele>607.4</ele>
        <time>2017-08-05T07:02:44.000Z</time>
      </trkpt>
      <trkpt lat="43.33917827345431" lon="-6.48060548119247">
        <ele>608</ele>
        <time>2017-08-05T07:02:51.000Z</time>
      </trkpt>
      <trkpt lat="43.339134603738785" lon="-6.480670776218176">
        <ele>608.4</ele>
        <time>2017-08-05T07:02:57.000Z</time>
      </trkpt>
      <trkpt lat="43.33910551853478" lon="-6.480715200304985">
        <ele>609</ele>
        <time>2017-08-05T07:03:01.000Z</time>
      </trkpt>
      <trkpt lat="43.33908976055682" lon="-6.480739843100309">
        <ele>609.6</ele>
        <time>2017-08-05T07:03:04.000Z</time>
      </trkpt>
      <trkpt lat="43.3390561491251" lon="-6.480791475623846">
        <ele>610.8</ele>
        <time>2017-08-05T07:03:09.000Z</time>
      </trkpt>
      <trkpt lat="43.33904022350907" lon="-6.480817710980773">
        <ele>611.2</ele>
        <time>2017-08-05T07:03:11.000Z</time>
      </trkpt>
      <trkpt lat="43.339013988152146" lon="-6.4808805752545595">
        <ele>612</ele>
        <time>2017-08-05T07:03:15.000Z</time>
      </trkpt>
      <trkpt lat="43.33900015801191" lon="-6.480914605781436">
        <ele>612.6</ele>
        <time>2017-08-05T07:03:18.000Z</time>
      </trkpt>
      <trkpt lat="43.338979706168175" lon="-6.480971183627844">
        <ele>613.2</ele>
        <time>2017-08-05T07:03:23.000Z</time>
      </trkpt>
      <trkpt lat="43.33895011804998" lon="-6.481019463390112">
        <ele>614</ele>
        <time>2017-08-05T07:03:27.000Z</time>
      </trkpt>
      <trkpt lat="43.33894534036517" lon="-6.481027593836188">
        <ele>614.2</ele>
        <time>2017-08-05T07:03:28.000Z</time>
      </trkpt>
      <trkpt lat="43.33890561014414" lon="-6.48107947781682">
        <ele>615.6</ele>
        <time>2017-08-05T07:03:34.000Z</time>
      </trkpt>
      <trkpt lat="43.338888343423605" lon="-6.4810973312705755">
        <ele>616.2</ele>
        <time>2017-08-05T07:03:37.000Z</time>
      </trkpt>
      <trkpt lat="43.338858503848314" lon="-6.4811161905527115">
        <ele>617.2</ele>
        <time>2017-08-05T07:03:40.000Z</time>
      </trkpt>
      <trkpt lat="43.33880829624832" lon="-6.481162626296282">
        <ele>618.4</ele>
        <time>2017-08-05T07:03:46.000Z</time>
      </trkpt>
      <trkpt lat="43.338765632361174" lon="-6.481208642944694">
        <ele>619.2</ele>
        <time>2017-08-05T07:03:52.000Z</time>
      </trkpt>
      <trkpt lat="43.33873420022428" lon="-6.481256922706962">
        <ele>619.4</ele>
        <time>2017-08-05T07:03:57.000Z</time>
      </trkpt>
      <trkpt lat="43.33872799761593" lon="-6.481266058981419">
        <ele>619.6</ele>
        <time>2017-08-05T07:03:58.000Z</time>
      </trkpt>
      <trkpt lat="43.33867359906435" lon="-6.481340071186423">
        <ele>620.4</ele>
        <time>2017-08-05T07:04:06.000Z</time>
      </trkpt>
      <trkpt lat="43.33862582221627" lon="-6.481411401182413">
        <ele>621</ele>
        <time>2017-08-05T07:04:13.000Z</time>
      </trkpt>
      <trkpt lat="43.338607382029295" lon="-6.481440234929323">
        <ele>621.2</ele>
        <time>2017-08-05T07:04:16.000Z</time>
      </trkpt>
      <trkpt lat="43.33858793601394" lon="-6.481478791683912">
        <ele>621.4</ele>
        <time>2017-08-05T07:04:20.000Z</time>
      </trkpt>
      <trkpt lat="43.338560024276376" lon="-6.4815308433026075">
        <ele>621.6</ele>
        <time>2017-08-05T07:04:24.000Z</time>
      </trkpt>
      <trkpt lat="43.33855139091611" lon="-6.481547858566046">
        <ele>621.6</ele>
        <time>2017-08-05T07:04:26.000Z</time>
      </trkpt>
      <trkpt lat="43.33851518109441" lon="-6.48160963319242">
        <ele>622.2</ele>
        <time>2017-08-05T07:04:32.000Z</time>
      </trkpt>
      <trkpt lat="43.33848752081394" lon="-6.481659673154354">
        <ele>622.4</ele>
        <time>2017-08-05T07:04:36.000Z</time>
      </trkpt>
      <trkpt lat="43.33847017027438" lon="-6.481693871319294">
        <ele>622.4</ele>
        <time>2017-08-05T07:04:39.000Z</time>
      </trkpt>
      <trkpt lat="43.338462794199586" lon="-6.481697140261531">
        <ele>622.6</ele>
        <time>2017-08-05T07:04:40.000Z</time>
      </trkpt>
      <trkpt lat="43.338449550792575" lon="-6.481725974008441">
        <ele>622.4</ele>
        <time>2017-08-05T07:04:42.000Z</time>
      </trkpt>
      <trkpt lat="43.33841660991311" lon="-6.481788083910942">
        <ele>622.2</ele>
        <time>2017-08-05T07:04:48.000Z</time>
      </trkpt>
      <trkpt lat="43.338383585214615" lon="-6.48181876167655">
        <ele>623</ele>
        <time>2017-08-05T07:04:52.000Z</time>
      </trkpt>
      <trkpt lat="43.33836480975151" lon="-6.481840303167701">
        <ele>623.2</ele>
        <time>2017-08-05T07:04:54.000Z</time>
      </trkpt>
      <trkpt lat="43.33835047669709" lon="-6.481907106935978">
        <ele>622.2</ele>
        <time>2017-08-05T07:04:58.000Z</time>
      </trkpt>
      <trkpt lat="43.33833480253816" lon="-6.481955051422119">
        <ele>622</ele>
        <time>2017-08-05T07:05:02.000Z</time>
      </trkpt>
      <trkpt lat="43.33832968957722" lon="-6.481967959553003">
        <ele>622.2</ele>
        <time>2017-08-05T07:05:03.000Z</time>
      </trkpt>
      <trkpt lat="43.338303454220295" lon="-6.482032081112266">
        <ele>622.8</ele>
        <time>2017-08-05T07:05:08.000Z</time>
      </trkpt>
      <trkpt lat="43.33827135153115" lon="-6.482083210721612">
        <ele>623.8</ele>
        <time>2017-08-05T07:05:13.000Z</time>
      </trkpt>
      <trkpt lat="43.33826447837055" lon="-6.482097879052162">
        <ele>624</ele>
        <time>2017-08-05T07:05:14.000Z</time>
      </trkpt>
      <trkpt lat="43.33823908120394" lon="-6.4821351785212755">
        <ele>625</ele>
        <time>2017-08-05T07:05:18.000Z</time>
      </trkpt>
      <trkpt lat="43.33823497407138" lon="-6.482143560424447">
        <ele>625.2</ele>
        <time>2017-08-05T07:05:19.000Z</time>
      </trkpt>
      <trkpt lat="43.33822349086404" lon="-6.482175998389721">
        <ele>625.6</ele>
        <time>2017-08-05T07:05:22.000Z</time>
      </trkpt>
      <trkpt lat="43.3382014464587" lon="-6.482209274545312">
        <ele>626.4</ele>
        <time>2017-08-05T07:05:25.000Z</time>
      </trkpt>
      <trkpt lat="43.338168170303106" lon="-6.482281107455492">
        <ele>627.8</ele>
        <time>2017-08-05T07:05:31.000Z</time>
      </trkpt>
      <trkpt lat="43.33815475925803" lon="-6.4822939317673445">
        <ele>628.4</ele>
        <time>2017-08-05T07:05:34.000Z</time>
      </trkpt>
      <trkpt lat="43.33813514560461" lon="-6.482317568734288">
        <ele>629.4</ele>
        <time>2017-08-05T07:05:36.000Z</time>
      </trkpt>
      <trkpt lat="43.33813514560461" lon="-6.482323268428445">
        <ele>629.4</ele>
        <time>2017-08-05T07:05:37.000Z</time>
      </trkpt>
      <trkpt lat="43.3381081558764" lon="-6.482368363067508">
        <ele>630.6</ele>
        <time>2017-08-05T07:05:41.000Z</time>
      </trkpt>
      <trkpt lat="43.33808292634785" lon="-6.48244715295732">
        <ele>631.4</ele>
        <time>2017-08-05T07:05:46.000Z</time>
      </trkpt>
      <trkpt lat="43.338060127571225" lon="-6.482518231496215">
        <ele>632</ele>
        <time>2017-08-05T07:05:52.000Z</time>
      </trkpt>
      <trkpt lat="43.33801796659827" lon="-6.482618730515242">
        <ele>633.2</ele>
        <time>2017-08-05T07:06:00.000Z</time>
      </trkpt>
      <trkpt lat="43.337995167821646" lon="-6.482677487656474">
        <ele>633.8</ele>
        <time>2017-08-05T07:06:05.000Z</time>
      </trkpt>
      <trkpt lat="43.337979493662715" lon="-6.482705818489194">
        <ele>634.2</ele>
        <time>2017-08-05T07:06:08.000Z</time>
      </trkpt>
      <trkpt lat="43.337979493662715" lon="-6.482718391343951">
        <ele>634</ele>
        <time>2017-08-05T07:06:09.000Z</time>
      </trkpt>
      <trkpt lat="43.3379786554724" lon="-6.482782931998372">
        <ele>633.4</ele>
        <time>2017-08-05T07:06:13.000Z</time>
      </trkpt>
      <trkpt lat="43.33796985447407" lon="-6.482796678319573">
        <ele>633.6</ele>
        <time>2017-08-05T07:06:14.000Z</time>
      </trkpt>
      <trkpt lat="43.33794755861163" lon="-6.4828678406775">
        <ele>633.6</ele>
        <time>2017-08-05T07:06:19.000Z</time>
      </trkpt>
      <trkpt lat="43.33793439902365" lon="-6.482949564233422">
        <ele>633.4</ele>
        <time>2017-08-05T07:06:25.000Z</time>
      </trkpt>
      <trkpt lat="43.337905649095774" lon="-6.48303204216063">
        <ele>633.8</ele>
        <time>2017-08-05T07:06:31.000Z</time>
      </trkpt>
      <trkpt lat="43.33789701573551" lon="-6.483054170385003">
        <ele>633.8</ele>
        <time>2017-08-05T07:06:33.000Z</time>
      </trkpt>
      <trkpt lat="43.33788067102432" lon="-6.4831191301345825">
        <ele>633.6</ele>
        <time>2017-08-05T07:06:37.000Z</time>
      </trkpt>
      <trkpt lat="43.33787094801664" lon="-6.483167074620724">
        <ele>633.4</ele>
        <time>2017-08-05T07:06:40.000Z</time>
      </trkpt>
      <trkpt lat="43.33786382339895" lon="-6.4832130912691355">
        <ele>633</ele>
        <time>2017-08-05T07:06:43.000Z</time>
      </trkpt>
      <trkpt lat="43.33785133436322" lon="-6.48325240239501">
        <ele>633</ele>
        <time>2017-08-05T07:06:45.000Z</time>
      </trkpt>
      <trkpt lat="43.337846053764224" lon="-6.4833008497953415">
        <ele>632.6</ele>
        <time>2017-08-05T07:06:48.000Z</time>
      </trkpt>
      <trkpt lat="43.33783649839461" lon="-6.483330521732569">
        <ele>632.4</ele>
        <time>2017-08-05T07:06:50.000Z</time>
      </trkpt>
      <trkpt lat="43.33781395107508" lon="-6.483403276652098">
        <ele>632.4</ele>
        <time>2017-08-05T07:06:54.000Z</time>
      </trkpt>
      <trkpt lat="43.33778670988977" lon="-6.483473936095834">
        <ele>632.6</ele>
        <time>2017-08-05T07:06:59.000Z</time>
      </trkpt>
      <trkpt lat="43.337778160348535" lon="-6.483487682417035">
        <ele>632.8</ele>
        <time>2017-08-05T07:07:00.000Z</time>
      </trkpt>
      <trkpt lat="43.337770365178585" lon="-6.483514169231057">
        <ele>632.8</ele>
        <time>2017-08-05T07:07:02.000Z</time>
      </trkpt>
      <trkpt lat="43.33775024861097" lon="-6.483566723763943">
        <ele>632.8</ele>
        <time>2017-08-05T07:07:05.000Z</time>
      </trkpt>
      <trkpt lat="43.33774614147842" lon="-6.483575776219368">
        <ele>632.8</ele>
        <time>2017-08-05T07:07:06.000Z</time>
      </trkpt>
      <trkpt lat="43.337728874757886" lon="-6.483640149235725">
        <ele>632.6</ele>
        <time>2017-08-05T07:07:10.000Z</time>
      </trkpt>
      <trkpt lat="43.33768964745104" lon="-6.483731595799327">
        <ele>632.6</ele>
        <time>2017-08-05T07:07:16.000Z</time>
      </trkpt>
      <trkpt lat="43.33767858333886" lon="-6.4837641175836325">
        <ele>632.4</ele>
        <time>2017-08-05T07:07:18.000Z</time>
      </trkpt>
      <trkpt lat="43.337654108181596" lon="-6.483812229707837">
        <ele>632.6</ele>
        <time>2017-08-05T07:07:21.000Z</time>
      </trkpt>
      <trkpt lat="43.33763290196657" lon="-6.48386905901134">
        <ele>632.4</ele>
        <time>2017-08-05T07:07:25.000Z</time>
      </trkpt>
      <trkpt lat="43.33760800771415" lon="-6.483936365693808">
        <ele>631.8</ele>
        <time>2017-08-05T07:07:30.000Z</time>
      </trkpt>
      <trkpt lat="43.33756970241666" lon="-6.484010461717844">
        <ele>631.2</ele>
        <time>2017-08-05T07:07:36.000Z</time>
      </trkpt>
      <trkpt lat="43.33753449842334" lon="-6.484067207202315">
        <ele>630.8</ele>
        <time>2017-08-05T07:07:41.000Z</time>
      </trkpt>
      <trkpt lat="43.33752762526274" lon="-6.484079444780946">
        <ele>630.8</ele>
        <time>2017-08-05T07:07:42.000Z</time>
      </trkpt>
      <trkpt lat="43.33750323392451" lon="-6.484130909666419">
        <ele>630.4</ele>
        <time>2017-08-05T07:07:45.000Z</time>
      </trkpt>
      <trkpt lat="43.33748714067042" lon="-6.484150355681777">
        <ele>630.4</ele>
        <time>2017-08-05T07:07:47.000Z</time>
      </trkpt>
      <trkpt lat="43.33743257448077" lon="-6.484238114207983">
        <ele>630</ele>
        <time>2017-08-05T07:07:54.000Z</time>
      </trkpt>
      <trkpt lat="43.3373948559165" lon="-6.484278934076428">
        <ele>629.8</ele>
        <time>2017-08-05T07:07:59.000Z</time>
      </trkpt>
      <trkpt lat="43.337328219786286" lon="-6.4843386970460415">
        <ele>629.6</ele>
        <time>2017-08-05T07:08:05.000Z</time>
      </trkpt>
      <trkpt lat="43.33727214485407" lon="-6.484371721744537">
        <ele>629.8</ele>
        <time>2017-08-05T07:08:10.000Z</time>
      </trkpt>
      <trkpt lat="43.33725412376225" lon="-6.4843914192169905">
        <ele>629.8</ele>
        <time>2017-08-05T07:08:12.000Z</time>
      </trkpt>
      <trkpt lat="43.337244065478444" lon="-6.484394688159227">
        <ele>629.8</ele>
        <time>2017-08-05T07:08:13.000Z</time>
      </trkpt>
      <trkpt lat="43.33720676600933" lon="-6.484420169144869">
        <ele>630</ele>
        <time>2017-08-05T07:08:17.000Z</time>
      </trkpt>
      <trkpt lat="43.33714189007878" lon="-6.484462162479758">
        <ele>630</ele>
        <time>2017-08-05T07:08:23.000Z</time>
      </trkpt>
      <trkpt lat="43.33711582235992" lon="-6.484485799446702">
        <ele>629.8</ele>
        <time>2017-08-05T07:08:26.000Z</time>
      </trkpt>
      <trkpt lat="43.33707282319665" lon="-6.484506083652377">
        <ele>630</ele>
        <time>2017-08-05T07:08:30.000Z</time>
      </trkpt>
      <trkpt lat="43.33702068775892" lon="-6.48453650996089">
        <ele>630.2</ele>
        <time>2017-08-05T07:08:35.000Z</time>
      </trkpt>
      <trkpt lat="43.33701289258897" lon="-6.484537431970239">
        <ele>630.2</ele>
        <time>2017-08-05T07:08:36.000Z</time>
      </trkpt>
      <trkpt lat="43.336959667503834" lon="-6.484564505517483">
        <ele>630.4</ele>
        <time>2017-08-05T07:08:41.000Z</time>
      </trkpt>
      <trkpt lat="43.336872328072786" lon="-6.484593758359551">
        <ele>631</ele>
        <time>2017-08-05T07:08:48.000Z</time>
      </trkpt>
      <trkpt lat="43.33682228811085" lon="-6.4845904894173145">
        <ele>631.6</ele>
        <time>2017-08-05T07:08:52.000Z</time>
      </trkpt>
      <trkpt lat="43.33679714240134" lon="-6.484591495245695">
        <ele>631.8</ele>
        <time>2017-08-05T07:08:54.000Z</time>
      </trkpt>
      <trkpt lat="43.33676009438932" lon="-6.4845899026840925">
        <ele>632.2</ele>
        <time>2017-08-05T07:08:57.000Z</time>
      </trkpt>
      <trkpt lat="43.33670376800001" lon="-6.484578754752874">
        <ele>633</ele>
        <time>2017-08-05T07:09:01.000Z</time>
      </trkpt>
      <trkpt lat="43.336628498509526" lon="-6.484571294859052">
        <ele>633.6</ele>
        <time>2017-08-05T07:09:07.000Z</time>
      </trkpt>
      <trkpt lat="43.33655255846679" lon="-6.484564505517483">
        <ele>634.6</ele>
        <time>2017-08-05T07:09:14.000Z</time>
      </trkpt>
      <trkpt lat="43.33648416213691" lon="-6.484570875763893">
        <ele>635</ele>
        <time>2017-08-05T07:09:20.000Z</time>
      </trkpt>
      <trkpt lat="43.33642917685211" lon="-6.484566600993276">
        <ele>635</ele>
        <time>2017-08-05T07:09:25.000Z</time>
      </trkpt>
      <trkpt lat="43.3364191185683" lon="-6.484566684812307">
        <ele>635</ele>
        <time>2017-08-05T07:09:26.000Z</time>
      </trkpt>
      <trkpt lat="43.33639606833458" lon="-6.484568612650037">
        <ele>635</ele>
        <time>2017-08-05T07:09:28.000Z</time>
      </trkpt>
      <trkpt lat="43.33635323680937" lon="-6.484558219090104">
        <ele>635.2</ele>
        <time>2017-08-05T07:09:32.000Z</time>
      </trkpt>
      <trkpt lat="43.336300598457456" lon="-6.484544388949871">
        <ele>635.6</ele>
        <time>2017-08-05T07:09:37.000Z</time>
      </trkpt>
      <trkpt lat="43.336269836872816" lon="-6.4845480769872665">
        <ele>635.8</ele>
        <time>2017-08-05T07:09:39.000Z</time>
      </trkpt>
      <trkpt lat="43.33620999008417" lon="-6.484566098079085">
        <ele>636</ele>
        <time>2017-08-05T07:09:44.000Z</time>
      </trkpt>
      <trkpt lat="43.33618450909853" lon="-6.484623095020652">
        <ele>635.8</ele>
        <time>2017-08-05T07:09:49.000Z</time>
      </trkpt>
      <trkpt lat="43.33618610166013" lon="-6.484701214358211">
        <ele>635.2</ele>
        <time>2017-08-05T07:09:54.000Z</time>
      </trkpt>
      <trkpt lat="43.33618995733559" lon="-6.484710182994604">
        <ele>635.2</ele>
        <time>2017-08-05T07:09:55.000Z</time>
      </trkpt>
      <trkpt lat="43.33620898425579" lon="-6.484769945964217">
        <ele>636</ele>
        <time>2017-08-05T07:09:59.000Z</time>
      </trkpt>
      <trkpt lat="43.33621317520738" lon="-6.484779333695769">
        <ele>636.2</ele>
        <time>2017-08-05T07:10:00.000Z</time>
      </trkpt>
      <trkpt lat="43.33621971309185" lon="-6.484794672578573">
        <ele>636.6</ele>
        <time>2017-08-05T07:10:02.000Z</time>
      </trkpt>
      <trkpt lat="43.33625935949385" lon="-6.484852507710457">
        <ele>636.6</ele>
        <time>2017-08-05T07:10:08.000Z</time>
      </trkpt>
      <trkpt lat="43.33626086823642" lon="-6.484866254031658">
        <ele>636.6</ele>
        <time>2017-08-05T07:10:09.000Z</time>
      </trkpt>
      <trkpt lat="43.33629112690687" lon="-6.484910678118467">
        <ele>636</ele>
        <time>2017-08-05T07:10:13.000Z</time>
      </trkpt>
      <trkpt lat="43.3362964913249" lon="-6.484920233488083">
        <ele>636</ele>
        <time>2017-08-05T07:10:14.000Z</time>
      </trkpt>
      <trkpt lat="43.336337227374315" lon="-6.4849992748349905">
        <ele>635.2</ele>
        <time>2017-08-05T07:10:20.000Z</time>
      </trkpt>
      <trkpt lat="43.33638433367014" lon="-6.485057612881064">
        <ele>635.2</ele>
        <time>2017-08-05T07:10:25.000Z</time>
      </trkpt>
      <trkpt lat="43.33643613383174" lon="-6.485104886814952">
        <ele>635</ele>
        <time>2017-08-05T07:10:30.000Z</time>
      </trkpt>
      <trkpt lat="43.33650159649551" lon="-6.485160710290074">
        <ele>634.6</ele>
        <time>2017-08-05T07:10:36.000Z</time>
      </trkpt>
      <trkpt lat="43.33657041192055" lon="-6.485206726938486">
        <ele>634.6</ele>
        <time>2017-08-05T07:10:42.000Z</time>
      </trkpt>
      <trkpt lat="43.33665314130485" lon="-6.485250983387232">
        <ele>634.4</ele>
        <time>2017-08-05T07:10:49.000Z</time>
      </trkpt>
      <trkpt lat="43.336737379431725" lon="-6.485299933701754">
        <ele>635</ele>
        <time>2017-08-05T07:10:57.000Z</time>
      </trkpt>
      <trkpt lat="43.33681717514992" lon="-6.485339161008596">
        <ele>635.4</ele>
        <time>2017-08-05T07:11:04.000Z</time>
      </trkpt>
      <trkpt lat="43.336865957826376" lon="-6.485365396365523">
        <ele>635.6</ele>
        <time>2017-08-05T07:11:09.000Z</time>
      </trkpt>
      <trkpt lat="43.33698640577495" lon="-6.485406467691064">
        <ele>635.4</ele>
        <time>2017-08-05T07:11:19.000Z</time>
      </trkpt>
      <trkpt lat="43.337053125724196" lon="-6.485452651977539">
        <ele>635.2</ele>
        <time>2017-08-05T07:11:25.000Z</time>
      </trkpt>
      <trkpt lat="43.33714256063104" lon="-6.485496489331126">
        <ele>634</ele>
        <time>2017-08-05T07:11:32.000Z</time>
      </trkpt>
      <trkpt lat="43.337230402976274" lon="-6.485560275614262">
        <ele>632.8</ele>
        <time>2017-08-05T07:11:40.000Z</time>
      </trkpt>
      <trkpt lat="43.337304247543216" lon="-6.485626241192222">
        <ele>632.4</ele>
        <time>2017-08-05T07:11:47.000Z</time>
      </trkpt>
      <trkpt lat="43.33737524226308" lon="-6.485681477934122">
        <ele>632</ele>
        <time>2017-08-05T07:11:54.000Z</time>
      </trkpt>
      <trkpt lat="43.33744866773486" lon="-6.485727075487375">
        <ele>631.6</ele>
        <time>2017-08-05T07:12:01.000Z</time>
      </trkpt>
      <trkpt lat="43.33753642626107" lon="-6.485789017751813">
        <ele>632</ele>
        <time>2017-08-05T07:12:09.000Z</time>
      </trkpt>
      <trkpt lat="43.33763726055622" lon="-6.485868310555816">
        <ele>633.2</ele>
        <time>2017-08-05T07:12:19.000Z</time>
      </trkpt>
      <trkpt lat="43.33770599216223" lon="-6.485955398529768">
        <ele>634.6</ele>
        <time>2017-08-05T07:12:27.000Z</time>
      </trkpt>
      <trkpt lat="43.337726360186934" lon="-6.4859923627227545">
        <ele>635.2</ele>
        <time>2017-08-05T07:12:30.000Z</time>
      </trkpt>
      <trkpt lat="43.33775050006807" lon="-6.486024046316743">
        <ele>635.8</ele>
        <time>2017-08-05T07:12:33.000Z</time>
      </trkpt>
      <trkpt lat="43.33778511732817" lon="-6.4860612619668245">
        <ele>636.6</ele>
        <time>2017-08-05T07:12:36.000Z</time>
      </trkpt>
      <trkpt lat="43.33784161135554" lon="-6.486096633598208">
        <ele>637</ele>
        <time>2017-08-05T07:12:41.000Z</time>
      </trkpt>
      <trkpt lat="43.33791428245604" lon="-6.486119516193867">
        <ele>637</ele>
        <time>2017-08-05T07:12:47.000Z</time>
      </trkpt>
      <trkpt lat="43.33794856444001" lon="-6.486118510365486">
        <ele>636.8</ele>
        <time>2017-08-05T07:12:51.000Z</time>
      </trkpt>
      <trkpt lat="43.33798594772816" lon="-6.486114067956805">
        <ele>636.4</ele>
        <time>2017-08-05T07:12:54.000Z</time>
      </trkpt>
      <trkpt lat="43.33806809037924" lon="-6.486106943339109">
        <ele>635.6</ele>
        <time>2017-08-05T07:13:01.000Z</time>
      </trkpt>
      <trkpt lat="43.338158363476396" lon="-6.486129323020577">
        <ele>635.4</ele>
        <time>2017-08-05T07:13:08.000Z</time>
      </trkpt>
      <trkpt lat="43.338208654895425" lon="-6.486163102090359">
        <ele>635.8</ele>
        <time>2017-08-05T07:13:12.000Z</time>
      </trkpt>
      <trkpt lat="43.33825182169676" lon="-6.486200820654631">
        <ele>636</ele>
        <time>2017-08-05T07:13:16.000Z</time>
      </trkpt>
      <trkpt lat="43.33830513060093" lon="-6.486295200884342">
        <ele>637</ele>
        <time>2017-08-05T07:13:23.000Z</time>
      </trkpt>
      <trkpt lat="43.33836036734283" lon="-6.486390503123403">
        <ele>637</ele>
        <time>2017-08-05T07:13:30.000Z</time>
      </trkpt>
      <trkpt lat="43.338415352627635" lon="-6.4864918403327465">
        <ele>637.2</ele>
        <time>2017-08-05T07:13:38.000Z</time>
      </trkpt>
      <trkpt lat="43.33845826797187" lon="-6.48662980645895">
        <ele>637.6</ele>
        <time>2017-08-05T07:13:47.000Z</time>
      </trkpt>
      <trkpt lat="43.338510571047664" lon="-6.486719828099012">
        <ele>637.4</ele>
        <time>2017-08-05T07:13:54.000Z</time>
      </trkpt>
      <trkpt lat="43.338536974042654" lon="-6.486774981021881">
        <ele>637</ele>
        <time>2017-08-05T07:13:58.000Z</time>
      </trkpt>
      <trkpt lat="43.33856304176152" lon="-6.486822925508022">
        <ele>636.4</ele>
        <time>2017-08-05T07:14:01.000Z</time>
      </trkpt>
      <trkpt lat="43.33857209421694" lon="-6.486847987398505">
        <ele>636.4</ele>
        <time>2017-08-05T07:14:03.000Z</time>
      </trkpt>
      <trkpt lat="43.33860822021961" lon="-6.486925603821874">
        <ele>636.4</ele>
        <time>2017-08-05T07:14:08.000Z</time>
      </trkpt>
      <trkpt lat="43.33865582942963" lon="-6.487023839727044">
        <ele>636.6</ele>
        <time>2017-08-05T07:14:15.000Z</time>
      </trkpt>
      <trkpt lat="43.338689943775535" lon="-6.487064408138394">
        <ele>636.2</ele>
        <time>2017-08-05T07:14:19.000Z</time>
      </trkpt>
      <trkpt lat="43.33870838396251" lon="-6.487093912437558">
        <ele>636</ele>
        <time>2017-08-05T07:14:21.000Z</time>
      </trkpt>
      <trkpt lat="43.3387590944767" lon="-6.487140599638224">
        <ele>635</ele>
        <time>2017-08-05T07:14:26.000Z</time>
      </trkpt>
      <trkpt lat="43.338807458058" lon="-6.487198686227202">
        <ele>634</ele>
        <time>2017-08-05T07:14:31.000Z</time>
      </trkpt>
      <trkpt lat="43.338817013427615" lon="-6.487206481397152">
        <ele>633.8</ele>
        <time>2017-08-05T07:14:32.000Z</time>
      </trkpt>
      <trkpt lat="43.338822880759835" lon="-6.487220395356417">
        <ele>633.8</ele>
        <time>2017-08-05T07:14:33.000Z</time>
      </trkpt>
      <trkpt lat="43.33887786604464" lon="-6.487275464460254">
        <ele>632.6</ele>
        <time>2017-08-05T07:14:38.000Z</time>
      </trkpt>
      <trkpt lat="43.33891315385699" lon="-6.487315446138382">
        <ele>632</ele>
        <time>2017-08-05T07:14:42.000Z</time>
      </trkpt>
      <trkpt lat="43.33891239948571" lon="-6.4873220678418875">
        <ele>632</ele>
        <time>2017-08-05T07:14:44.000Z</time>
      </trkpt>
      <trkpt lat="43.338942155241966" lon="-6.487352577969432">
        <ele>631.4</ele>
        <time>2017-08-05T07:14:48.000Z</time>
      </trkpt>
      <trkpt lat="43.338949447497725" lon="-6.4873644802719355">
        <ele>631.4</ele>
        <time>2017-08-05T07:14:49.000Z</time>
      </trkpt>
      <trkpt lat="43.33898909389973" lon="-6.487465063109994">
        <ele>632.2</ele>
        <time>2017-08-05T07:14:56.000Z</time>
      </trkpt>
      <trkpt lat="43.33903117105365" lon="-6.487574279308319">
        <ele>632.4</ele>
        <time>2017-08-05T07:15:04.000Z</time>
      </trkpt>
      <trkpt lat="43.339036954566836" lon="-6.487588780000806">
        <ele>632.4</ele>
        <time>2017-08-05T07:15:05.000Z</time>
      </trkpt>
      <trkpt lat="43.33906159736216" lon="-6.487664049491286">
        <ele>633</ele>
        <time>2017-08-05T07:15:11.000Z</time>
      </trkpt>
      <trkpt lat="43.33908221684396" lon="-6.487746778875589">
        <ele>633.6</ele>
        <time>2017-08-05T07:15:18.000Z</time>
      </trkpt>
      <trkpt lat="43.33910937421024" lon="-6.487817354500294">
        <ele>633.8</ele>
        <time>2017-08-05T07:15:24.000Z</time>
      </trkpt>
      <trkpt lat="43.339110715314746" lon="-6.4878289215266705">
        <ele>633.8</ele>
        <time>2017-08-05T07:15:25.000Z</time>
      </trkpt>
      <trkpt lat="43.33910903893411" lon="-6.487834537401795">
        <ele>634</ele>
        <time>2017-08-05T07:15:26.000Z</time>
      </trkpt>
      <trkpt lat="43.339123371988535" lon="-6.4878892712295055">
        <ele>634.2</ele>
        <time>2017-08-05T07:15:30.000Z</time>
      </trkpt>
      <trkpt lat="43.339116666466" lon="-6.487907459959388">
        <ele>634.6</ele>
        <time>2017-08-05T07:15:31.000Z</time>
      </trkpt>
      <trkpt lat="43.33913083188236" lon="-6.487966300919652">
        <ele>634.8</ele>
        <time>2017-08-05T07:15:34.000Z</time>
      </trkpt>
      <trkpt lat="43.339154133573174" lon="-6.488056825473905">
        <ele>635.2</ele>
        <time>2017-08-05T07:15:39.000Z</time>
      </trkpt>
      <trkpt lat="43.33919143304229" lon="-6.488112732768059">
        <ele>635</ele>
        <time>2017-08-05T07:15:44.000Z</time>
      </trkpt>
      <trkpt lat="43.339226050302386" lon="-6.48814944550395">
        <ele>634.4</ele>
        <time>2017-08-05T07:15:49.000Z</time>
      </trkpt>
      <trkpt lat="43.3392477594316" lon="-6.488155899569392">
        <ele>634</ele>
        <time>2017-08-05T07:15:51.000Z</time>
      </trkpt>
      <trkpt lat="43.339287070557475" lon="-6.488173166289926">
        <ele>633.2</ele>
        <time>2017-08-05T07:15:55.000Z</time>
      </trkpt>
      <trkpt lat="43.339299308136106" lon="-6.488176267594099">
        <ele>633</ele>
        <time>2017-08-05T07:15:57.000Z</time>
      </trkpt>
      <trkpt lat="43.3393270522356" lon="-6.488183056935668">
        <ele>632.6</ele>
        <time>2017-08-05T07:16:00.000Z</time>
      </trkpt>
      <trkpt lat="43.33934213966131" lon="-6.488193282857537">
        <ele>632.6</ele>
        <time>2017-08-05T07:16:02.000Z</time>
      </trkpt>
      <trkpt lat="43.33938262425363" lon="-6.488211052492261">
        <ele>632.2</ele>
        <time>2017-08-05T07:16:06.000Z</time>
      </trkpt>
      <trkpt lat="43.33941623568535" lon="-6.488234773278236">
        <ele>631.8</ele>
        <time>2017-08-05T07:16:09.000Z</time>
      </trkpt>
      <trkpt lat="43.33942604251206" lon="-6.488236868754029">
        <ele>631.6</ele>
        <time>2017-08-05T07:16:10.000Z</time>
      </trkpt>
      <trkpt lat="43.339476166293025" lon="-6.488259835168719">
        <ele>630.8</ele>
        <time>2017-08-05T07:16:15.000Z</time>
      </trkpt>
      <trkpt lat="43.33951061591506" lon="-6.488281711935997">
        <ele>630.8</ele>
        <time>2017-08-05T07:16:19.000Z</time>
      </trkpt>
      <trkpt lat="43.33951631560922" lon="-6.488289926201105">
        <ele>630.8</ele>
        <time>2017-08-05T07:16:20.000Z</time>
      </trkpt>
      <trkpt lat="43.33952520042658" lon="-6.488295458257198">
        <ele>630.8</ele>
        <time>2017-08-05T07:16:21.000Z</time>
      </trkpt>
      <trkpt lat="43.339545065537095" lon="-6.488310545682907">
        <ele>630.8</ele>
        <time>2017-08-05T07:16:24.000Z</time>
      </trkpt>
      <trkpt lat="43.33956241607666" lon="-6.488332087174058">
        <ele>631.2</ele>
        <time>2017-08-05T07:16:26.000Z</time>
      </trkpt>
      <trkpt lat="43.33957850933075" lon="-6.488351700827479">
        <ele>631.2</ele>
        <time>2017-08-05T07:16:29.000Z</time>
      </trkpt>
      <trkpt lat="43.33960147574544" lon="-6.48838204331696">
        <ele>631.4</ele>
        <time>2017-08-05T07:16:32.000Z</time>
      </trkpt>
      <trkpt lat="43.339605666697025" lon="-6.488383216783404">
        <ele>631.2</ele>
        <time>2017-08-05T07:16:33.000Z</time>
      </trkpt>
      <trkpt lat="43.33960541523993" lon="-6.48839327506721">
        <ele>631.4</ele>
        <time>2017-08-05T07:16:34.000Z</time>
      </trkpt>
      <trkpt lat="43.339617401361465" lon="-6.488408362492919">
        <ele>631.4</ele>
        <time>2017-08-05T07:16:36.000Z</time>
      </trkpt>
      <trkpt lat="43.339629136025906" lon="-6.488425545394421">
        <ele>631.6</ele>
        <time>2017-08-05T07:16:38.000Z</time>
      </trkpt>
      <trkpt lat="43.33965394645929" lon="-6.488466616719961">
        <ele>631.8</ele>
        <time>2017-08-05T07:16:42.000Z</time>
      </trkpt>
      <trkpt lat="43.33965704776347" lon="-6.488479357212782">
        <ele>632</ele>
        <time>2017-08-05T07:16:43.000Z</time>
      </trkpt>
      <trkpt lat="43.33967540413141" lon="-6.488513136282563">
        <ele>632.4</ele>
        <time>2017-08-05T07:16:46.000Z</time>
      </trkpt>
      <trkpt lat="43.33968420512974" lon="-6.488533336669207">
        <ele>632.6</ele>
        <time>2017-08-05T07:16:48.000Z</time>
      </trkpt>
      <trkpt lat="43.3397123683244" lon="-6.4885899145156145">
        <ele>633</ele>
        <time>2017-08-05T07:16:53.000Z</time>
      </trkpt>
      <trkpt lat="43.339716140180826" lon="-6.488606678321958">
        <ele>633.2</ele>
        <time>2017-08-05T07:16:54.000Z</time>
      </trkpt>
      <trkpt lat="43.339711697772145" lon="-6.488644648343325">
        <ele>634</ele>
        <time>2017-08-05T07:16:58.000Z</time>
      </trkpt>
      <trkpt lat="43.339719241485" lon="-6.488730143755674">
        <ele>635.4</ele>
        <time>2017-08-05T07:17:04.000Z</time>
      </trkpt>
      <trkpt lat="43.339728293940425" lon="-6.4887860510498285">
        <ele>636.2</ele>
        <time>2017-08-05T07:17:08.000Z</time>
      </trkpt>
      <trkpt lat="43.33973248489201" lon="-6.488801054656506">
        <ele>636.2</ele>
        <time>2017-08-05T07:17:09.000Z</time>
      </trkpt>
      <trkpt lat="43.339731730520725" lon="-6.488812370225787">
        <ele>636.6</ele>
        <time>2017-08-05T07:17:10.000Z</time>
      </trkpt>
      <trkpt lat="43.33973994478583" lon="-6.488882778212428">
        <ele>637.2</ele>
        <time>2017-08-05T07:17:15.000Z</time>
      </trkpt>
      <trkpt lat="43.33975737914443" lon="-6.4889695309102535">
        <ele>637.6</ele>
        <time>2017-08-05T07:17:21.000Z</time>
      </trkpt>
      <trkpt lat="43.33975352346897" lon="-6.488993754610419">
        <ele>638</ele>
        <time>2017-08-05T07:17:23.000Z</time>
      </trkpt>
      <trkpt lat="43.33977556787431" lon="-6.48905536159873">
        <ele>638</ele>
        <time>2017-08-05T07:17:29.000Z</time>
      </trkpt>
      <trkpt lat="43.33979736082256" lon="-6.489097019657493">
        <ele>637.8</ele>
        <time>2017-08-05T07:17:32.000Z</time>
      </trkpt>
      <trkpt lat="43.339801551774144" lon="-6.4891427010297775">
        <ele>638.2</ele>
        <time>2017-08-05T07:17:35.000Z</time>
      </trkpt>
      <trkpt lat="43.339800629764795" lon="-6.489151669666171">
        <ele>638.4</ele>
        <time>2017-08-05T07:17:36.000Z</time>
      </trkpt>
      <trkpt lat="43.339815801009536" lon="-6.489192238077521">
        <ele>638.4</ele>
        <time>2017-08-05T07:17:39.000Z</time>
      </trkpt>
      <trkpt lat="43.33981563337147" lon="-6.489222077652812">
        <ele>638.8</ele>
        <time>2017-08-05T07:17:40.000Z</time>
      </trkpt>
      <trkpt lat="43.33984429948032" lon="-6.4892808347940445">
        <ele>639</ele>
        <time>2017-08-05T07:17:44.000Z</time>
      </trkpt>
      <trkpt lat="43.33985452540219" lon="-6.489306315779686">
        <ele>639.2</ele>
        <time>2017-08-05T07:17:46.000Z</time>
      </trkpt>
      <trkpt lat="43.33987254649401" lon="-6.489346465095878">
        <ele>639.4</ele>
        <time>2017-08-05T07:17:49.000Z</time>
      </trkpt>
      <trkpt lat="43.33988914266229" lon="-6.489388290792704">
        <ele>639.8</ele>
        <time>2017-08-05T07:17:52.000Z</time>
      </trkpt>
      <trkpt lat="43.33990599028766" lon="-6.489426931366324">
        <ele>640</ele>
        <time>2017-08-05T07:17:55.000Z</time>
      </trkpt>
      <trkpt lat="43.33994605578482" lon="-6.489503290504217">
        <ele>640.4</ele>
        <time>2017-08-05T07:18:01.000Z</time>
      </trkpt>
      <trkpt lat="43.33996399305761" lon="-6.4895267598330975">
        <ele>640.4</ele>
        <time>2017-08-05T07:18:04.000Z</time>
      </trkpt>
      <trkpt lat="43.33997245877981" lon="-6.489528017118573">
        <ele>640.2</ele>
        <time>2017-08-05T07:18:05.000Z</time>
      </trkpt>
      <trkpt lat="43.3399867080152" lon="-6.489547463133931">
        <ele>640.2</ele>
        <time>2017-08-05T07:18:07.000Z</time>
      </trkpt>
      <trkpt lat="43.34001193754375" lon="-6.489581158384681">
        <ele>640.2</ele>
        <time>2017-08-05T07:18:12.000Z</time>
      </trkpt>
      <trkpt lat="43.34004655480385" lon="-6.489641759544611">
        <ele>640.6</ele>
        <time>2017-08-05T07:18:18.000Z</time>
      </trkpt>
      <trkpt lat="43.340067341923714" lon="-6.489669671282172">
        <ele>640.6</ele>
        <time>2017-08-05T07:18:21.000Z</time>
      </trkpt>
      <trkpt lat="43.3400887157768" lon="-6.489689536392689">
        <ele>640.6</ele>
        <time>2017-08-05T07:18:23.000Z</time>
      </trkpt>
      <trkpt lat="43.34010925143957" lon="-6.4897161070257425">
        <ele>640.6</ele>
        <time>2017-08-05T07:18:26.000Z</time>
      </trkpt>
      <trkpt lat="43.340145545080304" lon="-6.489754663780332">
        <ele>640.6</ele>
        <time>2017-08-05T07:18:30.000Z</time>
      </trkpt>
      <trkpt lat="43.3401888795197" lon="-6.489826664328575">
        <ele>641.2</ele>
        <time>2017-08-05T07:18:36.000Z</time>
      </trkpt>
      <trkpt lat="43.340197931975126" lon="-6.489848205819726">
        <ele>641.6</ele>
        <time>2017-08-05T07:18:38.000Z</time>
      </trkpt>
      <trkpt lat="43.34021762944758" lon="-6.4898892771452665">
        <ele>642</ele>
        <time>2017-08-05T07:18:41.000Z</time>
      </trkpt>
      <trkpt lat="43.34023288451135" lon="-6.489912746474147">
        <ele>642.2</ele>
        <time>2017-08-05T07:18:43.000Z</time>
      </trkpt>
      <trkpt lat="43.34024906158447" lon="-6.489953566342592">
        <ele>642.8</ele>
        <time>2017-08-05T07:18:46.000Z</time>
      </trkpt>
      <trkpt lat="43.34025677293539" lon="-6.489988351240754">
        <ele>643.2</ele>
        <time>2017-08-05T07:18:49.000Z</time>
      </trkpt>
      <trkpt lat="43.34026859141886" lon="-6.490015592426062">
        <ele>643.4</ele>
        <time>2017-08-05T07:18:51.000Z</time>
      </trkpt>
      <trkpt lat="43.340293150395155" lon="-6.490074181929231">
        <ele>643.4</ele>
        <time>2017-08-05T07:18:56.000Z</time>
      </trkpt>
      <trkpt lat="43.34029918536544" lon="-6.490130592137575">
        <ele>643.8</ele>
        <time>2017-08-05T07:19:00.000Z</time>
      </trkpt>
      <trkpt lat="43.340306309983134" lon="-6.490143500268459">
        <ele>643.8</ele>
        <time>2017-08-05T07:19:01.000Z</time>
      </trkpt>
      <trkpt lat="43.34031544625759" lon="-6.490204855799675">
        <ele>644.2</ele>
        <time>2017-08-05T07:19:06.000Z</time>
      </trkpt>
      <trkpt lat="43.34032089449465" lon="-6.490232180804014">
        <ele>644.4</ele>
        <time>2017-08-05T07:19:09.000Z</time>
      </trkpt>
      <trkpt lat="43.3403202239424" lon="-6.490255733951926">
        <ele>644.8</ele>
        <time>2017-08-05T07:19:11.000Z</time>
      </trkpt>
      <trkpt lat="43.34031670354307" lon="-6.49026470258832">
        <ele>645</ele>
        <time>2017-08-05T07:19:12.000Z</time>
      </trkpt>
      <trkpt lat="43.34032374434173" lon="-6.49030233733356">
        <ele>645.4</ele>
        <time>2017-08-05T07:19:18.000Z</time>
      </trkpt>
      <trkpt lat="43.34033380262554" lon="-6.4903295785188675">
        <ele>645.4</ele>
        <time>2017-08-05T07:19:24.000Z</time>
      </trkpt>
      <trkpt lat="43.34036188200116" lon="-6.490378193557262">
        <ele>645.4</ele>
        <time>2017-08-05T07:19:31.000Z</time>
      </trkpt>
      <trkpt lat="43.34038275294006" lon="-6.490407278761268">
        <ele>645.2</ele>
        <time>2017-08-05T07:19:34.000Z</time>
      </trkpt>
      <trkpt lat="43.340420136228204" lon="-6.490440806373954">
        <ele>645</ele>
        <time>2017-08-05T07:19:38.000Z</time>
      </trkpt>
      <trkpt lat="43.34043312817812" lon="-6.4904420636594296">
        <ele>644.8</ele>
        <time>2017-08-05T07:19:39.000Z</time>
      </trkpt>
      <trkpt lat="43.340461710467935" lon="-6.49046067148447">
        <ele>644.6</ele>
        <time>2017-08-05T07:19:42.000Z</time>
      </trkpt>
      <trkpt lat="43.34048836492002" lon="-6.490473328158259">
        <ele>644.2</ele>
        <time>2017-08-05T07:19:45.000Z</time>
      </trkpt>
      <trkpt lat="43.34055282175541" lon="-6.490496210753918">
        <ele>643.2</ele>
        <time>2017-08-05T07:19:51.000Z</time>
      </trkpt>
      <trkpt lat="43.34057193249464" lon="-6.490510795265436">
        <ele>643</ele>
        <time>2017-08-05T07:19:53.000Z</time>
      </trkpt>
      <trkpt lat="43.34063731133938" lon="-6.490539042279124">
        <ele>642.4</ele>
        <time>2017-08-05T07:19:59.000Z</time>
      </trkpt>
      <trkpt lat="43.340659691020846" lon="-6.490544993430376">
        <ele>642.2</ele>
        <time>2017-08-05T07:20:02.000Z</time>
      </trkpt>
      <trkpt lat="43.340676706284285" lon="-6.49055446498096">
        <ele>642</ele>
        <time>2017-08-05T07:20:05.000Z</time>
      </trkpt>
      <trkpt lat="43.34068919532001" lon="-6.490564187988639">
        <ele>642</ele>
        <time>2017-08-05T07:20:06.000Z</time>
      </trkpt>
      <trkpt lat="43.34072205238044" lon="-6.490582209080458">
        <ele>641.8</ele>
        <time>2017-08-05T07:20:10.000Z</time>
      </trkpt>
      <trkpt lat="43.34076974540949" lon="-6.490622945129871">
        <ele>641.8</ele>
        <time>2017-08-05T07:20:17.000Z</time>
      </trkpt>
      <trkpt lat="43.34080168046057" lon="-6.490651862695813">
        <ele>641.8</ele>
        <time>2017-08-05T07:20:21.000Z</time>
      </trkpt>
      <trkpt lat="43.34081484004855" lon="-6.490666698664427">
        <ele>641.8</ele>
        <time>2017-08-05T07:20:23.000Z</time>
      </trkpt>
      <trkpt lat="43.34085926413536" lon="-6.490714643150568">
        <ele>641.8</ele>
        <time>2017-08-05T07:20:31.000Z</time>
      </trkpt>
      <trkpt lat="43.34090896882117" lon="-6.49073869921267">
        <ele>641</ele>
        <time>2017-08-05T07:20:37.000Z</time>
      </trkpt>
      <trkpt lat="43.34096135571599" lon="-6.490770885720849">
        <ele>640.8</ele>
        <time>2017-08-05T07:20:43.000Z</time>
      </trkpt>
      <trkpt lat="43.340983651578426" lon="-6.490783961489797">
        <ele>640.6</ele>
        <time>2017-08-05T07:20:45.000Z</time>
      </trkpt>
      <trkpt lat="43.34105238318443" lon="-6.49083349853754">
        <ele>640.4</ele>
        <time>2017-08-05T07:20:52.000Z</time>
      </trkpt>
      <trkpt lat="43.34108649753034" lon="-6.490850346162915">
        <ele>640.4</ele>
        <time>2017-08-05T07:20:55.000Z</time>
      </trkpt>
      <trkpt lat="43.341126814484596" lon="-6.490869792178273">
        <ele>640.8</ele>
        <time>2017-08-05T07:20:59.000Z</time>
      </trkpt>
      <trkpt lat="43.34117626771331" lon="-6.490900134667754">
        <ele>641.4</ele>
        <time>2017-08-05T07:21:03.000Z</time>
      </trkpt>
      <trkpt lat="43.341183392331004" lon="-6.490899296477437">
        <ele>641.4</ele>
        <time>2017-08-05T07:21:04.000Z</time>
      </trkpt>
      <trkpt lat="43.34121013060212" lon="-6.490914802998304">
        <ele>641.6</ele>
        <time>2017-08-05T07:21:08.000Z</time>
      </trkpt>
      <trkpt lat="43.34127198904753" lon="-6.490958975628018">
        <ele>643</ele>
        <time>2017-08-05T07:21:13.000Z</time>
      </trkpt>
      <trkpt lat="43.34128389135003" lon="-6.490963166579604">
        <ele>643.2</ele>
        <time>2017-08-05T07:21:15.000Z</time>
      </trkpt>
      <trkpt lat="43.341304091736674" lon="-6.490971967577934">
        <ele>643.6</ele>
        <time>2017-08-05T07:21:17.000Z</time>
      </trkpt>
      <trkpt lat="43.341367710381746" lon="-6.49099032394588">
        <ele>644</ele>
        <time>2017-08-05T07:21:22.000Z</time>
      </trkpt>
      <trkpt lat="43.341407189145684" lon="-6.491010021418333">
        <ele>644.4</ele>
        <time>2017-08-05T07:21:25.000Z</time>
      </trkpt>
      <trkpt lat="43.3414286468178" lon="-6.4910125359892845">
        <ele>644.2</ele>
        <time>2017-08-05T07:21:27.000Z</time>
      </trkpt>
      <trkpt lat="43.3414376154542" lon="-6.491018570959568">
        <ele>644.4</ele>
        <time>2017-08-05T07:21:29.000Z</time>
      </trkpt>
      <trkpt lat="43.341451194137335" lon="-6.491022342815995">
        <ele>644.6</ele>
        <time>2017-08-05T07:21:31.000Z</time>
      </trkpt>
      <trkpt lat="43.341463431715965" lon="-6.4910337422043085">
        <ele>645</ele>
        <time>2017-08-05T07:21:32.000Z</time>
      </trkpt>
      <trkpt lat="43.34150215610862" lon="-6.491061989217997">
        <ele>646.2</ele>
        <time>2017-08-05T07:21:36.000Z</time>
      </trkpt>
      <trkpt lat="43.34151984192431" lon="-6.491075986996293">
        <ele>646.8</ele>
        <time>2017-08-05T07:21:38.000Z</time>
      </trkpt>
      <trkpt lat="43.34152411669493" lon="-6.491086380556226">
        <ele>647.4</ele>
        <time>2017-08-05T07:21:39.000Z</time>
      </trkpt>
      <trkpt lat="43.341564601287246" lon="-6.49111052043736">
        <ele>648.2</ele>
        <time>2017-08-05T07:21:43.000Z</time>
      </trkpt>
      <trkpt lat="43.34159947000444" lon="-6.491141365841031">
        <ele>649.2</ele>
        <time>2017-08-05T07:21:47.000Z</time>
      </trkpt>
      <trkpt lat="43.34160181693733" lon="-6.491149663925171">
        <ele>649.4</ele>
        <time>2017-08-05T07:21:48.000Z</time>
      </trkpt>
      <trkpt lat="43.341658394783735" lon="-6.491186711937189">
        <ele>649.6</ele>
        <time>2017-08-05T07:21:53.000Z</time>
      </trkpt>
      <trkpt lat="43.341730646789074" lon="-6.491213869303465">
        <ele>649</ele>
        <time>2017-08-05T07:21:59.000Z</time>
      </trkpt>
      <trkpt lat="43.341748751699924" lon="-6.491226442158222">
        <ele>649.2</ele>
        <time>2017-08-05T07:22:00.000Z</time>
      </trkpt>
      <trkpt lat="43.34179443307221" lon="-6.491231890395284">
        <ele>648.4</ele>
        <time>2017-08-05T07:22:04.000Z</time>
      </trkpt>
      <trkpt lat="43.34183315746486" lon="-6.491236165165901">
        <ele>647.8</ele>
        <time>2017-08-05T07:22:08.000Z</time>
      </trkpt>
      <trkpt lat="43.341860733926296" lon="-6.491239350289106">
        <ele>647.4</ele>
        <time>2017-08-05T07:22:10.000Z</time>
      </trkpt>
      <trkpt lat="43.34194363094866" lon="-6.491257455199957">
        <ele>646.8</ele>
        <time>2017-08-05T07:22:17.000Z</time>
      </trkpt>
      <trkpt lat="43.34203574806452" lon="-6.491281092166901">
        <ele>646.2</ele>
        <time>2017-08-05T07:22:25.000Z</time>
      </trkpt>
      <trkpt lat="43.34204949438572" lon="-6.49128888733685">
        <ele>646.2</ele>
        <time>2017-08-05T07:22:26.000Z</time>
      </trkpt>
      <trkpt lat="43.3421023003757" lon="-6.491309842094779">
        <ele>645.8</ele>
        <time>2017-08-05T07:22:31.000Z</time>
      </trkpt>
      <trkpt lat="43.34213297814131" lon="-6.4913250133395195">
        <ele>645.4</ele>
        <time>2017-08-05T07:22:34.000Z</time>
      </trkpt>
      <trkpt lat="43.3421781565994" lon="-6.491353930905461">
        <ele>645.4</ele>
        <time>2017-08-05T07:22:39.000Z</time>
      </trkpt>
      <trkpt lat="43.342243200168014" lon="-6.491412352770567">
        <ele>645.4</ele>
        <time>2017-08-05T07:22:46.000Z</time>
      </trkpt>
      <trkpt lat="43.34226147271693" lon="-6.491435235366225">
        <ele>645.6</ele>
        <time>2017-08-05T07:22:48.000Z</time>
      </trkpt>
      <trkpt lat="43.34229273721576" lon="-6.491474462673068">
        <ele>645.8</ele>
        <time>2017-08-05T07:22:52.000Z</time>
      </trkpt>
      <trkpt lat="43.34234906360507" lon="-6.491546044126153">
        <ele>645.8</ele>
        <time>2017-08-05T07:22:59.000Z</time>
      </trkpt>
      <trkpt lat="43.34239415824413" lon="-6.491629695519805">
        <ele>645.4</ele>
        <time>2017-08-05T07:23:07.000Z</time>
      </trkpt>
      <trkpt lat="43.34242282435298" lon="-6.49169540964067">
        <ele>645.2</ele>
        <time>2017-08-05T07:23:12.000Z</time>
      </trkpt>
      <trkpt lat="43.342428021132946" lon="-6.491716280579567">
        <ele>645.2</ele>
        <time>2017-08-05T07:23:14.000Z</time>
      </trkpt>
      <trkpt lat="43.34244369529188" lon="-6.491754334419966">
        <ele>645</ele>
        <time>2017-08-05T07:23:18.000Z</time>
      </trkpt>
      <trkpt lat="43.34245786070824" lon="-6.49177948012948">
        <ele>644.8</ele>
        <time>2017-08-05T07:23:20.000Z</time>
      </trkpt>
      <trkpt lat="43.342478312551975" lon="-6.491826502606273">
        <ele>644.6</ele>
        <time>2017-08-05T07:23:25.000Z</time>
      </trkpt>
      <trkpt lat="43.342504799366" lon="-6.491903280839324">
        <ele>644.4</ele>
        <time>2017-08-05T07:23:31.000Z</time>
      </trkpt>
      <trkpt lat="43.342515444383025" lon="-6.491934880614281">
        <ele>644</ele>
        <time>2017-08-05T07:23:33.000Z</time>
      </trkpt>
      <trkpt lat="43.34252650849521" lon="-6.491945693269372">
        <ele>643.8</ele>
        <time>2017-08-05T07:23:35.000Z</time>
      </trkpt>
      <trkpt lat="43.34253245964646" lon="-6.491954997181892">
        <ele>643.6</ele>
        <time>2017-08-05T07:23:36.000Z</time>
      </trkpt>
      <trkpt lat="43.34254612214863" lon="-6.492013754323125">
        <ele>643.6</ele>
        <time>2017-08-05T07:23:40.000Z</time>
      </trkpt>
      <trkpt lat="43.34259331226349" lon="-6.492109559476376">
        <ele>642.8</ele>
        <time>2017-08-05T07:23:47.000Z</time>
      </trkpt>
      <trkpt lat="43.342624828219414" lon="-6.492193629965186">
        <ele>642.4</ele>
        <time>2017-08-05T07:23:53.000Z</time>
      </trkpt>
      <trkpt lat="43.34263144992292" lon="-6.492202514782548">
        <ele>642.2</ele>
        <time>2017-08-05T07:23:54.000Z</time>
      </trkpt>
      <trkpt lat="43.3426652289927" lon="-6.492274096235633">
        <ele>641.2</ele>
        <time>2017-08-05T07:24:00.000Z</time>
      </trkpt>
      <trkpt lat="43.34267017431557" lon="-6.492286249995232">
        <ele>641</ele>
        <time>2017-08-05T07:24:01.000Z</time>
      </trkpt>
      <trkpt lat="43.34268618375063" lon="-6.492336457595229">
        <ele>640.6</ele>
        <time>2017-08-05T07:24:05.000Z</time>
      </trkpt>
      <trkpt lat="43.34270051680505" lon="-6.49237166158855">
        <ele>640</ele>
        <time>2017-08-05T07:24:08.000Z</time>
      </trkpt>
      <trkpt lat="43.34273991174996" lon="-6.492454139515758">
        <ele>638.8</ele>
        <time>2017-08-05T07:24:14.000Z</time>
      </trkpt>
      <trkpt lat="43.34275449626148" lon="-6.492535108700395">
        <ele>638.2</ele>
        <time>2017-08-05T07:24:20.000Z</time>
      </trkpt>
      <trkpt lat="43.342763800174" lon="-6.492558661848307">
        <ele>637.8</ele>
        <time>2017-08-05T07:24:22.000Z</time>
      </trkpt>
      <trkpt lat="43.34277603775263" lon="-6.492614401504397">
        <ele>637.4</ele>
        <time>2017-08-05T07:24:26.000Z</time>
      </trkpt>
      <trkpt lat="43.34278743714094" lon="-6.492689335718751">
        <ele>636.8</ele>
        <time>2017-08-05T07:24:31.000Z</time>
      </trkpt>
      <trkpt lat="43.34279179573059" lon="-6.492702914401889">
        <ele>636.8</ele>
        <time>2017-08-05T07:24:32.000Z</time>
      </trkpt>
      <trkpt lat="43.34279506467283" lon="-6.492739040404558">
        <ele>636.8</ele>
        <time>2017-08-05T07:24:34.000Z</time>
      </trkpt>
      <trkpt lat="43.342797411605716" lon="-6.492796204984188">
        <ele>637</ele>
        <time>2017-08-05T07:24:37.000Z</time>
      </trkpt>
      <trkpt lat="43.34280151873827" lon="-6.492845322936773">
        <ele>636.8</ele>
        <time>2017-08-05T07:24:40.000Z</time>
      </trkpt>
      <trkpt lat="43.3427878562361" lon="-6.493013380095363">
        <ele>637.4</ele>
        <time>2017-08-05T07:24:49.000Z</time>
      </trkpt>
      <trkpt lat="43.3427566755563" lon="-6.493133744224906">
        <ele>638.8</ele>
        <time>2017-08-05T07:24:56.000Z</time>
      </trkpt>
      <trkpt lat="43.342730859294534" lon="-6.493187136948109">
        <ele>639.6</ele>
        <time>2017-08-05T07:25:00.000Z</time>
      </trkpt>
      <trkpt lat="43.342719208449125" lon="-6.493215970695019">
        <ele>640</ele>
        <time>2017-08-05T07:25:02.000Z</time>
      </trkpt>
      <trkpt lat="43.34266874939203" lon="-6.493326695635915">
        <ele>641.4</ele>
        <time>2017-08-05T07:25:10.000Z</time>
      </trkpt>
      <trkpt lat="43.34261829033494" lon="-6.49344521574676">
        <ele>642</ele>
        <time>2017-08-05T07:25:18.000Z</time>
      </trkpt>
      <trkpt lat="43.34260722622275" lon="-6.493457285687327">
        <ele>642.2</ele>
        <time>2017-08-05T07:25:19.000Z</time>
      </trkpt>
      <trkpt lat="43.34257571026683" lon="-6.493517886847258">
        <ele>642.8</ele>
        <time>2017-08-05T07:25:24.000Z</time>
      </trkpt>
      <trkpt lat="43.342524748295546" lon="-6.493608243763447">
        <ele>643.8</ele>
        <time>2017-08-05T07:25:31.000Z</time>
      </trkpt>
      <trkpt lat="43.34249532781541" lon="-6.493674041703343">
        <ele>643.6</ele>
        <time>2017-08-05T07:25:37.000Z</time>
      </trkpt>
      <trkpt lat="43.34245660342276" lon="-6.49374813772738">
        <ele>643.4</ele>
        <time>2017-08-05T07:25:42.000Z</time>
      </trkpt>
      <trkpt lat="43.34244922734797" lon="-6.493762386962771">
        <ele>643.4</ele>
        <time>2017-08-05T07:25:43.000Z</time>
      </trkpt>
      <trkpt lat="43.34243221208453" lon="-6.4937832579016685">
        <ele>643.6</ele>
        <time>2017-08-05T07:25:45.000Z</time>
      </trkpt>
      <trkpt lat="43.34241637028754" lon="-6.493819635361433">
        <ele>643.4</ele>
        <time>2017-08-05T07:25:48.000Z</time>
      </trkpt>
      <trkpt lat="43.342397175729275" lon="-6.493890294805169">
        <ele>643</ele>
        <time>2017-08-05T07:25:53.000Z</time>
      </trkpt>
      <trkpt lat="43.342366917058825" lon="-6.49394947104156">
        <ele>643.2</ele>
        <time>2017-08-05T07:25:58.000Z</time>
      </trkpt>
      <trkpt lat="43.34232266061008" lon="-6.494001774117351">
        <ele>643.6</ele>
        <time>2017-08-05T07:26:03.000Z</time>
      </trkpt>
      <trkpt lat="43.34231964312494" lon="-6.494008395820856">
        <ele>643.6</ele>
        <time>2017-08-05T07:26:04.000Z</time>
      </trkpt>
      <trkpt lat="43.342276057228446" lon="-6.494071427732706">
        <ele>644</ele>
        <time>2017-08-05T07:26:09.000Z</time>
      </trkpt>
      <trkpt lat="43.34227320738137" lon="-6.494081821292639">
        <ele>643.8</ele>
        <time>2017-08-05T07:26:10.000Z</time>
      </trkpt>
      <trkpt lat="43.34224529564381" lon="-6.494123060256243">
        <ele>644</ele>
        <time>2017-08-05T07:26:14.000Z</time>
      </trkpt>
      <trkpt lat="43.34222434088588" lon="-6.494161197915673">
        <ele>644.2</ele>
        <time>2017-08-05T07:26:17.000Z</time>
      </trkpt>
      <trkpt lat="43.3421784080565" lon="-6.4942430052906275">
        <ele>644.8</ele>
        <time>2017-08-05T07:26:25.000Z</time>
      </trkpt>
      <trkpt lat="43.34213155321777" lon="-6.494293799623847">
        <ele>645.4</ele>
        <time>2017-08-05T07:26:31.000Z</time>
      </trkpt>
      <trkpt lat="43.34209551103413" lon="-6.494365967810154">
        <ele>645.8</ele>
        <time>2017-08-05T07:26:36.000Z</time>
      </trkpt>
      <trkpt lat="43.34206231869757" lon="-6.494473339989781">
        <ele>646</ele>
        <time>2017-08-05T07:26:43.000Z</time>
      </trkpt>
      <trkpt lat="43.34205351769924" lon="-6.494485912844539">
        <ele>646</ele>
        <time>2017-08-05T07:26:44.000Z</time>
      </trkpt>
      <trkpt lat="43.3420333173126" lon="-6.494551794603467">
        <ele>646.2</ele>
        <time>2017-08-05T07:26:49.000Z</time>
      </trkpt>
      <trkpt lat="43.3420280367136" lon="-6.4945881720632315">
        <ele>646.2</ele>
        <time>2017-08-05T07:26:51.000Z</time>
      </trkpt>
      <trkpt lat="43.342017559334636" lon="-6.494601918384433">
        <ele>646.4</ele>
        <time>2017-08-05T07:26:52.000Z</time>
      </trkpt>
      <trkpt lat="43.341989144682884" lon="-6.494646845385432">
        <ele>646.6</ele>
        <time>2017-08-05T07:26:56.000Z</time>
      </trkpt>
      <trkpt lat="43.34198109805584" lon="-6.494663693010807">
        <ele>646.8</ele>
        <time>2017-08-05T07:26:57.000Z</time>
      </trkpt>
      <trkpt lat="43.34195176139474" lon="-6.494709961116314">
        <ele>647.2</ele>
        <time>2017-08-05T07:27:01.000Z</time>
      </trkpt>
      <trkpt lat="43.34194262512028" lon="-6.494726305827498">
        <ele>647.2</ele>
        <time>2017-08-05T07:27:02.000Z</time>
      </trkpt>
      <trkpt lat="43.34192745387554" lon="-6.494752457365394">
        <ele>647.4</ele>
        <time>2017-08-05T07:27:04.000Z</time>
      </trkpt>
      <trkpt lat="43.34189468063414" lon="-6.494836611673236">
        <ele>647.6</ele>
        <time>2017-08-05T07:27:09.000Z</time>
      </trkpt>
      <trkpt lat="43.341892920434475" lon="-6.494872989133">
        <ele>647.4</ele>
        <time>2017-08-05T07:27:11.000Z</time>
      </trkpt>
      <trkpt lat="43.34187850356102" lon="-6.494937110692263">
        <ele>647.4</ele>
        <time>2017-08-05T07:27:15.000Z</time>
      </trkpt>
      <trkpt lat="43.34185344167054" lon="-6.495078345760703">
        <ele>646.2</ele>
        <time>2017-08-05T07:27:23.000Z</time>
      </trkpt>
      <trkpt lat="43.34184195846319" lon="-6.495179515331984">
        <ele>644.8</ele>
        <time>2017-08-05T07:27:28.000Z</time>
      </trkpt>
      <trkpt lat="43.34184380248189" lon="-6.495258389040828">
        <ele>643.6</ele>
        <time>2017-08-05T07:27:31.000Z</time>
      </trkpt>
      <trkpt lat="43.341851849108934" lon="-6.495288060978055">
        <ele>643.2</ele>
        <time>2017-08-05T07:27:33.000Z</time>
      </trkpt>
      <trkpt lat="43.341846568509936" lon="-6.495362743735313">
        <ele>642.2</ele>
        <time>2017-08-05T07:27:38.000Z</time>
      </trkpt>
      <trkpt lat="43.341826032847166" lon="-6.495466930791736">
        <ele>641.2</ele>
        <time>2017-08-05T07:27:44.000Z</time>
      </trkpt>
      <trkpt lat="43.34182284772396" lon="-6.495560137555003">
        <ele>640.2</ele>
        <time>2017-08-05T07:27:49.000Z</time>
      </trkpt>
      <trkpt lat="43.341822009533644" lon="-6.495578661561012">
        <ele>640</ele>
        <time>2017-08-05T07:27:50.000Z</time>
      </trkpt>
      <trkpt lat="43.34181354381144" lon="-6.495750909671187">
        <ele>638.2</ele>
        <time>2017-08-05T07:27:59.000Z</time>
      </trkpt>
      <trkpt lat="43.34180826321244" lon="-6.4958801586180925">
        <ele>636.8</ele>
        <time>2017-08-05T07:28:07.000Z</time>
      </trkpt>
      <trkpt lat="43.34181698039174" lon="-6.4960383251309395">
        <ele>636</ele>
        <time>2017-08-05T07:28:16.000Z</time>
      </trkpt>
      <trkpt lat="43.34181991405785" lon="-6.496177716180682">
        <ele>636</ele>
        <time>2017-08-05T07:28:24.000Z</time>
      </trkpt>
      <trkpt lat="43.341834833845496" lon="-6.496327333152294">
        <ele>635</ele>
        <time>2017-08-05T07:28:33.000Z</time>
      </trkpt>
      <trkpt lat="43.34184522740543" lon="-6.496456330642104">
        <ele>634.4</ele>
        <time>2017-08-05T07:28:41.000Z</time>
      </trkpt>
      <trkpt lat="43.34186710417271" lon="-6.496573090553284">
        <ele>634.2</ele>
        <time>2017-08-05T07:28:49.000Z</time>
      </trkpt>
      <trkpt lat="43.34189032204449" lon="-6.496662274003029">
        <ele>634</ele>
        <time>2017-08-05T07:28:56.000Z</time>
      </trkpt>
      <trkpt lat="43.34190842695534" lon="-6.496765287593007">
        <ele>633.2</ele>
        <time>2017-08-05T07:29:03.000Z</time>
      </trkpt>
      <trkpt lat="43.341917814686894" lon="-6.496865954250097">
        <ele>632.4</ele>
        <time>2017-08-05T07:29:10.000Z</time>
      </trkpt>
      <trkpt lat="43.3419106900692" lon="-6.4969610050320625">
        <ele>631.8</ele>
        <time>2017-08-05T07:29:17.000Z</time>
      </trkpt>
      <trkpt lat="43.34188973531127" lon="-6.49708840996027">
        <ele>631</ele>
        <time>2017-08-05T07:29:25.000Z</time>
      </trkpt>
      <trkpt lat="43.34185444749892" lon="-6.4972081035375595">
        <ele>630.4</ele>
        <time>2017-08-05T07:29:33.000Z</time>
      </trkpt>
      <trkpt lat="43.34182687103748" lon="-6.497263927012682">
        <ele>630.2</ele>
        <time>2017-08-05T07:29:38.000Z</time>
      </trkpt>
      <trkpt lat="43.341793175786734" lon="-6.497307764366269">
        <ele>630.2</ele>
        <time>2017-08-05T07:29:42.000Z</time>
      </trkpt>
      <trkpt lat="43.34177976474166" lon="-6.49733467027545">
        <ele>630</ele>
        <time>2017-08-05T07:29:44.000Z</time>
      </trkpt>
      <trkpt lat="43.341721929609776" lon="-6.497441623359919">
        <ele>629.8</ele>
        <time>2017-08-05T07:29:52.000Z</time>
      </trkpt>
      <trkpt lat="43.34165378473699" lon="-6.497508846223354">
        <ele>629.8</ele>
        <time>2017-08-05T07:29:59.000Z</time>
      </trkpt>
      <trkpt lat="43.34158287383616" lon="-6.497548744082451">
        <ele>630</ele>
        <time>2017-08-05T07:30:06.000Z</time>
      </trkpt>
      <trkpt lat="43.34149151109159" lon="-6.497569195926189">
        <ele>630.6</ele>
        <time>2017-08-05T07:30:14.000Z</time>
      </trkpt>
      <trkpt lat="43.341403333470225" lon="-6.497610853984952">
        <ele>631.2</ele>
        <time>2017-08-05T07:30:23.000Z</time>
      </trkpt>
      <trkpt lat="43.34132060408592" lon="-6.497585792094469">
        <ele>632</ele>
        <time>2017-08-05T07:30:30.000Z</time>
      </trkpt>
      <trkpt lat="43.34121750667691" lon="-6.497549833729863">
        <ele>632</ele>
        <time>2017-08-05T07:30:40.000Z</time>
      </trkpt>
      <trkpt lat="43.341107200831175" lon="-6.497515132650733">
        <ele>632</ele>
        <time>2017-08-05T07:30:50.000Z</time>
      </trkpt>
      <trkpt lat="43.3409883454442" lon="-6.497498704120517">
        <ele>632.2</ele>
        <time>2017-08-05T07:31:00.000Z</time>
      </trkpt>
      <trkpt lat="43.340977784246206" lon="-6.497491328045726">
        <ele>632.4</ele>
        <time>2017-08-05T07:31:02.000Z</time>
      </trkpt>
      <trkpt lat="43.34092237986624" lon="-6.49748370051384">
        <ele>632.8</ele>
        <time>2017-08-05T07:31:07.000Z</time>
      </trkpt>
      <trkpt lat="43.340828754007816" lon="-6.497469367459416">
        <ele>633.2</ele>
        <time>2017-08-05T07:31:15.000Z</time>
      </trkpt>
      <trkpt lat="43.3407311886549" lon="-6.497456124052405">
        <ele>634.4</ele>
        <time>2017-08-05T07:31:23.000Z</time>
      </trkpt>
      <trkpt lat="43.340641083195806" lon="-6.497452100738883">
        <ele>635.4</ele>
        <time>2017-08-05T07:31:31.000Z</time>
      </trkpt>
      <trkpt lat="43.34053664468229" lon="-6.497449083253741">
        <ele>636.6</ele>
        <time>2017-08-05T07:31:39.000Z</time>
      </trkpt>
      <trkpt lat="43.34043027833104" lon="-6.497445143759251">
        <ele>637.8</ele>
        <time>2017-08-05T07:31:48.000Z</time>
      </trkpt>
      <trkpt lat="43.34032382816076" lon="-6.4974472392350435">
        <ele>639</ele>
        <time>2017-08-05T07:31:57.000Z</time>
      </trkpt>
      <trkpt lat="43.34022735245526" lon="-6.497456710785627">
        <ele>639.8</ele>
        <time>2017-08-05T07:32:06.000Z</time>
      </trkpt>
      <trkpt lat="43.34010388702154" lon="-6.497464505955577">
        <ele>639.6</ele>
        <time>2017-08-05T07:32:17.000Z</time>
      </trkpt>
      <trkpt lat="43.33999969996512" lon="-6.497488645836711">
        <ele>639.2</ele>
        <time>2017-08-05T07:32:26.000Z</time>
      </trkpt>
      <trkpt lat="43.33992317318916" lon="-6.49754187092185">
        <ele>638.6</ele>
        <time>2017-08-05T07:32:33.000Z</time>
      </trkpt>
      <trkpt lat="43.33987715654075" lon="-6.497656032443047">
        <ele>637.6</ele>
        <time>2017-08-05T07:32:40.000Z</time>
      </trkpt>
      <trkpt lat="43.339798534289" lon="-6.497803637757897">
        <ele>636.2</ele>
        <time>2017-08-05T07:32:51.000Z</time>
      </trkpt>
      <trkpt lat="43.3396846242249" lon="-6.497911512851715">
        <ele>635.6</ele>
        <time>2017-08-05T07:33:03.000Z</time>
      </trkpt>
      <trkpt lat="43.33962259814143" lon="-6.497966833412647">
        <ele>635.4</ele>
        <time>2017-08-05T07:33:12.000Z</time>
      </trkpt>
      <trkpt lat="43.33957364782691" lon="-6.49799482896924">
        <ele>635.4</ele>
        <time>2017-08-05T07:33:21.000Z</time>
      </trkpt>
      <trkpt lat="43.339494271203876" lon="-6.498058615252376">
        <ele>635.2</ele>
        <time>2017-08-05T07:33:29.000Z</time>
      </trkpt>
      <trkpt lat="43.33938932977617" lon="-6.498146373778582">
        <ele>635.4</ele>
        <time>2017-08-05T07:33:39.000Z</time>
      </trkpt>
      <trkpt lat="43.3392702229321" lon="-6.498233042657375">
        <ele>636.2</ele>
        <time>2017-08-05T07:33:50.000Z</time>
      </trkpt>
      <trkpt lat="43.33916335366666" lon="-6.498311161994934">
        <ele>636.8</ele>
        <time>2017-08-05T07:34:00.000Z</time>
      </trkpt>
      <trkpt lat="43.339029997587204" lon="-6.498407386243343">
        <ele>637</ele>
        <time>2017-08-05T07:34:12.000Z</time>
      </trkpt>
      <trkpt lat="43.33892539143562" lon="-6.498487601056695">
        <ele>636.8</ele>
        <time>2017-08-05T07:34:22.000Z</time>
      </trkpt>
      <trkpt lat="43.3388333581388" lon="-6.498560272157192">
        <ele>636.8</ele>
        <time>2017-08-05T07:34:31.000Z</time>
      </trkpt>
      <trkpt lat="43.33874601870775" lon="-6.4986273273825645">
        <ele>636</ele>
        <time>2017-08-05T07:34:39.000Z</time>
      </trkpt>
      <trkpt lat="43.33861065097153" lon="-6.4987230487167835">
        <ele>634.4</ele>
        <time>2017-08-05T07:34:51.000Z</time>
      </trkpt>
      <trkpt lat="43.33851576782763" lon="-6.4987837336957455">
        <ele>633.6</ele>
        <time>2017-08-05T07:34:59.000Z</time>
      </trkpt>
      <trkpt lat="43.33837067708373" lon="-6.498883059248328">
        <ele>632.6</ele>
        <time>2017-08-05T07:35:12.000Z</time>
      </trkpt>
      <trkpt lat="43.33836279809475" lon="-6.4988915249705315">
        <ele>632.6</ele>
        <time>2017-08-05T07:35:13.000Z</time>
      </trkpt>
      <trkpt lat="43.338310327380896" lon="-6.498924968764186">
        <ele>632</ele>
        <time>2017-08-05T07:35:18.000Z</time>
      </trkpt>
      <trkpt lat="43.33821485750377" lon="-6.498999064788222">
        <ele>631.4</ele>
        <time>2017-08-05T07:35:27.000Z</time>
      </trkpt>
      <trkpt lat="43.338126093149185" lon="-6.499080955982208">
        <ele>630.8</ele>
        <time>2017-08-05T07:35:35.000Z</time>
      </trkpt>
      <trkpt lat="43.33801335655153" lon="-6.499212048947811">
        <ele>629.6</ele>
        <time>2017-08-05T07:35:46.000Z</time>
      </trkpt>
      <trkpt lat="43.33793364465237" lon="-6.49933660402894">
        <ele>628.2</ele>
        <time>2017-08-05T07:35:55.000Z</time>
      </trkpt>
      <trkpt lat="43.33782920613885" lon="-6.4995176531374454">
        <ele>626.2</ele>
        <time>2017-08-05T07:36:08.000Z</time>
      </trkpt>
      <trkpt lat="43.33770984783769" lon="-6.499721836298704">
        <ele>624</ele>
        <time>2017-08-05T07:36:23.000Z</time>
      </trkpt>
      <trkpt lat="43.337602308019996" lon="-6.499873716384172">
        <ele>622.4</ele>
        <time>2017-08-05T07:36:35.000Z</time>
      </trkpt>
      <trkpt lat="43.33749468438327" lon="-6.500021573156118">
        <ele>621</ele>
        <time>2017-08-05T07:36:47.000Z</time>
      </trkpt>
      <trkpt lat="43.337413128465414" lon="-6.500147553160787">
        <ele>620.2</ele>
        <time>2017-08-05T07:36:57.000Z</time>
      </trkpt>
      <trkpt lat="43.33735269494355" lon="-6.500257607549429">
        <ele>619.8</ele>
        <time>2017-08-05T07:37:06.000Z</time>
      </trkpt>
      <trkpt lat="43.337282286956906" lon="-6.500389706343412">
        <ele>619.8</ele>
        <time>2017-08-05T07:37:16.000Z</time>
      </trkpt>
      <trkpt lat="43.33720726892352" lon="-6.500523900613189">
        <ele>619.8</ele>
        <time>2017-08-05T07:37:26.000Z</time>
      </trkpt>
      <trkpt lat="43.33714909851551" lon="-6.5006450191140175">
        <ele>620</ele>
        <time>2017-08-05T07:37:34.000Z</time>
      </trkpt>
      <trkpt lat="43.3370927721262" lon="-6.500767143443227">
        <ele>620</ele>
        <time>2017-08-05T07:37:42.000Z</time>
      </trkpt>
      <trkpt lat="43.337045246735215" lon="-6.500862780958414">
        <ele>620</ele>
        <time>2017-08-05T07:37:48.000Z</time>
      </trkpt>
      <trkpt lat="43.33698187954724" lon="-6.5009919460862875">
        <ele>620</ele>
        <time>2017-08-05T07:37:57.000Z</time>
      </trkpt>
      <trkpt lat="43.33692815154791" lon="-6.501093367114663">
        <ele>620</ele>
        <time>2017-08-05T07:38:05.000Z</time>
      </trkpt>
      <trkpt lat="43.33688967861235" lon="-6.50118850171566">
        <ele>619.4</ele>
        <time>2017-08-05T07:38:12.000Z</time>
      </trkpt>
      <trkpt lat="43.336827317252755" lon="-6.501323450356722">
        <ele>617.6</ele>
        <time>2017-08-05T07:38:22.000Z</time>
      </trkpt>
      <trkpt lat="43.336753975600004" lon="-6.501470049843192">
        <ele>615.6</ele>
        <time>2017-08-05T07:38:32.000Z</time>
      </trkpt>
      <trkpt lat="43.33669521845877" lon="-6.50159016251564">
        <ele>613.6</ele>
        <time>2017-08-05T07:38:40.000Z</time>
      </trkpt>
      <trkpt lat="43.33663403056562" lon="-6.501715471968055">
        <ele>611.6</ele>
        <time>2017-08-05T07:38:49.000Z</time>
      </trkpt>
      <trkpt lat="43.336587427183986" lon="-6.501875147223473">
        <ele>609.6</ele>
        <time>2017-08-05T07:38:59.000Z</time>
      </trkpt>
      <trkpt lat="43.33657099865377" lon="-6.502022333443165">
        <ele>608.4</ele>
        <time>2017-08-05T07:39:08.000Z</time>
      </trkpt>
      <trkpt lat="43.33657552488148" lon="-6.502170190215111">
        <ele>607.4</ele>
        <time>2017-08-05T07:39:17.000Z</time>
      </trkpt>
      <trkpt lat="43.33658876828849" lon="-6.502344869077206">
        <ele>606.4</ele>
        <time>2017-08-05T07:39:27.000Z</time>
      </trkpt>
      <trkpt lat="43.33659119904041" lon="-6.502383258193731">
        <ele>606.4</ele>
        <time>2017-08-05T07:39:29.000Z</time>
      </trkpt>
      <trkpt lat="43.33660419099033" lon="-6.502522733062506">
        <ele>605.8</ele>
        <time>2017-08-05T07:39:37.000Z</time>
      </trkpt>
      <trkpt lat="43.33662145771086" lon="-6.502708978950977">
        <ele>605.2</ele>
        <time>2017-08-05T07:39:47.000Z</time>
      </trkpt>
      <trkpt lat="43.33663210272789" lon="-6.502852980047464">
        <ele>604.8</ele>
        <time>2017-08-05T07:39:55.000Z</time>
      </trkpt>
      <trkpt lat="43.33661894313991" lon="-6.503076693043113">
        <ele>603.8</ele>
        <time>2017-08-05T07:40:08.000Z</time>
      </trkpt>
      <trkpt lat="43.33659346215427" lon="-6.503266375511885">
        <ele>602.2</ele>
        <time>2017-08-05T07:40:19.000Z</time>
      </trkpt>
      <trkpt lat="43.33656412549317" lon="-6.503436611965299">
        <ele>601.2</ele>
        <time>2017-08-05T07:40:29.000Z</time>
      </trkpt>
      <trkpt lat="43.336548283696175" lon="-6.503605507314205">
        <ele>600.4</ele>
        <time>2017-08-05T07:40:39.000Z</time>
      </trkpt>
      <trkpt lat="43.336553648114204" lon="-6.503719333559275">
        <ele>599.8</ele>
        <time>2017-08-05T07:40:46.000Z</time>
      </trkpt>
      <trkpt lat="43.33660234697163" lon="-6.503831315785646">
        <ele>599.2</ele>
        <time>2017-08-05T07:40:54.000Z</time>
      </trkpt>
      <trkpt lat="43.33665171638131" lon="-6.503925947472453">
        <ele>598.6</ele>
        <time>2017-08-05T07:41:01.000Z</time>
      </trkpt>
      <trkpt lat="43.33673126064241" lon="-6.5040607284754515">
        <ele>597.4</ele>
        <time>2017-08-05T07:41:11.000Z</time>
      </trkpt>
      <trkpt lat="43.336814744398" lon="-6.504198862239718">
        <ele>596.8</ele>
        <time>2017-08-05T07:41:21.000Z</time>
      </trkpt>
      <trkpt lat="43.336892277002335" lon="-6.504338001832366">
        <ele>596.4</ele>
        <time>2017-08-05T07:41:31.000Z</time>
      </trkpt>
      <trkpt lat="43.336943155154586" lon="-6.504476219415665">
        <ele>595.8</ele>
        <time>2017-08-05T07:41:40.000Z</time>
      </trkpt>
      <trkpt lat="43.33694642409682" lon="-6.504491390660405">
        <ele>595.8</ele>
        <time>2017-08-05T07:41:41.000Z</time>
      </trkpt>
      <trkpt lat="43.33697039633989" lon="-6.5046508982777596">
        <ele>595.2</ele>
        <time>2017-08-05T07:41:51.000Z</time>
      </trkpt>
      <trkpt lat="43.336974838748574" lon="-6.504711164161563">
        <ele>595</ele>
        <time>2017-08-05T07:41:55.000Z</time>
      </trkpt>
      <trkpt lat="43.336982214823365" lon="-6.504756761714816">
        <ele>594.8</ele>
        <time>2017-08-05T07:41:58.000Z</time>
      </trkpt>
      <trkpt lat="43.33697752095759" lon="-6.504773944616318">
        <ele>594.6</ele>
        <time>2017-08-05T07:41:59.000Z</time>
      </trkpt>
      <trkpt lat="43.33697450347245" lon="-6.504853656515479">
        <ele>594</ele>
        <time>2017-08-05T07:42:04.000Z</time>
      </trkpt>
      <trkpt lat="43.33696033805609" lon="-6.505040070042014">
        <ele>593</ele>
        <time>2017-08-05T07:42:14.000Z</time>
      </trkpt>
      <trkpt lat="43.33696008659899" lon="-6.50519379414618">
        <ele>592.6</ele>
        <time>2017-08-05T07:42:22.000Z</time>
      </trkpt>
      <trkpt lat="43.336935359984636" lon="-6.505379620939493">
        <ele>591.4</ele>
        <time>2017-08-05T07:42:32.000Z</time>
      </trkpt>
      <trkpt lat="43.336918260902166" lon="-6.505560837686062">
        <ele>590</ele>
        <time>2017-08-05T07:42:42.000Z</time>
      </trkpt>
      <trkpt lat="43.33690191619098" lon="-6.5057258773595095">
        <ele>589.4</ele>
        <time>2017-08-05T07:42:51.000Z</time>
      </trkpt>
      <trkpt lat="43.33689386956394" lon="-6.505889995023608">
        <ele>589</ele>
        <time>2017-08-05T07:43:00.000Z</time>
      </trkpt>
      <trkpt lat="43.336890349164605" lon="-6.506068781018257">
        <ele>589</ele>
        <time>2017-08-05T07:43:10.000Z</time>
      </trkpt>
      <trkpt lat="43.33689948543906" lon="-6.506293499842286">
        <ele>589.6</ele>
        <time>2017-08-05T07:43:23.000Z</time>
      </trkpt>
      <trkpt lat="43.336904933676124" lon="-6.506450828164816">
        <ele>590</ele>
        <time>2017-08-05T07:43:32.000Z</time>
      </trkpt>
      <trkpt lat="43.3369080349803" lon="-6.50663279928267">
        <ele>590</ele>
        <time>2017-08-05T07:43:42.000Z</time>
      </trkpt>
      <trkpt lat="43.33691515959799" lon="-6.5068888664245605">
        <ele>590</ele>
        <time>2017-08-05T07:43:56.000Z</time>
      </trkpt>
      <trkpt lat="43.33692756481469" lon="-6.5071100648492575">
        <ele>590</ele>
        <time>2017-08-05T07:44:08.000Z</time>
      </trkpt>
      <trkpt lat="43.33694281987846" lon="-6.507336208596826">
        <ele>590</ele>
        <time>2017-08-05T07:44:20.000Z</time>
      </trkpt>
      <trkpt lat="43.33694566972554" lon="-6.507462188601494">
        <ele>590</ele>
        <time>2017-08-05T07:44:27.000Z</time>
      </trkpt>
      <trkpt lat="43.33695220761001" lon="-6.5076175052672625">
        <ele>591</ele>
        <time>2017-08-05T07:44:35.000Z</time>
      </trkpt>
      <trkpt lat="43.336960673332214" lon="-6.507864017039537">
        <ele>592.8</ele>
        <time>2017-08-05T07:44:48.000Z</time>
      </trkpt>
      <trkpt lat="43.33696084097028" lon="-6.507882038131356">
        <ele>593</ele>
        <time>2017-08-05T07:44:49.000Z</time>
      </trkpt>
      <trkpt lat="43.33696980960667" lon="-6.508053783327341">
        <ele>594</ele>
        <time>2017-08-05T07:44:58.000Z</time>
      </trkpt>
      <trkpt lat="43.33697374910116" lon="-6.508271964266896">
        <ele>594.8</ele>
        <time>2017-08-05T07:45:10.000Z</time>
      </trkpt>
      <trkpt lat="43.336974922567606" lon="-6.508489390835166">
        <ele>596.2</ele>
        <time>2017-08-05T07:45:22.000Z</time>
      </trkpt>
      <trkpt lat="43.336972407996655" lon="-6.508699022233486">
        <ele>597</ele>
        <time>2017-08-05T07:45:34.000Z</time>
      </trkpt>
      <trkpt lat="43.33697416819632" lon="-6.508878143504262">
        <ele>597.6</ele>
        <time>2017-08-05T07:45:44.000Z</time>
      </trkpt>
      <trkpt lat="43.33698104135692" lon="-6.509008314460516">
        <ele>598.2</ele>
        <time>2017-08-05T07:45:52.000Z</time>
      </trkpt>
      <trkpt lat="43.33701674826443" lon="-6.5091306902468204">
        <ele>598.4</ele>
        <time>2017-08-05T07:46:01.000Z</time>
      </trkpt>
      <trkpt lat="43.33702831529081" lon="-6.5091698337346315">
        <ele>598.6</ele>
        <time>2017-08-05T07:46:03.000Z</time>
      </trkpt>
      <trkpt lat="43.3370547182858" lon="-6.509262202307582">
        <ele>598.8</ele>
        <time>2017-08-05T07:46:08.000Z</time>
      </trkpt>
      <trkpt lat="43.33707978017628" lon="-6.509394971653819">
        <ele>598.6</ele>
        <time>2017-08-05T07:46:16.000Z</time>
      </trkpt>
      <trkpt lat="43.33710710518062" lon="-6.509544253349304">
        <ele>599</ele>
        <time>2017-08-05T07:46:25.000Z</time>
      </trkpt>
      <trkpt lat="43.33714071661234" lon="-6.509692780673504">
        <ele>599.8</ele>
        <time>2017-08-05T07:46:34.000Z</time>
      </trkpt>
      <trkpt lat="43.33718438632786" lon="-6.50992127135396">
        <ele>602</ele>
        <time>2017-08-05T07:46:48.000Z</time>
      </trkpt>
      <trkpt lat="43.337207436561584" lon="-6.510081784799695">
        <ele>603.8</ele>
        <time>2017-08-05T07:46:57.000Z</time>
      </trkpt>
      <trkpt lat="43.337205508723855" lon="-6.510242130607367">
        <ele>605.4</ele>
        <time>2017-08-05T07:47:06.000Z</time>
      </trkpt>
      <trkpt lat="43.33719343878329" lon="-6.510355370119214">
        <ele>606.6</ele>
        <time>2017-08-05T07:47:14.000Z</time>
      </trkpt>
      <trkpt lat="43.33719737827778" lon="-6.510371211916208">
        <ele>606.6</ele>
        <time>2017-08-05T07:47:15.000Z</time>
      </trkpt>
      <trkpt lat="43.337201653048396" lon="-6.5104468166828156">
        <ele>607.2</ele>
        <time>2017-08-05T07:47:19.000Z</time>
      </trkpt>
      <trkpt lat="43.33719662390649" lon="-6.510463077574968">
        <ele>607.4</ele>
        <time>2017-08-05T07:47:20.000Z</time>
      </trkpt>
      <trkpt lat="43.33720223978162" lon="-6.510587548837066">
        <ele>608.2</ele>
        <time>2017-08-05T07:47:27.000Z</time>
      </trkpt>
      <trkpt lat="43.337186397984624" lon="-6.510752085596323">
        <ele>608.6</ele>
        <time>2017-08-05T07:47:36.000Z</time>
      </trkpt>
      <trkpt lat="43.33715429529548" lon="-6.510929279029369">
        <ele>608.8</ele>
        <time>2017-08-05T07:47:46.000Z</time>
      </trkpt>
      <trkpt lat="43.3371149841696" lon="-6.511127259582281">
        <ele>608.4</ele>
        <time>2017-08-05T07:47:57.000Z</time>
      </trkpt>
      <trkpt lat="43.337079444900155" lon="-6.511308392509818">
        <ele>607.2</ele>
        <time>2017-08-05T07:48:07.000Z</time>
      </trkpt>
      <trkpt lat="43.337072655558586" lon="-6.511462368071079">
        <ele>607</ele>
        <time>2017-08-05T07:48:16.000Z</time>
      </trkpt>
      <trkpt lat="43.33707139827311" lon="-6.511599076911807">
        <ele>607</ele>
        <time>2017-08-05T07:48:23.000Z</time>
      </trkpt>
      <trkpt lat="43.33708757534623" lon="-6.511754980310798">
        <ele>606.8</ele>
        <time>2017-08-05T07:48:31.000Z</time>
      </trkpt>
      <trkpt lat="43.33709679543972" lon="-6.511906776577234">
        <ele>605.4</ele>
        <time>2017-08-05T07:48:39.000Z</time>
      </trkpt>
      <trkpt lat="43.33712906576693" lon="-6.512109786272049">
        <ele>604.2</ele>
        <time>2017-08-05T07:48:50.000Z</time>
      </trkpt>
      <trkpt lat="43.33715152926743" lon="-6.512236939743161">
        <ele>604</ele>
        <time>2017-08-05T07:48:57.000Z</time>
      </trkpt>
      <trkpt lat="43.33719444461167" lon="-6.5124179888516665">
        <ele>601.8</ele>
        <time>2017-08-05T07:49:07.000Z</time>
      </trkpt>
      <trkpt lat="43.33724775351584" lon="-6.512589398771524">
        <ele>600</ele>
        <time>2017-08-05T07:49:17.000Z</time>
      </trkpt>
      <trkpt lat="43.33730215206742" lon="-6.512774806469679">
        <ele>598</ele>
        <time>2017-08-05T07:49:28.000Z</time>
      </trkpt>
      <trkpt lat="43.33734934218228" lon="-6.512946048751473">
        <ele>596.4</ele>
        <time>2017-08-05T07:49:38.000Z</time>
      </trkpt>
      <trkpt lat="43.33739963360131" lon="-6.5130912233144045">
        <ele>595.6</ele>
        <time>2017-08-05T07:49:47.000Z</time>
      </trkpt>
      <trkpt lat="43.33743986673653" lon="-6.513226674869657">
        <ele>595</ele>
        <time>2017-08-05T07:49:55.000Z</time>
      </trkpt>
      <trkpt lat="43.33750071935356" lon="-6.51342767290771">
        <ele>593.4</ele>
        <time>2017-08-05T07:50:07.000Z</time>
      </trkpt>
      <trkpt lat="43.33755763247609" lon="-6.513611152768135">
        <ele>591.8</ele>
        <time>2017-08-05T07:50:18.000Z</time>
      </trkpt>
      <trkpt lat="43.33761119283736" lon="-6.513787088915706">
        <ele>590.8</ele>
        <time>2017-08-05T07:50:29.000Z</time>
      </trkpt>
      <trkpt lat="43.33766751922667" lon="-6.513952799141407">
        <ele>589.6</ele>
        <time>2017-08-05T07:50:39.000Z</time>
      </trkpt>
      <trkpt lat="43.33767254836857" lon="-6.513968724757433">
        <ele>589.6</ele>
        <time>2017-08-05T07:50:40.000Z</time>
      </trkpt>
      <trkpt lat="43.337700041010976" lon="-6.514071319252253">
        <ele>589.2</ele>
        <time>2017-08-05T07:50:46.000Z</time>
      </trkpt>
      <trkpt lat="43.33774312399328" lon="-6.51421925984323">
        <ele>588.8</ele>
        <time>2017-08-05T07:50:55.000Z</time>
      </trkpt>
      <trkpt lat="43.337752763181925" lon="-6.514252619817853">
        <ele>588.8</ele>
        <time>2017-08-05T07:50:57.000Z</time>
      </trkpt>
      <trkpt lat="43.33781210705638" lon="-6.514437356963754">
        <ele>588</ele>
        <time>2017-08-05T07:51:08.000Z</time>
      </trkpt>
      <trkpt lat="43.33787815645337" lon="-6.51466391980648">
        <ele>588.2</ele>
        <time>2017-08-05T07:51:21.000Z</time>
      </trkpt>
      <trkpt lat="43.337941858917475" lon="-6.514851674437523">
        <ele>588.8</ele>
        <time>2017-08-05T07:51:32.000Z</time>
      </trkpt>
      <trkpt lat="43.33794445730746" lon="-6.51486961171031">
        <ele>588.8</ele>
        <time>2017-08-05T07:51:33.000Z</time>
      </trkpt>
      <trkpt lat="43.33801293745637" lon="-6.51503523811698">
        <ele>589</ele>
        <time>2017-08-05T07:51:43.000Z</time>
      </trkpt>
      <trkpt lat="43.338077729567885" lon="-6.5151706058532">
        <ele>588.8</ele>
        <time>2017-08-05T07:51:52.000Z</time>
      </trkpt>
      <trkpt lat="43.33808175288141" lon="-6.515184855088592">
        <ele>588.8</ele>
        <time>2017-08-05T07:51:53.000Z</time>
      </trkpt>
      <trkpt lat="43.33815358579159" lon="-6.515353750437498">
        <ele>589.8</ele>
        <time>2017-08-05T07:52:04.000Z</time>
      </trkpt>
      <trkpt lat="43.33823690190911" lon="-6.5155150182545185">
        <ele>590.6</ele>
        <time>2017-08-05T07:52:16.000Z</time>
      </trkpt>
      <trkpt lat="43.338304376229644" lon="-6.5156513918191195">
        <ele>591.4</ele>
        <time>2017-08-05T07:52:25.000Z</time>
      </trkpt>
      <trkpt lat="43.33837260492146" lon="-6.515809558331966">
        <ele>592</ele>
        <time>2017-08-05T07:52:35.000Z</time>
      </trkpt>
      <trkpt lat="43.33843236789107" lon="-6.515942411497235">
        <ele>591.6</ele>
        <time>2017-08-05T07:52:43.000Z</time>
      </trkpt>
      <trkpt lat="43.338519958779216" lon="-6.516137290745974">
        <ele>591.8</ele>
        <time>2017-08-05T07:52:55.000Z</time>
      </trkpt>
      <trkpt lat="43.33862280473113" lon="-6.516361087560654">
        <ele>591.6</ele>
        <time>2017-08-05T07:53:09.000Z</time>
      </trkpt>
      <trkpt lat="43.33872213028371" lon="-6.516565605998039">
        <ele>591.4</ele>
        <time>2017-08-05T07:53:22.000Z</time>
      </trkpt>
      <trkpt lat="43.33880016580224" lon="-6.516741877421737">
        <ele>591.2</ele>
        <time>2017-08-05T07:53:33.000Z</time>
      </trkpt>
      <trkpt lat="43.33887585438788" lon="-6.516903648152947">
        <ele>590.8</ele>
        <time>2017-08-05T07:53:43.000Z</time>
      </trkpt>
      <trkpt lat="43.3389678876847" lon="-6.517092492431402">
        <ele>591</ele>
        <time>2017-08-05T07:53:55.000Z</time>
      </trkpt>
      <trkpt lat="43.33904248662293" lon="-6.517254430800676">
        <ele>591.6</ele>
        <time>2017-08-05T07:54:06.000Z</time>
      </trkpt>
      <trkpt lat="43.33913301117718" lon="-6.517430953681469">
        <ele>592.8</ele>
        <time>2017-08-05T07:54:18.000Z</time>
      </trkpt>
      <trkpt lat="43.339215740561485" lon="-6.517574200406671">
        <ele>593.2</ele>
        <time>2017-08-05T07:54:28.000Z</time>
      </trkpt>
      <trkpt lat="43.339268965646625" lon="-6.517673525959253">
        <ele>593.2</ele>
        <time>2017-08-05T07:54:35.000Z</time>
      </trkpt>
      <trkpt lat="43.33926829509437" lon="-6.517791794613004">
        <ele>593</ele>
        <time>2017-08-05T07:54:42.000Z</time>
      </trkpt>
      <trkpt lat="43.33926762454212" lon="-6.517804618924856">
        <ele>593</ele>
        <time>2017-08-05T07:54:43.000Z</time>
      </trkpt>
      <trkpt lat="43.33928103558719" lon="-6.517852982506156">
        <ele>593</ele>
        <time>2017-08-05T07:54:48.000Z</time>
      </trkpt>
      <trkpt lat="43.339279778301716" lon="-6.5179541520774364">
        <ele>592.8</ele>
        <time>2017-08-05T07:55:13.000Z</time>
      </trkpt>
      <trkpt lat="43.33929478190839" lon="-6.518110642209649">
        <ele>593</ele>
        <time>2017-08-05T07:55:22.000Z</time>
      </trkpt>
      <trkpt lat="43.33931950852275" lon="-6.518253469839692">
        <ele>592.8</ele>
        <time>2017-08-05T07:55:30.000Z</time>
      </trkpt>
      <trkpt lat="43.33935529924929" lon="-6.518472908064723">
        <ele>593.4</ele>
        <time>2017-08-05T07:55:42.000Z</time>
      </trkpt>
      <trkpt lat="43.339381366968155" lon="-6.518633672967553">
        <ele>594</ele>
        <time>2017-08-05T07:55:52.000Z</time>
      </trkpt>
      <trkpt lat="43.33940668031573" lon="-6.518786894157529">
        <ele>595.4</ele>
        <time>2017-08-05T07:56:02.000Z</time>
      </trkpt>
      <trkpt lat="43.339429730549455" lon="-6.518926871940494">
        <ele>596.6</ele>
        <time>2017-08-05T07:56:11.000Z</time>
      </trkpt>
      <trkpt lat="43.33946141414344" lon="-6.519066514447331">
        <ele>598.6</ele>
        <time>2017-08-05T07:56:20.000Z</time>
      </trkpt>
      <trkpt lat="43.33951212465763" lon="-6.519168354570866">
        <ele>599.8</ele>
        <time>2017-08-05T07:56:27.000Z</time>
      </trkpt>
      <trkpt lat="43.33956493064761" lon="-6.519270613789558">
        <ele>601.2</ele>
        <time>2017-08-05T07:56:35.000Z</time>
      </trkpt>
      <trkpt lat="43.339589992538095" lon="-6.51936549693346">
        <ele>602</ele>
        <time>2017-08-05T07:56:42.000Z</time>
      </trkpt>
      <trkpt lat="43.339597787708044" lon="-6.519392654299736">
        <ele>602.4</ele>
        <time>2017-08-05T07:56:44.000Z</time>
      </trkpt>
      <trkpt lat="43.3395982068032" lon="-6.519404137507081">
        <ele>602.4</ele>
        <time>2017-08-05T07:56:45.000Z</time>
      </trkpt>
      <trkpt lat="43.33960231393576" lon="-6.519420649856329">
        <ele>602.6</ele>
        <time>2017-08-05T07:56:50.000Z</time>
      </trkpt>
      <trkpt lat="43.33960139192641" lon="-6.51949692517519">
        <ele>603.2</ele>
        <time>2017-08-05T07:57:25.000Z</time>
      </trkpt>
      <trkpt lat="43.33952226676047" lon="-6.519628018140793">
        <ele>604.4</ele>
        <time>2017-08-05T07:57:35.000Z</time>
      </trkpt>
      <trkpt lat="43.3394618332386" lon="-6.5197208896279335">
        <ele>605.2</ele>
        <time>2017-08-05T07:57:43.000Z</time>
      </trkpt>
      <trkpt lat="43.33940936252475" lon="-6.519810492172837">
        <ele>606.2</ele>
        <time>2017-08-05T07:57:51.000Z</time>
      </trkpt>
      <trkpt lat="43.339375499635935" lon="-6.519855000078678">
        <ele>606.6</ele>
        <time>2017-08-05T07:57:54.000Z</time>
      </trkpt>
      <trkpt lat="43.33929553627968" lon="-6.51999045163393">
        <ele>608</ele>
        <time>2017-08-05T07:58:04.000Z</time>
      </trkpt>
      <trkpt lat="43.33921071141958" lon="-6.520129926502705">
        <ele>609.4</ele>
        <time>2017-08-05T07:58:15.000Z</time>
      </trkpt>
      <trkpt lat="43.33912102505565" lon="-6.520275017246604">
        <ele>610.8</ele>
        <time>2017-08-05T07:58:26.000Z</time>
      </trkpt>
      <trkpt lat="43.3390836417675" lon="-6.520322374999523">
        <ele>611.2</ele>
        <time>2017-08-05T07:58:30.000Z</time>
      </trkpt>
      <trkpt lat="43.3390683028847" lon="-6.520342659205198">
        <ele>611.4</ele>
        <time>2017-08-05T07:58:32.000Z</time>
      </trkpt>
      <trkpt lat="43.33905975334346" lon="-6.520357495173812">
        <ele>611.6</ele>
        <time>2017-08-05T07:58:33.000Z</time>
      </trkpt>
      <trkpt lat="43.338972916826606" lon="-6.520487917587161">
        <ele>612.6</ele>
        <time>2017-08-05T07:58:43.000Z</time>
      </trkpt>
      <trkpt lat="43.338886834681034" lon="-6.520628733560443">
        <ele>613.4</ele>
        <time>2017-08-05T07:58:54.000Z</time>
      </trkpt>
      <trkpt lat="43.33878977224231" lon="-6.5207616705447435">
        <ele>613.6</ele>
        <time>2017-08-05T07:59:05.000Z</time>
      </trkpt>
      <trkpt lat="43.33870637230575" lon="-6.520844902843237">
        <ele>613.6</ele>
        <time>2017-08-05T07:59:13.000Z</time>
      </trkpt>
      <trkpt lat="43.33858072757721" lon="-6.520969793200493">
        <ele>613</ele>
        <time>2017-08-05T07:59:25.000Z</time>
      </trkpt>
      <trkpt lat="43.33847193047404" lon="-6.521076075732708">
        <ele>613.4</ele>
        <time>2017-08-05T07:59:35.000Z</time>
      </trkpt>
      <trkpt lat="43.33834771066904" lon="-6.521166181191802">
        <ele>614</ele>
        <time>2017-08-05T07:59:46.000Z</time>
      </trkpt>
      <trkpt lat="43.338230699300766" lon="-6.521244049072266">
        <ele>615</ele>
        <time>2017-08-05T07:59:56.000Z</time>
      </trkpt>
      <trkpt lat="43.338122656568885" lon="-6.521314959973097">
        <ele>616.6</ele>
        <time>2017-08-05T08:00:05.000Z</time>
      </trkpt>
      <trkpt lat="43.337997598573565" lon="-6.521406322717667">
        <ele>618.2</ele>
        <time>2017-08-05T08:00:16.000Z</time>
      </trkpt>
      <trkpt lat="43.33786684088409" lon="-6.521496595814824">
        <ele>619.4</ele>
        <time>2017-08-05T08:00:27.000Z</time>
      </trkpt>
      <trkpt lat="43.33773205988109" lon="-6.521614193916321">
        <ele>620.8</ele>
        <time>2017-08-05T08:00:39.000Z</time>
      </trkpt>
      <trkpt lat="43.33771890029311" lon="-6.521622994914651">
        <ele>620.8</ele>
        <time>2017-08-05T08:00:40.000Z</time>
      </trkpt>
      <trkpt lat="43.33760649897158" lon="-6.521741850301623">
        <ele>621</ele>
        <time>2017-08-05T08:00:50.000Z</time>
      </trkpt>
      <trkpt lat="43.337479680776596" lon="-6.521893059834838">
        <ele>620.4</ele>
        <time>2017-08-05T08:01:02.000Z</time>
      </trkpt>
      <trkpt lat="43.33734196610749" lon="-6.522054662927985">
        <ele>618.8</ele>
        <time>2017-08-05T08:01:15.000Z</time>
      </trkpt>
      <trkpt lat="43.33733132109046" lon="-6.522066481411457">
        <ele>618.8</ele>
        <time>2017-08-05T08:01:16.000Z</time>
      </trkpt>
      <trkpt lat="43.33720391616225" lon="-6.522222552448511">
        <ele>617.2</ele>
        <time>2017-08-05T08:01:28.000Z</time>
      </trkpt>
      <trkpt lat="43.33710945211351" lon="-6.522350963205099">
        <ele>616.6</ele>
        <time>2017-08-05T08:01:37.000Z</time>
      </trkpt>
      <trkpt lat="43.337021358311176" lon="-6.522499239072204">
        <ele>616.2</ele>
        <time>2017-08-05T08:01:47.000Z</time>
      </trkpt>
      <trkpt lat="43.336925050243735" lon="-6.522671319544315">
        <ele>615.6</ele>
        <time>2017-08-05T08:01:58.000Z</time>
      </trkpt>
      <trkpt lat="43.33681273274124" lon="-6.52287189848721">
        <ele>616</ele>
        <time>2017-08-05T08:02:11.000Z</time>
      </trkpt>
      <trkpt lat="43.336795968934894" lon="-6.5229039173573256">
        <ele>616</ele>
        <time>2017-08-05T08:02:13.000Z</time>
      </trkpt>
      <trkpt lat="43.3367008343339" lon="-6.523090833798051">
        <ele>616.4</ele>
        <time>2017-08-05T08:02:25.000Z</time>
      </trkpt>
      <trkpt lat="43.33665322512388" lon="-6.523253358900547">
        <ele>616.8</ele>
        <time>2017-08-05T08:02:34.000Z</time>
      </trkpt>
      <trkpt lat="43.336636293679476" lon="-6.523439772427082">
        <ele>616.4</ele>
        <time>2017-08-05T08:02:44.000Z</time>
      </trkpt>
      <trkpt lat="43.33664182573557" lon="-6.523609422147274">
        <ele>615.6</ele>
        <time>2017-08-05T08:02:54.000Z</time>
      </trkpt>
      <trkpt lat="43.336641574278474" lon="-6.523789297789335">
        <ele>614.2</ele>
        <time>2017-08-05T08:03:04.000Z</time>
      </trkpt>
      <trkpt lat="43.336644507944584" lon="-6.523925922811031">
        <ele>613</ele>
        <time>2017-08-05T08:03:11.000Z</time>
      </trkpt>
      <trkpt lat="43.33664081990719" lon="-6.523988451808691">
        <ele>612.6</ele>
        <time>2017-08-05T08:03:14.000Z</time>
      </trkpt>
      <trkpt lat="43.33663168363273" lon="-6.524125076830387">
        <ele>611.2</ele>
        <time>2017-08-05T08:03:21.000Z</time>
      </trkpt>
      <trkpt lat="43.33660561591387" lon="-6.524346610531211">
        <ele>609.2</ele>
        <time>2017-08-05T08:03:33.000Z</time>
      </trkpt>
      <trkpt lat="43.336566807702184" lon="-6.524518607184291">
        <ele>608.2</ele>
        <time>2017-08-05T08:03:43.000Z</time>
      </trkpt>
      <trkpt lat="43.33653084933758" lon="-6.524631176143885">
        <ele>608</ele>
        <time>2017-08-05T08:03:50.000Z</time>
      </trkpt>
      <trkpt lat="43.33649774082005" lon="-6.524781882762909">
        <ele>607.6</ele>
        <time>2017-08-05T08:03:59.000Z</time>
      </trkpt>
      <trkpt lat="43.33645457401872" lon="-6.524924375116825">
        <ele>606.8</ele>
        <time>2017-08-05T08:04:08.000Z</time>
      </trkpt>
      <trkpt lat="43.33642875775695" lon="-6.524978019297123">
        <ele>606.8</ele>
        <time>2017-08-05T08:04:15.000Z</time>
      </trkpt>
      <trkpt lat="43.33643479272723" lon="-6.524969218298793">
        <ele>606.8</ele>
        <time>2017-08-05T08:04:24.000Z</time>
      </trkpt>
      <trkpt lat="43.33644359372556" lon="-6.5249743312597275">
        <ele>606.8</ele>
        <time>2017-08-05T08:04:25.000Z</time>
      </trkpt>
      <trkpt lat="43.33629255183041" lon="-6.5249187592417">
        <ele>607.8</ele>
        <time>2017-08-05T08:04:44.000Z</time>
      </trkpt>
      <trkpt lat="43.33628894761205" lon="-6.524914987385273">
        <ele>607.8</ele>
        <time>2017-08-05T08:04:46.000Z</time>
      </trkpt>
      <trkpt lat="43.33635415881872" lon="-6.524912556633353">
        <ele>607.6</ele>
        <time>2017-08-05T08:04:48.000Z</time>
      </trkpt>
      <trkpt lat="43.336356338113546" lon="-6.524925213307142">
        <ele>607.4</ele>
        <time>2017-08-05T08:04:49.000Z</time>
      </trkpt>
      <trkpt lat="43.33647133782506" lon="-6.524985730648041">
        <ele>606.6</ele>
        <time>2017-08-05T08:05:02.000Z</time>
      </trkpt>
      <trkpt lat="43.33649740554392" lon="-6.525016995146871">
        <ele>606.4</ele>
        <time>2017-08-05T08:05:06.000Z</time>
      </trkpt>
      <trkpt lat="43.336613243445754" lon="-6.524889590218663">
        <ele>606.4</ele>
        <time>2017-08-05T08:05:46.000Z</time>
      </trkpt>
      <trkpt lat="43.336624978110194" lon="-6.524867042899132">
        <ele>606.4</ele>
        <time>2017-08-05T08:05:47.000Z</time>
      </trkpt>
      <trkpt lat="43.33670150488615" lon="-6.52486109174788">
        <ele>605</ele>
        <time>2017-08-05T08:05:49.000Z</time>
      </trkpt>
      <trkpt lat="43.3367402292788" lon="-6.524836868047714">
        <ele>604.4</ele>
        <time>2017-08-05T08:05:52.000Z</time>
      </trkpt>
      <trkpt lat="43.336731595918536" lon="-6.524841645732522">
        <ele>604.6</ele>
        <time>2017-08-05T08:05:53.000Z</time>
      </trkpt>
      <trkpt lat="43.3366818074137" lon="-6.524855811148882">
        <ele>605.4</ele>
        <time>2017-08-05T08:05:55.000Z</time>
      </trkpt>
      <trkpt lat="43.33664668723941" lon="-6.524857571348548">
        <ele>606</ele>
        <time>2017-08-05T08:05:56.000Z</time>
      </trkpt>
      <trkpt lat="43.33651442080736" lon="-6.524862935766578">
        <ele>607</ele>
        <time>2017-08-05T08:06:00.000Z</time>
      </trkpt>
      <trkpt lat="43.3364397380501" lon="-6.524887662380934">
        <ele>607.2</ele>
        <time>2017-08-05T08:06:03.000Z</time>
      </trkpt>
      <trkpt lat="43.33644283935428" lon="-6.524915490299463">
        <ele>607</ele>
        <time>2017-08-05T08:06:10.000Z</time>
      </trkpt>
      <trkpt lat="43.336447114124894" lon="-6.5249089524149895">
        <ele>607</ele>
        <time>2017-08-05T08:06:21.000Z</time>
      </trkpt>
      <trkpt lat="43.33645415492356" lon="-6.524893781170249">
        <ele>607</ele>
        <time>2017-08-05T08:06:22.000Z</time>
      </trkpt>
      <trkpt lat="43.336441749706864" lon="-6.524872155860066">
        <ele>607.2</ele>
        <time>2017-08-05T08:06:27.000Z</time>
      </trkpt>
      <trkpt lat="43.33649673499167" lon="-6.524906437844038">
        <ele>606.8</ele>
        <time>2017-08-05T08:06:33.000Z</time>
      </trkpt>
      <trkpt lat="43.33652657456696" lon="-6.524908868595958">
        <ele>606.6</ele>
        <time>2017-08-05T08:06:42.000Z</time>
      </trkpt>
      <trkpt lat="43.33646790124476" lon="-6.524934601038694">
        <ele>606.8</ele>
        <time>2017-08-05T08:06:47.000Z</time>
      </trkpt>
      <trkpt lat="43.33644443191588" lon="-6.524920100346208">
        <ele>607</ele>
        <time>2017-08-05T08:06:54.000Z</time>
      </trkpt>
      <trkpt lat="43.33650754764676" lon="-6.524908868595958">
        <ele>606.8</ele>
        <time>2017-08-05T08:07:00.000Z</time>
      </trkpt>
      <trkpt lat="43.336530178785324" lon="-6.524885902181268">
        <ele>606.8</ele>
        <time>2017-08-05T08:07:04.000Z</time>
      </trkpt>
      <trkpt lat="43.33648843690753" lon="-6.524931667372584">
        <ele>606.8</ele>
        <time>2017-08-05T08:07:16.000Z</time>
      </trkpt>
      <trkpt lat="43.336453065276146" lon="-6.5249451622366905">
        <ele>606.8</ele>
        <time>2017-08-05T08:07:18.000Z</time>
      </trkpt>
      <trkpt lat="43.33640059456229" lon="-6.524935942143202">
        <ele>607</ele>
        <time>2017-08-05T08:07:21.000Z</time>
      </trkpt>
      <trkpt lat="43.33637838251889" lon="-6.524917082861066">
        <ele>607.4</ele>
        <time>2017-08-05T08:07:23.000Z</time>
      </trkpt>
      <trkpt lat="43.33639799617231" lon="-6.524927895516157">
        <ele>607.2</ele>
        <time>2017-08-05T08:07:28.000Z</time>
      </trkpt>
      <trkpt lat="43.336402187123895" lon="-6.524923201650381">
        <ele>607.2</ele>
        <time>2017-08-05T08:07:33.000Z</time>
      </trkpt>
      <trkpt lat="43.33643278107047" lon="-6.52492462657392">
        <ele>607</ele>
        <time>2017-08-05T08:07:40.000Z</time>
      </trkpt>
      <trkpt lat="43.33646094426513" lon="-6.524923034012318">
        <ele>606.8</ele>
        <time>2017-08-05T08:07:43.000Z</time>
      </trkpt>
      <trkpt lat="43.33651006221771" lon="-6.5249124728143215">
        <ele>606.8</ele>
        <time>2017-08-05T08:07:49.000Z</time>
      </trkpt>
      <trkpt lat="43.33651710301638" lon="-6.524875843897462">
        <ele>606.8</ele>
        <time>2017-08-05T08:07:55.000Z</time>
      </trkpt>
      <trkpt lat="43.33654476329684" lon="-6.524911550804973">
        <ele>606.6</ele>
        <time>2017-08-05T08:08:03.000Z</time>
      </trkpt>
      <trkpt lat="43.33655289374292" lon="-6.5249204356223345">
        <ele>606.6</ele>
        <time>2017-08-05T08:08:04.000Z</time>
      </trkpt>
      <trkpt lat="43.33656161092222" lon="-6.524928482249379">
        <ele>606.4</ele>
        <time>2017-08-05T08:08:07.000Z</time>
      </trkpt>
      <trkpt lat="43.33655934780836" lon="-6.524917418137193">
        <ele>606.6</ele>
        <time>2017-08-05T08:08:11.000Z</time>
      </trkpt>
      <trkpt lat="43.33650645799935" lon="-6.52493049390614">
        <ele>606.6</ele>
        <time>2017-08-05T08:08:25.000Z</time>
      </trkpt>
      <trkpt lat="43.33657233975828" lon="-6.524913897737861">
        <ele>606.6</ele>
        <time>2017-08-05T08:08:33.000Z</time>
      </trkpt>
      <trkpt lat="43.336592791602015" lon="-6.524910628795624">
        <ele>606.4</ele>
        <time>2017-08-05T08:08:34.000Z</time>
      </trkpt>
      <trkpt lat="43.33661198616028" lon="-6.524894954636693">
        <ele>606.4</ele>
        <time>2017-08-05T08:08:37.000Z</time>
      </trkpt>
      <trkpt lat="43.33661215379834" lon="-6.524876514449716">
        <ele>606.6</ele>
        <time>2017-08-05T08:08:38.000Z</time>
      </trkpt>
      <trkpt lat="43.33660092204809" lon="-6.524868635460734">
        <ele>606.6</ele>
        <time>2017-08-05T08:08:41.000Z</time>
      </trkpt>
      <trkpt lat="43.33656177856028" lon="-6.524868048727512">
        <ele>606.8</ele>
        <time>2017-08-05T08:08:43.000Z</time>
      </trkpt>
      <trkpt lat="43.336531687527895" lon="-6.524895206093788">
        <ele>606.8</ele>
        <time>2017-08-05T08:08:46.000Z</time>
      </trkpt>
      <trkpt lat="43.33650117740035" lon="-6.524942731484771">
        <ele>606.6</ele>
        <time>2017-08-05T08:09:01.000Z</time>
      </trkpt>
      <trkpt lat="43.336427081376314" lon="-6.524949185550213">
        <ele>607</ele>
        <time>2017-08-05T08:09:07.000Z</time>
      </trkpt>
      <trkpt lat="43.33639464341104" lon="-6.524961339309812">
        <ele>607</ele>
        <time>2017-08-05T08:09:11.000Z</time>
      </trkpt>
      <trkpt lat="43.336374359205365" lon="-6.524947844445705">
        <ele>607.2</ele>
        <time>2017-08-05T08:09:16.000Z</time>
      </trkpt>
      <trkpt lat="43.336379220709205" lon="-6.524922447279096">
        <ele>607.4</ele>
        <time>2017-08-05T08:09:20.000Z</time>
      </trkpt>
      <trkpt lat="43.33643680438399" lon="-6.524938708171248">
        <ele>607</ele>
        <time>2017-08-05T08:09:23.000Z</time>
      </trkpt>
      <trkpt lat="43.33690711297095" lon="-6.524915490299463">
        <ele>601.8</ele>
        <time>2017-08-05T08:09:51.000Z</time>
      </trkpt>
      <trkpt lat="43.33651760593057" lon="-6.524940216913819">
        <ele>606.6</ele>
        <time>2017-08-05T08:09:54.000Z</time>
      </trkpt>
      <trkpt lat="43.33644258789718" lon="-6.524919513612986">
        <ele>607</ele>
        <time>2017-08-05T08:09:57.000Z</time>
      </trkpt>
      <trkpt lat="43.33645826205611" lon="-6.524920184165239">
        <ele>606.8</ele>
        <time>2017-08-05T08:09:58.000Z</time>
      </trkpt>
      <trkpt lat="43.33639020100236" lon="-6.524941809475422">
        <ele>607.2</ele>
        <time>2017-08-05T08:10:03.000Z</time>
      </trkpt>
      <trkpt lat="43.33638207055628" lon="-6.524920603260398">
        <ele>607.4</ele>
        <time>2017-08-05T08:10:07.000Z</time>
      </trkpt>
      <trkpt lat="43.3364294283092" lon="-6.524937702342868">
        <ele>607</ele>
        <time>2017-08-05T08:10:10.000Z</time>
      </trkpt>
      <trkpt lat="43.336439318954945" lon="-6.524921776726842">
        <ele>607</ele>
        <time>2017-08-05T08:10:13.000Z</time>
      </trkpt>
      <trkpt lat="43.336418867111206" lon="-6.5249186754226685">
        <ele>607</ele>
        <time>2017-08-05T08:10:14.000Z</time>
      </trkpt>
      <trkpt lat="43.336384668946266" lon="-6.524909622967243">
        <ele>607.4</ele>
        <time>2017-08-05T08:10:15.000Z</time>
      </trkpt>
      <trkpt lat="43.33632146939635" lon="-6.524890763685107">
        <ele>608</ele>
        <time>2017-08-05T08:10:17.000Z</time>
      </trkpt>
      <trkpt lat="43.33615425042808" lon="-6.524848099797964">
        <ele>608.6</ele>
        <time>2017-08-05T08:10:22.000Z</time>
      </trkpt>
      <trkpt lat="43.33616338670254" lon="-6.524786660447717">
        <ele>608.8</ele>
        <time>2017-08-05T08:10:27.000Z</time>
      </trkpt>
      <trkpt lat="43.3361878618598" lon="-6.524810381233692">
        <ele>608.8</ele>
        <time>2017-08-05T08:10:30.000Z</time>
      </trkpt>
      <trkpt lat="43.33628383465111" lon="-6.524867042899132">
        <ele>608.2</ele>
        <time>2017-08-05T08:10:33.000Z</time>
      </trkpt>
      <trkpt lat="43.33629188127816" lon="-6.524907611310482">
        <ele>608</ele>
        <time>2017-08-05T08:10:36.000Z</time>
      </trkpt>
      <trkpt lat="43.336270758882165" lon="-6.524901827797294">
        <ele>608</ele>
        <time>2017-08-05T08:10:39.000Z</time>
      </trkpt>
      <trkpt lat="43.33627553656697" lon="-6.524872994050384">
        <ele>608.2</ele>
        <time>2017-08-05T08:10:42.000Z</time>
      </trkpt>
      <trkpt lat="43.33630369976163" lon="-6.524860672652721">
        <ele>608.2</ele>
        <time>2017-08-05T08:10:43.000Z</time>
      </trkpt>
      <trkpt lat="43.33636857569218" lon="-6.524830246344209">
        <ele>608</ele>
        <time>2017-08-05T08:10:48.000Z</time>
      </trkpt>
      <trkpt lat="43.336429512128234" lon="-6.524826642125845">
        <ele>607.6</ele>
        <time>2017-08-05T08:10:56.000Z</time>
      </trkpt>
      <trkpt lat="43.336477959528565" lon="-6.524847345426679">
        <ele>607.2</ele>
        <time>2017-08-05T08:11:00.000Z</time>
      </trkpt>
      <trkpt lat="43.33651006221771" lon="-6.524868719279766">
        <ele>606.8</ele>
        <time>2017-08-05T08:11:04.000Z</time>
      </trkpt>
      <trkpt lat="43.33641283214092" lon="-6.5249737445265055">
        <ele>606.8</ele>
        <time>2017-08-05T08:11:10.000Z</time>
      </trkpt>
      <trkpt lat="43.33641417324543" lon="-6.5250105410814285">
        <ele>606.8</ele>
        <time>2017-08-05T08:11:13.000Z</time>
      </trkpt>
      <trkpt lat="43.336431942880154" lon="-6.5250185038894415">
        <ele>606.6</ele>
        <time>2017-08-05T08:11:18.000Z</time>
      </trkpt>
      <trkpt lat="43.336480809375644" lon="-6.524938121438026">
        <ele>606.8</ele>
        <time>2017-08-05T08:11:26.000Z</time>
      </trkpt>
      <trkpt lat="43.336520958691835" lon="-6.524914484471083">
        <ele>606.6</ele>
        <time>2017-08-05T08:11:29.000Z</time>
      </trkpt>
      <trkpt lat="43.33653428591788" lon="-6.5249118860810995">
        <ele>606.6</ele>
        <time>2017-08-05T08:11:30.000Z</time>
      </trkpt>
      <trkpt lat="43.33652372471988" lon="-6.524919681251049">
        <ele>606.6</ele>
        <time>2017-08-05T08:11:35.000Z</time>
      </trkpt>
      <trkpt lat="43.33651467226446" lon="-6.524974247440696">
        <ele>606.6</ele>
        <time>2017-08-05T08:11:42.000Z</time>
      </trkpt>
      <trkpt lat="43.33651333115995" lon="-6.525055384263396">
        <ele>606.4</ele>
        <time>2017-08-05T08:11:46.000Z</time>
      </trkpt>
      <trkpt lat="43.33650151267648" lon="-6.525065442547202">
        <ele>606.4</ele>
        <time>2017-08-05T08:11:52.000Z</time>
      </trkpt>
      <trkpt lat="43.33649246022105" lon="-6.525038788095117">
        <ele>606.4</ele>
        <time>2017-08-05T08:11:58.000Z</time>
      </trkpt>
      <trkpt lat="43.33648743107915" lon="-6.525038201361895">
        <ele>606.4</ele>
        <time>2017-08-05T08:11:59.000Z</time>
      </trkpt>
      <trkpt lat="43.336474522948265" lon="-6.525017581880093">
        <ele>606.6</ele>
        <time>2017-08-05T08:12:07.000Z</time>
      </trkpt>
      <trkpt lat="43.33651039749384" lon="-6.525006601586938">
        <ele>606.4</ele>
        <time>2017-08-05T08:12:12.000Z</time>
      </trkpt>
      <trkpt lat="43.33649924956262" lon="-6.525012468919158">
        <ele>606.4</ele>
        <time>2017-08-05T08:12:16.000Z</time>
      </trkpt>
      <trkpt lat="43.336517941206694" lon="-6.524985982105136">
        <ele>606.4</ele>
        <time>2017-08-05T08:12:47.000Z</time>
      </trkpt>
      <trkpt lat="43.33648541942239" lon="-6.524968883022666">
        <ele>606.6</ele>
        <time>2017-08-05T08:12:51.000Z</time>
      </trkpt>
      <trkpt lat="43.33661735057831" lon="-6.524931248277426">
        <ele>606.2</ele>
        <time>2017-08-05T08:13:01.000Z</time>
      </trkpt>
      <trkpt lat="43.33663067780435" lon="-6.524932002648711">
        <ele>606.2</ele>
        <time>2017-08-05T08:13:02.000Z</time>
      </trkpt>
      <trkpt lat="43.336525820195675" lon="-6.524971481412649">
        <ele>606.4</ele>
        <time>2017-08-05T08:13:06.000Z</time>
      </trkpt>
      <trkpt lat="43.336445186287165" lon="-6.524988496676087">
        <ele>606.8</ele>
        <time>2017-08-05T08:13:09.000Z</time>
      </trkpt>
      <trkpt lat="43.336389446631074" lon="-6.525012385100126">
        <ele>606.8</ele>
        <time>2017-08-05T08:13:12.000Z</time>
      </trkpt>
      <trkpt lat="43.336375365033746" lon="-6.52496762573719">
        <ele>607</ele>
        <time>2017-08-05T08:13:17.000Z</time>
      </trkpt>
      <trkpt lat="43.336400678381324" lon="-6.524960584938526">
        <ele>607</ele>
        <time>2017-08-05T08:13:19.000Z</time>
      </trkpt>
      <trkpt lat="43.33635667338967" lon="-6.52496175840497">
        <ele>607.2</ele>
        <time>2017-08-05T08:13:22.000Z</time>
      </trkpt>
      <trkpt lat="43.33635021932423" lon="-6.524966200813651">
        <ele>607.2</ele>
        <time>2017-08-05T08:13:23.000Z</time>
      </trkpt>
      <trkpt lat="43.33634762093425" lon="-6.52497005648911">
        <ele>607.2</ele>
        <time>2017-08-05T08:13:29.000Z</time>
      </trkpt>
      <trkpt lat="43.336357260122895" lon="-6.5249887481331825">
        <ele>607</ele>
        <time>2017-08-05T08:13:33.000Z</time>
      </trkpt>
      <trkpt lat="43.33639564923942" lon="-6.524983132258058">
        <ele>606.8</ele>
        <time>2017-08-05T08:13:36.000Z</time>
      </trkpt>
      <trkpt lat="43.33643822930753" lon="-6.5249616745859385">
        <ele>606.8</ele>
        <time>2017-08-05T08:13:39.000Z</time>
      </trkpt>
      <trkpt lat="43.336462285369635" lon="-6.5249519515782595">
        <ele>606.8</ele>
        <time>2017-08-05T08:13:42.000Z</time>
      </trkpt>
      <trkpt lat="43.336455412209034" lon="-6.524955555796623">
        <ele>606.8</ele>
        <time>2017-08-05T08:13:43.000Z</time>
      </trkpt>
      <trkpt lat="43.336443761363626" lon="-6.524924458935857">
        <ele>607</ele>
        <time>2017-08-05T08:13:46.000Z</time>
      </trkpt>
      <trkpt lat="43.33644350990653" lon="-6.524907276034355">
        <ele>607</ele>
        <time>2017-08-05T08:13:47.000Z</time>
      </trkpt>
      <trkpt lat="43.33644510246813" lon="-6.524897050112486">
        <ele>607</ele>
        <time>2017-08-05T08:13:50.000Z</time>
      </trkpt>
      <trkpt lat="43.33644485101104" lon="-6.52491339482367">
        <ele>607</ele>
        <time>2017-08-05T08:13:53.000Z</time>
      </trkpt>
      <trkpt lat="43.33646697923541" lon="-6.524911550804973">
        <ele>606.8</ele>
        <time>2017-08-05T08:13:58.000Z</time>
      </trkpt>
      <trkpt lat="43.33647930063307" lon="-6.524915909394622">
        <ele>606.8</ele>
        <time>2017-08-05T08:13:59.000Z</time>
      </trkpt>
      <trkpt lat="43.336529675871134" lon="-6.524923536926508">
        <ele>606.6</ele>
        <time>2017-08-05T08:14:04.000Z</time>
      </trkpt>
      <trkpt lat="43.33663109689951" lon="-6.524906773120165">
        <ele>606.2</ele>
        <time>2017-08-05T08:14:09.000Z</time>
      </trkpt>
      <trkpt lat="43.33671944215894" lon="-6.524923117831349">
        <ele>604.6</ele>
        <time>2017-08-05T08:14:14.000Z</time>
      </trkpt>
      <trkpt lat="43.33667619153857" lon="-6.524940552189946">
        <ele>605.2</ele>
        <time>2017-08-05T08:14:19.000Z</time>
      </trkpt>
      <trkpt lat="43.33665020763874" lon="-6.524938708171248">
        <ele>605.8</ele>
        <time>2017-08-05T08:14:20.000Z</time>
      </trkpt>
      <trkpt lat="43.336581056937575" lon="-6.524949604645371">
        <ele>606.4</ele>
        <time>2017-08-05T08:14:22.000Z</time>
      </trkpt>
      <trkpt lat="43.33640344440937" lon="-6.5250196773558855">
        <ele>606.8</ele>
        <time>2017-08-05T08:14:29.000Z</time>
      </trkpt>
      <trkpt lat="43.33637595176697" lon="-6.525008697062731">
        <ele>606.8</ele>
        <time>2017-08-05T08:14:30.000Z</time>
      </trkpt>
      <trkpt lat="43.336339155212045" lon="-6.525001069530845">
        <ele>607</ele>
        <time>2017-08-05T08:14:33.000Z</time>
      </trkpt>
      <trkpt lat="43.33635851740837" lon="-6.525012217462063">
        <ele>607</ele>
        <time>2017-08-05T08:14:37.000Z</time>
      </trkpt>
      <trkpt lat="43.33637067116797" lon="-6.524999812245369">
        <ele>607</ele>
        <time>2017-08-05T08:14:41.000Z</time>
      </trkpt>
      <trkpt lat="43.33643219433725" lon="-6.525001153349876">
        <ele>606.8</ele>
        <time>2017-08-05T08:14:50.000Z</time>
      </trkpt>
      <trkpt lat="43.33647418767214" lon="-6.5250099543482065">
        <ele>606.6</ele>
        <time>2017-08-05T08:14:53.000Z</time>
      </trkpt>
      <trkpt lat="43.33645918406546" lon="-6.525012636557221">
        <ele>606.6</ele>
        <time>2017-08-05T08:14:58.000Z</time>
      </trkpt>
      <trkpt lat="43.33646731451154" lon="-6.525002494454384">
        <ele>606.6</ele>
        <time>2017-08-05T08:15:03.000Z</time>
      </trkpt>
      <trkpt lat="43.336490113288164" lon="-6.524950610473752">
        <ele>606.6</ele>
        <time>2017-08-05T08:15:09.000Z</time>
      </trkpt>
      <trkpt lat="43.33647955209017" lon="-6.524930996820331">
        <ele>606.8</ele>
        <time>2017-08-05T08:15:15.000Z</time>
      </trkpt>
      <trkpt lat="43.33667610771954" lon="-6.525068795308471">
        <ele>605.2</ele>
        <time>2017-08-05T08:42:03.000Z</time>
      </trkpt>
      <trkpt lat="43.33666906692088" lon="-6.525064939633012">
        <ele>605.4</ele>
        <time>2017-08-05T08:42:10.000Z</time>
      </trkpt>
      <trkpt lat="43.33662481047213" lon="-6.525078602135181">
        <ele>606</ele>
        <time>2017-08-05T08:42:20.000Z</time>
      </trkpt>
      <trkpt lat="43.336604023352265" lon="-6.525121685117483">
        <ele>606</ele>
        <time>2017-08-05T08:42:23.000Z</time>
      </trkpt>
      <trkpt lat="43.33653344772756" lon="-6.525181280449033">
        <ele>606.4</ele>
        <time>2017-08-05T08:42:27.000Z</time>
      </trkpt>
      <trkpt lat="43.3365089725703" lon="-6.525215981528163">
        <ele>606.4</ele>
        <time>2017-08-05T08:42:29.000Z</time>
      </trkpt>
      <trkpt lat="43.33649195730686" lon="-6.525253867730498">
        <ele>606.4</ele>
        <time>2017-08-05T08:42:31.000Z</time>
      </trkpt>
      <trkpt lat="43.33647024817765" lon="-6.525351852178574">
        <ele>606.4</ele>
        <time>2017-08-05T08:42:36.000Z</time>
      </trkpt>
      <trkpt lat="43.336476450785995" lon="-6.525494931265712">
        <ele>605.8</ele>
        <time>2017-08-05T08:42:44.000Z</time>
      </trkpt>
      <trkpt lat="43.336524898186326" lon="-6.525605572387576">
        <ele>605.2</ele>
        <time>2017-08-05T08:42:51.000Z</time>
      </trkpt>
      <trkpt lat="43.33658616989851" lon="-6.525714537128806">
        <ele>604.6</ele>
        <time>2017-08-05T08:42:59.000Z</time>
      </trkpt>
      <trkpt lat="43.336642580106854" lon="-6.5258104261010885">
        <ele>603.8</ele>
        <time>2017-08-05T08:43:06.000Z</time>
      </trkpt>
      <trkpt lat="43.336703265085816" lon="-6.525937998667359">
        <ele>603</ele>
        <time>2017-08-05T08:43:15.000Z</time>
      </trkpt>
      <trkpt lat="43.33674785681069" lon="-6.526052746921778">
        <ele>602.4</ele>
        <time>2017-08-05T08:43:22.000Z</time>
      </trkpt>
      <trkpt lat="43.33674928173423" lon="-6.526064146310091">
        <ele>602.2</ele>
        <time>2017-08-05T08:43:23.000Z</time>
      </trkpt>
      <trkpt lat="43.336794041097164" lon="-6.526162214577198">
        <ele>601.6</ele>
        <time>2017-08-05T08:43:29.000Z</time>
      </trkpt>
      <trkpt lat="43.33684475161135" lon="-6.526260701939464">
        <ele>600.8</ele>
        <time>2017-08-05T08:43:35.000Z</time>
      </trkpt>
      <trkpt lat="43.33688959479332" lon="-6.526344520971179">
        <ele>600.2</ele>
        <time>2017-08-05T08:43:40.000Z</time>
      </trkpt>
      <trkpt lat="43.33691406995058" lon="-6.526396237313747">
        <ele>600</ele>
        <time>2017-08-05T08:43:43.000Z</time>
      </trkpt>
      <trkpt lat="43.33699378184974" lon="-6.526547027751803">
        <ele>598.6</ele>
        <time>2017-08-05T08:43:52.000Z</time>
      </trkpt>
      <trkpt lat="43.337096963077784" lon="-6.526744170114398">
        <ele>597.4</ele>
        <time>2017-08-05T08:44:04.000Z</time>
      </trkpt>
      <trkpt lat="43.33717348985374" lon="-6.526923459023237">
        <ele>596.2</ele>
        <time>2017-08-05T08:44:14.000Z</time>
      </trkpt>
      <trkpt lat="43.337240628898144" lon="-6.52711414732039">
        <ele>594.4</ele>
        <time>2017-08-05T08:44:24.000Z</time>
      </trkpt>
      <trkpt lat="43.33729946985841" lon="-6.527278181165457">
        <ele>593.4</ele>
        <time>2017-08-05T08:44:32.000Z</time>
      </trkpt>
      <trkpt lat="43.33735956810415" lon="-6.527426540851593">
        <ele>592.6</ele>
        <time>2017-08-05T08:44:40.000Z</time>
      </trkpt>
      <trkpt lat="43.337425449863076" lon="-6.527626030147076">
        <ele>592</ele>
        <time>2017-08-05T08:44:50.000Z</time>
      </trkpt>
      <trkpt lat="43.337475741282105" lon="-6.527766427025199">
        <ele>592</ele>
        <time>2017-08-05T08:44:57.000Z</time>
      </trkpt>
      <trkpt lat="43.33754329942167" lon="-6.52798879891634">
        <ele>590.6</ele>
        <time>2017-08-05T08:45:08.000Z</time>
      </trkpt>
      <trkpt lat="43.33758789114654" lon="-6.528218127787113">
        <ele>590</ele>
        <time>2017-08-05T08:45:19.000Z</time>
      </trkpt>
      <trkpt lat="43.33759459666908" lon="-6.528283087536693">
        <ele>590</ele>
        <time>2017-08-05T08:45:22.000Z</time>
      </trkpt>
      <trkpt lat="43.33760968409479" lon="-6.528407810255885">
        <ele>590</ele>
        <time>2017-08-05T08:45:28.000Z</time>
      </trkpt>
      <trkpt lat="43.337621837854385" lon="-6.528621716424823">
        <ele>590</ele>
        <time>2017-08-05T08:45:38.000Z</time>
      </trkpt>
      <trkpt lat="43.33762887865305" lon="-6.528748283162713">
        <ele>589.6</ele>
        <time>2017-08-05T08:45:44.000Z</time>
      </trkpt>
      <trkpt lat="43.33764363080263" lon="-6.528986496850848">
        <ele>589.4</ele>
        <time>2017-08-05T08:45:55.000Z</time>
      </trkpt>
      <trkpt lat="43.33765712566674" lon="-6.5292164124548435">
        <ele>588.8</ele>
        <time>2017-08-05T08:46:06.000Z</time>
      </trkpt>
      <trkpt lat="43.337665339931846" lon="-6.529365610331297">
        <ele>588.4</ele>
        <time>2017-08-05T08:46:13.000Z</time>
      </trkpt>
      <trkpt lat="43.337663328275084" lon="-6.529595023021102">
        <ele>587.4</ele>
        <time>2017-08-05T08:46:24.000Z</time>
      </trkpt>
      <trkpt lat="43.33766106516123" lon="-6.529785208404064">
        <ele>586.8</ele>
        <time>2017-08-05T08:46:34.000Z</time>
      </trkpt>
      <trkpt lat="43.337651090696454" lon="-6.529958629980683">
        <ele>586.2</ele>
        <time>2017-08-05T08:46:43.000Z</time>
      </trkpt>
      <trkpt lat="43.33763860166073" lon="-6.530118556693196">
        <ele>585.2</ele>
        <time>2017-08-05T08:46:51.000Z</time>
      </trkpt>
      <trkpt lat="43.337624687701464" lon="-6.530339838936925">
        <ele>584.4</ele>
        <time>2017-08-05T08:47:02.000Z</time>
      </trkpt>
      <trkpt lat="43.33762661553919" lon="-6.530593056231737">
        <ele>583.6</ele>
        <time>2017-08-05T08:47:14.000Z</time>
      </trkpt>
      <trkpt lat="43.33764438517392" lon="-6.5308138355612755">
        <ele>584</ele>
        <time>2017-08-05T08:47:25.000Z</time>
      </trkpt>
      <trkpt lat="43.337672632187605" lon="-6.531014665961266">
        <ele>584</ele>
        <time>2017-08-05T08:47:35.000Z</time>
      </trkpt>
      <trkpt lat="43.33769668824971" lon="-6.531221950426698">
        <ele>583.6</ele>
        <time>2017-08-05T08:47:45.000Z</time>
      </trkpt>
      <trkpt lat="43.33773482590914" lon="-6.531464522704482">
        <ele>583</ele>
        <time>2017-08-05T08:47:57.000Z</time>
      </trkpt>
      <trkpt lat="43.337765000760555" lon="-6.531649762764573">
        <ele>583</ele>
        <time>2017-08-05T08:48:06.000Z</time>
      </trkpt>
      <trkpt lat="43.337791403755546" lon="-6.531851598992944">
        <ele>582.2</ele>
        <time>2017-08-05T08:48:16.000Z</time>
      </trkpt>
      <trkpt lat="43.33780515007675" lon="-6.5320541895926">
        <ele>582</ele>
        <time>2017-08-05T08:48:26.000Z</time>
      </trkpt>
      <trkpt lat="43.33779249340296" lon="-6.532254014164209">
        <ele>581.8</ele>
        <time>2017-08-05T08:48:36.000Z</time>
      </trkpt>
      <trkpt lat="43.337761564180255" lon="-6.532457107678056">
        <ele>581.8</ele>
        <time>2017-08-05T08:48:46.000Z</time>
      </trkpt>
      <trkpt lat="43.33771605044603" lon="-6.532701188698411">
        <ele>581.8</ele>
        <time>2017-08-05T08:48:58.000Z</time>
      </trkpt>
      <trkpt lat="43.33767338655889" lon="-6.532917777076364">
        <ele>581.4</ele>
        <time>2017-08-05T08:49:09.000Z</time>
      </trkpt>
      <trkpt lat="43.33763424307108" lon="-6.533117350190878">
        <ele>580.6</ele>
        <time>2017-08-05T08:49:19.000Z</time>
      </trkpt>
      <trkpt lat="43.337598368525505" lon="-6.533318515866995">
        <ele>580</ele>
        <time>2017-08-05T08:49:29.000Z</time>
      </trkpt>
      <trkpt lat="43.33756836131215" lon="-6.533481795340776">
        <ele>579.4</ele>
        <time>2017-08-05T08:49:37.000Z</time>
      </trkpt>
      <trkpt lat="43.33753114566207" lon="-6.533666113391519">
        <ele>578.6</ele>
        <time>2017-08-05T08:49:46.000Z</time>
      </trkpt>
      <trkpt lat="43.337497198954225" lon="-6.533826626837254">
        <ele>578.2</ele>
        <time>2017-08-05T08:49:54.000Z</time>
      </trkpt>
      <trkpt lat="43.3374691195786" lon="-6.534000467509031">
        <ele>578</ele>
        <time>2017-08-05T08:50:03.000Z</time>
      </trkpt>
      <trkpt lat="43.33743651397526" lon="-6.534154694527388">
        <ele>578</ele>
        <time>2017-08-05T08:50:12.000Z</time>
      </trkpt>
      <trkpt lat="43.33741530776024" lon="-6.534298527985811">
        <ele>578</ele>
        <time>2017-08-05T08:50:20.000Z</time>
      </trkpt>
      <trkpt lat="43.33738328889012" lon="-6.534476224333048">
        <ele>578</ele>
        <time>2017-08-05T08:50:29.000Z</time>
      </trkpt>
      <trkpt lat="43.33735738880932" lon="-6.534609999507666">
        <ele>578.4</ele>
        <time>2017-08-05T08:50:36.000Z</time>
      </trkpt>
      <trkpt lat="43.33733282983303" lon="-6.534696500748396">
        <ele>578.4</ele>
        <time>2017-08-05T08:50:41.000Z</time>
      </trkpt>
      <trkpt lat="43.33729452453554" lon="-6.534859864041209">
        <ele>578.6</ele>
        <time>2017-08-05T08:50:49.000Z</time>
      </trkpt>
      <trkpt lat="43.33725990727544" lon="-6.5350426733493805">
        <ele>578.8</ele>
        <time>2017-08-05T08:50:58.000Z</time>
      </trkpt>
      <trkpt lat="43.337251441553235" lon="-6.535109980031848">
        <ele>578.8</ele>
        <time>2017-08-05T08:51:02.000Z</time>
      </trkpt>
      <trkpt lat="43.33724305965006" lon="-6.535150967538357">
        <ele>578.8</ele>
        <time>2017-08-05T08:51:04.000Z</time>
      </trkpt>
      <trkpt lat="43.337221685796976" lon="-6.535242414101958">
        <ele>578.8</ele>
        <time>2017-08-05T08:51:09.000Z</time>
      </trkpt>
      <trkpt lat="43.33720659837127" lon="-6.535281725227833">
        <ele>578.8</ele>
        <time>2017-08-05T08:51:11.000Z</time>
      </trkpt>
      <trkpt lat="43.33719486370683" lon="-6.535325814038515">
        <ele>578.8</ele>
        <time>2017-08-05T08:51:13.000Z</time>
      </trkpt>
      <trkpt lat="43.33715798333287" lon="-6.535454308614135">
        <ele>579</ele>
        <time>2017-08-05T08:51:20.000Z</time>
      </trkpt>
      <trkpt lat="43.33715261891484" lon="-6.53546629473567">
        <ele>579</ele>
        <time>2017-08-05T08:51:21.000Z</time>
      </trkpt>
      <trkpt lat="43.337119510397315" lon="-6.53560359030962">
        <ele>579.2</ele>
        <time>2017-08-05T08:51:28.000Z</time>
      </trkpt>
      <trkpt lat="43.337100986391306" lon="-6.535736108198762">
        <ele>579.2</ele>
        <time>2017-08-05T08:51:35.000Z</time>
      </trkpt>
      <trkpt lat="43.33707734942436" lon="-6.53588798828423">
        <ele>579.4</ele>
        <time>2017-08-05T08:51:42.000Z</time>
      </trkpt>
      <trkpt lat="43.337057903409004" lon="-6.536031821742654">
        <ele>579.2</ele>
        <time>2017-08-05T08:51:49.000Z</time>
      </trkpt>
      <trkpt lat="43.33702806383371" lon="-6.536227539181709">
        <ele>579.4</ele>
        <time>2017-08-05T08:51:59.000Z</time>
      </trkpt>
      <trkpt lat="43.3370132278651" lon="-6.53634044341743">
        <ele>579.8</ele>
        <time>2017-08-05T08:52:05.000Z</time>
      </trkpt>
      <trkpt lat="43.337003756314516" lon="-6.536379586905241">
        <ele>579.8</ele>
        <time>2017-08-05T08:52:07.000Z</time>
      </trkpt>
      <trkpt lat="43.336983891204" lon="-6.536508165299892">
        <ele>580</ele>
        <time>2017-08-05T08:52:14.000Z</time>
      </trkpt>
      <trkpt lat="43.33696050569415" lon="-6.536639090627432">
        <ele>580.2</ele>
        <time>2017-08-05T08:52:21.000Z</time>
      </trkpt>
      <trkpt lat="43.33692773245275" lon="-6.536787366494536">
        <ele>581</ele>
        <time>2017-08-05T08:52:31.000Z</time>
      </trkpt>
      <trkpt lat="43.336912393569946" lon="-6.536892810836434">
        <ele>581.6</ele>
        <time>2017-08-05T08:52:37.000Z</time>
      </trkpt>
      <trkpt lat="43.33688523620367" lon="-6.53702013194561">
        <ele>581.8</ele>
        <time>2017-08-05T08:52:44.000Z</time>
      </trkpt>
      <trkpt lat="43.33683921955526" lon="-6.537204533815384">
        <ele>581.6</ele>
        <time>2017-08-05T08:52:54.000Z</time>
      </trkpt>
      <trkpt lat="43.33677710965276" lon="-6.537396898493171">
        <ele>581.8</ele>
        <time>2017-08-05T08:53:05.000Z</time>
      </trkpt>
      <trkpt lat="43.33671709522605" lon="-6.537569900974631">
        <ele>582</ele>
        <time>2017-08-05T08:53:15.000Z</time>
      </trkpt>
      <trkpt lat="43.33664769306779" lon="-6.537758074700832">
        <ele>582.8</ele>
        <time>2017-08-05T08:53:26.000Z</time>
      </trkpt>
      <trkpt lat="43.33659991621971" lon="-6.53789184987545">
        <ele>583.2</ele>
        <time>2017-08-05T08:53:34.000Z</time>
      </trkpt>
      <trkpt lat="43.3365383092314" lon="-6.5380410477519035">
        <ele>583.8</ele>
        <time>2017-08-05T08:53:43.000Z</time>
      </trkpt>
      <trkpt lat="43.33646731451154" lon="-6.538223773241043">
        <ele>584.6</ele>
        <time>2017-08-05T08:53:53.000Z</time>
      </trkpt>
      <trkpt lat="43.33640235476196" lon="-6.538381353020668">
        <ele>585</ele>
        <time>2017-08-05T08:54:02.000Z</time>
      </trkpt>
      <trkpt lat="43.33632733672857" lon="-6.538558546453714">
        <ele>585.4</ele>
        <time>2017-08-05T08:54:12.000Z</time>
      </trkpt>
      <trkpt lat="43.336249720305204" lon="-6.5387525875121355">
        <ele>585.4</ele>
        <time>2017-08-05T08:54:24.000Z</time>
      </trkpt>
      <trkpt lat="43.3361997641623" lon="-6.538900779560208">
        <ele>585</ele>
        <time>2017-08-05T08:54:32.000Z</time>
      </trkpt>
      <trkpt lat="43.33614930510521" lon="-6.539089037105441">
        <ele>585.2</ele>
        <time>2017-08-05T08:54:42.000Z</time>
      </trkpt>
      <trkpt lat="43.336108569055796" lon="-6.539220884442329">
        <ele>585.4</ele>
        <time>2017-08-05T08:54:49.000Z</time>
      </trkpt>
      <trkpt lat="43.336066072806716" lon="-6.539406292140484">
        <ele>586.8</ele>
        <time>2017-08-05T08:54:59.000Z</time>
      </trkpt>
      <trkpt lat="43.33602726459503" lon="-6.539556495845318">
        <ele>587.4</ele>
        <time>2017-08-05T08:55:07.000Z</time>
      </trkpt>
      <trkpt lat="43.33599088713527" lon="-6.5397044364362955">
        <ele>587.8</ele>
        <time>2017-08-05T08:55:15.000Z</time>
      </trkpt>
      <trkpt lat="43.335946295410395" lon="-6.539853718131781">
        <ele>588.8</ele>
        <time>2017-08-05T08:55:24.000Z</time>
      </trkpt>
      <trkpt lat="43.33592559210956" lon="-6.539943236857653">
        <ele>589.2</ele>
        <time>2017-08-05T08:55:30.000Z</time>
      </trkpt>
      <trkpt lat="43.33589776419103" lon="-6.540070474147797">
        <ele>589.8</ele>
        <time>2017-08-05T08:55:37.000Z</time>
      </trkpt>
      <trkpt lat="43.335892567411065" lon="-6.540090087801218">
        <ele>589.8</ele>
        <time>2017-08-05T08:55:38.000Z</time>
      </trkpt>
      <trkpt lat="43.33585409447551" lon="-6.5402875654399395">
        <ele>590</ele>
        <time>2017-08-05T08:55:48.000Z</time>
      </trkpt>
      <trkpt lat="43.335824590176344" lon="-6.540466686710715">
        <ele>589.8</ele>
        <time>2017-08-05T08:55:57.000Z</time>
      </trkpt>
      <trkpt lat="43.335766922682524" lon="-6.540655195713043">
        <ele>589.6</ele>
        <time>2017-08-05T08:56:07.000Z</time>
      </trkpt>
      <trkpt lat="43.33573305979371" lon="-6.5408138651400805">
        <ele>589.2</ele>
        <time>2017-08-05T08:56:15.000Z</time>
      </trkpt>
      <trkpt lat="43.335690815001726" lon="-6.541015617549419">
        <ele>588.8</ele>
        <time>2017-08-05T08:56:25.000Z</time>
      </trkpt>
      <trkpt lat="43.335646307095885" lon="-6.541214436292648">
        <ele>588.6</ele>
        <time>2017-08-05T08:56:35.000Z</time>
      </trkpt>
      <trkpt lat="43.33559760823846" lon="-6.541390623897314">
        <ele>588.6</ele>
        <time>2017-08-05T08:56:44.000Z</time>
      </trkpt>
      <trkpt lat="43.335539773106575" lon="-6.541586760431528">
        <ele>589.6</ele>
        <time>2017-08-05T08:56:54.000Z</time>
      </trkpt>
      <trkpt lat="43.3354676887393" lon="-6.541802175343037">
        <ele>590.2</ele>
        <time>2017-08-05T08:57:05.000Z</time>
      </trkpt>
      <trkpt lat="43.335398035123944" lon="-6.5419921930879354">
        <ele>590.6</ele>
        <time>2017-08-05T08:57:15.000Z</time>
      </trkpt>
      <trkpt lat="43.3353484980762" lon="-6.542124878615141">
        <ele>590.4</ele>
        <time>2017-08-05T08:57:22.000Z</time>
      </trkpt>
      <trkpt lat="43.33528353832662" lon="-6.542269717901945">
        <ele>589.8</ele>
        <time>2017-08-05T08:57:30.000Z</time>
      </trkpt>
      <trkpt lat="43.3352174051106" lon="-6.542490413412452">
        <ele>588.2</ele>
        <time>2017-08-05T08:57:41.000Z</time>
      </trkpt>
      <trkpt lat="43.33516434766352" lon="-6.542692417278886">
        <ele>587.2</ele>
        <time>2017-08-05T08:57:51.000Z</time>
      </trkpt>
      <trkpt lat="43.335124868899584" lon="-6.5428792499005795">
        <ele>586.2</ele>
        <time>2017-08-05T08:58:00.000Z</time>
      </trkpt>
      <trkpt lat="43.33509586751461" lon="-6.543023502454162">
        <ele>586</ele>
        <time>2017-08-05T08:58:07.000Z</time>
      </trkpt>
      <trkpt lat="43.335064351558685" lon="-6.543207569047809">
        <ele>586.2</ele>
        <time>2017-08-05T08:58:16.000Z</time>
      </trkpt>
      <trkpt lat="43.3350498508662" lon="-6.543404795229435">
        <ele>587</ele>
        <time>2017-08-05T08:58:26.000Z</time>
      </trkpt>
      <trkpt lat="43.335051108151674" lon="-6.543568577617407">
        <ele>587.4</ele>
        <time>2017-08-05T08:58:34.000Z</time>
      </trkpt>
      <trkpt lat="43.33507566712797" lon="-6.5437492076307535">
        <ele>587</ele>
        <time>2017-08-05T08:58:43.000Z</time>
      </trkpt>
      <trkpt lat="43.33510114811361" lon="-6.543822884559631">
        <ele>587</ele>
        <time>2017-08-05T08:58:47.000Z</time>
      </trkpt>
      <trkpt lat="43.33511992357671" lon="-6.543874265626073">
        <ele>587.2</ele>
        <time>2017-08-05T08:58:50.000Z</time>
      </trkpt>
      <trkpt lat="43.335155043751" lon="-6.543990857899189">
        <ele>587.4</ele>
        <time>2017-08-05T08:58:56.000Z</time>
      </trkpt>
      <trkpt lat="43.33516124635935" lon="-6.544106109067798">
        <ele>587.4</ele>
        <time>2017-08-05T08:59:02.000Z</time>
      </trkpt>
      <trkpt lat="43.33514146506786" lon="-6.544201411306858">
        <ele>587.4</ele>
        <time>2017-08-05T08:59:06.000Z</time>
      </trkpt>
      <trkpt lat="43.33513920195401" lon="-6.544345244765282">
        <ele>587.4</ele>
        <time>2017-08-05T08:59:13.000Z</time>
      </trkpt>
      <trkpt lat="43.33514171652496" lon="-6.5443850588053465">
        <ele>587.4</ele>
        <time>2017-08-05T08:59:15.000Z</time>
      </trkpt>
      <trkpt lat="43.33512998186052" lon="-6.544455299153924">
        <ele>587.2</ele>
        <time>2017-08-05T08:59:19.000Z</time>
      </trkpt>
      <trkpt lat="43.335123946890235" lon="-6.544470302760601">
        <ele>587.4</ele>
        <time>2017-08-05T08:59:20.000Z</time>
      </trkpt>
      <trkpt lat="43.335075750947" lon="-6.544530484825373">
        <ele>587.4</ele>
        <time>2017-08-05T08:59:25.000Z</time>
      </trkpt>
      <trkpt lat="43.335064770653844" lon="-6.544537944719195">
        <ele>587.4</ele>
        <time>2017-08-05T08:59:26.000Z</time>
      </trkpt>
      <trkpt lat="43.33499754779041" lon="-6.544602233916521">
        <ele>587.4</ele>
        <time>2017-08-05T08:59:32.000Z</time>
      </trkpt>
      <trkpt lat="43.33498639985919" lon="-6.544613633304834">
        <ele>587.4</ele>
        <time>2017-08-05T08:59:33.000Z</time>
      </trkpt>
      <trkpt lat="43.33497315645218" lon="-6.544617237523198">
        <ele>587.2</ele>
        <time>2017-08-05T08:59:34.000Z</time>
      </trkpt>
      <trkpt lat="43.334912806749344" lon="-6.544658727943897">
        <ele>587.6</ele>
        <time>2017-08-05T08:59:39.000Z</time>
      </trkpt>
      <trkpt lat="43.33487064577639" lon="-6.544698290526867">
        <ele>588</ele>
        <time>2017-08-05T08:59:43.000Z</time>
      </trkpt>
      <trkpt lat="43.33484826609492" lon="-6.544733494520187">
        <ele>588.4</ele>
        <time>2017-08-05T08:59:46.000Z</time>
      </trkpt>
      <trkpt lat="43.33477391861379" lon="-6.544812032952905">
        <ele>589.2</ele>
        <time>2017-08-05T08:59:54.000Z</time>
      </trkpt>
      <trkpt lat="43.33471340127289" lon="-6.544868526980281">
        <ele>589.8</ele>
        <time>2017-08-05T09:00:00.000Z</time>
      </trkpt>
      <trkpt lat="43.334633857011795" lon="-6.544981012120843">
        <ele>590.6</ele>
        <time>2017-08-05T09:00:09.000Z</time>
      </trkpt>
      <trkpt lat="43.334561605006456" lon="-6.545118559151888">
        <ele>591.4</ele>
        <time>2017-08-05T09:00:19.000Z</time>
      </trkpt>
      <trkpt lat="43.334477031603456" lon="-6.545276893302798">
        <ele>592.2</ele>
        <time>2017-08-05T09:00:29.000Z</time>
      </trkpt>
      <trkpt lat="43.33444509655237" lon="-6.54542550444603">
        <ele>593.2</ele>
        <time>2017-08-05T09:00:37.000Z</time>
      </trkpt>
      <trkpt lat="43.33442347124219" lon="-6.545588616281748">
        <ele>594.2</ele>
        <time>2017-08-05T09:00:46.000Z</time>
      </trkpt>
      <trkpt lat="43.33440771326423" lon="-6.5457758679986">
        <ele>594.8</ele>
        <time>2017-08-05T09:00:56.000Z</time>
      </trkpt>
      <trkpt lat="43.33440100774169" lon="-6.545949708670378">
        <ele>595.4</ele>
        <time>2017-08-05T09:01:05.000Z</time>
      </trkpt>
      <trkpt lat="43.334391536191106" lon="-6.546110389754176">
        <ele>596</ele>
        <time>2017-08-05T09:01:13.000Z</time>
      </trkpt>
      <trkpt lat="43.33436865359545" lon="-6.5463146567344666">
        <ele>596.4</ele>
        <time>2017-08-05T09:01:24.000Z</time>
      </trkpt>
      <trkpt lat="43.334371419623494" lon="-6.546484138816595">
        <ele>597</ele>
        <time>2017-08-05T09:01:33.000Z</time>
      </trkpt>
      <trkpt lat="43.33434593863785" lon="-6.546627469360828">
        <ele>596.8</ele>
        <time>2017-08-05T09:01:41.000Z</time>
      </trkpt>
      <trkpt lat="43.33429313264787" lon="-6.546755041927099">
        <ele>596.4</ele>
        <time>2017-08-05T09:01:48.000Z</time>
      </trkpt>
      <trkpt lat="43.33428869023919" lon="-6.54691195115447">
        <ele>596.2</ele>
        <time>2017-08-05T09:01:56.000Z</time>
      </trkpt>
      <trkpt lat="43.33429791033268" lon="-6.547022173181176">
        <ele>596.2</ele>
        <time>2017-08-05T09:02:02.000Z</time>
      </trkpt>
      <trkpt lat="43.33433554507792" lon="-6.547150583937764">
        <ele>596.6</ele>
        <time>2017-08-05T09:02:09.000Z</time>
      </trkpt>
      <trkpt lat="43.33442430943251" lon="-6.5473095048218966">
        <ele>597.2</ele>
        <time>2017-08-05T09:02:19.000Z</time>
      </trkpt>
      <trkpt lat="43.334498573094606" lon="-6.547432132065296">
        <ele>598</ele>
        <time>2017-08-05T09:02:27.000Z</time>
      </trkpt>
      <trkpt lat="43.33453260362148" lon="-6.547469515353441">
        <ele>598.4</ele>
        <time>2017-08-05T09:02:30.000Z</time>
      </trkpt>
      <trkpt lat="43.33456361666322" lon="-6.547513352707028">
        <ele>598.8</ele>
        <time>2017-08-05T09:02:33.000Z</time>
      </trkpt>
      <trkpt lat="43.33465313538909" lon="-6.54763706959784">
        <ele>599.6</ele>
        <time>2017-08-05T09:02:42.000Z</time>
      </trkpt>
      <trkpt lat="43.33470543846488" lon="-6.5477394964545965">
        <ele>600.4</ele>
        <time>2017-08-05T09:02:48.000Z</time>
      </trkpt>
      <trkpt lat="43.334732009097934" lon="-6.54784619808197">
        <ele>600.6</ele>
        <time>2017-08-05T09:02:54.000Z</time>
      </trkpt>
      <trkpt lat="43.33477232605219" lon="-6.5479951445013285">
        <ele>601.2</ele>
        <time>2017-08-05T09:03:02.000Z</time>
      </trkpt>
      <trkpt lat="43.33481783978641" lon="-6.548125566914678">
        <ele>602</ele>
        <time>2017-08-05T09:03:09.000Z</time>
      </trkpt>
      <trkpt lat="43.334856145083904" lon="-6.548263616859913">
        <ele>603</ele>
        <time>2017-08-05T09:03:17.000Z</time>
      </trkpt>
      <trkpt lat="43.33488883450627" lon="-6.548424633219838">
        <ele>603.6</ele>
        <time>2017-08-05T09:03:25.000Z</time>
      </trkpt>
      <trkpt lat="43.334907526150346" lon="-6.548609957098961">
        <ele>604.8</ele>
        <time>2017-08-05T09:03:34.000Z</time>
      </trkpt>
      <trkpt lat="43.33493376150727" lon="-6.548721855506301">
        <ele>605.4</ele>
        <time>2017-08-05T09:03:40.000Z</time>
      </trkpt>
      <trkpt lat="43.33495848812163" lon="-6.548861917108297">
        <ele>606</ele>
        <time>2017-08-05T09:03:47.000Z</time>
      </trkpt>
      <trkpt lat="43.3350067678839" lon="-6.549000637605786">
        <ele>605.6</ele>
        <time>2017-08-05T09:03:55.000Z</time>
      </trkpt>
      <trkpt lat="43.33506401628256" lon="-6.549108512699604">
        <ele>605.4</ele>
        <time>2017-08-05T09:04:02.000Z</time>
      </trkpt>
      <trkpt lat="43.335117660462856" lon="-6.549247233197093">
        <ele>605</ele>
        <time>2017-08-05T09:04:10.000Z</time>
      </trkpt>
      <trkpt lat="43.335159067064524" lon="-6.549362987279892">
        <ele>605</ele>
        <time>2017-08-05T09:04:17.000Z</time>
      </trkpt>
      <trkpt lat="43.33516870625317" lon="-6.549382768571377">
        <ele>605.2</ele>
        <time>2017-08-05T09:04:18.000Z</time>
      </trkpt>
      <trkpt lat="43.33518144674599" lon="-6.549450913444161">
        <ele>605.2</ele>
        <time>2017-08-05T09:04:22.000Z</time>
      </trkpt>
      <trkpt lat="43.33518639206886" lon="-6.549468766897917">
        <ele>605.2</ele>
        <time>2017-08-05T09:04:23.000Z</time>
      </trkpt>
      <trkpt lat="43.335202066227794" lon="-6.5495966747403145">
        <ele>605.4</ele>
        <time>2017-08-05T09:04:30.000Z</time>
      </trkpt>
      <trkpt lat="43.335225032642484" lon="-6.5496809128671885">
        <ele>605.8</ele>
        <time>2017-08-05T09:04:35.000Z</time>
      </trkpt>
      <trkpt lat="43.33523693494499" lon="-6.549690803512931">
        <ele>606</ele>
        <time>2017-08-05T09:04:36.000Z</time>
      </trkpt>
      <trkpt lat="43.33528697490692" lon="-6.54976112768054">
        <ele>606.8</ele>
        <time>2017-08-05T09:04:42.000Z</time>
      </trkpt>
      <trkpt lat="43.33532293327153" lon="-6.549848970025778">
        <ele>607.4</ele>
        <time>2017-08-05T09:04:49.000Z</time>
      </trkpt>
      <trkpt lat="43.33531631156802" lon="-6.549886437132955">
        <ele>607.2</ele>
        <time>2017-08-05T09:04:52.000Z</time>
      </trkpt>
      <trkpt lat="43.33529577590525" lon="-6.549907643347979">
        <ele>607</ele>
        <time>2017-08-05T09:04:54.000Z</time>
      </trkpt>
      <trkpt lat="43.335260236635804" lon="-6.549936980009079">
        <ele>606.4</ele>
        <time>2017-08-05T09:04:59.000Z</time>
      </trkpt>
      <trkpt lat="43.33525068126619" lon="-6.549939746037126">
        <ele>606.2</ele>
        <time>2017-08-05T09:05:00.000Z</time>
      </trkpt>
      <trkpt lat="43.335199635475874" lon="-6.549991127103567">
        <ele>605.2</ele>
        <time>2017-08-05T09:05:05.000Z</time>
      </trkpt>
      <trkpt lat="43.335191924124956" lon="-6.550001185387373">
        <ele>605</ele>
        <time>2017-08-05T09:05:06.000Z</time>
      </trkpt>
      <trkpt lat="43.33511003293097" lon="-6.5500932186841965">
        <ele>603.2</ele>
        <time>2017-08-05T09:05:13.000Z</time>
      </trkpt>
      <trkpt lat="43.33500450477004" lon="-6.550203021615744">
        <ele>601</ele>
        <time>2017-08-05T09:05:22.000Z</time>
      </trkpt>
      <trkpt lat="43.33490710705519" lon="-6.550333946943283">
        <ele>600</ele>
        <time>2017-08-05T09:05:31.000Z</time>
      </trkpt>
      <trkpt lat="43.334857653826475" lon="-6.5504613518714905">
        <ele>600.8</ele>
        <time>2017-08-05T09:05:38.000Z</time>
      </trkpt>
      <trkpt lat="43.33479621447623" lon="-6.550607783719897">
        <ele>601.8</ele>
        <time>2017-08-05T09:05:46.000Z</time>
      </trkpt>
      <trkpt lat="43.334777522832155" lon="-6.55066654086113">
        <ele>602.4</ele>
        <time>2017-08-05T09:05:49.000Z</time>
      </trkpt>
      <trkpt lat="43.334757992997766" lon="-6.550724375993013">
        <ele>603.2</ele>
        <time>2017-08-05T09:05:52.000Z</time>
      </trkpt>
      <trkpt lat="43.33469898439944" lon="-6.5508771780878305">
        <ele>604.6</ele>
        <time>2017-08-05T09:06:00.000Z</time>
      </trkpt>
      <trkpt lat="43.334681717678905" lon="-6.550912884995341">
        <ele>604.8</ele>
        <time>2017-08-05T09:06:02.000Z</time>
      </trkpt>
      <trkpt lat="43.33464249037206" lon="-6.551021933555603">
        <ele>605.2</ele>
        <time>2017-08-05T09:06:08.000Z</time>
      </trkpt>
      <trkpt lat="43.33461885340512" lon="-6.551107009872794">
        <ele>605.8</ele>
        <time>2017-08-05T09:06:13.000Z</time>
      </trkpt>
      <trkpt lat="43.33461340516806" lon="-6.5511546190828085">
        <ele>606</ele>
        <time>2017-08-05T09:06:15.000Z</time>
      </trkpt>
      <trkpt lat="43.33461340516806" lon="-6.551210191100836">
        <ele>606.2</ele>
        <time>2017-08-05T09:06:18.000Z</time>
      </trkpt>
      <trkpt lat="43.334616255015135" lon="-6.551302643492818">
        <ele>606.6</ele>
        <time>2017-08-05T09:06:23.000Z</time>
      </trkpt>
      <trkpt lat="43.33462723530829" lon="-6.551416805014014">
        <ele>607</ele>
        <time>2017-08-05T09:06:29.000Z</time>
      </trkpt>
      <trkpt lat="43.33462815731764" lon="-6.551431221887469">
        <ele>607</ele>
        <time>2017-08-05T09:06:30.000Z</time>
      </trkpt>
      <trkpt lat="43.33464693278074" lon="-6.5515657514333725">
        <ele>606.8</ele>
        <time>2017-08-05T09:06:37.000Z</time>
      </trkpt>
      <trkpt lat="43.33465112373233" lon="-6.551711764186621">
        <ele>606.4</ele>
        <time>2017-08-05T09:06:44.000Z</time>
      </trkpt>
      <trkpt lat="43.334661265835166" lon="-6.551936902105808">
        <ele>604.8</ele>
        <time>2017-08-05T09:06:54.000Z</time>
      </trkpt>
      <trkpt lat="43.33465849980712" lon="-6.552160866558552">
        <ele>603.8</ele>
        <time>2017-08-05T09:07:04.000Z</time>
      </trkpt>
      <trkpt lat="43.334679286926985" lon="-6.552342502400279">
        <ele>603.2</ele>
        <time>2017-08-05T09:07:13.000Z</time>
      </trkpt>
      <trkpt lat="43.33473527804017" lon="-6.552491197362542">
        <ele>603</ele>
        <time>2017-08-05T09:07:21.000Z</time>
      </trkpt>
      <trkpt lat="43.33477039821446" lon="-6.552607202902436">
        <ele>603</ele>
        <time>2017-08-05T09:07:28.000Z</time>
      </trkpt>
      <trkpt lat="43.334784898906946" lon="-6.5527334343642">
        <ele>602.8</ele>
        <time>2017-08-05T09:07:35.000Z</time>
      </trkpt>
      <trkpt lat="43.33481281064451" lon="-6.552868885919452">
        <ele>602.6</ele>
        <time>2017-08-05T09:07:42.000Z</time>
      </trkpt>
      <trkpt lat="43.334839129820466" lon="-6.553006852045655">
        <ele>602.6</ele>
        <time>2017-08-05T09:07:49.000Z</time>
      </trkpt>
      <trkpt lat="43.334876261651516" lon="-6.553210029378533">
        <ele>602.8</ele>
        <time>2017-08-05T09:07:59.000Z</time>
      </trkpt>
      <trkpt lat="43.33491255529225" lon="-6.553377583622932">
        <ele>603.8</ele>
        <time>2017-08-05T09:08:08.000Z</time>
      </trkpt>
      <trkpt lat="43.33498631604016" lon="-6.553575312718749">
        <ele>605.6</ele>
        <time>2017-08-05T09:08:19.000Z</time>
      </trkpt>
      <trkpt lat="43.33507139235735" lon="-6.553743872791529">
        <ele>607.2</ele>
        <time>2017-08-05T09:08:29.000Z</time>
      </trkpt>
      <trkpt lat="43.33508455194533" lon="-6.553757954388857">
        <ele>607.4</ele>
        <time>2017-08-05T09:08:30.000Z</time>
      </trkpt>
      <trkpt lat="43.3351172413677" lon="-6.5538334753364325">
        <ele>607.8</ele>
        <time>2017-08-05T09:08:34.000Z</time>
      </trkpt>
      <trkpt lat="43.3351846318692" lon="-6.553977895528078">
        <ele>608.6</ele>
        <time>2017-08-05T09:08:42.000Z</time>
      </trkpt>
      <trkpt lat="43.335251016542315" lon="-6.554178223013878">
        <ele>608.4</ele>
        <time>2017-08-05T09:08:52.000Z</time>
      </trkpt>
      <trkpt lat="43.33528588525951" lon="-6.554268412292004">
        <ele>608</ele>
        <time>2017-08-05T09:08:57.000Z</time>
      </trkpt>
      <trkpt lat="43.33529275842011" lon="-6.5543083101511">
        <ele>607.8</ele>
        <time>2017-08-05T09:08:59.000Z</time>
      </trkpt>
      <trkpt lat="43.335331147536635" lon="-6.554419873282313">
        <ele>607.2</ele>
        <time>2017-08-05T09:09:05.000Z</time>
      </trkpt>
      <trkpt lat="43.33537196740508" lon="-6.5545647125691175">
        <ele>606.4</ele>
        <time>2017-08-05T09:09:12.000Z</time>
      </trkpt>
      <trkpt lat="43.335423935204744" lon="-6.554748108610511">
        <ele>605.4</ele>
        <time>2017-08-05T09:09:21.000Z</time>
      </trkpt>
      <trkpt lat="43.33551228046417" lon="-6.554877357557416">
        <ele>606</ele>
        <time>2017-08-05T09:09:29.000Z</time>
      </trkpt>
      <trkpt lat="43.33553524687886" lon="-6.554870987311006">
        <ele>606.4</ele>
        <time>2017-08-05T09:09:30.000Z</time>
      </trkpt>
      <trkpt lat="43.33556206896901" lon="-6.554909041151404">
        <ele>606.6</ele>
        <time>2017-08-05T09:09:32.000Z</time>
      </trkpt>
      <trkpt lat="43.335589561611414" lon="-6.554936282336712">
        <ele>606.8</ele>
        <time>2017-08-05T09:09:34.000Z</time>
      </trkpt>
      <trkpt lat="43.33566550165415" lon="-6.555012222379446">
        <ele>606.2</ele>
        <time>2017-08-05T09:09:40.000Z</time>
      </trkpt>
      <trkpt lat="43.335741525515914" lon="-6.555085899308324">
        <ele>606.6</ele>
        <time>2017-08-05T09:09:46.000Z</time>
      </trkpt>
      <trkpt lat="43.33582744002342" lon="-6.555157145485282">
        <ele>607.4</ele>
        <time>2017-08-05T09:09:53.000Z</time>
      </trkpt>
      <trkpt lat="43.3359151147306" lon="-6.555249849334359">
        <ele>607.8</ele>
        <time>2017-08-05T09:10:00.000Z</time>
      </trkpt>
      <trkpt lat="43.33592936396599" lon="-6.555251190438867">
        <ele>607.8</ele>
        <time>2017-08-05T09:10:01.000Z</time>
      </trkpt>
      <trkpt lat="43.33593380637467" lon="-6.555240796878934">
        <ele>608</ele>
        <time>2017-08-05T09:10:05.000Z</time>
      </trkpt>
      <trkpt lat="43.33593539893627" lon="-6.55525135807693">
        <ele>607.8</ele>
        <time>2017-08-05T09:10:13.000Z</time>
      </trkpt>
      <trkpt lat="43.335932046175" lon="-6.555262841284275">
        <ele>607.8</ele>
        <time>2017-08-05T09:10:30.000Z</time>
      </trkpt>
      <trkpt lat="43.33593539893627" lon="-6.555356550961733">
        <ele>608</ele>
        <time>2017-08-05T09:11:44.000Z</time>
      </trkpt>
      <trkpt lat="43.335941433906555" lon="-6.555398125201464">
        <ele>608.4</ele>
        <time>2017-08-05T09:11:46.000Z</time>
      </trkpt>
      <trkpt lat="43.33595727570355" lon="-6.555471299216151">
        <ele>608.4</ele>
        <time>2017-08-05T09:11:50.000Z</time>
      </trkpt>
      <trkpt lat="43.3359581977129" lon="-6.555637009441853">
        <ele>609</ele>
        <time>2017-08-05T09:11:59.000Z</time>
      </trkpt>
      <trkpt lat="43.33587806671858" lon="-6.555719738826156">
        <ele>610.2</ele>
        <time>2017-08-05T09:12:06.000Z</time>
      </trkpt>
      <trkpt lat="43.3357716165483" lon="-6.555779334157705">
        <ele>611.2</ele>
        <time>2017-08-05T09:12:14.000Z</time>
      </trkpt>
      <trkpt lat="43.33563482388854" lon="-6.555778495967388">
        <ele>610.6</ele>
        <time>2017-08-05T09:12:23.000Z</time>
      </trkpt>
      <trkpt lat="43.33551848307252" lon="-6.555750919505954">
        <ele>610</ele>
        <time>2017-08-05T09:12:31.000Z</time>
      </trkpt>
      <trkpt lat="43.33538269624114" lon="-6.555745974183083">
        <ele>609</ele>
        <time>2017-08-05T09:12:40.000Z</time>
      </trkpt>
      <trkpt lat="43.33530466072261" lon="-6.555796517059207">
        <ele>609</ele>
        <time>2017-08-05T09:12:46.000Z</time>
      </trkpt>
      <trkpt lat="43.335239281877875" lon="-6.555866254493594">
        <ele>609.4</ele>
        <time>2017-08-05T09:12:52.000Z</time>
      </trkpt>
      <trkpt lat="43.33523651584983" lon="-6.555879833176732">
        <ele>609.6</ele>
        <time>2017-08-05T09:12:53.000Z</time>
      </trkpt>
      <trkpt lat="43.33520189858973" lon="-6.555959293618798">
        <ele>610.8</ele>
        <time>2017-08-05T09:12:58.000Z</time>
      </trkpt>
      <trkpt lat="43.335172813385725" lon="-6.556059457361698">
        <ele>612.6</ele>
        <time>2017-08-05T09:13:03.000Z</time>
      </trkpt>
      <trkpt lat="43.33517004735768" lon="-6.556075047701597">
        <ele>612.8</ele>
        <time>2017-08-05T09:13:04.000Z</time>
      </trkpt>
      <trkpt lat="43.335156636312604" lon="-6.556198932230473">
        <ele>614.8</ele>
        <time>2017-08-05T09:13:11.000Z</time>
      </trkpt>
      <trkpt lat="43.33516141399741" lon="-6.556287948042154">
        <ele>615.8</ele>
        <time>2017-08-05T09:13:17.000Z</time>
      </trkpt>
      <trkpt lat="43.335150852799416" lon="-6.556382831186056">
        <ele>616.8</ele>
        <time>2017-08-05T09:13:23.000Z</time>
      </trkpt>
      <trkpt lat="43.33517356775701" lon="-6.556493220850825">
        <ele>617.6</ele>
        <time>2017-08-05T09:13:30.000Z</time>
      </trkpt>
      <trkpt lat="43.335170382633805" lon="-6.556527251377702">
        <ele>618.2</ele>
        <time>2017-08-05T09:13:32.000Z</time>
      </trkpt>
      <trkpt lat="43.33516962826252" lon="-6.556579722091556">
        <ele>618.8</ele>
        <time>2017-08-05T09:13:35.000Z</time>
      </trkpt>
      <trkpt lat="43.3351587317884" lon="-6.556611489504576">
        <ele>619.2</ele>
        <time>2017-08-05T09:13:37.000Z</time>
      </trkpt>
      <trkpt lat="43.33516040816903" lon="-6.556662619113922">
        <ele>620</ele>
        <time>2017-08-05T09:13:40.000Z</time>
      </trkpt>
      <trkpt lat="43.335162587463856" lon="-6.556674940511584">
        <ele>620.2</ele>
        <time>2017-08-05T09:13:41.000Z</time>
      </trkpt>
      <trkpt lat="43.335167868062854" lon="-6.55674166046083">
        <ele>621</ele>
        <time>2017-08-05T09:13:46.000Z</time>
      </trkpt>
      <trkpt lat="43.335171388462186" lon="-6.556852888315916">
        <ele>622.2</ele>
        <time>2017-08-05T09:13:54.000Z</time>
      </trkpt>
      <trkpt lat="43.33517499268055" lon="-6.556937545537949">
        <ele>623.2</ele>
        <time>2017-08-05T09:14:00.000Z</time>
      </trkpt>
      <trkpt lat="43.335180608555675" lon="-6.556963864713907">
        <ele>623.4</ele>
        <time>2017-08-05T09:14:02.000Z</time>
      </trkpt>
      <trkpt lat="43.33521598018706" lon="-6.557002924382687">
        <ele>624.2</ele>
        <time>2017-08-05T09:14:07.000Z</time>
      </trkpt>
      <trkpt lat="43.33522193133831" lon="-6.5570194367319345">
        <ele>624.4</ele>
        <time>2017-08-05T09:14:08.000Z</time>
      </trkpt>
      <trkpt lat="43.335239784792066" lon="-6.557111302390695">
        <ele>625.8</ele>
        <time>2017-08-05T09:14:14.000Z</time>
      </trkpt>
      <trkpt lat="43.33523282781243" lon="-6.557213477790356">
        <ele>626.8</ele>
        <time>2017-08-05T09:14:20.000Z</time>
      </trkpt>
      <trkpt lat="43.335246155038476" lon="-6.557246753945947">
        <ele>627.2</ele>
        <time>2017-08-05T09:14:22.000Z</time>
      </trkpt>
      <trkpt lat="43.335255458950996" lon="-6.557242143899202">
        <ele>627.4</ele>
        <time>2017-08-05T09:14:24.000Z</time>
      </trkpt>
      <trkpt lat="43.33526459522545" lon="-6.557211214676499">
        <ele>627.2</ele>
        <time>2017-08-05T09:14:28.000Z</time>
      </trkpt>
      <trkpt lat="43.33526945672929" lon="-6.557198977097869">
        <ele>627.2</ele>
        <time>2017-08-05T09:14:30.000Z</time>
      </trkpt>
      <trkpt lat="43.33526300266385" lon="-6.557210460305214">
        <ele>627.2</ele>
        <time>2017-08-05T09:14:37.000Z</time>
      </trkpt>
      <trkpt lat="43.33527130074799" lon="-6.557182213291526">
        <ele>627</ele>
        <time>2017-08-05T09:14:45.000Z</time>
      </trkpt>
      <trkpt lat="43.33528404124081" lon="-6.557182632386684">
        <ele>627.2</ele>
        <time>2017-08-05T09:14:56.000Z</time>
      </trkpt>
      <trkpt lat="43.335279850289226" lon="-6.557223200798035">
        <ele>627.6</ele>
        <time>2017-08-05T09:15:44.000Z</time>
      </trkpt>
      <trkpt lat="43.3352723903954" lon="-6.557209454476833">
        <ele>627.4</ele>
        <time>2017-08-05T09:15:57.000Z</time>
      </trkpt>
      <trkpt lat="43.33528060466051" lon="-6.557210544124246">
        <ele>627.4</ele>
        <time>2017-08-05T09:16:05.000Z</time>
      </trkpt>
      <trkpt lat="43.335284208878875" lon="-6.5572067722678185">
        <ele>627.4</ele>
        <time>2017-08-05T09:16:11.000Z</time>
      </trkpt>
      <trkpt lat="43.33528605289757" lon="-6.557205347344279">
        <ele>627.6</ele>
        <time>2017-08-05T09:16:34.000Z</time>
      </trkpt>
      <trkpt lat="43.33527616225183" lon="-6.557185398414731">
        <ele>627</ele>
        <time>2017-08-05T09:17:06.000Z</time>
      </trkpt>
      <trkpt lat="43.33529477007687" lon="-6.557194367051125">
        <ele>627.4</ele>
        <time>2017-08-05T09:17:21.000Z</time>
      </trkpt>
      <trkpt lat="43.33528529852629" lon="-6.55718632042408">
        <ele>627.2</ele>
        <time>2017-08-05T09:17:49.000Z</time>
      </trkpt>
      <trkpt lat="43.33528731018305" lon="-6.557176932692528">
        <ele>627.2</ele>
        <time>2017-08-05T09:18:31.000Z</time>
      </trkpt>
      <trkpt lat="43.33526769652963" lon="-6.557176848873496">
        <ele>626.8</ele>
        <time>2017-08-05T09:18:38.000Z</time>
      </trkpt>
      <trkpt lat="43.33527700044215" lon="-6.557172238826752">
        <ele>627</ele>
        <time>2017-08-05T09:19:13.000Z</time>
      </trkpt>
      <trkpt lat="43.335279347375035" lon="-6.557173579931259">
        <ele>627</ele>
        <time>2017-08-05T09:19:29.000Z</time>
      </trkpt>
      <trkpt lat="43.3352811075747" lon="-6.557192439213395">
        <ele>627.2</ele>
        <time>2017-08-05T09:19:42.000Z</time>
      </trkpt>
      <trkpt lat="43.33528244867921" lon="-6.557193193584681">
        <ele>627.2</ele>
        <time>2017-08-05T09:20:17.000Z</time>
      </trkpt>
      <trkpt lat="43.3352760784328" lon="-6.557187996804714">
        <ele>627</ele>
        <time>2017-08-05T09:20:23.000Z</time>
      </trkpt>
      <trkpt lat="43.33527456969023" lon="-6.557218171656132">
        <ele>627.4</ele>
        <time>2017-08-05T09:20:47.000Z</time>
      </trkpt>
      <trkpt lat="43.335272474214435" lon="-6.557220350950956">
        <ele>627.4</ele>
        <time>2017-08-05T09:20:53.000Z</time>
      </trkpt>
      <trkpt lat="43.33527306094766" lon="-6.557213561609387">
        <ele>627.4</ele>
        <time>2017-08-05T09:21:02.000Z</time>
      </trkpt>
      <trkpt lat="43.33529175259173" lon="-6.557173496112227">
        <ele>627.2</ele>
        <time>2017-08-05T09:21:51.000Z</time>
      </trkpt>
      <trkpt lat="43.335292004048824" lon="-6.557185649871826">
        <ele>627.4</ele>
        <time>2017-08-05T09:21:56.000Z</time>
      </trkpt>
      <trkpt lat="43.33527071401477" lon="-6.557209957391024">
        <ele>627.2</ele>
        <time>2017-08-05T09:22:08.000Z</time>
      </trkpt>
      <trkpt lat="43.33527758717537" lon="-6.557194031774998">
        <ele>627.2</ele>
        <time>2017-08-05T09:22:22.000Z</time>
      </trkpt>
      <trkpt lat="43.33526937291026" lon="-6.557189505547285">
        <ele>627</ele>
        <time>2017-08-05T09:22:46.000Z</time>
      </trkpt>
      <trkpt lat="43.33527171984315" lon="-6.557199060916901">
        <ele>627.2</ele>
        <time>2017-08-05T09:22:50.000Z</time>
      </trkpt>
      <trkpt lat="43.33527809008956" lon="-6.55720978975296">
        <ele>627.4</ele>
        <time>2017-08-05T09:23:02.000Z</time>
      </trkpt>
      <trkpt lat="43.33527825772762" lon="-6.557192942127585">
        <ele>627.2</ele>
        <time>2017-08-05T09:23:21.000Z</time>
      </trkpt>
      <trkpt lat="43.33526828326285" lon="-6.557153631001711">
        <ele>626.6</ele>
        <time>2017-08-05T09:23:32.000Z</time>
      </trkpt>
      <trkpt lat="43.3352414611727" lon="-6.5572005696594715">
        <ele>626.8</ele>
        <time>2017-08-05T09:24:41.000Z</time>
      </trkpt>
      <trkpt lat="43.33526484668255" lon="-6.557182380929589">
        <ele>626.8</ele>
        <time>2017-08-05T09:25:04.000Z</time>
      </trkpt>
      <trkpt lat="43.33526166155934" lon="-6.557205095887184">
        <ele>627</ele>
        <time>2017-08-05T09:25:23.000Z</time>
      </trkpt>
      <trkpt lat="43.335255878046155" lon="-6.557204509153962">
        <ele>627</ele>
        <time>2017-08-05T09:25:29.000Z</time>
      </trkpt>
      <trkpt lat="43.33525420166552" lon="-6.5572023298591375">
        <ele>627</ele>
        <time>2017-08-05T09:25:34.000Z</time>
      </trkpt>
      <trkpt lat="43.33524179644883" lon="-6.557218171656132">
        <ele>627</ele>
        <time>2017-08-05T09:26:15.000Z</time>
      </trkpt>
      <trkpt lat="43.33524632267654" lon="-6.557219596579671">
        <ele>627</ele>
        <time>2017-08-05T09:26:23.000Z</time>
      </trkpt>
      <trkpt lat="43.33525579422712" lon="-6.557219009846449">
        <ele>627.2</ele>
        <time>2017-08-05T09:26:36.000Z</time>
      </trkpt>
      <trkpt lat="43.335257386788726" lon="-6.557234600186348">
        <ele>627.4</ele>
        <time>2017-08-05T09:26:45.000Z</time>
      </trkpt>
      <trkpt lat="43.335283789783716" lon="-6.557258740067482">
        <ele>628</ele>
        <time>2017-08-05T09:27:01.000Z</time>
      </trkpt>
      <trkpt lat="43.335304241627455" lon="-6.5572636015713215">
        <ele>628.4</ele>
        <time>2017-08-05T09:27:05.000Z</time>
      </trkpt>
      <trkpt lat="43.33531681448221" lon="-6.557266032323241">
        <ele>628.6</ele>
        <time>2017-08-05T09:27:10.000Z</time>
      </trkpt>
      <trkpt lat="43.33530633710325" lon="-6.557266702875495">
        <ele>628.4</ele>
        <time>2017-08-05T09:27:22.000Z</time>
      </trkpt>
      <trkpt lat="43.33528496325016" lon="-6.557244993746281">
        <ele>628</ele>
        <time>2017-08-05T09:27:28.000Z</time>
      </trkpt>
      <trkpt lat="43.33527180366218" lon="-6.5572241228073835">
        <ele>627.6</ele>
        <time>2017-08-05T09:27:33.000Z</time>
      </trkpt>
      <trkpt lat="43.33524942398071" lon="-6.557226302102208">
        <ele>627.2</ele>
        <time>2017-08-05T09:27:38.000Z</time>
      </trkpt>
      <trkpt lat="43.3352345880121" lon="-6.557219512760639">
        <ele>626.8</ele>
        <time>2017-08-05T09:27:43.000Z</time>
      </trkpt>
      <trkpt lat="43.33525219000876" lon="-6.557224206626415">
        <ele>627.2</ele>
        <time>2017-08-05T09:27:49.000Z</time>
      </trkpt>
      <trkpt lat="43.33526543341577" lon="-6.557221692055464">
        <ele>627.4</ele>
        <time>2017-08-05T09:28:02.000Z</time>
      </trkpt>
      <trkpt lat="43.33527113310993" lon="-6.557214315980673">
        <ele>627.4</ele>
        <time>2017-08-05T09:28:33.000Z</time>
      </trkpt>
      <trkpt lat="43.33526350557804" lon="-6.557210544124246">
        <ele>627.2</ele>
        <time>2017-08-05T09:28:40.000Z</time>
      </trkpt>
      <trkpt lat="43.335275407880545" lon="-6.557221692055464">
        <ele>627.6</ele>
        <time>2017-08-05T09:28:51.000Z</time>
      </trkpt>
      <trkpt lat="43.3352760784328" lon="-6.5572217758744955">
        <ele>627.6</ele>
        <time>2017-08-05T09:29:01.000Z</time>
      </trkpt>
      <trkpt lat="43.33528261631727" lon="-6.557222027331591">
        <ele>627.6</ele>
        <time>2017-08-05T09:29:17.000Z</time>
      </trkpt>
      <trkpt lat="43.33527373149991" lon="-6.5572067722678185">
        <ele>627.2</ele>
        <time>2017-08-05T09:29:22.000Z</time>
      </trkpt>
      <trkpt lat="43.335268031805754" lon="-6.557192774489522">
        <ele>627</ele>
        <time>2017-08-05T09:29:31.000Z</time>
      </trkpt>
      <trkpt lat="43.33525671623647" lon="-6.557178692892194">
        <ele>626.8</ele>
        <time>2017-08-05T09:29:41.000Z</time>
      </trkpt>
      <trkpt lat="43.335267612710595" lon="-6.557180788367987">
        <ele>626.8</ele>
        <time>2017-08-05T09:29:59.000Z</time>
      </trkpt>
      <trkpt lat="43.33527859300375" lon="-6.557195708155632">
        <ele>627.2</ele>
        <time>2017-08-05T09:30:55.000Z</time>
      </trkpt>
      <trkpt lat="43.335275491699576" lon="-6.557209873571992">
        <ele>627.4</ele>
        <time>2017-08-05T09:31:33.000Z</time>
      </trkpt>
      <trkpt lat="43.33527800627053" lon="-6.55719461850822">
        <ele>627.2</ele>
        <time>2017-08-05T09:31:59.000Z</time>
      </trkpt>
      <trkpt lat="43.335270043462515" lon="-6.557196378707886">
        <ele>627</ele>
        <time>2017-08-05T09:33:01.000Z</time>
      </trkpt>
      <trkpt lat="43.335266690701246" lon="-6.557195708155632">
        <ele>627</ele>
        <time>2017-08-05T09:33:07.000Z</time>
      </trkpt>
      <trkpt lat="43.33527364768088" lon="-6.557204676792026">
        <ele>627.2</ele>
        <time>2017-08-05T09:33:15.000Z</time>
      </trkpt>
      <trkpt lat="43.33529049530625" lon="-6.557222194969654">
        <ele>627.8</ele>
        <time>2017-08-05T09:33:26.000Z</time>
      </trkpt>
      <trkpt lat="43.335272055119276" lon="-6.557249436154962">
        <ele>627.8</ele>
        <time>2017-08-05T09:33:43.000Z</time>
      </trkpt>
      <trkpt lat="43.335292004048824" lon="-6.557262511923909">
        <ele>628.2</ele>
        <time>2017-08-05T09:33:50.000Z</time>
      </trkpt>
      <trkpt lat="43.33529812283814" lon="-6.557266619056463">
        <ele>628.2</ele>
        <time>2017-08-05T09:34:04.000Z</time>
      </trkpt>
      <trkpt lat="43.33529812283814" lon="-6.557239377871156">
        <ele>628.2</ele>
        <time>2017-08-05T09:34:19.000Z</time>
      </trkpt>
      <trkpt lat="43.33529049530625" lon="-6.557220350950956">
        <ele>627.8</ele>
        <time>2017-08-05T09:34:24.000Z</time>
      </trkpt>
      <trkpt lat="43.33528940565884" lon="-6.557225212454796">
        <ele>627.8</ele>
        <time>2017-08-05T09:34:40.000Z</time>
      </trkpt>
      <trkpt lat="43.33529468625784" lon="-6.557231917977333">
        <ele>628</ele>
        <time>2017-08-05T09:34:57.000Z</time>
      </trkpt>
      <trkpt lat="43.335312036797404" lon="-6.557250693440437">
        <ele>628.4</ele>
        <time>2017-08-05T09:35:17.000Z</time>
      </trkpt>
      <trkpt lat="43.335298458114266" lon="-6.557241305708885">
        <ele>628.2</ele>
        <time>2017-08-05T09:35:27.000Z</time>
      </trkpt>
      <trkpt lat="43.33529368042946" lon="-6.557219009846449">
        <ele>627.8</ele>
        <time>2017-08-05T09:35:35.000Z</time>
      </trkpt>
      <trkpt lat="43.33529678173363" lon="-6.5572143997997046">
        <ele>627.8</ele>
        <time>2017-08-05T09:35:41.000Z</time>
      </trkpt>
      <trkpt lat="43.33527809008956" lon="-6.557186488062143">
        <ele>627.2</ele>
        <time>2017-08-05T09:35:48.000Z</time>
      </trkpt>
      <trkpt lat="43.33533282391727" lon="-6.5571631863713264">
        <ele>627.8</ele>
        <time>2017-08-05T09:35:51.000Z</time>
      </trkpt>
      <trkpt lat="43.335311114788055" lon="-6.557155642658472">
        <ele>627.2</ele>
        <time>2017-08-05T09:35:55.000Z</time>
      </trkpt>
      <trkpt lat="43.33530650474131" lon="-6.557129574939609">
        <ele>627</ele>
        <time>2017-08-05T09:36:03.000Z</time>
      </trkpt>
      <trkpt lat="43.33527959883213" lon="-6.5571431536227465">
        <ele>626.6</ele>
        <time>2017-08-05T09:36:15.000Z</time>
      </trkpt>
      <trkpt lat="43.33526702597737" lon="-6.557127898558974">
        <ele>626.4</ele>
        <time>2017-08-05T09:36:43.000Z</time>
      </trkpt>
      <trkpt lat="43.335287645459175" lon="-6.5571116376668215">
        <ele>626.4</ele>
        <time>2017-08-05T09:38:23.000Z</time>
      </trkpt>
      <trkpt lat="43.33528529852629" lon="-6.557126473635435">
        <ele>626.6</ele>
        <time>2017-08-05T09:38:25.000Z</time>
      </trkpt>
      <trkpt lat="43.33525856025517" lon="-6.557122282683849">
        <ele>626.2</ele>
        <time>2017-08-05T09:38:55.000Z</time>
      </trkpt>
      <trkpt lat="43.33525663241744" lon="-6.557139800861478">
        <ele>626.2</ele>
        <time>2017-08-05T09:39:11.000Z</time>
      </trkpt>
      <trkpt lat="43.33602768369019" lon="-6.553426701575518">
        <ele>631.4</ele>
        <time>2017-08-06T04:42:58.000Z</time>
      </trkpt>
      <trkpt lat="43.336031790822744" lon="-6.5534435492008924">
        <ele>631.4</ele>
        <time>2017-08-06T04:43:00.000Z</time>
      </trkpt>
      <trkpt lat="43.33605567924678" lon="-6.553485123440623">
        <ele>631.8</ele>
        <time>2017-08-06T04:43:05.000Z</time>
      </trkpt>
      <trkpt lat="43.336080657318234" lon="-6.553555279970169">
        <ele>631.8</ele>
        <time>2017-08-06T04:43:12.000Z</time>
      </trkpt>
      <trkpt lat="43.3360980078578" lon="-6.553646558895707">
        <ele>632</ele>
        <time>2017-08-06T04:43:20.000Z</time>
      </trkpt>
      <trkpt lat="43.336138827726245" lon="-6.553774382919073">
        <ele>632.8</ele>
        <time>2017-08-06T04:43:30.000Z</time>
      </trkpt>
      <trkpt lat="43.33622884936631" lon="-6.553944116458297">
        <ele>634.8</ele>
        <time>2017-08-06T04:43:40.000Z</time>
      </trkpt>
      <trkpt lat="43.336328929290175" lon="-6.554102031514049">
        <ele>636.4</ele>
        <time>2017-08-06T04:43:50.000Z</time>
      </trkpt>
      <trkpt lat="43.33640973083675" lon="-6.554225580766797">
        <ele>637.8</ele>
        <time>2017-08-06T04:43:59.000Z</time>
      </trkpt>
      <trkpt lat="43.33650561980903" lon="-6.554360864683986">
        <ele>639</ele>
        <time>2017-08-06T04:44:10.000Z</time>
      </trkpt>
      <trkpt lat="43.336594719439745" lon="-6.554480977356434">
        <ele>639.6</ele>
        <time>2017-08-06T04:44:20.000Z</time>
      </trkpt>
      <trkpt lat="43.33669203333557" lon="-6.554601760581136">
        <ele>638.4</ele>
        <time>2017-08-06T04:44:31.000Z</time>
      </trkpt>
      <trkpt lat="43.33676948212087" lon="-6.554701924324036">
        <ele>637.6</ele>
        <time>2017-08-06T04:44:40.000Z</time>
      </trkpt>
      <trkpt lat="43.33686402998865" lon="-6.554817678406835">
        <ele>637</ele>
        <time>2017-08-06T04:44:51.000Z</time>
      </trkpt>
      <trkpt lat="43.336963606998324" lon="-6.554941814392805">
        <ele>635.8</ele>
        <time>2017-08-06T04:45:03.000Z</time>
      </trkpt>
      <trkpt lat="43.33704155869782" lon="-6.555044408887625">
        <ele>635.2</ele>
        <time>2017-08-06T04:45:13.000Z</time>
      </trkpt>
      <trkpt lat="43.337126383557916" lon="-6.555145159363747">
        <ele>635.8</ele>
        <time>2017-08-06T04:45:23.000Z</time>
      </trkpt>
      <trkpt lat="43.33719989284873" lon="-6.555238701403141">
        <ele>636.4</ele>
        <time>2017-08-06T04:45:32.000Z</time>
      </trkpt>
      <trkpt lat="43.337274910882115" lon="-6.55533785931766">
        <ele>636.8</ele>
        <time>2017-08-06T04:45:41.000Z</time>
      </trkpt>
      <trkpt lat="43.33736409433186" lon="-6.555463671684265">
        <ele>637.6</ele>
        <time>2017-08-06T04:45:52.000Z</time>
      </trkpt>
      <trkpt lat="43.337433161213994" lon="-6.555577162653208">
        <ele>637.6</ele>
        <time>2017-08-06T04:46:01.000Z</time>
      </trkpt>
      <trkpt lat="43.33749954588711" lon="-6.555705992504954">
        <ele>637</ele>
        <time>2017-08-06T04:46:11.000Z</time>
      </trkpt>
      <trkpt lat="43.337556794285774" lon="-6.555854938924313">
        <ele>636.4</ele>
        <time>2017-08-06T04:46:22.000Z</time>
      </trkpt>
      <trkpt lat="43.337591076269746" lon="-6.5560216549783945">
        <ele>635.8</ele>
        <time>2017-08-06T04:46:33.000Z</time>
      </trkpt>
      <trkpt lat="43.33759761415422" lon="-6.556178228929639">
        <ele>635.6</ele>
        <time>2017-08-06T04:46:43.000Z</time>
      </trkpt>
      <trkpt lat="43.337588142603636" lon="-6.5563129261136055">
        <ele>635.4</ele>
        <time>2017-08-06T04:46:52.000Z</time>
      </trkpt>
      <trkpt lat="43.337555788457394" lon="-6.556462123990059">
        <ele>635.2</ele>
        <time>2017-08-06T04:47:02.000Z</time>
      </trkpt>
      <trkpt lat="43.33751228637993" lon="-6.556594055145979">
        <ele>635.4</ele>
        <time>2017-08-06T04:47:11.000Z</time>
      </trkpt>
      <trkpt lat="43.33744598552585" lon="-6.556718191131949">
        <ele>635.6</ele>
        <time>2017-08-06T04:47:21.000Z</time>
      </trkpt>
      <trkpt lat="43.33736996166408" lon="-6.55681692995131">
        <ele>636.4</ele>
        <time>2017-08-06T04:47:30.000Z</time>
      </trkpt>
      <trkpt lat="43.337283208966255" lon="-6.556892534717917">
        <ele>636.4</ele>
        <time>2017-08-06T04:47:39.000Z</time>
      </trkpt>
      <trkpt lat="43.33723844960332" lon="-6.556936539709568">
        <ele>636.6</ele>
        <time>2017-08-06T04:47:45.000Z</time>
      </trkpt>
      <trkpt lat="43.337233336642385" lon="-6.5569408144801855">
        <ele>636.6</ele>
        <time>2017-08-06T04:47:46.000Z</time>
      </trkpt>
      <trkpt lat="43.337169885635376" lon="-6.556968726217747">
        <ele>636.2</ele>
        <time>2017-08-06T04:47:52.000Z</time>
      </trkpt>
      <trkpt lat="43.337067291140556" lon="-6.557008707895875">
        <ele>636.4</ele>
        <time>2017-08-06T04:48:01.000Z</time>
      </trkpt>
      <trkpt lat="43.33698062226176" lon="-6.557025723159313">
        <ele>636.2</ele>
        <time>2017-08-06T04:48:08.000Z</time>
      </trkpt>
      <trkpt lat="43.33686721511185" lon="-6.557068722322583">
        <ele>636.2</ele>
        <time>2017-08-06T04:48:18.000Z</time>
      </trkpt>
      <trkpt lat="43.33676436915994" lon="-6.5571007411926985">
        <ele>635</ele>
        <time>2017-08-06T04:48:27.000Z</time>
      </trkpt>
      <trkpt lat="43.3366331923753" lon="-6.5571449138224125">
        <ele>634.4</ele>
        <time>2017-08-06T04:48:39.000Z</time>
      </trkpt>
      <trkpt lat="43.33653151988983" lon="-6.5571770165115595">
        <ele>634.8</ele>
        <time>2017-08-06T04:48:48.000Z</time>
      </trkpt>
      <trkpt lat="43.33645532839" lon="-6.557202162221074">
        <ele>635.4</ele>
        <time>2017-08-06T04:48:55.000Z</time>
      </trkpt>
      <trkpt lat="43.336391877382994" lon="-6.557222781702876">
        <ele>635.8</ele>
        <time>2017-08-06T04:49:01.000Z</time>
      </trkpt>
      <trkpt lat="43.33630621433258" lon="-6.557240970432758">
        <ele>636.2</ele>
        <time>2017-08-06T04:49:09.000Z</time>
      </trkpt>
      <trkpt lat="43.336295150220394" lon="-6.557241724804044">
        <ele>636.4</ele>
        <time>2017-08-06T04:49:10.000Z</time>
      </trkpt>
      <trkpt lat="43.33621711470187" lon="-6.557273073121905">
        <ele>637.2</ele>
        <time>2017-08-06T04:49:17.000Z</time>
      </trkpt>
      <trkpt lat="43.33620554767549" lon="-6.557277599349618">
        <ele>637.2</ele>
        <time>2017-08-06T04:49:18.000Z</time>
      </trkpt>
      <trkpt lat="43.33612147718668" lon="-6.5573221910744905">
        <ele>638.2</ele>
        <time>2017-08-06T04:49:26.000Z</time>
      </trkpt>
      <trkpt lat="43.33602567203343" lon="-6.557384384796023">
        <ele>639</ele>
        <time>2017-08-06T04:49:36.000Z</time>
      </trkpt>
      <trkpt lat="43.33598451688886" lon="-6.557414727285504">
        <ele>639</ele>
        <time>2017-08-06T04:49:44.000Z</time>
      </trkpt>
      <trkpt lat="43.335966411978006" lon="-6.5574229415506124">
        <ele>639</ele>
        <time>2017-08-06T04:49:52.000Z</time>
      </trkpt>
      <trkpt lat="43.33595526404679" lon="-6.557363765314221">
        <ele>638.6</ele>
        <time>2017-08-06T04:50:07.000Z</time>
      </trkpt>
      <trkpt lat="43.33592944778502" lon="-6.557303918525577">
        <ele>638</ele>
        <time>2017-08-06T04:50:15.000Z</time>
      </trkpt>
      <trkpt lat="43.33586691878736" lon="-6.557188164442778">
        <ele>636.8</ele>
        <time>2017-08-06T04:50:26.000Z</time>
      </trkpt>
      <trkpt lat="43.335819812491536" lon="-6.557082217186689">
        <ele>635</ele>
        <time>2017-08-06T04:50:35.000Z</time>
      </trkpt>
      <trkpt lat="43.33576591685414" lon="-6.556965708732605">
        <ele>632.6</ele>
        <time>2017-08-06T04:50:45.000Z</time>
      </trkpt>
      <trkpt lat="43.33571000955999" lon="-6.556867556646466">
        <ele>629.6</ele>
        <time>2017-08-06T04:50:55.000Z</time>
      </trkpt>
      <trkpt lat="43.335665836930275" lon="-6.55678273178637">
        <ele>627.2</ele>
        <time>2017-08-06T04:51:03.000Z</time>
      </trkpt>
      <trkpt lat="43.335613533854485" lon="-6.556696565821767">
        <ele>625.4</ele>
        <time>2017-08-06T04:51:11.000Z</time>
      </trkpt>
      <trkpt lat="43.33555603399873" lon="-6.55658382922411">
        <ele>623</ele>
        <time>2017-08-06T04:51:20.000Z</time>
      </trkpt>
      <trkpt lat="43.33551253192127" lon="-6.556470170617104">
        <ele>621</ele>
        <time>2017-08-06T04:51:28.000Z</time>
      </trkpt>
      <trkpt lat="43.335446482524276" lon="-6.5564448572695255">
        <ele>619.8</ele>
        <time>2017-08-06T04:51:34.000Z</time>
      </trkpt>
      <trkpt lat="43.33543541841209" lon="-6.556450221687555">
        <ele>619.8</ele>
        <time>2017-08-06T04:51:35.000Z</time>
      </trkpt>
      <trkpt lat="43.33532553166151" lon="-6.5565261617302895">
        <ele>619.8</ele>
        <time>2017-08-06T04:51:45.000Z</time>
      </trkpt>
      <trkpt lat="43.33524942398071" lon="-6.5566077176481485">
        <ele>620.2</ele>
        <time>2017-08-06T04:51:54.000Z</time>
      </trkpt>
      <trkpt lat="43.33516409620643" lon="-6.5567234717309475">
        <ele>620.8</ele>
        <time>2017-08-06T04:52:05.000Z</time>
      </trkpt>
      <trkpt lat="43.33516954444349" lon="-6.556795975193381">
        <ele>621.6</ele>
        <time>2017-08-06T04:52:11.000Z</time>
      </trkpt>
      <trkpt lat="43.33518412895501" lon="-6.556879375129938">
        <ele>622.6</ele>
        <time>2017-08-06T04:52:19.000Z</time>
      </trkpt>
      <trkpt lat="43.33519075065851" lon="-6.556953554973006">
        <ele>623.4</ele>
        <time>2017-08-06T04:52:25.000Z</time>
      </trkpt>
      <trkpt lat="43.33521220833063" lon="-6.557031590491533">
        <ele>624.4</ele>
        <time>2017-08-06T04:52:32.000Z</time>
      </trkpt>
      <trkpt lat="43.33521463908255" lon="-6.557043828070164">
        <ele>624.6</ele>
        <time>2017-08-06T04:52:33.000Z</time>
      </trkpt>
      <trkpt lat="43.33521572872996" lon="-6.557136280462146">
        <ele>625.6</ele>
        <time>2017-08-06T04:52:40.000Z</time>
      </trkpt>
      <trkpt lat="43.33520323969424" lon="-6.557236528024077">
        <ele>626.6</ele>
        <time>2017-08-06T04:52:47.000Z</time>
      </trkpt>
      <trkpt lat="43.33519502542913" lon="-6.557364519685507">
        <ele>627</ele>
        <time>2017-08-06T04:52:55.000Z</time>
      </trkpt>
      <trkpt lat="43.33518907427788" lon="-6.557490332052112">
        <ele>627.4</ele>
        <time>2017-08-06T04:53:03.000Z</time>
      </trkpt>
      <trkpt lat="43.335171807557344" lon="-6.55763148330152">
        <ele>628</ele>
        <time>2017-08-06T04:53:12.000Z</time>
      </trkpt>
      <trkpt lat="43.33515898324549" lon="-6.557737682014704">
        <ele>628.6</ele>
        <time>2017-08-06T04:53:19.000Z</time>
      </trkpt>
      <trkpt lat="43.33514381200075" lon="-6.557878330349922">
        <ele>629.4</ele>
        <time>2017-08-06T04:53:28.000Z</time>
      </trkpt>
      <trkpt lat="43.33511682227254" lon="-6.5580222476273775">
        <ele>630.4</ele>
        <time>2017-08-06T04:53:37.000Z</time>
      </trkpt>
      <trkpt lat="43.335076002404094" lon="-6.558155938982964">
        <ele>630.8</ele>
        <time>2017-08-06T04:53:46.000Z</time>
      </trkpt>
      <trkpt lat="43.335046246647835" lon="-6.558299353346229">
        <ele>631.4</ele>
        <time>2017-08-06T04:53:55.000Z</time>
      </trkpt>
      <trkpt lat="43.335036439821124" lon="-6.558410916477442">
        <ele>632.6</ele>
        <time>2017-08-06T04:54:03.000Z</time>
      </trkpt>
      <trkpt lat="43.335034092888236" lon="-6.5585726872086525">
        <ele>634.8</ele>
        <time>2017-08-06T04:54:13.000Z</time>
      </trkpt>
      <trkpt lat="43.33501724526286" lon="-6.558715347200632">
        <ele>635.8</ele>
        <time>2017-08-06T04:54:22.000Z</time>
      </trkpt>
      <trkpt lat="43.33502101711929" lon="-6.558771841228008">
        <ele>636.2</ele>
        <time>2017-08-06T04:54:26.000Z</time>
      </trkpt>
      <trkpt lat="43.335036942735314" lon="-6.558780474588275">
        <ele>636.6</ele>
        <time>2017-08-06T04:54:28.000Z</time>
      </trkpt>
      <trkpt lat="43.33506099879742" lon="-6.5587658900767565">
        <ele>637</ele>
        <time>2017-08-06T04:54:31.000Z</time>
      </trkpt>
      <trkpt lat="43.3350842166692" lon="-6.558747868984938">
        <ele>637.2</ele>
        <time>2017-08-06T04:54:34.000Z</time>
      </trkpt>
      <trkpt lat="43.335120677948" lon="-6.558686597272754">
        <ele>637.4</ele>
        <time>2017-08-06T04:54:40.000Z</time>
      </trkpt>
      <trkpt lat="43.33512696437538" lon="-6.558672096580267">
        <ele>637.4</ele>
        <time>2017-08-06T04:54:41.000Z</time>
      </trkpt>
      <trkpt lat="43.33514724858105" lon="-6.558644939213991">
        <ele>637.6</ele>
        <time>2017-08-06T04:54:44.000Z</time>
      </trkpt>
      <trkpt lat="43.335172394290566" lon="-6.558604706078768">
        <ele>637.6</ele>
        <time>2017-08-06T04:54:48.000Z</time>
      </trkpt>
      <trkpt lat="43.33521807566285" lon="-6.558553744107485">
        <ele>638</ele>
        <time>2017-08-06T04:54:54.000Z</time>
      </trkpt>
      <trkpt lat="43.33528881892562" lon="-6.558505799621344">
        <ele>639.6</ele>
        <time>2017-08-06T04:55:02.000Z</time>
      </trkpt>
      <trkpt lat="43.335381522774696" lon="-6.558424914255738">
        <ele>641.6</ele>
        <time>2017-08-06T04:55:12.000Z</time>
      </trkpt>
      <trkpt lat="43.33548001013696" lon="-6.558312764391303">
        <ele>643.6</ele>
        <time>2017-08-06T04:55:23.000Z</time>
      </trkpt>
      <trkpt lat="43.335571959614754" lon="-6.558259204030037">
        <ele>644.8</ele>
        <time>2017-08-06T04:55:32.000Z</time>
      </trkpt>
      <trkpt lat="43.33564278669655" lon="-6.558228358626366">
        <ele>645.6</ele>
        <time>2017-08-06T04:55:40.000Z</time>
      </trkpt>
      <trkpt lat="43.33573389798403" lon="-6.558223832398653">
        <ele>646.8</ele>
        <time>2017-08-06T04:55:50.000Z</time>
      </trkpt>
      <trkpt lat="43.33580589853227" lon="-6.55823640525341">
        <ele>647.8</ele>
        <time>2017-08-06T04:55:58.000Z</time>
      </trkpt>
      <trkpt lat="43.33588217385113" lon="-6.558274962007999">
        <ele>648.2</ele>
        <time>2017-08-06T04:56:06.000Z</time>
      </trkpt>
      <trkpt lat="43.3359476365149" lon="-6.558334473520517">
        <ele>649.4</ele>
        <time>2017-08-06T04:56:13.000Z</time>
      </trkpt>
      <trkpt lat="43.33599985577166" lon="-6.558417370542884">
        <ele>650.2</ele>
        <time>2017-08-06T04:56:21.000Z</time>
      </trkpt>
      <trkpt lat="43.33602366037667" lon="-6.558527005836368">
        <ele>651.2</ele>
        <time>2017-08-06T04:56:29.000Z</time>
      </trkpt>
      <trkpt lat="43.33603790961206" lon="-6.558655248954892">
        <ele>652.2</ele>
        <time>2017-08-06T04:56:38.000Z</time>
      </trkpt>
      <trkpt lat="43.33604830317199" lon="-6.558750048279762">
        <ele>652.8</ele>
        <time>2017-08-06T04:56:45.000Z</time>
      </trkpt>
      <trkpt lat="43.33605685271323" lon="-6.5588892716914415">
        <ele>653.8</ele>
        <time>2017-08-06T04:56:55.000Z</time>
      </trkpt>
      <trkpt lat="43.336056685075164" lon="-6.5589287504553795">
        <ele>654.4</ele>
        <time>2017-08-06T04:56:58.000Z</time>
      </trkpt>
      <trkpt lat="43.3360480517149" lon="-6.558969151228666">
        <ele>655.2</ele>
        <time>2017-08-06T04:57:01.000Z</time>
      </trkpt>
      <trkpt lat="43.336046040058136" lon="-6.558981221169233">
        <ele>655.4</ele>
        <time>2017-08-06T04:57:02.000Z</time>
      </trkpt>
      <trkpt lat="43.33603740669787" lon="-6.5589982364326715">
        <ele>655.6</ele>
        <time>2017-08-06T04:57:03.000Z</time>
      </trkpt>
      <trkpt lat="43.336026007309556" lon="-6.559023382142186">
        <ele>656</ele>
        <time>2017-08-06T04:57:05.000Z</time>
      </trkpt>
      <trkpt lat="43.33602340891957" lon="-6.559039726853371">
        <ele>656.2</ele>
        <time>2017-08-06T04:57:06.000Z</time>
      </trkpt>
      <trkpt lat="43.33601360209286" lon="-6.559114325791597">
        <ele>657.8</ele>
        <time>2017-08-06T04:57:10.000Z</time>
      </trkpt>
      <trkpt lat="43.3360115904361" lon="-6.559126311913133">
        <ele>658</ele>
        <time>2017-08-06T04:57:11.000Z</time>
      </trkpt>
      <trkpt lat="43.33599650301039" lon="-6.559198647737503">
        <ele>659.4</ele>
        <time>2017-08-06T04:57:18.000Z</time>
      </trkpt>
      <trkpt lat="43.33595300093293" lon="-6.55923611484468">
        <ele>659.6</ele>
        <time>2017-08-06T04:57:26.000Z</time>
      </trkpt>
      <trkpt lat="43.3359114266932" lon="-6.559268217533827">
        <ele>659.6</ele>
        <time>2017-08-06T04:57:32.000Z</time>
      </trkpt>
      <trkpt lat="43.335896003991365" lon="-6.559301409870386">
        <ele>660.2</ele>
        <time>2017-08-06T04:57:43.000Z</time>
      </trkpt>
      <trkpt lat="43.3358701877296" lon="-6.559292189776897">
        <ele>659.6</ele>
        <time>2017-08-06T04:58:20.000Z</time>
      </trkpt>
      <trkpt lat="43.33585015498102" lon="-6.559304678812623">
        <ele>659.6</ele>
        <time>2017-08-06T04:58:31.000Z</time>
      </trkpt>
      <trkpt lat="43.335879324004054" lon="-6.559303002431989">
        <ele>660</ele>
        <time>2017-08-06T04:59:31.000Z</time>
      </trkpt>
      <trkpt lat="43.33587069064379" lon="-6.559308869764209">
        <ele>660</ele>
        <time>2017-08-06T05:00:57.000Z</time>
      </trkpt>
      <trkpt lat="43.33587069064379" lon="-6.559304343536496">
        <ele>659.8</ele>
        <time>2017-08-06T05:01:00.000Z</time>
      </trkpt>
      <trkpt lat="43.33586256019771" lon="-6.55933141708374">
        <ele>660.2</ele>
        <time>2017-08-06T05:01:02.000Z</time>
      </trkpt>
      <trkpt lat="43.33585325628519" lon="-6.559352707117796">
        <ele>660.6</ele>
        <time>2017-08-06T05:01:05.000Z</time>
      </trkpt>
      <trkpt lat="43.33584981970489" lon="-6.559346839785576">
        <ele>660.4</ele>
        <time>2017-08-06T05:01:33.000Z</time>
      </trkpt>
      <trkpt lat="43.33585191518068" lon="-6.55934608541429">
        <ele>660.4</ele>
        <time>2017-08-06T05:01:35.000Z</time>
      </trkpt>
      <trkpt lat="43.33583657629788" lon="-6.559374500066042">
        <ele>660.8</ele>
        <time>2017-08-06T05:01:51.000Z</time>
      </trkpt>
      <trkpt lat="43.33583867177367" lon="-6.559379361569881">
        <ele>661</ele>
        <time>2017-08-06T05:01:53.000Z</time>
      </trkpt>
      <trkpt lat="43.33586549386382" lon="-6.55929671600461">
        <ele>659.6</ele>
        <time>2017-08-06T05:03:34.000Z</time>
      </trkpt>
      <trkpt lat="43.335888627916574" lon="-6.559270396828651">
        <ele>659.4</ele>
        <time>2017-08-06T05:03:37.000Z</time>
      </trkpt>
      <trkpt lat="43.335910672321916" lon="-6.559253549203277">
        <ele>659.2</ele>
        <time>2017-08-06T05:03:40.000Z</time>
      </trkpt>
      <trkpt lat="43.33593439310789" lon="-6.559256482869387">
        <ele>659.6</ele>
        <time>2017-08-06T05:03:47.000Z</time>
      </trkpt>
      <trkpt lat="43.33595937117934" lon="-6.559257321059704">
        <ele>660</ele>
        <time>2017-08-06T05:04:03.000Z</time>
      </trkpt>
      <trkpt lat="43.335965322330594" lon="-6.559286406263709">
        <ele>660.8</ele>
        <time>2017-08-06T05:04:08.000Z</time>
      </trkpt>
      <trkpt lat="43.33594654686749" lon="-6.559294955804944">
        <ele>660.8</ele>
        <time>2017-08-06T05:04:29.000Z</time>
      </trkpt>
      <trkpt lat="43.335925256833434" lon="-6.559343738481402">
        <ele>661.6</ele>
        <time>2017-08-06T05:04:36.000Z</time>
      </trkpt>
      <trkpt lat="43.335911091417074" lon="-6.559392940253019">
        <ele>663</ele>
        <time>2017-08-06T05:04:43.000Z</time>
      </trkpt>
      <trkpt lat="43.33590304479003" lon="-6.5594264678657055">
        <ele>663.8</ele>
        <time>2017-08-06T05:04:46.000Z</time>
      </trkpt>
      <trkpt lat="43.33590011112392" lon="-6.559428730979562">
        <ele>663.8</ele>
        <time>2017-08-06T05:04:47.000Z</time>
      </trkpt>
      <trkpt lat="43.33590069785714" lon="-6.559439292177558">
        <ele>664.2</ele>
        <time>2017-08-06T05:04:48.000Z</time>
      </trkpt>
      <trkpt lat="43.33588561043143" lon="-6.5594838839024305">
        <ele>665</ele>
        <time>2017-08-06T05:04:52.000Z</time>
      </trkpt>
      <trkpt lat="43.33587965928018" lon="-6.5594947803765535">
        <ele>665</ele>
        <time>2017-08-06T05:04:53.000Z</time>
      </trkpt>
      <trkpt lat="43.335852501913905" lon="-6.559569211676717">
        <ele>666</ele>
        <time>2017-08-06T05:04:58.000Z</time>
      </trkpt>
      <trkpt lat="43.33584495820105" lon="-6.559587484225631">
        <ele>666.2</ele>
        <time>2017-08-06T05:05:00.000Z</time>
      </trkpt>
      <trkpt lat="43.33583263680339" lon="-6.559629309922457">
        <ele>666.8</ele>
        <time>2017-08-06T05:05:04.000Z</time>
      </trkpt>
      <trkpt lat="43.33582241088152" lon="-6.55965487472713">
        <ele>667</ele>
        <time>2017-08-06T05:05:08.000Z</time>
      </trkpt>
      <trkpt lat="43.33578485995531" lon="-6.559709357097745">
        <ele>667.2</ele>
        <time>2017-08-06T05:05:14.000Z</time>
      </trkpt>
      <trkpt lat="43.33574529737234" lon="-6.559764761477709">
        <ele>667.4</ele>
        <time>2017-08-06T05:05:19.000Z</time>
      </trkpt>
      <trkpt lat="43.33573993295431" lon="-6.5597745683044195">
        <ele>667.4</ele>
        <time>2017-08-06T05:05:20.000Z</time>
      </trkpt>
      <trkpt lat="43.33570816554129" lon="-6.559843802824616">
        <ele>668</ele>
        <time>2017-08-06T05:05:26.000Z</time>
      </trkpt>
      <trkpt lat="43.335701543837786" lon="-6.55985863879323">
        <ele>668.2</ele>
        <time>2017-08-06T05:05:27.000Z</time>
      </trkpt>
      <trkpt lat="43.33565041422844" lon="-6.5599609818309546">
        <ele>668.8</ele>
        <time>2017-08-06T05:05:35.000Z</time>
      </trkpt>
      <trkpt lat="43.335645301267505" lon="-6.559973303228617">
        <ele>669</ele>
        <time>2017-08-06T05:05:36.000Z</time>
      </trkpt>
      <trkpt lat="43.335623759776354" lon="-6.560012446716428">
        <ele>669.2</ele>
        <time>2017-08-06T05:05:41.000Z</time>
      </trkpt>
      <trkpt lat="43.33561420440674" lon="-6.560022002086043">
        <ele>669.2</ele>
        <time>2017-08-06T05:05:43.000Z</time>
      </trkpt>
      <trkpt lat="43.33558738231659" lon="-6.560068856924772">
        <ele>669.4</ele>
        <time>2017-08-06T05:05:47.000Z</time>
      </trkpt>
      <trkpt lat="43.33558243699372" lon="-6.560079166665673">
        <ele>669.4</ele>
        <time>2017-08-06T05:05:48.000Z</time>
      </trkpt>
      <trkpt lat="43.33555812947452" lon="-6.560113616287708">
        <ele>669.4</ele>
        <time>2017-08-06T05:05:53.000Z</time>
      </trkpt>
      <trkpt lat="43.33554597571492" lon="-6.560135325416923">
        <ele>669.6</ele>
        <time>2017-08-06T05:05:55.000Z</time>
      </trkpt>
      <trkpt lat="43.335524098947644" lon="-6.560186622664332">
        <ele>670</ele>
        <time>2017-08-06T05:05:59.000Z</time>
      </trkpt>
      <trkpt lat="43.33549266681075" lon="-6.5602631494402885">
        <ele>670.8</ele>
        <time>2017-08-06T05:06:05.000Z</time>
      </trkpt>
      <trkpt lat="43.33549442701042" lon="-6.560275554656982">
        <ele>671</ele>
        <time>2017-08-06T05:06:06.000Z</time>
      </trkpt>
      <trkpt lat="43.33548436872661" lon="-6.560328612104058">
        <ele>672</ele>
        <time>2017-08-06T05:06:10.000Z</time>
      </trkpt>
      <trkpt lat="43.33546567708254" lon="-6.5604254230856895">
        <ele>674</ele>
        <time>2017-08-06T05:06:17.000Z</time>
      </trkpt>
      <trkpt lat="43.335460564121604" lon="-6.560443863272667">
        <ele>674.4</ele>
        <time>2017-08-06T05:06:18.000Z</time>
      </trkpt>
      <trkpt lat="43.33544514141977" lon="-6.5605073142796755">
        <ele>675.6</ele>
        <time>2017-08-06T05:06:22.000Z</time>
      </trkpt>
      <trkpt lat="43.33544421941042" lon="-6.560525419190526">
        <ele>676</ele>
        <time>2017-08-06T05:06:23.000Z</time>
      </trkpt>
      <trkpt lat="43.33543483167887" lon="-6.560593983158469">
        <ele>677.6</ele>
        <time>2017-08-06T05:06:28.000Z</time>
      </trkpt>
      <trkpt lat="43.33543726243079" lon="-6.560630276799202">
        <ele>678.6</ele>
        <time>2017-08-06T05:06:31.000Z</time>
      </trkpt>
      <trkpt lat="43.33543784916401" lon="-6.560683250427246">
        <ele>680</ele>
        <time>2017-08-06T05:06:35.000Z</time>
      </trkpt>
      <trkpt lat="43.33543541841209" lon="-6.560697667300701">
        <ele>680.2</ele>
        <time>2017-08-06T05:06:36.000Z</time>
      </trkpt>
      <trkpt lat="43.3354280423373" lon="-6.560809146612883">
        <ele>682.8</ele>
        <time>2017-08-06T05:06:43.000Z</time>
      </trkpt>
      <trkpt lat="43.335429802536964" lon="-6.56083102338016">
        <ele>683.4</ele>
        <time>2017-08-06T05:06:45.000Z</time>
      </trkpt>
      <trkpt lat="43.33542326465249" lon="-6.560856252908707">
        <ele>683.8</ele>
        <time>2017-08-06T05:06:48.000Z</time>
      </trkpt>
      <trkpt lat="43.33539677783847" lon="-6.560936970636249">
        <ele>684.4</ele>
        <time>2017-08-06T05:06:56.000Z</time>
      </trkpt>
      <trkpt lat="43.33537372760475" lon="-6.561018778011203">
        <ele>685</ele>
        <time>2017-08-06T05:07:03.000Z</time>
      </trkpt>
      <trkpt lat="43.335376074537635" lon="-6.561030428856611">
        <ele>685.2</ele>
        <time>2017-08-06T05:07:04.000Z</time>
      </trkpt>
      <trkpt lat="43.335355622693896" lon="-6.561078289523721">
        <ele>685.2</ele>
        <time>2017-08-06T05:07:08.000Z</time>
      </trkpt>
      <trkpt lat="43.335334751755" lon="-6.561168562620878">
        <ele>686.4</ele>
        <time>2017-08-06T05:07:15.000Z</time>
      </trkpt>
      <trkpt lat="43.33531924523413" lon="-6.561240814626217">
        <ele>687.6</ele>
        <time>2017-08-06T05:07:21.000Z</time>
      </trkpt>
      <trkpt lat="43.33530499599874" lon="-6.5613211132586">
        <ele>689.2</ele>
        <time>2017-08-06T05:07:28.000Z</time>
      </trkpt>
      <trkpt lat="43.33530005067587" lon="-6.561342738568783">
        <ele>689.6</ele>
        <time>2017-08-06T05:07:30.000Z</time>
      </trkpt>
      <trkpt lat="43.33528756164014" lon="-6.561391018331051">
        <ele>689.6</ele>
        <time>2017-08-06T05:07:34.000Z</time>
      </trkpt>
      <trkpt lat="43.3352813590318" lon="-6.56141247600317">
        <ele>689.8</ele>
        <time>2017-08-06T05:07:36.000Z</time>
      </trkpt>
      <trkpt lat="43.33526300266385" lon="-6.561482967808843">
        <ele>690.2</ele>
        <time>2017-08-06T05:07:42.000Z</time>
      </trkpt>
      <trkpt lat="43.3352620806545" lon="-6.561496797949076">
        <ele>690.4</ele>
        <time>2017-08-06T05:07:43.000Z</time>
      </trkpt>
      <trkpt lat="43.33525621332228" lon="-6.561532588675618">
        <ele>690.8</ele>
        <time>2017-08-06T05:07:46.000Z</time>
      </trkpt>
      <trkpt lat="43.335253866389394" lon="-6.561545664444566">
        <ele>690.8</ele>
        <time>2017-08-06T05:07:47.000Z</time>
      </trkpt>
      <trkpt lat="43.33524816669524" lon="-6.561582460999489">
        <ele>691.2</ele>
        <time>2017-08-06T05:07:50.000Z</time>
      </trkpt>
      <trkpt lat="43.33523366600275" lon="-6.5616558864712715">
        <ele>691.8</ele>
        <time>2017-08-06T05:07:55.000Z</time>
      </trkpt>
      <trkpt lat="43.33520743064582" lon="-6.561733419075608">
        <ele>692.2</ele>
        <time>2017-08-06T05:08:02.000Z</time>
      </trkpt>
      <trkpt lat="43.33516954444349" lon="-6.56181120313704">
        <ele>692.8</ele>
        <time>2017-08-06T05:08:09.000Z</time>
      </trkpt>
      <trkpt lat="43.3351584803313" lon="-6.561851100996137">
        <ele>693</ele>
        <time>2017-08-06T05:08:12.000Z</time>
      </trkpt>
      <trkpt lat="43.33514800295234" lon="-6.561870211735368">
        <ele>693.2</ele>
        <time>2017-08-06T05:08:14.000Z</time>
      </trkpt>
      <trkpt lat="43.33514221943915" lon="-6.561900470405817">
        <ele>693.6</ele>
        <time>2017-08-06T05:08:16.000Z</time>
      </trkpt>
      <trkpt lat="43.33512713201344" lon="-6.561929052695632">
        <ele>693.6</ele>
        <time>2017-08-06T05:08:19.000Z</time>
      </trkpt>
      <trkpt lat="43.33509058691561" lon="-6.561989402398467">
        <ele>694</ele>
        <time>2017-08-06T05:08:26.000Z</time>
      </trkpt>
      <trkpt lat="43.33505739457905" lon="-6.562057211995125">
        <ele>694.6</ele>
        <time>2017-08-06T05:08:33.000Z</time>
      </trkpt>
      <trkpt lat="43.33504389971495" lon="-6.5621020551770926">
        <ele>695.2</ele>
        <time>2017-08-06T05:08:37.000Z</time>
      </trkpt>
      <trkpt lat="43.335034092888236" lon="-6.562127787619829">
        <ele>695.4</ele>
        <time>2017-08-06T05:08:39.000Z</time>
      </trkpt>
      <trkpt lat="43.3350168261677" lon="-6.562175899744034">
        <ele>696</ele>
        <time>2017-08-06T05:08:43.000Z</time>
      </trkpt>
      <trkpt lat="43.334996877238154" lon="-6.562222251668572">
        <ele>696.4</ele>
        <time>2017-08-06T05:08:47.000Z</time>
      </trkpt>
      <trkpt lat="43.334956308826804" lon="-6.56229542568326">
        <ele>697.2</ele>
        <time>2017-08-06T05:08:53.000Z</time>
      </trkpt>
      <trkpt lat="43.33489612676203" lon="-6.562403971329331">
        <ele>698.8</ele>
        <time>2017-08-06T05:09:02.000Z</time>
      </trkpt>
      <trkpt lat="43.334884056821465" lon="-6.562434732913971">
        <ele>699.2</ele>
        <time>2017-08-06T05:09:04.000Z</time>
      </trkpt>
      <trkpt lat="43.33485589362681" lon="-6.56249382533133">
        <ele>700</ele>
        <time>2017-08-06T05:09:08.000Z</time>
      </trkpt>
      <trkpt lat="43.33479537628591" lon="-6.562585020437837">
        <ele>701</ele>
        <time>2017-08-06T05:09:15.000Z</time>
      </trkpt>
      <trkpt lat="43.33474650979042" lon="-6.562675377354026">
        <ele>701.8</ele>
        <time>2017-08-06T05:09:22.000Z</time>
      </trkpt>
      <trkpt lat="43.334712060168386" lon="-6.562738325446844">
        <ele>702.4</ele>
        <time>2017-08-06T05:09:27.000Z</time>
      </trkpt>
      <trkpt lat="43.33471667021513" lon="-6.562819126993418">
        <ele>704.2</ele>
        <time>2017-08-06T05:09:33.000Z</time>
      </trkpt>
      <trkpt lat="43.33472823724151" lon="-6.562884254381061">
        <ele>705.6</ele>
        <time>2017-08-06T05:09:40.000Z</time>
      </trkpt>
      <trkpt lat="43.33472019061446" lon="-6.562941502779722">
        <ele>706.4</ele>
        <time>2017-08-06T05:09:46.000Z</time>
      </trkpt>
      <trkpt lat="43.33470745012164" lon="-6.562988106161356">
        <ele>707</ele>
        <time>2017-08-06T05:09:53.000Z</time>
      </trkpt>
      <trkpt lat="43.33468138240278" lon="-6.563044264912605">
        <ele>707.6</ele>
        <time>2017-08-06T05:10:04.000Z</time>
      </trkpt>
      <trkpt lat="43.334628911688924" lon="-6.563079133629799">
        <ele>707.8</ele>
        <time>2017-08-06T05:10:10.000Z</time>
      </trkpt>
      <trkpt lat="43.33456370048225" lon="-6.563106374815106">
        <ele>708</ele>
        <time>2017-08-06T05:10:17.000Z</time>
      </trkpt>
      <trkpt lat="43.33450477570295" lon="-6.563156833872199">
        <ele>708.6</ele>
        <time>2017-08-06T05:10:23.000Z</time>
      </trkpt>
      <trkpt lat="43.33443654701114" lon="-6.563226152211428">
        <ele>709.6</ele>
        <time>2017-08-06T05:10:30.000Z</time>
      </trkpt>
      <trkpt lat="43.33437267690897" lon="-6.563282730057836">
        <ele>710.2</ele>
        <time>2017-08-06T05:10:36.000Z</time>
      </trkpt>
      <trkpt lat="43.33429019898176" lon="-6.563332183286548">
        <ele>710.4</ele>
        <time>2017-08-06T05:10:43.000Z</time>
      </trkpt>
      <trkpt lat="43.33426522091031" lon="-6.563353892415762">
        <ele>710.6</ele>
        <time>2017-08-06T05:10:49.000Z</time>
      </trkpt>
      <trkpt lat="43.33419447764754" lon="-6.563393706455827">
        <ele>710.8</ele>
        <time>2017-08-06T05:13:50.000Z</time>
      </trkpt>
      <trkpt lat="43.334162291139364" lon="-6.563420612365007">
        <ele>711</ele>
        <time>2017-08-06T05:13:56.000Z</time>
      </trkpt>
      <trkpt lat="43.334098337218165" lon="-6.563481884077191">
        <ele>711.4</ele>
        <time>2017-08-06T05:14:04.000Z</time>
      </trkpt>
      <trkpt lat="43.33404184319079" lon="-6.5635366179049015">
        <ele>711.6</ele>
        <time>2017-08-06T05:14:12.000Z</time>
      </trkpt>
      <trkpt lat="43.33400135859847" lon="-6.563571402803063">
        <ele>711.6</ele>
        <time>2017-08-06T05:14:19.000Z</time>
      </trkpt>
      <trkpt lat="43.3339654840529" lon="-6.563604176044464">
        <ele>711.6</ele>
        <time>2017-08-06T05:14:24.000Z</time>
      </trkpt>
      <trkpt lat="43.33388837054372" lon="-6.563676930963993">
        <ele>712.6</ele>
        <time>2017-08-06T05:14:32.000Z</time>
      </trkpt>
      <trkpt lat="43.33379650488496" lon="-6.563779022544622">
        <ele>714.4</ele>
        <time>2017-08-06T05:14:42.000Z</time>
      </trkpt>
      <trkpt lat="43.333722492679954" lon="-6.563835516571999">
        <ele>714.8</ele>
        <time>2017-08-06T05:14:49.000Z</time>
      </trkpt>
      <trkpt lat="43.333691228181124" lon="-6.56385806389153">
        <ele>715</ele>
        <time>2017-08-06T05:14:52.000Z</time>
      </trkpt>
      <trkpt lat="43.33365879021585" lon="-6.563879521563649">
        <ele>715</ele>
        <time>2017-08-06T05:14:55.000Z</time>
      </trkpt>
      <trkpt lat="43.333640014752746" lon="-6.563886646181345">
        <ele>715</ele>
        <time>2017-08-06T05:14:57.000Z</time>
      </trkpt>
      <trkpt lat="43.33358796313405" lon="-6.563917323946953">
        <ele>714.8</ele>
        <time>2017-08-06T05:15:02.000Z</time>
      </trkpt>
      <trkpt lat="43.33352526649833" lon="-6.563974153250456">
        <ele>715.4</ele>
        <time>2017-08-06T05:15:08.000Z</time>
      </trkpt>
      <trkpt lat="43.33350598812103" lon="-6.563984882086515">
        <ele>715.2</ele>
        <time>2017-08-06T05:15:10.000Z</time>
      </trkpt>
      <trkpt lat="43.33349567838013" lon="-6.563994772732258">
        <ele>715.4</ele>
        <time>2017-08-06T05:15:11.000Z</time>
      </trkpt>
      <trkpt lat="43.33344823680818" lon="-6.564031317830086">
        <ele>715.6</ele>
        <time>2017-08-06T05:15:16.000Z</time>
      </trkpt>
      <trkpt lat="43.33340976387262" lon="-6.564050680026412">
        <ele>715.4</ele>
        <time>2017-08-06T05:15:20.000Z</time>
      </trkpt>
      <trkpt lat="43.33340674638748" lon="-6.564072892069817">
        <ele>716</ele>
        <time>2017-08-06T05:15:22.000Z</time>
      </trkpt>
      <trkpt lat="43.33340121433139" lon="-6.564077502116561">
        <ele>716</ele>
        <time>2017-08-06T05:15:23.000Z</time>
      </trkpt>
      <trkpt lat="43.333339523524046" lon="-6.5641173999756575">
        <ele>716</ele>
        <time>2017-08-06T05:15:30.000Z</time>
      </trkpt>
      <trkpt lat="43.3333177305758" lon="-6.564131481572986">
        <ele>716</ele>
        <time>2017-08-06T05:15:32.000Z</time>
      </trkpt>
      <trkpt lat="43.33328487351537" lon="-6.5641497541219">
        <ele>716</ele>
        <time>2017-08-06T05:15:35.000Z</time>
      </trkpt>
      <trkpt lat="43.3331829495728" lon="-6.564185628667474">
        <ele>716</ele>
        <time>2017-08-06T05:15:44.000Z</time>
      </trkpt>
      <trkpt lat="43.333090329542756" lon="-6.5642269514501095">
        <ele>715.8</ele>
        <time>2017-08-06T05:15:51.000Z</time>
      </trkpt>
      <trkpt lat="43.33300114609301" lon="-6.564280427992344">
        <ele>716</ele>
        <time>2017-08-06T05:15:58.000Z</time>
      </trkpt>
      <trkpt lat="43.33298840560019" lon="-6.5642792545259">
        <ele>715.6</ele>
        <time>2017-08-06T05:15:59.000Z</time>
      </trkpt>
      <trkpt lat="43.3329276368022" lon="-6.564310351386666">
        <ele>715.2</ele>
        <time>2017-08-06T05:16:04.000Z</time>
      </trkpt>
      <trkpt lat="43.33287340588868" lon="-6.564345136284828">
        <ele>715</ele>
        <time>2017-08-06T05:16:09.000Z</time>
      </trkpt>
      <trkpt lat="43.33285949192941" lon="-6.564343459904194">
        <ele>714.8</ele>
        <time>2017-08-06T05:16:10.000Z</time>
      </trkpt>
      <trkpt lat="43.332794113084674" lon="-6.564383944496512">
        <ele>714.2</ele>
        <time>2017-08-06T05:16:16.000Z</time>
      </trkpt>
      <trkpt lat="43.33274030126631" lon="-6.564419232308865">
        <ele>713.8</ele>
        <time>2017-08-06T05:16:21.000Z</time>
      </trkpt>
      <trkpt lat="43.33269763737917" lon="-6.5644363313913345">
        <ele>713</ele>
        <time>2017-08-06T05:16:24.000Z</time>
      </trkpt>
      <trkpt lat="43.33266788162291" lon="-6.564450664445758">
        <ele>712.6</ele>
        <time>2017-08-06T05:16:27.000Z</time>
      </trkpt>
      <trkpt lat="43.33263552747667" lon="-6.564465165138245">
        <ele>712</ele>
        <time>2017-08-06T05:16:30.000Z</time>
      </trkpt>
      <trkpt lat="43.33257760852575" lon="-6.5645211562514305">
        <ele>711.8</ele>
        <time>2017-08-06T05:16:36.000Z</time>
      </trkpt>
      <trkpt lat="43.332566963508725" lon="-6.564527275040746">
        <ele>711.6</ele>
        <time>2017-08-06T05:16:37.000Z</time>
      </trkpt>
      <trkpt lat="43.3325045183301" lon="-6.564567172899842">
        <ele>710.6</ele>
        <time>2017-08-06T05:16:43.000Z</time>
      </trkpt>
      <trkpt lat="43.33247241564095" lon="-6.564591312780976">
        <ele>710.4</ele>
        <time>2017-08-06T05:16:46.000Z</time>
      </trkpt>
      <trkpt lat="43.332443330436945" lon="-6.564615201205015">
        <ele>710.2</ele>
        <time>2017-08-06T05:16:49.000Z</time>
      </trkpt>
      <trkpt lat="43.332380047068" lon="-6.564677897840738">
        <ele>710.6</ele>
        <time>2017-08-06T05:16:55.000Z</time>
      </trkpt>
      <trkpt lat="43.33237183280289" lon="-6.564693823456764">
        <ele>711</ele>
        <time>2017-08-06T05:16:56.000Z</time>
      </trkpt>
      <trkpt lat="43.33233604207635" lon="-6.564715784043074">
        <ele>710.8</ele>
        <time>2017-08-06T05:16:59.000Z</time>
      </trkpt>
      <trkpt lat="43.33227342925966" lon="-6.564771104604006">
        <ele>711.2</ele>
        <time>2017-08-06T05:17:05.000Z</time>
      </trkpt>
      <trkpt lat="43.33222825080156" lon="-6.5648233238607645">
        <ele>712.2</ele>
        <time>2017-08-06T05:17:10.000Z</time>
      </trkpt>
      <trkpt lat="43.332193130627275" lon="-6.5648445300757885">
        <ele>712.2</ele>
        <time>2017-08-06T05:17:13.000Z</time>
      </trkpt>
      <trkpt lat="43.332186760380864" lon="-6.564853331074119">
        <ele>712.4</ele>
        <time>2017-08-06T05:17:14.000Z</time>
      </trkpt>
      <trkpt lat="43.332180976867676" lon="-6.564861293882132">
        <ele>712.4</ele>
        <time>2017-08-06T05:17:15.000Z</time>
      </trkpt>
      <trkpt lat="43.332115765661" lon="-6.564931198954582">
        <ele>713.4</ele>
        <time>2017-08-06T05:17:21.000Z</time>
      </trkpt>
      <trkpt lat="43.33210553973913" lon="-6.564951064065099">
        <ele>713.8</ele>
        <time>2017-08-06T05:17:22.000Z</time>
      </trkpt>
      <trkpt lat="43.3320779632777" lon="-6.565001187846065">
        <ele>715</ele>
        <time>2017-08-06T05:17:25.000Z</time>
      </trkpt>
      <trkpt lat="43.33203848451376" lon="-6.565082911401987">
        <ele>717.4</ele>
        <time>2017-08-06T05:17:29.000Z</time>
      </trkpt>
      <trkpt lat="43.33202716894448" lon="-6.5650898683816195">
        <ele>717.4</ele>
        <time>2017-08-06T05:17:30.000Z</time>
      </trkpt>
      <trkpt lat="43.33201551809907" lon="-6.565106380730867">
        <ele>717.8</ele>
        <time>2017-08-06T05:17:31.000Z</time>
      </trkpt>
      <trkpt lat="43.33198048174381" lon="-6.565131107345223">
        <ele>718</ele>
        <time>2017-08-06T05:17:34.000Z</time>
      </trkpt>
      <trkpt lat="43.33196606487036" lon="-6.565135549753904">
        <ele>717.8</ele>
        <time>2017-08-06T05:17:35.000Z</time>
      </trkpt>
      <trkpt lat="43.331906972453" lon="-6.565187433734536">
        <ele>718.6</ele>
        <time>2017-08-06T05:17:41.000Z</time>
      </trkpt>
      <trkpt lat="43.33188350312412" lon="-6.565215094015002">
        <ele>719</ele>
        <time>2017-08-06T05:17:44.000Z</time>
      </trkpt>
      <trkpt lat="43.33186657167971" lon="-6.565242083743215">
        <ele>719.8</ele>
        <time>2017-08-06T05:17:46.000Z</time>
      </trkpt>
      <trkpt lat="43.33183329552412" lon="-6.565245687961578">
        <ele>719</ele>
        <time>2017-08-06T05:17:49.000Z</time>
      </trkpt>
      <trkpt lat="43.331824662163854" lon="-6.565251974388957">
        <ele>719</ele>
        <time>2017-08-06T05:17:50.000Z</time>
      </trkpt>
      <trkpt lat="43.33178451284766" lon="-6.56528047285974">
        <ele>719</ele>
        <time>2017-08-06T05:17:54.000Z</time>
      </trkpt>
      <trkpt lat="43.331764144822955" lon="-6.565289609134197">
        <ele>718.8</ele>
        <time>2017-08-06T05:17:56.000Z</time>
      </trkpt>
      <trkpt lat="43.33173053339124" lon="-6.565300337970257">
        <ele>718.4</ele>
        <time>2017-08-06T05:17:59.000Z</time>
      </trkpt>
      <trkpt lat="43.331715278327465" lon="-6.565334955230355">
        <ele>719</ele>
        <time>2017-08-06T05:18:02.000Z</time>
      </trkpt>
      <trkpt lat="43.3316704351455" lon="-6.565371667966247">
        <ele>719</ele>
        <time>2017-08-06T05:18:08.000Z</time>
      </trkpt>
      <trkpt lat="43.331621401011944" lon="-6.565389940515161">
        <ele>718</ele>
        <time>2017-08-06T05:18:13.000Z</time>
      </trkpt>
      <trkpt lat="43.3315665833652" lon="-6.565430257469416">
        <ele>717.6</ele>
        <time>2017-08-06T05:18:18.000Z</time>
      </trkpt>
      <trkpt lat="43.331544203683734" lon="-6.565433945506811">
        <ele>717</ele>
        <time>2017-08-06T05:18:21.000Z</time>
      </trkpt>
      <trkpt lat="43.331513442099094" lon="-6.56543729826808">
        <ele>716.2</ele>
        <time>2017-08-06T05:18:24.000Z</time>
      </trkpt>
      <trkpt lat="43.3315097540617" lon="-6.565444841980934">
        <ele>716.2</ele>
        <time>2017-08-06T05:18:25.000Z</time>
      </trkpt>
      <trkpt lat="43.33147664554417" lon="-6.565465796738863">
        <ele>715.8</ele>
        <time>2017-08-06T05:18:28.000Z</time>
      </trkpt>
      <trkpt lat="43.33144588395953" lon="-6.5654906909912825">
        <ele>715.6</ele>
        <time>2017-08-06T05:18:32.000Z</time>
      </trkpt>
      <trkpt lat="43.33141352981329" lon="-6.565510053187609">
        <ele>715.2</ele>
        <time>2017-08-06T05:18:36.000Z</time>
      </trkpt>
      <trkpt lat="43.33138821646571" lon="-6.565528744831681">
        <ele>715</ele>
        <time>2017-08-06T05:18:38.000Z</time>
      </trkpt>
      <trkpt lat="43.33137162029743" lon="-6.565546430647373">
        <ele>715</ele>
        <time>2017-08-06T05:18:40.000Z</time>
      </trkpt>
      <trkpt lat="43.33129718899727" lon="-6.565582640469074">
        <ele>714.8</ele>
        <time>2017-08-06T05:18:47.000Z</time>
      </trkpt>
      <trkpt lat="43.33125879988074" lon="-6.565604517236352">
        <ele>714.8</ele>
        <time>2017-08-06T05:18:50.000Z</time>
      </trkpt>
      <trkpt lat="43.33122979849577" lon="-6.565622789785266">
        <ele>715</ele>
        <time>2017-08-06T05:18:53.000Z</time>
      </trkpt>
      <trkpt lat="43.331201719120145" lon="-6.565636703744531">
        <ele>715</ele>
        <time>2017-08-06T05:18:56.000Z</time>
      </trkpt>
      <trkpt lat="43.33119115792215" lon="-6.5656358655542135">
        <ele>715</ele>
        <time>2017-08-06T05:18:57.000Z</time>
      </trkpt>
      <trkpt lat="43.33117984235287" lon="-6.565639218315482">
        <ele>714.8</ele>
        <time>2017-08-06T05:18:58.000Z</time>
      </trkpt>
      <trkpt lat="43.33114103414118" lon="-6.565654808655381">
        <ele>714.8</ele>
        <time>2017-08-06T05:19:02.000Z</time>
      </trkpt>
      <trkpt lat="43.33107900805771" lon="-6.565676601603627">
        <ele>714.8</ele>
        <time>2017-08-06T05:19:08.000Z</time>
      </trkpt>
      <trkpt lat="43.331025866791606" lon="-6.565686659887433">
        <ele>714.6</ele>
        <time>2017-08-06T05:19:13.000Z</time>
      </trkpt>
      <trkpt lat="43.3309880644083" lon="-6.565694622695446">
        <ele>714.4</ele>
        <time>2017-08-06T05:19:16.000Z</time>
      </trkpt>
      <trkpt lat="43.330976413562894" lon="-6.565691856667399">
        <ele>714.4</ele>
        <time>2017-08-06T05:19:17.000Z</time>
      </trkpt>
      <trkpt lat="43.33095269277692" lon="-6.565685151144862">
        <ele>714</ele>
        <time>2017-08-06T05:19:19.000Z</time>
      </trkpt>
      <trkpt lat="43.33088496699929" lon="-6.565697975456715">
        <ele>714</ele>
        <time>2017-08-06T05:19:24.000Z</time>
      </trkpt>
      <trkpt lat="43.33081539720297" lon="-6.565693030133843">
        <ele>713.6</ele>
        <time>2017-08-06T05:19:30.000Z</time>
      </trkpt>
      <trkpt lat="43.33075387403369" lon="-6.565712979063392">
        <ele>714</ele>
        <time>2017-08-06T05:19:36.000Z</time>
      </trkpt>
      <trkpt lat="43.33074406720698" lon="-6.565712979063392">
        <ele>714</ele>
        <time>2017-08-06T05:19:37.000Z</time>
      </trkpt>
      <trkpt lat="43.33069771528244" lon="-6.565721444785595">
        <ele>714.2</ele>
        <time>2017-08-06T05:19:41.000Z</time>
      </trkpt>
      <trkpt lat="43.3306048437953" lon="-6.565737957134843">
        <ele>714.6</ele>
        <time>2017-08-06T05:19:48.000Z</time>
      </trkpt>
      <trkpt lat="43.33052018657327" lon="-6.565748853608966">
        <ele>714.8</ele>
        <time>2017-08-06T05:19:54.000Z</time>
      </trkpt>
      <trkpt lat="43.33045732229948" lon="-6.565762935206294">
        <ele>715.2</ele>
        <time>2017-08-06T05:19:59.000Z</time>
      </trkpt>
      <trkpt lat="43.33043930120766" lon="-6.565768802538514">
        <ele>715.4</ele>
        <time>2017-08-06T05:20:01.000Z</time>
      </trkpt>
      <trkpt lat="43.33041365258396" lon="-6.565775843337178">
        <ele>715.8</ele>
        <time>2017-08-06T05:20:04.000Z</time>
      </trkpt>
      <trkpt lat="43.33036252297461" lon="-6.565789170563221">
        <ele>716.2</ele>
        <time>2017-08-06T05:20:08.000Z</time>
      </trkpt>
      <trkpt lat="43.33033259958029" lon="-6.565791936591268">
        <ele>716.4</ele>
        <time>2017-08-06T05:20:10.000Z</time>
      </trkpt>
      <trkpt lat="43.33027208223939" lon="-6.565810712054372">
        <ele>717</ele>
        <time>2017-08-06T05:20:14.000Z</time>
      </trkpt>
      <trkpt lat="43.330248948186636" lon="-6.565827643498778">
        <ele>717.4</ele>
        <time>2017-08-06T05:20:16.000Z</time>
      </trkpt>
      <trkpt lat="43.330232771113515" lon="-6.56583359465003">
        <ele>717.6</ele>
        <time>2017-08-06T05:20:17.000Z</time>
      </trkpt>
      <trkpt lat="43.33019505254924" lon="-6.565865529701114">
        <ele>717.8</ele>
        <time>2017-08-06T05:20:20.000Z</time>
      </trkpt>
      <trkpt lat="43.33012112416327" lon="-6.565924035385251">
        <ele>718</ele>
        <time>2017-08-06T05:20:26.000Z</time>
      </trkpt>
      <trkpt lat="43.33005717024207" lon="-6.565942307934165">
        <ele>717.8</ele>
        <time>2017-08-06T05:20:31.000Z</time>
      </trkpt>
      <trkpt lat="43.33004493266344" lon="-6.565944906324148">
        <ele>717.6</ele>
        <time>2017-08-06T05:20:32.000Z</time>
      </trkpt>
      <trkpt lat="43.32995415665209" lon="-6.565961418673396">
        <ele>717.2</ele>
        <time>2017-08-06T05:20:39.000Z</time>
      </trkpt>
      <trkpt lat="43.32980386912823" lon="-6.5659701358526945">
        <ele>715.6</ele>
        <time>2017-08-06T05:20:50.000Z</time>
      </trkpt>
      <trkpt lat="43.32968073897064" lon="-6.565948845818639">
        <ele>713.4</ele>
        <time>2017-08-06T05:21:00.000Z</time>
      </trkpt>
      <trkpt lat="43.3295445330441" lon="-6.565933171659708">
        <ele>712.2</ele>
        <time>2017-08-06T05:21:11.000Z</time>
      </trkpt>
      <trkpt lat="43.32945459522307" lon="-6.565929651260376">
        <ele>711.6</ele>
        <time>2017-08-06T05:21:19.000Z</time>
      </trkpt>
      <trkpt lat="43.3293476421386" lon="-6.565917665138841">
        <ele>710.8</ele>
        <time>2017-08-06T05:21:28.000Z</time>
      </trkpt>
      <trkpt lat="43.329221745952964" lon="-6.565900985151529">
        <ele>711</ele>
        <time>2017-08-06T05:21:39.000Z</time>
      </trkpt>
      <trkpt lat="43.32915510982275" lon="-6.565908612683415">
        <ele>711.2</ele>
        <time>2017-08-06T05:21:46.000Z</time>
      </trkpt>
      <trkpt lat="43.32913650199771" lon="-6.565914647653699">
        <ele>711.4</ele>
        <time>2017-08-06T05:21:53.000Z</time>
      </trkpt>
      <trkpt lat="43.32913197577" lon="-6.565912300720811">
        <ele>711.4</ele>
        <time>2017-08-06T05:22:16.000Z</time>
      </trkpt>
      <trkpt lat="43.3291317243129" lon="-6.56591079197824">
        <ele>711.4</ele>
        <time>2017-08-06T05:22:25.000Z</time>
      </trkpt>
      <trkpt lat="43.3291385974735" lon="-6.56591959297657">
        <ele>711.4</ele>
        <time>2017-08-06T05:22:34.000Z</time>
      </trkpt>
      <trkpt lat="43.329170532524586" lon="-6.56595722772181">
        <ele>711.6</ele>
        <time>2017-08-06T05:22:43.000Z</time>
      </trkpt>
      <trkpt lat="43.32918964326382" lon="-6.56601975671947">
        <ele>712</ele>
        <time>2017-08-06T05:22:50.000Z</time>
      </trkpt>
      <trkpt lat="43.32917950116098" lon="-6.566073736175895">
        <ele>712.4</ele>
        <time>2017-08-06T05:22:55.000Z</time>
      </trkpt>
      <trkpt lat="43.329151505604386" lon="-6.566160069778562">
        <ele>713.6</ele>
        <time>2017-08-06T05:23:02.000Z</time>
      </trkpt>
      <trkpt lat="43.32912191748619" lon="-6.566242631524801">
        <ele>715</ele>
        <time>2017-08-06T05:23:09.000Z</time>
      </trkpt>
      <trkpt lat="43.32908713258803" lon="-6.566342459991574">
        <ele>716.8</ele>
        <time>2017-08-06T05:23:17.000Z</time>
      </trkpt>
      <trkpt lat="43.32905201241374" lon="-6.566437091678381">
        <ele>718.4</ele>
        <time>2017-08-06T05:23:25.000Z</time>
      </trkpt>
      <trkpt lat="43.329020496457815" lon="-6.5665246825665236">
        <ele>719.8</ele>
        <time>2017-08-06T05:23:33.000Z</time>
      </trkpt>
      <trkpt lat="43.328996608033776" lon="-6.566577572375536">
        <ele>720.6</ele>
        <time>2017-08-06T05:23:39.000Z</time>
      </trkpt>
      <trkpt lat="43.328946735709906" lon="-6.5666813403368">
        <ele>722.4</ele>
        <time>2017-08-06T05:23:48.000Z</time>
      </trkpt>
      <trkpt lat="43.32893022336066" lon="-6.566716963425279">
        <ele>722.8</ele>
        <time>2017-08-06T05:23:51.000Z</time>
      </trkpt>
      <trkpt lat="43.32891278900206" lon="-6.566760716959834">
        <ele>723.4</ele>
        <time>2017-08-06T05:23:54.000Z</time>
      </trkpt>
      <trkpt lat="43.32888839766383" lon="-6.566848140209913">
        <ele>724.6</ele>
        <time>2017-08-06T05:24:00.000Z</time>
      </trkpt>
      <trkpt lat="43.328860653564334" lon="-6.566946962848306">
        <ele>725.8</ele>
        <time>2017-08-06T05:24:07.000Z</time>
      </trkpt>
      <trkpt lat="43.32882075570524" lon="-6.567056262865663">
        <ele>726</ele>
        <time>2017-08-06T05:24:15.000Z</time>
      </trkpt>
      <trkpt lat="43.328784042969346" lon="-6.567140417173505">
        <ele>725.6</ele>
        <time>2017-08-06T05:24:22.000Z</time>
      </trkpt>
      <trkpt lat="43.3287744037807" lon="-6.5671714302152395">
        <ele>725.6</ele>
        <time>2017-08-06T05:24:24.000Z</time>
      </trkpt>
      <trkpt lat="43.328719502314925" lon="-6.5672700852155685">
        <ele>725</ele>
        <time>2017-08-06T05:24:33.000Z</time>
      </trkpt>
      <trkpt lat="43.32870106212795" lon="-6.567304953932762">
        <ele>724.8</ele>
        <time>2017-08-06T05:24:37.000Z</time>
      </trkpt>
      <trkpt lat="43.32869276404381" lon="-6.567322304472327">
        <ele>724.6</ele>
        <time>2017-08-06T05:24:39.000Z</time>
      </trkpt>
      <trkpt lat="43.32864364609122" lon="-6.56738986261189">
        <ele>724</ele>
        <time>2017-08-06T05:24:46.000Z</time>
      </trkpt>
      <trkpt lat="43.32862344570458" lon="-6.567414756864309">
        <ele>723.8</ele>
        <time>2017-08-06T05:24:49.000Z</time>
      </trkpt>
      <trkpt lat="43.32859318703413" lon="-6.567437304183841">
        <ele>723.2</ele>
        <time>2017-08-06T05:24:53.000Z</time>
      </trkpt>
      <trkpt lat="43.328533256426454" lon="-6.567492038011551">
        <ele>722.4</ele>
        <time>2017-08-06T05:25:00.000Z</time>
      </trkpt>
      <trkpt lat="43.328483048826456" lon="-6.567533779889345">
        <ele>721.8</ele>
        <time>2017-08-06T05:25:06.000Z</time>
      </trkpt>
      <trkpt lat="43.32847340963781" lon="-6.567539647221565">
        <ele>721.6</ele>
        <time>2017-08-06T05:25:08.000Z</time>
      </trkpt>
      <trkpt lat="43.328430159017444" lon="-6.567576611414552">
        <ele>721.4</ele>
        <time>2017-08-06T05:25:14.000Z</time>
      </trkpt>
      <trkpt lat="43.3283874951303" lon="-6.567617515102029">
        <ele>721.2</ele>
        <time>2017-08-06T05:25:20.000Z</time>
      </trkpt>
      <trkpt lat="43.32836922258139" lon="-6.567644672468305">
        <ele>721.4</ele>
        <time>2017-08-06T05:25:23.000Z</time>
      </trkpt>
      <trkpt lat="43.328348686918616" lon="-6.567674428224564">
        <ele>721.4</ele>
        <time>2017-08-06T05:25:26.000Z</time>
      </trkpt>
      <trkpt lat="43.32832965999842" lon="-6.567702675238252">
        <ele>721.4</ele>
        <time>2017-08-06T05:25:29.000Z</time>
      </trkpt>
      <trkpt lat="43.32830769941211" lon="-6.567731173709035">
        <ele>721.4</ele>
        <time>2017-08-06T05:25:32.000Z</time>
      </trkpt>
      <trkpt lat="43.32830149680376" lon="-6.567736705765128">
        <ele>721.4</ele>
        <time>2017-08-06T05:25:33.000Z</time>
      </trkpt>
      <trkpt lat="43.32825246267021" lon="-6.567804682999849">
        <ele>721.6</ele>
        <time>2017-08-06T05:25:39.000Z</time>
      </trkpt>
      <trkpt lat="43.32821457646787" lon="-6.56784575432539">
        <ele>721.8</ele>
        <time>2017-08-06T05:25:45.000Z</time>
      </trkpt>
      <trkpt lat="43.32817752845585" lon="-6.5679088700562716">
        <ele>722.4</ele>
        <time>2017-08-06T05:25:50.000Z</time>
      </trkpt>
      <trkpt lat="43.32816964946687" lon="-6.567922867834568">
        <ele>722.6</ele>
        <time>2017-08-06T05:25:52.000Z</time>
      </trkpt>
      <trkpt lat="43.32815992645919" lon="-6.56793812289834">
        <ele>722.8</ele>
        <time>2017-08-06T05:25:54.000Z</time>
      </trkpt>
      <trkpt lat="43.328146263957024" lon="-6.5679627656936646">
        <ele>723</ele>
        <time>2017-08-06T05:25:56.000Z</time>
      </trkpt>
      <trkpt lat="43.328103851526976" lon="-6.568038538098335">
        <ele>723.8</ele>
        <time>2017-08-06T05:26:02.000Z</time>
      </trkpt>
      <trkpt lat="43.32809396088123" lon="-6.568057481199503">
        <ele>724</ele>
        <time>2017-08-06T05:26:03.000Z</time>
      </trkpt>
      <trkpt lat="43.3280782867223" lon="-6.568090422078967">
        <ele>724.4</ele>
        <time>2017-08-06T05:26:06.000Z</time>
      </trkpt>
      <trkpt lat="43.328072587028146" lon="-6.568101737648249">
        <ele>724.4</ele>
        <time>2017-08-06T05:26:07.000Z</time>
      </trkpt>
      <trkpt lat="43.32803042605519" lon="-6.568169631063938">
        <ele>725</ele>
        <time>2017-08-06T05:26:13.000Z</time>
      </trkpt>
      <trkpt lat="43.327992875128984" lon="-6.5682528633624315">
        <ele>726</ele>
        <time>2017-08-06T05:26:19.000Z</time>
      </trkpt>
      <trkpt lat="43.327980134636164" lon="-6.568279769271612">
        <ele>726.2</ele>
        <time>2017-08-06T05:26:21.000Z</time>
      </trkpt>
      <trkpt lat="43.32796177826822" lon="-6.568328803405166">
        <ele>726.8</ele>
        <time>2017-08-06T05:26:24.000Z</time>
      </trkpt>
      <trkpt lat="43.32795985043049" lon="-6.568345986306667">
        <ele>727</ele>
        <time>2017-08-06T05:26:25.000Z</time>
      </trkpt>
      <trkpt lat="43.32794685848057" lon="-6.568399462848902">
        <ele>727.4</ele>
        <time>2017-08-06T05:26:29.000Z</time>
      </trkpt>
      <trkpt lat="43.327927412465215" lon="-6.568496525287628">
        <ele>728.2</ele>
        <time>2017-08-06T05:26:35.000Z</time>
      </trkpt>
      <trkpt lat="43.32790360786021" lon="-6.568589061498642">
        <ele>728.6</ele>
        <time>2017-08-06T05:26:40.000Z</time>
      </trkpt>
      <trkpt lat="43.32786815240979" lon="-6.568729290738702">
        <ele>729.2</ele>
        <time>2017-08-06T05:26:48.000Z</time>
      </trkpt>
      <trkpt lat="43.327838061377406" lon="-6.568825598806143">
        <ele>729.4</ele>
        <time>2017-08-06T05:26:54.000Z</time>
      </trkpt>
      <trkpt lat="43.327817944809794" lon="-6.568937916308641">
        <ele>729.6</ele>
        <time>2017-08-06T05:27:02.000Z</time>
      </trkpt>
      <trkpt lat="43.32780612632632" lon="-6.569012179970741">
        <ele>729.8</ele>
        <time>2017-08-06T05:27:07.000Z</time>
      </trkpt>
      <trkpt lat="43.32780302502215" lon="-6.569044953212142">
        <ele>729.8</ele>
        <time>2017-08-06T05:27:09.000Z</time>
      </trkpt>
      <trkpt lat="43.327781315892935" lon="-6.569168251007795">
        <ele>729.8</ele>
        <time>2017-08-06T05:27:18.000Z</time>
      </trkpt>
      <trkpt lat="43.32777041941881" lon="-6.569279478862882">
        <ele>730</ele>
        <time>2017-08-06T05:27:26.000Z</time>
      </trkpt>
      <trkpt lat="43.32775466144085" lon="-6.569395232945681">
        <ele>730.2</ele>
        <time>2017-08-06T05:27:34.000Z</time>
      </trkpt>
      <trkpt lat="43.32772155292332" lon="-6.569525320082903">
        <ele>730.6</ele>
        <time>2017-08-06T05:27:44.000Z</time>
      </trkpt>
      <trkpt lat="43.327695820480585" lon="-6.56964392401278">
        <ele>731.4</ele>
        <time>2017-08-06T05:27:53.000Z</time>
      </trkpt>
      <trkpt lat="43.327660197392106" lon="-6.569783063605428">
        <ele>732.2</ele>
        <time>2017-08-06T05:28:03.000Z</time>
      </trkpt>
      <trkpt lat="43.32763848826289" lon="-6.5698760189116">
        <ele>732.6</ele>
        <time>2017-08-06T05:28:10.000Z</time>
      </trkpt>
      <trkpt lat="43.327623065561056" lon="-6.5700234565883875">
        <ele>733.6</ele>
        <time>2017-08-06T05:28:20.000Z</time>
      </trkpt>
      <trkpt lat="43.327596662566066" lon="-6.570183048024774">
        <ele>734.8</ele>
        <time>2017-08-06T05:28:30.000Z</time>
      </trkpt>
      <trkpt lat="43.327578054741025" lon="-6.570325456559658">
        <ele>735.8</ele>
        <time>2017-08-06T05:28:39.000Z</time>
      </trkpt>
      <trkpt lat="43.327564392238855" lon="-6.57043794170022">
        <ele>737.2</ele>
        <time>2017-08-06T05:28:46.000Z</time>
      </trkpt>
      <trkpt lat="43.327556010335684" lon="-6.570562832057476">
        <ele>738.2</ele>
        <time>2017-08-06T05:28:54.000Z</time>
      </trkpt>
      <trkpt lat="43.32754511386156" lon="-6.570683866739273">
        <ele>739.2</ele>
        <time>2017-08-06T05:29:02.000Z</time>
      </trkpt>
      <trkpt lat="43.327521812170744" lon="-6.570790316909552">
        <ele>739.8</ele>
        <time>2017-08-06T05:29:09.000Z</time>
      </trkpt>
      <trkpt lat="43.32750152796507" lon="-6.570929540321231">
        <ele>740.6</ele>
        <time>2017-08-06T05:29:18.000Z</time>
      </trkpt>
      <trkpt lat="43.32750169560313" lon="-6.57105996273458">
        <ele>741.2</ele>
        <time>2017-08-06T05:29:27.000Z</time>
      </trkpt>
      <trkpt lat="43.327504713088274" lon="-6.571155181154609">
        <ele>741.4</ele>
        <time>2017-08-06T05:29:33.000Z</time>
      </trkpt>
      <trkpt lat="43.32751317881048" lon="-6.571313850581646">
        <ele>742</ele>
        <time>2017-08-06T05:29:42.000Z</time>
      </trkpt>
      <trkpt lat="43.327533630654216" lon="-6.571460533887148">
        <ele>742.6</ele>
        <time>2017-08-06T05:29:51.000Z</time>
      </trkpt>
      <trkpt lat="43.32754796370864" lon="-6.57160964794457">
        <ele>742.6</ele>
        <time>2017-08-06T05:30:00.000Z</time>
      </trkpt>
      <trkpt lat="43.32755148410797" lon="-6.571625992655754">
        <ele>742.8</ele>
        <time>2017-08-06T05:30:01.000Z</time>
      </trkpt>
      <trkpt lat="43.32756363786757" lon="-6.571691874414682">
        <ele>742.8</ele>
        <time>2017-08-06T05:30:05.000Z</time>
      </trkpt>
      <trkpt lat="43.32756942138076" lon="-6.571723725646734">
        <ele>742.8</ele>
        <time>2017-08-06T05:30:07.000Z</time>
      </trkpt>
      <trkpt lat="43.32758165895939" lon="-6.5718296729028225">
        <ele>743</ele>
        <time>2017-08-06T05:30:13.000Z</time>
      </trkpt>
      <trkpt lat="43.327582916244864" lon="-6.571966465562582">
        <ele>743.4</ele>
        <time>2017-08-06T05:30:21.000Z</time>
      </trkpt>
      <trkpt lat="43.327582497149706" lon="-6.572116836905479">
        <ele>742.4</ele>
        <time>2017-08-06T05:30:29.000Z</time>
      </trkpt>
      <trkpt lat="43.327584927901626" lon="-6.572233512997627">
        <ele>741.4</ele>
        <time>2017-08-06T05:30:36.000Z</time>
      </trkpt>
      <trkpt lat="43.32758610136807" lon="-6.572383800521493">
        <ele>740.4</ele>
        <time>2017-08-06T05:30:45.000Z</time>
      </trkpt>
      <trkpt lat="43.32761040888727" lon="-6.572539955377579">
        <ele>739.6</ele>
        <time>2017-08-06T05:30:54.000Z</time>
      </trkpt>
      <trkpt lat="43.327616611495614" lon="-6.5726821962744">
        <ele>739.4</ele>
        <time>2017-08-06T05:31:02.000Z</time>
      </trkpt>
      <trkpt lat="43.3276226464659" lon="-6.572860898450017">
        <ele>739.2</ele>
        <time>2017-08-06T05:31:12.000Z</time>
      </trkpt>
      <trkpt lat="43.32762968726456" lon="-6.572999618947506">
        <ele>739.6</ele>
        <time>2017-08-06T05:31:20.000Z</time>
      </trkpt>
      <trkpt lat="43.3276363927871" lon="-6.573111014440656">
        <ele>740</ele>
        <time>2017-08-06T05:31:27.000Z</time>
      </trkpt>
      <trkpt lat="43.32764863036573" lon="-6.573256691917777">
        <ele>740.2</ele>
        <time>2017-08-06T05:31:35.000Z</time>
      </trkpt>
      <trkpt lat="43.327671345323324" lon="-6.57340781763196">
        <ele>740.6</ele>
        <time>2017-08-06T05:31:44.000Z</time>
      </trkpt>
      <trkpt lat="43.32768592983484" lon="-6.573591297492385">
        <ele>740.2</ele>
        <time>2017-08-06T05:31:55.000Z</time>
      </trkpt>
      <trkpt lat="43.327686097472906" lon="-6.573725072667003">
        <ele>739.8</ele>
        <time>2017-08-06T05:32:03.000Z</time>
      </trkpt>
      <trkpt lat="43.32768869586289" lon="-6.573854740709066">
        <ele>739.4</ele>
        <time>2017-08-06T05:32:11.000Z</time>
      </trkpt>
      <trkpt lat="43.327687019482255" lon="-6.5739845763891935">
        <ele>739</ele>
        <time>2017-08-06T05:32:19.000Z</time>
      </trkpt>
      <trkpt lat="43.32768886350095" lon="-6.574128745123744">
        <ele>738.4</ele>
        <time>2017-08-06T05:32:28.000Z</time>
      </trkpt>
      <trkpt lat="43.32769129425287" lon="-6.574270064011216">
        <ele>738.8</ele>
        <time>2017-08-06T05:32:37.000Z</time>
      </trkpt>
      <trkpt lat="43.32768785767257" lon="-6.574427140876651">
        <ele>739.8</ele>
        <time>2017-08-06T05:32:47.000Z</time>
      </trkpt>
      <trkpt lat="43.32768584601581" lon="-6.574508948251605">
        <ele>739.8</ele>
        <time>2017-08-06T05:32:56.000Z</time>
      </trkpt>
      <trkpt lat="43.32767595537007" lon="-6.5745585691183805">
        <ele>739.6</ele>
        <time>2017-08-06T05:33:03.000Z</time>
      </trkpt>
      <trkpt lat="43.32764804363251" lon="-6.57462696544826">
        <ele>739</ele>
        <time>2017-08-06T05:33:08.000Z</time>
      </trkpt>
      <trkpt lat="43.327642595395446" lon="-6.5746404603123665">
        <ele>738.8</ele>
        <time>2017-08-06T05:33:09.000Z</time>
      </trkpt>
      <trkpt lat="43.32760403864086" lon="-6.574702737852931">
        <ele>737.8</ele>
        <time>2017-08-06T05:33:14.000Z</time>
      </trkpt>
      <trkpt lat="43.3275827486068" lon="-6.574749676510692">
        <ele>737.4</ele>
        <time>2017-08-06T05:33:17.000Z</time>
      </trkpt>
      <trkpt lat="43.32756992429495" lon="-6.574780521914363">
        <ele>737.2</ele>
        <time>2017-08-06T05:33:19.000Z</time>
      </trkpt>
      <trkpt lat="43.32752801477909" lon="-6.574883200228214">
        <ele>736.4</ele>
        <time>2017-08-06T05:33:27.000Z</time>
      </trkpt>
      <trkpt lat="43.3274482190609" lon="-6.574998451396823">
        <ele>734.8</ele>
        <time>2017-08-06T05:33:36.000Z</time>
      </trkpt>
      <trkpt lat="43.32738971337676" lon="-6.575111439451575">
        <ele>734.4</ele>
        <time>2017-08-06T05:33:44.000Z</time>
      </trkpt>
      <trkpt lat="43.32732751965523" lon="-6.57521772198379">
        <ele>734</ele>
        <time>2017-08-06T05:33:52.000Z</time>
      </trkpt>
      <trkpt lat="43.32726297900081" lon="-6.575327189639211">
        <ele>733.4</ele>
        <time>2017-08-06T05:34:00.000Z</time>
      </trkpt>
      <trkpt lat="43.32719810307026" lon="-6.575437746942043">
        <ele>733.4</ele>
        <time>2017-08-06T05:34:08.000Z</time>
      </trkpt>
      <trkpt lat="43.327147057279944" lon="-6.57552944496274">
        <ele>733.4</ele>
        <time>2017-08-06T05:34:15.000Z</time>
      </trkpt>
      <trkpt lat="43.327114786952734" lon="-6.575585436075926">
        <ele>733.6</ele>
        <time>2017-08-06T05:34:19.000Z</time>
      </trkpt>
      <trkpt lat="43.32709978334606" lon="-6.575625082477927">
        <ele>733.8</ele>
        <time>2017-08-06T05:34:22.000Z</time>
      </trkpt>
      <trkpt lat="43.327076733112335" lon="-6.575708482414484">
        <ele>734.2</ele>
        <time>2017-08-06T05:34:28.000Z</time>
      </trkpt>
      <trkpt lat="43.32704421132803" lon="-6.575808729976416">
        <ele>734.4</ele>
        <time>2017-08-06T05:34:35.000Z</time>
      </trkpt>
      <trkpt lat="43.3270076662302" lon="-6.575891291722655">
        <ele>734.6</ele>
        <time>2017-08-06T05:34:42.000Z</time>
      </trkpt>
      <trkpt lat="43.32696751691401" lon="-6.576003860682249">
        <ele>734.8</ele>
        <time>2017-08-06T05:34:50.000Z</time>
      </trkpt>
      <trkpt lat="43.326906161382794" lon="-6.576071083545685">
        <ele>734.8</ele>
        <time>2017-08-06T05:34:57.000Z</time>
      </trkpt>
      <trkpt lat="43.3268525172025" lon="-6.576134283095598">
        <ele>734.2</ele>
        <time>2017-08-06T05:35:03.000Z</time>
      </trkpt>
      <trkpt lat="43.326798202469945" lon="-6.5762213710695505">
        <ele>733</ele>
        <time>2017-08-06T05:35:10.000Z</time>
      </trkpt>
      <trkpt lat="43.32673341035843" lon="-6.576312901452184">
        <ele>731.4</ele>
        <time>2017-08-06T05:35:18.000Z</time>
      </trkpt>
      <trkpt lat="43.32664682529867" lon="-6.576436115428805">
        <ele>729.6</ele>
        <time>2017-08-06T05:35:28.000Z</time>
      </trkpt>
      <trkpt lat="43.326641293242574" lon="-6.576471151784062">
        <ele>729.4</ele>
        <time>2017-08-06T05:35:30.000Z</time>
      </trkpt>
      <trkpt lat="43.32664154469967" lon="-6.5765406377613544">
        <ele>729.4</ele>
        <time>2017-08-06T05:35:34.000Z</time>
      </trkpt>
      <trkpt lat="43.32665931433439" lon="-6.576739875599742">
        <ele>729.8</ele>
        <time>2017-08-06T05:35:45.000Z</time>
      </trkpt>
      <trkpt lat="43.32667448557913" lon="-6.576919164508581">
        <ele>730.6</ele>
        <time>2017-08-06T05:35:55.000Z</time>
      </trkpt>
      <trkpt lat="43.326674569398165" lon="-6.576964259147644">
        <ele>730.6</ele>
        <time>2017-08-06T05:35:58.000Z</time>
      </trkpt>
      <trkpt lat="43.326677083969116" lon="-6.577002229169011">
        <ele>730.8</ele>
        <time>2017-08-06T05:36:00.000Z</time>
      </trkpt>
      <trkpt lat="43.32668353803456" lon="-6.577100632712245">
        <ele>731.2</ele>
        <time>2017-08-06T05:36:06.000Z</time>
      </trkpt>
      <trkpt lat="43.326690159738064" lon="-6.577168190851808">
        <ele>731.6</ele>
        <time>2017-08-06T05:36:10.000Z</time>
      </trkpt>
      <trkpt lat="43.326696613803506" lon="-6.577241197228432">
        <ele>731.6</ele>
        <time>2017-08-06T05:36:14.000Z</time>
      </trkpt>
      <trkpt lat="43.32670767791569" lon="-6.577423084527254">
        <ele>731.6</ele>
        <time>2017-08-06T05:36:24.000Z</time>
      </trkpt>
      <trkpt lat="43.32671815529466" lon="-6.577612180262804">
        <ele>731.8</ele>
        <time>2017-08-06T05:36:35.000Z</time>
      </trkpt>
      <trkpt lat="43.32667582668364" lon="-6.577700274065137">
        <ele>731.4</ele>
        <time>2017-08-06T05:36:42.000Z</time>
      </trkpt>
      <trkpt lat="43.326612040400505" lon="-6.577807059511542">
        <ele>731</ele>
        <time>2017-08-06T05:36:50.000Z</time>
      </trkpt>
      <trkpt lat="43.326583709567785" lon="-6.57792373560369">
        <ele>731</ele>
        <time>2017-08-06T05:36:57.000Z</time>
      </trkpt>
      <trkpt lat="43.32655328325927" lon="-6.578077878803015">
        <ele>731</ele>
        <time>2017-08-06T05:37:06.000Z</time>
      </trkpt>
      <trkpt lat="43.326522605493665" lon="-6.578249456360936">
        <ele>731.4</ele>
        <time>2017-08-06T05:37:16.000Z</time>
      </trkpt>
      <trkpt lat="43.32650139927864" lon="-6.57837962731719">
        <ele>731.6</ele>
        <time>2017-08-06T05:37:24.000Z</time>
      </trkpt>
      <trkpt lat="43.3264983817935" lon="-6.578412400558591">
        <ele>731.6</ele>
        <time>2017-08-06T05:37:26.000Z</time>
      </trkpt>
      <trkpt lat="43.326494274660945" lon="-6.578438803553581">
        <ele>731.8</ele>
        <time>2017-08-06T05:37:28.000Z</time>
      </trkpt>
      <trkpt lat="43.32648949697614" lon="-6.578455986455083">
        <ele>731.8</ele>
        <time>2017-08-06T05:37:29.000Z</time>
      </trkpt>
      <trkpt lat="43.32646971568465" lon="-6.5785863250494">
        <ele>732</ele>
        <time>2017-08-06T05:37:37.000Z</time>
      </trkpt>
      <trkpt lat="43.32644465379417" lon="-6.578732589259744">
        <ele>732.6</ele>
        <time>2017-08-06T05:37:46.000Z</time>
      </trkpt>
      <trkpt lat="43.326443396508694" lon="-6.578864520415664">
        <ele>732.8</ele>
        <time>2017-08-06T05:37:54.000Z</time>
      </trkpt>
      <trkpt lat="43.32645303569734" lon="-6.578973066061735">
        <ele>733</ele>
        <time>2017-08-06T05:38:01.000Z</time>
      </trkpt>
      <trkpt lat="43.326475163921714" lon="-6.57906761392951">
        <ele>733</ele>
        <time>2017-08-06T05:38:07.000Z</time>
      </trkpt>
      <trkpt lat="43.32649117335677" lon="-6.579172220081091">
        <ele>732.8</ele>
        <time>2017-08-06T05:38:14.000Z</time>
      </trkpt>
      <trkpt lat="43.32649343647063" lon="-6.579289818182588">
        <ele>733.2</ele>
        <time>2017-08-06T05:38:21.000Z</time>
      </trkpt>
      <trkpt lat="43.32649167627096" lon="-6.57931043766439">
        <ele>733.2</ele>
        <time>2017-08-06T05:38:23.000Z</time>
      </trkpt>
      <trkpt lat="43.32649368792772" lon="-6.579343630000949">
        <ele>733.4</ele>
        <time>2017-08-06T05:38:25.000Z</time>
      </trkpt>
      <trkpt lat="43.32650299184024" lon="-6.579452091827989">
        <ele>733.6</ele>
        <time>2017-08-06T05:38:31.000Z</time>
      </trkpt>
      <trkpt lat="43.32650533877313" lon="-6.579506155103445">
        <ele>733.6</ele>
        <time>2017-08-06T05:38:34.000Z</time>
      </trkpt>
      <trkpt lat="43.32650718279183" lon="-6.579579245299101">
        <ele>733.6</ele>
        <time>2017-08-06T05:38:38.000Z</time>
      </trkpt>
      <trkpt lat="43.32648723386228" lon="-6.579706650227308">
        <ele>732.4</ele>
        <time>2017-08-06T05:38:45.000Z</time>
      </trkpt>
      <trkpt lat="43.32645261660218" lon="-6.579851405695081">
        <ele>731.6</ele>
        <time>2017-08-06T05:38:53.000Z</time>
      </trkpt>
      <trkpt lat="43.3264034986496" lon="-6.5799966640770435">
        <ele>731.6</ele>
        <time>2017-08-06T05:39:02.000Z</time>
      </trkpt>
      <trkpt lat="43.326360918581486" lon="-6.580093894153833">
        <ele>731.2</ele>
        <time>2017-08-06T05:39:08.000Z</time>
      </trkpt>
      <trkpt lat="43.326306771487" lon="-6.580210905522108">
        <ele>730.4</ele>
        <time>2017-08-06T05:39:16.000Z</time>
      </trkpt>
      <trkpt lat="43.32624005153775" lon="-6.580320792272687">
        <ele>730</ele>
        <time>2017-08-06T05:39:24.000Z</time>
      </trkpt>
      <trkpt lat="43.32619311287999" lon="-6.580409221351147">
        <ele>729.4</ele>
        <time>2017-08-06T05:39:31.000Z</time>
      </trkpt>
      <trkpt lat="43.32611566409469" lon="-6.580539727583528">
        <ele>728.4</ele>
        <time>2017-08-06T05:39:41.000Z</time>
      </trkpt>
      <trkpt lat="43.32602924667299" lon="-6.580658499151468">
        <ele>728.2</ele>
        <time>2017-08-06T05:39:50.000Z</time>
      </trkpt>
      <trkpt lat="43.32593662664294" lon="-6.580742318183184">
        <ele>728.6</ele>
        <time>2017-08-06T05:39:59.000Z</time>
      </trkpt>
      <trkpt lat="43.325846353545785" lon="-6.580843823030591">
        <ele>728.8</ele>
        <time>2017-08-06T05:40:08.000Z</time>
      </trkpt>
      <trkpt lat="43.32576697692275" lon="-6.580977262929082">
        <ele>728</ele>
        <time>2017-08-06T05:40:18.000Z</time>
      </trkpt>
      <trkpt lat="43.325704196467996" lon="-6.581088490784168">
        <ele>727</ele>
        <time>2017-08-06T05:40:26.000Z</time>
      </trkpt>
      <trkpt lat="43.32563688978553" lon="-6.581192929297686">
        <ele>726.4</ele>
        <time>2017-08-06T05:40:34.000Z</time>
      </trkpt>
      <trkpt lat="43.325574612244964" lon="-6.581273982301354">
        <ele>726.6</ele>
        <time>2017-08-06T05:40:41.000Z</time>
      </trkpt>
      <trkpt lat="43.3255141787231" lon="-6.581355454400182">
        <ele>726.6</ele>
        <time>2017-08-06T05:40:48.000Z</time>
      </trkpt>
      <trkpt lat="43.32544502802193" lon="-6.5814565401524305">
        <ele>725.8</ele>
        <time>2017-08-06T05:40:56.000Z</time>
      </trkpt>
      <trkpt lat="43.32537688314915" lon="-6.581604816019535">
        <ele>724.4</ele>
        <time>2017-08-06T05:41:06.000Z</time>
      </trkpt>
      <trkpt lat="43.32533706910908" lon="-6.581755019724369">
        <ele>723.2</ele>
        <time>2017-08-06T05:41:16.000Z</time>
      </trkpt>
      <trkpt lat="43.32536674104631" lon="-6.581918718293309">
        <ele>722.2</ele>
        <time>2017-08-06T05:41:26.000Z</time>
      </trkpt>
      <trkpt lat="43.32539306022227" lon="-6.582050817087293">
        <ele>722</ele>
        <time>2017-08-06T05:41:34.000Z</time>
      </trkpt>
      <trkpt lat="43.3254311978817" lon="-6.582241924479604">
        <ele>722</ele>
        <time>2017-08-06T05:41:45.000Z</time>
      </trkpt>
      <trkpt lat="43.32544988952577" lon="-6.582392463460565">
        <ele>722.8</ele>
        <time>2017-08-06T05:41:54.000Z</time>
      </trkpt>
      <trkpt lat="43.32547377794981" lon="-6.582543756812811">
        <ele>724</ele>
        <time>2017-08-06T05:42:03.000Z</time>
      </trkpt>
      <trkpt lat="43.32549775019288" lon="-6.582671077921987">
        <ele>724.6</ele>
        <time>2017-08-06T05:42:11.000Z</time>
      </trkpt>
      <trkpt lat="43.32549531944096" lon="-6.58268298022449">
        <ele>724.6</ele>
        <time>2017-08-06T05:42:12.000Z</time>
      </trkpt>
      <trkpt lat="43.325487691909075" lon="-6.582717262208462">
        <ele>724.6</ele>
        <time>2017-08-06T05:42:16.000Z</time>
      </trkpt>
      <trkpt lat="43.32550780847669" lon="-6.58276260830462">
        <ele>724.8</ele>
        <time>2017-08-06T05:42:22.000Z</time>
      </trkpt>
      <trkpt lat="43.325565895065665" lon="-6.582861095666885">
        <ele>725.4</ele>
        <time>2017-08-06T05:42:30.000Z</time>
      </trkpt>
      <trkpt lat="43.32562490366399" lon="-6.58295757137239">
        <ele>726.2</ele>
        <time>2017-08-06T05:42:38.000Z</time>
      </trkpt>
      <trkpt lat="43.32571023143828" lon="-6.583049772307277">
        <ele>727</ele>
        <time>2017-08-06T05:42:47.000Z</time>
      </trkpt>
      <trkpt lat="43.32578063942492" lon="-6.583162005990744">
        <ele>727.6</ele>
        <time>2017-08-06T05:42:56.000Z</time>
      </trkpt>
      <trkpt lat="43.325825314968824" lon="-6.583251189440489">
        <ele>727.8</ele>
        <time>2017-08-06T05:43:03.000Z</time>
      </trkpt>
      <trkpt lat="43.32583193667233" lon="-6.583256386220455">
        <ele>727.8</ele>
        <time>2017-08-06T05:43:04.000Z</time>
      </trkpt>
      <trkpt lat="43.325829673558474" lon="-6.5833010617643595">
        <ele>728.2</ele>
        <time>2017-08-06T05:43:07.000Z</time>
      </trkpt>
      <trkpt lat="43.325859596952796" lon="-6.583351520821452">
        <ele>728.6</ele>
        <time>2017-08-06T05:43:12.000Z</time>
      </trkpt>
      <trkpt lat="43.32587988115847" lon="-6.583394603803754">
        <ele>729</ele>
        <time>2017-08-06T05:43:17.000Z</time>
      </trkpt>
      <trkpt lat="43.3258802164346" lon="-6.583398124203086">
        <ele>729</ele>
        <time>2017-08-06T05:43:18.000Z</time>
      </trkpt>
      <trkpt lat="43.32588943652809" lon="-6.58344816416502">
        <ele>729.2</ele>
        <time>2017-08-06T05:43:24.000Z</time>
      </trkpt>
      <trkpt lat="43.32587686367333" lon="-6.583536760881543">
        <ele>730</ele>
        <time>2017-08-06T05:43:30.000Z</time>
      </trkpt>
      <trkpt lat="43.325835121795535" lon="-6.583628123626113">
        <ele>730.8</ele>
        <time>2017-08-06T05:43:37.000Z</time>
      </trkpt>
      <trkpt lat="43.32576991058886" lon="-6.5837139543145895">
        <ele>731.4</ele>
        <time>2017-08-06T05:43:45.000Z</time>
      </trkpt>
      <trkpt lat="43.32569279707968" lon="-6.583803305402398">
        <ele>732.2</ele>
        <time>2017-08-06T05:43:54.000Z</time>
      </trkpt>
      <trkpt lat="43.325614677742124" lon="-6.5839124377816916">
        <ele>733.2</ele>
        <time>2017-08-06T05:44:04.000Z</time>
      </trkpt>
      <trkpt lat="43.32553278654814" lon="-6.584044368937612">
        <ele>734.2</ele>
        <time>2017-08-06T05:44:15.000Z</time>
      </trkpt>
      <trkpt lat="43.32549129612744" lon="-6.584137659519911">
        <ele>734.8</ele>
        <time>2017-08-06T05:44:22.000Z</time>
      </trkpt>
      <trkpt lat="43.32545424811542" lon="-6.584252575412393">
        <ele>735.4</ele>
        <time>2017-08-06T05:44:30.000Z</time>
      </trkpt>
      <trkpt lat="43.32541996613145" lon="-6.58436631783843">
        <ele>736</ele>
        <time>2017-08-06T05:44:38.000Z</time>
      </trkpt>
      <trkpt lat="43.32539959810674" lon="-6.584437983110547">
        <ele>736.2</ele>
        <time>2017-08-06T05:44:43.000Z</time>
      </trkpt>
      <trkpt lat="43.32538828253746" lon="-6.584479892626405">
        <ele>736.6</ele>
        <time>2017-08-06T05:44:46.000Z</time>
      </trkpt>
      <trkpt lat="43.325350061059" lon="-6.584605872631073">
        <ele>738</ele>
        <time>2017-08-06T05:44:55.000Z</time>
      </trkpt>
      <trkpt lat="43.32531510852277" lon="-6.584717435762286">
        <ele>739.4</ele>
        <time>2017-08-06T05:45:03.000Z</time>
      </trkpt>
      <trkpt lat="43.32529264502227" lon="-6.584808966144919">
        <ele>740.4</ele>
        <time>2017-08-06T05:45:09.000Z</time>
      </trkpt>
      <trkpt lat="43.32526138052344" lon="-6.584904436022043">
        <ele>741.6</ele>
        <time>2017-08-06T05:45:16.000Z</time>
      </trkpt>
      <trkpt lat="43.32521762698889" lon="-6.585033433511853">
        <ele>743.4</ele>
        <time>2017-08-06T05:45:26.000Z</time>
      </trkpt>
      <trkpt lat="43.32518351264298" lon="-6.585129993036389">
        <ele>746.2</ele>
        <time>2017-08-06T05:45:34.000Z</time>
      </trkpt>
      <trkpt lat="43.325138753280044" lon="-6.5852318331599236">
        <ele>749.4</ele>
        <time>2017-08-06T05:45:42.000Z</time>
      </trkpt>
      <trkpt lat="43.32508938387036" lon="-6.585318753495812">
        <ele>752</ele>
        <time>2017-08-06T05:45:50.000Z</time>
      </trkpt>
      <trkpt lat="43.32503188401461" lon="-6.58539829775691">
        <ele>754.2</ele>
        <time>2017-08-06T05:45:58.000Z</time>
      </trkpt>
      <trkpt lat="43.325002463534474" lon="-6.58543442375958">
        <ele>755.2</ele>
        <time>2017-08-06T05:46:02.000Z</time>
      </trkpt>
      <trkpt lat="43.32498167641461" lon="-6.585467029362917">
        <ele>756</ele>
        <time>2017-08-06T05:46:05.000Z</time>
      </trkpt>
      <trkpt lat="43.324938425794244" lon="-6.5855328273028135">
        <ele>757.8</ele>
        <time>2017-08-06T05:46:11.000Z</time>
      </trkpt>
      <trkpt lat="43.32490112632513" lon="-6.5855987928807735">
        <ele>759.6</ele>
        <time>2017-08-06T05:46:17.000Z</time>
      </trkpt>
      <trkpt lat="43.324892492964864" lon="-6.585606001317501">
        <ele>759.8</ele>
        <time>2017-08-06T05:46:18.000Z</time>
      </trkpt>
      <trkpt lat="43.32485217601061" lon="-6.585647324100137">
        <ele>761</ele>
        <time>2017-08-06T05:46:23.000Z</time>
      </trkpt>
      <trkpt lat="43.324846560135484" lon="-6.5856600645929575">
        <ele>761.4</ele>
        <time>2017-08-06T05:46:24.000Z</time>
      </trkpt>
      <trkpt lat="43.32480666227639" lon="-6.58572225831449">
        <ele>763.2</ele>
        <time>2017-08-06T05:46:30.000Z</time>
      </trkpt>
      <trkpt lat="43.324755700305104" lon="-6.585782021284103">
        <ele>764.8</ele>
        <time>2017-08-06T05:46:36.000Z</time>
      </trkpt>
      <trkpt lat="43.324704989790916" lon="-6.5858458913862705">
        <ele>766.6</ele>
        <time>2017-08-06T05:46:43.000Z</time>
      </trkpt>
      <trkpt lat="43.324658051133156" lon="-6.585906073451042">
        <ele>767.8</ele>
        <time>2017-08-06T05:46:49.000Z</time>
      </trkpt>
      <trkpt lat="43.3246023952961" lon="-6.585971703752875">
        <ele>768.8</ele>
        <time>2017-08-06T05:46:57.000Z</time>
      </trkpt>
      <trkpt lat="43.324549505487084" lon="-6.586007662117481">
        <ele>769</ele>
        <time>2017-08-06T05:47:04.000Z</time>
      </trkpt>
      <trkpt lat="43.32454145886004" lon="-6.58601151779294">
        <ele>769</ele>
        <time>2017-08-06T05:47:05.000Z</time>
      </trkpt>
      <trkpt lat="43.324520671740174" lon="-6.586031382903457">
        <ele>769.2</ele>
        <time>2017-08-06T05:47:08.000Z</time>
      </trkpt>
      <trkpt lat="43.324494268745184" lon="-6.58605937846005">
        <ele>769.4</ele>
        <time>2017-08-06T05:47:12.000Z</time>
      </trkpt>
      <trkpt lat="43.32448773086071" lon="-6.586065664887428">
        <ele>769.4</ele>
        <time>2017-08-06T05:47:13.000Z</time>
      </trkpt>
      <trkpt lat="43.3244417142123" lon="-6.5861165430396795">
        <ele>770</ele>
        <time>2017-08-06T05:47:19.000Z</time>
      </trkpt>
      <trkpt lat="43.3243862260133" lon="-6.586188795045018">
        <ele>771.4</ele>
        <time>2017-08-06T05:47:26.000Z</time>
      </trkpt>
      <trkpt lat="43.32434222102165" lon="-6.586260879412293">
        <ele>773</ele>
        <time>2017-08-06T05:47:33.000Z</time>
      </trkpt>
      <trkpt lat="43.32428782247007" lon="-6.586331874132156">
        <ele>774.6</ele>
        <time>2017-08-06T05:47:40.000Z</time>
      </trkpt>
      <trkpt lat="43.32423468120396" lon="-6.58639557659626">
        <ele>775.8</ele>
        <time>2017-08-06T05:47:46.000Z</time>
      </trkpt>
      <trkpt lat="43.3242049254477" lon="-6.586459279060364">
        <ele>776.8</ele>
        <time>2017-08-06T05:47:51.000Z</time>
      </trkpt>
      <trkpt lat="43.32416720688343" lon="-6.586510492488742">
        <ele>777.2</ele>
        <time>2017-08-06T05:47:56.000Z</time>
      </trkpt>
      <trkpt lat="43.324115574359894" lon="-6.586606884375215">
        <ele>778.4</ele>
        <time>2017-08-06T05:48:04.000Z</time>
      </trkpt>
      <trkpt lat="43.32407341338694" lon="-6.586682489141822">
        <ele>779</ele>
        <time>2017-08-06T05:48:11.000Z</time>
      </trkpt>
      <trkpt lat="43.32402396015823" lon="-6.586781395599246">
        <ele>780.6</ele>
        <time>2017-08-06T05:48:19.000Z</time>
      </trkpt>
      <trkpt lat="43.32397693768144" lon="-6.586867980659008">
        <ele>782</ele>
        <time>2017-08-06T05:48:26.000Z</time>
      </trkpt>
      <trkpt lat="43.3239234611392" lon="-6.586986081674695">
        <ele>784</ele>
        <time>2017-08-06T05:48:35.000Z</time>
      </trkpt>
      <trkpt lat="43.32389789633453" lon="-6.587067302316427">
        <ele>785.6</ele>
        <time>2017-08-06T05:48:41.000Z</time>
      </trkpt>
      <trkpt lat="43.323892867192626" lon="-6.58707719296217">
        <ele>785.6</ele>
        <time>2017-08-06T05:48:42.000Z</time>
      </trkpt>
      <trkpt lat="43.32387392409146" lon="-6.587138548493385">
        <ele>786.8</ele>
        <time>2017-08-06T05:48:46.000Z</time>
      </trkpt>
      <trkpt lat="43.32386428490281" lon="-6.587162604555488">
        <ele>787.4</ele>
        <time>2017-08-06T05:48:48.000Z</time>
      </trkpt>
      <trkpt lat="43.32383008673787" lon="-6.587250949814916">
        <ele>789</ele>
        <time>2017-08-06T05:48:55.000Z</time>
      </trkpt>
      <trkpt lat="43.323799492791295" lon="-6.587368296459317">
        <ele>790.4</ele>
        <time>2017-08-06T05:49:04.000Z</time>
      </trkpt>
      <trkpt lat="43.3237939607352" lon="-6.587380534037948">
        <ele>790.4</ele>
        <time>2017-08-06T05:49:05.000Z</time>
      </trkpt>
      <trkpt lat="43.32378859631717" lon="-6.587417582049966">
        <ele>791</ele>
        <time>2017-08-06T05:49:09.000Z</time>
      </trkpt>
      <trkpt lat="43.323791613802314" lon="-6.587416157126427">
        <ele>791</ele>
        <time>2017-08-06T05:49:10.000Z</time>
      </trkpt>
      <trkpt lat="43.32377392798662" lon="-6.587463598698378">
        <ele>791.4</ele>
        <time>2017-08-06T05:49:15.000Z</time>
      </trkpt>
      <trkpt lat="43.3237474411726" lon="-6.587558481842279">
        <ele>792.4</ele>
        <time>2017-08-06T05:49:22.000Z</time>
      </trkpt>
      <trkpt lat="43.32372237928212" lon="-6.587654873728752">
        <ele>793.4</ele>
        <time>2017-08-06T05:49:29.000Z</time>
      </trkpt>
      <trkpt lat="43.323691450059414" lon="-6.587754115462303">
        <ele>794.6</ele>
        <time>2017-08-06T05:49:37.000Z</time>
      </trkpt>
      <trkpt lat="43.3236681483686" lon="-6.587829049676657">
        <ele>795.6</ele>
        <time>2017-08-06T05:49:43.000Z</time>
      </trkpt>
      <trkpt lat="43.323642164468765" lon="-6.587932063266635">
        <ele>796.6</ele>
        <time>2017-08-06T05:49:50.000Z</time>
      </trkpt>
      <trkpt lat="43.323614839464426" lon="-6.5880317240953445">
        <ele>797.6</ele>
        <time>2017-08-06T05:49:57.000Z</time>
      </trkpt>
      <trkpt lat="43.32359296269715" lon="-6.58812970854342">
        <ele>798.4</ele>
        <time>2017-08-06T05:50:04.000Z</time>
      </trkpt>
      <trkpt lat="43.3235780429095" lon="-6.588252754881978">
        <ele>799.4</ele>
        <time>2017-08-06T05:50:12.000Z</time>
      </trkpt>
      <trkpt lat="43.3235730137676" lon="-6.588377309963107">
        <ele>800.2</ele>
        <time>2017-08-06T05:50:20.000Z</time>
      </trkpt>
      <trkpt lat="43.32358323968947" lon="-6.5885035414248705">
        <ele>800.6</ele>
        <time>2017-08-06T05:50:28.000Z</time>
      </trkpt>
      <trkpt lat="43.32358181476593" lon="-6.588550396263599">
        <ele>800.4</ele>
        <time>2017-08-06T05:50:32.000Z</time>
      </trkpt>
      <trkpt lat="43.323579635471106" lon="-6.588588785380125">
        <ele>800.4</ele>
        <time>2017-08-06T05:50:36.000Z</time>
      </trkpt>
      <trkpt lat="43.323582569137216" lon="-6.588599095121026">
        <ele>800.6</ele>
        <time>2017-08-06T05:50:37.000Z</time>
      </trkpt>
      <trkpt lat="43.323600590229034" lon="-6.58867796882987">
        <ele>801</ele>
        <time>2017-08-06T05:50:43.000Z</time>
      </trkpt>
      <trkpt lat="43.32361115142703" lon="-6.58876882866025">
        <ele>801.2</ele>
        <time>2017-08-06T05:50:49.000Z</time>
      </trkpt>
      <trkpt lat="43.3236369676888" lon="-6.588909225538373">
        <ele>801.4</ele>
        <time>2017-08-06T05:50:58.000Z</time>
      </trkpt>
      <trkpt lat="43.323663705959916" lon="-6.589032104238868">
        <ele>801</ele>
        <time>2017-08-06T05:51:06.000Z</time>
      </trkpt>
      <trkpt lat="43.32368206232786" lon="-6.589089520275593">
        <ele>800.8</ele>
        <time>2017-08-06T05:51:10.000Z</time>
      </trkpt>
      <trkpt lat="43.32368985749781" lon="-6.58911969512701">
        <ele>800.8</ele>
        <time>2017-08-06T05:51:12.000Z</time>
      </trkpt>
      <trkpt lat="43.32373855635524" lon="-6.589259756729007">
        <ele>800.6</ele>
        <time>2017-08-06T05:51:22.000Z</time>
      </trkpt>
      <trkpt lat="43.323803935199976" lon="-6.589400237426162">
        <ele>800.8</ele>
        <time>2017-08-06T05:51:32.000Z</time>
      </trkpt>
      <trkpt lat="43.323863949626684" lon="-6.589499227702618">
        <ele>801</ele>
        <time>2017-08-06T05:51:40.000Z</time>
      </trkpt>
      <trkpt lat="43.32392882555723" lon="-6.589575503021479">
        <ele>801.2</ele>
        <time>2017-08-06T05:51:47.000Z</time>
      </trkpt>
      <trkpt lat="43.32400199957192" lon="-6.589701231569052">
        <ele>801.2</ele>
        <time>2017-08-06T05:51:56.000Z</time>
      </trkpt>
      <trkpt lat="43.32402446307242" lon="-6.589742470532656">
        <ele>801.4</ele>
        <time>2017-08-06T05:52:00.000Z</time>
      </trkpt>
      <trkpt lat="43.32403963431716" lon="-6.589773986488581">
        <ele>801.4</ele>
        <time>2017-08-06T05:52:03.000Z</time>
      </trkpt>
      <trkpt lat="43.32406620495021" lon="-6.5898217633366585">
        <ele>801.6</ele>
        <time>2017-08-06T05:52:08.000Z</time>
      </trkpt>
      <trkpt lat="43.32408003509045" lon="-6.589849423617125">
        <ele>802.2</ele>
        <time>2017-08-06T05:52:10.000Z</time>
      </trkpt>
      <trkpt lat="43.32411096431315" lon="-6.5898974519222975">
        <ele>803.4</ele>
        <time>2017-08-06T05:52:14.000Z</time>
      </trkpt>
      <trkpt lat="43.32413585856557" lon="-6.589936763048172">
        <ele>804</ele>
        <time>2017-08-06T05:52:17.000Z</time>
      </trkpt>
      <trkpt lat="43.32420593127608" lon="-6.590055115520954">
        <ele>805.2</ele>
        <time>2017-08-06T05:52:26.000Z</time>
      </trkpt>
      <trkpt lat="43.32426443696022" lon="-6.590186627581716">
        <ele>806.2</ele>
        <time>2017-08-06T05:52:35.000Z</time>
      </trkpt>
      <trkpt lat="43.32429628819227" lon="-6.590314786881208">
        <ele>806.6</ele>
        <time>2017-08-06T05:52:43.000Z</time>
      </trkpt>
      <trkpt lat="43.32432688213885" lon="-6.590405562892556">
        <ele>806.8</ele>
        <time>2017-08-06T05:52:50.000Z</time>
      </trkpt>
      <trkpt lat="43.324335515499115" lon="-6.5904249250888824">
        <ele>807</ele>
        <time>2017-08-06T05:52:53.000Z</time>
      </trkpt>
      <trkpt lat="43.32433962263167" lon="-6.59042282961309">
        <ele>807</ele>
        <time>2017-08-06T05:52:55.000Z</time>
      </trkpt>
      <trkpt lat="43.32433920353651" lon="-6.590482005849481">
        <ele>807</ele>
        <time>2017-08-06T05:53:38.000Z</time>
      </trkpt>
      <trkpt lat="43.324343394488096" lon="-6.59050396643579">
        <ele>807</ele>
        <time>2017-08-06T05:53:43.000Z</time>
      </trkpt>
      <trkpt lat="43.32434414885938" lon="-6.590571189299226">
        <ele>807</ele>
        <time>2017-08-06T05:54:19.000Z</time>
      </trkpt>
      <trkpt lat="43.32435579970479" lon="-6.590706976130605">
        <ele>807</ele>
        <time>2017-08-06T05:54:28.000Z</time>
      </trkpt>
      <trkpt lat="43.32436703145504" lon="-6.590834883973002">
        <ele>807.2</ele>
        <time>2017-08-06T05:54:36.000Z</time>
      </trkpt>
      <trkpt lat="43.324378514662385" lon="-6.590961450710893">
        <ele>807</ele>
        <time>2017-08-06T05:54:44.000Z</time>
      </trkpt>
      <trkpt lat="43.32438513636589" lon="-6.5910952258855104">
        <ele>806.8</ele>
        <time>2017-08-06T05:54:52.000Z</time>
      </trkpt>
      <trkpt lat="43.32440089434385" lon="-6.591257834807038">
        <ele>807.6</ele>
        <time>2017-08-06T05:55:02.000Z</time>
      </trkpt>
      <trkpt lat="43.32441782578826" lon="-6.591406362131238">
        <ele>808.6</ele>
        <time>2017-08-06T05:55:11.000Z</time>
      </trkpt>
      <trkpt lat="43.32443534396589" lon="-6.591542903333902">
        <ele>810</ele>
        <time>2017-08-06T05:55:20.000Z</time>
      </trkpt>
      <trkpt lat="43.32443869672716" lon="-6.591566288843751">
        <ele>810.2</ele>
        <time>2017-08-06T05:55:22.000Z</time>
      </trkpt>
      <trkpt lat="43.32444431260228" lon="-6.591629823669791">
        <ele>810.8</ele>
        <time>2017-08-06T05:55:26.000Z</time>
      </trkpt>
      <trkpt lat="43.32444238476455" lon="-6.591729987412691">
        <ele>811.4</ele>
        <time>2017-08-06T05:55:33.000Z</time>
      </trkpt>
      <trkpt lat="43.32444439642131" lon="-6.591836856678128">
        <ele>812.2</ele>
        <time>2017-08-06T05:55:40.000Z</time>
      </trkpt>
      <trkpt lat="43.32444364205003" lon="-6.591952443122864">
        <ele>813</ele>
        <time>2017-08-06T05:55:48.000Z</time>
      </trkpt>
      <trkpt lat="43.324445905163884" lon="-6.592086385935545">
        <ele>813.6</ele>
        <time>2017-08-06T05:55:56.000Z</time>
      </trkpt>
      <trkpt lat="43.324447916820645" lon="-6.592205828055739">
        <ele>814.2</ele>
        <time>2017-08-06T05:56:03.000Z</time>
      </trkpt>
      <trkpt lat="43.324448922649026" lon="-6.592325689271092">
        <ele>814.2</ele>
        <time>2017-08-06T05:56:10.000Z</time>
      </trkpt>
      <trkpt lat="43.32445001229644" lon="-6.592449992895126">
        <ele>814.2</ele>
        <time>2017-08-06T05:56:18.000Z</time>
      </trkpt>
      <trkpt lat="43.32445059902966" lon="-6.59257379360497">
        <ele>814.8</ele>
        <time>2017-08-06T05:56:26.000Z</time>
      </trkpt>
      <trkpt lat="43.32444582134485" lon="-6.592678986489773">
        <ele>815</ele>
        <time>2017-08-06T05:56:33.000Z</time>
      </trkpt>
      <trkpt lat="43.32445143721998" lon="-6.59281762316823">
        <ele>815.6</ele>
        <time>2017-08-06T05:56:42.000Z</time>
      </trkpt>
      <trkpt lat="43.324457136914134" lon="-6.592920636758208">
        <ele>816.2</ele>
        <time>2017-08-06T05:56:49.000Z</time>
      </trkpt>
      <trkpt lat="43.3244536165148" lon="-6.593056507408619">
        <ele>816.8</ele>
        <time>2017-08-06T05:56:57.000Z</time>
      </trkpt>
      <trkpt lat="43.32445445470512" lon="-6.5931968204677105">
        <ele>818.8</ele>
        <time>2017-08-06T05:57:06.000Z</time>
      </trkpt>
      <trkpt lat="43.32445973530412" lon="-6.593324476853013">
        <ele>820.6</ele>
        <time>2017-08-06T05:57:14.000Z</time>
      </trkpt>
      <trkpt lat="43.32446518354118" lon="-6.593369571492076">
        <ele>821.4</ele>
        <time>2017-08-06T05:57:17.000Z</time>
      </trkpt>
      <trkpt lat="43.32447004504502" lon="-6.5934336092323065">
        <ele>822.2</ele>
        <time>2017-08-06T05:57:21.000Z</time>
      </trkpt>
      <trkpt lat="43.32448814995587" lon="-6.593570988625288">
        <ele>824.2</ele>
        <time>2017-08-06T05:57:30.000Z</time>
      </trkpt>
      <trkpt lat="43.32453357987106" lon="-6.593719096854329">
        <ele>826</ele>
        <time>2017-08-06T05:57:40.000Z</time>
      </trkpt>
      <trkpt lat="43.32456157542765" lon="-6.59387550316751">
        <ele>827.2</ele>
        <time>2017-08-06T05:57:50.000Z</time>
      </trkpt>
      <trkpt lat="43.3245796803385" lon="-6.594017576426268">
        <ele>827.6</ele>
        <time>2017-08-06T05:57:59.000Z</time>
      </trkpt>
      <trkpt lat="43.32459242083132" lon="-6.594157051295042">
        <ele>828</ele>
        <time>2017-08-06T05:58:08.000Z</time>
      </trkpt>
      <trkpt lat="43.32459803670645" lon="-6.5942770801484585">
        <ele>828.2</ele>
        <time>2017-08-06T05:58:16.000Z</time>
      </trkpt>
      <trkpt lat="43.32460876554251" lon="-6.594406915828586">
        <ele>828.6</ele>
        <time>2017-08-06T05:58:25.000Z</time>
      </trkpt>
      <trkpt lat="43.32461119629443" lon="-6.594523675739765">
        <ele>828.8</ele>
        <time>2017-08-06T05:58:32.000Z</time>
      </trkpt>
      <trkpt lat="43.324623266234994" lon="-6.594682931900024">
        <ele>829.8</ele>
        <time>2017-08-06T05:58:41.000Z</time>
      </trkpt>
      <trkpt lat="43.3246246073395" lon="-6.594808744266629">
        <ele>830.4</ele>
        <time>2017-08-06T05:58:49.000Z</time>
      </trkpt>
      <trkpt lat="43.32462938502431" lon="-6.594944782555103">
        <ele>831.2</ele>
        <time>2017-08-06T05:58:58.000Z</time>
      </trkpt>
      <trkpt lat="43.32462762482464" lon="-6.59499297849834">
        <ele>831.2</ele>
        <time>2017-08-06T05:59:02.000Z</time>
      </trkpt>
      <trkpt lat="43.32463080994785" lon="-6.595025081187487">
        <ele>831.4</ele>
        <time>2017-08-06T05:59:04.000Z</time>
      </trkpt>
      <trkpt lat="43.32463667728007" lon="-6.595138153061271">
        <ele>832</ele>
        <time>2017-08-06T05:59:11.000Z</time>
      </trkpt>
      <trkpt lat="43.32463340833783" lon="-6.595245525240898">
        <ele>832</ele>
        <time>2017-08-06T05:59:18.000Z</time>
      </trkpt>
      <trkpt lat="43.32463885657489" lon="-6.595377791672945">
        <ele>832.8</ele>
        <time>2017-08-06T05:59:26.000Z</time>
      </trkpt>
      <trkpt lat="43.32465134561062" lon="-6.595501089468598">
        <ele>834</ele>
        <time>2017-08-06T05:59:34.000Z</time>
      </trkpt>
      <trkpt lat="43.32465427927673" lon="-6.595643917098641">
        <ele>835</ele>
        <time>2017-08-06T05:59:43.000Z</time>
      </trkpt>
      <trkpt lat="43.324658051133156" lon="-6.5957501996308565">
        <ele>835.4</ele>
        <time>2017-08-06T05:59:50.000Z</time>
      </trkpt>
      <trkpt lat="43.324657967314124" lon="-6.5958665404468775">
        <ele>836</ele>
        <time>2017-08-06T05:59:58.000Z</time>
      </trkpt>
      <trkpt lat="43.324654111638665" lon="-6.595979863777757">
        <ele>837.2</ele>
        <time>2017-08-06T06:00:06.000Z</time>
      </trkpt>
      <trkpt lat="43.32464564591646" lon="-6.596113471314311">
        <ele>838.6</ele>
        <time>2017-08-06T06:00:15.000Z</time>
      </trkpt>
      <trkpt lat="43.32463810220361" lon="-6.596235679462552">
        <ele>840.2</ele>
        <time>2017-08-06T06:00:23.000Z</time>
      </trkpt>
      <trkpt lat="43.32462536171079" lon="-6.596364928409457">
        <ele>841.6</ele>
        <time>2017-08-06T06:00:32.000Z</time>
      </trkpt>
      <trkpt lat="43.32460893318057" lon="-6.596490489318967">
        <ele>843.2</ele>
        <time>2017-08-06T06:00:41.000Z</time>
      </trkpt>
      <trkpt lat="43.32459485158324" lon="-6.596595766022801">
        <ele>844.6</ele>
        <time>2017-08-06T06:00:48.000Z</time>
      </trkpt>
      <trkpt lat="43.32458060234785" lon="-6.596694672480226">
        <ele>845.6</ele>
        <time>2017-08-06T06:00:55.000Z</time>
      </trkpt>
      <trkpt lat="43.32454112358391" lon="-6.59676868468523">
        <ele>846.8</ele>
        <time>2017-08-06T06:01:02.000Z</time>
      </trkpt>
      <trkpt lat="43.32452838309109" lon="-6.5968007035553455">
        <ele>847.2</ele>
        <time>2017-08-06T06:01:07.000Z</time>
      </trkpt>
      <trkpt lat="43.324506506323814" lon="-6.596807409077883">
        <ele>847.4</ele>
        <time>2017-08-06T06:01:17.000Z</time>
      </trkpt>
      <trkpt lat="43.32449896261096" lon="-6.596814952790737">
        <ele>847.6</ele>
        <time>2017-08-06T06:01:25.000Z</time>
      </trkpt>
      <trkpt lat="43.324472643435" lon="-6.596796764060855">
        <ele>847.6</ele>
        <time>2017-08-06T06:01:32.000Z</time>
      </trkpt>
      <trkpt lat="43.3244554605335" lon="-6.5968183893710375">
        <ele>848</ele>
        <time>2017-08-06T06:01:38.000Z</time>
      </trkpt>
      <trkpt lat="43.32439988851547" lon="-6.596864154562354">
        <ele>848.8</ele>
        <time>2017-08-06T06:01:45.000Z</time>
      </trkpt>
      <trkpt lat="43.32434984855354" lon="-6.596882259473205">
        <ele>849.6</ele>
        <time>2017-08-06T06:01:51.000Z</time>
      </trkpt>
      <trkpt lat="43.32434062846005" lon="-6.596888545900583">
        <ele>849.8</ele>
        <time>2017-08-06T06:01:52.000Z</time>
      </trkpt>
      <trkpt lat="43.324292935431004" lon="-6.596897933632135">
        <ele>850.6</ele>
        <time>2017-08-06T06:01:57.000Z</time>
      </trkpt>
      <trkpt lat="43.32421959377825" lon="-6.596920229494572">
        <ele>852</ele>
        <time>2017-08-06T06:02:04.000Z</time>
      </trkpt>
      <trkpt lat="43.32417340949178" lon="-6.5969417709857225">
        <ele>852.8</ele>
        <time>2017-08-06T06:02:10.000Z</time>
      </trkpt>
      <trkpt lat="43.324121525511146" lon="-6.596953002735972">
        <ele>853.6</ele>
        <time>2017-08-06T06:02:22.000Z</time>
      </trkpt>
      <trkpt lat="43.32405271008611" lon="-6.5969727002084255">
        <ele>855</ele>
        <time>2017-08-06T06:02:29.000Z</time>
      </trkpt>
      <trkpt lat="43.32402806729078" lon="-6.5969812497496605">
        <ele>855.6</ele>
        <time>2017-08-06T06:02:32.000Z</time>
      </trkpt>
      <trkpt lat="43.32399579696357" lon="-6.596986195072532">
        <ele>856.2</ele>
        <time>2017-08-06T06:02:35.000Z</time>
      </trkpt>
      <trkpt lat="43.32393201068044" lon="-6.597005305811763">
        <ele>857.6</ele>
        <time>2017-08-06T06:02:42.000Z</time>
      </trkpt>
      <trkpt lat="43.323852298781276" lon="-6.597025757655501">
        <ele>859.2</ele>
        <time>2017-08-06T06:02:50.000Z</time>
      </trkpt>
      <trkpt lat="43.3237786218524" lon="-6.597038498148322">
        <ele>860.6</ele>
        <time>2017-08-06T06:02:58.000Z</time>
      </trkpt>
      <trkpt lat="43.32370502874255" lon="-6.597061213105917">
        <ele>862.6</ele>
        <time>2017-08-06T06:03:06.000Z</time>
      </trkpt>
      <trkpt lat="43.32365716807544" lon="-6.59707160666585">
        <ele>863.8</ele>
        <time>2017-08-06T06:03:12.000Z</time>
      </trkpt>
      <trkpt lat="43.32360955886543" lon="-6.597078647464514">
        <ele>865</ele>
        <time>2017-08-06T06:03:17.000Z</time>
      </trkpt>
      <trkpt lat="43.32359740510583" lon="-6.597085688263178">
        <ele>865.2</ele>
        <time>2017-08-06T06:03:18.000Z</time>
      </trkpt>
      <trkpt lat="43.323540994897485" lon="-6.597081748768687">
        <ele>866.6</ele>
        <time>2017-08-06T06:03:24.000Z</time>
      </trkpt>
      <trkpt lat="43.323500007390976" lon="-6.597061883658171">
        <ele>867.4</ele>
        <time>2017-08-06T06:03:28.000Z</time>
      </trkpt>
      <trkpt lat="43.32346949726343" lon="-6.597047466784716">
        <ele>868</ele>
        <time>2017-08-06T06:03:31.000Z</time>
      </trkpt>
      <trkpt lat="43.32341912202537" lon="-6.5970012824982405">
        <ele>868.6</ele>
        <time>2017-08-06T06:03:37.000Z</time>
      </trkpt>
      <trkpt lat="43.32337117753923" lon="-6.596928695216775">
        <ele>868.6</ele>
        <time>2017-08-06T06:03:44.000Z</time>
      </trkpt>
      <trkpt lat="43.323341170325875" lon="-6.596878906711936">
        <ele>868.4</ele>
        <time>2017-08-06T06:03:49.000Z</time>
      </trkpt>
      <trkpt lat="43.32333588972688" lon="-6.596864657476544">
        <ele>868.2</ele>
        <time>2017-08-06T06:03:50.000Z</time>
      </trkpt>
      <trkpt lat="43.32329649478197" lon="-6.596800284460187">
        <ele>868</ele>
        <time>2017-08-06T06:03:57.000Z</time>
      </trkpt>
      <trkpt lat="43.32324922084808" lon="-6.5967312175780535">
        <ele>868</ele>
        <time>2017-08-06T06:04:05.000Z</time>
      </trkpt>
      <trkpt lat="43.32319582812488" lon="-6.596686374396086">
        <ele>869.4</ele>
        <time>2017-08-06T06:04:11.000Z</time>
      </trkpt>
      <trkpt lat="43.32318032160401" lon="-6.596671370789409">
        <ele>869.8</ele>
        <time>2017-08-06T06:04:13.000Z</time>
      </trkpt>
      <trkpt lat="43.32313749007881" lon="-6.59664262086153">
        <ele>870.8</ele>
        <time>2017-08-06T06:04:17.000Z</time>
      </trkpt>
      <trkpt lat="43.32308032549918" lon="-6.596585791558027">
        <ele>872</ele>
        <time>2017-08-06T06:04:24.000Z</time>
      </trkpt>
      <trkpt lat="43.32305953837931" lon="-6.5965568739920855">
        <ele>872.2</ele>
        <time>2017-08-06T06:04:27.000Z</time>
      </trkpt>
      <trkpt lat="43.32302475348115" lon="-6.5965162217617035">
        <ele>872.6</ele>
        <time>2017-08-06T06:04:31.000Z</time>
      </trkpt>
      <trkpt lat="43.323009414598346" lon="-6.596494093537331">
        <ele>872.6</ele>
        <time>2017-08-06T06:04:33.000Z</time>
      </trkpt>
      <trkpt lat="43.3229598775506" lon="-6.5964559558779">
        <ele>872.8</ele>
        <time>2017-08-06T06:04:38.000Z</time>
      </trkpt>
      <trkpt lat="43.32287773489952" lon="-6.596406754106283">
        <ele>873.6</ele>
        <time>2017-08-06T06:04:46.000Z</time>
      </trkpt>
      <trkpt lat="43.32279508933425" lon="-6.596371382474899">
        <ele>874.6</ele>
        <time>2017-08-06T06:04:54.000Z</time>
      </trkpt>
      <trkpt lat="43.32276809960604" lon="-6.59636459313333">
        <ele>874.8</ele>
        <time>2017-08-06T06:04:56.000Z</time>
      </trkpt>
      <trkpt lat="43.32272577099502" lon="-6.5963660180568695">
        <ele>875.2</ele>
        <time>2017-08-06T06:05:00.000Z</time>
      </trkpt>
      <trkpt lat="43.322639437392354" lon="-6.596369370818138">
        <ele>874</ele>
        <time>2017-08-06T06:05:08.000Z</time>
      </trkpt>
      <trkpt lat="43.32258260808885" lon="-6.5963837038725615">
        <ele>873.8</ele>
        <time>2017-08-06T06:05:13.000Z</time>
      </trkpt>
      <trkpt lat="43.32252779044211" lon="-6.596408179029822">
        <ele>873.8</ele>
        <time>2017-08-06T06:05:19.000Z</time>
      </trkpt>
      <trkpt lat="43.322516893967986" lon="-6.596412789076567">
        <ele>873.8</ele>
        <time>2017-08-06T06:05:20.000Z</time>
      </trkpt>
      <trkpt lat="43.32243508659303" lon="-6.59644078463316">
        <ele>873.8</ele>
        <time>2017-08-06T06:05:28.000Z</time>
      </trkpt>
      <trkpt lat="43.32236903719604" lon="-6.59646081738174">
        <ele>874</ele>
        <time>2017-08-06T06:05:34.000Z</time>
      </trkpt>
      <trkpt lat="43.32234791480005" lon="-6.596470372751355">
        <ele>874.2</ele>
        <time>2017-08-06T06:05:36.000Z</time>
      </trkpt>
      <trkpt lat="43.32231480628252" lon="-6.596473306417465">
        <ele>874</ele>
        <time>2017-08-06T06:05:40.000Z</time>
      </trkpt>
      <trkpt lat="43.322274908423424" lon="-6.596486633643508">
        <ele>874.2</ele>
        <time>2017-08-06T06:05:44.000Z</time>
      </trkpt>
      <trkpt lat="43.322244230657816" lon="-6.596491159871221">
        <ele>874.2</ele>
        <time>2017-08-06T06:05:47.000Z</time>
      </trkpt>
      <trkpt lat="43.32217449322343" lon="-6.596509851515293">
        <ele>874.4</ele>
        <time>2017-08-06T06:05:54.000Z</time>
      </trkpt>
      <trkpt lat="43.3220964577049" lon="-6.596526615321636">
        <ele>876.4</ele>
        <time>2017-08-06T06:06:02.000Z</time>
      </trkpt>
      <trkpt lat="43.32202102057636" lon="-6.596532482653856">
        <ele>878</ele>
        <time>2017-08-06T06:06:09.000Z</time>
      </trkpt>
      <trkpt lat="43.32195798866451" lon="-6.596533069387078">
        <ele>879</ele>
        <time>2017-08-06T06:06:15.000Z</time>
      </trkpt>
      <trkpt lat="43.32188908942044" lon="-6.59653952345252">
        <ele>880.6</ele>
        <time>2017-08-06T06:06:22.000Z</time>
      </trkpt>
      <trkpt lat="43.32185983657837" lon="-6.596540445461869">
        <ele>881.2</ele>
        <time>2017-08-06T06:06:25.000Z</time>
      </trkpt>
      <trkpt lat="43.321847850456834" lon="-6.596540445461869">
        <ele>881.4</ele>
        <time>2017-08-06T06:06:26.000Z</time>
      </trkpt>
      <trkpt lat="43.32182086072862" lon="-6.596539858728647">
        <ele>881.8</ele>
        <time>2017-08-06T06:06:29.000Z</time>
      </trkpt>
      <trkpt lat="43.32179035060108" lon="-6.596544552594423">
        <ele>882.6</ele>
        <time>2017-08-06T06:06:32.000Z</time>
      </trkpt>
      <trkpt lat="43.321781968697906" lon="-6.596546061336994">
        <ele>882.8</ele>
        <time>2017-08-06T06:06:33.000Z</time>
      </trkpt>
      <trkpt lat="43.321703262627125" lon="-6.596549917012453">
        <ele>885</ele>
        <time>2017-08-06T06:06:41.000Z</time>
      </trkpt>
      <trkpt lat="43.32162472419441" lon="-6.596562322229147">
        <ele>887.4</ele>
        <time>2017-08-06T06:06:49.000Z</time>
      </trkpt>
      <trkpt lat="43.32153528928757" lon="-6.596594424918294">
        <ele>889</ele>
        <time>2017-08-06T06:06:58.000Z</time>
      </trkpt>
      <trkpt lat="43.32145230844617" lon="-6.5966160502284765">
        <ele>890.2</ele>
        <time>2017-08-06T06:07:06.000Z</time>
      </trkpt>
      <trkpt lat="43.32138651050627" lon="-6.596642537042499">
        <ele>891.4</ele>
        <time>2017-08-06T06:07:13.000Z</time>
      </trkpt>
      <trkpt lat="43.32130520604551" lon="-6.5966802556067705">
        <ele>892.6</ele>
        <time>2017-08-06T06:07:21.000Z</time>
      </trkpt>
      <trkpt lat="43.32120495848358" lon="-6.596744628623128">
        <ele>893.4</ele>
        <time>2017-08-06T06:07:31.000Z</time>
      </trkpt>
      <trkpt lat="43.32113807089627" lon="-6.5968454629182816">
        <ele>895</ele>
        <time>2017-08-06T06:07:40.000Z</time>
      </trkpt>
      <trkpt lat="43.32110060378909" lon="-6.596928108483553">
        <ele>896.4</ele>
        <time>2017-08-06T06:07:47.000Z</time>
      </trkpt>
      <trkpt lat="43.321076883003116" lon="-6.597039503976703">
        <ele>898.4</ele>
        <time>2017-08-06T06:07:55.000Z</time>
      </trkpt>
      <trkpt lat="43.321070931851864" lon="-6.597082335501909">
        <ele>899</ele>
        <time>2017-08-06T06:07:58.000Z</time>
      </trkpt>
      <trkpt lat="43.32107084803283" lon="-6.597137404605746">
        <ele>900</ele>
        <time>2017-08-06T06:08:02.000Z</time>
      </trkpt>
      <trkpt lat="43.321082750335336" lon="-6.597227090969682">
        <ele>901.8</ele>
        <time>2017-08-06T06:08:09.000Z</time>
      </trkpt>
      <trkpt lat="43.3210881985724" lon="-6.5972421783953905">
        <ele>902</ele>
        <time>2017-08-06T06:08:10.000Z</time>
      </trkpt>
      <trkpt lat="43.321093479171395" lon="-6.597282160073519">
        <ele>902.8</ele>
        <time>2017-08-06T06:08:13.000Z</time>
      </trkpt>
      <trkpt lat="43.32109624519944" lon="-6.597323315218091">
        <ele>903.6</ele>
        <time>2017-08-06T06:08:16.000Z</time>
      </trkpt>
      <trkpt lat="43.321119798347354" lon="-6.59741316922009">
        <ele>905.4</ele>
        <time>2017-08-06T06:08:24.000Z</time>
      </trkpt>
      <trkpt lat="43.32114494405687" lon="-6.5974824875593185">
        <ele>906.6</ele>
        <time>2017-08-06T06:08:31.000Z</time>
      </trkpt>
      <trkpt lat="43.321157516911626" lon="-6.597526827827096">
        <ele>907.4</ele>
        <time>2017-08-06T06:08:36.000Z</time>
      </trkpt>
      <trkpt lat="43.32117729820311" lon="-6.597602097317576">
        <ele>908</ele>
        <time>2017-08-06T06:08:43.000Z</time>
      </trkpt>
      <trkpt lat="43.32117679528892" lon="-6.597656160593033">
        <ele>908.4</ele>
        <time>2017-08-06T06:08:47.000Z</time>
      </trkpt>
      <trkpt lat="43.32117008976638" lon="-6.597691783681512">
        <ele>908.6</ele>
        <time>2017-08-06T06:08:50.000Z</time>
      </trkpt>
      <trkpt lat="43.32114754244685" lon="-6.597796054556966">
        <ele>909.6</ele>
        <time>2017-08-06T06:08:58.000Z</time>
      </trkpt>
      <trkpt lat="43.32113295793533" lon="-6.597839975729585">
        <ele>909.8</ele>
        <time>2017-08-06T06:09:05.000Z</time>
      </trkpt>
      <trkpt lat="43.32113848999143" lon="-6.597844585776329">
        <ele>909.8</ele>
        <time>2017-08-06T06:09:11.000Z</time>
      </trkpt>
      <trkpt lat="43.32113094627857" lon="-6.597832515835762">
        <ele>909.6</ele>
        <time>2017-08-06T06:09:33.000Z</time>
      </trkpt>
      <trkpt lat="43.32111996598542" lon="-6.597889345139265">
        <ele>910</ele>
        <time>2017-08-06T06:09:42.000Z</time>
      </trkpt>
      <trkpt lat="43.32111711613834" lon="-6.597897978499532">
        <ele>910</ele>
        <time>2017-08-06T06:09:49.000Z</time>
      </trkpt>
      <trkpt lat="43.32112885080278" lon="-6.597864953801036">
        <ele>910</ele>
        <time>2017-08-06T06:10:37.000Z</time>
      </trkpt>
      <trkpt lat="43.321139831095934" lon="-6.597859337925911">
        <ele>910</ele>
        <time>2017-08-06T06:10:53.000Z</time>
      </trkpt>
      <trkpt lat="43.32113270647824" lon="-6.597874341532588">
        <ele>910</ele>
        <time>2017-08-06T06:12:39.000Z</time>
      </trkpt>
      <trkpt lat="43.3211381547153" lon="-6.597858415916562">
        <ele>910</ele>
        <time>2017-08-06T06:13:32.000Z</time>
      </trkpt>
      <trkpt lat="43.32113756798208" lon="-6.59784022718668">
        <ele>909.8</ele>
        <time>2017-08-06T06:14:19.000Z</time>
      </trkpt>
      <trkpt lat="43.32113346084952" lon="-6.597818182781339">
        <ele>909.6</ele>
        <time>2017-08-06T06:14:25.000Z</time>
      </trkpt>
      <trkpt lat="43.32113480195403" lon="-6.597804939374328">
        <ele>909.6</ele>
        <time>2017-08-06T06:14:43.000Z</time>
      </trkpt>
      <trkpt lat="43.32113530486822" lon="-6.5978495310992">
        <ele>909.8</ele>
        <time>2017-08-06T06:14:54.000Z</time>
      </trkpt>
      <trkpt lat="43.32113077864051" lon="-6.597847184166312">
        <ele>909.8</ele>
        <time>2017-08-06T06:14:55.000Z</time>
      </trkpt>
      <trkpt lat="43.32112750969827" lon="-6.597833521664143">
        <ele>909.6</ele>
        <time>2017-08-06T06:15:02.000Z</time>
      </trkpt>
      <trkpt lat="43.321134969592094" lon="-6.5978217869997025">
        <ele>909.6</ele>
        <time>2017-08-06T06:15:24.000Z</time>
      </trkpt>
      <trkpt lat="43.32113279029727" lon="-6.597833940759301">
        <ele>909.8</ele>
        <time>2017-08-06T06:15:33.000Z</time>
      </trkpt>
      <trkpt lat="43.32112549804151" lon="-6.597868809476495">
        <ele>910</ele>
        <time>2017-08-06T06:16:23.000Z</time>
      </trkpt>
      <trkpt lat="43.32111175172031" lon="-6.597915161401033">
        <ele>910.2</ele>
        <time>2017-08-06T06:16:35.000Z</time>
      </trkpt>
      <trkpt lat="43.3210916351527" lon="-6.597988838329911">
        <ele>910.6</ele>
        <time>2017-08-06T06:16:44.000Z</time>
      </trkpt>
      <trkpt lat="43.32106422632933" lon="-6.598125295713544">
        <ele>911.4</ele>
        <time>2017-08-06T06:16:52.000Z</time>
      </trkpt>
      <trkpt lat="43.321040757000446" lon="-6.59828438423574">
        <ele>913</ele>
        <time>2017-08-06T06:17:01.000Z</time>
      </trkpt>
      <trkpt lat="43.32103178836405" lon="-6.598329562693834">
        <ele>913.4</ele>
        <time>2017-08-06T06:17:04.000Z</time>
      </trkpt>
      <trkpt lat="43.32101938314736" lon="-6.598361330106854">
        <ele>913.6</ele>
        <time>2017-08-06T06:17:06.000Z</time>
      </trkpt>
      <trkpt lat="43.32100295461714" lon="-6.598427798599005">
        <ele>914.4</ele>
        <time>2017-08-06T06:17:10.000Z</time>
      </trkpt>
      <trkpt lat="43.32097554579377" lon="-6.598484795540571">
        <ele>915</ele>
        <time>2017-08-06T06:17:14.000Z</time>
      </trkpt>
      <trkpt lat="43.320963559672236" lon="-6.59851404838264">
        <ele>915.4</ele>
        <time>2017-08-06T06:17:16.000Z</time>
      </trkpt>
      <trkpt lat="43.32094646058977" lon="-6.598580600693822">
        <ele>916.4</ele>
        <time>2017-08-06T06:17:20.000Z</time>
      </trkpt>
      <trkpt lat="43.320907317101955" lon="-6.598716471344233">
        <ele>917.6</ele>
        <time>2017-08-06T06:17:28.000Z</time>
      </trkpt>
      <trkpt lat="43.32086155191064" lon="-6.598851336166263">
        <ele>918.4</ele>
        <time>2017-08-06T06:17:36.000Z</time>
      </trkpt>
      <trkpt lat="43.320812433958054" lon="-6.598993660882115">
        <ele>919.8</ele>
        <time>2017-08-06T06:17:45.000Z</time>
      </trkpt>
      <trkpt lat="43.32076692022383" lon="-6.599111510440707">
        <ele>921</ele>
        <time>2017-08-06T06:17:53.000Z</time>
      </trkpt>
      <trkpt lat="43.32071495242417" lon="-6.599245201796293">
        <ele>922.2</ele>
        <time>2017-08-06T06:18:02.000Z</time>
      </trkpt>
      <trkpt lat="43.320660050958395" lon="-6.599374618381262">
        <ele>923.4</ele>
        <time>2017-08-06T06:18:11.000Z</time>
      </trkpt>
      <trkpt lat="43.32059416919947" lon="-6.5994984190911055">
        <ele>924.2</ele>
        <time>2017-08-06T06:18:20.000Z</time>
      </trkpt>
      <trkpt lat="43.32054488360882" lon="-6.599579304456711">
        <ele>924.8</ele>
        <time>2017-08-06T06:18:26.000Z</time>
      </trkpt>
      <trkpt lat="43.32047455944121" lon="-6.599697237834334">
        <ele>925.4</ele>
        <time>2017-08-06T06:18:35.000Z</time>
      </trkpt>
      <trkpt lat="43.320414712652564" lon="-6.599797485396266">
        <ele>925.2</ele>
        <time>2017-08-06T06:18:43.000Z</time>
      </trkpt>
      <trkpt lat="43.32034514285624" lon="-6.599904019385576">
        <ele>925</ele>
        <time>2017-08-06T06:18:52.000Z</time>
      </trkpt>
      <trkpt lat="43.32028596661985" lon="-6.600000075995922">
        <ele>924.2</ele>
        <time>2017-08-06T06:19:00.000Z</time>
      </trkpt>
      <trkpt lat="43.320224191993475" lon="-6.600104849785566">
        <ele>925.2</ele>
        <time>2017-08-06T06:19:09.000Z</time>
      </trkpt>
      <trkpt lat="43.32016040571034" lon="-6.600202163681388">
        <ele>925.8</ele>
        <time>2017-08-06T06:19:18.000Z</time>
      </trkpt>
      <trkpt lat="43.3201087731868" lon="-6.600294951349497">
        <ele>926.8</ele>
        <time>2017-08-06T06:19:26.000Z</time>
      </trkpt>
      <trkpt lat="43.320090249180794" lon="-6.600334346294403">
        <ele>927.2</ele>
        <time>2017-08-06T06:19:29.000Z</time>
      </trkpt>
      <trkpt lat="43.3200796879828" lon="-6.600380782037973">
        <ele>928</ele>
        <time>2017-08-06T06:19:32.000Z</time>
      </trkpt>
      <trkpt lat="43.32003333605826" lon="-6.600468456745148">
        <ele>928.8</ele>
        <time>2017-08-06T06:19:39.000Z</time>
      </trkpt>
      <trkpt lat="43.320005256682634" lon="-6.600516149774194">
        <ele>929</ele>
        <time>2017-08-06T06:19:44.000Z</time>
      </trkpt>
      <trkpt lat="43.31996586173773" lon="-6.600579936057329">
        <ele>929.4</ele>
        <time>2017-08-06T06:19:50.000Z</time>
      </trkpt>
      <trkpt lat="43.31991565413773" lon="-6.600668700411916">
        <ele>929.4</ele>
        <time>2017-08-06T06:19:57.000Z</time>
      </trkpt>
      <trkpt lat="43.31987542100251" lon="-6.600747657939792">
        <ele>929.6</ele>
        <time>2017-08-06T06:20:03.000Z</time>
      </trkpt>
      <trkpt lat="43.31986125558615" lon="-6.600772049278021">
        <ele>929.6</ele>
        <time>2017-08-06T06:20:05.000Z</time>
      </trkpt>
      <trkpt lat="43.31979847513139" lon="-6.600881516933441">
        <ele>929.6</ele>
        <time>2017-08-06T06:20:14.000Z</time>
      </trkpt>
      <trkpt lat="43.3197480160743" lon="-6.6009653359651566">
        <ele>930.4</ele>
        <time>2017-08-06T06:20:21.000Z</time>
      </trkpt>
      <trkpt lat="43.319687247276306" lon="-6.601059045642614">
        <ele>931.2</ele>
        <time>2017-08-06T06:20:29.000Z</time>
      </trkpt>
      <trkpt lat="43.319611474871635" lon="-6.601168513298035">
        <ele>932</ele>
        <time>2017-08-06T06:20:39.000Z</time>
      </trkpt>
      <trkpt lat="43.31955221481621" lon="-6.601243196055293">
        <ele>932.4</ele>
        <time>2017-08-06T06:20:46.000Z</time>
      </trkpt>
      <trkpt lat="43.319493206217885" lon="-6.601316872984171">
        <ele>933</ele>
        <time>2017-08-06T06:20:53.000Z</time>
      </trkpt>
      <trkpt lat="43.31943000666797" lon="-6.601390298455954">
        <ele>933.2</ele>
        <time>2017-08-06T06:21:00.000Z</time>
      </trkpt>
      <trkpt lat="43.319350546225905" lon="-6.601505381986499">
        <ele>933.6</ele>
        <time>2017-08-06T06:21:10.000Z</time>
      </trkpt>
      <trkpt lat="43.31929472275078" lon="-6.601603114977479">
        <ele>934.2</ele>
        <time>2017-08-06T06:21:18.000Z</time>
      </trkpt>
      <trkpt lat="43.31924241967499" lon="-6.601689280942082">
        <ele>934.4</ele>
        <time>2017-08-06T06:21:26.000Z</time>
      </trkpt>
      <trkpt lat="43.31919187679887" lon="-6.601785337552428">
        <ele>935.6</ele>
        <time>2017-08-06T06:21:34.000Z</time>
      </trkpt>
      <trkpt lat="43.319131610915065" lon="-6.601903270930052">
        <ele>937.2</ele>
        <time>2017-08-06T06:21:43.000Z</time>
      </trkpt>
      <trkpt lat="43.31907629035413" lon="-6.602033944800496">
        <ele>938.4</ele>
        <time>2017-08-06T06:21:53.000Z</time>
      </trkpt>
      <trkpt lat="43.31903186626732" lon="-6.602158080786467">
        <ele>938.6</ele>
        <time>2017-08-06T06:22:02.000Z</time>
      </trkpt>
      <trkpt lat="43.31898266449571" lon="-6.60226377658546">
        <ele>938.6</ele>
        <time>2017-08-06T06:22:10.000Z</time>
      </trkpt>
      <trkpt lat="43.31890555098653" lon="-6.6023987252265215">
        <ele>939.6</ele>
        <time>2017-08-06T06:22:20.000Z</time>
      </trkpt>
      <trkpt lat="43.31884008832276" lon="-6.6025209333747625">
        <ele>940.8</ele>
        <time>2017-08-06T06:22:29.000Z</time>
      </trkpt>
      <trkpt lat="43.31878543831408" lon="-6.602628054097295">
        <ele>941.8</ele>
        <time>2017-08-06T06:22:37.000Z</time>
      </trkpt>
      <trkpt lat="43.31871980801225" lon="-6.602743808180094">
        <ele>942.8</ele>
        <time>2017-08-06T06:22:46.000Z</time>
      </trkpt>
      <trkpt lat="43.31866390071809" lon="-6.602836512029171">
        <ele>943.2</ele>
        <time>2017-08-06T06:22:53.000Z</time>
      </trkpt>
      <trkpt lat="43.318588295951486" lon="-6.602966682985425">
        <ele>943.2</ele>
        <time>2017-08-06T06:23:03.000Z</time>
      </trkpt>
      <trkpt lat="43.31853171810508" lon="-6.603064248338342">
        <ele>943.2</ele>
        <time>2017-08-06T06:23:10.000Z</time>
      </trkpt>
      <trkpt lat="43.318521324545145" lon="-6.603086963295937">
        <ele>943.4</ele>
        <time>2017-08-06T06:23:12.000Z</time>
      </trkpt>
      <trkpt lat="43.31850548274815" lon="-6.603114623576403">
        <ele>943.4</ele>
        <time>2017-08-06T06:23:14.000Z</time>
      </trkpt>
      <trkpt lat="43.31848846748471" lon="-6.603151923045516">
        <ele>943.4</ele>
        <time>2017-08-06T06:23:17.000Z</time>
      </trkpt>
      <trkpt lat="43.31848301924765" lon="-6.60316382534802">
        <ele>943.4</ele>
        <time>2017-08-06T06:23:18.000Z</time>
      </trkpt>
      <trkpt lat="43.318447479978204" lon="-6.603254349902272">
        <ele>944</ele>
        <time>2017-08-06T06:23:25.000Z</time>
      </trkpt>
      <trkpt lat="43.318421579897404" lon="-6.603348311036825">
        <ele>944.8</ele>
        <time>2017-08-06T06:23:32.000Z</time>
      </trkpt>
      <trkpt lat="43.31837405450642" lon="-6.603446211665869">
        <ele>945.4</ele>
        <time>2017-08-06T06:23:40.000Z</time>
      </trkpt>
      <trkpt lat="43.31831445917487" lon="-6.603541094809771">
        <ele>946</ele>
        <time>2017-08-06T06:23:48.000Z</time>
      </trkpt>
      <trkpt lat="43.31825193017721" lon="-6.603592894971371">
        <ele>946.2</ele>
        <time>2017-08-06T06:23:55.000Z</time>
      </trkpt>
      <trkpt lat="43.31818680278957" lon="-6.603607060387731">
        <ele>946.4</ele>
        <time>2017-08-06T06:24:01.000Z</time>
      </trkpt>
      <trkpt lat="43.318107929080725" lon="-6.603592308238149">
        <ele>946.2</ele>
        <time>2017-08-06T06:24:08.000Z</time>
      </trkpt>
      <trkpt lat="43.3180521056056" lon="-6.603581411764026">
        <ele>945.8</ele>
        <time>2017-08-06T06:24:13.000Z</time>
      </trkpt>
      <trkpt lat="43.31803970038891" lon="-6.603584345430136">
        <ele>945.6</ele>
        <time>2017-08-06T06:24:14.000Z</time>
      </trkpt>
      <trkpt lat="43.31797733902931" lon="-6.6035564336925745">
        <ele>945</ele>
        <time>2017-08-06T06:24:20.000Z</time>
      </trkpt>
      <trkpt lat="43.317909613251686" lon="-6.603526929393411">
        <ele>946.8</ele>
        <time>2017-08-06T06:24:27.000Z</time>
      </trkpt>
      <trkpt lat="43.317828476428986" lon="-6.60348636098206">
        <ele>947.6</ele>
        <time>2017-08-06T06:24:35.000Z</time>
      </trkpt>
      <trkpt lat="43.317736024037" lon="-6.603449480608106">
        <ele>947.6</ele>
        <time>2017-08-06T06:24:44.000Z</time>
      </trkpt>
      <trkpt lat="43.317660419270396" lon="-6.603416372090578">
        <ele>947.4</ele>
        <time>2017-08-06T06:24:52.000Z</time>
      </trkpt>
      <trkpt lat="43.31764952279627" lon="-6.603416875004768">
        <ele>947.8</ele>
        <time>2017-08-06T06:24:53.000Z</time>
      </trkpt>
      <trkpt lat="43.317589927464724" lon="-6.60339692607522">
        <ele>948.6</ele>
        <time>2017-08-06T06:24:59.000Z</time>
      </trkpt>
      <trkpt lat="43.31755363382399" lon="-6.603389969095588">
        <ele>949.4</ele>
        <time>2017-08-06T06:25:04.000Z</time>
      </trkpt>
      <trkpt lat="43.31752572208643" lon="-6.603381671011448">
        <ele>949.8</ele>
        <time>2017-08-06T06:25:07.000Z</time>
      </trkpt>
      <trkpt lat="43.31749646924436" lon="-6.603371361270547">
        <ele>950</ele>
        <time>2017-08-06T06:25:10.000Z</time>
      </trkpt>
      <trkpt lat="43.31744223833084" lon="-6.603363649919629">
        <ele>951.2</ele>
        <time>2017-08-06T06:25:15.000Z</time>
      </trkpt>
      <trkpt lat="43.31741323694587" lon="-6.603361302986741">
        <ele>951.8</ele>
        <time>2017-08-06T06:25:18.000Z</time>
      </trkpt>
      <trkpt lat="43.31736101768911" lon="-6.603323249146342">
        <ele>950.6</ele>
        <time>2017-08-06T06:25:24.000Z</time>
      </trkpt>
      <trkpt lat="43.31735188141465" lon="-6.603322075679898">
        <ele>950.8</ele>
        <time>2017-08-06T06:25:25.000Z</time>
      </trkpt>
      <trkpt lat="43.317272337153554" lon="-6.603305647149682">
        <ele>951.6</ele>
        <time>2017-08-06T06:25:33.000Z</time>
      </trkpt>
      <trkpt lat="43.31723352894187" lon="-6.60329869017005">
        <ele>952</ele>
        <time>2017-08-06T06:25:37.000Z</time>
      </trkpt>
      <trkpt lat="43.31721005961299" lon="-6.603293241932988">
        <ele>952</ele>
        <time>2017-08-06T06:25:39.000Z</time>
      </trkpt>
      <trkpt lat="43.31717108376324" lon="-6.603278489783406">
        <ele>951.8</ele>
        <time>2017-08-06T06:25:43.000Z</time>
      </trkpt>
      <trkpt lat="43.31713613122702" lon="-6.603265246376395">
        <ele>951.4</ele>
        <time>2017-08-06T06:25:46.000Z</time>
      </trkpt>
      <trkpt lat="43.3170834928751" lon="-6.603267258033156">
        <ele>952.2</ele>
        <time>2017-08-06T06:25:50.000Z</time>
      </trkpt>
      <trkpt lat="43.3170108217746" lon="-6.603254349902272">
        <ele>952.2</ele>
        <time>2017-08-06T06:25:57.000Z</time>
      </trkpt>
      <trkpt lat="43.316986514255404" lon="-6.603254768997431">
        <ele>952.6</ele>
        <time>2017-08-06T06:26:00.000Z</time>
      </trkpt>
      <trkpt lat="43.316958686336875" lon="-6.60324839875102">
        <ele>952.6</ele>
        <time>2017-08-06T06:26:03.000Z</time>
      </trkpt>
      <trkpt lat="43.31687017343938" lon="-6.603243537247181">
        <ele>953.8</ele>
        <time>2017-08-06T06:26:11.000Z</time>
      </trkpt>
      <trkpt lat="43.31678945571184" lon="-6.6032425314188">
        <ele>954.2</ele>
        <time>2017-08-06T06:26:19.000Z</time>
      </trkpt>
      <trkpt lat="43.31668610684574" lon="-6.6032495722174644">
        <ele>955.6</ele>
        <time>2017-08-06T06:26:29.000Z</time>
      </trkpt>
      <trkpt lat="43.31660505384207" lon="-6.603261139243841">
        <ele>956.8</ele>
        <time>2017-08-06T06:26:37.000Z</time>
      </trkpt>
      <trkpt lat="43.31653875298798" lon="-6.603287626057863">
        <ele>958</ele>
        <time>2017-08-06T06:26:44.000Z</time>
      </trkpt>
      <trkpt lat="43.31647924147546" lon="-6.603338923305273">
        <ele>960.4</ele>
        <time>2017-08-06T06:26:52.000Z</time>
      </trkpt>
      <trkpt lat="43.31642149016261" lon="-6.6033867839723825">
        <ele>962.2</ele>
        <time>2017-08-06T06:26:59.000Z</time>
      </trkpt>
      <trkpt lat="43.31641302444041" lon="-6.603393405675888">
        <ele>962.6</ele>
        <time>2017-08-06T06:27:00.000Z</time>
      </trkpt>
      <trkpt lat="43.316344460472465" lon="-6.603450151160359">
        <ele>964.6</ele>
        <time>2017-08-06T06:27:08.000Z</time>
      </trkpt>
      <trkpt lat="43.31629098393023" lon="-6.6035278514027596">
        <ele>966.8</ele>
        <time>2017-08-06T06:27:16.000Z</time>
      </trkpt>
      <trkpt lat="43.31623675301671" lon="-6.603593733161688">
        <ele>968.8</ele>
        <time>2017-08-06T06:27:23.000Z</time>
      </trkpt>
      <trkpt lat="43.316178331151605" lon="-6.603664895519614">
        <ele>970.4</ele>
        <time>2017-08-06T06:27:31.000Z</time>
      </trkpt>
      <trkpt lat="43.316139271482825" lon="-6.6037004347890615">
        <ele>970.8</ele>
        <time>2017-08-06T06:27:36.000Z</time>
      </trkpt>
      <trkpt lat="43.31611127592623" lon="-6.603727173060179">
        <ele>971.2</ele>
        <time>2017-08-06T06:27:39.000Z</time>
      </trkpt>
      <trkpt lat="43.31607045605779" lon="-6.603772267699242">
        <ele>972</ele>
        <time>2017-08-06T06:27:44.000Z</time>
      </trkpt>
      <trkpt lat="43.316053692251444" lon="-6.603791797533631">
        <ele>972.2</ele>
        <time>2017-08-06T06:27:46.000Z</time>
      </trkpt>
      <trkpt lat="43.315993677824736" lon="-6.6038562543690205">
        <ele>972</ele>
        <time>2017-08-06T06:27:53.000Z</time>
      </trkpt>
      <trkpt lat="43.31592209637165" lon="-6.603955663740635">
        <ele>972.4</ele>
        <time>2017-08-06T06:28:02.000Z</time>
      </trkpt>
      <trkpt lat="43.315868619829416" lon="-6.604051133617759">
        <ele>973.2</ele>
        <time>2017-08-06T06:28:10.000Z</time>
      </trkpt>
      <trkpt lat="43.31583182327449" lon="-6.604137551039457">
        <ele>974.2</ele>
        <time>2017-08-06T06:28:17.000Z</time>
      </trkpt>
      <trkpt lat="43.31582050770521" lon="-6.604181136935949">
        <ele>974.8</ele>
        <time>2017-08-06T06:28:20.000Z</time>
      </trkpt>
      <trkpt lat="43.31580298952758" lon="-6.6042364574968815">
        <ele>974.8</ele>
        <time>2017-08-06T06:28:24.000Z</time>
      </trkpt>
      <trkpt lat="43.31575823016465" lon="-6.604342320933938">
        <ele>974.4</ele>
        <time>2017-08-06T06:28:33.000Z</time>
      </trkpt>
      <trkpt lat="43.3157279714942" lon="-6.604438377544284">
        <ele>974.2</ele>
        <time>2017-08-06T06:28:40.000Z</time>
      </trkpt>
      <trkpt lat="43.31568212248385" lon="-6.604586653411388">
        <ele>975.6</ele>
        <time>2017-08-06T06:28:50.000Z</time>
      </trkpt>
      <trkpt lat="43.31563979387283" lon="-6.604703329503536">
        <ele>976.6</ele>
        <time>2017-08-06T06:28:58.000Z</time>
      </trkpt>
      <trkpt lat="43.31559436395764" lon="-6.604830315336585">
        <ele>978.2</ele>
        <time>2017-08-06T06:29:07.000Z</time>
      </trkpt>
      <trkpt lat="43.31555664539337" lon="-6.604958726093173">
        <ele>980.6</ele>
        <time>2017-08-06T06:29:15.000Z</time>
      </trkpt>
      <trkpt lat="43.315521692857146" lon="-6.60505335777998">
        <ele>981.6</ele>
        <time>2017-08-06T06:29:22.000Z</time>
      </trkpt>
      <trkpt lat="43.31547626294196" lon="-6.6051918268203735">
        <ele>980.8</ele>
        <time>2017-08-06T06:29:32.000Z</time>
      </trkpt>
      <trkpt lat="43.31542798317969" lon="-6.6053379233926535">
        <ele>980.2</ele>
        <time>2017-08-06T06:29:42.000Z</time>
      </trkpt>
      <trkpt lat="43.31539914943278" lon="-6.605430543422699">
        <ele>981</ele>
        <time>2017-08-06T06:29:48.000Z</time>
      </trkpt>
      <trkpt lat="43.31536805257201" lon="-6.605565743520856">
        <ele>981.8</ele>
        <time>2017-08-06T06:29:57.000Z</time>
      </trkpt>
      <trkpt lat="43.31533963792026" lon="-6.605660542845726">
        <ele>982.2</ele>
        <time>2017-08-06T06:30:03.000Z</time>
      </trkpt>
      <trkpt lat="43.315313486382365" lon="-6.605782164260745">
        <ele>983</ele>
        <time>2017-08-06T06:30:11.000Z</time>
      </trkpt>
      <trkpt lat="43.31528431735933" lon="-6.605908730998635">
        <ele>983.8</ele>
        <time>2017-08-06T06:30:19.000Z</time>
      </trkpt>
      <trkpt lat="43.31526160240173" lon="-6.606044350191951">
        <ele>984.8</ele>
        <time>2017-08-06T06:30:27.000Z</time>
      </trkpt>
      <trkpt lat="43.315245509147644" lon="-6.606177622452378">
        <ele>986.2</ele>
        <time>2017-08-06T06:30:35.000Z</time>
      </trkpt>
      <trkpt lat="43.31521248444915" lon="-6.606342075392604">
        <ele>987.2</ele>
        <time>2017-08-06T06:30:45.000Z</time>
      </trkpt>
      <trkpt lat="43.315167389810085" lon="-6.606471156701446">
        <ele>988.8</ele>
        <time>2017-08-06T06:30:53.000Z</time>
      </trkpt>
      <trkpt lat="43.31511810421944" lon="-6.6065948735922575">
        <ele>991.6</ele>
        <time>2017-08-06T06:31:01.000Z</time>
      </trkpt>
      <trkpt lat="43.31507426686585" lon="-6.606686990708113">
        <ele>993.6</ele>
        <time>2017-08-06T06:31:08.000Z</time>
      </trkpt>
      <trkpt lat="43.314998829737306" lon="-6.606784639880061">
        <ele>994.8</ele>
        <time>2017-08-06T06:31:17.000Z</time>
      </trkpt>
      <trkpt lat="43.31490386277437" lon="-6.60684272646904">
        <ele>995.2</ele>
        <time>2017-08-06T06:31:26.000Z</time>
      </trkpt>
      <trkpt lat="43.314841417595744" lon="-6.606843397021294">
        <ele>995</ele>
        <time>2017-08-06T06:31:31.000Z</time>
      </trkpt>
      <trkpt lat="43.31482222303748" lon="-6.60684859380126">
        <ele>995.2</ele>
        <time>2017-08-06T06:31:33.000Z</time>
      </trkpt>
      <trkpt lat="43.314815014600754" lon="-6.606858232989907">
        <ele>995.6</ele>
        <time>2017-08-06T06:31:35.000Z</time>
      </trkpt>
      <trkpt lat="43.31481291912496" lon="-6.606855383142829">
        <ele>995.4</ele>
        <time>2017-08-06T06:31:38.000Z</time>
      </trkpt>
      <trkpt lat="43.3147675730288" lon="-6.6068666987121105">
        <ele>995.4</ele>
        <time>2017-08-06T06:31:52.000Z</time>
      </trkpt>
      <trkpt lat="43.31465374678373" lon="-6.606878014281392">
        <ele>992.6</ele>
        <time>2017-08-06T06:32:01.000Z</time>
      </trkpt>
      <trkpt lat="43.3145537506789" lon="-6.606894358992577">
        <ele>990.4</ele>
        <time>2017-08-06T06:32:08.000Z</time>
      </trkpt>
      <trkpt lat="43.314460376277566" lon="-6.60694582387805">
        <ele>991.2</ele>
        <time>2017-08-06T06:32:16.000Z</time>
      </trkpt>
      <trkpt lat="43.31432953476906" lon="-6.607068032026291">
        <ele>992.6</ele>
        <time>2017-08-06T06:32:28.000Z</time>
      </trkpt>
      <trkpt lat="43.31424621865153" lon="-6.607198370620608">
        <ele>995.2</ele>
        <time>2017-08-06T06:32:39.000Z</time>
      </trkpt>
      <trkpt lat="43.31417178735137" lon="-6.607331642881036">
        <ele>997.4</ele>
        <time>2017-08-06T06:32:49.000Z</time>
      </trkpt>
      <trkpt lat="43.31415385007858" lon="-6.607384784147143">
        <ele>998.6</ele>
        <time>2017-08-06T06:32:53.000Z</time>
      </trkpt>
      <trkpt lat="43.314131973311305" lon="-6.607437590137124">
        <ele>999.6</ele>
        <time>2017-08-06T06:32:57.000Z</time>
      </trkpt>
      <trkpt lat="43.31407455727458" lon="-6.607602294534445">
        <ele>1002</ele>
        <time>2017-08-06T06:33:08.000Z</time>
      </trkpt>
      <trkpt lat="43.31405209377408" lon="-6.607725592330098">
        <ele>1004.2</ele>
        <time>2017-08-06T06:33:16.000Z</time>
      </trkpt>
      <trkpt lat="43.314024433493614" lon="-6.607859618961811">
        <ele>1006.6</ele>
        <time>2017-08-06T06:33:25.000Z</time>
      </trkpt>
      <trkpt lat="43.31399048678577" lon="-6.607993394136429">
        <ele>1009</ele>
        <time>2017-08-06T06:33:34.000Z</time>
      </trkpt>
      <trkpt lat="43.3139715436846" lon="-6.6081510577350855">
        <ele>1012.2</ele>
        <time>2017-08-06T06:33:44.000Z</time>
      </trkpt>
      <trkpt lat="43.31392200663686" lon="-6.608304949477315">
        <ele>1013.4</ele>
        <time>2017-08-06T06:33:54.000Z</time>
      </trkpt>
      <trkpt lat="43.31386643461883" lon="-6.608449621126056">
        <ele>1013.2</ele>
        <time>2017-08-06T06:34:03.000Z</time>
      </trkpt>
      <trkpt lat="43.31381211988628" lon="-6.608590018004179">
        <ele>1012.4</ele>
        <time>2017-08-06T06:34:12.000Z</time>
      </trkpt>
      <trkpt lat="43.31376023590565" lon="-6.608755476772785">
        <ele>1011.4</ele>
        <time>2017-08-06T06:34:22.000Z</time>
      </trkpt>
      <trkpt lat="43.31371530890465" lon="-6.608937447890639">
        <ele>1010.8</ele>
        <time>2017-08-06T06:34:33.000Z</time>
      </trkpt>
      <trkpt lat="43.313683876767755" lon="-6.609030654653907">
        <ele>1010.2</ele>
        <time>2017-08-06T06:34:39.000Z</time>
      </trkpt>
      <trkpt lat="43.31368379294872" lon="-6.609043730422854">
        <ele>1010.2</ele>
        <time>2017-08-06T06:34:40.000Z</time>
      </trkpt>
      <trkpt lat="43.31368597224355" lon="-6.609045071527362">
        <ele>1010.4</ele>
        <time>2017-08-06T06:34:44.000Z</time>
      </trkpt>
      <trkpt lat="43.31368714570999" lon="-6.609042389318347">
        <ele>1010.4</ele>
        <time>2017-08-06T06:34:51.000Z</time>
      </trkpt>
      <trkpt lat="43.31369083374739" lon="-6.609033923596144">
        <ele>1010.6</ele>
        <time>2017-08-06T06:35:00.000Z</time>
      </trkpt>
      <trkpt lat="43.31370013765991" lon="-6.60902738571167">
        <ele>1010.8</ele>
        <time>2017-08-06T06:35:11.000Z</time>
      </trkpt>
      <trkpt lat="43.31368647515774" lon="-6.60905378870666">
        <ele>1010.4</ele>
        <time>2017-08-06T06:36:45.000Z</time>
      </trkpt>
      <trkpt lat="43.3136969525367" lon="-6.6089927684515715">
        <ele>1010.4</ele>
        <time>2017-08-06T06:37:18.000Z</time>
      </trkpt>
      <trkpt lat="43.3136816136539" lon="-6.609037192538381">
        <ele>1010.2</ele>
        <time>2017-08-06T06:37:40.000Z</time>
      </trkpt>
      <trkpt lat="43.31368069164455" lon="-6.609065858647227">
        <ele>1010.2</ele>
        <time>2017-08-06T06:37:48.000Z</time>
      </trkpt>
      <trkpt lat="43.31365395337343" lon="-6.609131824225187">
        <ele>1009.8</ele>
        <time>2017-08-06T06:37:53.000Z</time>
      </trkpt>
      <trkpt lat="43.31364255398512" lon="-6.609202399849892">
        <ele>1010</ele>
        <time>2017-08-06T06:37:58.000Z</time>
      </trkpt>
      <trkpt lat="43.31364305689931" lon="-6.609198292717338">
        <ele>1010</ele>
        <time>2017-08-06T06:37:59.000Z</time>
      </trkpt>
      <trkpt lat="43.3136226888746" lon="-6.609266856685281">
        <ele>1010.2</ele>
        <time>2017-08-06T06:38:06.000Z</time>
      </trkpt>
      <trkpt lat="43.31357918679714" lon="-6.609438015148044">
        <ele>1011.2</ele>
        <time>2017-08-06T06:38:17.000Z</time>
      </trkpt>
      <trkpt lat="43.31352344714105" lon="-6.609586458653212">
        <ele>1012.4</ele>
        <time>2017-08-06T06:38:27.000Z</time>
      </trkpt>
      <trkpt lat="43.31347642466426" lon="-6.6096957586705685">
        <ele>1013.8</ele>
        <time>2017-08-06T06:38:35.000Z</time>
      </trkpt>
      <trkpt lat="43.3134775981307" lon="-6.609691735357046">
        <ele>1013.8</ele>
        <time>2017-08-06T06:38:36.000Z</time>
      </trkpt>
      <trkpt lat="43.313456643372774" lon="-6.60971294157207">
        <ele>1013.8</ele>
        <time>2017-08-06T06:38:46.000Z</time>
      </trkpt>
      <trkpt lat="43.313391683623195" lon="-6.609823750331998">
        <ele>1015.2</ele>
        <time>2017-08-06T06:38:54.000Z</time>
      </trkpt>
      <trkpt lat="43.31336075440049" lon="-6.609861720353365">
        <ele>1015.4</ele>
        <time>2017-08-06T06:38:58.000Z</time>
      </trkpt>
      <trkpt lat="43.31332596950233" lon="-6.609890218824148">
        <ele>1015.6</ele>
        <time>2017-08-06T06:39:01.000Z</time>
      </trkpt>
      <trkpt lat="43.31326201558113" lon="-6.610007062554359">
        <ele>1017.2</ele>
        <time>2017-08-06T06:39:10.000Z</time>
      </trkpt>
      <trkpt lat="43.31321373581886" lon="-6.6101666539907455">
        <ele>1018.2</ele>
        <time>2017-08-06T06:39:21.000Z</time>
      </trkpt>
      <trkpt lat="43.3131895121187" lon="-6.610298166051507">
        <ele>1018.6</ele>
        <time>2017-08-06T06:39:30.000Z</time>
      </trkpt>
      <trkpt lat="43.31317903473973" lon="-6.610358012840152">
        <ele>1018.6</ele>
        <time>2017-08-06T06:39:34.000Z</time>
      </trkpt>
      <trkpt lat="43.313175262883306" lon="-6.610426576808095">
        <ele>1018.4</ele>
        <time>2017-08-06T06:39:38.000Z</time>
      </trkpt>
      <trkpt lat="43.31314894370735" lon="-6.610537217929959">
        <ele>1017.4</ele>
        <time>2017-08-06T06:39:45.000Z</time>
      </trkpt>
      <trkpt lat="43.31308423541486" lon="-6.6106699872761965">
        <ele>1016.8</ele>
        <time>2017-08-06T06:39:55.000Z</time>
      </trkpt>
      <trkpt lat="43.31300351768732" lon="-6.610788758844137">
        <ele>1016.6</ele>
        <time>2017-08-06T06:40:05.000Z</time>
      </trkpt>
      <trkpt lat="43.31290637142956" lon="-6.610919013619423">
        <ele>1016.2</ele>
        <time>2017-08-06T06:40:16.000Z</time>
      </trkpt>
      <trkpt lat="43.312830682843924" lon="-6.611023116856813">
        <ele>1015.6</ele>
        <time>2017-08-06T06:40:25.000Z</time>
      </trkpt>
      <trkpt lat="43.31274585798383" lon="-6.611136356368661">
        <ele>1015</ele>
        <time>2017-08-06T06:40:35.000Z</time>
      </trkpt>
      <trkpt lat="43.31266723573208" lon="-6.61124087870121">
        <ele>1014.2</ele>
        <time>2017-08-06T06:40:44.000Z</time>
      </trkpt>
      <trkpt lat="43.31258534453809" lon="-6.611357973888516">
        <ele>1013.6</ele>
        <time>2017-08-06T06:40:54.000Z</time>
      </trkpt>
      <trkpt lat="43.31249532289803" lon="-6.611486887559295">
        <ele>1013.2</ele>
        <time>2017-08-06T06:41:05.000Z</time>
      </trkpt>
      <trkpt lat="43.312420304864645" lon="-6.6115932539105415">
        <ele>1013.4</ele>
        <time>2017-08-06T06:41:14.000Z</time>
      </trkpt>
      <trkpt lat="43.312353920191526" lon="-6.611695261672139">
        <ele>1014</ele>
        <time>2017-08-06T06:41:23.000Z</time>
      </trkpt>
      <trkpt lat="43.31228870898485" lon="-6.61180866882205">
        <ele>1015</ele>
        <time>2017-08-06T06:41:32.000Z</time>
      </trkpt>
      <trkpt lat="43.31227680668235" lon="-6.611835490912199">
        <ele>1015</ele>
        <time>2017-08-06T06:41:34.000Z</time>
      </trkpt>
      <trkpt lat="43.31225333735347" lon="-6.611889386549592">
        <ele>1015.2</ele>
        <time>2017-08-06T06:41:38.000Z</time>
      </trkpt>
      <trkpt lat="43.31219592131674" lon="-6.612033052369952">
        <ele>1016.2</ele>
        <time>2017-08-06T06:41:48.000Z</time>
      </trkpt>
      <trkpt lat="43.31216415390372" lon="-6.612168671563268">
        <ele>1017</ele>
        <time>2017-08-06T06:41:57.000Z</time>
      </trkpt>
      <trkpt lat="43.312132051214576" lon="-6.612309152260423">
        <ele>1016.6</ele>
        <time>2017-08-06T06:42:06.000Z</time>
      </trkpt>
      <trkpt lat="43.312101457268" lon="-6.6123763751238585">
        <ele>1016</ele>
        <time>2017-08-06T06:42:11.000Z</time>
      </trkpt>
      <trkpt lat="43.312045969069004" lon="-6.612497493624687">
        <ele>1014.8</ele>
        <time>2017-08-06T06:42:20.000Z</time>
      </trkpt>
      <trkpt lat="43.31197648309171" lon="-6.6126093082129955">
        <ele>1013.8</ele>
        <time>2017-08-06T06:42:29.000Z</time>
      </trkpt>
      <trkpt lat="43.3118992857635" lon="-6.612730761989951">
        <ele>1012.6</ele>
        <time>2017-08-06T06:42:39.000Z</time>
      </trkpt>
      <trkpt lat="43.31187849864364" lon="-6.612763283774257">
        <ele>1012.2</ele>
        <time>2017-08-06T06:42:46.000Z</time>
      </trkpt>
      <trkpt lat="43.31184388138354" lon="-6.612800331786275">
        <ele>1012.2</ele>
        <time>2017-08-06T06:45:01.000Z</time>
      </trkpt>
      <trkpt lat="43.31174782477319" lon="-6.612895466387272">
        <ele>1012.6</ele>
        <time>2017-08-06T06:45:12.000Z</time>
      </trkpt>
      <trkpt lat="43.31165201961994" lon="-6.612978279590607">
        <ele>1013.2</ele>
        <time>2017-08-06T06:45:22.000Z</time>
      </trkpt>
      <trkpt lat="43.31153869628906" lon="-6.613056818023324">
        <ele>1013.4</ele>
        <time>2017-08-06T06:45:33.000Z</time>
      </trkpt>
      <trkpt lat="43.31143392249942" lon="-6.613123873248696">
        <ele>1013.2</ele>
        <time>2017-08-06T06:45:43.000Z</time>
      </trkpt>
      <trkpt lat="43.31133434548974" lon="-6.613197550177574">
        <ele>1012.6</ele>
        <time>2017-08-06T06:45:53.000Z</time>
      </trkpt>
      <trkpt lat="43.311227560043335" lon="-6.613272484391928">
        <ele>1010.6</ele>
        <time>2017-08-06T06:46:03.000Z</time>
      </trkpt>
      <trkpt lat="43.3111135661602" lon="-6.6133523639291525">
        <ele>1008.4</ele>
        <time>2017-08-06T06:46:14.000Z</time>
      </trkpt>
      <trkpt lat="43.31102999858558" lon="-6.613407097756863">
        <ele>1007.2</ele>
        <time>2017-08-06T06:46:22.000Z</time>
      </trkpt>
      <trkpt lat="43.310953974723816" lon="-6.613463005051017">
        <ele>1007</ele>
        <time>2017-08-06T06:46:29.000Z</time>
      </trkpt>
      <trkpt lat="43.310844423249364" lon="-6.6135679464787245">
        <ele>1005.8</ele>
        <time>2017-08-06T06:46:40.000Z</time>
      </trkpt>
      <trkpt lat="43.31075029447675" lon="-6.613662075251341">
        <ele>1005.6</ele>
        <time>2017-08-06T06:46:50.000Z</time>
      </trkpt>
      <trkpt lat="43.31068114377558" lon="-6.613745559006929">
        <ele>1006</ele>
        <time>2017-08-06T06:46:58.000Z</time>
      </trkpt>
      <trkpt lat="43.31061123870313" lon="-6.613837508484721">
        <ele>1006.2</ele>
        <time>2017-08-06T06:47:06.000Z</time>
      </trkpt>
      <trkpt lat="43.31053672358394" lon="-6.613955022767186">
        <ele>1006</ele>
        <time>2017-08-06T06:47:15.000Z</time>
      </trkpt>
      <trkpt lat="43.31046120263636" lon="-6.614088211208582">
        <ele>1005.8</ele>
        <time>2017-08-06T06:47:25.000Z</time>
      </trkpt>
      <trkpt lat="43.31039926037192" lon="-6.61421125754714">
        <ele>1005.6</ele>
        <time>2017-08-06T06:47:34.000Z</time>
      </trkpt>
      <trkpt lat="43.310343688353896" lon="-6.614364059641957">
        <ele>1005.4</ele>
        <time>2017-08-06T06:47:44.000Z</time>
      </trkpt>
      <trkpt lat="43.31029658205807" lon="-6.614498673006892">
        <ele>1005.4</ele>
        <time>2017-08-06T06:47:53.000Z</time>
      </trkpt>
      <trkpt lat="43.310255678370595" lon="-6.614619456231594">
        <ele>1004</ele>
        <time>2017-08-06T06:48:01.000Z</time>
      </trkpt>
      <trkpt lat="43.310208320617676" lon="-6.614748872816563">
        <ele>1002.8</ele>
        <time>2017-08-06T06:48:10.000Z</time>
      </trkpt>
      <trkpt lat="43.31015920266509" lon="-6.614877954125404">
        <ele>1002.4</ele>
        <time>2017-08-06T06:48:19.000Z</time>
      </trkpt>
      <trkpt lat="43.31010061316192" lon="-6.615017596632242">
        <ele>1002.2</ele>
        <time>2017-08-06T06:48:29.000Z</time>
      </trkpt>
      <trkpt lat="43.31005937419832" lon="-6.615116922184825">
        <ele>1001.8</ele>
        <time>2017-08-06T06:48:36.000Z</time>
      </trkpt>
      <trkpt lat="43.31000271253288" lon="-6.615251954644918">
        <ele>1001.2</ele>
        <time>2017-08-06T06:48:45.000Z</time>
      </trkpt>
      <trkpt lat="43.30996122211218" lon="-6.6153529565781355">
        <ele>1000.8</ele>
        <time>2017-08-06T06:48:52.000Z</time>
      </trkpt>
      <trkpt lat="43.30988419242203" lon="-6.615505674853921">
        <ele>1001</ele>
        <time>2017-08-06T06:49:03.000Z</time>
      </trkpt>
      <trkpt lat="43.30980942584574" lon="-6.615646909922361">
        <ele>1001.4</ele>
        <time>2017-08-06T06:49:13.000Z</time>
      </trkpt>
      <trkpt lat="43.30976106226444" lon="-6.615786803886294">
        <ele>1001.2</ele>
        <time>2017-08-06T06:49:22.000Z</time>
      </trkpt>
      <trkpt lat="43.30972560681403" lon="-6.615950586274266">
        <ele>1000</ele>
        <time>2017-08-06T06:49:32.000Z</time>
      </trkpt>
      <trkpt lat="43.30969945527613" lon="-6.616105986759067">
        <ele>999.4</ele>
        <time>2017-08-06T06:49:42.000Z</time>
      </trkpt>
      <trkpt lat="43.30968998372555" lon="-6.61612375639379">
        <ele>999.4</ele>
        <time>2017-08-06T06:49:44.000Z</time>
      </trkpt>
      <trkpt lat="43.30966089852154" lon="-6.616143872961402">
        <ele>1000</ele>
        <time>2017-08-06T06:49:47.000Z</time>
      </trkpt>
      <trkpt lat="43.309643883258104" lon="-6.616159295663238">
        <ele>1000.2</ele>
        <time>2017-08-06T06:49:49.000Z</time>
      </trkpt>
      <trkpt lat="43.309631729498506" lon="-6.616160133853555">
        <ele>1000.2</ele>
        <time>2017-08-06T06:49:51.000Z</time>
      </trkpt>
      <trkpt lat="43.30961932428181" lon="-6.616150159388781">
        <ele>1000.2</ele>
        <time>2017-08-06T06:49:53.000Z</time>
      </trkpt>
      <trkpt lat="43.30960071645677" lon="-6.616174466907978">
        <ele>1000.4</ele>
        <time>2017-08-06T06:49:58.000Z</time>
      </trkpt>
      <trkpt lat="43.309618569910526" lon="-6.6161872912198305">
        <ele>1000.4</ele>
        <time>2017-08-06T06:50:05.000Z</time>
      </trkpt>
      <trkpt lat="43.309670286253095" lon="-6.616199780255556">
        <ele>999.8</ele>
        <time>2017-08-06T06:50:11.000Z</time>
      </trkpt>
      <trkpt lat="43.30969551578164" lon="-6.616268344223499">
        <ele>998.8</ele>
        <time>2017-08-06T06:50:18.000Z</time>
      </trkpt>
      <trkpt lat="43.30968570895493" lon="-6.6163416020572186">
        <ele>998.8</ele>
        <time>2017-08-06T06:50:23.000Z</time>
      </trkpt>
      <trkpt lat="43.30967606976628" lon="-6.616376219317317">
        <ele>999</ele>
        <time>2017-08-06T06:50:25.000Z</time>
      </trkpt>
      <trkpt lat="43.30967732705176" lon="-6.616474287584424">
        <ele>999.2</ele>
        <time>2017-08-06T06:50:31.000Z</time>
      </trkpt>
      <trkpt lat="43.30967699177563" lon="-6.616489039734006">
        <ele>999.2</ele>
        <time>2017-08-06T06:50:32.000Z</time>
      </trkpt>
      <trkpt lat="43.30967070534825" lon="-6.616581911221147">
        <ele>1000.2</ele>
        <time>2017-08-06T06:50:38.000Z</time>
      </trkpt>
      <trkpt lat="43.30967380665243" lon="-6.6166431829333305">
        <ele>1000.4</ele>
        <time>2017-08-06T06:50:42.000Z</time>
      </trkpt>
      <trkpt lat="43.309663999825716" lon="-6.616693641990423">
        <ele>1001</ele>
        <time>2017-08-06T06:50:45.000Z</time>
      </trkpt>
      <trkpt lat="43.30963097512722" lon="-6.61679950542748">
        <ele>1001.4</ele>
        <time>2017-08-06T06:50:53.000Z</time>
      </trkpt>
      <trkpt lat="43.30959878861904" lon="-6.616915510967374">
        <ele>1001.8</ele>
        <time>2017-08-06T06:51:01.000Z</time>
      </trkpt>
      <trkpt lat="43.30956601537764" lon="-6.61701550707221">
        <ele>1002.2</ele>
        <time>2017-08-06T06:51:08.000Z</time>
      </trkpt>
      <trkpt lat="43.30952603369951" lon="-6.617126986384392">
        <ele>1003</ele>
        <time>2017-08-06T06:51:16.000Z</time>
      </trkpt>
      <trkpt lat="43.30945126712322" lon="-6.617245590314269">
        <ele>1003.8</ele>
        <time>2017-08-06T06:51:26.000Z</time>
      </trkpt>
      <trkpt lat="43.30940340645611" lon="-6.617337372153997">
        <ele>1004.6</ele>
        <time>2017-08-06T06:51:34.000Z</time>
      </trkpt>
      <trkpt lat="43.30935043282807" lon="-6.617432925850153">
        <ele>1004.6</ele>
        <time>2017-08-06T06:51:42.000Z</time>
      </trkpt>
      <trkpt lat="43.30930273979902" lon="-6.617520013824105">
        <ele>1004.4</ele>
        <time>2017-08-06T06:51:50.000Z</time>
      </trkpt>
      <trkpt lat="43.30929662100971" lon="-6.617540884763002">
        <ele>1004.4</ele>
        <time>2017-08-06T06:51:52.000Z</time>
      </trkpt>
      <trkpt lat="43.309298465028405" lon="-6.617538370192051">
        <ele>1004.4</ele>
        <time>2017-08-06T06:51:55.000Z</time>
      </trkpt>
      <trkpt lat="43.30926292575896" lon="-6.617593355476856">
        <ele>1004.2</ele>
        <time>2017-08-06T06:52:07.000Z</time>
      </trkpt>
      <trkpt lat="43.30922294408083" lon="-6.617682538926601">
        <ele>1004</ele>
        <time>2017-08-06T06:52:14.000Z</time>
      </trkpt>
      <trkpt lat="43.3092019893229" lon="-6.617765519768">
        <ele>1004.2</ele>
        <time>2017-08-06T06:52:20.000Z</time>
      </trkpt>
      <trkpt lat="43.309164019301534" lon="-6.617872305214405">
        <ele>1004.4</ele>
        <time>2017-08-06T06:52:28.000Z</time>
      </trkpt>
      <trkpt lat="43.309129821136594" lon="-6.617991244420409">
        <ele>1004.6</ele>
        <time>2017-08-06T06:52:36.000Z</time>
      </trkpt>
      <trkpt lat="43.30911003984511" lon="-6.618102807551622">
        <ele>1005.2</ele>
        <time>2017-08-06T06:52:44.000Z</time>
      </trkpt>
      <trkpt lat="43.309100987389684" lon="-6.618141196668148">
        <ele>1005.6</ele>
        <time>2017-08-06T06:52:47.000Z</time>
      </trkpt>
      <trkpt lat="43.30910140648484" lon="-6.618139185011387">
        <ele>1005.6</ele>
        <time>2017-08-06T06:52:49.000Z</time>
      </trkpt>
      <trkpt lat="43.30907491967082" lon="-6.618208587169647">
        <ele>1006.2</ele>
        <time>2017-08-06T06:53:02.000Z</time>
      </trkpt>
      <trkpt lat="43.30905765295029" lon="-6.6183133609592915">
        <ele>1007.6</ele>
        <time>2017-08-06T06:53:09.000Z</time>
      </trkpt>
      <trkpt lat="43.30903342925012" lon="-6.618424169719219">
        <ele>1009</ele>
        <time>2017-08-06T06:53:17.000Z</time>
      </trkpt>
      <trkpt lat="43.309011636301875" lon="-6.618520058691502">
        <ele>1010.4</ele>
        <time>2017-08-06T06:53:24.000Z</time>
      </trkpt>
      <trkpt lat="43.30899730324745" lon="-6.618598261848092">
        <ele>1011.6</ele>
        <time>2017-08-06T06:53:30.000Z</time>
      </trkpt>
      <trkpt lat="43.30896679311991" lon="-6.6187032870948315">
        <ele>1013.2</ele>
        <time>2017-08-06T06:53:38.000Z</time>
      </trkpt>
      <trkpt lat="43.308938797563314" lon="-6.618795823305845">
        <ele>1014.8</ele>
        <time>2017-08-06T06:53:45.000Z</time>
      </trkpt>
      <trkpt lat="43.30890644341707" lon="-6.6188932210206985">
        <ele>1016</ele>
        <time>2017-08-06T06:53:53.000Z</time>
      </trkpt>
      <trkpt lat="43.308875849470496" lon="-6.618982823565602">
        <ele>1017.6</ele>
        <time>2017-08-06T06:54:00.000Z</time>
      </trkpt>
      <trkpt lat="43.308840058743954" lon="-6.619066307321191">
        <ele>1019.2</ele>
        <time>2017-08-06T06:54:07.000Z</time>
      </trkpt>
      <trkpt lat="43.30881097353995" lon="-6.619150545448065">
        <ele>1020.8</ele>
        <time>2017-08-06T06:54:13.000Z</time>
      </trkpt>
      <trkpt lat="43.308782894164324" lon="-6.6192531399428844">
        <ele>1023.2</ele>
        <time>2017-08-06T06:54:21.000Z</time>
      </trkpt>
      <trkpt lat="43.308766381815076" lon="-6.61932815797627">
        <ele>1025.2</ele>
        <time>2017-08-06T06:54:28.000Z</time>
      </trkpt>
      <trkpt lat="43.30873662605882" lon="-6.619418431073427">
        <ele>1027.2</ele>
        <time>2017-08-06T06:54:36.000Z</time>
      </trkpt>
      <trkpt lat="43.308712150901556" lon="-6.619487162679434">
        <ele>1028.8</ele>
        <time>2017-08-06T06:54:42.000Z</time>
      </trkpt>
      <trkpt lat="43.30868893302977" lon="-6.619558911770582">
        <ele>1030.4</ele>
        <time>2017-08-06T06:54:49.000Z</time>
      </trkpt>
      <trkpt lat="43.30867652781308" lon="-6.619639629498124">
        <ele>1032.6</ele>
        <time>2017-08-06T06:54:57.000Z</time>
      </trkpt>
      <trkpt lat="43.30866722390056" lon="-6.619716072455049">
        <ele>1034.6</ele>
        <time>2017-08-06T06:55:05.000Z</time>
      </trkpt>
      <trkpt lat="43.30865859054029" lon="-6.619757143780589">
        <ele>1035.6</ele>
        <time>2017-08-06T06:55:12.000Z</time>
      </trkpt>
      <trkpt lat="43.30864400602877" lon="-6.619804920628667">
        <ele>1036.6</ele>
        <time>2017-08-06T06:55:26.000Z</time>
      </trkpt>
      <trkpt lat="43.30861592665315" lon="-6.619870634749532">
        <ele>1037.8</ele>
        <time>2017-08-06T06:55:34.000Z</time>
      </trkpt>
      <trkpt lat="43.3085854165256" lon="-6.619944144040346">
        <ele>1039.2</ele>
        <time>2017-08-06T06:55:41.000Z</time>
      </trkpt>
      <trkpt lat="43.30855247564614" lon="-6.620032070204616">
        <ele>1040.8</ele>
        <time>2017-08-06T06:55:49.000Z</time>
      </trkpt>
      <trkpt lat="43.308548955246806" lon="-6.620046570897102">
        <ele>1041</ele>
        <time>2017-08-06T06:55:50.000Z</time>
      </trkpt>
      <trkpt lat="43.308548955246806" lon="-6.620046570897102">
        <ele>1041</ele>
        <time>2017-08-06T06:55:50.000Z</time>
      </trkpt>
      <trkpt lat="43.30853898078203" lon="-6.620081523433328">
        <ele>1041.4</ele>
        <time>2017-08-06T06:55:53.000Z</time>
      </trkpt>
      <trkpt lat="43.308520037680864" lon="-6.62013198249042">
        <ele>1042</ele>
        <time>2017-08-06T06:55:58.000Z</time>
      </trkpt>
      <trkpt lat="43.30850369296968" lon="-6.620189398527145">
        <ele>1042.8</ele>
        <time>2017-08-06T06:56:03.000Z</time>
      </trkpt>
      <trkpt lat="43.308502938598394" lon="-6.620211862027645">
        <ele>1043.2</ele>
        <time>2017-08-06T06:56:06.000Z</time>
      </trkpt>
      <trkpt lat="43.30848139710724" lon="-6.620268942788243">
        <ele>1043.8</ele>
        <time>2017-08-06T06:56:16.000Z</time>
      </trkpt>
      <trkpt lat="43.308451138436794" lon="-6.620364999398589">
        <ele>1045.2</ele>
        <time>2017-08-06T06:56:25.000Z</time>
      </trkpt>
      <trkpt lat="43.3084334526211" lon="-6.620433898642659">
        <ele>1046.6</ele>
        <time>2017-08-06T06:56:32.000Z</time>
      </trkpt>
      <trkpt lat="43.308414006605744" lon="-6.62051847204566">
        <ele>1048.8</ele>
        <time>2017-08-06T06:56:41.000Z</time>
      </trkpt>
      <trkpt lat="43.30840445123613" lon="-6.620573457330465">
        <ele>1050.4</ele>
        <time>2017-08-06T06:56:47.000Z</time>
      </trkpt>
      <trkpt lat="43.30839573405683" lon="-6.620649648830295">
        <ele>1053</ele>
        <time>2017-08-06T06:56:55.000Z</time>
      </trkpt>
      <trkpt lat="43.308384669944644" lon="-6.6207371558994055">
        <ele>1056</ele>
        <time>2017-08-06T06:57:02.000Z</time>
      </trkpt>
      <trkpt lat="43.30838332884014" lon="-6.620748471468687">
        <ele>1056.4</ele>
        <time>2017-08-06T06:57:04.000Z</time>
      </trkpt>
      <trkpt lat="43.308378383517265" lon="-6.620783507823944">
        <ele>1057.6</ele>
        <time>2017-08-06T06:57:07.000Z</time>
      </trkpt>
      <trkpt lat="43.30837016925216" lon="-6.620842097327113">
        <ele>1059.6</ele>
        <time>2017-08-06T06:57:13.000Z</time>
      </trkpt>
      <trkpt lat="43.30835466273129" lon="-6.620868416503072">
        <ele>1060</ele>
        <time>2017-08-06T06:57:18.000Z</time>
      </trkpt>
      <trkpt lat="43.30832742154598" lon="-6.620922815054655">
        <ele>1061</ele>
        <time>2017-08-06T06:57:24.000Z</time>
      </trkpt>
      <trkpt lat="43.308306047692895" lon="-6.620981236919761">
        <ele>1062.6</ele>
        <time>2017-08-06T06:57:31.000Z</time>
      </trkpt>
      <trkpt lat="43.30828576348722" lon="-6.621030103415251">
        <ele>1063.6</ele>
        <time>2017-08-06T06:57:37.000Z</time>
      </trkpt>
      <trkpt lat="43.30827738158405" lon="-6.621061367914081">
        <ele>1064.6</ele>
        <time>2017-08-06T06:57:41.000Z</time>
      </trkpt>
      <trkpt lat="43.30826899968088" lon="-6.621107384562492">
        <ele>1066.2</ele>
        <time>2017-08-06T06:57:46.000Z</time>
      </trkpt>
      <trkpt lat="43.30826053395867" lon="-6.621146779507399">
        <ele>1067.4</ele>
        <time>2017-08-06T06:57:52.000Z</time>
      </trkpt>
      <trkpt lat="43.30824511125684" lon="-6.621201429516077">
        <ele>1069</ele>
        <time>2017-08-06T06:57:57.000Z</time>
      </trkpt>
      <trkpt lat="43.3082193788141" lon="-6.621272843331099">
        <ele>1070.6</ele>
        <time>2017-08-06T06:58:04.000Z</time>
      </trkpt>
      <trkpt lat="43.30820957198739" lon="-6.62132665514946">
        <ele>1072.2</ele>
        <time>2017-08-06T06:58:09.000Z</time>
      </trkpt>
      <trkpt lat="43.3081918861717" lon="-6.621391950175166">
        <ele>1074</ele>
        <time>2017-08-06T06:58:15.000Z</time>
      </trkpt>
      <trkpt lat="43.30817176960409" lon="-6.621447522193193">
        <ele>1075.2</ele>
        <time>2017-08-06T06:58:21.000Z</time>
      </trkpt>
      <trkpt lat="43.30815106630325" lon="-6.621512984856963">
        <ele>1076.4</ele>
        <time>2017-08-06T06:58:28.000Z</time>
      </trkpt>
      <trkpt lat="43.30813220702112" lon="-6.621557157486677">
        <ele>1077</ele>
        <time>2017-08-06T06:58:34.000Z</time>
      </trkpt>
      <trkpt lat="43.30811711959541" lon="-6.621596468612552">
        <ele>1077.8</ele>
        <time>2017-08-06T06:58:39.000Z</time>
      </trkpt>
      <trkpt lat="43.30810689367354" lon="-6.62165648303926">
        <ele>1079.2</ele>
        <time>2017-08-06T06:58:46.000Z</time>
      </trkpt>
      <trkpt lat="43.308090129867196" lon="-6.6217078641057014">
        <ele>1080</ele>
        <time>2017-08-06T06:58:52.000Z</time>
      </trkpt>
      <trkpt lat="43.3080880343914" lon="-6.62174298427999">
        <ele>1080.6</ele>
        <time>2017-08-06T06:58:58.000Z</time>
      </trkpt>
      <trkpt lat="43.30808250233531" lon="-6.621781205758452">
        <ele>1081</ele>
        <time>2017-08-06T07:00:32.000Z</time>
      </trkpt>
      <trkpt lat="43.30806573852897" lon="-6.621867120265961">
        <ele>1082</ele>
        <time>2017-08-06T07:00:40.000Z</time>
      </trkpt>
      <trkpt lat="43.308050064370036" lon="-6.621937192976475">
        <ele>1082.8</ele>
        <time>2017-08-06T07:00:47.000Z</time>
      </trkpt>
      <trkpt lat="43.30804059281945" lon="-6.6219888255000114">
        <ele>1083.6</ele>
        <time>2017-08-06T07:00:53.000Z</time>
      </trkpt>
      <trkpt lat="43.30803011544049" lon="-6.622053617611527">
        <ele>1084</ele>
        <time>2017-08-06T07:01:00.000Z</time>
      </trkpt>
      <trkpt lat="43.30802382901311" lon="-6.622117487713695">
        <ele>1084.8</ele>
        <time>2017-08-06T07:01:06.000Z</time>
      </trkpt>
      <trkpt lat="43.30802324227989" lon="-6.62218077108264">
        <ele>1085.6</ele>
        <time>2017-08-06T07:01:13.000Z</time>
      </trkpt>
      <trkpt lat="43.30802299082279" lon="-6.6222441382706165">
        <ele>1086.6</ele>
        <time>2017-08-06T07:01:19.000Z</time>
      </trkpt>
      <trkpt lat="43.30802542157471" lon="-6.622305829077959">
        <ele>1087.4</ele>
        <time>2017-08-06T07:01:24.000Z</time>
      </trkpt>
      <trkpt lat="43.30803380347788" lon="-6.622384954243898">
        <ele>1088.6</ele>
        <time>2017-08-06T07:01:31.000Z</time>
      </trkpt>
      <trkpt lat="43.30803221091628" lon="-6.622485788539052">
        <ele>1089.6</ele>
        <time>2017-08-06T07:01:40.000Z</time>
      </trkpt>
      <trkpt lat="43.30803573131561" lon="-6.622488051652908">
        <ele>1089.8</ele>
        <time>2017-08-06T07:01:48.000Z</time>
      </trkpt>
      <trkpt lat="43.308028439059854" lon="-6.622552005574107">
        <ele>1090</ele>
        <time>2017-08-06T07:02:16.000Z</time>
      </trkpt>
      <trkpt lat="43.30803497694433" lon="-6.622579162940383">
        <ele>1090.6</ele>
        <time>2017-08-06T07:02:20.000Z</time>
      </trkpt>
      <trkpt lat="43.308026175946" lon="-6.622633896768093">
        <ele>1090.8</ele>
        <time>2017-08-06T07:02:35.000Z</time>
      </trkpt>
      <trkpt lat="43.30800245516002" lon="-6.622741604223847">
        <ele>1091.2</ele>
        <time>2017-08-06T07:02:43.000Z</time>
      </trkpt>
      <trkpt lat="43.3079878706485" lon="-6.622816622257233">
        <ele>1091.8</ele>
        <time>2017-08-06T07:02:49.000Z</time>
      </trkpt>
      <trkpt lat="43.307978231459856" lon="-6.622919803485274">
        <ele>1092.4</ele>
        <time>2017-08-06T07:02:56.000Z</time>
      </trkpt>
      <trkpt lat="43.30796683207154" lon="-6.623016027733684">
        <ele>1093</ele>
        <time>2017-08-06T07:03:03.000Z</time>
      </trkpt>
      <trkpt lat="43.30794277600944" lon="-6.6231368109583855">
        <ele>1093.8</ele>
        <time>2017-08-06T07:03:11.000Z</time>
      </trkpt>
      <trkpt lat="43.30791737884283" lon="-6.623238148167729">
        <ele>1095.2</ele>
        <time>2017-08-06T07:03:18.000Z</time>
      </trkpt>
      <trkpt lat="43.3078964240849" lon="-6.623342586681247">
        <ele>1096.6</ele>
        <time>2017-08-06T07:03:25.000Z</time>
      </trkpt>
      <trkpt lat="43.30785350874066" lon="-6.623486503958702">
        <ele>1098.8</ele>
        <time>2017-08-06T07:03:35.000Z</time>
      </trkpt>
      <trkpt lat="43.30782148987055" lon="-6.623600916936994">
        <ele>1101.2</ele>
        <time>2017-08-06T07:03:43.000Z</time>
      </trkpt>
      <trkpt lat="43.30778695642948" lon="-6.623730082064867">
        <ele>1103.8</ele>
        <time>2017-08-06T07:03:52.000Z</time>
      </trkpt>
      <trkpt lat="43.30774404108524" lon="-6.6238719038665295">
        <ele>1106.2</ele>
        <time>2017-08-06T07:04:02.000Z</time>
      </trkpt>
      <trkpt lat="43.30770246684551" lon="-6.624015402048826">
        <ele>1108.2</ele>
        <time>2017-08-06T07:04:12.000Z</time>
      </trkpt>
      <trkpt lat="43.30766852013767" lon="-6.62411137484014">
        <ele>1109.2</ele>
        <time>2017-08-06T07:04:19.000Z</time>
      </trkpt>
      <trkpt lat="43.30763893201947" lon="-6.624200809746981">
        <ele>1110.2</ele>
        <time>2017-08-06T07:04:26.000Z</time>
      </trkpt>
      <trkpt lat="43.30760548822582" lon="-6.6243060026317835">
        <ele>1111.4</ele>
        <time>2017-08-06T07:04:34.000Z</time>
      </trkpt>
      <trkpt lat="43.307574056088924" lon="-6.624406585469842">
        <ele>1112</ele>
        <time>2017-08-06T07:04:42.000Z</time>
      </trkpt>
      <trkpt lat="43.307539355009794" lon="-6.624512197449803">
        <ele>1112.8</ele>
        <time>2017-08-06T07:04:50.000Z</time>
      </trkpt>
      <trkpt lat="43.30750247463584" lon="-6.624620659276843">
        <ele>1114.2</ele>
        <time>2017-08-06T07:04:58.000Z</time>
      </trkpt>
      <trkpt lat="43.30746131949127" lon="-6.62472216412425">
        <ele>1115.6</ele>
        <time>2017-08-06T07:05:07.000Z</time>
      </trkpt>
      <trkpt lat="43.307425025850534" lon="-6.624808078631759">
        <ele>1116.2</ele>
        <time>2017-08-06T07:05:14.000Z</time>
      </trkpt>
      <trkpt lat="43.307386888191104" lon="-6.62489902228117">
        <ele>1116.6</ele>
        <time>2017-08-06T07:05:22.000Z</time>
      </trkpt>
      <trkpt lat="43.307338608428836" lon="-6.624994240701199">
        <ele>1116.6</ele>
        <time>2017-08-06T07:05:31.000Z</time>
      </trkpt>
      <trkpt lat="43.30729770474136" lon="-6.625071689486504">
        <ele>1117</ele>
        <time>2017-08-06T07:05:40.000Z</time>
      </trkpt>
      <trkpt lat="43.30726509913802" lon="-6.625145366415381">
        <ele>1117.4</ele>
        <time>2017-08-06T07:05:47.000Z</time>
      </trkpt>
      <trkpt lat="43.307231990620494" lon="-6.625216277316213">
        <ele>1117.8</ele>
        <time>2017-08-06T07:05:53.000Z</time>
      </trkpt>
      <trkpt lat="43.30718589015305" lon="-6.625306466594338">
        <ele>1118.2</ele>
        <time>2017-08-06T07:06:01.000Z</time>
      </trkpt>
      <trkpt lat="43.3071402925998" lon="-6.625393806025386">
        <ele>1118.8</ele>
        <time>2017-08-06T07:06:08.000Z</time>
      </trkpt>
      <trkpt lat="43.30707935616374" lon="-6.625490617007017">
        <ele>1119.6</ele>
        <time>2017-08-06T07:06:16.000Z</time>
      </trkpt>
      <trkpt lat="43.30702319741249" lon="-6.625575944781303">
        <ele>1120.4</ele>
        <time>2017-08-06T07:06:24.000Z</time>
      </trkpt>
      <trkpt lat="43.30698179081082" lon="-6.62564710713923">
        <ele>1121.4</ele>
        <time>2017-08-06T07:06:31.000Z</time>
      </trkpt>
      <trkpt lat="43.30694591626525" lon="-6.625730590894818">
        <ele>1122.8</ele>
        <time>2017-08-06T07:06:38.000Z</time>
      </trkpt>
      <trkpt lat="43.30692538060248" lon="-6.625810470432043">
        <ele>1124</ele>
        <time>2017-08-06T07:06:45.000Z</time>
      </trkpt>
      <trkpt lat="43.30694004893303" lon="-6.625902252271771">
        <ele>1125.4</ele>
        <time>2017-08-06T07:06:52.000Z</time>
      </trkpt>
      <trkpt lat="43.306962847709656" lon="-6.6259643621742725">
        <ele>1126.4</ele>
        <time>2017-08-06T07:06:58.000Z</time>
      </trkpt>
      <trkpt lat="43.30699042417109" lon="-6.626044912263751">
        <ele>1127.6</ele>
        <time>2017-08-06T07:07:06.000Z</time>
      </trkpt>
      <trkpt lat="43.30699327401817" lon="-6.626056227833033">
        <ele>1127.8</ele>
        <time>2017-08-06T07:07:07.000Z</time>
      </trkpt>
      <trkpt lat="43.30700132064521" lon="-6.626129318028688">
        <ele>1128.8</ele>
        <time>2017-08-06T07:07:13.000Z</time>
      </trkpt>
      <trkpt lat="43.30700802616775" lon="-6.626180279999971">
        <ele>1129.4</ele>
        <time>2017-08-06T07:07:17.000Z</time>
      </trkpt>
      <trkpt lat="43.30701448023319" lon="-6.626202408224344">
        <ele>1129.8</ele>
        <time>2017-08-06T07:07:19.000Z</time>
      </trkpt>
      <trkpt lat="43.30702789127827" lon="-6.6262848023325205">
        <ele>1131</ele>
        <time>2017-08-06T07:07:26.000Z</time>
      </trkpt>
      <trkpt lat="43.30703476443887" lon="-6.626289412379265">
        <ele>1131</ele>
        <time>2017-08-06T07:07:27.000Z</time>
      </trkpt>
      <trkpt lat="43.30704608000815" lon="-6.6262894961982965">
        <ele>1131</ele>
        <time>2017-08-06T07:07:31.000Z</time>
      </trkpt>
      <trkpt lat="43.30708782188594" lon="-6.626331489533186">
        <ele>1131.2</ele>
        <time>2017-08-06T07:07:38.000Z</time>
      </trkpt>
      <trkpt lat="43.30708857625723" lon="-6.626320257782936">
        <ele>1131.2</ele>
        <time>2017-08-06T07:07:47.000Z</time>
      </trkpt>
      <trkpt lat="43.30710022710264" lon="-6.6263484209775925">
        <ele>1131.4</ele>
        <time>2017-08-06T07:07:55.000Z</time>
      </trkpt>
      <trkpt lat="43.30710902810097" lon="-6.626373901963234">
        <ele>1131.6</ele>
        <time>2017-08-06T07:08:02.000Z</time>
      </trkpt>
      <trkpt lat="43.30706954933703" lon="-6.626415895298123">
        <ele>1132.2</ele>
        <time>2017-08-06T07:08:18.000Z</time>
      </trkpt>
      <trkpt lat="43.307069884613156" lon="-6.626426791772246">
        <ele>1132.4</ele>
        <time>2017-08-06T07:08:24.000Z</time>
      </trkpt>
      <trkpt lat="43.30703292042017" lon="-6.626431317999959">
        <ele>1132.6</ele>
        <time>2017-08-06T07:08:38.000Z</time>
      </trkpt>
      <trkpt lat="43.30700903199613" lon="-6.626410027965903">
        <ele>1132.4</ele>
        <time>2017-08-06T07:08:45.000Z</time>
      </trkpt>
      <trkpt lat="43.307009283453226" lon="-6.626412542536855">
        <ele>1132.4</ele>
        <time>2017-08-06T07:08:51.000Z</time>
      </trkpt>
      <trkpt lat="43.30702034756541" lon="-6.6263955272734165">
        <ele>1132.2</ele>
        <time>2017-08-06T07:09:13.000Z</time>
      </trkpt>
      <trkpt lat="43.30696159042418" lon="-6.626425366848707">
        <ele>1132.8</ele>
        <time>2017-08-06T07:10:28.000Z</time>
      </trkpt>
      <trkpt lat="43.306894870474935" lon="-6.6264258697628975">
        <ele>1133</ele>
        <time>2017-08-06T07:10:34.000Z</time>
      </trkpt>
      <trkpt lat="43.30687995068729" lon="-6.626438358798623">
        <ele>1133.2</ele>
        <time>2017-08-06T07:10:36.000Z</time>
      </trkpt>
      <trkpt lat="43.30680568702519" lon="-6.626506000757217">
        <ele>1133.8</ele>
        <time>2017-08-06T07:10:44.000Z</time>
      </trkpt>
      <trkpt lat="43.30672505311668" lon="-6.626585964113474">
        <ele>1134.8</ele>
        <time>2017-08-06T07:10:53.000Z</time>
      </trkpt>
      <trkpt lat="43.30667559988797" lon="-6.6266334895044565">
        <ele>1135.2</ele>
        <time>2017-08-06T07:10:59.000Z</time>
      </trkpt>
      <trkpt lat="43.306595385074615" lon="-6.626720577478409">
        <ele>1136.2</ele>
        <time>2017-08-06T07:11:08.000Z</time>
      </trkpt>
      <trkpt lat="43.306539645418525" lon="-6.62678612396121">
        <ele>1136.8</ele>
        <time>2017-08-06T07:11:15.000Z</time>
      </trkpt>
      <trkpt lat="43.30646705813706" lon="-6.626841779798269">
        <ele>1137.6</ele>
        <time>2017-08-06T07:11:23.000Z</time>
      </trkpt>
      <trkpt lat="43.30641567707062" lon="-6.626905063167214">
        <ele>1138.2</ele>
        <time>2017-08-06T07:11:30.000Z</time>
      </trkpt>
      <trkpt lat="43.30640905536711" lon="-6.626910427585244">
        <ele>1138.2</ele>
        <time>2017-08-06T07:11:31.000Z</time>
      </trkpt>
      <trkpt lat="43.30634476616979" lon="-6.62697714753449">
        <ele>1139</ele>
        <time>2017-08-06T07:11:39.000Z</time>
      </trkpt>
      <trkpt lat="43.30628776922822" lon="-6.6270210687071085">
        <ele>1139.4</ele>
        <time>2017-08-06T07:11:47.000Z</time>
      </trkpt>
      <trkpt lat="43.30620730295777" lon="-6.627101367339492">
        <ele>1140.4</ele>
        <time>2017-08-06T07:11:56.000Z</time>
      </trkpt>
      <trkpt lat="43.30613370984793" lon="-6.627218797802925">
        <ele>1141.4</ele>
        <time>2017-08-06T07:12:06.000Z</time>
      </trkpt>
      <trkpt lat="43.30608987249434" lon="-6.627290463075042">
        <ele>1142.2</ele>
        <time>2017-08-06T07:12:15.000Z</time>
      </trkpt>
      <trkpt lat="43.30604653805494" lon="-6.627359362319112">
        <ele>1143</ele>
        <time>2017-08-06T07:12:21.000Z</time>
      </trkpt>
      <trkpt lat="43.30600345507264" lon="-6.6274310275912285">
        <ele>1143.6</ele>
        <time>2017-08-06T07:12:27.000Z</time>
      </trkpt>
      <trkpt lat="43.305913684889674" lon="-6.627542842179537">
        <ele>1144.6</ele>
        <time>2017-08-06T07:12:38.000Z</time>
      </trkpt>
      <trkpt lat="43.305898513644934" lon="-6.627565138041973">
        <ele>1144.8</ele>
        <time>2017-08-06T07:12:42.000Z</time>
      </trkpt>
      <trkpt lat="43.30585232935846" lon="-6.627626912668347">
        <ele>1145.6</ele>
        <time>2017-08-06T07:12:48.000Z</time>
      </trkpt>
      <trkpt lat="43.30580606125295" lon="-6.627689525485039">
        <ele>1146.4</ele>
        <time>2017-08-06T07:12:56.000Z</time>
      </trkpt>
      <trkpt lat="43.30580052919686" lon="-6.627686256542802">
        <ele>1146.2</ele>
        <time>2017-08-06T07:13:05.000Z</time>
      </trkpt>
      <trkpt lat="43.30576725304127" lon="-6.627735290676355">
        <ele>1146.8</ele>
        <time>2017-08-06T07:13:22.000Z</time>
      </trkpt>
      <trkpt lat="43.30576255917549" lon="-6.627787509933114">
        <ele>1147.6</ele>
        <time>2017-08-06T07:13:29.000Z</time>
      </trkpt>
      <trkpt lat="43.305770605802536" lon="-6.6278462670743465">
        <ele>1148.2</ele>
        <time>2017-08-06T07:13:39.000Z</time>
      </trkpt>
      <trkpt lat="43.3057760540396" lon="-6.62792656570673">
        <ele>1148.4</ele>
        <time>2017-08-06T07:13:45.000Z</time>
      </trkpt>
      <trkpt lat="43.30574738793075" lon="-6.6280353628098965">
        <ele>1148.8</ele>
        <time>2017-08-06T07:13:53.000Z</time>
      </trkpt>
      <trkpt lat="43.305719727650285" lon="-6.628140807151794">
        <ele>1149</ele>
        <time>2017-08-06T07:14:01.000Z</time>
      </trkpt>
      <trkpt lat="43.30567069351673" lon="-6.628287993371487">
        <ele>1149</ele>
        <time>2017-08-06T07:14:11.000Z</time>
      </trkpt>
      <trkpt lat="43.305631801486015" lon="-6.628400729969144">
        <ele>1149</ele>
        <time>2017-08-06T07:14:19.000Z</time>
      </trkpt>
      <trkpt lat="43.30557991750538" lon="-6.628506006672978">
        <ele>1149</ele>
        <time>2017-08-06T07:14:27.000Z</time>
      </trkpt>
      <trkpt lat="43.305533984676" lon="-6.628602063283324">
        <ele>1149</ele>
        <time>2017-08-06T07:14:35.000Z</time>
      </trkpt>
      <trkpt lat="43.30549534410238" lon="-6.628692504018545">
        <ele>1149.2</ele>
        <time>2017-08-06T07:14:42.000Z</time>
      </trkpt>
      <trkpt lat="43.30543943680823" lon="-6.628813873976469">
        <ele>1149.4</ele>
        <time>2017-08-06T07:14:52.000Z</time>
      </trkpt>
      <trkpt lat="43.30540180206299" lon="-6.62891261279583">
        <ele>1149.6</ele>
        <time>2017-08-06T07:15:00.000Z</time>
      </trkpt>
      <trkpt lat="43.30539224669337" lon="-6.628971118479967">
        <ele>1150</ele>
        <time>2017-08-06T07:15:07.000Z</time>
      </trkpt>
      <trkpt lat="43.305379170924425" lon="-6.629036413505673">
        <ele>1150.4</ele>
        <time>2017-08-06T07:15:16.000Z</time>
      </trkpt>
      <trkpt lat="43.305330807343125" lon="-6.629132218658924">
        <ele>1150.8</ele>
        <time>2017-08-06T07:15:23.000Z</time>
      </trkpt>
      <trkpt lat="43.305301051586866" lon="-6.629218552261591">
        <ele>1151</ele>
        <time>2017-08-06T07:15:29.000Z</time>
      </trkpt>
      <trkpt lat="43.30524598248303" lon="-6.629336569458246">
        <ele>1151.4</ele>
        <time>2017-08-06T07:15:38.000Z</time>
      </trkpt>
      <trkpt lat="43.30519552342594" lon="-6.629454754292965">
        <ele>1151.8</ele>
        <time>2017-08-06T07:15:47.000Z</time>
      </trkpt>
      <trkpt lat="43.305153865367174" lon="-6.629560869187117">
        <ele>1152.4</ele>
        <time>2017-08-06T07:15:55.000Z</time>
      </trkpt>
      <trkpt lat="43.305105082690716" lon="-6.629671594128013">
        <ele>1153</ele>
        <time>2017-08-06T07:16:04.000Z</time>
      </trkpt>
      <trkpt lat="43.305064011365175" lon="-6.629748372361064">
        <ele>1153.4</ele>
        <time>2017-08-06T07:16:11.000Z</time>
      </trkpt>
      <trkpt lat="43.30502176657319" lon="-6.629829425364733">
        <ele>1153.8</ele>
        <time>2017-08-06T07:16:18.000Z</time>
      </trkpt>
      <trkpt lat="43.3049935195595" lon="-6.629880638793111">
        <ele>1154</ele>
        <time>2017-08-06T07:16:22.000Z</time>
      </trkpt>
      <trkpt lat="43.304980443790555" lon="-6.629903772845864">
        <ele>1154.2</ele>
        <time>2017-08-06T07:16:24.000Z</time>
      </trkpt>
      <trkpt lat="43.30492805689573" lon="-6.630009552463889">
        <ele>1154.8</ele>
        <time>2017-08-06T07:16:32.000Z</time>
      </trkpt>
      <trkpt lat="43.30488447099924" lon="-6.630087420344353">
        <ele>1155.4</ele>
        <time>2017-08-06T07:16:38.000Z</time>
      </trkpt>
      <trkpt lat="43.30486016348004" lon="-6.63013955578208">
        <ele>1155.6</ele>
        <time>2017-08-06T07:16:42.000Z</time>
      </trkpt>
      <trkpt lat="43.304810458794236" lon="-6.630223458632827">
        <ele>1156</ele>
        <time>2017-08-06T07:16:49.000Z</time>
      </trkpt>
      <trkpt lat="43.30474860034883" lon="-6.630324879661202">
        <ele>1156.4</ele>
        <time>2017-08-06T07:16:58.000Z</time>
      </trkpt>
      <trkpt lat="43.30471431836486" lon="-6.630376931279898">
        <ele>1157.2</ele>
        <time>2017-08-06T07:17:03.000Z</time>
      </trkpt>
      <trkpt lat="43.30465832725167" lon="-6.630451865494251">
        <ele>1158</ele>
        <time>2017-08-06T07:17:10.000Z</time>
      </trkpt>
      <trkpt lat="43.30460828728974" lon="-6.630556723102927">
        <ele>1159.4</ele>
        <time>2017-08-06T07:17:18.000Z</time>
      </trkpt>
      <trkpt lat="43.304560678079724" lon="-6.630654204636812">
        <ele>1160.8</ele>
        <time>2017-08-06T07:17:26.000Z</time>
      </trkpt>
      <trkpt lat="43.30452078022063" lon="-6.630729893222451">
        <ele>1162</ele>
        <time>2017-08-06T07:17:32.000Z</time>
      </trkpt>
      <trkpt lat="43.3045101352036" lon="-6.630737353116274">
        <ele>1162.2</ele>
        <time>2017-08-06T07:17:33.000Z</time>
      </trkpt>
      <trkpt lat="43.30443888902664" lon="-6.630842629820108">
        <ele>1164.2</ele>
        <time>2017-08-06T07:17:43.000Z</time>
      </trkpt>
      <trkpt lat="43.30443209968507" lon="-6.6308531910181046">
        <ele>1164.4</ele>
        <time>2017-08-06T07:17:44.000Z</time>
      </trkpt>
      <trkpt lat="43.304376024752855" lon="-6.630930555984378">
        <ele>1166</ele>
        <time>2017-08-06T07:17:52.000Z</time>
      </trkpt>
      <trkpt lat="43.30434392206371" lon="-6.6310125309973955">
        <ele>1167.2</ele>
        <time>2017-08-06T07:17:59.000Z</time>
      </trkpt>
      <trkpt lat="43.3043029345572" lon="-6.631097020581365">
        <ele>1168.6</ele>
        <time>2017-08-06T07:18:07.000Z</time>
      </trkpt>
      <trkpt lat="43.30424048937857" lon="-6.63117153570056">
        <ele>1170</ele>
        <time>2017-08-06T07:18:17.000Z</time>
      </trkpt>
      <trkpt lat="43.304202603176236" lon="-6.631237082183361">
        <ele>1171.2</ele>
        <time>2017-08-06T07:18:24.000Z</time>
      </trkpt>
      <trkpt lat="43.30413747578859" lon="-6.631287708878517">
        <ele>1172.4</ele>
        <time>2017-08-06T07:18:32.000Z</time>
      </trkpt>
      <trkpt lat="43.30407578498125" lon="-6.631354847922921">
        <ele>1173.4</ele>
        <time>2017-08-06T07:18:40.000Z</time>
      </trkpt>
      <trkpt lat="43.30404854379594" lon="-6.631399607285857">
        <ele>1174</ele>
        <time>2017-08-06T07:18:45.000Z</time>
      </trkpt>
      <trkpt lat="43.30402004532516" lon="-6.6314345598220825">
        <ele>1174.6</ele>
        <time>2017-08-06T07:18:49.000Z</time>
      </trkpt>
      <trkpt lat="43.30398769117892" lon="-6.631485102698207">
        <ele>1175.6</ele>
        <time>2017-08-06T07:18:54.000Z</time>
      </trkpt>
      <trkpt lat="43.30391954630613" lon="-6.631529275327921">
        <ele>1176.2</ele>
        <time>2017-08-06T07:19:03.000Z</time>
      </trkpt>
      <trkpt lat="43.30385307781398" lon="-6.631580907851458">
        <ele>1177</ele>
        <time>2017-08-06T07:19:10.000Z</time>
      </trkpt>
      <trkpt lat="43.303835056722164" lon="-6.63159130141139">
        <ele>1177.2</ele>
        <time>2017-08-06T07:19:12.000Z</time>
      </trkpt>
      <trkpt lat="43.30378158017993" lon="-6.631627595052123">
        <ele>1177.6</ele>
        <time>2017-08-06T07:19:18.000Z</time>
      </trkpt>
      <trkpt lat="43.30373120494187" lon="-6.631678640842438">
        <ele>1178.2</ele>
        <time>2017-08-06T07:19:24.000Z</time>
      </trkpt>
      <trkpt lat="43.30371863208711" lon="-6.631710324436426">
        <ele>1178.8</ele>
        <time>2017-08-06T07:19:26.000Z</time>
      </trkpt>
      <trkpt lat="43.303705556318164" lon="-6.6317923832684755">
        <ele>1179.6</ele>
        <time>2017-08-06T07:19:33.000Z</time>
      </trkpt>
      <trkpt lat="43.30369625240564" lon="-6.631925571709871">
        <ele>1181</ele>
        <time>2017-08-06T07:19:43.000Z</time>
      </trkpt>
      <trkpt lat="43.303693821653724" lon="-6.632060520350933">
        <ele>1183.4</ele>
        <time>2017-08-06T07:19:53.000Z</time>
      </trkpt>
      <trkpt lat="43.30367219634354" lon="-6.632186667993665">
        <ele>1185.8</ele>
        <time>2017-08-06T07:20:02.000Z</time>
      </trkpt>
      <trkpt lat="43.30365786328912" lon="-6.632251208648086">
        <ele>1186.6</ele>
        <time>2017-08-06T07:20:07.000Z</time>
      </trkpt>
      <trkpt lat="43.30364026129246" lon="-6.632277360185981">
        <ele>1187</ele>
        <time>2017-08-06T07:20:10.000Z</time>
      </trkpt>
      <trkpt lat="43.30359533429146" lon="-6.632361011579633">
        <ele>1188.4</ele>
        <time>2017-08-06T07:20:19.000Z</time>
      </trkpt>
      <trkpt lat="43.30354227684438" lon="-6.632421696558595">
        <ele>1189.2</ele>
        <time>2017-08-06T07:20:27.000Z</time>
      </trkpt>
      <trkpt lat="43.303504725918174" lon="-6.632468467578292">
        <ele>1189.8</ele>
        <time>2017-08-06T07:20:34.000Z</time>
      </trkpt>
      <trkpt lat="43.30344605259597" lon="-6.63254608400166">
        <ele>1190.8</ele>
        <time>2017-08-06T07:20:43.000Z</time>
      </trkpt>
      <trkpt lat="43.30340087413788" lon="-6.632595118135214">
        <ele>1191.6</ele>
        <time>2017-08-06T07:20:49.000Z</time>
      </trkpt>
      <trkpt lat="43.30336474813521" lon="-6.6326553001999855">
        <ele>1192.8</ele>
        <time>2017-08-06T07:20:57.000Z</time>
      </trkpt>
      <trkpt lat="43.303327448666096" lon="-6.6326959524303675">
        <ele>1193.6</ele>
        <time>2017-08-06T07:21:04.000Z</time>
      </trkpt>
      <trkpt lat="43.303288305178285" lon="-6.632769210264087">
        <ele>1195</ele>
        <time>2017-08-06T07:21:11.000Z</time>
      </trkpt>
      <trkpt lat="43.30323709174991" lon="-6.632838444784284">
        <ele>1196.6</ele>
        <time>2017-08-06T07:21:19.000Z</time>
      </trkpt>
      <trkpt lat="43.30318847671151" lon="-6.632894687354565">
        <ele>1197.8</ele>
        <time>2017-08-06T07:21:26.000Z</time>
      </trkpt>
      <trkpt lat="43.30317900516093" lon="-6.632911618798971">
        <ele>1198.2</ele>
        <time>2017-08-06T07:21:31.000Z</time>
      </trkpt>
      <trkpt lat="43.30316643230617" lon="-6.632936680689454">
        <ele>1198.6</ele>
        <time>2017-08-06T07:21:37.000Z</time>
      </trkpt>
      <trkpt lat="43.30313910730183" lon="-6.6329889837652445">
        <ele>1199.8</ele>
        <time>2017-08-06T07:21:45.000Z</time>
      </trkpt>
      <trkpt lat="43.30307934433222" lon="-6.63304983638227">
        <ele>1201</ele>
        <time>2017-08-06T07:21:53.000Z</time>
      </trkpt>
      <trkpt lat="43.30302771180868" lon="-6.633104654029012">
        <ele>1202.2</ele>
        <time>2017-08-06T07:22:00.000Z</time>
      </trkpt>
      <trkpt lat="43.30302570015192" lon="-6.633110269904137">
        <ele>1202.2</ele>
        <time>2017-08-06T07:22:01.000Z</time>
      </trkpt>
      <trkpt lat="43.30301782116294" lon="-6.6331111919134855">
        <ele>1202.2</ele>
        <time>2017-08-06T07:22:02.000Z</time>
      </trkpt>
      <trkpt lat="43.302966272458434" lon="-6.633150838315487">
        <ele>1203</ele>
        <time>2017-08-06T07:22:08.000Z</time>
      </trkpt>
      <trkpt lat="43.30288823693991" lon="-6.63321646861732">
        <ele>1204.6</ele>
        <time>2017-08-06T07:22:17.000Z</time>
      </trkpt>
      <trkpt lat="43.302878430113196" lon="-6.633214456960559">
        <ele>1204.6</ele>
        <time>2017-08-06T07:22:18.000Z</time>
      </trkpt>
      <trkpt lat="43.30284230411053" lon="-6.633216384798288">
        <ele>1205</ele>
        <time>2017-08-06T07:22:21.000Z</time>
      </trkpt>
      <trkpt lat="43.302837861701846" lon="-6.633223257958889">
        <ele>1205</ele>
        <time>2017-08-06T07:22:24.000Z</time>
      </trkpt>
      <trkpt lat="43.30278446897864" lon="-6.633207332342863">
        <ele>1205.2</ele>
        <time>2017-08-06T07:22:29.000Z</time>
      </trkpt>
      <trkpt lat="43.30277902074158" lon="-6.633211858570576">
        <ele>1205.4</ele>
        <time>2017-08-06T07:22:34.000Z</time>
      </trkpt>
      <trkpt lat="43.30279989168048" lon="-6.633212026208639">
        <ele>1205.2</ele>
        <time>2017-08-06T07:22:42.000Z</time>
      </trkpt>
      <trkpt lat="43.30279662273824" lon="-6.633207080885768">
        <ele>1205.2</ele>
        <time>2017-08-06T07:22:58.000Z</time>
      </trkpt>
      <trkpt lat="43.30274515785277" lon="-6.633192831650376">
        <ele>1205.2</ele>
        <time>2017-08-06T07:23:32.000Z</time>
      </trkpt>
      <trkpt lat="43.30261867493391" lon="-6.6331650875508785">
        <ele>1206</ele>
        <time>2017-08-06T07:23:43.000Z</time>
      </trkpt>
      <trkpt lat="43.30248297192156" lon="-6.633134661242366">
        <ele>1206.4</ele>
        <time>2017-08-06T07:23:54.000Z</time>
      </trkpt>
      <trkpt lat="43.302386747673154" lon="-6.633118987083435">
        <ele>1206.4</ele>
        <time>2017-08-06T07:24:02.000Z</time>
      </trkpt>
      <trkpt lat="43.30226772464812" lon="-6.633140277117491">
        <ele>1206.8</ele>
        <time>2017-08-06T07:24:12.000Z</time>
      </trkpt>
      <trkpt lat="43.30215632915497" lon="-6.633159136399627">
        <ele>1207.2</ele>
        <time>2017-08-06T07:24:21.000Z</time>
      </trkpt>
      <trkpt lat="43.302066726610065" lon="-6.633172547444701">
        <ele>1207.2</ele>
        <time>2017-08-06T07:24:28.000Z</time>
      </trkpt>
      <trkpt lat="43.30192733556032" lon="-6.633165003731847">
        <ele>1207</ele>
        <time>2017-08-06T07:24:39.000Z</time>
      </trkpt>
      <trkpt lat="43.30184267833829" lon="-6.633144719526172">
        <ele>1206.4</ele>
        <time>2017-08-06T07:24:46.000Z</time>
      </trkpt>
      <trkpt lat="43.30173815600574" lon="-6.633147150278091">
        <ele>1205.4</ele>
        <time>2017-08-06T07:24:54.000Z</time>
      </trkpt>
      <trkpt lat="43.301594238728285" lon="-6.633199788630009">
        <ele>1204.8</ele>
        <time>2017-08-06T07:25:06.000Z</time>
      </trkpt>
      <trkpt lat="43.30146851018071" lon="-6.633265838027">
        <ele>1205</ele>
        <time>2017-08-06T07:25:17.000Z</time>
      </trkpt>
      <trkpt lat="43.30137706361711" lon="-6.633273884654045">
        <ele>1204.6</ele>
        <time>2017-08-06T07:25:25.000Z</time>
      </trkpt>
      <trkpt lat="43.301281090825796" lon="-6.633319398388267">
        <ele>1204.4</ele>
        <time>2017-08-06T07:25:33.000Z</time>
      </trkpt>
      <trkpt lat="43.30119090154767" lon="-6.633372958749533">
        <ele>1204</ele>
        <time>2017-08-06T07:25:41.000Z</time>
      </trkpt>
      <trkpt lat="43.301113955676556" lon="-6.633414449170232">
        <ele>1203.4</ele>
        <time>2017-08-06T07:25:48.000Z</time>
      </trkpt>
      <trkpt lat="43.30100817605853" lon="-6.633459459990263">
        <ele>1202.8</ele>
        <time>2017-08-06T07:25:57.000Z</time>
      </trkpt>
      <trkpt lat="43.300998117774725" lon="-6.63347152993083">
        <ele>1202.8</ele>
        <time>2017-08-06T07:25:58.000Z</time>
      </trkpt>
      <trkpt lat="43.300940031185746" lon="-6.633523078635335">
        <ele>1203</ele>
        <time>2017-08-06T07:26:04.000Z</time>
      </trkpt>
      <trkpt lat="43.3008283842355" lon="-6.633600359782577">
        <ele>1202.8</ele>
        <time>2017-08-06T07:26:14.000Z</time>
      </trkpt>
      <trkpt lat="43.30075512640178" lon="-6.633695410564542">
        <ele>1203.4</ele>
        <time>2017-08-06T07:26:22.000Z</time>
      </trkpt>
      <trkpt lat="43.300707852467895" lon="-6.633795658126473">
        <ele>1204</ele>
        <time>2017-08-06T07:26:29.000Z</time>
      </trkpt>
      <trkpt lat="43.300702990964055" lon="-6.633828850463033">
        <ele>1204.4</ele>
        <time>2017-08-06T07:26:31.000Z</time>
      </trkpt>
      <trkpt lat="43.300693687051535" lon="-6.633841507136822">
        <ele>1204.4</ele>
        <time>2017-08-06T07:26:32.000Z</time>
      </trkpt>
      <trkpt lat="43.30064297653735" lon="-6.633923482149839">
        <ele>1205</ele>
        <time>2017-08-06T07:26:38.000Z</time>
      </trkpt>
      <trkpt lat="43.300564773380756" lon="-6.634064130485058">
        <ele>1205</ele>
        <time>2017-08-06T07:26:48.000Z</time>
      </trkpt>
      <trkpt lat="43.30050090327859" lon="-6.6341782081872225">
        <ele>1205</ele>
        <time>2017-08-06T07:26:57.000Z</time>
      </trkpt>
      <trkpt lat="43.300459580495954" lon="-6.634279629215598">
        <ele>1204.6</ele>
        <time>2017-08-06T07:27:04.000Z</time>
      </trkpt>
      <trkpt lat="43.300385819748044" lon="-6.634462270885706">
        <ele>1204.2</ele>
        <time>2017-08-06T07:27:15.000Z</time>
      </trkpt>
      <trkpt lat="43.30032614059746" lon="-6.6346467565745115">
        <ele>1204</ele>
        <time>2017-08-06T07:27:26.000Z</time>
      </trkpt>
      <trkpt lat="43.30028842203319" lon="-6.634831074625254">
        <ele>1204</ele>
        <time>2017-08-06T07:27:36.000Z</time>
      </trkpt>
      <trkpt lat="43.30026151612401" lon="-6.634972561150789">
        <ele>1203.6</ele>
        <time>2017-08-06T07:27:44.000Z</time>
      </trkpt>
      <trkpt lat="43.30023025162518" lon="-6.63506593555212">
        <ele>1203</ele>
        <time>2017-08-06T07:27:50.000Z</time>
      </trkpt>
      <trkpt lat="43.30021885223687" lon="-6.635102983564138">
        <ele>1202.8</ele>
        <time>2017-08-06T07:27:52.000Z</time>
      </trkpt>
      <trkpt lat="43.3002136554569" lon="-6.635256875306368">
        <ele>1202.2</ele>
        <time>2017-08-06T07:28:00.000Z</time>
      </trkpt>
      <trkpt lat="43.30023058690131" lon="-6.635417137295008">
        <ele>1201.8</ele>
        <time>2017-08-06T07:28:09.000Z</time>
      </trkpt>
      <trkpt lat="43.300240812823176" lon="-6.635560216382146">
        <ele>1201.6</ele>
        <time>2017-08-06T07:28:17.000Z</time>
      </trkpt>
      <trkpt lat="43.300248524174094" lon="-6.635646969079971">
        <ele>1201.4</ele>
        <time>2017-08-06T07:28:22.000Z</time>
      </trkpt>
      <trkpt lat="43.3002533018589" lon="-6.635691141709685">
        <ele>1201.6</ele>
        <time>2017-08-06T07:28:25.000Z</time>
      </trkpt>
      <trkpt lat="43.30025724135339" lon="-6.635821312665939">
        <ele>1201.6</ele>
        <time>2017-08-06T07:28:33.000Z</time>
      </trkpt>
      <trkpt lat="43.30027014948428" lon="-6.635935893282294">
        <ele>1201.6</ele>
        <time>2017-08-06T07:28:40.000Z</time>
      </trkpt>
      <trkpt lat="43.30029127188027" lon="-6.636087438091636">
        <ele>1201.4</ele>
        <time>2017-08-06T07:28:49.000Z</time>
      </trkpt>
      <trkpt lat="43.30031658522785" lon="-6.6362138371914625">
        <ele>1201.8</ele>
        <time>2017-08-06T07:28:57.000Z</time>
      </trkpt>
      <trkpt lat="43.30033619888127" lon="-6.63639597594738">
        <ele>1201.6</ele>
        <time>2017-08-06T07:29:08.000Z</time>
      </trkpt>
      <trkpt lat="43.300361428409815" lon="-6.636528577655554">
        <ele>1200.6</ele>
        <time>2017-08-06T07:29:16.000Z</time>
      </trkpt>
      <trkpt lat="43.30037743784487" lon="-6.636632177978754">
        <ele>1200.2</ele>
        <time>2017-08-06T07:29:22.000Z</time>
      </trkpt>
      <trkpt lat="43.30040384083986" lon="-6.636766456067562">
        <ele>1200.2</ele>
        <time>2017-08-06T07:29:30.000Z</time>
      </trkpt>
      <trkpt lat="43.3004190120846" lon="-6.636806186288595">
        <ele>1200.2</ele>
        <time>2017-08-06T07:29:33.000Z</time>
      </trkpt>
      <trkpt lat="43.30042228102684" lon="-6.636805683374405">
        <ele>1200.4</ele>
        <time>2017-08-06T07:29:35.000Z</time>
      </trkpt>
      <trkpt lat="43.30043443478644" lon="-6.636869804933667">
        <ele>1200</ele>
        <time>2017-08-06T07:29:51.000Z</time>
      </trkpt>
      <trkpt lat="43.30045631155372" lon="-6.637018416076899">
        <ele>1199.2</ele>
        <time>2017-08-06T07:30:00.000Z</time>
      </trkpt>
      <trkpt lat="43.30047097988427" lon="-6.637070467695594">
        <ele>1198.8</ele>
        <time>2017-08-06T07:30:07.000Z</time>
      </trkpt>
      <trkpt lat="43.300438206642866" lon="-6.637094942852855">
        <ele>1197.6</ele>
        <time>2017-08-06T07:30:16.000Z</time>
      </trkpt>
      <trkpt lat="43.30043921247125" lon="-6.6371553763747215">
        <ele>1196.8</ele>
        <time>2017-08-06T07:30:28.000Z</time>
      </trkpt>
      <trkpt lat="43.300431249663234" lon="-6.637265179306269">
        <ele>1195</ele>
        <time>2017-08-06T07:30:36.000Z</time>
      </trkpt>
      <trkpt lat="43.30042370595038" lon="-6.637271801009774">
        <ele>1194.8</ele>
        <time>2017-08-06T07:30:37.000Z</time>
      </trkpt>
      <trkpt lat="43.300391687080264" lon="-6.637279260903597">
        <ele>1193.8</ele>
        <time>2017-08-06T07:30:42.000Z</time>
      </trkpt>
      <trkpt lat="43.30037911422551" lon="-6.637265682220459">
        <ele>1193.4</ele>
        <time>2017-08-06T07:31:00.000Z</time>
      </trkpt>
      <trkpt lat="43.30037232488394" lon="-6.637241207063198">
        <ele>1193.6</ele>
        <time>2017-08-06T07:31:13.000Z</time>
      </trkpt>
      <trkpt lat="43.30039084888995" lon="-6.6372608207166195">
        <ele>1193.8</ele>
        <time>2017-08-06T07:31:35.000Z</time>
      </trkpt>
      <trkpt lat="43.30040015280247" lon="-6.637263502925634">
        <ele>1194.2</ele>
        <time>2017-08-06T07:31:44.000Z</time>
      </trkpt>
      <trkpt lat="43.300438122823834" lon="-6.6372505109757185">
        <ele>1195.4</ele>
        <time>2017-08-06T07:31:52.000Z</time>
      </trkpt>
      <trkpt lat="43.30049050971866" lon="-6.637239530682564">
        <ele>1197</ele>
        <time>2017-08-06T07:32:00.000Z</time>
      </trkpt>
      <trkpt lat="43.30050836317241" lon="-6.637245984748006">
        <ele>1197.4</ele>
        <time>2017-08-06T07:32:06.000Z</time>
      </trkpt>
      <trkpt lat="43.30051054246724" lon="-6.637305915355682">
        <ele>1197.2</ele>
        <time>2017-08-06T07:32:19.000Z</time>
      </trkpt>
      <trkpt lat="43.300524121150374" lon="-6.637430721893907">
        <ele>1197</ele>
        <time>2017-08-06T07:32:27.000Z</time>
      </trkpt>
      <trkpt lat="43.30054440535605" lon="-6.637537172064185">
        <ele>1197.2</ele>
        <time>2017-08-06T07:32:35.000Z</time>
      </trkpt>
      <trkpt lat="43.30055605620146" lon="-6.637570783495903">
        <ele>1197.4</ele>
        <time>2017-08-06T07:32:38.000Z</time>
      </trkpt>
      <trkpt lat="43.300566617399454" lon="-6.637590313330293">
        <ele>1197.6</ele>
        <time>2017-08-06T07:32:41.000Z</time>
      </trkpt>
      <trkpt lat="43.300582794472575" lon="-6.637630462646484">
        <ele>1197.8</ele>
        <time>2017-08-06T07:32:49.000Z</time>
      </trkpt>
      <trkpt lat="43.30064272508025" lon="-6.637690896168351">
        <ele>1199</ele>
        <time>2017-08-06T07:32:57.000Z</time>
      </trkpt>
      <trkpt lat="43.300635516643524" lon="-6.637741271406412">
        <ele>1198.6</ele>
        <time>2017-08-06T07:33:03.000Z</time>
      </trkpt>
      <trkpt lat="43.300617411732674" lon="-6.637760046869516">
        <ele>1198</ele>
        <time>2017-08-06T07:33:05.000Z</time>
      </trkpt>
      <trkpt lat="43.3005952835083" lon="-6.637794664129615">
        <ele>1197.2</ele>
        <time>2017-08-06T07:33:09.000Z</time>
      </trkpt>
      <trkpt lat="43.30056100152433" lon="-6.637820731848478">
        <ele>1196</ele>
        <time>2017-08-06T07:33:14.000Z</time>
      </trkpt>
      <trkpt lat="43.300479697063565" lon="-6.6378731187433">
        <ele>1192.6</ele>
        <time>2017-08-06T07:33:21.000Z</time>
      </trkpt>
      <trkpt lat="43.300477685406804" lon="-6.637906897813082">
        <ele>1192</ele>
        <time>2017-08-06T07:33:27.000Z</time>
      </trkpt>
      <trkpt lat="43.30049260519445" lon="-6.637881584465504">
        <ele>1192.8</ele>
        <time>2017-08-06T07:33:33.000Z</time>
      </trkpt>
      <trkpt lat="43.30052479170263" lon="-6.637862138450146">
        <ele>1194.2</ele>
        <time>2017-08-06T07:33:38.000Z</time>
      </trkpt>
      <trkpt lat="43.30056167207658" lon="-6.637869430705905">
        <ele>1195.2</ele>
        <time>2017-08-06T07:33:44.000Z</time>
      </trkpt>
      <trkpt lat="43.30058505758643" lon="-6.637931875884533">
        <ele>1195</ele>
        <time>2017-08-06T07:33:50.000Z</time>
      </trkpt>
      <trkpt lat="43.300603246316314" lon="-6.638054838404059">
        <ele>1193.4</ele>
        <time>2017-08-06T07:33:58.000Z</time>
      </trkpt>
      <trkpt lat="43.30064959824085" lon="-6.638192972168326">
        <ele>1192.4</ele>
        <time>2017-08-06T07:34:07.000Z</time>
      </trkpt>
      <trkpt lat="43.300660997629166" lon="-6.638218620792031">
        <ele>1192.2</ele>
        <time>2017-08-06T07:34:09.000Z</time>
      </trkpt>
      <trkpt lat="43.30070860683918" lon="-6.6382924653589725">
        <ele>1192</ele>
        <time>2017-08-06T07:34:15.000Z</time>
      </trkpt>
      <trkpt lat="43.3007335010916" lon="-6.638341415673494">
        <ele>1191.6</ele>
        <time>2017-08-06T07:34:21.000Z</time>
      </trkpt>
      <trkpt lat="43.30072511918843" lon="-6.6383932158350945">
        <ele>1190.8</ele>
        <time>2017-08-06T07:34:26.000Z</time>
      </trkpt>
      <trkpt lat="43.30073115415871" lon="-6.638481058180332">
        <ele>1190.8</ele>
        <time>2017-08-06T07:34:33.000Z</time>
      </trkpt>
      <trkpt lat="43.300725035369396" lon="-6.63854937069118">
        <ele>1190.6</ele>
        <time>2017-08-06T07:34:42.000Z</time>
      </trkpt>
      <trkpt lat="43.30072277225554" lon="-6.638626987114549">
        <ele>1190.6</ele>
        <time>2017-08-06T07:34:51.000Z</time>
      </trkpt>
      <trkpt lat="43.30070902593434" lon="-6.6387018375098705">
        <ele>1190.2</ele>
        <time>2017-08-06T07:34:58.000Z</time>
      </trkpt>
      <trkpt lat="43.30068522132933" lon="-6.6388108022511005">
        <ele>1190</ele>
        <time>2017-08-06T07:35:06.000Z</time>
      </trkpt>
      <trkpt lat="43.30069871619344" lon="-6.638924293220043">
        <ele>1190.8</ele>
        <time>2017-08-06T07:35:13.000Z</time>
      </trkpt>
      <trkpt lat="43.300701482221484" lon="-6.638938710093498">
        <ele>1190.8</ele>
        <time>2017-08-06T07:35:14.000Z</time>
      </trkpt>
      <trkpt lat="43.300716066733" lon="-6.639014231041074">
        <ele>1191</ele>
        <time>2017-08-06T07:35:19.000Z</time>
      </trkpt>
      <trkpt lat="43.300733249634504" lon="-6.639062343165278">
        <ele>1191.2</ele>
        <time>2017-08-06T07:35:23.000Z</time>
      </trkpt>
      <trkpt lat="43.30074666067958" lon="-6.639105761423707">
        <ele>1191.4</ele>
        <time>2017-08-06T07:35:26.000Z</time>
      </trkpt>
      <trkpt lat="43.300772812217474" lon="-6.639244565740228">
        <ele>1191.8</ele>
        <time>2017-08-06T07:35:35.000Z</time>
      </trkpt>
      <trkpt lat="43.30077440477908" lon="-6.6392596531659365">
        <ele>1191.8</ele>
        <time>2017-08-06T07:35:36.000Z</time>
      </trkpt>
      <trkpt lat="43.30078379251063" lon="-6.6393353417515755">
        <ele>1191.6</ele>
        <time>2017-08-06T07:35:41.000Z</time>
      </trkpt>
      <trkpt lat="43.300814889371395" lon="-6.639445060864091">
        <ele>1192</ele>
        <time>2017-08-06T07:35:49.000Z</time>
      </trkpt>
      <trkpt lat="43.30084456130862" lon="-6.639544889330864">
        <ele>1192</ele>
        <time>2017-08-06T07:35:56.000Z</time>
      </trkpt>
      <trkpt lat="43.30086786299944" lon="-6.6396525129675865">
        <ele>1191.4</ele>
        <time>2017-08-06T07:36:03.000Z</time>
      </trkpt>
      <trkpt lat="43.30088496208191" lon="-6.639792239293456">
        <ele>1190.2</ele>
        <time>2017-08-06T07:36:12.000Z</time>
      </trkpt>
      <trkpt lat="43.300921423360705" lon="-6.639932803809643">
        <ele>1189.4</ele>
        <time>2017-08-06T07:36:21.000Z</time>
      </trkpt>
      <trkpt lat="43.300958974286914" lon="-6.640054089948535">
        <ele>1189.8</ele>
        <time>2017-08-06T07:36:29.000Z</time>
      </trkpt>
      <trkpt lat="43.30100088380277" lon="-6.6402041260153055">
        <ele>1190.8</ele>
        <time>2017-08-06T07:36:39.000Z</time>
      </trkpt>
      <trkpt lat="43.3010099362582" lon="-6.640234384685755">
        <ele>1191</ele>
        <time>2017-08-06T07:36:41.000Z</time>
      </trkpt>
      <trkpt lat="43.30101882107556" lon="-6.640279730781913">
        <ele>1191</ele>
        <time>2017-08-06T07:36:44.000Z</time>
      </trkpt>
      <trkpt lat="43.30102083273232" lon="-6.64030596613884">
        <ele>1191</ele>
        <time>2017-08-06T07:36:46.000Z</time>
      </trkpt>
      <trkpt lat="43.30102284438908" lon="-6.640399005264044">
        <ele>1191.8</ele>
        <time>2017-08-06T07:36:52.000Z</time>
      </trkpt>
      <trkpt lat="43.30102217383683" lon="-6.640543173998594">
        <ele>1192.8</ele>
        <time>2017-08-06T07:37:01.000Z</time>
      </trkpt>
      <trkpt lat="43.30102804116905" lon="-6.6406703274697065">
        <ele>1194.2</ele>
        <time>2017-08-06T07:37:09.000Z</time>
      </trkpt>
      <trkpt lat="43.30101387575269" lon="-6.640775268897414">
        <ele>1194.8</ele>
        <time>2017-08-06T07:37:16.000Z</time>
      </trkpt>
      <trkpt lat="43.30098529346287" lon="-6.640880713239312">
        <ele>1195.2</ele>
        <time>2017-08-06T07:37:23.000Z</time>
      </trkpt>
      <trkpt lat="43.30095277167857" lon="-6.640991270542145">
        <ele>1195.2</ele>
        <time>2017-08-06T07:37:31.000Z</time>
      </trkpt>
      <trkpt lat="43.30092946998775" lon="-6.641073413193226">
        <ele>1195.2</ele>
        <time>2017-08-06T07:37:37.000Z</time>
      </trkpt>
      <trkpt lat="43.300905749201775" lon="-6.6411869879812">
        <ele>1195.8</ele>
        <time>2017-08-06T07:37:45.000Z</time>
      </trkpt>
      <trkpt lat="43.30089217051864" lon="-6.641246415674686">
        <ele>1196.6</ele>
        <time>2017-08-06T07:37:52.000Z</time>
      </trkpt>
      <trkpt lat="43.30087029375136" lon="-6.641346160322428">
        <ele>1197.8</ele>
        <time>2017-08-06T07:37:59.000Z</time>
      </trkpt>
      <trkpt lat="43.30084506422281" lon="-6.641467195004225">
        <ele>1199.4</ele>
        <time>2017-08-06T07:38:07.000Z</time>
      </trkpt>
      <trkpt lat="43.30081664957106" lon="-6.641587894409895">
        <ele>1200.8</ele>
        <time>2017-08-06T07:38:15.000Z</time>
      </trkpt>
      <trkpt lat="43.30079938285053" lon="-6.641693590208888">
        <ele>1202.4</ele>
        <time>2017-08-06T07:38:22.000Z</time>
      </trkpt>
      <trkpt lat="43.30076769925654" lon="-6.64182661101222">
        <ele>1202.2</ele>
        <time>2017-08-06T07:38:31.000Z</time>
      </trkpt>
      <trkpt lat="43.300743475556374" lon="-6.641947897151113">
        <ele>1201.8</ele>
        <time>2017-08-06T07:38:39.000Z</time>
      </trkpt>
      <trkpt lat="43.30072386190295" lon="-6.642069183290005">
        <ele>1201.4</ele>
        <time>2017-08-06T07:38:47.000Z</time>
      </trkpt>
      <trkpt lat="43.300719168037176" lon="-6.6421920619904995">
        <ele>1201.6</ele>
        <time>2017-08-06T07:38:55.000Z</time>
      </trkpt>
      <trkpt lat="43.30072185024619" lon="-6.6422907169908285">
        <ele>1202.2</ele>
        <time>2017-08-06T07:39:02.000Z</time>
      </trkpt>
      <trkpt lat="43.300718665122986" lon="-6.642292393371463">
        <ele>1202.2</ele>
        <time>2017-08-06T07:39:11.000Z</time>
      </trkpt>
      <trkpt lat="43.30070952884853" lon="-6.6422963328659534">
        <ele>1202</ele>
        <time>2017-08-06T07:39:18.000Z</time>
      </trkpt>
      <trkpt lat="43.300709277391434" lon="-6.642348552122712">
        <ele>1202.6</ele>
        <time>2017-08-06T07:39:23.000Z</time>
      </trkpt>
      <trkpt lat="43.30070969648659" lon="-6.6424706764519215">
        <ele>1205.4</ele>
        <time>2017-08-06T07:39:32.000Z</time>
      </trkpt>
      <trkpt lat="43.30071388743818" lon="-6.642516357824206">
        <ele>1206.4</ele>
        <time>2017-08-06T07:39:35.000Z</time>
      </trkpt>
      <trkpt lat="43.300720090046525" lon="-6.642558854073286">
        <ele>1207.6</ele>
        <time>2017-08-06T07:39:38.000Z</time>
      </trkpt>
      <trkpt lat="43.30072419717908" lon="-6.642690785229206">
        <ele>1210.2</ele>
        <time>2017-08-06T07:39:46.000Z</time>
      </trkpt>
      <trkpt lat="43.300730902701616" lon="-6.642802599817514">
        <ele>1212.6</ele>
        <time>2017-08-06T07:39:53.000Z</time>
      </trkpt>
      <trkpt lat="43.30074129626155" lon="-6.642934363335371">
        <ele>1214</ele>
        <time>2017-08-06T07:40:01.000Z</time>
      </trkpt>
      <trkpt lat="43.30074079334736" lon="-6.643055230379105">
        <ele>1214.8</ele>
        <time>2017-08-06T07:40:09.000Z</time>
      </trkpt>
      <trkpt lat="43.300742553547025" lon="-6.643177438527346">
        <ele>1215.2</ele>
        <time>2017-08-06T07:40:17.000Z</time>
      </trkpt>
      <trkpt lat="43.300745068117976" lon="-6.643299981951714">
        <ele>1215.8</ele>
        <time>2017-08-06T07:40:25.000Z</time>
      </trkpt>
      <trkpt lat="43.300752276554704" lon="-6.643409533426166">
        <ele>1216.6</ele>
        <time>2017-08-06T07:40:32.000Z</time>
      </trkpt>
      <trkpt lat="43.30076518468559" lon="-6.643520258367062">
        <ele>1218.2</ele>
        <time>2017-08-06T07:40:39.000Z</time>
      </trkpt>
      <trkpt lat="43.30075738951564" lon="-6.643660319969058">
        <ele>1218.6</ele>
        <time>2017-08-06T07:40:48.000Z</time>
      </trkpt>
      <trkpt lat="43.30076660960913" lon="-6.643734248355031">
        <ele>1219</ele>
        <time>2017-08-06T07:40:54.000Z</time>
      </trkpt>
      <trkpt lat="43.30076132901013" lon="-6.643787724897265">
        <ele>1218.4</ele>
        <time>2017-08-06T07:41:00.000Z</time>
      </trkpt>
      <trkpt lat="43.3007506839931" lon="-6.64389836601913">
        <ele>1217.2</ele>
        <time>2017-08-06T07:41:07.000Z</time>
      </trkpt>
      <trkpt lat="43.30074322409928" lon="-6.644043792039156">
        <ele>1216</ele>
        <time>2017-08-06T07:41:16.000Z</time>
      </trkpt>
      <trkpt lat="43.300743475556374" lon="-6.644172705709934">
        <ele>1215.2</ele>
        <time>2017-08-06T07:41:24.000Z</time>
      </trkpt>
      <trkpt lat="43.30074272118509" lon="-6.644186535850167">
        <ele>1215</ele>
        <time>2017-08-06T07:41:25.000Z</time>
      </trkpt>
      <trkpt lat="43.300744984298944" lon="-6.644287034869194">
        <ele>1215</ele>
        <time>2017-08-06T07:41:31.000Z</time>
      </trkpt>
      <trkpt lat="43.30074582248926" lon="-6.644390299916267">
        <ele>1215</ele>
        <time>2017-08-06T07:41:38.000Z</time>
      </trkpt>
      <trkpt lat="43.30075588077307" lon="-6.6445407550781965">
        <ele>1215.6</ele>
        <time>2017-08-06T07:41:48.000Z</time>
      </trkpt>
      <trkpt lat="43.30078094266355" lon="-6.644632453098893">
        <ele>1216.6</ele>
        <time>2017-08-06T07:41:55.000Z</time>
      </trkpt>
      <trkpt lat="43.300800723955035" lon="-6.644744602963328">
        <ele>1217.6</ele>
        <time>2017-08-06T07:42:03.000Z</time>
      </trkpt>
      <trkpt lat="43.300779685378075" lon="-6.644875863566995">
        <ele>1216.6</ele>
        <time>2017-08-06T07:42:11.000Z</time>
      </trkpt>
      <trkpt lat="43.30075060017407" lon="-6.644991030916572">
        <ele>1215.2</ele>
        <time>2017-08-06T07:42:18.000Z</time>
      </trkpt>
      <trkpt lat="43.30074858851731" lon="-6.645149365067482">
        <ele>1214.2</ele>
        <time>2017-08-06T07:42:27.000Z</time>
      </trkpt>
      <trkpt lat="43.3007678668946" lon="-6.645299736410379">
        <ele>1213.6</ele>
        <time>2017-08-06T07:42:36.000Z</time>
      </trkpt>
      <trkpt lat="43.30078278668225" lon="-6.645460668951273">
        <ele>1213.2</ele>
        <time>2017-08-06T07:42:46.000Z</time>
      </trkpt>
      <trkpt lat="43.30079225823283" lon="-6.645581368356943">
        <ele>1212.8</ele>
        <time>2017-08-06T07:42:54.000Z</time>
      </trkpt>
      <trkpt lat="43.30079016275704" lon="-6.645581871271133">
        <ele>1212.8</ele>
        <time>2017-08-06T07:43:02.000Z</time>
      </trkpt>
      <trkpt lat="43.30080835148692" lon="-6.645657056942582">
        <ele>1213.8</ele>
        <time>2017-08-06T07:43:09.000Z</time>
      </trkpt>
      <trkpt lat="43.30081312917173" lon="-6.645673653110862">
        <ele>1214.2</ele>
        <time>2017-08-06T07:43:10.000Z</time>
      </trkpt>
      <trkpt lat="43.3008371014148" lon="-6.645739451050758">
        <ele>1215.6</ele>
        <time>2017-08-06T07:43:15.000Z</time>
      </trkpt>
      <trkpt lat="43.30087850801647" lon="-6.645824192091823">
        <ele>1217.8</ele>
        <time>2017-08-06T07:43:22.000Z</time>
      </trkpt>
      <trkpt lat="43.300890494138" lon="-6.645871717482805">
        <ele>1218</ele>
        <time>2017-08-06T07:43:25.000Z</time>
      </trkpt>
      <trkpt lat="43.300898373126984" lon="-6.645970707759261">
        <ele>1217.8</ele>
        <time>2017-08-06T07:43:31.000Z</time>
      </trkpt>
      <trkpt lat="43.30087188631296" lon="-6.646122001111507">
        <ele>1215.6</ele>
        <time>2017-08-06T07:43:40.000Z</time>
      </trkpt>
      <trkpt lat="43.300873562693596" lon="-6.646213196218014">
        <ele>1214.8</ele>
        <time>2017-08-06T07:43:47.000Z</time>
      </trkpt>
      <trkpt lat="43.30087373033166" lon="-6.646275473758578">
        <ele>1214.2</ele>
        <time>2017-08-06T07:43:53.000Z</time>
      </trkpt>
      <trkpt lat="43.30088462680578" lon="-6.6463561076670885">
        <ele>1213.8</ele>
        <time>2017-08-06T07:43:58.000Z</time>
      </trkpt>
      <trkpt lat="43.3008873090148" lon="-6.646378403529525">
        <ele>1213.6</ele>
        <time>2017-08-06T07:44:00.000Z</time>
      </trkpt>
      <trkpt lat="43.30089200288057" lon="-6.646436657756567">
        <ele>1213</ele>
        <time>2017-08-06T07:44:07.000Z</time>
      </trkpt>
      <trkpt lat="43.300898456946015" lon="-6.646478567272425">
        <ele>1212.4</ele>
        <time>2017-08-06T07:44:13.000Z</time>
      </trkpt>
      <trkpt lat="43.30089669674635" lon="-6.646469598636031">
        <ele>1212.6</ele>
        <time>2017-08-06T07:44:34.000Z</time>
      </trkpt>
      <trkpt lat="43.30089275725186" lon="-6.646488793194294">
        <ele>1212</ele>
        <time>2017-08-06T07:44:50.000Z</time>
      </trkpt>
      <trkpt lat="43.300897451117635" lon="-6.646466413512826">
        <ele>1212.6</ele>
        <time>2017-08-06T07:45:09.000Z</time>
      </trkpt>
      <trkpt lat="43.300890577957034" lon="-6.646493822336197">
        <ele>1211.6</ele>
        <time>2017-08-06T07:45:19.000Z</time>
      </trkpt>
      <trkpt lat="43.30089326016605" lon="-6.646520812064409">
        <ele>1211.2</ele>
        <time>2017-08-06T07:45:21.000Z</time>
      </trkpt>
      <trkpt lat="43.30091044306755" lon="-6.646675625815988">
        <ele>1210</ele>
        <time>2017-08-06T07:45:27.000Z</time>
      </trkpt>
      <trkpt lat="43.30091974698007" lon="-6.646891543641686">
        <ele>1212.6</ele>
        <time>2017-08-06T07:45:34.000Z</time>
      </trkpt>
      <trkpt lat="43.30092905089259" lon="-6.647165212780237">
        <ele>1214.4</ele>
        <time>2017-08-06T07:45:43.000Z</time>
      </trkpt>
      <trkpt lat="43.30098261125386" lon="-6.647325474768877">
        <ele>1217.8</ele>
        <time>2017-08-06T07:45:50.000Z</time>
      </trkpt>
      <trkpt lat="43.30098680220544" lon="-6.647326983511448">
        <ele>1218</ele>
        <time>2017-08-06T07:45:51.000Z</time>
      </trkpt>
      <trkpt lat="43.30098923295736" lon="-6.647329414263368">
        <ele>1218</ele>
        <time>2017-08-06T07:45:56.000Z</time>
      </trkpt>
      <trkpt lat="43.30099057406187" lon="-6.647323044016957">
        <ele>1218.2</ele>
        <time>2017-08-06T07:46:06.000Z</time>
      </trkpt>
      <trkpt lat="43.30101806670427" lon="-6.6473836451768875">
        <ele>1219.2</ele>
        <time>2017-08-06T07:46:24.000Z</time>
      </trkpt>
      <trkpt lat="43.3010717947036" lon="-6.647475007921457">
        <ele>1221.4</ele>
        <time>2017-08-06T07:46:31.000Z</time>
      </trkpt>
      <trkpt lat="43.30114253796637" lon="-6.647577015683055">
        <ele>1222.2</ele>
        <time>2017-08-06T07:46:39.000Z</time>
      </trkpt>
      <trkpt lat="43.30124069005251" lon="-6.647655721753836">
        <ele>1223</ele>
        <time>2017-08-06T07:46:48.000Z</time>
      </trkpt>
      <trkpt lat="43.30131537280977" lon="-6.647714478895068">
        <ele>1224</ele>
        <time>2017-08-06T07:46:55.000Z</time>
      </trkpt>
      <trkpt lat="43.30139039084315" lon="-6.647780612111092">
        <ele>1224.2</ele>
        <time>2017-08-06T07:47:02.000Z</time>
      </trkpt>
      <trkpt lat="43.30145476385951" lon="-6.647871723398566">
        <ele>1221.8</ele>
        <time>2017-08-06T07:47:09.000Z</time>
      </trkpt>
      <trkpt lat="43.30152517184615" lon="-6.647966103628278">
        <ele>1218.6</ele>
        <time>2017-08-06T07:47:18.000Z</time>
      </trkpt>
      <trkpt lat="43.3015623036772" lon="-6.648001642897725">
        <ele>1217.4</ele>
        <time>2017-08-06T07:47:22.000Z</time>
      </trkpt>
      <trkpt lat="43.301596250385046" lon="-6.648014634847641">
        <ele>1217</ele>
        <time>2017-08-06T07:47:25.000Z</time>
      </trkpt>
      <trkpt lat="43.3016711845994" lon="-6.648046905174851">
        <ele>1215.8</ele>
        <time>2017-08-06T07:47:32.000Z</time>
      </trkpt>
      <trkpt lat="43.3017211407423" lon="-6.648055789992213">
        <ele>1216</ele>
        <time>2017-08-06T07:47:37.000Z</time>
      </trkpt>
      <trkpt lat="43.301733965054154" lon="-6.648056209087372">
        <ele>1216</ele>
        <time>2017-08-06T07:47:39.000Z</time>
      </trkpt>
      <trkpt lat="43.30177092924714" lon="-6.6481049079447985">
        <ele>1214.8</ele>
        <time>2017-08-06T07:47:45.000Z</time>
      </trkpt>
      <trkpt lat="43.301781909540296" lon="-6.648126365616918">
        <ele>1214</ele>
        <time>2017-08-06T07:47:47.000Z</time>
      </trkpt>
      <trkpt lat="43.30181091092527" lon="-6.648170622065663">
        <ele>1212.2</ele>
        <time>2017-08-06T07:47:52.000Z</time>
      </trkpt>
      <trkpt lat="43.30181920900941" lon="-6.64818562567234">
        <ele>1211.8</ele>
        <time>2017-08-06T07:47:54.000Z</time>
      </trkpt>
      <trkpt lat="43.30183773301542" lon="-6.648205406963825">
        <ele>1211.4</ele>
        <time>2017-08-06T07:47:57.000Z</time>
      </trkpt>
      <trkpt lat="43.301865477114916" lon="-6.64825108833611">
        <ele>1210</ele>
        <time>2017-08-06T07:48:03.000Z</time>
      </trkpt>
      <trkpt lat="43.30188928171992" lon="-6.648301966488361">
        <ele>1208.6</ele>
        <time>2017-08-06T07:48:09.000Z</time>
      </trkpt>
      <trkpt lat="43.3019024413079" lon="-6.6483640763908625">
        <ele>1206.4</ele>
        <time>2017-08-06T07:48:14.000Z</time>
      </trkpt>
      <trkpt lat="43.30191006883979" lon="-6.648376230150461">
        <ele>1206.2</ele>
        <time>2017-08-06T07:48:15.000Z</time>
      </trkpt>
      <trkpt lat="43.30195399001241" lon="-6.648443453013897">
        <ele>1204.4</ele>
        <time>2017-08-06T07:48:21.000Z</time>
      </trkpt>
      <trkpt lat="43.301973352208734" lon="-6.6484821774065495">
        <ele>1203.4</ele>
        <time>2017-08-06T07:48:24.000Z</time>
      </trkpt>
      <trkpt lat="43.3020250685513" lon="-6.64856038056314">
        <ele>1201.6</ele>
        <time>2017-08-06T07:48:30.000Z</time>
      </trkpt>
      <trkpt lat="43.302062284201384" lon="-6.6486152820289135">
        <ele>1200.6</ele>
        <time>2017-08-06T07:48:34.000Z</time>
      </trkpt>
      <trkpt lat="43.302088771015406" lon="-6.648657359182835">
        <ele>1199.8</ele>
        <time>2017-08-06T07:48:37.000Z</time>
      </trkpt>
      <trkpt lat="43.30209530889988" lon="-6.648671859875321">
        <ele>1199.4</ele>
        <time>2017-08-06T07:48:38.000Z</time>
      </trkpt>
      <trkpt lat="43.302161023020744" lon="-6.648757858201861">
        <ele>1197.6</ele>
        <time>2017-08-06T07:48:45.000Z</time>
      </trkpt>
      <trkpt lat="43.30223444849253" lon="-6.648820051923394">
        <ele>1196.2</ele>
        <time>2017-08-06T07:48:51.000Z</time>
      </trkpt>
      <trkpt lat="43.30234584398568" lon="-6.648914851248264">
        <ele>1195</ele>
        <time>2017-08-06T07:49:00.000Z</time>
      </trkpt>
      <trkpt lat="43.30241734161973" lon="-6.648981738835573">
        <ele>1194.2</ele>
        <time>2017-08-06T07:49:06.000Z</time>
      </trkpt>
      <trkpt lat="43.302499232813716" lon="-6.6491050366312265">
        <ele>1192</ele>
        <time>2017-08-06T07:49:14.000Z</time>
      </trkpt>
      <trkpt lat="43.30257022753358" lon="-6.6491480357944965">
        <ele>1191.8</ele>
        <time>2017-08-06T07:49:20.000Z</time>
      </trkpt>
      <trkpt lat="43.30262806266546" lon="-6.649193298071623">
        <ele>1191.8</ele>
        <time>2017-08-06T07:49:26.000Z</time>
      </trkpt>
      <trkpt lat="43.3027040027082" lon="-6.649277871474624">
        <ele>1191.2</ele>
        <time>2017-08-06T07:49:34.000Z</time>
      </trkpt>
      <trkpt lat="43.30275689251721" lon="-6.649362612515688">
        <ele>1190</ele>
        <time>2017-08-06T07:49:41.000Z</time>
      </trkpt>
      <trkpt lat="43.30276393331587" lon="-6.649388177320361">
        <ele>1189.4</ele>
        <time>2017-08-06T07:49:43.000Z</time>
      </trkpt>
      <trkpt lat="43.30279109068215" lon="-6.649427656084299">
        <ele>1188.8</ele>
        <time>2017-08-06T07:49:47.000Z</time>
      </trkpt>
      <trkpt lat="43.30280533991754" lon="-6.6494546458125114">
        <ele>1188.6</ele>
        <time>2017-08-06T07:49:49.000Z</time>
      </trkpt>
      <trkpt lat="43.3028369396925" lon="-6.649533770978451">
        <ele>1187.6</ele>
        <time>2017-08-06T07:49:54.000Z</time>
      </trkpt>
      <trkpt lat="43.302916986867785" lon="-6.649685567244887">
        <ele>1185.4</ele>
        <time>2017-08-06T07:50:04.000Z</time>
      </trkpt>
      <trkpt lat="43.30297616310418" lon="-6.649778941646218">
        <ele>1184.2</ele>
        <time>2017-08-06T07:50:11.000Z</time>
      </trkpt>
      <trkpt lat="43.30298990942538" lon="-6.649787491187453">
        <ele>1184.2</ele>
        <time>2017-08-06T07:50:12.000Z</time>
      </trkpt>
      <trkpt lat="43.30303953029215" lon="-6.649842895567417">
        <ele>1183.6</ele>
        <time>2017-08-06T07:50:17.000Z</time>
      </trkpt>
      <trkpt lat="43.30304615199566" lon="-6.649857731536031">
        <ele>1183.2</ele>
        <time>2017-08-06T07:50:18.000Z</time>
      </trkpt>
      <trkpt lat="43.30310038290918" lon="-6.649959571659565">
        <ele>1181.6</ele>
        <time>2017-08-06T07:50:25.000Z</time>
      </trkpt>
      <trkpt lat="43.303153943270445" lon="-6.650060992687941">
        <ele>1180.4</ele>
        <time>2017-08-06T07:50:32.000Z</time>
      </trkpt>
      <trkpt lat="43.3032235968858" lon="-6.650193091481924">
        <ele>1179.8</ele>
        <time>2017-08-06T07:50:41.000Z</time>
      </trkpt>
      <trkpt lat="43.30330087803304" lon="-6.650295350700617">
        <ele>1180.6</ele>
        <time>2017-08-06T07:50:49.000Z</time>
      </trkpt>
      <trkpt lat="43.30335695296526" lon="-6.650395095348358">
        <ele>1179.8</ele>
        <time>2017-08-06T07:50:56.000Z</time>
      </trkpt>
      <trkpt lat="43.303371453657746" lon="-6.650485200807452">
        <ele>1178.6</ele>
        <time>2017-08-06T07:51:02.000Z</time>
      </trkpt>
      <trkpt lat="43.303367514163256" lon="-6.650497857481241">
        <ele>1178.4</ele>
        <time>2017-08-06T07:51:08.000Z</time>
      </trkpt>
      <trkpt lat="43.303358210250735" lon="-6.650502132251859">
        <ele>1178.2</ele>
        <time>2017-08-06T07:51:15.000Z</time>
      </trkpt>
      <trkpt lat="43.30336223356426" lon="-6.6504868771880865">
        <ele>1178.4</ele>
        <time>2017-08-06T07:51:54.000Z</time>
      </trkpt>
      <trkpt lat="43.30339752137661" lon="-6.6505201533436775">
        <ele>1178.8</ele>
        <time>2017-08-06T07:52:06.000Z</time>
      </trkpt>
      <trkpt lat="43.30343859270215" lon="-6.650619730353355">
        <ele>1179.2</ele>
        <time>2017-08-06T07:52:14.000Z</time>
      </trkpt>
      <trkpt lat="43.30345083028078" lon="-6.650643870234489">
        <ele>1179</ele>
        <time>2017-08-06T07:52:16.000Z</time>
      </trkpt>
      <trkpt lat="43.303477484732866" lon="-6.650710171088576">
        <ele>1179</ele>
        <time>2017-08-06T07:52:20.000Z</time>
      </trkpt>
      <trkpt lat="43.30352978780866" lon="-6.650858782231808">
        <ele>1180.2</ele>
        <time>2017-08-06T07:52:29.000Z</time>
      </trkpt>
      <trkpt lat="43.303612265735865" lon="-6.65099817328155">
        <ele>1181.2</ele>
        <time>2017-08-06T07:52:39.000Z</time>
      </trkpt>
      <trkpt lat="43.30366096459329" lon="-6.651103533804417">
        <ele>1181.8</ele>
        <time>2017-08-06T07:52:46.000Z</time>
      </trkpt>
      <trkpt lat="43.30366783775389" lon="-6.651273602619767">
        <ele>1180.4</ele>
        <time>2017-08-06T07:52:55.000Z</time>
      </trkpt>
      <trkpt lat="43.303688541054726" lon="-6.651420537382364">
        <ele>1179.8</ele>
        <time>2017-08-06T07:53:03.000Z</time>
      </trkpt>
      <trkpt lat="43.30370622687042" lon="-6.651556408032775">
        <ele>1178.2</ele>
        <time>2017-08-06T07:53:10.000Z</time>
      </trkpt>
      <trkpt lat="43.30372190102935" lon="-6.6517052706331015">
        <ele>1177.2</ele>
        <time>2017-08-06T07:53:18.000Z</time>
      </trkpt>
      <trkpt lat="43.30374109558761" lon="-6.651889504864812">
        <ele>1176.4</ele>
        <time>2017-08-06T07:53:28.000Z</time>
      </trkpt>
      <trkpt lat="43.303780825808644" lon="-6.652026297524571">
        <ele>1176.2</ele>
        <time>2017-08-06T07:53:36.000Z</time>
      </trkpt>
      <trkpt lat="43.303829189389944" lon="-6.652173148468137">
        <ele>1175.8</ele>
        <time>2017-08-06T07:53:45.000Z</time>
      </trkpt>
      <trkpt lat="43.30387352965772" lon="-6.652282448485494">
        <ele>1175.8</ele>
        <time>2017-08-06T07:53:52.000Z</time>
      </trkpt>
      <trkpt lat="43.30391636118293" lon="-6.652426617220044">
        <ele>1175.4</ele>
        <time>2017-08-06T07:54:01.000Z</time>
      </trkpt>
      <trkpt lat="43.303953828290105" lon="-6.652567265555263">
        <ele>1174.2</ele>
        <time>2017-08-06T07:54:09.000Z</time>
      </trkpt>
      <trkpt lat="43.30399598926306" lon="-6.65272643789649">
        <ele>1172.6</ele>
        <time>2017-08-06T07:54:18.000Z</time>
      </trkpt>
      <trkpt lat="43.30405047163367" lon="-6.6528544295579195">
        <ele>1171.4</ele>
        <time>2017-08-06T07:54:26.000Z</time>
      </trkpt>
      <trkpt lat="43.30410989932716" lon="-6.652952916920185">
        <ele>1170.2</ele>
        <time>2017-08-06T07:54:33.000Z</time>
      </trkpt>
      <trkpt lat="43.30421417020261" lon="-6.653086943551898">
        <ele>1169</ele>
        <time>2017-08-06T07:54:44.000Z</time>
      </trkpt>
      <trkpt lat="43.304291451349854" lon="-6.653184508904815">
        <ele>1169.2</ele>
        <time>2017-08-06T07:54:52.000Z</time>
      </trkpt>
      <trkpt lat="43.30436244606972" lon="-6.6533073876053095">
        <ele>1168.6</ele>
        <time>2017-08-06T07:55:01.000Z</time>
      </trkpt>
      <trkpt lat="43.3044340275228" lon="-6.653453232720494">
        <ele>1167.2</ele>
        <time>2017-08-06T07:55:11.000Z</time>
      </trkpt>
      <trkpt lat="43.304484486579895" lon="-6.653616428375244">
        <ele>1165.4</ele>
        <time>2017-08-06T07:55:21.000Z</time>
      </trkpt>
      <trkpt lat="43.30451851710677" lon="-6.653735702857375">
        <ele>1164.6</ele>
        <time>2017-08-06T07:55:30.000Z</time>
      </trkpt>
      <trkpt lat="43.304517176002264" lon="-6.6537270694971085">
        <ele>1164.6</ele>
        <time>2017-08-06T07:55:37.000Z</time>
      </trkpt>
      <trkpt lat="43.30452145077288" lon="-6.653780462220311">
        <ele>1164</ele>
        <time>2017-08-06T07:55:53.000Z</time>
      </trkpt>
      <trkpt lat="43.30454031005502" lon="-6.653868639841676">
        <ele>1163.6</ele>
        <time>2017-08-06T07:56:00.000Z</time>
      </trkpt>
      <trkpt lat="43.30454567447305" lon="-6.653963020071387">
        <ele>1163</ele>
        <time>2017-08-06T07:56:06.000Z</time>
      </trkpt>
      <trkpt lat="43.304542154073715" lon="-6.6541234496980906">
        <ele>1161.6</ele>
        <time>2017-08-06T07:56:15.000Z</time>
      </trkpt>
      <trkpt lat="43.30451499670744" lon="-6.654247250407934">
        <ele>1160.6</ele>
        <time>2017-08-06T07:56:22.000Z</time>
      </trkpt>
      <trkpt lat="43.30449890345335" lon="-6.654388653114438">
        <ele>1159.8</ele>
        <time>2017-08-06T07:56:30.000Z</time>
      </trkpt>
      <trkpt lat="43.30445892177522" lon="-6.654536761343479">
        <ele>1158.8</ele>
        <time>2017-08-06T07:56:39.000Z</time>
      </trkpt>
      <trkpt lat="43.304422963410616" lon="-6.654650419950485">
        <ele>1157.8</ele>
        <time>2017-08-06T07:56:46.000Z</time>
      </trkpt>
      <trkpt lat="43.30437619239092" lon="-6.654780758544803">
        <ele>1156.6</ele>
        <time>2017-08-06T07:56:54.000Z</time>
      </trkpt>
      <trkpt lat="43.30431525595486" lon="-6.654892070218921">
        <ele>1155.4</ele>
        <time>2017-08-06T07:57:02.000Z</time>
      </trkpt>
      <trkpt lat="43.304275777190924" lon="-6.654989300295711">
        <ele>1154.6</ele>
        <time>2017-08-06T07:57:08.000Z</time>
      </trkpt>
      <trkpt lat="43.30423160456121" lon="-6.655160626396537">
        <ele>1153.6</ele>
        <time>2017-08-06T07:57:18.000Z</time>
      </trkpt>
      <trkpt lat="43.30420478247106" lon="-6.655295072123408">
        <ele>1153.2</ele>
        <time>2017-08-06T07:57:26.000Z</time>
      </trkpt>
      <trkpt lat="43.304174188524485" lon="-6.655430356040597">
        <ele>1152.6</ele>
        <time>2017-08-06T07:57:34.000Z</time>
      </trkpt>
      <trkpt lat="43.30413185991347" lon="-6.655591707676649">
        <ele>1151.6</ele>
        <time>2017-08-06T07:57:44.000Z</time>
      </trkpt>
      <trkpt lat="43.304094141349196" lon="-6.655736463144422">
        <ele>1151.6</ele>
        <time>2017-08-06T07:57:53.000Z</time>
      </trkpt>
      <trkpt lat="43.3040663972497" lon="-6.655888594686985">
        <ele>1151.6</ele>
        <time>2017-08-06T07:58:02.000Z</time>
      </trkpt>
      <trkpt lat="43.304033456370234" lon="-6.656051455065608">
        <ele>1150</ele>
        <time>2017-08-06T07:58:12.000Z</time>
      </trkpt>
      <trkpt lat="43.30398919992149" lon="-6.656207777559757">
        <ele>1149</ele>
        <time>2017-08-06T07:58:22.000Z</time>
      </trkpt>
      <trkpt lat="43.303955337032676" lon="-6.6563499346375465">
        <ele>1150.4</ele>
        <time>2017-08-06T07:58:31.000Z</time>
      </trkpt>
      <trkpt lat="43.30394041724503" lon="-6.656444231048226">
        <ele>1151.6</ele>
        <time>2017-08-06T07:58:39.000Z</time>
      </trkpt>
      <trkpt lat="43.30392608419061" lon="-6.6565160639584064">
        <ele>1152.2</ele>
        <time>2017-08-06T07:58:52.000Z</time>
      </trkpt>
      <trkpt lat="43.30388274975121" lon="-6.6566939279437065">
        <ele>1153.2</ele>
        <time>2017-08-06T07:59:03.000Z</time>
      </trkpt>
      <trkpt lat="43.30383790656924" lon="-6.6568205785006285">
        <ele>1152.8</ele>
        <time>2017-08-06T07:59:11.000Z</time>
      </trkpt>
      <trkpt lat="43.303795075044036" lon="-6.656946893781424">
        <ele>1152</ele>
        <time>2017-08-06T07:59:19.000Z</time>
      </trkpt>
      <trkpt lat="43.30374495126307" lon="-6.6570499911904335">
        <ele>1150.8</ele>
        <time>2017-08-06T07:59:26.000Z</time>
      </trkpt>
      <trkpt lat="43.30368921160698" lon="-6.65715635754168">
        <ele>1149.6</ele>
        <time>2017-08-06T07:59:34.000Z</time>
      </trkpt>
      <trkpt lat="43.303628945723176" lon="-6.657280661165714">
        <ele>1148.2</ele>
        <time>2017-08-06T07:59:43.000Z</time>
      </trkpt>
      <trkpt lat="43.303576642647386" lon="-6.657344531267881">
        <ele>1148.2</ele>
        <time>2017-08-06T07:59:50.000Z</time>
      </trkpt>
      <trkpt lat="43.30355426296592" lon="-6.657371437177062">
        <ele>1148.2</ele>
        <time>2017-08-06T07:59:56.000Z</time>
      </trkpt>
      <trkpt lat="43.30351964570582" lon="-6.657431200146675">
        <ele>1149.4</ele>
        <time>2017-08-06T08:00:02.000Z</time>
      </trkpt>
      <trkpt lat="43.30342786386609" lon="-6.65755407884717">
        <ele>1151.2</ele>
        <time>2017-08-06T08:00:12.000Z</time>
      </trkpt>
      <trkpt lat="43.30336382612586" lon="-6.657633623108268">
        <ele>1152.4</ele>
        <time>2017-08-06T08:00:19.000Z</time>
      </trkpt>
      <trkpt lat="43.30325989052653" lon="-6.657723560929298">
        <ele>1152.8</ele>
        <time>2017-08-06T08:00:29.000Z</time>
      </trkpt>
      <trkpt lat="43.3031733892858" lon="-6.6577844973653555">
        <ele>1153.2</ele>
        <time>2017-08-06T08:00:37.000Z</time>
      </trkpt>
      <trkpt lat="43.30306811258197" lon="-6.657831771299243">
        <ele>1152.8</ele>
        <time>2017-08-06T08:00:46.000Z</time>
      </trkpt>
      <trkpt lat="43.30296325497329" lon="-6.657881559804082">
        <ele>1152</ele>
        <time>2017-08-06T08:00:55.000Z</time>
      </trkpt>
      <trkpt lat="43.302863677963614" lon="-6.657931683585048">
        <ele>1151.2</ele>
        <time>2017-08-06T08:01:04.000Z</time>
      </trkpt>
      <trkpt lat="43.302809949964285" lon="-6.65800753980875">
        <ele>1152.2</ele>
        <time>2017-08-06T08:01:11.000Z</time>
      </trkpt>
      <trkpt lat="43.30278463661671" lon="-6.658042743802071">
        <ele>1152.6</ele>
        <time>2017-08-06T08:01:16.000Z</time>
      </trkpt>
      <trkpt lat="43.30274406820536" lon="-6.658106194809079">
        <ele>1153.6</ele>
        <time>2017-08-06T08:01:24.000Z</time>
      </trkpt>
      <trkpt lat="43.30270794220269" lon="-6.658158162608743">
        <ele>1154</ele>
        <time>2017-08-06T08:01:32.000Z</time>
      </trkpt>
      <trkpt lat="43.30265186727047" lon="-6.658237958326936">
        <ele>1154.6</ele>
        <time>2017-08-06T08:01:39.000Z</time>
      </trkpt>
      <trkpt lat="43.30260090529919" lon="-6.658310042694211">
        <ele>1155.2</ele>
        <time>2017-08-06T08:01:47.000Z</time>
      </trkpt>
      <trkpt lat="43.302551032975316" lon="-6.658402746543288">
        <ele>1156.2</ele>
        <time>2017-08-06T08:01:54.000Z</time>
      </trkpt>
      <trkpt lat="43.30249789170921" lon="-6.658498300239444">
        <ele>1157</ele>
        <time>2017-08-06T08:02:01.000Z</time>
      </trkpt>
      <trkpt lat="43.30248431302607" lon="-6.6585293132811785">
        <ele>1157.2</ele>
        <time>2017-08-06T08:02:03.000Z</time>
      </trkpt>
      <trkpt lat="43.302440056577325" lon="-6.658642720431089">
        <ele>1158.6</ele>
        <time>2017-08-06T08:02:10.000Z</time>
      </trkpt>
      <trkpt lat="43.302380880340934" lon="-6.658800384029746">
        <ele>1158.6</ele>
        <time>2017-08-06T08:02:20.000Z</time>
      </trkpt>
      <trkpt lat="43.30232463777065" lon="-6.658974727615714">
        <ele>1158.8</ele>
        <time>2017-08-06T08:02:31.000Z</time>
      </trkpt>
      <trkpt lat="43.302280213683844" lon="-6.659120572730899">
        <ele>1158</ele>
        <time>2017-08-06T08:02:40.000Z</time>
      </trkpt>
      <trkpt lat="43.30224635079503" lon="-6.659294832497835">
        <ele>1156</ele>
        <time>2017-08-06T08:02:51.000Z</time>
      </trkpt>
      <trkpt lat="43.30222690477967" lon="-6.659411257132888">
        <ele>1154</ele>
        <time>2017-08-06T08:02:59.000Z</time>
      </trkpt>
      <trkpt lat="43.302217768505216" lon="-6.659506978467107">
        <ele>1153.2</ele>
        <time>2017-08-06T08:03:07.000Z</time>
      </trkpt>
      <trkpt lat="43.302214248105884" lon="-6.659569423645735">
        <ele>1152.8</ele>
        <time>2017-08-06T08:03:13.000Z</time>
      </trkpt>
      <trkpt lat="43.30220863223076" lon="-6.659597251564264">
        <ele>1152.4</ele>
        <time>2017-08-06T08:03:15.000Z</time>
      </trkpt>
      <trkpt lat="43.30220712348819" lon="-6.659711832180619">
        <ele>1152</ele>
        <time>2017-08-06T08:03:22.000Z</time>
      </trkpt>
      <trkpt lat="43.302211398258805" lon="-6.6598207131028175">
        <ele>1151.4</ele>
        <time>2017-08-06T08:03:28.000Z</time>
      </trkpt>
      <trkpt lat="43.302212907001376" lon="-6.659835884347558">
        <ele>1151.2</ele>
        <time>2017-08-06T08:03:29.000Z</time>
      </trkpt>
      <trkpt lat="43.30221684649587" lon="-6.659930683672428">
        <ele>1150.4</ele>
        <time>2017-08-06T08:03:34.000Z</time>
      </trkpt>
      <trkpt lat="43.30221835523844" lon="-6.659949375316501">
        <ele>1150.2</ele>
        <time>2017-08-06T08:03:35.000Z</time>
      </trkpt>
      <trkpt lat="43.30223168246448" lon="-6.660087592899799">
        <ele>1150</ele>
        <time>2017-08-06T08:03:43.000Z</time>
      </trkpt>
      <trkpt lat="43.302246266976" lon="-6.660256739705801">
        <ele>1149.4</ele>
        <time>2017-08-06T08:03:52.000Z</time>
      </trkpt>
      <trkpt lat="43.30225557088852" lon="-6.6603820491582155">
        <ele>1149.2</ele>
        <time>2017-08-06T08:04:00.000Z</time>
      </trkpt>
      <trkpt lat="43.30226252786815" lon="-6.66049805469811">
        <ele>1149.4</ele>
        <time>2017-08-06T08:04:08.000Z</time>
      </trkpt>
      <trkpt lat="43.30227669328451" lon="-6.6606538742780685">
        <ele>1149.6</ele>
        <time>2017-08-06T08:04:17.000Z</time>
      </trkpt>
      <trkpt lat="43.30227870494127" lon="-6.660851603373885">
        <ele>1149</ele>
        <time>2017-08-06T08:04:28.000Z</time>
      </trkpt>
      <trkpt lat="43.302270071581006" lon="-6.660987641662359">
        <ele>1148.4</ele>
        <time>2017-08-06T08:04:36.000Z</time>
      </trkpt>
      <trkpt lat="43.302261773496866" lon="-6.661107502877712">
        <ele>1147.8</ele>
        <time>2017-08-06T08:04:43.000Z</time>
      </trkpt>
      <trkpt lat="43.30225523561239" lon="-6.661246558651328">
        <ele>1147.2</ele>
        <time>2017-08-06T08:04:53.000Z</time>
      </trkpt>
      <trkpt lat="43.30224140547216" lon="-6.6613710299134254">
        <ele>1146.6</ele>
        <time>2017-08-06T08:05:01.000Z</time>
      </trkpt>
      <trkpt lat="43.302226066589355" lon="-6.661535566672683">
        <ele>1145.6</ele>
        <time>2017-08-06T08:05:11.000Z</time>
      </trkpt>
      <trkpt lat="43.30219538882375" lon="-6.661752741783857">
        <ele>1144.6</ele>
        <time>2017-08-06T08:05:24.000Z</time>
      </trkpt>
      <trkpt lat="43.302171248942614" lon="-6.661899760365486">
        <ele>1145.8</ele>
        <time>2017-08-06T08:05:33.000Z</time>
      </trkpt>
      <trkpt lat="43.302141493186355" lon="-6.662086173892021">
        <ele>1146.4</ele>
        <time>2017-08-06T08:05:44.000Z</time>
      </trkpt>
      <trkpt lat="43.302118023857474" lon="-6.662240065634251">
        <ele>1146.2</ele>
        <time>2017-08-06T08:05:54.000Z</time>
      </trkpt>
      <trkpt lat="43.30209287814796" lon="-6.662364536896348">
        <ele>1146.4</ele>
        <time>2017-08-06T08:06:02.000Z</time>
      </trkpt>
      <trkpt lat="43.30207837745547" lon="-6.662428323179483">
        <ele>1146</ele>
        <time>2017-08-06T08:06:07.000Z</time>
      </trkpt>
      <trkpt lat="43.302051136270165" lon="-6.662549525499344">
        <ele>1145.6</ele>
        <time>2017-08-06T08:06:15.000Z</time>
      </trkpt>
      <trkpt lat="43.302015010267496" lon="-6.662682043388486">
        <ele>1146.2</ele>
        <time>2017-08-06T08:06:24.000Z</time>
      </trkpt>
      <trkpt lat="43.301975363865495" lon="-6.662798216566443">
        <ele>1146.2</ele>
        <time>2017-08-06T08:06:32.000Z</time>
      </trkpt>
      <trkpt lat="43.3019251562655" lon="-6.66289041750133">
        <ele>1146.2</ele>
        <time>2017-08-06T08:06:39.000Z</time>
      </trkpt>
      <trkpt lat="43.30189883708954" lon="-6.662952108308673">
        <ele>1146.6</ele>
        <time>2017-08-06T08:06:45.000Z</time>
      </trkpt>
      <trkpt lat="43.30189171247184" lon="-6.66298957541585">
        <ele>1146.8</ele>
        <time>2017-08-06T08:06:50.000Z</time>
      </trkpt>
      <trkpt lat="43.30187411047518" lon="-6.663014218211174">
        <ele>1146.8</ele>
        <time>2017-08-06T08:06:52.000Z</time>
      </trkpt>
      <trkpt lat="43.30186472274363" lon="-6.663043135777116">
        <ele>1147.2</ele>
        <time>2017-08-06T08:06:54.000Z</time>
      </trkpt>
      <trkpt lat="43.30184309743345" lon="-6.663143383339047">
        <ele>1148.2</ele>
        <time>2017-08-06T08:07:01.000Z</time>
      </trkpt>
      <trkpt lat="43.30183203332126" lon="-6.663211276754737">
        <ele>1148.8</ele>
        <time>2017-08-06T08:07:06.000Z</time>
      </trkpt>
      <trkpt lat="43.301825327798724" lon="-6.663261903449893">
        <ele>1149.2</ele>
        <time>2017-08-06T08:07:09.000Z</time>
      </trkpt>
      <trkpt lat="43.30181828700006" lon="-6.663334155455232">
        <ele>1150</ele>
        <time>2017-08-06T08:07:13.000Z</time>
      </trkpt>
      <trkpt lat="43.30181962810457" lon="-6.663377825170755">
        <ele>1150.4</ele>
        <time>2017-08-06T08:07:16.000Z</time>
      </trkpt>
      <trkpt lat="43.30182029865682" lon="-6.663406826555729">
        <ele>1151</ele>
        <time>2017-08-06T08:07:18.000Z</time>
      </trkpt>
      <trkpt lat="43.3018213044852" lon="-6.663477485999465">
        <ele>1151.8</ele>
        <time>2017-08-06T08:07:23.000Z</time>
      </trkpt>
      <trkpt lat="43.30183546990156" lon="-6.663559880107641">
        <ele>1152.4</ele>
        <time>2017-08-06T08:07:28.000Z</time>
      </trkpt>
      <trkpt lat="43.30184309743345" lon="-6.663612769916654">
        <ele>1152.6</ele>
        <time>2017-08-06T08:07:31.000Z</time>
      </trkpt>
      <trkpt lat="43.30184670165181" lon="-6.663651494309306">
        <ele>1153</ele>
        <time>2017-08-06T08:07:33.000Z</time>
      </trkpt>
      <trkpt lat="43.301847875118256" lon="-6.663688290864229">
        <ele>1153.2</ele>
        <time>2017-08-06T08:07:35.000Z</time>
      </trkpt>
      <trkpt lat="43.30185449682176" lon="-6.663789879530668">
        <ele>1153.2</ele>
        <time>2017-08-06T08:07:41.000Z</time>
      </trkpt>
      <trkpt lat="43.30184510909021" lon="-6.663889540359378">
        <ele>1153.4</ele>
        <time>2017-08-06T08:07:47.000Z</time>
      </trkpt>
      <trkpt lat="43.3018353022635" lon="-6.66389842517674">
        <ele>1153.4</ele>
        <time>2017-08-06T08:07:49.000Z</time>
      </trkpt>
      <trkpt lat="43.30179632641375" lon="-6.663974616676569">
        <ele>1153.6</ele>
        <time>2017-08-06T08:07:55.000Z</time>
      </trkpt>
      <trkpt lat="43.30176707357168" lon="-6.664010910317302">
        <ele>1153.6</ele>
        <time>2017-08-06T08:07:58.000Z</time>
      </trkpt>
      <trkpt lat="43.30169842578471" lon="-6.66405969299376">
        <ele>1154</ele>
        <time>2017-08-06T08:08:04.000Z</time>
      </trkpt>
      <trkpt lat="43.301681242883205" lon="-6.664072852581739">
        <ele>1154</ele>
        <time>2017-08-06T08:08:06.000Z</time>
      </trkpt>
      <trkpt lat="43.30164595507085" lon="-6.664121635258198">
        <ele>1154</ele>
        <time>2017-08-06T08:08:10.000Z</time>
      </trkpt>
      <trkpt lat="43.30159013159573" lon="-6.664187768474221">
        <ele>1153.8</ele>
        <time>2017-08-06T08:08:18.000Z</time>
      </trkpt>
      <trkpt lat="43.30154553987086" lon="-6.664226157590747">
        <ele>1153.4</ele>
        <time>2017-08-06T08:08:23.000Z</time>
      </trkpt>
      <trkpt lat="43.301500948145986" lon="-6.6643063724040985">
        <ele>1153.4</ele>
        <time>2017-08-06T08:08:31.000Z</time>
      </trkpt>
      <trkpt lat="43.3014761377126" lon="-6.664369069039822">
        <ele>1153.6</ele>
        <time>2017-08-06T08:08:36.000Z</time>
      </trkpt>
      <trkpt lat="43.301457865163684" lon="-6.664516171440482">
        <ele>1153.6</ele>
        <time>2017-08-06T08:08:45.000Z</time>
      </trkpt>
      <trkpt lat="43.30145392566919" lon="-6.664561349898577">
        <ele>1153.6</ele>
        <time>2017-08-06T08:08:52.000Z</time>
      </trkpt>
      <trkpt lat="43.301456943154335" lon="-6.664567468687892">
        <ele>1153.8</ele>
        <time>2017-08-06T08:09:15.000Z</time>
      </trkpt>
      <trkpt lat="43.30143749713898" lon="-6.664544502273202">
        <ele>1153.6</ele>
        <time>2017-08-06T08:09:29.000Z</time>
      </trkpt>
      <trkpt lat="43.30141763202846" lon="-6.664534527808428">
        <ele>1153.4</ele>
        <time>2017-08-06T08:09:30.000Z</time>
      </trkpt>
      <trkpt lat="43.30130414105952" lon="-6.66455565020442">
        <ele>1152.8</ele>
        <time>2017-08-06T08:09:34.000Z</time>
      </trkpt>
      <trkpt lat="43.30120146274567" lon="-6.664671655744314">
        <ele>1151.2</ele>
        <time>2017-08-06T08:09:38.000Z</time>
      </trkpt>
      <trkpt lat="43.301102723926306" lon="-6.664908276870847">
        <ele>1149.4</ele>
        <time>2017-08-06T08:09:44.000Z</time>
      </trkpt>
      <trkpt lat="43.30106349661946" lon="-6.665079770609736">
        <ele>1148.2</ele>
        <time>2017-08-06T08:09:48.000Z</time>
      </trkpt>
      <trkpt lat="43.301048912107944" lon="-6.665170965716243">
        <ele>1147.8</ele>
        <time>2017-08-06T08:09:52.000Z</time>
      </trkpt>
      <trkpt lat="43.301040111109614" lon="-6.665188819169998">
        <ele>1147.6</ele>
        <time>2017-08-06T08:09:56.000Z</time>
      </trkpt>
      <trkpt lat="43.301028460264206" lon="-6.665200889110565">
        <ele>1147.4</ele>
        <time>2017-08-06T08:10:00.000Z</time>
      </trkpt>
      <trkpt lat="43.30102276057005" lon="-6.665198709815741">
        <ele>1147.2</ele>
        <time>2017-08-06T08:10:10.000Z</time>
      </trkpt>
      <trkpt lat="43.301010271534324" lon="-6.665195943787694">
        <ele>1147</ele>
        <time>2017-08-06T08:10:26.000Z</time>
      </trkpt>
      <trkpt lat="43.30101856961846" lon="-6.665221843868494">
        <ele>1147.2</ele>
        <time>2017-08-06T08:10:31.000Z</time>
      </trkpt>
      <trkpt lat="43.301019072532654" lon="-6.665240367874503">
        <ele>1147.2</ele>
        <time>2017-08-06T08:10:32.000Z</time>
      </trkpt>
      <trkpt lat="43.3010115288198" lon="-6.665294263511896">
        <ele>1147</ele>
        <time>2017-08-06T08:10:37.000Z</time>
      </trkpt>
      <trkpt lat="43.30099266953766" lon="-6.665419992059469">
        <ele>1147.2</ele>
        <time>2017-08-06T08:10:45.000Z</time>
      </trkpt>
      <trkpt lat="43.30098529346287" lon="-6.665431307628751">
        <ele>1147.2</ele>
        <time>2017-08-06T08:10:46.000Z</time>
      </trkpt>
      <trkpt lat="43.300972217693925" lon="-6.665486795827746">
        <ele>1147</ele>
        <time>2017-08-06T08:10:49.000Z</time>
      </trkpt>
      <trkpt lat="43.30094380304217" lon="-6.66556223295629">
        <ele>1146.8</ele>
        <time>2017-08-06T08:10:53.000Z</time>
      </trkpt>
      <trkpt lat="43.30085629597306" lon="-6.665721321478486">
        <ele>1147.2</ele>
        <time>2017-08-06T08:11:03.000Z</time>
      </trkpt>
      <trkpt lat="43.30079795792699" lon="-6.665809918195009">
        <ele>1147.4</ele>
        <time>2017-08-06T08:11:09.000Z</time>
      </trkpt>
      <trkpt lat="43.300729310140014" lon="-6.665935982018709">
        <ele>1148.2</ele>
        <time>2017-08-06T08:11:17.000Z</time>
      </trkpt>
      <trkpt lat="43.30065630376339" lon="-6.666067074984312">
        <ele>1149</ele>
        <time>2017-08-06T08:11:26.000Z</time>
      </trkpt>
      <trkpt lat="43.30055974423885" lon="-6.666207639500499">
        <ele>1149.8</ele>
        <time>2017-08-06T08:11:36.000Z</time>
      </trkpt>
      <trkpt lat="43.3004745002836" lon="-6.666327081620693">
        <ele>1150.8</ele>
        <time>2017-08-06T08:11:45.000Z</time>
      </trkpt>
      <trkpt lat="43.300369810312986" lon="-6.666441159322858">
        <ele>1152.2</ele>
        <time>2017-08-06T08:11:56.000Z</time>
      </trkpt>
      <trkpt lat="43.300270987674594" lon="-6.666503520682454">
        <ele>1152.6</ele>
        <time>2017-08-06T08:12:05.000Z</time>
      </trkpt>
      <trkpt lat="43.30023368820548" lon="-6.66653361171484">
        <ele>1152.8</ele>
        <time>2017-08-06T08:12:09.000Z</time>
      </trkpt>
      <trkpt lat="43.30023368820548" lon="-6.666533946990967">
        <ele>1152.8</ele>
        <time>2017-08-06T08:12:11.000Z</time>
      </trkpt>
      <trkpt lat="43.30021474510431" lon="-6.666554398834705">
        <ele>1153</ele>
        <time>2017-08-06T08:13:33.000Z</time>
      </trkpt>
      <trkpt lat="43.3001343626529" lon="-6.666610473766923">
        <ele>1153.2</ele>
        <time>2017-08-06T08:13:42.000Z</time>
      </trkpt>
      <trkpt lat="43.300057081505656" lon="-6.666679289191961">
        <ele>1153.6</ele>
        <time>2017-08-06T08:13:51.000Z</time>
      </trkpt>
      <trkpt lat="43.29997862689197" lon="-6.666751289740205">
        <ele>1154.4</ele>
        <time>2017-08-06T08:13:59.000Z</time>
      </trkpt>
      <trkpt lat="43.29996882006526" lon="-6.666759252548218">
        <ele>1154.6</ele>
        <time>2017-08-06T08:14:00.000Z</time>
      </trkpt>
      <trkpt lat="43.2998751103878" lon="-6.666831420734525">
        <ele>1155</ele>
        <time>2017-08-06T08:14:09.000Z</time>
      </trkpt>
      <trkpt lat="43.29986555501819" lon="-6.666838461533189">
        <ele>1155</ele>
        <time>2017-08-06T08:14:11.000Z</time>
      </trkpt>
      <trkpt lat="43.29984728246927" lon="-6.666851621121168">
        <ele>1154.8</ele>
        <time>2017-08-06T08:14:13.000Z</time>
      </trkpt>
      <trkpt lat="43.299797074869275" lon="-6.666896045207977">
        <ele>1155</ele>
        <time>2017-08-06T08:14:20.000Z</time>
      </trkpt>
      <trkpt lat="43.299753069877625" lon="-6.666932171210647">
        <ele>1155.2</ele>
        <time>2017-08-06T08:14:25.000Z</time>
      </trkpt>
      <trkpt lat="43.29971065744758" lon="-6.666969135403633">
        <ele>1155.4</ele>
        <time>2017-08-06T08:14:30.000Z</time>
      </trkpt>
      <trkpt lat="43.29971141181886" lon="-6.66697240434587">
        <ele>1155.4</ele>
        <time>2017-08-06T08:14:32.000Z</time>
      </trkpt>
      <trkpt lat="43.299677884206176" lon="-6.6669749189168215">
        <ele>1154.8</ele>
        <time>2017-08-06T08:14:38.000Z</time>
      </trkpt>
      <trkpt lat="43.2996005192399" lon="-6.667030826210976">
        <ele>1154.2</ele>
        <time>2017-08-06T08:14:45.000Z</time>
      </trkpt>
      <trkpt lat="43.29953254200518" lon="-6.667095869779587">
        <ele>1153.8</ele>
        <time>2017-08-06T08:14:52.000Z</time>
      </trkpt>
      <trkpt lat="43.29947822727263" lon="-6.667139874771237">
        <ele>1153.4</ele>
        <time>2017-08-06T08:14:57.000Z</time>
      </trkpt>
      <trkpt lat="43.299454506486654" lon="-6.667164601385593">
        <ele>1153.4</ele>
        <time>2017-08-06T08:14:59.000Z</time>
      </trkpt>
      <trkpt lat="43.299360210075974" lon="-6.667261580005288">
        <ele>1153.2</ele>
        <time>2017-08-06T08:15:08.000Z</time>
      </trkpt>
      <trkpt lat="43.29926800914109" lon="-6.667353697121143">
        <ele>1153.2</ele>
        <time>2017-08-06T08:15:17.000Z</time>
      </trkpt>
      <trkpt lat="43.29916985705495" lon="-6.667474480345845">
        <ele>1153.6</ele>
        <time>2017-08-06T08:15:27.000Z</time>
      </trkpt>
      <trkpt lat="43.29909802414477" lon="-6.6675736382603645">
        <ele>1154</ele>
        <time>2017-08-06T08:15:35.000Z</time>
      </trkpt>
      <trkpt lat="43.29899945296347" lon="-6.667704312130809">
        <ele>1152.6</ele>
        <time>2017-08-06T08:15:45.000Z</time>
      </trkpt>
      <trkpt lat="43.29891814850271" lon="-6.667826436460018">
        <ele>1151.8</ele>
        <time>2017-08-06T08:15:54.000Z</time>
      </trkpt>
      <trkpt lat="43.29884497448802" lon="-6.6679302882403135">
        <ele>1150.6</ele>
        <time>2017-08-06T08:16:02.000Z</time>
      </trkpt>
      <trkpt lat="43.29884237609804" lon="-6.667940095067024">
        <ele>1150.6</ele>
        <time>2017-08-06T08:16:03.000Z</time>
      </trkpt>
      <trkpt lat="43.29883608967066" lon="-6.667948644608259">
        <ele>1150.4</ele>
        <time>2017-08-06T08:16:05.000Z</time>
      </trkpt>
      <trkpt lat="43.29883080907166" lon="-6.6679600439965725">
        <ele>1150.4</ele>
        <time>2017-08-06T08:16:06.000Z</time>
      </trkpt>
      <trkpt lat="43.29880868084729" lon="-6.667998181656003">
        <ele>1149.6</ele>
        <time>2017-08-06T08:16:09.000Z</time>
      </trkpt>
      <trkpt lat="43.298766603693366" lon="-6.6680660750716925">
        <ele>1148.2</ele>
        <time>2017-08-06T08:16:15.000Z</time>
      </trkpt>
      <trkpt lat="43.2987164799124" lon="-6.668167160823941">
        <ele>1147</ele>
        <time>2017-08-06T08:16:22.000Z</time>
      </trkpt>
      <trkpt lat="43.29868471249938" lon="-6.668234886601567">
        <ele>1146.4</ele>
        <time>2017-08-06T08:16:27.000Z</time>
      </trkpt>
      <trkpt lat="43.298631655052304" lon="-6.6683172807097435">
        <ele>1144.8</ele>
        <time>2017-08-06T08:16:33.000Z</time>
      </trkpt>
      <trkpt lat="43.2986213453114" lon="-6.668330859392881">
        <ele>1144.6</ele>
        <time>2017-08-06T08:16:34.000Z</time>
      </trkpt>
      <trkpt lat="43.29861489124596" lon="-6.668344270437956">
        <ele>1144.4</ele>
        <time>2017-08-06T08:16:35.000Z</time>
      </trkpt>
      <trkpt lat="43.29858102835715" lon="-6.668385425582528">
        <ele>1143.2</ele>
        <time>2017-08-06T08:16:39.000Z</time>
      </trkpt>
      <trkpt lat="43.298563258722425" lon="-6.668411577120423">
        <ele>1142.6</ele>
        <time>2017-08-06T08:16:41.000Z</time>
      </trkpt>
      <trkpt lat="43.29854163341224" lon="-6.668441919609904">
        <ele>1142.2</ele>
        <time>2017-08-06T08:16:44.000Z</time>
      </trkpt>
      <trkpt lat="43.29852478578687" lon="-6.668464215472341">
        <ele>1142</ele>
        <time>2017-08-06T08:16:46.000Z</time>
      </trkpt>
      <trkpt lat="43.29849544912577" lon="-6.668498162180185">
        <ele>1141.4</ele>
        <time>2017-08-06T08:16:49.000Z</time>
      </trkpt>
      <trkpt lat="43.2984625082463" lon="-6.668550632894039">
        <ele>1140.8</ele>
        <time>2017-08-06T08:16:53.000Z</time>
      </trkpt>
      <trkpt lat="43.29840115271509" lon="-6.668642079457641">
        <ele>1139.8</ele>
        <time>2017-08-06T08:17:01.000Z</time>
      </trkpt>
      <trkpt lat="43.29834071919322" lon="-6.668737297877669">
        <ele>1139.8</ele>
        <time>2017-08-06T08:17:08.000Z</time>
      </trkpt>
      <trkpt lat="43.29827810637653" lon="-6.668814159929752">
        <ele>1139.4</ele>
        <time>2017-08-06T08:17:15.000Z</time>
      </trkpt>
      <trkpt lat="43.298218259587884" lon="-6.66891910135746">
        <ele>1140.2</ele>
        <time>2017-08-06T08:17:23.000Z</time>
      </trkpt>
      <trkpt lat="43.298181714490056" lon="-6.668958328664303">
        <ele>1139.8</ele>
        <time>2017-08-06T08:17:28.000Z</time>
      </trkpt>
      <trkpt lat="43.29811507835984" lon="-6.66904759593308">
        <ele>1139.2</ele>
        <time>2017-08-06T08:17:35.000Z</time>
      </trkpt>
      <trkpt lat="43.29805062152445" lon="-6.669156057760119">
        <ele>1138.6</ele>
        <time>2017-08-06T08:17:43.000Z</time>
      </trkpt>
      <trkpt lat="43.29799236729741" lon="-6.669266950339079">
        <ele>1137.8</ele>
        <time>2017-08-06T08:17:51.000Z</time>
      </trkpt>
      <trkpt lat="43.29793059267104" lon="-6.669327048584819">
        <ele>1136.6</ele>
        <time>2017-08-06T08:17:57.000Z</time>
      </trkpt>
      <trkpt lat="43.29789597541094" lon="-6.669361414387822">
        <ele>1135.8</ele>
        <time>2017-08-06T08:18:01.000Z</time>
      </trkpt>
      <trkpt lat="43.29788834787905" lon="-6.669365018606186">
        <ele>1135.6</ele>
        <time>2017-08-06T08:18:04.000Z</time>
      </trkpt>
      <trkpt lat="43.29787250608206" lon="-6.66937499307096">
        <ele>1135.2</ele>
        <time>2017-08-06T08:18:08.000Z</time>
      </trkpt>
      <trkpt lat="43.2978599332273" lon="-6.669375244528055">
        <ele>1135</ele>
        <time>2017-08-06T08:18:13.000Z</time>
      </trkpt>
      <trkpt lat="43.29785599373281" lon="-6.669384045526385">
        <ele>1135</ele>
        <time>2017-08-06T08:18:19.000Z</time>
      </trkpt>
      <trkpt lat="43.297833781689405" lon="-6.669411035254598">
        <ele>1134.4</ele>
        <time>2017-08-06T08:18:44.000Z</time>
      </trkpt>
      <trkpt lat="43.29780503176153" lon="-6.669436097145081">
        <ele>1133.8</ele>
        <time>2017-08-06T08:18:49.000Z</time>
      </trkpt>
      <trkpt lat="43.29773495905101" lon="-6.669497285038233">
        <ele>1132.4</ele>
        <time>2017-08-06T08:18:56.000Z</time>
      </trkpt>
      <trkpt lat="43.297649547457695" lon="-6.669595940038562">
        <ele>1131.4</ele>
        <time>2017-08-06T08:19:04.000Z</time>
      </trkpt>
      <trkpt lat="43.297567488625646" lon="-6.669674478471279">
        <ele>1130.6</ele>
        <time>2017-08-06T08:19:11.000Z</time>
      </trkpt>
      <trkpt lat="43.29746204428375" lon="-6.6697703674435616">
        <ele>1129.4</ele>
        <time>2017-08-06T08:19:19.000Z</time>
      </trkpt>
      <trkpt lat="43.29739431850612" lon="-6.669861059635878">
        <ele>1129.4</ele>
        <time>2017-08-06T08:19:26.000Z</time>
      </trkpt>
      <trkpt lat="43.29734771512449" lon="-6.669917218387127">
        <ele>1129.8</ele>
        <time>2017-08-06T08:19:31.000Z</time>
      </trkpt>
      <trkpt lat="43.297260040417314" lon="-6.670023333281279">
        <ele>1130.2</ele>
        <time>2017-08-06T08:19:40.000Z</time>
      </trkpt>
      <trkpt lat="43.29717907123268" lon="-6.670113271102309">
        <ele>1129.6</ele>
        <time>2017-08-06T08:19:48.000Z</time>
      </trkpt>
      <trkpt lat="43.29709231853485" lon="-6.670211590826511">
        <ele>1127</ele>
        <time>2017-08-06T08:19:57.000Z</time>
      </trkpt>
      <trkpt lat="43.29702132381499" lon="-6.670267581939697">
        <ele>1124.8</ele>
        <time>2017-08-06T08:20:04.000Z</time>
      </trkpt>
      <trkpt lat="43.29692895524204" lon="-6.670340001583099">
        <ele>1121.8</ele>
        <time>2017-08-06T08:20:12.000Z</time>
      </trkpt>
      <trkpt lat="43.29690598882735" lon="-6.6703585255891085">
        <ele>1121</ele>
        <time>2017-08-06T08:20:14.000Z</time>
      </trkpt>
      <trkpt lat="43.29686307348311" lon="-6.670387191697955">
        <ele>1119.4</ele>
        <time>2017-08-06T08:20:18.000Z</time>
      </trkpt>
      <trkpt lat="43.29680087976158" lon="-6.670448966324329">
        <ele>1116.6</ele>
        <time>2017-08-06T08:20:25.000Z</time>
      </trkpt>
      <trkpt lat="43.29670876264572" lon="-6.670539071783423">
        <ele>1112.2</ele>
        <time>2017-08-06T08:20:34.000Z</time>
      </trkpt>
      <trkpt lat="43.2966199144721" lon="-6.670606713742018">
        <ele>1108.4</ele>
        <time>2017-08-06T08:20:42.000Z</time>
      </trkpt>
      <trkpt lat="43.29654632136226" lon="-6.6706412471830845">
        <ele>1108</ele>
        <time>2017-08-06T08:20:49.000Z</time>
      </trkpt>
      <trkpt lat="43.29654606990516" lon="-6.670640828087926">
        <ele>1108</ele>
        <time>2017-08-06T08:20:50.000Z</time>
      </trkpt>
      <trkpt lat="43.29654363915324" lon="-6.670642588287592">
        <ele>1108</ele>
        <time>2017-08-06T08:20:58.000Z</time>
      </trkpt>
      <trkpt lat="43.296538861468434" lon="-6.670634876936674">
        <ele>1108.2</ele>
        <time>2017-08-06T08:21:28.000Z</time>
      </trkpt>
      <trkpt lat="43.296535927802324" lon="-6.670632446184754">
        <ele>1108.2</ele>
        <time>2017-08-06T08:24:26.000Z</time>
      </trkpt>
      <trkpt lat="43.29653123393655" lon="-6.670636804774404">
        <ele>1108.2</ele>
        <time>2017-08-06T08:24:36.000Z</time>
      </trkpt>
      <trkpt lat="43.296544309705496" lon="-6.6706515569239855">
        <ele>1108</ele>
        <time>2017-08-06T08:24:47.000Z</time>
      </trkpt>
      <trkpt lat="43.296512458473444" lon="-6.670652981847525">
        <ele>1108.2</ele>
        <time>2017-08-06T08:25:08.000Z</time>
      </trkpt>
      <trkpt lat="43.29648261889815" lon="-6.670662285760045">
        <ele>1108.2</ele>
        <time>2017-08-06T08:25:11.000Z</time>
      </trkpt>
      <trkpt lat="43.2964613288641" lon="-6.67065910063684">
        <ele>1108.4</ele>
        <time>2017-08-06T08:25:13.000Z</time>
      </trkpt>
      <trkpt lat="43.296436266973615" lon="-6.670604282990098">
        <ele>1108.6</ele>
        <time>2017-08-06T08:25:18.000Z</time>
      </trkpt>
      <trkpt lat="43.29642930999398" lon="-6.670591374859214">
        <ele>1108.8</ele>
        <time>2017-08-06T08:25:19.000Z</time>
      </trkpt>
      <trkpt lat="43.29641707241535" lon="-6.67058140039444">
        <ele>1108.8</ele>
        <time>2017-08-06T08:25:20.000Z</time>
      </trkpt>
      <trkpt lat="43.29637784510851" lon="-6.670550387352705">
        <ele>1109.2</ele>
        <time>2017-08-06T08:25:24.000Z</time>
      </trkpt>
      <trkpt lat="43.29633140936494" lon="-6.670473860576749">
        <ele>1109</ele>
        <time>2017-08-06T08:25:31.000Z</time>
      </trkpt>
      <trkpt lat="43.29632420092821" lon="-6.670442428439856">
        <ele>1109.2</ele>
        <time>2017-08-06T08:25:35.000Z</time>
      </trkpt>
      <trkpt lat="43.29629176296294" lon="-6.670337235555053">
        <ele>1109.2</ele>
        <time>2017-08-06T08:25:42.000Z</time>
      </trkpt>
      <trkpt lat="43.296232083812356" lon="-6.670242268592119">
        <ele>1108.8</ele>
        <time>2017-08-06T08:25:50.000Z</time>
      </trkpt>
      <trkpt lat="43.296213978901505" lon="-6.670225169509649">
        <ele>1108.8</ele>
        <time>2017-08-06T08:25:52.000Z</time>
      </trkpt>
      <trkpt lat="43.29618405550718" lon="-6.670219553634524">
        <ele>1108.8</ele>
        <time>2017-08-06T08:25:55.000Z</time>
      </trkpt>
      <trkpt lat="43.296165028586984" lon="-6.670218212530017">
        <ele>1108.8</ele>
        <time>2017-08-06T08:25:56.000Z</time>
      </trkpt>
      <trkpt lat="43.296144073829055" lon="-6.670226510614157">
        <ele>1108.8</ele>
        <time>2017-08-06T08:25:58.000Z</time>
      </trkpt>
      <trkpt lat="43.29613611102104" lon="-6.670232713222504">
        <ele>1108.8</ele>
        <time>2017-08-06T08:25:59.000Z</time>
      </trkpt>
      <trkpt lat="43.29612689092755" lon="-6.670234557241201">
        <ele>1108.8</ele>
        <time>2017-08-06T08:26:00.000Z</time>
      </trkpt>
      <trkpt lat="43.29609143547714" lon="-6.670201197266579">
        <ele>1107.4</ele>
        <time>2017-08-06T08:26:04.000Z</time>
      </trkpt>
      <trkpt lat="43.29606679268181" lon="-6.670189797878265">
        <ele>1106.8</ele>
        <time>2017-08-06T08:26:09.000Z</time>
      </trkpt>
      <trkpt lat="43.295981381088495" lon="-6.670206813141704">
        <ele>1105.4</ele>
        <time>2017-08-06T08:26:16.000Z</time>
      </trkpt>
      <trkpt lat="43.295914912596345" lon="-6.670257691293955">
        <ele>1105.2</ele>
        <time>2017-08-06T08:26:22.000Z</time>
      </trkpt>
      <trkpt lat="43.295899322256446" lon="-6.670272191986442">
        <ele>1105.4</ele>
        <time>2017-08-06T08:26:24.000Z</time>
      </trkpt>
      <trkpt lat="43.295873925089836" lon="-6.670305049046874">
        <ele>1105.6</ele>
        <time>2017-08-06T08:26:27.000Z</time>
      </trkpt>
      <trkpt lat="43.29576278105378" lon="-6.670420048758388">
        <ele>1106</ele>
        <time>2017-08-06T08:26:37.000Z</time>
      </trkpt>
      <trkpt lat="43.29571232199669" lon="-6.670484086498618">
        <ele>1106.8</ele>
        <time>2017-08-06T08:26:43.000Z</time>
      </trkpt>
      <trkpt lat="43.295652056112885" lon="-6.670560780912638">
        <ele>1107.8</ele>
        <time>2017-08-06T08:26:51.000Z</time>
      </trkpt>
      <trkpt lat="43.29559690319002" lon="-6.670633116737008">
        <ele>1108.4</ele>
        <time>2017-08-06T08:26:58.000Z</time>
      </trkpt>
      <trkpt lat="43.29555750824511" lon="-6.67068156413734">
        <ele>1108.8</ele>
        <time>2017-08-06T08:27:03.000Z</time>
      </trkpt>
      <trkpt lat="43.29554518684745" lon="-6.6706992499530315">
        <ele>1108.8</ele>
        <time>2017-08-06T08:27:05.000Z</time>
      </trkpt>
      <trkpt lat="43.29551216214895" lon="-6.6707484517246485">
        <ele>1109.2</ele>
        <time>2017-08-06T08:27:10.000Z</time>
      </trkpt>
      <trkpt lat="43.295498080551624" lon="-6.6707634553313255">
        <ele>1109.4</ele>
        <time>2017-08-06T08:27:12.000Z</time>
      </trkpt>
      <trkpt lat="43.29547628760338" lon="-6.670797234401107">
        <ele>1109.6</ele>
        <time>2017-08-06T08:27:15.000Z</time>
      </trkpt>
      <trkpt lat="43.2954200450331" lon="-6.670878455042839">
        <ele>1110.4</ele>
        <time>2017-08-06T08:27:22.000Z</time>
      </trkpt>
      <trkpt lat="43.295415602624416" lon="-6.670896811410785">
        <ele>1110.4</ele>
        <time>2017-08-06T08:27:23.000Z</time>
      </trkpt>
      <trkpt lat="43.29542415216565" lon="-6.670951629057527">
        <ele>1110.8</ele>
        <time>2017-08-06T08:27:27.000Z</time>
      </trkpt>
      <trkpt lat="43.29541434533894" lon="-6.670974846929312">
        <ele>1110.6</ele>
        <time>2017-08-06T08:27:29.000Z</time>
      </trkpt>
      <trkpt lat="43.295397413894534" lon="-6.671001333743334">
        <ele>1110.4</ele>
        <time>2017-08-06T08:27:32.000Z</time>
      </trkpt>
      <trkpt lat="43.295359779149294" lon="-6.671071574091911">
        <ele>1110.2</ele>
        <time>2017-08-06T08:27:38.000Z</time>
      </trkpt>
      <trkpt lat="43.29536438919604" lon="-6.671079453080893">
        <ele>1110</ele>
        <time>2017-08-06T08:27:39.000Z</time>
      </trkpt>
      <trkpt lat="43.29535827040672" lon="-6.671080878004432">
        <ele>1110</ele>
        <time>2017-08-06T08:27:42.000Z</time>
      </trkpt>
      <trkpt lat="43.295328011736274" lon="-6.671090601012111">
        <ele>1110.2</ele>
        <time>2017-08-06T08:27:48.000Z</time>
      </trkpt>
      <trkpt lat="43.29528031870723" lon="-6.6711218655109406">
        <ele>1110</ele>
        <time>2017-08-06T08:27:53.000Z</time>
      </trkpt>
      <trkpt lat="43.295263638719916" lon="-6.671142233535647">
        <ele>1110</ele>
        <time>2017-08-06T08:27:55.000Z</time>
      </trkpt>
      <trkpt lat="43.29524226486683" lon="-6.671155979856849">
        <ele>1110</ele>
        <time>2017-08-06T08:27:57.000Z</time>
      </trkpt>
      <trkpt lat="43.29513564705849" lon="-6.671203337609768">
        <ele>1111</ele>
        <time>2017-08-06T08:28:06.000Z</time>
      </trkpt>
      <trkpt lat="43.29503573477268" lon="-6.671235524117947">
        <ele>1112</ele>
        <time>2017-08-06T08:28:15.000Z</time>
      </trkpt>
      <trkpt lat="43.294956190511584" lon="-6.671267710626125">
        <ele>1112.8</ele>
        <time>2017-08-06T08:28:22.000Z</time>
      </trkpt>
      <trkpt lat="43.29486013390124" lon="-6.671300902962685">
        <ele>1113.8</ele>
        <time>2017-08-06T08:28:30.000Z</time>
      </trkpt>
      <trkpt lat="43.29478360712528" lon="-6.67132998816669">
        <ele>1114.8</ele>
        <time>2017-08-06T08:28:37.000Z</time>
      </trkpt>
      <trkpt lat="43.29471252858639" lon="-6.671380363404751">
        <ele>1115.4</ele>
        <time>2017-08-06T08:28:44.000Z</time>
      </trkpt>
      <trkpt lat="43.29464999958873" lon="-6.6714490950107574">
        <ele>1116.2</ele>
        <time>2017-08-06T08:28:51.000Z</time>
      </trkpt>
      <trkpt lat="43.294580513611436" lon="-6.671531153842807">
        <ele>1118</ele>
        <time>2017-08-06T08:28:59.000Z</time>
      </trkpt>
      <trkpt lat="43.29454463906586" lon="-6.671580020338297">
        <ele>1118.8</ele>
        <time>2017-08-06T08:29:03.000Z</time>
      </trkpt>
      <trkpt lat="43.29452611505985" lon="-6.671603322029114">
        <ele>1119.2</ele>
        <time>2017-08-06T08:29:05.000Z</time>
      </trkpt>
      <trkpt lat="43.294450929388404" lon="-6.671701725572348">
        <ele>1121</ele>
        <time>2017-08-06T08:29:14.000Z</time>
      </trkpt>
      <trkpt lat="43.29442393966019" lon="-6.671725697815418">
        <ele>1121.4</ele>
        <time>2017-08-06T08:29:17.000Z</time>
      </trkpt>
      <trkpt lat="43.29440290108323" lon="-6.671756794676185">
        <ele>1121.8</ele>
        <time>2017-08-06T08:29:20.000Z</time>
      </trkpt>
      <trkpt lat="43.29438680782914" lon="-6.671779844909906">
        <ele>1122</ele>
        <time>2017-08-06T08:29:22.000Z</time>
      </trkpt>
      <trkpt lat="43.29435705207288" lon="-6.671833237633109">
        <ele>1122.8</ele>
        <time>2017-08-06T08:29:27.000Z</time>
      </trkpt>
      <trkpt lat="43.29433576203883" lon="-6.671882187947631">
        <ele>1123.4</ele>
        <time>2017-08-06T08:29:31.000Z</time>
      </trkpt>
      <trkpt lat="43.29432176426053" lon="-6.671916050836444">
        <ele>1123.8</ele>
        <time>2017-08-06T08:29:34.000Z</time>
      </trkpt>
      <trkpt lat="43.29428421333432" lon="-6.672020992264152">
        <ele>1125.2</ele>
        <time>2017-08-06T08:29:42.000Z</time>
      </trkpt>
      <trkpt lat="43.29424666240811" lon="-6.6721338126808405">
        <ele>1127</ele>
        <time>2017-08-06T08:29:51.000Z</time>
      </trkpt>
      <trkpt lat="43.294211123138666" lon="-6.672236658632755">
        <ele>1127.8</ele>
        <time>2017-08-06T08:29:59.000Z</time>
      </trkpt>
      <trkpt lat="43.294172901660204" lon="-6.672369176521897">
        <ele>1129</ele>
        <time>2017-08-06T08:30:09.000Z</time>
      </trkpt>
      <trkpt lat="43.294144067913294" lon="-6.672486858442426">
        <ele>1129.8</ele>
        <time>2017-08-06T08:30:19.000Z</time>
      </trkpt>
      <trkpt lat="43.294098637998104" lon="-6.6726138442754745">
        <ele>1130.6</ele>
        <time>2017-08-06T08:30:29.000Z</time>
      </trkpt>
      <trkpt lat="43.294049855321646" lon="-6.672743763774633">
        <ele>1130.6</ele>
        <time>2017-08-06T08:30:39.000Z</time>
      </trkpt>
      <trkpt lat="43.29404130578041" lon="-6.672765808179975">
        <ele>1130.6</ele>
        <time>2017-08-06T08:30:41.000Z</time>
      </trkpt>
      <trkpt lat="43.29402018338442" lon="-6.672811573371291">
        <ele>1130.8</ele>
        <time>2017-08-06T08:30:45.000Z</time>
      </trkpt>
      <trkpt lat="43.29393971711397" lon="-6.672948617488146">
        <ele>1130.6</ele>
        <time>2017-08-06T08:30:56.000Z</time>
      </trkpt>
      <trkpt lat="43.293848522007465" lon="-6.673072837293148">
        <ele>1131</ele>
        <time>2017-08-06T08:31:07.000Z</time>
      </trkpt>
      <trkpt lat="43.29377442598343" lon="-6.6731595899909735">
        <ele>1131.4</ele>
        <time>2017-08-06T08:31:16.000Z</time>
      </trkpt>
      <trkpt lat="43.29367862083018" lon="-6.673271991312504">
        <ele>1131.8</ele>
        <time>2017-08-06T08:31:27.000Z</time>
      </trkpt>
      <trkpt lat="43.29359086230397" lon="-6.67336905375123">
        <ele>1132.2</ele>
        <time>2017-08-06T08:31:37.000Z</time>
      </trkpt>
      <trkpt lat="43.29347116872668" lon="-6.673453710973263">
        <ele>1134</ele>
        <time>2017-08-06T08:31:49.000Z</time>
      </trkpt>
      <trkpt lat="43.29335340298712" lon="-6.673499895259738">
        <ele>1135.8</ele>
        <time>2017-08-06T08:32:00.000Z</time>
      </trkpt>
      <trkpt lat="43.29324276186526" lon="-6.673552533611655">
        <ele>1137.4</ele>
        <time>2017-08-06T08:32:11.000Z</time>
      </trkpt>
      <trkpt lat="43.29314569942653" lon="-6.6736022382974625">
        <ele>1139.2</ele>
        <time>2017-08-06T08:32:21.000Z</time>
      </trkpt>
      <trkpt lat="43.29305039718747" lon="-6.673649260774255">
        <ele>1141</ele>
        <time>2017-08-06T08:32:31.000Z</time>
      </trkpt>
      <trkpt lat="43.29296674579382" lon="-6.673675160855055">
        <ele>1142.2</ele>
        <time>2017-08-06T08:32:40.000Z</time>
      </trkpt>
      <trkpt lat="43.29289843328297" lon="-6.673687817528844">
        <ele>1142.6</ele>
        <time>2017-08-06T08:32:48.000Z</time>
      </trkpt>
      <trkpt lat="43.29289055429399" lon="-6.6736941039562225">
        <ele>1142.6</ele>
        <time>2017-08-06T08:32:49.000Z</time>
      </trkpt>
      <trkpt lat="43.292835569009185" lon="-6.6737014800310135">
        <ele>1143</ele>
        <time>2017-08-06T08:32:54.000Z</time>
      </trkpt>
      <trkpt lat="43.29282492399216" lon="-6.673704832792282">
        <ele>1143</ele>
        <time>2017-08-06T08:32:55.000Z</time>
      </trkpt>
      <trkpt lat="43.29276113770902" lon="-6.67373257689178">
        <ele>1143.4</ele>
        <time>2017-08-06T08:33:01.000Z</time>
      </trkpt>
      <trkpt lat="43.29266290180385" lon="-6.673780018463731">
        <ele>1143.8</ele>
        <time>2017-08-06T08:33:10.000Z</time>
      </trkpt>
      <trkpt lat="43.29261696897447" lon="-6.673805415630341">
        <ele>1143.8</ele>
        <time>2017-08-06T08:33:14.000Z</time>
      </trkpt>
      <trkpt lat="43.292593751102686" lon="-6.67381807230413">
        <ele>1143.8</ele>
        <time>2017-08-06T08:33:16.000Z</time>
      </trkpt>
      <trkpt lat="43.29257036559284" lon="-6.673827543854713">
        <ele>1144</ele>
        <time>2017-08-06T08:33:18.000Z</time>
      </trkpt>
      <trkpt lat="43.292501801624894" lon="-6.6738637536764145">
        <ele>1144</ele>
        <time>2017-08-06T08:33:24.000Z</time>
      </trkpt>
      <trkpt lat="43.29240624792874" lon="-6.673901556059718">
        <ele>1144.4</ele>
        <time>2017-08-06T08:33:32.000Z</time>
      </trkpt>
      <trkpt lat="43.29232829622924" lon="-6.6739468183368444">
        <ele>1144.8</ele>
        <time>2017-08-06T08:33:39.000Z</time>
      </trkpt>
      <trkpt lat="43.29225579276681" lon="-6.67398520745337">
        <ele>1145.4</ele>
        <time>2017-08-06T08:33:46.000Z</time>
      </trkpt>
      <trkpt lat="43.29218530096114" lon="-6.6740266140550375">
        <ele>1145.8</ele>
        <time>2017-08-06T08:33:53.000Z</time>
      </trkpt>
      <trkpt lat="43.29211011528969" lon="-6.674057962372899">
        <ele>1146.6</ele>
        <time>2017-08-06T08:34:00.000Z</time>
      </trkpt>
      <trkpt lat="43.29205513000488" lon="-6.674079671502113">
        <ele>1147.2</ele>
        <time>2017-08-06T08:34:05.000Z</time>
      </trkpt>
      <trkpt lat="43.29204674810171" lon="-6.67409903369844">
        <ele>1147.2</ele>
        <time>2017-08-06T08:34:07.000Z</time>
      </trkpt>
      <trkpt lat="43.292006347328424" lon="-6.674119234085083">
        <ele>1147.8</ele>
        <time>2017-08-06T08:34:11.000Z</time>
      </trkpt>
      <trkpt lat="43.291929652914405" lon="-6.674147229641676">
        <ele>1148.4</ele>
        <time>2017-08-06T08:34:18.000Z</time>
      </trkpt>
      <trkpt lat="43.29185421578586" lon="-6.674167430028319">
        <ele>1149</ele>
        <time>2017-08-06T08:34:25.000Z</time>
      </trkpt>
      <trkpt lat="43.29180249944329" lon="-6.674182265996933">
        <ele>1149.2</ele>
        <time>2017-08-06T08:34:30.000Z</time>
      </trkpt>
      <trkpt lat="43.29178171232343" lon="-6.674195844680071">
        <ele>1149.4</ele>
        <time>2017-08-06T08:34:32.000Z</time>
      </trkpt>
      <trkpt lat="43.291734186932445" lon="-6.674224846065044">
        <ele>1149.6</ele>
        <time>2017-08-06T08:34:37.000Z</time>
      </trkpt>
      <trkpt lat="43.29166989773512" lon="-6.674263067543507">
        <ele>1150.2</ele>
        <time>2017-08-06T08:34:44.000Z</time>
      </trkpt>
      <trkpt lat="43.29159697517753" lon="-6.674293577671051">
        <ele>1150.6</ele>
        <time>2017-08-06T08:34:51.000Z</time>
      </trkpt>
      <trkpt lat="43.29153603874147" lon="-6.674307072535157">
        <ele>1151.2</ele>
        <time>2017-08-06T08:34:56.000Z</time>
      </trkpt>
      <trkpt lat="43.29150192439556" lon="-6.6743214055895805">
        <ele>1151.6</ele>
        <time>2017-08-06T08:34:59.000Z</time>
      </trkpt>
      <trkpt lat="43.29148323275149" lon="-6.674328865483403">
        <ele>1151.6</ele>
        <time>2017-08-06T08:35:01.000Z</time>
      </trkpt>
      <trkpt lat="43.29140352085233" lon="-6.674369601532817">
        <ele>1152.2</ele>
        <time>2017-08-06T08:35:08.000Z</time>
      </trkpt>
      <trkpt lat="43.29138323664665" lon="-6.6743924003094435">
        <ele>1152.6</ele>
        <time>2017-08-06T08:35:10.000Z</time>
      </trkpt>
      <trkpt lat="43.291355492547154" lon="-6.674405559897423">
        <ele>1152.8</ele>
        <time>2017-08-06T08:35:13.000Z</time>
      </trkpt>
      <trkpt lat="43.291320288553834" lon="-6.674420731142163">
        <ele>1153</ele>
        <time>2017-08-06T08:35:16.000Z</time>
      </trkpt>
      <trkpt lat="43.29130000434816" lon="-6.674425844103098">
        <ele>1153.2</ele>
        <time>2017-08-06T08:35:18.000Z</time>
      </trkpt>
      <trkpt lat="43.291223058477044" lon="-6.674460209906101">
        <ele>1154.4</ele>
        <time>2017-08-06T08:35:25.000Z</time>
      </trkpt>
      <trkpt lat="43.29118869267404" lon="-6.6744716092944145">
        <ele>1154.8</ele>
        <time>2017-08-06T08:35:28.000Z</time>
      </trkpt>
      <trkpt lat="43.291156170889735" lon="-6.674488205462694">
        <ele>1155.2</ele>
        <time>2017-08-06T08:35:31.000Z</time>
      </trkpt>
      <trkpt lat="43.291145944967866" lon="-6.674493150785565">
        <ele>1155.4</ele>
        <time>2017-08-06T08:35:32.000Z</time>
      </trkpt>
      <trkpt lat="43.29113454557955" lon="-6.674493737518787">
        <ele>1155.4</ele>
        <time>2017-08-06T08:35:33.000Z</time>
      </trkpt>
      <trkpt lat="43.29107905738056" lon="-6.674511758610606">
        <ele>1156</ele>
        <time>2017-08-06T08:35:38.000Z</time>
      </trkpt>
      <trkpt lat="43.29103756695986" lon="-6.674537155777216">
        <ele>1156.4</ele>
        <time>2017-08-06T08:35:42.000Z</time>
      </trkpt>
      <trkpt lat="43.291017869487405" lon="-6.6745558474212885">
        <ele>1156.4</ele>
        <time>2017-08-06T08:35:44.000Z</time>
      </trkpt>
      <trkpt lat="43.29093463718891" lon="-6.674618795514107">
        <ele>1157</ele>
        <time>2017-08-06T08:35:53.000Z</time>
      </trkpt>
      <trkpt lat="43.290887949988246" lon="-6.6746562626212835">
        <ele>1157.2</ele>
        <time>2017-08-06T08:35:58.000Z</time>
      </trkpt>
      <trkpt lat="43.29080798663199" lon="-6.674705883488059">
        <ele>1157.4</ele>
        <time>2017-08-06T08:36:05.000Z</time>
      </trkpt>
      <trkpt lat="43.290741937235" lon="-6.674753241240978">
        <ele>1157.8</ele>
        <time>2017-08-06T08:36:11.000Z</time>
      </trkpt>
      <trkpt lat="43.2906711101532" lon="-6.67480462230742">
        <ele>1158.4</ele>
        <time>2017-08-06T08:36:18.000Z</time>
      </trkpt>
      <trkpt lat="43.290577651932836" lon="-6.67486572638154">
        <ele>1159</ele>
        <time>2017-08-06T08:36:27.000Z</time>
      </trkpt>
      <trkpt lat="43.29052803106606" lon="-6.674906881526113">
        <ele>1159.4</ele>
        <time>2017-08-06T08:36:32.000Z</time>
      </trkpt>
      <trkpt lat="43.290493078529835" lon="-6.674927249550819">
        <ele>1159.6</ele>
        <time>2017-08-06T08:36:35.000Z</time>
      </trkpt>
      <trkpt lat="43.290421329438686" lon="-6.674984078854322">
        <ele>1160.4</ele>
        <time>2017-08-06T08:36:42.000Z</time>
      </trkpt>
      <trkpt lat="43.29034429974854" lon="-6.675044093281031">
        <ele>1161</ele>
        <time>2017-08-06T08:36:50.000Z</time>
      </trkpt>
      <trkpt lat="43.29027640633285" lon="-6.675083991140127">
        <ele>1161.2</ele>
        <time>2017-08-06T08:36:57.000Z</time>
      </trkpt>
      <trkpt lat="43.29019543714821" lon="-6.675133612006903">
        <ele>1161.4</ele>
        <time>2017-08-06T08:37:05.000Z</time>
      </trkpt>
      <trkpt lat="43.29013416543603" lon="-6.675166636705399">
        <ele>1161.4</ele>
        <time>2017-08-06T08:37:11.000Z</time>
      </trkpt>
      <trkpt lat="43.29008521512151" lon="-6.675198236480355">
        <ele>1161.6</ele>
        <time>2017-08-06T08:37:16.000Z</time>
      </trkpt>
      <trkpt lat="43.290057722479105" lon="-6.675225896760821">
        <ele>1161.6</ele>
        <time>2017-08-06T08:37:20.000Z</time>
      </trkpt>
      <trkpt lat="43.29001899808645" lon="-6.675247270613909">
        <ele>1161.8</ele>
        <time>2017-08-06T08:37:24.000Z</time>
      </trkpt>
      <trkpt lat="43.290010280907154" lon="-6.675256406888366">
        <ele>1161.8</ele>
        <time>2017-08-06T08:37:25.000Z</time>
      </trkpt>
      <trkpt lat="43.28993333503604" lon="-6.675330251455307">
        <ele>1162.2</ele>
        <time>2017-08-06T08:37:34.000Z</time>
      </trkpt>
      <trkpt lat="43.289905255660415" lon="-6.675349278375506">
        <ele>1162.6</ele>
        <time>2017-08-06T08:37:37.000Z</time>
      </trkpt>
      <trkpt lat="43.28989092260599" lon="-6.675362437963486">
        <ele>1162.8</ele>
        <time>2017-08-06T08:37:39.000Z</time>
      </trkpt>
      <trkpt lat="43.28982847742736" lon="-6.675401329994202">
        <ele>1163.6</ele>
        <time>2017-08-06T08:37:46.000Z</time>
      </trkpt>
      <trkpt lat="43.28979964368045" lon="-6.675421530380845">
        <ele>1164</ele>
        <time>2017-08-06T08:37:49.000Z</time>
      </trkpt>
      <trkpt lat="43.28976192511618" lon="-6.6754458379000425">
        <ele>1164.6</ele>
        <time>2017-08-06T08:37:53.000Z</time>
      </trkpt>
      <trkpt lat="43.289691684767604" lon="-6.67549361474812">
        <ele>1165.6</ele>
        <time>2017-08-06T08:38:00.000Z</time>
      </trkpt>
      <trkpt lat="43.289625300094485" lon="-6.6755312494933605">
        <ele>1166.4</ele>
        <time>2017-08-06T08:38:07.000Z</time>
      </trkpt>
      <trkpt lat="43.289554975926876" lon="-6.675567207857966">
        <ele>1167</ele>
        <time>2017-08-06T08:38:14.000Z</time>
      </trkpt>
      <trkpt lat="43.28948783688247" lon="-6.675605429336429">
        <ele>1167.6</ele>
        <time>2017-08-06T08:38:21.000Z</time>
      </trkpt>
      <trkpt lat="43.2894675526768" lon="-6.675610709935427">
        <ele>1167.8</ele>
        <time>2017-08-06T08:38:23.000Z</time>
      </trkpt>
      <trkpt lat="43.289371663704515" lon="-6.675653709098697">
        <ele>1168.6</ele>
        <time>2017-08-06T08:38:32.000Z</time>
      </trkpt>
      <trkpt lat="43.28930611722171" lon="-6.675697797909379">
        <ele>1169.8</ele>
        <time>2017-08-06T08:38:39.000Z</time>
      </trkpt>
      <trkpt lat="43.289274433627725" lon="-6.675719674676657">
        <ele>1170.4</ele>
        <time>2017-08-06T08:38:43.000Z</time>
      </trkpt>
      <trkpt lat="43.289250042289495" lon="-6.675734259188175">
        <ele>1170.8</ele>
        <time>2017-08-06T08:38:46.000Z</time>
      </trkpt>
      <trkpt lat="43.28923068009317" lon="-6.675751022994518">
        <ele>1171.2</ele>
        <time>2017-08-06T08:38:48.000Z</time>
      </trkpt>
      <trkpt lat="43.289189944043756" lon="-6.675769044086337">
        <ele>1171.8</ele>
        <time>2017-08-06T08:38:52.000Z</time>
      </trkpt>
      <trkpt lat="43.28918030485511" lon="-6.675774659961462">
        <ele>1172</ele>
        <time>2017-08-06T08:38:53.000Z</time>
      </trkpt>
      <trkpt lat="43.2891047000885" lon="-6.675818581134081">
        <ele>1173.4</ele>
        <time>2017-08-06T08:39:01.000Z</time>
      </trkpt>
      <trkpt lat="43.2890269998461" lon="-6.675856718793511">
        <ele>1174.8</ele>
        <time>2017-08-06T08:39:09.000Z</time>
      </trkpt>
      <trkpt lat="43.28893614001572" lon="-6.675902483984828">
        <ele>1176.6</ele>
        <time>2017-08-06T08:39:18.000Z</time>
      </trkpt>
      <trkpt lat="43.28884284943342" lon="-6.675933329388499">
        <ele>1178</ele>
        <time>2017-08-06T08:39:27.000Z</time>
      </trkpt>
      <trkpt lat="43.28874159604311" lon="-6.675967443734407">
        <ele>1179.2</ele>
        <time>2017-08-06T08:39:36.000Z</time>
      </trkpt>
      <trkpt lat="43.288657357916236" lon="-6.676002144813538">
        <ele>1180.4</ele>
        <time>2017-08-06T08:39:44.000Z</time>
      </trkpt>
      <trkpt lat="43.28857412561774" lon="-6.676031900569797">
        <ele>1181.6</ele>
        <time>2017-08-06T08:39:52.000Z</time>
      </trkpt>
      <trkpt lat="43.288481924682856" lon="-6.676066853106022">
        <ele>1182</ele>
        <time>2017-08-06T08:40:01.000Z</time>
      </trkpt>
      <trkpt lat="43.28838595189154" lon="-6.676109516993165">
        <ele>1182</ele>
        <time>2017-08-06T08:40:10.000Z</time>
      </trkpt>
      <trkpt lat="43.28830489888787" lon="-6.676109600812197">
        <ele>1182</ele>
        <time>2017-08-06T08:40:18.000Z</time>
      </trkpt>
      <trkpt lat="43.28827581368387" lon="-6.676096776500344">
        <ele>1182</ele>
        <time>2017-08-06T08:40:21.000Z</time>
      </trkpt>
      <trkpt lat="43.288244884461164" lon="-6.67608730494976">
        <ele>1182</ele>
        <time>2017-08-06T08:40:24.000Z</time>
      </trkpt>
      <trkpt lat="43.28814103268087" lon="-6.676074061542749">
        <ele>1182</ele>
        <time>2017-08-06T08:40:33.000Z</time>
      </trkpt>
      <trkpt lat="43.28803416341543" lon="-6.676074732095003">
        <ele>1182</ele>
        <time>2017-08-06T08:40:43.000Z</time>
      </trkpt>
      <trkpt lat="43.28794598579407" lon="-6.676065847277641">
        <ele>1182.8</ele>
        <time>2017-08-06T08:40:51.000Z</time>
      </trkpt>
      <trkpt lat="43.28785412013531" lon="-6.676062913611531">
        <ele>1184</ele>
        <time>2017-08-06T08:40:59.000Z</time>
      </trkpt>
      <trkpt lat="43.28779133968055" lon="-6.676083113998175">
        <ele>1185</ele>
        <time>2017-08-06T08:41:05.000Z</time>
      </trkpt>
      <trkpt lat="43.287780191749334" lon="-6.676082778722048">
        <ele>1185.2</ele>
        <time>2017-08-06T08:41:06.000Z</time>
      </trkpt>
      <trkpt lat="43.28772336244583" lon="-6.6760725528001785">
        <ele>1186</ele>
        <time>2017-08-06T08:41:11.000Z</time>
      </trkpt>
      <trkpt lat="43.28769972547889" lon="-6.676066350191832">
        <ele>1186.2</ele>
        <time>2017-08-06T08:41:13.000Z</time>
      </trkpt>
      <trkpt lat="43.28764800913632" lon="-6.67606383562088">
        <ele>1187</ele>
        <time>2017-08-06T08:41:19.000Z</time>
      </trkpt>
      <trkpt lat="43.28755958005786" lon="-6.676065595820546">
        <ele>1188.2</ele>
        <time>2017-08-06T08:41:27.000Z</time>
      </trkpt>
      <trkpt lat="43.28745153732598" lon="-6.67607163079083">
        <ele>1189.8</ele>
        <time>2017-08-06T08:41:37.000Z</time>
      </trkpt>
      <trkpt lat="43.287326814606786" lon="-6.67608923278749">
        <ele>1191.6</ele>
        <time>2017-08-06T08:41:48.000Z</time>
      </trkpt>
      <trkpt lat="43.2872414868325" lon="-6.676110187545419">
        <ele>1192.8</ele>
        <time>2017-08-06T08:41:56.000Z</time>
      </trkpt>
      <trkpt lat="43.28713218681514" lon="-6.6761373449116945">
        <ele>1194.2</ele>
        <time>2017-08-06T08:42:06.000Z</time>
      </trkpt>
      <trkpt lat="43.287041410803795" lon="-6.676148911938071">
        <ele>1194.8</ele>
        <time>2017-08-06T08:42:14.000Z</time>
      </trkpt>
      <trkpt lat="43.28694879077375" lon="-6.67615570127964">
        <ele>1195.6</ele>
        <time>2017-08-06T08:42:23.000Z</time>
      </trkpt>
      <trkpt lat="43.28686589375138" lon="-6.676140781491995">
        <ele>1196</ele>
        <time>2017-08-06T08:42:31.000Z</time>
      </trkpt>
      <trkpt lat="43.28683488070965" lon="-6.676144553348422">
        <ele>1196</ele>
        <time>2017-08-06T08:42:34.000Z</time>
      </trkpt>
      <trkpt lat="43.28682666644454" lon="-6.676141787320375">
        <ele>1196</ele>
        <time>2017-08-06T08:42:36.000Z</time>
      </trkpt>
      <trkpt lat="43.286823481321335" lon="-6.676141954958439">
        <ele>1196</ele>
        <time>2017-08-06T08:42:37.000Z</time>
      </trkpt>
      <trkpt lat="43.28677671030164" lon="-6.676133992150426">
        <ele>1196</ele>
        <time>2017-08-06T08:42:42.000Z</time>
      </trkpt>
      <trkpt lat="43.286713510751724" lon="-6.67613172903657">
        <ele>1196</ele>
        <time>2017-08-06T08:42:48.000Z</time>
      </trkpt>
      <trkpt lat="43.286690041422844" lon="-6.676136841997504">
        <ele>1196</ele>
        <time>2017-08-06T08:42:50.000Z</time>
      </trkpt>
      <trkpt lat="43.28663128428161" lon="-6.676145978271961">
        <ele>1196</ele>
        <time>2017-08-06T08:42:55.000Z</time>
      </trkpt>
      <trkpt lat="43.286601193249226" lon="-6.676148492842913">
        <ele>1196</ele>
        <time>2017-08-06T08:42:58.000Z</time>
      </trkpt>
      <trkpt lat="43.28649063594639" lon="-6.6761664301157">
        <ele>1194.2</ele>
        <time>2017-08-06T08:43:08.000Z</time>
      </trkpt>
      <trkpt lat="43.28636239282787" lon="-6.676173806190491">
        <ele>1192.2</ele>
        <time>2017-08-06T08:43:19.000Z</time>
      </trkpt>
      <trkpt lat="43.28624680638313" lon="-6.676188390702009">
        <ele>1190.8</ele>
        <time>2017-08-06T08:43:29.000Z</time>
      </trkpt>
      <trkpt lat="43.286154102534056" lon="-6.676226193085313">
        <ele>1189.4</ele>
        <time>2017-08-06T08:43:37.000Z</time>
      </trkpt>
      <trkpt lat="43.28602669760585" lon="-6.676253350451589">
        <ele>1188</ele>
        <time>2017-08-06T08:43:48.000Z</time>
      </trkpt>
      <trkpt lat="43.28595637343824" lon="-6.676254440099001">
        <ele>1188</ele>
        <time>2017-08-06T08:43:54.000Z</time>
      </trkpt>
      <trkpt lat="43.28588018193841" lon="-6.6762427892535925">
        <ele>1187.6</ele>
        <time>2017-08-06T08:44:02.000Z</time>
      </trkpt>
      <trkpt lat="43.285769037902355" lon="-6.676203981041908">
        <ele>1187.4</ele>
        <time>2017-08-06T08:44:12.000Z</time>
      </trkpt>
      <trkpt lat="43.285680608823895" lon="-6.676198532804847">
        <ele>1187.6</ele>
        <time>2017-08-06T08:44:20.000Z</time>
      </trkpt>
      <trkpt lat="43.285601399838924" lon="-6.676223427057266">
        <ele>1187.4</ele>
        <time>2017-08-06T08:44:28.000Z</time>
      </trkpt>
      <trkpt lat="43.28552193939686" lon="-6.6762719582766294">
        <ele>1187</ele>
        <time>2017-08-06T08:44:36.000Z</time>
      </trkpt>
      <trkpt lat="43.28541029244661" lon="-6.676334654912353">
        <ele>1187</ele>
        <time>2017-08-06T08:44:47.000Z</time>
      </trkpt>
      <trkpt lat="43.28532739542425" lon="-6.676400704309344">
        <ele>1187</ele>
        <time>2017-08-06T08:44:56.000Z</time>
      </trkpt>
      <trkpt lat="43.28524843789637" lon="-6.676472704857588">
        <ele>1187</ele>
        <time>2017-08-06T08:45:05.000Z</time>
      </trkpt>
      <trkpt lat="43.28521516174078" lon="-6.676509752869606">
        <ele>1187</ele>
        <time>2017-08-06T08:45:10.000Z</time>
      </trkpt>
      <trkpt lat="43.285197308287024" lon="-6.676524421200156">
        <ele>1187.2</ele>
        <time>2017-08-06T08:45:12.000Z</time>
      </trkpt>
      <trkpt lat="43.28512220643461" lon="-6.676587117835879">
        <ele>1187.6</ele>
        <time>2017-08-06T08:45:21.000Z</time>
      </trkpt>
      <trkpt lat="43.28502715565264" lon="-6.676658950746059">
        <ele>1188.4</ele>
        <time>2017-08-06T08:45:31.000Z</time>
      </trkpt>
      <trkpt lat="43.284966722130775" lon="-6.676700105890632">
        <ele>1188.8</ele>
        <time>2017-08-06T08:45:37.000Z</time>
      </trkpt>
      <trkpt lat="43.284884579479694" lon="-6.676753666251898">
        <ele>1189</ele>
        <time>2017-08-06T08:45:45.000Z</time>
      </trkpt>
      <trkpt lat="43.28480243682861" lon="-6.676805969327688">
        <ele>1188.8</ele>
        <time>2017-08-06T08:45:53.000Z</time>
      </trkpt>
      <trkpt lat="43.28473730944097" lon="-6.67684318497777">
        <ele>1188.8</ele>
        <time>2017-08-06T08:46:00.000Z</time>
      </trkpt>
      <trkpt lat="43.2846459466964" lon="-6.6769021935760975">
        <ele>1188.4</ele>
        <time>2017-08-06T08:46:09.000Z</time>
      </trkpt>
      <trkpt lat="43.28457939438522" lon="-6.676938738673925">
        <ele>1187.4</ele>
        <time>2017-08-06T08:46:16.000Z</time>
      </trkpt>
      <trkpt lat="43.28450320288539" lon="-6.676982995122671">
        <ele>1186.4</ele>
        <time>2017-08-06T08:46:24.000Z</time>
      </trkpt>
      <trkpt lat="43.28442323952913" lon="-6.677018785849214">
        <ele>1185.2</ele>
        <time>2017-08-06T08:46:32.000Z</time>
      </trkpt>
      <trkpt lat="43.28432399779558" lon="-6.677055833861232">
        <ele>1184.6</ele>
        <time>2017-08-06T08:46:42.000Z</time>
      </trkpt>
      <trkpt lat="43.284254763275385" lon="-6.677087936550379">
        <ele>1184</ele>
        <time>2017-08-06T08:46:49.000Z</time>
      </trkpt>
      <trkpt lat="43.28418552875519" lon="-6.677120290696621">
        <ele>1183.4</ele>
        <time>2017-08-06T08:46:56.000Z</time>
      </trkpt>
      <trkpt lat="43.284114953130484" lon="-6.677146190777421">
        <ele>1182.6</ele>
        <time>2017-08-06T08:47:03.000Z</time>
      </trkpt>
      <trkpt lat="43.28410875052214" lon="-6.6771487053483725">
        <ele>1182.6</ele>
        <time>2017-08-06T08:47:05.000Z</time>
      </trkpt>
      <trkpt lat="43.28405175358057" lon="-6.677178712561727">
        <ele>1182.2</ele>
        <time>2017-08-06T08:47:11.000Z</time>
      </trkpt>
      <trkpt lat="43.284005569294095" lon="-6.6771969851106405">
        <ele>1182</ele>
        <time>2017-08-06T08:47:16.000Z</time>
      </trkpt>
      <trkpt lat="43.2839844468981" lon="-6.677200589329004">
        <ele>1181.8</ele>
        <time>2017-08-06T08:47:18.000Z</time>
      </trkpt>
      <trkpt lat="43.28396617434919" lon="-6.6772084683179855">
        <ele>1181.8</ele>
        <time>2017-08-06T08:47:20.000Z</time>
      </trkpt>
      <trkpt lat="43.28391588293016" lon="-6.677222885191441">
        <ele>1181.4</ele>
        <time>2017-08-06T08:47:25.000Z</time>
      </trkpt>
      <trkpt lat="43.28389476053417" lon="-6.677231602370739">
        <ele>1181.4</ele>
        <time>2017-08-06T08:47:27.000Z</time>
      </trkpt>
      <trkpt lat="43.28379174694419" lon="-6.677272841334343">
        <ele>1180.4</ele>
        <time>2017-08-06T08:47:37.000Z</time>
      </trkpt>
      <trkpt lat="43.283701222389936" lon="-6.677320282906294">
        <ele>1179</ele>
        <time>2017-08-06T08:47:46.000Z</time>
      </trkpt>
      <trkpt lat="43.283634670078754" lon="-6.677350625395775">
        <ele>1178</ele>
        <time>2017-08-06T08:47:53.000Z</time>
      </trkpt>
      <trkpt lat="43.283523777499795" lon="-6.677402425557375">
        <ele>1176.8</ele>
        <time>2017-08-06T08:48:04.000Z</time>
      </trkpt>
      <trkpt lat="43.28345823101699" lon="-6.677430672571063">
        <ele>1176.8</ele>
        <time>2017-08-06T08:48:11.000Z</time>
      </trkpt>
      <trkpt lat="43.283451441675425" lon="-6.6774373780936">
        <ele>1176.8</ele>
        <time>2017-08-06T08:48:12.000Z</time>
      </trkpt>
      <trkpt lat="43.283424619585276" lon="-6.677455985918641">
        <ele>1176.8</ele>
        <time>2017-08-06T08:48:16.000Z</time>
      </trkpt>
      <trkpt lat="43.28339452855289" lon="-6.6774720791727304">
        <ele>1176.8</ele>
        <time>2017-08-06T08:48:20.000Z</time>
      </trkpt>
      <trkpt lat="43.28338145278394" lon="-6.677481885999441">
        <ele>1177</ele>
        <time>2017-08-06T08:48:22.000Z</time>
      </trkpt>
      <trkpt lat="43.28337248414755" lon="-6.6774841491132975">
        <ele>1176.8</ele>
        <time>2017-08-06T08:48:23.000Z</time>
      </trkpt>
      <trkpt lat="43.28337248414755" lon="-6.6774841491132975">
        <ele>1176.8</ele>
        <time>2017-08-06T08:48:23.000Z</time>
      </trkpt>
      <trkpt lat="43.283323450013995" lon="-6.677495213225484">
        <ele>1176.8</ele>
        <time>2017-08-06T08:48:28.000Z</time>
      </trkpt>
      <trkpt lat="43.28329453244805" lon="-6.6775094624608755">
        <ele>1176.8</ele>
        <time>2017-08-06T08:48:31.000Z</time>
      </trkpt>
      <trkpt lat="43.283226722851396" lon="-6.677529327571392">
        <ele>1177.2</ele>
        <time>2017-08-06T08:48:37.000Z</time>
      </trkpt>
      <trkpt lat="43.28312563709915" lon="-6.677553551271558">
        <ele>1178</ele>
        <time>2017-08-06T08:48:46.000Z</time>
      </trkpt>
      <trkpt lat="43.28302547335625" lon="-6.677544834092259">
        <ele>1178.8</ele>
        <time>2017-08-06T08:48:55.000Z</time>
      </trkpt>
      <trkpt lat="43.28296596184373" lon="-6.677535278722644">
        <ele>1178.6</ele>
        <time>2017-08-06T08:49:01.000Z</time>
      </trkpt>
      <trkpt lat="43.282868899405" lon="-6.677525723353028">
        <ele>1178</ele>
        <time>2017-08-06T08:49:10.000Z</time>
      </trkpt>
      <trkpt lat="43.2827948872" lon="-6.677506780251861">
        <ele>1177.4</ele>
        <time>2017-08-06T08:49:17.000Z</time>
      </trkpt>
      <trkpt lat="43.282756078988314" lon="-6.677505606785417">
        <ele>1177.2</ele>
        <time>2017-08-06T08:49:21.000Z</time>
      </trkpt>
      <trkpt lat="43.28273428604007" lon="-6.6775112226605415">
        <ele>1177.2</ele>
        <time>2017-08-06T08:49:23.000Z</time>
      </trkpt>
      <trkpt lat="43.28265608288348" lon="-6.677513653412461">
        <ele>1176.4</ele>
        <time>2017-08-06T08:49:30.000Z</time>
      </trkpt>
      <trkpt lat="43.282571006566286" lon="-6.677522957324982">
        <ele>1175.8</ele>
        <time>2017-08-06T08:49:37.000Z</time>
      </trkpt>
      <trkpt lat="43.2824875228107" lon="-6.677538882941008">
        <ele>1175.2</ele>
        <time>2017-08-06T08:49:45.000Z</time>
      </trkpt>
      <trkpt lat="43.28242415562272" lon="-6.677554054185748">
        <ele>1175</ele>
        <time>2017-08-06T08:49:51.000Z</time>
      </trkpt>
      <trkpt lat="43.282385766506195" lon="-6.677570650354028">
        <ele>1175.4</ele>
        <time>2017-08-06T08:49:55.000Z</time>
      </trkpt>
      <trkpt lat="43.28235726803541" lon="-6.6775810439139605">
        <ele>1175.6</ele>
        <time>2017-08-06T08:49:58.000Z</time>
      </trkpt>
      <trkpt lat="43.28233765438199" lon="-6.677589593455195">
        <ele>1175.8</ele>
        <time>2017-08-06T08:50:00.000Z</time>
      </trkpt>
      <trkpt lat="43.282263055443764" lon="-6.67761817574501">
        <ele>1176.2</ele>
        <time>2017-08-06T08:50:08.000Z</time>
      </trkpt>
      <trkpt lat="43.282183511182666" lon="-6.67765237390995">
        <ele>1176.8</ele>
        <time>2017-08-06T08:50:17.000Z</time>
      </trkpt>
      <trkpt lat="43.282122323289514" lon="-6.677682381123304">
        <ele>1177.8</ele>
        <time>2017-08-06T08:50:24.000Z</time>
      </trkpt>
      <trkpt lat="43.28205367550254" lon="-6.677715070545673">
        <ele>1179.2</ele>
        <time>2017-08-06T08:50:32.000Z</time>
      </trkpt>
      <trkpt lat="43.28199282288551" lon="-6.677747257053852">
        <ele>1180.4</ele>
        <time>2017-08-06T08:50:39.000Z</time>
      </trkpt>
      <trkpt lat="43.281928868964314" lon="-6.677783131599426">
        <ele>1181.8</ele>
        <time>2017-08-06T08:50:46.000Z</time>
      </trkpt>
      <trkpt lat="43.28187044709921" lon="-6.677822191268206">
        <ele>1183</ele>
        <time>2017-08-06T08:50:52.000Z</time>
      </trkpt>
      <trkpt lat="43.281851671636105" lon="-6.6778334230184555">
        <ele>1183.4</ele>
        <time>2017-08-06T08:50:54.000Z</time>
      </trkpt>
      <trkpt lat="43.28176843933761" lon="-6.677892850711942">
        <ele>1185</ele>
        <time>2017-08-06T08:51:03.000Z</time>
      </trkpt>
      <trkpt lat="43.28170649707317" lon="-6.677934676408768">
        <ele>1186.2</ele>
        <time>2017-08-06T08:51:10.000Z</time>
      </trkpt>
      <trkpt lat="43.28162075020373" lon="-6.677995529025793">
        <ele>1188</ele>
        <time>2017-08-06T08:51:20.000Z</time>
      </trkpt>
      <trkpt lat="43.2815635856241" lon="-6.6780248656868935">
        <ele>1188.8</ele>
        <time>2017-08-06T08:51:27.000Z</time>
      </trkpt>
      <trkpt lat="43.2815564610064" lon="-6.678025955334306">
        <ele>1189</ele>
        <time>2017-08-06T08:51:28.000Z</time>
      </trkpt>
      <trkpt lat="43.281489070504904" lon="-6.678019165992737">
        <ele>1189.2</ele>
        <time>2017-08-06T08:51:35.000Z</time>
      </trkpt>
      <trkpt lat="43.281450010836124" lon="-6.678013131022453">
        <ele>1189.4</ele>
        <time>2017-08-06T08:51:39.000Z</time>
      </trkpt>
      <trkpt lat="43.281420757994056" lon="-6.678001563996077">
        <ele>1189.6</ele>
        <time>2017-08-06T08:51:42.000Z</time>
      </trkpt>
      <trkpt lat="43.2813838776201" lon="-6.677987482398748">
        <ele>1189.8</ele>
        <time>2017-08-06T08:51:46.000Z</time>
      </trkpt>
      <trkpt lat="43.281352864578366" lon="-6.677982704713941">
        <ele>1190</ele>
        <time>2017-08-06T08:51:49.000Z</time>
      </trkpt>
      <trkpt lat="43.28125546686351" lon="-6.677956050261855">
        <ele>1190.4</ele>
        <time>2017-08-06T08:51:59.000Z</time>
      </trkpt>
      <trkpt lat="43.28119017183781" lon="-6.677917409688234">
        <ele>1190.2</ele>
        <time>2017-08-06T08:52:06.000Z</time>
      </trkpt>
      <trkpt lat="43.281135186553" lon="-6.6778873186558485">
        <ele>1190.2</ele>
        <time>2017-08-06T08:52:12.000Z</time>
      </trkpt>
      <trkpt lat="43.281117836013436" lon="-6.677872650325298">
        <ele>1190.2</ele>
        <time>2017-08-06T08:52:14.000Z</time>
      </trkpt>
      <trkpt lat="43.28103242442012" lon="-6.677832081913948">
        <ele>1190.2</ele>
        <time>2017-08-06T08:52:22.000Z</time>
      </trkpt>
      <trkpt lat="43.280970649793744" lon="-6.677794866263866">
        <ele>1190</ele>
        <time>2017-08-06T08:52:30.000Z</time>
      </trkpt>
      <trkpt lat="43.280924716964364" lon="-6.677773157134652">
        <ele>1190</ele>
        <time>2017-08-06T08:52:35.000Z</time>
      </trkpt>
      <trkpt lat="43.280917927622795" lon="-6.677769720554352">
        <ele>1190</ele>
        <time>2017-08-06T08:52:36.000Z</time>
      </trkpt>
      <trkpt lat="43.28084148466587" lon="-6.677718171849847">
        <ele>1189.6</ele>
        <time>2017-08-06T08:52:44.000Z</time>
      </trkpt>
      <trkpt lat="43.28073897399008" lon="-6.677651284262538">
        <ele>1189.2</ele>
        <time>2017-08-06T08:52:54.000Z</time>
      </trkpt>
      <trkpt lat="43.280662363395095" lon="-6.677594957873225">
        <ele>1189.8</ele>
        <time>2017-08-06T08:53:02.000Z</time>
      </trkpt>
      <trkpt lat="43.28059555962682" lon="-6.677538380026817">
        <ele>1190.8</ele>
        <time>2017-08-06T08:53:09.000Z</time>
      </trkpt>
      <trkpt lat="43.280516266822815" lon="-6.677474258467555">
        <ele>1191.2</ele>
        <time>2017-08-06T08:53:17.000Z</time>
      </trkpt>
      <trkpt lat="43.280455246567726" lon="-6.677427403628826">
        <ele>1191</ele>
        <time>2017-08-06T08:53:24.000Z</time>
      </trkpt>
      <trkpt lat="43.280380479991436" lon="-6.6773878410458565">
        <ele>1191</ele>
        <time>2017-08-06T08:53:32.000Z</time>
      </trkpt>
      <trkpt lat="43.28026573173702" lon="-6.677361102774739">
        <ele>1193.4</ele>
        <time>2017-08-06T08:53:42.000Z</time>
      </trkpt>
      <trkpt lat="43.28019825741649" lon="-6.677351798862219">
        <ele>1194.6</ele>
        <time>2017-08-06T08:53:48.000Z</time>
      </trkpt>
      <trkpt lat="43.28008661046624" lon="-6.6773303411901">
        <ele>1195.2</ele>
        <time>2017-08-06T08:53:58.000Z</time>
      </trkpt>
      <trkpt lat="43.28000622801483" lon="-6.677315505221486">
        <ele>1196</ele>
        <time>2017-08-06T08:54:05.000Z</time>
      </trkpt>
      <trkpt lat="43.2799334730953" lon="-6.677319696173072">
        <ele>1196.8</ele>
        <time>2017-08-06T08:54:11.000Z</time>
      </trkpt>
      <trkpt lat="43.279910925775766" lon="-6.677319277077913">
        <ele>1196.8</ele>
        <time>2017-08-06T08:54:13.000Z</time>
      </trkpt>
      <trkpt lat="43.27986381947994" lon="-6.677335202693939">
        <ele>1197</ele>
        <time>2017-08-06T08:54:17.000Z</time>
      </trkpt>
      <trkpt lat="43.279717890545726" lon="-6.67737677693367">
        <ele>1197</ele>
        <time>2017-08-06T08:54:29.000Z</time>
      </trkpt>
      <trkpt lat="43.27962434850633" lon="-6.6774004977196455">
        <ele>1196.8</ele>
        <time>2017-08-06T08:54:37.000Z</time>
      </trkpt>
      <trkpt lat="43.279532231390476" lon="-6.677426733076572">
        <ele>1196.6</ele>
        <time>2017-08-06T08:54:45.000Z</time>
      </trkpt>
      <trkpt lat="43.27942720614374" lon="-6.677462439984083">
        <ele>1196.2</ele>
        <time>2017-08-06T08:54:54.000Z</time>
      </trkpt>
      <trkpt lat="43.279392421245575" lon="-6.677471911534667">
        <ele>1196.2</ele>
        <time>2017-08-06T08:54:57.000Z</time>
      </trkpt>
      <trkpt lat="43.27934422530234" lon="-6.677486998960376">
        <ele>1195.8</ele>
        <time>2017-08-06T08:55:01.000Z</time>
      </trkpt>
      <trkpt lat="43.27933307737112" lon="-6.677492950111628">
        <ele>1195.6</ele>
        <time>2017-08-06T08:55:02.000Z</time>
      </trkpt>
      <trkpt lat="43.279254119843245" lon="-6.677520107477903">
        <ele>1195</ele>
        <time>2017-08-06T08:55:09.000Z</time>
      </trkpt>
      <trkpt lat="43.279149094596505" lon="-6.677556904032826">
        <ele>1194</ele>
        <time>2017-08-06T08:55:18.000Z</time>
      </trkpt>
      <trkpt lat="43.279030825942755" lon="-6.677588755264878">
        <ele>1192.2</ele>
        <time>2017-08-06T08:55:28.000Z</time>
      </trkpt>
      <trkpt lat="43.2789249625057" lon="-6.677624126896262">
        <ele>1190.8</ele>
        <time>2017-08-06T08:55:37.000Z</time>
      </trkpt>
      <trkpt lat="43.278845166787505" lon="-6.677664024755359">
        <ele>1189.8</ele>
        <time>2017-08-06T08:55:44.000Z</time>
      </trkpt>
      <trkpt lat="43.27875506132841" lon="-6.677682381123304">
        <ele>1189</ele>
        <time>2017-08-06T08:55:51.000Z</time>
      </trkpt>
      <trkpt lat="43.27868624590337" lon="-6.67768707498908">
        <ele>1188.4</ele>
        <time>2017-08-06T08:55:57.000Z</time>
      </trkpt>
      <trkpt lat="43.278606701642275" lon="-6.677713980898261">
        <ele>1188</ele>
        <time>2017-08-06T08:56:05.000Z</time>
      </trkpt>
      <trkpt lat="43.278597397729754" lon="-6.677717501297593">
        <ele>1188</ele>
        <time>2017-08-06T08:56:06.000Z</time>
      </trkpt>
      <trkpt lat="43.27856948599219" lon="-6.677723620086908">
        <ele>1187.6</ele>
        <time>2017-08-06T08:56:09.000Z</time>
      </trkpt>
      <trkpt lat="43.27856185846031" lon="-6.677731331437826">
        <ele>1187.8</ele>
        <time>2017-08-06T08:56:10.000Z</time>
      </trkpt>
      <trkpt lat="43.278531013056636" lon="-6.677740886807442">
        <ele>1187.4</ele>
        <time>2017-08-06T08:56:13.000Z</time>
      </trkpt>
      <trkpt lat="43.27850838191807" lon="-6.677753794938326">
        <ele>1187.4</ele>
        <time>2017-08-06T08:56:16.000Z</time>
      </trkpt>
      <trkpt lat="43.27845658175647" lon="-6.677777515724301">
        <ele>1187</ele>
        <time>2017-08-06T08:56:21.000Z</time>
      </trkpt>
      <trkpt lat="43.27838642522693" lon="-6.677796710282564">
        <ele>1186.2</ele>
        <time>2017-08-06T08:56:28.000Z</time>
      </trkpt>
      <trkpt lat="43.27828735113144" lon="-6.677855551242828">
        <ele>1186</ele>
        <time>2017-08-06T08:56:38.000Z</time>
      </trkpt>
      <trkpt lat="43.27825742773712" lon="-6.677877679467201">
        <ele>1186</ele>
        <time>2017-08-06T08:56:44.000Z</time>
      </trkpt>
      <trkpt lat="43.27821065671742" lon="-6.677890587598085">
        <ele>1185.2</ele>
        <time>2017-08-06T08:56:49.000Z</time>
      </trkpt>
      <trkpt lat="43.27812432311475" lon="-6.677931407466531">
        <ele>1184.2</ele>
        <time>2017-08-06T08:56:58.000Z</time>
      </trkpt>
      <trkpt lat="43.27804159373045" lon="-6.677979435771704">
        <ele>1183.4</ele>
        <time>2017-08-06T08:57:07.000Z</time>
      </trkpt>
      <trkpt lat="43.277977807447314" lon="-6.6780307330191135">
        <ele>1183.2</ele>
        <time>2017-08-06T08:57:15.000Z</time>
      </trkpt>
      <trkpt lat="43.2778802420944" lon="-6.678077923133969">
        <ele>1182.6</ele>
        <time>2017-08-06T08:57:24.000Z</time>
      </trkpt>
      <trkpt lat="43.27777965925634" lon="-6.678111031651497">
        <ele>1181.6</ele>
        <time>2017-08-06T08:57:33.000Z</time>
      </trkpt>
      <trkpt lat="43.27768192626536" lon="-6.678153527900577">
        <ele>1180.6</ele>
        <time>2017-08-06T08:57:42.000Z</time>
      </trkpt>
      <trkpt lat="43.27758218161762" lon="-6.6781785897910595">
        <ele>1179.4</ele>
        <time>2017-08-06T08:57:51.000Z</time>
      </trkpt>
      <trkpt lat="43.27747732400894" lon="-6.678186720237136">
        <ele>1177.8</ele>
        <time>2017-08-06T08:58:00.000Z</time>
      </trkpt>
      <trkpt lat="43.27738537453115" lon="-6.678216308355331">
        <ele>1176.8</ele>
        <time>2017-08-06T08:58:09.000Z</time>
      </trkpt>
      <trkpt lat="43.27731119468808" lon="-6.678228629752994">
        <ele>1175.8</ele>
        <time>2017-08-06T08:58:16.000Z</time>
      </trkpt>
      <trkpt lat="43.27722318470478" lon="-6.678244387730956">
        <ele>1175.2</ele>
        <time>2017-08-06T08:58:24.000Z</time>
      </trkpt>
      <trkpt lat="43.27711966820061" lon="-6.678258972242475">
        <ele>1174.2</ele>
        <time>2017-08-06T08:58:33.000Z</time>
      </trkpt>
      <trkpt lat="43.27701992355287" lon="-6.6782686952501535">
        <ele>1173</ele>
        <time>2017-08-06T08:58:42.000Z</time>
      </trkpt>
      <trkpt lat="43.27693300321698" lon="-6.678280597552657">
        <ele>1171.8</ele>
        <time>2017-08-06T08:58:50.000Z</time>
      </trkpt>
      <trkpt lat="43.27682848088443" lon="-6.678298702463508">
        <ele>1170.6</ele>
        <time>2017-08-06T08:58:59.000Z</time>
      </trkpt>
      <trkpt lat="43.27672345563769" lon="-6.678317142650485">
        <ele>1169</ele>
        <time>2017-08-06T08:59:08.000Z</time>
      </trkpt>
      <trkpt lat="43.2766262255609" lon="-6.6783323138952255">
        <ele>1167.6</ele>
        <time>2017-08-06T08:59:16.000Z</time>
      </trkpt>
      <trkpt lat="43.276532934978604" lon="-6.678354609757662">
        <ele>1167.4</ele>
        <time>2017-08-06T08:59:24.000Z</time>
      </trkpt>
      <trkpt lat="43.27643453143537" lon="-6.6783729661256075">
        <ele>1167.2</ele>
        <time>2017-08-06T08:59:32.000Z</time>
      </trkpt>
      <trkpt lat="43.276322381570935" lon="-6.678385538980365">
        <ele>1167</ele>
        <time>2017-08-06T08:59:41.000Z</time>
      </trkpt>
      <trkpt lat="43.27622146345675" lon="-6.678404565900564">
        <ele>1167.4</ele>
        <time>2017-08-06T08:59:49.000Z</time>
      </trkpt>
      <trkpt lat="43.27610235661268" lon="-6.678431136533618">
        <ele>1167.6</ele>
        <time>2017-08-06T08:59:59.000Z</time>
      </trkpt>
      <trkpt lat="43.27597847208381" lon="-6.678448570892215">
        <ele>1167.6</ele>
        <time>2017-08-06T09:00:09.000Z</time>
      </trkpt>
      <trkpt lat="43.275862131267786" lon="-6.678472543135285">
        <ele>1167.6</ele>
        <time>2017-08-06T09:00:18.000Z</time>
      </trkpt>
      <trkpt lat="43.27571167610586" lon="-6.678505903109908">
        <ele>1167.4</ele>
        <time>2017-08-06T09:00:29.000Z</time>
      </trkpt>
      <trkpt lat="43.275612937286496" lon="-6.678538592532277">
        <ele>1167.2</ele>
        <time>2017-08-06T09:00:37.000Z</time>
      </trkpt>
      <trkpt lat="43.275514701381326" lon="-6.678576562553644">
        <ele>1167.4</ele>
        <time>2017-08-06T09:00:45.000Z</time>
      </trkpt>
      <trkpt lat="43.27541428618133" lon="-6.678602797910571">
        <ele>1167</ele>
        <time>2017-08-06T09:00:53.000Z</time>
      </trkpt>
      <trkpt lat="43.27532392926514" lon="-6.6786074079573154">
        <ele>1166.4</ele>
        <time>2017-08-06T09:01:00.000Z</time>
      </trkpt>
      <trkpt lat="43.27522904612124" lon="-6.678605563938618">
        <ele>1165.8</ele>
        <time>2017-08-06T09:01:07.000Z</time>
      </trkpt>
      <trkpt lat="43.27510985545814" lon="-6.678614029660821">
        <ele>1165</ele>
        <time>2017-08-06T09:01:16.000Z</time>
      </trkpt>
      <trkpt lat="43.27500181272626" lon="-6.678617130964994">
        <ele>1164.4</ele>
        <time>2017-08-06T09:01:25.000Z</time>
      </trkpt>
      <trkpt lat="43.27489787712693" lon="-6.678630290552974">
        <ele>1163.2</ele>
        <time>2017-08-06T09:01:34.000Z</time>
      </trkpt>
      <trkpt lat="43.274794863536954" lon="-6.678627943620086">
        <ele>1162.2</ele>
        <time>2017-08-06T09:01:43.000Z</time>
      </trkpt>
      <trkpt lat="43.274721102789044" lon="-6.678617047145963">
        <ele>1161.2</ele>
        <time>2017-08-06T09:01:49.000Z</time>
      </trkpt>
      <trkpt lat="43.27469972893596" lon="-6.678620986640453">
        <ele>1161</ele>
        <time>2017-08-06T09:01:51.000Z</time>
      </trkpt>
      <trkpt lat="43.27459612861276" lon="-6.678614867851138">
        <ele>1160.4</ele>
        <time>2017-08-06T09:02:00.000Z</time>
      </trkpt>
      <trkpt lat="43.27450107783079" lon="-6.678592236712575">
        <ele>1160</ele>
        <time>2017-08-06T09:02:08.000Z</time>
      </trkpt>
      <trkpt lat="43.274396136403084" lon="-6.6785576194524765">
        <ele>1159.6</ele>
        <time>2017-08-06T09:02:17.000Z</time>
      </trkpt>
      <trkpt lat="43.274284740909934" lon="-6.678530797362328">
        <ele>1159.2</ele>
        <time>2017-08-06T09:02:26.000Z</time>
      </trkpt>
      <trkpt lat="43.27415909618139" lon="-6.6785255167633295">
        <ele>1158.4</ele>
        <time>2017-08-06T09:02:36.000Z</time>
      </trkpt>
      <trkpt lat="43.27407443895936" lon="-6.678530378267169">
        <ele>1157.6</ele>
        <time>2017-08-06T09:02:43.000Z</time>
      </trkpt>
      <trkpt lat="43.27397678978741" lon="-6.678529204800725">
        <ele>1155.8</ele>
        <time>2017-08-06T09:02:51.000Z</time>
      </trkpt>
      <trkpt lat="43.273880146443844" lon="-6.678521744906902">
        <ele>1154.6</ele>
        <time>2017-08-06T09:02:59.000Z</time>
      </trkpt>
      <trkpt lat="43.27377679757774" lon="-6.678547561168671">
        <ele>1153.2</ele>
        <time>2017-08-06T09:03:08.000Z</time>
      </trkpt>
      <trkpt lat="43.27369758859277" lon="-6.678564827889204">
        <ele>1151.6</ele>
        <time>2017-08-06T09:03:15.000Z</time>
      </trkpt>
      <trkpt lat="43.27358820475638" lon="-6.678579831495881">
        <ele>1149.8</ele>
        <time>2017-08-06T09:03:24.000Z</time>
      </trkpt>
      <trkpt lat="43.273497177287936" lon="-6.678585615009069">
        <ele>1149</ele>
        <time>2017-08-06T09:03:31.000Z</time>
      </trkpt>
      <trkpt lat="43.27338930219412" lon="-6.6785552725195885">
        <ele>1148.8</ele>
        <time>2017-08-06T09:03:40.000Z</time>
      </trkpt>
      <trkpt lat="43.27325929887593" lon="-6.67852652259171">
        <ele>1148</ele>
        <time>2017-08-06T09:03:50.000Z</time>
      </trkpt>
      <trkpt lat="43.27318578958511" lon="-6.6785255167633295">
        <ele>1147.4</ele>
        <time>2017-08-06T09:03:58.000Z</time>
      </trkpt>
      <trkpt lat="43.27314446680248" lon="-6.678529707714915">
        <ele>1147</ele>
        <time>2017-08-06T09:04:03.000Z</time>
      </trkpt>
      <trkpt lat="43.273102305829525" lon="-6.678526606410742">
        <ele>1146.8</ele>
        <time>2017-08-06T09:04:08.000Z</time>
      </trkpt>
      <trkpt lat="43.27299032360315" lon="-6.6785270255059">
        <ele>1146.4</ele>
        <time>2017-08-06T09:04:17.000Z</time>
      </trkpt>
      <trkpt lat="43.27291622757912" lon="-6.678515626117587">
        <ele>1145.6</ele>
        <time>2017-08-06T09:04:23.000Z</time>
      </trkpt>
      <trkpt lat="43.27281472273171" lon="-6.678487630560994">
        <ele>1144.4</ele>
        <time>2017-08-06T09:04:31.000Z</time>
      </trkpt>
      <trkpt lat="43.27271246351302" lon="-6.678477739915252">
        <ele>1143</ele>
        <time>2017-08-06T09:04:39.000Z</time>
      </trkpt>
      <trkpt lat="43.27264364808798" lon="-6.6785437893122435">
        <ele>1143</ele>
        <time>2017-08-06T09:04:46.000Z</time>
      </trkpt>
      <trkpt lat="43.27261724509299" lon="-6.6785661689937115">
        <ele>1143</ele>
        <time>2017-08-06T09:04:49.000Z</time>
      </trkpt>
      <trkpt lat="43.27257860451937" lon="-6.6785593796521425">
        <ele>1143</ele>
        <time>2017-08-06T09:04:52.000Z</time>
      </trkpt>
      <trkpt lat="43.272526217624545" lon="-6.678531803190708">
        <ele>1143</ele>
        <time>2017-08-06T09:04:58.000Z</time>
      </trkpt>
      <trkpt lat="43.27251188457012" lon="-6.6785284504294395">
        <ele>1143</ele>
        <time>2017-08-06T09:04:59.000Z</time>
      </trkpt>
      <trkpt lat="43.27244675718248" lon="-6.678506908938289">
        <ele>1143</ele>
        <time>2017-08-06T09:05:04.000Z</time>
      </trkpt>
      <trkpt lat="43.27241842634976" lon="-6.678502466529608">
        <ele>1143.2</ele>
        <time>2017-08-06T09:05:11.000Z</time>
      </trkpt>
      <trkpt lat="43.27242563478649" lon="-6.678504645824432">
        <ele>1143</ele>
        <time>2017-08-06T09:05:18.000Z</time>
      </trkpt>
      <trkpt lat="43.27245840802789" lon="-6.678486792370677">
        <ele>1143</ele>
        <time>2017-08-06T09:05:21.000Z</time>
      </trkpt>
      <trkpt lat="43.27247357927263" lon="-6.678483607247472">
        <ele>1143</ele>
        <time>2017-08-06T09:05:22.000Z</time>
      </trkpt>
      <trkpt lat="43.272500317543745" lon="-6.6785163804888725">
        <ele>1143</ele>
        <time>2017-08-06T09:05:25.000Z</time>
      </trkpt>
      <trkpt lat="43.272509621456265" lon="-6.678530126810074">
        <ele>1143</ele>
        <time>2017-08-06T09:05:26.000Z</time>
      </trkpt>
      <trkpt lat="43.27256930060685" lon="-6.678594332188368">
        <ele>1143</ele>
        <time>2017-08-06T09:05:31.000Z</time>
      </trkpt>
      <trkpt lat="43.27260224148631" lon="-6.678671194240451">
        <ele>1143</ele>
        <time>2017-08-06T09:05:36.000Z</time>
      </trkpt>
      <trkpt lat="43.272596625611186" lon="-6.678735902532935">
        <ele>1142.4</ele>
        <time>2017-08-06T09:05:39.000Z</time>
      </trkpt>
      <trkpt lat="43.272592686116695" lon="-6.678789127618074">
        <ele>1142</ele>
        <time>2017-08-06T09:05:41.000Z</time>
      </trkpt>
      <trkpt lat="43.272584388032556" lon="-6.678895577788353">
        <ele>1141.6</ele>
        <time>2017-08-06T09:05:47.000Z</time>
      </trkpt>
      <trkpt lat="43.272537952288985" lon="-6.679005129262805">
        <ele>1140.8</ele>
        <time>2017-08-06T09:05:54.000Z</time>
      </trkpt>
      <trkpt lat="43.27248497866094" lon="-6.679128762334585">
        <ele>1139.8</ele>
        <time>2017-08-06T09:06:02.000Z</time>
      </trkpt>
      <trkpt lat="43.27248749323189" lon="-6.679134126752615">
        <ele>1139.8</ele>
        <time>2017-08-06T09:06:08.000Z</time>
      </trkpt>
      <trkpt lat="43.272490594536066" lon="-6.679135886952281">
        <ele>1139.8</ele>
        <time>2017-08-06T09:06:18.000Z</time>
      </trkpt>
      <trkpt lat="43.27250936999917" lon="-6.679132450371981">
        <ele>1139.8</ele>
        <time>2017-08-06T09:06:44.000Z</time>
      </trkpt>
      <trkpt lat="43.27246159315109" lon="-6.679108561947942">
        <ele>1139.8</ele>
        <time>2017-08-06T09:07:15.000Z</time>
      </trkpt>
      <trkpt lat="43.27244541607797" lon="-6.679056761786342">
        <ele>1140.2</ele>
        <time>2017-08-06T09:07:23.000Z</time>
      </trkpt>
      <trkpt lat="43.27244935557246" lon="-6.678941259160638">
        <ele>1141</ele>
        <time>2017-08-06T09:07:31.000Z</time>
      </trkpt>
      <trkpt lat="43.27244625426829" lon="-6.678932961076498">
        <ele>1141</ele>
        <time>2017-08-06T09:07:32.000Z</time>
      </trkpt>
      <trkpt lat="43.2724542170763" lon="-6.678875796496868">
        <ele>1141.4</ele>
        <time>2017-08-06T09:07:37.000Z</time>
      </trkpt>
      <trkpt lat="43.272469975054264" lon="-6.678784182295203">
        <ele>1142.2</ele>
        <time>2017-08-06T09:07:44.000Z</time>
      </trkpt>
      <trkpt lat="43.27247081324458" lon="-6.678776890039444">
        <ele>1142.2</ele>
        <time>2017-08-06T09:07:45.000Z</time>
      </trkpt>
      <trkpt lat="43.27248212881386" lon="-6.678730705752969">
        <ele>1142.4</ele>
        <time>2017-08-06T09:07:48.000Z</time>
      </trkpt>
      <trkpt lat="43.272496461868286" lon="-6.678688880056143">
        <ele>1142.8</ele>
        <time>2017-08-06T09:07:51.000Z</time>
      </trkpt>
      <trkpt lat="43.27251238748431" lon="-6.678631044924259">
        <ele>1143</ele>
        <time>2017-08-06T09:07:57.000Z</time>
      </trkpt>
      <trkpt lat="43.27247760258615" lon="-6.678636074066162">
        <ele>1143</ele>
        <time>2017-08-06T09:08:02.000Z</time>
      </trkpt>
      <trkpt lat="43.27239009551704" lon="-6.678697010502219">
        <ele>1143</ele>
        <time>2017-08-06T09:08:09.000Z</time>
      </trkpt>
      <trkpt lat="43.27231113798916" lon="-6.678772447630763">
        <ele>1143.2</ele>
        <time>2017-08-06T09:08:16.000Z</time>
      </trkpt>
      <trkpt lat="43.27222941443324" lon="-6.678859032690525">
        <ele>1143</ele>
        <time>2017-08-06T09:08:23.000Z</time>
      </trkpt>
      <trkpt lat="43.2721830625087" lon="-6.6789767146110535">
        <ele>1142.4</ele>
        <time>2017-08-06T09:08:30.000Z</time>
      </trkpt>
      <trkpt lat="43.27217669226229" lon="-6.678991047665477">
        <ele>1142.4</ele>
        <time>2017-08-06T09:08:31.000Z</time>
      </trkpt>
      <trkpt lat="43.27218138612807" lon="-6.679009487852454">
        <ele>1142</ele>
        <time>2017-08-06T09:08:36.000Z</time>
      </trkpt>
      <trkpt lat="43.272171411663294" lon="-6.679006721824408">
        <ele>1142.2</ele>
        <time>2017-08-06T09:08:43.000Z</time>
      </trkpt>
      <trkpt lat="43.27215649187565" lon="-6.679003955796361">
        <ele>1142.4</ele>
        <time>2017-08-06T09:08:45.000Z</time>
      </trkpt>
      <trkpt lat="43.272144170477986" lon="-6.6789881978183985">
        <ele>1142.6</ele>
        <time>2017-08-06T09:08:48.000Z</time>
      </trkpt>
      <trkpt lat="43.272094801068306" lon="-6.67895651422441">
        <ele>1143.2</ele>
        <time>2017-08-06T09:08:53.000Z</time>
      </trkpt>
      <trkpt lat="43.272083988413215" lon="-6.678950395435095">
        <ele>1143.4</ele>
        <time>2017-08-06T09:08:54.000Z</time>
      </trkpt>
      <trkpt lat="43.272037552669644" lon="-6.678960621356964">
        <ele>1143.6</ele>
        <time>2017-08-06T09:08:59.000Z</time>
      </trkpt>
      <trkpt lat="43.272042414173484" lon="-6.678941091522574">
        <ele>1143.8</ele>
        <time>2017-08-06T09:09:04.000Z</time>
      </trkpt>
      <trkpt lat="43.27204551547766" lon="-6.678974535316229">
        <ele>1143.2</ele>
        <time>2017-08-06T09:09:09.000Z</time>
      </trkpt>
      <trkpt lat="43.27206814661622" lon="-6.678970595821738">
        <ele>1143.2</ele>
        <time>2017-08-06T09:09:14.000Z</time>
      </trkpt>
      <trkpt lat="43.27205431647599" lon="-6.678951401263475">
        <ele>1143.6</ele>
        <time>2017-08-06T09:09:16.000Z</time>
      </trkpt>
      <trkpt lat="43.27203889377415" lon="-6.678914520889521">
        <ele>1144</ele>
        <time>2017-08-06T09:09:19.000Z</time>
      </trkpt>
      <trkpt lat="43.272063955664635" lon="-6.678941175341606">
        <ele>1143.6</ele>
        <time>2017-08-06T09:09:22.000Z</time>
      </trkpt>
      <trkpt lat="43.27207753434777" lon="-6.678952490910888">
        <ele>1143.4</ele>
        <time>2017-08-06T09:09:23.000Z</time>
      </trkpt>
      <trkpt lat="43.272154899314046" lon="-6.678966321051121">
        <ele>1142.8</ele>
        <time>2017-08-06T09:09:28.000Z</time>
      </trkpt>
      <trkpt lat="43.272178787738085" lon="-6.6789596155285835">
        <ele>1142.6</ele>
        <time>2017-08-06T09:09:29.000Z</time>
      </trkpt>
      <trkpt lat="43.27223930507898" lon="-6.678893817588687">
        <ele>1142.8</ele>
        <time>2017-08-06T09:09:33.000Z</time>
      </trkpt>
      <trkpt lat="43.27224240638316" lon="-6.6789045464247465">
        <ele>1142.6</ele>
        <time>2017-08-06T09:09:35.000Z</time>
      </trkpt>
      <trkpt lat="43.272245759144425" lon="-6.6789239924401045">
        <ele>1142.4</ele>
        <time>2017-08-06T09:09:38.000Z</time>
      </trkpt>
      <trkpt lat="43.27224634587765" lon="-6.678927009925246">
        <ele>1142.4</ele>
        <time>2017-08-06T09:09:43.000Z</time>
      </trkpt>
      <trkpt lat="43.272226732224226" lon="-6.678942264989018">
        <ele>1142.4</ele>
        <time>2017-08-06T09:09:44.000Z</time>
      </trkpt>
      <trkpt lat="43.27215707860887" lon="-6.67900730855763">
        <ele>1142.2</ele>
        <time>2017-08-06T09:09:48.000Z</time>
      </trkpt>
      <trkpt lat="43.2721175160259" lon="-6.679028011858463">
        <ele>1142.2</ele>
        <time>2017-08-06T09:09:52.000Z</time>
      </trkpt>
      <trkpt lat="43.272101925686" lon="-6.679037231951952">
        <ele>1142.2</ele>
        <time>2017-08-06T09:09:53.000Z</time>
      </trkpt>
      <trkpt lat="43.27206906862557" lon="-6.679057767614722">
        <ele>1142</ele>
        <time>2017-08-06T09:09:56.000Z</time>
      </trkpt>
      <trkpt lat="43.27206655405462" lon="-6.679062964394689">
        <ele>1142</ele>
        <time>2017-08-06T09:09:58.000Z</time>
      </trkpt>
      <trkpt lat="43.272048365324736" lon="-6.679057599976659">
        <ele>1142.2</ele>
        <time>2017-08-06T09:10:01.000Z</time>
      </trkpt>
      <trkpt lat="43.27204358763993" lon="-6.679069334641099">
        <ele>1142</ele>
        <time>2017-08-06T09:10:03.000Z</time>
      </trkpt>
      <trkpt lat="43.27206135727465" lon="-6.679075201973319">
        <ele>1141.8</ele>
        <time>2017-08-06T09:10:05.000Z</time>
      </trkpt>
      <trkpt lat="43.27213075943291" lon="-6.679038321599364">
        <ele>1142</ele>
        <time>2017-08-06T09:10:08.000Z</time>
      </trkpt>
      <trkpt lat="43.27214056625962" lon="-6.679027089849114">
        <ele>1142.2</ele>
        <time>2017-08-06T09:10:09.000Z</time>
      </trkpt>
      <trkpt lat="43.27212975360453" lon="-6.679019210860133">
        <ele>1142.2</ele>
        <time>2017-08-06T09:10:12.000Z</time>
      </trkpt>
      <trkpt lat="43.27211215160787" lon="-6.67902885004878">
        <ele>1142.2</ele>
        <time>2017-08-06T09:10:13.000Z</time>
      </trkpt>
      <trkpt lat="43.27207845635712" lon="-6.67901317588985">
        <ele>1142.6</ele>
        <time>2017-08-06T09:10:15.000Z</time>
      </trkpt>
      <trkpt lat="43.27202271670103" lon="-6.679001189768314">
        <ele>1143</ele>
        <time>2017-08-06T09:10:17.000Z</time>
      </trkpt>
      <trkpt lat="43.272029757499695" lon="-6.679010326042771">
        <ele>1142.8</ele>
        <time>2017-08-06T09:10:19.000Z</time>
      </trkpt>
      <trkpt lat="43.272053226828575" lon="-6.679003955796361">
        <ele>1142.8</ele>
        <time>2017-08-06T09:10:21.000Z</time>
      </trkpt>
      <trkpt lat="43.272071247920394" lon="-6.679018456488848">
        <ele>1142.4</ele>
        <time>2017-08-06T09:10:35.000Z</time>
      </trkpt>
      <trkpt lat="43.27205087989569" lon="-6.679038237780333">
        <ele>1142.4</ele>
        <time>2017-08-06T09:10:39.000Z</time>
      </trkpt>
      <trkpt lat="43.272095303982496" lon="-6.679042596369982">
        <ele>1142.2</ele>
        <time>2017-08-06T09:10:44.000Z</time>
      </trkpt>
      <trkpt lat="43.27211416326463" lon="-6.679004039615393">
        <ele>1142.4</ele>
        <time>2017-08-06T09:10:48.000Z</time>
      </trkpt>
      <trkpt lat="43.27214467339218" lon="-6.678974535316229">
        <ele>1142.6</ele>
        <time>2017-08-06T09:10:50.000Z</time>
      </trkpt>
      <trkpt lat="43.2721539773047" lon="-6.678981240838766">
        <ele>1142.6</ele>
        <time>2017-08-06T09:10:55.000Z</time>
      </trkpt>
      <trkpt lat="43.272111900150776" lon="-6.679001525044441">
        <ele>1142.4</ele>
        <time>2017-08-06T09:10:59.000Z</time>
      </trkpt>
      <trkpt lat="43.27209731563926" lon="-6.6790032014250755">
        <ele>1142.6</ele>
        <time>2017-08-06T09:11:01.000Z</time>
      </trkpt>
      <trkpt lat="43.27209614217281" lon="-6.679003871977329">
        <ele>1142.6</ele>
        <time>2017-08-06T09:11:02.000Z</time>
      </trkpt>
      <trkpt lat="43.27209195122123" lon="-6.678962549194694">
        <ele>1143.2</ele>
        <time>2017-08-06T09:11:10.000Z</time>
      </trkpt>
      <trkpt lat="43.272071834653616" lon="-6.678973948583007">
        <ele>1143.2</ele>
        <time>2017-08-06T09:11:18.000Z</time>
      </trkpt>
      <trkpt lat="43.2720673084259" lon="-6.678998675197363">
        <ele>1142.8</ele>
        <time>2017-08-06T09:11:21.000Z</time>
      </trkpt>
      <trkpt lat="43.272057082504034" lon="-6.679025832563639">
        <ele>1142.4</ele>
        <time>2017-08-06T09:11:24.000Z</time>
      </trkpt>
      <trkpt lat="43.272071331739426" lon="-6.679046703502536">
        <ele>1142.2</ele>
        <time>2017-08-06T09:11:41.000Z</time>
      </trkpt>
      <trkpt lat="43.272053645923734" lon="-6.679068328812718">
        <ele>1142</ele>
        <time>2017-08-06T09:11:46.000Z</time>
      </trkpt>
      <trkpt lat="43.27202615328133" lon="-6.679090205579996">
        <ele>1141.8</ele>
        <time>2017-08-06T09:11:47.000Z</time>
      </trkpt>
      <trkpt lat="43.27198650687933" lon="-6.679116105660796">
        <ele>1141.8</ele>
        <time>2017-08-06T09:11:51.000Z</time>
      </trkpt>
      <trkpt lat="43.272020034492016" lon="-6.679075621068478">
        <ele>1142</ele>
        <time>2017-08-06T09:12:02.000Z</time>
      </trkpt>
      <trkpt lat="43.272018525749445" lon="-6.679044859483838">
        <ele>1142.4</ele>
        <time>2017-08-06T09:12:08.000Z</time>
      </trkpt>
      <trkpt lat="43.27202397398651" lon="-6.679024742916226">
        <ele>1142.8</ele>
        <time>2017-08-06T09:12:14.000Z</time>
      </trkpt>
      <trkpt lat="43.27206471003592" lon="-6.679030861705542">
        <ele>1142.4</ele>
        <time>2017-08-06T09:12:25.000Z</time>
      </trkpt>
      <trkpt lat="43.27205305919051" lon="-6.679049050435424">
        <ele>1142.2</ele>
        <time>2017-08-06T09:12:26.000Z</time>
      </trkpt>
      <trkpt lat="43.272043503820896" lon="-6.679061204195023">
        <ele>1142</ele>
        <time>2017-08-06T09:12:29.000Z</time>
      </trkpt>
      <trkpt lat="43.272039061412215" lon="-6.679052151739597">
        <ele>1142.2</ele>
        <time>2017-08-06T09:12:35.000Z</time>
      </trkpt>
      <trkpt lat="43.27206663787365" lon="-6.679038405418396">
        <ele>1142.2</ele>
        <time>2017-08-06T09:12:37.000Z</time>
      </trkpt>
      <trkpt lat="43.27211994677782" lon="-6.679037818685174">
        <ele>1142</ele>
        <time>2017-08-06T09:12:40.000Z</time>
      </trkpt>
      <trkpt lat="43.2721952162683" lon="-6.679044272750616">
        <ele>1141.6</ele>
        <time>2017-08-06T09:12:45.000Z</time>
      </trkpt>
      <trkpt lat="43.27219923958182" lon="-6.6790329571813345">
        <ele>1141.6</ele>
        <time>2017-08-06T09:12:49.000Z</time>
      </trkpt>
      <trkpt lat="43.27216227538884" lon="-6.679042261093855">
        <ele>1141.8</ele>
        <time>2017-08-06T09:12:53.000Z</time>
      </trkpt>
      <trkpt lat="43.272157413885" lon="-6.679035639390349">
        <ele>1142</ele>
        <time>2017-08-06T09:12:54.000Z</time>
      </trkpt>
      <trkpt lat="43.27218339778483" lon="-6.67901904322207">
        <ele>1142</ele>
        <time>2017-08-06T09:12:57.000Z</time>
      </trkpt>
      <trkpt lat="43.27219228260219" lon="-6.679004458710551">
        <ele>1142</ele>
        <time>2017-08-06T09:12:58.000Z</time>
      </trkpt>
      <trkpt lat="43.27217769809067" lon="-6.67900730855763">
        <ele>1142.2</ele>
        <time>2017-08-06T09:13:03.000Z</time>
      </trkpt>
      <trkpt lat="43.27216529287398" lon="-6.679020635783672">
        <ele>1142</ele>
        <time>2017-08-06T09:13:04.000Z</time>
      </trkpt>
      <trkpt lat="43.27213914133608" lon="-6.679046032950282">
        <ele>1142</ele>
        <time>2017-08-06T09:13:08.000Z</time>
      </trkpt>
      <trkpt lat="43.27211894094944" lon="-6.679076878353953">
        <ele>1141.6</ele>
        <time>2017-08-06T09:13:13.000Z</time>
      </trkpt>
      <trkpt lat="43.272145511582494" lon="-6.67905617505312">
        <ele>1141.8</ele>
        <time>2017-08-06T09:13:15.000Z</time>
      </trkpt>
      <trkpt lat="43.272125059738755" lon="-6.679076878353953">
        <ele>1141.6</ele>
        <time>2017-08-06T09:13:21.000Z</time>
      </trkpt>
      <trkpt lat="43.2720916159451" lon="-6.6790915466845036">
        <ele>1141.6</ele>
        <time>2017-08-06T09:13:25.000Z</time>
      </trkpt>
      <trkpt lat="43.27208876609802" lon="-6.679075704887509">
        <ele>1141.8</ele>
        <time>2017-08-06T09:13:30.000Z</time>
      </trkpt>
      <trkpt lat="43.27211441472173" lon="-6.67904787696898">
        <ele>1142</ele>
        <time>2017-08-06T09:13:38.000Z</time>
      </trkpt>
      <trkpt lat="43.27208826318383" lon="-6.679050391539931">
        <ele>1142</ele>
        <time>2017-08-06T09:13:42.000Z</time>
      </trkpt>
      <trkpt lat="43.27213738113642" lon="-6.679038321599364">
        <ele>1142</ele>
        <time>2017-08-06T09:13:48.000Z</time>
      </trkpt>
      <trkpt lat="43.272129418328404" lon="-6.679035555571318">
        <ele>1142</ele>
        <time>2017-08-06T09:13:53.000Z</time>
      </trkpt>
      <trkpt lat="43.27211458235979" lon="-6.679056594148278">
        <ele>1141.8</ele>
        <time>2017-08-06T09:13:55.000Z</time>
      </trkpt>
      <trkpt lat="43.27209245413542" lon="-6.679049637168646">
        <ele>1142</ele>
        <time>2017-08-06T09:13:58.000Z</time>
      </trkpt>
      <trkpt lat="43.272125059738755" lon="-6.67909330688417">
        <ele>1141.4</ele>
        <time>2017-08-06T09:14:08.000Z</time>
      </trkpt>
      <trkpt lat="43.27216814272106" lon="-6.679099258035421">
        <ele>1141.2</ele>
        <time>2017-08-06T09:14:11.000Z</time>
      </trkpt>
      <trkpt lat="43.27217845246196" lon="-6.679094731807709">
        <ele>1141.2</ele>
        <time>2017-08-06T09:14:13.000Z</time>
      </trkpt>
      <trkpt lat="43.27216110192239" lon="-6.679088780656457">
        <ele>1141.4</ele>
        <time>2017-08-06T09:14:15.000Z</time>
      </trkpt>
      <trkpt lat="43.27212489210069" lon="-6.67908794246614">
        <ele>1141.6</ele>
        <time>2017-08-06T09:14:18.000Z</time>
      </trkpt>
      <trkpt lat="43.272068817168474" lon="-6.679145861417055">
        <ele>1141</ele>
        <time>2017-08-06T09:14:24.000Z</time>
      </trkpt>
      <trkpt lat="43.2720794621855" lon="-6.679099006578326">
        <ele>1141.6</ele>
        <time>2017-08-06T09:14:31.000Z</time>
      </trkpt>
      <trkpt lat="43.272081557661295" lon="-6.679125409573317">
        <ele>1141.2</ele>
        <time>2017-08-06T09:14:47.000Z</time>
      </trkpt>
      <trkpt lat="43.27210871502757" lon="-6.679084338247776">
        <ele>1141.6</ele>
        <time>2017-08-06T09:14:52.000Z</time>
      </trkpt>
      <trkpt lat="43.272152384743094" lon="-6.679041171446443">
        <ele>1142</ele>
        <time>2017-08-06T09:14:57.000Z</time>
      </trkpt>
      <trkpt lat="43.27216864563525" lon="-6.679047122597694">
        <ele>1141.8</ele>
        <time>2017-08-06T09:15:02.000Z</time>
      </trkpt>
      <trkpt lat="43.27220996841788" lon="-6.678983336314559">
        <ele>1142.2</ele>
        <time>2017-08-06T09:15:15.000Z</time>
      </trkpt>
      <trkpt lat="43.27221038751304" lon="-6.678975792601705">
        <ele>1142.2</ele>
        <time>2017-08-06T09:15:20.000Z</time>
      </trkpt>
      <trkpt lat="43.27223117463291" lon="-6.6789784748107195">
        <ele>1142</ele>
        <time>2017-08-06T09:15:27.000Z</time>
      </trkpt>
      <trkpt lat="43.272181721404195" lon="-6.678967662155628">
        <ele>1142.6</ele>
        <time>2017-08-06T09:15:33.000Z</time>
      </trkpt>
      <trkpt lat="43.272174345329404" lon="-6.678972439840436">
        <ele>1142.6</ele>
        <time>2017-08-06T09:15:37.000Z</time>
      </trkpt>
      <trkpt lat="43.27218507416546" lon="-6.678989790380001">
        <ele>1142.2</ele>
        <time>2017-08-06T09:15:40.000Z</time>
      </trkpt>
      <trkpt lat="43.27219873666763" lon="-6.678964979946613">
        <ele>1142.4</ele>
        <time>2017-08-06T09:15:45.000Z</time>
      </trkpt>
      <trkpt lat="43.27219580300152" lon="-6.679001608863473">
        <ele>1142</ele>
        <time>2017-08-06T09:15:50.000Z</time>
      </trkpt>
      <trkpt lat="43.27219412662089" lon="-6.679061958566308">
        <ele>1141.4</ele>
        <time>2017-08-06T09:15:53.000Z</time>
      </trkpt>
      <trkpt lat="43.27218591235578" lon="-6.679067155346274">
        <ele>1141.4</ele>
        <time>2017-08-06T09:15:54.000Z</time>
      </trkpt>
      <trkpt lat="43.27217652462423" lon="-6.679052067920566">
        <ele>1141.6</ele>
        <time>2017-08-06T09:15:56.000Z</time>
      </trkpt>
      <trkpt lat="43.27218180522323" lon="-6.6790244076400995">
        <ele>1142</ele>
        <time>2017-08-06T09:16:00.000Z</time>
      </trkpt>
      <trkpt lat="43.272146098315716" lon="-6.679014852270484">
        <ele>1142.2</ele>
        <time>2017-08-06T09:16:06.000Z</time>
      </trkpt>
      <trkpt lat="43.27213947661221" lon="-6.679026670753956">
        <ele>1142.2</ele>
        <time>2017-08-06T09:16:08.000Z</time>
      </trkpt>
      <trkpt lat="43.27212371863425" lon="-6.679040836170316">
        <ele>1142</ele>
        <time>2017-08-06T09:16:09.000Z</time>
      </trkpt>
      <trkpt lat="43.27210284769535" lon="-6.6790724359452724">
        <ele>1141.8</ele>
        <time>2017-08-06T09:16:11.000Z</time>
      </trkpt>
      <trkpt lat="43.272037133574486" lon="-6.67913731187582">
        <ele>1141.2</ele>
        <time>2017-08-06T09:16:17.000Z</time>
      </trkpt>
      <trkpt lat="43.272051801905036" lon="-6.679144017398357">
        <ele>1141.2</ele>
        <time>2017-08-06T09:16:18.000Z</time>
      </trkpt>
      <trkpt lat="43.27207108028233" lon="-6.679126415401697">
        <ele>1141.2</ele>
        <time>2017-08-06T09:16:20.000Z</time>
      </trkpt>
      <trkpt lat="43.27209144830704" lon="-6.679099928587675">
        <ele>1141.6</ele>
        <time>2017-08-06T09:16:22.000Z</time>
      </trkpt>
      <trkpt lat="43.27207795344293" lon="-6.679083416238427">
        <ele>1141.8</ele>
        <time>2017-08-06T09:16:26.000Z</time>
      </trkpt>
      <trkpt lat="43.27200570143759" lon="-6.679126834496856">
        <ele>1141.6</ele>
        <time>2017-08-06T09:16:32.000Z</time>
      </trkpt>
      <trkpt lat="43.27200645580888" lon="-6.6791275050491095">
        <ele>1141.6</ele>
        <time>2017-08-06T09:16:33.000Z</time>
      </trkpt>
      <trkpt lat="43.27200352214277" lon="-6.679131779819727">
        <ele>1141.4</ele>
        <time>2017-08-06T09:16:37.000Z</time>
      </trkpt>
      <trkpt lat="43.27200905419886" lon="-6.679106717929244">
        <ele>1141.8</ele>
        <time>2017-08-06T09:16:51.000Z</time>
      </trkpt>
      <trkpt lat="43.271998995915055" lon="-6.679126499220729">
        <ele>1141.6</ele>
        <time>2017-08-06T09:16:53.000Z</time>
      </trkpt>
      <trkpt lat="43.27203889377415" lon="-6.679158685728908">
        <ele>1141</ele>
        <time>2017-08-06T09:16:55.000Z</time>
      </trkpt>
      <trkpt lat="43.272106032818556" lon="-6.679163882508874">
        <ele>1140.8</ele>
        <time>2017-08-06T09:16:59.000Z</time>
      </trkpt>
      <trkpt lat="43.27210075221956" lon="-6.679167989641428">
        <ele>1140.8</ele>
        <time>2017-08-06T09:17:00.000Z</time>
      </trkpt>
      <trkpt lat="43.272174429148436" lon="-6.67909330688417">
        <ele>1141.2</ele>
        <time>2017-08-06T09:17:05.000Z</time>
      </trkpt>
      <trkpt lat="43.27218641526997" lon="-6.67895408347249">
        <ele>1142.6</ele>
        <time>2017-08-06T09:17:10.000Z</time>
      </trkpt>
      <trkpt lat="43.272161688655615" lon="-6.678998339921236">
        <ele>1142.4</ele>
        <time>2017-08-06T09:17:14.000Z</time>
      </trkpt>
      <trkpt lat="43.27216546051204" lon="-6.679017785936594">
        <ele>1142</ele>
        <time>2017-08-06T09:17:18.000Z</time>
      </trkpt>
      <trkpt lat="43.27215816825628" lon="-6.679037734866142">
        <ele>1142</ele>
        <time>2017-08-06T09:17:19.000Z</time>
      </trkpt>
      <trkpt lat="43.27214970253408" lon="-6.679036896675825">
        <ele>1142</ele>
        <time>2017-08-06T09:17:21.000Z</time>
      </trkpt>
      <trkpt lat="43.27215163037181" lon="-6.679038740694523">
        <ele>1142</ele>
        <time>2017-08-06T09:17:23.000Z</time>
      </trkpt>
      <trkpt lat="43.27213176526129" lon="-6.679009152576327">
        <ele>1142.4</ele>
        <time>2017-08-06T09:17:45.000Z</time>
      </trkpt>
      <trkpt lat="43.27213553711772" lon="-6.679006638005376">
        <ele>1142.4</ele>
        <time>2017-08-06T09:17:52.000Z</time>
      </trkpt>
      <trkpt lat="43.2721381355077" lon="-6.679023485630751">
        <ele>1142.2</ele>
        <time>2017-08-06T09:17:59.000Z</time>
      </trkpt>
      <trkpt lat="43.272138303145766" lon="-6.679063467308879">
        <ele>1141.8</ele>
        <time>2017-08-06T09:18:01.000Z</time>
      </trkpt>
      <trkpt lat="43.27212397009134" lon="-6.679092887789011">
        <ele>1141.4</ele>
        <time>2017-08-06T09:18:04.000Z</time>
      </trkpt>
      <trkpt lat="43.27206211164594" lon="-6.679133623838425">
        <ele>1141.2</ele>
        <time>2017-08-06T09:18:07.000Z</time>
      </trkpt>
      <trkpt lat="43.27203327789903" lon="-6.6791522316634655">
        <ele>1141.2</ele>
        <time>2017-08-06T09:18:08.000Z</time>
      </trkpt>
      <trkpt lat="43.27198013663292" lon="-6.679173270240426">
        <ele>1141.2</ele>
        <time>2017-08-06T09:18:13.000Z</time>
      </trkpt>
      <trkpt lat="43.27200620435178" lon="-6.6791430953890085">
        <ele>1141.4</ele>
        <time>2017-08-06T09:18:16.000Z</time>
      </trkpt>
      <trkpt lat="43.272050293162465" lon="-6.6791068855673075">
        <ele>1141.6</ele>
        <time>2017-08-06T09:18:19.000Z</time>
      </trkpt>
      <trkpt lat="43.27205892652273" lon="-6.679101688787341">
        <ele>1141.6</ele>
        <time>2017-08-06T09:18:21.000Z</time>
      </trkpt>
      <trkpt lat="43.272056998685" lon="-6.679104706272483">
        <ele>1141.6</ele>
        <time>2017-08-06T09:18:24.000Z</time>
      </trkpt>
      <trkpt lat="43.27204450964928" lon="-6.679098000749946">
        <ele>1141.6</ele>
        <time>2017-08-06T09:18:30.000Z</time>
      </trkpt>
      <trkpt lat="43.272080132737756" lon="-6.679096827283502">
        <ele>1141.6</ele>
        <time>2017-08-06T09:18:34.000Z</time>
      </trkpt>
      <trkpt lat="43.27209882438183" lon="-6.67908894829452">
        <ele>1141.6</ele>
        <time>2017-08-06T09:18:36.000Z</time>
      </trkpt>
      <trkpt lat="43.27212573029101" lon="-6.679073860868812">
        <ele>1141.6</ele>
        <time>2017-08-06T09:18:39.000Z</time>
      </trkpt>
      <trkpt lat="43.27213696204126" lon="-6.679072603583336">
        <ele>1141.6</ele>
        <time>2017-08-06T09:18:40.000Z</time>
      </trkpt>
      <trkpt lat="43.272165125235915" lon="-6.679071681573987">
        <ele>1141.6</ele>
        <time>2017-08-06T09:18:44.000Z</time>
      </trkpt>
      <trkpt lat="43.27213989570737" lon="-6.679059695452452">
        <ele>1141.8</ele>
        <time>2017-08-06T09:18:48.000Z</time>
      </trkpt>
      <trkpt lat="43.27211114577949" lon="-6.679062629118562">
        <ele>1141.8</ele>
        <time>2017-08-06T09:18:52.000Z</time>
      </trkpt>
      <trkpt lat="43.27212422154844" lon="-6.679066484794021">
        <ele>1141.8</ele>
        <time>2017-08-06T09:18:57.000Z</time>
      </trkpt>
      <trkpt lat="43.272141236811876" lon="-6.679039662703872">
        <ele>1142</ele>
        <time>2017-08-06T09:19:01.000Z</time>
      </trkpt>
      <trkpt lat="43.2721936237067" lon="-6.678943019360304">
        <ele>1142.8</ele>
        <time>2017-08-06T09:19:10.000Z</time>
      </trkpt>
      <trkpt lat="43.27216973528266" lon="-6.678819302469492">
        <ele>1143.8</ele>
        <time>2017-08-06T09:19:15.000Z</time>
      </trkpt>
      <trkpt lat="43.27217845246196" lon="-6.678797258064151">
        <ele>1143.8</ele>
        <time>2017-08-06T09:19:18.000Z</time>
      </trkpt>
      <trkpt lat="43.272174932062626" lon="-6.678845537826419">
        <ele>1143.6</ele>
        <time>2017-08-06T09:19:20.000Z</time>
      </trkpt>
      <trkpt lat="43.27216814272106" lon="-6.67885878123343">
        <ele>1143.6</ele>
        <time>2017-08-06T09:19:21.000Z</time>
      </trkpt>
      <trkpt lat="43.27215992845595" lon="-6.678856099024415">
        <ele>1143.6</ele>
        <time>2017-08-06T09:19:22.000Z</time>
      </trkpt>
      <trkpt lat="43.272111816331744" lon="-6.678851572796702">
        <ele>1144</ele>
        <time>2017-08-06T09:19:26.000Z</time>
      </trkpt>
      <trkpt lat="43.27206579968333" lon="-6.6788730304688215">
        <ele>1144.2</ele>
        <time>2017-08-06T09:19:32.000Z</time>
      </trkpt>
      <trkpt lat="43.272085497155786" lon="-6.678890632465482">
        <ele>1143.8</ele>
        <time>2017-08-06T09:19:37.000Z</time>
      </trkpt>
      <trkpt lat="43.272080551832914" lon="-6.678883675485849">
        <ele>1144</ele>
        <time>2017-08-06T09:19:43.000Z</time>
      </trkpt>
      <trkpt lat="43.27209094539285" lon="-6.678893733769655">
        <ele>1143.8</ele>
        <time>2017-08-06T09:19:48.000Z</time>
      </trkpt>
      <trkpt lat="43.27209999784827" lon="-6.6788786463439465">
        <ele>1143.8</ele>
        <time>2017-08-06T09:19:49.000Z</time>
      </trkpt>
      <trkpt lat="43.27211986295879" lon="-6.678843777626753">
        <ele>1144</ele>
        <time>2017-08-06T09:19:53.000Z</time>
      </trkpt>
      <trkpt lat="43.27211349271238" lon="-6.678897086530924">
        <ele>1143.6</ele>
        <time>2017-08-06T09:19:58.000Z</time>
      </trkpt>
      <trkpt lat="43.27210661955178" lon="-6.678944528102875">
        <ele>1143.2</ele>
        <time>2017-08-06T09:20:04.000Z</time>
      </trkpt>
      <trkpt lat="43.272106451913714" lon="-6.678963974118233">
        <ele>1143</ele>
        <time>2017-08-06T09:20:09.000Z</time>
      </trkpt>
      <trkpt lat="43.27208876609802" lon="-6.678964141756296">
        <ele>1143.2</ele>
        <time>2017-08-06T09:20:14.000Z</time>
      </trkpt>
      <trkpt lat="43.272065380588174" lon="-6.678969087079167">
        <ele>1143.2</ele>
        <time>2017-08-06T09:20:16.000Z</time>
      </trkpt>
      <trkpt lat="43.272072253748775" lon="-6.678963806480169">
        <ele>1143.2</ele>
        <time>2017-08-06T09:20:18.000Z</time>
      </trkpt>
      <trkpt lat="43.27208616770804" lon="-6.67896774597466">
        <ele>1143.2</ele>
        <time>2017-08-06T09:20:23.000Z</time>
      </trkpt>
      <trkpt lat="43.27210930176079" lon="-6.678996244445443">
        <ele>1142.6</ele>
        <time>2017-08-06T09:20:27.000Z</time>
      </trkpt>
      <trkpt lat="43.27209999784827" lon="-6.679028011858463">
        <ele>1142.2</ele>
        <time>2017-08-06T09:20:32.000Z</time>
      </trkpt>
      <trkpt lat="43.2721140794456" lon="-6.679013594985008">
        <ele>1142.4</ele>
        <time>2017-08-06T09:20:34.000Z</time>
      </trkpt>
      <trkpt lat="43.272124053910375" lon="-6.679012840613723">
        <ele>1142.4</ele>
        <time>2017-08-06T09:20:36.000Z</time>
      </trkpt>
      <trkpt lat="43.27217107638717" lon="-6.678969673812389">
        <ele>1142.6</ele>
        <time>2017-08-06T09:20:42.000Z</time>
      </trkpt>
      <trkpt lat="43.27215062454343" lon="-6.678962716832757">
        <ele>1142.8</ele>
        <time>2017-08-06T09:20:44.000Z</time>
      </trkpt>
      <trkpt lat="43.27215171419084" lon="-6.678924998268485">
        <ele>1143.2</ele>
        <time>2017-08-06T09:20:46.000Z</time>
      </trkpt>
      <trkpt lat="43.27213956043124" lon="-6.678931033238769">
        <ele>1143.2</ele>
        <time>2017-08-06T09:20:51.000Z</time>
      </trkpt>
      <trkpt lat="43.27213587239385" lon="-6.678906222805381">
        <ele>1143.4</ele>
        <time>2017-08-06T09:20:56.000Z</time>
      </trkpt>
      <trkpt lat="43.272120701149106" lon="-6.678950143978">
        <ele>1143.2</ele>
        <time>2017-08-06T09:21:01.000Z</time>
      </trkpt>
      <trkpt lat="43.27209605835378" lon="-6.6789893712848425">
        <ele>1142.8</ele>
        <time>2017-08-06T09:21:05.000Z</time>
      </trkpt>
      <trkpt lat="43.272086922079325" lon="-6.6790014412254095">
        <ele>1142.6</ele>
        <time>2017-08-06T09:21:06.000Z</time>
      </trkpt>
      <trkpt lat="43.27207736670971" lon="-6.679019797593355">
        <ele>1142.4</ele>
        <time>2017-08-06T09:21:09.000Z</time>
      </trkpt>
      <trkpt lat="43.27207460068166" lon="-6.679030945524573">
        <ele>1142.4</ele>
        <time>2017-08-06T09:21:14.000Z</time>
      </trkpt>
      <trkpt lat="43.2721090503037" lon="-6.679048212245107">
        <ele>1142</ele>
        <time>2017-08-06T09:21:21.000Z</time>
      </trkpt>
      <trkpt lat="43.272092370316386" lon="-6.679056342691183">
        <ele>1142</ele>
        <time>2017-08-06T09:21:23.000Z</time>
      </trkpt>
      <trkpt lat="43.272071834653616" lon="-6.679048631340265">
        <ele>1142.2</ele>
        <time>2017-08-06T09:21:25.000Z</time>
      </trkpt>
      <trkpt lat="43.27207066118717" lon="-6.67903907597065">
        <ele>1142.2</ele>
        <time>2017-08-06T09:21:27.000Z</time>
      </trkpt>
      <trkpt lat="43.27235891483724" lon="-6.679441910237074">
        <ele>1137.4</ele>
        <time>2017-08-06T09:36:40.000Z</time>
      </trkpt>
      <trkpt lat="43.272353298962116" lon="-6.679458003491163">
        <ele>1137.2</ele>
        <time>2017-08-06T09:36:41.000Z</time>
      </trkpt>
      <trkpt lat="43.27228934504092" lon="-6.679585911333561">
        <ele>1135</ele>
        <time>2017-08-06T09:36:49.000Z</time>
      </trkpt>
      <trkpt lat="43.27224827371538" lon="-6.679709795862436">
        <ele>1132.6</ele>
        <time>2017-08-06T09:36:56.000Z</time>
      </trkpt>
      <trkpt lat="43.272233018651605" lon="-6.679743658751249">
        <ele>1132.2</ele>
        <time>2017-08-06T09:36:58.000Z</time>
      </trkpt>
      <trkpt lat="43.272189013659954" lon="-6.67978816665709">
        <ele>1131</ele>
        <time>2017-08-06T09:37:02.000Z</time>
      </trkpt>
      <trkpt lat="43.272143164649606" lon="-6.679879110306501">
        <ele>1128.2</ele>
        <time>2017-08-06T09:37:07.000Z</time>
      </trkpt>
      <trkpt lat="43.27210620045662" lon="-6.680002324283123">
        <ele>1125</ele>
        <time>2017-08-06T09:37:14.000Z</time>
      </trkpt>
      <trkpt lat="43.27205264009535" lon="-6.680153282359242">
        <ele>1121.8</ele>
        <time>2017-08-06T09:37:23.000Z</time>
      </trkpt>
      <trkpt lat="43.27202062122524" lon="-6.6802572179585695">
        <ele>1119.8</ele>
        <time>2017-08-06T09:37:31.000Z</time>
      </trkpt>
      <trkpt lat="43.27201190404594" lon="-6.680277418345213">
        <ele>1119.4</ele>
        <time>2017-08-06T09:37:33.000Z</time>
      </trkpt>
      <trkpt lat="43.271984830498695" lon="-6.680341707542539">
        <ele>1118.2</ele>
        <time>2017-08-06T09:37:38.000Z</time>
      </trkpt>
      <trkpt lat="43.271976448595524" lon="-6.680373894050717">
        <ele>1117.6</ele>
        <time>2017-08-06T09:37:40.000Z</time>
      </trkpt>
      <trkpt lat="43.27198265120387" lon="-6.680416138842702">
        <ele>1117</ele>
        <time>2017-08-06T09:37:43.000Z</time>
      </trkpt>
      <trkpt lat="43.271985836327076" lon="-6.680471962317824">
        <ele>1116.4</ele>
        <time>2017-08-06T09:37:47.000Z</time>
      </trkpt>
      <trkpt lat="43.271967228502035" lon="-6.680519320070744">
        <ele>1115.6</ele>
        <time>2017-08-06T09:37:51.000Z</time>
      </trkpt>
      <trkpt lat="43.271950129419565" lon="-6.680559637024999">
        <ele>1114.6</ele>
        <time>2017-08-06T09:37:56.000Z</time>
      </trkpt>
      <trkpt lat="43.2719465252012" lon="-6.68058805167675">
        <ele>1114</ele>
        <time>2017-08-06T09:37:58.000Z</time>
      </trkpt>
      <trkpt lat="43.27194007113576" lon="-6.680648485198617">
        <ele>1112.4</ele>
        <time>2017-08-06T09:38:02.000Z</time>
      </trkpt>
      <trkpt lat="43.27195859514177" lon="-6.6807193122804165">
        <ele>1110.6</ele>
        <time>2017-08-06T09:38:09.000Z</time>
      </trkpt>
      <trkpt lat="43.271953985095024" lon="-6.680801622569561">
        <ele>1108.6</ele>
        <time>2017-08-06T09:38:17.000Z</time>
      </trkpt>
      <trkpt lat="43.27195775695145" lon="-6.68088611215353">
        <ele>1106</ele>
        <time>2017-08-06T09:38:24.000Z</time>
      </trkpt>
      <trkpt lat="43.27194937504828" lon="-6.680927854031324">
        <ele>1104.8</ele>
        <time>2017-08-06T09:38:28.000Z</time>
      </trkpt>
      <trkpt lat="43.27192883938551" lon="-6.680971439927816">
        <ele>1103.6</ele>
        <time>2017-08-06T09:38:32.000Z</time>
      </trkpt>
      <trkpt lat="43.27192297205329" lon="-6.680998848751187">
        <ele>1102.8</ele>
        <time>2017-08-06T09:38:35.000Z</time>
      </trkpt>
      <trkpt lat="43.271919367834926" lon="-6.681023659184575">
        <ele>1102</ele>
        <time>2017-08-06T09:38:37.000Z</time>
      </trkpt>
      <trkpt lat="43.27190377749503" lon="-6.681107562035322">
        <ele>1099.4</ele>
        <time>2017-08-06T09:38:44.000Z</time>
      </trkpt>
      <trkpt lat="43.27190252020955" lon="-6.6811189614236355">
        <ele>1099.2</ele>
        <time>2017-08-06T09:38:45.000Z</time>
      </trkpt>
      <trkpt lat="43.27190947718918" lon="-6.681141424924135">
        <ele>1098.4</ele>
        <time>2017-08-06T09:38:47.000Z</time>
      </trkpt>
      <trkpt lat="43.27191132120788" lon="-6.681173779070377">
        <ele>1097.4</ele>
        <time>2017-08-06T09:38:50.000Z</time>
      </trkpt>
      <trkpt lat="43.2719084713608" lon="-6.681181490421295">
        <ele>1097.2</ele>
        <time>2017-08-06T09:38:51.000Z</time>
      </trkpt>
      <trkpt lat="43.27190017327666" lon="-6.681240918114781">
        <ele>1095.8</ele>
        <time>2017-08-06T09:38:56.000Z</time>
      </trkpt>
      <trkpt lat="43.2718965690583" lon="-6.681254748255014">
        <ele>1095.4</ele>
        <time>2017-08-06T09:38:57.000Z</time>
      </trkpt>
      <trkpt lat="43.271897826343775" lon="-6.681265477091074">
        <ele>1095.2</ele>
        <time>2017-08-06T09:38:58.000Z</time>
      </trkpt>
      <trkpt lat="43.27189547941089" lon="-6.681326413527131">
        <ele>1093.6</ele>
        <time>2017-08-06T09:39:03.000Z</time>
      </trkpt>
      <trkpt lat="43.27188977971673" lon="-6.681348122656345">
        <ele>1093.2</ele>
        <time>2017-08-06T09:39:05.000Z</time>
      </trkpt>
      <trkpt lat="43.27188089489937" lon="-6.681383494287729">
        <ele>1092.4</ele>
        <time>2017-08-06T09:39:08.000Z</time>
      </trkpt>
      <trkpt lat="43.271882152184844" lon="-6.681428086012602">
        <ele>1091.2</ele>
        <time>2017-08-06T09:39:11.000Z</time>
      </trkpt>
      <trkpt lat="43.27187846414745" lon="-6.681458931416273">
        <ele>1090.4</ele>
        <time>2017-08-06T09:39:14.000Z</time>
      </trkpt>
      <trkpt lat="43.27185767702758" lon="-6.681489357724786">
        <ele>1089.8</ele>
        <time>2017-08-06T09:39:17.000Z</time>
      </trkpt>
      <trkpt lat="43.27185197733343" lon="-6.681549372151494">
        <ele>1088</ele>
        <time>2017-08-06T09:39:23.000Z</time>
      </trkpt>
      <trkpt lat="43.271846529096365" lon="-6.681598657742143">
        <ele>1086.4</ele>
        <time>2017-08-06T09:39:27.000Z</time>
      </trkpt>
      <trkpt lat="43.27183295041323" lon="-6.681665545329452">
        <ele>1084.6</ele>
        <time>2017-08-06T09:39:33.000Z</time>
      </trkpt>
      <trkpt lat="43.271822640672326" lon="-6.681695384904742">
        <ele>1083.8</ele>
        <time>2017-08-06T09:39:35.000Z</time>
      </trkpt>
      <trkpt lat="43.27180478721857" lon="-6.681741066277027">
        <ele>1082.6</ele>
        <time>2017-08-06T09:39:39.000Z</time>
      </trkpt>
      <trkpt lat="43.271785005927086" lon="-6.68180619366467">
        <ele>1080.8</ele>
        <time>2017-08-06T09:39:44.000Z</time>
      </trkpt>
      <trkpt lat="43.27176664955914" lon="-6.681890934705734">
        <ele>1078.2</ele>
        <time>2017-08-06T09:39:51.000Z</time>
      </trkpt>
      <trkpt lat="43.27174477279186" lon="-6.681940136477351">
        <ele>1077</ele>
        <time>2017-08-06T09:39:57.000Z</time>
      </trkpt>
      <trkpt lat="43.27174628153443" lon="-6.681970730423927">
        <ele>1075.8</ele>
        <time>2017-08-06T09:39:59.000Z</time>
      </trkpt>
      <trkpt lat="43.27174477279186" lon="-6.681991433724761">
        <ele>1075</ele>
        <time>2017-08-06T09:40:01.000Z</time>
      </trkpt>
      <trkpt lat="43.27172767370939" lon="-6.682059997692704">
        <ele>1073</ele>
        <time>2017-08-06T09:40:07.000Z</time>
      </trkpt>
      <trkpt lat="43.27172121964395" lon="-6.682109953835607">
        <ele>1071.4</ele>
        <time>2017-08-06T09:40:11.000Z</time>
      </trkpt>
      <trkpt lat="43.27171350829303" lon="-6.682128477841616">
        <ele>1070.8</ele>
        <time>2017-08-06T09:40:13.000Z</time>
      </trkpt>
      <trkpt lat="43.27171375975013" lon="-6.682186145335436">
        <ele>1068.8</ele>
        <time>2017-08-06T09:40:19.000Z</time>
      </trkpt>
      <trkpt lat="43.271684758365154" lon="-6.682251272723079">
        <ele>1067.2</ele>
        <time>2017-08-06T09:40:26.000Z</time>
      </trkpt>
      <trkpt lat="43.27165416441858" lon="-6.68232754804194">
        <ele>1065.4</ele>
        <time>2017-08-06T09:40:33.000Z</time>
      </trkpt>
      <trkpt lat="43.27164435759187" lon="-6.682353112846613">
        <ele>1064.6</ele>
        <time>2017-08-06T09:40:36.000Z</time>
      </trkpt>
      <trkpt lat="43.27162248082459" lon="-6.682383120059967">
        <ele>1064</ele>
        <time>2017-08-06T09:40:39.000Z</time>
      </trkpt>
      <trkpt lat="43.27161426655948" lon="-6.682416312396526">
        <ele>1063.2</ele>
        <time>2017-08-06T09:40:42.000Z</time>
      </trkpt>
      <trkpt lat="43.27161468565464" lon="-6.682455874979496">
        <ele>1061.8</ele>
        <time>2017-08-06T09:40:46.000Z</time>
      </trkpt>
      <trkpt lat="43.27161032706499" lon="-6.682468866929412">
        <ele>1061.6</ele>
        <time>2017-08-06T09:40:47.000Z</time>
      </trkpt>
      <trkpt lat="43.271587109193206" lon="-6.6825152188539505">
        <ele>1060.8</ele>
        <time>2017-08-06T09:40:52.000Z</time>
      </trkpt>
      <trkpt lat="43.27157470397651" lon="-6.6825593914836645">
        <ele>1059.8</ele>
        <time>2017-08-06T09:40:59.000Z</time>
      </trkpt>
      <trkpt lat="43.2715720217675" lon="-6.68257674202323">
        <ele>1059.2</ele>
        <time>2017-08-06T09:41:07.000Z</time>
      </trkpt>
      <trkpt lat="43.27155500650406" lon="-6.682617394253612">
        <ele>1058.8</ele>
        <time>2017-08-06T09:41:28.000Z</time>
      </trkpt>
      <trkpt lat="43.271538661792874" lon="-6.682684365659952">
        <ele>1057.4</ele>
        <time>2017-08-06T09:41:36.000Z</time>
      </trkpt>
      <trkpt lat="43.27152315527201" lon="-6.682728789746761">
        <ele>1056.8</ele>
        <time>2017-08-06T09:41:44.000Z</time>
      </trkpt>
      <trkpt lat="43.27152265235782" lon="-6.682749409228563">
        <ele>1056.4</ele>
        <time>2017-08-06T09:41:48.000Z</time>
      </trkpt>
      <trkpt lat="43.2715112529695" lon="-6.682804897427559">
        <ele>1055.2</ele>
        <time>2017-08-06T09:41:53.000Z</time>
      </trkpt>
      <trkpt lat="43.271498596295714" lon="-6.682855105027556">
        <ele>1054</ele>
        <time>2017-08-06T09:42:00.000Z</time>
      </trkpt>
      <trkpt lat="43.271466912701726" lon="-6.682903720065951">
        <ele>1053.2</ele>
        <time>2017-08-06T09:42:05.000Z</time>
      </trkpt>
      <trkpt lat="43.271466409787536" lon="-6.682913610711694">
        <ele>1052.8</ele>
        <time>2017-08-06T09:42:06.000Z</time>
      </trkpt>
      <trkpt lat="43.27145375311375" lon="-6.682945629581809">
        <ele>1052</ele>
        <time>2017-08-06T09:42:10.000Z</time>
      </trkpt>
      <trkpt lat="43.27144545502961" lon="-6.682953676208854">
        <ele>1052</ele>
        <time>2017-08-06T09:42:11.000Z</time>
      </trkpt>
      <trkpt lat="43.27144428156316" lon="-6.68296130374074">
        <ele>1051.8</ele>
        <time>2017-08-06T09:42:14.000Z</time>
      </trkpt>
      <trkpt lat="43.27143531292677" lon="-6.68304487131536">
        <ele>1049.6</ele>
        <time>2017-08-06T09:44:06.000Z</time>
      </trkpt>
      <trkpt lat="43.27142525464296" lon="-6.683113519102335">
        <ele>1048</ele>
        <time>2017-08-06T09:44:41.000Z</time>
      </trkpt>
      <trkpt lat="43.27141402289271" lon="-6.683129193261266">
        <ele>1047.8</ele>
        <time>2017-08-06T09:44:42.000Z</time>
      </trkpt>
      <trkpt lat="43.27138795517385" lon="-6.683189375326037">
        <ele>1046.4</ele>
        <time>2017-08-06T09:44:45.000Z</time>
      </trkpt>
      <trkpt lat="43.27135342173278" lon="-6.6832358948886395">
        <ele>1045.8</ele>
        <time>2017-08-06T09:44:48.000Z</time>
      </trkpt>
      <trkpt lat="43.27127865515649" lon="-6.683345278725028">
        <ele>1044.8</ele>
        <time>2017-08-06T09:44:55.000Z</time>
      </trkpt>
      <trkpt lat="43.27122962102294" lon="-6.683430019766092">
        <ele>1044.4</ele>
        <time>2017-08-06T09:45:00.000Z</time>
      </trkpt>
      <trkpt lat="43.271208414807916" lon="-6.683464553207159">
        <ele>1044.4</ele>
        <time>2017-08-06T09:45:02.000Z</time>
      </trkpt>
      <trkpt lat="43.27116139233112" lon="-6.683546528220177">
        <ele>1044.4</ele>
        <time>2017-08-06T09:45:07.000Z</time>
      </trkpt>
      <trkpt lat="43.271161476150155" lon="-6.683563543483615">
        <ele>1044</ele>
        <time>2017-08-06T09:45:08.000Z</time>
      </trkpt>
      <trkpt lat="43.271113615483046" lon="-6.683665132150054">
        <ele>1043.4</ele>
        <time>2017-08-06T09:45:13.000Z</time>
      </trkpt>
      <trkpt lat="43.271095510572195" lon="-6.683700839057565">
        <ele>1043.2</ele>
        <time>2017-08-06T09:45:15.000Z</time>
      </trkpt>
      <trkpt lat="43.27108352445066" lon="-6.683776024729013">
        <ele>1041.8</ele>
        <time>2017-08-06T09:45:19.000Z</time>
      </trkpt>
      <trkpt lat="43.27108100987971" lon="-6.6838352009654045">
        <ele>1040.4</ele>
        <time>2017-08-06T09:45:25.000Z</time>
      </trkpt>
      <trkpt lat="43.27107681892812" lon="-6.6838740929961205">
        <ele>1039.6</ele>
        <time>2017-08-06T09:45:33.000Z</time>
      </trkpt>
      <trkpt lat="43.2710918225348" lon="-6.683838302269578">
        <ele>1039.8</ele>
        <time>2017-08-06T09:45:46.000Z</time>
      </trkpt>
      <trkpt lat="43.27109039761126" lon="-6.683825729414821">
        <ele>1040.2</ele>
        <time>2017-08-06T09:45:55.000Z</time>
      </trkpt>
      <trkpt lat="43.271077405661345" lon="-6.683873422443867">
        <ele>1039.4</ele>
        <time>2017-08-06T09:46:08.000Z</time>
      </trkpt>
      <trkpt lat="43.271019319072366" lon="-6.683968137949705">
        <ele>1038.2</ele>
        <time>2017-08-06T09:46:15.000Z</time>
      </trkpt>
      <trkpt lat="43.27096039429307" lon="-6.684066290035844">
        <ele>1035.2</ele>
        <time>2017-08-06T09:46:23.000Z</time>
      </trkpt>
      <trkpt lat="43.27089744620025" lon="-6.684166369959712">
        <ele>1032.2</ele>
        <time>2017-08-06T09:46:32.000Z</time>
      </trkpt>
      <trkpt lat="43.2708777487278" lon="-6.684230659157038">
        <ele>1029.8</ele>
        <time>2017-08-06T09:46:37.000Z</time>
      </trkpt>
      <trkpt lat="43.27079426497221" lon="-6.684371558949351">
        <ele>1023.8</ele>
        <time>2017-08-06T09:46:48.000Z</time>
      </trkpt>
      <trkpt lat="43.27073860913515" lon="-6.684479266405106">
        <ele>1019.4</ele>
        <time>2017-08-06T09:46:57.000Z</time>
      </trkpt>
      <trkpt lat="43.27070239931345" lon="-6.684548081830144">
        <ele>1017.8</ele>
        <time>2017-08-06T09:47:03.000Z</time>
      </trkpt>
      <trkpt lat="43.27065453864634" lon="-6.684623686596751">
        <ele>1016.2</ele>
        <time>2017-08-06T09:47:09.000Z</time>
      </trkpt>
      <trkpt lat="43.270606426522136" lon="-6.684701219201088">
        <ele>1014.4</ele>
        <time>2017-08-06T09:47:16.000Z</time>
      </trkpt>
      <trkpt lat="43.27058421447873" lon="-6.684781853109598">
        <ele>1011.8</ele>
        <time>2017-08-06T09:47:23.000Z</time>
      </trkpt>
      <trkpt lat="43.270562421530485" lon="-6.684858547523618">
        <ele>1009.6</ele>
        <time>2017-08-06T09:47:29.000Z</time>
      </trkpt>
      <trkpt lat="43.270555129274726" lon="-6.684866929426789">
        <ele>1009.6</ele>
        <time>2017-08-06T09:47:30.000Z</time>
      </trkpt>
      <trkpt lat="43.27052713371813" lon="-6.6849269438534975">
        <ele>1008.4</ele>
        <time>2017-08-06T09:47:35.000Z</time>
      </trkpt>
      <trkpt lat="43.27049075625837" lon="-6.68501453474164">
        <ele>1006.4</ele>
        <time>2017-08-06T09:47:43.000Z</time>
      </trkpt>
      <trkpt lat="43.27043962664902" lon="-6.6850903909653425">
        <ele>1004.8</ele>
        <time>2017-08-06T09:47:50.000Z</time>
      </trkpt>
      <trkpt lat="43.27039168216288" lon="-6.685177814215422">
        <ele>1002.4</ele>
        <time>2017-08-06T09:47:57.000Z</time>
      </trkpt>
      <trkpt lat="43.270367877557874" lon="-6.685206480324268">
        <ele>1001.8</ele>
        <time>2017-08-06T09:48:00.000Z</time>
      </trkpt>
      <trkpt lat="43.27034675516188" lon="-6.685245707631111">
        <ele>1000.6</ele>
        <time>2017-08-06T09:48:03.000Z</time>
      </trkpt>
      <trkpt lat="43.270338121801615" lon="-6.685262136161327">
        <ele>1000.2</ele>
        <time>2017-08-06T09:48:04.000Z</time>
      </trkpt>
      <trkpt lat="43.27030375599861" lon="-6.685322988778353">
        <ele>998.4</ele>
        <time>2017-08-06T09:48:09.000Z</time>
      </trkpt>
      <trkpt lat="43.27025296166539" lon="-6.685396581888199">
        <ele>997.8</ele>
        <time>2017-08-06T09:48:16.000Z</time>
      </trkpt>
      <trkpt lat="43.27022060751915" lon="-6.6854641400277615">
        <ele>997</ele>
        <time>2017-08-06T09:48:22.000Z</time>
      </trkpt>
      <trkpt lat="43.27019068412483" lon="-6.685545612126589">
        <ele>995.8</ele>
        <time>2017-08-06T09:48:29.000Z</time>
      </trkpt>
      <trkpt lat="43.270156318321824" lon="-6.685603698715568">
        <ele>995.6</ele>
        <time>2017-08-06T09:48:34.000Z</time>
      </trkpt>
      <trkpt lat="43.27014081180096" lon="-6.685627084225416">
        <ele>995.6</ele>
        <time>2017-08-06T09:48:36.000Z</time>
      </trkpt>
      <trkpt lat="43.27011910267174" lon="-6.685686092823744">
        <ele>994.6</ele>
        <time>2017-08-06T09:48:40.000Z</time>
      </trkpt>
      <trkpt lat="43.270113319158554" lon="-6.685698078945279">
        <ele>994.4</ele>
        <time>2017-08-06T09:48:41.000Z</time>
      </trkpt>
      <trkpt lat="43.270056154578924" lon="-6.6857916209846735">
        <ele>994</ele>
        <time>2017-08-06T09:48:49.000Z</time>
      </trkpt>
      <trkpt lat="43.27000854536891" lon="-6.685876026749611">
        <ele>993.6</ele>
        <time>2017-08-06T09:48:56.000Z</time>
      </trkpt>
      <trkpt lat="43.26994056813419" lon="-6.68599521741271">
        <ele>991.8</ele>
        <time>2017-08-06T09:49:05.000Z</time>
      </trkpt>
      <trkpt lat="43.26991173438728" lon="-6.686063781380653">
        <ele>990.8</ele>
        <time>2017-08-06T09:49:10.000Z</time>
      </trkpt>
      <trkpt lat="43.269904693588614" lon="-6.686080964282155">
        <ele>990.6</ele>
        <time>2017-08-06T09:49:16.000Z</time>
      </trkpt>
      <trkpt lat="43.269866639748216" lon="-6.686129160225391">
        <ele>990.8</ele>
        <time>2017-08-06T09:49:40.000Z</time>
      </trkpt>
      <trkpt lat="43.269826574251056" lon="-6.686178781092167">
        <ele>991</ele>
        <time>2017-08-06T09:49:45.000Z</time>
      </trkpt>
      <trkpt lat="43.269821209833026" lon="-6.686199652031064">
        <ele>990.4</ele>
        <time>2017-08-06T09:49:47.000Z</time>
      </trkpt>
      <trkpt lat="43.269818779081106" lon="-6.6862210258841515">
        <ele>989.8</ele>
        <time>2017-08-06T09:49:49.000Z</time>
      </trkpt>
      <trkpt lat="43.26981358230114" lon="-6.686251871287823">
        <ele>989</ele>
        <time>2017-08-06T09:49:53.000Z</time>
      </trkpt>
      <trkpt lat="43.26981592923403" lon="-6.686294954270124">
        <ele>987.2</ele>
        <time>2017-08-06T09:49:56.000Z</time>
      </trkpt>
      <trkpt lat="43.269804026931524" lon="-6.68633820489049">
        <ele>986.4</ele>
        <time>2017-08-06T09:49:59.000Z</time>
      </trkpt>
      <trkpt lat="43.26977804303169" lon="-6.686425460502505">
        <ele>984.6</ele>
        <time>2017-08-06T09:50:08.000Z</time>
      </trkpt>
      <trkpt lat="43.269775696098804" lon="-6.686431914567947">
        <ele>984.4</ele>
        <time>2017-08-06T09:50:19.000Z</time>
      </trkpt>
      <trkpt lat="43.26975700445473" lon="-6.6864796075969934">
        <ele>983.6</ele>
        <time>2017-08-06T09:50:29.000Z</time>
      </trkpt>
      <trkpt lat="43.26971685513854" lon="-6.686592511832714">
        <ele>981.6</ele>
        <time>2017-08-06T09:50:37.000Z</time>
      </trkpt>
      <trkpt lat="43.26966597698629" lon="-6.686685970053077">
        <ele>980.8</ele>
        <time>2017-08-06T09:50:45.000Z</time>
      </trkpt>
      <trkpt lat="43.269636891782284" lon="-6.686759814620018">
        <ele>980.2</ele>
        <time>2017-08-06T09:50:52.000Z</time>
      </trkpt>
      <trkpt lat="43.269631108269095" lon="-6.686783032491803">
        <ele>980</ele>
        <time>2017-08-06T09:50:58.000Z</time>
      </trkpt>
      <trkpt lat="43.26960428617895" lon="-6.6868512611836195">
        <ele>979.6</ele>
        <time>2017-08-06T09:51:06.000Z</time>
      </trkpt>
      <trkpt lat="43.26957327313721" lon="-6.686951508745551">
        <ele>978.8</ele>
        <time>2017-08-06T09:51:13.000Z</time>
      </trkpt>
      <trkpt lat="43.26952784322202" lon="-6.687067598104477">
        <ele>978.6</ele>
        <time>2017-08-06T09:51:21.000Z</time>
      </trkpt>
      <trkpt lat="43.26947696506977" lon="-6.68721092864871">
        <ele>978.4</ele>
        <time>2017-08-06T09:51:30.000Z</time>
      </trkpt>
      <trkpt lat="43.2694374024868" lon="-6.6873236652463675">
        <ele>978.2</ele>
        <time>2017-08-06T09:51:37.000Z</time>
      </trkpt>
      <trkpt lat="43.26940932311118" lon="-6.687444280833006">
        <ele>977</ele>
        <time>2017-08-06T09:51:44.000Z</time>
      </trkpt>
      <trkpt lat="43.26936305500567" lon="-6.687553329393268">
        <ele>976.6</ele>
        <time>2017-08-06T09:51:51.000Z</time>
      </trkpt>
      <trkpt lat="43.26931997202337" lon="-6.687679393216968">
        <ele>975</ele>
        <time>2017-08-06T09:51:59.000Z</time>
      </trkpt>
      <trkpt lat="43.26928032562137" lon="-6.687788860872388">
        <ele>973.6</ele>
        <time>2017-08-06T09:52:06.000Z</time>
      </trkpt>
      <trkpt lat="43.26922366395593" lon="-6.687929509207606">
        <ele>970.8</ele>
        <time>2017-08-06T09:52:15.000Z</time>
      </trkpt>
      <trkpt lat="43.26919198036194" lon="-6.688015842810273">
        <ele>968.8</ele>
        <time>2017-08-06T09:52:21.000Z</time>
      </trkpt>
      <trkpt lat="43.26913934201002" lon="-6.688132015988231">
        <ele>966.2</ele>
        <time>2017-08-06T09:52:29.000Z</time>
      </trkpt>
      <trkpt lat="43.26910028234124" lon="-6.688258918002248">
        <ele>963.2</ele>
        <time>2017-08-06T09:52:37.000Z</time>
      </trkpt>
      <trkpt lat="43.269020235165954" lon="-6.688394453376532">
        <ele>961.2</ele>
        <time>2017-08-06T09:52:47.000Z</time>
      </trkpt>
      <trkpt lat="43.26895519159734" lon="-6.6884693037718534">
        <ele>960.8</ele>
        <time>2017-08-06T09:52:55.000Z</time>
      </trkpt>
      <trkpt lat="43.26889459043741" lon="-6.688490677624941">
        <ele>962.4</ele>
        <time>2017-08-06T09:53:03.000Z</time>
      </trkpt>
      <trkpt lat="43.26888612471521" lon="-6.688490593805909">
        <ele>962.8</ele>
        <time>2017-08-06T09:53:04.000Z</time>
      </trkpt>
      <trkpt lat="43.26885033398867" lon="-6.68852093629539">
        <ele>963</ele>
        <time>2017-08-06T09:53:10.000Z</time>
      </trkpt>
      <trkpt lat="43.26883918605745" lon="-6.688553290441632">
        <ele>962.2</ele>
        <time>2017-08-06T09:53:15.000Z</time>
      </trkpt>
      <trkpt lat="43.268831726163626" lon="-6.688586985692382">
        <ele>961</ele>
        <time>2017-08-06T09:53:22.000Z</time>
      </trkpt>
      <trkpt lat="43.268827283754945" lon="-6.688615400344133">
        <ele>960</ele>
        <time>2017-08-06T09:53:32.000Z</time>
      </trkpt>
      <trkpt lat="43.26882694847882" lon="-6.688612215220928">
        <ele>960.2</ele>
        <time>2017-08-06T09:53:43.000Z</time>
      </trkpt>
      <trkpt lat="43.26878420077264" lon="-6.688665272668004">
        <ele>958</ele>
        <time>2017-08-06T09:53:54.000Z</time>
      </trkpt>
      <trkpt lat="43.268742207437754" lon="-6.688727298751473">
        <ele>956.6</ele>
        <time>2017-08-06T09:54:01.000Z</time>
      </trkpt>
      <trkpt lat="43.26872737146914" lon="-6.688742050901055">
        <ele>956.4</ele>
        <time>2017-08-06T09:54:03.000Z</time>
      </trkpt>
      <trkpt lat="43.26869526877999" lon="-6.688780440017581">
        <ele>955.4</ele>
        <time>2017-08-06T09:54:08.000Z</time>
      </trkpt>
      <trkpt lat="43.26863056048751" lon="-6.688847579061985">
        <ele>954</ele>
        <time>2017-08-06T09:54:16.000Z</time>
      </trkpt>
      <trkpt lat="43.26860457658768" lon="-6.688874401152134">
        <ele>953.4</ele>
        <time>2017-08-06T09:54:19.000Z</time>
      </trkpt>
      <trkpt lat="43.2685914169997" lon="-6.6889098566025496">
        <ele>952.4</ele>
        <time>2017-08-06T09:54:22.000Z</time>
      </trkpt>
      <trkpt lat="43.26858647167683" lon="-6.688921172171831">
        <ele>952.2</ele>
        <time>2017-08-06T09:54:23.000Z</time>
      </trkpt>
      <trkpt lat="43.26856333762407" lon="-6.688967691734433">
        <ele>951.2</ele>
        <time>2017-08-06T09:54:29.000Z</time>
      </trkpt>
      <trkpt lat="43.26854850165546" lon="-6.689000464975834">
        <ele>951</ele>
        <time>2017-08-06T09:54:32.000Z</time>
      </trkpt>
      <trkpt lat="43.26852025464177" lon="-6.689026448875666">
        <ele>950.6</ele>
        <time>2017-08-06T09:54:35.000Z</time>
      </trkpt>
      <trkpt lat="43.26846946030855" lon="-6.689141700044274">
        <ele>948.6</ele>
        <time>2017-08-06T09:54:43.000Z</time>
      </trkpt>
      <trkpt lat="43.268421180546284" lon="-6.689261393621564">
        <ele>946.8</ele>
        <time>2017-08-06T09:54:51.000Z</time>
      </trkpt>
      <trkpt lat="43.268366446718574" lon="-6.689404556527734">
        <ele>945</ele>
        <time>2017-08-06T09:55:00.000Z</time>
      </trkpt>
      <trkpt lat="43.26832814142108" lon="-6.689497763291001">
        <ele>943.4</ele>
        <time>2017-08-06T09:55:06.000Z</time>
      </trkpt>
      <trkpt lat="43.26831825077534" lon="-6.6895336378365755">
        <ele>942.6</ele>
        <time>2017-08-06T09:55:08.000Z</time>
      </trkpt>
      <trkpt lat="43.26828229241073" lon="-6.689674202352762">
        <ele>940</ele>
        <time>2017-08-06T09:55:16.000Z</time>
      </trkpt>
      <trkpt lat="43.268244909122586" lon="-6.6897922195494175">
        <ele>937.2</ele>
        <time>2017-08-06T09:55:23.000Z</time>
      </trkpt>
      <trkpt lat="43.26819914393127" lon="-6.689961701631546">
        <ele>934.2</ele>
        <time>2017-08-06T09:55:33.000Z</time>
      </trkpt>
      <trkpt lat="43.26816796325147" lon="-6.690000928938389">
        <ele>933</ele>
        <time>2017-08-06T09:55:37.000Z</time>
      </trkpt>
      <trkpt lat="43.26815178617835" lon="-6.690016184002161">
        <ele>932.4</ele>
        <time>2017-08-06T09:55:39.000Z</time>
      </trkpt>
      <trkpt lat="43.26814725995064" lon="-6.690021464601159">
        <ele>932.2</ele>
        <time>2017-08-06T09:55:40.000Z</time>
      </trkpt>
      <trkpt lat="43.26814340427518" lon="-6.690022051334381">
        <ele>932.2</ele>
        <time>2017-08-06T09:55:48.000Z</time>
      </trkpt>
      <trkpt lat="43.26815212145448" lon="-6.690010568127036">
        <ele>932.6</ele>
        <time>2017-08-06T09:56:00.000Z</time>
      </trkpt>
      <trkpt lat="43.26810233294964" lon="-6.690046777948737">
        <ele>930.8</ele>
        <time>2017-08-06T09:56:23.000Z</time>
      </trkpt>
      <trkpt lat="43.26805983670056" lon="-6.69008893892169">
        <ele>929.8</ele>
        <time>2017-08-06T09:56:31.000Z</time>
      </trkpt>
      <trkpt lat="43.26800853945315" lon="-6.690144762396812">
        <ele>928.4</ele>
        <time>2017-08-06T09:56:39.000Z</time>
      </trkpt>
      <trkpt lat="43.26796201989055" lon="-6.690226653590798">
        <ele>927</ele>
        <time>2017-08-06T09:56:48.000Z</time>
      </trkpt>
      <trkpt lat="43.2679246366024" lon="-6.69033519923687">
        <ele>925.8</ele>
        <time>2017-08-06T09:56:56.000Z</time>
      </trkpt>
      <trkpt lat="43.26788901351392" lon="-6.690496802330017">
        <ele>927</ele>
        <time>2017-08-06T09:57:07.000Z</time>
      </trkpt>
      <trkpt lat="43.26787426136434" lon="-6.690590512007475">
        <ele>927.4</ele>
        <time>2017-08-06T09:57:13.000Z</time>
      </trkpt>
      <trkpt lat="43.26786487363279" lon="-6.690622279420495">
        <ele>927.4</ele>
        <time>2017-08-06T09:57:15.000Z</time>
      </trkpt>
      <trkpt lat="43.26781542040408" lon="-6.690746499225497">
        <ele>927.6</ele>
        <time>2017-08-06T09:57:24.000Z</time>
      </trkpt>
      <trkpt lat="43.26777862384915" lon="-6.690831491723657">
        <ele>927.8</ele>
        <time>2017-08-06T09:57:30.000Z</time>
      </trkpt>
      <trkpt lat="43.267723051831126" lon="-6.690956884995103">
        <ele>927.2</ele>
        <time>2017-08-06T09:57:39.000Z</time>
      </trkpt>
      <trkpt lat="43.26768600381911" lon="-6.69107741676271">
        <ele>925.2</ele>
        <time>2017-08-06T09:57:47.000Z</time>
      </trkpt>
      <trkpt lat="43.26764468103647" lon="-6.691208928823471">
        <ele>923</ele>
        <time>2017-08-06T09:57:56.000Z</time>
      </trkpt>
      <trkpt lat="43.26760386116803" lon="-6.691314456984401">
        <ele>921.4</ele>
        <time>2017-08-06T09:58:03.000Z</time>
      </trkpt>
      <trkpt lat="43.26755424030125" lon="-6.691444795578718">
        <ele>919.4</ele>
        <time>2017-08-06T09:58:12.000Z</time>
      </trkpt>
      <trkpt lat="43.267515851184726" lon="-6.6915463004261255">
        <ele>918.8</ele>
        <time>2017-08-06T09:58:19.000Z</time>
      </trkpt>
      <trkpt lat="43.26746631413698" lon="-6.691683176904917">
        <ele>918.2</ele>
        <time>2017-08-06T09:58:28.000Z</time>
      </trkpt>
      <trkpt lat="43.26742130331695" lon="-6.691797254607081">
        <ele>917</ele>
        <time>2017-08-06T09:58:35.000Z</time>
      </trkpt>
      <trkpt lat="43.267390793189406" lon="-6.691942512989044">
        <ele>917</ele>
        <time>2017-08-06T09:58:44.000Z</time>
      </trkpt>
      <trkpt lat="43.267361875623465" lon="-6.692029349505901">
        <ele>916.4</ele>
        <time>2017-08-06T09:58:49.000Z</time>
      </trkpt>
      <trkpt lat="43.26735475100577" lon="-6.692058183252811">
        <ele>916.6</ele>
        <time>2017-08-06T09:58:51.000Z</time>
      </trkpt>
      <trkpt lat="43.267335053533316" lon="-6.6921500489115715">
        <ele>916.2</ele>
        <time>2017-08-06T09:58:57.000Z</time>
      </trkpt>
      <trkpt lat="43.26730412431061" lon="-6.692267311736941">
        <ele>915.2</ele>
        <time>2017-08-06T09:59:05.000Z</time>
      </trkpt>
      <trkpt lat="43.2672649808228" lon="-6.692386167123914">
        <ele>915.2</ele>
        <time>2017-08-06T09:59:13.000Z</time>
      </trkpt>
      <trkpt lat="43.26723421923816" lon="-6.692482810467482">
        <ele>915.2</ele>
        <time>2017-08-06T09:59:21.000Z</time>
      </trkpt>
      <trkpt lat="43.26720957644284" lon="-6.6925405617803335">
        <ele>914.4</ele>
        <time>2017-08-06T09:59:28.000Z</time>
      </trkpt>
      <trkpt lat="43.267181161791086" lon="-6.692639887332916">
        <ele>914.4</ele>
        <time>2017-08-06T09:59:33.000Z</time>
      </trkpt>
      <trkpt lat="43.26716314069927" lon="-6.692777685821056">
        <ele>914.8</ele>
        <time>2017-08-06T09:59:41.000Z</time>
      </trkpt>
      <trkpt lat="43.26714847236872" lon="-6.692898888140917">
        <ele>913.6</ele>
        <time>2017-08-06T09:59:48.000Z</time>
      </trkpt>
      <trkpt lat="43.26713003218174" lon="-6.693015145137906">
        <ele>910.8</ele>
        <time>2017-08-06T09:59:55.000Z</time>
      </trkpt>
      <trkpt lat="43.26710471883416" lon="-6.693169707432389">
        <ele>908.6</ele>
        <time>2017-08-06T10:00:04.000Z</time>
      </trkpt>
      <trkpt lat="43.26707907021046" lon="-6.693288227543235">
        <ele>908.4</ele>
        <time>2017-08-06T10:00:13.000Z</time>
      </trkpt>
      <trkpt lat="43.26702651567757" lon="-6.693330220878124">
        <ele>907</ele>
        <time>2017-08-06T10:00:20.000Z</time>
      </trkpt>
      <trkpt lat="43.267003716900945" lon="-6.6933569591492414">
        <ele>906.4</ele>
        <time>2017-08-06T10:00:24.000Z</time>
      </trkpt>
      <trkpt lat="43.266992988064885" lon="-6.693370454013348">
        <ele>906.2</ele>
        <time>2017-08-06T10:00:25.000Z</time>
      </trkpt>
      <trkpt lat="43.266923585906625" lon="-6.693444298580289">
        <ele>904.6</ele>
        <time>2017-08-06T10:00:33.000Z</time>
      </trkpt>
      <trkpt lat="43.266869354993105" lon="-6.693528620526195">
        <ele>903.6</ele>
        <time>2017-08-06T10:00:39.000Z</time>
      </trkpt>
      <trkpt lat="43.26687287539244" lon="-6.693526776507497">
        <ele>903.8</ele>
        <time>2017-08-06T10:00:44.000Z</time>
      </trkpt>
      <trkpt lat="43.26683255843818" lon="-6.693595005199313">
        <ele>902.6</ele>
        <time>2017-08-06T10:00:57.000Z</time>
      </trkpt>
      <trkpt lat="43.26676642522216" lon="-6.69373070821166">
        <ele>902.4</ele>
        <time>2017-08-06T10:01:06.000Z</time>
      </trkpt>
      <trkpt lat="43.26668738387525" lon="-6.693815868347883">
        <ele>901.8</ele>
        <time>2017-08-06T10:01:13.000Z</time>
      </trkpt>
      <trkpt lat="43.26662736944854" lon="-6.693923408165574">
        <ele>902.4</ele>
        <time>2017-08-06T10:01:20.000Z</time>
      </trkpt>
      <trkpt lat="43.26657607220113" lon="-6.694065481424332">
        <ele>904.2</ele>
        <time>2017-08-06T10:01:29.000Z</time>
      </trkpt>
      <trkpt lat="43.26652837917209" lon="-6.694182911887765">
        <ele>906.4</ele>
        <time>2017-08-06T10:01:37.000Z</time>
      </trkpt>
      <trkpt lat="43.26647984795272" lon="-6.694293050095439">
        <ele>908.4</ele>
        <time>2017-08-06T10:01:45.000Z</time>
      </trkpt>
      <trkpt lat="43.266419749706984" lon="-6.694404948502779">
        <ele>910.2</ele>
        <time>2017-08-06T10:01:54.000Z</time>
      </trkpt>
      <trkpt lat="43.26634137891233" lon="-6.6945072915405035">
        <ele>911.8</ele>
        <time>2017-08-06T10:02:03.000Z</time>
      </trkpt>
      <trkpt lat="43.26628320850432" lon="-6.694561690092087">
        <ele>912.4</ele>
        <time>2017-08-06T10:02:09.000Z</time>
      </trkpt>
      <trkpt lat="43.266212213784456" lon="-6.69462681747973">
        <ele>912.8</ele>
        <time>2017-08-06T10:02:17.000Z</time>
      </trkpt>
      <trkpt lat="43.26614364981651" lon="-6.694724299013615">
        <ele>913.4</ele>
        <time>2017-08-06T10:02:26.000Z</time>
      </trkpt>
      <trkpt lat="43.266087574884295" lon="-6.694831000640988">
        <ele>914.6</ele>
        <time>2017-08-06T10:02:34.000Z</time>
      </trkpt>
      <trkpt lat="43.26603879220784" lon="-6.694914484396577">
        <ele>916</ele>
        <time>2017-08-06T10:02:40.000Z</time>
      </trkpt>
      <trkpt lat="43.26599168591201" lon="-6.695024874061346">
        <ele>917.6</ele>
        <time>2017-08-06T10:02:48.000Z</time>
      </trkpt>
      <trkpt lat="43.265943825244904" lon="-6.695108860731125">
        <ele>918.2</ele>
        <time>2017-08-06T10:02:55.000Z</time>
      </trkpt>
      <trkpt lat="43.26588003896177" lon="-6.6952023189514875">
        <ele>918.6</ele>
        <time>2017-08-06T10:03:03.000Z</time>
      </trkpt>
      <trkpt lat="43.265812480822206" lon="-6.695298878476024">
        <ele>918.8</ele>
        <time>2017-08-06T10:03:11.000Z</time>
      </trkpt>
      <trkpt lat="43.265767553821206" lon="-6.695353779941797">
        <ele>918.6</ele>
        <time>2017-08-06T10:03:19.000Z</time>
      </trkpt>
      <trkpt lat="43.26580694876611" lon="-6.695385044440627">
        <ele>917.8</ele>
        <time>2017-08-06T10:04:07.000Z</time>
      </trkpt>
      <trkpt lat="43.26583477668464" lon="-6.695434749126434">
        <ele>916.8</ele>
        <time>2017-08-06T10:04:14.000Z</time>
      </trkpt>
      <trkpt lat="43.2658367883414" lon="-6.695431144908071">
        <ele>916.8</ele>
        <time>2017-08-06T10:04:21.000Z</time>
      </trkpt>
      <trkpt lat="43.26582111418247" lon="-6.69542376883328">
        <ele>917.2</ele>
        <time>2017-08-06T10:04:29.000Z</time>
      </trkpt>
      <trkpt lat="43.26580602675676" lon="-6.6954252775758505">
        <ele>917.2</ele>
        <time>2017-08-06T10:05:02.000Z</time>
      </trkpt>
      <trkpt lat="43.265807535499334" lon="-6.695445980876684">
        <ele>917</ele>
        <time>2017-08-06T10:05:35.000Z</time>
      </trkpt>
      <trkpt lat="43.26580435037613" lon="-6.695438353344798">
        <ele>917</ele>
        <time>2017-08-06T10:07:27.000Z</time>
      </trkpt>
      <trkpt lat="43.265789933502674" lon="-6.695443885400891">
        <ele>917.2</ele>
        <time>2017-08-06T10:08:06.000Z</time>
      </trkpt>
      <trkpt lat="43.2657989859581" lon="-6.6954350005835295">
        <ele>917.2</ele>
        <time>2017-08-06T10:10:47.000Z</time>
      </trkpt>
      <trkpt lat="43.265820695087314" lon="-6.695457464084029">
        <ele>916.6</ele>
        <time>2017-08-06T10:11:47.000Z</time>
      </trkpt>
      <trkpt lat="43.265834944322705" lon="-6.695427121594548">
        <ele>917</ele>
        <time>2017-08-06T10:15:13.000Z</time>
      </trkpt>
      <trkpt lat="43.26582354493439" lon="-6.695438269525766">
        <ele>916.8</ele>
        <time>2017-08-06T10:15:26.000Z</time>
      </trkpt>
      <trkpt lat="43.26584634371102" lon="-6.695415806025267">
        <ele>917</ele>
        <time>2017-08-06T10:15:30.000Z</time>
      </trkpt>
      <trkpt lat="43.265853049233556" lon="-6.695432905107737">
        <ele>916.6</ele>
        <time>2017-08-06T10:15:31.000Z</time>
      </trkpt>
      <trkpt lat="43.2658386323601" lon="-6.6954408679157495">
        <ele>916.6</ele>
        <time>2017-08-06T10:15:34.000Z</time>
      </trkpt>
      <trkpt lat="43.26583913527429" lon="-6.695459811016917">
        <ele>916.4</ele>
        <time>2017-08-06T10:15:39.000Z</time>
      </trkpt>
      <trkpt lat="43.2658336032182" lon="-6.695448076352477">
        <ele>916.6</ele>
        <time>2017-08-06T10:15:48.000Z</time>
      </trkpt>
      <trkpt lat="43.26583268120885" lon="-6.695453524589539">
        <ele>916.6</ele>
        <time>2017-08-06T10:16:41.000Z</time>
      </trkpt>
      <trkpt lat="43.26582622714341" lon="-6.69544774107635">
        <ele>916.8</ele>
        <time>2017-08-06T10:17:12.000Z</time>
      </trkpt>
      <trkpt lat="43.265808038413525" lon="-6.695454027503729">
        <ele>916.8</ele>
        <time>2017-08-06T10:18:24.000Z</time>
      </trkpt>
      <trkpt lat="43.265813486650586" lon="-6.695440532639623">
        <ele>917</ele>
        <time>2017-08-06T10:18:35.000Z</time>
      </trkpt>
      <trkpt lat="43.26582295820117" lon="-6.695444975048304">
        <ele>916.8</ele>
        <time>2017-08-06T10:18:47.000Z</time>
      </trkpt>
      <trkpt lat="43.26581901870668" lon="-6.695431228727102">
        <ele>917</ele>
        <time>2017-08-06T10:19:02.000Z</time>
      </trkpt>
      <trkpt lat="43.26581155881286" lon="-6.695452434942126">
        <ele>916.8</ele>
        <time>2017-08-06T10:19:25.000Z</time>
      </trkpt>
      <trkpt lat="43.265799321234226" lon="-6.695455452427268">
        <ele>916.8</ele>
        <time>2017-08-06T10:20:05.000Z</time>
      </trkpt>
      <trkpt lat="43.26579169370234" lon="-6.6954476572573185">
        <ele>917</ele>
        <time>2017-08-06T10:20:09.000Z</time>
      </trkpt>
      <trkpt lat="43.265776354819536" lon="-6.695445058867335">
        <ele>917.2</ele>
        <time>2017-08-06T10:20:15.000Z</time>
      </trkpt>
      <trkpt lat="43.265723548829556" lon="-6.695395605638623">
        <ele>918.4</ele>
        <time>2017-08-06T10:20:24.000Z</time>
      </trkpt>
      <trkpt lat="43.26571047306061" lon="-6.695404825732112">
        <ele>918.4</ele>
        <time>2017-08-06T10:20:25.000Z</time>
      </trkpt>
      <trkpt lat="43.265685914084315" lon="-6.695446399971843">
        <ele>918</ele>
        <time>2017-08-06T10:20:28.000Z</time>
      </trkpt>
      <trkpt lat="43.26566806063056" lon="-6.69547364115715">
        <ele>917.6</ele>
        <time>2017-08-06T10:20:30.000Z</time>
      </trkpt>
      <trkpt lat="43.26561760157347" lon="-6.69553080573678">
        <ele>917.2</ele>
        <time>2017-08-06T10:20:35.000Z</time>
      </trkpt>
      <trkpt lat="43.26561299152672" lon="-6.695539020001888">
        <ele>917.2</ele>
        <time>2017-08-06T10:20:36.000Z</time>
      </trkpt>
      <trkpt lat="43.26556437648833" lon="-6.695572044700384">
        <ele>917</ele>
        <time>2017-08-06T10:20:40.000Z</time>
      </trkpt>
      <trkpt lat="43.26549405232072" lon="-6.695626778528094">
        <ele>917</ele>
        <time>2017-08-06T10:20:46.000Z</time>
      </trkpt>
      <trkpt lat="43.26537821441889" lon="-6.695727612823248">
        <ele>917.4</ele>
        <time>2017-08-06T10:20:57.000Z</time>
      </trkpt>
      <trkpt lat="43.26528685167432" lon="-6.695769941434264">
        <ele>917.2</ele>
        <time>2017-08-06T10:21:05.000Z</time>
      </trkpt>
      <trkpt lat="43.26522775925696" lon="-6.695804810151458">
        <ele>917.2</ele>
        <time>2017-08-06T10:21:11.000Z</time>
      </trkpt>
      <trkpt lat="43.26521468348801" lon="-6.695768935605884">
        <ele>916.8</ele>
        <time>2017-08-06T10:21:12.000Z</time>
      </trkpt>
      <trkpt lat="43.26518777757883" lon="-6.695801876485348">
        <ele>916.8</ele>
        <time>2017-08-06T10:21:14.000Z</time>
      </trkpt>
      <trkpt lat="43.26516296714544" lon="-6.69581713154912">
        <ele>916.8</ele>
        <time>2017-08-06T10:21:16.000Z</time>
      </trkpt>
      <trkpt lat="43.26508124358952" lon="-6.695897178724408">
        <ele>916.6</ele>
        <time>2017-08-06T10:21:23.000Z</time>
      </trkpt>
      <trkpt lat="43.26503128744662" lon="-6.695978315547109">
        <ele>916</ele>
        <time>2017-08-06T10:21:29.000Z</time>
      </trkpt>
      <trkpt lat="43.265026677399874" lon="-6.6959992703050375">
        <ele>916</ele>
        <time>2017-08-06T10:21:30.000Z</time>
      </trkpt>
      <trkpt lat="43.265017960220575" lon="-6.696048472076654">
        <ele>915.8</ele>
        <time>2017-08-06T10:21:33.000Z</time>
      </trkpt>
      <trkpt lat="43.26500991359353" lon="-6.696059117093682">
        <ele>915.8</ele>
        <time>2017-08-06T10:21:34.000Z</time>
      </trkpt>
      <trkpt lat="43.2649683393538" lon="-6.696108570322394">
        <ele>915.4</ele>
        <time>2017-08-06T10:21:40.000Z</time>
      </trkpt>
      <trkpt lat="43.26495744287968" lon="-6.6961208917200565">
        <ele>915.2</ele>
        <time>2017-08-06T10:21:41.000Z</time>
      </trkpt>
      <trkpt lat="43.26485459692776" lon="-6.696199430152774">
        <ele>914.2</ele>
        <time>2017-08-06T10:21:50.000Z</time>
      </trkpt>
      <trkpt lat="43.26477077789605" lon="-6.696276292204857">
        <ele>913.8</ele>
        <time>2017-08-06T10:21:58.000Z</time>
      </trkpt>
      <trkpt lat="43.2646884676069" lon="-6.6963415034115314">
        <ele>913.4</ele>
        <time>2017-08-06T10:22:06.000Z</time>
      </trkpt>
      <trkpt lat="43.264634320512414" lon="-6.69639565050602">
        <ele>913.4</ele>
        <time>2017-08-06T10:22:12.000Z</time>
      </trkpt>
      <trkpt lat="43.26457690447569" lon="-6.696446528658271">
        <ele>913.8</ele>
        <time>2017-08-06T10:22:18.000Z</time>
      </trkpt>
      <trkpt lat="43.264500461518764" lon="-6.696516936644912">
        <ele>914.8</ele>
        <time>2017-08-06T10:22:26.000Z</time>
      </trkpt>
      <trkpt lat="43.26438202522695" lon="-6.6966191958636045">
        <ele>916.2</ele>
        <time>2017-08-06T10:22:36.000Z</time>
      </trkpt>
      <trkpt lat="43.264288399368525" lon="-6.69674651697278">
        <ele>917.2</ele>
        <time>2017-08-06T10:22:46.000Z</time>
      </trkpt>
      <trkpt lat="43.26423014514148" lon="-6.696852380409837">
        <ele>916.8</ele>
        <time>2017-08-06T10:22:54.000Z</time>
      </trkpt>
      <trkpt lat="43.26416308991611" lon="-6.69694047421217">
        <ele>916.4</ele>
        <time>2017-08-06T10:23:02.000Z</time>
      </trkpt>
      <trkpt lat="43.26411070302129" lon="-6.697020940482616">
        <ele>916.2</ele>
        <time>2017-08-06T10:23:08.000Z</time>
      </trkpt>
      <trkpt lat="43.26405026949942" lon="-6.6971001494675875">
        <ele>916</ele>
        <time>2017-08-06T10:23:14.000Z</time>
      </trkpt>
      <trkpt lat="43.264006013050675" lon="-6.697166953235865">
        <ele>916</ele>
        <time>2017-08-06T10:23:19.000Z</time>
      </trkpt>
      <trkpt lat="43.26398874633014" lon="-6.69719017110765">
        <ele>915.8</ele>
        <time>2017-08-06T10:23:21.000Z</time>
      </trkpt>
      <trkpt lat="43.26392856426537" lon="-6.697301985695958">
        <ele>916</ele>
        <time>2017-08-06T10:23:30.000Z</time>
      </trkpt>
      <trkpt lat="43.26391599141061" lon="-6.697344733402133">
        <ele>916.2</ele>
        <time>2017-08-06T10:23:33.000Z</time>
      </trkpt>
      <trkpt lat="43.263898557052016" lon="-6.6973920073360205">
        <ele>916.4</ele>
        <time>2017-08-06T10:23:36.000Z</time>
      </trkpt>
      <trkpt lat="43.26386150904" lon="-6.69745160266757">
        <ele>916.6</ele>
        <time>2017-08-06T10:23:43.000Z</time>
      </trkpt>
      <trkpt lat="43.263827646151185" lon="-6.697477586567402">
        <ele>916.4</ele>
        <time>2017-08-06T10:23:49.000Z</time>
      </trkpt>
      <trkpt lat="43.26376729644835" lon="-6.697540618479252">
        <ele>916.6</ele>
        <time>2017-08-06T10:23:54.000Z</time>
      </trkpt>
      <trkpt lat="43.26371306553483" lon="-6.697626449167728">
        <ele>917.6</ele>
        <time>2017-08-06T10:24:01.000Z</time>
      </trkpt>
      <trkpt lat="43.26366361230612" lon="-6.697715297341347">
        <ele>918.8</ele>
        <time>2017-08-06T10:24:08.000Z</time>
      </trkpt>
      <trkpt lat="43.263572081923485" lon="-6.697793584316969">
        <ele>919.6</ele>
        <time>2017-08-06T10:24:16.000Z</time>
      </trkpt>
      <trkpt lat="43.263522293418646" lon="-6.697858711704612">
        <ele>921</ele>
        <time>2017-08-06T10:24:21.000Z</time>
      </trkpt>
      <trkpt lat="43.263490945100784" lon="-6.697902213782072">
        <ele>922.4</ele>
        <time>2017-08-06T10:24:24.000Z</time>
      </trkpt>
      <trkpt lat="43.263434367254376" lon="-6.697993408888578">
        <ele>925.4</ele>
        <time>2017-08-06T10:24:31.000Z</time>
      </trkpt>
      <trkpt lat="43.2633622828871" lon="-6.698126429691911">
        <ele>929.6</ele>
        <time>2017-08-06T10:24:41.000Z</time>
      </trkpt>
      <trkpt lat="43.26329866424203" lon="-6.698237154632807">
        <ele>933.2</ele>
        <time>2017-08-06T10:24:49.000Z</time>
      </trkpt>
      <trkpt lat="43.26322741806507" lon="-6.698357770219445">
        <ele>936.4</ele>
        <time>2017-08-06T10:24:58.000Z</time>
      </trkpt>
      <trkpt lat="43.263209480792284" lon="-6.69840001501143">
        <ele>937.4</ele>
        <time>2017-08-06T10:25:01.000Z</time>
      </trkpt>
      <trkpt lat="43.26317846775055" lon="-6.698456089943647">
        <ele>938.6</ele>
        <time>2017-08-06T10:25:05.000Z</time>
      </trkpt>
      <trkpt lat="43.26312096789479" lon="-6.698556337505579">
        <ele>940.4</ele>
        <time>2017-08-06T10:25:12.000Z</time>
      </trkpt>
      <trkpt lat="43.26304653659463" lon="-6.698671588674188">
        <ele>942.6</ele>
        <time>2017-08-06T10:25:21.000Z</time>
      </trkpt>
      <trkpt lat="43.26298124156892" lon="-6.69875917956233">
        <ele>943</ele>
        <time>2017-08-06T10:25:28.000Z</time>
      </trkpt>
      <trkpt lat="43.26290865428746" lon="-6.698851967230439">
        <ele>942.2</ele>
        <time>2017-08-06T10:25:36.000Z</time>
      </trkpt>
      <trkpt lat="43.26282978057861" lon="-6.698967888951302">
        <ele>941.4</ele>
        <time>2017-08-06T10:25:45.000Z</time>
      </trkpt>
      <trkpt lat="43.26277110725641" lon="-6.699086325243115">
        <ele>941.2</ele>
        <time>2017-08-06T10:25:53.000Z</time>
      </trkpt>
      <trkpt lat="43.262765826657414" lon="-6.699098395183682">
        <ele>941.2</ele>
        <time>2017-08-06T10:25:54.000Z</time>
      </trkpt>
      <trkpt lat="43.26270111836493" lon="-6.699169892817736">
        <ele>940.8</ele>
        <time>2017-08-06T10:26:00.000Z</time>
      </trkpt>
      <trkpt lat="43.26265367679298" lon="-6.69923116452992">
        <ele>941.6</ele>
        <time>2017-08-06T10:26:05.000Z</time>
      </trkpt>
      <trkpt lat="43.26264286413789" lon="-6.6992465034127235">
        <ele>942.2</ele>
        <time>2017-08-06T10:26:06.000Z</time>
      </trkpt>
      <trkpt lat="43.26257455162704" lon="-6.699321521446109">
        <ele>944.8</ele>
        <time>2017-08-06T10:26:13.000Z</time>
      </trkpt>
      <trkpt lat="43.26250959187746" lon="-6.699379691854119">
        <ele>947</ele>
        <time>2017-08-06T10:26:20.000Z</time>
      </trkpt>
      <trkpt lat="43.26248109340668" lon="-6.6993931867182255">
        <ele>947.6</ele>
        <time>2017-08-06T10:26:22.000Z</time>
      </trkpt>
      <trkpt lat="43.262433148920536" lon="-6.69942126609385">
        <ele>948.8</ele>
        <time>2017-08-06T10:26:26.000Z</time>
      </trkpt>
      <trkpt lat="43.26235117390752" lon="-6.699485974386334">
        <ele>950</ele>
        <time>2017-08-06T10:26:33.000Z</time>
      </trkpt>
      <trkpt lat="43.262261068448424" lon="-6.699558226391673">
        <ele>951.8</ele>
        <time>2017-08-06T10:26:41.000Z</time>
      </trkpt>
      <trkpt lat="43.26225260272622" lon="-6.699570547789335">
        <ele>952.2</ele>
        <time>2017-08-06T10:26:42.000Z</time>
      </trkpt>
      <trkpt lat="43.26221438124776" lon="-6.6996111162006855">
        <ele>953.4</ele>
        <time>2017-08-06T10:26:46.000Z</time>
      </trkpt>
      <trkpt lat="43.26220306567848" lon="-6.699613882228732">
        <ele>953.4</ele>
        <time>2017-08-06T10:26:47.000Z</time>
      </trkpt>
      <trkpt lat="43.262159479781985" lon="-6.699655037373304">
        <ele>954.6</ele>
        <time>2017-08-06T10:26:51.000Z</time>
      </trkpt>
      <trkpt lat="43.26214070431888" lon="-6.699672304093838">
        <ele>954.8</ele>
        <time>2017-08-06T10:26:53.000Z</time>
      </trkpt>
      <trkpt lat="43.26205068267882" lon="-6.69974816031754">
        <ele>954.6</ele>
        <time>2017-08-06T10:27:01.000Z</time>
      </trkpt>
      <trkpt lat="43.26196233741939" lon="-6.699827704578638">
        <ele>954.8</ele>
        <time>2017-08-06T10:27:09.000Z</time>
      </trkpt>
      <trkpt lat="43.26193543151021" lon="-6.699867015704513">
        <ele>955.8</ele>
        <time>2017-08-06T10:27:12.000Z</time>
      </trkpt>
      <trkpt lat="43.261909279972315" lon="-6.699900543317199">
        <ele>956.4</ele>
        <time>2017-08-06T10:27:15.000Z</time>
      </trkpt>
      <trkpt lat="43.26184750534594" lon="-6.699959468096495">
        <ele>957.2</ele>
        <time>2017-08-06T10:27:21.000Z</time>
      </trkpt>
      <trkpt lat="43.26175312511623" lon="-6.700079161673784">
        <ele>960</ele>
        <time>2017-08-06T10:27:31.000Z</time>
      </trkpt>
      <trkpt lat="43.26173895969987" lon="-6.700105397030711">
        <ele>960.6</ele>
        <time>2017-08-06T10:27:33.000Z</time>
      </trkpt>
      <trkpt lat="43.261705096811056" lon="-6.700146635994315">
        <ele>961.2</ele>
        <time>2017-08-06T10:27:37.000Z</time>
      </trkpt>
      <trkpt lat="43.261656146496534" lon="-6.700214361771941">
        <ele>962.4</ele>
        <time>2017-08-06T10:27:43.000Z</time>
      </trkpt>
      <trkpt lat="43.26159386895597" lon="-6.7003408446908">
        <ele>964.8</ele>
        <time>2017-08-06T10:27:53.000Z</time>
      </trkpt>
      <trkpt lat="43.261542320251465" lon="-6.700416700914502">
        <ele>964.4</ele>
        <time>2017-08-06T10:28:00.000Z</time>
      </trkpt>
      <trkpt lat="43.261487586423755" lon="-6.700516026467085">
        <ele>964.4</ele>
        <time>2017-08-06T10:28:08.000Z</time>
      </trkpt>
      <trkpt lat="43.26143863610923" lon="-6.700644856318831">
        <ele>965.2</ele>
        <time>2017-08-06T10:28:18.000Z</time>
      </trkpt>
      <trkpt lat="43.2614163402468" lon="-6.700705625116825">
        <ele>965.4</ele>
        <time>2017-08-06T10:28:23.000Z</time>
      </trkpt>
      <trkpt lat="43.26141214929521" lon="-6.7007258255034685">
        <ele>965.6</ele>
        <time>2017-08-06T10:28:25.000Z</time>
      </trkpt>
      <trkpt lat="43.261406030505896" lon="-6.700735883787274">
        <ele>965.6</ele>
        <time>2017-08-06T10:28:32.000Z</time>
      </trkpt>
      <trkpt lat="43.26139396056533" lon="-6.700797658413649">
        <ele>966.2</ele>
        <time>2017-08-06T10:28:58.000Z</time>
      </trkpt>
      <trkpt lat="43.261389350518584" lon="-6.7008112370967865">
        <ele>966.2</ele>
        <time>2017-08-06T10:28:59.000Z</time>
      </trkpt>
      <trkpt lat="43.26135339215398" lon="-6.700899330899119">
        <ele>966.6</ele>
        <time>2017-08-06T10:29:06.000Z</time>
      </trkpt>
      <trkpt lat="43.26133436523378" lon="-6.7009620275348425">
        <ele>967.6</ele>
        <time>2017-08-06T10:29:11.000Z</time>
      </trkpt>
      <trkpt lat="43.26132221147418" lon="-6.700998404994607">
        <ele>968.2</ele>
        <time>2017-08-06T10:29:14.000Z</time>
      </trkpt>
      <trkpt lat="43.261313661932945" lon="-6.7010951321572065">
        <ele>970.6</ele>
        <time>2017-08-06T10:29:21.000Z</time>
      </trkpt>
      <trkpt lat="43.261294048279524" lon="-6.701191607862711">
        <ele>972.8</ele>
        <time>2017-08-06T10:29:29.000Z</time>
      </trkpt>
      <trkpt lat="43.261277535930276" lon="-6.701249778270721">
        <ele>973.6</ele>
        <time>2017-08-06T10:29:35.000Z</time>
      </trkpt>
      <trkpt lat="43.261270159855485" lon="-6.701282970607281">
        <ele>974.2</ele>
        <time>2017-08-06T10:29:37.000Z</time>
      </trkpt>
      <trkpt lat="43.2612554077059" lon="-6.701355976983905">
        <ele>975.4</ele>
        <time>2017-08-06T10:29:44.000Z</time>
      </trkpt>
      <trkpt lat="43.26122933998704" lon="-6.701459912583232">
        <ele>977</ele>
        <time>2017-08-06T10:29:53.000Z</time>
      </trkpt>
      <trkpt lat="43.26117871329188" lon="-6.701564351096749">
        <ele>978</ele>
        <time>2017-08-06T10:30:03.000Z</time>
      </trkpt>
      <trkpt lat="43.26114099472761" lon="-6.70165722258389">
        <ele>979.2</ele>
        <time>2017-08-06T10:30:11.000Z</time>
      </trkpt>
      <trkpt lat="43.26112984679639" lon="-6.701688822358847">
        <ele>979.6</ele>
        <time>2017-08-06T10:30:14.000Z</time>
      </trkpt>
      <trkpt lat="43.26111878268421" lon="-6.701714973896742">
        <ele>980</ele>
        <time>2017-08-06T10:30:16.000Z</time>
      </trkpt>
      <trkpt lat="43.2611087244004" lon="-6.701738443225622">
        <ele>980.4</ele>
        <time>2017-08-06T10:30:18.000Z</time>
      </trkpt>
      <trkpt lat="43.26105977408588" lon="-6.701829889789224">
        <ele>982</ele>
        <time>2017-08-06T10:30:26.000Z</time>
      </trkpt>
      <trkpt lat="43.26105105690658" lon="-6.701835505664349">
        <ele>981.8</ele>
        <time>2017-08-06T10:30:27.000Z</time>
      </trkpt>
      <trkpt lat="43.26098006218672" lon="-6.7019168101251125">
        <ele>982.6</ele>
        <time>2017-08-06T10:30:36.000Z</time>
      </trkpt>
      <trkpt lat="43.2609258312732" lon="-6.702023176476359">
        <ele>984.8</ele>
        <time>2017-08-06T10:30:46.000Z</time>
      </trkpt>
      <trkpt lat="43.26087713241577" lon="-6.702084867283702">
        <ele>985.6</ele>
        <time>2017-08-06T10:30:53.000Z</time>
      </trkpt>
      <trkpt lat="43.260797169059515" lon="-6.702130129560828">
        <ele>985</ele>
        <time>2017-08-06T10:31:01.000Z</time>
      </trkpt>
      <trkpt lat="43.26076565310359" lon="-6.702157035470009">
        <ele>985</ele>
        <time>2017-08-06T10:31:04.000Z</time>
      </trkpt>
      <trkpt lat="43.260706728324294" lon="-6.702190730720758">
        <ele>984.6</ele>
        <time>2017-08-06T10:31:09.000Z</time>
      </trkpt>
      <trkpt lat="43.260601786896586" lon="-6.702279830351472">
        <ele>984.8</ele>
        <time>2017-08-06T10:31:19.000Z</time>
      </trkpt>
      <trkpt lat="43.26052869670093" lon="-6.702373456209898">
        <ele>985.4</ele>
        <time>2017-08-06T10:31:28.000Z</time>
      </trkpt>
      <trkpt lat="43.26046180911362" lon="-6.702476721256971">
        <ele>987.2</ele>
        <time>2017-08-06T10:31:37.000Z</time>
      </trkpt>
      <trkpt lat="43.26042174361646" lon="-6.7025830037891865">
        <ele>990</ele>
        <time>2017-08-06T10:31:46.000Z</time>
      </trkpt>
      <trkpt lat="43.26041269116104" lon="-6.702664727345109">
        <ele>991.6</ele>
        <time>2017-08-06T10:31:53.000Z</time>
      </trkpt>
      <trkpt lat="43.260409673675895" lon="-6.702674617990851">
        <ele>991.8</ele>
        <time>2017-08-06T10:31:54.000Z</time>
      </trkpt>
      <trkpt lat="43.26040891930461" lon="-6.7026937287300825">
        <ele>992.2</ele>
        <time>2017-08-06T10:31:56.000Z</time>
      </trkpt>
      <trkpt lat="43.26039760373533" lon="-6.702745528891683">
        <ele>993</ele>
        <time>2017-08-06T10:32:01.000Z</time>
      </trkpt>
      <trkpt lat="43.2603869587183" lon="-6.70281819999218">
        <ele>994.2</ele>
        <time>2017-08-06T10:32:08.000Z</time>
      </trkpt>
      <trkpt lat="43.26041889376938" lon="-6.702865054830909">
        <ele>994.6</ele>
        <time>2017-08-06T10:32:15.000Z</time>
      </trkpt>
      <trkpt lat="43.260408751666546" lon="-6.702910820022225">
        <ele>995.6</ele>
        <time>2017-08-06T10:32:20.000Z</time>
      </trkpt>
      <trkpt lat="43.26040397398174" lon="-6.702925069257617">
        <ele>995.8</ele>
        <time>2017-08-06T10:32:21.000Z</time>
      </trkpt>
      <trkpt lat="43.26041034422815" lon="-6.702957255765796">
        <ele>995.6</ele>
        <time>2017-08-06T10:32:25.000Z</time>
      </trkpt>
      <trkpt lat="43.26040497981012" lon="-6.702953651547432">
        <ele>995.8</ele>
        <time>2017-08-06T10:32:38.000Z</time>
      </trkpt>
      <trkpt lat="43.26039869338274" lon="-6.7029643803834915">
        <ele>996</ele>
        <time>2017-08-06T10:32:47.000Z</time>
      </trkpt>
      <trkpt lat="43.26039768755436" lon="-6.702969912439585">
        <ele>996</ele>
        <time>2017-08-06T10:33:46.000Z</time>
      </trkpt>
      <trkpt lat="43.260388718917966" lon="-6.702994555234909">
        <ele>996.2</ele>
        <time>2017-08-06T10:34:27.000Z</time>
      </trkpt>
      <trkpt lat="43.26037002727389" lon="-6.703073009848595">
        <ele>996.8</ele>
        <time>2017-08-06T10:34:47.000Z</time>
      </trkpt>
      <trkpt lat="43.26037094928324" lon="-6.703086504712701">
        <ele>996.8</ele>
        <time>2017-08-06T10:34:48.000Z</time>
      </trkpt>
      <trkpt lat="43.26037832535803" lon="-6.703097736462951">
        <ele>996.6</ele>
        <time>2017-08-06T10:34:50.000Z</time>
      </trkpt>
      <trkpt lat="43.26037765480578" lon="-6.703096060082316">
        <ele>996.6</ele>
        <time>2017-08-06T10:34:53.000Z</time>
      </trkpt>
      <trkpt lat="43.26034831814468" lon="-6.703131096437573">
        <ele>997.2</ele>
        <time>2017-08-06T10:35:27.000Z</time>
      </trkpt>
      <trkpt lat="43.260338846594095" lon="-6.703163785859942">
        <ele>996.8</ele>
        <time>2017-08-06T10:35:29.000Z</time>
      </trkpt>
      <trkpt lat="43.260248741135" lon="-6.703376350924373">
        <ele>995.2</ele>
        <time>2017-08-06T10:35:42.000Z</time>
      </trkpt>
      <trkpt lat="43.26023072004318" lon="-6.703425804153085">
        <ele>993.8</ele>
        <time>2017-08-06T10:35:48.000Z</time>
      </trkpt>
      <trkpt lat="43.26019543223083" lon="-6.703486824408174">
        <ele>992.2</ele>
        <time>2017-08-06T10:35:55.000Z</time>
      </trkpt>
      <trkpt lat="43.26013583689928" lon="-6.7035772651433945">
        <ele>990.4</ele>
        <time>2017-08-06T10:36:03.000Z</time>
      </trkpt>
      <trkpt lat="43.26006115414202" lon="-6.703653875738382">
        <ele>990.2</ele>
        <time>2017-08-06T10:36:11.000Z</time>
      </trkpt>
      <trkpt lat="43.25995411723852" lon="-6.703777089715004">
        <ele>990.6</ele>
        <time>2017-08-06T10:36:22.000Z</time>
      </trkpt>
      <trkpt lat="43.25982126407325" lon="-6.7039006389677525">
        <ele>992.2</ele>
        <time>2017-08-06T10:36:35.000Z</time>
      </trkpt>
      <trkpt lat="43.25974800623953" lon="-6.703981859609485">
        <ele>993</ele>
        <time>2017-08-06T10:36:43.000Z</time>
      </trkpt>
      <trkpt lat="43.25966812670231" lon="-6.704081436619163">
        <ele>994</ele>
        <time>2017-08-06T10:36:52.000Z</time>
      </trkpt>
      <trkpt lat="43.259572656825185" lon="-6.7041771579533815">
        <ele>994.8</ele>
        <time>2017-08-06T10:37:02.000Z</time>
      </trkpt>
      <trkpt lat="43.25950803235173" lon="-6.7042843624949455">
        <ele>994.2</ele>
        <time>2017-08-06T10:37:11.000Z</time>
      </trkpt>
      <trkpt lat="43.25944449752569" lon="-6.704412270337343">
        <ele>993</ele>
        <time>2017-08-06T10:37:21.000Z</time>
      </trkpt>
      <trkpt lat="43.25939554721117" lon="-6.7045028787106276">
        <ele>992.4</ele>
        <time>2017-08-06T10:37:28.000Z</time>
      </trkpt>
      <trkpt lat="43.25934525579214" lon="-6.704605305567384">
        <ele>990</ele>
        <time>2017-08-06T10:37:36.000Z</time>
      </trkpt>
      <trkpt lat="43.25930804014206" lon="-6.704702703282237">
        <ele>987.2</ele>
        <time>2017-08-06T10:37:44.000Z</time>
      </trkpt>
      <trkpt lat="43.259254144504666" lon="-6.704795993864536">
        <ele>985.4</ele>
        <time>2017-08-06T10:37:52.000Z</time>
      </trkpt>
      <trkpt lat="43.25919262133539" lon="-6.704900600016117">
        <ele>984</ele>
        <time>2017-08-06T10:38:01.000Z</time>
      </trkpt>
      <trkpt lat="43.25914056971669" lon="-6.704995650798082">
        <ele>982.6</ele>
        <time>2017-08-06T10:38:09.000Z</time>
      </trkpt>
      <trkpt lat="43.2590710837394" lon="-6.7051140032708645">
        <ele>981.4</ele>
        <time>2017-08-06T10:38:19.000Z</time>
      </trkpt>
      <trkpt lat="43.2590208761394" lon="-6.7051896918565035">
        <ele>981.2</ele>
        <time>2017-08-06T10:38:26.000Z</time>
      </trkpt>
      <trkpt lat="43.25901182368398" lon="-6.70520075596869">
        <ele>981.2</ele>
        <time>2017-08-06T10:38:27.000Z</time>
      </trkpt>
      <trkpt lat="43.25896262191236" lon="-6.705302344635129">
        <ele>980.2</ele>
        <time>2017-08-06T10:38:35.000Z</time>
      </trkpt>
      <trkpt lat="43.25894418172538" lon="-6.705360179767013">
        <ele>979.6</ele>
        <time>2017-08-06T10:38:39.000Z</time>
      </trkpt>
      <trkpt lat="43.25892808847129" lon="-6.705400412902236">
        <ele>979.6</ele>
        <time>2017-08-06T10:38:42.000Z</time>
      </trkpt>
      <trkpt lat="43.25887721031904" lon="-6.705503091216087">
        <ele>979.8</ele>
        <time>2017-08-06T10:38:50.000Z</time>
      </trkpt>
      <trkpt lat="43.25882105156779" lon="-6.7055669613182545">
        <ele>980.6</ele>
        <time>2017-08-06T10:38:56.000Z</time>
      </trkpt>
      <trkpt lat="43.25876070186496" lon="-6.705684140324593">
        <ele>980.8</ele>
        <time>2017-08-06T10:39:05.000Z</time>
      </trkpt>
      <trkpt lat="43.2586944848299" lon="-6.705819424241781">
        <ele>980</ele>
        <time>2017-08-06T10:39:15.000Z</time>
      </trkpt>
      <trkpt lat="43.25862265191972" lon="-6.705978848040104">
        <ele>979.8</ele>
        <time>2017-08-06T10:39:26.000Z</time>
      </trkpt>
      <trkpt lat="43.25856330804527" lon="-6.706104576587677">
        <ele>980.2</ele>
        <time>2017-08-06T10:39:35.000Z</time>
      </trkpt>
      <trkpt lat="43.25848183594644" lon="-6.70625377446413">
        <ele>979.6</ele>
        <time>2017-08-06T10:39:46.000Z</time>
      </trkpt>
      <trkpt lat="43.25839340686798" lon="-6.706407247111201">
        <ele>978</ele>
        <time>2017-08-06T10:39:57.000Z</time>
      </trkpt>
      <trkpt lat="43.258367255330086" lon="-6.706561306491494">
        <ele>976.8</ele>
        <time>2017-08-06T10:40:06.000Z</time>
      </trkpt>
      <trkpt lat="43.2583733741194" lon="-6.706702373921871">
        <ele>975</ele>
        <time>2017-08-06T10:40:14.000Z</time>
      </trkpt>
      <trkpt lat="43.25839223340154" lon="-6.706855511292815">
        <ele>973.6</ele>
        <time>2017-08-06T10:40:23.000Z</time>
      </trkpt>
      <trkpt lat="43.2584167085588" lon="-6.707006385549903">
        <ele>971.4</ele>
        <time>2017-08-06T10:40:32.000Z</time>
      </trkpt>
      <trkpt lat="43.258446380496025" lon="-6.707137478515506">
        <ele>969.8</ele>
        <time>2017-08-06T10:40:40.000Z</time>
      </trkpt>
      <trkpt lat="43.25845744460821" lon="-6.707167150452733">
        <ele>969.2</ele>
        <time>2017-08-06T10:40:42.000Z</time>
      </trkpt>
      <trkpt lat="43.2584909722209" lon="-6.7072828207165">
        <ele>967.2</ele>
        <time>2017-08-06T10:40:49.000Z</time>
      </trkpt>
      <trkpt lat="43.25850899331272" lon="-6.707419864833355">
        <ele>965.2</ele>
        <time>2017-08-06T10:40:57.000Z</time>
      </trkpt>
      <trkpt lat="43.25850513763726" lon="-6.707603931427002">
        <ele>963.4</ele>
        <time>2017-08-06T10:41:07.000Z</time>
      </trkpt>
      <trkpt lat="43.25848267413676" lon="-6.707766456529498">
        <ele>961.8</ele>
        <time>2017-08-06T10:41:16.000Z</time>
      </trkpt>
      <trkpt lat="43.258470101282" lon="-6.7078502755612135">
        <ele>960.8</ele>
        <time>2017-08-06T10:41:21.000Z</time>
      </trkpt>
      <trkpt lat="43.25845300219953" lon="-6.707895873114467">
        <ele>960.2</ele>
        <time>2017-08-06T10:41:24.000Z</time>
      </trkpt>
      <trkpt lat="43.258380414918065" lon="-6.708037359640002">
        <ele>958.2</ele>
        <time>2017-08-06T10:41:34.000Z</time>
      </trkpt>
      <trkpt lat="43.25831436552107" lon="-6.708178175613284">
        <ele>956.2</ele>
        <time>2017-08-06T10:41:44.000Z</time>
      </trkpt>
      <trkpt lat="43.25827840715647" lon="-6.708289487287402">
        <ele>954.4</ele>
        <time>2017-08-06T10:41:51.000Z</time>
      </trkpt>
      <trkpt lat="43.25821093283594" lon="-6.708408845588565">
        <ele>953</ele>
        <time>2017-08-06T10:41:59.000Z</time>
      </trkpt>
      <trkpt lat="43.258166424930096" lon="-6.708536501973867">
        <ele>951.8</ele>
        <time>2017-08-06T10:42:07.000Z</time>
      </trkpt>
      <trkpt lat="43.25815837830305" lon="-6.708563910797238">
        <ele>951.6</ele>
        <time>2017-08-06T10:42:09.000Z</time>
      </trkpt>
      <trkpt lat="43.25812744908035" lon="-6.708617890253663">
        <ele>951.4</ele>
        <time>2017-08-06T10:42:13.000Z</time>
      </trkpt>
      <trkpt lat="43.258086210116744" lon="-6.708703888580203">
        <ele>951</ele>
        <time>2017-08-06T10:42:19.000Z</time>
      </trkpt>
      <trkpt lat="43.25803969055414" lon="-6.708821905776858">
        <ele>950</ele>
        <time>2017-08-06T10:42:27.000Z</time>
      </trkpt>
      <trkpt lat="43.25800783932209" lon="-6.708925338461995">
        <ele>948.8</ele>
        <time>2017-08-06T10:42:34.000Z</time>
      </trkpt>
      <trkpt lat="43.25800457037985" lon="-6.708941515535116">
        <ele>948.6</ele>
        <time>2017-08-06T10:42:35.000Z</time>
      </trkpt>
      <trkpt lat="43.25799166224897" lon="-6.70898518525064">
        <ele>947.8</ele>
        <time>2017-08-06T10:42:38.000Z</time>
      </trkpt>
      <trkpt lat="43.25798596255481" lon="-6.709027262404561">
        <ele>946.8</ele>
        <time>2017-08-06T10:42:41.000Z</time>
      </trkpt>
      <trkpt lat="43.25798478908837" lon="-6.709079733118415">
        <ele>945.2</ele>
        <time>2017-08-06T10:42:45.000Z</time>
      </trkpt>
      <trkpt lat="43.25798822566867" lon="-6.709108483046293">
        <ele>944.4</ele>
        <time>2017-08-06T10:42:47.000Z</time>
      </trkpt>
      <trkpt lat="43.2579899020493" lon="-6.709120888262987">
        <ele>944</ele>
        <time>2017-08-06T10:42:48.000Z</time>
      </trkpt>
      <trkpt lat="43.257969031110406" lon="-6.70919531956315">
        <ele>942.2</ele>
        <time>2017-08-06T10:42:53.000Z</time>
      </trkpt>
      <trkpt lat="43.25791597366333" lon="-6.709331190213561">
        <ele>940.6</ele>
        <time>2017-08-06T10:43:02.000Z</time>
      </trkpt>
      <trkpt lat="43.25786375440657" lon="-6.709476951509714">
        <ele>938.6</ele>
        <time>2017-08-06T10:43:11.000Z</time>
      </trkpt>
      <trkpt lat="43.25782008469105" lon="-6.709599746391177">
        <ele>937.4</ele>
        <time>2017-08-06T10:43:19.000Z</time>
      </trkpt>
      <trkpt lat="43.257799381390214" lon="-6.70975623652339">
        <ele>934.8</ele>
        <time>2017-08-06T10:43:28.000Z</time>
      </trkpt>
      <trkpt lat="43.25779904611409" lon="-6.70989696867764">
        <ele>932.8</ele>
        <time>2017-08-06T10:43:36.000Z</time>
      </trkpt>
      <trkpt lat="43.257793514057994" lon="-6.709996545687318">
        <ele>931.4</ele>
        <time>2017-08-06T10:43:42.000Z</time>
      </trkpt>
      <trkpt lat="43.257795022800565" lon="-6.710013225674629">
        <ele>931.2</ele>
        <time>2017-08-06T10:43:43.000Z</time>
      </trkpt>
      <trkpt lat="43.25779720209539" lon="-6.7101373616606">
        <ele>930</ele>
        <time>2017-08-06T10:43:51.000Z</time>
      </trkpt>
      <trkpt lat="43.25779234059155" lon="-6.710250768810511">
        <ele>929.2</ele>
        <time>2017-08-06T10:43:59.000Z</time>
      </trkpt>
      <trkpt lat="43.257800387218595" lon="-6.71035529114306">
        <ele>928.2</ele>
        <time>2017-08-06T10:44:06.000Z</time>
      </trkpt>
      <trkpt lat="43.25781052932143" lon="-6.710505243390799">
        <ele>928.4</ele>
        <time>2017-08-06T10:44:16.000Z</time>
      </trkpt>
      <trkpt lat="43.25781907886267" lon="-6.710585877299309">
        <ele>927.2</ele>
        <time>2017-08-06T10:44:21.000Z</time>
      </trkpt>
      <trkpt lat="43.25782394036651" lon="-6.710618734359741">
        <ele>926.6</ele>
        <time>2017-08-06T10:44:23.000Z</time>
      </trkpt>
      <trkpt lat="43.25783098116517" lon="-6.71080238185823">
        <ele>925.8</ele>
        <time>2017-08-06T10:44:34.000Z</time>
      </trkpt>
      <trkpt lat="43.2578347530216" lon="-6.710932468995452">
        <ele>923.8</ele>
        <time>2017-08-06T10:44:42.000Z</time>
      </trkpt>
      <trkpt lat="43.257839027792215" lon="-6.7111122608184814">
        <ele>923.2</ele>
        <time>2017-08-06T10:44:53.000Z</time>
      </trkpt>
      <trkpt lat="43.2578503433615" lon="-6.711254417896271">
        <ele>922.2</ele>
        <time>2017-08-06T10:45:01.000Z</time>
      </trkpt>
      <trkpt lat="43.25787540525198" lon="-6.71142247505486">
        <ele>920.6</ele>
        <time>2017-08-06T10:45:11.000Z</time>
      </trkpt>
      <trkpt lat="43.25789694674313" lon="-6.7115389835089445">
        <ele>918.2</ele>
        <time>2017-08-06T10:45:18.000Z</time>
      </trkpt>
      <trkpt lat="43.25791781768203" lon="-6.71167217195034">
        <ele>915.6</ele>
        <time>2017-08-06T10:45:26.000Z</time>
      </trkpt>
      <trkpt lat="43.25792519375682" lon="-6.711805360391736">
        <ele>913.6</ele>
        <time>2017-08-06T10:45:34.000Z</time>
      </trkpt>
      <trkpt lat="43.257915219292045" lon="-6.7119386326521635">
        <ele>912.6</ele>
        <time>2017-08-06T10:45:42.000Z</time>
      </trkpt>
      <trkpt lat="43.25790440663695" lon="-6.7120717372745275">
        <ele>912.2</ele>
        <time>2017-08-06T10:45:50.000Z</time>
      </trkpt>
      <trkpt lat="43.257904490455985" lon="-6.712171817198396">
        <ele>911</ele>
        <time>2017-08-06T10:45:56.000Z</time>
      </trkpt>
      <trkpt lat="43.25790910050273" lon="-6.712280781939626">
        <ele>909.2</ele>
        <time>2017-08-06T10:46:03.000Z</time>
      </trkpt>
      <trkpt lat="43.25790977105498" lon="-6.712404498830438">
        <ele>907.6</ele>
        <time>2017-08-06T10:46:11.000Z</time>
      </trkpt>
      <trkpt lat="43.257906418293715" lon="-6.712517403066158">
        <ele>906.2</ele>
        <time>2017-08-06T10:46:18.000Z</time>
      </trkpt>
      <trkpt lat="43.257902478799224" lon="-6.712621925398707">
        <ele>905.4</ele>
        <time>2017-08-06T10:46:25.000Z</time>
      </trkpt>
      <trkpt lat="43.25790314935148" lon="-6.712733656167984">
        <ele>904.2</ele>
        <time>2017-08-06T10:46:32.000Z</time>
      </trkpt>
      <trkpt lat="43.25790708884597" lon="-6.712863072752953">
        <ele>902.8</ele>
        <time>2017-08-06T10:46:40.000Z</time>
      </trkpt>
      <trkpt lat="43.257912788540125" lon="-6.712992154061794">
        <ele>903.2</ele>
        <time>2017-08-06T10:46:48.000Z</time>
      </trkpt>
      <trkpt lat="43.25791656039655" lon="-6.713138250634074">
        <ele>904.4</ele>
        <time>2017-08-06T10:46:57.000Z</time>
      </trkpt>
      <trkpt lat="43.257922092452645" lon="-6.713267080485821">
        <ele>904.6</ele>
        <time>2017-08-06T10:47:05.000Z</time>
      </trkpt>
      <trkpt lat="43.257919577881694" lon="-6.713404795154929">
        <ele>905.6</ele>
        <time>2017-08-06T10:47:13.000Z</time>
      </trkpt>
      <trkpt lat="43.25791991315782" lon="-6.7134232353419065">
        <ele>905.6</ele>
        <time>2017-08-06T10:47:14.000Z</time>
      </trkpt>
      <trkpt lat="43.25792343355715" lon="-6.7135130893439054">
        <ele>904.8</ele>
        <time>2017-08-06T10:47:19.000Z</time>
      </trkpt>
      <trkpt lat="43.25793508440256" lon="-6.713671088218689">
        <ele>903</ele>
        <time>2017-08-06T10:47:28.000Z</time>
      </trkpt>
      <trkpt lat="43.25796375051141" lon="-6.713824141770601">
        <ele>900</ele>
        <time>2017-08-06T10:47:37.000Z</time>
      </trkpt>
      <trkpt lat="43.25799660757184" lon="-6.713957916945219">
        <ele>896.4</ele>
        <time>2017-08-06T10:47:45.000Z</time>
      </trkpt>
      <trkpt lat="43.25803122483194" lon="-6.714074341580272">
        <ele>894</ele>
        <time>2017-08-06T10:47:52.000Z</time>
      </trkpt>
      <trkpt lat="43.25807095505297" lon="-6.714214822277427">
        <ele>892.4</ele>
        <time>2017-08-06T10:48:00.000Z</time>
      </trkpt>
      <trkpt lat="43.258109260350466" lon="-6.714389668777585">
        <ele>889.2</ele>
        <time>2017-08-06T10:48:10.000Z</time>
      </trkpt>
      <trkpt lat="43.258120911195874" lon="-6.71453895047307">
        <ele>889</ele>
        <time>2017-08-06T10:48:18.000Z</time>
      </trkpt>
      <trkpt lat="43.258120911195874" lon="-6.714680353179574">
        <ele>888.2</ele>
        <time>2017-08-06T10:48:26.000Z</time>
      </trkpt>
      <trkpt lat="43.258111607283354" lon="-6.714706253260374">
        <ele>888.6</ele>
        <time>2017-08-06T10:48:32.000Z</time>
      </trkpt>
      <trkpt lat="43.25811227783561" lon="-6.7147202510386705">
        <ele>888.6</ele>
        <time>2017-08-06T10:48:33.000Z</time>
      </trkpt>
      <trkpt lat="43.25811395421624" lon="-6.714799627661705">
        <ele>888.6</ele>
        <time>2017-08-06T10:48:38.000Z</time>
      </trkpt>
      <trkpt lat="43.25812594033778" lon="-6.714945891872048">
        <ele>888.2</ele>
        <time>2017-08-06T10:48:46.000Z</time>
      </trkpt>
      <trkpt lat="43.25814723037183" lon="-6.715104477480054">
        <ele>888.6</ele>
        <time>2017-08-06T10:48:55.000Z</time>
      </trkpt>
      <trkpt lat="43.25815988704562" lon="-6.715254262089729">
        <ele>889</ele>
        <time>2017-08-06T10:49:03.000Z</time>
      </trkpt>
      <trkpt lat="43.25815343298018" lon="-6.715404968708754">
        <ele>888.8</ele>
        <time>2017-08-06T10:49:11.000Z</time>
      </trkpt>
      <trkpt lat="43.25811672024429" lon="-6.7155687510967255">
        <ele>888.2</ele>
        <time>2017-08-06T10:49:20.000Z</time>
      </trkpt>
      <trkpt lat="43.25809467583895" lon="-6.715733204036951">
        <ele>886.6</ele>
        <time>2017-08-06T10:49:29.000Z</time>
      </trkpt>
      <trkpt lat="43.25807573273778" lon="-6.715895142406225">
        <ele>885.6</ele>
        <time>2017-08-06T10:49:38.000Z</time>
      </trkpt>
      <trkpt lat="43.25808562338352" lon="-6.716023972257972">
        <ele>884.8</ele>
        <time>2017-08-06T10:49:45.000Z</time>
      </trkpt>
      <trkpt lat="43.258082857355475" lon="-6.716183731332421">
        <ele>883.6</ele>
        <time>2017-08-06T10:49:54.000Z</time>
      </trkpt>
      <trkpt lat="43.258092161267996" lon="-6.716361176222563">
        <ele>881.2</ele>
        <time>2017-08-06T10:50:04.000Z</time>
      </trkpt>
      <trkpt lat="43.25809073634446" lon="-6.716508697718382">
        <ele>879</ele>
        <time>2017-08-06T10:50:13.000Z</time>
      </trkpt>
      <trkpt lat="43.258100459352136" lon="-6.716643646359444">
        <ele>877.4</ele>
        <time>2017-08-06T10:50:21.000Z</time>
      </trkpt>
      <trkpt lat="43.25808595865965" lon="-6.716798292472959">
        <ele>874.8</ele>
        <time>2017-08-06T10:50:30.000Z</time>
      </trkpt>
      <trkpt lat="43.258075565099716" lon="-6.716921254992485">
        <ele>872.6</ele>
        <time>2017-08-06T10:50:38.000Z</time>
      </trkpt>
      <trkpt lat="43.258076906204224" lon="-6.716999625787139">
        <ele>871.4</ele>
        <time>2017-08-06T10:51:02.000Z</time>
      </trkpt>
      <trkpt lat="43.25806684792042" lon="-6.717045810073614">
        <ele>870.6</ele>
        <time>2017-08-06T10:51:08.000Z</time>
      </trkpt>
      <trkpt lat="43.2580712903291" lon="-6.717071961611509">
        <ele>870.4</ele>
        <time>2017-08-06T10:51:13.000Z</time>
      </trkpt>
      <trkpt lat="43.25806902721524" lon="-6.717138094827533">
        <ele>869.6</ele>
        <time>2017-08-06T10:51:22.000Z</time>
      </trkpt>
      <trkpt lat="43.2580575440079" lon="-6.717248735949397">
        <ele>868</ele>
        <time>2017-08-06T10:51:30.000Z</time>
      </trkpt>
      <trkpt lat="43.25804832391441" lon="-6.717362562194467">
        <ele>866.4</ele>
        <time>2017-08-06T10:51:38.000Z</time>
      </trkpt>
      <trkpt lat="43.258051089942455" lon="-6.717367256060243">
        <ele>866.4</ele>
        <time>2017-08-06T10:51:43.000Z</time>
      </trkpt>
      <trkpt lat="43.25803575105965" lon="-6.717434981837869">
        <ele>865.4</ele>
        <time>2017-08-06T10:51:51.000Z</time>
      </trkpt>
      <trkpt lat="43.25798973441124" lon="-6.717561883851886">
        <ele>863</ele>
        <time>2017-08-06T10:51:59.000Z</time>
      </trkpt>
      <trkpt lat="43.2579571288079" lon="-6.717695323750377">
        <ele>861</ele>
        <time>2017-08-06T10:52:07.000Z</time>
      </trkpt>
      <trkpt lat="43.257915219292045" lon="-6.717823650687933">
        <ele>858.8</ele>
        <time>2017-08-06T10:52:15.000Z</time>
      </trkpt>
      <trkpt lat="43.25788135640323" lon="-6.717949127778411">
        <ele>857.2</ele>
        <time>2017-08-06T10:52:23.000Z</time>
      </trkpt>
      <trkpt lat="43.25785579159856" lon="-6.7180658876895905">
        <ele>855.2</ele>
        <time>2017-08-06T10:52:31.000Z</time>
      </trkpt>
      <trkpt lat="43.257837602868676" lon="-6.718177115544677">
        <ele>853.8</ele>
        <time>2017-08-06T10:52:39.000Z</time>
      </trkpt>
      <trkpt lat="43.25784279964864" lon="-6.718210307881236">
        <ele>853.6</ele>
        <time>2017-08-06T10:52:45.000Z</time>
      </trkpt>
      <trkpt lat="43.25784430839121" lon="-6.718238051980734">
        <ele>853.4</ele>
        <time>2017-08-06T10:52:51.000Z</time>
      </trkpt>
      <trkpt lat="43.257846822962165" lon="-6.718255737796426">
        <ele>853.4</ele>
        <time>2017-08-06T10:53:40.000Z</time>
      </trkpt>
      <trkpt lat="43.25787582434714" lon="-6.718301586806774">
        <ele>853.4</ele>
        <time>2017-08-06T10:53:54.000Z</time>
      </trkpt>
      <trkpt lat="43.25794287957251" lon="-6.718412060290575">
        <ele>853</ele>
        <time>2017-08-06T10:54:04.000Z</time>
      </trkpt>
      <trkpt lat="43.257978335022926" lon="-6.718466961756349">
        <ele>852.8</ele>
        <time>2017-08-06T10:54:11.000Z</time>
      </trkpt>
      <trkpt lat="43.25800540857017" lon="-6.718528987839818">
        <ele>852</ele>
        <time>2017-08-06T10:54:18.000Z</time>
      </trkpt>
      <trkpt lat="43.258044216781855" lon="-6.718667456880212">
        <ele>849.8</ele>
        <time>2017-08-06T10:54:27.000Z</time>
      </trkpt>
      <trkpt lat="43.25805528089404" lon="-6.718823276460171">
        <ele>849.8</ele>
        <time>2017-08-06T10:54:37.000Z</time>
      </trkpt>
      <trkpt lat="43.25804346241057" lon="-6.7189111188054085">
        <ele>849.8</ele>
        <time>2017-08-06T10:54:43.000Z</time>
      </trkpt>
      <trkpt lat="43.25803801417351" lon="-6.71894297003746">
        <ele>849.6</ele>
        <time>2017-08-06T10:54:45.000Z</time>
      </trkpt>
      <trkpt lat="43.258033487945795" lon="-6.718957806006074">
        <ele>849.6</ele>
        <time>2017-08-06T10:54:46.000Z</time>
      </trkpt>
      <trkpt lat="43.25801060535014" lon="-6.719029303640127">
        <ele>849.6</ele>
        <time>2017-08-06T10:54:51.000Z</time>
      </trkpt>
      <trkpt lat="43.25799233280122" lon="-6.719162492081523">
        <ele>849.2</ele>
        <time>2017-08-06T10:54:59.000Z</time>
      </trkpt>
      <trkpt lat="43.258004151284695" lon="-6.719310516491532">
        <ele>848.4</ele>
        <time>2017-08-06T10:55:08.000Z</time>
      </trkpt>
      <trkpt lat="43.258035415783525" lon="-6.719471365213394">
        <ele>847.2</ele>
        <time>2017-08-06T10:55:18.000Z</time>
      </trkpt>
      <trkpt lat="43.25804748572409" lon="-6.719622071832418">
        <ele>844.4</ele>
        <time>2017-08-06T10:55:27.000Z</time>
      </trkpt>
      <trkpt lat="43.25804413296282" lon="-6.719761379063129">
        <ele>842.4</ele>
        <time>2017-08-06T10:55:35.000Z</time>
      </trkpt>
      <trkpt lat="43.25804052874446" lon="-6.7198974173516035">
        <ele>842</ele>
        <time>2017-08-06T10:55:43.000Z</time>
      </trkpt>
      <trkpt lat="43.2580451387912" lon="-6.719921305775642">
        <ele>842.2</ele>
        <time>2017-08-06T10:55:45.000Z</time>
      </trkpt>
      <trkpt lat="43.25804061256349" lon="-6.71992801129818">
        <ele>842</ele>
        <time>2017-08-06T10:55:48.000Z</time>
      </trkpt>
      <trkpt lat="43.25803868472576" lon="-6.7199632152915">
        <ele>841.8</ele>
        <time>2017-08-06T10:55:53.000Z</time>
      </trkpt>
      <trkpt lat="43.258031476289034" lon="-6.719988361001015">
        <ele>841.6</ele>
        <time>2017-08-06T10:55:55.000Z</time>
      </trkpt>
      <trkpt lat="43.25801747851074" lon="-6.72005700878799">
        <ele>841</ele>
        <time>2017-08-06T10:55:59.000Z</time>
      </trkpt>
      <trkpt lat="43.25800155289471" lon="-6.720190783962607">
        <ele>841.8</ele>
        <time>2017-08-06T10:56:06.000Z</time>
      </trkpt>
      <trkpt lat="43.25797649100423" lon="-6.720320200547576">
        <ele>842.4</ele>
        <time>2017-08-06T10:56:14.000Z</time>
      </trkpt>
      <trkpt lat="43.25795494951308" lon="-6.720385579392314">
        <ele>842.6</ele>
        <time>2017-08-06T10:56:18.000Z</time>
      </trkpt>
      <trkpt lat="43.25795126147568" lon="-6.720399912446737">
        <ele>842.6</ele>
        <time>2017-08-06T10:56:19.000Z</time>
      </trkpt>
      <trkpt lat="43.25793265365064" lon="-6.720486916601658">
        <ele>843.4</ele>
        <time>2017-08-06T10:56:25.000Z</time>
      </trkpt>
      <trkpt lat="43.25790465809405" lon="-6.7205706518143415">
        <ele>843.8</ele>
        <time>2017-08-06T10:56:32.000Z</time>
      </trkpt>
      <trkpt lat="43.25790088623762" lon="-6.720581296831369">
        <ele>843.8</ele>
        <time>2017-08-06T10:56:33.000Z</time>
      </trkpt>
      <trkpt lat="43.25785503722727" lon="-6.720669725909829">
        <ele>843.2</ele>
        <time>2017-08-06T10:56:40.000Z</time>
      </trkpt>
      <trkpt lat="43.25785445049405" lon="-6.7206778563559055">
        <ele>843.4</ele>
        <time>2017-08-06T10:56:41.000Z</time>
      </trkpt>
      <trkpt lat="43.25785336084664" lon="-6.720680370926857">
        <ele>843.4</ele>
        <time>2017-08-06T10:56:45.000Z</time>
      </trkpt>
      <trkpt lat="43.25783014297485" lon="-6.720746923238039">
        <ele>843.2</ele>
        <time>2017-08-06T10:56:57.000Z</time>
      </trkpt>
      <trkpt lat="43.2577879820019" lon="-6.720894193276763">
        <ele>843.8</ele>
        <time>2017-08-06T10:57:06.000Z</time>
      </trkpt>
      <trkpt lat="43.25775068253279" lon="-6.721020005643368">
        <ele>843.8</ele>
        <time>2017-08-06T10:57:14.000Z</time>
      </trkpt>
      <trkpt lat="43.25770139694214" lon="-6.721144812181592">
        <ele>843.2</ele>
        <time>2017-08-06T10:57:23.000Z</time>
      </trkpt>
      <trkpt lat="43.257692428305745" lon="-6.721135256811976">
        <ele>842.6</ele>
        <time>2017-08-06T10:57:45.000Z</time>
      </trkpt>
      <trkpt lat="43.2576756644994" lon="-6.721135508269072">
        <ele>841.8</ele>
        <time>2017-08-06T10:58:44.000Z</time>
      </trkpt>
      <trkpt lat="43.257672814652324" lon="-6.721136597916484">
        <ele>841.6</ele>
        <time>2017-08-06T10:58:46.000Z</time>
      </trkpt>
      <trkpt lat="43.25766577385366" lon="-6.721212454140186">
        <ele>841.8</ele>
        <time>2017-08-06T10:59:25.000Z</time>
      </trkpt>
      <trkpt lat="43.25760433450341" lon="-6.721363579854369">
        <ele>840.2</ele>
        <time>2017-08-06T10:59:30.000Z</time>
      </trkpt>
      <trkpt lat="43.257531160488725" lon="-6.721595171838999">
        <ele>840.2</ele>
        <time>2017-08-06T10:59:36.000Z</time>
      </trkpt>
      <trkpt lat="43.25750760734081" lon="-6.721669854596257">
        <ele>840.4</ele>
        <time>2017-08-06T10:59:38.000Z</time>
      </trkpt>
      <trkpt lat="43.25745949521661" lon="-6.721819555386901">
        <ele>841.4</ele>
        <time>2017-08-06T10:59:42.000Z</time>
      </trkpt>
      <trkpt lat="43.257393864914775" lon="-6.72202181071043">
        <ele>843.8</ele>
        <time>2017-08-06T10:59:47.000Z</time>
      </trkpt>
      <trkpt lat="43.25734030455351" lon="-6.7222019378095865">
        <ele>846.6</ele>
        <time>2017-08-06T10:59:52.000Z</time>
      </trkpt>
      <trkpt lat="43.25728909112513" lon="-6.722296318039298">
        <ele>847.4</ele>
        <time>2017-08-06T10:59:58.000Z</time>
      </trkpt>
      <trkpt lat="43.257211642339826" lon="-6.72238047234714">
        <ele>848.4</ele>
        <time>2017-08-06T11:00:06.000Z</time>
      </trkpt>
      <trkpt lat="43.2571835629642" lon="-6.722384328022599">
        <ele>847.8</ele>
        <time>2017-08-06T11:00:09.000Z</time>
      </trkpt>
      <trkpt lat="43.25714643113315" lon="-6.722388686612248">
        <ele>847.2</ele>
        <time>2017-08-06T11:00:13.000Z</time>
      </trkpt>
      <trkpt lat="43.25714332982898" lon="-6.722392961382866">
        <ele>847.2</ele>
        <time>2017-08-06T11:00:14.000Z</time>
      </trkpt>
      <trkpt lat="43.257108544930816" lon="-6.722407964989543">
        <ele>847.8</ele>
        <time>2017-08-06T11:00:19.000Z</time>
      </trkpt>
      <trkpt lat="43.25704978778958" lon="-6.722419364377856">
        <ele>848</ele>
        <time>2017-08-06T11:00:28.000Z</time>
      </trkpt>
      <trkpt lat="43.25699966400862" lon="-6.722419364377856">
        <ele>847.8</ele>
        <time>2017-08-06T11:00:35.000Z</time>
      </trkpt>
      <trkpt lat="43.25691467151046" lon="-6.722396146506071">
        <ele>846.2</ele>
        <time>2017-08-06T11:00:43.000Z</time>
      </trkpt>
      <trkpt lat="43.25684770010412" lon="-6.722388016059995">
        <ele>846</ele>
        <time>2017-08-06T11:00:49.000Z</time>
      </trkpt>
      <trkpt lat="43.25676463544369" lon="-6.722372258082032">
        <ele>846.4</ele>
        <time>2017-08-06T11:00:57.000Z</time>
      </trkpt>
      <trkpt lat="43.25668366625905" lon="-6.722355913370848">
        <ele>846.8</ele>
        <time>2017-08-06T11:01:05.000Z</time>
      </trkpt>
      <trkpt lat="43.25660261325538" lon="-6.722359601408243">
        <ele>848.2</ele>
        <time>2017-08-06T11:01:12.000Z</time>
      </trkpt>
      <trkpt lat="43.25659180060029" lon="-6.722356667742133">
        <ele>848.2</ele>
        <time>2017-08-06T11:01:13.000Z</time>
      </trkpt>
      <trkpt lat="43.25653840787709" lon="-6.722349375486374">
        <ele>849</ele>
        <time>2017-08-06T11:01:18.000Z</time>
      </trkpt>
      <trkpt lat="43.256446961313486" lon="-6.722325989976525">
        <ele>848.8</ele>
        <time>2017-08-06T11:01:26.000Z</time>
      </trkpt>
      <trkpt lat="43.25632852502167" lon="-6.722275950014591">
        <ele>847.6</ele>
        <time>2017-08-06T11:01:36.000Z</time>
      </trkpt>
      <trkpt lat="43.25623355805874" lon="-6.722247954457998">
        <ele>847.4</ele>
        <time>2017-08-06T11:01:44.000Z</time>
      </trkpt>
      <trkpt lat="43.256156109273434" lon="-6.722226412966847">
        <ele>847.2</ele>
        <time>2017-08-06T11:01:51.000Z</time>
      </trkpt>
      <trkpt lat="43.256077989935875" lon="-6.722218533977866">
        <ele>848</ele>
        <time>2017-08-06T11:01:57.000Z</time>
      </trkpt>
      <trkpt lat="43.256025770679116" lon="-6.722197998315096">
        <ele>848</ele>
        <time>2017-08-06T11:02:02.000Z</time>
      </trkpt>
      <trkpt lat="43.25596475042403" lon="-6.722167991101742">
        <ele>847.4</ele>
        <time>2017-08-06T11:02:09.000Z</time>
      </trkpt>
      <trkpt lat="43.255883948877454" lon="-6.722126752138138">
        <ele>846</ele>
        <time>2017-08-06T11:02:16.000Z</time>
      </trkpt>
      <trkpt lat="43.25577976182103" lon="-6.722085680812597">
        <ele>843.8</ele>
        <time>2017-08-06T11:02:24.000Z</time>
      </trkpt>
      <trkpt lat="43.25568211264908" lon="-6.722089285030961">
        <ele>843.2</ele>
        <time>2017-08-06T11:02:32.000Z</time>
      </trkpt>
      <trkpt lat="43.2555933482945" lon="-6.722098840400577">
        <ele>843.2</ele>
        <time>2017-08-06T11:02:39.000Z</time>
      </trkpt>
      <trkpt lat="43.25548404827714" lon="-6.722121136263013">
        <ele>843.4</ele>
        <time>2017-08-06T11:02:48.000Z</time>
      </trkpt>
      <trkpt lat="43.25535831972957" lon="-6.722168913111091">
        <ele>845.2</ele>
        <time>2017-08-06T11:02:58.000Z</time>
      </trkpt>
      <trkpt lat="43.255242398008704" lon="-6.722240578383207">
        <ele>848</ele>
        <time>2017-08-06T11:03:08.000Z</time>
      </trkpt>
      <trkpt lat="43.255160339176655" lon="-6.7222988326102495">
        <ele>849.2</ele>
        <time>2017-08-06T11:03:15.000Z</time>
      </trkpt>
      <trkpt lat="43.25508775189519" lon="-6.7223589308559895">
        <ele>849.6</ele>
        <time>2017-08-06T11:03:22.000Z</time>
      </trkpt>
      <trkpt lat="43.254997646436095" lon="-6.722433194518089">
        <ele>850</ele>
        <time>2017-08-06T11:03:31.000Z</time>
      </trkpt>
      <trkpt lat="43.25493302196264" lon="-6.722497902810574">
        <ele>850.8</ele>
        <time>2017-08-06T11:03:38.000Z</time>
      </trkpt>
      <trkpt lat="43.25484526343644" lon="-6.722599910572171">
        <ele>849.6</ele>
        <time>2017-08-06T11:03:48.000Z</time>
      </trkpt>
      <trkpt lat="43.25475507415831" lon="-6.7227214481681585">
        <ele>848.2</ele>
        <time>2017-08-06T11:03:58.000Z</time>
      </trkpt>
      <trkpt lat="43.254665387794375" lon="-6.722845332697034">
        <ele>846.8</ele>
        <time>2017-08-06T11:04:08.000Z</time>
      </trkpt>
      <trkpt lat="43.25458341278136" lon="-6.722968211397529">
        <ele>846.8</ele>
        <time>2017-08-06T11:04:17.000Z</time>
      </trkpt>
      <trkpt lat="43.25450386852026" lon="-6.723112380132079">
        <ele>847.8</ele>
        <time>2017-08-06T11:04:27.000Z</time>
      </trkpt>
      <trkpt lat="43.254434717819095" lon="-6.723248418420553">
        <ele>847.4</ele>
        <time>2017-08-06T11:04:37.000Z</time>
      </trkpt>
      <trkpt lat="43.25436405837536" lon="-6.723392838612199">
        <ele>847.2</ele>
        <time>2017-08-06T11:04:47.000Z</time>
      </trkpt>
      <trkpt lat="43.25431762263179" lon="-6.723516304045916">
        <ele>846.4</ele>
        <time>2017-08-06T11:04:55.000Z</time>
      </trkpt>
      <trkpt lat="43.25426800176501" lon="-6.723654605448246">
        <ele>845.6</ele>
        <time>2017-08-06T11:05:04.000Z</time>
      </trkpt>
      <trkpt lat="43.25422089546919" lon="-6.723794834688306">
        <ele>844.6</ele>
        <time>2017-08-06T11:05:13.000Z</time>
      </trkpt>
      <trkpt lat="43.25417311862111" lon="-6.723940344527364">
        <ele>843.2</ele>
        <time>2017-08-06T11:05:22.000Z</time>
      </trkpt>
      <trkpt lat="43.254132801666856" lon="-6.724054338410497">
        <ele>842.8</ele>
        <time>2017-08-06T11:05:29.000Z</time>
      </trkpt>
      <trkpt lat="43.25409131124616" lon="-6.724228681996465">
        <ele>843.4</ele>
        <time>2017-08-06T11:05:39.000Z</time>
      </trkpt>
      <trkpt lat="43.254056107252836" lon="-6.724384501576424">
        <ele>842.8</ele>
        <time>2017-08-06T11:05:48.000Z</time>
      </trkpt>
      <trkpt lat="43.25404269620776" lon="-6.724562617018819">
        <ele>843.4</ele>
        <time>2017-08-06T11:05:58.000Z</time>
      </trkpt>
      <trkpt lat="43.254021322354674" lon="-6.724703181535006">
        <ele>842</ele>
        <time>2017-08-06T11:06:06.000Z</time>
      </trkpt>
      <trkpt lat="43.254000786691904" lon="-6.724865203723311">
        <ele>840</ele>
        <time>2017-08-06T11:06:15.000Z</time>
      </trkpt>
      <trkpt lat="43.25399173423648" lon="-6.725022364407778">
        <ele>838.8</ele>
        <time>2017-08-06T11:06:24.000Z</time>
      </trkpt>
      <trkpt lat="43.25397941283882" lon="-6.725161084905267">
        <ele>837.8</ele>
        <time>2017-08-06T11:06:32.000Z</time>
      </trkpt>
      <trkpt lat="43.253961810842156" lon="-6.725325956940651">
        <ele>837.2</ele>
        <time>2017-08-06T11:06:41.000Z</time>
      </trkpt>
      <trkpt lat="43.25394689105451" lon="-6.725484123453498">
        <ele>836</ele>
        <time>2017-08-06T11:06:50.000Z</time>
      </trkpt>
      <trkpt lat="43.253943119198084" lon="-6.7256783321499825">
        <ele>836</ele>
        <time>2017-08-06T11:07:01.000Z</time>
      </trkpt>
      <trkpt lat="43.25393565930426" lon="-6.725823422893882">
        <ele>836</ele>
        <time>2017-08-06T11:07:09.000Z</time>
      </trkpt>
      <trkpt lat="43.2539180573076" lon="-6.726016374304891">
        <ele>837.6</ele>
        <time>2017-08-06T11:07:20.000Z</time>
      </trkpt>
      <trkpt lat="43.253900120034814" lon="-6.726159118115902">
        <ele>838.2</ele>
        <time>2017-08-06T11:07:28.000Z</time>
      </trkpt>
      <trkpt lat="43.253880590200424" lon="-6.726272273808718">
        <ele>839.8</ele>
        <time>2017-08-06T11:07:34.000Z</time>
      </trkpt>
      <trkpt lat="43.25385100208223" lon="-6.7264519818127155">
        <ele>842.4</ele>
        <time>2017-08-06T11:07:44.000Z</time>
      </trkpt>
      <trkpt lat="43.25383549556136" lon="-6.726585170254111">
        <ele>845</ele>
        <time>2017-08-06T11:07:52.000Z</time>
      </trkpt>
      <trkpt lat="43.2537798397243" lon="-6.726704109460115">
        <ele>845.8</ele>
        <time>2017-08-06T11:08:00.000Z</time>
      </trkpt>
      <trkpt lat="43.25373130850494" lon="-6.726764878258109">
        <ele>846</ele>
        <time>2017-08-06T11:08:06.000Z</time>
      </trkpt>
      <trkpt lat="43.25371286831796" lon="-6.726772170513868">
        <ele>845.6</ele>
        <time>2017-08-06T11:08:08.000Z</time>
      </trkpt>
      <trkpt lat="43.25364547781646" lon="-6.726799160242081">
        <ele>844</ele>
        <time>2017-08-06T11:08:15.000Z</time>
      </trkpt>
      <trkpt lat="43.25363080948591" lon="-6.726807123050094">
        <ele>843.6</ele>
        <time>2017-08-06T11:08:17.000Z</time>
      </trkpt>
      <trkpt lat="43.253594264388084" lon="-6.726807793602347">
        <ele>842.4</ele>
        <time>2017-08-06T11:08:21.000Z</time>
      </trkpt>
      <trkpt lat="43.253586972132325" lon="-6.726812655106187">
        <ele>842.2</ele>
        <time>2017-08-06T11:08:22.000Z</time>
      </trkpt>
      <trkpt lat="43.25354221276939" lon="-6.7268183548003435">
        <ele>840.8</ele>
        <time>2017-08-06T11:08:27.000Z</time>
      </trkpt>
      <trkpt lat="43.25346250087023" lon="-6.72684165649116">
        <ele>840.4</ele>
        <time>2017-08-06T11:08:35.000Z</time>
      </trkpt>
      <trkpt lat="43.2534087728709" lon="-6.726851295679808">
        <ele>839.8</ele>
        <time>2017-08-06T11:08:41.000Z</time>
      </trkpt>
      <trkpt lat="43.253307938575745" lon="-6.726861773058772">
        <ele>836.4</ele>
        <time>2017-08-06T11:08:50.000Z</time>
      </trkpt>
      <trkpt lat="43.25322110205889" lon="-6.726890774443746">
        <ele>835.4</ele>
        <time>2017-08-06T11:08:58.000Z</time>
      </trkpt>
      <trkpt lat="43.253150610253215" lon="-6.7269158363342285">
        <ele>835.6</ele>
        <time>2017-08-06T11:09:05.000Z</time>
      </trkpt>
      <trkpt lat="43.25312596745789" lon="-6.726917345076799">
        <ele>835.4</ele>
        <time>2017-08-06T11:09:07.000Z</time>
      </trkpt>
      <trkpt lat="43.253094954416156" lon="-6.726929163560271">
        <ele>835.4</ele>
        <time>2017-08-06T11:09:10.000Z</time>
      </trkpt>
      <trkpt lat="43.25308305211365" lon="-6.726933103054762">
        <ele>835.4</ele>
        <time>2017-08-06T11:09:11.000Z</time>
      </trkpt>
      <trkpt lat="43.25304156169295" lon="-6.726944167166948">
        <ele>835.2</ele>
        <time>2017-08-06T11:09:15.000Z</time>
      </trkpt>
      <trkpt lat="43.25302773155272" lon="-6.726945340633392">
        <ele>834.8</ele>
        <time>2017-08-06T11:09:16.000Z</time>
      </trkpt>
      <trkpt lat="43.2529684714973" lon="-6.726964116096497">
        <ele>834.2</ele>
        <time>2017-08-06T11:09:22.000Z</time>
      </trkpt>
      <trkpt lat="43.252955647185445" lon="-6.726971911266446">
        <ele>834.4</ele>
        <time>2017-08-06T11:09:24.000Z</time>
      </trkpt>
      <trkpt lat="43.252908205613494" lon="-6.727000996470451">
        <ele>835</ele>
        <time>2017-08-06T11:09:29.000Z</time>
      </trkpt>
      <trkpt lat="43.25283679179847" lon="-6.727014826610684">
        <ele>833.8</ele>
        <time>2017-08-06T11:09:36.000Z</time>
      </trkpt>
      <trkpt lat="43.25282488949597" lon="-6.727016922086477">
        <ele>833.6</ele>
        <time>2017-08-06T11:09:37.000Z</time>
      </trkpt>
      <trkpt lat="43.25276529416442" lon="-6.727027986198664">
        <ele>832.6</ele>
        <time>2017-08-06T11:09:44.000Z</time>
      </trkpt>
      <trkpt lat="43.25274341739714" lon="-6.727046426385641">
        <ele>833.4</ele>
        <time>2017-08-06T11:09:47.000Z</time>
      </trkpt>
      <trkpt lat="43.252707459032536" lon="-6.72706101089716">
        <ele>833.4</ele>
        <time>2017-08-06T11:09:52.000Z</time>
      </trkpt>
      <trkpt lat="43.252651216462255" lon="-6.727106859907508">
        <ele>834.4</ele>
        <time>2017-08-06T11:09:59.000Z</time>
      </trkpt>
      <trkpt lat="43.252626322209835" lon="-6.7271600011736155">
        <ele>837.4</ele>
        <time>2017-08-06T11:10:04.000Z</time>
      </trkpt>
      <trkpt lat="43.252616096287966" lon="-6.727180201560259">
        <ele>838.6</ele>
        <time>2017-08-06T11:10:06.000Z</time>
      </trkpt>
      <trkpt lat="43.252606708556414" lon="-6.727200737223029">
        <ele>839.8</ele>
        <time>2017-08-06T11:10:08.000Z</time>
      </trkpt>
      <trkpt lat="43.252574102953076" lon="-6.727254213765264">
        <ele>842.6</ele>
        <time>2017-08-06T11:10:13.000Z</time>
      </trkpt>
      <trkpt lat="43.252535378560424" lon="-6.727326298132539">
        <ele>845.8</ele>
        <time>2017-08-06T11:10:20.000Z</time>
      </trkpt>
      <trkpt lat="43.25251953676343" lon="-6.727351695299149">
        <ele>846.6</ele>
        <time>2017-08-06T11:10:23.000Z</time>
      </trkpt>
      <trkpt lat="43.252512412145734" lon="-6.7273693811148405">
        <ele>847.2</ele>
        <time>2017-08-06T11:10:27.000Z</time>
      </trkpt>
      <trkpt lat="43.2524745259434" lon="-6.727439872920513">
        <ele>849.6</ele>
        <time>2017-08-06T11:10:43.000Z</time>
      </trkpt>
      <trkpt lat="43.25246446765959" lon="-6.7274651024490595">
        <ele>850.6</ele>
        <time>2017-08-06T11:10:45.000Z</time>
      </trkpt>
      <trkpt lat="43.252440579235554" lon="-6.727518914267421">
        <ele>852.8</ele>
        <time>2017-08-06T11:10:49.000Z</time>
      </trkpt>
      <trkpt lat="43.252387354150414" lon="-6.7276164796203375">
        <ele>855.2</ele>
        <time>2017-08-06T11:10:56.000Z</time>
      </trkpt>
      <trkpt lat="43.25233345851302" lon="-6.727721253409982">
        <ele>857.2</ele>
        <time>2017-08-06T11:11:03.000Z</time>
      </trkpt>
      <trkpt lat="43.25228484347463" lon="-6.727803144603968">
        <ele>858.6</ele>
        <time>2017-08-06T11:11:09.000Z</time>
      </trkpt>
      <trkpt lat="43.252235390245914" lon="-6.727945301681757">
        <ele>860.8</ele>
        <time>2017-08-06T11:11:18.000Z</time>
      </trkpt>
      <trkpt lat="43.25219155289233" lon="-6.728027360513806">
        <ele>861.2</ele>
        <time>2017-08-06T11:11:24.000Z</time>
      </trkpt>
      <trkpt lat="43.252163557335734" lon="-6.728145629167557">
        <ele>862.6</ele>
        <time>2017-08-06T11:11:32.000Z</time>
      </trkpt>
      <trkpt lat="43.25216271914542" lon="-6.728268340229988">
        <ele>863.4</ele>
        <time>2017-08-06T11:11:40.000Z</time>
      </trkpt>
      <trkpt lat="43.25216808356345" lon="-6.728349728509784">
        <ele>864.2</ele>
        <time>2017-08-06T11:11:46.000Z</time>
      </trkpt>
      <trkpt lat="43.25217420235276" lon="-6.728362133726478">
        <ele>864.6</ele>
        <time>2017-08-06T11:11:48.000Z</time>
      </trkpt>
      <trkpt lat="43.25217302888632" lon="-6.728368001058698">
        <ele>864.6</ele>
        <time>2017-08-06T11:11:51.000Z</time>
      </trkpt>
      <trkpt lat="43.25217152014375" lon="-6.728423405438662">
        <ele>864.8</ele>
        <time>2017-08-06T11:12:03.000Z</time>
      </trkpt>
      <trkpt lat="43.25219113379717" lon="-6.728585930541158">
        <ele>866.2</ele>
        <time>2017-08-06T11:12:13.000Z</time>
      </trkpt>
      <trkpt lat="43.252201275900006" lon="-6.72868768684566">
        <ele>866.6</ele>
        <time>2017-08-06T11:12:19.000Z</time>
      </trkpt>
      <trkpt lat="43.252213932573795" lon="-6.728793969377875">
        <ele>865.8</ele>
        <time>2017-08-06T11:12:26.000Z</time>
      </trkpt>
      <trkpt lat="43.25222181156278" lon="-6.728806374594569">
        <ele>866</ele>
        <time>2017-08-06T11:12:27.000Z</time>
      </trkpt>
      <trkpt lat="43.252245197072625" lon="-6.72888558357954">
        <ele>866</ele>
        <time>2017-08-06T11:12:33.000Z</time>
      </trkpt>
      <trkpt lat="43.25225525535643" lon="-6.728925816714764">
        <ele>866</ele>
        <time>2017-08-06T11:12:36.000Z</time>
      </trkpt>
      <trkpt lat="43.252269169315696" lon="-6.728963870555162">
        <ele>866</ele>
        <time>2017-08-06T11:12:39.000Z</time>
      </trkpt>
      <trkpt lat="43.25227805413306" lon="-6.7289874237030745">
        <ele>866.2</ele>
        <time>2017-08-06T11:12:41.000Z</time>
      </trkpt>
      <trkpt lat="43.25231627561152" lon="-6.729051293805242">
        <ele>866.8</ele>
        <time>2017-08-06T11:12:47.000Z</time>
      </trkpt>
      <trkpt lat="43.25236815959215" lon="-6.729120276868343">
        <ele>867.2</ele>
        <time>2017-08-06T11:12:54.000Z</time>
      </trkpt>
      <trkpt lat="43.252412332221866" lon="-6.729163443669677">
        <ele>867.6</ele>
        <time>2017-08-06T11:13:00.000Z</time>
      </trkpt>
      <trkpt lat="43.252418618649244" lon="-6.729168053716421">
        <ele>867.8</ele>
        <time>2017-08-06T11:13:01.000Z</time>
      </trkpt>
      <trkpt lat="43.2524554990232" lon="-6.72919244505465">
        <ele>868.4</ele>
        <time>2017-08-06T11:13:06.000Z</time>
      </trkpt>
      <trkpt lat="43.25248793698847" lon="-6.729209963232279">
        <ele>869</ele>
        <time>2017-08-06T11:13:10.000Z</time>
      </trkpt>
      <trkpt lat="43.25249548070133" lon="-6.729213735088706">
        <ele>869.2</ele>
        <time>2017-08-06T11:13:12.000Z</time>
      </trkpt>
      <trkpt lat="43.25252590700984" lon="-6.729240557178855">
        <ele>869.6</ele>
        <time>2017-08-06T11:13:22.000Z</time>
      </trkpt>
      <trkpt lat="43.252535378560424" lon="-6.729243909940124">
        <ele>869.8</ele>
        <time>2017-08-06T11:13:23.000Z</time>
      </trkpt>
      <trkpt lat="43.25262573547661" lon="-6.729262517765164">
        <ele>872.2</ele>
        <time>2017-08-06T11:13:32.000Z</time>
      </trkpt>
      <trkpt lat="43.25266370549798" lon="-6.729283053427935">
        <ele>873</ele>
        <time>2017-08-06T11:13:36.000Z</time>
      </trkpt>
      <trkpt lat="43.25268365442753" lon="-6.729294788092375">
        <ele>873.2</ele>
        <time>2017-08-06T11:13:38.000Z</time>
      </trkpt>
      <trkpt lat="43.25272028334439" lon="-6.72936444170773">
        <ele>872.8</ele>
        <time>2017-08-06T11:13:44.000Z</time>
      </trkpt>
      <trkpt lat="43.25273553840816" lon="-6.729385647922754">
        <ele>872.8</ele>
        <time>2017-08-06T11:13:46.000Z</time>
      </trkpt>
      <trkpt lat="43.252740399912" lon="-6.729400819167495">
        <ele>872.8</ele>
        <time>2017-08-06T11:13:47.000Z</time>
      </trkpt>
      <trkpt lat="43.252742579206824" lon="-6.729423366487026">
        <ele>872.4</ele>
        <time>2017-08-06T11:13:49.000Z</time>
      </trkpt>
      <trkpt lat="43.25273117981851" lon="-6.72943627461791">
        <ele>871.8</ele>
        <time>2017-08-06T11:14:20.000Z</time>
      </trkpt>
      <trkpt lat="43.25272531248629" lon="-6.729443483054638">
        <ele>871.6</ele>
        <time>2017-08-06T11:14:34.000Z</time>
      </trkpt>
      <trkpt lat="43.25272195972502" lon="-6.7294444888830185">
        <ele>871.4</ele>
        <time>2017-08-06T11:15:19.000Z</time>
      </trkpt>
      <trkpt lat="43.252731347456574" lon="-6.729447757825255">
        <ele>871.6</ele>
        <time>2017-08-06T11:15:49.000Z</time>
      </trkpt>
      <trkpt lat="43.25273159891367" lon="-6.729480195790529">
        <ele>871</ele>
        <time>2017-08-06T11:16:01.000Z</time>
      </trkpt>
      <trkpt lat="43.25274643488228" lon="-6.72956527210772">
        <ele>869.4</ele>
        <time>2017-08-06T11:16:09.000Z</time>
      </trkpt>
      <trkpt lat="43.252768479287624" lon="-6.729638949036598">
        <ele>868</ele>
        <time>2017-08-06T11:16:15.000Z</time>
      </trkpt>
      <trkpt lat="43.252772837877274" lon="-6.729652024805546">
        <ele>867.8</ele>
        <time>2017-08-06T11:16:16.000Z</time>
      </trkpt>
      <trkpt lat="43.252791445702314" lon="-6.729703992605209">
        <ele>866.8</ele>
        <time>2017-08-06T11:16:20.000Z</time>
      </trkpt>
      <trkpt lat="43.25280192308128" lon="-6.729735676199198">
        <ele>866.6</ele>
        <time>2017-08-06T11:16:22.000Z</time>
      </trkpt>
      <trkpt lat="43.252838384360075" lon="-6.729848412796855">
        <ele>865.6</ele>
        <time>2017-08-06T11:16:30.000Z</time>
      </trkpt>
      <trkpt lat="43.25287886895239" lon="-6.729952599853277">
        <ele>864.8</ele>
        <time>2017-08-06T11:16:37.000Z</time>
      </trkpt>
      <trkpt lat="43.252905858680606" lon="-6.730023678392172">
        <ele>864.4</ele>
        <time>2017-08-06T11:16:42.000Z</time>
      </trkpt>
      <trkpt lat="43.25291147455573" lon="-6.730033820495009">
        <ele>864.4</ele>
        <time>2017-08-06T11:16:43.000Z</time>
      </trkpt>
      <trkpt lat="43.25295388698578" lon="-6.730132391676307">
        <ele>864.4</ele>
        <time>2017-08-06T11:16:50.000Z</time>
      </trkpt>
      <trkpt lat="43.25301599688828" lon="-6.730258874595165">
        <ele>865</ele>
        <time>2017-08-06T11:16:58.000Z</time>
      </trkpt>
      <trkpt lat="43.25309512205422" lon="-6.730374796316028">
        <ele>866.2</ele>
        <time>2017-08-06T11:17:07.000Z</time>
      </trkpt>
      <trkpt lat="43.25314541347325" lon="-6.730489628389478">
        <ele>866.8</ele>
        <time>2017-08-06T11:17:15.000Z</time>
      </trkpt>
      <trkpt lat="43.25316896662116" lon="-6.730544026941061">
        <ele>866.6</ele>
        <time>2017-08-06T11:17:19.000Z</time>
      </trkpt>
      <trkpt lat="43.25317491777241" lon="-6.730557102710009">
        <ele>866.6</ele>
        <time>2017-08-06T11:17:20.000Z</time>
      </trkpt>
      <trkpt lat="43.25320953503251" lon="-6.730657182633877">
        <ele>866.6</ele>
        <time>2017-08-06T11:17:27.000Z</time>
      </trkpt>
      <trkpt lat="43.253214145079255" lon="-6.730672521516681">
        <ele>866.8</ele>
        <time>2017-08-06T11:17:28.000Z</time>
      </trkpt>
      <trkpt lat="43.25323652476072" lon="-6.730763213708997">
        <ele>866.4</ele>
        <time>2017-08-06T11:17:34.000Z</time>
      </trkpt>
      <trkpt lat="43.25325110927224" lon="-6.730872765183449">
        <ele>866</ele>
        <time>2017-08-06T11:17:42.000Z</time>
      </trkpt>
      <trkpt lat="43.25326032936573" lon="-6.730870166793466">
        <ele>866.2</ele>
        <time>2017-08-06T11:17:48.000Z</time>
      </trkpt>
      <trkpt lat="43.25327290222049" lon="-6.730865221470594">
        <ele>866.4</ele>
        <time>2017-08-06T11:18:01.000Z</time>
      </trkpt>
      <trkpt lat="43.25328228995204" lon="-6.730862455442548">
        <ele>866.6</ele>
        <time>2017-08-06T11:18:13.000Z</time>
      </trkpt>
      <trkpt lat="43.25328723527491" lon="-6.730913752689958">
        <ele>866.6</ele>
        <time>2017-08-06T11:18:21.000Z</time>
      </trkpt>
      <trkpt lat="43.253292851150036" lon="-6.730976449325681">
        <ele>867</ele>
        <time>2017-08-06T11:18:26.000Z</time>
      </trkpt>
      <trkpt lat="43.25329553335905" lon="-6.730998745188117">
        <ele>867.2</ele>
        <time>2017-08-06T11:18:28.000Z</time>
      </trkpt>
      <trkpt lat="43.253290420398116" lon="-6.731029506772757">
        <ele>867.4</ele>
        <time>2017-08-06T11:18:31.000Z</time>
      </trkpt>
      <trkpt lat="43.25329125858843" lon="-6.731037553399801">
        <ele>867.4</ele>
        <time>2017-08-06T11:18:32.000Z</time>
      </trkpt>
      <trkpt lat="43.253286983817816" lon="-6.731086252257228">
        <ele>867.8</ele>
        <time>2017-08-06T11:18:38.000Z</time>
      </trkpt>
      <trkpt lat="43.25327508151531" lon="-6.73115867190063">
        <ele>868</ele>
        <time>2017-08-06T11:18:43.000Z</time>
      </trkpt>
      <trkpt lat="43.253267453983426" lon="-6.731215501204133">
        <ele>868.6</ele>
        <time>2017-08-06T11:18:48.000Z</time>
      </trkpt>
      <trkpt lat="43.25326577760279" lon="-6.731238970533013">
        <ele>869</ele>
        <time>2017-08-06T11:18:50.000Z</time>
      </trkpt>
      <trkpt lat="43.25326762162149" lon="-6.731250369921327">
        <ele>869.2</ele>
        <time>2017-08-06T11:18:51.000Z</time>
      </trkpt>
      <trkpt lat="43.25326812453568" lon="-6.731309713795781">
        <ele>870</ele>
        <time>2017-08-06T11:18:55.000Z</time>
      </trkpt>
      <trkpt lat="43.253290336579084" lon="-6.731389844790101">
        <ele>871.6</ele>
        <time>2017-08-06T11:19:01.000Z</time>
      </trkpt>
      <trkpt lat="43.25329368934035" lon="-6.73140007071197">
        <ele>871.8</ele>
        <time>2017-08-06T11:19:02.000Z</time>
      </trkpt>
      <trkpt lat="43.25332487002015" lon="-6.731461929157376">
        <ele>873.4</ele>
        <time>2017-08-06T11:19:08.000Z</time>
      </trkpt>
      <trkpt lat="43.253333922475576" lon="-6.731476094573736">
        <ele>874</ele>
        <time>2017-08-06T11:19:10.000Z</time>
      </trkpt>
      <trkpt lat="43.25335479341447" lon="-6.731507023796439">
        <ele>875</ele>
        <time>2017-08-06T11:19:13.000Z</time>
      </trkpt>
      <trkpt lat="43.25336694717407" lon="-6.731575587764382">
        <ele>876.4</ele>
        <time>2017-08-06T11:19:18.000Z</time>
      </trkpt>
      <trkpt lat="43.25334331020713" lon="-6.731628477573395">
        <ele>876.8</ele>
        <time>2017-08-06T11:19:22.000Z</time>
      </trkpt>
      <trkpt lat="43.253338700160384" lon="-6.731636608019471">
        <ele>876.8</ele>
        <time>2017-08-06T11:19:23.000Z</time>
      </trkpt>
      <trkpt lat="43.25333559885621" lon="-6.731646163389087">
        <ele>877</ele>
        <time>2017-08-06T11:19:24.000Z</time>
      </trkpt>
      <trkpt lat="43.25332227163017" lon="-6.731707938015461">
        <ele>877.8</ele>
        <time>2017-08-06T11:19:29.000Z</time>
      </trkpt>
      <trkpt lat="43.25331757776439" lon="-6.731760744005442">
        <ele>878.8</ele>
        <time>2017-08-06T11:19:33.000Z</time>
      </trkpt>
      <trkpt lat="43.25332034379244" lon="-6.731775915250182">
        <ele>879.2</ele>
        <time>2017-08-06T11:19:34.000Z</time>
      </trkpt>
      <trkpt lat="43.253344651311636" lon="-6.731843641027808">
        <ele>881.2</ele>
        <time>2017-08-06T11:19:40.000Z</time>
      </trkpt>
      <trkpt lat="43.253357810899615" lon="-6.7318647634238005">
        <ele>881.8</ele>
        <time>2017-08-06T11:19:42.000Z</time>
      </trkpt>
      <trkpt lat="43.25338496826589" lon="-6.731922598555684">
        <ele>883.4</ele>
        <time>2017-08-06T11:19:47.000Z</time>
      </trkpt>
      <trkpt lat="43.253394020721316" lon="-6.731930980458856">
        <ele>883.8</ele>
        <time>2017-08-06T11:19:48.000Z</time>
      </trkpt>
      <trkpt lat="43.25340391136706" lon="-6.731982948258519">
        <ele>884.6</ele>
        <time>2017-08-06T11:19:52.000Z</time>
      </trkpt>
      <trkpt lat="43.2534277997911" lon="-6.732051009312272">
        <ele>885.8</ele>
        <time>2017-08-06T11:19:57.000Z</time>
      </trkpt>
      <trkpt lat="43.25343132019043" lon="-6.7320650070905685">
        <ele>886</ele>
        <time>2017-08-06T11:19:58.000Z</time>
      </trkpt>
      <trkpt lat="43.25343425385654" lon="-6.732135498896241">
        <ele>886.8</ele>
        <time>2017-08-06T11:20:03.000Z</time>
      </trkpt>
      <trkpt lat="43.25340558774769" lon="-6.73219995573163">
        <ele>887</ele>
        <time>2017-08-06T11:20:09.000Z</time>
      </trkpt>
      <trkpt lat="43.25338681228459" lon="-6.732220491394401">
        <ele>887</ele>
        <time>2017-08-06T11:20:11.000Z</time>
      </trkpt>
      <trkpt lat="43.253366108983755" lon="-6.732249828055501">
        <ele>887</ele>
        <time>2017-08-06T11:20:14.000Z</time>
      </trkpt>
      <trkpt lat="43.253333419561386" lon="-6.732309423387051">
        <ele>887.4</ele>
        <time>2017-08-06T11:20:19.000Z</time>
      </trkpt>
      <trkpt lat="43.253326043486595" lon="-6.73234898597002">
        <ele>887.8</ele>
        <time>2017-08-06T11:20:22.000Z</time>
      </trkpt>
      <trkpt lat="43.253321601077914" lon="-6.732394834980369">
        <ele>888.4</ele>
        <time>2017-08-06T11:20:25.000Z</time>
      </trkpt>
      <trkpt lat="43.25335445813835" lon="-6.732464740052819">
        <ele>889.8</ele>
        <time>2017-08-06T11:20:31.000Z</time>
      </trkpt>
      <trkpt lat="43.253362169489264" lon="-6.732470942661166">
        <ele>890</ele>
        <time>2017-08-06T11:20:32.000Z</time>
      </trkpt>
      <trkpt lat="43.25339552946389" lon="-6.732502710074186">
        <ele>890.8</ele>
        <time>2017-08-06T11:20:36.000Z</time>
      </trkpt>
      <trkpt lat="43.253456465899944" lon="-6.732523161917925">
        <ele>891.6</ele>
        <time>2017-08-06T11:20:42.000Z</time>
      </trkpt>
      <trkpt lat="43.25348127633333" lon="-6.732517294585705">
        <ele>891.8</ele>
        <time>2017-08-06T11:20:45.000Z</time>
      </trkpt>
      <trkpt lat="43.2535158097744" lon="-6.732501452788711">
        <ele>892</ele>
        <time>2017-08-06T11:20:49.000Z</time>
      </trkpt>
      <trkpt lat="43.25357515364885" lon="-6.732459794729948">
        <ele>892.4</ele>
        <time>2017-08-06T11:20:56.000Z</time>
      </trkpt>
      <trkpt lat="43.253633826971054" lon="-6.73243104480207">
        <ele>893.2</ele>
        <time>2017-08-06T11:21:03.000Z</time>
      </trkpt>
      <trkpt lat="43.253686632961035" lon="-6.732388632372022">
        <ele>893.6</ele>
        <time>2017-08-06T11:21:08.000Z</time>
      </trkpt>
      <trkpt lat="43.25373298488557" lon="-6.732349907979369">
        <ele>894.2</ele>
        <time>2017-08-06T11:21:15.000Z</time>
      </trkpt>
      <trkpt lat="43.253728207200766" lon="-6.732361977919936">
        <ele>894.2</ele>
        <time>2017-08-06T11:21:21.000Z</time>
      </trkpt>
      <trkpt lat="43.253733571618795" lon="-6.732367090880871">
        <ele>894.4</ele>
        <time>2017-08-06T11:21:33.000Z</time>
      </trkpt>
      <trkpt lat="43.253710605204105" lon="-6.732403133064508">
        <ele>894.2</ele>
        <time>2017-08-06T11:21:47.000Z</time>
      </trkpt>
      <trkpt lat="43.25367188081145" lon="-6.732486197724938">
        <ele>894.4</ele>
        <time>2017-08-06T11:21:55.000Z</time>
      </trkpt>
      <trkpt lat="43.25364472344518" lon="-6.7325150314718485">
        <ele>894.4</ele>
        <time>2017-08-06T11:22:05.000Z</time>
      </trkpt>
      <trkpt lat="43.25357850641012" lon="-6.73260941170156">
        <ele>894.4</ele>
        <time>2017-08-06T11:22:13.000Z</time>
      </trkpt>
      <trkpt lat="43.25354045256972" lon="-6.732657607644796">
        <ele>894.6</ele>
        <time>2017-08-06T11:22:18.000Z</time>
      </trkpt>
      <trkpt lat="43.2535329926759" lon="-6.732671521604061">
        <ele>894.8</ele>
        <time>2017-08-06T11:22:24.000Z</time>
      </trkpt>
      <trkpt lat="43.253491669893265" lon="-6.732728183269501">
        <ele>895.4</ele>
        <time>2017-08-06T11:22:33.000Z</time>
      </trkpt>
      <trkpt lat="43.25342872180045" lon="-6.732824742794037">
        <ele>896.4</ele>
        <time>2017-08-06T11:22:41.000Z</time>
      </trkpt>
      <trkpt lat="43.253367533907294" lon="-6.732925996184349">
        <ele>898.6</ele>
        <time>2017-08-06T11:22:49.000Z</time>
      </trkpt>
      <trkpt lat="43.25331011787057" lon="-6.7330098152160645">
        <ele>900.4</ele>
        <time>2017-08-06T11:22:57.000Z</time>
      </trkpt>
      <trkpt lat="43.25327642261982" lon="-6.73304183408618">
        <ele>900.8</ele>
        <time>2017-08-06T11:23:01.000Z</time>
      </trkpt>
      <trkpt lat="43.25325689278543" lon="-6.733064549043775">
        <ele>901.2</ele>
        <time>2017-08-06T11:23:03.000Z</time>
      </trkpt>
      <trkpt lat="43.2531788572669" lon="-6.733164461329579">
        <ele>902.2</ele>
        <time>2017-08-06T11:23:12.000Z</time>
      </trkpt>
      <trkpt lat="43.253133008256555" lon="-6.733227912336588">
        <ele>902.6</ele>
        <time>2017-08-06T11:23:19.000Z</time>
      </trkpt>
      <trkpt lat="43.253081711009145" lon="-6.733302427455783">
        <ele>903</ele>
        <time>2017-08-06T11:23:25.000Z</time>
      </trkpt>
      <trkpt lat="43.25299504213035" lon="-6.733393957838416">
        <ele>903</ele>
        <time>2017-08-06T11:23:34.000Z</time>
      </trkpt>
      <trkpt lat="43.252926813438535" lon="-6.733484314754605">
        <ele>903.4</ele>
        <time>2017-08-06T11:23:42.000Z</time>
      </trkpt>
      <trkpt lat="43.25287618674338" lon="-6.7335723247379065">
        <ele>904</ele>
        <time>2017-08-06T11:23:49.000Z</time>
      </trkpt>
      <trkpt lat="43.252827571704984" lon="-6.733655808493495">
        <ele>904.6</ele>
        <time>2017-08-06T11:23:56.000Z</time>
      </trkpt>
      <trkpt lat="43.25276738964021" lon="-6.733718002215028">
        <ele>904.6</ele>
        <time>2017-08-06T11:24:03.000Z</time>
      </trkpt>
      <trkpt lat="43.25271114706993" lon="-6.733775082975626">
        <ele>904.6</ele>
        <time>2017-08-06T11:24:10.000Z</time>
      </trkpt>
      <trkpt lat="43.252657167613506" lon="-6.733824955299497">
        <ele>904.4</ele>
        <time>2017-08-06T11:24:16.000Z</time>
      </trkpt>
      <trkpt lat="43.252588687464595" lon="-6.733892094343901">
        <ele>904.4</ele>
        <time>2017-08-06T11:24:24.000Z</time>
      </trkpt>
      <trkpt lat="43.252531606704" lon="-6.733942637220025">
        <ele>904.2</ele>
        <time>2017-08-06T11:24:30.000Z</time>
      </trkpt>
      <trkpt lat="43.252491038292646" lon="-6.733986139297485">
        <ele>904.6</ele>
        <time>2017-08-06T11:24:35.000Z</time>
      </trkpt>
      <trkpt lat="43.25243982486427" lon="-6.73403668217361">
        <ele>904.8</ele>
        <time>2017-08-06T11:24:41.000Z</time>
      </trkpt>
      <trkpt lat="43.25243756175041" lon="-6.7340426333248615">
        <ele>905</ele>
        <time>2017-08-06T11:24:42.000Z</time>
      </trkpt>
      <trkpt lat="43.252433286979795" lon="-6.734043722972274">
        <ele>905</ele>
        <time>2017-08-06T11:24:46.000Z</time>
      </trkpt>
      <trkpt lat="43.25241736136377" lon="-6.734065264463425">
        <ele>905.2</ele>
        <time>2017-08-06T11:26:44.000Z</time>
      </trkpt>
      <trkpt lat="43.25241358950734" lon="-6.734072556719184">
        <ele>905.2</ele>
        <time>2017-08-06T11:27:09.000Z</time>
      </trkpt>
      <trkpt lat="43.252405459061265" lon="-6.734076915308833">
        <ele>905</ele>
        <time>2017-08-06T11:27:14.000Z</time>
      </trkpt>
      <trkpt lat="43.252417612820864" lon="-6.734056212007999">
        <ele>904.8</ele>
        <time>2017-08-06T11:29:35.000Z</time>
      </trkpt>
      <trkpt lat="43.252416271716356" lon="-6.734061744064093">
        <ele>905</ele>
        <time>2017-08-06T11:34:14.000Z</time>
      </trkpt>
      <trkpt lat="43.25242264196277" lon="-6.734070796519518">
        <ele>905.4</ele>
        <time>2017-08-06T11:34:55.000Z</time>
      </trkpt>
      <trkpt lat="43.25241702608764" lon="-6.734068281948566">
        <ele>905.2</ele>
        <time>2017-08-06T11:35:12.000Z</time>
      </trkpt>
      <trkpt lat="43.252416271716356" lon="-6.734057888388634">
        <ele>904.8</ele>
        <time>2017-08-06T11:37:09.000Z</time>
      </trkpt>
      <trkpt lat="43.25242121703923" lon="-6.734051099047065">
        <ele>904.8</ele>
        <time>2017-08-06T11:37:27.000Z</time>
      </trkpt>
      <trkpt lat="43.25240193866193" lon="-6.73405772075057">
        <ele>904.4</ele>
        <time>2017-08-06T11:37:47.000Z</time>
      </trkpt>
      <trkpt lat="43.25239590369165" lon="-6.734085213392973">
        <ele>905</ele>
        <time>2017-08-06T11:37:52.000Z</time>
      </trkpt>
      <trkpt lat="43.25234896503389" lon="-6.734136091545224">
        <ele>905</ele>
        <time>2017-08-06T11:37:58.000Z</time>
      </trkpt>
      <trkpt lat="43.252293560653925" lon="-6.734194094315171">
        <ele>904.8</ele>
        <time>2017-08-06T11:38:06.000Z</time>
      </trkpt>
      <trkpt lat="43.25226237997413" lon="-6.734221754595637">
        <ele>904.6</ele>
        <time>2017-08-06T11:38:10.000Z</time>
      </trkpt>
      <trkpt lat="43.252233881503344" lon="-6.734254360198975">
        <ele>904.6</ele>
        <time>2017-08-06T11:38:13.000Z</time>
      </trkpt>
      <trkpt lat="43.25218451209366" lon="-6.734312949702144">
        <ele>904.8</ele>
        <time>2017-08-06T11:38:19.000Z</time>
      </trkpt>
      <trkpt lat="43.252171855419874" lon="-6.7343321442604065">
        <ele>905</ele>
        <time>2017-08-06T11:38:21.000Z</time>
      </trkpt>
      <trkpt lat="43.25211737304926" lon="-6.734396182000637">
        <ele>905.6</ele>
        <time>2017-08-06T11:38:27.000Z</time>
      </trkpt>
      <trkpt lat="43.25201880186796" lon="-6.734489891678095">
        <ele>907</ele>
        <time>2017-08-06T11:38:37.000Z</time>
      </trkpt>
      <trkpt lat="43.25193808414042" lon="-6.73457270488143">
        <ele>908.2</ele>
        <time>2017-08-06T11:38:45.000Z</time>
      </trkpt>
      <trkpt lat="43.25192341580987" lon="-6.734581170603633">
        <ele>908.2</ele>
        <time>2017-08-06T11:38:46.000Z</time>
      </trkpt>
      <trkpt lat="43.25188175775111" lon="-6.734620314091444">
        <ele>908.6</ele>
        <time>2017-08-06T11:38:50.000Z</time>
      </trkpt>
      <trkpt lat="43.251780085265636" lon="-6.734704971313477">
        <ele>910</ele>
        <time>2017-08-06T11:38:59.000Z</time>
      </trkpt>
      <trkpt lat="43.25168319046497" lon="-6.734791304916143">
        <ele>911.4</ele>
        <time>2017-08-06T11:39:08.000Z</time>
      </trkpt>
      <trkpt lat="43.251629965379834" lon="-6.734833884984255">
        <ele>911.4</ele>
        <time>2017-08-06T11:39:13.000Z</time>
      </trkpt>
      <trkpt lat="43.251607585698366" lon="-6.734849642962217">
        <ele>911.4</ele>
        <time>2017-08-06T11:39:15.000Z</time>
      </trkpt>
      <trkpt lat="43.25150649994612" lon="-6.734962882474065">
        <ele>912.4</ele>
        <time>2017-08-06T11:39:25.000Z</time>
      </trkpt>
      <trkpt lat="43.25141337700188" lon="-6.735029434785247">
        <ele>912.6</ele>
        <time>2017-08-06T11:39:33.000Z</time>
      </trkpt>
      <trkpt lat="43.25134162791073" lon="-6.735082743689418">
        <ele>912.6</ele>
        <time>2017-08-06T11:39:41.000Z</time>
      </trkpt>
      <trkpt lat="43.251292342320085" lon="-6.735157845541835">
        <ele>913.2</ele>
        <time>2017-08-06T11:39:48.000Z</time>
      </trkpt>
      <trkpt lat="43.25124967843294" lon="-6.735251052305102">
        <ele>914.4</ele>
        <time>2017-08-06T11:39:56.000Z</time>
      </trkpt>
      <trkpt lat="43.251212211325765" lon="-6.735369823873043">
        <ele>916</ele>
        <time>2017-08-06T11:40:06.000Z</time>
      </trkpt>
      <trkpt lat="43.25120810419321" lon="-6.735482392832637">
        <ele>917.6</ele>
        <time>2017-08-06T11:40:14.000Z</time>
      </trkpt>
      <trkpt lat="43.25121237896383" lon="-6.735601080581546">
        <ele>919</ele>
        <time>2017-08-06T11:40:22.000Z</time>
      </trkpt>
      <trkpt lat="43.25119159184396" lon="-6.735724546015263">
        <ele>920.6</ele>
        <time>2017-08-06T11:40:30.000Z</time>
      </trkpt>
      <trkpt lat="43.25119159184396" lon="-6.735743070021272">
        <ele>920.8</ele>
        <time>2017-08-06T11:40:31.000Z</time>
      </trkpt>
      <trkpt lat="43.25117834843695" lon="-6.73580358736217">
        <ele>921.4</ele>
        <time>2017-08-06T11:40:35.000Z</time>
      </trkpt>
      <trkpt lat="43.25117130763829" lon="-6.735818674787879">
        <ele>921.6</ele>
        <time>2017-08-06T11:40:36.000Z</time>
      </trkpt>
      <trkpt lat="43.25112093240023" lon="-6.735939122736454">
        <ele>922.4</ele>
        <time>2017-08-06T11:40:44.000Z</time>
      </trkpt>
      <trkpt lat="43.251053458079696" lon="-6.736082872375846">
        <ele>922.8</ele>
        <time>2017-08-06T11:40:53.000Z</time>
      </trkpt>
      <trkpt lat="43.25098564848304" lon="-6.736183622851968">
        <ele>922.8</ele>
        <time>2017-08-06T11:41:00.000Z</time>
      </trkpt>
      <trkpt lat="43.250903924927115" lon="-6.736298035830259">
        <ele>922</ele>
        <time>2017-08-06T11:41:08.000Z</time>
      </trkpt>
      <trkpt lat="43.25082262046635" lon="-6.736437929794192">
        <ele>921.2</ele>
        <time>2017-08-06T11:41:17.000Z</time>
      </trkpt>
      <trkpt lat="43.25075791217387" lon="-6.736606992781162">
        <ele>920</ele>
        <time>2017-08-06T11:41:27.000Z</time>
      </trkpt>
      <trkpt lat="43.25069010257721" lon="-6.736786533147097">
        <ele>919</ele>
        <time>2017-08-06T11:41:38.000Z</time>
      </trkpt>
      <trkpt lat="43.250618185848" lon="-6.736952746286988">
        <ele>918.4</ele>
        <time>2017-08-06T11:41:48.000Z</time>
      </trkpt>
      <trkpt lat="43.25053805485368" lon="-6.737099513411522">
        <ele>918.6</ele>
        <time>2017-08-06T11:41:58.000Z</time>
      </trkpt>
      <trkpt lat="43.25047602877021" lon="-6.737215602770448">
        <ele>919.2</ele>
        <time>2017-08-06T11:42:06.000Z</time>
      </trkpt>
      <trkpt lat="43.25043395161629" lon="-6.737309563905001">
        <ele>919.8</ele>
        <time>2017-08-06T11:42:13.000Z</time>
      </trkpt>
      <trkpt lat="43.2504141703248" lon="-6.737366560846567">
        <ele>920.4</ele>
        <time>2017-08-06T11:42:19.000Z</time>
      </trkpt>
      <trkpt lat="43.250386007130146" lon="-6.737470077350736">
        <ele>921</ele>
        <time>2017-08-06T11:42:26.000Z</time>
      </trkpt>
      <trkpt lat="43.250354155898094" lon="-6.7376359552145">
        <ele>922.4</ele>
        <time>2017-08-06T11:42:36.000Z</time>
      </trkpt>
      <trkpt lat="43.25032624416053" lon="-6.737750619649887">
        <ele>923.6</ele>
        <time>2017-08-06T11:42:44.000Z</time>
      </trkpt>
      <trkpt lat="43.250299002975225" lon="-6.737840808928013">
        <ele>924.4</ele>
        <time>2017-08-06T11:42:50.000Z</time>
      </trkpt>
      <trkpt lat="43.25026832520962" lon="-6.737968381494284">
        <ele>925</ele>
        <time>2017-08-06T11:42:58.000Z</time>
      </trkpt>
      <trkpt lat="43.25023664161563" lon="-6.738058403134346">
        <ele>925.4</ele>
        <time>2017-08-06T11:43:05.000Z</time>
      </trkpt>
      <trkpt lat="43.25020965188742" lon="-6.738146664574742">
        <ele>925.8</ele>
        <time>2017-08-06T11:43:12.000Z</time>
      </trkpt>
      <trkpt lat="43.25017461553216" lon="-6.738249761983752">
        <ele>925.6</ele>
        <time>2017-08-06T11:43:21.000Z</time>
      </trkpt>
      <trkpt lat="43.25016489252448" lon="-6.738295443356037">
        <ele>925.4</ele>
        <time>2017-08-06T11:43:28.000Z</time>
      </trkpt>
      <trkpt lat="43.250172436237335" lon="-6.738297874107957">
        <ele>925.2</ele>
        <time>2017-08-06T11:43:43.000Z</time>
      </trkpt>
      <trkpt lat="43.250147541984916" lon="-6.738349255174398">
        <ele>925.2</ele>
        <time>2017-08-06T11:43:51.000Z</time>
      </trkpt>
      <trkpt lat="43.250102614983916" lon="-6.738447407260537">
        <ele>925</ele>
        <time>2017-08-06T11:44:00.000Z</time>
      </trkpt>
      <trkpt lat="43.25004695914686" lon="-6.738562574610114">
        <ele>924.6</ele>
        <time>2017-08-06T11:44:09.000Z</time>
      </trkpt>
      <trkpt lat="43.249991638585925" lon="-6.738676903769374">
        <ele>924.2</ele>
        <time>2017-08-06T11:44:18.000Z</time>
      </trkpt>
      <trkpt lat="43.249952495098114" lon="-6.738761393353343">
        <ele>923.8</ele>
        <time>2017-08-06T11:44:24.000Z</time>
      </trkpt>
      <trkpt lat="43.24988435022533" lon="-6.738875973969698">
        <ele>923.6</ele>
        <time>2017-08-06T11:44:33.000Z</time>
      </trkpt>
      <trkpt lat="43.2498047221452" lon="-6.739000780507922">
        <ele>923.4</ele>
        <time>2017-08-06T11:44:43.000Z</time>
      </trkpt>
      <trkpt lat="43.249719478189945" lon="-6.739127347245812">
        <ele>923.8</ele>
        <time>2017-08-06T11:44:53.000Z</time>
      </trkpt>
      <trkpt lat="43.249640855938196" lon="-6.739245783537626">
        <ele>924</ele>
        <time>2017-08-06T11:45:02.000Z</time>
      </trkpt>
      <trkpt lat="43.24956583790481" lon="-6.739363884553313">
        <ele>924.4</ele>
        <time>2017-08-06T11:45:11.000Z</time>
      </trkpt>
      <trkpt lat="43.24947212822735" lon="-6.7395044490695">
        <ele>924.6</ele>
        <time>2017-08-06T11:45:22.000Z</time>
      </trkpt>
      <trkpt lat="43.24940691702068" lon="-6.739606456831098">
        <ele>924.8</ele>
        <time>2017-08-06T11:45:30.000Z</time>
      </trkpt>
      <trkpt lat="43.249322259798646" lon="-6.739712990820408">
        <ele>925.4</ele>
        <time>2017-08-06T11:45:39.000Z</time>
      </trkpt>
      <trkpt lat="43.24921874329448" lon="-6.739848610013723">
        <ele>926.2</ele>
        <time>2017-08-06T11:45:51.000Z</time>
      </trkpt>
      <trkpt lat="43.24914447963238" lon="-6.739956317469478">
        <ele>927.4</ele>
        <time>2017-08-06T11:46:00.000Z</time>
      </trkpt>
      <trkpt lat="43.24906996451318" lon="-6.740056229755282">
        <ele>928.2</ele>
        <time>2017-08-06T11:46:09.000Z</time>
      </trkpt>
      <trkpt lat="43.249035933986306" lon="-6.740104258060455">
        <ele>929</ele>
        <time>2017-08-06T11:46:16.000Z</time>
      </trkpt>
      <trkpt lat="43.24903601780534" lon="-6.7401092033833265">
        <ele>929</ele>
        <time>2017-08-06T11:46:29.000Z</time>
      </trkpt>
      <trkpt lat="43.24899670667946" lon="-6.74015287309885">
        <ele>929.8</ele>
        <time>2017-08-06T11:46:45.000Z</time>
      </trkpt>
      <trkpt lat="43.24897885322571" lon="-6.740164021030068">
        <ele>930</ele>
        <time>2017-08-06T11:46:50.000Z</time>
      </trkpt>
      <trkpt lat="43.24893887154758" lon="-6.740218671038747">
        <ele>930.8</ele>
        <time>2017-08-06T11:46:57.000Z</time>
      </trkpt>
      <trkpt lat="43.248935183510184" lon="-6.7402284778654575">
        <ele>931</ele>
        <time>2017-08-06T11:46:58.000Z</time>
      </trkpt>
      <trkpt lat="43.24889008887112" lon="-6.740280361846089">
        <ele>931.8</ele>
        <time>2017-08-06T11:47:03.000Z</time>
      </trkpt>
      <trkpt lat="43.24884164147079" lon="-6.740332413464785">
        <ele>932.6</ele>
        <time>2017-08-06T11:47:09.000Z</time>
      </trkpt>
      <trkpt lat="43.24883334338665" lon="-6.740340460091829">
        <ele>932.8</ele>
        <time>2017-08-06T11:47:10.000Z</time>
      </trkpt>
      <trkpt lat="43.24879612773657" lon="-6.740387147292495">
        <ele>933.8</ele>
        <time>2017-08-06T11:47:15.000Z</time>
      </trkpt>
      <trkpt lat="43.24877844192088" lon="-6.740408269688487">
        <ele>934.2</ele>
        <time>2017-08-06T11:47:17.000Z</time>
      </trkpt>
      <trkpt lat="43.24877659790218" lon="-6.740414137020707">
        <ele>934.4</ele>
        <time>2017-08-06T11:47:18.000Z</time>
      </trkpt>
      <trkpt lat="43.24874348938465" lon="-6.740456549450755">
        <ele>935.2</ele>
        <time>2017-08-06T11:47:22.000Z</time>
      </trkpt>
      <trkpt lat="43.248732928186655" lon="-6.740470128133893">
        <ele>935.6</ele>
        <time>2017-08-06T11:47:23.000Z</time>
      </trkpt>
      <trkpt lat="43.248681630939245" lon="-6.740521341562271">
        <ele>936.8</ele>
        <time>2017-08-06T11:47:28.000Z</time>
      </trkpt>
      <trkpt lat="43.24863444082439" lon="-6.740568280220032">
        <ele>938</ele>
        <time>2017-08-06T11:47:33.000Z</time>
      </trkpt>
      <trkpt lat="43.24860795401037" lon="-6.740602478384972">
        <ele>938.8</ele>
        <time>2017-08-06T11:47:36.000Z</time>
      </trkpt>
      <trkpt lat="43.24858817271888" lon="-6.740626702085137">
        <ele>939.4</ele>
        <time>2017-08-06T11:47:39.000Z</time>
      </trkpt>
      <trkpt lat="43.24857082217932" lon="-6.740647153928876">
        <ele>939.6</ele>
        <time>2017-08-06T11:47:41.000Z</time>
      </trkpt>
      <trkpt lat="43.24853771366179" lon="-6.74068889580667">
        <ele>940.2</ele>
        <time>2017-08-06T11:47:45.000Z</time>
      </trkpt>
      <trkpt lat="43.24851902201772" lon="-6.7407226748764515">
        <ele>940.2</ele>
        <time>2017-08-06T11:47:48.000Z</time>
      </trkpt>
      <trkpt lat="43.248498905450106" lon="-6.7407421208918095">
        <ele>940.2</ele>
        <time>2017-08-06T11:47:50.000Z</time>
      </trkpt>
      <trkpt lat="43.2484904397279" lon="-6.74074362963438">
        <ele>940.2</ele>
        <time>2017-08-06T11:47:51.000Z</time>
      </trkpt>
      <trkpt lat="43.24847761541605" lon="-6.740762488916516">
        <ele>940.2</ele>
        <time>2017-08-06T11:47:53.000Z</time>
      </trkpt>
      <trkpt lat="43.24846697039902" lon="-6.7407789174467325">
        <ele>940.2</ele>
        <time>2017-08-06T11:47:55.000Z</time>
      </trkpt>
      <trkpt lat="43.248442746698856" lon="-6.740808337926865">
        <ele>940.4</ele>
        <time>2017-08-06T11:47:58.000Z</time>
      </trkpt>
      <trkpt lat="43.24843461625278" lon="-6.74081202596426">
        <ele>940.2</ele>
        <time>2017-08-06T11:47:59.000Z</time>
      </trkpt>
      <trkpt lat="43.248400166630745" lon="-6.7408516723662615">
        <ele>940.4</ele>
        <time>2017-08-06T11:48:03.000Z</time>
      </trkpt>
      <trkpt lat="43.248356748372316" lon="-6.740894000977278">
        <ele>940.4</ele>
        <time>2017-08-06T11:48:08.000Z</time>
      </trkpt>
      <trkpt lat="43.248347947373986" lon="-6.740905232727528">
        <ele>940.4</ele>
        <time>2017-08-06T11:48:09.000Z</time>
      </trkpt>
      <trkpt lat="43.24832372367382" lon="-6.740934904664755">
        <ele>940.2</ele>
        <time>2017-08-06T11:48:12.000Z</time>
      </trkpt>
      <trkpt lat="43.24829874560237" lon="-6.740962062031031">
        <ele>940.2</ele>
        <time>2017-08-06T11:48:15.000Z</time>
      </trkpt>
      <trkpt lat="43.24824300594628" lon="-6.7410442885011435">
        <ele>939.8</ele>
        <time>2017-08-06T11:48:22.000Z</time>
      </trkpt>
      <trkpt lat="43.248208640143275" lon="-6.741095250472426">
        <ele>939.6</ele>
        <time>2017-08-06T11:48:31.000Z</time>
      </trkpt>
      <trkpt lat="43.24816798791289" lon="-6.741139255464077">
        <ele>939.4</ele>
        <time>2017-08-06T11:48:35.000Z</time>
      </trkpt>
      <trkpt lat="43.248158348724246" lon="-6.74114964902401">
        <ele>939.2</ele>
        <time>2017-08-06T11:48:36.000Z</time>
      </trkpt>
      <trkpt lat="43.2481175288558" lon="-6.741208657622337">
        <ele>939</ele>
        <time>2017-08-06T11:48:42.000Z</time>
      </trkpt>
      <trkpt lat="43.24811275117099" lon="-6.741224080324173">
        <ele>939</ele>
        <time>2017-08-06T11:48:43.000Z</time>
      </trkpt>
      <trkpt lat="43.2480865996331" lon="-6.741269007325172">
        <ele>939</ele>
        <time>2017-08-06T11:48:47.000Z</time>
      </trkpt>
      <trkpt lat="43.24804116971791" lon="-6.741328937932849">
        <ele>939</ele>
        <time>2017-08-06T11:48:52.000Z</time>
      </trkpt>
      <trkpt lat="43.24803262017667" lon="-6.7413431871682405">
        <ele>939</ele>
        <time>2017-08-06T11:48:53.000Z</time>
      </trkpt>
      <trkpt lat="43.24799892492592" lon="-6.741396747529507">
        <ele>938.8</ele>
        <time>2017-08-06T11:48:58.000Z</time>
      </trkpt>
      <trkpt lat="43.24796112254262" lon="-6.74145994707942">
        <ele>939</ele>
        <time>2017-08-06T11:49:03.000Z</time>
      </trkpt>
      <trkpt lat="43.2479137647897" lon="-6.741538820788264">
        <ele>939</ele>
        <time>2017-08-06T11:49:08.000Z</time>
      </trkpt>
      <trkpt lat="43.24788233265281" lon="-6.741603864356875">
        <ele>939</ele>
        <time>2017-08-06T11:49:12.000Z</time>
      </trkpt>
      <trkpt lat="43.24787311255932" lon="-6.7416171077638865">
        <ele>939</ele>
        <time>2017-08-06T11:49:13.000Z</time>
      </trkpt>
      <trkpt lat="43.247839668765664" lon="-6.741687431931496">
        <ele>939</ele>
        <time>2017-08-06T11:49:18.000Z</time>
      </trkpt>
      <trkpt lat="43.24783011339605" lon="-6.7416992504149675">
        <ele>939</ele>
        <time>2017-08-06T11:49:19.000Z</time>
      </trkpt>
      <trkpt lat="43.247786946594715" lon="-6.741782650351524">
        <ele>939</ele>
        <time>2017-08-06T11:49:24.000Z</time>
      </trkpt>
      <trkpt lat="43.24775802902877" lon="-6.7418471071869135">
        <ele>939</ele>
        <time>2017-08-06T11:49:28.000Z</time>
      </trkpt>
      <trkpt lat="43.24774906039238" lon="-6.741862362250686">
        <ele>939</ele>
        <time>2017-08-06T11:49:29.000Z</time>
      </trkpt>
      <trkpt lat="43.247707318514585" lon="-6.741970237344503">
        <ele>939</ele>
        <time>2017-08-06T11:49:35.000Z</time>
      </trkpt>
      <trkpt lat="43.24768317863345" lon="-6.742021115496755">
        <ele>939</ele>
        <time>2017-08-06T11:49:38.000Z</time>
      </trkpt>
      <trkpt lat="43.247668258845806" lon="-6.742051877081394">
        <ele>939</ele>
        <time>2017-08-06T11:49:40.000Z</time>
      </trkpt>
      <trkpt lat="43.24762844480574" lon="-6.742146173492074">
        <ele>939</ele>
        <time>2017-08-06T11:49:46.000Z</time>
      </trkpt>
      <trkpt lat="43.24762442149222" lon="-6.742160674184561">
        <ele>939</ele>
        <time>2017-08-06T11:49:47.000Z</time>
      </trkpt>
      <trkpt lat="43.24758502654731" lon="-6.74224516376853">
        <ele>939</ele>
        <time>2017-08-06T11:49:53.000Z</time>
      </trkpt>
      <trkpt lat="43.247553342953324" lon="-6.7423150688409805">
        <ele>939</ele>
        <time>2017-08-06T11:49:58.000Z</time>
      </trkpt>
      <trkpt lat="43.247526437044144" lon="-6.74236292950809">
        <ele>939</ele>
        <time>2017-08-06T11:50:02.000Z</time>
      </trkpt>
      <trkpt lat="43.247522162273526" lon="-6.742377178743482">
        <ele>939</ele>
        <time>2017-08-06T11:50:03.000Z</time>
      </trkpt>
      <trkpt lat="43.247504979372025" lon="-6.742419004440308">
        <ele>939</ele>
        <time>2017-08-06T11:50:07.000Z</time>
      </trkpt>
      <trkpt lat="43.24748653918505" lon="-6.742456303909421">
        <ele>939</ele>
        <time>2017-08-06T11:50:10.000Z</time>
      </trkpt>
      <trkpt lat="43.24747949838638" lon="-6.742472900077701">
        <ele>939</ele>
        <time>2017-08-06T11:50:11.000Z</time>
      </trkpt>
      <trkpt lat="43.24745636433363" lon="-6.74254079349339">
        <ele>939</ele>
        <time>2017-08-06T11:50:16.000Z</time>
      </trkpt>
      <trkpt lat="43.24743138626218" lon="-6.742598041892052">
        <ele>939.2</ele>
        <time>2017-08-06T11:50:20.000Z</time>
      </trkpt>
      <trkpt lat="43.24742610566318" lon="-6.742613464593887">
        <ele>939.2</ele>
        <time>2017-08-06T11:50:21.000Z</time>
      </trkpt>
      <trkpt lat="43.24737782590091" lon="-6.742732487618923">
        <ele>939.4</ele>
        <time>2017-08-06T11:50:28.000Z</time>
      </trkpt>
      <trkpt lat="43.24732828885317" lon="-6.742846230044961">
        <ele>939.6</ele>
        <time>2017-08-06T11:50:35.000Z</time>
      </trkpt>
      <trkpt lat="43.247318817302585" lon="-6.742879925295711">
        <ele>939.8</ele>
        <time>2017-08-06T11:50:37.000Z</time>
      </trkpt>
      <trkpt lat="43.247289564460516" lon="-6.742943041026592">
        <ele>939.8</ele>
        <time>2017-08-06T11:50:41.000Z</time>
      </trkpt>
      <trkpt lat="43.247245056554675" lon="-6.7430448811501265">
        <ele>940.2</ele>
        <time>2017-08-06T11:50:48.000Z</time>
      </trkpt>
      <trkpt lat="43.24723156169057" lon="-6.743074804544449">
        <ele>940.2</ele>
        <time>2017-08-06T11:50:50.000Z</time>
      </trkpt>
      <trkpt lat="43.24719577096403" lon="-6.743137584999204">
        <ele>940.4</ele>
        <time>2017-08-06T11:50:54.000Z</time>
      </trkpt>
      <trkpt lat="43.247179593890905" lon="-6.7431573662906885">
        <ele>940.4</ele>
        <time>2017-08-06T11:50:57.000Z</time>
      </trkpt>
      <trkpt lat="43.24716727249324" lon="-6.743170106783509">
        <ele>940.2</ele>
        <time>2017-08-06T11:50:58.000Z</time>
      </trkpt>
      <trkpt lat="43.24713634327054" lon="-6.743205562233925">
        <ele>940.2</ele>
        <time>2017-08-06T11:51:02.000Z</time>
      </trkpt>
      <trkpt lat="43.247096026316285" lon="-6.743247890844941">
        <ele>939.8</ele>
        <time>2017-08-06T11:51:07.000Z</time>
      </trkpt>
      <trkpt lat="43.24703039601445" lon="-6.74332357943058">
        <ele>939.4</ele>
        <time>2017-08-06T11:51:13.000Z</time>
      </trkpt>
      <trkpt lat="43.24700290337205" lon="-6.7433517426252365">
        <ele>939.2</ele>
        <time>2017-08-06T11:51:16.000Z</time>
      </trkpt>
      <trkpt lat="43.24699427001178" lon="-6.743359873071313">
        <ele>939.2</ele>
        <time>2017-08-06T11:51:17.000Z</time>
      </trkpt>
      <trkpt lat="43.246971387416124" lon="-6.743396250531077">
        <ele>939</ele>
        <time>2017-08-06T11:51:20.000Z</time>
      </trkpt>
      <trkpt lat="43.246947415173054" lon="-6.7434406746178865">
        <ele>938.8</ele>
        <time>2017-08-06T11:51:23.000Z</time>
      </trkpt>
      <trkpt lat="43.246897207573056" lon="-6.743603032082319">
        <ele>938.2</ele>
        <time>2017-08-06T11:51:31.000Z</time>
      </trkpt>
      <trkpt lat="43.246902069076896" lon="-6.743741417303681">
        <ele>938.4</ele>
        <time>2017-08-06T11:51:37.000Z</time>
      </trkpt>
      <trkpt lat="43.24690030887723" lon="-6.743763294070959">
        <ele>938.2</ele>
        <time>2017-08-06T11:51:38.000Z</time>
      </trkpt>
      <trkpt lat="43.24691640213132" lon="-6.7438459396362305">
        <ele>938.4</ele>
        <time>2017-08-06T11:51:42.000Z</time>
      </trkpt>
      <trkpt lat="43.24692721478641" lon="-6.743946019560099">
        <ele>938.4</ele>
        <time>2017-08-06T11:51:47.000Z</time>
      </trkpt>
      <trkpt lat="43.24692872352898" lon="-6.743964208289981">
        <ele>938.4</ele>
        <time>2017-08-06T11:51:48.000Z</time>
      </trkpt>
      <trkpt lat="43.24692721478641" lon="-6.743998322635889">
        <ele>938.4</ele>
        <time>2017-08-06T11:51:50.000Z</time>
      </trkpt>
      <trkpt lat="43.2469224371016" lon="-6.7440850753337145">
        <ele>938.4</ele>
        <time>2017-08-06T11:51:54.000Z</time>
      </trkpt>
      <trkpt lat="43.246916234493256" lon="-6.744121955707669">
        <ele>938.4</ele>
        <time>2017-08-06T11:51:56.000Z</time>
      </trkpt>
      <trkpt lat="43.246885472908616" lon="-6.744231758639216">
        <ele>938</ele>
        <time>2017-08-06T11:52:03.000Z</time>
      </trkpt>
      <trkpt lat="43.246876168996096" lon="-6.744243996217847">
        <ele>938</ele>
        <time>2017-08-06T11:52:04.000Z</time>
      </trkpt>
      <trkpt lat="43.24681204743683" lon="-6.7443569004535675">
        <ele>938</ele>
        <time>2017-08-06T11:52:12.000Z</time>
      </trkpt>
      <trkpt lat="43.246758822351694" lon="-6.744478940963745">
        <ele>938</ele>
        <time>2017-08-06T11:52:19.000Z</time>
      </trkpt>
      <trkpt lat="43.24671557173133" lon="-6.74460131675005">
        <ele>938</ele>
        <time>2017-08-06T11:52:26.000Z</time>
      </trkpt>
      <trkpt lat="43.24670542962849" lon="-6.744632665067911">
        <ele>938</ele>
        <time>2017-08-06T11:52:28.000Z</time>
      </trkpt>
      <trkpt lat="43.24666544795036" lon="-6.744717657566071">
        <ele>938</ele>
        <time>2017-08-06T11:52:34.000Z</time>
      </trkpt>
      <trkpt lat="43.24659646488726" lon="-6.744842631742358">
        <ele>938.2</ele>
        <time>2017-08-06T11:52:43.000Z</time>
      </trkpt>
      <trkpt lat="43.246524296700954" lon="-6.74494044855237">
        <ele>938</ele>
        <time>2017-08-06T11:52:51.000Z</time>
      </trkpt>
      <trkpt lat="43.2464493624866" lon="-6.745034828782082">
        <ele>937.8</ele>
        <time>2017-08-06T11:52:59.000Z</time>
      </trkpt>
      <trkpt lat="43.24638498947024" lon="-6.745147565379739">
        <ele>937.4</ele>
        <time>2017-08-06T11:53:07.000Z</time>
      </trkpt>
      <trkpt lat="43.24634190648794" lon="-6.745217805728316">
        <ele>937.2</ele>
        <time>2017-08-06T11:53:12.000Z</time>
      </trkpt>
      <trkpt lat="43.24627644382417" lon="-6.745315454900265">
        <ele>936.4</ele>
        <time>2017-08-06T11:53:19.000Z</time>
      </trkpt>
      <trkpt lat="43.2462146691978" lon="-6.745400698855519">
        <ele>935.6</ele>
        <time>2017-08-06T11:53:26.000Z</time>
      </trkpt>
      <trkpt lat="43.246130011975765" lon="-6.745506813749671">
        <ele>934.2</ele>
        <time>2017-08-06T11:53:35.000Z</time>
      </trkpt>
      <trkpt lat="43.24605977162719" lon="-6.7455976735800505">
        <ele>933.2</ele>
        <time>2017-08-06T11:53:43.000Z</time>
      </trkpt>
      <trkpt lat="43.246011324226856" lon="-6.745670847594738">
        <ele>933.2</ele>
        <time>2017-08-06T11:53:49.000Z</time>
      </trkpt>
      <trkpt lat="43.24594074860215" lon="-6.745764976367354">
        <ele>933.8</ele>
        <time>2017-08-06T11:53:57.000Z</time>
      </trkpt>
      <trkpt lat="43.2458829972893" lon="-6.745856674388051">
        <ele>934.4</ele>
        <time>2017-08-06T11:54:04.000Z</time>
      </trkpt>
      <trkpt lat="43.24582298286259" lon="-6.745940828695893">
        <ele>934.8</ele>
        <time>2017-08-06T11:54:11.000Z</time>
      </trkpt>
      <trkpt lat="43.24578182771802" lon="-6.746026743203402">
        <ele>935.4</ele>
        <time>2017-08-06T11:54:16.000Z</time>
      </trkpt>
      <trkpt lat="43.2457431871444" lon="-6.7460794653743505">
        <ele>935.8</ele>
        <time>2017-08-06T11:54:21.000Z</time>
      </trkpt>
      <trkpt lat="43.24568308889866" lon="-6.746179377660155">
        <ele>936.4</ele>
        <time>2017-08-06T11:54:29.000Z</time>
      </trkpt>
      <trkpt lat="43.24564503505826" lon="-6.746256994083524">
        <ele>936.8</ele>
        <time>2017-08-06T11:54:34.000Z</time>
      </trkpt>
      <trkpt lat="43.24562843888998" lon="-6.746285576373339">
        <ele>936.8</ele>
        <time>2017-08-06T11:54:36.000Z</time>
      </trkpt>
      <trkpt lat="43.24556943029165" lon="-6.746406359598041">
        <ele>937.4</ele>
        <time>2017-08-06T11:54:44.000Z</time>
      </trkpt>
      <trkpt lat="43.24552986770868" lon="-6.746492190286517">
        <ele>937.4</ele>
        <time>2017-08-06T11:54:50.000Z</time>
      </trkpt>
      <trkpt lat="43.245497178286314" lon="-6.746558574959636">
        <ele>937.2</ele>
        <time>2017-08-06T11:54:55.000Z</time>
      </trkpt>
      <trkpt lat="43.245433224365115" lon="-6.746653290465474">
        <ele>936</ele>
        <time>2017-08-06T11:55:03.000Z</time>
      </trkpt>
      <trkpt lat="43.245401959866285" lon="-6.746710287407041">
        <ele>935.6</ele>
        <time>2017-08-06T11:55:07.000Z</time>
      </trkpt>
      <trkpt lat="43.245387710630894" lon="-6.746743731200695">
        <ele>935.2</ele>
        <time>2017-08-06T11:55:09.000Z</time>
      </trkpt>
      <trkpt lat="43.245374048128724" lon="-6.746763680130243">
        <ele>935</ele>
        <time>2017-08-06T11:55:14.000Z</time>
      </trkpt>
      <trkpt lat="43.24535518884659" lon="-6.746843811124563">
        <ele>934.6</ele>
        <time>2017-08-06T11:55:42.000Z</time>
      </trkpt>
      <trkpt lat="43.245278745889664" lon="-6.746996361762285">
        <ele>933.4</ele>
        <time>2017-08-06T11:55:51.000Z</time>
      </trkpt>
      <trkpt lat="43.24521345086396" lon="-6.747144469991326">
        <ele>933</ele>
        <time>2017-08-06T11:56:00.000Z</time>
      </trkpt>
      <trkpt lat="43.24516760185361" lon="-6.747245555743575">
        <ele>933.2</ele>
        <time>2017-08-06T11:56:07.000Z</time>
      </trkpt>
      <trkpt lat="43.24510104954243" lon="-6.747376983985305">
        <ele>933.4</ele>
        <time>2017-08-06T11:56:16.000Z</time>
      </trkpt>
      <trkpt lat="43.24503466486931" lon="-6.747493324801326">
        <ele>933.8</ele>
        <time>2017-08-06T11:56:24.000Z</time>
      </trkpt>
      <trkpt lat="43.24499133042991" lon="-6.747586699202657">
        <ele>934</ele>
        <time>2017-08-06T11:56:31.000Z</time>
      </trkpt>
      <trkpt lat="43.24495788663626" lon="-6.747702537104487">
        <ele>934.8</ele>
        <time>2017-08-06T11:56:39.000Z</time>
      </trkpt>
      <trkpt lat="43.24491656385362" lon="-6.747823152691126">
        <ele>935.6</ele>
        <time>2017-08-06T11:56:47.000Z</time>
      </trkpt>
      <trkpt lat="43.244912289083004" lon="-6.747836899012327">
        <ele>935.6</ele>
        <time>2017-08-06T11:56:48.000Z</time>
      </trkpt>
      <trkpt lat="43.24487674981356" lon="-6.747913341969252">
        <ele>935.8</ele>
        <time>2017-08-06T11:56:53.000Z</time>
      </trkpt>
      <trkpt lat="43.24484263546765" lon="-6.748005961999297">
        <ele>936.2</ele>
        <time>2017-08-06T11:57:00.000Z</time>
      </trkpt>
      <trkpt lat="43.244805838912725" lon="-6.748078381642699">
        <ele>936.2</ele>
        <time>2017-08-06T11:57:06.000Z</time>
      </trkpt>
      <trkpt lat="43.24476996436715" lon="-6.748133199289441">
        <ele>936.2</ele>
        <time>2017-08-06T11:57:12.000Z</time>
      </trkpt>
      <trkpt lat="43.24473425745964" lon="-6.748198578134179">
        <ele>936.6</ele>
        <time>2017-08-06T11:57:17.000Z</time>
      </trkpt>
      <trkpt lat="43.24472386389971" lon="-6.74822942353785">
        <ele>936.8</ele>
        <time>2017-08-06T11:57:19.000Z</time>
      </trkpt>
      <trkpt lat="43.244710033759475" lon="-6.748262112960219">
        <ele>937</ele>
        <time>2017-08-06T11:57:21.000Z</time>
      </trkpt>
      <trkpt lat="43.244675835594535" lon="-6.748346267268062">
        <ele>937.6</ele>
        <time>2017-08-06T11:57:26.000Z</time>
      </trkpt>
      <trkpt lat="43.24463199824095" lon="-6.748453136533499">
        <ele>938.2</ele>
        <time>2017-08-06T11:57:33.000Z</time>
      </trkpt>
      <trkpt lat="43.24462445452809" lon="-6.748478198423982">
        <ele>938.4</ele>
        <time>2017-08-06T11:57:35.000Z</time>
      </trkpt>
      <trkpt lat="43.244605511426926" lon="-6.748529076576233">
        <ele>938.6</ele>
        <time>2017-08-06T11:57:39.000Z</time>
      </trkpt>
      <trkpt lat="43.244553711265326" lon="-6.748620606958866">
        <ele>938.6</ele>
        <time>2017-08-06T11:57:45.000Z</time>
      </trkpt>
      <trkpt lat="43.24450174346566" lon="-6.748758824542165">
        <ele>939.4</ele>
        <time>2017-08-06T11:57:53.000Z</time>
      </trkpt>
      <trkpt lat="43.24445329606533" lon="-6.748897796496749">
        <ele>940.4</ele>
        <time>2017-08-06T11:58:01.000Z</time>
      </trkpt>
      <trkpt lat="43.24441323056817" lon="-6.749042635783553">
        <ele>940.4</ele>
        <time>2017-08-06T11:58:09.000Z</time>
      </trkpt>
      <trkpt lat="43.24438347481191" lon="-6.749187894165516">
        <ele>940.2</ele>
        <time>2017-08-06T11:58:17.000Z</time>
      </trkpt>
      <trkpt lat="43.24435346759856" lon="-6.749325022101402">
        <ele>939.6</ele>
        <time>2017-08-06T11:58:24.000Z</time>
      </trkpt>
      <trkpt lat="43.244333267211914" lon="-6.749489139765501">
        <ele>939.2</ele>
        <time>2017-08-06T11:58:33.000Z</time>
      </trkpt>
      <trkpt lat="43.244319604709744" lon="-6.749631045386195">
        <ele>938.8</ele>
        <time>2017-08-06T11:58:41.000Z</time>
      </trkpt>
      <trkpt lat="43.2443012483418" lon="-6.7497599590569735">
        <ele>938.4</ele>
        <time>2017-08-06T11:58:48.000Z</time>
      </trkpt>
      <trkpt lat="43.2442822214216" lon="-6.7498597875237465">
        <ele>938</ele>
        <time>2017-08-06T11:58:54.000Z</time>
      </trkpt>
      <trkpt lat="43.244262021034956" lon="-6.75000412389636">
        <ele>938</ele>
        <time>2017-08-06T11:59:02.000Z</time>
      </trkpt>
      <trkpt lat="43.244246849790215" lon="-6.750112250447273">
        <ele>937.8</ele>
        <time>2017-08-06T11:59:08.000Z</time>
      </trkpt>
      <trkpt lat="43.24423109181225" lon="-6.750231860205531">
        <ele>937.4</ele>
        <time>2017-08-06T11:59:15.000Z</time>
      </trkpt>
      <trkpt lat="43.24422664940357" lon="-6.750273518264294">
        <ele>937</ele>
        <time>2017-08-06T11:59:18.000Z</time>
      </trkpt>
      <trkpt lat="43.24422606267035" lon="-6.750272428616881">
        <ele>937</ele>
        <time>2017-08-06T11:59:21.000Z</time>
      </trkpt>
      <trkpt lat="43.2442095503211" lon="-6.750331856310368">
        <ele>936.6</ele>
        <time>2017-08-06T11:59:26.000Z</time>
      </trkpt>
      <trkpt lat="43.24417216703296" lon="-6.7505003325641155">
        <ele>935.6</ele>
        <time>2017-08-06T11:59:36.000Z</time>
      </trkpt>
      <trkpt lat="43.244150541722775" lon="-6.750628491863608">
        <ele>935.2</ele>
        <time>2017-08-06T11:59:44.000Z</time>
      </trkpt>
      <trkpt lat="43.244132939726114" lon="-6.75077710300684">
        <ele>936</ele>
        <time>2017-08-06T11:59:52.000Z</time>
      </trkpt>
      <trkpt lat="43.2441196963191" lon="-6.7508902586996555">
        <ele>936.4</ele>
        <time>2017-08-06T11:59:58.000Z</time>
      </trkpt>
      <trkpt lat="43.24410402216017" lon="-6.751037193462253">
        <ele>936.6</ele>
        <time>2017-08-06T12:00:06.000Z</time>
      </trkpt>
      <trkpt lat="43.24409253895283" lon="-6.751149343326688">
        <ele>936.8</ele>
        <time>2017-08-06T12:00:12.000Z</time>
      </trkpt>
      <trkpt lat="43.24409019201994" lon="-6.751188570633531">
        <ele>937</ele>
        <time>2017-08-06T12:00:14.000Z</time>
      </trkpt>
      <trkpt lat="43.24408642016351" lon="-6.751240873709321">
        <ele>937.2</ele>
        <time>2017-08-06T12:00:17.000Z</time>
      </trkpt>
      <trkpt lat="43.2440853305161" lon="-6.751378504559398">
        <ele>937.6</ele>
        <time>2017-08-06T12:00:25.000Z</time>
      </trkpt>
      <trkpt lat="43.244086084887385" lon="-6.751542203128338">
        <ele>937.6</ele>
        <time>2017-08-06T12:00:34.000Z</time>
      </trkpt>
      <trkpt lat="43.244091952219605" lon="-6.751558044925332">
        <ele>937.6</ele>
        <time>2017-08-06T12:00:35.000Z</time>
      </trkpt>
      <trkpt lat="43.24412187561393" lon="-6.751616634428501">
        <ele>937.6</ele>
        <time>2017-08-06T12:00:39.000Z</time>
      </trkpt>
      <trkpt lat="43.24418247677386" lon="-6.751688634976745">
        <ele>937.6</ele>
        <time>2017-08-06T12:00:46.000Z</time>
      </trkpt>
      <trkpt lat="43.24419882148504" lon="-6.751725766807795">
        <ele>937.8</ele>
        <time>2017-08-06T12:00:49.000Z</time>
      </trkpt>
      <trkpt lat="43.244201838970184" lon="-6.751742027699947">
        <ele>937.8</ele>
        <time>2017-08-06T12:00:50.000Z</time>
      </trkpt>
      <trkpt lat="43.244201336055994" lon="-6.7517773155122995">
        <ele>937.6</ele>
        <time>2017-08-06T12:00:52.000Z</time>
      </trkpt>
      <trkpt lat="43.24417660944164" lon="-6.751855351030827">
        <ele>937.2</ele>
        <time>2017-08-06T12:00:57.000Z</time>
      </trkpt>
      <trkpt lat="43.244178369641304" lon="-6.751918885856867">
        <ele>937</ele>
        <time>2017-08-06T12:01:01.000Z</time>
      </trkpt>
      <trkpt lat="43.24416873045266" lon="-6.752030113711953">
        <ele>936.8</ele>
        <time>2017-08-06T12:01:07.000Z</time>
      </trkpt>
      <trkpt lat="43.24416730552912" lon="-6.7520456202328205">
        <ele>936.8</ele>
        <time>2017-08-06T12:01:08.000Z</time>
      </trkpt>
      <trkpt lat="43.24414802715182" lon="-6.752160033211112">
        <ele>936.6</ele>
        <time>2017-08-06T12:01:14.000Z</time>
      </trkpt>
      <trkpt lat="43.24414350092411" lon="-6.752283750101924">
        <ele>936.6</ele>
        <time>2017-08-06T12:01:21.000Z</time>
      </trkpt>
      <trkpt lat="43.24414601549506" lon="-6.752393553033471">
        <ele>937</ele>
        <time>2017-08-06T12:01:28.000Z</time>
      </trkpt>
      <trkpt lat="43.24414098635316" lon="-6.752425320446491">
        <ele>937.2</ele>
        <time>2017-08-06T12:01:30.000Z</time>
      </trkpt>
      <trkpt lat="43.244140315800905" lon="-6.75247217528522">
        <ele>937.2</ele>
        <time>2017-08-06T12:01:33.000Z</time>
      </trkpt>
      <trkpt lat="43.244127575308084" lon="-6.752572422847152">
        <ele>937.4</ele>
        <time>2017-08-06T12:01:39.000Z</time>
      </trkpt>
      <trkpt lat="43.24412589892745" lon="-6.75266420468688">
        <ele>937.6</ele>
        <time>2017-08-06T12:01:45.000Z</time>
      </trkpt>
      <trkpt lat="43.24411374516785" lon="-6.752792866900563">
        <ele>938</ele>
        <time>2017-08-06T12:01:52.000Z</time>
      </trkpt>
      <trkpt lat="43.244108967483044" lon="-6.752812648192048">
        <ele>938</ele>
        <time>2017-08-06T12:01:53.000Z</time>
      </trkpt>
      <trkpt lat="43.24410821311176" lon="-6.752829495817423">
        <ele>938</ele>
        <time>2017-08-06T12:01:54.000Z</time>
      </trkpt>
      <trkpt lat="43.24409010820091" lon="-6.752893785014749">
        <ele>938</ele>
        <time>2017-08-06T12:01:58.000Z</time>
      </trkpt>
      <trkpt lat="43.24409270659089" lon="-6.75298229791224">
        <ele>938</ele>
        <time>2017-08-06T12:02:03.000Z</time>
      </trkpt>
      <trkpt lat="43.244094802066684" lon="-6.753014316782355">
        <ele>938</ele>
        <time>2017-08-06T12:02:05.000Z</time>
      </trkpt>
      <trkpt lat="43.244085581973195" lon="-6.7530542984604836">
        <ele>937.8</ele>
        <time>2017-08-06T12:02:07.000Z</time>
      </trkpt>
      <trkpt lat="43.244077786803246" lon="-6.7530914302915335">
        <ele>937.8</ele>
        <time>2017-08-06T12:02:09.000Z</time>
      </trkpt>
      <trkpt lat="43.24401785619557" lon="-6.75320802256465">
        <ele>938</ele>
        <time>2017-08-06T12:02:16.000Z</time>
      </trkpt>
      <trkpt lat="43.243951220065355" lon="-6.753253368660808">
        <ele>937.8</ele>
        <time>2017-08-06T12:02:21.000Z</time>
      </trkpt>
      <trkpt lat="43.243907717987895" lon="-6.753262504935265">
        <ele>937.4</ele>
        <time>2017-08-06T12:02:24.000Z</time>
      </trkpt>
      <trkpt lat="43.24381794780493" lon="-6.753306007012725">
        <ele>937</ele>
        <time>2017-08-06T12:02:31.000Z</time>
      </trkpt>
      <trkpt lat="43.24372574687004" lon="-6.753383120521903">
        <ele>937.4</ele>
        <time>2017-08-06T12:02:39.000Z</time>
      </trkpt>
      <trkpt lat="43.24367922730744" lon="-6.753485547378659">
        <ele>938</ele>
        <time>2017-08-06T12:02:46.000Z</time>
      </trkpt>
      <trkpt lat="43.2436312828213" lon="-6.753584034740925">
        <ele>938.6</ele>
        <time>2017-08-06T12:02:52.000Z</time>
      </trkpt>
      <trkpt lat="43.24361837469041" lon="-6.753618149086833">
        <ele>938.8</ele>
        <time>2017-08-06T12:02:54.000Z</time>
      </trkpt>
      <trkpt lat="43.24360923841596" lon="-6.753646228462458">
        <ele>939</ele>
        <time>2017-08-06T12:02:56.000Z</time>
      </trkpt>
      <trkpt lat="43.24358241632581" lon="-6.753718899562955">
        <ele>939.2</ele>
        <time>2017-08-06T12:03:02.000Z</time>
      </trkpt>
      <trkpt lat="43.243574956431985" lon="-6.753729293122888">
        <ele>939.2</ele>
        <time>2017-08-06T12:03:12.000Z</time>
      </trkpt>
      <trkpt lat="43.2435826677829" lon="-6.753738094121218">
        <ele>939.2</ele>
        <time>2017-08-06T12:03:23.000Z</time>
      </trkpt>
      <trkpt lat="43.24357504025102" lon="-6.7537664249539375">
        <ele>939.2</ele>
        <time>2017-08-06T12:03:29.000Z</time>
      </trkpt>
      <trkpt lat="43.243573531508446" lon="-6.753774471580982">
        <ele>939.2</ele>
        <time>2017-08-06T12:03:30.000Z</time>
      </trkpt>
      <trkpt lat="43.24356188066304" lon="-6.753818308934569">
        <ele>939</ele>
        <time>2017-08-06T12:03:34.000Z</time>
      </trkpt>
      <trkpt lat="43.24355576187372" lon="-6.753852088004351">
        <ele>939</ele>
        <time>2017-08-06T12:03:37.000Z</time>
      </trkpt>
      <trkpt lat="43.243533466011286" lon="-6.753909923136234">
        <ele>939</ele>
        <time>2017-08-06T12:03:42.000Z</time>
      </trkpt>
      <trkpt lat="43.243493819609284" lon="-6.754006650298834">
        <ele>938.4</ele>
        <time>2017-08-06T12:03:48.000Z</time>
      </trkpt>
      <trkpt lat="43.243484012782574" lon="-6.754043446853757">
        <ele>938.2</ele>
        <time>2017-08-06T12:03:50.000Z</time>
      </trkpt>
      <trkpt lat="43.243469931185246" lon="-6.754069095477462">
        <ele>938.2</ele>
        <time>2017-08-06T12:03:52.000Z</time>
      </trkpt>
      <trkpt lat="43.2434634771198" lon="-6.75409683957696">
        <ele>938</ele>
        <time>2017-08-06T12:03:55.000Z</time>
      </trkpt>
      <trkpt lat="43.24345149099827" lon="-6.754117291420698">
        <ele>937.8</ele>
        <time>2017-08-06T12:03:56.000Z</time>
      </trkpt>
      <trkpt lat="43.24344193562865" lon="-6.754135396331549">
        <ele>937.6</ele>
        <time>2017-08-06T12:03:57.000Z</time>
      </trkpt>
      <trkpt lat="43.243410252034664" lon="-6.754202116280794">
        <ele>937.2</ele>
        <time>2017-08-06T12:04:02.000Z</time>
      </trkpt>
      <trkpt lat="43.243358954787254" lon="-6.754296664148569">
        <ele>936.6</ele>
        <time>2017-08-06T12:04:09.000Z</time>
      </trkpt>
      <trkpt lat="43.24333414435387" lon="-6.7543551698327065">
        <ele>936.6</ele>
        <time>2017-08-06T12:04:14.000Z</time>
      </trkpt>
      <trkpt lat="43.2432977668941" lon="-6.754452735185623">
        <ele>936.2</ele>
        <time>2017-08-06T12:04:20.000Z</time>
      </trkpt>
      <trkpt lat="43.243259377777576" lon="-6.754551474004984">
        <ele>936</ele>
        <time>2017-08-06T12:04:26.000Z</time>
      </trkpt>
      <trkpt lat="43.24325275607407" lon="-6.754574188962579">
        <ele>936</ele>
        <time>2017-08-06T12:04:28.000Z</time>
      </trkpt>
      <trkpt lat="43.24324211105704" lon="-6.754606291651726">
        <ele>935.8</ele>
        <time>2017-08-06T12:04:30.000Z</time>
      </trkpt>
      <trkpt lat="43.243233393877745" lon="-6.754624312743545">
        <ele>935.8</ele>
        <time>2017-08-06T12:04:31.000Z</time>
      </trkpt>
      <trkpt lat="43.24318855069578" lon="-6.754744257777929">
        <ele>935.4</ele>
        <time>2017-08-06T12:04:38.000Z</time>
      </trkpt>
      <trkpt lat="43.24317899532616" lon="-6.754766050726175">
        <ele>935.4</ele>
        <time>2017-08-06T12:04:40.000Z</time>
      </trkpt>
      <trkpt lat="43.24316080659628" lon="-6.754827909171581">
        <ele>935.4</ele>
        <time>2017-08-06T12:04:44.000Z</time>
      </trkpt>
      <trkpt lat="43.243129793554544" lon="-6.754925642162561">
        <ele>935.6</ele>
        <time>2017-08-06T12:04:50.000Z</time>
      </trkpt>
      <trkpt lat="43.24308645911515" lon="-6.7550289910286665">
        <ele>935.6</ele>
        <time>2017-08-06T12:04:56.000Z</time>
      </trkpt>
      <trkpt lat="43.24304848909378" lon="-6.755162430927157">
        <ele>935.4</ele>
        <time>2017-08-06T12:05:03.000Z</time>
      </trkpt>
      <trkpt lat="43.24303491041064" lon="-6.75518749281764">
        <ele>935.4</ele>
        <time>2017-08-06T12:05:05.000Z</time>
      </trkpt>
      <trkpt lat="43.24298109859228" lon="-6.755284555256367">
        <ele>935</ele>
        <time>2017-08-06T12:05:11.000Z</time>
      </trkpt>
      <trkpt lat="43.24297305196524" lon="-6.755300480872393">
        <ele>935</ele>
        <time>2017-08-06T12:05:12.000Z</time>
      </trkpt>
      <trkpt lat="43.242960311472416" lon="-6.7553432285785675">
        <ele>935</ele>
        <time>2017-08-06T12:05:15.000Z</time>
      </trkpt>
      <trkpt lat="43.2429489120841" lon="-6.755369547754526">
        <ele>935</ele>
        <time>2017-08-06T12:05:17.000Z</time>
      </trkpt>
      <trkpt lat="43.242937345057726" lon="-6.755382791161537">
        <ele>935.2</ele>
        <time>2017-08-06T12:05:18.000Z</time>
      </trkpt>
      <trkpt lat="43.24288671836257" lon="-6.755450516939163">
        <ele>935.4</ele>
        <time>2017-08-06T12:05:24.000Z</time>
      </trkpt>
      <trkpt lat="43.242845982313156" lon="-6.7555261217057705">
        <ele>935.4</ele>
        <time>2017-08-06T12:05:30.000Z</time>
      </trkpt>
      <trkpt lat="43.24277373030782" lon="-6.755619999021292">
        <ele>935.8</ele>
        <time>2017-08-06T12:05:38.000Z</time>
      </trkpt>
      <trkpt lat="43.242735927924514" lon="-6.7557107750326395">
        <ele>936.2</ele>
        <time>2017-08-06T12:05:44.000Z</time>
      </trkpt>
      <trkpt lat="43.24269309639931" lon="-6.755835078656673">
        <ele>936.8</ele>
        <time>2017-08-06T12:05:52.000Z</time>
      </trkpt>
      <trkpt lat="43.24267021380365" lon="-6.755937337875366">
        <ele>937.6</ele>
        <time>2017-08-06T12:05:58.000Z</time>
      </trkpt>
      <trkpt lat="43.24266795068979" lon="-6.755948234349489">
        <ele>937.6</ele>
        <time>2017-08-06T12:05:59.000Z</time>
      </trkpt>
      <trkpt lat="43.24265277944505" lon="-6.7560152895748615">
        <ele>938</ele>
        <time>2017-08-06T12:06:03.000Z</time>
      </trkpt>
      <trkpt lat="43.24264632537961" lon="-6.7560524214059114">
        <ele>938.2</ele>
        <time>2017-08-06T12:06:06.000Z</time>
      </trkpt>
      <trkpt lat="43.24264096096158" lon="-6.7560783214867115">
        <ele>938.4</ele>
        <time>2017-08-06T12:06:08.000Z</time>
      </trkpt>
      <trkpt lat="43.24262713082135" lon="-6.756140012294054">
        <ele>938.8</ele>
        <time>2017-08-06T12:06:12.000Z</time>
      </trkpt>
      <trkpt lat="43.24260768480599" lon="-6.756194327026606">
        <ele>939</ele>
        <time>2017-08-06T12:06:16.000Z</time>
      </trkpt>
      <trkpt lat="43.2426037453115" lon="-6.756222490221262">
        <ele>939</ele>
        <time>2017-08-06T12:06:18.000Z</time>
      </trkpt>
      <trkpt lat="43.242593770846725" lon="-6.756270434707403">
        <ele>938.8</ele>
        <time>2017-08-06T12:06:21.000Z</time>
      </trkpt>
      <trkpt lat="43.24259645305574" lon="-6.7562800738960505">
        <ele>938.8</ele>
        <time>2017-08-06T12:06:22.000Z</time>
      </trkpt>
      <trkpt lat="43.24258882552385" lon="-6.756326258182526">
        <ele>938.8</ele>
        <time>2017-08-06T12:06:25.000Z</time>
      </trkpt>
      <trkpt lat="43.242570888251066" lon="-6.756420806050301">
        <ele>938.6</ele>
        <time>2017-08-06T12:06:32.000Z</time>
      </trkpt>
      <trkpt lat="43.24254917912185" lon="-6.756538739427924">
        <ele>937.8</ele>
        <time>2017-08-06T12:06:39.000Z</time>
      </trkpt>
      <trkpt lat="43.24251422658563" lon="-6.756658935919404">
        <ele>937</ele>
        <time>2017-08-06T12:06:46.000Z</time>
      </trkpt>
      <trkpt lat="43.242488745599985" lon="-6.756800673902035">
        <ele>936.2</ele>
        <time>2017-08-06T12:06:54.000Z</time>
      </trkpt>
      <trkpt lat="43.242464773356915" lon="-6.756923636421561">
        <ele>936</ele>
        <time>2017-08-06T12:07:01.000Z</time>
      </trkpt>
      <trkpt lat="43.242435436695814" lon="-6.757039641961455">
        <ele>936</ele>
        <time>2017-08-06T12:07:08.000Z</time>
      </trkpt>
      <trkpt lat="43.24239335954189" lon="-6.757182218134403">
        <ele>937.6</ele>
        <time>2017-08-06T12:07:17.000Z</time>
      </trkpt>
      <trkpt lat="43.242366034537554" lon="-6.757322112098336">
        <ele>938.8</ele>
        <time>2017-08-06T12:07:26.000Z</time>
      </trkpt>
      <trkpt lat="43.24234642088413" lon="-6.757491761818528">
        <ele>939.6</ele>
        <time>2017-08-06T12:07:36.000Z</time>
      </trkpt>
      <trkpt lat="43.24234390631318" lon="-6.757597206160426">
        <ele>940</ele>
        <time>2017-08-06T12:07:43.000Z</time>
      </trkpt>
      <trkpt lat="43.242320604622364" lon="-6.75776207819581">
        <ele>940.2</ele>
        <time>2017-08-06T12:07:53.000Z</time>
      </trkpt>
      <trkpt lat="43.242272743955255" lon="-6.757885543629527">
        <ele>940.6</ele>
        <time>2017-08-06T12:08:01.000Z</time>
      </trkpt>
      <trkpt lat="43.242204850539565" lon="-6.758028622716665">
        <ele>940.8</ele>
        <time>2017-08-06T12:08:11.000Z</time>
      </trkpt>
      <trkpt lat="43.24214483611286" lon="-6.758155860006809">
        <ele>940.8</ele>
        <time>2017-08-06T12:08:20.000Z</time>
      </trkpt>
      <trkpt lat="43.24208356440067" lon="-6.758288210257888">
        <ele>939.8</ele>
        <time>2017-08-06T12:08:29.000Z</time>
      </trkpt>
      <trkpt lat="43.242029920220375" lon="-6.758399438112974">
        <ele>939</ele>
        <time>2017-08-06T12:08:37.000Z</time>
      </trkpt>
      <trkpt lat="43.24197627604008" lon="-6.758527429774404">
        <ele>938</ele>
        <time>2017-08-06T12:08:46.000Z</time>
      </trkpt>
      <trkpt lat="43.24193084612489" lon="-6.758661204949021">
        <ele>936.8</ele>
        <time>2017-08-06T12:08:55.000Z</time>
      </trkpt>
      <trkpt lat="43.24186303652823" lon="-6.758787604048848">
        <ele>935.6</ele>
        <time>2017-08-06T12:09:04.000Z</time>
      </trkpt>
      <trkpt lat="43.24181425385177" lon="-6.7589011788368225">
        <ele>934.4</ele>
        <time>2017-08-06T12:09:12.000Z</time>
      </trkpt>
      <trkpt lat="43.241771925240755" lon="-6.758996648713946">
        <ele>933.8</ele>
        <time>2017-08-06T12:09:19.000Z</time>
      </trkpt>
      <trkpt lat="43.241708390414715" lon="-6.759125059470534">
        <ele>933.6</ele>
        <time>2017-08-06T12:09:28.000Z</time>
      </trkpt>
      <trkpt lat="43.24162356555462" lon="-6.759254643693566">
        <ele>933.6</ele>
        <time>2017-08-06T12:09:38.000Z</time>
      </trkpt>
      <trkpt lat="43.241555504500866" lon="-6.759355561807752">
        <ele>934.2</ele>
        <time>2017-08-06T12:09:46.000Z</time>
      </trkpt>
      <trkpt lat="43.241491969674826" lon="-6.759449522942305">
        <ele>934.8</ele>
        <time>2017-08-06T12:09:54.000Z</time>
      </trkpt>
      <trkpt lat="43.241411754861474" lon="-6.759548261761665">
        <ele>935.6</ele>
        <time>2017-08-06T12:10:03.000Z</time>
      </trkpt>
      <trkpt lat="43.241348722949624" lon="-6.759621016681194">
        <ele>936.6</ele>
        <time>2017-08-06T12:10:10.000Z</time>
      </trkpt>
      <trkpt lat="43.241268675774336" lon="-6.759698549285531">
        <ele>937.2</ele>
        <time>2017-08-06T12:10:18.000Z</time>
      </trkpt>
      <trkpt lat="43.24119910597801" lon="-6.759789576753974">
        <ele>937.4</ele>
        <time>2017-08-06T12:10:26.000Z</time>
      </trkpt>
      <trkpt lat="43.24113640934229" lon="-6.759889237582684">
        <ele>937.6</ele>
        <time>2017-08-06T12:10:34.000Z</time>
      </trkpt>
      <trkpt lat="43.24105468578637" lon="-6.7600135412067175">
        <ele>938</ele>
        <time>2017-08-06T12:10:44.000Z</time>
      </trkpt>
      <trkpt lat="43.2409892231226" lon="-6.760113788768649">
        <ele>938</ele>
        <time>2017-08-06T12:10:53.000Z</time>
      </trkpt>
      <trkpt lat="43.24095653370023" lon="-6.760149747133255">
        <ele>938</ele>
        <time>2017-08-06T12:10:58.000Z</time>
      </trkpt>
      <trkpt lat="43.24092644266784" lon="-6.7602005414664745">
        <ele>938</ele>
        <time>2017-08-06T12:11:02.000Z</time>
      </trkpt>
      <trkpt lat="43.2409028057009" lon="-6.760238679125905">
        <ele>937.8</ele>
        <time>2017-08-06T12:11:05.000Z</time>
      </trkpt>
      <trkpt lat="43.24083105660975" lon="-6.760358875617385">
        <ele>937.6</ele>
        <time>2017-08-06T12:11:14.000Z</time>
      </trkpt>
      <trkpt lat="43.2408216688782" lon="-6.76037086173892">
        <ele>937.6</ele>
        <time>2017-08-06T12:11:15.000Z</time>
      </trkpt>
      <trkpt lat="43.24076408520341" lon="-6.760457530617714">
        <ele>937.2</ele>
        <time>2017-08-06T12:11:22.000Z</time>
      </trkpt>
      <trkpt lat="43.240676410496235" lon="-6.760591138154268">
        <ele>937.4</ele>
        <time>2017-08-06T12:11:33.000Z</time>
      </trkpt>
      <trkpt lat="43.240611869841814" lon="-6.7607153579592705">
        <ele>936.8</ele>
        <time>2017-08-06T12:11:42.000Z</time>
      </trkpt>
      <trkpt lat="43.240553783252835" lon="-6.760813174769282">
        <ele>936.4</ele>
        <time>2017-08-06T12:11:50.000Z</time>
      </trkpt>
      <trkpt lat="43.24054774828255" lon="-6.760830441489816">
        <ele>936.2</ele>
        <time>2017-08-06T12:11:52.000Z</time>
      </trkpt>
      <trkpt lat="43.24054758064449" lon="-6.760833542793989">
        <ele>936.2</ele>
        <time>2017-08-06T12:11:55.000Z</time>
      </trkpt>
      <trkpt lat="43.24051690287888" lon="-6.760874865576625">
        <ele>936</ele>
        <time>2017-08-06T12:12:09.000Z</time>
      </trkpt>
      <trkpt lat="43.24047231115401" lon="-6.760956672951579">
        <ele>935.2</ele>
        <time>2017-08-06T12:12:16.000Z</time>
      </trkpt>
      <trkpt lat="43.24042730033398" lon="-6.7610192857682705">
        <ele>935</ele>
        <time>2017-08-06T12:12:22.000Z</time>
      </trkpt>
      <trkpt lat="43.24038346298039" lon="-6.76106714643538">
        <ele>934.8</ele>
        <time>2017-08-06T12:12:28.000Z</time>
      </trkpt>
      <trkpt lat="43.24033166281879" lon="-6.761135961860418">
        <ele>934.6</ele>
        <time>2017-08-06T12:12:35.000Z</time>
      </trkpt>
      <trkpt lat="43.24026812799275" lon="-6.761208130046725">
        <ele>934.6</ele>
        <time>2017-08-06T12:12:41.000Z</time>
      </trkpt>
      <trkpt lat="43.24019084684551" lon="-6.761307707056403">
        <ele>934.4</ele>
        <time>2017-08-06T12:12:49.000Z</time>
      </trkpt>
      <trkpt lat="43.24012043885887" lon="-6.7613942082971334">
        <ele>933.8</ele>
        <time>2017-08-06T12:12:57.000Z</time>
      </trkpt>
      <trkpt lat="43.24003259651363" lon="-6.7615055199712515">
        <ele>933.6</ele>
        <time>2017-08-06T12:13:06.000Z</time>
      </trkpt>
      <trkpt lat="43.23997308500111" lon="-6.761587411165237">
        <ele>933.6</ele>
        <time>2017-08-06T12:13:12.000Z</time>
      </trkpt>
      <trkpt lat="43.23990846052766" lon="-6.761672738939524">
        <ele>933.6</ele>
        <time>2017-08-06T12:13:19.000Z</time>
      </trkpt>
      <trkpt lat="43.23980796150863" lon="-6.761817578226328">
        <ele>933.2</ele>
        <time>2017-08-06T12:13:30.000Z</time>
      </trkpt>
      <trkpt lat="43.23971710167825" lon="-6.761971972882748">
        <ele>932.8</ele>
        <time>2017-08-06T12:13:41.000Z</time>
      </trkpt>
      <trkpt lat="43.239639485254884" lon="-6.762111112475395">
        <ele>932.8</ele>
        <time>2017-08-06T12:13:51.000Z</time>
      </trkpt>
      <trkpt lat="43.23956849053502" lon="-6.762244300916791">
        <ele>932.8</ele>
        <time>2017-08-06T12:14:00.000Z</time>
      </trkpt>
      <trkpt lat="43.239516941830516" lon="-6.762337423861027">
        <ele>932.8</ele>
        <time>2017-08-06T12:14:06.000Z</time>
      </trkpt>
      <trkpt lat="43.239456340670586" lon="-6.762442532926798">
        <ele>932.8</ele>
        <time>2017-08-06T12:14:14.000Z</time>
      </trkpt>
      <trkpt lat="43.239389788359404" lon="-6.762555688619614">
        <ele>933</ele>
        <time>2017-08-06T12:14:22.000Z</time>
      </trkpt>
      <trkpt lat="43.23933094739914" lon="-6.762690218165517">
        <ele>933</ele>
        <time>2017-08-06T12:14:31.000Z</time>
      </trkpt>
      <trkpt lat="43.239266742020845" lon="-6.762820053845644">
        <ele>933.2</ele>
        <time>2017-08-06T12:14:40.000Z</time>
      </trkpt>
      <trkpt lat="43.23920102789998" lon="-6.762931868433952">
        <ele>933.6</ele>
        <time>2017-08-06T12:14:48.000Z</time>
      </trkpt>
      <trkpt lat="43.239112766459584" lon="-6.763063883408904">
        <ele>934</ele>
        <time>2017-08-06T12:14:58.000Z</time>
      </trkpt>
      <trkpt lat="43.23905006982386" lon="-6.763160107657313">
        <ele>934</ele>
        <time>2017-08-06T12:15:05.000Z</time>
      </trkpt>
      <trkpt lat="43.23900212533772" lon="-6.763238478451967">
        <ele>934</ele>
        <time>2017-08-06T12:15:11.000Z</time>
      </trkpt>
      <trkpt lat="43.2389444578439" lon="-6.763324476778507">
        <ele>933.8</ele>
        <time>2017-08-06T12:15:18.000Z</time>
      </trkpt>
      <trkpt lat="43.23886474594474" lon="-6.763449450954795">
        <ele>933.6</ele>
        <time>2017-08-06T12:15:27.000Z</time>
      </trkpt>
      <trkpt lat="43.23876944370568" lon="-6.763602588325739">
        <ele>933.2</ele>
        <time>2017-08-06T12:15:38.000Z</time>
      </trkpt>
      <trkpt lat="43.23870406486094" lon="-6.763737536966801">
        <ele>932.6</ele>
        <time>2017-08-06T12:15:47.000Z</time>
      </trkpt>
      <trkpt lat="43.23869518004358" lon="-6.763749020174146">
        <ele>932.6</ele>
        <time>2017-08-06T12:15:48.000Z</time>
      </trkpt>
      <trkpt lat="43.238657461479306" lon="-6.763810878619552">
        <ele>932</ele>
        <time>2017-08-06T12:15:53.000Z</time>
      </trkpt>
      <trkpt lat="43.23860188946128" lon="-6.763894949108362">
        <ele>931.4</ele>
        <time>2017-08-06T12:16:00.000Z</time>
      </trkpt>
      <trkpt lat="43.238588562235236" lon="-6.763918921351433">
        <ele>931.4</ele>
        <time>2017-08-06T12:16:02.000Z</time>
      </trkpt>
      <trkpt lat="43.23855109512806" lon="-6.763989664614201">
        <ele>930.8</ele>
        <time>2017-08-06T12:16:09.000Z</time>
      </trkpt>
      <trkpt lat="43.23854573071003" lon="-6.763996286317706">
        <ele>930.8</ele>
        <time>2017-08-06T12:16:15.000Z</time>
      </trkpt>
      <trkpt lat="43.23853315785527" lon="-6.764007182791829">
        <ele>930.6</ele>
        <time>2017-08-06T12:17:49.000Z</time>
      </trkpt>
      <trkpt lat="43.238492673262954" lon="-6.7640709690749645">
        <ele>930</ele>
        <time>2017-08-06T12:18:20.000Z</time>
      </trkpt>
      <trkpt lat="43.23840759694576" lon="-6.764151938259602">
        <ele>929.2</ele>
        <time>2017-08-06T12:18:29.000Z</time>
      </trkpt>
      <trkpt lat="43.238328136503696" lon="-6.764205666258931">
        <ele>928.4</ele>
        <time>2017-08-06T12:18:36.000Z</time>
      </trkpt>
      <trkpt lat="43.23824197053909" lon="-6.7642676923424006">
        <ele>927.8</ele>
        <time>2017-08-06T12:18:44.000Z</time>
      </trkpt>
      <trkpt lat="43.23817240074277" lon="-6.76434631459415">
        <ele>927.2</ele>
        <time>2017-08-06T12:18:52.000Z</time>
      </trkpt>
      <trkpt lat="43.2381500210613" lon="-6.764375986531377">
        <ele>927</ele>
        <time>2017-08-06T12:18:55.000Z</time>
      </trkpt>
      <trkpt lat="43.238112051039934" lon="-6.764414208009839">
        <ele>926.8</ele>
        <time>2017-08-06T12:18:59.000Z</time>
      </trkpt>
      <trkpt lat="43.2380189280957" lon="-6.764496266841888">
        <ele>926.2</ele>
        <time>2017-08-06T12:19:09.000Z</time>
      </trkpt>
      <trkpt lat="43.23796444572508" lon="-6.76454471424222">
        <ele>925.8</ele>
        <time>2017-08-06T12:19:16.000Z</time>
      </trkpt>
      <trkpt lat="43.237875597551465" lon="-6.764616630971432">
        <ele>925.4</ele>
        <time>2017-08-06T12:19:26.000Z</time>
      </trkpt>
      <trkpt lat="43.23780217207968" lon="-6.764657367020845">
        <ele>925.2</ele>
        <time>2017-08-06T12:19:33.000Z</time>
      </trkpt>
      <trkpt lat="43.237797729671" lon="-6.764666587114334">
        <ele>925</ele>
        <time>2017-08-06T12:19:34.000Z</time>
      </trkpt>
      <trkpt lat="43.237797729671" lon="-6.764666587114334">
        <ele>925</ele>
        <time>2017-08-06T12:19:34.000Z</time>
      </trkpt>
      <trkpt lat="43.2377512101084" lon="-6.764711765572429">
        <ele>924.8</ele>
        <time>2017-08-06T12:19:40.000Z</time>
      </trkpt>
      <trkpt lat="43.23774718679488" lon="-6.76471084356308">
        <ele>924.8</ele>
        <time>2017-08-06T12:19:41.000Z</time>
      </trkpt>
      <trkpt lat="43.237740732729435" lon="-6.764712687581778">
        <ele>924.8</ele>
        <time>2017-08-06T12:19:42.000Z</time>
      </trkpt>
      <trkpt lat="43.237707875669" lon="-6.764740766957402">
        <ele>924.6</ele>
        <time>2017-08-06T12:19:46.000Z</time>
      </trkpt>
      <trkpt lat="43.23763780295849" lon="-6.764790806919336">
        <ele>923.8</ele>
        <time>2017-08-06T12:19:53.000Z</time>
      </trkpt>
      <trkpt lat="43.2375680655241" lon="-6.764843193814158">
        <ele>923.2</ele>
        <time>2017-08-06T12:20:00.000Z</time>
      </trkpt>
      <trkpt lat="43.23749095201492" lon="-6.764879738911986">
        <ele>922.6</ele>
        <time>2017-08-06T12:20:07.000Z</time>
      </trkpt>
      <trkpt lat="43.237427501007915" lon="-6.7649235762655735">
        <ele>922</ele>
        <time>2017-08-06T12:20:13.000Z</time>
      </trkpt>
      <trkpt lat="43.23739321902394" lon="-6.764923073351383">
        <ele>922.4</ele>
        <time>2017-08-06T12:20:16.000Z</time>
      </trkpt>
      <trkpt lat="43.237371761351824" lon="-6.764933718368411">
        <ele>922.4</ele>
        <time>2017-08-06T12:20:18.000Z</time>
      </trkpt>
      <trkpt lat="43.23733672499657" lon="-6.764958947896957">
        <ele>922.4</ele>
        <time>2017-08-06T12:20:21.000Z</time>
      </trkpt>
      <trkpt lat="43.2373021915555" lon="-6.764985853806138">
        <ele>922.6</ele>
        <time>2017-08-06T12:20:24.000Z</time>
      </trkpt>
      <trkpt lat="43.23721879161894" lon="-6.76502013579011">
        <ele>922.8</ele>
        <time>2017-08-06T12:20:31.000Z</time>
      </trkpt>
      <trkpt lat="43.23717327788472" lon="-6.765037989243865">
        <ele>923</ele>
        <time>2017-08-06T12:20:35.000Z</time>
      </trkpt>
      <trkpt lat="43.23714586906135" lon="-6.7650499753654">
        <ele>923</ele>
        <time>2017-08-06T12:20:37.000Z</time>
      </trkpt>
      <trkpt lat="43.23708753101528" lon="-6.765067828819156">
        <ele>923</ele>
        <time>2017-08-06T12:20:42.000Z</time>
      </trkpt>
      <trkpt lat="43.23706506751478" lon="-6.765070343390107">
        <ele>923</ele>
        <time>2017-08-06T12:20:44.000Z</time>
      </trkpt>
      <trkpt lat="43.236996587365866" lon="-6.765072690322995">
        <ele>923</ele>
        <time>2017-08-06T12:20:50.000Z</time>
      </trkpt>
      <trkpt lat="43.23691176250577" lon="-6.765091801062226">
        <ele>922.8</ele>
        <time>2017-08-06T12:20:56.000Z</time>
      </trkpt>
      <trkpt lat="43.236803552135825" lon="-6.765126083046198">
        <ele>921.6</ele>
        <time>2017-08-06T12:21:04.000Z</time>
      </trkpt>
      <trkpt lat="43.23671042919159" lon="-6.765154581516981">
        <ele>920</ele>
        <time>2017-08-06T12:21:11.000Z</time>
      </trkpt>
      <trkpt lat="43.23657413944602" lon="-6.76518777385354">
        <ele>918.2</ele>
        <time>2017-08-06T12:21:21.000Z</time>
      </trkpt>
      <trkpt lat="43.23645888827741" lon="-6.765236556529999">
        <ele>916.6</ele>
        <time>2017-08-06T12:21:30.000Z</time>
      </trkpt>
      <trkpt lat="43.23637288995087" lon="-6.76527326926589">
        <ele>915.6</ele>
        <time>2017-08-06T12:21:37.000Z</time>
      </trkpt>
      <trkpt lat="43.23625260964036" lon="-6.765337893739343">
        <ele>914.2</ele>
        <time>2017-08-06T12:21:47.000Z</time>
      </trkpt>
      <trkpt lat="43.23616644367576" lon="-6.765387766063213">
        <ele>913.4</ele>
        <time>2017-08-06T12:21:54.000Z</time>
      </trkpt>
      <trkpt lat="43.2360555510968" lon="-6.765441158786416">
        <ele>912.8</ele>
        <time>2017-08-06T12:22:03.000Z</time>
      </trkpt>
      <trkpt lat="43.23593828827143" lon="-6.765500754117966">
        <ele>912.6</ele>
        <time>2017-08-06T12:22:13.000Z</time>
      </trkpt>
      <trkpt lat="43.2358465064317" lon="-6.765543418005109">
        <ele>912.6</ele>
        <time>2017-08-06T12:22:21.000Z</time>
      </trkpt>
      <trkpt lat="43.23577903211117" lon="-6.765562864020467">
        <ele>912.8</ele>
        <time>2017-08-06T12:22:28.000Z</time>
      </trkpt>
      <trkpt lat="43.235695883631706" lon="-6.765593457967043">
        <ele>912.8</ele>
        <time>2017-08-06T12:22:35.000Z</time>
      </trkpt>
      <trkpt lat="43.23558331467211" lon="-6.765647605061531">
        <ele>912.4</ele>
        <time>2017-08-06T12:22:44.000Z</time>
      </trkpt>
      <trkpt lat="43.235491532832384" lon="-6.765699153766036">
        <ele>912.2</ele>
        <time>2017-08-06T12:22:52.000Z</time>
      </trkpt>
      <trkpt lat="43.235446186736226" lon="-6.765709463506937">
        <ele>912.2</ele>
        <time>2017-08-06T12:22:57.000Z</time>
      </trkpt>
      <trkpt lat="43.23544291779399" lon="-6.765716169029474">
        <ele>912.2</ele>
        <time>2017-08-06T12:22:58.000Z</time>
      </trkpt>
      <trkpt lat="43.23541014455259" lon="-6.765722203999758">
        <ele>912.2</ele>
        <time>2017-08-06T12:23:04.000Z</time>
      </trkpt>
      <trkpt lat="43.235353231430054" lon="-6.765752211213112">
        <ele>912.2</ele>
        <time>2017-08-06T12:23:10.000Z</time>
      </trkpt>
      <trkpt lat="43.23530369438231" lon="-6.765782386064529">
        <ele>911.8</ele>
        <time>2017-08-06T12:23:16.000Z</time>
      </trkpt>
      <trkpt lat="43.235238399356604" lon="-6.765829576179385">
        <ele>911.6</ele>
        <time>2017-08-06T12:23:23.000Z</time>
      </trkpt>
      <trkpt lat="43.23517033830285" lon="-6.765870060771704">
        <ele>911.2</ele>
        <time>2017-08-06T12:23:30.000Z</time>
      </trkpt>
      <trkpt lat="43.23507780209184" lon="-6.765968129038811">
        <ele>909.8</ele>
        <time>2017-08-06T12:23:39.000Z</time>
      </trkpt>
      <trkpt lat="43.235007813200355" lon="-6.766043985262513">
        <ele>908.8</ele>
        <time>2017-08-06T12:23:46.000Z</time>
      </trkpt>
      <trkpt lat="43.23493229225278" lon="-6.766140041872859">
        <ele>907.6</ele>
        <time>2017-08-06T12:23:54.000Z</time>
      </trkpt>
      <trkpt lat="43.23487093672156" lon="-6.766235511749983">
        <ele>906.4</ele>
        <time>2017-08-06T12:24:03.000Z</time>
      </trkpt>
      <trkpt lat="43.2348707690835" lon="-6.766235427930951">
        <ele>906.4</ele>
        <time>2017-08-06T12:24:11.000Z</time>
      </trkpt>
      <trkpt lat="43.23486004024744" lon="-6.766239954158664">
        <ele>906.4</ele>
        <time>2017-08-06T12:24:23.000Z</time>
      </trkpt>
      <trkpt lat="43.23484252206981" lon="-6.766282366588712">
        <ele>906</ele>
        <time>2017-08-06T12:24:51.000Z</time>
      </trkpt>
      <trkpt lat="43.23484294116497" lon="-6.766286892816424">
        <ele>906</ele>
        <time>2017-08-06T12:24:59.000Z</time>
      </trkpt>
      <trkpt lat="43.23484738357365" lon="-6.766278427094221">
        <ele>906</ele>
        <time>2017-08-06T12:25:30.000Z</time>
      </trkpt>
      <trkpt lat="43.23485157452524" lon="-6.766251185908914">
        <ele>906.2</ele>
        <time>2017-08-06T12:26:32.000Z</time>
      </trkpt>
      <trkpt lat="43.23488216847181" lon="-6.766308434307575">
        <ele>906</ele>
        <time>2017-08-06T12:26:41.000Z</time>
      </trkpt>
      <trkpt lat="43.234907146543264" lon="-6.76630818285048">
        <ele>906</ele>
        <time>2017-08-06T12:26:43.000Z</time>
      </trkpt>
      <trkpt lat="43.23495182208717" lon="-6.7663042433559895">
        <ele>906.2</ele>
        <time>2017-08-06T12:26:47.000Z</time>
      </trkpt>
      <trkpt lat="43.23497872799635" lon="-6.766306087374687">
        <ele>906.4</ele>
        <time>2017-08-06T12:26:50.000Z</time>
      </trkpt>
      <trkpt lat="43.23498132638633" lon="-6.766305584460497">
        <ele>906.4</ele>
        <time>2017-08-06T12:26:52.000Z</time>
      </trkpt>
      <trkpt lat="43.23502474464476" lon="-6.7662883177399635">
        <ele>906.6</ele>
        <time>2017-08-06T12:27:03.000Z</time>
      </trkpt>
      <trkpt lat="43.23511124588549" lon="-6.766271302476525">
        <ele>907</ele>
        <time>2017-08-06T12:27:11.000Z</time>
      </trkpt>
      <trkpt lat="43.23512524366379" lon="-6.766270464286208">
        <ele>907</ele>
        <time>2017-08-06T12:27:13.000Z</time>
      </trkpt>
      <trkpt lat="43.23515432886779" lon="-6.766253532841802">
        <ele>907.2</ele>
        <time>2017-08-06T12:27:17.000Z</time>
      </trkpt>
      <trkpt lat="43.23519280180335" lon="-6.766206007450819">
        <ele>907.8</ele>
        <time>2017-08-06T12:27:23.000Z</time>
      </trkpt>
      <trkpt lat="43.23519146069884" lon="-6.766179604455829">
        <ele>908</ele>
        <time>2017-08-06T12:27:25.000Z</time>
      </trkpt>
      <trkpt lat="43.23521140962839" lon="-6.766148842871189">
        <ele>908.4</ele>
        <time>2017-08-06T12:27:28.000Z</time>
      </trkpt>
      <trkpt lat="43.23523429222405" lon="-6.766138365492225">
        <ele>908.4</ele>
        <time>2017-08-06T12:27:31.000Z</time>
      </trkpt>
      <trkpt lat="43.235237980261445" lon="-6.7661563865840435">
        <ele>908.2</ele>
        <time>2017-08-06T12:27:32.000Z</time>
      </trkpt>
      <trkpt lat="43.23526354506612" lon="-6.766205839812756">
        <ele>907.8</ele>
        <time>2017-08-06T12:27:48.000Z</time>
      </trkpt>
      <trkpt lat="43.235228173434734" lon="-6.7661696299910545">
        <ele>908.2</ele>
        <time>2017-08-06T12:27:53.000Z</time>
      </trkpt>
      <trkpt lat="43.23521291837096" lon="-6.766174910590053">
        <ele>908</ele>
        <time>2017-08-06T12:27:54.000Z</time>
      </trkpt>
      <trkpt lat="43.23504578322172" lon="-6.766288485378027">
        <ele>906.6</ele>
        <time>2017-08-06T12:28:03.000Z</time>
      </trkpt>
      <trkpt lat="43.23511124588549" lon="-6.766415135934949">
        <ele>905.6</ele>
        <time>2017-08-06T12:28:22.000Z</time>
      </trkpt>
      <trkpt lat="43.23512230999768" lon="-6.766368700191379">
        <ele>906</ele>
        <time>2017-08-06T12:28:23.000Z</time>
      </trkpt>
      <trkpt lat="43.23508962057531" lon="-6.766324359923601">
        <ele>906.4</ele>
        <time>2017-08-06T12:28:27.000Z</time>
      </trkpt>
      <trkpt lat="43.235052237287164" lon="-6.766296783462167">
        <ele>906.6</ele>
        <time>2017-08-06T12:28:33.000Z</time>
      </trkpt>
      <trkpt lat="43.23502373881638" lon="-6.7662859708070755">
        <ele>906.6</ele>
        <time>2017-08-06T12:28:37.000Z</time>
      </trkpt>
      <trkpt lat="43.23501493781805" lon="-6.766284629702568">
        <ele>906.6</ele>
        <time>2017-08-06T12:28:38.000Z</time>
      </trkpt>
      <trkpt lat="43.234946206212044" lon="-6.766299130395055">
        <ele>906.2</ele>
        <time>2017-08-06T12:28:44.000Z</time>
      </trkpt>
      <trkpt lat="43.23492567054927" lon="-6.766303991898894">
        <ele>906.2</ele>
        <time>2017-08-06T12:28:46.000Z</time>
      </trkpt>
      <trkpt lat="43.23492114432156" lon="-6.766303991898894">
        <ele>906.2</ele>
        <time>2017-08-06T12:28:51.000Z</time>
      </trkpt>
      <trkpt lat="43.23485475964844" lon="-6.766308015212417">
        <ele>905.8</ele>
        <time>2017-08-06T12:29:26.000Z</time>
      </trkpt>
      <trkpt lat="43.234789967536926" lon="-6.76633701659739">
        <ele>905.4</ele>
        <time>2017-08-06T12:29:34.000Z</time>
      </trkpt>
      <trkpt lat="43.23476130142808" lon="-6.766355792060494">
        <ele>905.2</ele>
        <time>2017-08-06T12:29:38.000Z</time>
      </trkpt>
      <trkpt lat="43.23472768999636" lon="-6.766369286924601">
        <ele>905</ele>
        <time>2017-08-06T12:29:41.000Z</time>
      </trkpt>
      <trkpt lat="43.23468309827149" lon="-6.766383787617087">
        <ele>904.8</ele>
        <time>2017-08-06T12:29:46.000Z</time>
      </trkpt>
      <trkpt lat="43.234626268967986" lon="-6.766398204490542">
        <ele>904.8</ele>
        <time>2017-08-06T12:29:53.000Z</time>
      </trkpt>
      <trkpt lat="43.23461227118969" lon="-6.766389571130276">
        <ele>905</ele>
        <time>2017-08-06T12:29:56.000Z</time>
      </trkpt>
      <trkpt lat="43.23460355401039" lon="-6.766380099579692">
        <ele>905.2</ele>
        <time>2017-08-06T12:29:58.000Z</time>
      </trkpt>
      <trkpt lat="43.23460975661874" lon="-6.7663737293332815">
        <ele>905.2</ele>
        <time>2017-08-06T12:30:09.000Z</time>
      </trkpt>
      <trkpt lat="43.23458234779537" lon="-6.7663749027997255">
        <ele>905.4</ele>
        <time>2017-08-06T12:30:32.000Z</time>
      </trkpt>
      <trkpt lat="43.23458109050989" lon="-6.7663793452084064">
        <ele>905.4</ele>
        <time>2017-08-06T12:30:33.000Z</time>
      </trkpt>
      <trkpt lat="43.234567092731595" lon="-6.766400383785367">
        <ele>905.2</ele>
        <time>2017-08-06T12:30:44.000Z</time>
      </trkpt>
      <trkpt lat="43.23456197977066" lon="-6.766386218369007">
        <ele>905.4</ele>
        <time>2017-08-06T12:30:54.000Z</time>
      </trkpt>
      <trkpt lat="43.23455954901874" lon="-6.766409855335951">
        <ele>905.2</ele>
        <time>2017-08-06T12:31:23.000Z</time>
      </trkpt>
      <trkpt lat="43.23444672860205" lon="-6.768492506816983">
        <ele>895.4</ele>
        <time>2017-08-06T15:06:55.000Z</time>
      </trkpt>
      <trkpt lat="43.234394090250134" lon="-6.7684930097311735">
        <ele>895.8</ele>
        <time>2017-08-06T15:06:57.000Z</time>
      </trkpt>
      <trkpt lat="43.23414162732661" lon="-6.768486723303795">
        <ele>895.8</ele>
        <time>2017-08-06T15:07:01.000Z</time>
      </trkpt>
      <trkpt lat="43.23409393429756" lon="-6.768490914255381">
        <ele>895.8</ele>
        <time>2017-08-06T15:07:02.000Z</time>
      </trkpt>
      <trkpt lat="43.23405487462878" lon="-6.76849820651114">
        <ele>895.8</ele>
        <time>2017-08-06T15:07:03.000Z</time>
      </trkpt>
      <trkpt lat="43.23402687907219" lon="-6.768501475453377">
        <ele>895.6</ele>
        <time>2017-08-06T15:07:04.000Z</time>
      </trkpt>
      <trkpt lat="43.23395261541009" lon="-6.768526704981923">
        <ele>895.2</ele>
        <time>2017-08-06T15:07:08.000Z</time>
      </trkpt>
      <trkpt lat="43.233820935711265" lon="-6.768588563427329">
        <ele>895</ele>
        <time>2017-08-06T15:07:15.000Z</time>
      </trkpt>
      <trkpt lat="43.23373560793698" lon="-6.768643297255039">
        <ele>895</ele>
        <time>2017-08-06T15:07:23.000Z</time>
      </trkpt>
      <trkpt lat="43.23368682526052" lon="-6.768369963392615">
        <ele>892.4</ele>
        <time>2017-08-06T15:07:31.000Z</time>
      </trkpt>
      <trkpt lat="43.233681712299585" lon="-6.768080955371261">
        <ele>891.6</ele>
        <time>2017-08-06T15:07:34.000Z</time>
      </trkpt>
      <trkpt lat="43.23370677419007" lon="-6.767745930701494">
        <ele>892.8</ele>
        <time>2017-08-06T15:07:37.000Z</time>
      </trkpt>
      <trkpt lat="43.23368246667087" lon="-6.767607629299164">
        <ele>893.4</ele>
        <time>2017-08-06T15:07:40.000Z</time>
      </trkpt>
      <trkpt lat="43.23367274366319" lon="-6.767584327608347">
        <ele>893.4</ele>
        <time>2017-08-06T15:07:41.000Z</time>
      </trkpt>
      <trkpt lat="43.233648939058185" lon="-6.76754442974925">
        <ele>893.6</ele>
        <time>2017-08-06T15:07:43.000Z</time>
      </trkpt>
      <trkpt lat="43.233633348718286" lon="-6.767514171078801">
        <ele>893.8</ele>
        <time>2017-08-06T15:07:45.000Z</time>
      </trkpt>
      <trkpt lat="43.233601497486234" lon="-6.767486175522208">
        <ele>893.8</ele>
        <time>2017-08-06T15:07:48.000Z</time>
      </trkpt>
      <trkpt lat="43.233597222715616" lon="-6.76746379584074">
        <ele>894</ele>
        <time>2017-08-06T15:07:50.000Z</time>
      </trkpt>
      <trkpt lat="43.2335892599076" lon="-6.767433788627386">
        <ele>894.2</ele>
        <time>2017-08-06T15:07:54.000Z</time>
      </trkpt>
      <trkpt lat="43.23351172730327" lon="-6.767411911860108">
        <ele>894.2</ele>
        <time>2017-08-06T15:08:05.000Z</time>
      </trkpt>
      <trkpt lat="43.233424220234156" lon="-6.767417695373297">
        <ele>894.2</ele>
        <time>2017-08-06T15:08:12.000Z</time>
      </trkpt>
      <trkpt lat="43.23331894353032" lon="-6.767434123903513">
        <ele>894</ele>
        <time>2017-08-06T15:08:21.000Z</time>
      </trkpt>
      <trkpt lat="43.23320796713233" lon="-6.767442170530558">
        <ele>894.2</ele>
        <time>2017-08-06T15:08:30.000Z</time>
      </trkpt>
      <trkpt lat="43.23310344479978" lon="-6.767479972913861">
        <ele>894.2</ele>
        <time>2017-08-06T15:08:39.000Z</time>
      </trkpt>
      <trkpt lat="43.233068911358714" lon="-6.767579382285476">
        <ele>893.6</ele>
        <time>2017-08-06T15:08:46.000Z</time>
      </trkpt>
      <trkpt lat="43.23307109065354" lon="-6.76761232316494">
        <ele>893.6</ele>
        <time>2017-08-06T15:08:52.000Z</time>
      </trkpt>
      <trkpt lat="43.23307209648192" lon="-6.767659597098827">
        <ele>893.4</ele>
        <time>2017-08-06T15:08:56.000Z</time>
      </trkpt>
      <trkpt lat="43.233074275776744" lon="-6.76777602173388">
        <ele>893</ele>
        <time>2017-08-06T15:09:04.000Z</time>
      </trkpt>
      <trkpt lat="43.23308140039444" lon="-6.767894960939884">
        <ele>892.6</ele>
        <time>2017-08-06T15:09:12.000Z</time>
      </trkpt>
      <trkpt lat="43.23309087194502" lon="-6.768019683659077">
        <ele>892.6</ele>
        <time>2017-08-06T15:09:20.000Z</time>
      </trkpt>
      <trkpt lat="43.233091458678246" lon="-6.768147088587284">
        <ele>892.6</ele>
        <time>2017-08-06T15:09:28.000Z</time>
      </trkpt>
      <trkpt lat="43.23309690691531" lon="-6.768275918439031">
        <ele>893.2</ele>
        <time>2017-08-06T15:09:36.000Z</time>
      </trkpt>
      <trkpt lat="43.23311903513968" lon="-6.768400892615318">
        <ele>893.4</ele>
        <time>2017-08-06T15:09:44.000Z</time>
      </trkpt>
      <trkpt lat="43.233171505853534" lon="-6.76852360367775">
        <ele>894</ele>
        <time>2017-08-06T15:09:53.000Z</time>
      </trkpt>
      <trkpt lat="43.233256582170725" lon="-6.768654193729162">
        <ele>894</ele>
        <time>2017-08-06T15:10:03.000Z</time>
      </trkpt>
      <trkpt lat="43.23333604261279" lon="-6.768692163750529">
        <ele>894</ele>
        <time>2017-08-06T15:10:10.000Z</time>
      </trkpt>
      <trkpt lat="43.2334063667804" lon="-6.7687492445111275">
        <ele>894.4</ele>
        <time>2017-08-06T15:10:18.000Z</time>
      </trkpt>
      <trkpt lat="43.23348205536604" lon="-6.768753854557872">
        <ele>894.4</ele>
        <time>2017-08-06T15:10:25.000Z</time>
      </trkpt>
      <trkpt lat="43.23353192768991" lon="-6.768723428249359">
        <ele>894.2</ele>
        <time>2017-08-06T15:10:31.000Z</time>
      </trkpt>
      <trkpt lat="43.23359210975468" lon="-6.768695013597608">
        <ele>894.4</ele>
        <time>2017-08-06T15:10:37.000Z</time>
      </trkpt>
      <trkpt lat="43.233681712299585" lon="-6.768695516511798">
        <ele>895.2</ele>
        <time>2017-08-06T15:10:45.000Z</time>
      </trkpt>
      <trkpt lat="43.23377190157771" lon="-6.7687159683555365">
        <ele>896</ele>
        <time>2017-08-06T15:10:53.000Z</time>
      </trkpt>
      <trkpt lat="43.233863934874535" lon="-6.768723260611296">
        <ele>896.8</ele>
        <time>2017-08-06T15:11:01.000Z</time>
      </trkpt>
      <trkpt lat="43.2339449878782" lon="-6.768752597272396">
        <ele>897.6</ele>
        <time>2017-08-06T15:11:09.000Z</time>
      </trkpt>
      <trkpt lat="43.23397180996835" lon="-6.768763912841678">
        <ele>898</ele>
        <time>2017-08-06T15:11:13.000Z</time>
      </trkpt>
      <trkpt lat="43.23404825292528" lon="-6.768802721053362">
        <ele>899.2</ele>
        <time>2017-08-06T15:11:21.000Z</time>
      </trkpt>
      <trkpt lat="43.23411329649389" lon="-6.768842367455363">
        <ele>900.2</ele>
        <time>2017-08-06T15:11:28.000Z</time>
      </trkpt>
      <trkpt lat="43.23417364619672" lon="-6.768894754350185">
        <ele>901</ele>
        <time>2017-08-06T15:11:35.000Z</time>
      </trkpt>
      <trkpt lat="43.23422519490123" lon="-6.768959295004606">
        <ele>902</ele>
        <time>2017-08-06T15:11:42.000Z</time>
      </trkpt>
      <trkpt lat="43.23425319045782" lon="-6.769016794860363">
        <ele>902.6</ele>
        <time>2017-08-06T15:11:47.000Z</time>
      </trkpt>
      <trkpt lat="43.23425897397101" lon="-6.769027858972549">
        <ele>902.6</ele>
        <time>2017-08-06T15:11:48.000Z</time>
      </trkpt>
      <trkpt lat="43.23426442220807" lon="-6.7690835148096085">
        <ele>903.4</ele>
        <time>2017-08-06T15:11:52.000Z</time>
      </trkpt>
      <trkpt lat="43.234264673665166" lon="-6.769108157604933">
        <ele>903.6</ele>
        <time>2017-08-06T15:11:54.000Z</time>
      </trkpt>
      <trkpt lat="43.23426492512226" lon="-6.7691615503281355">
        <ele>904.4</ele>
        <time>2017-08-06T15:12:00.000Z</time>
      </trkpt>
      <trkpt lat="43.2342679426074" lon="-6.769222905859351">
        <ele>905.4</ele>
        <time>2017-08-06T15:12:05.000Z</time>
      </trkpt>
      <trkpt lat="43.2342681940645" lon="-6.769299935549498">
        <ele>906.2</ele>
        <time>2017-08-06T15:12:11.000Z</time>
      </trkpt>
      <trkpt lat="43.23427380993962" lon="-6.769335139542818">
        <ele>906.6</ele>
        <time>2017-08-06T15:12:13.000Z</time>
      </trkpt>
      <trkpt lat="43.23427213355899" lon="-6.769388699904084">
        <ele>906.8</ele>
        <time>2017-08-06T15:12:17.000Z</time>
      </trkpt>
      <trkpt lat="43.23427062481642" lon="-6.7694660648703575">
        <ele>907.2</ele>
        <time>2017-08-06T15:12:22.000Z</time>
      </trkpt>
      <trkpt lat="43.23426542803645" lon="-6.769555332139134">
        <ele>907.6</ele>
        <time>2017-08-06T15:12:28.000Z</time>
      </trkpt>
      <trkpt lat="43.23426308110356" lon="-6.769592044875026">
        <ele>908</ele>
        <time>2017-08-06T15:12:31.000Z</time>
      </trkpt>
      <trkpt lat="43.23424832895398" lon="-6.769646108150482">
        <ele>908.4</ele>
        <time>2017-08-06T15:12:34.000Z</time>
      </trkpt>
      <trkpt lat="43.234244640916586" lon="-6.769699584692717">
        <ele>908.8</ele>
        <time>2017-08-06T15:12:37.000Z</time>
      </trkpt>
      <trkpt lat="43.234234834089875" lon="-6.769751217216253">
        <ele>909.2</ele>
        <time>2017-08-06T15:12:40.000Z</time>
      </trkpt>
      <trkpt lat="43.234221674501896" lon="-6.769844340160489">
        <ele>909.8</ele>
        <time>2017-08-06T15:12:46.000Z</time>
      </trkpt>
      <trkpt lat="43.23422075249255" lon="-6.769856745377183">
        <ele>909.8</ele>
        <time>2017-08-06T15:12:47.000Z</time>
      </trkpt>
      <trkpt lat="43.23422075249255" lon="-6.769856745377183">
        <ele>909.8</ele>
        <time>2017-08-06T15:12:47.000Z</time>
      </trkpt>
      <trkpt lat="43.23421421460807" lon="-6.769914831966162">
        <ele>910</ele>
        <time>2017-08-06T15:12:50.000Z</time>
      </trkpt>
      <trkpt lat="43.23420625180006" lon="-6.769940312951803">
        <ele>910.2</ele>
        <time>2017-08-06T15:12:52.000Z</time>
      </trkpt>
      <trkpt lat="43.23420340195298" lon="-6.769973589107394">
        <ele>910.2</ele>
        <time>2017-08-06T15:12:54.000Z</time>
      </trkpt>
      <trkpt lat="43.234196277335286" lon="-6.77004718221724">
        <ele>910.2</ele>
        <time>2017-08-06T15:12:59.000Z</time>
      </trkpt>
      <trkpt lat="43.23417783714831" lon="-6.77013804204762">
        <ele>910.6</ele>
        <time>2017-08-06T15:13:06.000Z</time>
      </trkpt>
      <trkpt lat="43.23415738530457" lon="-6.770211551338434">
        <ele>911</ele>
        <time>2017-08-06T15:13:12.000Z</time>
      </trkpt>
      <trkpt lat="43.2341350056231" lon="-6.770292604342103">
        <ele>911.4</ele>
        <time>2017-08-06T15:13:19.000Z</time>
      </trkpt>
      <trkpt lat="43.234105836600065" lon="-6.7703805305063725">
        <ele>912</ele>
        <time>2017-08-06T15:13:26.000Z</time>
      </trkpt>
      <trkpt lat="43.234076080843806" lon="-6.770497709512711">
        <ele>912.6</ele>
        <time>2017-08-06T15:13:34.000Z</time>
      </trkpt>
      <trkpt lat="43.2340419664979" lon="-6.770615139976144">
        <ele>913.2</ele>
        <time>2017-08-06T15:13:42.000Z</time>
      </trkpt>
      <trkpt lat="43.23401615023613" lon="-6.770731816068292">
        <ele>913.6</ele>
        <time>2017-08-06T15:13:49.000Z</time>
      </trkpt>
      <trkpt lat="43.23398429900408" lon="-6.770830051973462">
        <ele>914.2</ele>
        <time>2017-08-06T15:13:56.000Z</time>
      </trkpt>
      <trkpt lat="43.23394297622144" lon="-6.770922001451254">
        <ele>914.6</ele>
        <time>2017-08-06T15:14:03.000Z</time>
      </trkpt>
      <trkpt lat="43.23393325321376" lon="-6.7709437943995">
        <ele>914.8</ele>
        <time>2017-08-06T15:14:09.000Z</time>
      </trkpt>
      <trkpt lat="43.233897127211094" lon="-6.771009843796492">
        <ele>915.4</ele>
        <time>2017-08-06T15:14:15.000Z</time>
      </trkpt>
      <trkpt lat="43.23385236784816" lon="-6.771104978397489">
        <ele>916.2</ele>
        <time>2017-08-06T15:14:23.000Z</time>
      </trkpt>
      <trkpt lat="43.23380802758038" lon="-6.771201705560088">
        <ele>917.2</ele>
        <time>2017-08-06T15:14:31.000Z</time>
      </trkpt>
      <trkpt lat="43.23380744084716" lon="-6.77122131921351">
        <ele>917.2</ele>
        <time>2017-08-06T15:14:32.000Z</time>
      </trkpt>
      <trkpt lat="43.23378363624215" lon="-6.771282171830535">
        <ele>917.6</ele>
        <time>2017-08-06T15:14:37.000Z</time>
      </trkpt>
      <trkpt lat="43.23377273976803" lon="-6.771299941465259">
        <ele>917.8</ele>
        <time>2017-08-06T15:14:39.000Z</time>
      </trkpt>
      <trkpt lat="43.23375756852329" lon="-6.771335983648896">
        <ele>918</ele>
        <time>2017-08-06T15:14:45.000Z</time>
      </trkpt>
      <trkpt lat="43.233733512461185" lon="-6.771317292004824">
        <ele>918</ele>
        <time>2017-08-06T15:15:14.000Z</time>
      </trkpt>
      <trkpt lat="43.233739295974374" lon="-6.771317208185792">
        <ele>918</ele>
        <time>2017-08-06T15:15:23.000Z</time>
      </trkpt>
      <trkpt lat="43.233747594058514" lon="-6.771355513483286">
        <ele>918.2</ele>
        <time>2017-08-06T15:15:28.000Z</time>
      </trkpt>
      <trkpt lat="43.233720269054174" lon="-6.771425670012832">
        <ele>918.8</ele>
        <time>2017-08-06T15:15:43.000Z</time>
      </trkpt>
      <trkpt lat="43.23368087410927" lon="-6.771524073556066">
        <ele>919.4</ele>
        <time>2017-08-06T15:15:51.000Z</time>
      </trkpt>
      <trkpt lat="43.23365715332329" lon="-6.771583836525679">
        <ele>919.8</ele>
        <time>2017-08-06T15:15:57.000Z</time>
      </trkpt>
      <trkpt lat="43.23362664319575" lon="-6.771687939763069">
        <ele>920.6</ele>
        <time>2017-08-06T15:16:05.000Z</time>
      </trkpt>
      <trkpt lat="43.2336101308465" lon="-6.771761616691947">
        <ele>921.2</ele>
        <time>2017-08-06T15:16:12.000Z</time>
      </trkpt>
      <trkpt lat="43.23358967900276" lon="-6.771849123761058">
        <ele>921.8</ele>
        <time>2017-08-06T15:16:18.000Z</time>
      </trkpt>
      <trkpt lat="43.23355891741812" lon="-6.7719298414886">
        <ele>922.4</ele>
        <time>2017-08-06T15:16:24.000Z</time>
      </trkpt>
      <trkpt lat="43.23353569954634" lon="-6.77203394472599">
        <ele>923.2</ele>
        <time>2017-08-06T15:16:32.000Z</time>
      </trkpt>
      <trkpt lat="43.23353536427021" lon="-6.772135701030493">
        <ele>924.2</ele>
        <time>2017-08-06T15:16:39.000Z</time>
      </trkpt>
      <trkpt lat="43.23353041894734" lon="-6.772159254178405">
        <ele>924.4</ele>
        <time>2017-08-06T15:16:40.000Z</time>
      </trkpt>
      <trkpt lat="43.233535531908274" lon="-6.772210635244846">
        <ele>925</ele>
        <time>2017-08-06T15:16:44.000Z</time>
      </trkpt>
      <trkpt lat="43.233536621555686" lon="-6.772240391001105">
        <ele>925.4</ele>
        <time>2017-08-06T15:16:46.000Z</time>
      </trkpt>
      <trkpt lat="43.23355162516236" lon="-6.772320102900267">
        <ele>926.2</ele>
        <time>2017-08-06T15:16:51.000Z</time>
      </trkpt>
      <trkpt lat="43.23357216082513" lon="-6.772418422624469">
        <ele>927.2</ele>
        <time>2017-08-06T15:16:58.000Z</time>
      </trkpt>
      <trkpt lat="43.23360049165785" lon="-6.772520346567035">
        <ele>928.2</ele>
        <time>2017-08-06T15:17:05.000Z</time>
      </trkpt>
      <trkpt lat="43.233635695651174" lon="-6.772597376257181">
        <ele>929.4</ele>
        <time>2017-08-06T15:17:11.000Z</time>
      </trkpt>
      <trkpt lat="43.23365271091461" lon="-6.772672226652503">
        <ele>929.8</ele>
        <time>2017-08-06T15:17:16.000Z</time>
      </trkpt>
      <trkpt lat="43.23368791490793" lon="-6.772783454507589">
        <ele>930.8</ele>
        <time>2017-08-06T15:17:24.000Z</time>
      </trkpt>
      <trkpt lat="43.233725633472204" lon="-6.772886049002409">
        <ele>932.2</ele>
        <time>2017-08-06T15:17:32.000Z</time>
      </trkpt>
      <trkpt lat="43.233776008710265" lon="-6.77298579365015">
        <ele>933.6</ele>
        <time>2017-08-06T15:17:41.000Z</time>
      </trkpt>
      <trkpt lat="43.23383728042245" lon="-6.773072881624103">
        <ele>934.2</ele>
        <time>2017-08-06T15:17:50.000Z</time>
      </trkpt>
      <trkpt lat="43.23389486409724" lon="-6.77314848639071">
        <ele>933.6</ele>
        <time>2017-08-06T15:17:58.000Z</time>
      </trkpt>
      <trkpt lat="43.233926547691226" lon="-6.773222666233778">
        <ele>933.6</ele>
        <time>2017-08-06T15:18:05.000Z</time>
      </trkpt>
      <trkpt lat="43.233916657045484" lon="-6.773301707580686">
        <ele>934.4</ele>
        <time>2017-08-06T15:18:11.000Z</time>
      </trkpt>
      <trkpt lat="43.23392218910158" lon="-6.773313945159316">
        <ele>934.4</ele>
        <time>2017-08-06T15:18:13.000Z</time>
      </trkpt>
      <trkpt lat="43.23392445221543" lon="-6.773314448073506">
        <ele>934.4</ele>
        <time>2017-08-06T15:18:17.000Z</time>
      </trkpt>
      <trkpt lat="43.2339190877974" lon="-6.77330874837935">
        <ele>934.4</ele>
        <time>2017-08-06T15:18:33.000Z</time>
      </trkpt>
      <trkpt lat="43.23391439393163" lon="-6.773302126675844">
        <ele>934.4</ele>
        <time>2017-08-06T15:19:34.000Z</time>
      </trkpt>
      <trkpt lat="43.23389067314565" lon="-6.773341773077846">
        <ele>935.2</ele>
        <time>2017-08-06T15:20:49.000Z</time>
      </trkpt>
      <trkpt lat="43.233872316777706" lon="-6.773407906293869">
        <ele>936.4</ele>
        <time>2017-08-06T15:21:52.000Z</time>
      </trkpt>
      <trkpt lat="43.233856642618775" lon="-6.773487450554967">
        <ele>937.4</ele>
        <time>2017-08-06T15:21:59.000Z</time>
      </trkpt>
      <trkpt lat="43.23384759016335" lon="-6.773533299565315">
        <ele>938</ele>
        <time>2017-08-06T15:22:03.000Z</time>
      </trkpt>
      <trkpt lat="43.2338485121727" lon="-6.77356481552124">
        <ele>938.4</ele>
        <time>2017-08-06T15:22:06.000Z</time>
      </trkpt>
      <trkpt lat="43.23384708724916" lon="-6.773584512993693">
        <ele>938.6</ele>
        <time>2017-08-06T15:22:08.000Z</time>
      </trkpt>
      <trkpt lat="43.23386670090258" lon="-6.773686269298196">
        <ele>939.8</ele>
        <time>2017-08-06T15:22:17.000Z</time>
      </trkpt>
      <trkpt lat="43.23387147858739" lon="-6.773719629272819">
        <ele>940.4</ele>
        <time>2017-08-06T15:22:20.000Z</time>
      </trkpt>
      <trkpt lat="43.23387801647186" lon="-6.773736393079162">
        <ele>940.6</ele>
        <time>2017-08-06T15:22:23.000Z</time>
      </trkpt>
      <trkpt lat="43.23389628902078" lon="-6.77375977858901">
        <ele>941</ele>
        <time>2017-08-06T15:22:30.000Z</time>
      </trkpt>
      <trkpt lat="43.2339174952358" lon="-6.773826079443097">
        <ele>942.2</ele>
        <time>2017-08-06T15:22:48.000Z</time>
      </trkpt>
      <trkpt lat="43.23393451049924" lon="-6.773889362812042">
        <ele>943</ele>
        <time>2017-08-06T15:22:54.000Z</time>
      </trkpt>
      <trkpt lat="43.2339415512979" lon="-6.773947197943926">
        <ele>943.8</ele>
        <time>2017-08-06T15:22:58.000Z</time>
      </trkpt>
      <trkpt lat="43.233942138031125" lon="-6.773968823254108">
        <ele>944.2</ele>
        <time>2017-08-06T15:23:00.000Z</time>
      </trkpt>
      <trkpt lat="43.233942138031125" lon="-6.774004949256778">
        <ele>944.8</ele>
        <time>2017-08-06T15:23:03.000Z</time>
      </trkpt>
      <trkpt lat="43.23394909501076" lon="-6.774049624800682">
        <ele>945.6</ele>
        <time>2017-08-06T15:23:07.000Z</time>
      </trkpt>
      <trkpt lat="43.23394834063947" lon="-6.77409203723073">
        <ele>946.4</ele>
        <time>2017-08-06T15:23:11.000Z</time>
      </trkpt>
      <trkpt lat="43.23394666425884" lon="-6.774118524044752">
        <ele>946.8</ele>
        <time>2017-08-06T15:23:13.000Z</time>
      </trkpt>
      <trkpt lat="43.23394624516368" lon="-6.774130426347256">
        <ele>947</ele>
        <time>2017-08-06T15:23:14.000Z</time>
      </trkpt>
      <trkpt lat="43.23395085521042" lon="-6.774224890395999">
        <ele>948.6</ele>
        <time>2017-08-06T15:23:23.000Z</time>
      </trkpt>
      <trkpt lat="43.23395018465817" lon="-6.774281887337565">
        <ele>949.4</ele>
        <time>2017-08-06T15:23:29.000Z</time>
      </trkpt>
      <trkpt lat="43.23395303450525" lon="-6.77436369471252">
        <ele>950.4</ele>
        <time>2017-08-06T15:23:37.000Z</time>
      </trkpt>
      <trkpt lat="43.233954291790724" lon="-6.774418009445071">
        <ele>951.2</ele>
        <time>2017-08-06T15:23:43.000Z</time>
      </trkpt>
      <trkpt lat="43.2339537050575" lon="-6.7744850646704435">
        <ele>952.4</ele>
        <time>2017-08-06T15:23:50.000Z</time>
      </trkpt>
      <trkpt lat="43.23395303450525" lon="-6.774571901187301">
        <ele>953.6</ele>
        <time>2017-08-06T15:23:57.000Z</time>
      </trkpt>
      <trkpt lat="43.23393861763179" lon="-6.774678518995643">
        <ele>954.8</ele>
        <time>2017-08-06T15:24:06.000Z</time>
      </trkpt>
      <trkpt lat="43.23390928097069" lon="-6.774751860648394">
        <ele>955.4</ele>
        <time>2017-08-06T15:24:13.000Z</time>
      </trkpt>
      <trkpt lat="43.233903581276536" lon="-6.774758733808994">
        <ele>955.6</ele>
        <time>2017-08-06T15:24:14.000Z</time>
      </trkpt>
      <trkpt lat="43.233885979279876" lon="-6.774781532585621">
        <ele>955.8</ele>
        <time>2017-08-06T15:24:20.000Z</time>
      </trkpt>
      <trkpt lat="43.23382940143347" lon="-6.774850348010659">
        <ele>956.6</ele>
        <time>2017-08-06T15:24:28.000Z</time>
      </trkpt>
      <trkpt lat="43.23379813693464" lon="-6.774907931685448">
        <ele>957.2</ele>
        <time>2017-08-06T15:24:34.000Z</time>
      </trkpt>
      <trkpt lat="43.23377232067287" lon="-6.774996612221003">
        <ele>958</ele>
        <time>2017-08-06T15:24:42.000Z</time>
      </trkpt>
      <trkpt lat="43.233765782788396" lon="-6.775003569200635">
        <ele>958</ele>
        <time>2017-08-06T15:24:43.000Z</time>
      </trkpt>
      <trkpt lat="43.23375086300075" lon="-6.775054531171918">
        <ele>958.6</ele>
        <time>2017-08-06T15:24:48.000Z</time>
      </trkpt>
      <trkpt lat="43.23372781276703" lon="-6.775104403495789">
        <ele>959.2</ele>
        <time>2017-08-06T15:24:53.000Z</time>
      </trkpt>
      <trkpt lat="43.23372194543481" lon="-6.7751244362443686">
        <ele>959.6</ele>
        <time>2017-08-06T15:24:55.000Z</time>
      </trkpt>
      <trkpt lat="43.23371364735067" lon="-6.7751432955265045">
        <ele>959.8</ele>
        <time>2017-08-06T15:24:57.000Z</time>
      </trkpt>
      <trkpt lat="43.23369017802179" lon="-6.775192162021995">
        <ele>960.6</ele>
        <time>2017-08-06T15:25:02.000Z</time>
      </trkpt>
      <trkpt lat="43.23365463875234" lon="-6.775252930819988">
        <ele>961.6</ele>
        <time>2017-08-06T15:25:08.000Z</time>
      </trkpt>
      <trkpt lat="43.233653884381056" lon="-6.775271790102124">
        <ele>962</ele>
        <time>2017-08-06T15:25:10.000Z</time>
      </trkpt>
      <trkpt lat="43.23364952579141" lon="-6.775271035730839">
        <ele>962</ele>
        <time>2017-08-06T15:25:13.000Z</time>
      </trkpt>
      <trkpt lat="43.23362622410059" lon="-6.775325182825327">
        <ele>962.8</ele>
        <time>2017-08-06T15:25:19.000Z</time>
      </trkpt>
      <trkpt lat="43.23358029127121" lon="-6.775406822562218">
        <ele>964</ele>
        <time>2017-08-06T15:25:27.000Z</time>
      </trkpt>
      <trkpt lat="43.233539471402764" lon="-6.775467591360211">
        <ele>964.6</ele>
        <time>2017-08-06T15:25:34.000Z</time>
      </trkpt>
      <trkpt lat="43.23352932929993" lon="-6.775478487834334">
        <ele>964.6</ele>
        <time>2017-08-06T15:25:35.000Z</time>
      </trkpt>
      <trkpt lat="43.233477026224136" lon="-6.775569934397936">
        <ele>965.2</ele>
        <time>2017-08-06T15:25:44.000Z</time>
      </trkpt>
      <trkpt lat="43.23344551026821" lon="-6.775657022371888">
        <ele>966.2</ele>
        <time>2017-08-06T15:25:52.000Z</time>
      </trkpt>
      <trkpt lat="43.23342396877706" lon="-6.775729693472385">
        <ele>967.2</ele>
        <time>2017-08-06T15:25:58.000Z</time>
      </trkpt>
      <trkpt lat="43.23338784277439" lon="-6.7758094891905785">
        <ele>968</ele>
        <time>2017-08-06T15:26:05.000Z</time>
      </trkpt>
      <trkpt lat="43.23334962129593" lon="-6.775904623791575">
        <ele>968.8</ele>
        <time>2017-08-06T15:26:13.000Z</time>
      </trkpt>
      <trkpt lat="43.23332732543349" lon="-6.775974780321121">
        <ele>969.2</ele>
        <time>2017-08-06T15:26:19.000Z</time>
      </trkpt>
      <trkpt lat="43.233331767842174" lon="-6.775989448651671">
        <ele>969.4</ele>
        <time>2017-08-06T15:26:20.000Z</time>
      </trkpt>
      <trkpt lat="43.23332590050995" lon="-6.77602993324399">
        <ele>969.6</ele>
        <time>2017-08-06T15:26:24.000Z</time>
      </trkpt>
      <trkpt lat="43.233313746750355" lon="-6.776132108643651">
        <ele>970.2</ele>
        <time>2017-08-06T15:26:33.000Z</time>
      </trkpt>
      <trkpt lat="43.233312238007784" lon="-6.776203187182546">
        <ele>970.8</ele>
        <time>2017-08-06T15:26:39.000Z</time>
      </trkpt>
      <trkpt lat="43.23330821469426" lon="-6.776272002607584">
        <ele>971.4</ele>
        <time>2017-08-06T15:26:45.000Z</time>
      </trkpt>
      <trkpt lat="43.23329824022949" lon="-6.776340566575527">
        <ele>972</ele>
        <time>2017-08-06T15:26:51.000Z</time>
      </trkpt>
      <trkpt lat="43.23329287581146" lon="-6.776378201320767">
        <ele>972.4</ele>
        <time>2017-08-06T15:26:54.000Z</time>
      </trkpt>
      <trkpt lat="43.233294636011124" lon="-6.7763870023190975">
        <ele>972.6</ele>
        <time>2017-08-06T15:26:56.000Z</time>
      </trkpt>
      <trkpt lat="43.233286924660206" lon="-6.776452884078026">
        <ele>973.2</ele>
        <time>2017-08-06T15:27:03.000Z</time>
      </trkpt>
      <trkpt lat="43.23327250778675" lon="-6.776533182710409">
        <ele>973.8</ele>
        <time>2017-08-06T15:27:10.000Z</time>
      </trkpt>
      <trkpt lat="43.23325582779944" lon="-6.776640135794878">
        <ele>974.8</ele>
        <time>2017-08-06T15:27:18.000Z</time>
      </trkpt>
      <trkpt lat="43.23325113393366" lon="-6.776740886271">
        <ele>975.8</ele>
        <time>2017-08-06T15:27:26.000Z</time>
      </trkpt>
      <trkpt lat="43.23325498960912" lon="-6.776854209601879">
        <ele>976.8</ele>
        <time>2017-08-06T15:27:35.000Z</time>
      </trkpt>
      <trkpt lat="43.233243925496936" lon="-6.7769495118409395">
        <ele>977.4</ele>
        <time>2017-08-06T15:27:42.000Z</time>
      </trkpt>
      <trkpt lat="43.2332266587764" lon="-6.777066355571151">
        <ele>978</ele>
        <time>2017-08-06T15:27:50.000Z</time>
      </trkpt>
      <trkpt lat="43.23321693576872" lon="-6.777167860418558">
        <ele>978.8</ele>
        <time>2017-08-06T15:27:58.000Z</time>
      </trkpt>
      <trkpt lat="43.233218444511294" lon="-6.777242124080658">
        <ele>979.2</ele>
        <time>2017-08-06T15:28:04.000Z</time>
      </trkpt>
      <trkpt lat="43.233231185004115" lon="-6.777313286438584">
        <ele>980</ele>
        <time>2017-08-06T15:28:10.000Z</time>
      </trkpt>
      <trkpt lat="43.233234621584415" lon="-6.777333235368133">
        <ele>980.2</ele>
        <time>2017-08-06T15:28:12.000Z</time>
      </trkpt>
      <trkpt lat="43.23323437012732" lon="-6.7773365043103695">
        <ele>980.4</ele>
        <time>2017-08-06T15:28:15.000Z</time>
      </trkpt>
      <trkpt lat="43.23323780670762" lon="-6.777394758537412">
        <ele>981</ele>
        <time>2017-08-06T15:28:22.000Z</time>
      </trkpt>
      <trkpt lat="43.233251636847854" lon="-6.777487546205521">
        <ele>982</ele>
        <time>2017-08-06T15:28:30.000Z</time>
      </trkpt>
      <trkpt lat="43.23325985111296" lon="-6.777590392157435">
        <ele>983.2</ele>
        <time>2017-08-06T15:28:38.000Z</time>
      </trkpt>
      <trkpt lat="43.2332631200552" lon="-6.777710588648915">
        <ele>984.4</ele>
        <time>2017-08-06T15:28:46.000Z</time>
      </trkpt>
      <trkpt lat="43.233272256329656" lon="-6.777817709371448">
        <ele>985.6</ele>
        <time>2017-08-06T15:28:54.000Z</time>
      </trkpt>
      <trkpt lat="43.233270328491926" lon="-6.777830617502332">
        <ele>985.8</ele>
        <time>2017-08-06T15:28:55.000Z</time>
      </trkpt>
      <trkpt lat="43.23323990218341" lon="-6.777895744889975">
        <ele>986.2</ele>
        <time>2017-08-06T15:29:00.000Z</time>
      </trkpt>
      <trkpt lat="43.23318684473634" lon="-6.777994818985462">
        <ele>987</ele>
        <time>2017-08-06T15:29:08.000Z</time>
      </trkpt>
      <trkpt lat="43.233130015432835" lon="-6.778089450672269">
        <ele>987.8</ele>
        <time>2017-08-06T15:29:16.000Z</time>
      </trkpt>
      <trkpt lat="43.233097326010466" lon="-6.7781564220786095">
        <ele>988.4</ele>
        <time>2017-08-06T15:29:24.000Z</time>
      </trkpt>
      <trkpt lat="43.23303211480379" lon="-6.778272343799472">
        <ele>989.6</ele>
        <time>2017-08-06T15:29:34.000Z</time>
      </trkpt>
      <trkpt lat="43.23298232629895" lon="-6.77836119197309">
        <ele>990.6</ele>
        <time>2017-08-06T15:29:41.000Z</time>
      </trkpt>
      <trkpt lat="43.232951229438186" lon="-6.778488010168076">
        <ele>991.6</ele>
        <time>2017-08-06T15:29:50.000Z</time>
      </trkpt>
      <trkpt lat="43.232929604128" lon="-6.7785669676959515">
        <ele>992</ele>
        <time>2017-08-06T15:29:56.000Z</time>
      </trkpt>
      <trkpt lat="43.23292130604386" lon="-6.778589263558388">
        <ele>992</ele>
        <time>2017-08-06T15:29:58.000Z</time>
      </trkpt>
      <trkpt lat="43.232909152284265" lon="-6.778644751757383">
        <ele>992.4</ele>
        <time>2017-08-06T15:30:03.000Z</time>
      </trkpt>
      <trkpt lat="43.23289389722049" lon="-6.778688505291939">
        <ele>992.6</ele>
        <time>2017-08-06T15:30:06.000Z</time>
      </trkpt>
      <trkpt lat="43.23285383172333" lon="-6.778822364285588">
        <ele>993.2</ele>
        <time>2017-08-06T15:30:16.000Z</time>
      </trkpt>
      <trkpt lat="43.23284980840981" lon="-6.778833931311965">
        <ele>993.4</ele>
        <time>2017-08-06T15:30:17.000Z</time>
      </trkpt>
      <trkpt lat="43.23285064660013" lon="-6.778842816129327">
        <ele>993.2</ele>
        <time>2017-08-06T15:30:22.000Z</time>
      </trkpt>
      <trkpt lat="43.23282700963318" lon="-6.778941052034497">
        <ele>993.4</ele>
        <time>2017-08-06T15:30:46.000Z</time>
      </trkpt>
      <trkpt lat="43.23281309567392" lon="-6.779040209949017">
        <ele>993.6</ele>
        <time>2017-08-06T15:30:53.000Z</time>
      </trkpt>
      <trkpt lat="43.23280043900013" lon="-6.779124196618795">
        <ele>994</ele>
        <time>2017-08-06T15:30:59.000Z</time>
      </trkpt>
      <trkpt lat="43.23278836905956" lon="-6.7792310658842325">
        <ele>994</ele>
        <time>2017-08-06T15:31:07.000Z</time>
      </trkpt>
      <trkpt lat="43.23278325609863" lon="-6.779315136373043">
        <ele>993.4</ele>
        <time>2017-08-06T15:31:13.000Z</time>
      </trkpt>
      <trkpt lat="43.232779148966074" lon="-6.77933013997972">
        <ele>993.4</ele>
        <time>2017-08-06T15:31:14.000Z</time>
      </trkpt>
      <trkpt lat="43.23277152143419" lon="-6.77937556989491">
        <ele>993.4</ele>
        <time>2017-08-06T15:31:17.000Z</time>
      </trkpt>
      <trkpt lat="43.232761630788445" lon="-6.779455114156008">
        <ele>993</ele>
        <time>2017-08-06T15:31:22.000Z</time>
      </trkpt>
      <trkpt lat="43.232756266370416" lon="-6.7794867139309645">
        <ele>992.8</ele>
        <time>2017-08-06T15:31:24.000Z</time>
      </trkpt>
      <trkpt lat="43.23273883201182" lon="-6.779625937342644">
        <ele>992.2</ele>
        <time>2017-08-06T15:31:33.000Z</time>
      </trkpt>
      <trkpt lat="43.23271385394037" lon="-6.779816122725606">
        <ele>991.6</ele>
        <time>2017-08-06T15:31:44.000Z</time>
      </trkpt>
      <trkpt lat="43.23267387226224" lon="-6.7799867782741785">
        <ele>991.2</ele>
        <time>2017-08-06T15:31:54.000Z</time>
      </trkpt>
      <trkpt lat="43.23263975791633" lon="-6.780119547620416">
        <ele>990.6</ele>
        <time>2017-08-06T15:32:02.000Z</time>
      </trkpt>
      <trkpt lat="43.232594998553395" lon="-6.780295819044113">
        <ele>989.2</ele>
        <time>2017-08-06T15:32:13.000Z</time>
      </trkpt>
      <trkpt lat="43.23256105184555" lon="-6.780418362468481">
        <ele>988.2</ele>
        <time>2017-08-06T15:32:21.000Z</time>
      </trkpt>
      <trkpt lat="43.23252148926258" lon="-6.7805693205446005">
        <ele>987</ele>
        <time>2017-08-06T15:32:31.000Z</time>
      </trkpt>
      <trkpt lat="43.23249424807727" lon="-6.780651463195682">
        <ele>986.6</ele>
        <time>2017-08-06T15:32:38.000Z</time>
      </trkpt>
      <trkpt lat="43.232455775141716" lon="-6.780773755162954">
        <ele>986</ele>
        <time>2017-08-06T15:32:47.000Z</time>
      </trkpt>
      <trkpt lat="43.23241889476776" lon="-6.780919684097171">
        <ele>985</ele>
        <time>2017-08-06T15:32:57.000Z</time>
      </trkpt>
      <trkpt lat="43.23241302743554" lon="-6.7809345200657845">
        <ele>985</ele>
        <time>2017-08-06T15:32:58.000Z</time>
      </trkpt>
      <trkpt lat="43.23238360695541" lon="-6.78103644400835">
        <ele>984.8</ele>
        <time>2017-08-06T15:33:05.000Z</time>
      </trkpt>
      <trkpt lat="43.232337003573775" lon="-6.781170470640063">
        <ele>984.8</ele>
        <time>2017-08-06T15:33:15.000Z</time>
      </trkpt>
      <trkpt lat="43.23227623477578" lon="-6.78130466490984">
        <ele>983.2</ele>
        <time>2017-08-06T15:33:25.000Z</time>
      </trkpt>
      <trkpt lat="43.23221513070166" lon="-6.781399380415678">
        <ele>982.2</ele>
        <time>2017-08-06T15:33:33.000Z</time>
      </trkpt>
      <trkpt lat="43.23213483206928" lon="-6.781494934111834">
        <ele>981.8</ele>
        <time>2017-08-06T15:33:42.000Z</time>
      </trkpt>
      <trkpt lat="43.23206752538681" lon="-6.78158026188612">
        <ele>981.4</ele>
        <time>2017-08-06T15:33:50.000Z</time>
      </trkpt>
      <trkpt lat="43.23196476325393" lon="-6.781696267426014">
        <ele>981.2</ele>
        <time>2017-08-06T15:34:02.000Z</time>
      </trkpt>
      <trkpt lat="43.23188723064959" lon="-6.7817803379148245">
        <ele>981</ele>
        <time>2017-08-06T15:34:11.000Z</time>
      </trkpt>
      <trkpt lat="43.23180793784559" lon="-6.78187295794487">
        <ele>981.4</ele>
        <time>2017-08-06T15:34:20.000Z</time>
      </trkpt>
      <trkpt lat="43.23172336444259" lon="-6.7819505743682384">
        <ele>982.6</ele>
        <time>2017-08-06T15:34:29.000Z</time>
      </trkpt>
      <trkpt lat="43.231652369722724" lon="-6.782026682049036">
        <ele>983.2</ele>
        <time>2017-08-06T15:34:37.000Z</time>
      </trkpt>
      <trkpt lat="43.23157676495612" lon="-6.782102957367897">
        <ele>983.2</ele>
        <time>2017-08-06T15:34:45.000Z</time>
      </trkpt>
      <trkpt lat="43.231504429131746" lon="-6.782180992886424">
        <ele>982.6</ele>
        <time>2017-08-06T15:34:53.000Z</time>
      </trkpt>
      <trkpt lat="43.23139697313309" lon="-6.782294064760208">
        <ele>981.6</ele>
        <time>2017-08-06T15:35:05.000Z</time>
      </trkpt>
      <trkpt lat="43.23125397786498" lon="-6.782422559335828">
        <ele>980.6</ele>
        <time>2017-08-06T15:35:19.000Z</time>
      </trkpt>
      <trkpt lat="43.231166722252965" lon="-6.782492799684405">
        <ele>980.4</ele>
        <time>2017-08-06T15:35:27.000Z</time>
      </trkpt>
      <trkpt lat="43.23112439364195" lon="-6.782516939565539">
        <ele>980.8</ele>
        <time>2017-08-06T15:35:31.000Z</time>
      </trkpt>
      <trkpt lat="43.23107116855681" lon="-6.782551389187574">
        <ele>981</ele>
        <time>2017-08-06T15:35:36.000Z</time>
      </trkpt>
      <trkpt lat="43.230962539091706" lon="-6.782630011439323">
        <ele>981.6</ele>
        <time>2017-08-06T15:35:46.000Z</time>
      </trkpt>
      <trkpt lat="43.23086857795715" lon="-6.782713746652007">
        <ele>982.2</ele>
        <time>2017-08-06T15:35:55.000Z</time>
      </trkpt>
      <trkpt lat="43.230806635692716" lon="-6.78278717212379">
        <ele>982.2</ele>
        <time>2017-08-06T15:36:02.000Z</time>
      </trkpt>
      <trkpt lat="43.23073798790574" lon="-6.782865040004253">
        <ele>982.4</ele>
        <time>2017-08-06T15:36:10.000Z</time>
      </trkpt>
      <trkpt lat="43.2306762970984" lon="-6.7829633597284555">
        <ele>982.2</ele>
        <time>2017-08-06T15:36:18.000Z</time>
      </trkpt>
      <trkpt lat="43.23063631542027" lon="-6.783050866797566">
        <ele>981.4</ele>
        <time>2017-08-06T15:36:25.000Z</time>
      </trkpt>
      <trkpt lat="43.23059465736151" lon="-6.7831421457231045">
        <ele>980.8</ele>
        <time>2017-08-06T15:36:33.000Z</time>
      </trkpt>
      <trkpt lat="43.23056984692812" lon="-6.783200651407242">
        <ele>980.8</ele>
        <time>2017-08-06T15:36:38.000Z</time>
      </trkpt>
      <trkpt lat="43.230558447539806" lon="-6.783247338607907">
        <ele>980.6</ele>
        <time>2017-08-06T15:36:41.000Z</time>
      </trkpt>
      <trkpt lat="43.23055375367403" lon="-6.783282207325101">
        <ele>980.2</ele>
        <time>2017-08-06T15:36:43.000Z</time>
      </trkpt>
      <trkpt lat="43.230549562722445" lon="-6.783337024971843">
        <ele>979.6</ele>
        <time>2017-08-06T15:36:47.000Z</time>
      </trkpt>
      <trkpt lat="43.23055475950241" lon="-6.783449174836278">
        <ele>978</ele>
        <time>2017-08-06T15:36:54.000Z</time>
      </trkpt>
      <trkpt lat="43.23056984692812" lon="-6.783584877848625">
        <ele>976.8</ele>
        <time>2017-08-06T15:37:03.000Z</time>
      </trkpt>
      <trkpt lat="43.23060848750174" lon="-6.783774644136429">
        <ele>973.4</ele>
        <time>2017-08-06T15:37:15.000Z</time>
      </trkpt>
      <trkpt lat="43.23063304647803" lon="-6.783896265551448">
        <ele>972</ele>
        <time>2017-08-06T15:37:23.000Z</time>
      </trkpt>
      <trkpt lat="43.23066422715783" lon="-6.784020736813545">
        <ele>970.6</ele>
        <time>2017-08-06T15:37:31.000Z</time>
      </trkpt>
      <trkpt lat="43.23069599457085" lon="-6.784199858084321">
        <ele>969.2</ele>
        <time>2017-08-06T15:37:42.000Z</time>
      </trkpt>
      <trkpt lat="43.23070211336017" lon="-6.7842992674559355">
        <ele>968.8</ele>
        <time>2017-08-06T15:37:48.000Z</time>
      </trkpt>
      <trkpt lat="43.23070471175015" lon="-6.784324077889323">
        <ele>968.8</ele>
        <time>2017-08-06T15:37:50.000Z</time>
      </trkpt>
      <trkpt lat="43.23068258352578" lon="-6.78446757607162">
        <ele>969.4</ele>
        <time>2017-08-06T15:37:59.000Z</time>
      </trkpt>
      <trkpt lat="43.23065257631242" lon="-6.784610822796822">
        <ele>969.8</ele>
        <time>2017-08-06T15:38:08.000Z</time>
      </trkpt>
      <trkpt lat="43.23061770759523" lon="-6.7847189493477345">
        <ele>970.2</ele>
        <time>2017-08-06T15:38:15.000Z</time>
      </trkpt>
      <trkpt lat="43.23056448251009" lon="-6.784826992079616">
        <ele>971</ele>
        <time>2017-08-06T15:38:23.000Z</time>
      </trkpt>
      <trkpt lat="43.23050522245467" lon="-6.7849318496882915">
        <ele>971.4</ele>
        <time>2017-08-06T15:38:32.000Z</time>
      </trkpt>
      <trkpt lat="43.23049667291343" lon="-6.784944757819176">
        <ele>971.4</ele>
        <time>2017-08-06T15:38:33.000Z</time>
      </trkpt>
      <trkpt lat="43.230453338474035" lon="-6.785018602386117">
        <ele>971.6</ele>
        <time>2017-08-06T15:38:39.000Z</time>
      </trkpt>
      <trkpt lat="43.23039265349507" lon="-6.785121364519">
        <ele>971.6</ele>
        <time>2017-08-06T15:38:47.000Z</time>
      </trkpt>
      <trkpt lat="43.230311600491405" lon="-6.785254972055554">
        <ele>971</ele>
        <time>2017-08-06T15:38:57.000Z</time>
      </trkpt>
      <trkpt lat="43.23025711812079" lon="-6.785361003130674">
        <ele>970.6</ele>
        <time>2017-08-06T15:39:05.000Z</time>
      </trkpt>
      <trkpt lat="43.23020917363465" lon="-6.785466196015477">
        <ele>970.2</ele>
        <time>2017-08-06T15:39:12.000Z</time>
      </trkpt>
      <trkpt lat="43.23015293106437" lon="-6.785603407770395">
        <ele>969.4</ele>
        <time>2017-08-06T15:39:21.000Z</time>
      </trkpt>
      <trkpt lat="43.230098113417625" lon="-6.785723268985748">
        <ele>969.2</ele>
        <time>2017-08-06T15:39:29.000Z</time>
      </trkpt>
      <trkpt lat="43.23005435988307" lon="-6.7858663480728865">
        <ele>968.8</ele>
        <time>2017-08-06T15:39:38.000Z</time>
      </trkpt>
      <trkpt lat="43.23002359829843" lon="-6.785947233438492">
        <ele>968.4</ele>
        <time>2017-08-06T15:39:44.000Z</time>
      </trkpt>
      <trkpt lat="43.229981353506446" lon="-6.786062819883227">
        <ele>967.6</ele>
        <time>2017-08-06T15:39:52.000Z</time>
      </trkpt>
      <trkpt lat="43.22993810288608" lon="-6.786157116293907">
        <ele>967.2</ele>
        <time>2017-08-06T15:39:59.000Z</time>
      </trkpt>
      <trkpt lat="43.22985168546438" lon="-6.786273708567023">
        <ele>966.6</ele>
        <time>2017-08-06T15:40:09.000Z</time>
      </trkpt>
      <trkpt lat="43.229761915281415" lon="-6.786358701065183">
        <ele>966.4</ele>
        <time>2017-08-06T15:40:18.000Z</time>
      </trkpt>
      <trkpt lat="43.22965898551047" lon="-6.786444867029786">
        <ele>966.2</ele>
        <time>2017-08-06T15:40:28.000Z</time>
      </trkpt>
      <trkpt lat="43.22956460528076" lon="-6.78650270216167">
        <ele>965.4</ele>
        <time>2017-08-06T15:40:37.000Z</time>
      </trkpt>
      <trkpt lat="43.229550272226334" lon="-6.786509659141302">
        <ele>965.2</ele>
        <time>2017-08-06T15:40:38.000Z</time>
      </trkpt>
      <trkpt lat="43.2295121345669" lon="-6.786550059914589">
        <ele>964.6</ele>
        <time>2017-08-06T15:40:42.000Z</time>
      </trkpt>
      <trkpt lat="43.22942010127008" lon="-6.786632118746638">
        <ele>963.4</ele>
        <time>2017-08-06T15:40:51.000Z</time>
      </trkpt>
      <trkpt lat="43.229306526482105" lon="-6.786690289154649">
        <ele>962</ele>
        <time>2017-08-06T15:41:01.000Z</time>
      </trkpt>
      <trkpt lat="43.22922077961266" lon="-6.786741754040122">
        <ele>960.4</ele>
        <time>2017-08-06T15:41:09.000Z</time>
      </trkpt>
      <trkpt lat="43.22912681847811" lon="-6.786783495917916">
        <ele>959</ele>
        <time>2017-08-06T15:41:17.000Z</time>
      </trkpt>
      <trkpt lat="43.22903277352452" lon="-6.786819035187364">
        <ele>957.8</ele>
        <time>2017-08-06T15:41:25.000Z</time>
      </trkpt>
      <trkpt lat="43.2289164327085" lon="-6.786822639405727">
        <ele>957.2</ele>
        <time>2017-08-06T15:41:34.000Z</time>
      </trkpt>
      <trkpt lat="43.22881702333689" lon="-6.786812748759985">
        <ele>957</ele>
        <time>2017-08-06T15:41:42.000Z</time>
      </trkpt>
      <trkpt lat="43.22870671749115" lon="-6.7868084739893675">
        <ele>958.2</ele>
        <time>2017-08-06T15:41:51.000Z</time>
      </trkpt>
      <trkpt lat="43.228605380281806" lon="-6.786831188946962">
        <ele>959</ele>
        <time>2017-08-06T15:42:00.000Z</time>
      </trkpt>
      <trkpt lat="43.22853656485677" lon="-6.786896986886859">
        <ele>958.8</ele>
        <time>2017-08-06T15:42:07.000Z</time>
      </trkpt>
      <trkpt lat="43.22850840166211" lon="-6.786996144801378">
        <ele>958.4</ele>
        <time>2017-08-06T15:42:13.000Z</time>
      </trkpt>
      <trkpt lat="43.22849742136896" lon="-6.787065379321575">
        <ele>958</ele>
        <time>2017-08-06T15:42:17.000Z</time>
      </trkpt>
      <trkpt lat="43.22849180549383" lon="-6.787099996581674">
        <ele>957.8</ele>
        <time>2017-08-06T15:42:19.000Z</time>
      </trkpt>
      <trkpt lat="43.22847479023039" lon="-6.78721709176898">
        <ele>956.8</ele>
        <time>2017-08-06T15:42:26.000Z</time>
      </trkpt>
      <trkpt lat="43.22845224291086" lon="-6.7872861586511135">
        <ele>956.8</ele>
        <time>2017-08-06T15:42:30.000Z</time>
      </trkpt>
      <trkpt lat="43.228440675884485" lon="-6.787336952984333">
        <ele>956.4</ele>
        <time>2017-08-06T15:42:33.000Z</time>
      </trkpt>
      <trkpt lat="43.22842240333557" lon="-6.787401996552944">
        <ele>955.8</ele>
        <time>2017-08-06T15:42:38.000Z</time>
      </trkpt>
      <trkpt lat="43.2284190505743" lon="-6.787415910512209">
        <ele>955.6</ele>
        <time>2017-08-06T15:42:39.000Z</time>
      </trkpt>
      <trkpt lat="43.228401113301516" lon="-6.787448180839419">
        <ele>955.6</ele>
        <time>2017-08-06T15:42:42.000Z</time>
      </trkpt>
      <trkpt lat="43.228362975642085" lon="-6.787519762292504">
        <ele>955.6</ele>
        <time>2017-08-06T15:42:47.000Z</time>
      </trkpt>
      <trkpt lat="43.228313690051436" lon="-6.787611041218042">
        <ele>955.8</ele>
        <time>2017-08-06T15:42:55.000Z</time>
      </trkpt>
      <trkpt lat="43.22825996205211" lon="-6.787735428661108">
        <ele>956.2</ele>
        <time>2017-08-06T15:43:05.000Z</time>
      </trkpt>
      <trkpt lat="43.22822542861104" lon="-6.787832574918866">
        <ele>956</ele>
        <time>2017-08-06T15:43:12.000Z</time>
      </trkpt>
      <trkpt lat="43.22819173336029" lon="-6.787919327616692">
        <ele>956.2</ele>
        <time>2017-08-06T15:43:18.000Z</time>
      </trkpt>
      <trkpt lat="43.22815937921405" lon="-6.788044553250074">
        <ele>956.2</ele>
        <time>2017-08-06T15:43:26.000Z</time>
      </trkpt>
      <trkpt lat="43.22812283411622" lon="-6.788165755569935">
        <ele>956.4</ele>
        <time>2017-08-06T15:43:34.000Z</time>
      </trkpt>
      <trkpt lat="43.228089809417725" lon="-6.788280168548226">
        <ele>956.2</ele>
        <time>2017-08-06T15:43:42.000Z</time>
      </trkpt>
      <trkpt lat="43.22807254269719" lon="-6.788331298157573">
        <ele>956.2</ele>
        <time>2017-08-06T15:43:46.000Z</time>
      </trkpt>
      <trkpt lat="43.22804748080671" lon="-6.788376895710826">
        <ele>956.6</ele>
        <time>2017-08-06T15:43:49.000Z</time>
      </trkpt>
      <trkpt lat="43.228028286248446" lon="-6.788427270948887">
        <ele>956.6</ele>
        <time>2017-08-06T15:43:52.000Z</time>
      </trkpt>
      <trkpt lat="43.228011103346944" lon="-6.788477478548884">
        <ele>956.6</ele>
        <time>2017-08-06T15:43:55.000Z</time>
      </trkpt>
      <trkpt lat="43.22796894237399" lon="-6.78858476690948">
        <ele>956.4</ele>
        <time>2017-08-06T15:44:02.000Z</time>
      </trkpt>
      <trkpt lat="43.227934995666146" lon="-6.788676800206304">
        <ele>956</ele>
        <time>2017-08-06T15:44:08.000Z</time>
      </trkpt>
      <trkpt lat="43.227877747267485" lon="-6.788801522925496">
        <ele>956</ele>
        <time>2017-08-06T15:44:16.000Z</time>
      </trkpt>
      <trkpt lat="43.2278233487159" lon="-6.788890035822988">
        <ele>956.6</ele>
        <time>2017-08-06T15:44:23.000Z</time>
      </trkpt>
      <trkpt lat="43.22778512723744" lon="-6.788947619497776">
        <ele>957.2</ele>
        <time>2017-08-06T15:44:28.000Z</time>
      </trkpt>
      <trkpt lat="43.227780517190695" lon="-6.788963126018643">
        <ele>957</ele>
        <time>2017-08-06T15:44:29.000Z</time>
      </trkpt>
      <trkpt lat="43.22773332707584" lon="-6.789038311690092">
        <ele>957.8</ele>
        <time>2017-08-06T15:44:36.000Z</time>
      </trkpt>
      <trkpt lat="43.22769166901708" lon="-6.789110396057367">
        <ele>958.2</ele>
        <time>2017-08-06T15:44:43.000Z</time>
      </trkpt>
      <trkpt lat="43.22768244892359" lon="-6.789122885093093">
        <ele>958.2</ele>
        <time>2017-08-06T15:44:44.000Z</time>
      </trkpt>
      <trkpt lat="43.22766534984112" lon="-6.789151970297098">
        <ele>958.2</ele>
        <time>2017-08-06T15:44:47.000Z</time>
      </trkpt>
      <trkpt lat="43.227629056200385" lon="-6.789201255887747">
        <ele>958.2</ele>
        <time>2017-08-06T15:44:51.000Z</time>
      </trkpt>
      <trkpt lat="43.227573316544294" lon="-6.789272166788578">
        <ele>958.4</ele>
        <time>2017-08-06T15:44:57.000Z</time>
      </trkpt>
      <trkpt lat="43.22750617749989" lon="-6.789360847324133">
        <ele>958.2</ele>
        <time>2017-08-06T15:45:04.000Z</time>
      </trkpt>
      <trkpt lat="43.227448677644134" lon="-6.78943594917655">
        <ele>958</ele>
        <time>2017-08-06T15:45:10.000Z</time>
      </trkpt>
      <trkpt lat="43.227370055392385" lon="-6.789534101262689">
        <ele>956.6</ele>
        <time>2017-08-06T15:45:18.000Z</time>
      </trkpt>
      <trkpt lat="43.22729059495032" lon="-6.789618507027626">
        <ele>954.8</ele>
        <time>2017-08-06T15:45:26.000Z</time>
      </trkpt>
      <trkpt lat="43.227213229984045" lon="-6.789701655507088">
        <ele>953</ele>
        <time>2017-08-06T15:45:34.000Z</time>
      </trkpt>
      <trkpt lat="43.22719286195934" lon="-6.789722107350826">
        <ele>952.6</ele>
        <time>2017-08-06T15:45:36.000Z</time>
      </trkpt>
      <trkpt lat="43.22710795328021" lon="-6.789793856441975">
        <ele>950.8</ele>
        <time>2017-08-06T15:45:44.000Z</time>
      </trkpt>
      <trkpt lat="43.227012902498245" lon="-6.789870131760836">
        <ele>948.8</ele>
        <time>2017-08-06T15:45:53.000Z</time>
      </trkpt>
      <trkpt lat="43.22690075263381" lon="-6.78995537571609">
        <ele>946.4</ele>
        <time>2017-08-06T15:46:03.000Z</time>
      </trkpt>
      <trkpt lat="43.226810563355684" lon="-6.790021089836955">
        <ele>945.2</ele>
        <time>2017-08-06T15:46:11.000Z</time>
      </trkpt>
      <trkpt lat="43.22669615037739" lon="-6.790100047364831">
        <ele>944.2</ele>
        <time>2017-08-06T15:46:21.000Z</time>
      </trkpt>
      <trkpt lat="43.22658081538975" lon="-6.790178418159485">
        <ele>942.8</ele>
        <time>2017-08-06T15:46:31.000Z</time>
      </trkpt>
      <trkpt lat="43.22647755034268" lon="-6.7902465630322695">
        <ele>941.4</ele>
        <time>2017-08-06T15:46:40.000Z</time>
      </trkpt>
      <trkpt lat="43.22638761252165" lon="-6.790297944098711">
        <ele>940.4</ele>
        <time>2017-08-06T15:46:48.000Z</time>
      </trkpt>
      <trkpt lat="43.22626506909728" lon="-6.790347062051296">
        <ele>939.4</ele>
        <time>2017-08-06T15:46:58.000Z</time>
      </trkpt>
      <trkpt lat="43.226189129054546" lon="-6.790351504459977">
        <ele>939.6</ele>
        <time>2017-08-06T15:47:04.000Z</time>
      </trkpt>
      <trkpt lat="43.22611310519278" lon="-6.790351085364819">
        <ele>939.8</ele>
        <time>2017-08-06T15:47:10.000Z</time>
      </trkpt>
      <trkpt lat="43.22597220540047" lon="-6.790332645177841">
        <ele>940.4</ele>
        <time>2017-08-06T15:47:21.000Z</time>
      </trkpt>
      <trkpt lat="43.22583323344588" lon="-6.790296183899045">
        <ele>940.6</ele>
        <time>2017-08-06T15:47:32.000Z</time>
      </trkpt>
      <trkpt lat="43.225713623687625" lon="-6.790248574689031">
        <ele>941.4</ele>
        <time>2017-08-06T15:47:42.000Z</time>
      </trkpt>
      <trkpt lat="43.22560876607895" lon="-6.790203815326095">
        <ele>942.2</ele>
        <time>2017-08-06T15:47:51.000Z</time>
      </trkpt>
      <trkpt lat="43.225467363372445" lon="-6.790173137560487">
        <ele>942.4</ele>
        <time>2017-08-06T15:48:02.000Z</time>
      </trkpt>
      <trkpt lat="43.22538354434073" lon="-6.790248742327094">
        <ele>942</ele>
        <time>2017-08-06T15:48:10.000Z</time>
      </trkpt>
      <trkpt lat="43.22535437531769" lon="-6.790324179455638">
        <ele>941</ele>
        <time>2017-08-06T15:48:15.000Z</time>
      </trkpt>
      <trkpt lat="43.22534155100584" lon="-6.790377823635936">
        <ele>940.2</ele>
        <time>2017-08-06T15:48:18.000Z</time>
      </trkpt>
      <trkpt lat="43.22533727623522" lon="-6.790410932153463">
        <ele>940</ele>
        <time>2017-08-06T15:48:20.000Z</time>
      </trkpt>
      <trkpt lat="43.225327637046576" lon="-6.790524339303374">
        <ele>938.8</ele>
        <time>2017-08-06T15:48:27.000Z</time>
      </trkpt>
      <trkpt lat="43.22532881051302" lon="-6.7906497325748205">
        <ele>936.4</ele>
        <time>2017-08-06T15:48:35.000Z</time>
      </trkpt>
      <trkpt lat="43.22533174417913" lon="-6.790758445858955">
        <ele>934.4</ele>
        <time>2017-08-06T15:48:42.000Z</time>
      </trkpt>
      <trkpt lat="43.22532160207629" lon="-6.79091552272439">
        <ele>931.8</ele>
        <time>2017-08-06T15:48:51.000Z</time>
      </trkpt>
      <trkpt lat="43.225276842713356" lon="-6.791084669530392">
        <ele>930.2</ele>
        <time>2017-08-06T15:49:01.000Z</time>
      </trkpt>
      <trkpt lat="43.22520509362221" lon="-6.791197657585144">
        <ele>929.8</ele>
        <time>2017-08-06T15:49:09.000Z</time>
      </trkpt>
      <trkpt lat="43.22510995902121" lon="-6.791316848248243">
        <ele>929.2</ele>
        <time>2017-08-06T15:49:19.000Z</time>
      </trkpt>
      <trkpt lat="43.22502915747464" lon="-6.791434278711677">
        <ele>928.4</ele>
        <time>2017-08-06T15:49:28.000Z</time>
      </trkpt>
      <trkpt lat="43.22496185079217" lon="-6.79154341109097">
        <ele>928.4</ele>
        <time>2017-08-06T15:49:36.000Z</time>
      </trkpt>
      <trkpt lat="43.22487350553274" lon="-6.791696799919009">
        <ele>928.6</ele>
        <time>2017-08-06T15:49:47.000Z</time>
      </trkpt>
      <trkpt lat="43.224779041484" lon="-6.791842142120004">
        <ele>928.8</ele>
        <time>2017-08-06T15:49:58.000Z</time>
      </trkpt>
      <trkpt lat="43.22470888495445" lon="-6.791925877332687">
        <ele>929</ele>
        <time>2017-08-06T15:50:05.000Z</time>
      </trkpt>
      <trkpt lat="43.22459924966097" lon="-6.7920345067977905">
        <ele>929</ele>
        <time>2017-08-06T15:50:16.000Z</time>
      </trkpt>
      <trkpt lat="43.2244838308543" lon="-6.792116900905967">
        <ele>927</ele>
        <time>2017-08-06T15:50:26.000Z</time>
      </trkpt>
      <trkpt lat="43.22438961826265" lon="-6.792164845392108">
        <ele>926</ele>
        <time>2017-08-06T15:50:34.000Z</time>
      </trkpt>
      <trkpt lat="43.2242798153311" lon="-6.792207844555378">
        <ele>925</ele>
        <time>2017-08-06T15:50:43.000Z</time>
      </trkpt>
      <trkpt lat="43.22414495050907" lon="-6.792256208136678">
        <ele>924.2</ele>
        <time>2017-08-06T15:50:54.000Z</time>
      </trkpt>
      <trkpt lat="43.22400857694447" lon="-6.792301721870899">
        <ele>923.6</ele>
        <time>2017-08-06T15:51:05.000Z</time>
      </trkpt>
      <trkpt lat="43.22390053421259" lon="-6.792331226170063">
        <ele>923.6</ele>
        <time>2017-08-06T15:51:14.000Z</time>
      </trkpt>
      <trkpt lat="43.22375695221126" lon="-6.792373303323984">
        <ele>923.4</ele>
        <time>2017-08-06T15:51:26.000Z</time>
      </trkpt>
      <trkpt lat="43.22362191975117" lon="-6.79241462610662">
        <ele>923.2</ele>
        <time>2017-08-06T15:51:37.000Z</time>
      </trkpt>
      <trkpt lat="43.223468866199255" lon="-6.792463827878237">
        <ele>922.6</ele>
        <time>2017-08-06T15:51:49.000Z</time>
      </trkpt>
      <trkpt lat="43.22335763834417" lon="-6.792500037699938">
        <ele>922</ele>
        <time>2017-08-06T15:51:58.000Z</time>
      </trkpt>
      <trkpt lat="43.223243644461036" lon="-6.7925275303423405">
        <ele>921.6</ele>
        <time>2017-08-06T15:52:07.000Z</time>
      </trkpt>
      <trkpt lat="43.223126884549856" lon="-6.792542869225144">
        <ele>921.6</ele>
        <time>2017-08-06T15:52:16.000Z</time>
      </trkpt>
      <trkpt lat="43.22301121428609" lon="-6.7925372533500195">
        <ele>922</ele>
        <time>2017-08-06T15:52:25.000Z</time>
      </trkpt>
      <trkpt lat="43.22289554402232" lon="-6.7925157956779">
        <ele>922.8</ele>
        <time>2017-08-06T15:52:34.000Z</time>
      </trkpt>
      <trkpt lat="43.222807701677084" lon="-6.792490817606449">
        <ele>923.6</ele>
        <time>2017-08-06T15:52:41.000Z</time>
      </trkpt>
      <trkpt lat="43.22269035503268" lon="-6.792453099042177">
        <ele>925.2</ele>
        <time>2017-08-06T15:52:50.000Z</time>
      </trkpt>
      <trkpt lat="43.222569320350885" lon="-6.792436838150024">
        <ele>925.6</ele>
        <time>2017-08-06T15:52:59.000Z</time>
      </trkpt>
      <trkpt lat="43.222467228770256" lon="-6.792472712695599">
        <ele>924.8</ele>
        <time>2017-08-06T15:53:07.000Z</time>
      </trkpt>
      <trkpt lat="43.222386091947556" lon="-6.792556447908282">
        <ele>923.2</ele>
        <time>2017-08-06T15:53:15.000Z</time>
      </trkpt>
      <trkpt lat="43.22232272475958" lon="-6.792643535882235">
        <ele>922.2</ele>
        <time>2017-08-06T15:53:23.000Z</time>
      </trkpt>
      <trkpt lat="43.22224359959364" lon="-6.792740514501929">
        <ele>921.2</ele>
        <time>2017-08-06T15:53:32.000Z</time>
      </trkpt>
      <trkpt lat="43.222194565460086" lon="-6.792795415967703">
        <ele>920.8</ele>
        <time>2017-08-06T15:53:38.000Z</time>
      </trkpt>
      <trkpt lat="43.22211057879031" lon="-6.792894992977381">
        <ele>919.8</ele>
        <time>2017-08-06T15:53:47.000Z</time>
      </trkpt>
      <trkpt lat="43.2220418471843" lon="-6.792971603572369">
        <ele>919</ele>
        <time>2017-08-06T15:53:54.000Z</time>
      </trkpt>
      <trkpt lat="43.221925841644406" lon="-6.793078975751996">
        <ele>918.4</ele>
        <time>2017-08-06T15:54:05.000Z</time>
      </trkpt>
      <trkpt lat="43.22184738703072" lon="-6.7931536585092545">
        <ele>918.2</ele>
        <time>2017-08-06T15:54:13.000Z</time>
      </trkpt>
      <trkpt lat="43.22174420580268" lon="-6.793256504461169">
        <ele>918.6</ele>
        <time>2017-08-06T15:54:23.000Z</time>
      </trkpt>
      <trkpt lat="43.22170288302004" lon="-6.793296737596393">
        <ele>918.6</ele>
        <time>2017-08-06T15:54:28.000Z</time>
      </trkpt>
      <trkpt lat="43.22157916612923" lon="-6.793422047048807">
        <ele>919</ele>
        <time>2017-08-06T15:54:39.000Z</time>
      </trkpt>
      <trkpt lat="43.22146274149418" lon="-6.793541489169002">
        <ele>919.4</ele>
        <time>2017-08-06T15:54:50.000Z</time>
      </trkpt>
      <trkpt lat="43.221404403448105" lon="-6.793624050915241">
        <ele>919.2</ele>
        <time>2017-08-06T15:54:57.000Z</time>
      </trkpt>
      <trkpt lat="43.221344305202365" lon="-6.793737290427089">
        <ele>919.2</ele>
        <time>2017-08-06T15:55:05.000Z</time>
      </trkpt>
      <trkpt lat="43.221320332959294" lon="-6.793842064216733">
        <ele>919.2</ele>
        <time>2017-08-06T15:55:11.000Z</time>
      </trkpt>
      <trkpt lat="43.22133139707148" lon="-6.793959075585008">
        <ele>918.6</ele>
        <time>2017-08-06T15:55:18.000Z</time>
      </trkpt>
      <trkpt lat="43.22138713672757" lon="-6.794066363945603">
        <ele>917.6</ele>
        <time>2017-08-06T15:55:26.000Z</time>
      </trkpt>
      <trkpt lat="43.221475481987" lon="-6.79416879080236">
        <ele>915.8</ele>
        <time>2017-08-06T15:55:35.000Z</time>
      </trkpt>
      <trkpt lat="43.22155234403908" lon="-6.794256381690502">
        <ele>914.2</ele>
        <time>2017-08-06T15:55:43.000Z</time>
      </trkpt>
      <trkpt lat="43.22163465432823" lon="-6.794321425259113">
        <ele>912.6</ele>
        <time>2017-08-06T15:55:51.000Z</time>
      </trkpt>
      <trkpt lat="43.22172517888248" lon="-6.794396275654435">
        <ele>910.8</ele>
        <time>2017-08-06T15:55:59.000Z</time>
      </trkpt>
      <trkpt lat="43.221844621002674" lon="-6.79449275135994">
        <ele>907.4</ele>
        <time>2017-08-06T15:56:10.000Z</time>
      </trkpt>
      <trkpt lat="43.22192366234958" lon="-6.794555280357599">
        <ele>906</ele>
        <time>2017-08-06T15:56:18.000Z</time>
      </trkpt>
      <trkpt lat="43.22192600928247" lon="-6.794554777443409">
        <ele>906</ele>
        <time>2017-08-06T15:56:19.000Z</time>
      </trkpt>
      <trkpt lat="43.22194201871753" lon="-6.794574810191989">
        <ele>905.8</ele>
        <time>2017-08-06T15:56:33.000Z</time>
      </trkpt>
      <trkpt lat="43.22198359295726" lon="-6.7946273647248745">
        <ele>905.8</ele>
        <time>2017-08-06T15:56:48.000Z</time>
      </trkpt>
      <trkpt lat="43.22202902287245" lon="-6.794743789359927">
        <ele>906.6</ele>
        <time>2017-08-06T15:56:56.000Z</time>
      </trkpt>
      <trkpt lat="43.22203447110951" lon="-6.794932717457414">
        <ele>909.2</ele>
        <time>2017-08-06T15:57:07.000Z</time>
      </trkpt>
      <trkpt lat="43.222011253237724" lon="-6.795088369399309">
        <ele>910.8</ele>
        <time>2017-08-06T15:57:16.000Z</time>
      </trkpt>
      <trkpt lat="43.221980994567275" lon="-6.795208565890789">
        <ele>911.2</ele>
        <time>2017-08-06T15:57:24.000Z</time>
      </trkpt>
      <trkpt lat="43.22192341089249" lon="-6.795402690768242">
        <ele>912.6</ele>
        <time>2017-08-06T15:57:36.000Z</time>
      </trkpt>
      <trkpt lat="43.22187018580735" lon="-6.795587511733174">
        <ele>912.4</ele>
        <time>2017-08-06T15:57:47.000Z</time>
      </trkpt>
      <trkpt lat="43.22185568511486" lon="-6.795638725161552">
        <ele>912.2</ele>
        <time>2017-08-06T15:57:50.000Z</time>
      </trkpt>
      <trkpt lat="43.22181964293122" lon="-6.795731261372566">
        <ele>912</ele>
        <time>2017-08-06T15:57:56.000Z</time>
      </trkpt>
      <trkpt lat="43.221751330420375" lon="-6.79586092941463">
        <ele>912</ele>
        <time>2017-08-06T15:58:05.000Z</time>
      </trkpt>
      <trkpt lat="43.22166072204709" lon="-6.795991938561201">
        <ele>912</ele>
        <time>2017-08-06T15:58:15.000Z</time>
      </trkpt>
      <trkpt lat="43.22157455608249" lon="-6.79609889164567">
        <ele>912</ele>
        <time>2017-08-06T15:58:24.000Z</time>
      </trkpt>
      <trkpt lat="43.22146969847381" lon="-6.796225542202592">
        <ele>911.4</ele>
        <time>2017-08-06T15:58:35.000Z</time>
      </trkpt>
      <trkpt lat="43.22139375843108" lon="-6.796325454488397">
        <ele>910.6</ele>
        <time>2017-08-06T15:58:43.000Z</time>
      </trkpt>
      <trkpt lat="43.22136903181672" lon="-6.796353701502085">
        <ele>910.6</ele>
        <time>2017-08-06T15:58:46.000Z</time>
      </trkpt>
      <trkpt lat="43.22133290581405" lon="-6.796403154730797">
        <ele>910</ele>
        <time>2017-08-06T15:58:50.000Z</time>
      </trkpt>
      <trkpt lat="43.22126492857933" lon="-6.796501474454999">
        <ele>908.8</ele>
        <time>2017-08-06T15:58:58.000Z</time>
      </trkpt>
      <trkpt lat="43.221264593303204" lon="-6.796506084501743">
        <ele>908.8</ele>
        <time>2017-08-06T15:58:59.000Z</time>
      </trkpt>
      <trkpt lat="43.22123056277633" lon="-6.796542797237635">
        <ele>908.4</ele>
        <time>2017-08-06T15:59:04.000Z</time>
      </trkpt>
      <trkpt lat="43.22113241069019" lon="-6.796665592119098">
        <ele>906.6</ele>
        <time>2017-08-06T15:59:14.000Z</time>
      </trkpt>
      <trkpt lat="43.2210283074528" lon="-6.796801462769508">
        <ele>904.8</ele>
        <time>2017-08-06T15:59:25.000Z</time>
      </trkpt>
      <trkpt lat="43.220930406823754" lon="-6.796917552128434">
        <ele>904</ele>
        <time>2017-08-06T15:59:35.000Z</time>
      </trkpt>
      <trkpt lat="43.22083971463144" lon="-6.797018889337778">
        <ele>903.4</ele>
        <time>2017-08-06T15:59:44.000Z</time>
      </trkpt>
      <trkpt lat="43.22072924114764" lon="-6.797146964818239">
        <ele>902.2</ele>
        <time>2017-08-06T15:59:55.000Z</time>
      </trkpt>
      <trkpt lat="43.22065556421876" lon="-6.797225838527083">
        <ele>901</ele>
        <time>2017-08-06T16:00:02.000Z</time>
      </trkpt>
      <trkpt lat="43.22055355645716" lon="-6.7973377369344234">
        <ele>899</ele>
        <time>2017-08-06T16:00:12.000Z</time>
      </trkpt>
      <trkpt lat="43.220463367179036" lon="-6.797416862100363">
        <ele>897.2</ele>
        <time>2017-08-06T16:00:20.000Z</time>
      </trkpt>
      <trkpt lat="43.22034761309624" lon="-6.797490119934082">
        <ele>895.8</ele>
        <time>2017-08-06T16:00:30.000Z</time>
      </trkpt>
      <trkpt lat="43.220220124349" lon="-6.797553151845932">
        <ele>894.8</ele>
        <time>2017-08-06T16:00:41.000Z</time>
      </trkpt>
      <trkpt lat="43.22011183016002" lon="-6.797595228999853">
        <ele>894.4</ele>
        <time>2017-08-06T16:00:50.000Z</time>
      </trkpt>
      <trkpt lat="43.2199870236218" lon="-6.797618865966797">
        <ele>895</ele>
        <time>2017-08-06T16:01:00.000Z</time>
      </trkpt>
      <trkpt lat="43.21986012160778" lon="-6.797599587589502">
        <ele>895.8</ele>
        <time>2017-08-06T16:01:10.000Z</time>
      </trkpt>
      <trkpt lat="43.21974042803049" lon="-6.797536136582494">
        <ele>896.2</ele>
        <time>2017-08-06T16:01:20.000Z</time>
      </trkpt>
      <trkpt lat="43.219625260680914" lon="-6.797456173226237">
        <ele>897.2</ele>
        <time>2017-08-06T16:01:30.000Z</time>
      </trkpt>
      <trkpt lat="43.21951520629227" lon="-6.797356344759464">
        <ele>897.2</ele>
        <time>2017-08-06T16:01:40.000Z</time>
      </trkpt>
      <trkpt lat="43.21940657682717" lon="-6.797245619818568">
        <ele>896.8</ele>
        <time>2017-08-06T16:01:50.000Z</time>
      </trkpt>
      <trkpt lat="43.21930272504687" lon="-6.797130955383182">
        <ele>897.8</ele>
        <time>2017-08-06T16:02:00.000Z</time>
      </trkpt>
      <trkpt lat="43.21921454742551" lon="-6.797030791640282">
        <ele>898.6</ele>
        <time>2017-08-06T16:02:09.000Z</time>
      </trkpt>
      <trkpt lat="43.21910533122718" lon="-6.796967340633273">
        <ele>898.2</ele>
        <time>2017-08-06T16:02:18.000Z</time>
      </trkpt>
      <trkpt lat="43.21900642476976" lon="-6.796968095004559">
        <ele>898.4</ele>
        <time>2017-08-06T16:02:26.000Z</time>
      </trkpt>
      <trkpt lat="43.219010196626186" lon="-6.796968514099717">
        <ele>898.4</ele>
        <time>2017-08-06T16:02:33.000Z</time>
      </trkpt>
      <trkpt lat="43.21899921633303" lon="-6.796985110267997">
        <ele>898</ele>
        <time>2017-08-06T16:02:52.000Z</time>
      </trkpt>
      <trkpt lat="43.21897960267961" lon="-6.797006484121084">
        <ele>897.4</ele>
        <time>2017-08-06T16:02:54.000Z</time>
      </trkpt>
      <trkpt lat="43.218967616558075" lon="-6.797032803297043">
        <ele>896.8</ele>
        <time>2017-08-06T16:02:56.000Z</time>
      </trkpt>
      <trkpt lat="43.21895135566592" lon="-6.797117460519075">
        <ele>895.4</ele>
        <time>2017-08-06T16:03:01.000Z</time>
      </trkpt>
      <trkpt lat="43.218933921307325" lon="-6.797264311462641">
        <ele>892.2</ele>
        <time>2017-08-06T16:03:10.000Z</time>
      </trkpt>
      <trkpt lat="43.218916319310665" lon="-6.797418789938092">
        <ele>890.6</ele>
        <time>2017-08-06T16:03:19.000Z</time>
      </trkpt>
      <trkpt lat="43.21890290826559" lon="-6.797529933974147">
        <ele>890</ele>
        <time>2017-08-06T16:03:26.000Z</time>
      </trkpt>
      <trkpt lat="43.218893855810165" lon="-6.797604281455278">
        <ele>889.4</ele>
        <time>2017-08-06T16:03:31.000Z</time>
      </trkpt>
      <trkpt lat="43.218872314319015" lon="-6.797717101871967">
        <ele>889.4</ele>
        <time>2017-08-06T16:03:38.000Z</time>
      </trkpt>
      <trkpt lat="43.21884926408529" lon="-6.797874933108687">
        <ele>889.2</ele>
        <time>2017-08-06T16:03:47.000Z</time>
      </trkpt>
      <trkpt lat="43.21882529184222" lon="-6.798027316108346">
        <ele>889.2</ele>
        <time>2017-08-06T16:03:56.000Z</time>
      </trkpt>
      <trkpt lat="43.218803415074944" lon="-6.798181040212512">
        <ele>889.2</ele>
        <time>2017-08-06T16:04:05.000Z</time>
      </trkpt>
      <trkpt lat="43.218777514994144" lon="-6.798302913084626">
        <ele>889.6</ele>
        <time>2017-08-06T16:04:12.000Z</time>
      </trkpt>
      <trkpt lat="43.21876519359648" lon="-6.798424953594804">
        <ele>889.6</ele>
        <time>2017-08-06T16:04:19.000Z</time>
      </trkpt>
      <trkpt lat="43.21877684444189" lon="-6.798587059602141">
        <ele>888.2</ele>
        <time>2017-08-06T16:04:28.000Z</time>
      </trkpt>
      <trkpt lat="43.2188262976706" lon="-6.7987289652228355">
        <ele>885.6</ele>
        <time>2017-08-06T16:04:37.000Z</time>
      </trkpt>
      <trkpt lat="43.218894777819514" lon="-6.798886628821492">
        <ele>883.4</ele>
        <time>2017-08-06T16:04:47.000Z</time>
      </trkpt>
      <trkpt lat="43.21893165819347" lon="-6.7990390956401825">
        <ele>881.6</ele>
        <time>2017-08-06T16:04:56.000Z</time>
      </trkpt>
      <trkpt lat="43.21894582360983" lon="-6.799197345972061">
        <ele>881.2</ele>
        <time>2017-08-06T16:05:05.000Z</time>
      </trkpt>
      <trkpt lat="43.21895278058946" lon="-6.799243865534663">
        <ele>880.8</ele>
        <time>2017-08-06T16:05:09.000Z</time>
      </trkpt>
      <trkpt lat="43.21895286440849" lon="-6.799269933253527">
        <ele>880.6</ele>
        <time>2017-08-06T16:05:11.000Z</time>
      </trkpt>
      <trkpt lat="43.2189716398716" lon="-6.799444193020463">
        <ele>879.4</ele>
        <time>2017-08-06T16:05:21.000Z</time>
      </trkpt>
      <trkpt lat="43.21898580528796" lon="-6.799596743658185">
        <ele>879.2</ele>
        <time>2017-08-06T16:05:30.000Z</time>
      </trkpt>
      <trkpt lat="43.218989158049226" lon="-6.7996646370738745">
        <ele>878.6</ele>
        <time>2017-08-06T16:05:34.000Z</time>
      </trkpt>
      <trkpt lat="43.218989074230194" lon="-6.799720544368029">
        <ele>878.2</ele>
        <time>2017-08-06T16:05:37.000Z</time>
      </trkpt>
      <trkpt lat="43.21896434761584" lon="-6.799887679517269">
        <ele>876.6</ele>
        <time>2017-08-06T16:05:47.000Z</time>
      </trkpt>
      <trkpt lat="43.21894632652402" lon="-6.7999358754605055">
        <ele>876.2</ele>
        <time>2017-08-06T16:05:50.000Z</time>
      </trkpt>
      <trkpt lat="43.2189317420125" lon="-6.799983149394393">
        <ele>876</ele>
        <time>2017-08-06T16:05:53.000Z</time>
      </trkpt>
      <trkpt lat="43.218879606574774" lon="-6.800129497423768">
        <ele>875</ele>
        <time>2017-08-06T16:06:02.000Z</time>
      </trkpt>
      <trkpt lat="43.21879788301885" lon="-6.800335105508566">
        <ele>873.6</ele>
        <time>2017-08-06T16:06:15.000Z</time>
      </trkpt>
      <trkpt lat="43.21872839704156" lon="-6.800501653924584">
        <ele>872.6</ele>
        <time>2017-08-06T16:06:26.000Z</time>
      </trkpt>
      <trkpt lat="43.218675926327705" lon="-6.8006223533302546">
        <ele>872</ele>
        <time>2017-08-06T16:06:34.000Z</time>
      </trkpt>
      <trkpt lat="43.21862043812871" lon="-6.800773479044437">
        <ele>871.8</ele>
        <time>2017-08-06T16:06:44.000Z</time>
      </trkpt>
      <trkpt lat="43.21856947615743" lon="-6.80091043934226">
        <ele>871.8</ele>
        <time>2017-08-06T16:06:53.000Z</time>
      </trkpt>
      <trkpt lat="43.21854081004858" lon="-6.8010299652814865">
        <ele>871.6</ele>
        <time>2017-08-06T16:07:02.000Z</time>
      </trkpt>
      <trkpt lat="43.218564530834556" lon="-6.801004903391004">
        <ele>871.4</ele>
        <time>2017-08-06T16:07:17.000Z</time>
      </trkpt>
      <trkpt lat="43.218597723171115" lon="-6.800979170948267">
        <ele>871.4</ele>
        <time>2017-08-06T16:07:47.000Z</time>
      </trkpt>
      <trkpt lat="43.21862370707095" lon="-6.800995012745261">
        <ele>871</ele>
        <time>2017-08-06T16:08:01.000Z</time>
      </trkpt>
      <trkpt lat="43.21866435930133" lon="-6.801055027171969">
        <ele>870.6</ele>
        <time>2017-08-06T16:08:08.000Z</time>
      </trkpt>
      <trkpt lat="43.21866963990033" lon="-6.801070785149932">
        <ele>870.4</ele>
        <time>2017-08-06T16:08:15.000Z</time>
      </trkpt>
      <trkpt lat="43.21865237317979" lon="-6.8010523449629545">
        <ele>870.6</ele>
        <time>2017-08-06T16:08:20.000Z</time>
      </trkpt>
      <trkpt lat="43.218636279925704" lon="-6.801038850098848">
        <ele>870.8</ele>
        <time>2017-08-06T16:08:24.000Z</time>
      </trkpt>
      <trkpt lat="43.2186243776232" lon="-6.801025439053774">
        <ele>871</ele>
        <time>2017-08-06T16:08:26.000Z</time>
      </trkpt>
      <trkpt lat="43.21861029602587" lon="-6.801018146798015">
        <ele>871</ele>
        <time>2017-08-06T16:08:31.000Z</time>
      </trkpt>
      <trkpt lat="43.2186003215611" lon="-6.801054859533906">
        <ele>871</ele>
        <time>2017-08-06T16:08:36.000Z</time>
      </trkpt>
      <trkpt lat="43.218625551089644" lon="-6.8011153768748045">
        <ele>870.6</ele>
        <time>2017-08-06T16:08:41.000Z</time>
      </trkpt>
      <trkpt lat="43.21861993521452" lon="-6.801117891445756">
        <ele>870.6</ele>
        <time>2017-08-06T16:08:42.000Z</time>
      </trkpt>
      <trkpt lat="43.21862420998514" lon="-6.801110347732902">
        <ele>870.6</ele>
        <time>2017-08-06T16:08:45.000Z</time>
      </trkpt>
      <trkpt lat="43.21867366321385" lon="-6.801105989143252">
        <ele>870.4</ele>
        <time>2017-08-06T16:08:55.000Z</time>
      </trkpt>
      <trkpt lat="43.21867324411869" lon="-6.801104061305523">
        <ele>870.4</ele>
        <time>2017-08-06T16:09:02.000Z</time>
      </trkpt>
      <trkpt lat="43.21869168430567" lon="-6.80111076682806">
        <ele>870.2</ele>
        <time>2017-08-06T16:09:09.000Z</time>
      </trkpt>
      <trkpt lat="43.21869713254273" lon="-6.801107665523887">
        <ele>870.2</ele>
        <time>2017-08-06T16:09:22.000Z</time>
      </trkpt>
      <trkpt lat="43.21871506981552" lon="-6.80108436383307">
        <ele>870</ele>
        <time>2017-08-06T16:09:56.000Z</time>
      </trkpt>
      <trkpt lat="43.218710124492645" lon="-6.801071539521217">
        <ele>870.2</ele>
        <time>2017-08-06T16:09:59.000Z</time>
      </trkpt>
      <trkpt lat="43.218712974339724" lon="-6.801097858697176">
        <ele>870</ele>
        <time>2017-08-06T16:10:06.000Z</time>
      </trkpt>
      <trkpt lat="43.21874021552503" lon="-6.801129374653101">
        <ele>869.8</ele>
        <time>2017-08-06T16:10:35.000Z</time>
      </trkpt>
      <trkpt lat="43.21874415501952" lon="-6.801126105710864">
        <ele>869.8</ele>
        <time>2017-08-06T16:10:51.000Z</time>
      </trkpt>
      <trkpt lat="43.21875471621752" lon="-6.801155358552933">
        <ele>869.6</ele>
        <time>2017-08-06T16:11:02.000Z</time>
      </trkpt>
      <trkpt lat="43.218709118664265" lon="-6.801151419058442">
        <ele>869.8</ele>
        <time>2017-08-06T16:11:51.000Z</time>
      </trkpt>
      <trkpt lat="43.218705262988806" lon="-6.801144629716873">
        <ele>870</ele>
        <time>2017-08-06T16:12:01.000Z</time>
      </trkpt>
      <trkpt lat="43.218708196654916" lon="-6.80114203132689">
        <ele>870</ele>
        <time>2017-08-06T16:12:07.000Z</time>
      </trkpt>
      <trkpt lat="43.218696881085634" lon="-6.801113784313202">
        <ele>870.2</ele>
        <time>2017-08-06T16:12:13.000Z</time>
      </trkpt>
      <trkpt lat="43.218714566901326" lon="-6.801149407401681">
        <ele>869.8</ele>
        <time>2017-08-06T16:12:28.000Z</time>
      </trkpt>
      <trkpt lat="43.21871674619615" lon="-6.801152257248759">
        <ele>869.8</ele>
        <time>2017-08-06T16:12:35.000Z</time>
      </trkpt>
      <trkpt lat="43.218693528324366" lon="-6.8011412769556046">
        <ele>870</ele>
        <time>2017-08-06T16:12:50.000Z</time>
      </trkpt>
      <trkpt lat="43.218706268817186" lon="-6.801142869517207">
        <ele>870</ele>
        <time>2017-08-06T16:13:01.000Z</time>
      </trkpt>
      <trkpt lat="43.21871800348163" lon="-6.801149910315871">
        <ele>869.8</ele>
        <time>2017-08-06T16:13:14.000Z</time>
      </trkpt>
      <trkpt lat="43.21872973814607" lon="-6.801183018833399">
        <ele>869.6</ele>
        <time>2017-08-06T16:14:04.000Z</time>
      </trkpt>
      <trkpt lat="43.21872730739415" lon="-6.801180588081479">
        <ele>869.6</ele>
        <time>2017-08-06T16:14:09.000Z</time>
      </trkpt>
      <trkpt lat="43.21873476728797" lon="-6.8011675123125315">
        <ele>869.6</ele>
        <time>2017-08-06T16:14:25.000Z</time>
      </trkpt>
      <trkpt lat="43.21872093714774" lon="-6.801185952499509">
        <ele>869.6</ele>
        <time>2017-08-06T16:14:34.000Z</time>
      </trkpt>
      <trkpt lat="43.21872060187161" lon="-6.801169021055102">
        <ele>869.8</ele>
        <time>2017-08-06T16:14:45.000Z</time>
      </trkpt>
      <trkpt lat="43.21872093714774" lon="-6.801156783476472">
        <ele>869.8</ele>
        <time>2017-08-06T16:14:53.000Z</time>
      </trkpt>
      <trkpt lat="43.21872445754707" lon="-6.80116256698966">
        <ele>869.8</ele>
        <time>2017-08-06T16:15:06.000Z</time>
      </trkpt>
      <trkpt lat="43.218723284080625" lon="-6.801145384088159">
        <ele>869.8</ele>
        <time>2017-08-06T16:15:12.000Z</time>
      </trkpt>
      <trkpt lat="43.218733510002494" lon="-6.801167260855436">
        <ele>869.6</ele>
        <time>2017-08-06T16:16:02.000Z</time>
      </trkpt>
      <trkpt lat="43.218321204185486" lon="-6.801997739821672">
        <ele>866.6</ele>
        <time>2017-08-07T05:53:19.000Z</time>
      </trkpt>
      <trkpt lat="43.21838297881186" lon="-6.802126653492451">
        <ele>865.6</ele>
        <time>2017-08-07T05:53:27.000Z</time>
      </trkpt>
      <trkpt lat="43.21841826662421" lon="-6.802283311262727">
        <ele>865.8</ele>
        <time>2017-08-07T05:53:36.000Z</time>
      </trkpt>
      <trkpt lat="43.21839605458081" lon="-6.802440052852035">
        <ele>866</ele>
        <time>2017-08-07T05:53:44.000Z</time>
      </trkpt>
      <trkpt lat="43.21835230104625" lon="-6.802620096132159">
        <ele>866.6</ele>
        <time>2017-08-07T05:53:54.000Z</time>
      </trkpt>
      <trkpt lat="43.21829304099083" lon="-6.802797289565206">
        <ele>866.8</ele>
        <time>2017-08-07T05:54:04.000Z</time>
      </trkpt>
      <trkpt lat="43.21826957166195" lon="-6.802967693656683">
        <ele>867.4</ele>
        <time>2017-08-07T05:54:13.000Z</time>
      </trkpt>
      <trkpt lat="43.218252304941416" lon="-6.80318595841527">
        <ele>868</ele>
        <time>2017-08-07T05:54:24.000Z</time>
      </trkpt>
      <trkpt lat="43.21822422556579" lon="-6.803392739966512">
        <ele>867.8</ele>
        <time>2017-08-07T05:54:35.000Z</time>
      </trkpt>
      <trkpt lat="43.21820662356913" lon="-6.803577058017254">
        <ele>868.8</ele>
        <time>2017-08-07T05:54:45.000Z</time>
      </trkpt>
      <trkpt lat="43.21821114979684" lon="-6.80374595336616">
        <ele>869.8</ele>
        <time>2017-08-07T05:54:54.000Z</time>
      </trkpt>
      <trkpt lat="43.218257082626224" lon="-6.803879728540778">
        <ele>871.4</ele>
        <time>2017-08-07T05:55:02.000Z</time>
      </trkpt>
      <trkpt lat="43.21831902489066" lon="-6.8039938900619745">
        <ele>872.8</ele>
        <time>2017-08-07T05:55:10.000Z</time>
      </trkpt>
      <trkpt lat="43.21832925081253" lon="-6.804004618898034">
        <ele>873</ele>
        <time>2017-08-07T05:55:11.000Z</time>
      </trkpt>
      <trkpt lat="43.21837551891804" lon="-6.80405180901289">
        <ele>873.8</ele>
        <time>2017-08-07T05:55:16.000Z</time>
      </trkpt>
      <trkpt lat="43.21847157552838" lon="-6.804094975814223">
        <ele>875.4</ele>
        <time>2017-08-07T05:55:24.000Z</time>
      </trkpt>
      <trkpt lat="43.21857299655676" lon="-6.804118109866977">
        <ele>877</ele>
        <time>2017-08-07T05:55:32.000Z</time>
      </trkpt>
      <trkpt lat="43.218676932156086" lon="-6.804116684943438">
        <ele>878.2</ele>
        <time>2017-08-07T05:55:40.000Z</time>
      </trkpt>
      <trkpt lat="43.21872127242386" lon="-6.804098412394524">
        <ele>878.4</ele>
        <time>2017-08-07T05:55:44.000Z</time>
      </trkpt>
      <trkpt lat="43.218729151412845" lon="-6.804099166765809">
        <ele>878.4</ele>
        <time>2017-08-07T05:55:46.000Z</time>
      </trkpt>
      <trkpt lat="43.21873820386827" lon="-6.804099082946777">
        <ele>878.6</ele>
        <time>2017-08-07T05:55:47.000Z</time>
      </trkpt>
      <trkpt lat="43.218780448660254" lon="-6.804081397131085">
        <ele>878.8</ele>
        <time>2017-08-07T05:55:51.000Z</time>
      </trkpt>
      <trkpt lat="43.21883585304022" lon="-6.804059352725744">
        <ele>879.2</ele>
        <time>2017-08-07T05:55:55.000Z</time>
      </trkpt>
      <trkpt lat="43.218922186642885" lon="-6.804025741294026">
        <ele>879.8</ele>
        <time>2017-08-07T05:56:03.000Z</time>
      </trkpt>
      <trkpt lat="43.21901639923453" lon="-6.803991878405213">
        <ele>880.4</ele>
        <time>2017-08-07T05:56:11.000Z</time>
      </trkpt>
      <trkpt lat="43.21909544058144" lon="-6.803977796807885">
        <ele>881.2</ele>
        <time>2017-08-07T05:56:18.000Z</time>
      </trkpt>
      <trkpt lat="43.21917121298611" lon="-6.80396530777216">
        <ele>881.8</ele>
        <time>2017-08-07T05:56:25.000Z</time>
      </trkpt>
      <trkpt lat="43.219257881864905" lon="-6.803980898112059">
        <ele>883</ele>
        <time>2017-08-07T05:56:32.000Z</time>
      </trkpt>
      <trkpt lat="43.219343880191445" lon="-6.804012497887015">
        <ele>884.4</ele>
        <time>2017-08-07T05:56:40.000Z</time>
      </trkpt>
      <trkpt lat="43.21942468173802" lon="-6.804056586697698">
        <ele>887</ele>
        <time>2017-08-07T05:56:47.000Z</time>
      </trkpt>
      <trkpt lat="43.219520319253206" lon="-6.804103273898363">
        <ele>890.2</ele>
        <time>2017-08-07T05:56:56.000Z</time>
      </trkpt>
      <trkpt lat="43.219606233760715" lon="-6.80414124391973">
        <ele>892.4</ele>
        <time>2017-08-07T05:57:04.000Z</time>
      </trkpt>
      <trkpt lat="43.21970455348492" lon="-6.804187009111047">
        <ele>894.8</ele>
        <time>2017-08-07T05:57:13.000Z</time>
      </trkpt>
      <trkpt lat="43.219790970906615" lon="-6.804214753210545">
        <ele>896.4</ele>
        <time>2017-08-07T05:57:21.000Z</time>
      </trkpt>
      <trkpt lat="43.219887698069215" lon="-6.804257165640593">
        <ele>898.6</ele>
        <time>2017-08-07T05:57:30.000Z</time>
      </trkpt>
      <trkpt lat="43.21997000835836" lon="-6.80429320782423">
        <ele>899.4</ele>
        <time>2017-08-07T05:57:38.000Z</time>
      </trkpt>
      <trkpt lat="43.220057683065534" lon="-6.804342912510037">
        <ele>899.6</ele>
        <time>2017-08-07T05:57:46.000Z</time>
      </trkpt>
      <trkpt lat="43.22008081711829" lon="-6.804365878924727">
        <ele>899.8</ele>
        <time>2017-08-07T05:57:48.000Z</time>
      </trkpt>
      <trkpt lat="43.220121804624796" lon="-6.804371327161789">
        <ele>900.2</ele>
        <time>2017-08-07T05:57:52.000Z</time>
      </trkpt>
      <trkpt lat="43.22018617764115" lon="-6.804400244727731">
        <ele>901</ele>
        <time>2017-08-07T05:57:58.000Z</time>
      </trkpt>
      <trkpt lat="43.22027703747153" lon="-6.80444173514843">
        <ele>902</ele>
        <time>2017-08-07T05:58:06.000Z</time>
      </trkpt>
      <trkpt lat="43.22034543380141" lon="-6.8044766038656235">
        <ele>902.8</ele>
        <time>2017-08-07T05:58:13.000Z</time>
      </trkpt>
      <trkpt lat="43.22042506188154" lon="-6.804505437612534">
        <ele>903.4</ele>
        <time>2017-08-07T05:58:21.000Z</time>
      </trkpt>
      <trkpt lat="43.220497565343976" lon="-6.804525889456272">
        <ele>904</ele>
        <time>2017-08-07T05:58:30.000Z</time>
      </trkpt>
      <trkpt lat="43.22059077210724" lon="-6.804553298279643">
        <ele>905.2</ele>
        <time>2017-08-07T05:58:39.000Z</time>
      </trkpt>
      <trkpt lat="43.2206448353827" lon="-6.804566876962781">
        <ele>905.8</ele>
        <time>2017-08-07T05:58:44.000Z</time>
      </trkpt>
      <trkpt lat="43.220737371593714" lon="-6.804598979651928">
        <ele>907</ele>
        <time>2017-08-07T05:58:52.000Z</time>
      </trkpt>
      <trkpt lat="43.22083778679371" lon="-6.804633596912026">
        <ele>908.8</ele>
        <time>2017-08-07T05:59:01.000Z</time>
      </trkpt>
      <trkpt lat="43.220861591398716" lon="-6.804640553891659">
        <ele>909.2</ele>
        <time>2017-08-07T05:59:03.000Z</time>
      </trkpt>
      <trkpt lat="43.22091791778803" lon="-6.804656814783812">
        <ele>910</ele>
        <time>2017-08-07T05:59:08.000Z</time>
      </trkpt>
      <trkpt lat="43.22101372294128" lon="-6.804684558883309">
        <ele>912</ele>
        <time>2017-08-07T05:59:16.000Z</time>
      </trkpt>
      <trkpt lat="43.22112863883376" lon="-6.80471682921052">
        <ele>914</ele>
        <time>2017-08-07T05:59:26.000Z</time>
      </trkpt>
      <trkpt lat="43.22123592719436" lon="-6.804748345166445">
        <ele>916</ele>
        <time>2017-08-07T05:59:35.000Z</time>
      </trkpt>
      <trkpt lat="43.22135478258133" lon="-6.804783213883638">
        <ele>917.4</ele>
        <time>2017-08-07T05:59:45.000Z</time>
      </trkpt>
      <trkpt lat="43.221469866111875" lon="-6.804829817265272">
        <ele>917.8</ele>
        <time>2017-08-07T05:59:55.000Z</time>
      </trkpt>
      <trkpt lat="43.22154429741204" lon="-6.804879438132048">
        <ele>918.4</ele>
        <time>2017-08-07T06:00:02.000Z</time>
      </trkpt>
      <trkpt lat="43.2216152921319" lon="-6.804952109232545">
        <ele>919.4</ele>
        <time>2017-08-07T06:00:10.000Z</time>
      </trkpt>
      <trkpt lat="43.22169165126979" lon="-6.805047495290637">
        <ele>920.6</ele>
        <time>2017-08-07T06:00:19.000Z</time>
      </trkpt>
      <trkpt lat="43.22175367735326" lon="-6.80514975450933">
        <ele>922.2</ele>
        <time>2017-08-07T06:00:28.000Z</time>
      </trkpt>
      <trkpt lat="43.22182349860668" lon="-6.805271878838539">
        <ele>923.8</ele>
        <time>2017-08-07T06:00:38.000Z</time>
      </trkpt>
      <trkpt lat="43.221896504983306" lon="-6.80539945140481">
        <ele>925.8</ele>
        <time>2017-08-07T06:00:48.000Z</time>
      </trkpt>
      <trkpt lat="43.2219467125833" lon="-6.805486790835857">
        <ele>927.8</ele>
        <time>2017-08-07T06:00:55.000Z</time>
      </trkpt>
      <trkpt lat="43.22199968621135" lon="-6.805583769455552">
        <ele>930.6</ele>
        <time>2017-08-07T06:01:03.000Z</time>
      </trkpt>
      <trkpt lat="43.222008319571614" lon="-6.805609669536352">
        <ele>931.4</ele>
        <time>2017-08-07T06:01:05.000Z</time>
      </trkpt>
      <trkpt lat="43.222033800557256" lon="-6.805670103058219">
        <ele>933.4</ele>
        <time>2017-08-07T06:01:10.000Z</time>
      </trkpt>
      <trkpt lat="43.222080655395985" lon="-6.8057347275316715">
        <ele>935.6</ele>
        <time>2017-08-07T06:01:16.000Z</time>
      </trkpt>
      <trkpt lat="43.222117284312844" lon="-6.805787198245525">
        <ele>938</ele>
        <time>2017-08-07T06:01:21.000Z</time>
      </trkpt>
      <trkpt lat="43.22213874198496" lon="-6.805806811898947">
        <ele>938.8</ele>
        <time>2017-08-07T06:01:23.000Z</time>
      </trkpt>
      <trkpt lat="43.22216749191284" lon="-6.805821564048529">
        <ele>939.4</ele>
        <time>2017-08-07T06:01:26.000Z</time>
      </trkpt>
      <trkpt lat="43.22218844667077" lon="-6.805832460522652">
        <ele>940</ele>
        <time>2017-08-07T06:01:28.000Z</time>
      </trkpt>
      <trkpt lat="43.22227050550282" lon="-6.805878728628159">
        <ele>941</ele>
        <time>2017-08-07T06:01:35.000Z</time>
      </trkpt>
      <trkpt lat="43.22237100452185" lon="-6.805913681164384">
        <ele>940.6</ele>
        <time>2017-08-07T06:01:43.000Z</time>
      </trkpt>
      <trkpt lat="43.222472509369254" lon="-6.805926002562046">
        <ele>941</ele>
        <time>2017-08-07T06:01:51.000Z</time>
      </trkpt>
      <trkpt lat="43.22256177663803" lon="-6.805925164371729">
        <ele>942.2</ele>
        <time>2017-08-07T06:01:58.000Z</time>
      </trkpt>
      <trkpt lat="43.22265548631549" lon="-6.805920638144016">
        <ele>943.4</ele>
        <time>2017-08-07T06:02:05.000Z</time>
      </trkpt>
      <trkpt lat="43.22272840887308" lon="-6.805925164371729">
        <ele>944.6</ele>
        <time>2017-08-07T06:02:11.000Z</time>
      </trkpt>
      <trkpt lat="43.22281549684703" lon="-6.805934216827154">
        <ele>945.8</ele>
        <time>2017-08-07T06:02:18.000Z</time>
      </trkpt>
      <trkpt lat="43.22291607968509" lon="-6.805944358929992">
        <ele>947.2</ele>
        <time>2017-08-07T06:02:26.000Z</time>
      </trkpt>
      <trkpt lat="43.223000401631" lon="-6.805955087766051">
        <ele>948</ele>
        <time>2017-08-07T06:02:33.000Z</time>
      </trkpt>
      <trkpt lat="43.223098050802946" lon="-6.805974701419473">
        <ele>948.4</ele>
        <time>2017-08-07T06:02:41.000Z</time>
      </trkpt>
      <trkpt lat="43.22320927865803" lon="-6.806021137163043">
        <ele>949.6</ele>
        <time>2017-08-07T06:02:50.000Z</time>
      </trkpt>
      <trkpt lat="43.22327373549342" lon="-6.806051060557365">
        <ele>950.4</ele>
        <time>2017-08-07T06:02:56.000Z</time>
      </trkpt>
      <trkpt lat="43.22335277684033" lon="-6.806082744151354">
        <ele>951.2</ele>
        <time>2017-08-07T06:03:03.000Z</time>
      </trkpt>
      <trkpt lat="43.22344799526036" lon="-6.806119121611118">
        <ele>952</ele>
        <time>2017-08-07T06:03:11.000Z</time>
      </trkpt>
      <trkpt lat="43.22355561889708" lon="-6.806171340867877">
        <ele>953.6</ele>
        <time>2017-08-07T06:03:20.000Z</time>
      </trkpt>
      <trkpt lat="43.223644718527794" lon="-6.806216686964035">
        <ele>955.2</ele>
        <time>2017-08-07T06:03:28.000Z</time>
      </trkpt>
      <trkpt lat="43.22372174821794" lon="-6.806256836280227">
        <ele>956.4</ele>
        <time>2017-08-07T06:03:36.000Z</time>
      </trkpt>
      <trkpt lat="43.22380824945867" lon="-6.8063022661954165">
        <ele>958.6</ele>
        <time>2017-08-07T06:03:44.000Z</time>
      </trkpt>
      <trkpt lat="43.22388695552945" lon="-6.806353311985731">
        <ele>961</ele>
        <time>2017-08-07T06:03:51.000Z</time>
      </trkpt>
      <trkpt lat="43.22395887225866" lon="-6.806384325027466">
        <ele>962.8</ele>
        <time>2017-08-07T06:03:58.000Z</time>
      </trkpt>
      <trkpt lat="43.22402777150273" lon="-6.806417517364025">
        <ele>964.6</ele>
        <time>2017-08-07T06:04:05.000Z</time>
      </trkpt>
      <trkpt lat="43.224100694060326" lon="-6.806441489607096">
        <ele>966.2</ele>
        <time>2017-08-07T06:04:12.000Z</time>
      </trkpt>
      <trkpt lat="43.22418560273945" lon="-6.806477280333638">
        <ele>967.4</ele>
        <time>2017-08-07T06:04:20.000Z</time>
      </trkpt>
      <trkpt lat="43.224273612722754" lon="-6.806510053575039">
        <ele>968.4</ele>
        <time>2017-08-07T06:04:29.000Z</time>
      </trkpt>
      <trkpt lat="43.22433295659721" lon="-6.806538552045822">
        <ele>969.4</ele>
        <time>2017-08-07T06:04:35.000Z</time>
      </trkpt>
      <trkpt lat="43.22441786527634" lon="-6.806575348600745">
        <ele>971</ele>
        <time>2017-08-07T06:04:43.000Z</time>
      </trkpt>
      <trkpt lat="43.2245285063982" lon="-6.806633686646819">
        <ele>973.2</ele>
        <time>2017-08-07T06:04:53.000Z</time>
      </trkpt>
      <trkpt lat="43.224594723433256" lon="-6.806689174845815">
        <ele>976.6</ele>
        <time>2017-08-07T06:05:00.000Z</time>
      </trkpt>
      <trkpt lat="43.22465976700187" lon="-6.8067525420337915">
        <ele>980.2</ele>
        <time>2017-08-07T06:05:07.000Z</time>
      </trkpt>
      <trkpt lat="43.224744256585836" lon="-6.806837785989046">
        <ele>983.4</ele>
        <time>2017-08-07T06:05:16.000Z</time>
      </trkpt>
      <trkpt lat="43.22479488328099" lon="-6.806882880628109">
        <ele>985.4</ele>
        <time>2017-08-07T06:05:22.000Z</time>
      </trkpt>
      <trkpt lat="43.22487082332373" lon="-6.80695915594697">
        <ele>987.8</ele>
        <time>2017-08-07T06:05:30.000Z</time>
      </trkpt>
      <trkpt lat="43.22496587410569" lon="-6.8070163205266">
        <ele>989.4</ele>
        <time>2017-08-07T06:05:39.000Z</time>
      </trkpt>
      <trkpt lat="43.22500719688833" lon="-6.807029480114579">
        <ele>989.6</ele>
        <time>2017-08-07T06:05:43.000Z</time>
      </trkpt>
      <trkpt lat="43.22504751384258" lon="-6.807032665237784">
        <ele>989.6</ele>
        <time>2017-08-07T06:05:47.000Z</time>
      </trkpt>
      <trkpt lat="43.2250692229718" lon="-6.807029480114579">
        <ele>989.4</ele>
        <time>2017-08-07T06:05:49.000Z</time>
      </trkpt>
      <trkpt lat="43.22511331178248" lon="-6.807039035484195">
        <ele>989.4</ele>
        <time>2017-08-07T06:05:53.000Z</time>
      </trkpt>
      <trkpt lat="43.22512345388532" lon="-6.807041214779019">
        <ele>989.4</ele>
        <time>2017-08-07T06:05:54.000Z</time>
      </trkpt>
      <trkpt lat="43.22512345388532" lon="-6.807041214779019">
        <ele>989.4</ele>
        <time>2017-08-07T06:05:54.000Z</time>
      </trkpt>
      <trkpt lat="43.22519947774708" lon="-6.807046998292208">
        <ele>989.4</ele>
        <time>2017-08-07T06:06:01.000Z</time>
      </trkpt>
      <trkpt lat="43.22528572753072" lon="-6.807031575590372">
        <ele>989</ele>
        <time>2017-08-07T06:06:08.000Z</time>
      </trkpt>
      <trkpt lat="43.225369630381465" lon="-6.807015901431441">
        <ele>988.6</ele>
        <time>2017-08-07T06:06:16.000Z</time>
      </trkpt>
      <trkpt lat="43.225407768040895" lon="-6.807009782642126">
        <ele>988.4</ele>
        <time>2017-08-07T06:06:20.000Z</time>
      </trkpt>
      <trkpt lat="43.225418915972114" lon="-6.807008106261492">
        <ele>988.4</ele>
        <time>2017-08-07T06:06:21.000Z</time>
      </trkpt>
      <trkpt lat="43.22551581077278" lon="-6.806996203958988">
        <ele>988.4</ele>
        <time>2017-08-07T06:06:29.000Z</time>
      </trkpt>
      <trkpt lat="43.22560038417578" lon="-6.806989749893546">
        <ele>989</ele>
        <time>2017-08-07T06:06:36.000Z</time>
      </trkpt>
      <trkpt lat="43.225688226521015" lon="-6.806999808177352">
        <ele>990.2</ele>
        <time>2017-08-07T06:06:43.000Z</time>
      </trkpt>
      <trkpt lat="43.225780678913" lon="-6.807015063241124">
        <ele>991.8</ele>
        <time>2017-08-07T06:06:51.000Z</time>
      </trkpt>
      <trkpt lat="43.22590481489897" lon="-6.80704171769321">
        <ele>994.4</ele>
        <time>2017-08-07T06:07:01.000Z</time>
      </trkpt>
      <trkpt lat="43.22598461061716" lon="-6.807071305811405">
        <ele>996.4</ele>
        <time>2017-08-07T06:07:08.000Z</time>
      </trkpt>
      <trkpt lat="43.22606859728694" lon="-6.807106593623757">
        <ele>998.6</ele>
        <time>2017-08-07T06:07:15.000Z</time>
      </trkpt>
      <trkpt lat="43.2261778973043" lon="-6.8071395345032215">
        <ele>1000</ele>
        <time>2017-08-07T06:07:24.000Z</time>
      </trkpt>
      <trkpt lat="43.22629088535905" lon="-6.807167697697878">
        <ele>1000.6</ele>
        <time>2017-08-07T06:07:33.000Z</time>
      </trkpt>
      <trkpt lat="43.22641300968826" lon="-6.807184126228094">
        <ele>1001.6</ele>
        <time>2017-08-07T06:07:43.000Z</time>
      </trkpt>
      <trkpt lat="43.22651325725019" lon="-6.807193765416741">
        <ele>1002</ele>
        <time>2017-08-07T06:07:51.000Z</time>
      </trkpt>
      <trkpt lat="43.226597327739" lon="-6.807201812043786">
        <ele>1002</ele>
        <time>2017-08-07T06:07:58.000Z</time>
      </trkpt>
      <trkpt lat="43.22668542154133" lon="-6.807210948318243">
        <ele>1002.2</ele>
        <time>2017-08-07T06:08:05.000Z</time>
      </trkpt>
      <trkpt lat="43.22676982730627" lon="-6.807242967188358">
        <ele>1002.4</ele>
        <time>2017-08-07T06:08:12.000Z</time>
      </trkpt>
      <trkpt lat="43.226833110675216" lon="-6.807339359074831">
        <ele>1003.6</ele>
        <time>2017-08-07T06:08:20.000Z</time>
      </trkpt>
      <trkpt lat="43.226820873096585" lon="-6.8074664287269115">
        <ele>1005.2</ele>
        <time>2017-08-07T06:08:28.000Z</time>
      </trkpt>
      <trkpt lat="43.22677066549659" lon="-6.80758461356163">
        <ele>1007</ele>
        <time>2017-08-07T06:08:36.000Z</time>
      </trkpt>
      <trkpt lat="43.226716769859195" lon="-6.807717382907867">
        <ele>1010</ele>
        <time>2017-08-07T06:08:45.000Z</time>
      </trkpt>
      <trkpt lat="43.226705538108945" lon="-6.807761136442423">
        <ele>1010.8</ele>
        <time>2017-08-07T06:08:48.000Z</time>
      </trkpt>
      <trkpt lat="43.2266906183213" lon="-6.80779566988349">
        <ele>1011.4</ele>
        <time>2017-08-07T06:08:51.000Z</time>
      </trkpt>
      <trkpt lat="43.22664015926421" lon="-6.80789683945477">
        <ele>1013.2</ele>
        <time>2017-08-07T06:08:58.000Z</time>
      </trkpt>
      <trkpt lat="43.226587772369385" lon="-6.808025920763612">
        <ele>1015.2</ele>
        <time>2017-08-07T06:09:07.000Z</time>
      </trkpt>
      <trkpt lat="43.22655273601413" lon="-6.808132706210017">
        <ele>1016.6</ele>
        <time>2017-08-07T06:09:15.000Z</time>
      </trkpt>
      <trkpt lat="43.22650738991797" lon="-6.808288777247071">
        <ele>1017.6</ele>
        <time>2017-08-07T06:09:25.000Z</time>
      </trkpt>
      <trkpt lat="43.22646380402148" lon="-6.808451218530536">
        <ele>1018.2</ele>
        <time>2017-08-07T06:09:35.000Z</time>
      </trkpt>
      <trkpt lat="43.2264057174325" lon="-6.808602847158909">
        <ele>1019.6</ele>
        <time>2017-08-07T06:09:45.000Z</time>
      </trkpt>
      <trkpt lat="43.226333046332" lon="-6.808758080005646">
        <ele>1021.2</ele>
        <time>2017-08-07T06:09:56.000Z</time>
      </trkpt>
      <trkpt lat="43.22628694586456" lon="-6.808852460235357">
        <ele>1022.2</ele>
        <time>2017-08-07T06:10:03.000Z</time>
      </trkpt>
      <trkpt lat="43.22624931111932" lon="-6.808933429419994">
        <ele>1023</ele>
        <time>2017-08-07T06:10:09.000Z</time>
      </trkpt>
      <trkpt lat="43.22620203718543" lon="-6.809058906510472">
        <ele>1024.2</ele>
        <time>2017-08-07T06:10:17.000Z</time>
      </trkpt>
      <trkpt lat="43.22615467943251" lon="-6.809248253703117">
        <ele>1025.6</ele>
        <time>2017-08-07T06:10:28.000Z</time>
      </trkpt>
      <trkpt lat="43.22613908909261" lon="-6.809394853189588">
        <ele>1027</ele>
        <time>2017-08-07T06:10:36.000Z</time>
      </trkpt>
      <trkpt lat="43.22613707743585" lon="-6.809561150148511">
        <ele>1028</ele>
        <time>2017-08-07T06:10:45.000Z</time>
      </trkpt>
      <trkpt lat="43.226145626977086" lon="-6.809736331924796">
        <ele>1029.6</ele>
        <time>2017-08-07T06:10:55.000Z</time>
      </trkpt>
      <trkpt lat="43.22614445351064" lon="-6.809897851198912">
        <ele>1030.4</ele>
        <time>2017-08-07T06:11:04.000Z</time>
      </trkpt>
      <trkpt lat="43.22613741271198" lon="-6.810039673000574">
        <ele>1031.8</ele>
        <time>2017-08-07T06:11:12.000Z</time>
      </trkpt>
      <trkpt lat="43.22612626478076" lon="-6.810178812593222">
        <ele>1033</ele>
        <time>2017-08-07T06:11:20.000Z</time>
      </trkpt>
      <trkpt lat="43.226106483489275" lon="-6.810327423736453">
        <ele>1034.2</ele>
        <time>2017-08-07T06:11:28.000Z</time>
      </trkpt>
      <trkpt lat="43.22607555426657" lon="-6.810509646311402">
        <ele>1035.6</ele>
        <time>2017-08-07T06:11:38.000Z</time>
      </trkpt>
      <trkpt lat="43.226054683327675" lon="-6.8106297589838505">
        <ele>1036.6</ele>
        <time>2017-08-07T06:11:45.000Z</time>
      </trkpt>
      <trkpt lat="43.22604713961482" lon="-6.810643253847957">
        <ele>1036.8</ele>
        <time>2017-08-07T06:11:46.000Z</time>
      </trkpt>
      <trkpt lat="43.22602174244821" lon="-6.810745513066649">
        <ele>1038</ele>
        <time>2017-08-07T06:11:52.000Z</time>
      </trkpt>
      <trkpt lat="43.22600958868861" lon="-6.810814496129751">
        <ele>1038.6</ele>
        <time>2017-08-07T06:11:56.000Z</time>
      </trkpt>
      <trkpt lat="43.22600640356541" lon="-6.810824889689684">
        <ele>1038.8</ele>
        <time>2017-08-07T06:11:58.000Z</time>
      </trkpt>
      <trkpt lat="43.225989639759064" lon="-6.810880796983838">
        <ele>1039.4</ele>
        <time>2017-08-07T06:12:02.000Z</time>
      </trkpt>
      <trkpt lat="43.22598268277943" lon="-6.810911223292351">
        <ele>1039.6</ele>
        <time>2017-08-07T06:12:04.000Z</time>
      </trkpt>
      <trkpt lat="43.22592644020915" lon="-6.811098558828235">
        <ele>1040.2</ele>
        <time>2017-08-07T06:12:15.000Z</time>
      </trkpt>
      <trkpt lat="43.225871454924345" lon="-6.8112782668322325">
        <ele>1040.4</ele>
        <time>2017-08-07T06:12:25.000Z</time>
      </trkpt>
      <trkpt lat="43.22582820430398" lon="-6.8114187475293875">
        <ele>1040.4</ele>
        <time>2017-08-07T06:12:33.000Z</time>
      </trkpt>
      <trkpt lat="43.22576844133437" lon="-6.811616308987141">
        <ele>1040.8</ele>
        <time>2017-08-07T06:12:44.000Z</time>
      </trkpt>
      <trkpt lat="43.22572493925691" lon="-6.8117553647607565">
        <ele>1041.6</ele>
        <time>2017-08-07T06:12:52.000Z</time>
      </trkpt>
      <trkpt lat="43.225683365017176" lon="-6.8118946719914675">
        <ele>1042.4</ele>
        <time>2017-08-07T06:13:00.000Z</time>
      </trkpt>
      <trkpt lat="43.22562804445624" lon="-6.812064405530691">
        <ele>1043.2</ele>
        <time>2017-08-07T06:13:10.000Z</time>
      </trkpt>
      <trkpt lat="43.225571382790804" lon="-6.812246711924672">
        <ele>1043.6</ele>
        <time>2017-08-07T06:13:20.000Z</time>
      </trkpt>
      <trkpt lat="43.22551488876343" lon="-6.812403788790107">
        <ele>1043.4</ele>
        <time>2017-08-07T06:13:29.000Z</time>
      </trkpt>
      <trkpt lat="43.22543106973171" lon="-6.8126315250992775">
        <ele>1041.8</ele>
        <time>2017-08-07T06:13:42.000Z</time>
      </trkpt>
      <trkpt lat="43.225362254306674" lon="-6.812800504267216">
        <ele>1040.6</ele>
        <time>2017-08-07T06:13:52.000Z</time>
      </trkpt>
      <trkpt lat="43.22530408389866" lon="-6.812946684658527">
        <ele>1039.4</ele>
        <time>2017-08-07T06:14:00.000Z</time>
      </trkpt>
      <trkpt lat="43.225246500223875" lon="-6.813108790665865">
        <ele>1038</ele>
        <time>2017-08-07T06:14:09.000Z</time>
      </trkpt>
      <trkpt lat="43.225188413634896" lon="-6.813276344910264">
        <ele>1036.8</ele>
        <time>2017-08-07T06:14:19.000Z</time>
      </trkpt>
      <trkpt lat="43.225137032568455" lon="-6.813441887497902">
        <ele>1036</ele>
        <time>2017-08-07T06:14:29.000Z</time>
      </trkpt>
      <trkpt lat="43.22507810778916" lon="-6.813628803938627">
        <ele>1035.8</ele>
        <time>2017-08-07T06:14:40.000Z</time>
      </trkpt>
      <trkpt lat="43.225024128332734" lon="-6.813806835561991">
        <ele>1036</ele>
        <time>2017-08-07T06:14:50.000Z</time>
      </trkpt>
      <trkpt lat="43.224973417818546" lon="-6.813992327079177">
        <ele>1036.8</ele>
        <time>2017-08-07T06:15:00.000Z</time>
      </trkpt>
      <trkpt lat="43.224918097257614" lon="-6.814168347045779">
        <ele>1038</ele>
        <time>2017-08-07T06:15:10.000Z</time>
      </trkpt>
      <trkpt lat="43.22485984303057" lon="-6.814363393932581">
        <ele>1037.8</ele>
        <time>2017-08-07T06:15:21.000Z</time>
      </trkpt>
      <trkpt lat="43.224809719249606" lon="-6.814523488283157">
        <ele>1037.4</ele>
        <time>2017-08-07T06:15:30.000Z</time>
      </trkpt>
      <trkpt lat="43.22474869899452" lon="-6.814720882102847">
        <ele>1037</ele>
        <time>2017-08-07T06:15:41.000Z</time>
      </trkpt>
      <trkpt lat="43.22468927130103" lon="-6.814925484359264">
        <ele>1036.6</ele>
        <time>2017-08-07T06:15:52.000Z</time>
      </trkpt>
      <trkpt lat="43.22462908923626" lon="-6.815099827945232">
        <ele>1036</ele>
        <time>2017-08-07T06:16:02.000Z</time>
      </trkpt>
      <trkpt lat="43.22457938455045" lon="-6.8152405600994825">
        <ele>1035.4</ele>
        <time>2017-08-07T06:16:10.000Z</time>
      </trkpt>
      <trkpt lat="43.22455725632608" lon="-6.815296467393637">
        <ele>1035.2</ele>
        <time>2017-08-07T06:16:13.000Z</time>
      </trkpt>
      <trkpt lat="43.22454082779586" lon="-6.815346088260412">
        <ele>1035</ele>
        <time>2017-08-07T06:16:16.000Z</time>
      </trkpt>
      <trkpt lat="43.224501851946115" lon="-6.815461004152894">
        <ele>1034.6</ele>
        <time>2017-08-07T06:16:22.000Z</time>
      </trkpt>
      <trkpt lat="43.22443898767233" lon="-6.81562839075923">
        <ele>1034.4</ele>
        <time>2017-08-07T06:16:31.000Z</time>
      </trkpt>
      <trkpt lat="43.2243783865124" lon="-6.815794855356216">
        <ele>1034.6</ele>
        <time>2017-08-07T06:16:40.000Z</time>
      </trkpt>
      <trkpt lat="43.22431677952409" lon="-6.815954949706793">
        <ele>1034.4</ele>
        <time>2017-08-07T06:16:49.000Z</time>
      </trkpt>
      <trkpt lat="43.22426179423928" lon="-6.816092915832996">
        <ele>1033.8</ele>
        <time>2017-08-07T06:16:57.000Z</time>
      </trkpt>
      <trkpt lat="43.22419616393745" lon="-6.816248400136828">
        <ele>1032.8</ele>
        <time>2017-08-07T06:17:07.000Z</time>
      </trkpt>
      <trkpt lat="43.22414629161358" lon="-6.816362980753183">
        <ele>1031.4</ele>
        <time>2017-08-07T06:17:14.000Z</time>
      </trkpt>
      <trkpt lat="43.224131958559155" lon="-6.816391563042998">
        <ele>1031</ele>
        <time>2017-08-07T06:17:16.000Z</time>
      </trkpt>
      <trkpt lat="43.224060125648975" lon="-6.816556183621287">
        <ele>1029.4</ele>
        <time>2017-08-07T06:17:26.000Z</time>
      </trkpt>
      <trkpt lat="43.22400790639222" lon="-6.816742932423949">
        <ele>1028.4</ele>
        <time>2017-08-07T06:17:36.000Z</time>
      </trkpt>
      <trkpt lat="43.224019054323435" lon="-6.816937141120434">
        <ele>1027.6</ele>
        <time>2017-08-07T06:17:45.000Z</time>
      </trkpt>
      <trkpt lat="43.22404604405165" lon="-6.817082399502397">
        <ele>1027</ele>
        <time>2017-08-07T06:17:52.000Z</time>
      </trkpt>
      <trkpt lat="43.22408124804497" lon="-6.817266633734107">
        <ele>1026.2</ele>
        <time>2017-08-07T06:18:01.000Z</time>
      </trkpt>
      <trkpt lat="43.22410807013512" lon="-6.817389847710729">
        <ele>1026</ele>
        <time>2017-08-07T06:18:07.000Z</time>
      </trkpt>
      <trkpt lat="43.22413422167301" lon="-6.81753502227366">
        <ele>1025.6</ele>
        <time>2017-08-07T06:18:14.000Z</time>
      </trkpt>
      <trkpt lat="43.22416104376316" lon="-6.817681035026908">
        <ele>1024.6</ele>
        <time>2017-08-07T06:18:21.000Z</time>
      </trkpt>
      <trkpt lat="43.22418157942593" lon="-6.817796370014548">
        <ele>1023.8</ele>
        <time>2017-08-07T06:18:26.000Z</time>
      </trkpt>
      <trkpt lat="43.224199432879686" lon="-6.81790784932673">
        <ele>1022.8</ele>
        <time>2017-08-07T06:18:31.000Z</time>
      </trkpt>
      <trkpt lat="43.224236480891705" lon="-6.818138184025884">
        <ele>1020.2</ele>
        <time>2017-08-07T06:18:41.000Z</time>
      </trkpt>
      <trkpt lat="43.224266320466995" lon="-6.818329291418195">
        <ele>1017.6</ele>
        <time>2017-08-07T06:18:49.000Z</time>
      </trkpt>
      <trkpt lat="43.22430336847901" lon="-6.8185157887637615">
        <ele>1014.8</ele>
        <time>2017-08-07T06:18:57.000Z</time>
      </trkpt>
      <trkpt lat="43.22432851418853" lon="-6.818687114864588">
        <ele>1012</ele>
        <time>2017-08-07T06:19:04.000Z</time>
      </trkpt>
      <trkpt lat="43.22435692884028" lon="-6.818853747099638">
        <ele>1009.6</ele>
        <time>2017-08-07T06:19:10.000Z</time>
      </trkpt>
      <trkpt lat="43.22438886389136" lon="-6.819013003259897">
        <ele>1007.8</ele>
        <time>2017-08-07T06:19:17.000Z</time>
      </trkpt>
      <trkpt lat="43.224433874711394" lon="-6.819170331582427">
        <ele>1006.2</ele>
        <time>2017-08-07T06:19:24.000Z</time>
      </trkpt>
      <trkpt lat="43.2245113234967" lon="-6.819333527237177">
        <ele>1005.2</ele>
        <time>2017-08-07T06:19:33.000Z</time>
      </trkpt>
      <trkpt lat="43.22458709590137" lon="-6.8194296676665545">
        <ele>1004.8</ele>
        <time>2017-08-07T06:19:40.000Z</time>
      </trkpt>
      <trkpt lat="43.224677704274654" lon="-6.819577440619469">
        <ele>1003.4</ele>
        <time>2017-08-07T06:19:49.000Z</time>
      </trkpt>
      <trkpt lat="43.22476018220186" lon="-6.819702247157693">
        <ele>1001.6</ele>
        <time>2017-08-07T06:19:57.000Z</time>
      </trkpt>
      <trkpt lat="43.22481902316213" lon="-6.819846834987402">
        <ele>999.8</ele>
        <time>2017-08-07T06:20:05.000Z</time>
      </trkpt>
      <trkpt lat="43.224849700927734" lon="-6.819959403946996">
        <ele>998</ele>
        <time>2017-08-07T06:20:12.000Z</time>
      </trkpt>
      <trkpt lat="43.22487057186663" lon="-6.820009276270866">
        <ele>997.2</ele>
        <time>2017-08-07T06:20:17.000Z</time>
      </trkpt>
      <trkpt lat="43.22492782026529" lon="-6.820151098072529">
        <ele>995.2</ele>
        <time>2017-08-07T06:20:25.000Z</time>
      </trkpt>
      <trkpt lat="43.22497417218983" lon="-6.820261823013425">
        <ele>994</ele>
        <time>2017-08-07T06:20:32.000Z</time>
      </trkpt>
      <trkpt lat="43.22501599788666" lon="-6.820375481620431">
        <ele>992.6</ele>
        <time>2017-08-07T06:20:38.000Z</time>
      </trkpt>
      <trkpt lat="43.225058326497674" lon="-6.820515291765332">
        <ele>991.4</ele>
        <time>2017-08-07T06:20:44.000Z</time>
      </trkpt>
      <trkpt lat="43.225081376731396" lon="-6.820686114951968">
        <ele>989.6</ele>
        <time>2017-08-07T06:20:52.000Z</time>
      </trkpt>
      <trkpt lat="43.22509051300585" lon="-6.820827517658472">
        <ele>988.4</ele>
        <time>2017-08-07T06:20:59.000Z</time>
      </trkpt>
      <trkpt lat="43.22508204728365" lon="-6.821024576202035">
        <ele>986.6</ele>
        <time>2017-08-07T06:21:09.000Z</time>
      </trkpt>
      <trkpt lat="43.225026642903686" lon="-6.821189951151609">
        <ele>984.6</ele>
        <time>2017-08-07T06:21:18.000Z</time>
      </trkpt>
      <trkpt lat="43.225006526336074" lon="-6.821330934762955">
        <ele>982.4</ele>
        <time>2017-08-07T06:21:25.000Z</time>
      </trkpt>
      <trkpt lat="43.224982554093" lon="-6.821531010791659">
        <ele>979.6</ele>
        <time>2017-08-07T06:21:35.000Z</time>
      </trkpt>
      <trkpt lat="43.224935280159116" lon="-6.8216567393392324">
        <ele>978</ele>
        <time>2017-08-07T06:21:42.000Z</time>
      </trkpt>
      <trkpt lat="43.224854646250606" lon="-6.8217874970287085">
        <ele>976.4</ele>
        <time>2017-08-07T06:21:50.000Z</time>
      </trkpt>
      <trkpt lat="43.22481877170503" lon="-6.821917165070772">
        <ele>975.8</ele>
        <time>2017-08-07T06:21:57.000Z</time>
      </trkpt>
      <trkpt lat="43.22481583803892" lon="-6.821938455104828">
        <ele>975.8</ele>
        <time>2017-08-07T06:22:01.000Z</time>
      </trkpt>
      <trkpt lat="43.22479085996747" lon="-6.822058316320181">
        <ele>975.4</ele>
        <time>2017-08-07T06:22:07.000Z</time>
      </trkpt>
      <trkpt lat="43.224778873845935" lon="-6.822196198627353">
        <ele>974.8</ele>
        <time>2017-08-07T06:22:13.000Z</time>
      </trkpt>
      <trkpt lat="43.2248049415648" lon="-6.822356628254056">
        <ele>974.4</ele>
        <time>2017-08-07T06:22:21.000Z</time>
      </trkpt>
      <trkpt lat="43.22481474839151" lon="-6.82242376729846">
        <ele>974</ele>
        <time>2017-08-07T06:22:27.000Z</time>
      </trkpt>
      <trkpt lat="43.224834110587835" lon="-6.822527451440692">
        <ele>974</ele>
        <time>2017-08-07T06:22:33.000Z</time>
      </trkpt>
      <trkpt lat="43.2248617708683" lon="-6.822701124474406">
        <ele>973.4</ele>
        <time>2017-08-07T06:22:42.000Z</time>
      </trkpt>
      <trkpt lat="43.22489672340453" lon="-6.822846969589591">
        <ele>972.8</ele>
        <time>2017-08-07T06:22:50.000Z</time>
      </trkpt>
      <trkpt lat="43.22495388798416" lon="-6.822949564084411">
        <ele>972.6</ele>
        <time>2017-08-07T06:22:58.000Z</time>
      </trkpt>
      <trkpt lat="43.22499856352806" lon="-6.823029946535826">
        <ele>972.4</ele>
        <time>2017-08-07T06:23:04.000Z</time>
      </trkpt>
      <trkpt lat="43.22502345778048" lon="-6.823191130533814">
        <ele>971</ele>
        <time>2017-08-07T06:23:13.000Z</time>
      </trkpt>
      <trkpt lat="43.22503997012973" lon="-6.823368826881051">
        <ele>968.6</ele>
        <time>2017-08-07T06:23:23.000Z</time>
      </trkpt>
      <trkpt lat="43.22498146444559" lon="-6.82342984713614">
        <ele>967.4</ele>
        <time>2017-08-07T06:23:29.000Z</time>
      </trkpt>
      <trkpt lat="43.224971825256944" lon="-6.823439234867692">
        <ele>967.2</ele>
        <time>2017-08-07T06:23:30.000Z</time>
      </trkpt>
      <trkpt lat="43.22491306811571" lon="-6.823519449681044">
        <ele>966</ele>
        <time>2017-08-07T06:23:37.000Z</time>
      </trkpt>
      <trkpt lat="43.224836038425565" lon="-6.823598658666015">
        <ele>964.8</ele>
        <time>2017-08-07T06:23:44.000Z</time>
      </trkpt>
      <trkpt lat="43.22475582361221" lon="-6.823658924549818">
        <ele>963.8</ele>
        <time>2017-08-07T06:23:50.000Z</time>
      </trkpt>
      <trkpt lat="43.224654737859964" lon="-6.823716843500733">
        <ele>962.8</ele>
        <time>2017-08-07T06:23:58.000Z</time>
      </trkpt>
      <trkpt lat="43.22458181530237" lon="-6.823750119656324">
        <ele>961.6</ele>
        <time>2017-08-07T06:24:04.000Z</time>
      </trkpt>
      <trkpt lat="43.224505791440606" lon="-6.823806697502732">
        <ele>960</ele>
        <time>2017-08-07T06:24:11.000Z</time>
      </trkpt>
      <trkpt lat="43.22444795630872" lon="-6.82383100502193">
        <ele>959</ele>
        <time>2017-08-07T06:24:15.000Z</time>
      </trkpt>
      <trkpt lat="43.224437814205885" lon="-6.823842320591211">
        <ele>958.8</ele>
        <time>2017-08-07T06:24:16.000Z</time>
      </trkpt>
      <trkpt lat="43.22434703819454" lon="-6.82392287068069">
        <ele>956.4</ele>
        <time>2017-08-07T06:24:24.000Z</time>
      </trkpt>
      <trkpt lat="43.22430077008903" lon="-6.82401523925364">
        <ele>954</ele>
        <time>2017-08-07T06:24:30.000Z</time>
      </trkpt>
      <trkpt lat="43.22430646978319" lon="-6.82412026450038">
        <ele>952.6</ele>
        <time>2017-08-07T06:24:36.000Z</time>
      </trkpt>
      <trkpt lat="43.22433739900589" lon="-6.824254794046283">
        <ele>951.4</ele>
        <time>2017-08-07T06:24:44.000Z</time>
      </trkpt>
      <trkpt lat="43.22439984418452" lon="-6.824386473745108">
        <ele>950.4</ele>
        <time>2017-08-07T06:24:53.000Z</time>
      </trkpt>
      <trkpt lat="43.224445609375834" lon="-6.824492169544101">
        <ele>949</ele>
        <time>2017-08-07T06:25:00.000Z</time>
      </trkpt>
      <trkpt lat="43.224498834460974" lon="-6.824580682441592">
        <ele>947.8</ele>
        <time>2017-08-07T06:25:07.000Z</time>
      </trkpt>
      <trkpt lat="43.22457477450371" lon="-6.8246494978666306">
        <ele>947</ele>
        <time>2017-08-07T06:25:15.000Z</time>
      </trkpt>
      <trkpt lat="43.22465591132641" lon="-6.824725773185492">
        <ele>946.2</ele>
        <time>2017-08-07T06:25:23.000Z</time>
      </trkpt>
      <trkpt lat="43.22474635206163" lon="-6.824826020747423">
        <ele>944.8</ele>
        <time>2017-08-07T06:25:32.000Z</time>
      </trkpt>
      <trkpt lat="43.22479538619518" lon="-6.824958203360438">
        <ele>943</ele>
        <time>2017-08-07T06:25:40.000Z</time>
      </trkpt>
      <trkpt lat="43.22482111863792" lon="-6.82507898658514">
        <ele>941.2</ele>
        <time>2017-08-07T06:25:48.000Z</time>
      </trkpt>
      <trkpt lat="43.224847270175815" lon="-6.825171438977122">
        <ele>939.6</ele>
        <time>2017-08-07T06:25:55.000Z</time>
      </trkpt>
      <trkpt lat="43.22489672340453" lon="-6.825283672660589">
        <ele>937.6</ele>
        <time>2017-08-07T06:26:03.000Z</time>
      </trkpt>
      <trkpt lat="43.224951876327395" lon="-6.82536288164556">
        <ele>936</ele>
        <time>2017-08-07T06:26:09.000Z</time>
      </trkpt>
      <trkpt lat="43.225014824420214" lon="-6.825486849993467">
        <ele>933.4</ele>
        <time>2017-08-07T06:26:17.000Z</time>
      </trkpt>
      <trkpt lat="43.22506268508732" lon="-6.82558910921216">
        <ele>931</ele>
        <time>2017-08-07T06:26:24.000Z</time>
      </trkpt>
      <trkpt lat="43.22507123462856" lon="-6.825599502772093">
        <ele>930.6</ele>
        <time>2017-08-07T06:26:25.000Z</time>
      </trkpt>
      <trkpt lat="43.22514516301453" lon="-6.82568390853703">
        <ele>928.2</ele>
        <time>2017-08-07T06:26:31.000Z</time>
      </trkpt>
      <trkpt lat="43.225198136642575" lon="-6.8257916159927845">
        <ele>925.8</ele>
        <time>2017-08-07T06:26:37.000Z</time>
      </trkpt>
      <trkpt lat="43.22523744776845" lon="-6.825885158032179">
        <ele>923.6</ele>
        <time>2017-08-07T06:26:43.000Z</time>
      </trkpt>
      <trkpt lat="43.225307604297996" lon="-6.8260295782238245">
        <ele>921</ele>
        <time>2017-08-07T06:26:52.000Z</time>
      </trkpt>
      <trkpt lat="43.225344233214855" lon="-6.826151367276907">
        <ele>919</ele>
        <time>2017-08-07T06:26:58.000Z</time>
      </trkpt>
      <trkpt lat="43.22538413107395" lon="-6.8262227810919285">
        <ele>917.6</ele>
        <time>2017-08-07T06:27:02.000Z</time>
      </trkpt>
      <trkpt lat="43.22539787739515" lon="-6.826250189915299">
        <ele>917</ele>
        <time>2017-08-07T06:27:04.000Z</time>
      </trkpt>
      <trkpt lat="43.22542964480817" lon="-6.826338451355696">
        <ele>915</ele>
        <time>2017-08-07T06:27:08.000Z</time>
      </trkpt>
      <trkpt lat="43.22546015493572" lon="-6.826392514631152">
        <ele>913.8</ele>
        <time>2017-08-07T06:27:11.000Z</time>
      </trkpt>
      <trkpt lat="43.225458981469274" lon="-6.826432831585407">
        <ele>913</ele>
        <time>2017-08-07T06:27:13.000Z</time>
      </trkpt>
      <trkpt lat="43.22544666007161" lon="-6.826447583734989">
        <ele>912.6</ele>
        <time>2017-08-07T06:27:14.000Z</time>
      </trkpt>
      <trkpt lat="43.225386897102" lon="-6.826502317562699">
        <ele>911.6</ele>
        <time>2017-08-07T06:27:18.000Z</time>
      </trkpt>
      <trkpt lat="43.225374575704336" lon="-6.826520673930645">
        <ele>911.2</ele>
        <time>2017-08-07T06:27:19.000Z</time>
      </trkpt>
      <trkpt lat="43.225260665640235" lon="-6.826603822410107">
        <ele>909.4</ele>
        <time>2017-08-07T06:27:25.000Z</time>
      </trkpt>
      <trkpt lat="43.2252278085798" lon="-6.826636930927634">
        <ele>908.6</ele>
        <time>2017-08-07T06:27:28.000Z</time>
      </trkpt>
      <trkpt lat="43.225223533809185" lon="-6.826639277860522">
        <ele>908.6</ele>
        <time>2017-08-07T06:27:30.000Z</time>
      </trkpt>
      <trkpt lat="43.22517005726695" lon="-6.826678588986397">
        <ele>907.6</ele>
        <time>2017-08-07T06:27:36.000Z</time>
      </trkpt>
      <trkpt lat="43.22508405894041" lon="-6.826757127419114">
        <ele>905.6</ele>
        <time>2017-08-07T06:27:42.000Z</time>
      </trkpt>
      <trkpt lat="43.22498515248299" lon="-6.826845724135637">
        <ele>902.6</ele>
        <time>2017-08-07T06:27:50.000Z</time>
      </trkpt>
      <trkpt lat="43.224903261289" lon="-6.8269033916294575">
        <ele>900.6</ele>
        <time>2017-08-07T06:27:56.000Z</time>
      </trkpt>
      <trkpt lat="43.22476412169635" lon="-6.826998190954328">
        <ele>896.4</ele>
        <time>2017-08-07T06:28:06.000Z</time>
      </trkpt>
      <trkpt lat="43.22466881945729" lon="-6.827055523172021">
        <ele>893.8</ele>
        <time>2017-08-07T06:28:13.000Z</time>
      </trkpt>
      <trkpt lat="43.2245440967381" lon="-6.82712827809155">
        <ele>892</ele>
        <time>2017-08-07T06:28:22.000Z</time>
      </trkpt>
      <trkpt lat="43.22442725300789" lon="-6.827202122658491">
        <ele>890.6</ele>
        <time>2017-08-07T06:28:31.000Z</time>
      </trkpt>
      <trkpt lat="43.22433756664395" lon="-6.827258365228772">
        <ele>889.6</ele>
        <time>2017-08-07T06:28:38.000Z</time>
      </trkpt>
      <trkpt lat="43.22422223165631" lon="-6.827326845377684">
        <ele>888.6</ele>
        <time>2017-08-07T06:28:47.000Z</time>
      </trkpt>
      <trkpt lat="43.224124163389206" lon="-6.827387530356646">
        <ele>887.4</ele>
        <time>2017-08-07T06:28:55.000Z</time>
      </trkpt>
      <trkpt lat="43.22403238154948" lon="-6.827433295547962">
        <ele>886.2</ele>
        <time>2017-08-07T06:29:02.000Z</time>
      </trkpt>
      <trkpt lat="43.22394554503262" lon="-6.827510325238109">
        <ele>883.6</ele>
        <time>2017-08-07T06:29:09.000Z</time>
      </trkpt>
      <trkpt lat="43.223878825083375" lon="-6.827580146491528">
        <ele>881.4</ele>
        <time>2017-08-07T06:29:15.000Z</time>
      </trkpt>
      <trkpt lat="43.2238120213151" lon="-6.827639909461141">
        <ele>879.6</ele>
        <time>2017-08-07T06:29:22.000Z</time>
      </trkpt>
      <trkpt lat="43.22379659861326" lon="-6.827644184231758">
        <ele>879.6</ele>
        <time>2017-08-07T06:29:28.000Z</time>
      </trkpt>
      <trkpt lat="43.22375552728772" lon="-6.827654577791691">
        <ele>879.4</ele>
        <time>2017-08-07T06:29:31.000Z</time>
      </trkpt>
      <trkpt lat="43.223719066008925" lon="-6.827679220587015">
        <ele>878.8</ele>
        <time>2017-08-07T06:29:34.000Z</time>
      </trkpt>
      <trkpt lat="43.22368084453046" lon="-6.82769849896431">
        <ele>878.2</ele>
        <time>2017-08-07T06:29:37.000Z</time>
      </trkpt>
      <trkpt lat="43.223605742678046" lon="-6.827759351581335">
        <ele>876.8</ele>
        <time>2017-08-07T06:29:43.000Z</time>
      </trkpt>
      <trkpt lat="43.22359484620392" lon="-6.827766811475158">
        <ele>876.6</ele>
        <time>2017-08-07T06:29:44.000Z</time>
      </trkpt>
      <trkpt lat="43.22355813346803" lon="-6.827788855880499">
        <ele>876</ele>
        <time>2017-08-07T06:29:47.000Z</time>
      </trkpt>
      <trkpt lat="43.22353022173047" lon="-6.827819617465138">
        <ele>875.2</ele>
        <time>2017-08-07T06:29:50.000Z</time>
      </trkpt>
      <trkpt lat="43.223509434610605" lon="-6.827833699062467">
        <ele>874.8</ele>
        <time>2017-08-07T06:29:52.000Z</time>
      </trkpt>
      <trkpt lat="43.22346283122897" lon="-6.827862868085504">
        <ele>873.8</ele>
        <time>2017-08-07T06:29:56.000Z</time>
      </trkpt>
      <trkpt lat="43.22345537133515" lon="-6.827873680740595">
        <ele>873.6</ele>
        <time>2017-08-07T06:29:57.000Z</time>
      </trkpt>
      <trkpt lat="43.22344036772847" lon="-6.827979627996683">
        <ele>870.8</ele>
        <time>2017-08-07T06:30:03.000Z</time>
      </trkpt>
      <trkpt lat="43.22347833774984" lon="-6.828022627159953">
        <ele>870</ele>
        <time>2017-08-07T06:30:07.000Z</time>
      </trkpt>
      <trkpt lat="43.223489904776216" lon="-6.82803176343441">
        <ele>869.8</ele>
        <time>2017-08-07T06:30:08.000Z</time>
      </trkpt>
      <trkpt lat="43.22357481345534" lon="-6.82814416475594">
        <ele>867</ele>
        <time>2017-08-07T06:30:16.000Z</time>
      </trkpt>
      <trkpt lat="43.22369500994682" lon="-6.828257404267788">
        <ele>864</ele>
        <time>2017-08-07T06:30:26.000Z</time>
      </trkpt>
      <trkpt lat="43.22370515204966" lon="-6.828269977122545">
        <ele>863.8</ele>
        <time>2017-08-07T06:30:27.000Z</time>
      </trkpt>
      <trkpt lat="43.223749324679375" lon="-6.828311299905181">
        <ele>863</ele>
        <time>2017-08-07T06:30:31.000Z</time>
      </trkpt>
      <trkpt lat="43.223793245851994" lon="-6.828345414251089">
        <ele>862.4</ele>
        <time>2017-08-07T06:30:35.000Z</time>
      </trkpt>
      <trkpt lat="43.22380414232612" lon="-6.828355137258768">
        <ele>862.2</ele>
        <time>2017-08-07T06:30:36.000Z</time>
      </trkpt>
      <trkpt lat="43.22387211956084" lon="-6.8284000642597675">
        <ele>861.6</ele>
        <time>2017-08-07T06:30:42.000Z</time>
      </trkpt>
      <trkpt lat="43.223871449008584" lon="-6.82839528657496">
        <ele>861.6</ele>
        <time>2017-08-07T06:30:43.000Z</time>
      </trkpt>
      <trkpt lat="43.223902797326446" lon="-6.828453876078129">
        <ele>860.4</ele>
        <time>2017-08-07T06:31:07.000Z</time>
      </trkpt>
      <trkpt lat="43.22396423667669" lon="-6.828555464744568">
        <ele>858.6</ele>
        <time>2017-08-07T06:31:14.000Z</time>
      </trkpt>
      <trkpt lat="43.22397027164698" lon="-6.828565439209342">
        <ele>858.6</ele>
        <time>2017-08-07T06:31:15.000Z</time>
      </trkpt>
      <trkpt lat="43.22400572709739" lon="-6.828624112531543">
        <ele>857.8</ele>
        <time>2017-08-07T06:31:19.000Z</time>
      </trkpt>
      <trkpt lat="43.22402073070407" lon="-6.82865428738296">
        <ele>857.4</ele>
        <time>2017-08-07T06:31:21.000Z</time>
      </trkpt>
      <trkpt lat="43.22407999075949" lon="-6.828759647905827">
        <ele>855.8</ele>
        <time>2017-08-07T06:31:28.000Z</time>
      </trkpt>
      <trkpt lat="43.22413606569171" lon="-6.828883616253734">
        <ele>853.4</ele>
        <time>2017-08-07T06:31:36.000Z</time>
      </trkpt>
      <trkpt lat="43.22415408678353" lon="-6.828941619023681">
        <ele>852.2</ele>
        <time>2017-08-07T06:31:40.000Z</time>
      </trkpt>
      <trkpt lat="43.224159786477685" lon="-6.8289687763899565">
        <ele>851.8</ele>
        <time>2017-08-07T06:31:42.000Z</time>
      </trkpt>
      <trkpt lat="43.224161211401224" lon="-6.829022504389286">
        <ele>850.2</ele>
        <time>2017-08-07T06:31:46.000Z</time>
      </trkpt>
      <trkpt lat="43.224159786477685" lon="-6.82903834618628">
        <ele>849.8</ele>
        <time>2017-08-07T06:31:47.000Z</time>
      </trkpt>
      <trkpt lat="43.224163223057985" lon="-6.829094924032688">
        <ele>848.2</ele>
        <time>2017-08-07T06:31:52.000Z</time>
      </trkpt>
      <trkpt lat="43.22416892275214" lon="-6.829118896275759">
        <ele>847.6</ele>
        <time>2017-08-07T06:31:54.000Z</time>
      </trkpt>
      <trkpt lat="43.224177388474345" lon="-6.82912920601666">
        <ele>847.4</ele>
        <time>2017-08-07T06:31:55.000Z</time>
      </trkpt>
      <trkpt lat="43.22419096715748" lon="-6.829171869903803">
        <ele>846.4</ele>
        <time>2017-08-07T06:31:59.000Z</time>
      </trkpt>
      <trkpt lat="43.224187111482024" lon="-6.829189555719495">
        <ele>845.8</ele>
        <time>2017-08-07T06:32:01.000Z</time>
      </trkpt>
      <trkpt lat="43.224187111482024" lon="-6.829187041148543">
        <ele>846</ele>
        <time>2017-08-07T06:32:03.000Z</time>
      </trkpt>
      <trkpt lat="43.2241452857852" lon="-6.82920690625906">
        <ele>845</ele>
        <time>2017-08-07T06:32:11.000Z</time>
      </trkpt>
      <trkpt lat="43.224064065143466" lon="-6.829254683107138">
        <ele>843</ele>
        <time>2017-08-07T06:32:18.000Z</time>
      </trkpt>
      <trkpt lat="43.22405258193612" lon="-6.829265579581261">
        <ele>842.6</ele>
        <time>2017-08-07T06:32:19.000Z</time>
      </trkpt>
      <trkpt lat="43.223981419578195" lon="-6.8293145298957825">
        <ele>841.2</ele>
        <time>2017-08-07T06:32:25.000Z</time>
      </trkpt>
      <trkpt lat="43.22393640875816" lon="-6.829347722232342">
        <ele>840.2</ele>
        <time>2017-08-07T06:32:29.000Z</time>
      </trkpt>
      <trkpt lat="43.22390162386" lon="-6.829374963417649">
        <ele>839.4</ele>
        <time>2017-08-07T06:32:32.000Z</time>
      </trkpt>
      <trkpt lat="43.223815374076366" lon="-6.82943313382566">
        <ele>837.6</ele>
        <time>2017-08-07T06:32:39.000Z</time>
      </trkpt>
      <trkpt lat="43.223696099594235" lon="-6.829531453549862">
        <ele>835.2</ele>
        <time>2017-08-07T06:32:49.000Z</time>
      </trkpt>
      <trkpt lat="43.22362535633147" lon="-6.829586606472731">
        <ele>834</ele>
        <time>2017-08-07T06:32:55.000Z</time>
      </trkpt>
      <trkpt lat="43.22356182150543" lon="-6.829637652263045">
        <ele>832.8</ele>
        <time>2017-08-07T06:33:00.000Z</time>
      </trkpt>
      <trkpt lat="43.2234853785485" lon="-6.8296969961375">
        <ele>831.6</ele>
        <time>2017-08-07T06:33:06.000Z</time>
      </trkpt>
      <trkpt lat="43.22340709157288" lon="-6.8297583516687155">
        <ele>830.6</ele>
        <time>2017-08-07T06:33:12.000Z</time>
      </trkpt>
      <trkpt lat="43.2233558781445" lon="-6.829794058576226">
        <ele>830</ele>
        <time>2017-08-07T06:33:16.000Z</time>
      </trkpt>
      <trkpt lat="43.22329510934651" lon="-6.829839823767543">
        <ele>829.2</ele>
        <time>2017-08-07T06:33:21.000Z</time>
      </trkpt>
      <trkpt lat="43.22322193533182" lon="-6.829907465726137">
        <ele>827.8</ele>
        <time>2017-08-07T06:33:27.000Z</time>
      </trkpt>
      <trkpt lat="43.2231402117759" lon="-6.829985836520791">
        <ele>825.8</ele>
        <time>2017-08-07T06:33:34.000Z</time>
      </trkpt>
      <trkpt lat="43.22304541245103" lon="-6.8300766963511705">
        <ele>823.6</ele>
        <time>2017-08-07T06:33:42.000Z</time>
      </trkpt>
      <trkpt lat="43.22296771220863" lon="-6.830153055489063">
        <ele>821.8</ele>
        <time>2017-08-07T06:33:49.000Z</time>
      </trkpt>
      <trkpt lat="43.222897639498115" lon="-6.8302286602556705">
        <ele>820.4</ele>
        <time>2017-08-07T06:33:56.000Z</time>
      </trkpt>
      <trkpt lat="43.22279714047909" lon="-6.830329159274697">
        <ele>818.6</ele>
        <time>2017-08-07T06:34:05.000Z</time>
      </trkpt>
      <trkpt lat="43.22271030396223" lon="-6.83041381649673">
        <ele>817</ele>
        <time>2017-08-07T06:34:13.000Z</time>
      </trkpt>
      <trkpt lat="43.222650457173586" lon="-6.8304698914289474">
        <ele>816</ele>
        <time>2017-08-07T06:34:18.000Z</time>
      </trkpt>
      <trkpt lat="43.222594214603305" lon="-6.830520769581199">
        <ele>815.2</ele>
        <time>2017-08-07T06:34:23.000Z</time>
      </trkpt>
      <trkpt lat="43.2224977388978" lon="-6.830627974122763">
        <ele>813.2</ele>
        <time>2017-08-07T06:34:32.000Z</time>
      </trkpt>
      <trkpt lat="43.222424229606986" lon="-6.830704752355814">
        <ele>812.2</ele>
        <time>2017-08-07T06:34:39.000Z</time>
      </trkpt>
      <trkpt lat="43.22236589156091" lon="-6.83076024055481">
        <ele>811</ele>
        <time>2017-08-07T06:34:44.000Z</time>
      </trkpt>
      <trkpt lat="43.22229732759297" lon="-6.830819668248296">
        <ele>809.6</ele>
        <time>2017-08-07T06:34:50.000Z</time>
      </trkpt>
      <trkpt lat="43.22222063317895" lon="-6.8308759946376085">
        <ele>808.2</ele>
        <time>2017-08-07T06:34:56.000Z</time>
      </trkpt>
      <trkpt lat="43.22213362902403" lon="-6.8309425469487906">
        <ele>806.6</ele>
        <time>2017-08-07T06:35:03.000Z</time>
      </trkpt>
      <trkpt lat="43.22202332317829" lon="-6.831034328788519">
        <ele>804.6</ele>
        <time>2017-08-07T06:35:12.000Z</time>
      </trkpt>
      <trkpt lat="43.22196054272354" lon="-6.831083865836263">
        <ele>803.2</ele>
        <time>2017-08-07T06:35:17.000Z</time>
      </trkpt>
      <trkpt lat="43.22186917997897" lon="-6.831145975738764">
        <ele>801.6</ele>
        <time>2017-08-07T06:35:24.000Z</time>
      </trkpt>
      <trkpt lat="43.22175317443907" lon="-6.831225771456957">
        <ele>800.6</ele>
        <time>2017-08-07T06:35:33.000Z</time>
      </trkpt>
      <trkpt lat="43.2216620631516" lon="-6.831277320161462">
        <ele>800</ele>
        <time>2017-08-07T06:35:40.000Z</time>
      </trkpt>
      <trkpt lat="43.22155997157097" lon="-6.831331551074982">
        <ele>798.8</ele>
        <time>2017-08-07T06:35:48.000Z</time>
      </trkpt>
      <trkpt lat="43.22146584279835" lon="-6.83136809617281">
        <ele>797.2</ele>
        <time>2017-08-07T06:35:56.000Z</time>
      </trkpt>
      <trkpt lat="43.221375569701195" lon="-6.831385279074311">
        <ele>795.8</ele>
        <time>2017-08-07T06:36:03.000Z</time>
      </trkpt>
      <trkpt lat="43.221342880278826" lon="-6.831381926313043">
        <ele>795</ele>
        <time>2017-08-07T06:36:06.000Z</time>
      </trkpt>
      <trkpt lat="43.221297869458795" lon="-6.831349655985832">
        <ele>794.2</ele>
        <time>2017-08-07T06:36:10.000Z</time>
      </trkpt>
      <trkpt lat="43.22126048617065" lon="-6.8313030526041985">
        <ele>793.4</ele>
        <time>2017-08-07T06:36:14.000Z</time>
      </trkpt>
      <trkpt lat="43.22123265825212" lon="-6.831242116168141">
        <ele>792.8</ele>
        <time>2017-08-07T06:36:18.000Z</time>
      </trkpt>
      <trkpt lat="43.221203070133924" lon="-6.831129714846611">
        <ele>792.4</ele>
        <time>2017-08-07T06:36:25.000Z</time>
      </trkpt>
      <trkpt lat="43.22117549367249" lon="-6.831022007390857">
        <ele>792.2</ele>
        <time>2017-08-07T06:36:31.000Z</time>
      </trkpt>
      <trkpt lat="43.22113735601306" lon="-6.830939278006554">
        <ele>791.4</ele>
        <time>2017-08-07T06:36:37.000Z</time>
      </trkpt>
      <trkpt lat="43.221081951633096" lon="-6.830899631604552">
        <ele>789.6</ele>
        <time>2017-08-07T06:36:42.000Z</time>
      </trkpt>
      <trkpt lat="43.22105814702809" lon="-6.830886555835605">
        <ele>789</ele>
        <time>2017-08-07T06:36:44.000Z</time>
      </trkpt>
      <trkpt lat="43.22096292860806" lon="-6.830843975767493">
        <ele>785.8</ele>
        <time>2017-08-07T06:36:52.000Z</time>
      </trkpt>
      <trkpt lat="43.22087248787284" lon="-6.83081497438252">
        <ele>782.6</ele>
        <time>2017-08-07T06:36:59.000Z</time>
      </trkpt>
      <trkpt lat="43.2207793649286" lon="-6.8307973723858595">
        <ele>779.4</ele>
        <time>2017-08-07T06:37:06.000Z</time>
      </trkpt>
      <trkpt lat="43.22069571353495" lon="-6.830779938027263">
        <ele>775.8</ele>
        <time>2017-08-07T06:37:13.000Z</time>
      </trkpt>
      <trkpt lat="43.220607452094555" lon="-6.830794187262654">
        <ele>771.6</ele>
        <time>2017-08-07T06:37:20.000Z</time>
      </trkpt>
      <trkpt lat="43.220561016350985" lon="-6.830831905826926">
        <ele>769.2</ele>
        <time>2017-08-07T06:37:24.000Z</time>
      </trkpt>
      <trkpt lat="43.22054668329656" lon="-6.8308643437922">
        <ele>768.4</ele>
        <time>2017-08-07T06:37:26.000Z</time>
      </trkpt>
      <trkpt lat="43.22054383344948" lon="-6.830908264964819">
        <ele>768.2</ele>
        <time>2017-08-07T06:37:28.000Z</time>
      </trkpt>
      <trkpt lat="43.22055288590491" lon="-6.8309645075351">
        <ele>768.6</ele>
        <time>2017-08-07T06:37:31.000Z</time>
      </trkpt>
      <trkpt lat="43.22057836689055" lon="-6.831088308244944">
        <ele>770.2</ele>
        <time>2017-08-07T06:37:39.000Z</time>
      </trkpt>
      <trkpt lat="43.22057501412928" lon="-6.831222753971815">
        <ele>770.2</ele>
        <time>2017-08-07T06:37:47.000Z</time>
      </trkpt>
      <trkpt lat="43.22057601995766" lon="-6.831296347081661">
        <ele>770.6</ele>
        <time>2017-08-07T06:37:51.000Z</time>
      </trkpt>
      <trkpt lat="43.22057358920574" lon="-6.831311266869307">
        <ele>770.6</ele>
        <time>2017-08-07T06:37:52.000Z</time>
      </trkpt>
      <trkpt lat="43.220568811520934" lon="-6.831381171941757">
        <ele>770.6</ele>
        <time>2017-08-07T06:37:58.000Z</time>
      </trkpt>
      <trkpt lat="43.22055246680975" lon="-6.831438671797514">
        <ele>769.8</ele>
        <time>2017-08-07T06:38:03.000Z</time>
      </trkpt>
      <trkpt lat="43.220523381605744" lon="-6.831541853025556">
        <ele>768.6</ele>
        <time>2017-08-07T06:38:10.000Z</time>
      </trkpt>
      <trkpt lat="43.22051483206451" lon="-6.831567836925387">
        <ele>768.4</ele>
        <time>2017-08-07T06:38:12.000Z</time>
      </trkpt>
      <trkpt lat="43.22049773298204" lon="-6.831613266840577">
        <ele>767.8</ele>
        <time>2017-08-07T06:38:16.000Z</time>
      </trkpt>
      <trkpt lat="43.220449201762676" lon="-6.831726003438234">
        <ele>765.8</ele>
        <time>2017-08-07T06:38:25.000Z</time>
      </trkpt>
      <trkpt lat="43.220428163185716" lon="-6.831846032291651">
        <ele>764.2</ele>
        <time>2017-08-07T06:38:33.000Z</time>
      </trkpt>
      <trkpt lat="43.22041751816869" lon="-6.8319768738001585">
        <ele>762.4</ele>
        <time>2017-08-07T06:38:40.000Z</time>
      </trkpt>
      <trkpt lat="43.22040695697069" lon="-6.83212791569531">
        <ele>760.4</ele>
        <time>2017-08-07T06:38:49.000Z</time>
      </trkpt>
      <trkpt lat="43.220408130437136" lon="-6.832195222377777">
        <ele>759.8</ele>
        <time>2017-08-07T06:38:53.000Z</time>
      </trkpt>
      <trkpt lat="43.220407543703914" lon="-6.832224978134036">
        <ele>759.4</ele>
        <time>2017-08-07T06:38:55.000Z</time>
      </trkpt>
      <trkpt lat="43.22040050290525" lon="-6.832264037802815">
        <ele>758.8</ele>
        <time>2017-08-07T06:38:57.000Z</time>
      </trkpt>
      <trkpt lat="43.2203979883343" lon="-6.832336373627186">
        <ele>757.8</ele>
        <time>2017-08-07T06:39:01.000Z</time>
      </trkpt>
      <trkpt lat="43.22040603496134" lon="-6.8324527982622385">
        <ele>756.6</ele>
        <time>2017-08-07T06:39:08.000Z</time>
      </trkpt>
      <trkpt lat="43.220424726605415" lon="-6.832571402192116">
        <ele>755.6</ele>
        <time>2017-08-07T06:39:15.000Z</time>
      </trkpt>
      <trkpt lat="43.220447190105915" lon="-6.832675421610475">
        <ele>755</ele>
        <time>2017-08-07T06:39:22.000Z</time>
      </trkpt>
      <trkpt lat="43.2204529736191" lon="-6.832707691937685">
        <ele>754.6</ele>
        <time>2017-08-07T06:39:24.000Z</time>
      </trkpt>
      <trkpt lat="43.2204461004585" lon="-6.832754043862224">
        <ele>753.8</ele>
        <time>2017-08-07T06:39:27.000Z</time>
      </trkpt>
      <trkpt lat="43.220449201762676" lon="-6.832763599231839">
        <ele>753.8</ele>
        <time>2017-08-07T06:39:31.000Z</time>
      </trkpt>
      <trkpt lat="43.220472168177366" lon="-6.832835683599114">
        <ele>753.4</ele>
        <time>2017-08-07T06:39:36.000Z</time>
      </trkpt>
      <trkpt lat="43.22050703689456" lon="-6.832966022193432">
        <ele>752.2</ele>
        <time>2017-08-07T06:39:44.000Z</time>
      </trkpt>
      <trkpt lat="43.220520447939634" lon="-6.832997789606452">
        <ele>752</ele>
        <time>2017-08-07T06:39:46.000Z</time>
      </trkpt>
      <trkpt lat="43.22053587064147" lon="-6.833041459321976">
        <ele>751.8</ele>
        <time>2017-08-07T06:39:49.000Z</time>
      </trkpt>
      <trkpt lat="43.2205721642822" lon="-6.83313500136137">
        <ele>751.6</ele>
        <time>2017-08-07T06:39:56.000Z</time>
      </trkpt>
      <trkpt lat="43.220596723258495" lon="-6.8331993743777275">
        <ele>751.4</ele>
        <time>2017-08-07T06:40:02.000Z</time>
      </trkpt>
      <trkpt lat="43.22061407379806" lon="-6.833263412117958">
        <ele>750.8</ele>
        <time>2017-08-07T06:40:07.000Z</time>
      </trkpt>
      <trkpt lat="43.22062136605382" lon="-6.833288641646504">
        <ele>750.6</ele>
        <time>2017-08-07T06:40:09.000Z</time>
      </trkpt>
      <trkpt lat="43.22064223699272" lon="-6.8333536852151155">
        <ele>749.8</ele>
        <time>2017-08-07T06:40:13.000Z</time>
      </trkpt>
      <trkpt lat="43.220648439601064" lon="-6.833368856459856">
        <ele>749.8</ele>
        <time>2017-08-07T06:40:14.000Z</time>
      </trkpt>
      <trkpt lat="43.22067551314831" lon="-6.833486370742321">
        <ele>747.6</ele>
        <time>2017-08-07T06:40:21.000Z</time>
      </trkpt>
      <trkpt lat="43.22069747373462" lon="-6.833584187552333">
        <ele>745.6</ele>
        <time>2017-08-07T06:40:27.000Z</time>
      </trkpt>
      <trkpt lat="43.22071465663612" lon="-6.833646297454834">
        <ele>744.4</ele>
        <time>2017-08-07T06:40:31.000Z</time>
      </trkpt>
      <trkpt lat="43.22072102688253" lon="-6.833659959957004">
        <ele>744.2</ele>
        <time>2017-08-07T06:40:32.000Z</time>
      </trkpt>
      <trkpt lat="43.22075245901942" lon="-6.833753418177366">
        <ele>742.2</ele>
        <time>2017-08-07T06:40:38.000Z</time>
      </trkpt>
      <trkpt lat="43.22075958363712" lon="-6.833768337965012">
        <ele>741.8</ele>
        <time>2017-08-07T06:40:39.000Z</time>
      </trkpt>
      <trkpt lat="43.22079428471625" lon="-6.8338655680418015">
        <ele>738.4</ele>
        <time>2017-08-07T06:40:46.000Z</time>
      </trkpt>
      <trkpt lat="43.22084021754563" lon="-6.833969755098224">
        <ele>734.8</ele>
        <time>2017-08-07T06:40:53.000Z</time>
      </trkpt>
      <trkpt lat="43.220883971080184" lon="-6.83403848670423">
        <ele>732.4</ele>
        <time>2017-08-07T06:40:58.000Z</time>
      </trkpt>
      <trkpt lat="43.22090710513294" lon="-6.8340628780424595">
        <ele>731.6</ele>
        <time>2017-08-07T06:41:00.000Z</time>
      </trkpt>
      <trkpt lat="43.220969047397375" lon="-6.83414644561708">
        <ele>729.6</ele>
        <time>2017-08-07T06:41:07.000Z</time>
      </trkpt>
      <trkpt lat="43.22099192999303" lon="-6.8341786321252584">
        <ele>728.8</ele>
        <time>2017-08-07T06:41:10.000Z</time>
      </trkpt>
      <trkpt lat="43.22100701741874" lon="-6.834197239950299">
        <ele>728.6</ele>
        <time>2017-08-07T06:41:12.000Z</time>
      </trkpt>
      <trkpt lat="43.22102193720639" lon="-6.834217440336943">
        <ele>728</ele>
        <time>2017-08-07T06:41:14.000Z</time>
      </trkpt>
      <trkpt lat="43.22108253836632" lon="-6.834301594644785">
        <ele>727</ele>
        <time>2017-08-07T06:41:21.000Z</time>
      </trkpt>
      <trkpt lat="43.22108899243176" lon="-6.834318190813065">
        <ele>726.8</ele>
        <time>2017-08-07T06:41:22.000Z</time>
      </trkpt>
      <trkpt lat="43.22113785892725" lon="-6.834384994581342">
        <ele>726.2</ele>
        <time>2017-08-07T06:41:27.000Z</time>
      </trkpt>
      <trkpt lat="43.22118722833693" lon="-6.834452468901873">
        <ele>725.4</ele>
        <time>2017-08-07T06:41:33.000Z</time>
      </trkpt>
      <trkpt lat="43.22126476094127" lon="-6.834537964314222">
        <ele>724.4</ele>
        <time>2017-08-07T06:41:40.000Z</time>
      </trkpt>
      <trkpt lat="43.2213235180825" lon="-6.83461113832891">
        <ele>723</ele>
        <time>2017-08-07T06:41:48.000Z</time>
      </trkpt>
      <trkpt lat="43.22138202376664" lon="-6.834669141098857">
        <ele>721.8</ele>
        <time>2017-08-07T06:41:53.000Z</time>
      </trkpt>
      <trkpt lat="43.22145603597164" lon="-6.8347302451729774">
        <ele>720.4</ele>
        <time>2017-08-07T06:41:59.000Z</time>
      </trkpt>
      <trkpt lat="43.22147648781538" lon="-6.834750948473811">
        <ele>720</ele>
        <time>2017-08-07T06:42:01.000Z</time>
      </trkpt>
      <trkpt lat="43.221501633524895" lon="-6.834792522713542">
        <ele>719</ele>
        <time>2017-08-07T06:42:04.000Z</time>
      </trkpt>
      <trkpt lat="43.22156139649451" lon="-6.834842562675476">
        <ele>718</ele>
        <time>2017-08-07T06:42:09.000Z</time>
      </trkpt>
      <trkpt lat="43.221581261605024" lon="-6.834862595424056">
        <ele>717.4</ele>
        <time>2017-08-07T06:42:11.000Z</time>
      </trkpt>
      <trkpt lat="43.221644293516874" lon="-6.834925878793001">
        <ele>715.6</ele>
        <time>2017-08-07T06:42:17.000Z</time>
      </trkpt>
      <trkpt lat="43.22174336761236" lon="-6.835003159940243">
        <ele>713.6</ele>
        <time>2017-08-07T06:42:25.000Z</time>
      </trkpt>
      <trkpt lat="43.221817295998335" lon="-6.835079435259104">
        <ele>712</ele>
        <time>2017-08-07T06:42:32.000Z</time>
      </trkpt>
      <trkpt lat="43.221904719248414" lon="-6.835154956206679">
        <ele>710</ele>
        <time>2017-08-07T06:42:39.000Z</time>
      </trkpt>
      <trkpt lat="43.222007397562265" lon="-6.835248917341232">
        <ele>707</ele>
        <time>2017-08-07T06:42:48.000Z</time>
      </trkpt>
      <trkpt lat="43.22211904451251" lon="-6.835319995880127">
        <ele>705.2</ele>
        <time>2017-08-07T06:42:57.000Z</time>
      </trkpt>
      <trkpt lat="43.222181322053075" lon="-6.835368946194649">
        <ele>703.6</ele>
        <time>2017-08-07T06:43:03.000Z</time>
      </trkpt>
      <trkpt lat="43.2222249917686" lon="-6.8354196567088366">
        <ele>701.8</ele>
        <time>2017-08-07T06:43:08.000Z</time>
      </trkpt>
      <trkpt lat="43.22224351577461" lon="-6.835463745519519">
        <ele>700.6</ele>
        <time>2017-08-07T06:43:11.000Z</time>
      </trkpt>
      <trkpt lat="43.22224770672619" lon="-6.835479503497481">
        <ele>700.2</ele>
        <time>2017-08-07T06:43:12.000Z</time>
      </trkpt>
      <trkpt lat="43.22224619798362" lon="-6.83549651876092">
        <ele>699.8</ele>
        <time>2017-08-07T06:43:13.000Z</time>
      </trkpt>
      <trkpt lat="43.22221225127578" lon="-6.835541110485792">
        <ele>699.4</ele>
        <time>2017-08-07T06:43:17.000Z</time>
      </trkpt>
      <trkpt lat="43.222157349810004" lon="-6.835602298378944">
        <ele>698.8</ele>
        <time>2017-08-07T06:43:23.000Z</time>
      </trkpt>
      <trkpt lat="43.22207076475024" lon="-6.835696259513497">
        <ele>697</ele>
        <time>2017-08-07T06:43:32.000Z</time>
      </trkpt>
      <trkpt lat="43.22199155576527" lon="-6.835778150707483">
        <ele>695.2</ele>
        <time>2017-08-07T06:43:40.000Z</time>
      </trkpt>
      <trkpt lat="43.22191368788481" lon="-6.835854258388281">
        <ele>693.6</ele>
        <time>2017-08-07T06:43:47.000Z</time>
      </trkpt>
      <trkpt lat="43.22182198986411" lon="-6.835953751578927">
        <ele>691</ele>
        <time>2017-08-07T06:43:56.000Z</time>
      </trkpt>
      <trkpt lat="43.221741523593664" lon="-6.836017034947872">
        <ele>689.2</ele>
        <time>2017-08-07T06:44:03.000Z</time>
      </trkpt>
      <trkpt lat="43.221638929098845" lon="-6.836098926141858">
        <ele>686.6</ele>
        <time>2017-08-07T06:44:12.000Z</time>
      </trkpt>
      <trkpt lat="43.221555948257446" lon="-6.836147289723158">
        <ele>684.8</ele>
        <time>2017-08-07T06:44:19.000Z</time>
      </trkpt>
      <trkpt lat="43.22147841565311" lon="-6.836199760437012">
        <ele>683</ele>
        <time>2017-08-07T06:44:26.000Z</time>
      </trkpt>
      <trkpt lat="43.22141504846513" lon="-6.836234796792269">
        <ele>681.4</ele>
        <time>2017-08-07T06:44:31.000Z</time>
      </trkpt>
      <trkpt lat="43.221313040703535" lon="-6.836306294426322">
        <ele>678.4</ele>
        <time>2017-08-07T06:44:40.000Z</time>
      </trkpt>
      <trkpt lat="43.22123793885112" lon="-6.836377624422312">
        <ele>677.2</ele>
        <time>2017-08-07T06:44:47.000Z</time>
      </trkpt>
      <trkpt lat="43.221144899725914" lon="-6.836380222812295">
        <ele>677.8</ele>
        <time>2017-08-07T06:44:55.000Z</time>
      </trkpt>
      <trkpt lat="43.22104305960238" lon="-6.836349293589592">
        <ele>678.8</ele>
        <time>2017-08-07T06:45:03.000Z</time>
      </trkpt>
      <trkpt lat="43.22094591334462" lon="-6.836308054625988">
        <ele>679.2</ele>
        <time>2017-08-07T06:45:11.000Z</time>
      </trkpt>
      <trkpt lat="43.220852203667164" lon="-6.836284250020981">
        <ele>679</ele>
        <time>2017-08-07T06:45:18.000Z</time>
      </trkpt>
      <trkpt lat="43.22079470381141" lon="-6.8363316077739">
        <ele>677.6</ele>
        <time>2017-08-07T06:45:24.000Z</time>
      </trkpt>
      <trkpt lat="43.22079621255398" lon="-6.836342504248023">
        <ele>677.4</ele>
        <time>2017-08-07T06:45:25.000Z</time>
      </trkpt>
      <trkpt lat="43.22083929553628" lon="-6.836424395442009">
        <ele>675.8</ele>
        <time>2017-08-07T06:45:32.000Z</time>
      </trkpt>
      <trkpt lat="43.22085790336132" lon="-6.836447361856699">
        <ele>675.4</ele>
        <time>2017-08-07T06:45:34.000Z</time>
      </trkpt>
      <trkpt lat="43.220903081819415" lon="-6.83649723418057">
        <ele>674.6</ele>
        <time>2017-08-07T06:45:38.000Z</time>
      </trkpt>
      <trkpt lat="43.220943566411734" lon="-6.8365697376430035">
        <ele>672.6</ele>
        <time>2017-08-07T06:45:43.000Z</time>
      </trkpt>
      <trkpt lat="43.22096695192158" lon="-6.836595805361867">
        <ele>671.8</ele>
        <time>2017-08-07T06:45:45.000Z</time>
      </trkpt>
      <trkpt lat="43.2210351806134" lon="-6.836688257753849">
        <ele>669.4</ele>
        <time>2017-08-07T06:45:52.000Z</time>
      </trkpt>
      <trkpt lat="43.22110106237233" lon="-6.836770148947835">
        <ele>666.6</ele>
        <time>2017-08-07T06:45:58.000Z</time>
      </trkpt>
      <trkpt lat="43.22119007818401" lon="-6.836880454793572">
        <ele>662.6</ele>
        <time>2017-08-07T06:46:06.000Z</time>
      </trkpt>
      <trkpt lat="43.22125805541873" lon="-6.836988748982549">
        <ele>659.4</ele>
        <time>2017-08-07T06:46:13.000Z</time>
      </trkpt>
      <trkpt lat="43.22133273817599" lon="-6.837063264101744">
        <ele>657.4</ele>
        <time>2017-08-07T06:46:20.000Z</time>
      </trkpt>
      <trkpt lat="43.22142745368183" lon="-6.837131911888719">
        <ele>656.2</ele>
        <time>2017-08-07T06:46:28.000Z</time>
      </trkpt>
      <trkpt lat="43.221538346260786" lon="-6.8372114561498165">
        <ele>655</ele>
        <time>2017-08-07T06:46:37.000Z</time>
      </trkpt>
      <trkpt lat="43.22163197211921" lon="-6.837261915206909">
        <ele>654.6</ele>
        <time>2017-08-07T06:46:45.000Z</time>
      </trkpt>
      <trkpt lat="43.221738170832396" lon="-6.837322851642966">
        <ele>653.4</ele>
        <time>2017-08-07T06:46:54.000Z</time>
      </trkpt>
      <trkpt lat="43.22182232514024" lon="-6.837370628491044">
        <ele>652.4</ele>
        <time>2017-08-07T06:47:01.000Z</time>
      </trkpt>
      <trkpt lat="43.221885273233056" lon="-6.837413711473346">
        <ele>650.8</ele>
        <time>2017-08-07T06:47:07.000Z</time>
      </trkpt>
      <trkpt lat="43.22190991602838" lon="-6.8374229315668344">
        <ele>650.6</ele>
        <time>2017-08-07T06:47:09.000Z</time>
      </trkpt>
      <trkpt lat="43.22194377891719" lon="-6.837445143610239">
        <ele>649.8</ele>
        <time>2017-08-07T06:47:12.000Z</time>
      </trkpt>
      <trkpt lat="43.22206179611385" lon="-6.83750088326633">
        <ele>648</ele>
        <time>2017-08-07T06:47:21.000Z</time>
      </trkpt>
      <trkpt lat="43.222175957635045" lon="-6.837514294311404">
        <ele>646.6</ele>
        <time>2017-08-07T06:47:29.000Z</time>
      </trkpt>
      <trkpt lat="43.22227913886309" lon="-6.837519239634275">
        <ele>643.6</ele>
        <time>2017-08-07T06:47:37.000Z</time>
      </trkpt>
      <trkpt lat="43.2223698310554" lon="-6.837535919621587">
        <ele>640.4</ele>
        <time>2017-08-07T06:47:44.000Z</time>
      </trkpt>
      <trkpt lat="43.22248935699463" lon="-6.837539775297046">
        <ele>636</ele>
        <time>2017-08-07T06:47:53.000Z</time>
      </trkpt>
      <trkpt lat="43.22256110608578" lon="-6.837516389787197">
        <ele>633.6</ele>
        <time>2017-08-07T06:47:59.000Z</time>
      </trkpt>
      <trkpt lat="43.22267652489245" lon="-6.837464170530438">
        <ele>630.2</ele>
        <time>2017-08-07T06:48:08.000Z</time>
      </trkpt>
      <trkpt lat="43.22275556623936" lon="-6.837414214387536">
        <ele>629.2</ele>
        <time>2017-08-07T06:48:15.000Z</time>
      </trkpt>
      <trkpt lat="43.222844917327166" lon="-6.837366269901395">
        <ele>627.8</ele>
        <time>2017-08-07T06:48:22.000Z</time>
      </trkpt>
      <trkpt lat="43.222904931753874" lon="-6.837316649034619">
        <ele>627.6</ele>
        <time>2017-08-07T06:48:28.000Z</time>
      </trkpt>
      <trkpt lat="43.22299621067941" lon="-6.837251354008913">
        <ele>625.6</ele>
        <time>2017-08-07T06:48:36.000Z</time>
      </trkpt>
      <trkpt lat="43.22308589704335" lon="-6.837166026234627">
        <ele>624</ele>
        <time>2017-08-07T06:48:44.000Z</time>
      </trkpt>
      <trkpt lat="43.2231454923749" lon="-6.837093103677034">
        <ele>623.2</ele>
        <time>2017-08-07T06:48:50.000Z</time>
      </trkpt>
      <trkpt lat="43.22316477075219" lon="-6.837072065100074">
        <ele>622.8</ele>
        <time>2017-08-07T06:48:52.000Z</time>
      </trkpt>
      <trkpt lat="43.22322277352214" lon="-6.8370153196156025">
        <ele>622</ele>
        <time>2017-08-07T06:48:57.000Z</time>
      </trkpt>
      <trkpt lat="43.22323543019593" lon="-6.837002579122782">
        <ele>621.8</ele>
        <time>2017-08-07T06:48:58.000Z</time>
      </trkpt>
      <trkpt lat="43.22331681847572" lon="-6.8369528744369745">
        <ele>621</ele>
        <time>2017-08-07T06:49:05.000Z</time>
      </trkpt>
      <trkpt lat="43.223355459049344" lon="-6.836906103417277">
        <ele>621.4</ele>
        <time>2017-08-07T06:49:12.000Z</time>
      </trkpt>
      <trkpt lat="43.22338898666203" lon="-6.836919514462352">
        <ele>620</ele>
        <time>2017-08-07T06:49:44.000Z</time>
      </trkpt>
      <trkpt lat="43.223395524546504" lon="-6.836912725120783">
        <ele>620</ele>
        <time>2017-08-07T06:49:50.000Z</time>
      </trkpt>
      <trkpt lat="43.22343776933849" lon="-6.836888836696744">
        <ele>619.4</ele>
        <time>2017-08-07T06:49:59.000Z</time>
      </trkpt>
      <trkpt lat="43.2234148029238" lon="-6.836887830868363">
        <ele>620.2</ele>
        <time>2017-08-07T06:50:38.000Z</time>
      </trkpt>
      <trkpt lat="43.22339443489909" lon="-6.836896883323789">
        <ele>620.6</ele>
        <time>2017-08-07T06:50:46.000Z</time>
      </trkpt>
      <trkpt lat="43.22338798083365" lon="-6.836897553876042">
        <ele>620.8</ele>
        <time>2017-08-07T06:50:53.000Z</time>
      </trkpt>
      <trkpt lat="43.22337758727372" lon="-6.836901241913438">
        <ele>620.8</ele>
        <time>2017-08-07T06:51:05.000Z</time>
      </trkpt>
      <trkpt lat="43.22337783873081" lon="-6.836917754262686">
        <ele>620.4</ele>
        <time>2017-08-07T06:51:14.000Z</time>
      </trkpt>
      <trkpt lat="43.22333224117756" lon="-6.83702789247036">
        <ele>618</ele>
        <time>2017-08-07T06:52:35.000Z</time>
      </trkpt>
      <trkpt lat="43.22334590367973" lon="-6.836985480040312">
        <ele>619</ele>
        <time>2017-08-07T06:56:18.000Z</time>
      </trkpt>
      <trkpt lat="43.22336149401963" lon="-6.836979612708092">
        <ele>618.8</ele>
        <time>2017-08-07T06:56:49.000Z</time>
      </trkpt>
      <trkpt lat="43.22336685843766" lon="-6.836949186399579">
        <ele>619.6</ele>
        <time>2017-08-07T06:57:30.000Z</time>
      </trkpt>
      <trkpt lat="43.22334263473749" lon="-6.836936781182885">
        <ele>620.8</ele>
        <time>2017-08-07T06:58:22.000Z</time>
      </trkpt>
      <trkpt lat="43.22332394309342" lon="-6.836898140609264">
        <ele>622.4</ele>
        <time>2017-08-07T06:59:31.000Z</time>
      </trkpt>
      <trkpt lat="43.22332779876888" lon="-6.836905516684055">
        <ele>622</ele>
        <time>2017-08-07T06:59:36.000Z</time>
      </trkpt>
      <trkpt lat="43.22332285344601" lon="-6.836897386237979">
        <ele>622.4</ele>
        <time>2017-08-07T06:59:41.000Z</time>
      </trkpt>
      <trkpt lat="43.22332687675953" lon="-6.836908282712102">
        <ele>622</ele>
        <time>2017-08-07T06:59:57.000Z</time>
      </trkpt>
      <trkpt lat="43.223326709121466" lon="-6.836909120902419">
        <ele>622</ele>
        <time>2017-08-07T07:00:09.000Z</time>
      </trkpt>
      <trkpt lat="43.2233249489218" lon="-6.836910210549831">
        <ele>622</ele>
        <time>2017-08-07T07:00:26.000Z</time>
      </trkpt>
      <trkpt lat="43.223323188722134" lon="-6.836923202499747">
        <ele>621.6</ele>
        <time>2017-08-07T07:01:06.000Z</time>
      </trkpt>
      <trkpt lat="43.223330564796925" lon="-6.836900822818279">
        <ele>622</ele>
        <time>2017-08-07T07:05:25.000Z</time>
      </trkpt>
      <trkpt lat="43.22332344017923" lon="-6.836926806718111">
        <ele>621.6</ele>
        <time>2017-08-07T07:13:02.000Z</time>
      </trkpt>
      <trkpt lat="43.223319333046675" lon="-6.836921107023954">
        <ele>621.8</ele>
        <time>2017-08-07T07:13:20.000Z</time>
      </trkpt>
      <trkpt lat="43.22332696057856" lon="-6.83690769597888">
        <ele>622</ele>
        <time>2017-08-07T07:15:40.000Z</time>
      </trkpt>
      <trkpt lat="43.223340371623635" lon="-6.836905013769865">
        <ele>621.8</ele>
        <time>2017-08-07T07:15:43.000Z</time>
      </trkpt>
      <trkpt lat="43.22334506548941" lon="-6.836902499198914">
        <ele>621.6</ele>
        <time>2017-08-07T07:15:44.000Z</time>
      </trkpt>
      <trkpt lat="43.223324697464705" lon="-6.83691943064332">
        <ele>621.6</ele>
        <time>2017-08-07T07:16:24.000Z</time>
      </trkpt>
      <trkpt lat="43.22331422008574" lon="-6.8369832169264555">
        <ele>620.2</ele>
        <time>2017-08-07T07:16:46.000Z</time>
      </trkpt>
      <trkpt lat="43.223313968628645" lon="-6.8369705602526665">
        <ele>620.4</ele>
        <time>2017-08-07T07:16:53.000Z</time>
      </trkpt>
      <trkpt lat="43.22330458089709" lon="-6.837002914398909">
        <ele>619.8</ele>
        <time>2017-08-07T07:16:58.000Z</time>
      </trkpt>
      <trkpt lat="43.22328521870077" lon="-6.837047841399908">
        <ele>618.8</ele>
        <time>2017-08-07T07:17:14.000Z</time>
      </trkpt>
      <trkpt lat="43.22322344407439" lon="-6.837168373167515">
        <ele>617.8</ele>
        <time>2017-08-07T07:17:22.000Z</time>
      </trkpt>
      <trkpt lat="43.22321455925703" lon="-6.837199637666345">
        <ele>617.4</ele>
        <time>2017-08-07T07:17:23.000Z</time>
      </trkpt>
      <trkpt lat="43.22321095503867" lon="-6.837291838601232">
        <ele>614.8</ele>
        <time>2017-08-07T07:17:26.000Z</time>
      </trkpt>
      <trkpt lat="43.223195783793926" lon="-6.837369119748473">
        <ele>613.2</ele>
        <time>2017-08-07T07:17:29.000Z</time>
      </trkpt>
      <trkpt lat="43.2231920119375" lon="-6.837394768372178">
        <ele>612.6</ele>
        <time>2017-08-07T07:17:31.000Z</time>
      </trkpt>
      <trkpt lat="43.22318773716688" lon="-6.837397534400225">
        <ele>612.6</ele>
        <time>2017-08-07T07:17:39.000Z</time>
      </trkpt>
      <trkpt lat="43.22316661477089" lon="-6.837487388402224">
        <ele>611</ele>
        <time>2017-08-07T07:17:45.000Z</time>
      </trkpt>
      <trkpt lat="43.223123447969556" lon="-6.837581852450967">
        <ele>610</ele>
        <time>2017-08-07T07:17:53.000Z</time>
      </trkpt>
      <trkpt lat="43.22311447933316" lon="-6.837586211040616">
        <ele>610.4</ele>
        <time>2017-08-07T07:17:54.000Z</time>
      </trkpt>
      <trkpt lat="43.223083298653364" lon="-6.837625689804554">
        <ele>609.8</ele>
        <time>2017-08-07T07:17:58.000Z</time>
      </trkpt>
      <trkpt lat="43.22307424619794" lon="-6.837654188275337">
        <ele>608.8</ele>
        <time>2017-08-07T07:18:00.000Z</time>
      </trkpt>
      <trkpt lat="43.22305706329644" lon="-6.8377315532416105">
        <ele>605.6</ele>
        <time>2017-08-07T07:18:06.000Z</time>
      </trkpt>
      <trkpt lat="43.22304742410779" lon="-6.837753094732761">
        <ele>605</ele>
        <time>2017-08-07T07:18:12.000Z</time>
      </trkpt>
      <trkpt lat="43.223005598410964" lon="-6.837831465527415">
        <ele>602.8</ele>
        <time>2017-08-07T07:18:19.000Z</time>
      </trkpt>
      <trkpt lat="43.22299520485103" lon="-6.837861221283674">
        <ele>601.8</ele>
        <time>2017-08-07T07:18:21.000Z</time>
      </trkpt>
      <trkpt lat="43.222956312820315" lon="-6.8379453755915165">
        <ele>599.8</ele>
        <time>2017-08-07T07:18:27.000Z</time>
      </trkpt>
      <trkpt lat="43.22291465476155" lon="-6.838062973693013">
        <ele>596.8</ele>
        <time>2017-08-07T07:18:34.000Z</time>
      </trkpt>
      <trkpt lat="43.2228481862694" lon="-6.838205885142088">
        <ele>593.6</ele>
        <time>2017-08-07T07:18:44.000Z</time>
      </trkpt>
      <trkpt lat="43.22279219515622" lon="-6.8383008521050215">
        <ele>592.2</ele>
        <time>2017-08-07T07:18:51.000Z</time>
      </trkpt>
      <trkpt lat="43.22271566838026" lon="-6.838402189314365">
        <ele>591.4</ele>
        <time>2017-08-07T07:18:59.000Z</time>
      </trkpt>
      <trkpt lat="43.2226671371609" lon="-6.838460862636566">
        <ele>591.2</ele>
        <time>2017-08-07T07:19:04.000Z</time>
      </trkpt>
      <trkpt lat="43.22262665256858" lon="-6.838531354442239">
        <ele>590.4</ele>
        <time>2017-08-07T07:19:09.000Z</time>
      </trkpt>
      <trkpt lat="43.2225894369185" lon="-6.838648868724704">
        <ele>588.2</ele>
        <time>2017-08-07T07:19:16.000Z</time>
      </trkpt>
      <trkpt lat="43.22254509665072" lon="-6.8388088792562485">
        <ele>585.8</ele>
        <time>2017-08-07T07:19:25.000Z</time>
      </trkpt>
      <trkpt lat="43.22251098230481" lon="-6.838920526206493">
        <ele>584.4</ele>
        <time>2017-08-07T07:19:31.000Z</time>
      </trkpt>
      <trkpt lat="43.22247862815857" lon="-6.8390371184796095">
        <ele>582.6</ele>
        <time>2017-08-07T07:19:38.000Z</time>
      </trkpt>
      <trkpt lat="43.22245507501066" lon="-6.839153710752726">
        <ele>580.6</ele>
        <time>2017-08-07T07:19:44.000Z</time>
      </trkpt>
      <trkpt lat="43.22241651825607" lon="-6.839246582239866">
        <ele>579.4</ele>
        <time>2017-08-07T07:19:50.000Z</time>
      </trkpt>
      <trkpt lat="43.2224181946367" lon="-6.839263429865241">
        <ele>579</ele>
        <time>2017-08-07T07:19:51.000Z</time>
      </trkpt>
      <trkpt lat="43.222410483285785" lon="-6.8392966222018">
        <ele>578.4</ele>
        <time>2017-08-07T07:19:55.000Z</time>
      </trkpt>
      <trkpt lat="43.22236714884639" lon="-6.839421093463898">
        <ele>576</ele>
        <time>2017-08-07T07:20:05.000Z</time>
      </trkpt>
      <trkpt lat="43.22231166064739" lon="-6.839550007134676">
        <ele>573.6</ele>
        <time>2017-08-07T07:20:15.000Z</time>
      </trkpt>
      <trkpt lat="43.22229011915624" lon="-6.839569453150034">
        <ele>573.2</ele>
        <time>2017-08-07T07:20:19.000Z</time>
      </trkpt>
      <trkpt lat="43.22220730595291" lon="-6.839637598022819">
        <ele>572.4</ele>
        <time>2017-08-07T07:20:27.000Z</time>
      </trkpt>
      <trkpt lat="43.22213128209114" lon="-6.839720495045185">
        <ele>570.4</ele>
        <time>2017-08-07T07:20:34.000Z</time>
      </trkpt>
      <trkpt lat="43.222048887982965" lon="-6.839767349883914">
        <ele>568.8</ele>
        <time>2017-08-07T07:20:41.000Z</time>
      </trkpt>
      <trkpt lat="43.22198024019599" lon="-6.83978863991797">
        <ele>568</ele>
        <time>2017-08-07T07:20:47.000Z</time>
      </trkpt>
      <trkpt lat="43.221905725076795" lon="-6.8398128636181355">
        <ele>567.2</ele>
        <time>2017-08-07T07:20:53.000Z</time>
      </trkpt>
      <trkpt lat="43.221799777820706" lon="-6.839831136167049">
        <ele>565</ele>
        <time>2017-08-07T07:21:01.000Z</time>
      </trkpt>
      <trkpt lat="43.221710259094834" lon="-6.839830381795764">
        <ele>563</ele>
        <time>2017-08-07T07:21:08.000Z</time>
      </trkpt>
      <trkpt lat="43.22163046337664" lon="-6.839823927730322">
        <ele>561.6</ele>
        <time>2017-08-07T07:21:14.000Z</time>
      </trkpt>
      <trkpt lat="43.22153951972723" lon="-6.8398199044167995">
        <ele>559.8</ele>
        <time>2017-08-07T07:21:21.000Z</time>
      </trkpt>
      <trkpt lat="43.22144438512623" lon="-6.83981847949326">
        <ele>557.8</ele>
        <time>2017-08-07T07:21:29.000Z</time>
      </trkpt>
      <trkpt lat="43.22134120389819" lon="-6.839804146438837">
        <ele>556</ele>
        <time>2017-08-07T07:21:37.000Z</time>
      </trkpt>
      <trkpt lat="43.22125319391489" lon="-6.839805319905281">
        <ele>554.4</ele>
        <time>2017-08-07T07:21:44.000Z</time>
      </trkpt>
      <trkpt lat="43.22116761468351" lon="-6.839826190844178">
        <ele>552</ele>
        <time>2017-08-07T07:21:50.000Z</time>
      </trkpt>
      <trkpt lat="43.22115537710488" lon="-6.839844882488251">
        <ele>551</ele>
        <time>2017-08-07T07:21:51.000Z</time>
      </trkpt>
      <trkpt lat="43.22116820141673" lon="-6.839928030967712">
        <ele>548</ele>
        <time>2017-08-07T07:21:55.000Z</time>
      </trkpt>
      <trkpt lat="43.221190329641104" lon="-6.839956361800432">
        <ele>547.4</ele>
        <time>2017-08-07T07:21:57.000Z</time>
      </trkpt>
      <trkpt lat="43.22123886086047" lon="-6.84002417139709">
        <ele>546</ele>
        <time>2017-08-07T07:22:02.000Z</time>
      </trkpt>
      <trkpt lat="43.221311029046774" lon="-6.840149648487568">
        <ele>543.4</ele>
        <time>2017-08-07T07:22:10.000Z</time>
      </trkpt>
      <trkpt lat="43.22136785835028" lon="-6.840276382863522">
        <ele>540.8</ele>
        <time>2017-08-07T07:22:17.000Z</time>
      </trkpt>
      <trkpt lat="43.221438182517886" lon="-6.840376295149326">
        <ele>538.2</ele>
        <time>2017-08-07T07:22:24.000Z</time>
      </trkpt>
      <trkpt lat="43.22150926105678" lon="-6.840452989563346">
        <ele>537.4</ele>
        <time>2017-08-07T07:22:30.000Z</time>
      </trkpt>
      <trkpt lat="43.22157899849117" lon="-6.840534210205078">
        <ele>536.4</ele>
        <time>2017-08-07T07:22:37.000Z</time>
      </trkpt>
      <trkpt lat="43.22165376506746" lon="-6.840622471645474">
        <ele>534.6</ele>
        <time>2017-08-07T07:22:44.000Z</time>
      </trkpt>
      <trkpt lat="43.22175258770585" lon="-6.840693298727274">
        <ele>532.2</ele>
        <time>2017-08-07T07:22:52.000Z</time>
      </trkpt>
      <trkpt lat="43.2218552660197" lon="-6.840751301497221">
        <ele>530.2</ele>
        <time>2017-08-07T07:23:00.000Z</time>
      </trkpt>
      <trkpt lat="43.22186985053122" lon="-6.840780470520258">
        <ele>529.2</ele>
        <time>2017-08-07T07:23:03.000Z</time>
      </trkpt>
      <trkpt lat="43.221850572153926" lon="-6.84079522266984">
        <ele>528.8</ele>
        <time>2017-08-07T07:23:06.000Z</time>
      </trkpt>
      <trkpt lat="43.22181276977062" lon="-6.840795977041125">
        <ele>529</ele>
        <time>2017-08-07T07:23:10.000Z</time>
      </trkpt>
      <trkpt lat="43.22179022245109" lon="-6.840793211013079">
        <ele>529.2</ele>
        <time>2017-08-07T07:23:12.000Z</time>
      </trkpt>
      <trkpt lat="43.22170070372522" lon="-6.840801760554314">
        <ele>529.2</ele>
        <time>2017-08-07T07:23:20.000Z</time>
      </trkpt>
      <trkpt lat="43.22161671705544" lon="-6.8408250622451305">
        <ele>528.8</ele>
        <time>2017-08-07T07:23:27.000Z</time>
      </trkpt>
      <trkpt lat="43.22153499349952" lon="-6.840834114700556">
        <ele>528.2</ele>
        <time>2017-08-07T07:23:34.000Z</time>
      </trkpt>
      <trkpt lat="43.22145595215261" lon="-6.8408524710685015">
        <ele>526.8</ele>
        <time>2017-08-07T07:23:41.000Z</time>
      </trkpt>
      <trkpt lat="43.22137481532991" lon="-6.840869318693876">
        <ele>525.4</ele>
        <time>2017-08-07T07:23:48.000Z</time>
      </trkpt>
      <trkpt lat="43.221283787861466" lon="-6.840874012559652">
        <ele>524</ele>
        <time>2017-08-07T07:23:56.000Z</time>
      </trkpt>
      <trkpt lat="43.22118571959436" lon="-6.840871917083859">
        <ele>521.8</ele>
        <time>2017-08-07T07:24:04.000Z</time>
      </trkpt>
      <trkpt lat="43.22110475040972" lon="-6.840860852971673">
        <ele>520.4</ele>
        <time>2017-08-07T07:24:10.000Z</time>
      </trkpt>
      <trkpt lat="43.221033085137606" lon="-6.8408507108688354">
        <ele>519.8</ele>
        <time>2017-08-07T07:24:15.000Z</time>
      </trkpt>
      <trkpt lat="43.22094289585948" lon="-6.840831013396382">
        <ele>513.6</ele>
        <time>2017-08-07T07:24:21.000Z</time>
      </trkpt>
      <trkpt lat="43.22090769186616" lon="-6.840832773596048">
        <ele>511</ele>
        <time>2017-08-07T07:24:23.000Z</time>
      </trkpt>
      <trkpt lat="43.220877600833774" lon="-6.840878706425428">
        <ele>507</ele>
        <time>2017-08-07T07:24:26.000Z</time>
      </trkpt>
      <trkpt lat="43.22088514454663" lon="-6.840913826599717">
        <ele>506.2</ele>
        <time>2017-08-07T07:24:28.000Z</time>
      </trkpt>
      <trkpt lat="43.22090735659003" lon="-6.840952634811401">
        <ele>506.4</ele>
        <time>2017-08-07T07:24:31.000Z</time>
      </trkpt>
      <trkpt lat="43.22097365744412" lon="-6.8410698138177395">
        <ele>506.4</ele>
        <time>2017-08-07T07:24:40.000Z</time>
      </trkpt>
      <trkpt lat="43.22104247286916" lon="-6.841219598427415">
        <ele>505.4</ele>
        <time>2017-08-07T07:24:49.000Z</time>
      </trkpt>
      <trkpt lat="43.22113048285246" lon="-6.841290174052119">
        <ele>502.8</ele>
        <time>2017-08-07T07:24:57.000Z</time>
      </trkpt>
      <trkpt lat="43.221207512542605" lon="-6.841371897608042">
        <ele>499.2</ele>
        <time>2017-08-07T07:25:04.000Z</time>
      </trkpt>
      <trkpt lat="43.22121270932257" lon="-6.841391678899527">
        <ele>498.2</ele>
        <time>2017-08-07T07:25:05.000Z</time>
      </trkpt>
      <trkpt lat="43.221244560554624" lon="-6.8414402939379215">
        <ele>495.8</ele>
        <time>2017-08-07T07:25:08.000Z</time>
      </trkpt>
      <trkpt lat="43.221260737627745" lon="-6.841471055522561">
        <ele>494.4</ele>
        <time>2017-08-07T07:25:10.000Z</time>
      </trkpt>
      <trkpt lat="43.22131371125579" lon="-6.841580690816045">
        <ele>490.6</ele>
        <time>2017-08-07T07:25:17.000Z</time>
      </trkpt>
      <trkpt lat="43.22132100351155" lon="-6.841597957536578">
        <ele>490</ele>
        <time>2017-08-07T07:25:18.000Z</time>
      </trkpt>
      <trkpt lat="43.22134489193559" lon="-6.84164640493691">
        <ele>488.2</ele>
        <time>2017-08-07T07:25:22.000Z</time>
      </trkpt>
      <trkpt lat="43.22138311341405" lon="-6.841732067987323">
        <ele>485.4</ele>
        <time>2017-08-07T07:25:28.000Z</time>
      </trkpt>
      <trkpt lat="43.22141001932323" lon="-6.841777246445417">
        <ele>484</ele>
        <time>2017-08-07T07:25:31.000Z</time>
      </trkpt>
      <trkpt lat="43.22142703458667" lon="-6.841794680804014">
        <ele>483.8</ele>
        <time>2017-08-07T07:25:33.000Z</time>
      </trkpt>
      <trkpt lat="43.221541699022055" lon="-6.841889899224043">
        <ele>481.4</ele>
        <time>2017-08-07T07:25:43.000Z</time>
      </trkpt>
      <trkpt lat="43.221627194434404" lon="-6.841942872852087">
        <ele>480.4</ele>
        <time>2017-08-07T07:25:50.000Z</time>
      </trkpt>
      <trkpt lat="43.22171151638031" lon="-6.841989895328879">
        <ele>479.6</ele>
        <time>2017-08-07T07:25:57.000Z</time>
      </trkpt>
      <trkpt lat="43.22177362628281" lon="-6.8420210760086775">
        <ele>479</ele>
        <time>2017-08-07T07:26:02.000Z</time>
      </trkpt>
      <trkpt lat="43.221780164167285" lon="-6.8420354928821325">
        <ele>478.6</ele>
        <time>2017-08-07T07:26:03.000Z</time>
      </trkpt>
      <trkpt lat="43.221781589090824" lon="-6.842131549492478">
        <ele>476.4</ele>
        <time>2017-08-07T07:26:08.000Z</time>
      </trkpt>
      <trkpt lat="43.22175015695393" lon="-6.8421559408307076">
        <ele>475.6</ele>
        <time>2017-08-07T07:26:12.000Z</time>
      </trkpt>
      <trkpt lat="43.22171000763774" lon="-6.842185948044062">
        <ele>474.8</ele>
        <time>2017-08-07T07:26:16.000Z</time>
      </trkpt>
      <trkpt lat="43.22168352082372" lon="-6.842199694365263">
        <ele>474.2</ele>
        <time>2017-08-07T07:26:18.000Z</time>
      </trkpt>
      <trkpt lat="43.2216221652925" lon="-6.842224085703492">
        <ele>473.2</ele>
        <time>2017-08-07T07:26:23.000Z</time>
      </trkpt>
      <trkpt lat="43.22161277756095" lon="-6.842224923893809">
        <ele>473.2</ele>
        <time>2017-08-07T07:26:24.000Z</time>
      </trkpt>
      <trkpt lat="43.22159425355494" lon="-6.842222912237048">
        <ele>473</ele>
        <time>2017-08-07T07:26:26.000Z</time>
      </trkpt>
      <trkpt lat="43.22155091911554" lon="-6.842215619981289">
        <ele>473.4</ele>
        <time>2017-08-07T07:26:30.000Z</time>
      </trkpt>
      <trkpt lat="43.22152644395828" lon="-6.842301031574607">
        <ele>471.6</ele>
        <time>2017-08-07T07:26:34.000Z</time>
      </trkpt>
      <trkpt lat="43.22156785055995" lon="-6.842362806200981">
        <ele>469.8</ele>
        <time>2017-08-07T07:26:39.000Z</time>
      </trkpt>
      <trkpt lat="43.22158922441304" lon="-6.84238619171083">
        <ele>469.6</ele>
        <time>2017-08-07T07:26:41.000Z</time>
      </trkpt>
      <trkpt lat="43.221638426184654" lon="-6.842433717101812">
        <ele>468.4</ele>
        <time>2017-08-07T07:26:46.000Z</time>
      </trkpt>
      <trkpt lat="43.22166323661804" lon="-6.842443523928523">
        <ele>468</ele>
        <time>2017-08-07T07:26:52.000Z</time>
      </trkpt>
      <trkpt lat="43.22168653830886" lon="-6.842452911660075">
        <ele>467.8</ele>
        <time>2017-08-07T07:26:55.000Z</time>
      </trkpt>
      <trkpt lat="43.22171587496996" lon="-6.84245903044939">
        <ele>467.4</ele>
        <time>2017-08-07T07:26:57.000Z</time>
      </trkpt>
      <trkpt lat="43.22175761684775" lon="-6.842475375160575">
        <ele>466.8</ele>
        <time>2017-08-07T07:27:00.000Z</time>
      </trkpt>
      <trkpt lat="43.221829030662775" lon="-6.842508567497134">
        <ele>465.4</ele>
        <time>2017-08-07T07:27:05.000Z</time>
      </trkpt>
      <trkpt lat="43.22191469371319" lon="-6.842534551396966">
        <ele>464.4</ele>
        <time>2017-08-07T07:27:11.000Z</time>
      </trkpt>
      <trkpt lat="43.222003960981965" lon="-6.84256405569613">
        <ele>462.2</ele>
        <time>2017-08-07T07:27:19.000Z</time>
      </trkpt>
      <trkpt lat="43.22202072478831" lon="-6.842577885836363">
        <ele>461.4</ele>
        <time>2017-08-07T07:27:24.000Z</time>
      </trkpt>
      <trkpt lat="43.22209884412587" lon="-6.842587944120169">
        <ele>460</ele>
        <time>2017-08-07T07:27:30.000Z</time>
      </trkpt>
      <trkpt lat="43.22219825349748" lon="-6.842595906928182">
        <ele>458.2</ele>
        <time>2017-08-07T07:27:38.000Z</time>
      </trkpt>
      <trkpt lat="43.222289364784956" lon="-6.842584675177932">
        <ele>457.2</ele>
        <time>2017-08-07T07:27:45.000Z</time>
      </trkpt>
      <trkpt lat="43.22239891625941" lon="-6.842596996575594">
        <ele>455.2</ele>
        <time>2017-08-07T07:27:52.000Z</time>
      </trkpt>
      <trkpt lat="43.22245574556291" lon="-6.842585178092122">
        <ele>454.4</ele>
        <time>2017-08-07T07:27:57.000Z</time>
      </trkpt>
      <trkpt lat="43.22256403975189" lon="-6.842581573873758">
        <ele>451.8</ele>
        <time>2017-08-07T07:28:05.000Z</time>
      </trkpt>
      <trkpt lat="43.22258625179529" lon="-6.842580148950219">
        <ele>451.4</ele>
        <time>2017-08-07T07:28:07.000Z</time>
      </trkpt>
      <trkpt lat="43.22263193316758" lon="-6.842574113979936">
        <ele>450.4</ele>
        <time>2017-08-07T07:28:11.000Z</time>
      </trkpt>
      <trkpt lat="43.222652887925506" lon="-6.842573108151555">
        <ele>450</ele>
        <time>2017-08-07T07:28:13.000Z</time>
      </trkpt>
      <trkpt lat="43.222721200436354" lon="-6.842556009069085">
        <ele>448.4</ele>
        <time>2017-08-07T07:28:18.000Z</time>
      </trkpt>
      <trkpt lat="43.222841480746865" lon="-6.8425055500119925">
        <ele>444.4</ele>
        <time>2017-08-07T07:28:24.000Z</time>
      </trkpt>
      <trkpt lat="43.222910799086094" lon="-6.842465149238706">
        <ele>442.4</ele>
        <time>2017-08-07T07:28:29.000Z</time>
      </trkpt>
      <trkpt lat="43.222919600084424" lon="-6.842456012964249">
        <ele>442.2</ele>
        <time>2017-08-07T07:28:30.000Z</time>
      </trkpt>
      <trkpt lat="43.22295689955354" lon="-6.842398177832365">
        <ele>442.4</ele>
        <time>2017-08-07T07:28:35.000Z</time>
      </trkpt>
      <trkpt lat="43.22296964004636" lon="-6.842376301065087">
        <ele>442.6</ele>
        <time>2017-08-07T07:28:37.000Z</time>
      </trkpt>
      <trkpt lat="43.222995875403285" lon="-6.842323578894138">
        <ele>443.2</ele>
        <time>2017-08-07T07:28:42.000Z</time>
      </trkpt>
      <trkpt lat="43.223027642816305" lon="-6.842265743762255">
        <ele>444.4</ele>
        <time>2017-08-07T07:28:47.000Z</time>
      </trkpt>
      <trkpt lat="43.2230675406754" lon="-6.8421936593949795">
        <ele>445.8</ele>
        <time>2017-08-07T07:28:53.000Z</time>
      </trkpt>
      <trkpt lat="43.22310592979193" lon="-6.842150241136551">
        <ele>446.4</ele>
        <time>2017-08-07T07:28:57.000Z</time>
      </trkpt>
      <trkpt lat="43.22313250042498" lon="-6.842104056850076">
        <ele>447.2</ele>
        <time>2017-08-07T07:29:00.000Z</time>
      </trkpt>
      <trkpt lat="43.2231470849365" lon="-6.842076480388641">
        <ele>447.8</ele>
        <time>2017-08-07T07:29:02.000Z</time>
      </trkpt>
      <trkpt lat="43.22318539023399" lon="-6.842024764046073">
        <ele>448.6</ele>
        <time>2017-08-07T07:29:06.000Z</time>
      </trkpt>
      <trkpt lat="43.22321154177189" lon="-6.841989979147911">
        <ele>449.4</ele>
        <time>2017-08-07T07:29:09.000Z</time>
      </trkpt>
      <trkpt lat="43.22322470135987" lon="-6.84195033274591">
        <ele>450.8</ele>
        <time>2017-08-07T07:29:12.000Z</time>
      </trkpt>
      <trkpt lat="43.22323031723499" lon="-6.841939352452755">
        <ele>451</ele>
        <time>2017-08-07T07:29:13.000Z</time>
      </trkpt>
      <trkpt lat="43.22328748181462" lon="-6.841858886182308">
        <ele>453</ele>
        <time>2017-08-07T07:29:20.000Z</time>
      </trkpt>
      <trkpt lat="43.22331916540861" lon="-6.841802978888154">
        <ele>454.6</ele>
        <time>2017-08-07T07:29:25.000Z</time>
      </trkpt>
      <trkpt lat="43.22333282791078" lon="-6.841773558408022">
        <ele>455.6</ele>
        <time>2017-08-07T07:29:27.000Z</time>
      </trkpt>
      <trkpt lat="43.22337666526437" lon="-6.8417000491172075">
        <ele>456</ele>
        <time>2017-08-07T07:29:33.000Z</time>
      </trkpt>
      <trkpt lat="43.22342452593148" lon="-6.841627042740583">
        <ele>456.2</ele>
        <time>2017-08-07T07:29:39.000Z</time>
      </trkpt>
      <trkpt lat="43.22346576489508" lon="-6.841538194566965">
        <ele>456.8</ele>
        <time>2017-08-07T07:29:45.000Z</time>
      </trkpt>
      <trkpt lat="43.22347942739725" lon="-6.84149251319468">
        <ele>457.4</ele>
        <time>2017-08-07T07:29:48.000Z</time>
      </trkpt>
      <trkpt lat="43.22351731359959" lon="-6.841412214562297">
        <ele>458.6</ele>
        <time>2017-08-07T07:29:53.000Z</time>
      </trkpt>
      <trkpt lat="43.22360490448773" lon="-6.84138547629118">
        <ele>459.6</ele>
        <time>2017-08-07T07:30:00.000Z</time>
      </trkpt>
      <trkpt lat="43.22361429221928" lon="-6.841394109651446">
        <ele>459.4</ele>
        <time>2017-08-07T07:30:01.000Z</time>
      </trkpt>
      <trkpt lat="43.2236719597131" lon="-6.841476000845432">
        <ele>458.2</ele>
        <time>2017-08-07T07:30:07.000Z</time>
      </trkpt>
      <trkpt lat="43.22370221838355" lon="-6.841525621712208">
        <ele>457.6</ele>
        <time>2017-08-07T07:30:11.000Z</time>
      </trkpt>
      <trkpt lat="43.22372954338789" lon="-6.841562837362289">
        <ele>457.4</ele>
        <time>2017-08-07T07:30:14.000Z</time>
      </trkpt>
      <trkpt lat="43.22375359944999" lon="-6.841590078547597">
        <ele>457.2</ele>
        <time>2017-08-07T07:30:16.000Z</time>
      </trkpt>
      <trkpt lat="43.22378167882562" lon="-6.841628886759281">
        <ele>457</ele>
        <time>2017-08-07T07:30:19.000Z</time>
      </trkpt>
      <trkpt lat="43.2238344848156" lon="-6.841710275039077">
        <ele>456.6</ele>
        <time>2017-08-07T07:30:26.000Z</time>
      </trkpt>
      <trkpt lat="43.223837334662676" lon="-6.841719746589661">
        <ele>456.4</ele>
        <time>2017-08-07T07:30:27.000Z</time>
      </trkpt>
      <trkpt lat="43.22387220337987" lon="-6.84175293892622">
        <ele>456.6</ele>
        <time>2017-08-07T07:30:30.000Z</time>
      </trkpt>
      <trkpt lat="43.22388360276818" lon="-6.841762159019709">
        <ele>456.8</ele>
        <time>2017-08-07T07:30:31.000Z</time>
      </trkpt>
      <trkpt lat="43.223939929157495" lon="-6.841829968616366">
        <ele>456.8</ele>
        <time>2017-08-07T07:30:37.000Z</time>
      </trkpt>
      <trkpt lat="43.224014695733786" lon="-6.841925019398332">
        <ele>457.2</ele>
        <time>2017-08-07T07:30:44.000Z</time>
      </trkpt>
      <trkpt lat="43.22405610233545" lon="-6.841986458748579">
        <ele>457.6</ele>
        <time>2017-08-07T07:30:49.000Z</time>
      </trkpt>
      <trkpt lat="43.22408124804497" lon="-6.842010598629713">
        <ele>458.2</ele>
        <time>2017-08-07T07:30:51.000Z</time>
      </trkpt>
      <trkpt lat="43.224112931638956" lon="-6.842039097100496">
        <ele>459</ele>
        <time>2017-08-07T07:30:54.000Z</time>
      </trkpt>
      <trkpt lat="43.22413413785398" lon="-6.842055357992649">
        <ele>459.6</ele>
        <time>2017-08-07T07:30:56.000Z</time>
      </trkpt>
      <trkpt lat="43.22414780035615" lon="-6.842064410448074">
        <ele>460</ele>
        <time>2017-08-07T07:30:58.000Z</time>
      </trkpt>
      <trkpt lat="43.22415274567902" lon="-6.842072959989309">
        <ele>460.2</ele>
        <time>2017-08-07T07:31:02.000Z</time>
      </trkpt>
      <trkpt lat="43.22418627329171" lon="-6.842144709080458">
        <ele>460.2</ele>
        <time>2017-08-07T07:31:08.000Z</time>
      </trkpt>
      <trkpt lat="43.22423622943461" lon="-6.842236993834376">
        <ele>460.6</ele>
        <time>2017-08-07T07:31:14.000Z</time>
      </trkpt>
      <trkpt lat="43.22424469515681" lon="-6.842245375737548">
        <ele>460.6</ele>
        <time>2017-08-07T07:31:15.000Z</time>
      </trkpt>
      <trkpt lat="43.224292220547795" lon="-6.842305222526193">
        <ele>461.2</ele>
        <time>2017-08-07T07:31:20.000Z</time>
      </trkpt>
      <trkpt lat="43.22429892607033" lon="-6.842317208647728">
        <ele>461.2</ele>
        <time>2017-08-07T07:31:21.000Z</time>
      </trkpt>
      <trkpt lat="43.22436329908669" lon="-6.8424006924033165">
        <ele>462</ele>
        <time>2017-08-07T07:31:29.000Z</time>
      </trkpt>
      <trkpt lat="43.22441811673343" lon="-6.842452408745885">
        <ele>463</ele>
        <time>2017-08-07T07:31:36.000Z</time>
      </trkpt>
      <trkpt lat="43.224423648789525" lon="-6.842458611354232">
        <ele>463.2</ele>
        <time>2017-08-07T07:31:37.000Z</time>
      </trkpt>
      <trkpt lat="43.224454494193196" lon="-6.842483337968588">
        <ele>463.8</ele>
        <time>2017-08-07T07:31:41.000Z</time>
      </trkpt>
      <trkpt lat="43.22448642924428" lon="-6.842517703771591">
        <ele>464</ele>
        <time>2017-08-07T07:31:45.000Z</time>
      </trkpt>
      <trkpt lat="43.224501349031925" lon="-6.8425314500927925">
        <ele>464.2</ele>
        <time>2017-08-07T07:31:47.000Z</time>
      </trkpt>
      <trkpt lat="43.22455734014511" lon="-6.8425829987972975">
        <ele>464.4</ele>
        <time>2017-08-07T07:31:53.000Z</time>
      </trkpt>
      <trkpt lat="43.22462431155145" lon="-6.8426622916013">
        <ele>464</ele>
        <time>2017-08-07T07:32:00.000Z</time>
      </trkpt>
      <trkpt lat="43.22474140673876" lon="-6.842743596062064">
        <ele>464.2</ele>
        <time>2017-08-07T07:32:10.000Z</time>
      </trkpt>
      <trkpt lat="43.22476395405829" lon="-6.842753570526838">
        <ele>464.4</ele>
        <time>2017-08-07T07:32:12.000Z</time>
      </trkpt>
      <trkpt lat="43.22481734678149" lon="-6.842761281877756">
        <ele>464.4</ele>
        <time>2017-08-07T07:32:16.000Z</time>
      </trkpt>
      <trkpt lat="43.224831679835916" lon="-6.842764802277088">
        <ele>464.4</ele>
        <time>2017-08-07T07:32:17.000Z</time>
      </trkpt>
      <trkpt lat="43.22492765262723" lon="-6.84277662076056">
        <ele>464.6</ele>
        <time>2017-08-07T07:32:24.000Z</time>
      </trkpt>
      <trkpt lat="43.224942572414875" lon="-6.84278299100697">
        <ele>464.4</ele>
        <time>2017-08-07T07:32:26.000Z</time>
      </trkpt>
      <trkpt lat="43.22494818829" lon="-6.842789528891444">
        <ele>464</ele>
        <time>2017-08-07T07:32:29.000Z</time>
      </trkpt>
      <trkpt lat="43.22494709864259" lon="-6.842820793390274">
        <ele>462.6</ele>
        <time>2017-08-07T07:32:35.000Z</time>
      </trkpt>
      <trkpt lat="43.22496570646763" lon="-6.84278785251081">
        <ele>464.2</ele>
        <time>2017-08-07T07:32:50.000Z</time>
      </trkpt>
      <trkpt lat="43.225036449730396" lon="-6.842772765085101">
        <ele>465.6</ele>
        <time>2017-08-07T07:32:56.000Z</time>
      </trkpt>
      <trkpt lat="43.225110629573464" lon="-6.842784332111478">
        <ele>465.4</ele>
        <time>2017-08-07T07:33:02.000Z</time>
      </trkpt>
      <trkpt lat="43.225175673142076" lon="-6.842790534719825">
        <ele>465.6</ele>
        <time>2017-08-07T07:33:08.000Z</time>
      </trkpt>
      <trkpt lat="43.22528405115008" lon="-6.842818446457386">
        <ele>462.8</ele>
        <time>2017-08-07T07:33:17.000Z</time>
      </trkpt>
      <trkpt lat="43.22535764425993" lon="-6.84283378534019">
        <ele>461.6</ele>
        <time>2017-08-07T07:33:23.000Z</time>
      </trkpt>
      <trkpt lat="43.2253850530833" lon="-6.842839987948537">
        <ele>461</ele>
        <time>2017-08-07T07:33:25.000Z</time>
      </trkpt>
      <trkpt lat="43.22547063231468" lon="-6.842842251062393">
        <ele>460</ele>
        <time>2017-08-07T07:33:31.000Z</time>
      </trkpt>
      <trkpt lat="43.22552318684757" lon="-6.8428415805101395">
        <ele>458.2</ele>
        <time>2017-08-07T07:33:35.000Z</time>
      </trkpt>
      <trkpt lat="43.22558253072202" lon="-6.842817021533847">
        <ele>456.6</ele>
        <time>2017-08-07T07:33:39.000Z</time>
      </trkpt>
      <trkpt lat="43.22570708580315" lon="-6.8427464459091425">
        <ele>454</ele>
        <time>2017-08-07T07:33:48.000Z</time>
      </trkpt>
      <trkpt lat="43.22581563144922" lon="-6.842645527794957">
        <ele>451.6</ele>
        <time>2017-08-07T07:33:57.000Z</time>
      </trkpt>
      <trkpt lat="43.22587849572301" lon="-6.842562211677432">
        <ele>450.6</ele>
        <time>2017-08-07T07:34:03.000Z</time>
      </trkpt>
      <trkpt lat="43.22590439580381" lon="-6.842519296333194">
        <ele>450.8</ele>
        <time>2017-08-07T07:34:06.000Z</time>
      </trkpt>
      <trkpt lat="43.225926188752055" lon="-6.842485098168254">
        <ele>450.8</ele>
        <time>2017-08-07T07:34:09.000Z</time>
      </trkpt>
      <trkpt lat="43.22593381628394" lon="-6.842472357675433">
        <ele>450.8</ele>
        <time>2017-08-07T07:34:10.000Z</time>
      </trkpt>
      <trkpt lat="43.22598058730364" lon="-6.842407649382949">
        <ele>450.6</ele>
        <time>2017-08-07T07:34:16.000Z</time>
      </trkpt>
      <trkpt lat="43.22598746046424" lon="-6.842391388490796">
        <ele>451</ele>
        <time>2017-08-07T07:34:22.000Z</time>
      </trkpt>
      <trkpt lat="43.22600120678544" lon="-6.842383509501815">
        <ele>450.4</ele>
        <time>2017-08-07T07:34:39.000Z</time>
      </trkpt>
      <trkpt lat="43.22612810879946" lon="-6.842318801209331">
        <ele>448</ele>
        <time>2017-08-07T07:35:43.000Z</time>
      </trkpt>
      <trkpt lat="43.22615912184119" lon="-6.842302456498146">
        <ele>447.8</ele>
        <time>2017-08-07T07:35:48.000Z</time>
      </trkpt>
      <trkpt lat="43.2262069825083" lon="-6.8422602117061615">
        <ele>448.8</ele>
        <time>2017-08-07T07:35:54.000Z</time>
      </trkpt>
      <trkpt lat="43.226271690800786" lon="-6.842170944437385">
        <ele>451.8</ele>
        <time>2017-08-07T07:36:02.000Z</time>
      </trkpt>
      <trkpt lat="43.226317539811134" lon="-6.842072121798992">
        <ele>456</ele>
        <time>2017-08-07T07:36:10.000Z</time>
      </trkpt>
      <trkpt lat="43.22636464610696" lon="-6.841981261968613">
        <ele>458.4</ele>
        <time>2017-08-07T07:36:17.000Z</time>
      </trkpt>
      <trkpt lat="43.22642340324819" lon="-6.84188830666244">
        <ele>460.4</ele>
        <time>2017-08-07T07:36:25.000Z</time>
      </trkpt>
      <trkpt lat="43.226486686617136" lon="-6.841806164011359">
        <ele>461.4</ele>
        <time>2017-08-07T07:36:33.000Z</time>
      </trkpt>
      <trkpt lat="43.226550221443176" lon="-6.841719746589661">
        <ele>461.8</ele>
        <time>2017-08-07T07:36:41.000Z</time>
      </trkpt>
      <trkpt lat="43.22660277597606" lon="-6.841656295582652">
        <ele>461.2</ele>
        <time>2017-08-07T07:36:48.000Z</time>
      </trkpt>
      <trkpt lat="43.22665650397539" lon="-6.841591168195009">
        <ele>460.6</ele>
        <time>2017-08-07T07:36:55.000Z</time>
      </trkpt>
      <trkpt lat="43.226717691868544" lon="-6.841521095484495">
        <ele>459.8</ele>
        <time>2017-08-07T07:37:02.000Z</time>
      </trkpt>
      <trkpt lat="43.22673168964684" lon="-6.84150131419301">
        <ele>459.8</ele>
        <time>2017-08-07T07:37:04.000Z</time>
      </trkpt>
      <trkpt lat="43.22678877040744" lon="-6.841417998075485">
        <ele>459.2</ele>
        <time>2017-08-07T07:37:11.000Z</time>
      </trkpt>
      <trkpt lat="43.22681173682213" lon="-6.841372149065137">
        <ele>459.2</ele>
        <time>2017-08-07T07:37:16.000Z</time>
      </trkpt>
      <trkpt lat="43.2268285844475" lon="-6.841356139630079">
        <ele>458.8</ele>
        <time>2017-08-07T07:37:18.000Z</time>
      </trkpt>
      <trkpt lat="43.226888263598084" lon="-6.84125404804945">
        <ele>458.6</ele>
        <time>2017-08-07T07:37:26.000Z</time>
      </trkpt>
      <trkpt lat="43.22692623361945" lon="-6.841138461604714">
        <ele>459.8</ele>
        <time>2017-08-07T07:37:34.000Z</time>
      </trkpt>
      <trkpt lat="43.22695850394666" lon="-6.840998567640781">
        <ele>462.2</ele>
        <time>2017-08-07T07:37:43.000Z</time>
      </trkpt>
      <trkpt lat="43.22698524221778" lon="-6.840891949832439">
        <ele>463.6</ele>
        <time>2017-08-07T07:37:50.000Z</time>
      </trkpt>
      <trkpt lat="43.22701256722212" lon="-6.840813746675849">
        <ele>464.2</ele>
        <time>2017-08-07T07:37:55.000Z</time>
      </trkpt>
      <trkpt lat="43.227026145905256" lon="-6.8407647125422955">
        <ele>464.6</ele>
        <time>2017-08-07T07:37:58.000Z</time>
      </trkpt>
      <trkpt lat="43.22706109844148" lon="-6.8406574241817">
        <ele>465.4</ele>
        <time>2017-08-07T07:38:05.000Z</time>
      </trkpt>
      <trkpt lat="43.22710837237537" lon="-6.840509148314595">
        <ele>466.2</ele>
        <time>2017-08-07T07:38:14.000Z</time>
      </trkpt>
      <trkpt lat="43.22715765796602" lon="-6.840380821377039">
        <ele>466.2</ele>
        <time>2017-08-07T07:38:22.000Z</time>
      </trkpt>
      <trkpt lat="43.227203926071525" lon="-6.8402516562491655">
        <ele>466.8</ele>
        <time>2017-08-07T07:38:30.000Z</time>
      </trkpt>
      <trkpt lat="43.227262096479535" lon="-6.840103296563029">
        <ele>467.2</ele>
        <time>2017-08-07T07:38:39.000Z</time>
      </trkpt>
      <trkpt lat="43.227311968803406" lon="-6.839999528601766">
        <ele>468.2</ele>
        <time>2017-08-07T07:38:46.000Z</time>
      </trkpt>
      <trkpt lat="43.227364271879196" lon="-6.839901125058532">
        <ele>469</ele>
        <time>2017-08-07T07:38:53.000Z</time>
      </trkpt>
      <trkpt lat="43.22744071483612" lon="-6.839754274114966">
        <ele>469.2</ele>
        <time>2017-08-07T07:39:03.000Z</time>
      </trkpt>
      <trkpt lat="43.22750022634864" lon="-6.839649248868227">
        <ele>467.8</ele>
        <time>2017-08-07T07:39:10.000Z</time>
      </trkpt>
      <trkpt lat="43.22756267152727" lon="-6.839503487572074">
        <ele>467</ele>
        <time>2017-08-07T07:39:20.000Z</time>
      </trkpt>
      <trkpt lat="43.22758102789521" lon="-6.839405000209808">
        <ele>467.2</ele>
        <time>2017-08-07T07:39:27.000Z</time>
      </trkpt>
      <trkpt lat="43.227604245767" lon="-6.839303243905306">
        <ele>467.6</ele>
        <time>2017-08-07T07:39:34.000Z</time>
      </trkpt>
      <trkpt lat="43.227662751451135" lon="-6.839221520349383">
        <ele>466.4</ele>
        <time>2017-08-07T07:39:41.000Z</time>
      </trkpt>
      <trkpt lat="43.22772838175297" lon="-6.83915781788528">
        <ele>466</ele>
        <time>2017-08-07T07:39:48.000Z</time>
      </trkpt>
      <trkpt lat="43.22774950414896" lon="-6.839140551164746">
        <ele>466.4</ele>
        <time>2017-08-07T07:39:50.000Z</time>
      </trkpt>
      <trkpt lat="43.227787390351295" lon="-6.839093696326017">
        <ele>467.4</ele>
        <time>2017-08-07T07:39:54.000Z</time>
      </trkpt>
      <trkpt lat="43.227850925177336" lon="-6.839011469855905">
        <ele>469.4</ele>
        <time>2017-08-07T07:40:01.000Z</time>
      </trkpt>
      <trkpt lat="43.22789157740772" lon="-6.838975762948394">
        <ele>470.2</ele>
        <time>2017-08-07T07:40:05.000Z</time>
      </trkpt>
      <trkpt lat="43.22791605256498" lon="-6.838943073526025">
        <ele>470.6</ele>
        <time>2017-08-07T07:40:08.000Z</time>
      </trkpt>
      <trkpt lat="43.22795435786247" lon="-6.838905857875943">
        <ele>471</ele>
        <time>2017-08-07T07:40:12.000Z</time>
      </trkpt>
      <trkpt lat="43.22800246998668" lon="-6.838857913389802">
        <ele>472.2</ele>
        <time>2017-08-07T07:40:17.000Z</time>
      </trkpt>
      <trkpt lat="43.22807312943041" lon="-6.838781973347068">
        <ele>475.4</ele>
        <time>2017-08-07T07:40:24.000Z</time>
      </trkpt>
      <trkpt lat="43.228122079744935" lon="-6.838720198720694">
        <ele>477.8</ele>
        <time>2017-08-07T07:40:30.000Z</time>
      </trkpt>
      <trkpt lat="43.228156613186" lon="-6.838677283376455">
        <ele>479.4</ele>
        <time>2017-08-07T07:40:36.000Z</time>
      </trkpt>
      <trkpt lat="43.22823515161872" lon="-6.838604612275958">
        <ele>482.4</ele>
        <time>2017-08-07T07:40:44.000Z</time>
      </trkpt>
      <trkpt lat="43.22831419296563" lon="-6.838547615334392">
        <ele>486</ele>
        <time>2017-08-07T07:40:51.000Z</time>
      </trkpt>
      <trkpt lat="43.228381080552936" lon="-6.838529007509351">
        <ele>489</ele>
        <time>2017-08-07T07:40:57.000Z</time>
      </trkpt>
      <trkpt lat="43.22840237058699" lon="-6.838548285886645">
        <ele>489.6</ele>
        <time>2017-08-07T07:40:59.000Z</time>
      </trkpt>
      <trkpt lat="43.22841729037464" lon="-6.838577957823873">
        <ele>489.4</ele>
        <time>2017-08-07T07:41:01.000Z</time>
      </trkpt>
      <trkpt lat="43.22841896675527" lon="-6.838603438809514">
        <ele>488.8</ele>
        <time>2017-08-07T07:41:03.000Z</time>
      </trkpt>
      <trkpt lat="43.228405052796006" lon="-6.838640235364437">
        <ele>487.4</ele>
        <time>2017-08-07T07:41:06.000Z</time>
      </trkpt>
      <trkpt lat="43.228393234312534" lon="-6.838659178465605">
        <ele>486.6</ele>
        <time>2017-08-07T07:41:08.000Z</time>
      </trkpt>
      <trkpt lat="43.22839407250285" lon="-6.838658424094319">
        <ele>486.6</ele>
        <time>2017-08-07T07:41:09.000Z</time>
      </trkpt>
      <trkpt lat="43.228369848802686" lon="-6.838700165972114">
        <ele>484.8</ele>
        <time>2017-08-07T07:41:17.000Z</time>
      </trkpt>
      <trkpt lat="43.228346882387996" lon="-6.8388135731220245">
        <ele>480.4</ele>
        <time>2017-08-07T07:41:24.000Z</time>
      </trkpt>
      <trkpt lat="43.22832902893424" lon="-6.838930919766426">
        <ele>476</ele>
        <time>2017-08-07T07:41:32.000Z</time>
      </trkpt>
      <trkpt lat="43.22833045385778" lon="-6.839074920862913">
        <ele>472.4</ele>
        <time>2017-08-07T07:41:41.000Z</time>
      </trkpt>
      <trkpt lat="43.22832282632589" lon="-6.839202661067247">
        <ele>469.2</ele>
        <time>2017-08-07T07:41:49.000Z</time>
      </trkpt>
      <trkpt lat="43.22831871919334" lon="-6.839297292754054">
        <ele>466.6</ele>
        <time>2017-08-07T07:41:55.000Z</time>
      </trkpt>
      <trkpt lat="43.22830312885344" lon="-6.839340543374419">
        <ele>465.2</ele>
        <time>2017-08-07T07:41:58.000Z</time>
      </trkpt>
      <trkpt lat="43.22828393429518" lon="-6.839400306344032">
        <ele>463.6</ele>
        <time>2017-08-07T07:42:02.000Z</time>
      </trkpt>
      <trkpt lat="43.22828175500035" lon="-6.8394179083406925">
        <ele>463.2</ele>
        <time>2017-08-07T07:42:03.000Z</time>
      </trkpt>
      <trkpt lat="43.22830111719668" lon="-6.83955461718142">
        <ele>460.8</ele>
        <time>2017-08-07T07:42:10.000Z</time>
      </trkpt>
      <trkpt lat="43.228370351716876" lon="-6.8396856263279915">
        <ele>460.2</ele>
        <time>2017-08-07T07:42:19.000Z</time>
      </trkpt>
      <trkpt lat="43.22843849658966" lon="-6.839805236086249">
        <ele>461.6</ele>
        <time>2017-08-07T07:42:28.000Z</time>
      </trkpt>
      <trkpt lat="43.22848308831453" lon="-6.839945213869214">
        <ele>461.2</ele>
        <time>2017-08-07T07:42:37.000Z</time>
      </trkpt>
      <trkpt lat="43.22852063924074" lon="-6.840083682909608">
        <ele>460.6</ele>
        <time>2017-08-07T07:42:45.000Z</time>
      </trkpt>
      <trkpt lat="43.228577971458435" lon="-6.840216955170035">
        <ele>460.6</ele>
        <time>2017-08-07T07:42:53.000Z</time>
      </trkpt>
      <trkpt lat="43.22863748297095" lon="-6.840314855799079">
        <ele>462.4</ele>
        <time>2017-08-07T07:43:00.000Z</time>
      </trkpt>
      <trkpt lat="43.22869900614023" lon="-6.840436644852161">
        <ele>465</ele>
        <time>2017-08-07T07:43:09.000Z</time>
      </trkpt>
      <trkpt lat="43.22870219126344" lon="-6.840449217706919">
        <ele>465</ele>
        <time>2017-08-07T07:43:10.000Z</time>
      </trkpt>
      <trkpt lat="43.22872423566878" lon="-6.8405435141175985">
        <ele>464.8</ele>
        <time>2017-08-07T07:43:16.000Z</time>
      </trkpt>
      <trkpt lat="43.22872515767813" lon="-6.8406857550144196">
        <ele>462.4</ele>
        <time>2017-08-07T07:43:24.000Z</time>
      </trkpt>
      <trkpt lat="43.228760194033384" lon="-6.8407797161489725">
        <ele>463</ele>
        <time>2017-08-07T07:43:32.000Z</time>
      </trkpt>
      <trkpt lat="43.228765558451414" lon="-6.840815674513578">
        <ele>462.4</ele>
        <time>2017-08-07T07:43:47.000Z</time>
      </trkpt>
      <trkpt lat="43.228768073022366" lon="-6.840829756110907">
        <ele>462.4</ele>
        <time>2017-08-07T07:43:48.000Z</time>
      </trkpt>
      <trkpt lat="43.22879330255091" lon="-6.840896811336279">
        <ele>462.4</ele>
        <time>2017-08-07T07:43:56.000Z</time>
      </trkpt>
      <trkpt lat="43.228796906769276" lon="-6.840915083885193">
        <ele>462.2</ele>
        <time>2017-08-07T07:44:10.000Z</time>
      </trkpt>
      <trkpt lat="43.228814424946904" lon="-6.84096185490489">
        <ele>462.6</ele>
        <time>2017-08-07T07:44:13.000Z</time>
      </trkpt>
      <trkpt lat="43.22886262089014" lon="-6.841088840737939">
        <ele>463.6</ele>
        <time>2017-08-07T07:44:21.000Z</time>
      </trkpt>
      <trkpt lat="43.22890277020633" lon="-6.8411873281002045">
        <ele>463.4</ele>
        <time>2017-08-07T07:44:28.000Z</time>
      </trkpt>
      <trkpt lat="43.228905368596315" lon="-6.841203421354294">
        <ele>463</ele>
        <time>2017-08-07T07:44:29.000Z</time>
      </trkpt>
      <trkpt lat="43.2289354596287" lon="-6.841280534863472">
        <ele>463</ele>
        <time>2017-08-07T07:44:34.000Z</time>
      </trkpt>
      <trkpt lat="43.22895213961601" lon="-6.841315068304539">
        <ele>463</ele>
        <time>2017-08-07T07:44:36.000Z</time>
      </trkpt>
      <trkpt lat="43.228954654186964" lon="-6.841330323368311">
        <ele>462.8</ele>
        <time>2017-08-07T07:44:37.000Z</time>
      </trkpt>
      <trkpt lat="43.22897108271718" lon="-6.841379860416055">
        <ele>462.4</ele>
        <time>2017-08-07T07:44:40.000Z</time>
      </trkpt>
      <trkpt lat="43.22897041216493" lon="-6.841398300603032">
        <ele>462</ele>
        <time>2017-08-07T07:44:45.000Z</time>
      </trkpt>
      <trkpt lat="43.22896965779364" lon="-6.841415986418724">
        <ele>461.6</ele>
        <time>2017-08-07T07:44:51.000Z</time>
      </trkpt>
      <trkpt lat="43.228978542611" lon="-6.841433085501194">
        <ele>461.6</ele>
        <time>2017-08-07T07:44:53.000Z</time>
      </trkpt>
      <trkpt lat="43.2289769500494" lon="-6.841439958661795">
        <ele>461.4</ele>
        <time>2017-08-07T07:44:54.000Z</time>
      </trkpt>
      <trkpt lat="43.228975189849734" lon="-6.841458147391677">
        <ele>461</ele>
        <time>2017-08-07T07:45:03.000Z</time>
      </trkpt>
      <trkpt lat="43.22897929698229" lon="-6.841459404677153">
        <ele>461</ele>
        <time>2017-08-07T07:45:26.000Z</time>
      </trkpt>
      <trkpt lat="43.228975692763925" lon="-6.841452028602362">
        <ele>461.2</ele>
        <time>2017-08-07T07:45:47.000Z</time>
      </trkpt>
      <trkpt lat="43.228975189849734" lon="-6.841444065794349">
        <ele>461.2</ele>
        <time>2017-08-07T07:45:57.000Z</time>
      </trkpt>
      <trkpt lat="43.228960521519184" lon="-6.841432247310877">
        <ele>461</ele>
        <time>2017-08-07T07:46:04.000Z</time>
      </trkpt>
      <trkpt lat="43.22892506606877" lon="-6.841510450467467">
        <ele>457.8</ele>
        <time>2017-08-07T07:47:31.000Z</time>
      </trkpt>
      <trkpt lat="43.22889908216894" lon="-6.841522352769971">
        <ele>456.4</ele>
        <time>2017-08-07T07:47:37.000Z</time>
      </trkpt>
      <trkpt lat="43.22889589704573" lon="-6.841529393568635">
        <ele>456.2</ele>
        <time>2017-08-07T07:47:47.000Z</time>
      </trkpt>
      <trkpt lat="43.22889036498964" lon="-6.8415174074471">
        <ele>456.2</ele>
        <time>2017-08-07T07:48:06.000Z</time>
      </trkpt>
      <trkpt lat="43.2289269939065" lon="-6.841521179303527">
        <ele>457.6</ele>
        <time>2017-08-07T07:48:25.000Z</time>
      </trkpt>
      <trkpt lat="43.22893847711384" lon="-6.841487651690841">
        <ele>458.8</ele>
        <time>2017-08-07T07:48:31.000Z</time>
      </trkpt>
      <trkpt lat="43.22892305441201" lon="-6.841461332514882">
        <ele>458.8</ele>
        <time>2017-08-07T07:48:37.000Z</time>
      </trkpt>
      <trkpt lat="43.22893797419965" lon="-6.841482874006033">
        <ele>459</ele>
        <time>2017-08-07T07:48:56.000Z</time>
      </trkpt>
      <trkpt lat="43.22894870303571" lon="-6.841497207060456">
        <ele>459</ele>
        <time>2017-08-07T07:49:02.000Z</time>
      </trkpt>
      <trkpt lat="43.22894820012152" lon="-6.841493519023061">
        <ele>459</ele>
        <time>2017-08-07T07:49:14.000Z</time>
      </trkpt>
      <trkpt lat="43.228917103260756" lon="-6.841460410505533">
        <ele>458.6</ele>
        <time>2017-08-07T07:49:46.000Z</time>
      </trkpt>
      <trkpt lat="43.22892506606877" lon="-6.841456722468138">
        <ele>459</ele>
        <time>2017-08-07T07:50:11.000Z</time>
      </trkpt>
      <trkpt lat="43.228953229263425" lon="-6.841467618942261">
        <ele>459.8</ele>
        <time>2017-08-07T07:50:41.000Z</time>
      </trkpt>
      <trkpt lat="43.228980638086796" lon="-6.8415457382798195">
        <ele>459</ele>
        <time>2017-08-07T07:50:47.000Z</time>
      </trkpt>
      <trkpt lat="43.22902053594589" lon="-6.841681860387325">
        <ele>458.2</ele>
        <time>2017-08-07T07:50:55.000Z</time>
      </trkpt>
      <trkpt lat="43.22902724146843" lon="-6.841719914227724">
        <ele>457.8</ele>
        <time>2017-08-07T07:50:57.000Z</time>
      </trkpt>
      <trkpt lat="43.22902774438262" lon="-6.841763835400343">
        <ele>457</ele>
        <time>2017-08-07T07:51:00.000Z</time>
      </trkpt>
      <trkpt lat="43.22903444990516" lon="-6.841813959181309">
        <ele>456.2</ele>
        <time>2017-08-07T07:51:03.000Z</time>
      </trkpt>
      <trkpt lat="43.22903713211417" lon="-6.8418605625629425">
        <ele>455.4</ele>
        <time>2017-08-07T07:51:06.000Z</time>
      </trkpt>
      <trkpt lat="43.22904425673187" lon="-6.841898281127214">
        <ele>455.2</ele>
        <time>2017-08-07T07:51:08.000Z</time>
      </trkpt>
      <trkpt lat="43.229057751595974" lon="-6.841957541182637">
        <ele>454.8</ele>
        <time>2017-08-07T07:51:11.000Z</time>
      </trkpt>
      <trkpt lat="43.22909706272185" lon="-6.842069020494819">
        <ele>454.8</ele>
        <time>2017-08-07T07:51:18.000Z</time>
      </trkpt>
      <trkpt lat="43.22914165444672" lon="-6.842166418209672">
        <ele>455.8</ele>
        <time>2017-08-07T07:51:25.000Z</time>
      </trkpt>
      <trkpt lat="43.22914752177894" lon="-6.842182846739888">
        <ele>455.8</ele>
        <time>2017-08-07T07:51:26.000Z</time>
      </trkpt>
      <trkpt lat="43.22919194586575" lon="-6.842290218919516">
        <ele>456.4</ele>
        <time>2017-08-07T07:51:34.000Z</time>
      </trkpt>
      <trkpt lat="43.229207284748554" lon="-6.842320393770933">
        <ele>456.6</ele>
        <time>2017-08-07T07:51:36.000Z</time>
      </trkpt>
      <trkpt lat="43.22925212793052" lon="-6.842419635504484">
        <ele>457.4</ele>
        <time>2017-08-07T07:51:42.000Z</time>
      </trkpt>
      <trkpt lat="43.22928733192384" lon="-6.84250446036458">
        <ele>456.8</ele>
        <time>2017-08-07T07:51:48.000Z</time>
      </trkpt>
      <trkpt lat="43.22935120202601" lon="-6.842590039595962">
        <ele>457.4</ele>
        <time>2017-08-07T07:51:55.000Z</time>
      </trkpt>
      <trkpt lat="43.2294122222811" lon="-6.842639995738864">
        <ele>459</ele>
        <time>2017-08-07T07:52:00.000Z</time>
      </trkpt>
      <trkpt lat="43.229492688551545" lon="-6.842691628262401">
        <ele>461.6</ele>
        <time>2017-08-07T07:52:07.000Z</time>
      </trkpt>
      <trkpt lat="43.22959260083735" lon="-6.8427493795752525">
        <ele>464.4</ele>
        <time>2017-08-07T07:52:15.000Z</time>
      </trkpt>
      <trkpt lat="43.2296540401876" lon="-6.842797240242362">
        <ele>465.4</ele>
        <time>2017-08-07T07:52:20.000Z</time>
      </trkpt>
      <trkpt lat="43.22968245483935" lon="-6.842817272990942">
        <ele>465.2</ele>
        <time>2017-08-07T07:52:22.000Z</time>
      </trkpt>
      <trkpt lat="43.229791251942515" lon="-6.842918610200286">
        <ele>464</ele>
        <time>2017-08-07T07:52:31.000Z</time>
      </trkpt>
      <trkpt lat="43.2298678625375" lon="-6.842968985438347">
        <ele>463.6</ele>
        <time>2017-08-07T07:52:37.000Z</time>
      </trkpt>
      <trkpt lat="43.22988219559193" lon="-6.8429735116660595">
        <ele>463.8</ele>
        <time>2017-08-07T07:52:38.000Z</time>
      </trkpt>
      <trkpt lat="43.22992980480194" lon="-6.8429953046143055">
        <ele>464.2</ele>
        <time>2017-08-07T07:52:42.000Z</time>
      </trkpt>
      <trkpt lat="43.23001421056688" lon="-6.843053642660379">
        <ele>463.8</ele>
        <time>2017-08-07T07:52:50.000Z</time>
      </trkpt>
      <trkpt lat="43.230084367096424" lon="-6.843091864138842">
        <ele>463.4</ele>
        <time>2017-08-07T07:52:56.000Z</time>
      </trkpt>
      <trkpt lat="43.23015653528273" lon="-6.843129750341177">
        <ele>463</ele>
        <time>2017-08-07T07:53:02.000Z</time>
      </trkpt>
      <trkpt lat="43.230231553316116" lon="-6.84317484498024">
        <ele>462</ele>
        <time>2017-08-07T07:53:08.000Z</time>
      </trkpt>
      <trkpt lat="43.23024479672313" lon="-6.843181299045682">
        <ele>461.8</ele>
        <time>2017-08-07T07:53:09.000Z</time>
      </trkpt>
      <trkpt lat="43.23030053637922" lon="-6.843200493603945">
        <ele>461.2</ele>
        <time>2017-08-07T07:53:14.000Z</time>
      </trkpt>
      <trkpt lat="43.230339512228966" lon="-6.843208791688085">
        <ele>461</ele>
        <time>2017-08-07T07:53:17.000Z</time>
      </trkpt>
      <trkpt lat="43.23035384528339" lon="-6.843206360936165">
        <ele>461.2</ele>
        <time>2017-08-07T07:53:18.000Z</time>
      </trkpt>
      <trkpt lat="43.230376057326794" lon="-6.843208288773894">
        <ele>461.2</ele>
        <time>2017-08-07T07:53:20.000Z</time>
      </trkpt>
      <trkpt lat="43.23046959936619" lon="-6.843207785859704">
        <ele>461.4</ele>
        <time>2017-08-07T07:53:27.000Z</time>
      </trkpt>
      <trkpt lat="43.230522656813264" lon="-6.8432120606303215">
        <ele>461.6</ele>
        <time>2017-08-07T07:53:31.000Z</time>
      </trkpt>
      <trkpt lat="43.230573534965515" lon="-6.84322664514184">
        <ele>461.4</ele>
        <time>2017-08-07T07:53:35.000Z</time>
      </trkpt>
      <trkpt lat="43.23059096932411" lon="-6.843230752274394">
        <ele>461.4</ele>
        <time>2017-08-07T07:53:40.000Z</time>
      </trkpt>
      <trkpt lat="43.230686439201236" lon="-6.843260759487748">
        <ele>460.6</ele>
        <time>2017-08-07T07:53:46.000Z</time>
      </trkpt>
      <trkpt lat="43.230802696198225" lon="-6.843302333727479">
        <ele>457.8</ele>
        <time>2017-08-07T07:53:54.000Z</time>
      </trkpt>
      <trkpt lat="43.230891628190875" lon="-6.843345668166876">
        <ele>456</ele>
        <time>2017-08-07T07:54:00.000Z</time>
      </trkpt>
      <trkpt lat="43.23101760819554" lon="-6.843399312347174">
        <ele>454.4</ele>
        <time>2017-08-07T07:54:09.000Z</time>
      </trkpt>
      <trkpt lat="43.23111483827233" lon="-6.843437282368541">
        <ele>454</ele>
        <time>2017-08-07T07:54:16.000Z</time>
      </trkpt>
      <trkpt lat="43.2311253156513" lon="-6.843442982062697">
        <ele>453.8</ele>
        <time>2017-08-07T07:54:17.000Z</time>
      </trkpt>
      <trkpt lat="43.23117267340422" lon="-6.843460751697421">
        <ele>453.8</ele>
        <time>2017-08-07T07:54:20.000Z</time>
      </trkpt>
      <trkpt lat="43.23126805946231" lon="-6.8434971291571856">
        <ele>453.4</ele>
        <time>2017-08-07T07:54:27.000Z</time>
      </trkpt>
      <trkpt lat="43.23137073777616" lon="-6.843518167734146">
        <ele>453.4</ele>
        <time>2017-08-07T07:54:34.000Z</time>
      </trkpt>
      <trkpt lat="43.23146402835846" lon="-6.84354230761528">
        <ele>452.4</ele>
        <time>2017-08-07T07:54:40.000Z</time>
      </trkpt>
      <trkpt lat="43.23156125843525" lon="-6.843564435839653">
        <ele>451.2</ele>
        <time>2017-08-07T07:54:47.000Z</time>
      </trkpt>
      <trkpt lat="43.23163443244994" lon="-6.843588324263692">
        <ele>450</ele>
        <time>2017-08-07T07:54:52.000Z</time>
      </trkpt>
      <trkpt lat="43.23174892924726" lon="-6.843627216294408">
        <ele>448.2</ele>
        <time>2017-08-07T07:54:59.000Z</time>
      </trkpt>
      <trkpt lat="43.23185009881854" lon="-6.84366543777287">
        <ele>446.2</ele>
        <time>2017-08-07T07:55:06.000Z</time>
      </trkpt>
      <trkpt lat="43.23194833472371" lon="-6.843684297055006">
        <ele>445</ele>
        <time>2017-08-07T07:55:13.000Z</time>
      </trkpt>
      <trkpt lat="43.2320143841207" lon="-6.843698127195239">
        <ele>444</ele>
        <time>2017-08-07T07:55:18.000Z</time>
      </trkpt>
      <trkpt lat="43.23214530944824" lon="-6.843733415007591">
        <ele>441.6</ele>
        <time>2017-08-07T07:55:27.000Z</time>
      </trkpt>
      <trkpt lat="43.232227955013514" lon="-6.843761410564184">
        <ele>440.6</ele>
        <time>2017-08-07T07:55:33.000Z</time>
      </trkpt>
      <trkpt lat="43.23229626752436" lon="-6.843782784417272">
        <ele>439.6</ele>
        <time>2017-08-07T07:55:38.000Z</time>
      </trkpt>
      <trkpt lat="43.23240414261818" lon="-6.843798877671361">
        <ele>440.2</ele>
        <time>2017-08-07T07:55:46.000Z</time>
      </trkpt>
      <trkpt lat="43.23250967077911" lon="-6.843809271231294">
        <ele>441.6</ele>
        <time>2017-08-07T07:55:53.000Z</time>
      </trkpt>
      <trkpt lat="43.2325757201761" lon="-6.843821508809924">
        <ele>442</ele>
        <time>2017-08-07T07:55:57.000Z</time>
      </trkpt>
      <trkpt lat="43.23260899633169" lon="-6.843824191018939">
        <ele>442.4</ele>
        <time>2017-08-07T07:55:59.000Z</time>
      </trkpt>
      <trkpt lat="43.23263925500214" lon="-6.8438302259892225">
        <ele>442.4</ele>
        <time>2017-08-07T07:56:01.000Z</time>
      </trkpt>
      <trkpt lat="43.232685439288616" lon="-6.843840451911092">
        <ele>442.6</ele>
        <time>2017-08-07T07:56:04.000Z</time>
      </trkpt>
      <trkpt lat="43.23276950977743" lon="-6.843849923461676">
        <ele>441.8</ele>
        <time>2017-08-07T07:56:10.000Z</time>
      </trkpt>
      <trkpt lat="43.232854418456554" lon="-6.843861825764179">
        <ele>441.2</ele>
        <time>2017-08-07T07:56:16.000Z</time>
      </trkpt>
      <trkpt lat="43.23294276371598" lon="-6.843874733895063">
        <ele>442</ele>
        <time>2017-08-07T07:56:22.000Z</time>
      </trkpt>
      <trkpt lat="43.23303462937474" lon="-6.8438852950930595">
        <ele>441.6</ele>
        <time>2017-08-07T07:56:29.000Z</time>
      </trkpt>
      <trkpt lat="43.23313613422215" lon="-6.843897197395563">
        <ele>440</ele>
        <time>2017-08-07T07:56:36.000Z</time>
      </trkpt>
      <trkpt lat="43.23321274481714" lon="-6.843914045020938">
        <ele>438.4</ele>
        <time>2017-08-07T07:56:41.000Z</time>
      </trkpt>
      <trkpt lat="43.23332757689059" lon="-6.843919325619936">
        <ele>435.2</ele>
        <time>2017-08-07T07:56:48.000Z</time>
      </trkpt>
      <trkpt lat="43.23341466486454" lon="-6.843911614269018">
        <ele>432.8</ele>
        <time>2017-08-07T07:56:54.000Z</time>
      </trkpt>
      <trkpt lat="43.23351172730327" lon="-6.843871213495731">
        <ele>430.8</ele>
        <time>2017-08-07T07:57:01.000Z</time>
      </trkpt>
      <trkpt lat="43.23355623520911" lon="-6.843801895156503">
        <ele>430.4</ele>
        <time>2017-08-07T07:57:06.000Z</time>
      </trkpt>
      <trkpt lat="43.23356185108423" lon="-6.8437854666262865">
        <ele>430.6</ele>
        <time>2017-08-07T07:57:07.000Z</time>
      </trkpt>
      <trkpt lat="43.233577106148005" lon="-6.843739617615938">
        <ele>430.6</ele>
        <time>2017-08-07T07:57:10.000Z</time>
      </trkpt>
      <trkpt lat="43.23358230292797" lon="-6.843724027276039">
        <ele>430.8</ele>
        <time>2017-08-07T07:57:11.000Z</time>
      </trkpt>
      <trkpt lat="43.23358699679375" lon="-6.843708856031299">
        <ele>430.8</ele>
        <time>2017-08-07T07:57:12.000Z</time>
      </trkpt>
      <trkpt lat="43.23362815193832" lon="-6.843626210466027">
        <ele>429.6</ele>
        <time>2017-08-07T07:57:17.000Z</time>
      </trkpt>
      <trkpt lat="43.23365120217204" lon="-6.8436043336987495">
        <ele>428.8</ele>
        <time>2017-08-07T07:57:19.000Z</time>
      </trkpt>
      <trkpt lat="43.23368917219341" lon="-6.843556892126799">
        <ele>427.6</ele>
        <time>2017-08-07T07:57:22.000Z</time>
      </trkpt>
      <trkpt lat="43.23373384773731" lon="-6.84349344111979">
        <ele>426.4</ele>
        <time>2017-08-07T07:57:26.000Z</time>
      </trkpt>
      <trkpt lat="43.233756981790066" lon="-6.843463601544499">
        <ele>425.6</ele>
        <time>2017-08-07T07:57:28.000Z</time>
      </trkpt>
      <trkpt lat="43.233771566301584" lon="-6.843450777232647">
        <ele>425</ele>
        <time>2017-08-07T07:57:29.000Z</time>
      </trkpt>
      <trkpt lat="43.233793526887894" lon="-6.8434186745435">
        <ele>424.4</ele>
        <time>2017-08-07T07:57:31.000Z</time>
      </trkpt>
      <trkpt lat="43.23379905894399" lon="-6.8434029165655375">
        <ele>424.4</ele>
        <time>2017-08-07T07:57:32.000Z</time>
      </trkpt>
      <trkpt lat="43.23384893126786" lon="-6.843289257958531">
        <ele>423.4</ele>
        <time>2017-08-07T07:57:38.000Z</time>
      </trkpt>
      <trkpt lat="43.23385454714298" lon="-6.843251623213291">
        <ele>423.8</ele>
        <time>2017-08-07T07:57:40.000Z</time>
      </trkpt>
      <trkpt lat="43.233868377283216" lon="-6.843194458633661">
        <ele>424</ele>
        <time>2017-08-07T07:57:43.000Z</time>
      </trkpt>
      <trkpt lat="43.23389804922044" lon="-6.84312597848475">
        <ele>423.6</ele>
        <time>2017-08-07T07:57:47.000Z</time>
      </trkpt>
      <trkpt lat="43.23390475474298" lon="-6.843104772269726">
        <ele>423.6</ele>
        <time>2017-08-07T07:57:48.000Z</time>
      </trkpt>
      <trkpt lat="43.233932415023446" lon="-6.843018438667059">
        <ele>424</ele>
        <time>2017-08-07T07:57:53.000Z</time>
      </trkpt>
      <trkpt lat="43.23396342806518" lon="-6.842922801151872">
        <ele>424.4</ele>
        <time>2017-08-07T07:57:59.000Z</time>
      </trkpt>
      <trkpt lat="43.23397994041443" lon="-6.84287728741765">
        <ele>424.4</ele>
        <time>2017-08-07T07:58:02.000Z</time>
      </trkpt>
      <trkpt lat="43.233993016183376" lon="-6.842845184728503">
        <ele>424.2</ele>
        <time>2017-08-07T07:58:04.000Z</time>
      </trkpt>
      <trkpt lat="43.2340229395777" lon="-6.842766311019659">
        <ele>424</ele>
        <time>2017-08-07T07:58:09.000Z</time>
      </trkpt>
      <trkpt lat="43.23405294679105" lon="-6.842674445360899">
        <ele>423.8</ele>
        <time>2017-08-07T07:58:15.000Z</time>
      </trkpt>
      <trkpt lat="43.23405981995165" lon="-6.842639409005642">
        <ele>424.2</ele>
        <time>2017-08-07T07:58:17.000Z</time>
      </trkpt>
      <trkpt lat="43.23408052325249" lon="-6.842575874179602">
        <ele>424.2</ele>
        <time>2017-08-07T07:58:21.000Z</time>
      </trkpt>
      <trkpt lat="43.23411296121776" lon="-6.84247512370348">
        <ele>424.4</ele>
        <time>2017-08-07T07:58:27.000Z</time>
      </trkpt>
      <trkpt lat="43.23420776054263" lon="-6.842364650219679">
        <ele>419.2</ele>
        <time>2017-08-07T07:58:35.000Z</time>
      </trkpt>
      <trkpt lat="43.234267104417086" lon="-6.842273119837046">
        <ele>416.6</ele>
        <time>2017-08-07T07:58:42.000Z</time>
      </trkpt>
      <trkpt lat="43.23428931646049" lon="-6.842247387394309">
        <ele>415.4</ele>
        <time>2017-08-07T07:58:44.000Z</time>
      </trkpt>
      <trkpt lat="43.23432368226349" lon="-6.842202879488468">
        <ele>413.8</ele>
        <time>2017-08-07T07:58:47.000Z</time>
      </trkpt>
      <trkpt lat="43.234342373907566" lon="-6.842181170359254">
        <ele>412.8</ele>
        <time>2017-08-07T07:58:49.000Z</time>
      </trkpt>
      <trkpt lat="43.23437036946416" lon="-6.842141188681126">
        <ele>411.4</ele>
        <time>2017-08-07T07:58:52.000Z</time>
      </trkpt>
      <trkpt lat="43.234384283423424" lon="-6.8421265203505754">
        <ele>411</ele>
        <time>2017-08-07T07:58:53.000Z</time>
      </trkpt>
      <trkpt lat="43.23440523818135" lon="-6.842075642198324">
        <ele>411</ele>
        <time>2017-08-07T07:58:56.000Z</time>
      </trkpt>
      <trkpt lat="43.23441823013127" lon="-6.842039600014687">
        <ele>411</ele>
        <time>2017-08-07T07:58:58.000Z</time>
      </trkpt>
      <trkpt lat="43.23444941081107" lon="-6.841937089338899">
        <ele>411.8</ele>
        <time>2017-08-07T07:59:04.000Z</time>
      </trkpt>
      <trkpt lat="43.234482016414404" lon="-6.841842038556933">
        <ele>412.4</ele>
        <time>2017-08-07T07:59:10.000Z</time>
      </trkpt>
      <trkpt lat="43.23450950905681" lon="-6.84177590534091">
        <ele>412.6</ele>
        <time>2017-08-07T07:59:14.000Z</time>
      </trkpt>
      <trkpt lat="43.23452769778669" lon="-6.841735588386655">
        <ele>412.4</ele>
        <time>2017-08-07T07:59:17.000Z</time>
      </trkpt>
      <trkpt lat="43.234559213742614" lon="-6.841683955863118">
        <ele>411.4</ele>
        <time>2017-08-07T07:59:21.000Z</time>
      </trkpt>
      <trkpt lat="43.234602715820074" lon="-6.841626539826393">
        <ele>409.8</ele>
        <time>2017-08-07T07:59:25.000Z</time>
      </trkpt>
      <trkpt lat="43.23463339358568" lon="-6.841595359146595">
        <ele>408.6</ele>
        <time>2017-08-07T07:59:27.000Z</time>
      </trkpt>
      <trkpt lat="43.234668178483844" lon="-6.841530734673142">
        <ele>407.8</ele>
        <time>2017-08-07T07:59:31.000Z</time>
      </trkpt>
      <trkpt lat="43.234718050807714" lon="-6.8414190877228975">
        <ele>407.2</ele>
        <time>2017-08-07T07:59:38.000Z</time>
      </trkpt>
      <trkpt lat="43.23476783931255" lon="-6.841288665309548">
        <ele>407</ele>
        <time>2017-08-07T07:59:45.000Z</time>
      </trkpt>
      <trkpt lat="43.23476331308484" lon="-6.841143993660808">
        <ele>410</ele>
        <time>2017-08-07T07:59:52.000Z</time>
      </trkpt>
      <trkpt lat="43.234748896211386" lon="-6.8410515412688255">
        <ele>413.2</ele>
        <time>2017-08-07T07:59:57.000Z</time>
      </trkpt>
      <trkpt lat="43.234740514308214" lon="-6.840931009501219">
        <ele>417.2</ele>
        <time>2017-08-07T08:00:04.000Z</time>
      </trkpt>
      <trkpt lat="43.234749818220735" lon="-6.840919526293874">
        <ele>417</ele>
        <time>2017-08-07T08:00:05.000Z</time>
      </trkpt>
      <trkpt lat="43.23475778102875" lon="-6.8408674746751785">
        <ele>417.6</ele>
        <time>2017-08-07T08:00:08.000Z</time>
      </trkpt>
      <trkpt lat="43.234777646139264" lon="-6.840768065303564">
        <ele>418.8</ele>
        <time>2017-08-07T08:00:13.000Z</time>
      </trkpt>
      <trkpt lat="43.23485559783876" lon="-6.840621717274189">
        <ele>417.6</ele>
        <time>2017-08-07T08:00:21.000Z</time>
      </trkpt>
      <trkpt lat="43.23494737967849" lon="-6.840481236577034">
        <ele>416.8</ele>
        <time>2017-08-07T08:00:29.000Z</time>
      </trkpt>
      <trkpt lat="43.23501183651388" lon="-6.840373445302248">
        <ele>416.4</ele>
        <time>2017-08-07T08:00:38.000Z</time>
      </trkpt>
      <trkpt lat="43.235064558684826" lon="-6.840273197740316">
        <ele>416.4</ele>
        <time>2017-08-07T08:00:46.000Z</time>
      </trkpt>
      <trkpt lat="43.23512725532055" lon="-6.840155180543661">
        <ele>416.4</ele>
        <time>2017-08-07T08:00:54.000Z</time>
      </trkpt>
      <trkpt lat="43.2351556699723" lon="-6.840090304613113">
        <ele>416.6</ele>
        <time>2017-08-07T08:00:58.000Z</time>
      </trkpt>
      <trkpt lat="43.235185174271464" lon="-6.840033307671547">
        <ele>416.8</ele>
        <time>2017-08-07T08:01:03.000Z</time>
      </trkpt>
      <trkpt lat="43.23521216399968" lon="-6.839979076758027">
        <ele>417</ele>
        <time>2017-08-07T08:01:05.000Z</time>
      </trkpt>
      <trkpt lat="43.23524602688849" lon="-6.839892575517297">
        <ele>418</ele>
        <time>2017-08-07T08:01:10.000Z</time>
      </trkpt>
      <trkpt lat="43.23528961278498" lon="-6.839784700423479">
        <ele>418.8</ele>
        <time>2017-08-07T08:01:17.000Z</time>
      </trkpt>
      <trkpt lat="43.235343508422375" lon="-6.839689817279577">
        <ele>418</ele>
        <time>2017-08-07T08:01:24.000Z</time>
      </trkpt>
      <trkpt lat="43.23535046540201" lon="-6.839696690440178">
        <ele>417.4</ele>
        <time>2017-08-07T08:01:26.000Z</time>
      </trkpt>
      <trkpt lat="43.235349878668785" lon="-6.839723428711295">
        <ele>416.6</ele>
        <time>2017-08-07T08:01:28.000Z</time>
      </trkpt>
      <trkpt lat="43.23532607406378" lon="-6.839795932173729">
        <ele>415.8</ele>
        <time>2017-08-07T08:01:33.000Z</time>
      </trkpt>
      <trkpt lat="43.23531090281904" lon="-6.8398278672248125">
        <ele>415.8</ele>
        <time>2017-08-07T08:01:35.000Z</time>
      </trkpt>
      <trkpt lat="43.23528626002371" lon="-6.839920068159699">
        <ele>414</ele>
        <time>2017-08-07T08:01:40.000Z</time>
      </trkpt>
      <trkpt lat="43.235265891999006" lon="-6.839985782280564">
        <ele>412.8</ele>
        <time>2017-08-07T08:01:45.000Z</time>
      </trkpt>
      <trkpt lat="43.23526354506612" lon="-6.840025931596756">
        <ele>411.4</ele>
        <time>2017-08-07T08:01:47.000Z</time>
      </trkpt>
      <trkpt lat="43.23529581539333" lon="-6.840008748695254">
        <ele>409.8</ele>
        <time>2017-08-07T08:01:51.000Z</time>
      </trkpt>
      <trkpt lat="43.23530176654458" lon="-6.839997265487909">
        <ele>409.8</ele>
        <time>2017-08-07T08:01:52.000Z</time>
      </trkpt>
      <trkpt lat="43.23534023948014" lon="-6.839939095079899">
        <ele>409.4</ele>
        <time>2017-08-07T08:01:58.000Z</time>
      </trkpt>
      <trkpt lat="43.235348369926214" lon="-6.839928450062871">
        <ele>409.2</ele>
        <time>2017-08-07T08:01:59.000Z</time>
      </trkpt>
      <trkpt lat="43.23539463803172" lon="-6.8398908991366625">
        <ele>407.4</ele>
        <time>2017-08-07T08:02:04.000Z</time>
      </trkpt>
      <trkpt lat="43.23545666411519" lon="-6.839834824204445">
        <ele>405.2</ele>
        <time>2017-08-07T08:02:10.000Z</time>
      </trkpt>
      <trkpt lat="43.235529670491815" lon="-6.839751843363047">
        <ele>403.2</ele>
        <time>2017-08-07T08:02:17.000Z</time>
      </trkpt>
      <trkpt lat="43.23554148897529" lon="-6.839746478945017">
        <ele>402.6</ele>
        <time>2017-08-07T08:02:18.000Z</time>
      </trkpt>
      <trkpt lat="43.235606951639056" lon="-6.839690823107958">
        <ele>400.4</ele>
        <time>2017-08-07T08:02:24.000Z</time>
      </trkpt>
      <trkpt lat="43.23565598577261" lon="-6.83962594717741">
        <ele>399.6</ele>
        <time>2017-08-07T08:02:28.000Z</time>
      </trkpt>
      <trkpt lat="43.23568984866142" lon="-6.839598538354039">
        <ele>398.4</ele>
        <time>2017-08-07T08:02:30.000Z</time>
      </trkpt>
      <trkpt lat="43.23573913425207" lon="-6.8395651783794165">
        <ele>396.4</ele>
        <time>2017-08-07T08:02:35.000Z</time>
      </trkpt>
      <trkpt lat="43.235770650207996" lon="-6.83954581618309">
        <ele>395</ele>
        <time>2017-08-07T08:02:40.000Z</time>
      </trkpt>
      <trkpt lat="43.23577777482569" lon="-6.839537685737014">
        <ele>394.8</ele>
        <time>2017-08-07T08:02:41.000Z</time>
      </trkpt>
      <trkpt lat="43.23584424331784" lon="-6.839487981051207">
        <ele>392.4</ele>
        <time>2017-08-07T08:02:47.000Z</time>
      </trkpt>
      <trkpt lat="43.235900988802314" lon="-6.839450346305966">
        <ele>390.2</ele>
        <time>2017-08-07T08:02:51.000Z</time>
      </trkpt>
      <trkpt lat="43.235972402617335" lon="-6.83940265327692">
        <ele>387.4</ele>
        <time>2017-08-07T08:02:57.000Z</time>
      </trkpt>
      <trkpt lat="43.23599260300398" lon="-6.839383207261562">
        <ele>386.8</ele>
        <time>2017-08-07T08:02:58.000Z</time>
      </trkpt>
      <trkpt lat="43.236022694036365" lon="-6.839336520060897">
        <ele>386.8</ele>
        <time>2017-08-07T08:03:02.000Z</time>
      </trkpt>
      <trkpt lat="43.23606334626675" lon="-6.839309614151716">
        <ele>385.4</ele>
        <time>2017-08-07T08:03:06.000Z</time>
      </trkpt>
      <trkpt lat="43.23607030324638" lon="-6.83930492028594">
        <ele>385.2</ele>
        <time>2017-08-07T08:03:07.000Z</time>
      </trkpt>
      <trkpt lat="43.23610072955489" lon="-6.83927851729095">
        <ele>384.6</ele>
        <time>2017-08-07T08:03:10.000Z</time>
      </trkpt>
      <trkpt lat="43.23612604290247" lon="-6.839263178408146">
        <ele>383.8</ele>
        <time>2017-08-07T08:03:12.000Z</time>
      </trkpt>
      <trkpt lat="43.236170718446374" lon="-6.839225376024842">
        <ele>382.8</ele>
        <time>2017-08-07T08:03:16.000Z</time>
      </trkpt>
      <trkpt lat="43.2362299785018" lon="-6.839181873947382">
        <ele>381.4</ele>
        <time>2017-08-07T08:03:21.000Z</time>
      </trkpt>
      <trkpt lat="43.23624137789011" lon="-6.839173743501306">
        <ele>381</ele>
        <time>2017-08-07T08:03:22.000Z</time>
      </trkpt>
      <trkpt lat="43.23627817444503" lon="-6.839149100705981">
        <ele>380</ele>
        <time>2017-08-07T08:03:25.000Z</time>
      </trkpt>
      <trkpt lat="43.23632653802633" lon="-6.8391151539981365">
        <ele>378.6</ele>
        <time>2017-08-07T08:03:29.000Z</time>
      </trkpt>
      <trkpt lat="43.23635654523969" lon="-6.8390812911093235">
        <ele>378.4</ele>
        <time>2017-08-07T08:03:32.000Z</time>
      </trkpt>
      <trkpt lat="43.236384792253375" lon="-6.839043404906988">
        <ele>378.4</ele>
        <time>2017-08-07T08:03:35.000Z</time>
      </trkpt>
      <trkpt lat="43.23640851303935" lon="-6.839004093781114">
        <ele>378.8</ele>
        <time>2017-08-07T08:03:38.000Z</time>
      </trkpt>
      <trkpt lat="43.23641982860863" lon="-6.838996047154069">
        <ele>378.4</ele>
        <time>2017-08-07T08:03:39.000Z</time>
      </trkpt>
      <trkpt lat="43.236439526081085" lon="-6.839006273075938">
        <ele>376.8</ele>
        <time>2017-08-07T08:03:41.000Z</time>
      </trkpt>
      <trkpt lat="43.236424438655376" lon="-6.83906645514071">
        <ele>375.2</ele>
        <time>2017-08-07T08:03:46.000Z</time>
      </trkpt>
      <trkpt lat="43.2363922521472" lon="-6.839115908369422">
        <ele>374.8</ele>
        <time>2017-08-07T08:03:50.000Z</time>
      </trkpt>
      <trkpt lat="43.23638361878693" lon="-6.8391310796141624">
        <ele>374.6</ele>
        <time>2017-08-07T08:03:51.000Z</time>
      </trkpt>
      <trkpt lat="43.236353946849704" lon="-6.839208276942372">
        <ele>373</ele>
        <time>2017-08-07T08:03:57.000Z</time>
      </trkpt>
      <trkpt lat="43.23632108978927" lon="-6.839252365753055">
        <ele>373</ele>
        <time>2017-08-07T08:04:02.000Z</time>
      </trkpt>
      <trkpt lat="43.23630147613585" lon="-6.8392665311694145">
        <ele>373.6</ele>
        <time>2017-08-07T08:04:04.000Z</time>
      </trkpt>
      <trkpt lat="43.23624481447041" lon="-6.839343644678593">
        <ele>373.4</ele>
        <time>2017-08-07T08:04:11.000Z</time>
      </trkpt>
      <trkpt lat="43.2362212613225" lon="-6.839385386556387">
        <ele>373</ele>
        <time>2017-08-07T08:04:14.000Z</time>
      </trkpt>
      <trkpt lat="43.23621061630547" lon="-6.839405503123999">
        <ele>372.6</ele>
        <time>2017-08-07T08:04:16.000Z</time>
      </trkpt>
      <trkpt lat="43.23617214336991" lon="-6.839454118162394">
        <ele>372.8</ele>
        <time>2017-08-07T08:04:21.000Z</time>
      </trkpt>
      <trkpt lat="43.236128222197294" lon="-6.839518826454878">
        <ele>372.4</ele>
        <time>2017-08-07T08:04:27.000Z</time>
      </trkpt>
      <trkpt lat="43.23609377257526" lon="-6.839614128693938">
        <ele>370.6</ele>
        <time>2017-08-07T08:04:33.000Z</time>
      </trkpt>
      <trkpt lat="43.236085223034024" lon="-6.839630221948028">
        <ele>370.4</ele>
        <time>2017-08-07T08:04:34.000Z</time>
      </trkpt>
      <trkpt lat="43.23602990247309" lon="-6.839719908311963">
        <ele>370.4</ele>
        <time>2017-08-07T08:04:41.000Z</time>
      </trkpt>
      <trkpt lat="43.23598480783403" lon="-6.839789729565382">
        <ele>370.6</ele>
        <time>2017-08-07T08:04:47.000Z</time>
      </trkpt>
      <trkpt lat="43.235940132290125" lon="-6.8398823495954275">
        <ele>370.6</ele>
        <time>2017-08-07T08:04:54.000Z</time>
      </trkpt>
      <trkpt lat="43.23591062799096" lon="-6.839946219697595">
        <ele>370.4</ele>
        <time>2017-08-07T08:04:59.000Z</time>
      </trkpt>
      <trkpt lat="43.23589579202235" lon="-6.8399718683212996">
        <ele>370.6</ele>
        <time>2017-08-07T08:05:01.000Z</time>
      </trkpt>
      <trkpt lat="43.23588506318629" lon="-6.839999025687575">
        <ele>370.6</ele>
        <time>2017-08-07T08:05:03.000Z</time>
      </trkpt>
      <trkpt lat="43.235879112035036" lon="-6.840015454217792">
        <ele>370.4</ele>
        <time>2017-08-07T08:05:04.000Z</time>
      </trkpt>
      <trkpt lat="43.235840471461415" lon="-6.840076055377722">
        <ele>371</ele>
        <time>2017-08-07T08:05:08.000Z</time>
      </trkpt>
      <trkpt lat="43.23582303710282" lon="-6.8401100020855665">
        <ele>371.2</ele>
        <time>2017-08-07T08:05:10.000Z</time>
      </trkpt>
      <trkpt lat="43.23578288778663" lon="-6.840236485004425">
        <ele>369.4</ele>
        <time>2017-08-07T08:05:17.000Z</time>
      </trkpt>
      <trkpt lat="43.235762771219015" lon="-6.840287111699581">
        <ele>368.8</ele>
        <time>2017-08-07T08:05:20.000Z</time>
      </trkpt>
      <trkpt lat="43.23575614951551" lon="-6.840326590463519">
        <ele>368</ele>
        <time>2017-08-07T08:05:22.000Z</time>
      </trkpt>
      <trkpt lat="43.23572496883571" lon="-6.840439243242145">
        <ele>366.2</ele>
        <time>2017-08-07T08:05:28.000Z</time>
      </trkpt>
      <trkpt lat="43.23571063578129" lon="-6.840517111122608">
        <ele>364.6</ele>
        <time>2017-08-07T08:05:32.000Z</time>
      </trkpt>
      <trkpt lat="43.235706025734544" lon="-6.84054016135633">
        <ele>364.2</ele>
        <time>2017-08-07T08:05:33.000Z</time>
      </trkpt>
      <trkpt lat="43.23570636101067" lon="-6.840560864657164">
        <ele>363.6</ele>
        <time>2017-08-07T08:05:34.000Z</time>
      </trkpt>
      <trkpt lat="43.23569932021201" lon="-6.840620711445808">
        <ele>362</ele>
        <time>2017-08-07T08:05:37.000Z</time>
      </trkpt>
      <trkpt lat="43.23568783700466" lon="-6.840661531314254">
        <ele>361.6</ele>
        <time>2017-08-07T08:05:39.000Z</time>
      </trkpt>
      <trkpt lat="43.23563737794757" lon="-6.840752642601728">
        <ele>362.4</ele>
        <time>2017-08-07T08:05:45.000Z</time>
      </trkpt>
      <trkpt lat="43.235620027408004" lon="-6.840795306488872">
        <ele>362.4</ele>
        <time>2017-08-07T08:05:48.000Z</time>
      </trkpt>
      <trkpt lat="43.23560711927712" lon="-6.840842831879854">
        <ele>362</ele>
        <time>2017-08-07T08:05:51.000Z</time>
      </trkpt>
      <trkpt lat="43.23558968491852" lon="-6.840906869620085">
        <ele>361.2</ele>
        <time>2017-08-07T08:05:55.000Z</time>
      </trkpt>
      <trkpt lat="43.2355737593025" lon="-6.840936373919249">
        <ele>361.6</ele>
        <time>2017-08-07T08:05:57.000Z</time>
      </trkpt>
      <trkpt lat="43.235572753474116" lon="-6.840949784964323">
        <ele>361.2</ele>
        <time>2017-08-07T08:05:58.000Z</time>
      </trkpt>
      <trkpt lat="43.235559510067105" lon="-6.8409808818250895">
        <ele>361.4</ele>
        <time>2017-08-07T08:06:00.000Z</time>
      </trkpt>
      <trkpt lat="43.2355476077646" lon="-6.841055564582348">
        <ele>360.4</ele>
        <time>2017-08-07T08:06:04.000Z</time>
      </trkpt>
      <trkpt lat="43.23554551228881" lon="-6.841070484369993">
        <ele>360</ele>
        <time>2017-08-07T08:06:05.000Z</time>
      </trkpt>
      <trkpt lat="43.23554148897529" lon="-6.841103257611394">
        <ele>359.6</ele>
        <time>2017-08-07T08:06:07.000Z</time>
      </trkpt>
      <trkpt lat="43.235561437904835" lon="-6.841105688363314">
        <ele>358</ele>
        <time>2017-08-07T08:06:09.000Z</time>
      </trkpt>
      <trkpt lat="43.23558364994824" lon="-6.841057492420077">
        <ele>357.8</ele>
        <time>2017-08-07T08:06:14.000Z</time>
      </trkpt>
      <trkpt lat="43.23561650700867" lon="-6.841028239578009">
        <ele>356.2</ele>
        <time>2017-08-07T08:06:19.000Z</time>
      </trkpt>
      <trkpt lat="43.235640060156584" lon="-6.840972248464823">
        <ele>356</ele>
        <time>2017-08-07T08:06:24.000Z</time>
      </trkpt>
      <trkpt lat="43.23564668186009" lon="-6.840951880440116">
        <ele>356.2</ele>
        <time>2017-08-07T08:06:26.000Z</time>
      </trkpt>
      <trkpt lat="43.235678784549236" lon="-6.8409196101129055">
        <ele>354.8</ele>
        <time>2017-08-07T08:06:30.000Z</time>
      </trkpt>
      <trkpt lat="43.23569697327912" lon="-6.840905528515577">
        <ele>354</ele>
        <time>2017-08-07T08:06:32.000Z</time>
      </trkpt>
      <trkpt lat="43.235732009634376" lon="-6.840887423604727">
        <ele>352</ele>
        <time>2017-08-07T08:06:35.000Z</time>
      </trkpt>
      <trkpt lat="43.23574533686042" lon="-6.8408611882478">
        <ele>352</ele>
        <time>2017-08-07T08:06:37.000Z</time>
      </trkpt>
      <trkpt lat="43.23576847091317" lon="-6.840805616229773">
        <ele>352</ele>
        <time>2017-08-07T08:06:41.000Z</time>
      </trkpt>
      <trkpt lat="43.23577760718763" lon="-6.840773932635784">
        <ele>352.4</ele>
        <time>2017-08-07T08:06:43.000Z</time>
      </trkpt>
      <trkpt lat="43.23579344898462" lon="-6.840736046433449">
        <ele>352.6</ele>
        <time>2017-08-07T08:06:46.000Z</time>
      </trkpt>
      <trkpt lat="43.235809709876776" lon="-6.84071165509522">
        <ele>352.4</ele>
        <time>2017-08-07T08:06:48.000Z</time>
      </trkpt>
      <trkpt lat="43.235833682119846" lon="-6.840621046721935">
        <ele>353.4</ele>
        <time>2017-08-07T08:06:54.000Z</time>
      </trkpt>
      <trkpt lat="43.2358618453145" lon="-6.840548375621438">
        <ele>353.6</ele>
        <time>2017-08-07T08:06:59.000Z</time>
      </trkpt>
      <trkpt lat="43.235904509201646" lon="-6.8404460325837135">
        <ele>354.2</ele>
        <time>2017-08-07T08:07:06.000Z</time>
      </trkpt>
      <trkpt lat="43.23592680506408" lon="-6.840405380353332">
        <ele>354.2</ele>
        <time>2017-08-07T08:07:09.000Z</time>
      </trkpt>
      <trkpt lat="43.235956309363246" lon="-6.840371852740645">
        <ele>353.2</ele>
        <time>2017-08-07T08:07:11.000Z</time>
      </trkpt>
      <trkpt lat="43.236026130616665" lon="-6.840279567986727">
        <ele>351.8</ele>
        <time>2017-08-07T08:07:17.000Z</time>
      </trkpt>
      <trkpt lat="43.236042810603976" lon="-6.840254422277212">
        <ele>351.6</ele>
        <time>2017-08-07T08:07:19.000Z</time>
      </trkpt>
      <trkpt lat="43.23608539067209" lon="-6.840205052867532">
        <ele>350.8</ele>
        <time>2017-08-07T08:07:23.000Z</time>
      </trkpt>
      <trkpt lat="43.23615621775389" lon="-6.840132549405098">
        <ele>349.4</ele>
        <time>2017-08-07T08:07:29.000Z</time>
      </trkpt>
      <trkpt lat="43.23618044145405" lon="-6.8401111755520105">
        <ele>348.8</ele>
        <time>2017-08-07T08:07:31.000Z</time>
      </trkpt>
      <trkpt lat="43.23621153831482" lon="-6.840077396482229">
        <ele>348.2</ele>
        <time>2017-08-07T08:07:34.000Z</time>
      </trkpt>
      <trkpt lat="43.236266104504466" lon="-6.8400228302925825">
        <ele>347</ele>
        <time>2017-08-07T08:07:39.000Z</time>
      </trkpt>
      <trkpt lat="43.23629468679428" lon="-6.839980166405439">
        <ele>346.8</ele>
        <time>2017-08-07T08:07:43.000Z</time>
      </trkpt>
      <trkpt lat="43.23632352054119" lon="-6.839946638792753">
        <ele>346.4</ele>
        <time>2017-08-07T08:07:46.000Z</time>
      </trkpt>
      <trkpt lat="43.23635470122099" lon="-6.839921660721302">
        <ele>345.4</ele>
        <time>2017-08-07T08:07:49.000Z</time>
      </trkpt>
      <trkpt lat="43.236420415341854" lon="-6.839888971298933">
        <ele>343</ele>
        <time>2017-08-07T08:07:55.000Z</time>
      </trkpt>
      <trkpt lat="43.236518651247025" lon="-6.839868854731321">
        <ele>338.4</ele>
        <time>2017-08-07T08:08:02.000Z</time>
      </trkpt>
      <trkpt lat="43.23650482110679" lon="-6.839904394000769">
        <ele>338</ele>
        <time>2017-08-07T08:08:06.000Z</time>
      </trkpt>
      <trkpt lat="43.23647799901664" lon="-6.839918559417129">
        <ele>339</ele>
        <time>2017-08-07T08:08:09.000Z</time>
      </trkpt>
      <trkpt lat="43.23644799180329" lon="-6.839950243011117">
        <ele>339.6</ele>
        <time>2017-08-07T08:08:13.000Z</time>
      </trkpt>
      <trkpt lat="43.236432736739516" lon="-6.839963402599096">
        <ele>340</ele>
        <time>2017-08-07T08:08:18.000Z</time>
      </trkpt>
      <trkpt lat="43.236432652920485" lon="-6.8399636540561914">
        <ele>340</ele>
        <time>2017-08-07T08:08:25.000Z</time>
      </trkpt>
      <trkpt lat="43.2364110276103" lon="-6.840004390105605">
        <ele>339.8</ele>
        <time>2017-08-07T08:08:33.000Z</time>
      </trkpt>
      <trkpt lat="43.23640591464937" lon="-6.840016795322299">
        <ele>339.6</ele>
        <time>2017-08-07T08:08:34.000Z</time>
      </trkpt>
      <trkpt lat="43.236379930749536" lon="-6.8400732055306435">
        <ele>339.4</ele>
        <time>2017-08-07T08:08:39.000Z</time>
      </trkpt>
      <trkpt lat="43.23637381196022" lon="-6.840102039277554">
        <ele>338.8</ele>
        <time>2017-08-07T08:08:41.000Z</time>
      </trkpt>
      <trkpt lat="43.23635470122099" lon="-6.840153755620122">
        <ele>338.4</ele>
        <time>2017-08-07T08:08:45.000Z</time>
      </trkpt>
      <trkpt lat="43.23632393963635" lon="-6.8402389995753765">
        <ele>337.4</ele>
        <time>2017-08-07T08:08:52.000Z</time>
      </trkpt>
      <trkpt lat="43.23630139231682" lon="-6.840286692604423">
        <ele>337.2</ele>
        <time>2017-08-07T08:08:56.000Z</time>
      </trkpt>
      <trkpt lat="43.23629326187074" lon="-6.840308401733637">
        <ele>337</ele>
        <time>2017-08-07T08:08:58.000Z</time>
      </trkpt>
      <trkpt lat="43.236268535256386" lon="-6.840363638475537">
        <ele>336.6</ele>
        <time>2017-08-07T08:09:03.000Z</time>
      </trkpt>
      <trkpt lat="43.23626987636089" lon="-6.840378222987056">
        <ele>336.2</ele>
        <time>2017-08-07T08:09:04.000Z</time>
      </trkpt>
      <trkpt lat="43.23626543395221" lon="-6.840445194393396">
        <ele>334.6</ele>
        <time>2017-08-07T08:09:08.000Z</time>
      </trkpt>
      <trkpt lat="43.23626291938126" lon="-6.84048056602478">
        <ele>333.6</ele>
        <time>2017-08-07T08:09:10.000Z</time>
      </trkpt>
      <trkpt lat="43.23623240925372" lon="-6.84055139310658">
        <ele>333</ele>
        <time>2017-08-07T08:09:15.000Z</time>
      </trkpt>
      <trkpt lat="43.2362299785018" lon="-6.840566983446479">
        <ele>332.6</ele>
        <time>2017-08-07T08:09:16.000Z</time>
      </trkpt>
      <trkpt lat="43.23621011339128" lon="-6.840653652325273">
        <ele>331</ele>
        <time>2017-08-07T08:09:21.000Z</time>
      </trkpt>
      <trkpt lat="43.236205419525504" lon="-6.840684078633785">
        <ele>330</ele>
        <time>2017-08-07T08:09:23.000Z</time>
      </trkpt>
      <trkpt lat="43.2362109515816" lon="-6.840689526870847">
        <ele>329.4</ele>
        <time>2017-08-07T08:09:24.000Z</time>
      </trkpt>
      <trkpt lat="43.23618723079562" lon="-6.840737471356988">
        <ele>329</ele>
        <time>2017-08-07T08:09:27.000Z</time>
      </trkpt>
      <trkpt lat="43.23615504428744" lon="-6.8408445082604885">
        <ele>326.4</ele>
        <time>2017-08-07T08:09:33.000Z</time>
      </trkpt>
      <trkpt lat="43.236144902184606" lon="-6.840960681438446">
        <ele>321.8</ele>
        <time>2017-08-07T08:09:40.000Z</time>
      </trkpt>
      <trkpt lat="43.23614716529846" lon="-6.840977445244789">
        <ele>321</ele>
        <time>2017-08-07T08:09:41.000Z</time>
      </trkpt>
      <trkpt lat="43.23612671345472" lon="-6.841059923171997">
        <ele>319</ele>
        <time>2017-08-07T08:09:45.000Z</time>
      </trkpt>
      <trkpt lat="43.236068710684776" lon="-6.841143406927586">
        <ele>319.4</ele>
        <time>2017-08-07T08:09:50.000Z</time>
      </trkpt>
      <trkpt lat="43.23606041260064" lon="-6.841162098571658">
        <ele>319.2</ele>
        <time>2017-08-07T08:09:51.000Z</time>
      </trkpt>
      <trkpt lat="43.23604021221399" lon="-6.841226555407047">
        <ele>318.4</ele>
        <time>2017-08-07T08:09:55.000Z</time>
      </trkpt>
      <trkpt lat="43.23604540899396" lon="-6.841264609247446">
        <ele>317</ele>
        <time>2017-08-07T08:09:57.000Z</time>
      </trkpt>
      <trkpt lat="43.23604247532785" lon="-6.841339794918895">
        <ele>315.4</ele>
        <time>2017-08-07T08:10:01.000Z</time>
      </trkpt>
      <trkpt lat="43.236041301861405" lon="-6.841351110488176">
        <ele>315.2</ele>
        <time>2017-08-07T08:10:02.000Z</time>
      </trkpt>
      <trkpt lat="43.23604071512818" lon="-6.841398635879159">
        <ele>314</ele>
        <time>2017-08-07T08:10:05.000Z</time>
      </trkpt>
      <trkpt lat="43.23605337180197" lon="-6.841421015560627">
        <ele>312.6</ele>
        <time>2017-08-07T08:10:07.000Z</time>
      </trkpt>
      <trkpt lat="43.2360502704978" lon="-6.8414838798344135">
        <ele>311.2</ele>
        <time>2017-08-07T08:10:11.000Z</time>
      </trkpt>
      <trkpt lat="43.23604691773653" lon="-6.8415142223238945">
        <ele>311</ele>
        <time>2017-08-07T08:10:13.000Z</time>
      </trkpt>
      <trkpt lat="43.236038787290454" lon="-6.841562502086163">
        <ele>310.8</ele>
        <time>2017-08-07T08:10:16.000Z</time>
      </trkpt>
      <trkpt lat="43.23603677563369" lon="-6.841670544818044">
        <ele>309.4</ele>
        <time>2017-08-07T08:10:22.000Z</time>
      </trkpt>
      <trkpt lat="43.23602797463536" lon="-6.841752519831061">
        <ele>308.6</ele>
        <time>2017-08-07T08:10:27.000Z</time>
      </trkpt>
      <trkpt lat="43.23602428659797" lon="-6.84177003800869">
        <ele>308.6</ele>
        <time>2017-08-07T08:10:28.000Z</time>
      </trkpt>
      <trkpt lat="43.236006097868085" lon="-6.841839691624045">
        <ele>307.8</ele>
        <time>2017-08-07T08:10:32.000Z</time>
      </trkpt>
      <trkpt lat="43.23599520139396" lon="-6.841902723535895">
        <ele>306.6</ele>
        <time>2017-08-07T08:10:36.000Z</time>
      </trkpt>
      <trkpt lat="43.23598095215857" lon="-6.841969946399331">
        <ele>305.6</ele>
        <time>2017-08-07T08:10:40.000Z</time>
      </trkpt>
      <trkpt lat="43.23598246090114" lon="-6.8419889733195305">
        <ele>305</ele>
        <time>2017-08-07T08:10:41.000Z</time>
      </trkpt>
      <trkpt lat="43.23597894050181" lon="-6.841999785974622">
        <ele>305</ele>
        <time>2017-08-07T08:10:42.000Z</time>
      </trkpt>
      <trkpt lat="43.23595471680164" lon="-6.8420893885195255">
        <ele>304.2</ele>
        <time>2017-08-07T08:10:48.000Z</time>
      </trkpt>
      <trkpt lat="43.23595614172518" lon="-6.842104643583298">
        <ele>303.6</ele>
        <time>2017-08-07T08:10:49.000Z</time>
      </trkpt>
      <trkpt lat="43.2359931897372" lon="-6.8421156238764524">
        <ele>300.8</ele>
        <time>2017-08-07T08:10:53.000Z</time>
      </trkpt>
      <trkpt lat="43.23599218390882" lon="-6.842060219496489">
        <ele>302.4</ele>
        <time>2017-08-07T08:10:57.000Z</time>
      </trkpt>
      <trkpt lat="43.236023699864745" lon="-6.842020992189646">
        <ele>301.4</ele>
        <time>2017-08-07T08:11:01.000Z</time>
      </trkpt>
      <trkpt lat="43.23605907149613" lon="-6.8419477343559265">
        <ele>301.2</ele>
        <time>2017-08-07T08:11:07.000Z</time>
      </trkpt>
      <trkpt lat="43.236098969355226" lon="-6.841865591704845">
        <ele>300.6</ele>
        <time>2017-08-07T08:11:14.000Z</time>
      </trkpt>
      <trkpt lat="43.2361002266407" lon="-6.841776156798005">
        <ele>303</ele>
        <time>2017-08-07T08:11:20.000Z</time>
      </trkpt>
      <trkpt lat="43.23611045256257" lon="-6.841687643900514">
        <ele>304.6</ele>
        <time>2017-08-07T08:11:26.000Z</time>
      </trkpt>
      <trkpt lat="43.23611774481833" lon="-6.841606926172972">
        <ele>305.4</ele>
        <time>2017-08-07T08:11:32.000Z</time>
      </trkpt>
      <trkpt lat="43.23613107204437" lon="-6.841558897867799">
        <ele>305.2</ele>
        <time>2017-08-07T08:11:36.000Z</time>
      </trkpt>
      <trkpt lat="43.23613232932985" lon="-6.841547917574644">
        <ele>305.2</ele>
        <time>2017-08-07T08:11:37.000Z</time>
      </trkpt>
      <trkpt lat="43.23614221997559" lon="-6.841537356376648">
        <ele>304.8</ele>
        <time>2017-08-07T08:11:38.000Z</time>
      </trkpt>
      <trkpt lat="43.236189326271415" lon="-6.841482790187001">
        <ele>302.8</ele>
        <time>2017-08-07T08:11:43.000Z</time>
      </trkpt>
      <trkpt lat="43.236200558021665" lon="-6.841471306979656">
        <ele>302.2</ele>
        <time>2017-08-07T08:11:45.000Z</time>
      </trkpt>
      <trkpt lat="43.23621899820864" lon="-6.84145487844944">
        <ele>301.4</ele>
        <time>2017-08-07T08:11:48.000Z</time>
      </trkpt>
      <trkpt lat="43.23624540120363" lon="-6.841407688334584">
        <ele>300.6</ele>
        <time>2017-08-07T08:11:52.000Z</time>
      </trkpt>
      <trkpt lat="43.23625956661999" lon="-6.841381033882499">
        <ele>300.2</ele>
        <time>2017-08-07T08:11:54.000Z</time>
      </trkpt>
      <trkpt lat="43.23631036095321" lon="-6.841336358338594">
        <ele>298</ele>
        <time>2017-08-07T08:11:59.000Z</time>
      </trkpt>
      <trkpt lat="43.236352521926165" lon="-6.841276763007045">
        <ele>296.4</ele>
        <time>2017-08-07T08:12:04.000Z</time>
      </trkpt>
      <trkpt lat="43.236405244097114" lon="-6.841231668367982">
        <ele>293.8</ele>
        <time>2017-08-07T08:12:09.000Z</time>
      </trkpt>
      <trkpt lat="43.23645746335387" lon="-6.841184478253126">
        <ele>291.8</ele>
        <time>2017-08-07T08:12:14.000Z</time>
      </trkpt>
      <trkpt lat="43.236482022330165" lon="-6.841169223189354">
        <ele>290.8</ele>
        <time>2017-08-07T08:12:16.000Z</time>
      </trkpt>
      <trkpt lat="43.23653005063534" lon="-6.841120105236769">
        <ele>289.8</ele>
        <time>2017-08-07T08:12:20.000Z</time>
      </trkpt>
      <trkpt lat="43.23655787855387" lon="-6.841086242347956">
        <ele>289.4</ele>
        <time>2017-08-07T08:12:23.000Z</time>
      </trkpt>
      <trkpt lat="43.236581180244684" lon="-6.841054055839777">
        <ele>289.4</ele>
        <time>2017-08-07T08:12:26.000Z</time>
      </trkpt>
      <trkpt lat="43.236589981243014" lon="-6.841043829917908">
        <ele>289.2</ele>
        <time>2017-08-07T08:12:27.000Z</time>
      </trkpt>
      <trkpt lat="43.23663189075887" lon="-6.841003512963653">
        <ele>288.2</ele>
        <time>2017-08-07T08:12:31.000Z</time>
      </trkpt>
      <trkpt lat="43.23668067343533" lon="-6.840948360040784">
        <ele>287.2</ele>
        <time>2017-08-07T08:12:36.000Z</time>
      </trkpt>
      <trkpt lat="43.23670355603099" lon="-6.840940648689866">
        <ele>286</ele>
        <time>2017-08-07T08:12:38.000Z</time>
      </trkpt>
      <trkpt lat="43.236733144149184" lon="-6.840915000066161">
        <ele>285.2</ele>
        <time>2017-08-07T08:12:41.000Z</time>
      </trkpt>
      <trkpt lat="43.23673783801496" lon="-6.840908965095878">
        <ele>285.4</ele>
        <time>2017-08-07T08:12:42.000Z</time>
      </trkpt>
      <trkpt lat="43.236772706732154" lon="-6.840888764709234">
        <ele>284.2</ele>
        <time>2017-08-07T08:12:45.000Z</time>
      </trkpt>
      <trkpt lat="43.23684873059392" lon="-6.8408300913870335">
        <ele>282.8</ele>
        <time>2017-08-07T08:12:52.000Z</time>
      </trkpt>
      <trkpt lat="43.236925257369876" lon="-6.840763203799725">
        <ele>281.8</ele>
        <time>2017-08-07T08:12:59.000Z</time>
      </trkpt>
      <trkpt lat="43.2369723636657" lon="-6.840738141909242">
        <ele>280</ele>
        <time>2017-08-07T08:13:03.000Z</time>
      </trkpt>
      <trkpt lat="43.23699382133782" lon="-6.840719534084201">
        <ele>279.6</ele>
        <time>2017-08-07T08:13:05.000Z</time>
      </trkpt>
      <trkpt lat="43.23701988905668" lon="-6.840688856318593">
        <ele>279.8</ele>
        <time>2017-08-07T08:13:08.000Z</time>
      </trkpt>
      <trkpt lat="43.23705584742129" lon="-6.840658765286207">
        <ele>279.2</ele>
        <time>2017-08-07T08:13:11.000Z</time>
      </trkpt>
      <trkpt lat="43.23709440417588" lon="-6.840622471645474">
        <ele>278.4</ele>
        <time>2017-08-07T08:13:15.000Z</time>
      </trkpt>
      <trkpt lat="43.237106474116445" lon="-6.840615179389715">
        <ele>277.8</ele>
        <time>2017-08-07T08:13:16.000Z</time>
      </trkpt>
      <trkpt lat="43.237229604274035" lon="-6.840547537431121">
        <ele>273.6</ele>
        <time>2017-08-07T08:13:25.000Z</time>
      </trkpt>
      <trkpt lat="43.23724343441427" lon="-6.840542508289218">
        <ele>273</ele>
        <time>2017-08-07T08:13:26.000Z</time>
      </trkpt>
      <trkpt lat="43.23731191456318" lon="-6.840484756976366">
        <ele>272</ele>
        <time>2017-08-07T08:13:31.000Z</time>
      </trkpt>
      <trkpt lat="43.237331779673696" lon="-6.840459778904915">
        <ele>272</ele>
        <time>2017-08-07T08:13:33.000Z</time>
      </trkpt>
      <trkpt lat="43.23734611272812" lon="-6.840438405051827">
        <ele>272.4</ele>
        <time>2017-08-07T08:13:35.000Z</time>
      </trkpt>
      <trkpt lat="43.23739313520491" lon="-6.840389119461179">
        <ele>272.2</ele>
        <time>2017-08-07T08:13:40.000Z</time>
      </trkpt>
      <trkpt lat="43.23740545660257" lon="-6.8403753731399775">
        <ele>272</ele>
        <time>2017-08-07T08:13:41.000Z</time>
      </trkpt>
      <trkpt lat="43.23742934502661" lon="-6.840357184410095">
        <ele>271.6</ele>
        <time>2017-08-07T08:13:43.000Z</time>
      </trkpt>
      <trkpt lat="43.237457340583205" lon="-6.840335475280881">
        <ele>271.2</ele>
        <time>2017-08-07T08:13:45.000Z</time>
      </trkpt>
      <trkpt lat="43.23746387846768" lon="-6.8403249979019165">
        <ele>271.4</ele>
        <time>2017-08-07T08:13:46.000Z</time>
      </trkpt>
      <trkpt lat="43.23750679381192" lon="-6.840291051194072">
        <ele>270.8</ele>
        <time>2017-08-07T08:13:50.000Z</time>
      </trkpt>
      <trkpt lat="43.23751861229539" lon="-6.8402825854718685">
        <ele>270.6</ele>
        <time>2017-08-07T08:13:51.000Z</time>
      </trkpt>
      <trkpt lat="43.23757284320891" lon="-6.840237658470869">
        <ele>270.2</ele>
        <time>2017-08-07T08:13:56.000Z</time>
      </trkpt>
      <trkpt lat="43.23761106468737" lon="-6.840200191363692">
        <ele>270</ele>
        <time>2017-08-07T08:13:59.000Z</time>
      </trkpt>
      <trkpt lat="43.23762380518019" lon="-6.840193988755345">
        <ele>269.6</ele>
        <time>2017-08-07T08:14:00.000Z</time>
      </trkpt>
      <trkpt lat="43.23764434084296" lon="-6.840175716206431">
        <ele>269.6</ele>
        <time>2017-08-07T08:14:02.000Z</time>
      </trkpt>
      <trkpt lat="43.237731512635946" lon="-6.8401208985596895">
        <ele>268.2</ele>
        <time>2017-08-07T08:14:08.000Z</time>
      </trkpt>
      <trkpt lat="43.2378046028316" lon="-6.8400640692561865">
        <ele>267.2</ele>
        <time>2017-08-07T08:14:14.000Z</time>
      </trkpt>
      <trkpt lat="43.237819857895374" lon="-6.840053843334317">
        <ele>266.8</ele>
        <time>2017-08-07T08:14:15.000Z</time>
      </trkpt>
      <trkpt lat="43.23791096918285" lon="-6.839981507509947">
        <ele>265.4</ele>
        <time>2017-08-07T08:14:22.000Z</time>
      </trkpt>
      <trkpt lat="43.237938629463315" lon="-6.839972538873553">
        <ele>264.6</ele>
        <time>2017-08-07T08:14:24.000Z</time>
      </trkpt>
      <trkpt lat="43.23795245960355" lon="-6.839987961575389">
        <ele>263.8</ele>
        <time>2017-08-07T08:14:27.000Z</time>
      </trkpt>
      <trkpt lat="43.23795614764094" lon="-6.8399895541369915">
        <ele>263.6</ele>
        <time>2017-08-07T08:14:32.000Z</time>
      </trkpt>
      <trkpt lat="43.23797207325697" lon="-6.839988213032484">
        <ele>263</ele>
        <time>2017-08-07T08:14:52.000Z</time>
      </trkpt>
      <trkpt lat="43.23792857117951" lon="-6.840034648776054">
        <ele>263.4</ele>
        <time>2017-08-07T08:14:57.000Z</time>
      </trkpt>
      <trkpt lat="43.23791289702058" lon="-6.840055016800761">
        <ele>263.6</ele>
        <time>2017-08-07T08:14:59.000Z</time>
      </trkpt>
      <trkpt lat="43.237834610044956" lon="-6.8401226587593555">
        <ele>264.4</ele>
        <time>2017-08-07T08:15:06.000Z</time>
      </trkpt>
      <trkpt lat="43.23775716125965" lon="-6.8401868641376495">
        <ele>265.2</ele>
        <time>2017-08-07T08:15:13.000Z</time>
      </trkpt>
      <trkpt lat="43.23773838579655" lon="-6.840200442820787">
        <ele>265.4</ele>
        <time>2017-08-07T08:15:15.000Z</time>
      </trkpt>
      <trkpt lat="43.23771106079221" lon="-6.840224666520953">
        <ele>265.6</ele>
        <time>2017-08-07T08:15:18.000Z</time>
      </trkpt>
      <trkpt lat="43.237691866233945" lon="-6.840254673734307">
        <ele>265.2</ele>
        <time>2017-08-07T08:15:20.000Z</time>
      </trkpt>
      <trkpt lat="43.23768055066466" lon="-6.840257775038481">
        <ele>265.6</ele>
        <time>2017-08-07T08:15:21.000Z</time>
      </trkpt>
      <trkpt lat="43.23765884153545" lon="-6.840278897434473">
        <ele>265.6</ele>
        <time>2017-08-07T08:15:23.000Z</time>
      </trkpt>
      <trkpt lat="43.23764023371041" lon="-6.840295996516943">
        <ele>265.8</ele>
        <time>2017-08-07T08:15:25.000Z</time>
      </trkpt>
      <trkpt lat="43.237578459084034" lon="-6.840365482494235">
        <ele>265.8</ele>
        <time>2017-08-07T08:15:31.000Z</time>
      </trkpt>
      <trkpt lat="43.2375751901418" lon="-6.840376211330295">
        <ele>265.4</ele>
        <time>2017-08-07T08:15:32.000Z</time>
      </trkpt>
      <trkpt lat="43.23753512464464" lon="-6.8404218927025795">
        <ele>264.8</ele>
        <time>2017-08-07T08:15:37.000Z</time>
      </trkpt>
      <trkpt lat="43.23750386014581" lon="-6.8404551688581705">
        <ele>264.4</ele>
        <time>2017-08-07T08:15:40.000Z</time>
      </trkpt>
      <trkpt lat="43.237481815740466" lon="-6.840482745319605">
        <ele>263.8</ele>
        <time>2017-08-07T08:15:42.000Z</time>
      </trkpt>
      <trkpt lat="43.237457759678364" lon="-6.840507974848151">
        <ele>263.6</ele>
        <time>2017-08-07T08:15:44.000Z</time>
      </trkpt>
      <trkpt lat="43.23735533282161" lon="-6.840619705617428">
        <ele>263.2</ele>
        <time>2017-08-07T08:15:53.000Z</time>
      </trkpt>
      <trkpt lat="43.237276542931795" lon="-6.840704949572682">
        <ele>263.6</ele>
        <time>2017-08-07T08:16:00.000Z</time>
      </trkpt>
      <trkpt lat="43.23723681271076" lon="-6.840767562389374">
        <ele>262.8</ele>
        <time>2017-08-07T08:16:05.000Z</time>
      </trkpt>
      <trkpt lat="43.23721770197153" lon="-6.840795641764998">
        <ele>262.4</ele>
        <time>2017-08-07T08:16:07.000Z</time>
      </trkpt>
      <trkpt lat="43.23718626983464" lon="-6.84084752574563">
        <ele>261.8</ele>
        <time>2017-08-07T08:16:11.000Z</time>
      </trkpt>
      <trkpt lat="43.23714125901461" lon="-6.840894045308232">
        <ele>262</ele>
        <time>2017-08-07T08:16:15.000Z</time>
      </trkpt>
      <trkpt lat="43.23712181299925" lon="-6.840916927903891">
        <ele>262</ele>
        <time>2017-08-07T08:16:17.000Z</time>
      </trkpt>
      <trkpt lat="43.23705207556486" lon="-6.840985491871834">
        <ele>262.4</ele>
        <time>2017-08-07T08:16:23.000Z</time>
      </trkpt>
      <trkpt lat="43.23704025708139" lon="-6.840997897088528">
        <ele>262.4</ele>
        <time>2017-08-07T08:16:24.000Z</time>
      </trkpt>
      <trkpt lat="43.236951576545835" lon="-6.841099318116903">
        <ele>262</ele>
        <time>2017-08-07T08:16:32.000Z</time>
      </trkpt>
      <trkpt lat="43.23687270283699" lon="-6.84120032005012">
        <ele>261.2</ele>
        <time>2017-08-07T08:16:39.000Z</time>
      </trkpt>
      <trkpt lat="43.23676851578057" lon="-6.8413496017456055">
        <ele>264.4</ele>
        <time>2017-08-07T08:16:49.000Z</time>
      </trkpt>
      <trkpt lat="43.23671327903867" lon="-6.841439371928573">
        <ele>266</ele>
        <time>2017-08-07T08:16:55.000Z</time>
      </trkpt>
      <trkpt lat="43.23671051301062" lon="-6.841456973925233">
        <ele>265.6</ele>
        <time>2017-08-07T08:16:56.000Z</time>
      </trkpt>
      <trkpt lat="43.236699532717466" lon="-6.841541714966297">
        <ele>263.6</ele>
        <time>2017-08-07T08:17:01.000Z</time>
      </trkpt>
      <trkpt lat="43.23670690879226" lon="-6.841592341661453">
        <ele>261.2</ele>
        <time>2017-08-07T08:17:04.000Z</time>
      </trkpt>
      <trkpt lat="43.23671688325703" lon="-6.841648835688829">
        <ele>258.4</ele>
        <time>2017-08-07T08:17:07.000Z</time>
      </trkpt>
      <trkpt lat="43.236722918227315" lon="-6.841705329716206">
        <ele>256.6</ele>
        <time>2017-08-07T08:17:10.000Z</time>
      </trkpt>
      <trkpt lat="43.23672501370311" lon="-6.8417418748140335">
        <ele>255.6</ele>
        <time>2017-08-07T08:17:12.000Z</time>
      </trkpt>
      <trkpt lat="43.23674873448908" lon="-6.84185016900301">
        <ele>251.2</ele>
        <time>2017-08-07T08:17:18.000Z</time>
      </trkpt>
      <trkpt lat="43.2367461360991" lon="-6.8418708723038435">
        <ele>250.8</ele>
        <time>2017-08-07T08:17:19.000Z</time>
      </trkpt>
      <trkpt lat="43.23669928126037" lon="-6.841918649151921">
        <ele>252.8</ele>
        <time>2017-08-07T08:17:23.000Z</time>
      </trkpt>
      <trkpt lat="43.236680421978235" lon="-6.841959469020367">
        <ele>253</ele>
        <time>2017-08-07T08:17:26.000Z</time>
      </trkpt>
      <trkpt lat="43.23666734620929" lon="-6.842000037431717">
        <ele>252.2</ele>
        <time>2017-08-07T08:17:28.000Z</time>
      </trkpt>
      <trkpt lat="43.23662334121764" lon="-6.8421341478824615">
        <ele>252</ele>
        <time>2017-08-07T08:17:35.000Z</time>
      </trkpt>
      <trkpt lat="43.23656969703734" lon="-6.842252751812339">
        <ele>253.4</ele>
        <time>2017-08-07T08:17:42.000Z</time>
      </trkpt>
      <trkpt lat="43.23652091436088" lon="-6.842327183112502">
        <ele>255.2</ele>
        <time>2017-08-07T08:17:47.000Z</time>
      </trkpt>
      <trkpt lat="43.23645134456456" lon="-6.842437153682113">
        <ele>256.4</ele>
        <time>2017-08-07T08:17:55.000Z</time>
      </trkpt>
      <trkpt lat="43.236414045095444" lon="-6.8424958270043135">
        <ele>257.2</ele>
        <time>2017-08-07T08:17:59.000Z</time>
      </trkpt>
      <trkpt lat="43.23639677837491" lon="-6.842543184757233">
        <ele>257.2</ele>
        <time>2017-08-07T08:18:02.000Z</time>
      </trkpt>
      <trkpt lat="43.23634606786072" lon="-6.84270235709846">
        <ele>254.2</ele>
        <time>2017-08-07T08:18:11.000Z</time>
      </trkpt>
      <trkpt lat="43.23628982529044" lon="-6.842871252447367">
        <ele>249.6</ele>
        <time>2017-08-07T08:18:21.000Z</time>
      </trkpt>
      <trkpt lat="43.236282700672746" lon="-6.84291978366673">
        <ele>247.8</ele>
        <time>2017-08-07T08:18:25.000Z</time>
      </trkpt>
      <trkpt lat="43.23630449362099" lon="-6.842928836122155">
        <ele>246</ele>
        <time>2017-08-07T08:18:27.000Z</time>
      </trkpt>
      <trkpt lat="43.23631991632283" lon="-6.842933362349868">
        <ele>244.6</ele>
        <time>2017-08-07T08:18:30.000Z</time>
      </trkpt>
      <trkpt lat="43.23632251471281" lon="-6.842924058437347">
        <ele>245</ele>
        <time>2017-08-07T08:18:33.000Z</time>
      </trkpt>
      <trkpt lat="43.23631572537124" lon="-6.843043165281415">
        <ele>239.4</ele>
        <time>2017-08-07T08:18:42.000Z</time>
      </trkpt>
      <trkpt lat="43.236349169164896" lon="-6.8430898524820805">
        <ele>235</ele>
        <time>2017-08-07T08:18:45.000Z</time>
      </trkpt>
      <trkpt lat="43.23637071065605" lon="-6.843155398964882">
        <ele>229.4</ele>
        <time>2017-08-07T08:18:49.000Z</time>
      </trkpt>
      <trkpt lat="43.23637657798827" lon="-6.843161350116134">
        <ele>228.8</ele>
        <time>2017-08-07T08:18:50.000Z</time>
      </trkpt>
      <trkpt lat="43.2364110276103" lon="-6.843154560774565">
        <ele>226.4</ele>
        <time>2017-08-07T08:19:09.000Z</time>
      </trkpt>
      <trkpt lat="43.23641781695187" lon="-6.843159589916468">
        <ele>225.6</ele>
        <time>2017-08-07T08:19:25.000Z</time>
      </trkpt>
      <trkpt lat="43.23643960990012" lon="-6.8431484419852495">
        <ele>224.4</ele>
        <time>2017-08-07T08:19:45.000Z</time>
      </trkpt>
      <trkpt lat="43.23645302094519" lon="-6.8431072030216455">
        <ele>226</ele>
        <time>2017-08-07T08:20:15.000Z</time>
      </trkpt>
      <trkpt lat="43.23644480668008" lon="-6.843117093667388">
        <ele>226</ele>
        <time>2017-08-07T08:20:24.000Z</time>
      </trkpt>
      <trkpt lat="43.23641027323902" lon="-6.8431077897548676">
        <ele>229.2</ele>
        <time>2017-08-07T08:20:30.000Z</time>
      </trkpt>
      <trkpt lat="43.23641354218125" lon="-6.8431151658296585">
        <ele>228.6</ele>
        <time>2017-08-07T08:20:41.000Z</time>
      </trkpt>
      <trkpt lat="43.236421504989266" lon="-6.843182388693094">
        <ele>224.4</ele>
        <time>2017-08-07T08:20:53.000Z</time>
      </trkpt>
      <trkpt lat="43.23643156327307" lon="-6.843146178871393">
        <ele>225.2</ele>
        <time>2017-08-07T08:21:06.000Z</time>
      </trkpt>
      <trkpt lat="43.23643667623401" lon="-6.8431443348526955">
        <ele>224.8</ele>
        <time>2017-08-07T08:21:21.000Z</time>
      </trkpt>
      <trkpt lat="43.23644598014653" lon="-6.843159673735499">
        <ele>223.4</ele>
        <time>2017-08-07T08:21:26.000Z</time>
      </trkpt>
      <trkpt lat="43.23638806119561" lon="-6.843131510540843">
        <ele>229.6</ele>
        <time>2017-08-07T08:21:33.000Z</time>
      </trkpt>
      <trkpt lat="43.236366771161556" lon="-6.843102676793933">
        <ele>233</ele>
        <time>2017-08-07T08:21:42.000Z</time>
      </trkpt>
      <trkpt lat="43.236360903829336" lon="-6.843066131696105">
        <ele>235.4</ele>
        <time>2017-08-07T08:22:04.000Z</time>
      </trkpt>
      <trkpt lat="43.236243557184935" lon="-6.8428559973835945">
        <ele>253.2</ele>
        <time>2017-08-07T08:22:16.000Z</time>
      </trkpt>
      <trkpt lat="43.236232325434685" lon="-6.842883909121156">
        <ele>252.6</ele>
        <time>2017-08-07T08:22:17.000Z</time>
      </trkpt>
      <trkpt lat="43.23616527020931" lon="-6.84295498766005">
        <ele>253.6</ele>
        <time>2017-08-07T08:22:22.000Z</time>
      </trkpt>
      <trkpt lat="43.23613098822534" lon="-6.843043752014637">
        <ele>252</ele>
        <time>2017-08-07T08:22:28.000Z</time>
      </trkpt>
      <trkpt lat="43.236068207770586" lon="-6.843169564381242">
        <ele>250.2</ele>
        <time>2017-08-07T08:22:37.000Z</time>
      </trkpt>
      <trkpt lat="43.2359931897372" lon="-6.8433185108006">
        <ele>250.6</ele>
        <time>2017-08-07T08:22:47.000Z</time>
      </trkpt>
      <trkpt lat="43.23597474955022" lon="-6.843406688421965">
        <ele>249</ele>
        <time>2017-08-07T08:22:52.000Z</time>
      </trkpt>
      <trkpt lat="43.23597106151283" lon="-6.843443652614951">
        <ele>248.2</ele>
        <time>2017-08-07T08:22:54.000Z</time>
      </trkpt>
      <trkpt lat="43.235959159210324" lon="-6.8434739112854">
        <ele>248.6</ele>
        <time>2017-08-07T08:22:56.000Z</time>
      </trkpt>
      <trkpt lat="43.235932756215334" lon="-6.843500733375549">
        <ele>250.4</ele>
        <time>2017-08-07T08:22:58.000Z</time>
      </trkpt>
      <trkpt lat="43.235936276614666" lon="-6.8435154017060995">
        <ele>249.8</ele>
        <time>2017-08-07T08:22:59.000Z</time>
      </trkpt>
      <trkpt lat="43.23594231158495" lon="-6.843609530478716">
        <ele>246.4</ele>
        <time>2017-08-07T08:23:04.000Z</time>
      </trkpt>
      <trkpt lat="43.2359725702554" lon="-6.843701647594571">
        <ele>240.4</ele>
        <time>2017-08-07T08:23:09.000Z</time>
      </trkpt>
      <trkpt lat="43.23599075898528" lon="-6.843753196299076">
        <ele>236.8</ele>
        <time>2017-08-07T08:23:12.000Z</time>
      </trkpt>
      <trkpt lat="43.23599888943136" lon="-6.843789154663682">
        <ele>234.6</ele>
        <time>2017-08-07T08:23:14.000Z</time>
      </trkpt>
      <trkpt lat="43.23601364158094" lon="-6.843885462731123">
        <ele>229.4</ele>
        <time>2017-08-07T08:23:19.000Z</time>
      </trkpt>
      <trkpt lat="43.236034512519836" lon="-6.843974394723773">
        <ele>223.8</ele>
        <time>2017-08-07T08:23:24.000Z</time>
      </trkpt>
      <trkpt lat="43.23603023774922" lon="-6.843993254005909">
        <ele>223.6</ele>
        <time>2017-08-07T08:23:25.000Z</time>
      </trkpt>
      <trkpt lat="43.23603367432952" lon="-6.844010688364506">
        <ele>222.4</ele>
        <time>2017-08-07T08:23:26.000Z</time>
      </trkpt>
      <trkpt lat="43.235977264121175" lon="-6.844122838228941">
        <ele>224.4</ele>
        <time>2017-08-07T08:23:32.000Z</time>
      </trkpt>
      <trkpt lat="43.235943065956235" lon="-6.84423515573144">
        <ele>224</ele>
        <time>2017-08-07T08:23:38.000Z</time>
      </trkpt>
      <trkpt lat="43.23593602515757" lon="-6.84425326064229">
        <ele>224</ele>
        <time>2017-08-07T08:23:39.000Z</time>
      </trkpt>
      <trkpt lat="43.23584902100265" lon="-6.844421736896038">
        <ele>229.8</ele>
        <time>2017-08-07T08:23:49.000Z</time>
      </trkpt>
      <trkpt lat="43.235753970220685" lon="-6.844572443515062">
        <ele>236</ele>
        <time>2017-08-07T08:23:59.000Z</time>
      </trkpt>
      <trkpt lat="43.2356739230454" lon="-6.844697166234255">
        <ele>237</ele>
        <time>2017-08-07T08:24:07.000Z</time>
      </trkpt>
      <trkpt lat="43.23564098216593" lon="-6.844774363562465">
        <ele>236.4</ele>
        <time>2017-08-07T08:24:12.000Z</time>
      </trkpt>
      <trkpt lat="43.2356461789459" lon="-6.844810573384166">
        <ele>234.4</ele>
        <time>2017-08-07T08:24:14.000Z</time>
      </trkpt>
      <trkpt lat="43.2356030959636" lon="-6.844900008291006">
        <ele>235.4</ele>
        <time>2017-08-07T08:24:20.000Z</time>
      </trkpt>
      <trkpt lat="43.23554207570851" lon="-6.845042919740081">
        <ele>236.6</ele>
        <time>2017-08-07T08:24:29.000Z</time>
      </trkpt>
      <trkpt lat="43.235531179234385" lon="-6.845127493143082">
        <ele>235.4</ele>
        <time>2017-08-07T08:24:34.000Z</time>
      </trkpt>
      <trkpt lat="43.23552262969315" lon="-6.8451661337167025">
        <ele>235.4</ele>
        <time>2017-08-07T08:24:36.000Z</time>
      </trkpt>
      <trkpt lat="43.23551441542804" lon="-6.845237212255597">
        <ele>234.8</ele>
        <time>2017-08-07T08:24:40.000Z</time>
      </trkpt>
      <trkpt lat="43.2355235517025" lon="-6.845256993547082">
        <ele>233.6</ele>
        <time>2017-08-07T08:24:41.000Z</time>
      </trkpt>
      <trkpt lat="43.235525730997324" lon="-6.845275517553091">
        <ele>233.2</ele>
        <time>2017-08-07T08:24:42.000Z</time>
      </trkpt>
      <trkpt lat="43.235526820644736" lon="-6.845384566113353">
        <ele>231.2</ele>
        <time>2017-08-07T08:24:48.000Z</time>
      </trkpt>
      <trkpt lat="43.23552589863539" lon="-6.8455027509480715">
        <ele>230.4</ele>
        <time>2017-08-07T08:24:54.000Z</time>
      </trkpt>
      <trkpt lat="43.23553905822337" lon="-6.845538290217519">
        <ele>229.2</ele>
        <time>2017-08-07T08:24:56.000Z</time>
      </trkpt>
      <trkpt lat="43.2355613540858" lon="-6.845610877498984">
        <ele>226.4</ele>
        <time>2017-08-07T08:25:00.000Z</time>
      </trkpt>
      <trkpt lat="43.2356012519449" lon="-6.845715064555407">
        <ele>221</ele>
        <time>2017-08-07T08:25:06.000Z</time>
      </trkpt>
      <trkpt lat="43.23564223945141" lon="-6.845820257440209">
        <ele>215</ele>
        <time>2017-08-07T08:25:12.000Z</time>
      </trkpt>
      <trkpt lat="43.23572136461735" lon="-6.845925450325012">
        <ele>205.6</ele>
        <time>2017-08-07T08:25:18.000Z</time>
      </trkpt>
      <trkpt lat="43.23573988862336" lon="-6.846036342903972">
        <ele>206</ele>
        <time>2017-08-07T08:25:24.000Z</time>
      </trkpt>
      <trkpt lat="43.235689513385296" lon="-6.846131142228842">
        <ele>211.6</ele>
        <time>2017-08-07T08:25:29.000Z</time>
      </trkpt>
      <trkpt lat="43.23567945510149" lon="-6.846168525516987">
        <ele>213.2</ele>
        <time>2017-08-07T08:25:31.000Z</time>
      </trkpt>
      <trkpt lat="43.23566369712353" lon="-6.846199790015817">
        <ele>215</ele>
        <time>2017-08-07T08:25:33.000Z</time>
      </trkpt>
      <trkpt lat="43.23563050478697" lon="-6.846278915181756">
        <ele>216.8</ele>
        <time>2017-08-07T08:25:37.000Z</time>
      </trkpt>
      <trkpt lat="43.23563092388213" lon="-6.846349909901619">
        <ele>216.6</ele>
        <time>2017-08-07T08:25:41.000Z</time>
      </trkpt>
      <trkpt lat="43.23562522418797" lon="-6.8463765643537045">
        <ele>217</ele>
        <time>2017-08-07T08:25:43.000Z</time>
      </trkpt>
      <trkpt lat="43.23562078177929" lon="-6.846387041732669">
        <ele>217.4</ele>
        <time>2017-08-07T08:25:46.000Z</time>
      </trkpt>
      <trkpt lat="43.23558473959565" lon="-6.846464993432164">
        <ele>219.6</ele>
        <time>2017-08-07T08:25:51.000Z</time>
      </trkpt>
      <trkpt lat="43.23557744733989" lon="-6.846561888232827">
        <ele>220.2</ele>
        <time>2017-08-07T08:25:56.000Z</time>
      </trkpt>
      <trkpt lat="43.23556453920901" lon="-6.846656436100602">
        <ele>220.8</ele>
        <time>2017-08-07T08:26:00.000Z</time>
      </trkpt>
      <trkpt lat="43.235569819808006" lon="-6.846694573760033">
        <ele>220.4</ele>
        <time>2017-08-07T08:26:02.000Z</time>
      </trkpt>
      <trkpt lat="43.23557049036026" lon="-6.846747379750013">
        <ele>219.8</ele>
        <time>2017-08-07T08:26:05.000Z</time>
      </trkpt>
      <trkpt lat="43.23550712317228" lon="-6.8468633852899075">
        <ele>222.4</ele>
        <time>2017-08-07T08:26:12.000Z</time>
      </trkpt>
      <trkpt lat="43.23555087670684" lon="-6.846953239291906">
        <ele>218.8</ele>
        <time>2017-08-07T08:26:19.000Z</time>
      </trkpt>
      <trkpt lat="43.235562862828374" lon="-6.846965393051505">
        <ele>218</ele>
        <time>2017-08-07T08:26:20.000Z</time>
      </trkpt>
      <trkpt lat="43.23561751283705" lon="-6.847015852108598">
        <ele>217.2</ele>
        <time>2017-08-07T08:26:27.000Z</time>
      </trkpt>
      <trkpt lat="43.23565556667745" lon="-6.847055414691567">
        <ele>216.4</ele>
        <time>2017-08-07T08:26:34.000Z</time>
      </trkpt>
      <trkpt lat="43.235740726813674" lon="-6.847126996144652">
        <ele>213.4</ele>
        <time>2017-08-07T08:26:42.000Z</time>
      </trkpt>
      <trkpt lat="43.235753970220685" lon="-6.84714057482779">
        <ele>212.8</ele>
        <time>2017-08-07T08:26:48.000Z</time>
      </trkpt>
      <trkpt lat="43.23580694384873" lon="-6.847184747457504">
        <ele>211.8</ele>
        <time>2017-08-07T08:27:00.000Z</time>
      </trkpt>
      <trkpt lat="43.235910376533866" lon="-6.8472630344331264">
        <ele>210.4</ele>
        <time>2017-08-07T08:27:09.000Z</time>
      </trkpt>
      <trkpt lat="43.23602085001767" lon="-6.847333526238799">
        <ele>209.2</ele>
        <time>2017-08-07T08:27:19.000Z</time>
      </trkpt>
      <trkpt lat="43.23604205623269" lon="-6.847353810444474">
        <ele>208.8</ele>
        <time>2017-08-07T08:27:22.000Z</time>
      </trkpt>
      <trkpt lat="43.23604163713753" lon="-6.847368478775024">
        <ele>208.8</ele>
        <time>2017-08-07T08:27:25.000Z</time>
      </trkpt>
      <trkpt lat="43.236036356538534" lon="-6.847400162369013">
        <ele>208.8</ele>
        <time>2017-08-07T08:27:30.000Z</time>
      </trkpt>
      <trkpt lat="43.23600584641099" lon="-6.847418434917927">
        <ele>209</ele>
        <time>2017-08-07T08:27:38.000Z</time>
      </trkpt>
      <trkpt lat="43.23599176481366" lon="-6.8474432453513145">
        <ele>209</ele>
        <time>2017-08-07T08:27:43.000Z</time>
      </trkpt>
      <trkpt lat="43.23594239540398" lon="-6.847417261451483">
        <ele>209.6</ele>
        <time>2017-08-07T08:28:01.000Z</time>
      </trkpt>
      <trkpt lat="43.23600308038294" lon="-6.847458248957992">
        <ele>208.8</ele>
        <time>2017-08-07T08:30:54.000Z</time>
      </trkpt>
      <trkpt lat="43.23600601404905" lon="-6.847445340827107">
        <ele>208.8</ele>
        <time>2017-08-07T08:32:32.000Z</time>
      </trkpt>
      <trkpt lat="43.23600643314421" lon="-6.847436288371682">
        <ele>209</ele>
        <time>2017-08-07T08:33:02.000Z</time>
      </trkpt>
      <trkpt lat="43.23599327355623" lon="-6.847452716901898">
        <ele>209</ele>
        <time>2017-08-07T08:33:41.000Z</time>
      </trkpt>
      <trkpt lat="43.23600039817393" lon="-6.847473252564669">
        <ele>208.8</ele>
        <time>2017-08-07T08:34:08.000Z</time>
      </trkpt>
      <trkpt lat="43.2360087800771" lon="-6.847484987229109">
        <ele>208.8</ele>
        <time>2017-08-07T08:34:14.000Z</time>
      </trkpt>
      <trkpt lat="43.236047085374594" lon="-6.847443664446473">
        <ele>208.4</ele>
        <time>2017-08-07T08:34:20.000Z</time>
      </trkpt>
      <trkpt lat="43.236073069274426" lon="-6.847386583685875">
        <ele>207.8</ele>
        <time>2017-08-07T08:34:26.000Z</time>
      </trkpt>
      <trkpt lat="43.23609821498394" lon="-6.84739806689322">
        <ele>207.2</ele>
        <time>2017-08-07T08:34:28.000Z</time>
      </trkpt>
      <trkpt lat="43.236145908012986" lon="-6.8474329356104136">
        <ele>205.8</ele>
        <time>2017-08-07T08:34:32.000Z</time>
      </trkpt>
      <trkpt lat="43.23618228547275" lon="-6.847454980015755">
        <ele>205</ele>
        <time>2017-08-07T08:34:35.000Z</time>
      </trkpt>
      <trkpt lat="43.23626191355288" lon="-6.847478784620762">
        <ele>204</ele>
        <time>2017-08-07T08:34:41.000Z</time>
      </trkpt>
      <trkpt lat="43.2363645080477" lon="-6.847531003877521">
        <ele>202.8</ele>
        <time>2017-08-07T08:34:49.000Z</time>
      </trkpt>
      <trkpt lat="43.236465426161885" lon="-6.847577942535281">
        <ele>202.6</ele>
        <time>2017-08-07T08:34:57.000Z</time>
      </trkpt>
      <trkpt lat="43.23651060461998" lon="-6.847598981112242">
        <ele>202.6</ele>
        <time>2017-08-07T08:35:00.000Z</time>
      </trkpt>
      <trkpt lat="43.236535750329494" lon="-6.847607949748635">
        <ele>202.6</ele>
        <time>2017-08-07T08:35:02.000Z</time>
      </trkpt>
      <trkpt lat="43.236601212993264" lon="-6.847634352743626">
        <ele>202.6</ele>
        <time>2017-08-07T08:35:07.000Z</time>
      </trkpt>
      <trkpt lat="43.236624682322145" lon="-6.847640806809068">
        <ele>203.2</ele>
        <time>2017-08-07T08:35:09.000Z</time>
      </trkpt>
      <trkpt lat="43.236650582402945" lon="-6.8476485181599855">
        <ele>203.8</ele>
        <time>2017-08-07T08:35:11.000Z</time>
      </trkpt>
      <trkpt lat="43.236745381727815" lon="-6.847678190097213">
        <ele>206.2</ele>
        <time>2017-08-07T08:35:18.000Z</time>
      </trkpt>
      <trkpt lat="43.236865578219295" lon="-6.847715992480516">
        <ele>208.8</ele>
        <time>2017-08-07T08:35:27.000Z</time>
      </trkpt>
      <trkpt lat="43.23701092042029" lon="-6.847754884511232">
        <ele>213.8</ele>
        <time>2017-08-07T08:35:38.000Z</time>
      </trkpt>
      <trkpt lat="43.23712323792279" lon="-6.847778353840113">
        <ele>218</ele>
        <time>2017-08-07T08:35:46.000Z</time>
      </trkpt>
      <trkpt lat="43.23726489208639" lon="-6.847802577540278">
        <ele>219.8</ele>
        <time>2017-08-07T08:35:56.000Z</time>
      </trkpt>
      <trkpt lat="43.2373661454767" lon="-6.847812552005053">
        <ele>223.2</ele>
        <time>2017-08-07T08:36:03.000Z</time>
      </trkpt>
      <trkpt lat="43.23748575523496" lon="-6.847829148173332">
        <ele>226.8</ele>
        <time>2017-08-07T08:36:11.000Z</time>
      </trkpt>
      <trkpt lat="43.237570747733116" lon="-6.847863849252462">
        <ele>237</ele>
        <time>2017-08-07T08:36:19.000Z</time>
      </trkpt>
      <trkpt lat="43.23762305080891" lon="-6.8479362688958645">
        <ele>244.4</ele>
        <time>2017-08-07T08:36:25.000Z</time>
      </trkpt>
      <trkpt lat="43.23769496753812" lon="-6.848094686865807">
        <ele>257.4</ele>
        <time>2017-08-07T08:36:35.000Z</time>
      </trkpt>
      <trkpt lat="43.23772396892309" lon="-6.8482195772230625">
        <ele>261.6</ele>
        <time>2017-08-07T08:36:42.000Z</time>
      </trkpt>
      <trkpt lat="43.237752886489034" lon="-6.848368775099516">
        <ele>261.8</ele>
        <time>2017-08-07T08:36:51.000Z</time>
      </trkpt>
      <trkpt lat="43.23779907077551" lon="-6.8484787456691265">
        <ele>262.8</ele>
        <time>2017-08-07T08:36:58.000Z</time>
      </trkpt>
      <trkpt lat="43.237847937271" lon="-6.848613945767283">
        <ele>264</ele>
        <time>2017-08-07T08:37:06.000Z</time>
      </trkpt>
      <trkpt lat="43.237880039960146" lon="-6.8487385008484125">
        <ele>265.2</ele>
        <time>2017-08-07T08:37:14.000Z</time>
      </trkpt>
      <trkpt lat="43.23787375353277" lon="-6.848757527768612">
        <ele>264.6</ele>
        <time>2017-08-07T08:37:15.000Z</time>
      </trkpt>
      <trkpt lat="43.23784391395748" lon="-6.8488389160484076">
        <ele>261.6</ele>
        <time>2017-08-07T08:37:20.000Z</time>
      </trkpt>
      <trkpt lat="43.237811559811234" lon="-6.84894360601902">
        <ele>257.2</ele>
        <time>2017-08-07T08:37:27.000Z</time>
      </trkpt>
      <trkpt lat="43.23775028809905" lon="-6.849044691771269">
        <ele>252.4</ele>
        <time>2017-08-07T08:37:35.000Z</time>
      </trkpt>
      <trkpt lat="43.23767736554146" lon="-6.849100682884455">
        <ele>247.8</ele>
        <time>2017-08-07T08:37:42.000Z</time>
      </trkpt>
      <trkpt lat="43.23760159313679" lon="-6.849135383963585">
        <ele>242.8</ele>
        <time>2017-08-07T08:37:49.000Z</time>
      </trkpt>
      <trkpt lat="43.23758667334914" lon="-6.849132534116507">
        <ele>241.8</ele>
        <time>2017-08-07T08:37:50.000Z</time>
      </trkpt>
      <trkpt lat="43.237542416900396" lon="-6.849154243245721">
        <ele>238.8</ele>
        <time>2017-08-07T08:37:54.000Z</time>
      </trkpt>
      <trkpt lat="43.237506123259664" lon="-6.849160110577941">
        <ele>236.6</ele>
        <time>2017-08-07T08:37:57.000Z</time>
      </trkpt>
      <trkpt lat="43.23745113797486" lon="-6.849190453067422">
        <ele>233</ele>
        <time>2017-08-07T08:38:02.000Z</time>
      </trkpt>
      <trkpt lat="43.237382574006915" lon="-6.849256921559572">
        <ele>229.6</ele>
        <time>2017-08-07T08:38:09.000Z</time>
      </trkpt>
      <trkpt lat="43.23731585405767" lon="-6.849376279860735">
        <ele>229.8</ele>
        <time>2017-08-07T08:38:18.000Z</time>
      </trkpt>
      <trkpt lat="43.23725734837353" lon="-6.8495292495936155">
        <ele>230.8</ele>
        <time>2017-08-07T08:38:28.000Z</time>
      </trkpt>
      <trkpt lat="43.237201273441315" lon="-6.849675681442022">
        <ele>237.8</ele>
        <time>2017-08-07T08:38:38.000Z</time>
      </trkpt>
      <trkpt lat="43.23714578524232" lon="-6.849831249564886">
        <ele>245.4</ele>
        <time>2017-08-07T08:38:48.000Z</time>
      </trkpt>
      <trkpt lat="43.237099684774876" lon="-6.84993845410645">
        <ele>248.6</ele>
        <time>2017-08-07T08:38:56.000Z</time>
      </trkpt>
      <trkpt lat="43.237049393355846" lon="-6.8500652723014355">
        <ele>252.6</ele>
        <time>2017-08-07T08:39:05.000Z</time>
      </trkpt>
      <trkpt lat="43.23699499480426" lon="-6.850188821554184">
        <ele>256</ele>
        <time>2017-08-07T08:39:14.000Z</time>
      </trkpt>
      <trkpt lat="43.23694386519492" lon="-6.8503038212656975">
        <ele>258.8</ele>
        <time>2017-08-07T08:39:22.000Z</time>
      </trkpt>
      <trkpt lat="43.236859794706106" lon="-6.850437764078379">
        <ele>260</ele>
        <time>2017-08-07T08:39:33.000Z</time>
      </trkpt>
      <trkpt lat="43.23678435757756" lon="-6.850515883415937">
        <ele>258</ele>
        <time>2017-08-07T08:39:41.000Z</time>
      </trkpt>
      <trkpt lat="43.23669475503266" lon="-6.8506015464663506">
        <ele>255.2</ele>
        <time>2017-08-07T08:39:50.000Z</time>
      </trkpt>
      <trkpt lat="43.236664244905114" lon="-6.850636666640639">
        <ele>254.6</ele>
        <time>2017-08-07T08:39:53.000Z</time>
      </trkpt>
      <trkpt lat="43.23663826100528" lon="-6.850667092949152">
        <ele>254.2</ele>
        <time>2017-08-07T08:39:56.000Z</time>
      </trkpt>
      <trkpt lat="43.2365701161325" lon="-6.850743787363172">
        <ele>253.4</ele>
        <time>2017-08-07T08:40:03.000Z</time>
      </trkpt>
      <trkpt lat="43.23648847639561" lon="-6.850847722962499">
        <ele>253.4</ele>
        <time>2017-08-07T08:40:12.000Z</time>
      </trkpt>
      <trkpt lat="43.23643080890179" lon="-6.850937074050307">
        <ele>254.4</ele>
        <time>2017-08-07T08:40:19.000Z</time>
      </trkpt>
      <trkpt lat="43.236362244933844" lon="-6.851062383502722">
        <ele>260</ele>
        <time>2017-08-07T08:40:28.000Z</time>
      </trkpt>
      <trkpt lat="43.23627943173051" lon="-6.85118492692709">
        <ele>264.6</ele>
        <time>2017-08-07T08:40:38.000Z</time>
      </trkpt>
      <trkpt lat="43.23619846254587" lon="-6.851259022951126">
        <ele>264.6</ele>
        <time>2017-08-07T08:40:46.000Z</time>
      </trkpt>
      <trkpt lat="43.23609829880297" lon="-6.851323898881674">
        <ele>262.4</ele>
        <time>2017-08-07T08:40:55.000Z</time>
      </trkpt>
      <trkpt lat="43.23600785806775" lon="-6.851372513920069">
        <ele>260</ele>
        <time>2017-08-07T08:41:03.000Z</time>
      </trkpt>
      <trkpt lat="43.23591071180999" lon="-6.851423308253288">
        <ele>257.6</ele>
        <time>2017-08-07T08:41:11.000Z</time>
      </trkpt>
      <trkpt lat="43.23579336516559" lon="-6.851476617157459">
        <ele>254.4</ele>
        <time>2017-08-07T08:41:21.000Z</time>
      </trkpt>
      <trkpt lat="43.23568725027144" lon="-6.851550377905369">
        <ele>254.4</ele>
        <time>2017-08-07T08:41:30.000Z</time>
      </trkpt>
      <trkpt lat="43.235617093741894" lon="-6.851656157523394">
        <ele>258</ele>
        <time>2017-08-07T08:41:38.000Z</time>
      </trkpt>
      <trkpt lat="43.235600581392646" lon="-6.851684655994177">
        <ele>259.2</ele>
        <time>2017-08-07T08:41:40.000Z</time>
      </trkpt>
      <trkpt lat="43.235568730160594" lon="-6.851743161678314">
        <ele>261.4</ele>
        <time>2017-08-07T08:41:44.000Z</time>
      </trkpt>
      <trkpt lat="43.23555179871619" lon="-6.8518164195120335">
        <ele>264</ele>
        <time>2017-08-07T08:41:48.000Z</time>
      </trkpt>
      <trkpt lat="43.23554467409849" lon="-6.8518726620823145">
        <ele>266</ele>
        <time>2017-08-07T08:41:51.000Z</time>
      </trkpt>
      <trkpt lat="43.23552447371185" lon="-6.851952625438571">
        <ele>268.6</ele>
        <time>2017-08-07T08:41:56.000Z</time>
      </trkpt>
      <trkpt lat="43.23550209403038" lon="-6.851983470842242">
        <ele>269.2</ele>
        <time>2017-08-07T08:41:58.000Z</time>
      </trkpt>
      <trkpt lat="43.23548801243305" lon="-6.852032840251923">
        <ele>270.8</ele>
        <time>2017-08-07T08:42:01.000Z</time>
      </trkpt>
      <trkpt lat="43.235470075160265" lon="-6.852071061730385">
        <ele>272</ele>
        <time>2017-08-07T08:42:03.000Z</time>
      </trkpt>
      <trkpt lat="43.235377203673124" lon="-6.852203495800495">
        <ele>276.2</ele>
        <time>2017-08-07T08:42:12.000Z</time>
      </trkpt>
      <trkpt lat="43.23527871631086" lon="-6.852278178557754">
        <ele>277.6</ele>
        <time>2017-08-07T08:42:20.000Z</time>
      </trkpt>
      <trkpt lat="43.235220881178975" lon="-6.852296870201826">
        <ele>277.4</ele>
        <time>2017-08-07T08:42:27.000Z</time>
      </trkpt>
      <trkpt lat="43.23518006131053" lon="-6.852307263761759">
        <ele>276.8</ele>
        <time>2017-08-07T08:42:32.000Z</time>
      </trkpt>
      <trkpt lat="43.23516631498933" lon="-6.85230583883822">
        <ele>276.4</ele>
        <time>2017-08-07T08:42:33.000Z</time>
      </trkpt>
      <trkpt lat="43.23505600914359" lon="-6.85228287242353">
        <ele>272.8</ele>
        <time>2017-08-07T08:42:42.000Z</time>
      </trkpt>
      <trkpt lat="43.23497160337865" lon="-6.852216823026538">
        <ele>268.4</ele>
        <time>2017-08-07T08:42:50.000Z</time>
      </trkpt>
      <trkpt lat="43.23488594032824" lon="-6.852137865498662">
        <ele>264.2</ele>
        <time>2017-08-07T08:42:58.000Z</time>
      </trkpt>
      <trkpt lat="43.23486649431288" lon="-6.852124035358429">
        <ele>263.4</ele>
        <time>2017-08-07T08:43:00.000Z</time>
      </trkpt>
      <trkpt lat="43.23482031002641" lon="-6.852101068943739">
        <ele>261.8</ele>
        <time>2017-08-07T08:43:04.000Z</time>
      </trkpt>
      <trkpt lat="43.23469785042107" lon="-6.852077599614859">
        <ele>259</ele>
        <time>2017-08-07T08:43:13.000Z</time>
      </trkpt>
      <trkpt lat="43.23455016128719" lon="-6.852095285430551">
        <ele>255.8</ele>
        <time>2017-08-07T08:43:24.000Z</time>
      </trkpt>
      <trkpt lat="43.23444823734462" lon="-6.8521898332983255">
        <ele>256.2</ele>
        <time>2017-08-07T08:43:33.000Z</time>
      </trkpt>
      <trkpt lat="43.234368190169334" lon="-6.852354034781456">
        <ele>260.4</ele>
        <time>2017-08-07T08:43:44.000Z</time>
      </trkpt>
      <trkpt lat="43.23431613855064" lon="-6.8525182362645864">
        <ele>266.2</ele>
        <time>2017-08-07T08:43:54.000Z</time>
      </trkpt>
      <trkpt lat="43.23426249437034" lon="-6.852661231532693">
        <ele>270.6</ele>
        <time>2017-08-07T08:44:03.000Z</time>
      </trkpt>
      <trkpt lat="43.23419652879238" lon="-6.852782601490617">
        <ele>273.6</ele>
        <time>2017-08-07T08:44:11.000Z</time>
      </trkpt>
      <trkpt lat="43.23412176221609" lon="-6.852872036397457">
        <ele>274.8</ele>
        <time>2017-08-07T08:44:18.000Z</time>
      </trkpt>
      <trkpt lat="43.23404439724982" lon="-6.852948144078255">
        <ele>276.8</ele>
        <time>2017-08-07T08:44:25.000Z</time>
      </trkpt>
      <trkpt lat="43.233945574611425" lon="-6.853060461580753">
        <ele>280.2</ele>
        <time>2017-08-07T08:44:34.000Z</time>
      </trkpt>
      <trkpt lat="43.233865359798074" lon="-6.853144280612469">
        <ele>282.4</ele>
        <time>2017-08-07T08:44:41.000Z</time>
      </trkpt>
      <trkpt lat="43.23373728431761" lon="-6.853146543726325">
        <ele>278.4</ele>
        <time>2017-08-07T08:44:50.000Z</time>
      </trkpt>
      <trkpt lat="43.23364332318306" lon="-6.853108573704958">
        <ele>273.8</ele>
        <time>2017-08-07T08:44:57.000Z</time>
      </trkpt>
      <trkpt lat="43.23357157409191" lon="-6.853028945624828">
        <ele>269.4</ele>
        <time>2017-08-07T08:45:03.000Z</time>
      </trkpt>
      <trkpt lat="43.23352228850126" lon="-6.852880334481597">
        <ele>264.2</ele>
        <time>2017-08-07T08:45:12.000Z</time>
      </trkpt>
      <trkpt lat="43.233455484732985" lon="-6.852783188223839">
        <ele>261.6</ele>
        <time>2017-08-07T08:45:19.000Z</time>
      </trkpt>
      <trkpt lat="43.23343327268958" lon="-6.852752175182104">
        <ele>260.8</ele>
        <time>2017-08-07T08:45:21.000Z</time>
      </trkpt>
      <trkpt lat="43.23337166570127" lon="-6.852695178240538">
        <ele>260.4</ele>
        <time>2017-08-07T08:45:26.000Z</time>
      </trkpt>
      <trkpt lat="43.233263958245516" lon="-6.852660309523344">
        <ele>262</ele>
        <time>2017-08-07T08:45:34.000Z</time>
      </trkpt>
      <trkpt lat="43.23317184112966" lon="-6.852641282603145">
        <ele>262.2</ele>
        <time>2017-08-07T08:45:41.000Z</time>
      </trkpt>
      <trkpt lat="43.23306924663484" lon="-6.852617813274264">
        <ele>262.2</ele>
        <time>2017-08-07T08:45:50.000Z</time>
      </trkpt>
      <trkpt lat="43.23306664824486" lon="-6.852606330066919">
        <ele>261.8</ele>
        <time>2017-08-07T08:45:55.000Z</time>
      </trkpt>
      <trkpt lat="43.23317653499544" lon="-6.852680258452892">
        <ele>263</ele>
        <time>2017-08-07T08:46:02.000Z</time>
      </trkpt>
      <trkpt lat="43.23319807648659" lon="-6.852706158533692">
        <ele>263.4</ele>
        <time>2017-08-07T08:46:03.000Z</time>
      </trkpt>
      <trkpt lat="43.23322556912899" lon="-6.852708840742707">
        <ele>263.2</ele>
        <time>2017-08-07T08:46:09.000Z</time>
      </trkpt>
      <trkpt lat="43.2332200370729" lon="-6.852623261511326">
        <ele>261.6</ele>
        <time>2017-08-07T08:46:13.000Z</time>
      </trkpt>
      <trkpt lat="43.233196064829826" lon="-6.852519577369094">
        <ele>258.6</ele>
        <time>2017-08-07T08:46:16.000Z</time>
      </trkpt>
      <trkpt lat="43.23318298906088" lon="-6.852470375597477">
        <ele>257.2</ele>
        <time>2017-08-07T08:46:18.000Z</time>
      </trkpt>
      <trkpt lat="43.23318894021213" lon="-6.852403488010168">
        <ele>255</ele>
        <time>2017-08-07T08:46:22.000Z</time>
      </trkpt>
      <trkpt lat="43.23316555470228" lon="-6.852352442219853">
        <ele>254</ele>
        <time>2017-08-07T08:46:32.000Z</time>
      </trkpt>
      <trkpt lat="43.23311769403517" lon="-6.852324530482292">
        <ele>254.2</ele>
        <time>2017-08-07T08:47:28.000Z</time>
      </trkpt>
      <trkpt lat="43.233117777854204" lon="-6.852349927648902">
        <ele>254.6</ele>
        <time>2017-08-07T08:47:30.000Z</time>
      </trkpt>
      <trkpt lat="43.233118364587426" lon="-6.852341713383794">
        <ele>254.4</ele>
        <time>2017-08-07T08:47:35.000Z</time>
      </trkpt>
      <trkpt lat="43.2331264950335" lon="-6.852367948740721">
        <ele>255</ele>
        <time>2017-08-07T08:47:40.000Z</time>
      </trkpt>
      <trkpt lat="43.233132530003786" lon="-6.852395189926028">
        <ele>255.4</ele>
        <time>2017-08-07T08:47:45.000Z</time>
      </trkpt>
      <trkpt lat="43.23315382003784" lon="-6.852410109713674">
        <ele>255.4</ele>
        <time>2017-08-07T08:47:48.000Z</time>
      </trkpt>
      <trkpt lat="43.233109563589096" lon="-6.852256469428539">
        <ele>253</ele>
        <time>2017-08-07T09:40:07.000Z</time>
      </trkpt>
      <trkpt lat="43.23310822248459" lon="-6.852257642894983">
        <ele>253</ele>
        <time>2017-08-07T09:40:08.000Z</time>
      </trkpt>
      <trkpt lat="43.232782669365406" lon="-6.853118967264891">
        <ele>266</ele>
        <time>2017-08-07T10:09:34.000Z</time>
      </trkpt>
      <trkpt lat="43.232770431786776" lon="-6.853144783526659">
        <ele>266.2</ele>
        <time>2017-08-07T10:09:37.000Z</time>
      </trkpt>
      <trkpt lat="43.23275098577142" lon="-6.8532041274011135">
        <ele>268.2</ele>
        <time>2017-08-07T10:09:44.000Z</time>
      </trkpt>
      <trkpt lat="43.232726845890284" lon="-6.853244109079242">
        <ele>269.4</ele>
        <time>2017-08-07T10:09:50.000Z</time>
      </trkpt>
      <trkpt lat="43.232697173953056" lon="-6.853298842906952">
        <ele>271</ele>
        <time>2017-08-07T10:09:57.000Z</time>
      </trkpt>
      <trkpt lat="43.2326602935791" lon="-6.853335136547685">
        <ele>270.4</ele>
        <time>2017-08-07T10:10:03.000Z</time>
      </trkpt>
      <trkpt lat="43.232630956918" lon="-6.853378722444177">
        <ele>270.6</ele>
        <time>2017-08-07T10:10:08.000Z</time>
      </trkpt>
      <trkpt lat="43.23261922225356" lon="-6.853411076590419">
        <ele>271.6</ele>
        <time>2017-08-07T10:10:11.000Z</time>
      </trkpt>
      <trkpt lat="43.23260396718979" lon="-6.853439994156361">
        <ele>272.4</ele>
        <time>2017-08-07T10:10:15.000Z</time>
      </trkpt>
      <trkpt lat="43.232594998553395" lon="-6.8534547463059425">
        <ele>273</ele>
        <time>2017-08-07T10:10:17.000Z</time>
      </trkpt>
      <trkpt lat="43.232549484819174" lon="-6.85352741740644">
        <ele>276.6</ele>
        <time>2017-08-07T10:10:25.000Z</time>
      </trkpt>
      <trkpt lat="43.23249835520983" lon="-6.853609895333648">
        <ele>280.8</ele>
        <time>2017-08-07T10:10:34.000Z</time>
      </trkpt>
      <trkpt lat="43.232466420158744" lon="-6.853692540898919">
        <ele>285.6</ele>
        <time>2017-08-07T10:10:42.000Z</time>
      </trkpt>
      <trkpt lat="43.2324462197721" lon="-6.853726655244827">
        <ele>287</ele>
        <time>2017-08-07T10:10:46.000Z</time>
      </trkpt>
      <trkpt lat="43.23243356309831" lon="-6.853762865066528">
        <ele>288.8</ele>
        <time>2017-08-07T10:10:50.000Z</time>
      </trkpt>
      <trkpt lat="43.232405818998814" lon="-6.853801338002086">
        <ele>289.6</ele>
        <time>2017-08-07T10:10:56.000Z</time>
      </trkpt>
      <trkpt lat="43.23237623088062" lon="-6.853843163698912">
        <ele>290.2</ele>
        <time>2017-08-07T10:11:01.000Z</time>
      </trkpt>
      <trkpt lat="43.232320826500654" lon="-6.853931089863181">
        <ele>292.2</ele>
        <time>2017-08-07T10:11:10.000Z</time>
      </trkpt>
      <trkpt lat="43.23225921951234" lon="-6.854003174230456">
        <ele>292.4</ele>
        <time>2017-08-07T10:11:19.000Z</time>
      </trkpt>
      <trkpt lat="43.23221932165325" lon="-6.854048604145646">
        <ele>292</ele>
        <time>2017-08-07T10:11:25.000Z</time>
      </trkpt>
      <trkpt lat="43.23219685815275" lon="-6.854070732370019">
        <ele>291.6</ele>
        <time>2017-08-07T10:11:29.000Z</time>
      </trkpt>
      <trkpt lat="43.23218344710767" lon="-6.854085316881537">
        <ele>291.4</ele>
        <time>2017-08-07T10:11:31.000Z</time>
      </trkpt>
      <trkpt lat="43.232113709673285" lon="-6.854164190590382">
        <ele>290</ele>
        <time>2017-08-07T10:11:42.000Z</time>
      </trkpt>
      <trkpt lat="43.23206107132137" lon="-6.854210207238793">
        <ele>288</ele>
        <time>2017-08-07T10:11:50.000Z</time>
      </trkpt>
      <trkpt lat="43.23203517124057" lon="-6.854246500879526">
        <ele>287.8</ele>
        <time>2017-08-07T10:11:56.000Z</time>
      </trkpt>
      <trkpt lat="43.23199510574341" lon="-6.854307856410742">
        <ele>286.8</ele>
        <time>2017-08-07T10:12:04.000Z</time>
      </trkpt>
      <trkpt lat="43.2319472450763" lon="-6.854380192235112">
        <ele>285.2</ele>
        <time>2017-08-07T10:12:12.000Z</time>
      </trkpt>
      <trkpt lat="43.23192092590034" lon="-6.854416485875845">
        <ele>284.2</ele>
        <time>2017-08-07T10:12:17.000Z</time>
      </trkpt>
      <trkpt lat="43.23191547766328" lon="-6.854422939941287">
        <ele>283.8</ele>
        <time>2017-08-07T10:12:18.000Z</time>
      </trkpt>
      <trkpt lat="43.23190676048398" lon="-6.854447750374675">
        <ele>284</ele>
        <time>2017-08-07T10:12:24.000Z</time>
      </trkpt>
      <trkpt lat="43.231897288933396" lon="-6.85443039983511">
        <ele>282.6</ele>
        <time>2017-08-07T10:12:33.000Z</time>
      </trkpt>
      <trkpt lat="43.23186510242522" lon="-6.8544764164835215">
        <ele>281.6</ele>
        <time>2017-08-07T10:12:42.000Z</time>
      </trkpt>
      <trkpt lat="43.23183895088732" lon="-6.854519499465823">
        <ele>281.4</ele>
        <time>2017-08-07T10:12:48.000Z</time>
      </trkpt>
      <trkpt lat="43.2317812833935" lon="-6.854605078697205">
        <ele>282.2</ele>
        <time>2017-08-07T10:12:56.000Z</time>
      </trkpt>
      <trkpt lat="43.23172202333808" lon="-6.854687472805381">
        <ele>283.2</ele>
        <time>2017-08-07T10:13:03.000Z</time>
      </trkpt>
      <trkpt lat="43.2317123003304" lon="-6.8546961061656475">
        <ele>283.2</ele>
        <time>2017-08-07T10:13:04.000Z</time>
      </trkpt>
      <trkpt lat="43.23163887485862" lon="-6.854776488617063">
        <ele>283.2</ele>
        <time>2017-08-07T10:13:09.000Z</time>
      </trkpt>
      <trkpt lat="43.23158757761121" lon="-6.854856116697192">
        <ele>285.2</ele>
        <time>2017-08-07T10:13:15.000Z</time>
      </trkpt>
      <trkpt lat="43.23152806609869" lon="-6.8549484852701426">
        <ele>289.4</ele>
        <time>2017-08-07T10:13:23.000Z</time>
      </trkpt>
      <trkpt lat="43.23148506693542" lon="-6.855054851621389">
        <ele>295</ele>
        <time>2017-08-07T10:13:30.000Z</time>
      </trkpt>
      <trkpt lat="43.23145095258951" lon="-6.855158703401685">
        <ele>299.4</ele>
        <time>2017-08-07T10:13:37.000Z</time>
      </trkpt>
      <trkpt lat="43.23141910135746" lon="-6.855251155793667">
        <ele>302</ele>
        <time>2017-08-07T10:13:43.000Z</time>
      </trkpt>
      <trkpt lat="43.23141239583492" lon="-6.855278396978974">
        <ele>303</ele>
        <time>2017-08-07T10:13:45.000Z</time>
      </trkpt>
      <trkpt lat="43.231394877657294" lon="-6.855332208797336">
        <ele>304.8</ele>
        <time>2017-08-07T10:13:49.000Z</time>
      </trkpt>
      <trkpt lat="43.23139135725796" lon="-6.855344949290156">
        <ele>305.2</ele>
        <time>2017-08-07T10:13:50.000Z</time>
      </trkpt>
      <trkpt lat="43.23135414160788" lon="-6.8554335460066795">
        <ele>306</ele>
        <time>2017-08-07T10:13:57.000Z</time>
      </trkpt>
      <trkpt lat="43.231314830482006" lon="-6.855522310361266">
        <ele>305.6</ele>
        <time>2017-08-07T10:14:04.000Z</time>
      </trkpt>
      <trkpt lat="43.231276106089354" lon="-6.855619959533215">
        <ele>305.6</ele>
        <time>2017-08-07T10:14:12.000Z</time>
      </trkpt>
      <trkpt lat="43.23124316520989" lon="-6.855709729716182">
        <ele>307.2</ele>
        <time>2017-08-07T10:14:19.000Z</time>
      </trkpt>
      <trkpt lat="43.23118977248669" lon="-6.8558429181575775">
        <ele>310.2</ele>
        <time>2017-08-07T10:14:30.000Z</time>
      </trkpt>
      <trkpt lat="43.231170577928424" lon="-6.855893796309829">
        <ele>311.4</ele>
        <time>2017-08-07T10:14:34.000Z</time>
      </trkpt>
      <trkpt lat="43.23116295039654" lon="-6.85591290704906">
        <ele>311.8</ele>
        <time>2017-08-07T10:14:36.000Z</time>
      </trkpt>
      <trkpt lat="43.231136882677674" lon="-6.8559810519218445">
        <ele>313.8</ele>
        <time>2017-08-07T10:14:42.000Z</time>
      </trkpt>
      <trkpt lat="43.23110243305564" lon="-6.8560543935745955">
        <ele>316</ele>
        <time>2017-08-07T10:14:49.000Z</time>
      </trkpt>
      <trkpt lat="43.23109086602926" lon="-6.856074091047049">
        <ele>316.6</ele>
        <time>2017-08-07T10:14:51.000Z</time>
      </trkpt>
      <trkpt lat="43.23108156211674" lon="-6.856102757155895">
        <ele>317.6</ele>
        <time>2017-08-07T10:14:54.000Z</time>
      </trkpt>
      <trkpt lat="43.231055829674006" lon="-6.856132009997964">
        <ele>318.2</ele>
        <time>2017-08-07T10:14:58.000Z</time>
      </trkpt>
      <trkpt lat="43.23104711249471" lon="-6.856141733005643">
        <ele>318.4</ele>
        <time>2017-08-07T10:14:59.000Z</time>
      </trkpt>
      <trkpt lat="43.23101492598653" lon="-6.856195712462068">
        <ele>320</ele>
        <time>2017-08-07T10:15:05.000Z</time>
      </trkpt>
      <trkpt lat="43.23098374530673" lon="-6.8562667071819305">
        <ele>321.4</ele>
        <time>2017-08-07T10:15:11.000Z</time>
      </trkpt>
      <trkpt lat="43.23096061125398" lon="-6.856303084641695">
        <ele>321.8</ele>
        <time>2017-08-07T10:15:15.000Z</time>
      </trkpt>
      <trkpt lat="43.23094082996249" lon="-6.856320854276419">
        <ele>321.8</ele>
        <time>2017-08-07T10:15:17.000Z</time>
      </trkpt>
      <trkpt lat="43.23089967481792" lon="-6.8563624285161495">
        <ele>322</ele>
        <time>2017-08-07T10:15:22.000Z</time>
      </trkpt>
      <trkpt lat="43.23088291101158" lon="-6.856376510113478">
        <ele>322</ele>
        <time>2017-08-07T10:15:24.000Z</time>
      </trkpt>
      <trkpt lat="43.23085139505565" lon="-6.856435351073742">
        <ele>323.2</ele>
        <time>2017-08-07T10:15:29.000Z</time>
      </trkpt>
      <trkpt lat="43.23084502480924" lon="-6.856446331366897">
        <ele>323.4</ele>
        <time>2017-08-07T10:15:30.000Z</time>
      </trkpt>
      <trkpt lat="43.23082205839455" lon="-6.856480948626995">
        <ele>323.8</ele>
        <time>2017-08-07T10:15:33.000Z</time>
      </trkpt>
      <trkpt lat="43.230798337608576" lon="-6.856513721868396">
        <ele>324.4</ele>
        <time>2017-08-07T10:15:36.000Z</time>
      </trkpt>
      <trkpt lat="43.23073907755315" lon="-6.856614304706454">
        <ele>327</ele>
        <time>2017-08-07T10:15:44.000Z</time>
      </trkpt>
      <trkpt lat="43.23069498874247" lon="-6.856684712693095">
        <ele>329.2</ele>
        <time>2017-08-07T10:15:50.000Z</time>
      </trkpt>
      <trkpt lat="43.23063933290541" lon="-6.856747912243009">
        <ele>330.6</ele>
        <time>2017-08-07T10:15:56.000Z</time>
      </trkpt>
      <trkpt lat="43.23058350943029" lon="-6.856770375743508">
        <ele>330.4</ele>
        <time>2017-08-07T10:16:02.000Z</time>
      </trkpt>
      <trkpt lat="43.23051603510976" lon="-6.856770124286413">
        <ele>329</ele>
        <time>2017-08-07T10:16:09.000Z</time>
      </trkpt>
      <trkpt lat="43.2304812502116" lon="-6.856756126508117">
        <ele>327.8</ele>
        <time>2017-08-07T10:16:13.000Z</time>
      </trkpt>
      <trkpt lat="43.23046708479524" lon="-6.856742799282074">
        <ele>328.2</ele>
        <time>2017-08-07T10:16:15.000Z</time>
      </trkpt>
      <trkpt lat="43.230445543304086" lon="-6.8567081820219755">
        <ele>328.6</ele>
        <time>2017-08-07T10:16:19.000Z</time>
      </trkpt>
      <trkpt lat="43.230427438393235" lon="-6.856674654409289">
        <ele>328.8</ele>
        <time>2017-08-07T10:16:22.000Z</time>
      </trkpt>
      <trkpt lat="43.23039432987571" lon="-6.856562504544854">
        <ele>327.8</ele>
        <time>2017-08-07T10:16:31.000Z</time>
      </trkpt>
      <trkpt lat="43.230391228571534" lon="-6.856539119035006">
        <ele>327.4</ele>
        <time>2017-08-07T10:16:33.000Z</time>
      </trkpt>
      <trkpt lat="43.23039206676185" lon="-6.856479523703456">
        <ele>325.8</ele>
        <time>2017-08-07T10:16:37.000Z</time>
      </trkpt>
      <trkpt lat="43.23038024827838" lon="-6.856415569782257">
        <ele>325</ele>
        <time>2017-08-07T10:16:42.000Z</time>
      </trkpt>
      <trkpt lat="43.23038041591644" lon="-6.8564030807465315">
        <ele>324.8</ele>
        <time>2017-08-07T10:16:43.000Z</time>
      </trkpt>
      <trkpt lat="43.2303842715919" lon="-6.856355722993612">
        <ele>323.2</ele>
        <time>2017-08-07T10:16:46.000Z</time>
      </trkpt>
      <trkpt lat="43.23039332404733" lon="-6.856296546757221">
        <ele>321.2</ele>
        <time>2017-08-07T10:16:50.000Z</time>
      </trkpt>
      <trkpt lat="43.23039919137955" lon="-6.856220941990614">
        <ele>323.2</ele>
        <time>2017-08-07T10:16:55.000Z</time>
      </trkpt>
      <trkpt lat="43.230405477806926" lon="-6.856194958090782">
        <ele>322.8</ele>
        <time>2017-08-07T10:16:57.000Z</time>
      </trkpt>
      <trkpt lat="43.23042701929808" lon="-6.856107786297798">
        <ele>320.4</ele>
        <time>2017-08-07T10:17:03.000Z</time>
      </trkpt>
      <trkpt lat="43.23045157827437" lon="-6.856020195409656">
        <ele>317.4</ele>
        <time>2017-08-07T10:17:09.000Z</time>
      </trkpt>
      <trkpt lat="43.230468425899744" lon="-6.855934280902147">
        <ele>314.8</ele>
        <time>2017-08-07T10:17:15.000Z</time>
      </trkpt>
      <trkpt lat="43.23047605343163" lon="-6.855906033888459">
        <ele>314.6</ele>
        <time>2017-08-07T10:17:17.000Z</time>
      </trkpt>
      <trkpt lat="43.230494912713766" lon="-6.855826489627361">
        <ele>314.2</ele>
        <time>2017-08-07T10:17:22.000Z</time>
      </trkpt>
      <trkpt lat="43.230521315708756" lon="-6.855714088305831">
        <ele>313.8</ele>
        <time>2017-08-07T10:17:29.000Z</time>
      </trkpt>
      <trkpt lat="43.23053958825767" lon="-6.855620965361595">
        <ele>313</ele>
        <time>2017-08-07T10:17:36.000Z</time>
      </trkpt>
      <trkpt lat="43.23055920191109" lon="-6.855507055297494">
        <ele>311.2</ele>
        <time>2017-08-07T10:17:43.000Z</time>
      </trkpt>
      <trkpt lat="43.23058350943029" lon="-6.855386942625046">
        <ele>309</ele>
        <time>2017-08-07T10:17:51.000Z</time>
      </trkpt>
      <trkpt lat="43.23060513474047" lon="-6.855252245441079">
        <ele>303.4</ele>
        <time>2017-08-07T10:17:59.000Z</time>
      </trkpt>
      <trkpt lat="43.230602871626616" lon="-6.855236487463117">
        <ele>303</ele>
        <time>2017-08-07T10:18:00.000Z</time>
      </trkpt>
      <trkpt lat="43.230584766715765" lon="-6.855131797492504">
        <ele>300</ele>
        <time>2017-08-07T10:18:08.000Z</time>
      </trkpt>
      <trkpt lat="43.23055014945567" lon="-6.855007158592343">
        <ele>303.2</ele>
        <time>2017-08-07T10:18:16.000Z</time>
      </trkpt>
      <trkpt lat="43.23052701540291" lon="-6.854906491935253">
        <ele>310.4</ele>
        <time>2017-08-07T10:18:23.000Z</time>
      </trkpt>
      <trkpt lat="43.23049985803664" lon="-6.854833904653788">
        <ele>316.6</ele>
        <time>2017-08-07T10:18:30.000Z</time>
      </trkpt>
      <trkpt lat="43.23049566708505" lon="-6.854820661246777">
        <ele>317.6</ele>
        <time>2017-08-07T10:18:31.000Z</time>
      </trkpt>
      <trkpt lat="43.23048938065767" lon="-6.854803981259465">
        <ele>318.2</ele>
        <time>2017-08-07T10:18:33.000Z</time>
      </trkpt>
      <trkpt lat="43.23048669844866" lon="-6.854783780872822">
        <ele>318.6</ele>
        <time>2017-08-07T10:18:35.000Z</time>
      </trkpt>
      <trkpt lat="43.23048108257353" lon="-6.85477196238935">
        <ele>319.4</ele>
        <time>2017-08-07T10:18:37.000Z</time>
      </trkpt>
      <trkpt lat="43.230483597144485" lon="-6.854769950732589">
        <ele>319.2</ele>
        <time>2017-08-07T10:18:42.000Z</time>
      </trkpt>
      <trkpt lat="43.230478735640645" lon="-6.854712786152959">
        <ele>320.4</ele>
        <time>2017-08-07T10:18:49.000Z</time>
      </trkpt>
      <trkpt lat="43.23046289384365" lon="-6.854640366509557">
        <ele>323.2</ele>
        <time>2017-08-07T10:18:55.000Z</time>
      </trkpt>
      <trkpt lat="43.23046230711043" lon="-6.854630978778005">
        <ele>323.4</ele>
        <time>2017-08-07T10:18:56.000Z</time>
      </trkpt>
      <trkpt lat="43.230458199977875" lon="-6.854558642953634">
        <ele>324.6</ele>
        <time>2017-08-07T10:19:01.000Z</time>
      </trkpt>
      <trkpt lat="43.23045752942562" lon="-6.854546153917909">
        <ele>324.6</ele>
        <time>2017-08-07T10:19:02.000Z</time>
      </trkpt>
      <trkpt lat="43.230465492233634" lon="-6.854476165026426">
        <ele>324</ele>
        <time>2017-08-07T10:19:07.000Z</time>
      </trkpt>
      <trkpt lat="43.230464989319444" lon="-6.854338450357318">
        <ele>324.6</ele>
        <time>2017-08-07T10:19:16.000Z</time>
      </trkpt>
      <trkpt lat="43.230458702892065" lon="-6.854250859469175">
        <ele>326.2</ele>
        <time>2017-08-07T10:19:22.000Z</time>
      </trkpt>
      <trkpt lat="43.230448896065354" lon="-6.854112222790718">
        <ele>333</ele>
        <time>2017-08-07T10:19:31.000Z</time>
      </trkpt>
      <trkpt lat="43.23045065626502" lon="-6.854001330211759">
        <ele>336.4</ele>
        <time>2017-08-07T10:19:38.000Z</time>
      </trkpt>
      <trkpt lat="43.23045048862696" lon="-6.853922624140978">
        <ele>337.8</ele>
        <time>2017-08-07T10:19:43.000Z</time>
      </trkpt>
      <trkpt lat="43.230449482798576" lon="-6.853907452896237">
        <ele>338.2</ele>
        <time>2017-08-07T10:19:44.000Z</time>
      </trkpt>
      <trkpt lat="43.23044378310442" lon="-6.85381474904716">
        <ele>340.6</ele>
        <time>2017-08-07T10:19:50.000Z</time>
      </trkpt>
      <trkpt lat="43.230444956570864" lon="-6.853699581697583">
        <ele>342.8</ele>
        <time>2017-08-07T10:19:57.000Z</time>
      </trkpt>
      <trkpt lat="43.230458702892065" lon="-6.853594556450844">
        <ele>343.2</ele>
        <time>2017-08-07T10:20:04.000Z</time>
      </trkpt>
      <trkpt lat="43.230488039553165" lon="-6.8535033613443375">
        <ele>342</ele>
        <time>2017-08-07T10:20:10.000Z</time>
      </trkpt>
      <trkpt lat="43.23051301762462" lon="-6.853429349139333">
        <ele>339.6</ele>
        <time>2017-08-07T10:20:15.000Z</time>
      </trkpt>
      <trkpt lat="43.23052919469774" lon="-6.853407304733992">
        <ele>338</ele>
        <time>2017-08-07T10:20:17.000Z</time>
      </trkpt>
      <trkpt lat="43.230567667633295" lon="-6.853310326114297">
        <ele>335.8</ele>
        <time>2017-08-07T10:20:24.000Z</time>
      </trkpt>
      <trkpt lat="43.230598513036966" lon="-6.853234805166721">
        <ele>333.6</ele>
        <time>2017-08-07T10:20:30.000Z</time>
      </trkpt>
      <trkpt lat="43.23063371703029" lon="-6.853148555383086">
        <ele>331.2</ele>
        <time>2017-08-07T10:20:36.000Z</time>
      </trkpt>
      <trkpt lat="43.2306744530797" lon="-6.8530333042144775">
        <ele>328</ele>
        <time>2017-08-07T10:20:44.000Z</time>
      </trkpt>
      <trkpt lat="43.23070085607469" lon="-6.852938840165734">
        <ele>326.4</ele>
        <time>2017-08-07T10:20:51.000Z</time>
      </trkpt>
      <trkpt lat="43.23072214610875" lon="-6.852817218750715">
        <ele>325.4</ele>
        <time>2017-08-07T10:20:59.000Z</time>
      </trkpt>
      <trkpt lat="43.23072273284197" lon="-6.852786373347044">
        <ele>326.2</ele>
        <time>2017-08-07T10:21:01.000Z</time>
      </trkpt>
      <trkpt lat="43.23072181083262" lon="-6.8527196533977985">
        <ele>328</ele>
        <time>2017-08-07T10:21:05.000Z</time>
      </trkpt>
      <trkpt lat="43.23070471175015" lon="-6.852601133286953">
        <ele>330.4</ele>
        <time>2017-08-07T10:21:12.000Z</time>
      </trkpt>
      <trkpt lat="43.23067529127002" lon="-6.852492252364755">
        <ele>333.2</ele>
        <time>2017-08-07T10:21:19.000Z</time>
      </trkpt>
      <trkpt lat="43.230635058134794" lon="-6.852392088621855">
        <ele>334.8</ele>
        <time>2017-08-07T10:21:26.000Z</time>
      </trkpt>
      <trkpt lat="43.23061427101493" lon="-6.8522861413657665">
        <ele>332</ele>
        <time>2017-08-07T10:21:33.000Z</time>
      </trkpt>
      <trkpt lat="43.23058124631643" lon="-6.852166028693318">
        <ele>329</ele>
        <time>2017-08-07T10:21:41.000Z</time>
      </trkpt>
      <trkpt lat="43.230558866634965" lon="-6.85207474976778">
        <ele>327</ele>
        <time>2017-08-07T10:21:47.000Z</time>
      </trkpt>
      <trkpt lat="43.2305396720767" lon="-6.85197995044291">
        <ele>323.4</ele>
        <time>2017-08-07T10:21:53.000Z</time>
      </trkpt>
      <trkpt lat="43.230521231889725" lon="-6.851902501657605">
        <ele>320</ele>
        <time>2017-08-07T10:21:59.000Z</time>
      </trkpt>
      <trkpt lat="43.2305240817368" lon="-6.851873667910695">
        <ele>318.4</ele>
        <time>2017-08-07T10:22:05.000Z</time>
      </trkpt>
      <trkpt lat="43.2305277697742" lon="-6.851835949346423">
        <ele>316.4</ele>
        <time>2017-08-07T10:22:10.000Z</time>
      </trkpt>
      <trkpt lat="43.23051695711911" lon="-6.8518222868442535">
        <ele>316</ele>
        <time>2017-08-07T10:22:15.000Z</time>
      </trkpt>
      <trkpt lat="43.23050245642662" lon="-6.8518308363854885">
        <ele>316.8</ele>
        <time>2017-08-07T10:22:18.000Z</time>
      </trkpt>
      <trkpt lat="43.2305156160146" lon="-6.851867800578475">
        <ele>318.4</ele>
        <time>2017-08-07T10:22:32.000Z</time>
      </trkpt>
      <trkpt lat="43.23055014945567" lon="-6.85185581445694">
        <ele>316.8</ele>
        <time>2017-08-07T10:22:38.000Z</time>
      </trkpt>
      <trkpt lat="43.23059180751443" lon="-6.851826477795839">
        <ele>314.4</ele>
        <time>2017-08-07T10:22:44.000Z</time>
      </trkpt>
      <trkpt lat="43.23061469011009" lon="-6.85183385387063">
        <ele>314.2</ele>
        <time>2017-08-07T10:22:49.000Z</time>
      </trkpt>
      <trkpt lat="43.23060513474047" lon="-6.851829495280981">
        <ele>314.2</ele>
        <time>2017-08-07T10:22:50.000Z</time>
      </trkpt>
      <trkpt lat="43.230576468631625" lon="-6.8518370389938354">
        <ele>315.2</ele>
        <time>2017-08-07T10:22:53.000Z</time>
      </trkpt>
      <trkpt lat="43.230578480288386" lon="-6.851850114762783">
        <ele>315.8</ele>
        <time>2017-08-07T10:22:58.000Z</time>
      </trkpt>
      <trkpt lat="43.23057185858488" lon="-6.851838883012533">
        <ele>315.4</ele>
        <time>2017-08-07T10:23:01.000Z</time>
      </trkpt>
      <trkpt lat="43.23057512752712" lon="-6.851838380098343">
        <ele>315.4</ele>
        <time>2017-08-07T10:23:15.000Z</time>
      </trkpt>
      <trkpt lat="43.2305898796767" lon="-6.8518290761858225">
        <ele>314.6</ele>
        <time>2017-08-07T10:23:24.000Z</time>
      </trkpt>
      <trkpt lat="43.23059289716184" lon="-6.851848186925054">
        <ele>315.4</ele>
        <time>2017-08-07T10:23:39.000Z</time>
      </trkpt>
      <trkpt lat="43.23058409616351" lon="-6.8518508691340685">
        <ele>315.8</ele>
        <time>2017-08-07T10:23:53.000Z</time>
      </trkpt>
      <trkpt lat="43.23059482499957" lon="-6.8518485222011805">
        <ele>315.4</ele>
        <time>2017-08-07T10:23:57.000Z</time>
      </trkpt>
      <trkpt lat="43.23058887384832" lon="-6.851817090064287">
        <ele>314</ele>
        <time>2017-08-07T10:24:06.000Z</time>
      </trkpt>
      <trkpt lat="43.2306123431772" lon="-6.851810133084655">
        <ele>313</ele>
        <time>2017-08-07T10:24:10.000Z</time>
      </trkpt>
      <trkpt lat="43.23062491603196" lon="-6.851813904941082">
        <ele>312.8</ele>
        <time>2017-08-07T10:24:16.000Z</time>
      </trkpt>
      <trkpt lat="43.23058635927737" lon="-6.851849444210529">
        <ele>315.6</ele>
        <time>2017-08-07T10:24:29.000Z</time>
      </trkpt>
      <trkpt lat="43.23059122078121" lon="-6.851829746738076">
        <ele>314.6</ele>
        <time>2017-08-07T10:24:34.000Z</time>
      </trkpt>
      <trkpt lat="43.23059231042862" lon="-6.851828405633569">
        <ele>314.4</ele>
        <time>2017-08-07T10:24:42.000Z</time>
      </trkpt>
      <trkpt lat="43.23058837093413" lon="-6.851843828335404">
        <ele>315.2</ele>
        <time>2017-08-07T10:24:47.000Z</time>
      </trkpt>
      <trkpt lat="43.23056775145233" lon="-6.851847767829895">
        <ele>316</ele>
        <time>2017-08-07T10:24:52.000Z</time>
      </trkpt>
      <trkpt lat="43.23055651970208" lon="-6.851851791143417">
        <ele>316.4</ele>
        <time>2017-08-07T10:24:54.000Z</time>
      </trkpt>
      <trkpt lat="43.23051653802395" lon="-6.851826645433903">
        <ele>316.2</ele>
        <time>2017-08-07T10:24:59.000Z</time>
      </trkpt>
      <trkpt lat="43.230513939633965" lon="-6.851817928254604">
        <ele>315.8</ele>
        <time>2017-08-07T10:25:00.000Z</time>
      </trkpt>
      <trkpt lat="43.23051653802395" lon="-6.851806025952101">
        <ele>315.2</ele>
        <time>2017-08-07T10:25:06.000Z</time>
      </trkpt>
      <trkpt lat="43.23050698265433" lon="-6.851800577715039">
        <ele>315.2</ele>
        <time>2017-08-07T10:25:10.000Z</time>
      </trkpt>
      <trkpt lat="43.230495415627956" lon="-6.851793369278312">
        <ele>315</ele>
        <time>2017-08-07T10:25:11.000Z</time>
      </trkpt>
      <trkpt lat="43.230440681800246" lon="-6.851769648492336">
        <ele>316.6</ele>
        <time>2017-08-07T10:25:15.000Z</time>
      </trkpt>
      <trkpt lat="43.23040916584432" lon="-6.85174148529768">
        <ele>317.2</ele>
        <time>2017-08-07T10:25:18.000Z</time>
      </trkpt>
      <trkpt lat="43.23039843700826" lon="-6.851738216355443">
        <ele>317.6</ele>
        <time>2017-08-07T10:25:19.000Z</time>
      </trkpt>
      <trkpt lat="43.23037982918322" lon="-6.851729331538081">
        <ele>318.2</ele>
        <time>2017-08-07T10:25:21.000Z</time>
      </trkpt>
      <trkpt lat="43.230275474488735" lon="-6.85167602263391">
        <ele>322.2</ele>
        <time>2017-08-07T10:25:31.000Z</time>
      </trkpt>
      <trkpt lat="43.23019945062697" lon="-6.851650457829237">
        <ele>328</ele>
        <time>2017-08-07T10:25:38.000Z</time>
      </trkpt>
      <trkpt lat="43.230089228600264" lon="-6.851628161966801">
        <ele>333.2</ele>
        <time>2017-08-07T10:25:47.000Z</time>
      </trkpt>
      <trkpt lat="43.230001386255026" lon="-6.851638471707702">
        <ele>337.8</ele>
        <time>2017-08-07T10:25:54.000Z</time>
      </trkpt>
      <trkpt lat="43.22990868240595" lon="-6.8516576662659645">
        <ele>342.4</ele>
        <time>2017-08-07T10:26:02.000Z</time>
      </trkpt>
      <trkpt lat="43.22979829274118" lon="-6.851690523326397">
        <ele>345.2</ele>
        <time>2017-08-07T10:26:11.000Z</time>
      </trkpt>
      <trkpt lat="43.229721179232" lon="-6.851701000705361">
        <ele>346.6</ele>
        <time>2017-08-07T10:26:18.000Z</time>
      </trkpt>
      <trkpt lat="43.22963375598192" lon="-6.851707119494677">
        <ele>346.4</ele>
        <time>2017-08-07T10:26:26.000Z</time>
      </trkpt>
      <trkpt lat="43.22962453588843" lon="-6.8517074547708035">
        <ele>346.4</ele>
        <time>2017-08-07T10:26:27.000Z</time>
      </trkpt>
      <trkpt lat="43.22958732023835" lon="-6.851712819188833">
        <ele>346.4</ele>
        <time>2017-08-07T10:26:30.000Z</time>
      </trkpt>
      <trkpt lat="43.22955857031047" lon="-6.851719273254275">
        <ele>346.6</ele>
        <time>2017-08-07T10:26:32.000Z</time>
      </trkpt>
      <trkpt lat="43.22953510098159" lon="-6.851719189435244">
        <ele>346.4</ele>
        <time>2017-08-07T10:26:34.000Z</time>
      </trkpt>
      <trkpt lat="43.22949193418026" lon="-6.8517214525491">
        <ele>346.2</ele>
        <time>2017-08-07T10:26:38.000Z</time>
      </trkpt>
      <trkpt lat="43.229478942230344" lon="-6.851717429235578">
        <ele>346</ele>
        <time>2017-08-07T10:26:39.000Z</time>
      </trkpt>
      <trkpt lat="43.229428147897124" lon="-6.8517183512449265">
        <ele>345.6</ele>
        <time>2017-08-07T10:26:43.000Z</time>
      </trkpt>
      <trkpt lat="43.229351453483105" lon="-6.851725056767464">
        <ele>344.4</ele>
        <time>2017-08-07T10:26:50.000Z</time>
      </trkpt>
      <trkpt lat="43.22927199304104" lon="-6.851725894957781">
        <ele>344.2</ele>
        <time>2017-08-07T10:26:57.000Z</time>
      </trkpt>
      <trkpt lat="43.22920024394989" lon="-6.851728409528732">
        <ele>344.2</ele>
        <time>2017-08-07T10:27:03.000Z</time>
      </trkpt>
      <trkpt lat="43.22911684401333" lon="-6.85171902179718">
        <ele>343.2</ele>
        <time>2017-08-07T10:27:10.000Z</time>
      </trkpt>
      <trkpt lat="43.22903252206743" lon="-6.851727403700352">
        <ele>343.6</ele>
        <time>2017-08-07T10:27:18.000Z</time>
      </trkpt>
      <trkpt lat="43.22901852428913" lon="-6.851727655157447">
        <ele>343.4</ele>
        <time>2017-08-07T10:27:19.000Z</time>
      </trkpt>
      <trkpt lat="43.22895239107311" lon="-6.851736204698682">
        <ele>343.4</ele>
        <time>2017-08-07T10:27:25.000Z</time>
      </trkpt>
      <trkpt lat="43.22890545241535" lon="-6.851752465590835">
        <ele>344</ele>
        <time>2017-08-07T10:27:29.000Z</time>
      </trkpt>
      <trkpt lat="43.22887829504907" lon="-6.851760428398848">
        <ele>344.4</ele>
        <time>2017-08-07T10:27:32.000Z</time>
      </trkpt>
      <trkpt lat="43.228850131854415" lon="-6.851761769503355">
        <ele>344.2</ele>
        <time>2017-08-07T10:27:34.000Z</time>
      </trkpt>
      <trkpt lat="43.22881601750851" lon="-6.8517734203487635">
        <ele>344.6</ele>
        <time>2017-08-07T10:27:37.000Z</time>
      </trkpt>
      <trkpt lat="43.22871878743172" lon="-6.851803846657276">
        <ele>345.6</ele>
        <time>2017-08-07T10:27:46.000Z</time>
      </trkpt>
      <trkpt lat="43.22864561341703" lon="-6.851838296279311">
        <ele>346.8</ele>
        <time>2017-08-07T10:27:53.000Z</time>
      </trkpt>
      <trkpt lat="43.228597501292825" lon="-6.851844917982817">
        <ele>347</ele>
        <time>2017-08-07T10:27:57.000Z</time>
      </trkpt>
      <trkpt lat="43.22858207859099" lon="-6.8518475163728">
        <ele>347</ele>
        <time>2017-08-07T10:27:58.000Z</time>
      </trkpt>
      <trkpt lat="43.22851066477597" lon="-6.851859670132399">
        <ele>347.2</ele>
        <time>2017-08-07T10:28:04.000Z</time>
      </trkpt>
      <trkpt lat="43.22840832173824" lon="-6.85188221745193">
        <ele>347.8</ele>
        <time>2017-08-07T10:28:12.000Z</time>
      </trkpt>
      <trkpt lat="43.228302374482155" lon="-6.85190761461854">
        <ele>349.4</ele>
        <time>2017-08-07T10:28:21.000Z</time>
      </trkpt>
      <trkpt lat="43.22828996926546" lon="-6.851911721751094">
        <ele>349.6</ele>
        <time>2017-08-07T10:28:22.000Z</time>
      </trkpt>
      <trkpt lat="43.22818980552256" lon="-6.851945668458939">
        <ele>350.4</ele>
        <time>2017-08-07T10:28:30.000Z</time>
      </trkpt>
      <trkpt lat="43.22811160236597" lon="-6.851987494155765">
        <ele>351.2</ele>
        <time>2017-08-07T10:28:37.000Z</time>
      </trkpt>
      <trkpt lat="43.228015042841434" lon="-6.8520446587353945">
        <ele>352.4</ele>
        <time>2017-08-07T10:28:46.000Z</time>
      </trkpt>
      <trkpt lat="43.22791647166014" lon="-6.852066200226545">
        <ele>352.8</ele>
        <time>2017-08-07T10:28:54.000Z</time>
      </trkpt>
      <trkpt lat="43.22782536037266" lon="-6.852081203833222">
        <ele>353</ele>
        <time>2017-08-07T10:29:02.000Z</time>
      </trkpt>
      <trkpt lat="43.22774053551257" lon="-6.852099057286978">
        <ele>353.4</ele>
        <time>2017-08-07T10:29:10.000Z</time>
      </trkpt>
      <trkpt lat="43.227658895775676" lon="-6.852119090035558">
        <ele>353.4</ele>
        <time>2017-08-07T10:29:18.000Z</time>
      </trkpt>
      <trkpt lat="43.227581195533276" lon="-6.852144151926041">
        <ele>353</ele>
        <time>2017-08-07T10:29:25.000Z</time>
      </trkpt>
      <trkpt lat="43.227528389543295" lon="-6.852161921560764">
        <ele>352.6</ele>
        <time>2017-08-07T10:29:30.000Z</time>
      </trkpt>
      <trkpt lat="43.2275072671473" lon="-6.852167034521699">
        <ele>352.4</ele>
        <time>2017-08-07T10:29:32.000Z</time>
      </trkpt>
      <trkpt lat="43.22741883806884" lon="-6.852193437516689">
        <ele>351.6</ele>
        <time>2017-08-07T10:29:40.000Z</time>
      </trkpt>
      <trkpt lat="43.227326553314924" lon="-6.852228892967105">
        <ele>353.4</ele>
        <time>2017-08-07T10:29:48.000Z</time>
      </trkpt>
      <trkpt lat="43.227264024317265" lon="-6.852253619581461">
        <ele>354.6</ele>
        <time>2017-08-07T10:29:54.000Z</time>
      </trkpt>
      <trkpt lat="43.22721842676401" lon="-6.852258313447237">
        <ele>354.8</ele>
        <time>2017-08-07T10:30:01.000Z</time>
      </trkpt>
      <trkpt lat="43.22721105068922" lon="-6.8522775918245316">
        <ele>355.8</ele>
        <time>2017-08-07T10:30:09.000Z</time>
      </trkpt>
      <trkpt lat="43.22713636793196" lon="-6.852282369509339">
        <ele>356.4</ele>
        <time>2017-08-07T10:30:17.000Z</time>
      </trkpt>
      <trkpt lat="43.22707652114332" lon="-6.852275999262929">
        <ele>357.8</ele>
        <time>2017-08-07T10:30:23.000Z</time>
      </trkpt>
      <trkpt lat="43.22705548256636" lon="-6.852265186607838">
        <ele>357.8</ele>
        <time>2017-08-07T10:30:25.000Z</time>
      </trkpt>
      <trkpt lat="43.22703268378973" lon="-6.852256385609508">
        <ele>358</ele>
        <time>2017-08-07T10:30:27.000Z</time>
      </trkpt>
      <trkpt lat="43.226967975497246" lon="-6.852251775562763">
        <ele>359.6</ele>
        <time>2017-08-07T10:30:33.000Z</time>
      </trkpt>
      <trkpt lat="43.226890778169036" lon="-6.85224674642086">
        <ele>361.6</ele>
        <time>2017-08-07T10:30:40.000Z</time>
      </trkpt>
      <trkpt lat="43.22681383229792" lon="-6.852232664823532">
        <ele>362.8</ele>
        <time>2017-08-07T10:30:47.000Z</time>
      </trkpt>
      <trkpt lat="43.226710902526975" lon="-6.852230234071612">
        <ele>364.8</ele>
        <time>2017-08-07T10:30:56.000Z</time>
      </trkpt>
      <trkpt lat="43.22663831524551" lon="-6.852228892967105">
        <ele>366.2</ele>
        <time>2017-08-07T10:31:02.000Z</time>
      </trkpt>
      <trkpt lat="43.22653270326555" lon="-6.852230317890644">
        <ele>367.2</ele>
        <time>2017-08-07T10:31:10.000Z</time>
      </trkpt>
      <trkpt lat="43.22645642794669" lon="-6.852233335375786">
        <ele>367.4</ele>
        <time>2017-08-07T10:31:17.000Z</time>
      </trkpt>
      <trkpt lat="43.226374201476574" lon="-6.852238783612847">
        <ele>367.6</ele>
        <time>2017-08-07T10:31:24.000Z</time>
      </trkpt>
      <trkpt lat="43.22628962807357" lon="-6.852238364517689">
        <ele>367.6</ele>
        <time>2017-08-07T10:31:31.000Z</time>
      </trkpt>
      <trkpt lat="43.22620044462383" lon="-6.8522402085363865">
        <ele>366.4</ele>
        <time>2017-08-07T10:31:38.000Z</time>
      </trkpt>
      <trkpt lat="43.226106986403465" lon="-6.852243980392814">
        <ele>365.2</ele>
        <time>2017-08-07T10:31:46.000Z</time>
      </trkpt>
      <trkpt lat="43.22600916959345" lon="-6.852264516055584">
        <ele>366.6</ele>
        <time>2017-08-07T10:31:54.000Z</time>
      </trkpt>
      <trkpt lat="43.22595728561282" lon="-6.852259403094649">
        <ele>366.8</ele>
        <time>2017-08-07T10:31:57.000Z</time>
      </trkpt>
      <trkpt lat="43.22593197226524" lon="-6.85225990600884">
        <ele>367</ele>
        <time>2017-08-07T10:31:59.000Z</time>
      </trkpt>
      <trkpt lat="43.22591118514538" lon="-6.852263677865267">
        <ele>367.2</ele>
        <time>2017-08-07T10:32:01.000Z</time>
      </trkpt>
      <trkpt lat="43.225862234830856" lon="-6.852268874645233">
        <ele>367.8</ele>
        <time>2017-08-07T10:32:05.000Z</time>
      </trkpt>
      <trkpt lat="43.22584547102451" lon="-6.852276083081961">
        <ele>368</ele>
        <time>2017-08-07T10:32:07.000Z</time>
      </trkpt>
      <trkpt lat="43.22580004110932" lon="-6.852285973727703">
        <ele>368.8</ele>
        <time>2017-08-07T10:32:11.000Z</time>
      </trkpt>
      <trkpt lat="43.22571521624923" lon="-6.8522867280989885">
        <ele>368.2</ele>
        <time>2017-08-07T10:32:18.000Z</time>
      </trkpt>
      <trkpt lat="43.22568177245557" lon="-6.852293433621526">
        <ele>368.2</ele>
        <time>2017-08-07T10:32:21.000Z</time>
      </trkpt>
      <trkpt lat="43.225647658109665" lon="-6.85229754075408">
        <ele>368</ele>
        <time>2017-08-07T10:32:24.000Z</time>
      </trkpt>
      <trkpt lat="43.22560063563287" lon="-6.852307766675949">
        <ele>367.8</ele>
        <time>2017-08-07T10:32:28.000Z</time>
      </trkpt>
      <trkpt lat="43.2255888171494" lon="-6.852310197427869">
        <ele>367.8</ele>
        <time>2017-08-07T10:32:29.000Z</time>
      </trkpt>
      <trkpt lat="43.225505501031876" lon="-6.852333750575781">
        <ele>367.8</ele>
        <time>2017-08-07T10:32:36.000Z</time>
      </trkpt>
      <trkpt lat="43.225397542119026" lon="-6.852354202419519">
        <ele>365.4</ele>
        <time>2017-08-07T10:32:45.000Z</time>
      </trkpt>
      <trkpt lat="43.225298300385475" lon="-6.852381359785795">
        <ele>363.2</ele>
        <time>2017-08-07T10:32:53.000Z</time>
      </trkpt>
      <trkpt lat="43.22521104477346" lon="-6.8524163123220205">
        <ele>361.4</ele>
        <time>2017-08-07T10:33:00.000Z</time>
      </trkpt>
      <trkpt lat="43.225118424743414" lon="-6.8524878937751055">
        <ele>362.6</ele>
        <time>2017-08-07T10:33:08.000Z</time>
      </trkpt>
      <trkpt lat="43.225030582398176" lon="-6.852574395015836">
        <ele>364.4</ele>
        <time>2017-08-07T10:33:16.000Z</time>
      </trkpt>
      <trkpt lat="43.22495095431805" lon="-6.852677743881941">
        <ele>367.6</ele>
        <time>2017-08-07T10:33:25.000Z</time>
      </trkpt>
      <trkpt lat="43.22486914694309" lon="-6.852824343368411">
        <ele>371</ele>
        <time>2017-08-07T10:33:36.000Z</time>
      </trkpt>
      <trkpt lat="43.22480460628867" lon="-6.852930625900626">
        <ele>374.8</ele>
        <time>2017-08-07T10:33:45.000Z</time>
      </trkpt>
      <trkpt lat="43.22475951164961" lon="-6.853013606742024">
        <ele>379.2</ele>
        <time>2017-08-07T10:33:52.000Z</time>
      </trkpt>
      <trkpt lat="43.224730007350445" lon="-6.853066412732005">
        <ele>382.2</ele>
        <time>2017-08-07T10:33:59.000Z</time>
      </trkpt>
      <trkpt lat="43.224716763943434" lon="-6.853112345561385">
        <ele>384.8</ele>
        <time>2017-08-07T10:34:04.000Z</time>
      </trkpt>
      <trkpt lat="43.22470083832741" lon="-6.8531374912709">
        <ele>386.2</ele>
        <time>2017-08-07T10:34:08.000Z</time>
      </trkpt>
      <trkpt lat="43.2246426679194" lon="-6.853214353322983">
        <ele>389.2</ele>
        <time>2017-08-07T10:34:16.000Z</time>
      </trkpt>
      <trkpt lat="43.22459531016648" lon="-6.853255592286587">
        <ele>390.8</ele>
        <time>2017-08-07T10:34:21.000Z</time>
      </trkpt>
      <trkpt lat="43.22458106093109" lon="-6.85326162725687">
        <ele>390.8</ele>
        <time>2017-08-07T10:34:23.000Z</time>
      </trkpt>
      <trkpt lat="43.224493050947785" lon="-6.8532894551754">
        <ele>391.2</ele>
        <time>2017-08-07T10:34:31.000Z</time>
      </trkpt>
      <trkpt lat="43.2244164403528" lon="-6.853296160697937">
        <ele>391</ele>
        <time>2017-08-07T10:34:38.000Z</time>
      </trkpt>
      <trkpt lat="43.2243802305311" lon="-6.853295993059874">
        <ele>390.8</ele>
        <time>2017-08-07T10:34:41.000Z</time>
      </trkpt>
      <trkpt lat="43.22435801848769" lon="-6.853291131556034">
        <ele>390.4</ele>
        <time>2017-08-07T10:34:43.000Z</time>
      </trkpt>
      <trkpt lat="43.22426900267601" lon="-6.853234972804785">
        <ele>387.4</ele>
        <time>2017-08-07T10:34:51.000Z</time>
      </trkpt>
      <trkpt lat="43.22418845258653" lon="-6.853161212056875">
        <ele>382.4</ele>
        <time>2017-08-07T10:34:59.000Z</time>
      </trkpt>
      <trkpt lat="43.224083092063665" lon="-6.853107651695609">
        <ele>378</ele>
        <time>2017-08-07T10:35:08.000Z</time>
      </trkpt>
      <trkpt lat="43.22399290278554" lon="-6.853085104376078">
        <ele>377.8</ele>
        <time>2017-08-07T10:35:15.000Z</time>
      </trkpt>
      <trkpt lat="43.22386147454381" lon="-6.853082841262221">
        <ele>379.2</ele>
        <time>2017-08-07T10:35:25.000Z</time>
      </trkpt>
      <trkpt lat="43.22375552728772" lon="-6.85310379602015">
        <ele>380.8</ele>
        <time>2017-08-07T10:35:33.000Z</time>
      </trkpt>
      <trkpt lat="43.22366173379123" lon="-6.853140257298946">
        <ele>383.8</ele>
        <time>2017-08-07T10:35:41.000Z</time>
      </trkpt>
      <trkpt lat="43.22355913929641" lon="-6.853200858458877">
        <ele>388</ele>
        <time>2017-08-07T10:35:50.000Z</time>
      </trkpt>
      <trkpt lat="43.22348177433014" lon="-6.853262800723314">
        <ele>390.2</ele>
        <time>2017-08-07T10:35:57.000Z</time>
      </trkpt>
      <trkpt lat="43.223386304453015" lon="-6.853340333327651">
        <ele>391.8</ele>
        <time>2017-08-07T10:36:06.000Z</time>
      </trkpt>
      <trkpt lat="43.223282704129815" lon="-6.853423984721303">
        <ele>393.4</ele>
        <time>2017-08-07T10:36:16.000Z</time>
      </trkpt>
      <trkpt lat="43.22316904552281" lon="-6.853512162342668">
        <ele>395.2</ele>
        <time>2017-08-07T10:36:26.000Z</time>
      </trkpt>
      <trkpt lat="43.22308950126171" lon="-6.853574858978391">
        <ele>396.4</ele>
        <time>2017-08-07T10:36:33.000Z</time>
      </trkpt>
      <trkpt lat="43.222986655309796" lon="-6.853651218116283">
        <ele>397.8</ele>
        <time>2017-08-07T10:36:42.000Z</time>
      </trkpt>
      <trkpt lat="43.22288422845304" lon="-6.853731265291572">
        <ele>398.8</ele>
        <time>2017-08-07T10:36:51.000Z</time>
      </trkpt>
      <trkpt lat="43.22279856540263" lon="-6.853801505640149">
        <ele>399.2</ele>
        <time>2017-08-07T10:36:59.000Z</time>
      </trkpt>
      <trkpt lat="43.22270234115422" lon="-6.853852299973369">
        <ele>398.2</ele>
        <time>2017-08-07T10:37:07.000Z</time>
      </trkpt>
      <trkpt lat="43.222601590678096" lon="-6.853891192004085">
        <ele>395.8</ele>
        <time>2017-08-07T10:37:15.000Z</time>
      </trkpt>
      <trkpt lat="43.22248935699463" lon="-6.853935532271862">
        <ele>393.2</ele>
        <time>2017-08-07T10:37:24.000Z</time>
      </trkpt>
      <trkpt lat="43.22240143083036" lon="-6.853971658274531">
        <ele>392.2</ele>
        <time>2017-08-07T10:37:31.000Z</time>
      </trkpt>
      <trkpt lat="43.22229196317494" lon="-6.854020524770021">
        <ele>391.8</ele>
        <time>2017-08-07T10:37:40.000Z</time>
      </trkpt>
      <trkpt lat="43.22219867259264" lon="-6.854079281911254">
        <ele>391.8</ele>
        <time>2017-08-07T10:37:48.000Z</time>
      </trkpt>
      <trkpt lat="43.22210781276226" lon="-6.85415874235332">
        <ele>392</ele>
        <time>2017-08-07T10:37:57.000Z</time>
      </trkpt>
      <trkpt lat="43.222029358148575" lon="-6.854246081784368">
        <ele>392.6</ele>
        <time>2017-08-07T10:38:05.000Z</time>
      </trkpt>
      <trkpt lat="43.22193866595626" lon="-6.85436544008553">
        <ele>391.6</ele>
        <time>2017-08-07T10:38:15.000Z</time>
      </trkpt>
      <trkpt lat="43.221868174150586" lon="-6.854510447010398">
        <ele>391</ele>
        <time>2017-08-07T10:38:25.000Z</time>
      </trkpt>
      <trkpt lat="43.22181914001703" lon="-6.854651179164648">
        <ele>391.2</ele>
        <time>2017-08-07T10:38:34.000Z</time>
      </trkpt>
      <trkpt lat="43.22178619913757" lon="-6.854767519980669">
        <ele>392.2</ele>
        <time>2017-08-07T10:38:41.000Z</time>
      </trkpt>
      <trkpt lat="43.221750408411026" lon="-6.854937924072146">
        <ele>394.6</ele>
        <time>2017-08-07T10:38:51.000Z</time>
      </trkpt>
      <trkpt lat="43.2217241730541" lon="-6.8550922349095345">
        <ele>398.6</ele>
        <time>2017-08-07T10:39:00.000Z</time>
      </trkpt>
      <trkpt lat="43.2217069901526" lon="-6.855228189378977">
        <ele>400.4</ele>
        <time>2017-08-07T10:39:08.000Z</time>
      </trkpt>
      <trkpt lat="43.22170916944742" lon="-6.855245875194669">
        <ele>401</ele>
        <time>2017-08-07T10:39:09.000Z</time>
      </trkpt>
      <trkpt lat="43.22170916944742" lon="-6.855245875194669">
        <ele>401</ele>
        <time>2017-08-07T10:39:09.000Z</time>
      </trkpt>
      <trkpt lat="43.22171738371253" lon="-6.855318462476134">
        <ele>403</ele>
        <time>2017-08-07T10:39:13.000Z</time>
      </trkpt>
      <trkpt lat="43.2217395119369" lon="-6.855463134124875">
        <ele>408.2</ele>
        <time>2017-08-07T10:39:22.000Z</time>
      </trkpt>
      <trkpt lat="43.2216998655349" lon="-6.855615098029375">
        <ele>409.8</ele>
        <time>2017-08-07T10:39:32.000Z</time>
      </trkpt>
      <trkpt lat="43.22163624688983" lon="-6.855723140761256">
        <ele>407.8</ele>
        <time>2017-08-07T10:39:40.000Z</time>
      </trkpt>
      <trkpt lat="43.22153951972723" lon="-6.855876361951232">
        <ele>404</ele>
        <time>2017-08-07T10:39:52.000Z</time>
      </trkpt>
      <trkpt lat="43.221470871940255" lon="-6.855998318642378">
        <ele>401</ele>
        <time>2017-08-07T10:40:01.000Z</time>
      </trkpt>
      <trkpt lat="43.221406415104866" lon="-6.856126310303807">
        <ele>398.2</ele>
        <time>2017-08-07T10:40:10.000Z</time>
      </trkpt>
      <trkpt lat="43.22137791663408" lon="-6.856279950588942">
        <ele>397.8</ele>
        <time>2017-08-07T10:40:19.000Z</time>
      </trkpt>
      <trkpt lat="43.22139040566981" lon="-6.856420179829001">
        <ele>399</ele>
        <time>2017-08-07T10:40:27.000Z</time>
      </trkpt>
      <trkpt lat="43.221457125619054" lon="-6.856573736295104">
        <ele>402.6</ele>
        <time>2017-08-07T10:40:37.000Z</time>
      </trkpt>
      <trkpt lat="43.22150791995227" lon="-6.856710445135832">
        <ele>405.6</ele>
        <time>2017-08-07T10:40:46.000Z</time>
      </trkpt>
      <trkpt lat="43.22152275592089" lon="-6.856861067935824">
        <ele>409.2</ele>
        <time>2017-08-07T10:40:55.000Z</time>
      </trkpt>
      <trkpt lat="43.22153658606112" lon="-6.857004566118121">
        <ele>414</ele>
        <time>2017-08-07T10:41:03.000Z</time>
      </trkpt>
      <trkpt lat="43.22153423912823" lon="-6.857135156169534">
        <ele>418.4</ele>
        <time>2017-08-07T10:41:11.000Z</time>
      </trkpt>
      <trkpt lat="43.221518816426396" lon="-6.8572621420025826">
        <ele>421.8</ele>
        <time>2017-08-07T10:41:19.000Z</time>
      </trkpt>
      <trkpt lat="43.22150330990553" lon="-6.8572889640927315">
        <ele>422</ele>
        <time>2017-08-07T10:41:26.000Z</time>
      </trkpt>
      <trkpt lat="43.22147908620536" lon="-6.857377560809255">
        <ele>423.8</ele>
        <time>2017-08-07T10:41:32.000Z</time>
      </trkpt>
      <trkpt lat="43.22142669931054" lon="-6.857480742037296">
        <ele>425.2</ele>
        <time>2017-08-07T10:41:40.000Z</time>
      </trkpt>
      <trkpt lat="43.22137598879635" lon="-6.857525501400232">
        <ele>424.4</ele>
        <time>2017-08-07T10:41:46.000Z</time>
      </trkpt>
      <trkpt lat="43.221312034875154" lon="-6.8575578555464745">
        <ele>422.6</ele>
        <time>2017-08-07T10:41:52.000Z</time>
      </trkpt>
      <trkpt lat="43.221225617453456" lon="-6.857587024569511">
        <ele>420.8</ele>
        <time>2017-08-07T10:42:00.000Z</time>
      </trkpt>
      <trkpt lat="43.22121555916965" lon="-6.857584174722433">
        <ele>420.4</ele>
        <time>2017-08-07T10:42:01.000Z</time>
      </trkpt>
      <trkpt lat="43.22117256000638" lon="-6.857587192207575">
        <ele>419</ele>
        <time>2017-08-07T10:42:06.000Z</time>
      </trkpt>
      <trkpt lat="43.22113802656531" lon="-6.857598843052983">
        <ele>418.4</ele>
        <time>2017-08-07T10:42:11.000Z</time>
      </trkpt>
      <trkpt lat="43.22102587670088" lon="-6.857624826952815">
        <ele>416.2</ele>
        <time>2017-08-07T10:42:21.000Z</time>
      </trkpt>
      <trkpt lat="43.22094105184078" lon="-6.857662042602897">
        <ele>414.8</ele>
        <time>2017-08-07T10:42:29.000Z</time>
      </trkpt>
      <trkpt lat="43.22088045068085" lon="-6.857701186090708">
        <ele>414.4</ele>
        <time>2017-08-07T10:42:35.000Z</time>
      </trkpt>
      <trkpt lat="43.22082404047251" lon="-6.857779640704393">
        <ele>416.4</ele>
        <time>2017-08-07T10:42:43.000Z</time>
      </trkpt>
      <trkpt lat="43.220818592235446" lon="-6.857785424217582">
        <ele>416.6</ele>
        <time>2017-08-07T10:42:44.000Z</time>
      </trkpt>
      <trkpt lat="43.22080652229488" lon="-6.857814257964492">
        <ele>417.6</ele>
        <time>2017-08-07T10:42:49.000Z</time>
      </trkpt>
      <trkpt lat="43.22079302743077" lon="-6.857814006507397">
        <ele>417</ele>
        <time>2017-08-07T10:42:58.000Z</time>
      </trkpt>
      <trkpt lat="43.22078020311892" lon="-6.857799589633942">
        <ele>415.8</ele>
        <time>2017-08-07T10:43:08.000Z</time>
      </trkpt>
      <trkpt lat="43.22074122726917" lon="-6.857862286269665">
        <ele>417</ele>
        <time>2017-08-07T10:43:25.000Z</time>
      </trkpt>
      <trkpt lat="43.2206947915256" lon="-6.857949960976839">
        <ele>418.6</ele>
        <time>2017-08-07T10:43:32.000Z</time>
      </trkpt>
      <trkpt lat="43.22064835578203" lon="-6.858017602935433">
        <ele>419.2</ele>
        <time>2017-08-07T10:43:39.000Z</time>
      </trkpt>
      <trkpt lat="43.220589850097895" lon="-6.858088178560138">
        <ele>419</ele>
        <time>2017-08-07T10:43:46.000Z</time>
      </trkpt>
      <trkpt lat="43.220537630841136" lon="-6.858153138309717">
        <ele>418.8</ele>
        <time>2017-08-07T10:43:53.000Z</time>
      </trkpt>
      <trkpt lat="43.22052841074765" lon="-6.85815867036581">
        <ele>418.4</ele>
        <time>2017-08-07T10:43:54.000Z</time>
      </trkpt>
      <trkpt lat="43.220488764345646" lon="-6.858212482184172">
        <ele>419.4</ele>
        <time>2017-08-07T10:43:59.000Z</time>
      </trkpt>
      <trkpt lat="43.22041944600642" lon="-6.858293367549777">
        <ele>422.4</ele>
        <time>2017-08-07T10:44:07.000Z</time>
      </trkpt>
      <trkpt lat="43.22037770412862" lon="-6.858322620391846">
        <ele>423</ele>
        <time>2017-08-07T10:44:11.000Z</time>
      </trkpt>
      <trkpt lat="43.220363203436136" lon="-6.858336869627237">
        <ele>423.4</ele>
        <time>2017-08-07T10:44:13.000Z</time>
      </trkpt>
      <trkpt lat="43.22034568525851" lon="-6.858362015336752">
        <ele>424.6</ele>
        <time>2017-08-07T10:44:16.000Z</time>
      </trkpt>
      <trkpt lat="43.22032439522445" lon="-6.858392357826233">
        <ele>426.2</ele>
        <time>2017-08-07T10:44:19.000Z</time>
      </trkpt>
      <trkpt lat="43.22027804329991" lon="-6.858450695872307">
        <ele>428</ele>
        <time>2017-08-07T10:44:24.000Z</time>
      </trkpt>
      <trkpt lat="43.22022607550025" lon="-6.858503334224224">
        <ele>428</ele>
        <time>2017-08-07T10:44:30.000Z</time>
      </trkpt>
      <trkpt lat="43.220170168206096" lon="-6.858549602329731">
        <ele>427.4</ele>
        <time>2017-08-07T10:44:36.000Z</time>
      </trkpt>
      <trkpt lat="43.22011216543615" lon="-6.858617244288325">
        <ele>427.6</ele>
        <time>2017-08-07T10:44:43.000Z</time>
      </trkpt>
      <trkpt lat="43.22006346657872" lon="-6.858675666153431">
        <ele>427.8</ele>
        <time>2017-08-07T10:44:49.000Z</time>
      </trkpt>
      <trkpt lat="43.22004393674433" lon="-6.85869368724525">
        <ele>427.6</ele>
        <time>2017-08-07T10:44:51.000Z</time>
      </trkpt>
      <trkpt lat="43.219997668638825" lon="-6.858740793541074">
        <ele>427</ele>
        <time>2017-08-07T10:44:57.000Z</time>
      </trkpt>
      <trkpt lat="43.21999113075435" lon="-6.858747415244579">
        <ele>426.8</ele>
        <time>2017-08-07T10:44:58.000Z</time>
      </trkpt>
      <trkpt lat="43.21998652070761" lon="-6.858756551519036">
        <ele>426.8</ele>
        <time>2017-08-07T10:44:59.000Z</time>
      </trkpt>
      <trkpt lat="43.2199661526829" lon="-6.858785133808851">
        <ele>426.6</ele>
        <time>2017-08-07T10:45:03.000Z</time>
      </trkpt>
      <trkpt lat="43.219903288409114" lon="-6.85884615406394">
        <ele>425</ele>
        <time>2017-08-07T10:45:09.000Z</time>
      </trkpt>
      <trkpt lat="43.2198918890208" lon="-6.85885981656611">
        <ele>424.8</ele>
        <time>2017-08-07T10:45:10.000Z</time>
      </trkpt>
      <trkpt lat="43.2198488060385" lon="-6.858915137127042">
        <ele>424</ele>
        <time>2017-08-07T10:45:15.000Z</time>
      </trkpt>
      <trkpt lat="43.21982257068157" lon="-6.8589449767023325">
        <ele>423.4</ele>
        <time>2017-08-07T10:45:18.000Z</time>
      </trkpt>
      <trkpt lat="43.2197933178395" lon="-6.858969870954752">
        <ele>422.6</ele>
        <time>2017-08-07T10:45:21.000Z</time>
      </trkpt>
      <trkpt lat="43.219768004491925" lon="-6.858994429931045">
        <ele>422.2</ele>
        <time>2017-08-07T10:45:24.000Z</time>
      </trkpt>
      <trkpt lat="43.21975291706622" lon="-6.859013792127371">
        <ele>422.4</ele>
        <time>2017-08-07T10:45:26.000Z</time>
      </trkpt>
      <trkpt lat="43.219714695587754" lon="-6.859066179022193">
        <ele>423.4</ele>
        <time>2017-08-07T10:45:31.000Z</time>
      </trkpt>
      <trkpt lat="43.21969742886722" lon="-6.8590854573994875">
        <ele>423.8</ele>
        <time>2017-08-07T10:45:33.000Z</time>
      </trkpt>
      <trkpt lat="43.21967152878642" lon="-6.859114961698651">
        <ele>424</ele>
        <time>2017-08-07T10:45:36.000Z</time>
      </trkpt>
      <trkpt lat="43.219646802172065" lon="-6.859148992225528">
        <ele>424.8</ele>
        <time>2017-08-07T10:45:39.000Z</time>
      </trkpt>
      <trkpt lat="43.21960153989494" lon="-6.859203893691301">
        <ele>426</ele>
        <time>2017-08-07T10:45:45.000Z</time>
      </trkpt>
      <trkpt lat="43.219542698934674" lon="-6.859283857047558">
        <ele>427.8</ele>
        <time>2017-08-07T10:45:52.000Z</time>
      </trkpt>
      <trkpt lat="43.21950732730329" lon="-6.859323084354401">
        <ele>428.4</ele>
        <time>2017-08-07T10:45:56.000Z</time>
      </trkpt>
      <trkpt lat="43.21948033757508" lon="-6.859364910051227">
        <ele>429.4</ele>
        <time>2017-08-07T10:45:59.000Z</time>
      </trkpt>
      <trkpt lat="43.219409845769405" lon="-6.859465576708317">
        <ele>431.8</ele>
        <time>2017-08-07T10:46:07.000Z</time>
      </trkpt>
      <trkpt lat="43.21934597566724" lon="-6.859578397125006">
        <ele>435</ele>
        <time>2017-08-07T10:46:14.000Z</time>
      </trkpt>
      <trkpt lat="43.21928042918444" lon="-6.859698593616486">
        <ele>438.6</ele>
        <time>2017-08-07T10:46:21.000Z</time>
      </trkpt>
      <trkpt lat="43.219198202714324" lon="-6.859804708510637">
        <ele>440.8</ele>
        <time>2017-08-07T10:46:26.000Z</time>
      </trkpt>
      <trkpt lat="43.21912427432835" lon="-6.859933203086257">
        <ele>444.2</ele>
        <time>2017-08-07T10:46:31.000Z</time>
      </trkpt>
      <trkpt lat="43.21907130070031" lon="-6.86001542955637">
        <ele>446</ele>
        <time>2017-08-07T10:46:36.000Z</time>
      </trkpt>
      <trkpt lat="43.219024781137705" lon="-6.860122215002775">
        <ele>449.4</ele>
        <time>2017-08-07T10:46:43.000Z</time>
      </trkpt>
      <trkpt lat="43.21901723742485" lon="-6.8601388949900866">
        <ele>449.8</ele>
        <time>2017-08-07T10:46:44.000Z</time>
      </trkpt>
      <trkpt lat="43.21900147944689" lon="-6.860197652131319">
        <ele>451.6</ele>
        <time>2017-08-07T10:46:49.000Z</time>
      </trkpt>
      <trkpt lat="43.218969628214836" lon="-6.860278537496924">
        <ele>454</ele>
        <time>2017-08-07T10:46:55.000Z</time>
      </trkpt>
      <trkpt lat="43.218948086723685" lon="-6.860335031524301">
        <ele>455.8</ele>
        <time>2017-08-07T10:46:59.000Z</time>
      </trkpt>
      <trkpt lat="43.218942638486624" lon="-6.86034232378006">
        <ele>455.8</ele>
        <time>2017-08-07T10:47:00.000Z</time>
      </trkpt>
      <trkpt lat="43.21893819607794" lon="-6.860351879149675">
        <ele>456.2</ele>
        <time>2017-08-07T10:47:01.000Z</time>
      </trkpt>
      <trkpt lat="43.218923611566424" lon="-6.860364954918623">
        <ele>456</ele>
        <time>2017-08-07T10:47:04.000Z</time>
      </trkpt>
      <trkpt lat="43.21892377920449" lon="-6.860373672097921">
        <ele>456.4</ele>
        <time>2017-08-07T10:47:06.000Z</time>
      </trkpt>
      <trkpt lat="43.21892889216542" lon="-6.860379371792078">
        <ele>457</ele>
        <time>2017-08-07T10:47:12.000Z</time>
      </trkpt>
      <trkpt lat="43.2189230248332" lon="-6.860382221639156">
        <ele>456.8</ele>
        <time>2017-08-07T10:47:17.000Z</time>
      </trkpt>
      <trkpt lat="43.21889569982886" lon="-6.860312484204769">
        <ele>452</ele>
        <time>2017-08-07T10:47:43.000Z</time>
      </trkpt>
      <trkpt lat="43.21892964653671" lon="-6.860352214425802">
        <ele>455.6</ele>
        <time>2017-08-07T10:47:54.000Z</time>
      </trkpt>
      <trkpt lat="43.21895990520716" lon="-6.860364535823464">
        <ele>457.8</ele>
        <time>2017-08-07T10:47:59.000Z</time>
      </trkpt>
      <trkpt lat="43.21894012391567" lon="-6.860372079536319">
        <ele>457.2</ele>
        <time>2017-08-07T10:48:06.000Z</time>
      </trkpt>
      <trkpt lat="43.218892347067595" lon="-6.860356740653515">
        <ele>454</ele>
        <time>2017-08-07T10:48:27.000Z</time>
      </trkpt>
      <trkpt lat="43.218886982649565" lon="-6.860356405377388">
        <ele>453.8</ele>
        <time>2017-08-07T10:48:28.000Z</time>
      </trkpt>
      <trkpt lat="43.21887616999447" lon="-6.860358584672213">
        <ele>453.4</ele>
        <time>2017-08-07T10:49:02.000Z</time>
      </trkpt>
      <trkpt lat="43.21887072175741" lon="-6.860341485589743">
        <ele>452.2</ele>
        <time>2017-08-07T10:49:09.000Z</time>
      </trkpt>
      <trkpt lat="43.21886627934873" lon="-6.8603256437927485">
        <ele>451.2</ele>
        <time>2017-08-07T10:49:46.000Z</time>
      </trkpt>
      <trkpt lat="43.218858148902655" lon="-6.860309382900596">
        <ele>450.2</ele>
        <time>2017-08-07T10:49:50.000Z</time>
      </trkpt>
      <trkpt lat="43.218837194144726" lon="-6.860321285203099">
        <ele>449.8</ele>
        <time>2017-08-07T10:49:56.000Z</time>
      </trkpt>
      <trkpt lat="43.21883828379214" lon="-6.860339725390077">
        <ele>450.6</ele>
        <time>2017-08-07T10:50:02.000Z</time>
      </trkpt>
      <trkpt lat="43.218874828889966" lon="-6.860355231910944">
        <ele>453</ele>
        <time>2017-08-07T10:50:12.000Z</time>
      </trkpt>
      <trkpt lat="43.218934424221516" lon="-6.860382054001093">
        <ele>457.4</ele>
        <time>2017-08-07T10:50:43.000Z</time>
      </trkpt>
      <trkpt lat="43.21892872452736" lon="-6.860377108678222">
        <ele>457</ele>
        <time>2017-08-07T10:50:47.000Z</time>
      </trkpt>
      <trkpt lat="43.21890156716108" lon="-6.860397811979055">
        <ele>456.6</ele>
        <time>2017-08-07T10:51:53.000Z</time>
      </trkpt>
      <trkpt lat="43.218921180814505" lon="-6.860402841120958">
        <ele>458</ele>
        <time>2017-08-07T10:52:04.000Z</time>
      </trkpt>
      <trkpt lat="43.21898739784956" lon="-6.860372079536319">
        <ele>459.6</ele>
        <time>2017-08-07T10:52:56.000Z</time>
      </trkpt>
      <trkpt lat="43.21902411058545" lon="-6.860316675156355">
        <ele>458.6</ele>
        <time>2017-08-07T10:55:35.000Z</time>
      </trkpt>
      <trkpt lat="43.21893224492669" lon="-6.8602735083550215">
        <ele>451.8</ele>
        <time>2017-08-07T10:57:58.000Z</time>
      </trkpt>
      <trkpt lat="43.21888036094606" lon="-6.860264791175723">
        <ele>449.2</ele>
        <time>2017-08-07T10:58:03.000Z</time>
      </trkpt>
      <trkpt lat="43.21880500763655" lon="-6.860272586345673">
        <ele>446.8</ele>
        <time>2017-08-07T10:58:11.000Z</time>
      </trkpt>
      <trkpt lat="43.218796541914344" lon="-6.860266299918294">
        <ele>446.6</ele>
        <time>2017-08-07T10:58:12.000Z</time>
      </trkpt>
      <trkpt lat="43.21874004788697" lon="-6.860252050682902">
        <ele>446.6</ele>
        <time>2017-08-07T10:58:17.000Z</time>
      </trkpt>
      <trkpt lat="43.21868246421218" lon="-6.860222294926643">
        <ele>445.6</ele>
        <time>2017-08-07T10:58:22.000Z</time>
      </trkpt>
      <trkpt lat="43.21867181919515" lon="-6.860213493928313">
        <ele>445.2</ele>
        <time>2017-08-07T10:58:23.000Z</time>
      </trkpt>
      <trkpt lat="43.21860585361719" lon="-6.86013369821012">
        <ele>440.4</ele>
        <time>2017-08-07T10:58:31.000Z</time>
      </trkpt>
      <trkpt lat="43.218533182516694" lon="-6.860017022117972">
        <ele>438</ele>
        <time>2017-08-07T10:58:42.000Z</time>
      </trkpt>
      <trkpt lat="43.218503845855594" lon="-6.8599209655076265">
        <ele>440.6</ele>
        <time>2017-08-07T10:58:49.000Z</time>
      </trkpt>
      <trkpt lat="43.21849772706628" lon="-6.859909147024155">
        <ele>441</ele>
        <time>2017-08-07T10:58:50.000Z</time>
      </trkpt>
      <trkpt lat="43.21847174316645" lon="-6.85986346565187">
        <ele>442.8</ele>
        <time>2017-08-07T10:58:54.000Z</time>
      </trkpt>
      <trkpt lat="43.21846646256745" lon="-6.859850808978081">
        <ele>443</ele>
        <time>2017-08-07T10:58:55.000Z</time>
      </trkpt>
      <trkpt lat="43.21841332130134" lon="-6.85972566716373">
        <ele>444</ele>
        <time>2017-08-07T10:59:04.000Z</time>
      </trkpt>
      <trkpt lat="43.21836336515844" lon="-6.859634974971414">
        <ele>444.8</ele>
        <time>2017-08-07T10:59:12.000Z</time>
      </trkpt>
      <trkpt lat="43.21830804459751" lon="-6.859545288607478">
        <ele>445.2</ele>
        <time>2017-08-07T10:59:20.000Z</time>
      </trkpt>
      <trkpt lat="43.21826965548098" lon="-6.859494661912322">
        <ele>445.4</ele>
        <time>2017-08-07T10:59:25.000Z</time>
      </trkpt>
      <trkpt lat="43.218256663531065" lon="-6.859477395191789">
        <ele>445.2</ele>
        <time>2017-08-07T10:59:27.000Z</time>
      </trkpt>
      <trkpt lat="43.218230260536075" lon="-6.85944864526391">
        <ele>445.6</ele>
        <time>2017-08-07T10:59:30.000Z</time>
      </trkpt>
      <trkpt lat="43.21820721030235" lon="-6.859431294724345">
        <ele>446.2</ele>
        <time>2017-08-07T10:59:33.000Z</time>
      </trkpt>
      <trkpt lat="43.2181700784713" lon="-6.85938804410398">
        <ele>446.8</ele>
        <time>2017-08-07T10:59:37.000Z</time>
      </trkpt>
      <trkpt lat="43.21816605515778" lon="-6.859381254762411">
        <ele>446.6</ele>
        <time>2017-08-07T10:59:38.000Z</time>
      </trkpt>
      <trkpt lat="43.218137556687" lon="-6.859330711886287">
        <ele>446.6</ele>
        <time>2017-08-07T10:59:42.000Z</time>
      </trkpt>
      <trkpt lat="43.218093467876315" lon="-6.85927078127861">
        <ele>447</ele>
        <time>2017-08-07T10:59:47.000Z</time>
      </trkpt>
      <trkpt lat="43.21808215230703" lon="-6.859252257272601">
        <ele>447.2</ele>
        <time>2017-08-07T10:59:49.000Z</time>
      </trkpt>
      <trkpt lat="43.21807368658483" lon="-6.859229961410165">
        <ele>447</ele>
        <time>2017-08-07T10:59:51.000Z</time>
      </trkpt>
      <trkpt lat="43.218056755140424" lon="-6.859202720224857">
        <ele>447.4</ele>
        <time>2017-08-07T10:59:53.000Z</time>
      </trkpt>
      <trkpt lat="43.21801803074777" lon="-6.8591381795704365">
        <ele>448.4</ele>
        <time>2017-08-07T10:59:58.000Z</time>
      </trkpt>
      <trkpt lat="43.21800378151238" lon="-6.859110603109002">
        <ele>448.8</ele>
        <time>2017-08-07T11:00:00.000Z</time>
      </trkpt>
      <trkpt lat="43.217975283041596" lon="-6.859015971422195">
        <ele>448.8</ele>
        <time>2017-08-07T11:00:07.000Z</time>
      </trkpt>
      <trkpt lat="43.21794376708567" lon="-6.858936762437224">
        <ele>449.4</ele>
        <time>2017-08-07T11:00:13.000Z</time>
      </trkpt>
      <trkpt lat="43.217907724902034" lon="-6.858840873464942">
        <ele>450.4</ele>
        <time>2017-08-07T11:00:21.000Z</time>
      </trkpt>
      <trkpt lat="43.217900013551116" lon="-6.8588303960859776">
        <ele>450.8</ele>
        <time>2017-08-07T11:00:22.000Z</time>
      </trkpt>
      <trkpt lat="43.21789054200053" lon="-6.858790498226881">
        <ele>450.8</ele>
        <time>2017-08-07T11:00:25.000Z</time>
      </trkpt>
      <trkpt lat="43.21787185035646" lon="-6.858711037784815">
        <ele>448.8</ele>
        <time>2017-08-07T11:00:32.000Z</time>
      </trkpt>
      <trkpt lat="43.217852069064975" lon="-6.858640965074301">
        <ele>448</ele>
        <time>2017-08-07T11:00:37.000Z</time>
      </trkpt>
      <trkpt lat="43.217849638313055" lon="-6.858630320057273">
        <ele>447.8</ele>
        <time>2017-08-07T11:00:38.000Z</time>
      </trkpt>
      <trkpt lat="43.21783119812608" lon="-6.858565527945757">
        <ele>447.2</ele>
        <time>2017-08-07T11:00:43.000Z</time>
      </trkpt>
      <trkpt lat="43.21782885119319" lon="-6.8585011549293995">
        <ele>446.2</ele>
        <time>2017-08-07T11:00:48.000Z</time>
      </trkpt>
      <trkpt lat="43.21782390587032" lon="-6.858480870723724">
        <ele>446</ele>
        <time>2017-08-07T11:00:50.000Z</time>
      </trkpt>
      <trkpt lat="43.21781711652875" lon="-6.8584622628986835">
        <ele>445.8</ele>
        <time>2017-08-07T11:00:52.000Z</time>
      </trkpt>
      <trkpt lat="43.21778057143092" lon="-6.858414234593511">
        <ele>446.2</ele>
        <time>2017-08-07T11:00:58.000Z</time>
      </trkpt>
      <trkpt lat="43.21772784925997" lon="-6.858356734737754">
        <ele>447.6</ele>
        <time>2017-08-07T11:01:06.000Z</time>
      </trkpt>
      <trkpt lat="43.217694740742445" lon="-6.858304850757122">
        <ele>449.8</ele>
        <time>2017-08-07T11:01:13.000Z</time>
      </trkpt>
      <trkpt lat="43.217655178159475" lon="-6.858233101665974">
        <ele>451</ele>
        <time>2017-08-07T11:01:20.000Z</time>
      </trkpt>
      <trkpt lat="43.21765308268368" lon="-6.8582231272011995">
        <ele>451</ele>
        <time>2017-08-07T11:01:21.000Z</time>
      </trkpt>
      <trkpt lat="43.21763095445931" lon="-6.85817182995379">
        <ele>452</ele>
        <time>2017-08-07T11:01:27.000Z</time>
      </trkpt>
      <trkpt lat="43.217608239501715" lon="-6.858118353411555">
        <ele>452.6</ele>
        <time>2017-08-07T11:01:33.000Z</time>
      </trkpt>
      <trkpt lat="43.21762039326131" lon="-6.858055405318737">
        <ele>451.4</ele>
        <time>2017-08-07T11:01:39.000Z</time>
      </trkpt>
      <trkpt lat="43.217628356069326" lon="-6.858025146648288">
        <ele>450.6</ele>
        <time>2017-08-07T11:01:43.000Z</time>
      </trkpt>
      <trkpt lat="43.21763279847801" lon="-6.858015256002545">
        <ele>450.4</ele>
        <time>2017-08-07T11:01:44.000Z</time>
      </trkpt>
      <trkpt lat="43.21764654479921" lon="-6.857971418648958">
        <ele>449.2</ele>
        <time>2017-08-07T11:01:48.000Z</time>
      </trkpt>
      <trkpt lat="43.21764964610338" lon="-6.857964210212231">
        <ele>449</ele>
        <time>2017-08-07T11:01:49.000Z</time>
      </trkpt>
      <trkpt lat="43.217644365504384" lon="-6.857952643185854">
        <ele>449.2</ele>
        <time>2017-08-07T11:01:50.000Z</time>
      </trkpt>
      <trkpt lat="43.21763179264963" lon="-6.8579260725528">
        <ele>449.8</ele>
        <time>2017-08-07T11:01:53.000Z</time>
      </trkpt>
      <trkpt lat="43.21763179264963" lon="-6.857915343716741">
        <ele>449.8</ele>
        <time>2017-08-07T11:01:54.000Z</time>
      </trkpt>
      <trkpt lat="43.217639084905386" lon="-6.857911320403218">
        <ele>449.4</ele>
        <time>2017-08-07T11:01:55.000Z</time>
      </trkpt>
      <trkpt lat="43.21764595806599" lon="-6.857886258512735">
        <ele>449</ele>
        <time>2017-08-07T11:01:57.000Z</time>
      </trkpt>
      <trkpt lat="43.217658111825585" lon="-6.857820628210902">
        <ele>448.4</ele>
        <time>2017-08-07T11:02:02.000Z</time>
      </trkpt>
      <trkpt lat="43.21768241934478" lon="-6.857678554952145">
        <ele>447</ele>
        <time>2017-08-07T11:02:14.000Z</time>
      </trkpt>
      <trkpt lat="43.21768040768802" lon="-6.857658689841628">
        <ele>447</ele>
        <time>2017-08-07T11:02:15.000Z</time>
      </trkpt>
      <trkpt lat="43.21770588867366" lon="-6.857610577717423">
        <ele>445.6</ele>
        <time>2017-08-07T11:02:18.000Z</time>
      </trkpt>
      <trkpt lat="43.21772139519453" lon="-6.85756204649806">
        <ele>444.6</ele>
        <time>2017-08-07T11:02:21.000Z</time>
      </trkpt>
      <trkpt lat="43.21773740462959" lon="-6.857528435066342">
        <ele>443.6</ele>
        <time>2017-08-07T11:02:23.000Z</time>
      </trkpt>
      <trkpt lat="43.217752911150455" lon="-6.857453417032957">
        <ele>442.8</ele>
        <time>2017-08-07T11:02:28.000Z</time>
      </trkpt>
      <trkpt lat="43.21776724420488" lon="-6.8573755491524935">
        <ele>441.8</ele>
        <time>2017-08-07T11:02:33.000Z</time>
      </trkpt>
      <trkpt lat="43.21774570271373" lon="-6.857308745384216">
        <ele>443.2</ele>
        <time>2017-08-07T11:02:38.000Z</time>
      </trkpt>
      <trkpt lat="43.2177263405174" lon="-6.857273709028959">
        <ele>444.8</ele>
        <time>2017-08-07T11:02:41.000Z</time>
      </trkpt>
      <trkpt lat="43.21773103438318" lon="-6.857261974364519">
        <ele>444.6</ele>
        <time>2017-08-07T11:02:42.000Z</time>
      </trkpt>
      <trkpt lat="43.21775307878852" lon="-6.857206569984555">
        <ele>443.8</ele>
        <time>2017-08-07T11:02:47.000Z</time>
      </trkpt>
      <trkpt lat="43.21774545125663" lon="-6.857155943289399">
        <ele>445</ele>
        <time>2017-08-07T11:02:50.000Z</time>
      </trkpt>
      <trkpt lat="43.21774243377149" lon="-6.857137167826295">
        <ele>445.6</ele>
        <time>2017-08-07T11:02:51.000Z</time>
      </trkpt>
      <trkpt lat="43.21773715317249" lon="-6.857070615515113">
        <ele>446.8</ele>
        <time>2017-08-07T11:02:55.000Z</time>
      </trkpt>
      <trkpt lat="43.217730866745114" lon="-6.857019402086735">
        <ele>448.2</ele>
        <time>2017-08-07T11:02:58.000Z</time>
      </trkpt>
      <trkpt lat="43.21772835217416" lon="-6.857002805918455">
        <ele>448.6</ele>
        <time>2017-08-07T11:02:59.000Z</time>
      </trkpt>
      <trkpt lat="43.21774176321924" lon="-6.856924267485738">
        <ele>448.6</ele>
        <time>2017-08-07T11:03:03.000Z</time>
      </trkpt>
      <trkpt lat="43.217719215899706" lon="-6.8568354193121195">
        <ele>451</ele>
        <time>2017-08-07T11:03:09.000Z</time>
      </trkpt>
      <trkpt lat="43.21771318092942" lon="-6.856788564473391">
        <ele>451.8</ele>
        <time>2017-08-07T11:03:13.000Z</time>
      </trkpt>
      <trkpt lat="43.21770932525396" lon="-6.856776662170887">
        <ele>452.2</ele>
        <time>2017-08-07T11:03:14.000Z</time>
      </trkpt>
      <trkpt lat="43.217698093503714" lon="-6.8567414581775665">
        <ele>453.4</ele>
        <time>2017-08-07T11:03:17.000Z</time>
      </trkpt>
      <trkpt lat="43.217640928924084" lon="-6.856628302484751">
        <ele>458.2</ele>
        <time>2017-08-07T11:03:24.000Z</time>
      </trkpt>
      <trkpt lat="43.21762768551707" lon="-6.856614556163549">
        <ele>459</ele>
        <time>2017-08-07T11:03:25.000Z</time>
      </trkpt>
      <trkpt lat="43.217586781829596" lon="-6.8565344251692295">
        <ele>462.2</ele>
        <time>2017-08-07T11:03:29.000Z</time>
      </trkpt>
      <trkpt lat="43.21758267469704" lon="-6.856520175933838">
        <ele>462.6</ele>
        <time>2017-08-07T11:03:30.000Z</time>
      </trkpt>
      <trkpt lat="43.21755576878786" lon="-6.856454377993941">
        <ele>464</ele>
        <time>2017-08-07T11:03:34.000Z</time>
      </trkpt>
      <trkpt lat="43.217540765181184" lon="-6.856426550075412">
        <ele>464.6</ele>
        <time>2017-08-07T11:03:36.000Z</time>
      </trkpt>
      <trkpt lat="43.21754151955247" lon="-6.8564007338136435">
        <ele>464.4</ele>
        <time>2017-08-07T11:03:39.000Z</time>
      </trkpt>
      <trkpt lat="43.21754286065698" lon="-6.856393776834011">
        <ele>464.2</ele>
        <time>2017-08-07T11:03:40.000Z</time>
      </trkpt>
      <trkpt lat="43.21754110045731" lon="-6.856376677751541">
        <ele>464.2</ele>
        <time>2017-08-07T11:03:41.000Z</time>
      </trkpt>
      <trkpt lat="43.21752919815481" lon="-6.856340887024999">
        <ele>464.8</ele>
        <time>2017-08-07T11:03:43.000Z</time>
      </trkpt>
      <trkpt lat="43.21754436939955" lon="-6.856248937547207">
        <ele>464</ele>
        <time>2017-08-07T11:03:50.000Z</time>
      </trkpt>
      <trkpt lat="43.21750648319721" lon="-6.856191102415323">
        <ele>466</ele>
        <time>2017-08-07T11:03:55.000Z</time>
      </trkpt>
      <trkpt lat="43.217481672763824" lon="-6.856150031089783">
        <ele>466.8</ele>
        <time>2017-08-07T11:03:58.000Z</time>
      </trkpt>
      <trkpt lat="43.21747429668903" lon="-6.856120442971587">
        <ele>467.2</ele>
        <time>2017-08-07T11:04:00.000Z</time>
      </trkpt>
      <trkpt lat="43.217437248677015" lon="-6.856093872338533">
        <ele>469.2</ele>
        <time>2017-08-07T11:04:04.000Z</time>
      </trkpt>
      <trkpt lat="43.21743682958186" lon="-6.856064116582274">
        <ele>469</ele>
        <time>2017-08-07T11:04:06.000Z</time>
      </trkpt>
      <trkpt lat="43.217440182343125" lon="-6.856023715808988">
        <ele>468.6</ele>
        <time>2017-08-07T11:04:08.000Z</time>
      </trkpt>
      <trkpt lat="43.217460131272674" lon="-6.855904441326857">
        <ele>466.2</ele>
        <time>2017-08-07T11:04:14.000Z</time>
      </trkpt>
      <trkpt lat="43.217464573681355" lon="-6.8558676447719336">
        <ele>465.6</ele>
        <time>2017-08-07T11:04:16.000Z</time>
      </trkpt>
      <trkpt lat="43.21748686954379" lon="-6.855813665315509">
        <ele>463.4</ele>
        <time>2017-08-07T11:04:19.000Z</time>
      </trkpt>
      <trkpt lat="43.21752794086933" lon="-6.855716435238719">
        <ele>459.8</ele>
        <time>2017-08-07T11:04:24.000Z</time>
      </trkpt>
      <trkpt lat="43.21755660697818" lon="-6.855652062222362">
        <ele>457.2</ele>
        <time>2017-08-07T11:04:27.000Z</time>
      </trkpt>
      <trkpt lat="43.21756943129003" lon="-6.855588527396321">
        <ele>456</ele>
        <time>2017-08-07T11:04:30.000Z</time>
      </trkpt>
      <trkpt lat="43.21757286787033" lon="-6.855463637039065">
        <ele>453.8</ele>
        <time>2017-08-07T11:04:36.000Z</time>
      </trkpt>
      <trkpt lat="43.21754462085664" lon="-6.855297340080142">
        <ele>451</ele>
        <time>2017-08-07T11:04:45.000Z</time>
      </trkpt>
      <trkpt lat="43.21751704439521" lon="-6.855196924880147">
        <ele>450</ele>
        <time>2017-08-07T11:04:52.000Z</time>
      </trkpt>
      <trkpt lat="43.21751084178686" lon="-6.8551519978791475">
        <ele>449.2</ele>
        <time>2017-08-07T11:05:11.000Z</time>
      </trkpt>
      <trkpt lat="43.21746985428035" lon="-6.8550922349095345">
        <ele>449.2</ele>
        <time>2017-08-07T11:05:26.000Z</time>
      </trkpt>
      <trkpt lat="43.21735829114914" lon="-6.855028783902526">
        <ele>451.2</ele>
        <time>2017-08-07T11:05:35.000Z</time>
      </trkpt>
      <trkpt lat="43.21724303998053" lon="-6.855027945712209">
        <ele>455.4</ele>
        <time>2017-08-07T11:05:44.000Z</time>
      </trkpt>
      <trkpt lat="43.2171496655792" lon="-6.855070274323225">
        <ele>459.8</ele>
        <time>2017-08-07T11:05:52.000Z</time>
      </trkpt>
      <trkpt lat="43.21708361618221" lon="-6.855122577399015">
        <ele>462.8</ele>
        <time>2017-08-07T11:05:59.000Z</time>
      </trkpt>
      <trkpt lat="43.217054195702076" lon="-6.85520539060235">
        <ele>465.8</ele>
        <time>2017-08-07T11:06:06.000Z</time>
      </trkpt>
      <trkpt lat="43.21706316433847" lon="-6.855323743075132">
        <ele>468.2</ele>
        <time>2017-08-07T11:06:14.000Z</time>
      </trkpt>
      <trkpt lat="43.21708604693413" lon="-6.85543111525476">
        <ele>470.8</ele>
        <time>2017-08-07T11:06:22.000Z</time>
      </trkpt>
      <trkpt lat="43.21711680851877" lon="-6.855556424707174">
        <ele>473.2</ele>
        <time>2017-08-07T11:06:31.000Z</time>
      </trkpt>
      <trkpt lat="43.21715293452144" lon="-6.855631861835718">
        <ele>474</ele>
        <time>2017-08-07T11:06:37.000Z</time>
      </trkpt>
      <trkpt lat="43.217166597023606" lon="-6.855653151869774">
        <ele>474.2</ele>
        <time>2017-08-07T11:06:39.000Z</time>
      </trkpt>
      <trkpt lat="43.21717590093613" lon="-6.8556915409862995">
        <ele>474.4</ele>
        <time>2017-08-07T11:06:42.000Z</time>
      </trkpt>
      <trkpt lat="43.217193419113755" lon="-6.855774270370603">
        <ele>474.6</ele>
        <time>2017-08-07T11:06:48.000Z</time>
      </trkpt>
      <trkpt lat="43.21719710715115" lon="-6.8557855021208525">
        <ele>474.6</ele>
        <time>2017-08-07T11:06:49.000Z</time>
      </trkpt>
      <trkpt lat="43.21721370331943" lon="-6.855805367231369">
        <ele>474.4</ele>
        <time>2017-08-07T11:06:51.000Z</time>
      </trkpt>
      <trkpt lat="43.21721311658621" lon="-6.855836044996977">
        <ele>474.8</ele>
        <time>2017-08-07T11:06:53.000Z</time>
      </trkpt>
      <trkpt lat="43.21722066029906" lon="-6.855863453820348">
        <ele>474.8</ele>
        <time>2017-08-07T11:06:55.000Z</time>
      </trkpt>
      <trkpt lat="43.21724287234247" lon="-6.8559168465435505">
        <ele>474.6</ele>
        <time>2017-08-07T11:06:59.000Z</time>
      </trkpt>
      <trkpt lat="43.21724656037986" lon="-6.855927910655737">
        <ele>474.6</ele>
        <time>2017-08-07T11:07:00.000Z</time>
      </trkpt>
      <trkpt lat="43.21726508438587" lon="-6.856006281450391">
        <ele>475.2</ele>
        <time>2017-08-07T11:07:06.000Z</time>
      </trkpt>
      <trkpt lat="43.217276986688375" lon="-6.85606244020164">
        <ele>475.6</ele>
        <time>2017-08-07T11:07:10.000Z</time>
      </trkpt>
      <trkpt lat="43.217284362763166" lon="-6.8561044335365295">
        <ele>475.6</ele>
        <time>2017-08-07T11:07:13.000Z</time>
      </trkpt>
      <trkpt lat="43.21728394366801" lon="-6.856119269505143">
        <ele>475.8</ele>
        <time>2017-08-07T11:07:14.000Z</time>
      </trkpt>
      <trkpt lat="43.21728805080056" lon="-6.856205351650715">
        <ele>476.2</ele>
        <time>2017-08-07T11:07:20.000Z</time>
      </trkpt>
      <trkpt lat="43.2172894757241" lon="-6.8562285695225">
        <ele>476.4</ele>
        <time>2017-08-07T11:07:22.000Z</time>
      </trkpt>
      <trkpt lat="43.217291068285704" lon="-6.85625690035522">
        <ele>476.6</ele>
        <time>2017-08-07T11:07:24.000Z</time>
      </trkpt>
      <trkpt lat="43.21729534305632" lon="-6.856284728273749">
        <ele>476.6</ele>
        <time>2017-08-07T11:07:28.000Z</time>
      </trkpt>
      <trkpt lat="43.217305233702064" lon="-6.856365948915482">
        <ele>476.4</ele>
        <time>2017-08-07T11:07:33.000Z</time>
      </trkpt>
      <trkpt lat="43.2173119392246" lon="-6.856470303609967">
        <ele>476.2</ele>
        <time>2017-08-07T11:07:39.000Z</time>
      </trkpt>
      <trkpt lat="43.217307245358825" lon="-6.856583878397942">
        <ele>475.4</ele>
        <time>2017-08-07T11:07:46.000Z</time>
      </trkpt>
      <trkpt lat="43.21730716153979" lon="-6.856657722964883">
        <ele>474.6</ele>
        <time>2017-08-07T11:07:51.000Z</time>
      </trkpt>
      <trkpt lat="43.21730934083462" lon="-6.856671553105116">
        <ele>474.2</ele>
        <time>2017-08-07T11:07:52.000Z</time>
      </trkpt>
      <trkpt lat="43.21731772273779" lon="-6.856712540611625">
        <ele>473.4</ele>
        <time>2017-08-07T11:07:55.000Z</time>
      </trkpt>
      <trkpt lat="43.21731420233846" lon="-6.856763586401939">
        <ele>473</ele>
        <time>2017-08-07T11:07:58.000Z</time>
      </trkpt>
      <trkpt lat="43.21728000417352" lon="-6.856836341321468">
        <ele>473.8</ele>
        <time>2017-08-07T11:08:03.000Z</time>
      </trkpt>
      <trkpt lat="43.21725762449205" lon="-6.856920747086406">
        <ele>474</ele>
        <time>2017-08-07T11:08:08.000Z</time>
      </trkpt>
      <trkpt lat="43.21725267916918" lon="-6.856945725157857">
        <ele>474</ele>
        <time>2017-08-07T11:08:10.000Z</time>
      </trkpt>
      <trkpt lat="43.2172292098403" lon="-6.8570074159651995">
        <ele>474.2</ele>
        <time>2017-08-07T11:08:14.000Z</time>
      </trkpt>
      <trkpt lat="43.21719266474247" lon="-6.85713205486536">
        <ele>475.2</ele>
        <time>2017-08-07T11:08:22.000Z</time>
      </trkpt>
      <trkpt lat="43.21713809855282" lon="-6.857248730957508">
        <ele>477.6</ele>
        <time>2017-08-07T11:08:30.000Z</time>
      </trkpt>
      <trkpt lat="43.217126028612256" lon="-6.857269937172532">
        <ele>478.2</ele>
        <time>2017-08-07T11:08:32.000Z</time>
      </trkpt>
      <trkpt lat="43.21708948351443" lon="-6.857315534725785">
        <ele>480.4</ele>
        <time>2017-08-07T11:08:35.000Z</time>
      </trkpt>
      <trkpt lat="43.21707682684064" lon="-6.857351241633296">
        <ele>481.4</ele>
        <time>2017-08-07T11:08:38.000Z</time>
      </trkpt>
      <trkpt lat="43.21706903167069" lon="-6.857369681820273">
        <ele>482</ele>
        <time>2017-08-07T11:08:40.000Z</time>
      </trkpt>
      <trkpt lat="43.21706375107169" lon="-6.8573911394923925">
        <ele>482.4</ele>
        <time>2017-08-07T11:08:42.000Z</time>
      </trkpt>
      <trkpt lat="43.21704891510308" lon="-6.85741787776351">
        <ele>483.4</ele>
        <time>2017-08-07T11:08:44.000Z</time>
      </trkpt>
      <trkpt lat="43.217032151296735" lon="-6.8574547581374645">
        <ele>484.6</ele>
        <time>2017-08-07T11:08:47.000Z</time>
      </trkpt>
      <trkpt lat="43.217013040557504" lon="-6.85750437900424">
        <ele>485.8</ele>
        <time>2017-08-07T11:08:51.000Z</time>
      </trkpt>
      <trkpt lat="43.21698940359056" lon="-6.857593646273017">
        <ele>487.2</ele>
        <time>2017-08-07T11:08:57.000Z</time>
      </trkpt>
      <trkpt lat="43.2169736456126" lon="-6.857628179714084">
        <ele>488</ele>
        <time>2017-08-07T11:09:00.000Z</time>
      </trkpt>
      <trkpt lat="43.216949589550495" lon="-6.857653660699725">
        <ele>489.4</ele>
        <time>2017-08-07T11:09:03.000Z</time>
      </trkpt>
      <trkpt lat="43.21694204583764" lon="-6.857618959620595">
        <ele>490.4</ele>
        <time>2017-08-07T11:09:08.000Z</time>
      </trkpt>
      <trkpt lat="43.21694313548505" lon="-6.857560118660331">
        <ele>490.6</ele>
        <time>2017-08-07T11:09:13.000Z</time>
      </trkpt>
      <trkpt lat="43.216966688632965" lon="-6.857452327385545">
        <ele>488.8</ele>
        <time>2017-08-07T11:09:21.000Z</time>
      </trkpt>
      <trkpt lat="43.21697289124131" lon="-6.857432126998901">
        <ele>488.2</ele>
        <time>2017-08-07T11:09:23.000Z</time>
      </trkpt>
      <trkpt lat="43.216970628127456" lon="-6.857391055673361">
        <ele>488</ele>
        <time>2017-08-07T11:09:26.000Z</time>
      </trkpt>
      <trkpt lat="43.21697833947837" lon="-6.857383344322443">
        <ele>487.6</ele>
        <time>2017-08-07T11:09:27.000Z</time>
      </trkpt>
      <trkpt lat="43.216978926211596" lon="-6.857369598001242">
        <ele>487.4</ele>
        <time>2017-08-07T11:09:28.000Z</time>
      </trkpt>
      <trkpt lat="43.21698294952512" lon="-6.857322575524449">
        <ele>486.8</ele>
        <time>2017-08-07T11:09:32.000Z</time>
      </trkpt>
      <trkpt lat="43.21697926148772" lon="-6.857309751212597">
        <ele>487.2</ele>
        <time>2017-08-07T11:09:33.000Z</time>
      </trkpt>
      <trkpt lat="43.21696509607136" lon="-6.8572597950696945">
        <ele>488.2</ele>
        <time>2017-08-07T11:09:37.000Z</time>
      </trkpt>
      <trkpt lat="43.21695185266435" lon="-6.857188967987895">
        <ele>489.2</ele>
        <time>2017-08-07T11:09:43.000Z</time>
      </trkpt>
      <trkpt lat="43.21694648824632" lon="-6.857186704874039">
        <ele>489.6</ele>
        <time>2017-08-07T11:09:44.000Z</time>
      </trkpt>
      <trkpt lat="43.21693307720125" lon="-6.8572111800313">
        <ele>490.2</ele>
        <time>2017-08-07T11:09:47.000Z</time>
      </trkpt>
      <trkpt lat="43.216930981725454" lon="-6.857222160324454">
        <ele>490.4</ele>
        <time>2017-08-07T11:09:48.000Z</time>
      </trkpt>
      <trkpt lat="43.216923186555505" lon="-6.857277564704418">
        <ele>490.6</ele>
        <time>2017-08-07T11:09:53.000Z</time>
      </trkpt>
      <trkpt lat="43.21690977551043" lon="-6.857308158650994">
        <ele>491.4</ele>
        <time>2017-08-07T11:09:56.000Z</time>
      </trkpt>
      <trkpt lat="43.21689695119858" lon="-6.857345877215266">
        <ele>492.2</ele>
        <time>2017-08-07T11:09:59.000Z</time>
      </trkpt>
      <trkpt lat="43.21689116768539" lon="-6.857356270775199">
        <ele>492.6</ele>
        <time>2017-08-07T11:10:00.000Z</time>
      </trkpt>
      <trkpt lat="43.216859232634306" lon="-6.857394659891725">
        <ele>495</ele>
        <time>2017-08-07T11:10:04.000Z</time>
      </trkpt>
      <trkpt lat="43.21683433838189" lon="-6.857436904683709">
        <ele>496.8</ele>
        <time>2017-08-07T11:10:09.000Z</time>
      </trkpt>
      <trkpt lat="43.2168285548687" lon="-6.857449980452657">
        <ele>497.2</ele>
        <time>2017-08-07T11:10:10.000Z</time>
      </trkpt>
      <trkpt lat="43.216815143823624" lon="-6.857510581612587">
        <ele>498.4</ele>
        <time>2017-08-07T11:10:15.000Z</time>
      </trkpt>
      <trkpt lat="43.21680751629174" lon="-6.857521729543805">
        <ele>499</ele>
        <time>2017-08-07T11:10:16.000Z</time>
      </trkpt>
      <trkpt lat="43.21679351851344" lon="-6.8575389962643385">
        <ele>500</ele>
        <time>2017-08-07T11:10:18.000Z</time>
      </trkpt>
      <trkpt lat="43.21678798645735" lon="-6.857575289905071">
        <ele>500.6</ele>
        <time>2017-08-07T11:10:21.000Z</time>
      </trkpt>
      <trkpt lat="43.216755632311106" lon="-6.857649218291044">
        <ele>502.6</ele>
        <time>2017-08-07T11:10:28.000Z</time>
      </trkpt>
      <trkpt lat="43.21675923652947" lon="-6.857700264081359">
        <ele>502.2</ele>
        <time>2017-08-07T11:10:32.000Z</time>
      </trkpt>
      <trkpt lat="43.216766780242324" lon="-6.857710322365165">
        <ele>501.6</ele>
        <time>2017-08-07T11:10:33.000Z</time>
      </trkpt>
      <trkpt lat="43.216792177408934" lon="-6.857786765322089">
        <ele>499</ele>
        <time>2017-08-07T11:10:39.000Z</time>
      </trkpt>
      <trkpt lat="43.216814221814275" lon="-6.85785910114646">
        <ele>496.8</ele>
        <time>2017-08-07T11:10:44.000Z</time>
      </trkpt>
      <trkpt lat="43.216812210157514" lon="-6.857894388958812">
        <ele>496.6</ele>
        <time>2017-08-07T11:10:46.000Z</time>
      </trkpt>
      <trkpt lat="43.21678848937154" lon="-6.857923390343785">
        <ele>498</ele>
        <time>2017-08-07T11:10:49.000Z</time>
      </trkpt>
      <trkpt lat="43.216772647574544" lon="-6.857957420870662">
        <ele>498.8</ele>
        <time>2017-08-07T11:10:51.000Z</time>
      </trkpt>
      <trkpt lat="43.216759571805596" lon="-6.857971753925085">
        <ele>499.6</ele>
        <time>2017-08-07T11:10:52.000Z</time>
      </trkpt>
      <trkpt lat="43.21673350408673" lon="-6.858017183840275">
        <ele>501</ele>
        <time>2017-08-07T11:10:55.000Z</time>
      </trkpt>
      <trkpt lat="43.21671883575618" lon="-6.8580561596900225">
        <ele>502</ele>
        <time>2017-08-07T11:10:59.000Z</time>
      </trkpt>
      <trkpt lat="43.21669410914183" lon="-6.858105696737766">
        <ele>503.6</ele>
        <time>2017-08-07T11:11:03.000Z</time>
      </trkpt>
      <trkpt lat="43.21667508222163" lon="-6.858170237392187">
        <ele>504.8</ele>
        <time>2017-08-07T11:11:08.000Z</time>
      </trkpt>
      <trkpt lat="43.216671561822295" lon="-6.858263108879328">
        <ele>505.2</ele>
        <time>2017-08-07T11:11:15.000Z</time>
      </trkpt>
      <trkpt lat="43.21669469587505" lon="-6.858319099992514">
        <ele>504</ele>
        <time>2017-08-07T11:11:20.000Z</time>
      </trkpt>
      <trkpt lat="43.216700311750174" lon="-6.858328403905034">
        <ele>503.6</ele>
        <time>2017-08-07T11:11:21.000Z</time>
      </trkpt>
      <trkpt lat="43.21671539917588" lon="-6.858356650918722">
        <ele>502.6</ele>
        <time>2017-08-07T11:11:23.000Z</time>
      </trkpt>
      <trkpt lat="43.21674255654216" lon="-6.858398728072643">
        <ele>500.6</ele>
        <time>2017-08-07T11:11:26.000Z</time>
      </trkpt>
      <trkpt lat="43.216748759150505" lon="-6.858462179079652">
        <ele>500.6</ele>
        <time>2017-08-07T11:11:31.000Z</time>
      </trkpt>
      <trkpt lat="43.216746831312776" lon="-6.858531078323722">
        <ele>502</ele>
        <time>2017-08-07T11:11:36.000Z</time>
      </trkpt>
      <trkpt lat="43.21673920378089" lon="-6.858620010316372">
        <ele>504.4</ele>
        <time>2017-08-07T11:11:43.000Z</time>
      </trkpt>
      <trkpt lat="43.216737946495414" lon="-6.858644653111696">
        <ele>505.2</ele>
        <time>2017-08-07T11:11:45.000Z</time>
      </trkpt>
      <trkpt lat="43.21674255654216" lon="-6.858684299513698">
        <ele>505.8</ele>
        <time>2017-08-07T11:11:48.000Z</time>
      </trkpt>
      <trkpt lat="43.21673735976219" lon="-6.858770130202174">
        <ele>508.2</ele>
        <time>2017-08-07T11:11:54.000Z</time>
      </trkpt>
      <trkpt lat="43.21674515493214" lon="-6.858830899000168">
        <ele>509</ele>
        <time>2017-08-07T11:11:59.000Z</time>
      </trkpt>
      <trkpt lat="43.21675093844533" lon="-6.8588401190936565">
        <ele>509</ele>
        <time>2017-08-07T11:12:00.000Z</time>
      </trkpt>
      <trkpt lat="43.21680374443531" lon="-6.858869539573789">
        <ele>507.6</ele>
        <time>2017-08-07T11:12:05.000Z</time>
      </trkpt>
      <trkpt lat="43.21681698784232" lon="-6.8588772509247065">
        <ele>507.2</ele>
        <time>2017-08-07T11:12:06.000Z</time>
      </trkpt>
      <trkpt lat="43.21685587987304" lon="-6.858918741345406">
        <ele>507</ele>
        <time>2017-08-07T11:12:10.000Z</time>
      </trkpt>
      <trkpt lat="43.2168700452894" lon="-6.858944557607174">
        <ele>507.2</ele>
        <time>2017-08-07T11:12:12.000Z</time>
      </trkpt>
      <trkpt lat="43.216884126886725" lon="-6.858967607840896">
        <ele>507.2</ele>
        <time>2017-08-07T11:12:14.000Z</time>
      </trkpt>
      <trkpt lat="43.21691304445267" lon="-6.859019156545401">
        <ele>507.2</ele>
        <time>2017-08-07T11:12:18.000Z</time>
      </trkpt>
      <trkpt lat="43.216919749975204" lon="-6.8590327352285385">
        <ele>507.2</ele>
        <time>2017-08-07T11:12:19.000Z</time>
      </trkpt>
      <trkpt lat="43.21692067198455" lon="-6.859048074111342">
        <ele>507.6</ele>
        <time>2017-08-07T11:12:20.000Z</time>
      </trkpt>
      <trkpt lat="43.216931065544486" lon="-6.859090151265264">
        <ele>508.2</ele>
        <time>2017-08-07T11:12:23.000Z</time>
      </trkpt>
      <trkpt lat="43.21693181991577" lon="-6.859105071052909">
        <ele>508.6</ele>
        <time>2017-08-07T11:12:24.000Z</time>
      </trkpt>
      <trkpt lat="43.21692838333547" lon="-6.859145555645227">
        <ele>510</ele>
        <time>2017-08-07T11:12:27.000Z</time>
      </trkpt>
      <trkpt lat="43.216933915391564" lon="-6.859188051894307">
        <ele>510.8</ele>
        <time>2017-08-07T11:12:30.000Z</time>
      </trkpt>
      <trkpt lat="43.21693777106702" lon="-6.859218897297978">
        <ele>511.8</ele>
        <time>2017-08-07T11:12:32.000Z</time>
      </trkpt>
      <trkpt lat="43.216947661712766" lon="-6.859230883419514">
        <ele>512</ele>
        <time>2017-08-07T11:12:33.000Z</time>
      </trkpt>
      <trkpt lat="43.2169630844146" lon="-6.859256196767092">
        <ele>512.4</ele>
        <time>2017-08-07T11:12:35.000Z</time>
      </trkpt>
      <trkpt lat="43.21696786209941" lon="-6.859280588105321">
        <ele>513</ele>
        <time>2017-08-07T11:12:37.000Z</time>
      </trkpt>
      <trkpt lat="43.21697238832712" lon="-6.859297435730696">
        <ele>513.2</ele>
        <time>2017-08-07T11:12:39.000Z</time>
      </trkpt>
      <trkpt lat="43.21701195091009" lon="-6.859355857595801">
        <ele>513.2</ele>
        <time>2017-08-07T11:12:45.000Z</time>
      </trkpt>
      <trkpt lat="43.21702812798321" lon="-6.859402963891625">
        <ele>514</ele>
        <time>2017-08-07T11:12:48.000Z</time>
      </trkpt>
      <trkpt lat="43.21705008856952" lon="-6.859441855922341">
        <ele>514.6</ele>
        <time>2017-08-07T11:12:52.000Z</time>
      </trkpt>
      <trkpt lat="43.21705587208271" lon="-6.85945451259613">
        <ele>515</ele>
        <time>2017-08-07T11:12:53.000Z</time>
      </trkpt>
      <trkpt lat="43.2170769944787" lon="-6.8594954162836075">
        <ele>515.6</ele>
        <time>2017-08-07T11:12:57.000Z</time>
      </trkpt>
      <trkpt lat="43.217103565111756" lon="-6.859516454860568">
        <ele>515.4</ele>
        <time>2017-08-07T11:12:59.000Z</time>
      </trkpt>
      <trkpt lat="43.217111779376864" lon="-6.859533134847879">
        <ele>515.8</ele>
        <time>2017-08-07T11:13:03.000Z</time>
      </trkpt>
      <trkpt lat="43.217137763276696" lon="-6.859562387689948">
        <ele>515.6</ele>
        <time>2017-08-07T11:13:32.000Z</time>
      </trkpt>
      <trkpt lat="43.21716718375683" lon="-6.859590299427509">
        <ele>513.6</ele>
        <time>2017-08-07T11:13:35.000Z</time>
      </trkpt>
      <trkpt lat="43.21719710715115" lon="-6.8596473801881075">
        <ele>511.8</ele>
        <time>2017-08-07T11:13:40.000Z</time>
      </trkpt>
      <trkpt lat="43.21720817126334" lon="-6.859662886708975">
        <ele>511.2</ele>
        <time>2017-08-07T11:13:42.000Z</time>
      </trkpt>
      <trkpt lat="43.21722694672644" lon="-6.859687361866236">
        <ele>510</ele>
        <time>2017-08-07T11:13:44.000Z</time>
      </trkpt>
      <trkpt lat="43.217243710532784" lon="-6.859724996611476">
        <ele>509</ele>
        <time>2017-08-07T11:13:47.000Z</time>
      </trkpt>
      <trkpt lat="43.21725024841726" lon="-6.859736060723662">
        <ele>509</ele>
        <time>2017-08-07T11:13:48.000Z</time>
      </trkpt>
      <trkpt lat="43.21727438829839" lon="-6.859774701297283">
        <ele>508.6</ele>
        <time>2017-08-07T11:13:51.000Z</time>
      </trkpt>
      <trkpt lat="43.21729366667569" lon="-6.859810743480921">
        <ele>508.4</ele>
        <time>2017-08-07T11:13:54.000Z</time>
      </trkpt>
      <trkpt lat="43.217303305864334" lon="-6.85987863689661">
        <ele>509.2</ele>
        <time>2017-08-07T11:14:00.000Z</time>
      </trkpt>
      <trkpt lat="43.217300875112414" lon="-6.859890455380082">
        <ele>509.6</ele>
        <time>2017-08-07T11:14:01.000Z</time>
      </trkpt>
      <trkpt lat="43.21729525923729" lon="-6.859951056540012">
        <ele>511</ele>
        <time>2017-08-07T11:14:05.000Z</time>
      </trkpt>
      <trkpt lat="43.21729416958988" lon="-6.859993385151029">
        <ele>512.6</ele>
        <time>2017-08-07T11:14:08.000Z</time>
      </trkpt>
      <trkpt lat="43.21729048155248" lon="-6.860005371272564">
        <ele>513.2</ele>
        <time>2017-08-07T11:14:09.000Z</time>
      </trkpt>
      <trkpt lat="43.217278411611915" lon="-6.860085753723979">
        <ele>516.6</ele>
        <time>2017-08-07T11:14:14.000Z</time>
      </trkpt>
      <trkpt lat="43.217286709696054" lon="-6.860143421217799">
        <ele>517.4</ele>
        <time>2017-08-07T11:14:18.000Z</time>
      </trkpt>
      <trkpt lat="43.217286206781864" lon="-6.860161274671555">
        <ele>517.8</ele>
        <time>2017-08-07T11:14:19.000Z</time>
      </trkpt>
      <trkpt lat="43.21728637441993" lon="-6.860175356268883">
        <ele>518</ele>
        <time>2017-08-07T11:14:20.000Z</time>
      </trkpt>
      <trkpt lat="43.21729609742761" lon="-6.860253307968378">
        <ele>518.8</ele>
        <time>2017-08-07T11:14:26.000Z</time>
      </trkpt>
      <trkpt lat="43.21726600639522" lon="-6.8603279907256365">
        <ele>521.6</ele>
        <time>2017-08-07T11:14:31.000Z</time>
      </trkpt>
      <trkpt lat="43.217229126021266" lon="-6.860427735373378">
        <ele>524.2</ele>
        <time>2017-08-07T11:14:38.000Z</time>
      </trkpt>
      <trkpt lat="43.21721127256751" lon="-6.860466208308935">
        <ele>524.8</ele>
        <time>2017-08-07T11:14:41.000Z</time>
      </trkpt>
      <trkpt lat="43.217201214283705" lon="-6.86049479059875">
        <ele>525.4</ele>
        <time>2017-08-07T11:14:43.000Z</time>
      </trkpt>
      <trkpt lat="43.217183612287045" lon="-6.8605968821793795">
        <ele>526.4</ele>
        <time>2017-08-07T11:14:50.000Z</time>
      </trkpt>
      <trkpt lat="43.21716098114848" lon="-6.860630661249161">
        <ele>527.2</ele>
        <time>2017-08-07T11:14:53.000Z</time>
      </trkpt>
      <trkpt lat="43.217108929529786" lon="-6.860727891325951">
        <ele>529.2</ele>
        <time>2017-08-07T11:14:57.000Z</time>
      </trkpt>
      <trkpt lat="43.21708805859089" lon="-6.860790755599737">
        <ele>529.8</ele>
        <time>2017-08-07T11:15:00.000Z</time>
      </trkpt>
      <trkpt lat="43.21708705276251" lon="-6.860809614881873">
        <ele>529.8</ele>
        <time>2017-08-07T11:15:01.000Z</time>
      </trkpt>
      <trkpt lat="43.21706702001393" lon="-6.860889075323939">
        <ele>530.2</ele>
        <time>2017-08-07T11:15:07.000Z</time>
      </trkpt>
      <trkpt lat="43.217045813798904" lon="-6.860934756696224">
        <ele>531</ele>
        <time>2017-08-07T11:15:11.000Z</time>
      </trkpt>
      <trkpt lat="43.21703181602061" lon="-6.8609593994915485">
        <ele>532</ele>
        <time>2017-08-07T11:15:13.000Z</time>
      </trkpt>
      <trkpt lat="43.21702351793647" lon="-6.861031148582697">
        <ele>533.2</ele>
        <time>2017-08-07T11:15:17.000Z</time>
      </trkpt>
      <trkpt lat="43.217028714716434" lon="-6.861063754186034">
        <ele>533.2</ele>
        <time>2017-08-07T11:15:19.000Z</time>
      </trkpt>
      <trkpt lat="43.217046819627285" lon="-6.861106501892209">
        <ele>533</ele>
        <time>2017-08-07T11:15:22.000Z</time>
      </trkpt>
      <trkpt lat="43.21707867085934" lon="-6.86114757321775">
        <ele>532.2</ele>
        <time>2017-08-07T11:15:25.000Z</time>
      </trkpt>
      <trkpt lat="43.217140696942806" lon="-6.8612403608858585">
        <ele>530.6</ele>
        <time>2017-08-07T11:15:32.000Z</time>
      </trkpt>
      <trkpt lat="43.21714664809406" lon="-6.861275564879179">
        <ele>530.8</ele>
        <time>2017-08-07T11:15:34.000Z</time>
      </trkpt>
      <trkpt lat="43.217147905379534" lon="-6.861322754994035">
        <ele>531.4</ele>
        <time>2017-08-07T11:15:37.000Z</time>
      </trkpt>
      <trkpt lat="43.21715201251209" lon="-6.861338932067156">
        <ele>531.6</ele>
        <time>2017-08-07T11:15:38.000Z</time>
      </trkpt>
      <trkpt lat="43.21718830615282" lon="-6.8613876309245825">
        <ele>531</ele>
        <time>2017-08-07T11:15:42.000Z</time>
      </trkpt>
      <trkpt lat="43.217209931463" lon="-6.861413363367319">
        <ele>530.6</ele>
        <time>2017-08-07T11:15:44.000Z</time>
      </trkpt>
      <trkpt lat="43.21726843714714" lon="-6.8614553567022085">
        <ele>529.4</ele>
        <time>2017-08-07T11:15:49.000Z</time>
      </trkpt>
      <trkpt lat="43.217344461008906" lon="-6.861485280096531">
        <ele>527.4</ele>
        <time>2017-08-07T11:15:55.000Z</time>
      </trkpt>
      <trkpt lat="43.217389639467" lon="-6.861496679484844">
        <ele>526.2</ele>
        <time>2017-08-07T11:15:59.000Z</time>
      </trkpt>
      <trkpt lat="43.21742760948837" lon="-6.861510593444109">
        <ele>525.8</ele>
        <time>2017-08-07T11:16:03.000Z</time>
      </trkpt>
      <trkpt lat="43.21744185872376" lon="-6.861522244289517">
        <ele>526</ele>
        <time>2017-08-07T11:16:04.000Z</time>
      </trkpt>
      <trkpt lat="43.21750799193978" lon="-6.861613774672151">
        <ele>528.2</ele>
        <time>2017-08-07T11:16:11.000Z</time>
      </trkpt>
      <trkpt lat="43.2175069861114" lon="-6.861622994765639">
        <ele>528.6</ele>
        <time>2017-08-07T11:16:12.000Z</time>
      </trkpt>
      <trkpt lat="43.217521235346794" lon="-6.861675381660461">
        <ele>530.4</ele>
        <time>2017-08-07T11:16:15.000Z</time>
      </trkpt>
      <trkpt lat="43.21757513098419" lon="-6.8617310374975204">
        <ele>529.4</ele>
        <time>2017-08-07T11:16:20.000Z</time>
      </trkpt>
      <trkpt lat="43.21756943129003" lon="-6.8618199694901705">
        <ele>531.2</ele>
        <time>2017-08-07T11:16:25.000Z</time>
      </trkpt>
      <trkpt lat="43.21757756173611" lon="-6.861843941733241">
        <ele>531</ele>
        <time>2017-08-07T11:16:27.000Z</time>
      </trkpt>
      <trkpt lat="43.217580830678344" lon="-6.861868416890502">
        <ele>531.2</ele>
        <time>2017-08-07T11:16:28.000Z</time>
      </trkpt>
      <trkpt lat="43.21758275851607" lon="-6.8619221448898315">
        <ele>532.2</ele>
        <time>2017-08-07T11:16:31.000Z</time>
      </trkpt>
      <trkpt lat="43.21758024394512" lon="-6.861932203173637">
        <ele>532.4</ele>
        <time>2017-08-07T11:16:32.000Z</time>
      </trkpt>
      <trkpt lat="43.21758166886866" lon="-6.861995151266456">
        <ele>533.8</ele>
        <time>2017-08-07T11:16:36.000Z</time>
      </trkpt>
      <trkpt lat="43.21757915429771" lon="-6.862011328339577">
        <ele>534.2</ele>
        <time>2017-08-07T11:16:37.000Z</time>
      </trkpt>
      <trkpt lat="43.21757320314646" lon="-6.862053573131561">
        <ele>535.2</ele>
        <time>2017-08-07T11:16:40.000Z</time>
      </trkpt>
      <trkpt lat="43.217582423239946" lon="-6.862079305574298">
        <ele>535.6</ele>
        <time>2017-08-07T11:16:42.000Z</time>
      </trkpt>
      <trkpt lat="43.2175849378109" lon="-6.862138649448752">
        <ele>536.8</ele>
        <time>2017-08-07T11:16:46.000Z</time>
      </trkpt>
      <trkpt lat="43.217588290572166" lon="-6.862151054665446">
        <ele>536.8</ele>
        <time>2017-08-07T11:16:47.000Z</time>
      </trkpt>
      <trkpt lat="43.217601869255304" lon="-6.862233616411686">
        <ele>537.2</ele>
        <time>2017-08-07T11:16:52.000Z</time>
      </trkpt>
      <trkpt lat="43.217608993873" lon="-6.862246273085475">
        <ele>537</ele>
        <time>2017-08-07T11:16:53.000Z</time>
      </trkpt>
      <trkpt lat="43.21761033497751" lon="-6.862256750464439">
        <ele>537.2</ele>
        <time>2017-08-07T11:16:54.000Z</time>
      </trkpt>
      <trkpt lat="43.21761033497751" lon="-6.862256750464439">
        <ele>537.2</ele>
        <time>2017-08-07T11:16:54.000Z</time>
      </trkpt>
      <trkpt lat="43.21762869134545" lon="-6.862299917265773">
        <ele>536.8</ele>
        <time>2017-08-07T11:16:57.000Z</time>
      </trkpt>
      <trkpt lat="43.217640928924084" lon="-6.862340904772282">
        <ele>536.6</ele>
        <time>2017-08-07T11:17:00.000Z</time>
      </trkpt>
      <trkpt lat="43.217653166502714" lon="-6.862349035218358">
        <ele>536</ele>
        <time>2017-08-07T11:17:01.000Z</time>
      </trkpt>
      <trkpt lat="43.21767998859286" lon="-6.862400835379958">
        <ele>535.4</ele>
        <time>2017-08-07T11:17:05.000Z</time>
      </trkpt>
      <trkpt lat="43.21769465692341" lon="-6.86242925003171">
        <ele>535</ele>
        <time>2017-08-07T11:17:07.000Z</time>
      </trkpt>
      <trkpt lat="43.21772038936615" lon="-6.862466046586633">
        <ele>533.8</ele>
        <time>2017-08-07T11:17:10.000Z</time>
      </trkpt>
      <trkpt lat="43.21772491559386" lon="-6.862480463460088">
        <ele>533.6</ele>
        <time>2017-08-07T11:17:11.000Z</time>
      </trkpt>
      <trkpt lat="43.217758275568485" lon="-6.862549027428031">
        <ele>532.2</ele>
        <time>2017-08-07T11:17:16.000Z</time>
      </trkpt>
      <trkpt lat="43.21781728416681" lon="-6.8626537173986435">
        <ele>529</ele>
        <time>2017-08-07T11:17:23.000Z</time>
      </trkpt>
      <trkpt lat="43.217861875891685" lon="-6.8627595808357">
        <ele>527.4</ele>
        <time>2017-08-07T11:17:30.000Z</time>
      </trkpt>
      <trkpt lat="43.21787193417549" lon="-6.862850021570921">
        <ele>528</ele>
        <time>2017-08-07T11:17:36.000Z</time>
      </trkpt>
      <trkpt lat="43.21785483509302" lon="-6.862904084846377">
        <ele>529.8</ele>
        <time>2017-08-07T11:17:40.000Z</time>
      </trkpt>
      <trkpt lat="43.2178386580199" lon="-6.862940210849047">
        <ele>531.4</ele>
        <time>2017-08-07T11:17:43.000Z</time>
      </trkpt>
      <trkpt lat="43.217831533402205" lon="-6.862949263304472">
        <ele>532</ele>
        <time>2017-08-07T11:17:44.000Z</time>
      </trkpt>
      <trkpt lat="43.21780915372074" lon="-6.862980276346207">
        <ele>533.8</ele>
        <time>2017-08-07T11:17:47.000Z</time>
      </trkpt>
      <trkpt lat="43.21779565885663" lon="-6.863003075122833">
        <ele>535</ele>
        <time>2017-08-07T11:17:49.000Z</time>
      </trkpt>
      <trkpt lat="43.21777177043259" lon="-6.863024113699794">
        <ele>536.6</ele>
        <time>2017-08-07T11:17:51.000Z</time>
      </trkpt>
      <trkpt lat="43.2177556771785" lon="-6.863076416775584">
        <ele>538.4</ele>
        <time>2017-08-07T11:17:54.000Z</time>
      </trkpt>
      <trkpt lat="43.217747462913394" lon="-6.8630860559642315">
        <ele>539</ele>
        <time>2017-08-07T11:17:55.000Z</time>
      </trkpt>
      <trkpt lat="43.21772726252675" lon="-6.863131318241358">
        <ele>541</ele>
        <time>2017-08-07T11:17:58.000Z</time>
      </trkpt>
      <trkpt lat="43.21770278736949" lon="-6.8631714675575495">
        <ele>543</ele>
        <time>2017-08-07T11:18:02.000Z</time>
      </trkpt>
      <trkpt lat="43.21767051704228" lon="-6.863225866109133">
        <ele>545.4</ele>
        <time>2017-08-07T11:18:05.000Z</time>
      </trkpt>
      <trkpt lat="43.2176504842937" lon="-6.863286467269063">
        <ele>547.4</ele>
        <time>2017-08-07T11:18:09.000Z</time>
      </trkpt>
      <trkpt lat="43.21765702217817" lon="-6.863319994881749">
        <ele>547.8</ele>
        <time>2017-08-07T11:18:11.000Z</time>
      </trkpt>
      <trkpt lat="43.21768308989704" lon="-6.863361904397607">
        <ele>547.4</ele>
        <time>2017-08-07T11:18:15.000Z</time>
      </trkpt>
      <trkpt lat="43.217731872573495" lon="-6.863399287685752">
        <ele>545.4</ele>
        <time>2017-08-07T11:18:19.000Z</time>
      </trkpt>
      <trkpt lat="43.217739667743444" lon="-6.863409010693431">
        <ele>545.2</ele>
        <time>2017-08-07T11:18:20.000Z</time>
      </trkpt>
      <trkpt lat="43.21775852702558" lon="-6.863432731479406">
        <ele>544.8</ele>
        <time>2017-08-07T11:18:22.000Z</time>
      </trkpt>
      <trkpt lat="43.217781241983175" lon="-6.863451590761542">
        <ele>544</ele>
        <time>2017-08-07T11:18:24.000Z</time>
      </trkpt>
      <trkpt lat="43.21782507933676" lon="-6.863517975434661">
        <ele>543.6</ele>
        <time>2017-08-07T11:18:30.000Z</time>
      </trkpt>
      <trkpt lat="43.217867743223906" lon="-6.863560471683741">
        <ele>542.6</ele>
        <time>2017-08-07T11:18:35.000Z</time>
      </trkpt>
      <trkpt lat="43.21788551285863" lon="-6.863577235490084">
        <ele>542</ele>
        <time>2017-08-07T11:18:37.000Z</time>
      </trkpt>
      <trkpt lat="43.21793437935412" lon="-6.863640937954187">
        <ele>541.2</ele>
        <time>2017-08-07T11:18:43.000Z</time>
      </trkpt>
      <trkpt lat="43.217992298305035" lon="-6.8637719471007586">
        <ele>541.8</ele>
        <time>2017-08-07T11:18:52.000Z</time>
      </trkpt>
      <trkpt lat="43.21799648925662" lon="-6.86379105783999">
        <ele>542</ele>
        <time>2017-08-07T11:18:53.000Z</time>
      </trkpt>
      <trkpt lat="43.21802230551839" lon="-6.863874373957515">
        <ele>543</ele>
        <time>2017-08-07T11:18:58.000Z</time>
      </trkpt>
      <trkpt lat="43.2180408295244" lon="-6.86393472366035">
        <ele>543.6</ele>
        <time>2017-08-07T11:19:02.000Z</time>
      </trkpt>
      <trkpt lat="43.218050971627235" lon="-6.863967245444655">
        <ele>543.8</ele>
        <time>2017-08-07T11:19:04.000Z</time>
      </trkpt>
      <trkpt lat="43.21807921864092" lon="-6.864050142467022">
        <ele>544</ele>
        <time>2017-08-07T11:19:10.000Z</time>
      </trkpt>
      <trkpt lat="43.218082655221224" lon="-6.864064056426287">
        <ele>544.2</ele>
        <time>2017-08-07T11:19:11.000Z</time>
      </trkpt>
      <trkpt lat="43.218082655221224" lon="-6.864143013954163">
        <ele>545.8</ele>
        <time>2017-08-07T11:19:16.000Z</time>
      </trkpt>
      <trkpt lat="43.21807284839451" lon="-6.864234795793891">
        <ele>548.4</ele>
        <time>2017-08-07T11:19:22.000Z</time>
      </trkpt>
      <trkpt lat="43.218089025467634" lon="-6.8642758671194315">
        <ele>548.2</ele>
        <time>2017-08-07T11:19:25.000Z</time>
      </trkpt>
      <trkpt lat="43.21809698827565" lon="-6.864283997565508">
        <ele>547.8</ele>
        <time>2017-08-07T11:19:26.000Z</time>
      </trkpt>
      <trkpt lat="43.21810235269368" lon="-6.864297157153487">
        <ele>547.6</ele>
        <time>2017-08-07T11:19:27.000Z</time>
      </trkpt>
      <trkpt lat="43.2181148417294" lon="-6.864360943436623">
        <ele>547.6</ele>
        <time>2017-08-07T11:19:31.000Z</time>
      </trkpt>
      <trkpt lat="43.218114003539085" lon="-6.864378377795219">
        <ele>547.8</ele>
        <time>2017-08-07T11:19:32.000Z</time>
      </trkpt>
      <trkpt lat="43.21812842041254" lon="-6.864471668377519">
        <ele>547.6</ele>
        <time>2017-08-07T11:19:38.000Z</time>
      </trkpt>
      <trkpt lat="43.21813026443124" lon="-6.864570993930101">
        <ele>548</ele>
        <time>2017-08-07T11:19:44.000Z</time>
      </trkpt>
      <trkpt lat="43.218140406534076" lon="-6.86462271027267">
        <ele>547.2</ele>
        <time>2017-08-07T11:19:48.000Z</time>
      </trkpt>
      <trkpt lat="43.218136969953775" lon="-6.864722790196538">
        <ele>547.4</ele>
        <time>2017-08-07T11:19:54.000Z</time>
      </trkpt>
      <trkpt lat="43.21813831105828" lon="-6.8648062739521265">
        <ele>547.6</ele>
        <time>2017-08-07T11:19:59.000Z</time>
      </trkpt>
      <trkpt lat="43.2181494589895" lon="-6.864890260621905">
        <ele>546.4</ele>
        <time>2017-08-07T11:20:05.000Z</time>
      </trkpt>
      <trkpt lat="43.2181341201067" lon="-6.864948347210884">
        <ele>546.6</ele>
        <time>2017-08-07T11:20:09.000Z</time>
      </trkpt>
      <trkpt lat="43.21812205016613" lon="-6.865013977512717">
        <ele>547.2</ele>
        <time>2017-08-07T11:20:14.000Z</time>
      </trkpt>
      <trkpt lat="43.218120373785496" lon="-6.865070555359125">
        <ele>547.4</ele>
        <time>2017-08-07T11:20:18.000Z</time>
      </trkpt>
      <trkpt lat="43.21811274625361" lon="-6.865087151527405">
        <ele>547.6</ele>
        <time>2017-08-07T11:20:19.000Z</time>
      </trkpt>
      <trkpt lat="43.21811090223491" lon="-6.865124283358455">
        <ele>547.6</ele>
        <time>2017-08-07T11:20:22.000Z</time>
      </trkpt>
      <trkpt lat="43.2181045319885" lon="-6.865154542028904">
        <ele>547.6</ele>
        <time>2017-08-07T11:20:24.000Z</time>
      </trkpt>
      <trkpt lat="43.21810151450336" lon="-6.86521103605628">
        <ele>547.4</ele>
        <time>2017-08-07T11:20:27.000Z</time>
      </trkpt>
      <trkpt lat="43.21809430606663" lon="-6.865229643881321">
        <ele>547.6</ele>
        <time>2017-08-07T11:20:28.000Z</time>
      </trkpt>
      <trkpt lat="43.218072932213545" lon="-6.8652907479554415">
        <ele>548.2</ele>
        <time>2017-08-07T11:20:33.000Z</time>
      </trkpt>
      <trkpt lat="43.218061281368136" lon="-6.865314804017544">
        <ele>548.6</ele>
        <time>2017-08-07T11:20:35.000Z</time>
      </trkpt>
      <trkpt lat="43.21805264800787" lon="-6.865337435156107">
        <ele>549</ele>
        <time>2017-08-07T11:20:37.000Z</time>
      </trkpt>
      <trkpt lat="43.218010906130075" lon="-6.8654106091707945">
        <ele>550.6</ele>
        <time>2017-08-07T11:20:42.000Z</time>
      </trkpt>
      <trkpt lat="43.21799732744694" lon="-6.865432318300009">
        <ele>551</ele>
        <time>2017-08-07T11:20:44.000Z</time>
      </trkpt>
      <trkpt lat="43.2179734390229" lon="-6.865475568920374">
        <ele>551.8</ele>
        <time>2017-08-07T11:20:47.000Z</time>
      </trkpt>
      <trkpt lat="43.217941001057625" lon="-6.865537511184812">
        <ele>552.4</ele>
        <time>2017-08-07T11:20:52.000Z</time>
      </trkpt>
      <trkpt lat="43.21791443042457" lon="-6.865576319396496">
        <ele>552.8</ele>
        <time>2017-08-07T11:20:55.000Z</time>
      </trkpt>
      <trkpt lat="43.217904875054955" lon="-6.865604734048247">
        <ele>553</ele>
        <time>2017-08-07T11:20:57.000Z</time>
      </trkpt>
      <trkpt lat="43.217901941388845" lon="-6.865646978840232">
        <ele>553</ele>
        <time>2017-08-07T11:20:59.000Z</time>
      </trkpt>
      <trkpt lat="43.21789397858083" lon="-6.865668268874288">
        <ele>553.2</ele>
        <time>2017-08-07T11:21:01.000Z</time>
      </trkpt>
      <trkpt lat="43.2178783044219" lon="-6.865699449554086">
        <ele>553.6</ele>
        <time>2017-08-07T11:21:03.000Z</time>
      </trkpt>
      <trkpt lat="43.21786950342357" lon="-6.865745969116688">
        <ele>554</ele>
        <time>2017-08-07T11:21:06.000Z</time>
      </trkpt>
      <trkpt lat="43.2178698386997" lon="-6.8657569494098425">
        <ele>554</ele>
        <time>2017-08-07T11:21:07.000Z</time>
      </trkpt>
      <trkpt lat="43.21791199967265" lon="-6.8658137787133455">
        <ele>553.6</ele>
        <time>2017-08-07T11:21:11.000Z</time>
      </trkpt>
      <trkpt lat="43.21795868687332" lon="-6.865871697664261">
        <ele>553</ele>
        <time>2017-08-07T11:21:17.000Z</time>
      </trkpt>
      <trkpt lat="43.21796556003392" lon="-6.865883683785796">
        <ele>552.8</ele>
        <time>2017-08-07T11:21:18.000Z</time>
      </trkpt>
      <trkpt lat="43.21803990751505" lon="-6.865933556109667">
        <ele>552.8</ele>
        <time>2017-08-07T11:21:24.000Z</time>
      </trkpt>
      <trkpt lat="43.218080811202526" lon="-6.865962641313672">
        <ele>553.4</ele>
        <time>2017-08-07T11:21:29.000Z</time>
      </trkpt>
      <trkpt lat="43.218106627464294" lon="-6.865969598293304">
        <ele>553.6</ele>
        <time>2017-08-07T11:21:34.000Z</time>
      </trkpt>
      <trkpt lat="43.21812448091805" lon="-6.865984182804823">
        <ele>553.8</ele>
        <time>2017-08-07T11:21:36.000Z</time>
      </trkpt>
      <trkpt lat="43.21814007125795" lon="-6.86598208732903">
        <ele>553.8</ele>
        <time>2017-08-07T11:21:38.000Z</time>
      </trkpt>
      <trkpt lat="43.21815046481788" lon="-6.865987116470933">
        <ele>553.8</ele>
        <time>2017-08-07T11:21:39.000Z</time>
      </trkpt>
      <trkpt lat="43.21818885393441" lon="-6.86601678840816">
        <ele>554.6</ele>
        <time>2017-08-07T11:21:42.000Z</time>
      </trkpt>
      <trkpt lat="43.21823185309768" lon="-6.866029696539044">
        <ele>554.6</ele>
        <time>2017-08-07T11:21:47.000Z</time>
      </trkpt>
      <trkpt lat="43.21829320862889" lon="-6.86602751724422">
        <ele>553.6</ele>
        <time>2017-08-07T11:21:53.000Z</time>
      </trkpt>
      <trkpt lat="43.21830427274108" lon="-6.866034306585789">
        <ele>553.6</ele>
        <time>2017-08-07T11:21:54.000Z</time>
      </trkpt>
      <trkpt lat="43.21835397742689" lon="-6.86602751724422">
        <ele>552.6</ele>
        <time>2017-08-07T11:21:58.000Z</time>
      </trkpt>
      <trkpt lat="43.21836797520518" lon="-6.866027349606156">
        <ele>552.2</ele>
        <time>2017-08-07T11:21:59.000Z</time>
      </trkpt>
      <trkpt lat="43.21842145174742" lon="-6.86601871624589">
        <ele>551.2</ele>
        <time>2017-08-07T11:22:03.000Z</time>
      </trkpt>
      <trkpt lat="43.21852186694741" lon="-6.866003209725022">
        <ele>549</ele>
        <time>2017-08-07T11:22:11.000Z</time>
      </trkpt>
      <trkpt lat="43.21862052194774" lon="-6.865983260795474">
        <ele>546.6</ele>
        <time>2017-08-07T11:22:19.000Z</time>
      </trkpt>
      <trkpt lat="43.21866536512971" lon="-6.865974627435207">
        <ele>545.6</ele>
        <time>2017-08-07T11:22:23.000Z</time>
      </trkpt>
      <trkpt lat="43.218671483919024" lon="-6.865940261632204">
        <ele>544.6</ele>
        <time>2017-08-07T11:22:26.000Z</time>
      </trkpt>
      <trkpt lat="43.21868414059281" lon="-6.86594202183187">
        <ele>544.4</ele>
        <time>2017-08-07T11:22:34.000Z</time>
      </trkpt>
      <trkpt lat="43.21871121414006" lon="-6.866015279665589">
        <ele>545.8</ele>
        <time>2017-08-07T11:25:35.000Z</time>
      </trkpt>
      <trkpt lat="43.218730576336384" lon="-6.866017710417509">
        <ele>545.6</ele>
        <time>2017-08-07T11:25:43.000Z</time>
      </trkpt>
      <trkpt lat="43.21876276284456" lon="-6.86605928465724">
        <ele>545.8</ele>
        <time>2017-08-07T11:26:42.000Z</time>
      </trkpt>
      <trkpt lat="43.21877835318446" lon="-6.866101864725351">
        <ele>546.4</ele>
        <time>2017-08-07T11:26:46.000Z</time>
      </trkpt>
      <trkpt lat="43.21877667680383" lon="-6.866120975464582">
        <ele>546.8</ele>
        <time>2017-08-07T11:26:47.000Z</time>
      </trkpt>
      <trkpt lat="43.21880525909364" lon="-6.866177637130022">
        <ele>547.4</ele>
        <time>2017-08-07T11:26:52.000Z</time>
      </trkpt>
      <trkpt lat="43.21881975978613" lon="-6.86621124856174">
        <ele>547.8</ele>
        <time>2017-08-07T11:26:55.000Z</time>
      </trkpt>
      <trkpt lat="43.21882923133671" lon="-6.8662334606051445">
        <ele>548</ele>
        <time>2017-08-07T11:26:57.000Z</time>
      </trkpt>
      <trkpt lat="43.21883576922119" lon="-6.866243686527014">
        <ele>548</ele>
        <time>2017-08-07T11:26:58.000Z</time>
      </trkpt>
      <trkpt lat="43.21886083111167" lon="-6.866295989602804">
        <ele>548.4</ele>
        <time>2017-08-07T11:27:03.000Z</time>
      </trkpt>
      <trkpt lat="43.2188680395484" lon="-6.866310825571418">
        <ele>548.4</ele>
        <time>2017-08-07T11:27:04.000Z</time>
      </trkpt>
      <trkpt lat="43.21890542283654" lon="-6.866359692066908">
        <ele>548.4</ele>
        <time>2017-08-07T11:27:09.000Z</time>
      </trkpt>
      <trkpt lat="43.218914307653904" lon="-6.866370169445872">
        <ele>548.4</ele>
        <time>2017-08-07T11:27:10.000Z</time>
      </trkpt>
      <trkpt lat="43.21894280612469" lon="-6.86641157604754">
        <ele>548.4</ele>
        <time>2017-08-07T11:27:15.000Z</time>
      </trkpt>
      <trkpt lat="43.218950517475605" lon="-6.8664187006652355">
        <ele>548.4</ele>
        <time>2017-08-07T11:27:16.000Z</time>
      </trkpt>
      <trkpt lat="43.21899368427694" lon="-6.866475697606802">
        <ele>548.4</ele>
        <time>2017-08-07T11:27:22.000Z</time>
      </trkpt>
      <trkpt lat="43.219000305980444" lon="-6.8664852529764175">
        <ele>548.4</ele>
        <time>2017-08-07T11:27:23.000Z</time>
      </trkpt>
      <trkpt lat="43.21902352385223" lon="-6.866574268788099">
        <ele>549.4</ele>
        <time>2017-08-07T11:27:30.000Z</time>
      </trkpt>
      <trkpt lat="43.21903442032635" lon="-6.866660015657544">
        <ele>550.6</ele>
        <time>2017-08-07T11:27:37.000Z</time>
      </trkpt>
      <trkpt lat="43.21903492324054" lon="-6.86667007394135">
        <ele>550.8</ele>
        <time>2017-08-07T11:27:38.000Z</time>
      </trkpt>
      <trkpt lat="43.21904489770532" lon="-6.866769148036838">
        <ele>552.2</ele>
        <time>2017-08-07T11:27:45.000Z</time>
      </trkpt>
      <trkpt lat="43.21903810836375" lon="-6.866852715611458">
        <ele>553.6</ele>
        <time>2017-08-07T11:27:51.000Z</time>
      </trkpt>
      <trkpt lat="43.21903039701283" lon="-6.866866042837501">
        <ele>554</ele>
        <time>2017-08-07T11:27:52.000Z</time>
      </trkpt>
      <trkpt lat="43.219028720632195" lon="-6.866912478581071">
        <ele>554.8</ele>
        <time>2017-08-07T11:27:55.000Z</time>
      </trkpt>
      <trkpt lat="43.219018913805485" lon="-6.86699110083282">
        <ele>556.2</ele>
        <time>2017-08-07T11:28:00.000Z</time>
      </trkpt>
      <trkpt lat="43.21901413612068" lon="-6.867020521312952">
        <ele>556.8</ele>
        <time>2017-08-07T11:28:02.000Z</time>
      </trkpt>
      <trkpt lat="43.21900583803654" lon="-6.867036446928978">
        <ele>557.2</ele>
        <time>2017-08-07T11:28:03.000Z</time>
      </trkpt>
      <trkpt lat="43.21899142116308" lon="-6.8670843075960875">
        <ele>558.4</ele>
        <time>2017-08-07T11:28:06.000Z</time>
      </trkpt>
      <trkpt lat="43.21898790076375" lon="-6.867158319801092">
        <ele>559.4</ele>
        <time>2017-08-07T11:28:11.000Z</time>
      </trkpt>
      <trkpt lat="43.21898530237377" lon="-6.8671749997884035">
        <ele>559.8</ele>
        <time>2017-08-07T11:28:12.000Z</time>
      </trkpt>
      <trkpt lat="43.21896577253938" lon="-6.8672730680555105">
        <ele>561.4</ele>
        <time>2017-08-07T11:28:18.000Z</time>
      </trkpt>
      <trkpt lat="43.218956803902984" lon="-6.867373147979379">
        <ele>562.6</ele>
        <time>2017-08-07T11:28:25.000Z</time>
      </trkpt>
      <trkpt lat="43.218953870236874" lon="-6.86743282712996">
        <ele>563.2</ele>
        <time>2017-08-07T11:28:29.000Z</time>
      </trkpt>
      <trkpt lat="43.21898982860148" lon="-6.867485968396068">
        <ele>562</ele>
        <time>2017-08-07T11:28:33.000Z</time>
      </trkpt>
      <trkpt lat="43.218983290717006" lon="-6.867499211803079">
        <ele>562.2</ele>
        <time>2017-08-07T11:28:34.000Z</time>
      </trkpt>
      <trkpt lat="43.21897474117577" lon="-6.867527710273862">
        <ele>562.6</ele>
        <time>2017-08-07T11:28:36.000Z</time>
      </trkpt>
      <trkpt lat="43.218949092552066" lon="-6.867586886510253">
        <ele>563.6</ele>
        <time>2017-08-07T11:28:40.000Z</time>
      </trkpt>
      <trkpt lat="43.21892939507961" lon="-6.867614965885878">
        <ele>564.2</ele>
        <time>2017-08-07T11:28:42.000Z</time>
      </trkpt>
      <trkpt lat="43.218897711485624" lon="-6.867697611451149">
        <ele>565.2</ele>
        <time>2017-08-07T11:28:47.000Z</time>
      </trkpt>
      <trkpt lat="43.218890838325024" lon="-6.86771621927619">
        <ele>565.4</ele>
        <time>2017-08-07T11:28:48.000Z</time>
      </trkpt>
      <trkpt lat="43.21887742727995" lon="-6.867743209004402">
        <ele>565.8</ele>
        <time>2017-08-07T11:28:50.000Z</time>
      </trkpt>
      <trkpt lat="43.21885731071234" lon="-6.867787633091211">
        <ele>566.4</ele>
        <time>2017-08-07T11:28:53.000Z</time>
      </trkpt>
      <trkpt lat="43.21882822550833" lon="-6.867898525670171">
        <ele>567</ele>
        <time>2017-08-07T11:29:00.000Z</time>
      </trkpt>
      <trkpt lat="43.218791680410504" lon="-6.867995169013739">
        <ele>567</ele>
        <time>2017-08-07T11:29:06.000Z</time>
      </trkpt>
      <trkpt lat="43.218793189153075" lon="-6.868010926991701">
        <ele>566.8</ele>
        <time>2017-08-07T11:29:07.000Z</time>
      </trkpt>
      <trkpt lat="43.21876846253872" lon="-6.868058117106557">
        <ele>567.2</ele>
        <time>2017-08-07T11:29:10.000Z</time>
      </trkpt>
      <trkpt lat="43.218754045665264" lon="-6.86810371465981">
        <ele>567</ele>
        <time>2017-08-07T11:29:13.000Z</time>
      </trkpt>
      <trkpt lat="43.21873711422086" lon="-6.868147300556302">
        <ele>567</ele>
        <time>2017-08-07T11:29:16.000Z</time>
      </trkpt>
      <trkpt lat="43.21870727464557" lon="-6.868216199800372">
        <ele>567</ele>
        <time>2017-08-07T11:29:21.000Z</time>
      </trkpt>
      <trkpt lat="43.21870341897011" lon="-6.868219804018736">
        <ele>567.2</ele>
        <time>2017-08-07T11:29:22.000Z</time>
      </trkpt>
      <trkpt lat="43.21867609396577" lon="-6.868302784860134">
        <ele>566.8</ele>
        <time>2017-08-07T11:29:28.000Z</time>
      </trkpt>
      <trkpt lat="43.21866259910166" lon="-6.868352070450783">
        <ele>566.8</ele>
        <time>2017-08-07T11:29:31.000Z</time>
      </trkpt>
      <trkpt lat="43.21864625439048" lon="-6.868389872834086">
        <ele>567</ele>
        <time>2017-08-07T11:29:33.000Z</time>
      </trkpt>
      <trkpt lat="43.21863661520183" lon="-6.868425076827407">
        <ele>567</ele>
        <time>2017-08-07T11:29:35.000Z</time>
      </trkpt>
      <trkpt lat="43.21860937401652" lon="-6.868498586118221">
        <ele>567.6</ele>
        <time>2017-08-07T11:29:40.000Z</time>
      </trkpt>
      <trkpt lat="43.21860468015075" lon="-6.868517277762294">
        <ele>567.6</ele>
        <time>2017-08-07T11:29:41.000Z</time>
      </trkpt>
      <trkpt lat="43.21858322247863" lon="-6.868591038510203">
        <ele>568</ele>
        <time>2017-08-07T11:29:45.000Z</time>
      </trkpt>
      <trkpt lat="43.21857115253806" lon="-6.868627918884158">
        <ele>568.2</ele>
        <time>2017-08-07T11:29:47.000Z</time>
      </trkpt>
      <trkpt lat="43.21854382753372" lon="-6.868723388761282">
        <ele>568.6</ele>
        <time>2017-08-07T11:29:53.000Z</time>
      </trkpt>
      <trkpt lat="43.2185292430222" lon="-6.86879413202405">
        <ele>568.8</ele>
        <time>2017-08-07T11:29:58.000Z</time>
      </trkpt>
      <trkpt lat="43.21852161549032" lon="-6.868807291612029">
        <ele>568.8</ele>
        <time>2017-08-07T11:29:59.000Z</time>
      </trkpt>
      <trkpt lat="43.21851164102554" lon="-6.868848530575633">
        <ele>568.8</ele>
        <time>2017-08-07T11:30:02.000Z</time>
      </trkpt>
      <trkpt lat="43.21850745007396" lon="-6.868901755660772">
        <ele>568.8</ele>
        <time>2017-08-07T11:30:05.000Z</time>
      </trkpt>
      <trkpt lat="43.21848465129733" lon="-6.868968224152923">
        <ele>569</ele>
        <time>2017-08-07T11:30:10.000Z</time>
      </trkpt>
      <trkpt lat="43.21846805512905" lon="-6.869008205831051">
        <ele>569.2</ele>
        <time>2017-08-07T11:30:13.000Z</time>
      </trkpt>
      <trkpt lat="43.21846176870167" lon="-6.86902136541903">
        <ele>569.2</ele>
        <time>2017-08-07T11:30:14.000Z</time>
      </trkpt>
      <trkpt lat="43.218436036258936" lon="-6.869095293805003">
        <ele>569.4</ele>
        <time>2017-08-07T11:30:19.000Z</time>
      </trkpt>
      <trkpt lat="43.21843176148832" lon="-6.8691234569996595">
        <ele>569.2</ele>
        <time>2017-08-07T11:30:21.000Z</time>
      </trkpt>
      <trkpt lat="43.21842052973807" lon="-6.869197720661759">
        <ele>568.6</ele>
        <time>2017-08-07T11:30:26.000Z</time>
      </trkpt>
      <trkpt lat="43.21842346340418" lon="-6.869216663762927">
        <ele>568.4</ele>
        <time>2017-08-07T11:30:27.000Z</time>
      </trkpt>
      <trkpt lat="43.21840628050268" lon="-6.869303584098816">
        <ele>567.6</ele>
        <time>2017-08-07T11:30:31.000Z</time>
      </trkpt>
      <trkpt lat="43.21838884614408" lon="-6.8693814519792795">
        <ele>567</ele>
        <time>2017-08-07T11:30:36.000Z</time>
      </trkpt>
      <trkpt lat="43.21838012896478" lon="-6.869419422000647">
        <ele>566.6</ele>
        <time>2017-08-07T11:30:38.000Z</time>
      </trkpt>
      <trkpt lat="43.21836529299617" lon="-6.869469042867422">
        <ele>566.2</ele>
        <time>2017-08-07T11:30:41.000Z</time>
      </trkpt>
      <trkpt lat="43.21835313923657" lon="-6.869505420327187">
        <ele>566</ele>
        <time>2017-08-07T11:30:43.000Z</time>
      </trkpt>
      <trkpt lat="43.21833704598248" lon="-6.869556549936533">
        <ele>565.4</ele>
        <time>2017-08-07T11:30:46.000Z</time>
      </trkpt>
      <trkpt lat="43.21833067573607" lon="-6.869584210216999">
        <ele>565.2</ele>
        <time>2017-08-07T11:30:48.000Z</time>
      </trkpt>
      <trkpt lat="43.21830393746495" lon="-6.869638441130519">
        <ele>565</ele>
        <time>2017-08-07T11:30:51.000Z</time>
      </trkpt>
      <trkpt lat="43.218289939686656" lon="-6.869715638458729">
        <ele>564</ele>
        <time>2017-08-07T11:30:56.000Z</time>
      </trkpt>
      <trkpt lat="43.21828558109701" lon="-6.869733911007643">
        <ele>563.8</ele>
        <time>2017-08-07T11:30:57.000Z</time>
      </trkpt>
      <trkpt lat="43.21826973930001" lon="-6.869799876585603">
        <ele>563</ele>
        <time>2017-08-07T11:31:02.000Z</time>
      </trkpt>
      <trkpt lat="43.21825498715043" lon="-6.869913870468736">
        <ele>561.8</ele>
        <time>2017-08-07T11:31:09.000Z</time>
      </trkpt>
      <trkpt lat="43.21825825609267" lon="-6.8699422013014555">
        <ele>561.2</ele>
        <time>2017-08-07T11:31:11.000Z</time>
      </trkpt>
      <trkpt lat="43.21825163438916" lon="-6.869990900158882">
        <ele>560.8</ele>
        <time>2017-08-07T11:31:14.000Z</time>
      </trkpt>
      <trkpt lat="43.2182514667511" lon="-6.870004395022988">
        <ele>560.6</ele>
        <time>2017-08-07T11:31:15.000Z</time>
      </trkpt>
      <trkpt lat="43.21822891943157" lon="-6.870080837979913">
        <ele>560.2</ele>
        <time>2017-08-07T11:31:20.000Z</time>
      </trkpt>
      <trkpt lat="43.218219531700015" lon="-6.8700953386723995">
        <ele>560.2</ele>
        <time>2017-08-07T11:31:21.000Z</time>
      </trkpt>
      <trkpt lat="43.218187345191836" lon="-6.870141187682748">
        <ele>560.4</ele>
        <time>2017-08-07T11:31:25.000Z</time>
      </trkpt>
      <trkpt lat="43.21818022057414" lon="-6.870154598727822">
        <ele>560.4</ele>
        <time>2017-08-07T11:31:26.000Z</time>
      </trkpt>
      <trkpt lat="43.218171671032906" lon="-6.870182929560542">
        <ele>560</ele>
        <time>2017-08-07T11:31:28.000Z</time>
      </trkpt>
      <trkpt lat="43.21814744733274" lon="-6.870239591225982">
        <ele>559.8</ele>
        <time>2017-08-07T11:31:32.000Z</time>
      </trkpt>
      <trkpt lat="43.21813168935478" lon="-6.870271945372224">
        <ele>559.8</ele>
        <time>2017-08-07T11:31:34.000Z</time>
      </trkpt>
      <trkpt lat="43.21809698827565" lon="-6.870350819081068">
        <ele>559.8</ele>
        <time>2017-08-07T11:31:39.000Z</time>
      </trkpt>
      <trkpt lat="43.2180389855057" lon="-6.870432374998927">
        <ele>559.6</ele>
        <time>2017-08-07T11:31:46.000Z</time>
      </trkpt>
      <trkpt lat="43.21799598634243" lon="-6.870523821562529">
        <ele>558.6</ele>
        <time>2017-08-07T11:31:53.000Z</time>
      </trkpt>
      <trkpt lat="43.217962039634585" lon="-6.870627757161856">
        <ele>557.2</ele>
        <time>2017-08-07T11:32:00.000Z</time>
      </trkpt>
      <trkpt lat="43.21792574599385" lon="-6.8707135040313005">
        <ele>556.2</ele>
        <time>2017-08-07T11:32:06.000Z</time>
      </trkpt>
      <trkpt lat="43.21787721477449" lon="-6.870816433802247">
        <ele>555.4</ele>
        <time>2017-08-07T11:32:14.000Z</time>
      </trkpt>
      <trkpt lat="43.21784318424761" lon="-6.870905701071024">
        <ele>554.6</ele>
        <time>2017-08-07T11:32:19.000Z</time>
      </trkpt>
      <trkpt lat="43.217799849808216" lon="-6.870998572558165">
        <ele>553.4</ele>
        <time>2017-08-07T11:32:25.000Z</time>
      </trkpt>
      <trkpt lat="43.217748468741775" lon="-6.871134275570512">
        <ele>550.8</ele>
        <time>2017-08-07T11:32:34.000Z</time>
      </trkpt>
      <trkpt lat="43.21770169772208" lon="-6.871229745447636">
        <ele>549.8</ele>
        <time>2017-08-07T11:32:41.000Z</time>
      </trkpt>
      <trkpt lat="43.217652747407556" lon="-6.871321443468332">
        <ele>550.2</ele>
        <time>2017-08-07T11:32:48.000Z</time>
      </trkpt>
      <trkpt lat="43.217610167339444" lon="-6.8714112136512995">
        <ele>550.4</ele>
        <time>2017-08-07T11:32:54.000Z</time>
      </trkpt>
      <trkpt lat="43.21756985038519" lon="-6.871492434293032">
        <ele>550.8</ele>
        <time>2017-08-07T11:33:00.000Z</time>
      </trkpt>
      <trkpt lat="43.21753405965865" lon="-6.871549095958471">
        <ele>550.8</ele>
        <time>2017-08-07T11:33:04.000Z</time>
      </trkpt>
      <trkpt lat="43.21753271855414" lon="-6.871565440669656">
        <ele>550.4</ele>
        <time>2017-08-07T11:33:05.000Z</time>
      </trkpt>
      <trkpt lat="43.217524671927094" lon="-6.871570134535432">
        <ele>550.6</ele>
        <time>2017-08-07T11:33:08.000Z</time>
      </trkpt>
      <trkpt lat="43.217477817088366" lon="-6.871626628562808">
        <ele>551</ele>
        <time>2017-08-07T11:33:14.000Z</time>
      </trkpt>
      <trkpt lat="43.21744378656149" lon="-6.871717236936092">
        <ele>550.4</ele>
        <time>2017-08-07T11:33:21.000Z</time>
      </trkpt>
      <trkpt lat="43.21739743463695" lon="-6.871830560266972">
        <ele>549.6</ele>
        <time>2017-08-07T11:33:29.000Z</time>
      </trkpt>
      <trkpt lat="43.217341527342796" lon="-6.871920581907034">
        <ele>549.6</ele>
        <time>2017-08-07T11:33:37.000Z</time>
      </trkpt>
      <trkpt lat="43.217330714687705" lon="-6.8719560373574495">
        <ele>549.2</ele>
        <time>2017-08-07T11:33:40.000Z</time>
      </trkpt>
      <trkpt lat="43.21732057258487" lon="-6.871958719566464">
        <ele>549.4</ele>
        <time>2017-08-07T11:33:42.000Z</time>
      </trkpt>
      <trkpt lat="43.21731336414814" lon="-6.871969364583492">
        <ele>549.4</ele>
        <time>2017-08-07T11:33:43.000Z</time>
      </trkpt>
      <trkpt lat="43.21728402748704" lon="-6.872026780620217">
        <ele>549.2</ele>
        <time>2017-08-07T11:33:48.000Z</time>
      </trkpt>
      <trkpt lat="43.21723038330674" lon="-6.87210070900619">
        <ele>549</ele>
        <time>2017-08-07T11:33:55.000Z</time>
      </trkpt>
      <trkpt lat="43.217195430770516" lon="-6.87219793908298">
        <ele>548</ele>
        <time>2017-08-07T11:34:00.000Z</time>
      </trkpt>
      <trkpt lat="43.21718185208738" lon="-6.872211266309023">
        <ele>548</ele>
        <time>2017-08-07T11:34:01.000Z</time>
      </trkpt>
      <trkpt lat="43.21715343743563" lon="-6.8722856137901545">
        <ele>547.4</ele>
        <time>2017-08-07T11:34:05.000Z</time>
      </trkpt>
      <trkpt lat="43.217122508212924" lon="-6.872401870787144">
        <ele>547.2</ele>
        <time>2017-08-07T11:34:12.000Z</time>
      </trkpt>
      <trkpt lat="43.2170994579792" lon="-6.8725064769387245">
        <ele>547.2</ele>
        <time>2017-08-07T11:34:19.000Z</time>
      </trkpt>
      <trkpt lat="43.21710121817887" lon="-6.872520474717021">
        <ele>547</ele>
        <time>2017-08-07T11:34:20.000Z</time>
      </trkpt>
      <trkpt lat="43.21713994257152" lon="-6.8726101610809565">
        <ele>545.2</ele>
        <time>2017-08-07T11:34:27.000Z</time>
      </trkpt>
      <trkpt lat="43.217219822108746" lon="-6.872746702283621">
        <ele>544.4</ele>
        <time>2017-08-07T11:34:38.000Z</time>
      </trkpt>
      <trkpt lat="43.217292157933116" lon="-6.872829515486956">
        <ele>544.6</ele>
        <time>2017-08-07T11:34:46.000Z</time>
      </trkpt>
      <trkpt lat="43.21735636331141" lon="-6.8729078862816095">
        <ele>545</ele>
        <time>2017-08-07T11:34:53.000Z</time>
      </trkpt>
      <trkpt lat="43.21738025173545" lon="-6.87294065952301">
        <ele>545.2</ele>
        <time>2017-08-07T11:34:56.000Z</time>
      </trkpt>
      <trkpt lat="43.21741495281458" lon="-6.873008972033858">
        <ele>545.4</ele>
        <time>2017-08-07T11:35:01.000Z</time>
      </trkpt>
      <trkpt lat="43.21745065972209" lon="-6.8731440883129835">
        <ele>546.2</ele>
        <time>2017-08-07T11:35:10.000Z</time>
      </trkpt>
      <trkpt lat="43.21746256202459" lon="-6.8732439167797565">
        <ele>546.6</ele>
        <time>2017-08-07T11:35:16.000Z</time>
      </trkpt>
      <trkpt lat="43.21748225949705" lon="-6.87333645299077">
        <ele>547</ele>
        <time>2017-08-07T11:35:22.000Z</time>
      </trkpt>
      <trkpt lat="43.21748594753444" lon="-6.873357575386763">
        <ele>547.2</ele>
        <time>2017-08-07T11:35:23.000Z</time>
      </trkpt>
      <trkpt lat="43.21749567054212" lon="-6.873398395255208">
        <ele>547.4</ele>
        <time>2017-08-07T11:35:26.000Z</time>
      </trkpt>
      <trkpt lat="43.21750648319721" lon="-6.873447010293603">
        <ele>547.8</ele>
        <time>2017-08-07T11:35:29.000Z</time>
      </trkpt>
      <trkpt lat="43.217511512339115" lon="-6.873533176258206">
        <ele>548.6</ele>
        <time>2017-08-07T11:35:35.000Z</time>
      </trkpt>
      <trkpt lat="43.21752048097551" lon="-6.8735958728939295">
        <ele>549.4</ele>
        <time>2017-08-07T11:35:39.000Z</time>
      </trkpt>
      <trkpt lat="43.21752986870706" lon="-6.873645577579737">
        <ele>549.8</ele>
        <time>2017-08-07T11:35:42.000Z</time>
      </trkpt>
      <trkpt lat="43.21754269301891" lon="-6.873743394389749">
        <ele>550.2</ele>
        <time>2017-08-07T11:35:48.000Z</time>
      </trkpt>
      <trkpt lat="43.21754562668502" lon="-6.87376057729125">
        <ele>550.2</ele>
        <time>2017-08-07T11:35:49.000Z</time>
      </trkpt>
      <trkpt lat="43.21755149401724" lon="-6.8738488387316465">
        <ele>550.4</ele>
        <time>2017-08-07T11:35:55.000Z</time>
      </trkpt>
      <trkpt lat="43.21756884455681" lon="-6.873942296952009">
        <ele>550.8</ele>
        <time>2017-08-07T11:36:01.000Z</time>
      </trkpt>
      <trkpt lat="43.2175934035331" lon="-6.874070120975375">
        <ele>551.6</ele>
        <time>2017-08-07T11:36:09.000Z</time>
      </trkpt>
      <trkpt lat="43.21759248152375" lon="-6.874082861468196">
        <ele>551.6</ele>
        <time>2017-08-07T11:36:10.000Z</time>
      </trkpt>
      <trkpt lat="43.21761301718652" lon="-6.874131225049496">
        <ele>552</ele>
        <time>2017-08-07T11:36:14.000Z</time>
      </trkpt>
      <trkpt lat="43.21761678904295" lon="-6.874139942228794">
        <ele>552</ele>
        <time>2017-08-07T11:36:21.000Z</time>
      </trkpt>
      <trkpt lat="43.217562809586525" lon="-6.874181097373366">
        <ele>552.4</ele>
        <time>2017-08-07T11:36:55.000Z</time>
      </trkpt>
      <trkpt lat="43.21757152676582" lon="-6.874241698533297">
        <ele>552.8</ele>
        <time>2017-08-07T11:37:18.000Z</time>
      </trkpt>
      <trkpt lat="43.217577477917075" lon="-6.8742393516004086">
        <ele>552.8</ele>
        <time>2017-08-07T11:37:28.000Z</time>
      </trkpt>
      <trkpt lat="43.21759826503694" lon="-6.874226024374366">
        <ele>552.6</ele>
        <time>2017-08-07T11:38:38.000Z</time>
      </trkpt>
      <trkpt lat="43.21762014180422" lon="-6.874331468716264">
        <ele>553.4</ele>
        <time>2017-08-07T11:38:46.000Z</time>
      </trkpt>
      <trkpt lat="43.21761628612876" lon="-6.8743831012398005">
        <ele>553.8</ele>
        <time>2017-08-07T11:38:49.000Z</time>
      </trkpt>
      <trkpt lat="43.21760765276849" lon="-6.874455939978361">
        <ele>554.4</ele>
        <time>2017-08-07T11:38:54.000Z</time>
      </trkpt>
      <trkpt lat="43.217626344412565" lon="-6.8745235819369555">
        <ele>554.8</ele>
        <time>2017-08-07T11:38:59.000Z</time>
      </trkpt>
      <trkpt lat="43.21762651205063" lon="-6.874572699889541">
        <ele>555.2</ele>
        <time>2017-08-07T11:39:03.000Z</time>
      </trkpt>
      <trkpt lat="43.217610670253634" lon="-6.87462642788887">
        <ele>555.6</ele>
        <time>2017-08-07T11:39:08.000Z</time>
      </trkpt>
      <trkpt lat="43.21759616956115" lon="-6.874676551669836">
        <ele>556</ele>
        <time>2017-08-07T11:39:12.000Z</time>
      </trkpt>
      <trkpt lat="43.2175778131932" lon="-6.874754000455141">
        <ele>556.4</ele>
        <time>2017-08-07T11:39:16.000Z</time>
      </trkpt>
      <trkpt lat="43.21758024394512" lon="-6.87476372346282">
        <ele>556.6</ele>
        <time>2017-08-07T11:39:17.000Z</time>
      </trkpt>
      <trkpt lat="43.21758225560188" lon="-6.874778810888529">
        <ele>556.6</ele>
        <time>2017-08-07T11:39:25.000Z</time>
      </trkpt>
      <trkpt lat="43.21752400137484" lon="-6.874808734282851">
        <ele>556.8</ele>
        <time>2017-08-07T11:40:28.000Z</time>
      </trkpt>
      <trkpt lat="43.21751712821424" lon="-6.874830862507224">
        <ele>557</ele>
        <time>2017-08-07T11:41:30.000Z</time>
      </trkpt>
      <trkpt lat="43.21591299958527" lon="-6.8749063834548">
        <ele>555.2</ele>
        <time>2017-08-08T04:40:58.000Z</time>
      </trkpt>
      <trkpt lat="43.21598852053285" lon="-6.874916777014732">
        <ele>554.8</ele>
        <time>2017-08-08T04:41:03.000Z</time>
      </trkpt>
      <trkpt lat="43.21613335981965" lon="-6.874953657388687">
        <ele>554.4</ele>
        <time>2017-08-08T04:41:08.000Z</time>
      </trkpt>
      <trkpt lat="43.21627459488809" lon="-6.8750145100057125">
        <ele>554</ele>
        <time>2017-08-08T04:41:14.000Z</time>
      </trkpt>
      <trkpt lat="43.21642647497356" lon="-6.875056587159634">
        <ele>553.6</ele>
        <time>2017-08-08T04:41:20.000Z</time>
      </trkpt>
      <trkpt lat="43.21653435006738" lon="-6.875096233561635">
        <ele>553.4</ele>
        <time>2017-08-08T04:41:24.000Z</time>
      </trkpt>
      <trkpt lat="43.216598723083735" lon="-6.875126827508211">
        <ele>553.4</ele>
        <time>2017-08-08T04:41:28.000Z</time>
      </trkpt>
      <trkpt lat="43.216684218496084" lon="-6.87518005259335">
        <ele>553.8</ele>
        <time>2017-08-08T04:41:35.000Z</time>
      </trkpt>
      <trkpt lat="43.216786812990904" lon="-6.875231936573982">
        <ele>554.2</ele>
        <time>2017-08-08T04:41:44.000Z</time>
      </trkpt>
      <trkpt lat="43.21688622236252" lon="-6.875285916030407">
        <ele>555.2</ele>
        <time>2017-08-08T04:41:54.000Z</time>
      </trkpt>
      <trkpt lat="43.21697431616485" lon="-6.875315168872476">
        <ele>555.8</ele>
        <time>2017-08-08T04:42:02.000Z</time>
      </trkpt>
      <trkpt lat="43.21705671027303" lon="-6.875355821102858">
        <ele>556.6</ele>
        <time>2017-08-08T04:42:10.000Z</time>
      </trkpt>
      <trkpt lat="43.217159723863006" lon="-6.875386666506529">
        <ele>557.4</ele>
        <time>2017-08-08T04:42:19.000Z</time>
      </trkpt>
      <trkpt lat="43.21721856482327" lon="-6.875396138057113">
        <ele>558</ele>
        <time>2017-08-08T04:42:25.000Z</time>
      </trkpt>
      <trkpt lat="43.21730062365532" lon="-6.875415164977312">
        <ele>558.6</ele>
        <time>2017-08-08T04:42:32.000Z</time>
      </trkpt>
      <trkpt lat="43.217394920066" lon="-6.875460594892502">
        <ele>559.4</ele>
        <time>2017-08-08T04:42:39.000Z</time>
      </trkpt>
      <trkpt lat="43.21740472689271" lon="-6.875468976795673">
        <ele>559.6</ele>
        <time>2017-08-08T04:42:40.000Z</time>
      </trkpt>
      <trkpt lat="43.2174691837281" lon="-6.875522956252098">
        <ele>560.2</ele>
        <time>2017-08-08T04:42:47.000Z</time>
      </trkpt>
      <trkpt lat="43.21752936579287" lon="-6.875659162178636">
        <ele>561</ele>
        <time>2017-08-08T04:42:57.000Z</time>
      </trkpt>
      <trkpt lat="43.217557445168495" lon="-6.87580693513155">
        <ele>562</ele>
        <time>2017-08-08T04:43:06.000Z</time>
      </trkpt>
      <trkpt lat="43.21757378987968" lon="-6.875960156321526">
        <ele>562.6</ele>
        <time>2017-08-08T04:43:16.000Z</time>
      </trkpt>
      <trkpt lat="43.21756272576749" lon="-6.876068953424692">
        <ele>563</ele>
        <time>2017-08-08T04:43:23.000Z</time>
      </trkpt>
      <trkpt lat="43.21754009462893" lon="-6.8761280458420515">
        <ele>563</ele>
        <time>2017-08-08T04:43:28.000Z</time>
      </trkpt>
      <trkpt lat="43.2175331376493" lon="-6.8761521857231855">
        <ele>563.2</ele>
        <time>2017-08-08T04:43:30.000Z</time>
      </trkpt>
      <trkpt lat="43.21751947514713" lon="-6.876170793548226">
        <ele>563.2</ele>
        <time>2017-08-08T04:43:32.000Z</time>
      </trkpt>
      <trkpt lat="43.217495921999216" lon="-6.87624572776258">
        <ele>563.2</ele>
        <time>2017-08-08T04:43:38.000Z</time>
      </trkpt>
      <trkpt lat="43.217488043010235" lon="-6.876254193484783">
        <ele>563.2</ele>
        <time>2017-08-08T04:43:39.000Z</time>
      </trkpt>
      <trkpt lat="43.21742668747902" lon="-6.876353099942207">
        <ele>563.4</ele>
        <time>2017-08-08T04:43:48.000Z</time>
      </trkpt>
      <trkpt lat="43.21742283180356" lon="-6.876366091892123">
        <ele>563.4</ele>
        <time>2017-08-08T04:43:49.000Z</time>
      </trkpt>
      <trkpt lat="43.21739072911441" lon="-6.876425603404641">
        <ele>563.4</ele>
        <time>2017-08-08T04:43:54.000Z</time>
      </trkpt>
      <trkpt lat="43.21737438440323" lon="-6.876448737457395">
        <ele>563.4</ele>
        <time>2017-08-08T04:43:56.000Z</time>
      </trkpt>
      <trkpt lat="43.21734328754246" lon="-6.876495173200965">
        <ele>563.4</ele>
        <time>2017-08-08T04:44:00.000Z</time>
      </trkpt>
      <trkpt lat="43.21732275187969" lon="-6.87661805190146">
        <ele>564</ele>
        <time>2017-08-08T04:44:09.000Z</time>
      </trkpt>
      <trkpt lat="43.21732794865966" lon="-6.876733805984259">
        <ele>564.6</ele>
        <time>2017-08-08T04:44:17.000Z</time>
      </trkpt>
      <trkpt lat="43.217360051348805" lon="-6.876911502331495">
        <ele>565.8</ele>
        <time>2017-08-08T04:44:29.000Z</time>
      </trkpt>
      <trkpt lat="43.21737530641258" lon="-6.877021556720138">
        <ele>566.6</ele>
        <time>2017-08-08T04:44:37.000Z</time>
      </trkpt>
      <trkpt lat="43.2173724565655" lon="-6.877129599452019">
        <ele>567.2</ele>
        <time>2017-08-08T04:44:46.000Z</time>
      </trkpt>
      <trkpt lat="43.21736943908036" lon="-6.877258261665702">
        <ele>568</ele>
        <time>2017-08-08T04:44:56.000Z</time>
      </trkpt>
      <trkpt lat="43.21736181154847" lon="-6.877368064597249">
        <ele>568.6</ele>
        <time>2017-08-08T04:45:07.000Z</time>
      </trkpt>
      <trkpt lat="43.21734965778887" lon="-6.877376781776547">
        <ele>568.6</ele>
        <time>2017-08-08T04:45:15.000Z</time>
      </trkpt>
      <trkpt lat="43.21734647266567" lon="-6.877295058220625">
        <ele>568</ele>
        <time>2017-08-08T04:45:30.000Z</time>
      </trkpt>
      <trkpt lat="43.217354184016585" lon="-6.87716974876821">
        <ele>567.4</ele>
        <time>2017-08-08T04:45:40.000Z</time>
      </trkpt>
      <trkpt lat="43.2173809222877" lon="-6.877077631652355">
        <ele>567</ele>
        <time>2017-08-08T04:45:48.000Z</time>
      </trkpt>
      <trkpt lat="43.217395674437284" lon="-6.877065561711788">
        <ele>567</ele>
        <time>2017-08-08T04:45:50.000Z</time>
      </trkpt>
      <trkpt lat="43.21741838939488" lon="-6.877067741006613">
        <ele>567</ele>
        <time>2017-08-08T04:45:53.000Z</time>
      </trkpt>
      <trkpt lat="43.21742618456483" lon="-6.8770707584917545">
        <ele>567.2</ele>
        <time>2017-08-08T04:45:54.000Z</time>
      </trkpt>
      <trkpt lat="43.21744973771274" lon="-6.877077966928482">
        <ele>567.2</ele>
        <time>2017-08-08T04:45:57.000Z</time>
      </trkpt>
      <trkpt lat="43.217480666935444" lon="-6.877102442085743">
        <ele>567.6</ele>
        <time>2017-08-08T04:46:01.000Z</time>
      </trkpt>
      <trkpt lat="43.21753665804863" lon="-6.8771508894860744">
        <ele>568.2</ele>
        <time>2017-08-08T04:46:08.000Z</time>
      </trkpt>
      <trkpt lat="43.217546213418245" lon="-6.877153990790248">
        <ele>568.2</ele>
        <time>2017-08-08T04:46:09.000Z</time>
      </trkpt>
      <trkpt lat="43.217628775164485" lon="-6.877188608050346">
        <ele>568.8</ele>
        <time>2017-08-08T04:46:18.000Z</time>
      </trkpt>
      <trkpt lat="43.21769071742892" lon="-6.877206629142165">
        <ele>569</ele>
        <time>2017-08-08T04:46:24.000Z</time>
      </trkpt>
      <trkpt lat="43.21770027279854" lon="-6.877205120399594">
        <ele>569</ele>
        <time>2017-08-08T04:46:26.000Z</time>
      </trkpt>
      <trkpt lat="43.21770932525396" lon="-6.877218699082732">
        <ele>569</ele>
        <time>2017-08-08T04:46:28.000Z</time>
      </trkpt>
      <trkpt lat="43.21775182150304" lon="-6.877256669104099">
        <ele>569.4</ele>
        <time>2017-08-08T04:46:32.000Z</time>
      </trkpt>
      <trkpt lat="43.21785173378885" lon="-6.87734660692513">
        <ele>570</ele>
        <time>2017-08-08T04:46:42.000Z</time>
      </trkpt>
      <trkpt lat="43.217936139553785" lon="-6.877422211691737">
        <ele>570.6</ele>
        <time>2017-08-08T04:46:51.000Z</time>
      </trkpt>
      <trkpt lat="43.217952232807875" lon="-6.877443250268698">
        <ele>570.8</ele>
        <time>2017-08-08T04:46:53.000Z</time>
      </trkpt>
      <trkpt lat="43.21794770658016" lon="-6.87748390249908">
        <ele>571.2</ele>
        <time>2017-08-08T04:46:56.000Z</time>
      </trkpt>
      <trkpt lat="43.21794401854277" lon="-6.877494128420949">
        <ele>571.2</ele>
        <time>2017-08-08T04:46:57.000Z</time>
      </trkpt>
      <trkpt lat="43.21793144568801" lon="-6.877636117860675">
        <ele>572.4</ele>
        <time>2017-08-08T04:47:05.000Z</time>
      </trkpt>
      <trkpt lat="43.217898923903704" lon="-6.877769809216261">
        <ele>573.4</ele>
        <time>2017-08-08T04:47:14.000Z</time>
      </trkpt>
      <trkpt lat="43.217871179804206" lon="-6.877932585775852">
        <ele>574.8</ele>
        <time>2017-08-08T04:47:24.000Z</time>
      </trkpt>
      <trkpt lat="43.21782927028835" lon="-6.878081196919084">
        <ele>576</ele>
        <time>2017-08-08T04:47:34.000Z</time>
      </trkpt>
      <trkpt lat="43.217775374650955" lon="-6.878218911588192">
        <ele>577</ele>
        <time>2017-08-08T04:47:44.000Z</time>
      </trkpt>
      <trkpt lat="43.21772139519453" lon="-6.8783368449658155">
        <ele>578.2</ele>
        <time>2017-08-08T04:47:53.000Z</time>
      </trkpt>
      <trkpt lat="43.217653753235936" lon="-6.878479169681668">
        <ele>579.8</ele>
        <time>2017-08-08T04:48:04.000Z</time>
      </trkpt>
      <trkpt lat="43.21764511987567" lon="-6.878491658717394">
        <ele>579.8</ele>
        <time>2017-08-08T04:48:05.000Z</time>
      </trkpt>
      <trkpt lat="43.21759415790439" lon="-6.878570364788175">
        <ele>580.6</ele>
        <time>2017-08-08T04:48:12.000Z</time>
      </trkpt>
      <trkpt lat="43.217575047165155" lon="-6.878609340637922">
        <ele>581.2</ele>
        <time>2017-08-08T04:48:15.000Z</time>
      </trkpt>
      <trkpt lat="43.21754696778953" lon="-6.878669690340757">
        <ele>581.8</ele>
        <time>2017-08-08T04:48:20.000Z</time>
      </trkpt>
      <trkpt lat="43.21749868802726" lon="-6.878760969266295">
        <ele>582.8</ele>
        <time>2017-08-08T04:48:28.000Z</time>
      </trkpt>
      <trkpt lat="43.21745007298887" lon="-6.87885157763958">
        <ele>583.8</ele>
        <time>2017-08-08T04:48:36.000Z</time>
      </trkpt>
      <trkpt lat="43.217408414930105" lon="-6.878934055566788">
        <ele>584.6</ele>
        <time>2017-08-08T04:48:43.000Z</time>
      </trkpt>
      <trkpt lat="43.21739483624697" lon="-6.878956770524383">
        <ele>584.8</ele>
        <time>2017-08-08T04:48:45.000Z</time>
      </trkpt>
      <trkpt lat="43.21738569997251" lon="-6.878975378349423">
        <ele>585</ele>
        <time>2017-08-08T04:48:47.000Z</time>
      </trkpt>
      <trkpt lat="43.217367846518755" lon="-6.878999015316367">
        <ele>585.4</ele>
        <time>2017-08-08T04:48:49.000Z</time>
      </trkpt>
      <trkpt lat="43.217355692759156" lon="-6.8790295254439116">
        <ele>585.6</ele>
        <time>2017-08-08T04:48:52.000Z</time>
      </trkpt>
      <trkpt lat="43.21734705939889" lon="-6.879042852669954">
        <ele>585.8</ele>
        <time>2017-08-08T04:48:53.000Z</time>
      </trkpt>
      <trkpt lat="43.21733046323061" lon="-6.879075206816196">
        <ele>586.2</ele>
        <time>2017-08-08T04:48:56.000Z</time>
      </trkpt>
      <trkpt lat="43.217325769364834" lon="-6.879087025299668">
        <ele>586.4</ele>
        <time>2017-08-08T04:48:57.000Z</time>
      </trkpt>
      <trkpt lat="43.21728151291609" lon="-6.879167491570115">
        <ele>587.6</ele>
        <time>2017-08-08T04:49:04.000Z</time>
      </trkpt>
      <trkpt lat="43.21724019013345" lon="-6.879270924255252">
        <ele>589</ele>
        <time>2017-08-08T04:49:12.000Z</time>
      </trkpt>
      <trkpt lat="43.2172223366797" lon="-6.879367148503661">
        <ele>590.4</ele>
        <time>2017-08-08T04:49:19.000Z</time>
      </trkpt>
      <trkpt lat="43.21722770109773" lon="-6.8794892728328705">
        <ele>592.2</ele>
        <time>2017-08-08T04:49:28.000Z</time>
      </trkpt>
      <trkpt lat="43.21722644381225" lon="-6.879550628364086">
        <ele>593.2</ele>
        <time>2017-08-08T04:49:35.000Z</time>
      </trkpt>
      <trkpt lat="43.21720775216818" lon="-6.8796538934111595">
        <ele>594.8</ele>
        <time>2017-08-08T04:49:42.000Z</time>
      </trkpt>
      <trkpt lat="43.21716232225299" lon="-6.8797593377530575">
        <ele>596.4</ele>
        <time>2017-08-08T04:49:49.000Z</time>
      </trkpt>
      <trkpt lat="43.21712234057486" lon="-6.879850868135691">
        <ele>597.6</ele>
        <time>2017-08-08T04:49:56.000Z</time>
      </trkpt>
      <trkpt lat="43.217062912881374" lon="-6.879991767928004">
        <ele>600</ele>
        <time>2017-08-08T04:50:06.000Z</time>
      </trkpt>
      <trkpt lat="43.216986218467355" lon="-6.880083717405796">
        <ele>601.4</ele>
        <time>2017-08-08T04:50:15.000Z</time>
      </trkpt>
      <trkpt lat="43.21685940027237" lon="-6.88013132661581">
        <ele>602</ele>
        <time>2017-08-08T04:50:26.000Z</time>
      </trkpt>
      <trkpt lat="43.2167540397495" lon="-6.8801389541476965">
        <ele>602</ele>
        <time>2017-08-08T04:50:35.000Z</time>
      </trkpt>
      <trkpt lat="43.21664256043732" lon="-6.880121687427163">
        <ele>601</ele>
        <time>2017-08-08T04:50:44.000Z</time>
      </trkpt>
      <trkpt lat="43.216538121923804" lon="-6.880088914185762">
        <ele>600.2</ele>
        <time>2017-08-08T04:50:53.000Z</time>
      </trkpt>
      <trkpt lat="43.21642437949777" lon="-6.8800891656428576">
        <ele>599.8</ele>
        <time>2017-08-08T04:51:03.000Z</time>
      </trkpt>
      <trkpt lat="43.216327065601945" lon="-6.8800959549844265">
        <ele>599.4</ele>
        <time>2017-08-08T04:51:12.000Z</time>
      </trkpt>
      <trkpt lat="43.21623385883868" lon="-6.8801171611994505">
        <ele>599.4</ele>
        <time>2017-08-08T04:51:20.000Z</time>
      </trkpt>
      <trkpt lat="43.21613185107708" lon="-6.880164602771401">
        <ele>599.8</ele>
        <time>2017-08-08T04:51:29.000Z</time>
      </trkpt>
      <trkpt lat="43.21604727767408" lon="-6.880223359912634">
        <ele>600.4</ele>
        <time>2017-08-08T04:51:37.000Z</time>
      </trkpt>
      <trkpt lat="43.21597938425839" lon="-6.880257558077574">
        <ele>600.8</ele>
        <time>2017-08-08T04:51:44.000Z</time>
      </trkpt>
      <trkpt lat="43.21590260602534" lon="-6.8803230207413435">
        <ele>601</ele>
        <time>2017-08-08T04:51:52.000Z</time>
      </trkpt>
      <trkpt lat="43.21581275202334" lon="-6.880436092615128">
        <ele>601.4</ele>
        <time>2017-08-08T04:52:02.000Z</time>
      </trkpt>
      <trkpt lat="43.21573689579964" lon="-6.880561150610447">
        <ele>602.2</ele>
        <time>2017-08-08T04:52:12.000Z</time>
      </trkpt>
      <trkpt lat="43.21565743535757" lon="-6.880703894421458">
        <ele>603.4</ele>
        <time>2017-08-08T04:52:23.000Z</time>
      </trkpt>
      <trkpt lat="43.215592140331864" lon="-6.880801124498248">
        <ele>603.4</ele>
        <time>2017-08-08T04:52:31.000Z</time>
      </trkpt>
      <trkpt lat="43.215536400675774" lon="-6.8808923196047544">
        <ele>603.6</ele>
        <time>2017-08-08T04:52:38.000Z</time>
      </trkpt>
      <trkpt lat="43.21551569737494" lon="-6.880989382043481">
        <ele>604.2</ele>
        <time>2017-08-08T04:52:44.000Z</time>
      </trkpt>
      <trkpt lat="43.21546440012753" lon="-6.88114520162344">
        <ele>605</ele>
        <time>2017-08-08T04:52:54.000Z</time>
      </trkpt>
      <trkpt lat="43.21543992497027" lon="-6.88128056935966">
        <ele>606</ele>
        <time>2017-08-08T04:53:03.000Z</time>
      </trkpt>
      <trkpt lat="43.215411929413676" lon="-6.881426917389035">
        <ele>607</ele>
        <time>2017-08-08T04:53:12.000Z</time>
      </trkpt>
      <trkpt lat="43.21538041345775" lon="-6.8815758638083935">
        <ele>608.2</ele>
        <time>2017-08-08T04:53:21.000Z</time>
      </trkpt>
      <trkpt lat="43.215330289676785" lon="-6.881748363375664">
        <ele>609.6</ele>
        <time>2017-08-08T04:53:32.000Z</time>
      </trkpt>
      <trkpt lat="43.21528511121869" lon="-6.881904015317559">
        <ele>610.6</ele>
        <time>2017-08-08T04:53:42.000Z</time>
      </trkpt>
      <trkpt lat="43.215250158682466" lon="-6.882063774392009">
        <ele>612</ele>
        <time>2017-08-08T04:53:52.000Z</time>
      </trkpt>
      <trkpt lat="43.21521285921335" lon="-6.882219007238746">
        <ele>613.4</ele>
        <time>2017-08-08T04:54:02.000Z</time>
      </trkpt>
      <trkpt lat="43.215199783444405" lon="-6.882328055799007">
        <ele>614.4</ele>
        <time>2017-08-08T04:54:09.000Z</time>
      </trkpt>
      <trkpt lat="43.215198777616024" lon="-6.88234088011086">
        <ele>614.6</ele>
        <time>2017-08-08T04:54:10.000Z</time>
      </trkpt>
      <trkpt lat="43.215198777616024" lon="-6.88234088011086">
        <ele>614.6</ele>
        <time>2017-08-08T04:54:10.000Z</time>
      </trkpt>
      <trkpt lat="43.21517170406878" lon="-6.882469039410353">
        <ele>615.8</ele>
        <time>2017-08-08T04:54:19.000Z</time>
      </trkpt>
      <trkpt lat="43.215138763189316" lon="-6.882600635290146">
        <ele>617</ele>
        <time>2017-08-08T04:54:28.000Z</time>
      </trkpt>
      <trkpt lat="43.215123508125544" lon="-6.882735751569271">
        <ele>618.6</ele>
        <time>2017-08-08T04:54:37.000Z</time>
      </trkpt>
      <trkpt lat="43.215121161192656" lon="-6.8827639147639275">
        <ele>618.8</ele>
        <time>2017-08-08T04:54:39.000Z</time>
      </trkpt>
      <trkpt lat="43.21511604823172" lon="-6.882778415456414">
        <ele>619</ele>
        <time>2017-08-08T04:54:42.000Z</time>
      </trkpt>
      <trkpt lat="43.21510716341436" lon="-6.88283926807344">
        <ele>619.6</ele>
        <time>2017-08-08T04:54:48.000Z</time>
      </trkpt>
      <trkpt lat="43.21509836241603" lon="-6.882960721850395">
        <ele>621</ele>
        <time>2017-08-08T04:54:58.000Z</time>
      </trkpt>
      <trkpt lat="43.2150945905596" lon="-6.883050575852394">
        <ele>622.2</ele>
        <time>2017-08-08T04:55:05.000Z</time>
      </trkpt>
      <trkpt lat="43.21508914232254" lon="-6.883140513673425">
        <ele>623.4</ele>
        <time>2017-08-08T04:55:11.000Z</time>
      </trkpt>
      <trkpt lat="43.21508813649416" lon="-6.883197259157896">
        <ele>624</ele>
        <time>2017-08-08T04:55:15.000Z</time>
      </trkpt>
      <trkpt lat="43.21508117951453" lon="-6.883233971893787">
        <ele>624.4</ele>
        <time>2017-08-08T04:55:18.000Z</time>
      </trkpt>
      <trkpt lat="43.21504857391119" lon="-6.883334890007973">
        <ele>625.6</ele>
        <time>2017-08-08T04:55:26.000Z</time>
      </trkpt>
      <trkpt lat="43.21501278318465" lon="-6.883437484502792">
        <ele>626.6</ele>
        <time>2017-08-08T04:55:34.000Z</time>
      </trkpt>
      <trkpt lat="43.21497707627714" lon="-6.883523818105459">
        <ele>627.4</ele>
        <time>2017-08-08T04:55:40.000Z</time>
      </trkpt>
      <trkpt lat="43.21495410986245" lon="-6.883626999333501">
        <ele>628.6</ele>
        <time>2017-08-08T04:55:47.000Z</time>
      </trkpt>
      <trkpt lat="43.21494589559734" lon="-6.883702520281076">
        <ele>629.6</ele>
        <time>2017-08-08T04:55:52.000Z</time>
      </trkpt>
      <trkpt lat="43.214934496209025" lon="-6.883804276585579">
        <ele>631</ele>
        <time>2017-08-08T04:55:59.000Z</time>
      </trkpt>
      <trkpt lat="43.21492292918265" lon="-6.883917348459363">
        <ele>632.6</ele>
        <time>2017-08-08T04:56:07.000Z</time>
      </trkpt>
      <trkpt lat="43.21486081928015" lon="-6.884010136127472">
        <ele>633.2</ele>
        <time>2017-08-08T04:56:15.000Z</time>
      </trkpt>
      <trkpt lat="43.21477934718132" lon="-6.884114490821958">
        <ele>633.4</ele>
        <time>2017-08-08T04:56:25.000Z</time>
      </trkpt>
      <trkpt lat="43.21473291143775" lon="-6.884174672886729">
        <ele>633.6</ele>
        <time>2017-08-08T04:56:31.000Z</time>
      </trkpt>
      <trkpt lat="43.21471178904176" lon="-6.884203674271703">
        <ele>633.6</ele>
        <time>2017-08-08T04:56:34.000Z</time>
      </trkpt>
      <trkpt lat="43.21470273658633" lon="-6.884214151650667">
        <ele>633.6</ele>
        <time>2017-08-08T04:56:35.000Z</time>
      </trkpt>
      <trkpt lat="43.21466878987849" lon="-6.88427927903831">
        <ele>634</ele>
        <time>2017-08-08T04:56:40.000Z</time>
      </trkpt>
      <trkpt lat="43.21466359309852" lon="-6.884288666769862">
        <ele>634.2</ele>
        <time>2017-08-08T04:56:41.000Z</time>
      </trkpt>
      <trkpt lat="43.21465336717665" lon="-6.884318003430963">
        <ele>634.4</ele>
        <time>2017-08-08T04:56:44.000Z</time>
      </trkpt>
      <trkpt lat="43.214637441560626" lon="-6.884347256273031">
        <ele>634.6</ele>
        <time>2017-08-08T04:56:47.000Z</time>
      </trkpt>
      <trkpt lat="43.21463224478066" lon="-6.8843592423945665">
        <ele>634.6</ele>
        <time>2017-08-08T04:56:48.000Z</time>
      </trkpt>
      <trkpt lat="43.21459863334894" lon="-6.884427722543478">
        <ele>635.2</ele>
        <time>2017-08-08T04:56:53.000Z</time>
      </trkpt>
      <trkpt lat="43.21458589285612" lon="-6.884465357288718">
        <ele>635.4</ele>
        <time>2017-08-08T04:56:55.000Z</time>
      </trkpt>
      <trkpt lat="43.214572397992015" lon="-6.884491676464677">
        <ele>635.6</ele>
        <time>2017-08-08T04:56:57.000Z</time>
      </trkpt>
      <trkpt lat="43.21455261670053" lon="-6.884526796638966">
        <ele>635.8</ele>
        <time>2017-08-08T04:57:00.000Z</time>
      </trkpt>
      <trkpt lat="43.21453015320003" lon="-6.884582452476025">
        <ele>636.2</ele>
        <time>2017-08-08T04:57:05.000Z</time>
      </trkpt>
      <trkpt lat="43.21450685150921" lon="-6.884629391133785">
        <ele>636.6</ele>
        <time>2017-08-08T04:57:15.000Z</time>
      </trkpt>
      <trkpt lat="43.21452462114394" lon="-6.884697284549475">
        <ele>638</ele>
        <time>2017-08-08T05:00:03.000Z</time>
      </trkpt>
      <trkpt lat="43.214486902579665" lon="-6.884742043912411">
        <ele>638</ele>
        <time>2017-08-08T05:00:09.000Z</time>
      </trkpt>
      <trkpt lat="43.2144436519593" lon="-6.884796777740121">
        <ele>638.2</ele>
        <time>2017-08-08T05:00:16.000Z</time>
      </trkpt>
      <trkpt lat="43.21440752595663" lon="-6.884846733883023">
        <ele>638.4</ele>
        <time>2017-08-08T05:00:21.000Z</time>
      </trkpt>
      <trkpt lat="43.21440258063376" lon="-6.884855031967163">
        <ele>638.4</ele>
        <time>2017-08-08T05:00:22.000Z</time>
      </trkpt>
      <trkpt lat="43.214350026100874" lon="-6.884934576228261">
        <ele>638.6</ele>
        <time>2017-08-08T05:00:29.000Z</time>
      </trkpt>
      <trkpt lat="43.21434088982642" lon="-6.884946310892701">
        <ele>638.6</ele>
        <time>2017-08-08T05:00:30.000Z</time>
      </trkpt>
      <trkpt lat="43.21430233307183" lon="-6.885006157681346">
        <ele>638.6</ele>
        <time>2017-08-08T05:00:35.000Z</time>
      </trkpt>
      <trkpt lat="43.21424910798669" lon="-6.885099615901709">
        <ele>638.8</ele>
        <time>2017-08-08T05:00:43.000Z</time>
      </trkpt>
      <trkpt lat="43.21419672109187" lon="-6.88519592396915">
        <ele>638.8</ele>
        <time>2017-08-08T05:00:51.000Z</time>
      </trkpt>
      <trkpt lat="43.214156571775675" lon="-6.885280581191182">
        <ele>639.2</ele>
        <time>2017-08-08T05:00:57.000Z</time>
      </trkpt>
      <trkpt lat="43.214148692786694" lon="-6.885288879275322">
        <ele>639</ele>
        <time>2017-08-08T05:00:58.000Z</time>
      </trkpt>
      <trkpt lat="43.21411055512726" lon="-6.885360041633248">
        <ele>639.2</ele>
        <time>2017-08-08T05:01:04.000Z</time>
      </trkpt>
      <trkpt lat="43.214053977280855" lon="-6.885482920333743">
        <ele>639.6</ele>
        <time>2017-08-08T05:01:13.000Z</time>
      </trkpt>
      <trkpt lat="43.21400536224246" lon="-6.885573863983154">
        <ele>639.8</ele>
        <time>2017-08-08T05:01:20.000Z</time>
      </trkpt>
      <trkpt lat="43.213963536545634" lon="-6.885648211464286">
        <ele>639.8</ele>
        <time>2017-08-08T05:01:26.000Z</time>
      </trkpt>
      <trkpt lat="43.213909892365336" lon="-6.885752063244581">
        <ele>640.2</ele>
        <time>2017-08-08T05:01:34.000Z</time>
      </trkpt>
      <trkpt lat="43.21385893039405" lon="-6.885903775691986">
        <ele>642.2</ele>
        <time>2017-08-08T05:01:44.000Z</time>
      </trkpt>
      <trkpt lat="43.21383730508387" lon="-6.885969489812851">
        <ele>643</ele>
        <time>2017-08-08T05:01:49.000Z</time>
      </trkpt>
      <trkpt lat="43.21383001282811" lon="-6.885996479541063">
        <ele>643.4</ele>
        <time>2017-08-08T05:01:51.000Z</time>
      </trkpt>
      <trkpt lat="43.21380067616701" lon="-6.8860638700425625">
        <ele>644</ele>
        <time>2017-08-08T05:01:56.000Z</time>
      </trkpt>
      <trkpt lat="43.21378299035132" lon="-6.886104857549071">
        <ele>644.6</ele>
        <time>2017-08-08T05:01:59.000Z</time>
      </trkpt>
      <trkpt lat="43.21375767700374" lon="-6.886160345748067">
        <ele>645.2</ele>
        <time>2017-08-08T05:02:03.000Z</time>
      </trkpt>
      <trkpt lat="43.213697327300906" lon="-6.886287415400147">
        <ele>646.4</ele>
        <time>2017-08-08T05:02:12.000Z</time>
      </trkpt>
      <trkpt lat="43.21363144554198" lon="-6.886405264958739">
        <ele>647.2</ele>
        <time>2017-08-08T05:02:21.000Z</time>
      </trkpt>
      <trkpt lat="43.21355910971761" lon="-6.886495957151055">
        <ele>647.4</ele>
        <time>2017-08-08T05:02:30.000Z</time>
      </trkpt>
      <trkpt lat="43.21353807114065" lon="-6.886530742049217">
        <ele>647.6</ele>
        <time>2017-08-08T05:02:35.000Z</time>
      </trkpt>
      <trkpt lat="43.21348283439875" lon="-6.886602323502302">
        <ele>648</ele>
        <time>2017-08-08T05:02:42.000Z</time>
      </trkpt>
      <trkpt lat="43.21338971145451" lon="-6.886681700125337">
        <ele>649.2</ele>
        <time>2017-08-08T05:02:52.000Z</time>
      </trkpt>
      <trkpt lat="43.21331502869725" lon="-6.886734338477254">
        <ele>650.6</ele>
        <time>2017-08-08T05:02:59.000Z</time>
      </trkpt>
      <trkpt lat="43.21324218995869" lon="-6.8867818638682365">
        <ele>651.6</ele>
        <time>2017-08-08T05:03:06.000Z</time>
      </trkpt>
      <trkpt lat="43.21316826157272" lon="-6.88683332875371">
        <ele>652.8</ele>
        <time>2017-08-08T05:03:14.000Z</time>
      </trkpt>
      <trkpt lat="43.21309324353933" lon="-6.886882362887263">
        <ele>654</ele>
        <time>2017-08-08T05:03:22.000Z</time>
      </trkpt>
      <trkpt lat="43.2130326423794" lon="-6.886935420334339">
        <ele>655.2</ele>
        <time>2017-08-08T05:03:29.000Z</time>
      </trkpt>
      <trkpt lat="43.212983356788754" lon="-6.887006247416139">
        <ele>656.6</ele>
        <time>2017-08-08T05:03:36.000Z</time>
      </trkpt>
      <trkpt lat="43.21297195740044" lon="-6.887016724795103">
        <ele>656.8</ele>
        <time>2017-08-08T05:03:37.000Z</time>
      </trkpt>
      <trkpt lat="43.21293625049293" lon="-6.88704245723784">
        <ele>657.4</ele>
        <time>2017-08-08T05:03:41.000Z</time>
      </trkpt>
      <trkpt lat="43.212929628789425" lon="-6.887050000950694">
        <ele>657.6</ele>
        <time>2017-08-08T05:03:42.000Z</time>
      </trkpt>
      <trkpt lat="43.21291806176305" lon="-6.887053269892931">
        <ele>657.6</ele>
        <time>2017-08-08T05:03:43.000Z</time>
      </trkpt>
      <trkpt lat="43.21287011727691" lon="-6.8870719615370035">
        <ele>658.2</ele>
        <time>2017-08-08T05:03:48.000Z</time>
      </trkpt>
      <trkpt lat="43.2128151319921" lon="-6.887093419209123">
        <ele>658.6</ele>
        <time>2017-08-08T05:03:53.000Z</time>
      </trkpt>
      <trkpt lat="43.21278093382716" lon="-6.887109177187085">
        <ele>659</ele>
        <time>2017-08-08T05:03:57.000Z</time>
      </trkpt>
      <trkpt lat="43.21277213282883" lon="-6.887113954871893">
        <ele>659.2</ele>
        <time>2017-08-08T05:03:58.000Z</time>
      </trkpt>
      <trkpt lat="43.212762074545026" lon="-6.887117475271225">
        <ele>659.2</ele>
        <time>2017-08-08T05:03:59.000Z</time>
      </trkpt>
      <trkpt lat="43.21271035820246" lon="-6.8871379271149635">
        <ele>659.8</ele>
        <time>2017-08-08T05:04:04.000Z</time>
      </trkpt>
      <trkpt lat="43.21268705651164" lon="-6.887155277654529">
        <ele>660.2</ele>
        <time>2017-08-08T05:04:07.000Z</time>
      </trkpt>
      <trkpt lat="43.21263969875872" lon="-6.887179585173726">
        <ele>660.8</ele>
        <time>2017-08-08T05:04:13.000Z</time>
      </trkpt>
      <trkpt lat="43.2126216776669" lon="-6.887193080037832">
        <ele>661</ele>
        <time>2017-08-08T05:04:15.000Z</time>
      </trkpt>
      <trkpt lat="43.21257323026657" lon="-6.8872342351824045">
        <ele>661.8</ele>
        <time>2017-08-08T05:04:20.000Z</time>
      </trkpt>
      <trkpt lat="43.21253567934036" lon="-6.887259045615792">
        <ele>662.2</ele>
        <time>2017-08-08T05:04:24.000Z</time>
      </trkpt>
      <trkpt lat="43.21252972818911" lon="-6.8872692715376616">
        <ele>662.4</ele>
        <time>2017-08-08T05:04:25.000Z</time>
      </trkpt>
      <trkpt lat="43.212461499497294" lon="-6.887299278751016">
        <ele>663</ele>
        <time>2017-08-08T05:04:31.000Z</time>
      </trkpt>
      <trkpt lat="43.21243844926357" lon="-6.887314449995756">
        <ele>663.2</ele>
        <time>2017-08-08T05:04:33.000Z</time>
      </trkpt>
      <trkpt lat="43.21237072348595" lon="-6.887352839112282">
        <ele>663.8</ele>
        <time>2017-08-08T05:04:39.000Z</time>
      </trkpt>
      <trkpt lat="43.21235219947994" lon="-6.887362478300929">
        <ele>664</ele>
        <time>2017-08-08T05:04:41.000Z</time>
      </trkpt>
      <trkpt lat="43.21230894885957" lon="-6.887392066419125">
        <ele>664.6</ele>
        <time>2017-08-08T05:04:45.000Z</time>
      </trkpt>
      <trkpt lat="43.21227458305657" lon="-6.887410338968039">
        <ele>664.8</ele>
        <time>2017-08-08T05:04:48.000Z</time>
      </trkpt>
      <trkpt lat="43.212203001603484" lon="-6.887454930692911">
        <ele>665.2</ele>
        <time>2017-08-08T05:04:54.000Z</time>
      </trkpt>
      <trkpt lat="43.21213686838746" lon="-6.887487201020122">
        <ele>665.4</ele>
        <time>2017-08-08T05:05:00.000Z</time>
      </trkpt>
      <trkpt lat="43.21206210181117" lon="-6.887533636763692">
        <ele>665.8</ele>
        <time>2017-08-08T05:05:07.000Z</time>
      </trkpt>
      <trkpt lat="43.21197451092303" lon="-6.887580323964357">
        <ele>666.2</ele>
        <time>2017-08-08T05:05:14.000Z</time>
      </trkpt>
      <trkpt lat="43.21189094334841" lon="-6.887621730566025">
        <ele>666.6</ele>
        <time>2017-08-08T05:05:21.000Z</time>
      </trkpt>
      <trkpt lat="43.21187007240951" lon="-6.887635895982385">
        <ele>666.6</ele>
        <time>2017-08-08T05:05:23.000Z</time>
      </trkpt>
      <trkpt lat="43.21184174157679" lon="-6.88765081577003">
        <ele>666.8</ele>
        <time>2017-08-08T05:05:26.000Z</time>
      </trkpt>
      <trkpt lat="43.21178650483489" lon="-6.887692138552666">
        <ele>667.2</ele>
        <time>2017-08-08T05:05:32.000Z</time>
      </trkpt>
      <trkpt lat="43.2117772847414" lon="-6.887701693922281">
        <ele>667.2</ele>
        <time>2017-08-08T05:05:33.000Z</time>
      </trkpt>
      <trkpt lat="43.21172330528498" lon="-6.88774025067687">
        <ele>667</ele>
        <time>2017-08-08T05:05:38.000Z</time>
      </trkpt>
      <trkpt lat="43.211654741317034" lon="-6.887775957584381">
        <ele>666.6</ele>
        <time>2017-08-08T05:05:44.000Z</time>
      </trkpt>
      <trkpt lat="43.211644096300006" lon="-6.887779897078872">
        <ele>666.6</ele>
        <time>2017-08-08T05:05:45.000Z</time>
      </trkpt>
      <trkpt lat="43.211570754647255" lon="-6.887815939262509">
        <ele>666.2</ele>
        <time>2017-08-08T05:05:51.000Z</time>
      </trkpt>
      <trkpt lat="43.21150789037347" lon="-6.887864470481873">
        <ele>666</ele>
        <time>2017-08-08T05:05:56.000Z</time>
      </trkpt>
      <trkpt lat="43.21148760616779" lon="-6.887881904840469">
        <ele>666</ele>
        <time>2017-08-08T05:05:58.000Z</time>
      </trkpt>
      <trkpt lat="43.21141501888633" lon="-6.887963460758328">
        <ele>666.2</ele>
        <time>2017-08-08T05:06:05.000Z</time>
      </trkpt>
      <trkpt lat="43.21133983321488" lon="-6.888050716370344">
        <ele>666.2</ele>
        <time>2017-08-08T05:06:13.000Z</time>
      </trkpt>
      <trkpt lat="43.21128761395812" lon="-6.888105450198054">
        <ele>666.2</ele>
        <time>2017-08-08T05:06:18.000Z</time>
      </trkpt>
      <trkpt lat="43.21127546019852" lon="-6.888134283944964">
        <ele>666.4</ele>
        <time>2017-08-08T05:06:20.000Z</time>
      </trkpt>
      <trkpt lat="43.21124377660453" lon="-6.8881619442254305">
        <ele>666.4</ele>
        <time>2017-08-08T05:06:24.000Z</time>
      </trkpt>
      <trkpt lat="43.211222318932414" lon="-6.888164794072509">
        <ele>666.2</ele>
        <time>2017-08-08T05:06:26.000Z</time>
      </trkpt>
      <trkpt lat="43.211185690015554" lon="-6.8881595972925425">
        <ele>665.8</ele>
        <time>2017-08-08T05:06:30.000Z</time>
      </trkpt>
      <trkpt lat="43.21115165948868" lon="-6.888170661404729">
        <ele>665.6</ele>
        <time>2017-08-08T05:06:34.000Z</time>
      </trkpt>
      <trkpt lat="43.211125088855624" lon="-6.888191448524594">
        <ele>665.4</ele>
        <time>2017-08-08T05:06:38.000Z</time>
      </trkpt>
      <trkpt lat="43.211119724437594" lon="-6.888202847912908">
        <ele>665.6</ele>
        <time>2017-08-08T05:06:40.000Z</time>
      </trkpt>
      <trkpt lat="43.21111754514277" lon="-6.88824157230556">
        <ele>665.8</ele>
        <time>2017-08-08T05:06:46.000Z</time>
      </trkpt>
      <trkpt lat="43.211121736094356" lon="-6.888329749926925">
        <ele>665.8</ele>
        <time>2017-08-08T05:06:53.000Z</time>
      </trkpt>
      <trkpt lat="43.211108492687345" lon="-6.888456232845783">
        <ele>665.6</ele>
        <time>2017-08-08T05:07:01.000Z</time>
      </trkpt>
      <trkpt lat="43.21107756346464" lon="-6.888611633330584">
        <ele>665.4</ele>
        <time>2017-08-08T05:07:11.000Z</time>
      </trkpt>
      <trkpt lat="43.211062559857965" lon="-6.888789497315884">
        <ele>665.2</ele>
        <time>2017-08-08T05:07:22.000Z</time>
      </trkpt>
      <trkpt lat="43.21106138639152" lon="-6.888965098187327">
        <ele>665.2</ele>
        <time>2017-08-08T05:07:33.000Z</time>
      </trkpt>
      <trkpt lat="43.21108971722424" lon="-6.889142626896501">
        <ele>666.4</ele>
        <time>2017-08-08T05:07:44.000Z</time>
      </trkpt>
      <trkpt lat="43.21111712604761" lon="-6.889310097321868">
        <ele>667.4</ele>
        <time>2017-08-08T05:07:54.000Z</time>
      </trkpt>
      <trkpt lat="43.2111607119441" lon="-6.889456110075116">
        <ele>668.6</ele>
        <time>2017-08-08T05:08:03.000Z</time>
      </trkpt>
      <trkpt lat="43.21122114546597" lon="-6.889563649892807">
        <ele>670</ele>
        <time>2017-08-08T05:08:11.000Z</time>
      </trkpt>
      <trkpt lat="43.211230700835586" lon="-6.8895691819489">
        <ele>670.2</ele>
        <time>2017-08-08T05:08:12.000Z</time>
      </trkpt>
      <trkpt lat="43.21123673580587" lon="-6.88958041369915">
        <ele>670.2</ele>
        <time>2017-08-08T05:08:13.000Z</time>
      </trkpt>
      <trkpt lat="43.211284931749105" lon="-6.889655347913504">
        <ele>670.6</ele>
        <time>2017-08-08T05:08:19.000Z</time>
      </trkpt>
      <trkpt lat="43.21138593368232" lon="-6.889785183593631">
        <ele>671</ele>
        <time>2017-08-08T05:08:30.000Z</time>
      </trkpt>
      <trkpt lat="43.21149967610836" lon="-6.88990680500865">
        <ele>671.6</ele>
        <time>2017-08-08T05:08:41.000Z</time>
      </trkpt>
      <trkpt lat="43.2116253208369" lon="-6.890032198280096">
        <ele>672</ele>
        <time>2017-08-08T05:08:53.000Z</time>
      </trkpt>
      <trkpt lat="43.21169447153807" lon="-6.890078717842698">
        <ele>672</ele>
        <time>2017-08-08T05:08:59.000Z</time>
      </trkpt>
      <trkpt lat="43.21173621341586" lon="-6.890076622366905">
        <ele>672.2</ele>
        <time>2017-08-08T05:09:02.000Z</time>
      </trkpt>
      <trkpt lat="43.21182665415108" lon="-6.890068491920829">
        <ele>672.6</ele>
        <time>2017-08-08T05:09:10.000Z</time>
      </trkpt>
      <trkpt lat="43.211926985532045" lon="-6.890092883259058">
        <ele>672.8</ele>
        <time>2017-08-08T05:09:18.000Z</time>
      </trkpt>
      <trkpt lat="43.212059838697314" lon="-6.890123728662729">
        <ele>672.8</ele>
        <time>2017-08-08T05:09:29.000Z</time>
      </trkpt>
      <trkpt lat="43.21215773932636" lon="-6.890136217698455">
        <ele>672.8</ele>
        <time>2017-08-08T05:09:36.000Z</time>
      </trkpt>
      <trkpt lat="43.21220132522285" lon="-6.890133703127503">
        <ele>673</ele>
        <time>2017-08-08T05:09:40.000Z</time>
      </trkpt>
      <trkpt lat="43.212244575843215" lon="-6.890143174678087">
        <ele>673</ele>
        <time>2017-08-08T05:09:43.000Z</time>
      </trkpt>
      <trkpt lat="43.212313894182444" lon="-6.890178713947535">
        <ele>673</ele>
        <time>2017-08-08T05:09:49.000Z</time>
      </trkpt>
      <trkpt lat="43.21239821612835" lon="-6.89025423489511">
        <ele>673.2</ele>
        <time>2017-08-08T05:09:58.000Z</time>
      </trkpt>
      <trkpt lat="43.21244792081416" lon="-6.890324475243688">
        <ele>673.2</ele>
        <time>2017-08-08T05:10:05.000Z</time>
      </trkpt>
      <trkpt lat="43.212463511154056" lon="-6.890376778319478">
        <ele>673.2</ele>
        <time>2017-08-08T05:10:11.000Z</time>
      </trkpt>
      <trkpt lat="43.21247901767492" lon="-6.890421956777573">
        <ele>673.2</ele>
        <time>2017-08-08T05:10:16.000Z</time>
      </trkpt>
      <trkpt lat="43.212484465911984" lon="-6.890447353944182">
        <ele>673</ele>
        <time>2017-08-08T05:10:18.000Z</time>
      </trkpt>
      <trkpt lat="43.21248966269195" lon="-6.890495298430324">
        <ele>673</ele>
        <time>2017-08-08T05:10:23.000Z</time>
      </trkpt>
      <trkpt lat="43.21251078508794" lon="-6.890565538778901">
        <ele>672.8</ele>
        <time>2017-08-08T05:10:39.000Z</time>
      </trkpt>
      <trkpt lat="43.21249150671065" lon="-6.89066712744534">
        <ele>672.4</ele>
        <time>2017-08-08T05:10:48.000Z</time>
      </trkpt>
      <trkpt lat="43.212448339909315" lon="-6.89080492593348">
        <ele>672</ele>
        <time>2017-08-08T05:10:57.000Z</time>
      </trkpt>
      <trkpt lat="43.21241087280214" lon="-6.890886314213276">
        <ele>671.8</ele>
        <time>2017-08-08T05:11:05.000Z</time>
      </trkpt>
      <trkpt lat="43.212360329926014" lon="-6.891026124358177">
        <ele>672</ele>
        <time>2017-08-08T05:11:15.000Z</time>
      </trkpt>
      <trkpt lat="43.21229604072869" lon="-6.891156630590558">
        <ele>672</ele>
        <time>2017-08-08T05:11:24.000Z</time>
      </trkpt>
      <trkpt lat="43.212221106514335" lon="-6.8912795931100845">
        <ele>671.8</ele>
        <time>2017-08-08T05:11:33.000Z</time>
      </trkpt>
      <trkpt lat="43.21217282675207" lon="-6.891366681084037">
        <ele>671.8</ele>
        <time>2017-08-08T05:11:40.000Z</time>
      </trkpt>
      <trkpt lat="43.21209831163287" lon="-6.891423929482698">
        <ele>671.4</ele>
        <time>2017-08-08T05:11:47.000Z</time>
      </trkpt>
      <trkpt lat="43.211999740451574" lon="-6.891498863697052">
        <ele>670.8</ele>
        <time>2017-08-08T05:11:56.000Z</time>
      </trkpt>
      <trkpt lat="43.2119707390666" lon="-6.891528200358152">
        <ele>670.6</ele>
        <time>2017-08-08T05:11:59.000Z</time>
      </trkpt>
      <trkpt lat="43.21196302771568" lon="-6.89158184453845">
        <ele>670.8</ele>
        <time>2017-08-08T05:12:02.000Z</time>
      </trkpt>
      <trkpt lat="43.21196235716343" lon="-6.891601709648967">
        <ele>671</ele>
        <time>2017-08-08T05:12:03.000Z</time>
      </trkpt>
      <trkpt lat="43.21194978430867" lon="-6.891707573086023">
        <ele>671.8</ele>
        <time>2017-08-08T05:12:10.000Z</time>
      </trkpt>
      <trkpt lat="43.21194467134774" lon="-6.891723666340113">
        <ele>671.8</ele>
        <time>2017-08-08T05:12:11.000Z</time>
      </trkpt>
      <trkpt lat="43.21191097609699" lon="-6.891761468723416">
        <ele>671.8</ele>
        <time>2017-08-08T05:12:15.000Z</time>
      </trkpt>
      <trkpt lat="43.211904941126704" lon="-6.891767922788858">
        <ele>671.8</ele>
        <time>2017-08-08T05:12:16.000Z</time>
      </trkpt>
      <trkpt lat="43.211891278624535" lon="-6.891776891425252">
        <ele>671.8</ele>
        <time>2017-08-08T05:12:18.000Z</time>
      </trkpt>
      <trkpt lat="43.21185196749866" lon="-6.89176557585597">
        <ele>671.4</ele>
        <time>2017-08-08T05:12:22.000Z</time>
      </trkpt>
      <trkpt lat="43.21184174157679" lon="-6.891763731837273">
        <ele>671.2</ele>
        <time>2017-08-08T05:12:23.000Z</time>
      </trkpt>
      <trkpt lat="43.21182866580784" lon="-6.891770772635937">
        <ele>671.2</ele>
        <time>2017-08-08T05:12:29.000Z</time>
      </trkpt>
      <trkpt lat="43.211820451542735" lon="-6.891822405159473">
        <ele>671.4</ele>
        <time>2017-08-08T05:12:33.000Z</time>
      </trkpt>
      <trkpt lat="43.2117722555995" lon="-6.891973530873656">
        <ele>672.4</ele>
        <time>2017-08-08T05:12:43.000Z</time>
      </trkpt>
      <trkpt lat="43.21169966831803" lon="-6.89207386225462">
        <ele>672.6</ele>
        <time>2017-08-08T05:12:52.000Z</time>
      </trkpt>
      <trkpt lat="43.21161978878081" lon="-6.892179055139422">
        <ele>672.8</ele>
        <time>2017-08-08T05:13:00.000Z</time>
      </trkpt>
      <trkpt lat="43.21157041937113" lon="-6.892254073172808">
        <ele>673</ele>
        <time>2017-08-08T05:13:06.000Z</time>
      </trkpt>
      <trkpt lat="43.211529264226556" lon="-6.892346274107695">
        <ele>673.4</ele>
        <time>2017-08-08T05:13:13.000Z</time>
      </trkpt>
      <trkpt lat="43.211491629481316" lon="-6.892446018755436">
        <ele>673.8</ele>
        <time>2017-08-08T05:13:20.000Z</time>
      </trkpt>
      <trkpt lat="43.21147922426462" lon="-6.892476361244917">
        <ele>673.8</ele>
        <time>2017-08-08T05:13:22.000Z</time>
      </trkpt>
      <trkpt lat="43.21143748238683" lon="-6.892577446997166">
        <ele>674.2</ele>
        <time>2017-08-08T05:13:29.000Z</time>
      </trkpt>
      <trkpt lat="43.21139272302389" lon="-6.892709881067276">
        <ele>674.6</ele>
        <time>2017-08-08T05:13:38.000Z</time>
      </trkpt>
      <trkpt lat="43.211362631991506" lon="-6.89280585385859">
        <ele>674.8</ele>
        <time>2017-08-08T05:13:45.000Z</time>
      </trkpt>
      <trkpt lat="43.211329355835915" lon="-6.892930828034878">
        <ele>675.4</ele>
        <time>2017-08-08T05:13:53.000Z</time>
      </trkpt>
      <trkpt lat="43.21130035445094" lon="-6.893072398379445">
        <ele>676.2</ele>
        <time>2017-08-08T05:14:02.000Z</time>
      </trkpt>
      <trkpt lat="43.211277555674314" lon="-6.893153870478272">
        <ele>676.6</ele>
        <time>2017-08-08T05:14:07.000Z</time>
      </trkpt>
      <trkpt lat="43.21125333197415" lon="-6.893317569047213">
        <ele>677.4</ele>
        <time>2017-08-08T05:14:17.000Z</time>
      </trkpt>
      <trkpt lat="43.21125542744994" lon="-6.893309773877263">
        <ele>677.2</ele>
        <time>2017-08-08T05:14:21.000Z</time>
      </trkpt>
      <trkpt lat="43.21124310605228" lon="-6.893367022275925">
        <ele>677.4</ele>
        <time>2017-08-08T05:14:29.000Z</time>
      </trkpt>
      <trkpt lat="43.21123908273876" lon="-6.893466431647539">
        <ele>677.8</ele>
        <time>2017-08-08T05:14:35.000Z</time>
      </trkpt>
      <trkpt lat="43.211241932585835" lon="-6.893608001992106">
        <ele>678.6</ele>
        <time>2017-08-08T05:14:43.000Z</time>
      </trkpt>
      <trkpt lat="43.21124117821455" lon="-6.893712105229497">
        <ele>679</ele>
        <time>2017-08-08T05:14:49.000Z</time>
      </trkpt>
      <trkpt lat="43.211252661421895" lon="-6.893853340297937">
        <ele>680</ele>
        <time>2017-08-08T05:14:58.000Z</time>
      </trkpt>
      <trkpt lat="43.21126179769635" lon="-6.893948474898934">
        <ele>680.6</ele>
        <time>2017-08-08T05:15:04.000Z</time>
      </trkpt>
      <trkpt lat="43.211250733584166" lon="-6.894102031365037">
        <ele>681.4</ele>
        <time>2017-08-08T05:15:13.000Z</time>
      </trkpt>
      <trkpt lat="43.211247297003865" lon="-6.8942388240247965">
        <ele>681.8</ele>
        <time>2017-08-08T05:15:21.000Z</time>
      </trkpt>
      <trkpt lat="43.21123321540654" lon="-6.894391709938645">
        <ele>682.2</ele>
        <time>2017-08-08T05:15:30.000Z</time>
      </trkpt>
      <trkpt lat="43.21122416295111" lon="-6.894494472071528">
        <ele>682.4</ele>
        <time>2017-08-08T05:15:36.000Z</time>
      </trkpt>
      <trkpt lat="43.21121569722891" lon="-6.894628833979368">
        <ele>682.8</ele>
        <time>2017-08-08T05:15:44.000Z</time>
      </trkpt>
      <trkpt lat="43.211190635338426" lon="-6.894807536154985">
        <ele>683.6</ele>
        <time>2017-08-08T05:15:55.000Z</time>
      </trkpt>
      <trkpt lat="43.21115425787866" lon="-6.894956734031439">
        <ele>683.8</ele>
        <time>2017-08-08T05:16:04.000Z</time>
      </trkpt>
      <trkpt lat="43.21111159399152" lon="-6.895100986585021">
        <ele>683.4</ele>
        <time>2017-08-08T05:16:13.000Z</time>
      </trkpt>
      <trkpt lat="43.21109659038484" lon="-6.89515077508986">
        <ele>683.2</ele>
        <time>2017-08-08T05:16:17.000Z</time>
      </trkpt>
      <trkpt lat="43.21108317933977" lon="-6.8951924331486225">
        <ele>683</ele>
        <time>2017-08-08T05:16:20.000Z</time>
      </trkpt>
      <trkpt lat="43.211030289530754" lon="-6.895323693752289">
        <ele>682.6</ele>
        <time>2017-08-08T05:16:29.000Z</time>
      </trkpt>
      <trkpt lat="43.21098527871072" lon="-6.895447913557291">
        <ele>682</ele>
        <time>2017-08-08T05:16:38.000Z</time>
      </trkpt>
      <trkpt lat="43.21092803031206" lon="-6.895597614347935">
        <ele>681.6</ele>
        <time>2017-08-08T05:16:48.000Z</time>
      </trkpt>
      <trkpt lat="43.21086642332375" lon="-6.895750667899847">
        <ele>681.6</ele>
        <time>2017-08-08T05:16:58.000Z</time>
      </trkpt>
      <trkpt lat="43.210817221552134" lon="-6.895877402275801">
        <ele>681.4</ele>
        <time>2017-08-08T05:17:06.000Z</time>
      </trkpt>
      <trkpt lat="43.210768857970834" lon="-6.896007740870118">
        <ele>681.2</ele>
        <time>2017-08-08T05:17:15.000Z</time>
      </trkpt>
      <trkpt lat="43.210744969546795" lon="-6.896160123869777">
        <ele>680.8</ele>
        <time>2017-08-08T05:17:24.000Z</time>
      </trkpt>
      <trkpt lat="43.210766427218914" lon="-6.896306471899152">
        <ele>680.4</ele>
        <time>2017-08-08T05:17:33.000Z</time>
      </trkpt>
      <trkpt lat="43.21080825291574" lon="-6.89646715298295">
        <ele>680</ele>
        <time>2017-08-08T05:17:43.000Z</time>
      </trkpt>
      <trkpt lat="43.210844127461314" lon="-6.896596988663077">
        <ele>679.6</ele>
        <time>2017-08-08T05:17:51.000Z</time>
      </trkpt>
      <trkpt lat="43.21090690791607" lon="-6.8967462703585625">
        <ele>678.4</ele>
        <time>2017-08-08T05:18:01.000Z</time>
      </trkpt>
      <trkpt lat="43.21094621904194" lon="-6.8968605156987906">
        <ele>677.6</ele>
        <time>2017-08-08T05:18:09.000Z</time>
      </trkpt>
      <trkpt lat="43.21095426566899" lon="-6.896881386637688">
        <ele>677.4</ele>
        <time>2017-08-08T05:18:12.000Z</time>
      </trkpt>
      <trkpt lat="43.210957534611225" lon="-6.896896390244365">
        <ele>677.2</ele>
        <time>2017-08-08T05:18:13.000Z</time>
      </trkpt>
      <trkpt lat="43.21097421459854" lon="-6.8969406466931105">
        <ele>677</ele>
        <time>2017-08-08T05:18:16.000Z</time>
      </trkpt>
      <trkpt lat="43.21102023124695" lon="-6.89704516902566">
        <ele>676.6</ele>
        <time>2017-08-08T05:18:23.000Z</time>
      </trkpt>
      <trkpt lat="43.211080161854625" lon="-6.897157905623317">
        <ele>676.2</ele>
        <time>2017-08-08T05:18:31.000Z</time>
      </trkpt>
      <trkpt lat="43.2110848557204" lon="-6.897164275869727">
        <ele>676.2</ele>
        <time>2017-08-08T05:18:32.000Z</time>
      </trkpt>
      <trkpt lat="43.21109306998551" lon="-6.897193444892764">
        <ele>676</ele>
        <time>2017-08-08T05:18:36.000Z</time>
      </trkpt>
      <trkpt lat="43.21111218072474" lon="-6.897234516218305">
        <ele>676</ele>
        <time>2017-08-08T05:18:41.000Z</time>
      </trkpt>
      <trkpt lat="43.21113657206297" lon="-6.897306181490421">
        <ele>675.2</ele>
        <time>2017-08-08T05:18:47.000Z</time>
      </trkpt>
      <trkpt lat="43.211200358346105" lon="-6.897453116253018">
        <ele>673.6</ele>
        <time>2017-08-08T05:18:57.000Z</time>
      </trkpt>
      <trkpt lat="43.21124947629869" lon="-6.897548167034984">
        <ele>672.6</ele>
        <time>2017-08-08T05:19:04.000Z</time>
      </trkpt>
      <trkpt lat="43.21132457815111" lon="-6.897650761529803">
        <ele>671.8</ele>
        <time>2017-08-08T05:19:13.000Z</time>
      </trkpt>
      <trkpt lat="43.21138274855912" lon="-6.897727455943823">
        <ele>671.2</ele>
        <time>2017-08-08T05:19:20.000Z</time>
      </trkpt>
      <trkpt lat="43.21141275577247" lon="-6.897841701284051">
        <ele>670</ele>
        <time>2017-08-08T05:19:27.000Z</time>
      </trkpt>
      <trkpt lat="43.21143798530102" lon="-6.897958042100072">
        <ele>668.8</ele>
        <time>2017-08-08T05:19:34.000Z</time>
      </trkpt>
      <trkpt lat="43.21144896559417" lon="-6.897989138960838">
        <ele>668.6</ele>
        <time>2017-08-08T05:19:36.000Z</time>
      </trkpt>
      <trkpt lat="43.21147855371237" lon="-6.898046722635627">
        <ele>668.2</ele>
        <time>2017-08-08T05:19:40.000Z</time>
      </trkpt>
      <trkpt lat="43.21148592978716" lon="-6.898059714585543">
        <ele>668</ele>
        <time>2017-08-08T05:19:41.000Z</time>
      </trkpt>
      <trkpt lat="43.21153186261654" lon="-6.898147808387876">
        <ele>667.4</ele>
        <time>2017-08-08T05:19:48.000Z</time>
      </trkpt>
      <trkpt lat="43.2115803938359" lon="-6.898237159475684">
        <ele>666.8</ele>
        <time>2017-08-08T05:19:55.000Z</time>
      </trkpt>
      <trkpt lat="43.211593218147755" lon="-6.898267501965165">
        <ele>666.6</ele>
        <time>2017-08-08T05:19:57.000Z</time>
      </trkpt>
      <trkpt lat="43.211647449061275" lon="-6.898411922156811">
        <ele>665.4</ele>
        <time>2017-08-08T05:20:06.000Z</time>
      </trkpt>
      <trkpt lat="43.211703607812524" lon="-6.8985130079090595">
        <ele>664.4</ele>
        <time>2017-08-08T05:20:14.000Z</time>
      </trkpt>
      <trkpt lat="43.21177812293172" lon="-6.898630019277334">
        <ele>663.2</ele>
        <time>2017-08-08T05:20:24.000Z</time>
      </trkpt>
      <trkpt lat="43.2118362095207" lon="-6.8987424205988646">
        <ele>661.8</ele>
        <time>2017-08-08T05:20:33.000Z</time>
      </trkpt>
      <trkpt lat="43.21189999580383" lon="-6.898845434188843">
        <ele>660.4</ele>
        <time>2017-08-08T05:20:42.000Z</time>
      </trkpt>
      <trkpt lat="43.21196252480149" lon="-6.8989400658756495">
        <ele>659</ele>
        <time>2017-08-08T05:20:50.000Z</time>
      </trkpt>
      <trkpt lat="43.21202748455107" lon="-6.899032350629568">
        <ele>657.8</ele>
        <time>2017-08-08T05:20:58.000Z</time>
      </trkpt>
      <trkpt lat="43.212089175358415" lon="-6.899128658697009">
        <ele>656.6</ele>
        <time>2017-08-08T05:21:06.000Z</time>
      </trkpt>
      <trkpt lat="43.21214022114873" lon="-6.899211974814534">
        <ele>655.4</ele>
        <time>2017-08-08T05:21:13.000Z</time>
      </trkpt>
      <trkpt lat="43.212200067937374" lon="-6.899313647300005">
        <ele>654</ele>
        <time>2017-08-08T05:21:21.000Z</time>
      </trkpt>
      <trkpt lat="43.2122712302953" lon="-6.899449182674289">
        <ele>652.4</ele>
        <time>2017-08-08T05:21:32.000Z</time>
      </trkpt>
      <trkpt lat="43.21231381036341" lon="-6.899540042504668">
        <ele>651.4</ele>
        <time>2017-08-08T05:21:39.000Z</time>
      </trkpt>
      <trkpt lat="43.21233945898712" lon="-6.8996586464345455">
        <ele>650.4</ele>
        <time>2017-08-08T05:21:47.000Z</time>
      </trkpt>
      <trkpt lat="43.21238606236875" lon="-6.899810107424855">
        <ele>648.8</ele>
        <time>2017-08-08T05:21:57.000Z</time>
      </trkpt>
      <trkpt lat="43.21242369711399" lon="-6.8999257776886225">
        <ele>647.8</ele>
        <time>2017-08-08T05:22:05.000Z</time>
      </trkpt>
      <trkpt lat="43.21244808845222" lon="-6.90001948736608">
        <ele>646.8</ele>
        <time>2017-08-08T05:22:11.000Z</time>
      </trkpt>
      <trkpt lat="43.21246795356274" lon="-6.9001625664532185">
        <ele>646</ele>
        <time>2017-08-08T05:22:20.000Z</time>
      </trkpt>
      <trkpt lat="43.21247482672334" lon="-6.900307070463896">
        <ele>645.4</ele>
        <time>2017-08-08T05:22:29.000Z</time>
      </trkpt>
      <trkpt lat="43.21252855472267" lon="-6.900438079610467">
        <ele>645.4</ele>
        <time>2017-08-08T05:22:38.000Z</time>
      </trkpt>
      <trkpt lat="43.21255277842283" lon="-6.900597419589758">
        <ele>645</ele>
        <time>2017-08-08T05:22:48.000Z</time>
      </trkpt>
      <trkpt lat="43.212526794523" lon="-6.900753742083907">
        <ele>644.2</ele>
        <time>2017-08-08T05:22:58.000Z</time>
      </trkpt>
      <trkpt lat="43.212478179484606" lon="-6.900888690724969">
        <ele>643.4</ele>
        <time>2017-08-08T05:23:07.000Z</time>
      </trkpt>
      <trkpt lat="43.212423864752054" lon="-6.901024980470538">
        <ele>642.8</ele>
        <time>2017-08-08T05:23:16.000Z</time>
      </trkpt>
      <trkpt lat="43.21237047202885" lon="-6.901161605492234">
        <ele>642.2</ele>
        <time>2017-08-08T05:23:25.000Z</time>
      </trkpt>
      <trkpt lat="43.212357899174094" lon="-6.901191947981715">
        <ele>642.2</ele>
        <time>2017-08-08T05:23:27.000Z</time>
      </trkpt>
      <trkpt lat="43.21231825277209" lon="-6.901280293241143">
        <ele>641.6</ele>
        <time>2017-08-08T05:23:33.000Z</time>
      </trkpt>
      <trkpt lat="43.21227081120014" lon="-6.901403339579701">
        <ele>641.2</ele>
        <time>2017-08-08T05:23:41.000Z</time>
      </trkpt>
      <trkpt lat="43.21220191195607" lon="-6.901566199958324">
        <ele>640.4</ele>
        <time>2017-08-08T05:23:52.000Z</time>
      </trkpt>
      <trkpt lat="43.2121626008302" lon="-6.901712128892541">
        <ele>640.4</ele>
        <time>2017-08-08T05:24:01.000Z</time>
      </trkpt>
      <trkpt lat="43.21215623058379" lon="-6.9018341694027185">
        <ele>640.6</ele>
        <time>2017-08-08T05:24:09.000Z</time>
      </trkpt>
      <trkpt lat="43.21216561831534" lon="-6.90183668397367">
        <ele>640.6</ele>
        <time>2017-08-08T05:24:16.000Z</time>
      </trkpt>
      <trkpt lat="43.212155140936375" lon="-6.901854956522584">
        <ele>640.6</ele>
        <time>2017-08-08T05:24:31.000Z</time>
      </trkpt>
      <trkpt lat="43.212161008268595" lon="-6.901854705065489">
        <ele>640.6</ele>
        <time>2017-08-08T05:24:41.000Z</time>
      </trkpt>
      <trkpt lat="43.21216704323888" lon="-6.901854118332267">
        <ele>640.8</ele>
        <time>2017-08-08T05:24:52.000Z</time>
      </trkpt>
      <trkpt lat="43.21216955780983" lon="-6.901844898238778">
        <ele>640.8</ele>
        <time>2017-08-08T05:25:49.000Z</time>
      </trkpt>
      <trkpt lat="43.212139047682285" lon="-6.901883454993367">
        <ele>640.4</ele>
        <time>2017-08-08T05:25:55.000Z</time>
      </trkpt>
      <trkpt lat="43.21214307099581" lon="-6.90189627930522">
        <ele>640.6</ele>
        <time>2017-08-08T05:25:56.000Z</time>
      </trkpt>
      <trkpt lat="43.21215924806893" lon="-6.901906169950962">
        <ele>640.8</ele>
        <time>2017-08-08T05:25:59.000Z</time>
      </trkpt>
      <trkpt lat="43.212171737104654" lon="-6.901954701170325">
        <ele>641</ele>
        <time>2017-08-08T05:26:04.000Z</time>
      </trkpt>
      <trkpt lat="43.21218724362552" lon="-6.901990659534931">
        <ele>641.4</ele>
        <time>2017-08-08T05:26:09.000Z</time>
      </trkpt>
      <trkpt lat="43.21218959055841" lon="-6.901970375329256">
        <ele>641.4</ele>
        <time>2017-08-08T05:26:11.000Z</time>
      </trkpt>
      <trkpt lat="43.21220819838345" lon="-6.901916479691863">
        <ele>641.4</ele>
        <time>2017-08-08T05:26:14.000Z</time>
      </trkpt>
      <trkpt lat="43.21221205405891" lon="-6.901960484683514">
        <ele>641.6</ele>
        <time>2017-08-08T05:26:16.000Z</time>
      </trkpt>
      <trkpt lat="43.21220124140382" lon="-6.901993844658136">
        <ele>641.6</ele>
        <time>2017-08-08T05:26:17.000Z</time>
      </trkpt>
      <trkpt lat="43.212206941097975" lon="-6.902061402797699">
        <ele>641.6</ele>
        <time>2017-08-08T05:26:21.000Z</time>
      </trkpt>
      <trkpt lat="43.212220184504986" lon="-6.9019796792417765">
        <ele>641.8</ele>
        <time>2017-08-08T05:26:35.000Z</time>
      </trkpt>
      <trkpt lat="43.21223468519747" lon="-6.901964256539941">
        <ele>641.8</ele>
        <time>2017-08-08T05:26:37.000Z</time>
      </trkpt>
      <trkpt lat="43.212233427912" lon="-6.901960903778672">
        <ele>641.8</ele>
        <time>2017-08-08T05:26:40.000Z</time>
      </trkpt>
      <trkpt lat="43.21223108097911" lon="-6.901920670643449">
        <ele>641.8</ele>
        <time>2017-08-08T05:26:56.000Z</time>
      </trkpt>
      <trkpt lat="43.21220459416509" lon="-6.901930561289191">
        <ele>641.4</ele>
        <time>2017-08-08T05:26:59.000Z</time>
      </trkpt>
      <trkpt lat="43.21220073848963" lon="-6.9019322376698256">
        <ele>641.4</ele>
        <time>2017-08-08T05:27:00.000Z</time>
      </trkpt>
      <trkpt lat="43.21220509707928" lon="-6.901942379772663">
        <ele>641.4</ele>
        <time>2017-08-08T05:27:03.000Z</time>
      </trkpt>
      <trkpt lat="43.21219998411834" lon="-6.902002226561308">
        <ele>641.4</ele>
        <time>2017-08-08T05:27:08.000Z</time>
      </trkpt>
      <trkpt lat="43.21219612844288" lon="-6.901970878243446">
        <ele>641.4</ele>
        <time>2017-08-08T05:27:11.000Z</time>
      </trkpt>
      <trkpt lat="43.21219788864255" lon="-6.901923269033432">
        <ele>641.2</ele>
        <time>2017-08-08T05:27:14.000Z</time>
      </trkpt>
      <trkpt lat="43.21219612844288" lon="-6.901905834674835">
        <ele>641.2</ele>
        <time>2017-08-08T05:27:16.000Z</time>
      </trkpt>
      <trkpt lat="43.21219285950065" lon="-6.901895022019744">
        <ele>641.2</ele>
        <time>2017-08-08T05:27:18.000Z</time>
      </trkpt>
      <trkpt lat="43.21217601187527" lon="-6.901864092797041">
        <ele>640.8</ele>
        <time>2017-08-08T05:27:25.000Z</time>
      </trkpt>
      <trkpt lat="43.21218313649297" lon="-6.901834504678845">
        <ele>640.8</ele>
        <time>2017-08-08T05:27:30.000Z</time>
      </trkpt>
      <trkpt lat="43.21216695941985" lon="-6.901841294020414">
        <ele>640.6</ele>
        <time>2017-08-08T05:27:42.000Z</time>
      </trkpt>
      <trkpt lat="43.21217341348529" lon="-6.901858057826757">
        <ele>640.8</ele>
        <time>2017-08-08T05:27:49.000Z</time>
      </trkpt>
      <trkpt lat="43.2121760956943" lon="-6.901874151080847">
        <ele>640.8</ele>
        <time>2017-08-08T05:27:52.000Z</time>
      </trkpt>
      <trkpt lat="43.21219973266125" lon="-6.901863422244787">
        <ele>641.2</ele>
        <time>2017-08-08T05:27:57.000Z</time>
      </trkpt>
      <trkpt lat="43.21220509707928" lon="-6.901867529377341">
        <ele>641.2</ele>
        <time>2017-08-08T05:27:59.000Z</time>
      </trkpt>
      <trkpt lat="43.21220124140382" lon="-6.9018816109746695">
        <ele>641.2</ele>
        <time>2017-08-08T05:28:22.000Z</time>
      </trkpt>
      <trkpt lat="43.212174251675606" lon="-6.901908433064818">
        <ele>641</ele>
        <time>2017-08-08T05:28:37.000Z</time>
      </trkpt>
      <trkpt lat="43.21216871961951" lon="-6.901901559904218">
        <ele>640.8</ele>
        <time>2017-08-08T05:28:42.000Z</time>
      </trkpt>
      <trkpt lat="43.212175173684955" lon="-6.901838527992368">
        <ele>640.8</ele>
        <time>2017-08-08T05:28:57.000Z</time>
      </trkpt>
      <trkpt lat="43.212194200605154" lon="-6.901792511343956">
        <ele>641</ele>
        <time>2017-08-08T05:29:13.000Z</time>
      </trkpt>
      <trkpt lat="43.21221582591534" lon="-6.901812711730599">
        <ele>641.2</ele>
        <time>2017-08-08T05:29:19.000Z</time>
      </trkpt>
      <trkpt lat="43.21221658028662" lon="-6.901846406981349">
        <ele>641.4</ele>
        <time>2017-08-08T05:29:31.000Z</time>
      </trkpt>
      <trkpt lat="43.212228482589126" lon="-6.901883874088526">
        <ele>641.6</ele>
        <time>2017-08-08T05:29:39.000Z</time>
      </trkpt>
      <trkpt lat="43.212207444012165" lon="-6.901816315948963">
        <ele>641.2</ele>
        <time>2017-08-08T05:30:04.000Z</time>
      </trkpt>
      <trkpt lat="43.212183974683285" lon="-6.901839869096875">
        <ele>641</ele>
        <time>2017-08-08T05:30:18.000Z</time>
      </trkpt>
      <trkpt lat="43.212197134271264" lon="-6.901859985664487">
        <ele>641.2</ele>
        <time>2017-08-08T05:30:22.000Z</time>
      </trkpt>
      <trkpt lat="43.212199145928025" lon="-6.901864344254136">
        <ele>641.2</ele>
        <time>2017-08-08T05:30:23.000Z</time>
      </trkpt>
      <trkpt lat="43.21219872683287" lon="-6.90183081664145">
        <ele>641</ele>
        <time>2017-08-08T05:30:28.000Z</time>
      </trkpt>
      <trkpt lat="43.212170815095305" lon="-6.901824278756976">
        <ele>640.8</ele>
        <time>2017-08-08T05:30:35.000Z</time>
      </trkpt>
      <trkpt lat="43.21212739683688" lon="-6.901867110282183">
        <ele>640.2</ele>
        <time>2017-08-08T05:30:47.000Z</time>
      </trkpt>
      <trkpt lat="43.212119014933705" lon="-6.901885885745287">
        <ele>640.2</ele>
        <time>2017-08-08T05:30:48.000Z</time>
      </trkpt>
      <trkpt lat="43.21220627054572" lon="-6.901914551854134">
        <ele>641.4</ele>
        <time>2017-08-08T05:32:06.000Z</time>
      </trkpt>
      <trkpt lat="43.21220979094505" lon="-6.901921173557639">
        <ele>641.4</ele>
        <time>2017-08-08T05:32:07.000Z</time>
      </trkpt>
      <trkpt lat="43.21213016286492" lon="-6.901885801926255">
        <ele>640.4</ele>
        <time>2017-08-08T06:08:50.000Z</time>
      </trkpt>
      <trkpt lat="43.21212714537978" lon="-6.90188848413527">
        <ele>640.2</ele>
        <time>2017-08-08T06:08:53.000Z</time>
      </trkpt>
      <trkpt lat="43.212119014933705" lon="-6.901937602087855">
        <ele>640.2</ele>
        <time>2017-08-08T06:09:26.000Z</time>
      </trkpt>
      <trkpt lat="43.212109208106995" lon="-6.902052015066147">
        <ele>640.4</ele>
        <time>2017-08-08T06:09:33.000Z</time>
      </trkpt>
      <trkpt lat="43.21210300549865" lon="-6.902215713635087">
        <ele>640.6</ele>
        <time>2017-08-08T06:09:43.000Z</time>
      </trkpt>
      <trkpt lat="43.21208062581718" lon="-6.902348818257451">
        <ele>640.4</ele>
        <time>2017-08-08T06:09:52.000Z</time>
      </trkpt>
      <trkpt lat="43.21208154782653" lon="-6.902467757463455">
        <ele>641</ele>
        <time>2017-08-08T06:10:00.000Z</time>
      </trkpt>
      <trkpt lat="43.21209336631" lon="-6.902477648109198">
        <ele>641.2</ele>
        <time>2017-08-08T06:10:01.000Z</time>
      </trkpt>
      <trkpt lat="43.21210443042219" lon="-6.902493322268128">
        <ele>641.4</ele>
        <time>2017-08-08T06:10:03.000Z</time>
      </trkpt>
      <trkpt lat="43.21210644207895" lon="-6.902536069974303">
        <ele>641.6</ele>
        <time>2017-08-08T06:10:06.000Z</time>
      </trkpt>
      <trkpt lat="43.212111219763756" lon="-6.9025686755776405">
        <ele>642</ele>
        <time>2017-08-08T06:10:08.000Z</time>
      </trkpt>
      <trkpt lat="43.21209873072803" lon="-6.902665318921208">
        <ele>642.4</ele>
        <time>2017-08-08T06:10:14.000Z</time>
      </trkpt>
      <trkpt lat="43.212022287771106" lon="-6.902761794626713">
        <ele>642</ele>
        <time>2017-08-08T06:10:22.000Z</time>
      </trkpt>
      <trkpt lat="43.2120000757277" lon="-6.902890456840396">
        <ele>642.6</ele>
        <time>2017-08-08T06:10:29.000Z</time>
      </trkpt>
      <trkpt lat="43.21193302050233" lon="-6.903058597818017">
        <ele>642.8</ele>
        <time>2017-08-08T06:10:38.000Z</time>
      </trkpt>
      <trkpt lat="43.21186227723956" lon="-6.903220200911164">
        <ele>642.4</ele>
        <time>2017-08-08T06:10:48.000Z</time>
      </trkpt>
      <trkpt lat="43.21180226281285" lon="-6.903339391574264">
        <ele>642</ele>
        <time>2017-08-08T06:10:56.000Z</time>
      </trkpt>
      <trkpt lat="43.21172699332237" lon="-6.903472077101469">
        <ele>641.8</ele>
        <time>2017-08-08T06:11:05.000Z</time>
      </trkpt>
      <trkpt lat="43.21165205910802" lon="-6.903640804812312">
        <ele>641.6</ele>
        <time>2017-08-08T06:11:16.000Z</time>
      </trkpt>
      <trkpt lat="43.21158274076879" lon="-6.903794026002288">
        <ele>641.6</ele>
        <time>2017-08-08T06:11:26.000Z</time>
      </trkpt>
      <trkpt lat="43.211512584239244" lon="-6.903933333232999">
        <ele>641.4</ele>
        <time>2017-08-08T06:11:36.000Z</time>
      </trkpt>
      <trkpt lat="43.21150193922222" lon="-6.903952360153198">
        <ele>641.4</ele>
        <time>2017-08-08T06:11:41.000Z</time>
      </trkpt>
      <trkpt lat="43.211487187072635" lon="-6.903993347659707">
        <ele>641.4</ele>
        <time>2017-08-08T06:11:44.000Z</time>
      </trkpt>
      <trkpt lat="43.21145122870803" lon="-6.904089655727148">
        <ele>641.2</ele>
        <time>2017-08-08T06:11:50.000Z</time>
      </trkpt>
      <trkpt lat="43.21137176826596" lon="-6.904259389266372">
        <ele>640.2</ele>
        <time>2017-08-08T06:12:01.000Z</time>
      </trkpt>
      <trkpt lat="43.211313262581825" lon="-6.904382351785898">
        <ele>639.2</ele>
        <time>2017-08-08T06:12:09.000Z</time>
      </trkpt>
      <trkpt lat="43.21123983711004" lon="-6.904534567147493">
        <ele>638.2</ele>
        <time>2017-08-08T06:12:19.000Z</time>
      </trkpt>
      <trkpt lat="43.21118367835879" lon="-6.9046585354954">
        <ele>637.4</ele>
        <time>2017-08-08T06:12:27.000Z</time>
      </trkpt>
      <trkpt lat="43.21111704222858" lon="-6.904797423630953">
        <ele>636.6</ele>
        <time>2017-08-08T06:12:36.000Z</time>
      </trkpt>
      <trkpt lat="43.211020063608885" lon="-6.904976796358824">
        <ele>635.8</ele>
        <time>2017-08-08T06:12:48.000Z</time>
      </trkpt>
      <trkpt lat="43.21095828898251" lon="-6.905104955658317">
        <ele>635.6</ele>
        <time>2017-08-08T06:12:56.000Z</time>
      </trkpt>
      <trkpt lat="43.21091000922024" lon="-6.9052451848983765">
        <ele>635.4</ele>
        <time>2017-08-08T06:13:04.000Z</time>
      </trkpt>
      <trkpt lat="43.21085234172642" lon="-6.905395472422242">
        <ele>635.2</ele>
        <time>2017-08-08T06:13:13.000Z</time>
      </trkpt>
      <trkpt lat="43.210770366713405" lon="-6.905596554279327">
        <ele>635</ele>
        <time>2017-08-08T06:13:25.000Z</time>
      </trkpt>
      <trkpt lat="43.21070314384997" lon="-6.905771316960454">
        <ele>634.8</ele>
        <time>2017-08-08T06:13:35.000Z</time>
      </trkpt>
      <trkpt lat="43.21064011193812" lon="-6.905922191217542">
        <ele>634.8</ele>
        <time>2017-08-08T06:13:44.000Z</time>
      </trkpt>
      <trkpt lat="43.210615050047636" lon="-6.906044064089656">
        <ele>634.8</ele>
        <time>2017-08-08T06:13:51.000Z</time>
      </trkpt>
      <trkpt lat="43.210617480799556" lon="-6.906228717416525">
        <ele>635</ele>
        <time>2017-08-08T06:14:01.000Z</time>
      </trkpt>
      <trkpt lat="43.21063005365431" lon="-6.906387051567435">
        <ele>635.2</ele>
        <time>2017-08-08T06:14:10.000Z</time>
      </trkpt>
      <trkpt lat="43.21066416800022" lon="-6.906524430960417">
        <ele>635.2</ele>
        <time>2017-08-08T06:14:18.000Z</time>
      </trkpt>
      <trkpt lat="43.210703395307064" lon="-6.906645884737372">
        <ele>635.2</ele>
        <time>2017-08-08T06:14:26.000Z</time>
      </trkpt>
      <trkpt lat="43.2107690256089" lon="-6.906784018501639">
        <ele>635</ele>
        <time>2017-08-08T06:14:35.000Z</time>
      </trkpt>
      <trkpt lat="43.210827447474" lon="-6.9069097470492125">
        <ele>635.2</ele>
        <time>2017-08-08T06:14:43.000Z</time>
      </trkpt>
      <trkpt lat="43.21087958291173" lon="-6.907023238018155">
        <ele>635.4</ele>
        <time>2017-08-08T06:14:50.000Z</time>
      </trkpt>
      <trkpt lat="43.21093859151006" lon="-6.90716371871531">
        <ele>635.6</ele>
        <time>2017-08-08T06:14:59.000Z</time>
      </trkpt>
      <trkpt lat="43.21099986322224" lon="-6.907276203855872">
        <ele>635.6</ele>
        <time>2017-08-08T06:15:07.000Z</time>
      </trkpt>
      <trkpt lat="43.21105753071606" lon="-6.907413164153695">
        <ele>636</ele>
        <time>2017-08-08T06:15:16.000Z</time>
      </trkpt>
      <trkpt lat="43.211071360856295" lon="-6.907452056184411">
        <ele>636</ele>
        <time>2017-08-08T06:15:20.000Z</time>
      </trkpt>
      <trkpt lat="43.21112391538918" lon="-6.907582562416792">
        <ele>636.2</ele>
        <time>2017-08-08T06:15:29.000Z</time>
      </trkpt>
      <trkpt lat="43.211191641166806" lon="-6.9077361188828945">
        <ele>636.4</ele>
        <time>2017-08-08T06:15:39.000Z</time>
      </trkpt>
      <trkpt lat="43.21124277077615" lon="-6.907859668135643">
        <ele>636.6</ele>
        <time>2017-08-08T06:15:47.000Z</time>
      </trkpt>
      <trkpt lat="43.21131334640086" lon="-6.907982546836138">
        <ele>637</ele>
        <time>2017-08-08T06:15:56.000Z</time>
      </trkpt>
      <trkpt lat="43.211342012509704" lon="-6.908027641475201">
        <ele>637.2</ele>
        <time>2017-08-08T06:16:00.000Z</time>
      </trkpt>
      <trkpt lat="43.21134427562356" lon="-6.908040968701243">
        <ele>637.2</ele>
        <time>2017-08-08T06:16:02.000Z</time>
      </trkpt>
      <trkpt lat="43.21135173551738" lon="-6.908111879602075">
        <ele>637.6</ele>
        <time>2017-08-08T06:16:07.000Z</time>
      </trkpt>
      <trkpt lat="43.2113385759294" lon="-6.908158231526613">
        <ele>637.6</ele>
        <time>2017-08-08T06:16:10.000Z</time>
      </trkpt>
      <trkpt lat="43.21132130920887" lon="-6.9082285556942225">
        <ele>637.8</ele>
        <time>2017-08-08T06:16:14.000Z</time>
      </trkpt>
      <trkpt lat="43.21127780713141" lon="-6.9083931762725115">
        <ele>637.8</ele>
        <time>2017-08-08T06:16:24.000Z</time>
      </trkpt>
      <trkpt lat="43.211225336417556" lon="-6.90857732668519">
        <ele>637.6</ele>
        <time>2017-08-08T06:16:35.000Z</time>
      </trkpt>
      <trkpt lat="43.211198849603534" lon="-6.908691739663482">
        <ele>637.6</ele>
        <time>2017-08-08T06:16:42.000Z</time>
      </trkpt>
      <trkpt lat="43.21116247214377" lon="-6.908822329714894">
        <ele>637.6</ele>
        <time>2017-08-08T06:16:50.000Z</time>
      </trkpt>
      <trkpt lat="43.21113330312073" lon="-6.908943196758628">
        <ele>637.4</ele>
        <time>2017-08-08T06:16:57.000Z</time>
      </trkpt>
      <trkpt lat="43.211097260937095" lon="-6.909074457362294">
        <ele>637.2</ele>
        <time>2017-08-08T06:17:05.000Z</time>
      </trkpt>
      <trkpt lat="43.21106088347733" lon="-6.909199599176645">
        <ele>637.2</ele>
        <time>2017-08-08T06:17:13.000Z</time>
      </trkpt>
      <trkpt lat="43.211023500189185" lon="-6.909341085702181">
        <ele>637.4</ele>
        <time>2017-08-08T06:17:22.000Z</time>
      </trkpt>
      <trkpt lat="43.210970694199204" lon="-6.9095405749976635">
        <ele>637.6</ele>
        <time>2017-08-08T06:17:34.000Z</time>
      </trkpt>
      <trkpt lat="43.2109363283962" lon="-6.9096725061535835">
        <ele>637.8</ele>
        <time>2017-08-08T06:17:42.000Z</time>
      </trkpt>
      <trkpt lat="43.21089710108936" lon="-6.90982480533421">
        <ele>638</ele>
        <time>2017-08-08T06:17:51.000Z</time>
      </trkpt>
      <trkpt lat="43.21085074916482" lon="-6.909989761188626">
        <ele>638.2</ele>
        <time>2017-08-08T06:18:01.000Z</time>
      </trkpt>
      <trkpt lat="43.21081571280956" lon="-6.9101163279265165">
        <ele>638.4</ele>
        <time>2017-08-08T06:18:09.000Z</time>
      </trkpt>
      <trkpt lat="43.21078201755881" lon="-6.910215904936194">
        <ele>638.8</ele>
        <time>2017-08-08T06:18:16.000Z</time>
      </trkpt>
      <trkpt lat="43.21077791042626" lon="-6.910226298496127">
        <ele>638.8</ele>
        <time>2017-08-08T06:18:21.000Z</time>
      </trkpt>
      <trkpt lat="43.21077313274145" lon="-6.910258820280433">
        <ele>638.8</ele>
        <time>2017-08-08T06:20:53.000Z</time>
      </trkpt>
      <trkpt lat="43.210767013952136" lon="-6.910279858857393">
        <ele>639</ele>
        <time>2017-08-08T06:20:55.000Z</time>
      </trkpt>
      <trkpt lat="43.210755279287696" lon="-6.91032025963068">
        <ele>639</ele>
        <time>2017-08-08T06:20:58.000Z</time>
      </trkpt>
      <trkpt lat="43.21074413135648" lon="-6.910369545221329">
        <ele>639.2</ele>
        <time>2017-08-08T06:21:02.000Z</time>
      </trkpt>
      <trkpt lat="43.21071504615247" lon="-6.9104682840406895">
        <ele>639.4</ele>
        <time>2017-08-08T06:21:09.000Z</time>
      </trkpt>
      <trkpt lat="43.21068109944463" lon="-6.910574482753873">
        <ele>639.8</ele>
        <time>2017-08-08T06:21:16.000Z</time>
      </trkpt>
      <trkpt lat="43.210641872137785" lon="-6.910698534920812">
        <ele>640.2</ele>
        <time>2017-08-08T06:21:24.000Z</time>
      </trkpt>
      <trkpt lat="43.21060163900256" lon="-6.910825604572892">
        <ele>640.2</ele>
        <time>2017-08-08T06:21:32.000Z</time>
      </trkpt>
      <trkpt lat="43.21056744083762" lon="-6.910905567929149">
        <ele>640.2</ele>
        <time>2017-08-08T06:21:37.000Z</time>
      </trkpt>
      <trkpt lat="43.21052729152143" lon="-6.911026854068041">
        <ele>640.4</ele>
        <time>2017-08-08T06:21:44.000Z</time>
      </trkpt>
      <trkpt lat="43.2104909978807" lon="-6.911113942041993">
        <ele>640.4</ele>
        <time>2017-08-08T06:21:50.000Z</time>
      </trkpt>
      <trkpt lat="43.21046995930374" lon="-6.911205807700753">
        <ele>640.4</ele>
        <time>2017-08-08T06:21:55.000Z</time>
      </trkpt>
      <trkpt lat="43.210458643734455" lon="-6.91126624122262">
        <ele>640.4</ele>
        <time>2017-08-08T06:21:58.000Z</time>
      </trkpt>
      <trkpt lat="43.210434252396226" lon="-6.911356849595904">
        <ele>640.6</ele>
        <time>2017-08-08T06:22:04.000Z</time>
      </trkpt>
      <trkpt lat="43.21036895737052" lon="-6.911493223160505">
        <ele>640.6</ele>
        <time>2017-08-08T06:22:11.000Z</time>
      </trkpt>
      <trkpt lat="43.21028530597687" lon="-6.911677708849311">
        <ele>640.8</ele>
        <time>2017-08-08T06:22:21.000Z</time>
      </trkpt>
      <trkpt lat="43.21023426018655" lon="-6.911820033565164">
        <ele>641.2</ele>
        <time>2017-08-08T06:22:29.000Z</time>
      </trkpt>
      <trkpt lat="43.210223112255335" lon="-6.911827744916081">
        <ele>641.2</ele>
        <time>2017-08-08T06:22:30.000Z</time>
      </trkpt>
      <trkpt lat="43.210170306265354" lon="-6.911817183718085">
        <ele>641</ele>
        <time>2017-08-08T06:22:34.000Z</time>
      </trkpt>
      <trkpt lat="43.210056480020285" lon="-6.911779968068004">
        <ele>640.6</ele>
        <time>2017-08-08T06:22:43.000Z</time>
      </trkpt>
      <trkpt lat="43.20995170623064" lon="-6.911749877035618">
        <ele>640.4</ele>
        <time>2017-08-08T06:22:51.000Z</time>
      </trkpt>
      <trkpt lat="43.2098466809839" lon="-6.911729257553816">
        <ele>640.4</ele>
        <time>2017-08-08T06:22:59.000Z</time>
      </trkpt>
      <trkpt lat="43.209726149216294" lon="-6.911726323887706">
        <ele>640.4</ele>
        <time>2017-08-08T06:23:08.000Z</time>
      </trkpt>
      <trkpt lat="43.20962782949209" lon="-6.9117452669888735">
        <ele>640.4</ele>
        <time>2017-08-08T06:23:16.000Z</time>
      </trkpt>
      <trkpt lat="43.209617184475064" lon="-6.911747111007571">
        <ele>640.4</ele>
        <time>2017-08-08T06:23:17.000Z</time>
      </trkpt>
      <trkpt lat="43.209567898884416" lon="-6.911744847893715">
        <ele>640.4</ele>
        <time>2017-08-08T06:23:21.000Z</time>
      </trkpt>
      <trkpt lat="43.20951911620796" lon="-6.911750128492713">
        <ele>640.4</ele>
        <time>2017-08-08T06:23:25.000Z</time>
      </trkpt>
      <trkpt lat="43.20944636128843" lon="-6.9117555767297745">
        <ele>640.4</ele>
        <time>2017-08-08T06:23:31.000Z</time>
      </trkpt>
      <trkpt lat="43.209342090412974" lon="-6.911754570901394">
        <ele>640.4</ele>
        <time>2017-08-08T06:23:39.000Z</time>
      </trkpt>
      <trkpt lat="43.20929699577391" lon="-6.911770161241293">
        <ele>640.4</ele>
        <time>2017-08-08T06:23:43.000Z</time>
      </trkpt>
      <trkpt lat="43.20928014814854" lon="-6.9117647130042315">
        <ele>640.4</ele>
        <time>2017-08-08T06:23:46.000Z</time>
      </trkpt>
      <trkpt lat="43.20927654393017" lon="-6.91175390034914">
        <ele>640.4</ele>
        <time>2017-08-08T06:23:47.000Z</time>
      </trkpt>
      <trkpt lat="43.20926623418927" lon="-6.911748703569174">
        <ele>640.4</ele>
        <time>2017-08-08T06:23:49.000Z</time>
      </trkpt>
      <trkpt lat="43.20925885811448" lon="-6.911743339151144">
        <ele>640.4</ele>
        <time>2017-08-08T06:23:50.000Z</time>
      </trkpt>
      <trkpt lat="43.20922566577792" lon="-6.911760605871677">
        <ele>640.4</ele>
        <time>2017-08-08T06:23:54.000Z</time>
      </trkpt>
      <trkpt lat="43.20917638018727" lon="-6.911787427961826">
        <ele>640.2</ele>
        <time>2017-08-08T06:24:00.000Z</time>
      </trkpt>
      <trkpt lat="43.20911871269345" lon="-6.911819279193878">
        <ele>640.2</ele>
        <time>2017-08-08T06:24:06.000Z</time>
      </trkpt>
      <trkpt lat="43.20910354144871" lon="-6.911831013858318">
        <ele>640.2</ele>
        <time>2017-08-08T06:24:08.000Z</time>
      </trkpt>
      <trkpt lat="43.20906674489379" lon="-6.911860099062324">
        <ele>640.2</ele>
        <time>2017-08-08T06:24:11.000Z</time>
      </trkpt>
      <trkpt lat="43.20902366191149" lon="-6.911896895617247">
        <ele>640.2</ele>
        <time>2017-08-08T06:24:16.000Z</time>
      </trkpt>
      <trkpt lat="43.20901351980865" lon="-6.911912653595209">
        <ele>640.2</ele>
        <time>2017-08-08T06:24:17.000Z</time>
      </trkpt>
      <trkpt lat="43.208969263359904" lon="-6.91195959225297">
        <ele>640.2</ele>
        <time>2017-08-08T06:24:23.000Z</time>
      </trkpt>
      <trkpt lat="43.2089142780751" lon="-6.912024552002549">
        <ele>640.2</ele>
        <time>2017-08-08T06:24:29.000Z</time>
      </trkpt>
      <trkpt lat="43.208865243941545" lon="-6.912084985524416">
        <ele>640.2</ele>
        <time>2017-08-08T06:24:34.000Z</time>
      </trkpt>
      <trkpt lat="43.20882643572986" lon="-6.912136031314731">
        <ele>640.2</ele>
        <time>2017-08-08T06:24:38.000Z</time>
      </trkpt>
      <trkpt lat="43.20881662890315" lon="-6.912147598341107">
        <ele>640.2</ele>
        <time>2017-08-08T06:24:39.000Z</time>
      </trkpt>
      <trkpt lat="43.20881059393287" lon="-6.912163021042943">
        <ele>640.2</ele>
        <time>2017-08-08T06:24:40.000Z</time>
      </trkpt>
      <trkpt lat="43.20877354592085" lon="-6.912215491756797">
        <ele>640.4</ele>
        <time>2017-08-08T06:24:44.000Z</time>
      </trkpt>
      <trkpt lat="43.208755273371935" lon="-6.912242481485009">
        <ele>640.4</ele>
        <time>2017-08-08T06:24:46.000Z</time>
      </trkpt>
      <trkpt lat="43.208737755194306" lon="-6.912274165078998">
        <ele>640.4</ele>
        <time>2017-08-08T06:24:48.000Z</time>
      </trkpt>
      <trkpt lat="43.20868603885174" lon="-6.912356140092015">
        <ele>640.4</ele>
        <time>2017-08-08T06:24:53.000Z</time>
      </trkpt>
      <trkpt lat="43.20866793394089" lon="-6.91238078288734">
        <ele>640.4</ele>
        <time>2017-08-08T06:24:55.000Z</time>
      </trkpt>
      <trkpt lat="43.20864262059331" lon="-6.912419507279992">
        <ele>640.6</ele>
        <time>2017-08-08T06:24:58.000Z</time>
      </trkpt>
      <trkpt lat="43.208639938384295" lon="-6.9124311581254005">
        <ele>640.6</ele>
        <time>2017-08-08T06:24:59.000Z</time>
      </trkpt>
      <trkpt lat="43.20861571468413" lon="-6.9124726485461">
        <ele>640.6</ele>
        <time>2017-08-08T06:25:02.000Z</time>
      </trkpt>
      <trkpt lat="43.208552515134215" lon="-6.912571890279651">
        <ele>640.8</ele>
        <time>2017-08-08T06:25:09.000Z</time>
      </trkpt>
      <trkpt lat="43.20854354649782" lon="-6.912588318809867">
        <ele>640.8</ele>
        <time>2017-08-08T06:25:10.000Z</time>
      </trkpt>
      <trkpt lat="43.20848680101335" lon="-6.912674820050597">
        <ele>641</ele>
        <time>2017-08-08T06:25:17.000Z</time>
      </trkpt>
      <trkpt lat="43.20845855399966" lon="-6.9127218425273895">
        <ele>641.2</ele>
        <time>2017-08-08T06:25:21.000Z</time>
      </trkpt>
      <trkpt lat="43.20840725675225" lon="-6.912792418152094">
        <ele>641.4</ele>
        <time>2017-08-08T06:25:27.000Z</time>
      </trkpt>
      <trkpt lat="43.208400048315525" lon="-6.912807589396834">
        <ele>641.4</ele>
        <time>2017-08-08T06:25:28.000Z</time>
      </trkpt>
      <trkpt lat="43.20835428312421" lon="-6.912873052060604">
        <ele>641.6</ele>
        <time>2017-08-08T06:25:33.000Z</time>
      </trkpt>
      <trkpt lat="43.208293514326215" lon="-6.912961145862937">
        <ele>642</ele>
        <time>2017-08-08T06:25:39.000Z</time>
      </trkpt>
      <trkpt lat="43.208245569840074" lon="-6.913037169724703">
        <ele>642.2</ele>
        <time>2017-08-08T06:25:44.000Z</time>
      </trkpt>
      <trkpt lat="43.2082028221339" lon="-6.913125347346067">
        <ele>642.6</ele>
        <time>2017-08-08T06:25:49.000Z</time>
      </trkpt>
      <trkpt lat="43.20815755985677" lon="-6.9132160395383835">
        <ele>643</ele>
        <time>2017-08-08T06:25:54.000Z</time>
      </trkpt>
      <trkpt lat="43.20808027870953" lon="-6.913375295698643">
        <ele>643.4</ele>
        <time>2017-08-08T06:26:02.000Z</time>
      </trkpt>
      <trkpt lat="43.20799243636429" lon="-6.91355450078845">
        <ele>643.8</ele>
        <time>2017-08-08T06:26:11.000Z</time>
      </trkpt>
      <trkpt lat="43.20795706473291" lon="-6.913644103333354">
        <ele>644</ele>
        <time>2017-08-08T06:26:16.000Z</time>
      </trkpt>
      <trkpt lat="43.20790191181004" lon="-6.913747284561396">
        <ele>644.2</ele>
        <time>2017-08-08T06:26:22.000Z</time>
      </trkpt>
      <trkpt lat="43.2078349404037" lon="-6.91387209109962">
        <ele>644.6</ele>
        <time>2017-08-08T06:26:29.000Z</time>
      </trkpt>
      <trkpt lat="43.20779864676297" lon="-6.913933111354709">
        <ele>644.8</ele>
        <time>2017-08-08T06:26:34.000Z</time>
      </trkpt>
      <trkpt lat="43.207745840772986" lon="-6.9140303414314985">
        <ele>645.4</ele>
        <time>2017-08-08T06:26:40.000Z</time>
      </trkpt>
      <trkpt lat="43.207708625122905" lon="-6.914098151028156">
        <ele>645.6</ele>
        <time>2017-08-08T06:26:45.000Z</time>
      </trkpt>
      <trkpt lat="43.207693956792355" lon="-6.9141219556331635">
        <ele>645.6</ele>
        <time>2017-08-08T06:26:47.000Z</time>
      </trkpt>
      <trkpt lat="43.20764400064945" lon="-6.914213569834828">
        <ele>646</ele>
        <time>2017-08-08T06:26:53.000Z</time>
      </trkpt>
      <trkpt lat="43.20760577917099" lon="-6.914266962558031">
        <ele>646.2</ele>
        <time>2017-08-08T06:26:58.000Z</time>
      </trkpt>
      <trkpt lat="43.207563031464815" lon="-6.914335861802101">
        <ele>646.4</ele>
        <time>2017-08-08T06:27:04.000Z</time>
      </trkpt>
      <trkpt lat="43.2075222954154" lon="-6.914397468790412">
        <ele>646.6</ele>
        <time>2017-08-08T06:27:09.000Z</time>
      </trkpt>
      <trkpt lat="43.2074636220932" lon="-6.9145154021680355">
        <ele>647</ele>
        <time>2017-08-08T06:27:15.000Z</time>
      </trkpt>
      <trkpt lat="43.20736932568252" lon="-6.914690751582384">
        <ele>647.6</ele>
        <time>2017-08-08T06:27:24.000Z</time>
      </trkpt>
      <trkpt lat="43.20727461017668" lon="-6.9148514326661825">
        <ele>648</ele>
        <time>2017-08-08T06:27:33.000Z</time>
      </trkpt>
      <trkpt lat="43.20719816721976" lon="-6.914937933906913">
        <ele>648</ele>
        <time>2017-08-08T06:27:40.000Z</time>
      </trkpt>
      <trkpt lat="43.20711066015065" lon="-6.915057376027107">
        <ele>648</ele>
        <time>2017-08-08T06:27:48.000Z</time>
      </trkpt>
      <trkpt lat="43.20707218721509" lon="-6.915124598890543">
        <ele>648</ele>
        <time>2017-08-08T06:27:53.000Z</time>
      </trkpt>
      <trkpt lat="43.20701636373997" lon="-6.91522317007184">
        <ele>647.8</ele>
        <time>2017-08-08T06:28:00.000Z</time>
      </trkpt>
      <trkpt lat="43.20699507370591" lon="-6.915263235569">
        <ele>647.8</ele>
        <time>2017-08-08T06:28:03.000Z</time>
      </trkpt>
      <trkpt lat="43.20696867071092" lon="-6.9153061509132385">
        <ele>647.8</ele>
        <time>2017-08-08T06:28:06.000Z</time>
      </trkpt>
      <trkpt lat="43.20694360882044" lon="-6.915343198925257">
        <ele>647.8</ele>
        <time>2017-08-08T06:28:09.000Z</time>
      </trkpt>
      <trkpt lat="43.20690086111426" lon="-6.915402207523584">
        <ele>647.8</ele>
        <time>2017-08-08T06:28:14.000Z</time>
      </trkpt>
      <trkpt lat="43.20686783641577" lon="-6.9154654908925295">
        <ele>647.8</ele>
        <time>2017-08-08T06:28:19.000Z</time>
      </trkpt>
      <trkpt lat="43.20684352889657" lon="-6.915518715977669">
        <ele>647.8</ele>
        <time>2017-08-08T06:28:23.000Z</time>
      </trkpt>
      <trkpt lat="43.2068005297333" lon="-6.915611252188683">
        <ele>647.8</ele>
        <time>2017-08-08T06:28:30.000Z</time>
      </trkpt>
      <trkpt lat="43.20675367489457" lon="-6.915688114240766">
        <ele>647.8</ele>
        <time>2017-08-08T06:28:36.000Z</time>
      </trkpt>
      <trkpt lat="43.20674722082913" lon="-6.915705045685172">
        <ele>647.8</ele>
        <time>2017-08-08T06:28:37.000Z</time>
      </trkpt>
      <trkpt lat="43.206687876954675" lon="-6.915802275761962">
        <ele>648.2</ele>
        <time>2017-08-08T06:28:44.000Z</time>
      </trkpt>
      <trkpt lat="43.20663079619408" lon="-6.915903193876147">
        <ele>648.6</ele>
        <time>2017-08-08T06:28:50.000Z</time>
      </trkpt>
      <trkpt lat="43.20653381757438" lon="-6.916075274348259">
        <ele>649</ele>
        <time>2017-08-08T06:28:59.000Z</time>
      </trkpt>
      <trkpt lat="43.206448908895254" lon="-6.916227908805013">
        <ele>649.2</ele>
        <time>2017-08-08T06:29:07.000Z</time>
      </trkpt>
      <trkpt lat="43.206370705738664" lon="-6.916378950700164">
        <ele>649.4</ele>
        <time>2017-08-08T06:29:15.000Z</time>
      </trkpt>
      <trkpt lat="43.20628881454468" lon="-6.916514905169606">
        <ele>649.8</ele>
        <time>2017-08-08T06:29:23.000Z</time>
      </trkpt>
      <trkpt lat="43.20619502104819" lon="-6.916612721979618">
        <ele>650.2</ele>
        <time>2017-08-08T06:29:32.000Z</time>
      </trkpt>
      <trkpt lat="43.20617817342281" lon="-6.916622361168265">
        <ele>650.2</ele>
        <time>2017-08-08T06:29:34.000Z</time>
      </trkpt>
      <trkpt lat="43.20614825002849" lon="-6.91664750687778">
        <ele>650.2</ele>
        <time>2017-08-08T06:29:38.000Z</time>
      </trkpt>
      <trkpt lat="43.20613257586956" lon="-6.916663683950901">
        <ele>650.4</ele>
        <time>2017-08-08T06:29:40.000Z</time>
      </trkpt>
      <trkpt lat="43.20611346513033" lon="-6.916680196300149">
        <ele>650.4</ele>
        <time>2017-08-08T06:29:42.000Z</time>
      </trkpt>
      <trkpt lat="43.206084882840514" lon="-6.916709616780281">
        <ele>650.6</ele>
        <time>2017-08-08T06:29:45.000Z</time>
      </trkpt>
      <trkpt lat="43.20605093613267" lon="-6.916747419163585">
        <ele>650.6</ele>
        <time>2017-08-08T06:29:48.000Z</time>
      </trkpt>
      <trkpt lat="43.20603769272566" lon="-6.916765607893467">
        <ele>650.6</ele>
        <time>2017-08-08T06:29:49.000Z</time>
      </trkpt>
      <trkpt lat="43.20602000690997" lon="-6.916792094707489">
        <ele>650.8</ele>
        <time>2017-08-08T06:29:52.000Z</time>
      </trkpt>
      <trkpt lat="43.20595462806523" lon="-6.916882703080773">
        <ele>651</ele>
        <time>2017-08-08T06:29:58.000Z</time>
      </trkpt>
      <trkpt lat="43.20591799914837" lon="-6.916928049176931">
        <ele>651</ele>
        <time>2017-08-08T06:30:02.000Z</time>
      </trkpt>
      <trkpt lat="43.205909449607134" lon="-6.916940622031689">
        <ele>651</ele>
        <time>2017-08-08T06:30:03.000Z</time>
      </trkpt>
      <trkpt lat="43.20583786815405" lon="-6.917018406093121">
        <ele>651</ele>
        <time>2017-08-08T06:30:09.000Z</time>
      </trkpt>
      <trkpt lat="43.20578414015472" lon="-6.917086048051715">
        <ele>651</ele>
        <time>2017-08-08T06:30:14.000Z</time>
      </trkpt>
      <trkpt lat="43.205755809322" lon="-6.9171173963695765">
        <ele>651</ele>
        <time>2017-08-08T06:30:17.000Z</time>
      </trkpt>
      <trkpt lat="43.20574298501015" lon="-6.917133908718824">
        <ele>651</ele>
        <time>2017-08-08T06:30:18.000Z</time>
      </trkpt>
      <trkpt lat="43.20572982542217" lon="-6.917147655040026">
        <ele>651</ele>
        <time>2017-08-08T06:30:19.000Z</time>
      </trkpt>
      <trkpt lat="43.20566310547292" lon="-6.917227618396282">
        <ele>651</ele>
        <time>2017-08-08T06:30:25.000Z</time>
      </trkpt>
      <trkpt lat="43.205601163208485" lon="-6.917292410507798">
        <ele>651</ele>
        <time>2017-08-08T06:30:31.000Z</time>
      </trkpt>
      <trkpt lat="43.20556637831032" lon="-6.917333900928497">
        <ele>651</ele>
        <time>2017-08-08T06:30:35.000Z</time>
      </trkpt>
      <trkpt lat="43.20554751902819" lon="-6.917350245639682">
        <ele>651</ele>
        <time>2017-08-08T06:30:37.000Z</time>
      </trkpt>
      <trkpt lat="43.205471746623516" lon="-6.9174419436603785">
        <ele>651</ele>
        <time>2017-08-08T06:30:43.000Z</time>
      </trkpt>
      <trkpt lat="43.205421790480614" lon="-6.9175096694380045">
        <ele>651.2</ele>
        <time>2017-08-08T06:30:48.000Z</time>
      </trkpt>
      <trkpt lat="43.20539027452469" lon="-6.917548645287752">
        <ele>651.4</ele>
        <time>2017-08-08T06:30:51.000Z</time>
      </trkpt>
      <trkpt lat="43.2053377199918" lon="-6.917605809867382">
        <ele>651.4</ele>
        <time>2017-08-08T06:30:56.000Z</time>
      </trkpt>
      <trkpt lat="43.20527125149965" lon="-6.917680073529482">
        <ele>651.6</ele>
        <time>2017-08-08T06:31:02.000Z</time>
      </trkpt>
      <trkpt lat="43.205250296741724" lon="-6.9177040457725525">
        <ele>651.8</ele>
        <time>2017-08-08T06:31:04.000Z</time>
      </trkpt>
      <trkpt lat="43.205223893746734" lon="-6.917739417403936">
        <ele>651.8</ele>
        <time>2017-08-08T06:31:06.000Z</time>
      </trkpt>
      <trkpt lat="43.20521408692002" lon="-6.917753331363201">
        <ele>651.8</ele>
        <time>2017-08-08T06:31:07.000Z</time>
      </trkpt>
      <trkpt lat="43.20513730868697" lon="-6.917808316648006">
        <ele>652</ele>
        <time>2017-08-08T06:31:13.000Z</time>
      </trkpt>
      <trkpt lat="43.20504988543689" lon="-6.917886268347502">
        <ele>652.2</ele>
        <time>2017-08-08T06:31:20.000Z</time>
      </trkpt>
      <trkpt lat="43.2050269190222" lon="-6.917895656079054">
        <ele>652.2</ele>
        <time>2017-08-08T06:31:22.000Z</time>
      </trkpt>
      <trkpt lat="43.204995822161436" lon="-6.917911749333143">
        <ele>652.4</ele>
        <time>2017-08-08T06:31:25.000Z</time>
      </trkpt>
      <trkpt lat="43.204983500763774" lon="-6.917924657464027">
        <ele>652.4</ele>
        <time>2017-08-08T06:31:26.000Z</time>
      </trkpt>
      <trkpt lat="43.2049632165581" lon="-6.917942762374878">
        <ele>652.4</ele>
        <time>2017-08-08T06:31:28.000Z</time>
      </trkpt>
      <trkpt lat="43.20492709055543" lon="-6.917976541444659">
        <ele>652.6</ele>
        <time>2017-08-08T06:31:32.000Z</time>
      </trkpt>
      <trkpt lat="43.20486053824425" lon="-6.9180418364703655">
        <ele>652.8</ele>
        <time>2017-08-08T06:31:37.000Z</time>
      </trkpt>
      <trkpt lat="43.2047491427511" lon="-6.918126996606588">
        <ele>653.2</ele>
        <time>2017-08-08T06:31:44.000Z</time>
      </trkpt>
      <trkpt lat="43.20467630401254" lon="-6.918165301904082">
        <ele>653.4</ele>
        <time>2017-08-08T06:31:49.000Z</time>
      </trkpt>
      <trkpt lat="43.20466700010002" lon="-6.918170750141144">
        <ele>653.4</ele>
        <time>2017-08-08T06:31:50.000Z</time>
      </trkpt>
      <trkpt lat="43.20465090684593" lon="-6.918179467320442">
        <ele>653.4</ele>
        <time>2017-08-08T06:31:51.000Z</time>
      </trkpt>
      <trkpt lat="43.204567674547434" lon="-6.918248534202576">
        <ele>653.8</ele>
        <time>2017-08-08T06:31:57.000Z</time>
      </trkpt>
      <trkpt lat="43.204492907971144" lon="-6.9183124881237745">
        <ele>654.2</ele>
        <time>2017-08-08T06:32:03.000Z</time>
      </trkpt>
      <trkpt lat="43.20446784608066" lon="-6.918325312435627">
        <ele>654.4</ele>
        <time>2017-08-08T06:32:05.000Z</time>
      </trkpt>
      <trkpt lat="43.20443951524794" lon="-6.91834450699389">
        <ele>654.4</ele>
        <time>2017-08-08T06:32:07.000Z</time>
      </trkpt>
      <trkpt lat="43.20437832735479" lon="-6.918394211679697">
        <ele>654.8</ele>
        <time>2017-08-08T06:32:12.000Z</time>
      </trkpt>
      <trkpt lat="43.20436583831906" lon="-6.918390188366175">
        <ele>654.8</ele>
        <time>2017-08-08T06:32:13.000Z</time>
      </trkpt>
      <trkpt lat="43.20430506952107" lon="-6.91842271015048">
        <ele>655</ele>
        <time>2017-08-08T06:32:18.000Z</time>
      </trkpt>
      <trkpt lat="43.20425461046398" lon="-6.918447269126773">
        <ele>655.2</ele>
        <time>2017-08-08T06:32:22.000Z</time>
      </trkpt>
      <trkpt lat="43.204238852486014" lon="-6.9184288289397955">
        <ele>655.2</ele>
        <time>2017-08-08T06:32:23.000Z</time>
      </trkpt>
      <trkpt lat="43.204238852486014" lon="-6.9184288289397955">
        <ele>655.2</ele>
        <time>2017-08-08T06:32:23.000Z</time>
      </trkpt>
      <trkpt lat="43.204205157235265" lon="-6.918432433158159">
        <ele>655.2</ele>
        <time>2017-08-08T06:32:25.000Z</time>
      </trkpt>
      <trkpt lat="43.20419183000922" lon="-6.918438635766506">
        <ele>655.2</ele>
        <time>2017-08-08T06:32:26.000Z</time>
      </trkpt>
      <trkpt lat="43.204175904393196" lon="-6.918446598574519">
        <ele>655.2</ele>
        <time>2017-08-08T06:32:27.000Z</time>
      </trkpt>
      <trkpt lat="43.20416081696749" lon="-6.918443916365504">
        <ele>655.2</ele>
        <time>2017-08-08T06:32:28.000Z</time>
      </trkpt>
      <trkpt lat="43.204112369567156" lon="-6.918413825333118">
        <ele>655</ele>
        <time>2017-08-08T06:32:32.000Z</time>
      </trkpt>
      <trkpt lat="43.204057049006224" lon="-6.918424302712083">
        <ele>655.2</ele>
        <time>2017-08-08T06:32:37.000Z</time>
      </trkpt>
      <trkpt lat="43.20400742813945" lon="-6.918435031548142">
        <ele>655.4</ele>
        <time>2017-08-08T06:32:42.000Z</time>
      </trkpt>
      <trkpt lat="43.20399192161858" lon="-6.9184373784810305">
        <ele>655.4</ele>
        <time>2017-08-08T06:32:43.000Z</time>
      </trkpt>
      <trkpt lat="43.203966608271" lon="-6.918435534462333">
        <ele>655.4</ele>
        <time>2017-08-08T06:32:45.000Z</time>
      </trkpt>
      <trkpt lat="43.203904666006565" lon="-6.918444922193885">
        <ele>655.6</ele>
        <time>2017-08-08T06:32:49.000Z</time>
      </trkpt>
      <trkpt lat="43.20382084697485" lon="-6.9184694811701775">
        <ele>656</ele>
        <time>2017-08-08T06:32:56.000Z</time>
      </trkpt>
      <trkpt lat="43.20377449505031" lon="-6.9184906873852015">
        <ele>656.2</ele>
        <time>2017-08-08T06:33:00.000Z</time>
      </trkpt>
      <trkpt lat="43.20374105125666" lon="-6.918507954105735">
        <ele>656.2</ele>
        <time>2017-08-08T06:33:03.000Z</time>
      </trkpt>
      <trkpt lat="43.20372202433646" lon="-6.9185033440589905">
        <ele>656.4</ele>
        <time>2017-08-08T06:33:05.000Z</time>
      </trkpt>
      <trkpt lat="43.20370660163462" lon="-6.91850527189672">
        <ele>656.4</ele>
        <time>2017-08-08T06:33:06.000Z</time>
      </trkpt>
      <trkpt lat="43.203665697947145" lon="-6.918514994904399">
        <ele>656.4</ele>
        <time>2017-08-08T06:33:09.000Z</time>
      </trkpt>
      <trkpt lat="43.20365312509239" lon="-6.918521448969841">
        <ele>656.6</ele>
        <time>2017-08-08T06:33:10.000Z</time>
      </trkpt>
      <trkpt lat="43.20357500575483" lon="-6.918535698205233">
        <ele>656.8</ele>
        <time>2017-08-08T06:33:16.000Z</time>
      </trkpt>
      <trkpt lat="43.20351826027036" lon="-6.918554725125432">
        <ele>657</ele>
        <time>2017-08-08T06:33:20.000Z</time>
      </trkpt>
      <trkpt lat="43.20347676984966" lon="-6.918562017381191">
        <ele>657.2</ele>
        <time>2017-08-08T06:33:23.000Z</time>
      </trkpt>
      <trkpt lat="43.203418012708426" lon="-6.918565202504396">
        <ele>657.2</ele>
        <time>2017-08-08T06:33:28.000Z</time>
      </trkpt>
      <trkpt lat="43.20340409874916" lon="-6.918558916077018">
        <ele>657.2</ele>
        <time>2017-08-08T06:33:29.000Z</time>
      </trkpt>
      <trkpt lat="43.20336822420359" lon="-6.918566711246967">
        <ele>657</ele>
        <time>2017-08-08T06:33:33.000Z</time>
      </trkpt>
      <trkpt lat="43.20332145318389" lon="-6.918570315465331">
        <ele>657</ele>
        <time>2017-08-08T06:33:37.000Z</time>
      </trkpt>
      <trkpt lat="43.203292451798916" lon="-6.918567297980189">
        <ele>657</ele>
        <time>2017-08-08T06:33:39.000Z</time>
      </trkpt>
      <trkpt lat="43.20322279818356" lon="-6.918571405112743">
        <ele>657</ele>
        <time>2017-08-08T06:33:44.000Z</time>
      </trkpt>
      <trkpt lat="43.20320947095752" lon="-6.918575931340456">
        <ele>657</ele>
        <time>2017-08-08T06:33:45.000Z</time>
      </trkpt>
      <trkpt lat="43.20318139158189" lon="-6.918579367920756">
        <ele>657</ele>
        <time>2017-08-08T06:33:47.000Z</time>
      </trkpt>
      <trkpt lat="43.20314442738891" lon="-6.918581631034613">
        <ele>656.8</ele>
        <time>2017-08-08T06:33:50.000Z</time>
      </trkpt>
      <trkpt lat="43.203131603077054" lon="-6.918585570529103">
        <ele>656.8</ele>
        <time>2017-08-08T06:33:51.000Z</time>
      </trkpt>
      <trkpt lat="43.203097991645336" lon="-6.918596802279353">
        <ele>656.8</ele>
        <time>2017-08-08T06:33:54.000Z</time>
      </trkpt>
      <trkpt lat="43.20308734662831" lon="-6.9186043459922075">
        <ele>656.8</ele>
        <time>2017-08-08T06:33:55.000Z</time>
      </trkpt>
      <trkpt lat="43.20307577960193" lon="-6.918612392619252">
        <ele>657</ele>
        <time>2017-08-08T06:33:56.000Z</time>
      </trkpt>
      <trkpt lat="43.20301526226103" lon="-6.918634437024593">
        <ele>657</ele>
        <time>2017-08-08T06:34:01.000Z</time>
      </trkpt>
      <trkpt lat="43.20294770412147" lon="-6.918658576905727">
        <ele>657</ele>
        <time>2017-08-08T06:34:06.000Z</time>
      </trkpt>
      <trkpt lat="43.20288375020027" lon="-6.918684141710401">
        <ele>657</ele>
        <time>2017-08-08T06:34:11.000Z</time>
      </trkpt>
      <trkpt lat="43.20287293754518" lon="-6.918689254671335">
        <ele>657</ele>
        <time>2017-08-08T06:34:12.000Z</time>
      </trkpt>
      <trkpt lat="43.20284267887473" lon="-6.9187138974666595">
        <ele>657</ele>
        <time>2017-08-08T06:34:15.000Z</time>
      </trkpt>
      <trkpt lat="43.202812084928155" lon="-6.918727057054639">
        <ele>657</ele>
        <time>2017-08-08T06:34:18.000Z</time>
      </trkpt>
      <trkpt lat="43.202773444354534" lon="-6.9187510292977095">
        <ele>657</ele>
        <time>2017-08-08T06:34:21.000Z</time>
      </trkpt>
      <trkpt lat="43.2027389947325" lon="-6.918779024854302">
        <ele>657.2</ele>
        <time>2017-08-08T06:34:24.000Z</time>
      </trkpt>
      <trkpt lat="43.20272583514452" lon="-6.918783970177174">
        <ele>657.2</ele>
        <time>2017-08-08T06:34:25.000Z</time>
      </trkpt>
      <trkpt lat="43.20266439579427" lon="-6.91882286220789">
        <ele>657.2</ele>
        <time>2017-08-08T06:34:30.000Z</time>
      </trkpt>
      <trkpt lat="43.20260379463434" lon="-6.918866615742445">
        <ele>657.2</ele>
        <time>2017-08-08T06:34:35.000Z</time>
      </trkpt>
      <trkpt lat="43.202571189031005" lon="-6.918881619349122">
        <ele>657</ele>
        <time>2017-08-08T06:34:37.000Z</time>
      </trkpt>
      <trkpt lat="43.202467588707805" lon="-6.918954038992524">
        <ele>656.6</ele>
        <time>2017-08-08T06:34:44.000Z</time>
      </trkpt>
      <trkpt lat="43.20236968807876" lon="-6.919055208563805">
        <ele>656.4</ele>
        <time>2017-08-08T06:34:52.000Z</time>
      </trkpt>
      <trkpt lat="43.202303471043706" lon="-6.91913072951138">
        <ele>656.6</ele>
        <time>2017-08-08T06:34:58.000Z</time>
      </trkpt>
      <trkpt lat="43.20221822708845" lon="-6.919220332056284">
        <ele>656.8</ele>
        <time>2017-08-08T06:35:06.000Z</time>
      </trkpt>
      <trkpt lat="43.20210859179497" lon="-6.919347234070301">
        <ele>657.2</ele>
        <time>2017-08-08T06:35:15.000Z</time>
      </trkpt>
      <trkpt lat="43.20200641639531" lon="-6.919464664533734">
        <ele>657.6</ele>
        <time>2017-08-08T06:35:24.000Z</time>
      </trkpt>
      <trkpt lat="43.20193181745708" lon="-6.91955535672605">
        <ele>658</ele>
        <time>2017-08-08T06:35:31.000Z</time>
      </trkpt>
      <trkpt lat="43.20185327902436" lon="-6.919653005897999">
        <ele>658.4</ele>
        <time>2017-08-08T06:35:39.000Z</time>
      </trkpt>
      <trkpt lat="43.20177532732487" lon="-6.919747218489647">
        <ele>658.6</ele>
        <time>2017-08-08T06:35:46.000Z</time>
      </trkpt>
      <trkpt lat="43.2016527839005" lon="-6.919904630631208">
        <ele>659.8</ele>
        <time>2017-08-08T06:35:57.000Z</time>
      </trkpt>
      <trkpt lat="43.20153602398932" lon="-6.920067574828863">
        <ele>661</ele>
        <time>2017-08-08T06:36:08.000Z</time>
      </trkpt>
      <trkpt lat="43.20143929682672" lon="-6.920212330296636">
        <ele>662.2</ele>
        <time>2017-08-08T06:36:18.000Z</time>
      </trkpt>
      <trkpt lat="43.201347179710865" lon="-6.920344429090619">
        <ele>663.2</ele>
        <time>2017-08-08T06:36:27.000Z</time>
      </trkpt>
      <trkpt lat="43.201268473640084" lon="-6.920460602268577">
        <ele>664</ele>
        <time>2017-08-08T06:36:35.000Z</time>
      </trkpt>
      <trkpt lat="43.20115473121405" lon="-6.920608291402459">
        <ele>665.2</ele>
        <time>2017-08-08T06:36:47.000Z</time>
      </trkpt>
      <trkpt lat="43.201047107577324" lon="-6.920745586976409">
        <ele>666.2</ele>
        <time>2017-08-08T06:36:58.000Z</time>
      </trkpt>
      <trkpt lat="43.2010343670845" lon="-6.920754807069898">
        <ele>666.2</ele>
        <time>2017-08-08T06:36:59.000Z</time>
      </trkpt>
      <trkpt lat="43.20098667405546" lon="-6.920814989134669">
        <ele>666.8</ele>
        <time>2017-08-08T06:37:04.000Z</time>
      </trkpt>
      <trkpt lat="43.20090034045279" lon="-6.9209259655326605">
        <ele>667.8</ele>
        <time>2017-08-08T06:37:13.000Z</time>
      </trkpt>
      <trkpt lat="43.20082272402942" lon="-6.9210222736001015">
        <ele>668.8</ele>
        <time>2017-08-08T06:37:21.000Z</time>
      </trkpt>
      <trkpt lat="43.200735887512565" lon="-6.921120258048177">
        <ele>669.6</ele>
        <time>2017-08-08T06:37:30.000Z</time>
      </trkpt>
      <trkpt lat="43.20065902546048" lon="-6.921215979382396">
        <ele>670.6</ele>
        <time>2017-08-08T06:37:39.000Z</time>
      </trkpt>
      <trkpt lat="43.20056808181107" lon="-6.92132075317204">
        <ele>671.6</ele>
        <time>2017-08-08T06:37:49.000Z</time>
      </trkpt>
      <trkpt lat="43.20050940848887" lon="-6.921392837539315">
        <ele>672.4</ele>
        <time>2017-08-08T06:37:56.000Z</time>
      </trkpt>
      <trkpt lat="43.20050220005214" lon="-6.921407002955675">
        <ele>672.4</ele>
        <time>2017-08-08T06:37:57.000Z</time>
      </trkpt>
      <trkpt lat="43.20046020671725" lon="-6.921462994068861">
        <ele>673</ele>
        <time>2017-08-08T06:38:02.000Z</time>
      </trkpt>
      <trkpt lat="43.200429026037455" lon="-6.921511190012097">
        <ele>673.4</ele>
        <time>2017-08-08T06:38:07.000Z</time>
      </trkpt>
      <trkpt lat="43.20043254643679" lon="-6.921512950211763">
        <ele>673.4</ele>
        <time>2017-08-08T06:38:08.000Z</time>
      </trkpt>
      <trkpt lat="43.20038426667452" lon="-6.921548405662179">
        <ele>673.8</ele>
        <time>2017-08-08T06:38:49.000Z</time>
      </trkpt>
      <trkpt lat="43.20032869465649" lon="-6.921620490029454">
        <ele>673.8</ele>
        <time>2017-08-08T06:38:56.000Z</time>
      </trkpt>
      <trkpt lat="43.20025476627052" lon="-6.921662651002407">
        <ele>673.8</ele>
        <time>2017-08-08T06:39:05.000Z</time>
      </trkpt>
      <trkpt lat="43.200239930301905" lon="-6.921668015420437">
        <ele>673.8</ele>
        <time>2017-08-08T06:39:11.000Z</time>
      </trkpt>
      <trkpt lat="43.200239008292556" lon="-6.921669105067849">
        <ele>673.8</ele>
        <time>2017-08-08T06:39:23.000Z</time>
      </trkpt>
      <trkpt lat="43.200187627226114" lon="-6.92165007814765">
        <ele>673.8</ele>
        <time>2017-08-08T06:39:30.000Z</time>
      </trkpt>
      <trkpt lat="43.200084110721946" lon="-6.921660890802741">
        <ele>673.8</ele>
        <time>2017-08-08T06:39:38.000Z</time>
      </trkpt>
      <trkpt lat="43.19995100609958" lon="-6.92167597822845">
        <ele>673.8</ele>
        <time>2017-08-08T06:39:48.000Z</time>
      </trkpt>
      <trkpt lat="43.199798706918955" lon="-6.9216978549957275">
        <ele>673.4</ele>
        <time>2017-08-08T06:40:00.000Z</time>
      </trkpt>
      <trkpt lat="43.19965009577572" lon="-6.921733729541302">
        <ele>673</ele>
        <time>2017-08-08T06:40:12.000Z</time>
      </trkpt>
      <trkpt lat="43.19952671416104" lon="-6.921787457540631">
        <ele>672.8</ele>
        <time>2017-08-08T06:40:22.000Z</time>
      </trkpt>
      <trkpt lat="43.19941238500178" lon="-6.921845460310578">
        <ele>672.6</ele>
        <time>2017-08-08T06:40:31.000Z</time>
      </trkpt>
      <trkpt lat="43.19931557402015" lon="-6.921908911317587">
        <ele>672.4</ele>
        <time>2017-08-08T06:40:39.000Z</time>
      </trkpt>
      <trkpt lat="43.19919093511999" lon="-6.921978145837784">
        <ele>672.8</ele>
        <time>2017-08-08T06:40:49.000Z</time>
      </trkpt>
      <trkpt lat="43.19908205419779" lon="-6.922040255740285">
        <ele>673</ele>
        <time>2017-08-08T06:40:58.000Z</time>
      </trkpt>
      <trkpt lat="43.199021788313985" lon="-6.922097923234105">
        <ele>673.2</ele>
        <time>2017-08-08T06:41:04.000Z</time>
      </trkpt>
      <trkpt lat="43.19895012304187" lon="-6.922205463051796">
        <ele>673.6</ele>
        <time>2017-08-08T06:41:12.000Z</time>
      </trkpt>
      <trkpt lat="43.198884492740035" lon="-6.922325575724244">
        <ele>673.8</ele>
        <time>2017-08-08T06:41:20.000Z</time>
      </trkpt>
      <trkpt lat="43.198820538818836" lon="-6.92241920158267">
        <ele>674.2</ele>
        <time>2017-08-08T06:41:27.000Z</time>
      </trkpt>
      <trkpt lat="43.19872691296041" lon="-6.922483658418059">
        <ele>674.4</ele>
        <time>2017-08-08T06:41:35.000Z</time>
      </trkpt>
      <trkpt lat="43.198648039251566" lon="-6.922493884339929">
        <ele>674.6</ele>
        <time>2017-08-08T06:41:41.000Z</time>
      </trkpt>
      <trkpt lat="43.198535637930036" lon="-6.922532189637423">
        <ele>674.8</ele>
        <time>2017-08-08T06:41:50.000Z</time>
      </trkpt>
      <trkpt lat="43.198407646268606" lon="-6.922553898766637">
        <ele>675</ele>
        <time>2017-08-08T06:42:00.000Z</time>
      </trkpt>
      <trkpt lat="43.19831904955208" lon="-6.922532608732581">
        <ele>675.2</ele>
        <time>2017-08-08T06:42:07.000Z</time>
      </trkpt>
      <trkpt lat="43.198226261883974" lon="-6.922516180202365">
        <ele>674.8</ele>
        <time>2017-08-08T06:42:14.000Z</time>
      </trkpt>
      <trkpt lat="43.19820027798414" lon="-6.922526406124234">
        <ele>674.6</ele>
        <time>2017-08-08T06:42:16.000Z</time>
      </trkpt>
      <trkpt lat="43.19814579561353" lon="-6.922561107203364">
        <ele>674.6</ele>
        <time>2017-08-08T06:42:20.000Z</time>
      </trkpt>
      <trkpt lat="43.19813271984458" lon="-6.922570075839758">
        <ele>674.6</ele>
        <time>2017-08-08T06:42:21.000Z</time>
      </trkpt>
      <trkpt lat="43.19805418141186" lon="-6.922639980912209">
        <ele>674.8</ele>
        <time>2017-08-08T06:42:28.000Z</time>
      </trkpt>
      <trkpt lat="43.19804663769901" lon="-6.922658504918218">
        <ele>674.8</ele>
        <time>2017-08-08T06:42:29.000Z</time>
      </trkpt>
      <trkpt lat="43.19799684919417" lon="-6.922695636749268">
        <ele>674.8</ele>
        <time>2017-08-08T06:42:33.000Z</time>
      </trkpt>
      <trkpt lat="43.19798310287297" lon="-6.922704102471471">
        <ele>674.8</ele>
        <time>2017-08-08T06:42:34.000Z</time>
      </trkpt>
      <trkpt lat="43.197859888896346" lon="-6.9227940402925014">
        <ele>674.8</ele>
        <time>2017-08-08T06:42:44.000Z</time>
      </trkpt>
      <trkpt lat="43.19773692637682" lon="-6.922879535704851">
        <ele>674.8</ele>
        <time>2017-08-08T06:42:54.000Z</time>
      </trkpt>
      <trkpt lat="43.197625363245606" lon="-6.922955559566617">
        <ele>674.6</ele>
        <time>2017-08-08T06:43:03.000Z</time>
      </trkpt>
      <trkpt lat="43.1974961142987" lon="-6.923026302829385">
        <ele>676.4</ele>
        <time>2017-08-08T06:43:13.000Z</time>
      </trkpt>
      <trkpt lat="43.197361417114735" lon="-6.923048682510853">
        <ele>678.2</ele>
        <time>2017-08-08T06:43:23.000Z</time>
      </trkpt>
      <trkpt lat="43.19727164693177" lon="-6.92305589094758">
        <ele>679.2</ele>
        <time>2017-08-08T06:43:30.000Z</time>
      </trkpt>
      <trkpt lat="43.197199143469334" lon="-6.9230687990784645">
        <ele>680.2</ele>
        <time>2017-08-08T06:43:36.000Z</time>
      </trkpt>
      <trkpt lat="43.1971940305084" lon="-6.92306418903172">
        <ele>680.2</ele>
        <time>2017-08-08T06:43:37.000Z</time>
      </trkpt>
      <trkpt lat="43.19714709185064" lon="-6.9230602495372295">
        <ele>680.8</ele>
        <time>2017-08-08T06:43:41.000Z</time>
      </trkpt>
      <trkpt lat="43.197061847895384" lon="-6.923055136576295">
        <ele>681.8</ele>
        <time>2017-08-08T06:43:48.000Z</time>
      </trkpt>
      <trkpt lat="43.19697191007435" lon="-6.92305195145309">
        <ele>682.8</ele>
        <time>2017-08-08T06:43:56.000Z</time>
      </trkpt>
      <trkpt lat="43.19696377962828" lon="-6.923049436882138">
        <ele>682.8</ele>
        <time>2017-08-08T06:43:57.000Z</time>
      </trkpt>
      <trkpt lat="43.19690770469606" lon="-6.923045413568616">
        <ele>682.8</ele>
        <time>2017-08-08T06:44:02.000Z</time>
      </trkpt>
      <trkpt lat="43.19689412601292" lon="-6.923041054978967">
        <ele>682.8</ele>
        <time>2017-08-08T06:44:03.000Z</time>
      </trkpt>
      <trkpt lat="43.19677518680692" lon="-6.92302999086678">
        <ele>682.8</ele>
        <time>2017-08-08T06:44:11.000Z</time>
      </trkpt>
      <trkpt lat="43.196638310328126" lon="-6.923020854592323">
        <ele>684.6</ele>
        <time>2017-08-08T06:44:20.000Z</time>
      </trkpt>
      <trkpt lat="43.196522388607264" lon="-6.923004761338234">
        <ele>685.8</ele>
        <time>2017-08-08T06:44:28.000Z</time>
      </trkpt>
      <trkpt lat="43.19645231589675" lon="-6.922990679740906">
        <ele>686.6</ele>
        <time>2017-08-08T06:44:33.000Z</time>
      </trkpt>
      <trkpt lat="43.19639825262129" lon="-6.922972407191992">
        <ele>687</ele>
        <time>2017-08-08T06:44:37.000Z</time>
      </trkpt>
      <trkpt lat="43.196298675611615" lon="-6.922908620908856">
        <ele>687.2</ele>
        <time>2017-08-08T06:44:45.000Z</time>
      </trkpt>
      <trkpt lat="43.19621393457055" lon="-6.922843744978309">
        <ele>687.4</ele>
        <time>2017-08-08T06:44:53.000Z</time>
      </trkpt>
      <trkpt lat="43.19617344997823" lon="-6.922820108011365">
        <ele>687.6</ele>
        <time>2017-08-08T06:44:57.000Z</time>
      </trkpt>
      <trkpt lat="43.196172108873725" lon="-6.92281155847013">
        <ele>687.4</ele>
        <time>2017-08-08T06:44:59.000Z</time>
      </trkpt>
      <trkpt lat="43.19615140557289" lon="-6.922798817977309">
        <ele>687.6</ele>
        <time>2017-08-08T06:45:05.000Z</time>
      </trkpt>
      <trkpt lat="43.196096420288086" lon="-6.922754645347595">
        <ele>687.6</ele>
        <time>2017-08-08T06:45:12.000Z</time>
      </trkpt>
      <trkpt lat="43.19607865065336" lon="-6.9227345287799835">
        <ele>687.4</ele>
        <time>2017-08-08T06:45:15.000Z</time>
      </trkpt>
      <trkpt lat="43.19607119075954" lon="-6.922727320343256">
        <ele>687.4</ele>
        <time>2017-08-08T06:45:16.000Z</time>
      </trkpt>
      <trkpt lat="43.19599315524101" lon="-6.922678789123893">
        <ele>687.8</ele>
        <time>2017-08-08T06:45:23.000Z</time>
      </trkpt>
      <trkpt lat="43.19592266343534" lon="-6.9226426631212234">
        <ele>688</ele>
        <time>2017-08-08T06:45:30.000Z</time>
      </trkpt>
      <trkpt lat="43.1958540994674" lon="-6.922608381137252">
        <ele>688.4</ele>
        <time>2017-08-08T06:45:37.000Z</time>
      </trkpt>
      <trkpt lat="43.195793414488435" lon="-6.92256186157465">
        <ele>688.4</ele>
        <time>2017-08-08T06:45:44.000Z</time>
      </trkpt>
      <trkpt lat="43.19578193128109" lon="-6.922556161880493">
        <ele>688.4</ele>
        <time>2017-08-08T06:45:45.000Z</time>
      </trkpt>
      <trkpt lat="43.19573096930981" lon="-6.922530177980661">
        <ele>688.8</ele>
        <time>2017-08-08T06:45:50.000Z</time>
      </trkpt>
      <trkpt lat="43.19565637037158" lon="-6.922488436102867">
        <ele>689</ele>
        <time>2017-08-08T06:45:56.000Z</time>
      </trkpt>
      <trkpt lat="43.19559375755489" lon="-6.922444263473153">
        <ele>689.2</ele>
        <time>2017-08-08T06:46:02.000Z</time>
      </trkpt>
      <trkpt lat="43.1955343298614" lon="-6.922437138855457">
        <ele>690</ele>
        <time>2017-08-08T06:46:07.000Z</time>
      </trkpt>
      <trkpt lat="43.19551035761833" lon="-6.922430098056793">
        <ele>690.2</ele>
        <time>2017-08-08T06:46:09.000Z</time>
      </trkpt>
      <trkpt lat="43.19549753330648" lon="-6.922414675354958">
        <ele>690.2</ele>
        <time>2017-08-08T06:46:11.000Z</time>
      </trkpt>
      <trkpt lat="43.19547641091049" lon="-6.922409562394023">
        <ele>690.4</ele>
        <time>2017-08-08T06:46:13.000Z</time>
      </trkpt>
      <trkpt lat="43.195450846105814" lon="-6.922391708940268">
        <ele>690.4</ele>
        <time>2017-08-08T06:46:16.000Z</time>
      </trkpt>
      <trkpt lat="43.195438189432025" lon="-6.922385590150952">
        <ele>690.4</ele>
        <time>2017-08-08T06:46:19.000Z</time>
      </trkpt>
      <trkpt lat="43.19537876173854" lon="-6.922370670363307">
        <ele>690.8</ele>
        <time>2017-08-08T06:46:25.000Z</time>
      </trkpt>
      <trkpt lat="43.19536761380732" lon="-6.922362204641104">
        <ele>690.8</ele>
        <time>2017-08-08T06:46:26.000Z</time>
      </trkpt>
      <trkpt lat="43.195326793938875" lon="-6.922334041446447">
        <ele>690.8</ele>
        <time>2017-08-08T06:46:30.000Z</time>
      </trkpt>
      <trkpt lat="43.19531824439764" lon="-6.922327252104878">
        <ele>690.8</ele>
        <time>2017-08-08T06:46:31.000Z</time>
      </trkpt>
      <trkpt lat="43.195259822532535" lon="-6.922305207699537">
        <ele>691.2</ele>
        <time>2017-08-08T06:46:37.000Z</time>
      </trkpt>
      <trkpt lat="43.19522897712886" lon="-6.9222860131412745">
        <ele>691.2</ele>
        <time>2017-08-08T06:46:40.000Z</time>
      </trkpt>
      <trkpt lat="43.19520249031484" lon="-6.922271680086851">
        <ele>691.4</ele>
        <time>2017-08-08T06:46:43.000Z</time>
      </trkpt>
      <trkpt lat="43.195181200280786" lon="-6.922262040898204">
        <ele>691.8</ele>
        <time>2017-08-08T06:46:45.000Z</time>
      </trkpt>
      <trkpt lat="43.19512671791017" lon="-6.92224033176899">
        <ele>692.4</ele>
        <time>2017-08-08T06:46:51.000Z</time>
      </trkpt>
      <trkpt lat="43.19504574872553" lon="-6.922206217423081">
        <ele>692.8</ele>
        <time>2017-08-08T06:46:58.000Z</time>
      </trkpt>
      <trkpt lat="43.19497131742537" lon="-6.922176880761981">
        <ele>693.2</ele>
        <time>2017-08-08T06:47:05.000Z</time>
      </trkpt>
      <trkpt lat="43.194902669638395" lon="-6.922153076156974">
        <ele>693.4</ele>
        <time>2017-08-08T06:47:12.000Z</time>
      </trkpt>
      <trkpt lat="43.19486671127379" lon="-6.9221381563693285">
        <ele>693.6</ele>
        <time>2017-08-08T06:47:16.000Z</time>
      </trkpt>
      <trkpt lat="43.194825388491154" lon="-6.922122230753303">
        <ele>693.8</ele>
        <time>2017-08-08T06:47:20.000Z</time>
      </trkpt>
      <trkpt lat="43.194755064323545" lon="-6.922103790566325">
        <ele>694.2</ele>
        <time>2017-08-08T06:47:26.000Z</time>
      </trkpt>
      <trkpt lat="43.19469471462071" lon="-6.92209524102509">
        <ele>694.6</ele>
        <time>2017-08-08T06:47:32.000Z</time>
      </trkpt>
      <trkpt lat="43.194631934165955" lon="-6.9220947381109">
        <ele>695.2</ele>
        <time>2017-08-08T06:47:37.000Z</time>
      </trkpt>
      <trkpt lat="43.194618271663785" lon="-6.9220913015306">
        <ele>695.2</ele>
        <time>2017-08-08T06:47:38.000Z</time>
      </trkpt>
      <trkpt lat="43.194592371582985" lon="-6.922099431976676">
        <ele>695.6</ele>
        <time>2017-08-08T06:47:40.000Z</time>
      </trkpt>
      <trkpt lat="43.1945517193526" lon="-6.922095408663154">
        <ele>695.8</ele>
        <time>2017-08-08T06:47:43.000Z</time>
      </trkpt>
      <trkpt lat="43.1944914534688" lon="-6.922099264338613">
        <ele>696.2</ele>
        <time>2017-08-08T06:47:48.000Z</time>
      </trkpt>
      <trkpt lat="43.19446857087314" lon="-6.9220986776053905">
        <ele>696.2</ele>
        <time>2017-08-08T06:47:50.000Z</time>
      </trkpt>
      <trkpt lat="43.1943791359663" lon="-6.922099767252803">
        <ele>696.8</ele>
        <time>2017-08-08T06:47:57.000Z</time>
      </trkpt>
      <trkpt lat="43.19429422728717" lon="-6.922104544937611">
        <ele>697.2</ele>
        <time>2017-08-08T06:48:04.000Z</time>
      </trkpt>
      <trkpt lat="43.19422549568117" lon="-6.922121308743954">
        <ele>697.6</ele>
        <time>2017-08-08T06:48:10.000Z</time>
      </trkpt>
      <trkpt lat="43.19420965388417" lon="-6.922122566029429">
        <ele>697.6</ele>
        <time>2017-08-08T06:48:11.000Z</time>
      </trkpt>
      <trkpt lat="43.194097923114896" lon="-6.922142514958978">
        <ele>698</ele>
        <time>2017-08-08T06:48:19.000Z</time>
      </trkpt>
      <trkpt lat="43.19397093728185" lon="-6.922182580456138">
        <ele>698.8</ele>
        <time>2017-08-08T06:48:28.000Z</time>
      </trkpt>
      <trkpt lat="43.193866750225425" lon="-6.922222729772329">
        <ele>699.6</ele>
        <time>2017-08-08T06:48:36.000Z</time>
      </trkpt>
      <trkpt lat="43.19378335028887" lon="-6.922246953472495">
        <ele>700</ele>
        <time>2017-08-08T06:48:42.000Z</time>
      </trkpt>
      <trkpt lat="43.193769017234445" lon="-6.922259274870157">
        <ele>700.2</ele>
        <time>2017-08-08T06:48:43.000Z</time>
      </trkpt>
      <trkpt lat="43.19372124038637" lon="-6.922266315668821">
        <ele>700.4</ele>
        <time>2017-08-08T06:48:47.000Z</time>
      </trkpt>
      <trkpt lat="43.19368042051792" lon="-6.922272350639105">
        <ele>700.4</ele>
        <time>2017-08-08T06:48:50.000Z</time>
      </trkpt>
      <trkpt lat="43.19367287680507" lon="-6.9222786370664835">
        <ele>700.6</ele>
        <time>2017-08-08T06:48:51.000Z</time>
      </trkpt>
      <trkpt lat="43.1936401873827" lon="-6.9222901202738285">
        <ele>700.8</ele>
        <time>2017-08-08T06:48:54.000Z</time>
      </trkpt>
      <trkpt lat="43.19357866421342" lon="-6.922298418357968">
        <ele>701</ele>
        <time>2017-08-08T06:48:58.000Z</time>
      </trkpt>
      <trkpt lat="43.193496856838465" lon="-6.922321803867817">
        <ele>701.4</ele>
        <time>2017-08-08T06:49:05.000Z</time>
      </trkpt>
      <trkpt lat="43.19343365728855" lon="-6.922334963455796">
        <ele>701.6</ele>
        <time>2017-08-08T06:49:10.000Z</time>
      </trkpt>
      <trkpt lat="43.19339887239039" lon="-6.922335969284177">
        <ele>701.8</ele>
        <time>2017-08-08T06:49:13.000Z</time>
      </trkpt>
      <trkpt lat="43.193341959267855" lon="-6.922346614301205">
        <ele>702.2</ele>
        <time>2017-08-08T06:49:18.000Z</time>
      </trkpt>
      <trkpt lat="43.19326300173998" lon="-6.922362456098199">
        <ele>703</ele>
        <time>2017-08-08T06:49:25.000Z</time>
      </trkpt>
      <trkpt lat="43.193250093609095" lon="-6.922365389764309">
        <ele>703.2</ele>
        <time>2017-08-08T06:49:26.000Z</time>
      </trkpt>
      <trkpt lat="43.19318337365985" lon="-6.922378297895193">
        <ele>703.8</ele>
        <time>2017-08-08T06:49:32.000Z</time>
      </trkpt>
      <trkpt lat="43.19317021407187" lon="-6.922380728647113">
        <ele>703.8</ele>
        <time>2017-08-08T06:49:33.000Z</time>
      </trkpt>
      <trkpt lat="43.193108355626464" lon="-6.922383829951286">
        <ele>704.2</ele>
        <time>2017-08-08T06:49:38.000Z</time>
      </trkpt>
      <trkpt lat="43.193030739203095" lon="-6.922390116378665">
        <ele>704.8</ele>
        <time>2017-08-08T06:49:44.000Z</time>
      </trkpt>
      <trkpt lat="43.19296016357839" lon="-6.9223761186003685">
        <ele>704.8</ele>
        <time>2017-08-08T06:49:50.000Z</time>
      </trkpt>
      <trkpt lat="43.192895371466875" lon="-6.9223720114678144">
        <ele>705</ele>
        <time>2017-08-08T06:49:55.000Z</time>
      </trkpt>
      <trkpt lat="43.1928232870996" lon="-6.922370418906212">
        <ele>705.2</ele>
        <time>2017-08-08T06:50:00.000Z</time>
      </trkpt>
      <trkpt lat="43.19281063042581" lon="-6.922371005639434">
        <ele>705.4</ele>
        <time>2017-08-08T06:50:01.000Z</time>
      </trkpt>
      <trkpt lat="43.192724296823144" lon="-6.92236396484077">
        <ele>705.6</ele>
        <time>2017-08-08T06:50:07.000Z</time>
      </trkpt>
      <trkpt lat="43.192674005404115" lon="-6.922356924042106">
        <ele>705.8</ele>
        <time>2017-08-08T06:50:11.000Z</time>
      </trkpt>
      <trkpt lat="43.192641986534" lon="-6.922352816909552">
        <ele>705.8</ele>
        <time>2017-08-08T06:50:14.000Z</time>
      </trkpt>
      <trkpt lat="43.192603178322315" lon="-6.922354074195027">
        <ele>706</ele>
        <time>2017-08-08T06:50:17.000Z</time>
      </trkpt>
      <trkpt lat="43.192569483071566" lon="-6.922358013689518">
        <ele>706.2</ele>
        <time>2017-08-08T06:50:20.000Z</time>
      </trkpt>
      <trkpt lat="43.192498069256544" lon="-6.922385506331921">
        <ele>707</ele>
        <time>2017-08-08T06:50:26.000Z</time>
      </trkpt>
      <trkpt lat="43.192429756745696" lon="-6.922396654263139">
        <ele>707.4</ele>
        <time>2017-08-08T06:50:31.000Z</time>
      </trkpt>
      <trkpt lat="43.192325653508306" lon="-6.922405790537596">
        <ele>707.8</ele>
        <time>2017-08-08T06:50:38.000Z</time>
      </trkpt>
      <trkpt lat="43.192201014608145" lon="-6.92242699675262">
        <ele>708.6</ele>
        <time>2017-08-08T06:50:46.000Z</time>
      </trkpt>
      <trkpt lat="43.19207997992635" lon="-6.922458345070481">
        <ele>709.4</ele>
        <time>2017-08-08T06:50:54.000Z</time>
      </trkpt>
      <trkpt lat="43.19199314340949" lon="-6.922475779429078">
        <ele>710</ele>
        <time>2017-08-08T06:51:01.000Z</time>
      </trkpt>
      <trkpt lat="43.1919115036726" lon="-6.9224827364087105">
        <ele>710.4</ele>
        <time>2017-08-08T06:51:07.000Z</time>
      </trkpt>
      <trkpt lat="43.19180639460683" lon="-6.922497404739261">
        <ele>711</ele>
        <time>2017-08-08T06:51:15.000Z</time>
      </trkpt>
      <trkpt lat="43.1916903052479" lon="-6.922511989250779">
        <ele>711.4</ele>
        <time>2017-08-08T06:51:23.000Z</time>
      </trkpt>
      <trkpt lat="43.1915903929621" lon="-6.922522634267807">
        <ele>711.6</ele>
        <time>2017-08-08T06:51:30.000Z</time>
      </trkpt>
      <trkpt lat="43.19150020368397" lon="-6.922530848532915">
        <ele>711.8</ele>
        <time>2017-08-08T06:51:36.000Z</time>
      </trkpt>
      <trkpt lat="43.191416300833225" lon="-6.92253990098834">
        <ele>711.8</ele>
        <time>2017-08-08T06:51:42.000Z</time>
      </trkpt>
      <trkpt lat="43.19131295196712" lon="-6.922565633431077">
        <ele>712.4</ele>
        <time>2017-08-08T06:51:50.000Z</time>
      </trkpt>
      <trkpt lat="43.19122301414609" lon="-6.9226129073649645">
        <ele>713.4</ele>
        <time>2017-08-08T06:51:57.000Z</time>
      </trkpt>
      <trkpt lat="43.1911292206496" lon="-6.922634616494179">
        <ele>713.8</ele>
        <time>2017-08-08T06:52:04.000Z</time>
      </trkpt>
      <trkpt lat="43.19103190675378" lon="-6.922663114964962">
        <ele>714.4</ele>
        <time>2017-08-08T06:52:11.000Z</time>
      </trkpt>
      <trkpt lat="43.19096803665161" lon="-6.922692367807031">
        <ele>715</ele>
        <time>2017-08-08T06:52:16.000Z</time>
      </trkpt>
      <trkpt lat="43.19093869999051" lon="-6.922698738053441">
        <ele>715.2</ele>
        <time>2017-08-08T06:52:18.000Z</time>
      </trkpt>
      <trkpt lat="43.19081800058484" lon="-6.922753807157278">
        <ele>716.6</ele>
        <time>2017-08-08T06:52:27.000Z</time>
      </trkpt>
      <trkpt lat="43.19077332504094" lon="-6.922759339213371">
        <ele>716.8</ele>
        <time>2017-08-08T06:52:30.000Z</time>
      </trkpt>
      <trkpt lat="43.19074566476047" lon="-6.922770654782653">
        <ele>717</ele>
        <time>2017-08-08T06:52:32.000Z</time>
      </trkpt>
      <trkpt lat="43.19069227203727" lon="-6.922778198495507">
        <ele>717.4</ele>
        <time>2017-08-08T06:52:36.000Z</time>
      </trkpt>
      <trkpt lat="43.190667713060975" lon="-6.922767302021384">
        <ele>717</ele>
        <time>2017-08-08T06:52:38.000Z</time>
      </trkpt>
      <trkpt lat="43.190598813816905" lon="-6.922777025029063">
        <ele>717.4</ele>
        <time>2017-08-08T06:52:44.000Z</time>
      </trkpt>
      <trkpt lat="43.19050443358719" lon="-6.922812480479479">
        <ele>718.2</ele>
        <time>2017-08-08T06:52:51.000Z</time>
      </trkpt>
      <trkpt lat="43.19040686823428" lon="-6.922852294519544">
        <ele>719.2</ele>
        <time>2017-08-08T06:52:57.000Z</time>
      </trkpt>
      <trkpt lat="43.190286085009575" lon="-6.922933934256434">
        <ele>721.2</ele>
        <time>2017-08-08T06:53:06.000Z</time>
      </trkpt>
      <trkpt lat="43.19016513414681" lon="-6.923017585650086">
        <ele>723.2</ele>
        <time>2017-08-08T06:53:15.000Z</time>
      </trkpt>
      <trkpt lat="43.19008458405733" lon="-6.923061171546578">
        <ele>724.4</ele>
        <time>2017-08-08T06:53:21.000Z</time>
      </trkpt>
      <trkpt lat="43.19001015275717" lon="-6.9230802822858095">
        <ele>724.8</ele>
        <time>2017-08-08T06:53:27.000Z</time>
      </trkpt>
      <trkpt lat="43.189901523292065" lon="-6.923093777149916">
        <ele>725.2</ele>
        <time>2017-08-08T06:53:35.000Z</time>
      </trkpt>
      <trkpt lat="43.18978467956185" lon="-6.92311598919332">
        <ele>725.8</ele>
        <time>2017-08-08T06:53:43.000Z</time>
      </trkpt>
      <trkpt lat="43.18962810561061" lon="-6.923153288662434">
        <ele>726.8</ele>
        <time>2017-08-08T06:53:54.000Z</time>
      </trkpt>
      <trkpt lat="43.18948561325669" lon="-6.923183044418693">
        <ele>727.6</ele>
        <time>2017-08-08T06:54:04.000Z</time>
      </trkpt>
      <trkpt lat="43.18937019445002" lon="-6.923162508755922">
        <ele>727</ele>
        <time>2017-08-08T06:54:12.000Z</time>
      </trkpt>
      <trkpt lat="43.189266342669725" lon="-6.923116659745574">
        <ele>726.2</ele>
        <time>2017-08-08T06:54:20.000Z</time>
      </trkpt>
      <trkpt lat="43.189185205847025" lon="-6.923074331134558">
        <ele>725.6</ele>
        <time>2017-08-08T06:54:26.000Z</time>
      </trkpt>
      <trkpt lat="43.18917389027774" lon="-6.923069218173623">
        <ele>725.6</ele>
        <time>2017-08-08T06:54:27.000Z</time>
      </trkpt>
      <trkpt lat="43.18907498382032" lon="-6.923036193475127">
        <ele>725.4</ele>
        <time>2017-08-08T06:54:34.000Z</time>
      </trkpt>
      <trkpt lat="43.18899870850146" lon="-6.922985482960939">
        <ele>724.6</ele>
        <time>2017-08-08T06:54:40.000Z</time>
      </trkpt>
      <trkpt lat="43.188923774287105" lon="-6.922953631728888">
        <ele>724.4</ele>
        <time>2017-08-08T06:54:45.000Z</time>
      </trkpt>
      <trkpt lat="43.1888481695205" lon="-6.922912644222379">
        <ele>723.8</ele>
        <time>2017-08-08T06:54:52.000Z</time>
      </trkpt>
      <trkpt lat="43.18878983147442" lon="-6.922892611473799">
        <ele>723.6</ele>
        <time>2017-08-08T06:54:56.000Z</time>
      </trkpt>
      <trkpt lat="43.18867835216224" lon="-6.922840224578977">
        <ele>723.6</ele>
        <time>2017-08-08T06:55:04.000Z</time>
      </trkpt>
      <trkpt lat="43.18858740851283" lon="-6.922834273427725">
        <ele>724.2</ele>
        <time>2017-08-08T06:55:10.000Z</time>
      </trkpt>
      <trkpt lat="43.188492776826024" lon="-6.922828322276473">
        <ele>724.8</ele>
        <time>2017-08-08T06:55:17.000Z</time>
      </trkpt>
      <trkpt lat="43.188402922824025" lon="-6.9228290766477585">
        <ele>725.2</ele>
        <time>2017-08-08T06:55:24.000Z</time>
      </trkpt>
      <trkpt lat="43.18831390701234" lon="-6.9228125642985106">
        <ele>724.6</ele>
        <time>2017-08-08T06:55:31.000Z</time>
      </trkpt>
      <trkpt lat="43.18826135247946" lon="-6.9227981474250555">
        <ele>724.4</ele>
        <time>2017-08-08T06:55:36.000Z</time>
      </trkpt>
      <trkpt lat="43.188174264505506" lon="-6.922795129939914">
        <ele>724.2</ele>
        <time>2017-08-08T06:55:43.000Z</time>
      </trkpt>
      <trkpt lat="43.18813042715192" lon="-6.922801584005356">
        <ele>724.2</ele>
        <time>2017-08-08T06:55:47.000Z</time>
      </trkpt>
      <trkpt lat="43.188067730516195" lon="-6.922803511843085">
        <ele>724.2</ele>
        <time>2017-08-08T06:55:52.000Z</time>
      </trkpt>
      <trkpt lat="43.18796438165009" lon="-6.922810468822718">
        <ele>724.2</ele>
        <time>2017-08-08T06:56:00.000Z</time>
      </trkpt>
      <trkpt lat="43.18794468417764" lon="-6.922814911231399">
        <ele>724.2</ele>
        <time>2017-08-08T06:56:02.000Z</time>
      </trkpt>
      <trkpt lat="43.18788852542639" lon="-6.922817509621382">
        <ele>724</ele>
        <time>2017-08-08T06:56:06.000Z</time>
      </trkpt>
      <trkpt lat="43.1878740247339" lon="-6.922819269821048">
        <ele>724.2</ele>
        <time>2017-08-08T06:56:07.000Z</time>
      </trkpt>
      <trkpt lat="43.18786094896495" lon="-6.9228290766477585">
        <ele>724.2</ele>
        <time>2017-08-08T06:56:08.000Z</time>
      </trkpt>
      <trkpt lat="43.187803365290165" lon="-6.922845588997006">
        <ele>724.6</ele>
        <time>2017-08-08T06:56:12.000Z</time>
      </trkpt>
      <trkpt lat="43.187787272036076" lon="-6.922850785776973">
        <ele>724.6</ele>
        <time>2017-08-08T06:56:13.000Z</time>
      </trkpt>
      <trkpt lat="43.18770311772823" lon="-6.922879619523883">
        <ele>725</ele>
        <time>2017-08-08T06:56:19.000Z</time>
      </trkpt>
      <trkpt lat="43.187597673386335" lon="-6.922910800203681">
        <ele>725.4</ele>
        <time>2017-08-08T06:56:26.000Z</time>
      </trkpt>
      <trkpt lat="43.18749759346247" lon="-6.922949608415365">
        <ele>725.8</ele>
        <time>2017-08-08T06:56:33.000Z</time>
      </trkpt>
      <trkpt lat="43.18741377443075" lon="-6.922974167391658">
        <ele>726</ele>
        <time>2017-08-08T06:56:40.000Z</time>
      </trkpt>
      <trkpt lat="43.187331380322576" lon="-6.9230028335005045">
        <ele>726.4</ele>
        <time>2017-08-08T06:56:45.000Z</time>
      </trkpt>
      <trkpt lat="43.18730229511857" lon="-6.923006605356932">
        <ele>726.2</ele>
        <time>2017-08-08T06:56:47.000Z</time>
      </trkpt>
      <trkpt lat="43.18724311888218" lon="-6.923025716096163">
        <ele>726.4</ele>
        <time>2017-08-08T06:56:51.000Z</time>
      </trkpt>
      <trkpt lat="43.18718587048352" lon="-6.9230543822050095">
        <ele>726.8</ele>
        <time>2017-08-08T06:56:55.000Z</time>
      </trkpt>
      <trkpt lat="43.187146224081516" lon="-6.923065781593323">
        <ele>726.8</ele>
        <time>2017-08-08T06:56:58.000Z</time>
      </trkpt>
      <trkpt lat="43.18706299178302" lon="-6.923103500157595">
        <ele>727.4</ele>
        <time>2017-08-08T06:57:05.000Z</time>
      </trkpt>
      <trkpt lat="43.18697389215231" lon="-6.923119006678462">
        <ele>727.2</ele>
        <time>2017-08-08T06:57:12.000Z</time>
      </trkpt>
      <trkpt lat="43.18692997097969" lon="-6.923111882060766">
        <ele>726.8</ele>
        <time>2017-08-08T06:57:15.000Z</time>
      </trkpt>
      <trkpt lat="43.186865262687206" lon="-6.923098303377628">
        <ele>726.2</ele>
        <time>2017-08-08T06:57:19.000Z</time>
      </trkpt>
      <trkpt lat="43.18681254051626" lon="-6.923101739957929">
        <ele>726</ele>
        <time>2017-08-08T06:57:23.000Z</time>
      </trkpt>
      <trkpt lat="43.18678529933095" lon="-6.923103919252753">
        <ele>726</ele>
        <time>2017-08-08T06:57:25.000Z</time>
      </trkpt>
      <trkpt lat="43.18671053275466" lon="-6.92310911603272">
        <ele>725.8</ele>
        <time>2017-08-08T06:57:30.000Z</time>
      </trkpt>
      <trkpt lat="43.18669678643346" lon="-6.9231117982417345">
        <ele>725.8</ele>
        <time>2017-08-08T06:57:31.000Z</time>
      </trkpt>
      <trkpt lat="43.186606764793396" lon="-6.923122275620699">
        <ele>725.8</ele>
        <time>2017-08-08T06:57:37.000Z</time>
      </trkpt>
      <trkpt lat="43.18659377284348" lon="-6.923123616725206">
        <ele>725.8</ele>
        <time>2017-08-08T06:57:38.000Z</time>
      </trkpt>
      <trkpt lat="43.18657625466585" lon="-6.923118503764272">
        <ele>725.6</ele>
        <time>2017-08-08T06:57:39.000Z</time>
      </trkpt>
      <trkpt lat="43.186508947983384" lon="-6.9231209345161915">
        <ele>725.4</ele>
        <time>2017-08-08T06:57:43.000Z</time>
      </trkpt>
      <trkpt lat="43.18641691468656" lon="-6.92313845269382">
        <ele>725.4</ele>
        <time>2017-08-08T06:57:50.000Z</time>
      </trkpt>
      <trkpt lat="43.18630166351795" lon="-6.923142811283469">
        <ele>725.2</ele>
        <time>2017-08-08T06:57:58.000Z</time>
      </trkpt>
      <trkpt lat="43.1862645316869" lon="-6.923148091882467">
        <ele>725.2</ele>
        <time>2017-08-08T06:58:01.000Z</time>
      </trkpt>
      <trkpt lat="43.1862283218652" lon="-6.923139961436391">
        <ele>724.8</ele>
        <time>2017-08-08T06:58:04.000Z</time>
      </trkpt>
      <trkpt lat="43.186103850603104" lon="-6.923119425773621">
        <ele>723.8</ele>
        <time>2017-08-08T06:58:13.000Z</time>
      </trkpt>
      <trkpt lat="43.18606127053499" lon="-6.923108361661434">
        <ele>723.6</ele>
        <time>2017-08-08T06:58:16.000Z</time>
      </trkpt>
      <trkpt lat="43.18603704683483" lon="-6.923101153224707">
        <ele>723.4</ele>
        <time>2017-08-08T06:58:18.000Z</time>
      </trkpt>
      <trkpt lat="43.185954401269555" lon="-6.923076091334224">
        <ele>723</ele>
        <time>2017-08-08T06:58:25.000Z</time>
      </trkpt>
      <trkpt lat="43.18594099022448" lon="-6.923073241487145">
        <ele>723</ele>
        <time>2017-08-08T06:58:26.000Z</time>
      </trkpt>
      <trkpt lat="43.18586119450629" lon="-6.923042479902506">
        <ele>722.8</ele>
        <time>2017-08-08T06:58:32.000Z</time>
      </trkpt>
      <trkpt lat="43.18576321005821" lon="-6.9229954574257135">
        <ele>722.4</ele>
        <time>2017-08-08T06:58:39.000Z</time>
      </trkpt>
      <trkpt lat="43.18566497415304" lon="-6.922965785488486">
        <ele>722.4</ele>
        <time>2017-08-08T06:58:46.000Z</time>
      </trkpt>
      <trkpt lat="43.18555726669729" lon="-6.922934940084815">
        <ele>722.6</ele>
        <time>2017-08-08T06:58:53.000Z</time>
      </trkpt>
      <trkpt lat="43.18548157811165" lon="-6.922913063317537">
        <ele>722.6</ele>
        <time>2017-08-08T06:58:58.000Z</time>
      </trkpt>
      <trkpt lat="43.18529365584254" lon="-6.922875763848424">
        <ele>722.8</ele>
        <time>2017-08-08T06:59:10.000Z</time>
      </trkpt>
      <trkpt lat="43.18517681211233" lon="-6.922862268984318">
        <ele>723</ele>
        <time>2017-08-08T06:59:18.000Z</time>
      </trkpt>
      <trkpt lat="43.18504278548062" lon="-6.9228697288781404">
        <ele>723.4</ele>
        <time>2017-08-08T06:59:27.000Z</time>
      </trkpt>
      <trkpt lat="43.18488545715809" lon="-6.922887330874801">
        <ele>723.6</ele>
        <time>2017-08-08T06:59:38.000Z</time>
      </trkpt>
      <trkpt lat="43.184793423861265" lon="-6.9228755962103605">
        <ele>723.2</ele>
        <time>2017-08-08T06:59:45.000Z</time>
      </trkpt>
      <trkpt lat="43.18471295759082" lon="-6.922877440229058">
        <ele>723.2</ele>
        <time>2017-08-08T06:59:52.000Z</time>
      </trkpt>
      <trkpt lat="43.18468655459583" lon="-6.922875344753265">
        <ele>723.2</ele>
        <time>2017-08-08T06:59:54.000Z</time>
      </trkpt>
      <trkpt lat="43.184641459956765" lon="-6.922870734706521">
        <ele>723</ele>
        <time>2017-08-08T06:59:58.000Z</time>
      </trkpt>
      <trkpt lat="43.1845688726753" lon="-6.92287752404809">
        <ele>723</ele>
        <time>2017-08-08T07:00:04.000Z</time>
      </trkpt>
      <trkpt lat="43.18454087711871" lon="-6.922875177115202">
        <ele>723</ele>
        <time>2017-08-08T07:00:06.000Z</time>
      </trkpt>
      <trkpt lat="43.18445756100118" lon="-6.92286629229784">
        <ele>722.6</ele>
        <time>2017-08-08T07:00:12.000Z</time>
      </trkpt>
      <trkpt lat="43.18439545109868" lon="-6.922855479642749">
        <ele>722.4</ele>
        <time>2017-08-08T07:00:17.000Z</time>
      </trkpt>
      <trkpt lat="43.184313559904695" lon="-6.922847600653768">
        <ele>722.2</ele>
        <time>2017-08-08T07:00:24.000Z</time>
      </trkpt>
      <trkpt lat="43.18425530567765" lon="-6.922830082476139">
        <ele>721.8</ele>
        <time>2017-08-08T07:00:28.000Z</time>
      </trkpt>
      <trkpt lat="43.18424298427999" lon="-6.922829914838076">
        <ele>721.8</ele>
        <time>2017-08-08T07:00:29.000Z</time>
      </trkpt>
      <trkpt lat="43.18418372422457" lon="-6.922837290912867">
        <ele>722</ele>
        <time>2017-08-08T07:00:33.000Z</time>
      </trkpt>
      <trkpt lat="43.18415539339185" lon="-6.9228382129222155">
        <ele>722.2</ele>
        <time>2017-08-08T07:00:35.000Z</time>
      </trkpt>
      <trkpt lat="43.1840196903795" lon="-6.922862268984318">
        <ele>723</ele>
        <time>2017-08-08T07:00:44.000Z</time>
      </trkpt>
      <trkpt lat="43.18389153108001" lon="-6.922894539311528">
        <ele>724</ele>
        <time>2017-08-08T07:00:52.000Z</time>
      </trkpt>
      <trkpt lat="43.18375641480088" lon="-6.922942399978638">
        <ele>725.2</ele>
        <time>2017-08-08T07:01:01.000Z</time>
      </trkpt>
      <trkpt lat="43.18361325189471" lon="-6.922985482960939">
        <ele>726.4</ele>
        <time>2017-08-08T07:01:11.000Z</time>
      </trkpt>
      <trkpt lat="43.18351057358086" lon="-6.922995122149587">
        <ele>726.8</ele>
        <time>2017-08-08T07:01:18.000Z</time>
      </trkpt>
      <trkpt lat="43.18341803736985" lon="-6.9229828007519245">
        <ele>726.6</ele>
        <time>2017-08-08T07:01:25.000Z</time>
      </trkpt>
      <trkpt lat="43.18334201350808" lon="-6.922953631728888">
        <ele>726.6</ele>
        <time>2017-08-08T07:01:31.000Z</time>
      </trkpt>
      <trkpt lat="43.183281077072024" lon="-6.922937873750925">
        <ele>726.6</ele>
        <time>2017-08-08T07:01:37.000Z</time>
      </trkpt>
      <trkpt lat="43.183255176991224" lon="-6.922928402200341">
        <ele>726.4</ele>
        <time>2017-08-08T07:01:39.000Z</time>
      </trkpt>
      <trkpt lat="43.18321259692311" lon="-6.922915577888489">
        <ele>726.4</ele>
        <time>2017-08-08T07:01:42.000Z</time>
      </trkpt>
      <trkpt lat="43.18317244760692" lon="-6.92289998754859">
        <ele>726.4</ele>
        <time>2017-08-08T07:01:45.000Z</time>
      </trkpt>
      <trkpt lat="43.183131041005254" lon="-6.922894204035401">
        <ele>726.6</ele>
        <time>2017-08-08T07:01:49.000Z</time>
      </trkpt>
      <trkpt lat="43.183122240006924" lon="-6.922889007255435">
        <ele>726.4</ele>
        <time>2017-08-08T07:01:50.000Z</time>
      </trkpt>
      <trkpt lat="43.18309969268739" lon="-6.922884481027722">
        <ele>726.4</ele>
        <time>2017-08-08T07:01:53.000Z</time>
      </trkpt>
      <trkpt lat="43.18309516645968" lon="-6.922882469370961">
        <ele>726.4</ele>
        <time>2017-08-08T07:01:57.000Z</time>
      </trkpt>
      <trkpt lat="43.18304495885968" lon="-6.922877775505185">
        <ele>726.6</ele>
        <time>2017-08-08T07:02:13.000Z</time>
      </trkpt>
      <trkpt lat="43.182982010766864" lon="-6.922857323661447">
        <ele>726.6</ele>
        <time>2017-08-08T07:02:19.000Z</time>
      </trkpt>
      <trkpt lat="43.18297103047371" lon="-6.9228538032621145">
        <ele>726.6</ele>
        <time>2017-08-08T07:02:20.000Z</time>
      </trkpt>
      <trkpt lat="43.182881427928805" lon="-6.92285212688148">
        <ele>727</ele>
        <time>2017-08-08T07:02:28.000Z</time>
      </trkpt>
      <trkpt lat="43.18282895721495" lon="-6.922833435237408">
        <ele>726.8</ele>
        <time>2017-08-08T07:02:32.000Z</time>
      </trkpt>
      <trkpt lat="43.182727033272386" lon="-6.922832932323217">
        <ele>727.2</ele>
        <time>2017-08-08T07:02:40.000Z</time>
      </trkpt>
      <trkpt lat="43.182642459869385" lon="-6.922825388610363">
        <ele>727.4</ele>
        <time>2017-08-08T07:02:46.000Z</time>
      </trkpt>
      <trkpt lat="43.18253978155553" lon="-6.922813067212701">
        <ele>727.4</ele>
        <time>2017-08-08T07:02:54.000Z</time>
      </trkpt>
      <trkpt lat="43.18245076574385" lon="-6.922815581783652">
        <ele>727.6</ele>
        <time>2017-08-08T07:03:01.000Z</time>
      </trkpt>
      <trkpt lat="43.182352781295776" lon="-6.92280569113791">
        <ele>727.4</ele>
        <time>2017-08-08T07:03:08.000Z</time>
      </trkpt>
      <trkpt lat="43.182242307811975" lon="-6.9227787014096975">
        <ele>727</ele>
        <time>2017-08-08T07:03:16.000Z</time>
      </trkpt>
      <trkpt lat="43.18211649544537" lon="-6.922745760530233">
        <ele>727.2</ele>
        <time>2017-08-08T07:03:25.000Z</time>
      </trkpt>
      <trkpt lat="43.182007279247046" lon="-6.9227333553135395">
        <ele>727.6</ele>
        <time>2017-08-08T07:03:33.000Z</time>
      </trkpt>
      <trkpt lat="43.18193083629012" lon="-6.922716675326228">
        <ele>727.8</ele>
        <time>2017-08-08T07:03:39.000Z</time>
      </trkpt>
      <trkpt lat="43.181906612589955" lon="-6.922719022259116">
        <ele>728</ele>
        <time>2017-08-08T07:03:41.000Z</time>
      </trkpt>
      <trkpt lat="43.181880628690124" lon="-6.9227115623652935">
        <ele>728</ele>
        <time>2017-08-08T07:03:43.000Z</time>
      </trkpt>
      <trkpt lat="43.181843077763915" lon="-6.922707371413708">
        <ele>728</ele>
        <time>2017-08-08T07:03:46.000Z</time>
      </trkpt>
      <trkpt lat="43.18180628120899" lon="-6.922703264281154">
        <ele>728.2</ele>
        <time>2017-08-08T07:03:49.000Z</time>
      </trkpt>
      <trkpt lat="43.181769736111164" lon="-6.9226909428834915">
        <ele>728.2</ele>
        <time>2017-08-08T07:03:52.000Z</time>
      </trkpt>
      <trkpt lat="43.18172933533788" lon="-6.922677867114544">
        <ele>728.4</ele>
        <time>2017-08-08T07:03:55.000Z</time>
      </trkpt>
      <trkpt lat="43.18168801255524" lon="-6.92266546189785">
        <ele>728.6</ele>
        <time>2017-08-08T07:03:58.000Z</time>
      </trkpt>
      <trkpt lat="43.1816366314888" lon="-6.922649620100856">
        <ele>728.8</ele>
        <time>2017-08-08T07:04:02.000Z</time>
      </trkpt>
      <trkpt lat="43.18154619075358" lon="-6.9226025976240635">
        <ele>729</ele>
        <time>2017-08-08T07:04:09.000Z</time>
      </trkpt>
      <trkpt lat="43.18144066259265" lon="-6.922525819391012">
        <ele>729</ele>
        <time>2017-08-08T07:04:17.000Z</time>
      </trkpt>
      <trkpt lat="43.18130822852254" lon="-6.922441078349948">
        <ele>729.2</ele>
        <time>2017-08-08T07:04:27.000Z</time>
      </trkpt>
      <trkpt lat="43.18121653050184" lon="-6.922379555180669">
        <ele>729.4</ele>
        <time>2017-08-08T07:04:35.000Z</time>
      </trkpt>
      <trkpt lat="43.18111955188215" lon="-6.9223187025636435">
        <ele>729.8</ele>
        <time>2017-08-08T07:04:43.000Z</time>
      </trkpt>
      <trkpt lat="43.1810115929693" lon="-6.922254664823413">
        <ele>730</ele>
        <time>2017-08-08T07:04:51.000Z</time>
      </trkpt>
      <trkpt lat="43.18087882362306" lon="-6.922195237129927">
        <ele>729.6</ele>
        <time>2017-08-08T07:05:01.000Z</time>
      </trkpt>
      <trkpt lat="43.1807525921613" lon="-6.922151818871498">
        <ele>728.8</ele>
        <time>2017-08-08T07:05:10.000Z</time>
      </trkpt>
      <trkpt lat="43.18062091246247" lon="-6.9221134297549725">
        <ele>728</ele>
        <time>2017-08-08T07:05:19.000Z</time>
      </trkpt>
      <trkpt lat="43.18046995438635" lon="-6.922079650685191">
        <ele>727.4</ele>
        <time>2017-08-08T07:05:30.000Z</time>
      </trkpt>
      <trkpt lat="43.18033542484045" lon="-6.922061713412404">
        <ele>727.2</ele>
        <time>2017-08-08T07:05:40.000Z</time>
      </trkpt>
      <trkpt lat="43.18021070212126" lon="-6.922042351216078">
        <ele>727.2</ele>
        <time>2017-08-08T07:05:49.000Z</time>
      </trkpt>
      <trkpt lat="43.18008187226951" lon="-6.922024162486196">
        <ele>726.8</ele>
        <time>2017-08-08T07:05:58.000Z</time>
      </trkpt>
      <trkpt lat="43.179957987740636" lon="-6.921997759491205">
        <ele>726</ele>
        <time>2017-08-08T07:06:07.000Z</time>
      </trkpt>
      <trkpt lat="43.17979437299073" lon="-6.921968422830105">
        <ele>725.2</ele>
        <time>2017-08-08T07:06:19.000Z</time>
      </trkpt>
      <trkpt lat="43.17967082373798" lon="-6.9219393376261">
        <ele>724.2</ele>
        <time>2017-08-08T07:06:28.000Z</time>
      </trkpt>
      <trkpt lat="43.17956286482513" lon="-6.9219255074858665">
        <ele>723.8</ele>
        <time>2017-08-08T07:06:36.000Z</time>
      </trkpt>
      <trkpt lat="43.17945482209325" lon="-6.921911258250475">
        <ele>723.2</ele>
        <time>2017-08-08T07:06:44.000Z</time>
      </trkpt>
      <trkpt lat="43.1793296802789" lon="-6.921875132247806">
        <ele>722.2</ele>
        <time>2017-08-08T07:06:54.000Z</time>
      </trkpt>
      <trkpt lat="43.17922960035503" lon="-6.9218377489596605">
        <ele>721.2</ele>
        <time>2017-08-08T07:07:02.000Z</time>
      </trkpt>
      <trkpt lat="43.17916237749159" lon="-6.921891560778022">
        <ele>721.6</ele>
        <time>2017-08-08T07:07:08.000Z</time>
      </trkpt>
      <trkpt lat="43.179134046658874" lon="-6.921916035935283">
        <ele>721.8</ele>
        <time>2017-08-08T07:07:12.000Z</time>
      </trkpt>
      <trkpt lat="43.17912423983216" lon="-6.921914275735617">
        <ele>721.8</ele>
        <time>2017-08-08T07:07:14.000Z</time>
      </trkpt>
      <trkpt lat="43.17909188568592" lon="-6.9219467137008905">
        <ele>722</ele>
        <time>2017-08-08T07:07:19.000Z</time>
      </trkpt>
      <trkpt lat="43.17906070500612" lon="-6.9219908863306046">
        <ele>722.6</ele>
        <time>2017-08-08T07:07:23.000Z</time>
      </trkpt>
      <trkpt lat="43.17902139388025" lon="-6.922045955434442">
        <ele>723</ele>
        <time>2017-08-08T07:07:28.000Z</time>
      </trkpt>
      <trkpt lat="43.17895442247391" lon="-6.922149220481515">
        <ele>724</ele>
        <time>2017-08-08T07:07:36.000Z</time>
      </trkpt>
      <trkpt lat="43.17889994010329" lon="-6.922245780006051">
        <ele>725</ele>
        <time>2017-08-08T07:07:43.000Z</time>
      </trkpt>
      <trkpt lat="43.17884990014136" lon="-6.922334376722574">
        <ele>726</ele>
        <time>2017-08-08T07:07:50.000Z</time>
      </trkpt>
      <trkpt lat="43.17880589514971" lon="-6.922424649819732">
        <ele>727</ele>
        <time>2017-08-08T07:07:57.000Z</time>
      </trkpt>
      <trkpt lat="43.17874940112233" lon="-6.922566387802362">
        <ele>728.4</ele>
        <time>2017-08-08T07:08:07.000Z</time>
      </trkpt>
      <trkpt lat="43.17874680273235" lon="-6.922617349773645">
        <ele>729</ele>
        <time>2017-08-08T07:08:13.000Z</time>
      </trkpt>
      <trkpt lat="43.17875627428293" lon="-6.922618607059121">
        <ele>729</ele>
        <time>2017-08-08T07:08:14.000Z</time>
      </trkpt>
      <trkpt lat="43.17875409498811" lon="-6.922594550997019">
        <ele>728.8</ele>
        <time>2017-08-08T07:08:18.000Z</time>
      </trkpt>
      <trkpt lat="43.1787321344018" lon="-6.922622295096517">
        <ele>729</ele>
        <time>2017-08-08T07:08:23.000Z</time>
      </trkpt>
      <trkpt lat="43.17870816215873" lon="-6.922653140500188">
        <ele>729.2</ele>
        <time>2017-08-08T07:08:29.000Z</time>
      </trkpt>
      <trkpt lat="43.17866248078644" lon="-6.922693373635411">
        <ele>729.6</ele>
        <time>2017-08-08T07:09:01.000Z</time>
      </trkpt>
      <trkpt lat="43.178581008687615" lon="-6.922776270657778">
        <ele>730.2</ele>
        <time>2017-08-08T07:09:09.000Z</time>
      </trkpt>
      <trkpt lat="43.17850708030164" lon="-6.922859502956271">
        <ele>730.8</ele>
        <time>2017-08-08T07:09:17.000Z</time>
      </trkpt>
      <trkpt lat="43.178410436958075" lon="-6.922941226512194">
        <ele>731.4</ele>
        <time>2017-08-08T07:09:26.000Z</time>
      </trkpt>
      <trkpt lat="43.17832519300282" lon="-6.923013562336564">
        <ele>732</ele>
        <time>2017-08-08T07:09:34.000Z</time>
      </trkpt>
      <trkpt lat="43.178238440304995" lon="-6.923093274235725">
        <ele>732.8</ele>
        <time>2017-08-08T07:09:42.000Z</time>
      </trkpt>
      <trkpt lat="43.178111873567104" lon="-6.923194108530879">
        <ele>733.6</ele>
        <time>2017-08-08T07:09:53.000Z</time>
      </trkpt>
      <trkpt lat="43.17798363044858" lon="-6.923292428255081">
        <ele>734.6</ele>
        <time>2017-08-08T07:10:04.000Z</time>
      </trkpt>
      <trkpt lat="43.17785379476845" lon="-6.923391837626696">
        <ele>735.8</ele>
        <time>2017-08-08T07:10:15.000Z</time>
      </trkpt>
      <trkpt lat="43.1777286529541" lon="-6.923483451828361">
        <ele>736.8</ele>
        <time>2017-08-08T07:10:25.000Z</time>
      </trkpt>
      <trkpt lat="43.17764977924526" lon="-6.923538101837039">
        <ele>737.4</ele>
        <time>2017-08-08T07:10:32.000Z</time>
      </trkpt>
      <trkpt lat="43.177538719028234" lon="-6.923595182597637">
        <ele>737.8</ele>
        <time>2017-08-08T07:10:41.000Z</time>
      </trkpt>
      <trkpt lat="43.17743746563792" lon="-6.9236277882009745">
        <ele>737.8</ele>
        <time>2017-08-08T07:10:49.000Z</time>
      </trkpt>
      <trkpt lat="43.17733244039118" lon="-6.92367204464972">
        <ele>738</ele>
        <time>2017-08-08T07:10:57.000Z</time>
      </trkpt>
      <trkpt lat="43.17722079344094" lon="-6.9237131997942924">
        <ele>738</ele>
        <time>2017-08-08T07:11:06.000Z</time>
      </trkpt>
      <trkpt lat="43.177102943882346" lon="-6.923762485384941">
        <ele>738.2</ele>
        <time>2017-08-08T07:11:16.000Z</time>
      </trkpt>
      <trkpt lat="43.1769862677902" lon="-6.923837335780263">
        <ele>738.8</ele>
        <time>2017-08-08T07:11:26.000Z</time>
      </trkpt>
      <trkpt lat="43.176866322755814" lon="-6.923955604434013">
        <ele>739.8</ele>
        <time>2017-08-08T07:11:37.000Z</time>
      </trkpt>
      <trkpt lat="43.176795076578856" lon="-6.924032885581255">
        <ele>740.6</ele>
        <time>2017-08-08T07:11:44.000Z</time>
      </trkpt>
      <trkpt lat="43.17671276628971" lon="-6.924143610522151">
        <ele>742.2</ele>
        <time>2017-08-08T07:11:53.000Z</time>
      </trkpt>
      <trkpt lat="43.17664219066501" lon="-6.924271434545517">
        <ele>744.6</ele>
        <time>2017-08-08T07:12:02.000Z</time>
      </trkpt>
      <trkpt lat="43.176561053842306" lon="-6.924406383186579">
        <ele>747</ele>
        <time>2017-08-08T07:12:12.000Z</time>
      </trkpt>
      <trkpt lat="43.17645963281393" lon="-6.924511827528477">
        <ele>748.8</ele>
        <time>2017-08-08T07:12:22.000Z</time>
      </trkpt>
      <trkpt lat="43.176323007792234" lon="-6.924575697630644">
        <ele>749.6</ele>
        <time>2017-08-08T07:12:33.000Z</time>
      </trkpt>
      <trkpt lat="43.17620884627104" lon="-6.924627665430307">
        <ele>750.2</ele>
        <time>2017-08-08T07:12:42.000Z</time>
      </trkpt>
      <trkpt lat="43.17610097117722" lon="-6.924678375944495">
        <ele>750.8</ele>
        <time>2017-08-08T07:12:51.000Z</time>
      </trkpt>
      <trkpt lat="43.17599586211145" lon="-6.924726068973541">
        <ele>751.2</ele>
        <time>2017-08-08T07:13:00.000Z</time>
      </trkpt>
      <trkpt lat="43.17587650381029" lon="-6.924792369827628">
        <ele>752.2</ele>
        <time>2017-08-08T07:13:10.000Z</time>
      </trkpt>
      <trkpt lat="43.17575706169009" lon="-6.92486084997654">
        <ele>753.2</ele>
        <time>2017-08-08T07:13:20.000Z</time>
      </trkpt>
      <trkpt lat="43.17563979886472" lon="-6.9249144941568375">
        <ele>753.8</ele>
        <time>2017-08-08T07:13:29.000Z</time>
      </trkpt>
      <trkpt lat="43.17552647553384" lon="-6.924967970699072">
        <ele>754.6</ele>
        <time>2017-08-08T07:13:38.000Z</time>
      </trkpt>
      <trkpt lat="43.17542522214353" lon="-6.92501625046134">
        <ele>755.4</ele>
        <time>2017-08-08T07:13:46.000Z</time>
      </trkpt>
      <trkpt lat="43.17529018968344" lon="-6.925090933218598">
        <ele>756.8</ele>
        <time>2017-08-08T07:13:57.000Z</time>
      </trkpt>
      <trkpt lat="43.17516320385039" lon="-6.925151031464338">
        <ele>757.8</ele>
        <time>2017-08-08T07:14:07.000Z</time>
      </trkpt>
      <trkpt lat="43.1750329490751" lon="-6.925210962072015">
        <ele>758.4</ele>
        <time>2017-08-08T07:14:17.000Z</time>
      </trkpt>
      <trkpt lat="43.17491711117327" lon="-6.925262343138456">
        <ele>758.8</ele>
        <time>2017-08-08T07:14:26.000Z</time>
      </trkpt>
      <trkpt lat="43.17478551529348" lon="-6.925337444990873">
        <ele>759.8</ele>
        <time>2017-08-08T07:14:37.000Z</time>
      </trkpt>
      <trkpt lat="43.174688117578626" lon="-6.925389412790537">
        <ele>760.2</ele>
        <time>2017-08-08T07:14:45.000Z</time>
      </trkpt>
      <trkpt lat="43.17458242177963" lon="-6.925451690331101">
        <ele>761</ele>
        <time>2017-08-08T07:14:54.000Z</time>
      </trkpt>
      <trkpt lat="43.17449374124408" lon="-6.925500137731433">
        <ele>761.6</ele>
        <time>2017-08-08T07:15:02.000Z</time>
      </trkpt>
      <trkpt lat="43.17438527941704" lon="-6.925562666729093">
        <ele>762.2</ele>
        <time>2017-08-08T07:15:11.000Z</time>
      </trkpt>
      <trkpt lat="43.17428092472255" lon="-6.925619579851627">
        <ele>763</ele>
        <time>2017-08-08T07:15:20.000Z</time>
      </trkpt>
      <trkpt lat="43.174168691039085" lon="-6.925684371963143">
        <ele>763.6</ele>
        <time>2017-08-08T07:15:29.000Z</time>
      </trkpt>
      <trkpt lat="43.174051847308874" lon="-6.925733489915729">
        <ele>763.8</ele>
        <time>2017-08-08T07:15:38.000Z</time>
      </trkpt>
      <trkpt lat="43.17397900857031" lon="-6.925778752192855">
        <ele>764.4</ele>
        <time>2017-08-08T07:15:45.000Z</time>
      </trkpt>
      <trkpt lat="43.17388546653092" lon="-6.925825187936425">
        <ele>764.8</ele>
        <time>2017-08-08T07:15:53.000Z</time>
      </trkpt>
      <trkpt lat="43.17376711405814" lon="-6.925888387486339">
        <ele>765.6</ele>
        <time>2017-08-08T07:16:03.000Z</time>
      </trkpt>
      <trkpt lat="43.17366519011557" lon="-6.9259432051330805">
        <ele>766.2</ele>
        <time>2017-08-08T07:16:12.000Z</time>
      </trkpt>
      <trkpt lat="43.173539377748966" lon="-6.926004476845264">
        <ele>767</ele>
        <time>2017-08-08T07:16:23.000Z</time>
      </trkpt>
      <trkpt lat="43.17339998669922" lon="-6.926081255078316">
        <ele>767.8</ele>
        <time>2017-08-08T07:16:35.000Z</time>
      </trkpt>
      <trkpt lat="43.173295548185706" lon="-6.926133809611201">
        <ele>768</ele>
        <time>2017-08-08T07:16:44.000Z</time>
      </trkpt>
      <trkpt lat="43.173168478533626" lon="-6.92619969137013">
        <ele>768.2</ele>
        <time>2017-08-08T07:16:55.000Z</time>
      </trkpt>
      <trkpt lat="43.17303445190191" lon="-6.926271105185151">
        <ele>768.6</ele>
        <time>2017-08-08T07:17:06.000Z</time>
      </trkpt>
      <trkpt lat="43.17294409498572" lon="-6.9263234082609415">
        <ele>769</ele>
        <time>2017-08-08T07:17:14.000Z</time>
      </trkpt>
      <trkpt lat="43.17293026484549" lon="-6.926318379119039">
        <ele>768.6</ele>
        <time>2017-08-08T07:17:17.000Z</time>
      </trkpt>
      <trkpt lat="43.17291651852429" lon="-6.926312176510692">
        <ele>768.2</ele>
        <time>2017-08-08T07:17:20.000Z</time>
      </trkpt>
      <trkpt lat="43.17290252074599" lon="-6.926321480423212">
        <ele>768.4</ele>
        <time>2017-08-08T07:17:22.000Z</time>
      </trkpt>
      <trkpt lat="43.17288936115801" lon="-6.926322318613529">
        <ele>768.2</ele>
        <time>2017-08-08T07:17:27.000Z</time>
      </trkpt>
      <trkpt lat="43.17282473668456" lon="-6.926365736871958">
        <ele>768.6</ele>
        <time>2017-08-08T07:17:33.000Z</time>
      </trkpt>
      <trkpt lat="43.17273664288223" lon="-6.926424829289317">
        <ele>769.4</ele>
        <time>2017-08-08T07:17:41.000Z</time>
      </trkpt>
      <trkpt lat="43.17265165038407" lon="-6.92647042684257">
        <ele>769.8</ele>
        <time>2017-08-08T07:17:49.000Z</time>
      </trkpt>
      <trkpt lat="43.17257487215102" lon="-6.926528010517359">
        <ele>770.2</ele>
        <time>2017-08-08T07:17:57.000Z</time>
      </trkpt>
      <trkpt lat="43.17257344722748" lon="-6.926537398248911">
        <ele>770.4</ele>
        <time>2017-08-08T07:17:58.000Z</time>
      </trkpt>
      <trkpt lat="43.17257160320878" lon="-6.92653639242053">
        <ele>770.4</ele>
        <time>2017-08-08T07:18:03.000Z</time>
      </trkpt>
      <trkpt lat="43.17257311195135" lon="-6.926535638049245">
        <ele>770.4</ele>
        <time>2017-08-08T07:18:26.000Z</time>
      </trkpt>
      <trkpt lat="43.17256967537105" lon="-6.926521053537726">
        <ele>770</ele>
        <time>2017-08-08T07:18:36.000Z</time>
      </trkpt>
      <trkpt lat="43.17256481386721" lon="-6.926514515653253">
        <ele>769.6</ele>
        <time>2017-08-08T07:19:46.000Z</time>
      </trkpt>
      <trkpt lat="43.17259079776704" lon="-6.92653052508831">
        <ele>770.6</ele>
        <time>2017-08-08T07:20:17.000Z</time>
      </trkpt>
      <trkpt lat="43.17258493043482" lon="-6.926526250317693">
        <ele>770.4</ele>
        <time>2017-08-08T07:20:19.000Z</time>
      </trkpt>
      <trkpt lat="43.17258099094033" lon="-6.926518706604838">
        <ele>770</ele>
        <time>2017-08-08T07:21:07.000Z</time>
      </trkpt>
      <trkpt lat="43.17258677445352" lon="-6.926528597250581">
        <ele>770.4</ele>
        <time>2017-08-08T07:21:19.000Z</time>
      </trkpt>
      <trkpt lat="43.17257696762681" lon="-6.926517952233553">
        <ele>770</ele>
        <time>2017-08-08T07:21:31.000Z</time>
      </trkpt>
      <trkpt lat="43.17258660681546" lon="-6.926514515653253">
        <ele>770</ele>
        <time>2017-08-08T07:21:55.000Z</time>
      </trkpt>
      <trkpt lat="43.17257512360811" lon="-6.926503032445908">
        <ele>769.6</ele>
        <time>2017-08-08T07:22:08.000Z</time>
      </trkpt>
      <trkpt lat="43.172581074759364" lon="-6.926515521481633">
        <ele>770</ele>
        <time>2017-08-08T07:23:38.000Z</time>
      </trkpt>
      <trkpt lat="43.17258333787322" lon="-6.926495488733053">
        <ele>769.4</ele>
        <time>2017-08-08T07:25:46.000Z</time>
      </trkpt>
      <trkpt lat="43.172583002597094" lon="-6.926513509824872">
        <ele>770</ele>
        <time>2017-08-08T07:28:50.000Z</time>
      </trkpt>
      <trkpt lat="43.17259616218507" lon="-6.926507977768779">
        <ele>770</ele>
        <time>2017-08-08T07:29:04.000Z</time>
      </trkpt>
      <trkpt lat="43.17258861847222" lon="-6.926503535360098">
        <ele>769.8</ele>
        <time>2017-08-08T07:29:11.000Z</time>
      </trkpt>
      <trkpt lat="43.17259423434734" lon="-6.926507726311684">
        <ele>770</ele>
        <time>2017-08-08T07:29:52.000Z</time>
      </trkpt>
      <trkpt lat="43.17259683273733" lon="-6.926506469026208">
        <ele>770</ele>
        <time>2017-08-08T07:30:03.000Z</time>
      </trkpt>
      <trkpt lat="43.172590462490916" lon="-6.926503032445908">
        <ele>769.8</ele>
        <time>2017-08-08T07:30:26.000Z</time>
      </trkpt>
      <trkpt lat="43.17259079776704" lon="-6.9265086483210325">
        <ele>770</ele>
        <time>2017-08-08T07:30:33.000Z</time>
      </trkpt>
      <trkpt lat="43.1725980900228" lon="-6.926516946405172">
        <ele>770.4</ele>
        <time>2017-08-08T07:31:24.000Z</time>
      </trkpt>
      <trkpt lat="43.17258761264384" lon="-6.926535302773118">
        <ele>770.6</ele>
        <time>2017-08-08T07:32:30.000Z</time>
      </trkpt>
      <trkpt lat="43.17258870229125" lon="-6.926528178155422">
        <ele>770.4</ele>
        <time>2017-08-08T07:32:41.000Z</time>
      </trkpt>
      <trkpt lat="43.172586522996426" lon="-6.926529100164771">
        <ele>770.4</ele>
        <time>2017-08-08T07:33:00.000Z</time>
      </trkpt>
      <trkpt lat="43.172549810260534" lon="-6.926540331915021">
        <ele>770</ele>
        <time>2017-08-08T07:33:28.000Z</time>
      </trkpt>
      <trkpt lat="43.17254729568958" lon="-6.9265522342175245">
        <ele>770.4</ele>
        <time>2017-08-08T07:33:34.000Z</time>
      </trkpt>
      <trkpt lat="43.172503458335996" lon="-6.926590707153082">
        <ele>770.4</ele>
        <time>2017-08-08T07:33:39.000Z</time>
      </trkpt>
      <trkpt lat="43.172433972358704" lon="-6.926637813448906">
        <ele>770.4</ele>
        <time>2017-08-08T07:33:47.000Z</time>
      </trkpt>
      <trkpt lat="43.172374879941344" lon="-6.926674526184797">
        <ele>770</ele>
        <time>2017-08-08T07:33:54.000Z</time>
      </trkpt>
      <trkpt lat="43.172365659847856" lon="-6.9266874343156815">
        <ele>770.2</ele>
        <time>2017-08-08T07:33:55.000Z</time>
      </trkpt>
      <trkpt lat="43.17230489104986" lon="-6.926731104031205">
        <ele>770.2</ele>
        <time>2017-08-08T07:34:02.000Z</time>
      </trkpt>
      <trkpt lat="43.172250827774405" lon="-6.926783407106996">
        <ele>770.4</ele>
        <time>2017-08-08T07:34:09.000Z</time>
      </trkpt>
      <trkpt lat="43.17217958159745" lon="-6.9268399849534035">
        <ele>770.4</ele>
        <time>2017-08-08T07:34:17.000Z</time>
      </trkpt>
      <trkpt lat="43.17210380919278" lon="-6.926900502294302">
        <ele>770.4</ele>
        <time>2017-08-08T07:34:25.000Z</time>
      </trkpt>
      <trkpt lat="43.17204689607024" lon="-6.9269616063684225">
        <ele>770.8</ele>
        <time>2017-08-08T07:34:32.000Z</time>
      </trkpt>
      <trkpt lat="43.171971794217825" lon="-6.927027069032192">
        <ele>770.8</ele>
        <time>2017-08-08T07:34:40.000Z</time>
      </trkpt>
      <trkpt lat="43.17196559160948" lon="-6.927037462592125">
        <ele>771</ele>
        <time>2017-08-08T07:34:41.000Z</time>
      </trkpt>
      <trkpt lat="43.17191136069596" lon="-6.927087251096964">
        <ele>771.2</ele>
        <time>2017-08-08T07:34:47.000Z</time>
      </trkpt>
      <trkpt lat="43.17187431268394" lon="-6.927120862528682">
        <ele>771.2</ele>
        <time>2017-08-08T07:34:51.000Z</time>
      </trkpt>
      <trkpt lat="43.17183902487159" lon="-6.927154138684273">
        <ele>771.4</ele>
        <time>2017-08-08T07:34:55.000Z</time>
      </trkpt>
      <trkpt lat="43.17182879894972" lon="-6.927165286615491">
        <ele>771.4</ele>
        <time>2017-08-08T07:34:56.000Z</time>
      </trkpt>
      <trkpt lat="43.17176920361817" lon="-6.92722924053669">
        <ele>771.8</ele>
        <time>2017-08-08T07:35:03.000Z</time>
      </trkpt>
      <trkpt lat="43.17169209010899" lon="-6.927309958264232">
        <ele>772.2</ele>
        <time>2017-08-08T07:35:12.000Z</time>
      </trkpt>
      <trkpt lat="43.17161179147661" lon="-6.927405847236514">
        <ele>772.8</ele>
        <time>2017-08-08T07:35:22.000Z</time>
      </trkpt>
      <trkpt lat="43.17154238931835" lon="-6.927485978230834">
        <ele>772.8</ele>
        <time>2017-08-08T07:35:30.000Z</time>
      </trkpt>
      <trkpt lat="43.17147600464523" lon="-6.927563175559044">
        <ele>772.6</ele>
        <time>2017-08-08T07:35:38.000Z</time>
      </trkpt>
      <trkpt lat="43.17140081897378" lon="-6.9276604894548655">
        <ele>772.8</ele>
        <time>2017-08-08T07:35:47.000Z</time>
      </trkpt>
      <trkpt lat="43.171304762363434" lon="-6.927772052586079">
        <ele>772.6</ele>
        <time>2017-08-08T07:35:58.000Z</time>
      </trkpt>
      <trkpt lat="43.17124977707863" lon="-6.92784640006721">
        <ele>772.8</ele>
        <time>2017-08-08T07:36:05.000Z</time>
      </trkpt>
      <trkpt lat="43.17117610014975" lon="-6.927948156371713">
        <ele>773</ele>
        <time>2017-08-08T07:36:14.000Z</time>
      </trkpt>
      <trkpt lat="43.171110805124044" lon="-6.928033148869872">
        <ele>773</ele>
        <time>2017-08-08T07:36:22.000Z</time>
      </trkpt>
      <trkpt lat="43.17104006186128" lon="-6.9281405210494995">
        <ele>773.4</ele>
        <time>2017-08-08T07:36:31.000Z</time>
      </trkpt>
      <trkpt lat="43.17097133025527" lon="-6.92823925986886">
        <ele>773.6</ele>
        <time>2017-08-08T07:36:40.000Z</time>
      </trkpt>
      <trkpt lat="43.17090494558215" lon="-6.928337914869189">
        <ele>774.4</ele>
        <time>2017-08-08T07:36:49.000Z</time>
      </trkpt>
      <trkpt lat="43.17084291949868" lon="-6.928433049470186">
        <ele>775.2</ele>
        <time>2017-08-08T07:36:57.000Z</time>
      </trkpt>
      <trkpt lat="43.17077427171171" lon="-6.928539164364338">
        <ele>776</ele>
        <time>2017-08-08T07:37:06.000Z</time>
      </trkpt>
      <trkpt lat="43.170684250071645" lon="-6.928662126883864">
        <ele>777</ele>
        <time>2017-08-08T07:37:17.000Z</time>
      </trkpt>
      <trkpt lat="43.170605627819896" lon="-6.928778383880854">
        <ele>778</ele>
        <time>2017-08-08T07:37:27.000Z</time>
      </trkpt>
      <trkpt lat="43.17054997198284" lon="-6.928861616179347">
        <ele>778.6</ele>
        <time>2017-08-08T07:37:34.000Z</time>
      </trkpt>
      <trkpt lat="43.17049247212708" lon="-6.928965635597706">
        <ele>779.6</ele>
        <time>2017-08-08T07:37:42.000Z</time>
      </trkpt>
      <trkpt lat="43.17043337970972" lon="-6.929051298648119">
        <ele>780.4</ele>
        <time>2017-08-08T07:37:49.000Z</time>
      </trkpt>
      <trkpt lat="43.17036347463727" lon="-6.929156323894858">
        <ele>780.6</ele>
        <time>2017-08-08T07:37:58.000Z</time>
      </trkpt>
      <trkpt lat="43.1703030411154" lon="-6.929252464324236">
        <ele>780.8</ele>
        <time>2017-08-08T07:38:06.000Z</time>
      </trkpt>
      <trkpt lat="43.17023363895714" lon="-6.929355394095182">
        <ele>781</ele>
        <time>2017-08-08T07:38:15.000Z</time>
      </trkpt>
      <trkpt lat="43.17015199922025" lon="-6.929490175098181">
        <ele>781.2</ele>
        <time>2017-08-08T07:38:26.000Z</time>
      </trkpt>
      <trkpt lat="43.17015568725765" lon="-6.92949797026813">
        <ele>781.4</ele>
        <time>2017-08-08T07:38:27.000Z</time>
      </trkpt>
      <trkpt lat="43.17014881409705" lon="-6.929518757387996">
        <ele>781.6</ele>
        <time>2017-08-08T07:38:30.000Z</time>
      </trkpt>
      <trkpt lat="43.17013925872743" lon="-6.929530240595341">
        <ele>781.6</ele>
        <time>2017-08-08T07:38:31.000Z</time>
      </trkpt>
      <trkpt lat="43.170067174360156" lon="-6.9296387024223804">
        <ele>782.2</ele>
        <time>2017-08-08T07:38:41.000Z</time>
      </trkpt>
      <trkpt lat="43.169992407783866" lon="-6.929746493697166">
        <ele>783.4</ele>
        <time>2017-08-08T07:38:51.000Z</time>
      </trkpt>
      <trkpt lat="43.16992283798754" lon="-6.929850177839398">
        <ele>784.4</ele>
        <time>2017-08-08T07:39:00.000Z</time>
      </trkpt>
      <trkpt lat="43.16984203644097" lon="-6.929962411522865">
        <ele>785.6</ele>
        <time>2017-08-08T07:39:10.000Z</time>
      </trkpt>
      <trkpt lat="43.16975746303797" lon="-6.930069280788302">
        <ele>786.6</ele>
        <time>2017-08-08T07:39:20.000Z</time>
      </trkpt>
      <trkpt lat="43.16969300620258" lon="-6.930136252194643">
        <ele>787.4</ele>
        <time>2017-08-08T07:39:27.000Z</time>
      </trkpt>
      <trkpt lat="43.1696055829525" lon="-6.9302241783589125">
        <ele>788.2</ele>
        <time>2017-08-08T07:39:36.000Z</time>
      </trkpt>
      <trkpt lat="43.16953375004232" lon="-6.930282097309828">
        <ele>788.6</ele>
        <time>2017-08-08T07:39:43.000Z</time>
      </trkpt>
      <trkpt lat="43.16942780278623" lon="-6.930368011817336">
        <ele>789.4</ele>
        <time>2017-08-08T07:39:53.000Z</time>
      </trkpt>
      <trkpt lat="43.169321939349174" lon="-6.930448226630688">
        <ele>790</ele>
        <time>2017-08-08T07:40:03.000Z</time>
      </trkpt>
      <trkpt lat="43.16920886747539" lon="-6.93053875118494">
        <ele>791</ele>
        <time>2017-08-08T07:40:14.000Z</time>
      </trkpt>
      <trkpt lat="43.16911599598825" lon="-6.930612428113818">
        <ele>791.8</ele>
        <time>2017-08-08T07:40:23.000Z</time>
      </trkpt>
      <trkpt lat="43.16902597434819" lon="-6.930686272680759">
        <ele>792.6</ele>
        <time>2017-08-08T07:40:32.000Z</time>
      </trkpt>
      <trkpt lat="43.16894835792482" lon="-6.930758943781257">
        <ele>793.4</ele>
        <time>2017-08-08T07:40:40.000Z</time>
      </trkpt>
      <trkpt lat="43.16884618252516" lon="-6.9308417569845915">
        <ele>794.2</ele>
        <time>2017-08-08T07:40:50.000Z</time>
      </trkpt>
      <trkpt lat="43.16883260384202" lon="-6.9308647233992815">
        <ele>794.4</ele>
        <time>2017-08-08T07:40:54.000Z</time>
      </trkpt>
      <trkpt lat="43.168830424547195" lon="-6.930859107524157">
        <ele>794.4</ele>
        <time>2017-08-08T07:40:56.000Z</time>
      </trkpt>
      <trkpt lat="43.168779546394944" lon="-6.930870339274406">
        <ele>794.4</ele>
        <time>2017-08-08T07:41:03.000Z</time>
      </trkpt>
      <trkpt lat="43.16870637238026" lon="-6.930932952091098">
        <ele>795</ele>
        <time>2017-08-08T07:41:11.000Z</time>
      </trkpt>
      <trkpt lat="43.16862330771983" lon="-6.930998330935836">
        <ele>795.6</ele>
        <time>2017-08-08T07:41:19.000Z</time>
      </trkpt>
      <trkpt lat="43.16854150034487" lon="-6.931067984551191">
        <ele>796.2</ele>
        <time>2017-08-08T07:41:27.000Z</time>
      </trkpt>
      <trkpt lat="43.16847117617726" lon="-6.93113679997623">
        <ele>796.8</ele>
        <time>2017-08-08T07:41:34.000Z</time>
      </trkpt>
      <trkpt lat="43.168419040739536" lon="-6.931196730583906">
        <ele>797.4</ele>
        <time>2017-08-08T07:41:40.000Z</time>
      </trkpt>
      <trkpt lat="43.168404875323176" lon="-6.931202849373221">
        <ele>797.6</ele>
        <time>2017-08-08T07:41:41.000Z</time>
      </trkpt>
      <trkpt lat="43.16835424862802" lon="-6.931243669241667">
        <ele>798</ele>
        <time>2017-08-08T07:41:46.000Z</time>
      </trkpt>
      <trkpt lat="43.168272860348225" lon="-6.931307036429644">
        <ele>798.6</ele>
        <time>2017-08-08T07:41:54.000Z</time>
      </trkpt>
      <trkpt lat="43.168261628597975" lon="-6.931314077228308">
        <ele>798.6</ele>
        <time>2017-08-08T07:41:55.000Z</time>
      </trkpt>
      <trkpt lat="43.16813724115491" lon="-6.931417929008603">
        <ele>799.8</ele>
        <time>2017-08-08T07:42:07.000Z</time>
      </trkpt>
      <trkpt lat="43.168028108775616" lon="-6.9315035082399845">
        <ele>800.6</ele>
        <time>2017-08-08T07:42:17.000Z</time>
      </trkpt>
      <trkpt lat="43.16793339326978" lon="-6.931564277037978">
        <ele>801.2</ele>
        <time>2017-08-08T07:42:25.000Z</time>
      </trkpt>
      <trkpt lat="43.16785728558898" lon="-6.931620603427291">
        <ele>802</ele>
        <time>2017-08-08T07:42:32.000Z</time>
      </trkpt>
      <trkpt lat="43.16776491701603" lon="-6.931681120768189">
        <ele>802.6</ele>
        <time>2017-08-08T07:42:40.000Z</time>
      </trkpt>
      <trkpt lat="43.16768822260201" lon="-6.931732418015599">
        <ele>803.2</ele>
        <time>2017-08-08T07:42:47.000Z</time>
      </trkpt>
      <trkpt lat="43.16767640411854" lon="-6.931739207357168">
        <ele>803.2</ele>
        <time>2017-08-08T07:42:48.000Z</time>
      </trkpt>
      <trkpt lat="43.167579006403685" lon="-6.931813973933458">
        <ele>804.2</ele>
        <time>2017-08-08T07:42:57.000Z</time>
      </trkpt>
      <trkpt lat="43.16747163422406" lon="-6.931898128241301">
        <ele>805.2</ele>
        <time>2017-08-08T07:43:07.000Z</time>
      </trkpt>
      <trkpt lat="43.16737364977598" lon="-6.931974403560162">
        <ele>806</ele>
        <time>2017-08-08T07:43:16.000Z</time>
      </trkpt>
      <trkpt lat="43.16727449186146" lon="-6.932050930336118">
        <ele>807</ele>
        <time>2017-08-08T07:43:25.000Z</time>
      </trkpt>
      <trkpt lat="43.16718111746013" lon="-6.932130558416247">
        <ele>807.8</ele>
        <time>2017-08-08T07:43:34.000Z</time>
      </trkpt>
      <trkpt lat="43.16714406944811" lon="-6.932157967239618">
        <ele>808.2</ele>
        <time>2017-08-08T07:43:37.000Z</time>
      </trkpt>
      <trkpt lat="43.16712336614728" lon="-6.9321732223033905">
        <ele>808.4</ele>
        <time>2017-08-08T07:43:39.000Z</time>
      </trkpt>
      <trkpt lat="43.16700409166515" lon="-6.932260226458311">
        <ele>809.4</ele>
        <time>2017-08-08T07:43:50.000Z</time>
      </trkpt>
      <trkpt lat="43.16692580468953" lon="-6.9323234260082245">
        <ele>810.2</ele>
        <time>2017-08-08T07:43:58.000Z</time>
      </trkpt>
      <trkpt lat="43.1668461766094" lon="-6.932385452091694">
        <ele>810.8</ele>
        <time>2017-08-08T07:44:06.000Z</time>
      </trkpt>
      <trkpt lat="43.16673151217401" lon="-6.932472037151456">
        <ele>812</ele>
        <time>2017-08-08T07:44:17.000Z</time>
      </trkpt>
      <trkpt lat="43.16663176752627" lon="-6.932555017992854">
        <ele>813.4</ele>
        <time>2017-08-08T07:44:27.000Z</time>
      </trkpt>
      <trkpt lat="43.16653411835432" lon="-6.9326251745224">
        <ele>814.4</ele>
        <time>2017-08-08T07:44:36.000Z</time>
      </trkpt>
      <trkpt lat="43.16643923521042" lon="-6.932696169242263">
        <ele>815.4</ele>
        <time>2017-08-08T07:44:45.000Z</time>
      </trkpt>
      <trkpt lat="43.16634611226618" lon="-6.932762637734413">
        <ele>816.4</ele>
        <time>2017-08-08T07:44:54.000Z</time>
      </trkpt>
      <trkpt lat="43.16626346670091" lon="-6.932821311056614">
        <ele>817.2</ele>
        <time>2017-08-08T07:45:02.000Z</time>
      </trkpt>
      <trkpt lat="43.16615232266486" lon="-6.932908399030566">
        <ele>818.6</ele>
        <time>2017-08-08T07:45:13.000Z</time>
      </trkpt>
      <trkpt lat="43.16606783308089" lon="-6.932973610237241">
        <ele>819.6</ele>
        <time>2017-08-08T07:45:22.000Z</time>
      </trkpt>
      <trkpt lat="43.16596833989024" lon="-6.93304980173707">
        <ele>820.6</ele>
        <time>2017-08-08T07:45:31.000Z</time>
      </trkpt>
      <trkpt lat="43.165891310200095" lon="-6.933114007115364">
        <ele>821.6</ele>
        <time>2017-08-08T07:45:38.000Z</time>
      </trkpt>
      <trkpt lat="43.16580941900611" lon="-6.933181984350085">
        <ele>822.4</ele>
        <time>2017-08-08T07:45:46.000Z</time>
      </trkpt>
      <trkpt lat="43.165789721533656" lon="-6.933203525841236">
        <ele>822.6</ele>
        <time>2017-08-08T07:45:48.000Z</time>
      </trkpt>
      <trkpt lat="43.165753930807114" lon="-6.933222217485309">
        <ele>822.8</ele>
        <time>2017-08-08T07:45:51.000Z</time>
      </trkpt>
      <trkpt lat="43.165662568062544" lon="-6.933285081759095">
        <ele>823.6</ele>
        <time>2017-08-08T07:45:59.000Z</time>
      </trkpt>
      <trkpt lat="43.16555988974869" lon="-6.933357585221529">
        <ele>824.6</ele>
        <time>2017-08-08T07:46:08.000Z</time>
      </trkpt>
      <trkpt lat="43.165450589731336" lon="-6.933436878025532">
        <ele>825.6</ele>
        <time>2017-08-08T07:46:18.000Z</time>
      </trkpt>
      <trkpt lat="43.165334248915315" lon="-6.933509297668934">
        <ele>826.6</ele>
        <time>2017-08-08T07:46:28.000Z</time>
      </trkpt>
      <trkpt lat="43.165327459573746" lon="-6.933545423671603">
        <ele>827.4</ele>
        <time>2017-08-08T07:46:30.000Z</time>
      </trkpt>
      <trkpt lat="43.16529979929328" lon="-6.933551542460918">
        <ele>827.2</ele>
        <time>2017-08-08T07:46:32.000Z</time>
      </trkpt>
      <trkpt lat="43.165175998583436" lon="-6.933624716475606">
        <ele>828.2</ele>
        <time>2017-08-08T07:46:42.000Z</time>
      </trkpt>
      <trkpt lat="43.16506720148027" lon="-6.933682048693299">
        <ele>828.8</ele>
        <time>2017-08-08T07:46:51.000Z</time>
      </trkpt>
      <trkpt lat="43.164972737431526" lon="-6.933724964037538">
        <ele>829.2</ele>
        <time>2017-08-08T07:46:59.000Z</time>
      </trkpt>
      <trkpt lat="43.1648722384125" lon="-6.933767544105649">
        <ele>829.6</ele>
        <time>2017-08-08T07:47:07.000Z</time>
      </trkpt>
      <trkpt lat="43.164757657796144" lon="-6.933819763362408">
        <ele>830.2</ele>
        <time>2017-08-08T07:47:17.000Z</time>
      </trkpt>
      <trkpt lat="43.16464324481785" lon="-6.933872904628515">
        <ele>830.6</ele>
        <time>2017-08-08T07:47:27.000Z</time>
      </trkpt>
      <trkpt lat="43.16460301168263" lon="-6.933893943205476">
        <ele>831</ele>
        <time>2017-08-08T07:47:31.000Z</time>
      </trkpt>
      <trkpt lat="43.16459555178881" lon="-6.933892602100968">
        <ele>830.8</ele>
        <time>2017-08-08T07:47:32.000Z</time>
      </trkpt>
      <trkpt lat="43.16459555178881" lon="-6.933892602100968">
        <ele>830.8</ele>
        <time>2017-08-08T07:47:32.000Z</time>
      </trkpt>
      <trkpt lat="43.164569064974785" lon="-6.933901654556394">
        <ele>831</ele>
        <time>2017-08-08T07:47:35.000Z</time>
      </trkpt>
      <trkpt lat="43.164513828232884" lon="-6.9339185860008">
        <ele>831</ele>
        <time>2017-08-08T07:47:40.000Z</time>
      </trkpt>
      <trkpt lat="43.16449354402721" lon="-6.933924620971084">
        <ele>831</ele>
        <time>2017-08-08T07:47:42.000Z</time>
      </trkpt>
      <trkpt lat="43.164386758580804" lon="-6.933963177725673">
        <ele>831.4</ele>
        <time>2017-08-08T07:47:51.000Z</time>
      </trkpt>
      <trkpt lat="43.16428408026695" lon="-6.933995196595788">
        <ele>831.4</ele>
        <time>2017-08-08T07:48:00.000Z</time>
      </trkpt>
      <trkpt lat="43.16416849382222" lon="-6.934029394760728">
        <ele>832.4</ele>
        <time>2017-08-08T07:48:10.000Z</time>
      </trkpt>
      <trkpt lat="43.16408802755177" lon="-6.934082116931677">
        <ele>833.6</ele>
        <time>2017-08-08T07:48:17.000Z</time>
      </trkpt>
      <trkpt lat="43.16406011581421" lon="-6.9341107830405235">
        <ele>834.2</ele>
        <time>2017-08-08T07:48:20.000Z</time>
      </trkpt>
      <trkpt lat="43.16404611803591" lon="-6.934106927365065">
        <ele>834.2</ele>
        <time>2017-08-08T07:48:22.000Z</time>
      </trkpt>
      <trkpt lat="43.164003789424896" lon="-6.934155207127333">
        <ele>835</ele>
        <time>2017-08-08T07:48:27.000Z</time>
      </trkpt>
      <trkpt lat="43.163951486349106" lon="-6.93416828289628">
        <ele>835.2</ele>
        <time>2017-08-08T07:48:31.000Z</time>
      </trkpt>
      <trkpt lat="43.163928519934416" lon="-6.934176497161388">
        <ele>835.4</ele>
        <time>2017-08-08T07:48:33.000Z</time>
      </trkpt>
      <trkpt lat="43.163839085027575" lon="-6.934215975925326">
        <ele>836.2</ele>
        <time>2017-08-08T07:48:41.000Z</time>
      </trkpt>
      <trkpt lat="43.16377471201122" lon="-6.934281773865223">
        <ele>837.4</ele>
        <time>2017-08-08T07:48:48.000Z</time>
      </trkpt>
      <trkpt lat="43.163694916293025" lon="-6.934364251792431">
        <ele>839</ele>
        <time>2017-08-08T07:48:57.000Z</time>
      </trkpt>
      <trkpt lat="43.16361168399453" lon="-6.934422506019473">
        <ele>840</ele>
        <time>2017-08-08T07:49:05.000Z</time>
      </trkpt>
      <trkpt lat="43.16350464709103" lon="-6.934468690305948">
        <ele>841</ele>
        <time>2017-08-08T07:49:14.000Z</time>
      </trkpt>
      <trkpt lat="43.1634163018316" lon="-6.934509677812457">
        <ele>842</ele>
        <time>2017-08-08T07:49:22.000Z</time>
      </trkpt>
      <trkpt lat="43.16337866708636" lon="-6.934565082192421">
        <ele>843.2</ele>
        <time>2017-08-08T07:49:26.000Z</time>
      </trkpt>
      <trkpt lat="43.1633734703064" lon="-6.934597184881568">
        <ele>843.8</ele>
        <time>2017-08-08T07:49:29.000Z</time>
      </trkpt>
      <trkpt lat="43.16337866708636" lon="-6.93465200252831">
        <ele>844.6</ele>
        <time>2017-08-08T07:49:34.000Z</time>
      </trkpt>
      <trkpt lat="43.16337866708636" lon="-6.934676142409444">
        <ele>844.8</ele>
        <time>2017-08-08T07:49:36.000Z</time>
      </trkpt>
      <trkpt lat="43.16338243894279" lon="-6.93468427285552">
        <ele>845</ele>
        <time>2017-08-08T07:49:37.000Z</time>
      </trkpt>
      <trkpt lat="43.1634163018316" lon="-6.934760212898254">
        <ele>846</ele>
        <time>2017-08-08T07:49:43.000Z</time>
      </trkpt>
      <trkpt lat="43.16346843726933" lon="-6.934871776029468">
        <ele>847.4</ele>
        <time>2017-08-08T07:49:52.000Z</time>
      </trkpt>
      <trkpt lat="43.16350020468235" lon="-6.934935562312603">
        <ele>848.4</ele>
        <time>2017-08-08T07:49:56.000Z</time>
      </trkpt>
      <trkpt lat="43.16350447945297" lon="-6.934945620596409">
        <ele>848.4</ele>
        <time>2017-08-08T07:49:57.000Z</time>
      </trkpt>
      <trkpt lat="43.16350883804262" lon="-6.93502482958138">
        <ele>849.4</ele>
        <time>2017-08-08T07:50:02.000Z</time>
      </trkpt>
      <trkpt lat="43.163499534130096" lon="-6.935047963634133">
        <ele>849.8</ele>
        <time>2017-08-08T07:50:04.000Z</time>
      </trkpt>
      <trkpt lat="43.163490733131766" lon="-6.935055674985051">
        <ele>850</ele>
        <time>2017-08-08T07:50:05.000Z</time>
      </trkpt>
      <trkpt lat="43.163466677069664" lon="-6.935056513175368">
        <ele>850</ele>
        <time>2017-08-08T07:50:07.000Z</time>
      </trkpt>
      <trkpt lat="43.163456451147795" lon="-6.93505072966218">
        <ele>850</ele>
        <time>2017-08-08T07:50:09.000Z</time>
      </trkpt>
      <trkpt lat="43.16345519386232" lon="-6.935057435184717">
        <ele>850</ele>
        <time>2017-08-08T07:50:11.000Z</time>
      </trkpt>
      <trkpt lat="43.16340398043394" lon="-6.935145193710923">
        <ele>851.6</ele>
        <time>2017-08-08T07:50:59.000Z</time>
      </trkpt>
      <trkpt lat="43.163389479741454" lon="-6.935134464874864">
        <ele>851.6</ele>
        <time>2017-08-08T07:51:01.000Z</time>
      </trkpt>
      <trkpt lat="43.16335938870907" lon="-6.935148714110255">
        <ele>852.2</ele>
        <time>2017-08-08T07:51:04.000Z</time>
      </trkpt>
      <trkpt lat="43.16328965127468" lon="-6.935149636119604">
        <ele>853</ele>
        <time>2017-08-08T07:51:12.000Z</time>
      </trkpt>
      <trkpt lat="43.16321521997452" lon="-6.93515189923346">
        <ele>854</ele>
        <time>2017-08-08T07:51:19.000Z</time>
      </trkpt>
      <trkpt lat="43.163208682090044" lon="-6.935151480138302">
        <ele>854</ele>
        <time>2017-08-08T07:51:20.000Z</time>
      </trkpt>
      <trkpt lat="43.1631625816226" lon="-6.935155084356666">
        <ele>854.6</ele>
        <time>2017-08-08T07:51:24.000Z</time>
      </trkpt>
      <trkpt lat="43.16311597824097" lon="-6.9351571798324585">
        <ele>854.8</ele>
        <time>2017-08-08T07:51:28.000Z</time>
      </trkpt>
      <trkpt lat="43.163011288270354" lon="-6.935154749080539">
        <ele>855.6</ele>
        <time>2017-08-08T07:51:36.000Z</time>
      </trkpt>
      <trkpt lat="43.162974240258336" lon="-6.935132034122944">
        <ele>855.4</ele>
        <time>2017-08-08T07:51:41.000Z</time>
      </trkpt>
      <trkpt lat="43.16294859163463" lon="-6.935128094628453">
        <ele>855.6</ele>
        <time>2017-08-08T07:51:44.000Z</time>
      </trkpt>
      <trkpt lat="43.16291581839323" lon="-6.935118623077869">
        <ele>855.6</ele>
        <time>2017-08-08T07:51:47.000Z</time>
      </trkpt>
      <trkpt lat="43.16284197382629" lon="-6.9351021107286215">
        <ele>855.8</ele>
        <time>2017-08-08T07:51:55.000Z</time>
      </trkpt>
      <trkpt lat="43.16277558915317" lon="-6.935083670541644">
        <ele>856</ele>
        <time>2017-08-08T07:52:02.000Z</time>
      </trkpt>
      <trkpt lat="43.162757232785225" lon="-6.935079311951995">
        <ele>856</ele>
        <time>2017-08-08T07:52:04.000Z</time>
      </trkpt>
      <trkpt lat="43.162688333541155" lon="-6.935068080201745">
        <ele>856.4</ele>
        <time>2017-08-08T07:52:10.000Z</time>
      </trkpt>
      <trkpt lat="43.162596048787236" lon="-6.9350700080394745">
        <ele>857.2</ele>
        <time>2017-08-08T07:52:19.000Z</time>
      </trkpt>
      <trkpt lat="43.162526143714786" lon="-6.935064811259508">
        <ele>857.6</ele>
        <time>2017-08-08T07:52:26.000Z</time>
      </trkpt>
      <trkpt lat="43.16247560083866" lon="-6.935069756582379">
        <ele>858.2</ele>
        <time>2017-08-08T07:52:34.000Z</time>
      </trkpt>
      <trkpt lat="43.16247744485736" lon="-6.935043269768357">
        <ele>857.8</ele>
        <time>2017-08-08T07:54:04.000Z</time>
      </trkpt>
      <trkpt lat="43.1624458450824" lon="-6.93504192866385">
        <ele>858</ele>
        <time>2017-08-08T07:54:07.000Z</time>
      </trkpt>
      <trkpt lat="43.16241206601262" lon="-6.93503706716001">
        <ele>858.2</ele>
        <time>2017-08-08T07:54:41.000Z</time>
      </trkpt>
      <trkpt lat="43.16237443126738" lon="-6.935039246454835">
        <ele>858.4</ele>
        <time>2017-08-08T07:54:49.000Z</time>
      </trkpt>
      <trkpt lat="43.16228256560862" lon="-6.935040503740311">
        <ele>859.2</ele>
        <time>2017-08-08T07:54:57.000Z</time>
      </trkpt>
      <trkpt lat="43.162223137915134" lon="-6.935064224526286">
        <ele>860</ele>
        <time>2017-08-08T07:55:03.000Z</time>
      </trkpt>
      <trkpt lat="43.16215993836522" lon="-6.935060536488891">
        <ele>860.4</ele>
        <time>2017-08-08T07:55:10.000Z</time>
      </trkpt>
      <trkpt lat="43.162142504006624" lon="-6.935058776289225">
        <ele>860.4</ele>
        <time>2017-08-08T07:55:12.000Z</time>
      </trkpt>
      <trkpt lat="43.1620969902724" lon="-6.9350729417055845">
        <ele>861.2</ele>
        <time>2017-08-08T07:55:17.000Z</time>
      </trkpt>
      <trkpt lat="43.16207285039127" lon="-6.935086101293564">
        <ele>861.6</ele>
        <time>2017-08-08T07:55:20.000Z</time>
      </trkpt>
      <trkpt lat="43.16205642186105" lon="-6.9350959081202745">
        <ele>861.8</ele>
        <time>2017-08-08T07:55:22.000Z</time>
      </trkpt>
      <trkpt lat="43.162037478759885" lon="-6.935108397156">
        <ele>862.2</ele>
        <time>2017-08-08T07:55:24.000Z</time>
      </trkpt>
      <trkpt lat="43.16198073327541" lon="-6.935131028294563">
        <ele>863.2</ele>
        <time>2017-08-08T07:55:30.000Z</time>
      </trkpt>
      <trkpt lat="43.161969501525164" lon="-6.935134967789054">
        <ele>863.2</ele>
        <time>2017-08-08T07:55:31.000Z</time>
      </trkpt>
      <trkpt lat="43.161960281431675" lon="-6.935141338035464">
        <ele>863.4</ele>
        <time>2017-08-08T07:55:32.000Z</time>
      </trkpt>
      <trkpt lat="43.16193069331348" lon="-6.935159275308251">
        <ele>864</ele>
        <time>2017-08-08T07:55:35.000Z</time>
      </trkpt>
      <trkpt lat="43.16190127283335" lon="-6.935169501230121">
        <ele>864.4</ele>
        <time>2017-08-08T07:55:37.000Z</time>
      </trkpt>
      <trkpt lat="43.161849388852715" lon="-6.935175117105246">
        <ele>865</ele>
        <time>2017-08-08T07:55:41.000Z</time>
      </trkpt>
      <trkpt lat="43.16176406107843" lon="-6.935201520100236">
        <ele>866.4</ele>
        <time>2017-08-08T07:55:48.000Z</time>
      </trkpt>
      <trkpt lat="43.161686193197966" lon="-6.935225324705243">
        <ele>868.6</ele>
        <time>2017-08-08T07:55:54.000Z</time>
      </trkpt>
      <trkpt lat="43.16158778965473" lon="-6.935265976935625">
        <ele>871.6</ele>
        <time>2017-08-08T07:56:02.000Z</time>
      </trkpt>
      <trkpt lat="43.161513609811664" lon="-6.935291877016425">
        <ele>873.8</ele>
        <time>2017-08-08T07:56:09.000Z</time>
      </trkpt>
      <trkpt lat="43.161426186561584" lon="-6.935286009684205">
        <ele>875.8</ele>
        <time>2017-08-08T07:56:17.000Z</time>
      </trkpt>
      <trkpt lat="43.161336248740554" lon="-6.935254829004407">
        <ele>876.6</ele>
        <time>2017-08-08T07:56:25.000Z</time>
      </trkpt>
      <trkpt lat="43.16126324236393" lon="-6.935238065198064">
        <ele>877.4</ele>
        <time>2017-08-08T07:56:32.000Z</time>
      </trkpt>
      <trkpt lat="43.161187721416354" lon="-6.935208812355995">
        <ele>878</ele>
        <time>2017-08-08T07:56:39.000Z</time>
      </trkpt>
      <trkpt lat="43.16111077554524" lon="-6.935203615576029">
        <ele>879</ele>
        <time>2017-08-08T07:56:46.000Z</time>
      </trkpt>
      <trkpt lat="43.16103642806411" lon="-6.935207135975361">
        <ele>880.4</ele>
        <time>2017-08-08T07:56:53.000Z</time>
      </trkpt>
      <trkpt lat="43.16095721907914" lon="-6.935215517878532">
        <ele>882</ele>
        <time>2017-08-08T07:57:00.000Z</time>
      </trkpt>
      <trkpt lat="43.160926373675466" lon="-6.935217278078198">
        <ele>882.6</ele>
        <time>2017-08-08T07:57:03.000Z</time>
      </trkpt>
      <trkpt lat="43.160891169682145" lon="-6.935211410745978">
        <ele>883</ele>
        <time>2017-08-08T07:57:06.000Z</time>
      </trkpt>
      <trkpt lat="43.160803662613034" lon="-6.935227420181036">
        <ele>884.8</ele>
        <time>2017-08-08T07:57:13.000Z</time>
      </trkpt>
      <trkpt lat="43.160745576024055" lon="-6.935233036056161">
        <ele>886</ele>
        <time>2017-08-08T07:57:19.000Z</time>
      </trkpt>
      <trkpt lat="43.16071942448616" lon="-6.935237478464842">
        <ele>886.6</ele>
        <time>2017-08-08T07:57:22.000Z</time>
      </trkpt>
      <trkpt lat="43.160675168037415" lon="-6.935250889509916">
        <ele>887.6</ele>
        <time>2017-08-08T07:57:26.000Z</time>
      </trkpt>
      <trkpt lat="43.16059906035662" lon="-6.935271844267845">
        <ele>889.4</ele>
        <time>2017-08-08T07:57:32.000Z</time>
      </trkpt>
      <trkpt lat="43.16054005175829" lon="-6.935294391587377">
        <ele>891.2</ele>
        <time>2017-08-08T07:57:37.000Z</time>
      </trkpt>
      <trkpt lat="43.16051423549652" lon="-6.935300678014755">
        <ele>891.8</ele>
        <time>2017-08-08T07:57:40.000Z</time>
      </trkpt>
      <trkpt lat="43.160480204969645" lon="-6.935313837602735">
        <ele>892.8</ele>
        <time>2017-08-08T07:57:44.000Z</time>
      </trkpt>
      <trkpt lat="43.160404432564974" lon="-6.935341749340296">
        <ele>895</ele>
        <time>2017-08-08T07:57:51.000Z</time>
      </trkpt>
      <trkpt lat="43.16033402457833" lon="-6.935368068516254">
        <ele>897</ele>
        <time>2017-08-08T07:57:58.000Z</time>
      </trkpt>
      <trkpt lat="43.16025950945914" lon="-6.935400003567338">
        <ele>899.2</ele>
        <time>2017-08-08T07:58:06.000Z</time>
      </trkpt>
      <trkpt lat="43.1601801328361" lon="-6.935421628877521">
        <ele>901.4</ele>
        <time>2017-08-08T07:58:13.000Z</time>
      </trkpt>
      <trkpt lat="43.16009069792926" lon="-6.935450546443462">
        <ele>903.4</ele>
        <time>2017-08-08T07:58:21.000Z</time>
      </trkpt>
      <trkpt lat="43.16003646701574" lon="-6.935470998287201">
        <ele>903.8</ele>
        <time>2017-08-08T07:58:28.000Z</time>
      </trkpt>
      <trkpt lat="43.1599663104862" lon="-6.935498658567667">
        <ele>904.6</ele>
        <time>2017-08-08T07:58:35.000Z</time>
      </trkpt>
      <trkpt lat="43.15990227274597" lon="-6.935544088482857">
        <ele>905.6</ele>
        <time>2017-08-08T07:58:41.000Z</time>
      </trkpt>
      <trkpt lat="43.15983043983579" lon="-6.935593793168664">
        <ele>906.6</ele>
        <time>2017-08-08T07:58:48.000Z</time>
      </trkpt>
      <trkpt lat="43.15975877456367" lon="-6.935642743483186">
        <ele>907.8</ele>
        <time>2017-08-08T07:58:55.000Z</time>
      </trkpt>
      <trkpt lat="43.15966833382845" lon="-6.935691190883517">
        <ele>909</ele>
        <time>2017-08-08T07:59:03.000Z</time>
      </trkpt>
      <trkpt lat="43.159583592787385" lon="-6.93573041819036">
        <ele>909.8</ele>
        <time>2017-08-08T07:59:10.000Z</time>
      </trkpt>
      <trkpt lat="43.159530870616436" lon="-6.93575925193727">
        <ele>910.6</ele>
        <time>2017-08-08T07:59:15.000Z</time>
      </trkpt>
      <trkpt lat="43.15950061194599" lon="-6.9357930310070515">
        <ele>911.4</ele>
        <time>2017-08-08T07:59:18.000Z</time>
      </trkpt>
      <trkpt lat="43.15943079069257" lon="-6.935841059312224">
        <ele>912.8</ele>
        <time>2017-08-08T07:59:24.000Z</time>
      </trkpt>
      <trkpt lat="43.159336829558015" lon="-6.935931667685509">
        <ele>915.4</ele>
        <time>2017-08-08T07:59:34.000Z</time>
      </trkpt>
      <trkpt lat="43.15926290117204" lon="-6.935983719304204">
        <ele>916.4</ele>
        <time>2017-08-08T07:59:40.000Z</time>
      </trkpt>
      <trkpt lat="43.159255692735314" lon="-6.935991765931249">
        <ele>916.4</ele>
        <time>2017-08-08T07:59:41.000Z</time>
      </trkpt>
      <trkpt lat="43.15918109379709" lon="-6.936062341555953">
        <ele>916.8</ele>
        <time>2017-08-08T07:59:49.000Z</time>
      </trkpt>
      <trkpt lat="43.15910398028791" lon="-6.936137359589338">
        <ele>917</ele>
        <time>2017-08-08T07:59:57.000Z</time>
      </trkpt>
      <trkpt lat="43.159022592008114" lon="-6.9362277165055275">
        <ele>917.6</ele>
        <time>2017-08-08T08:00:06.000Z</time>
      </trkpt>
      <trkpt lat="43.15893701277673" lon="-6.936311786994338">
        <ele>918</ele>
        <time>2017-08-08T08:00:15.000Z</time>
      </trkpt>
      <trkpt lat="43.15884355455637" lon="-6.936411866918206">
        <ele>918.6</ele>
        <time>2017-08-08T08:00:25.000Z</time>
      </trkpt>
      <trkpt lat="43.15878303721547" lon="-6.936487890779972">
        <ele>919.4</ele>
        <time>2017-08-08T08:00:32.000Z</time>
      </trkpt>
      <trkpt lat="43.158706510439515" lon="-6.9365758169442415">
        <ele>920</ele>
        <time>2017-08-08T08:00:40.000Z</time>
      </trkpt>
      <trkpt lat="43.158646915107965" lon="-6.936691403388977">
        <ele>921.6</ele>
        <time>2017-08-08T08:00:49.000Z</time>
      </trkpt>
      <trkpt lat="43.15860592760146" lon="-6.936782682314515">
        <ele>923</ele>
        <time>2017-08-08T08:00:56.000Z</time>
      </trkpt>
      <trkpt lat="43.1585484277457" lon="-6.936898268759251">
        <ele>924.6</ele>
        <time>2017-08-08T08:01:05.000Z</time>
      </trkpt>
      <trkpt lat="43.158511966466904" lon="-6.93696272559464">
        <ele>925.4</ele>
        <time>2017-08-08T08:01:10.000Z</time>
      </trkpt>
      <trkpt lat="43.158493023365736" lon="-6.936998013406992">
        <ele>925.8</ele>
        <time>2017-08-08T08:01:13.000Z</time>
      </trkpt>
      <trkpt lat="43.158467123284936" lon="-6.93704872392118">
        <ele>926.6</ele>
        <time>2017-08-08T08:01:17.000Z</time>
      </trkpt>
      <trkpt lat="43.15844331867993" lon="-6.937069930136204">
        <ele>926.6</ele>
        <time>2017-08-08T08:01:19.000Z</time>
      </trkpt>
      <trkpt lat="43.158427560701966" lon="-6.93709465675056">
        <ele>926.6</ele>
        <time>2017-08-08T08:01:21.000Z</time>
      </trkpt>
      <trkpt lat="43.15837316215038" lon="-6.937174201011658">
        <ele>927</ele>
        <time>2017-08-08T08:01:28.000Z</time>
      </trkpt>
      <trkpt lat="43.1583240441978" lon="-6.937259444966912">
        <ele>927.6</ele>
        <time>2017-08-08T08:01:35.000Z</time>
      </trkpt>
      <trkpt lat="43.15828699618578" lon="-6.937364134937525">
        <ele>929</ele>
        <time>2017-08-08T08:01:42.000Z</time>
      </trkpt>
      <trkpt lat="43.15822991542518" lon="-6.937509644776583">
        <ele>930.8</ele>
        <time>2017-08-08T08:01:52.000Z</time>
      </trkpt>
      <trkpt lat="43.15817174501717" lon="-6.937638055533171">
        <ele>931.8</ele>
        <time>2017-08-08T08:02:01.000Z</time>
      </trkpt>
      <trkpt lat="43.158100079745054" lon="-6.937762191519141">
        <ele>932.4</ele>
        <time>2017-08-08T08:02:10.000Z</time>
      </trkpt>
      <trkpt lat="43.15802950412035" lon="-6.9379066955298185">
        <ele>933.2</ele>
        <time>2017-08-08T08:02:20.000Z</time>
      </trkpt>
      <trkpt lat="43.157940404489636" lon="-6.938076680526137">
        <ele>934</ele>
        <time>2017-08-08T08:02:32.000Z</time>
      </trkpt>
      <trkpt lat="43.15790050663054" lon="-6.938171060755849">
        <ele>934.8</ele>
        <time>2017-08-08T08:02:39.000Z</time>
      </trkpt>
      <trkpt lat="43.15788617357612" lon="-6.938216406852007">
        <ele>935.2</ele>
        <time>2017-08-08T08:02:44.000Z</time>
      </trkpt>
      <trkpt lat="43.15786614082754" lon="-6.938249096274376">
        <ele>935.4</ele>
        <time>2017-08-08T08:02:56.000Z</time>
      </trkpt>
      <trkpt lat="43.15783102065325" lon="-6.938344817608595">
        <ele>937.6</ele>
        <time>2017-08-08T08:03:03.000Z</time>
      </trkpt>
      <trkpt lat="43.157790368422866" lon="-6.9384668581187725">
        <ele>940.4</ele>
        <time>2017-08-08T08:03:11.000Z</time>
      </trkpt>
      <trkpt lat="43.15774762071669" lon="-6.938565345481038">
        <ele>942.4</ele>
        <time>2017-08-08T08:03:18.000Z</time>
      </trkpt>
      <trkpt lat="43.1577003467828" lon="-6.9386612344533205">
        <ele>944.2</ele>
        <time>2017-08-08T08:03:25.000Z</time>
      </trkpt>
      <trkpt lat="43.157646199688315" lon="-6.938750250265002">
        <ele>945.6</ele>
        <time>2017-08-08T08:03:32.000Z</time>
      </trkpt>
      <trkpt lat="43.15759850665927" lon="-6.9388355780392885">
        <ele>947</ele>
        <time>2017-08-08T08:03:39.000Z</time>
      </trkpt>
      <trkpt lat="43.157574785873294" lon="-6.938872123137116">
        <ele>947.8</ele>
        <time>2017-08-08T08:03:42.000Z</time>
      </trkpt>
      <trkpt lat="43.157546538859606" lon="-6.938926940783858">
        <ele>949</ele>
        <time>2017-08-08T08:03:46.000Z</time>
      </trkpt>
      <trkpt lat="43.15753974951804" lon="-6.938941441476345">
        <ele>949.4</ele>
        <time>2017-08-08T08:03:47.000Z</time>
      </trkpt>
      <trkpt lat="43.157509909942746" lon="-6.938991816714406">
        <ele>950.4</ele>
        <time>2017-08-08T08:03:51.000Z</time>
      </trkpt>
      <trkpt lat="43.1574674975127" lon="-6.939055770635605">
        <ele>951.6</ele>
        <time>2017-08-08T08:03:56.000Z</time>
      </trkpt>
      <trkpt lat="43.15745945088565" lon="-6.939069600775838">
        <ele>951.8</ele>
        <time>2017-08-08T08:03:57.000Z</time>
      </trkpt>
      <trkpt lat="43.15742298960686" lon="-6.939119724556804">
        <ele>952.8</ele>
        <time>2017-08-08T08:04:01.000Z</time>
      </trkpt>
      <trkpt lat="43.15740262158215" lon="-6.939141014590859">
        <ele>953</ele>
        <time>2017-08-08T08:04:03.000Z</time>
      </trkpt>
      <trkpt lat="43.15735367126763" lon="-6.939201783388853">
        <ele>954.2</ele>
        <time>2017-08-08T08:04:08.000Z</time>
      </trkpt>
      <trkpt lat="43.15734528936446" lon="-6.939215362071991">
        <ele>954.4</ele>
        <time>2017-08-08T08:04:09.000Z</time>
      </trkpt>
      <trkpt lat="43.15731804817915" lon="-6.939254002645612">
        <ele>955.2</ele>
        <time>2017-08-08T08:04:13.000Z</time>
      </trkpt>
      <trkpt lat="43.15729474648833" lon="-6.939283674582839">
        <ele>955.6</ele>
        <time>2017-08-08T08:04:19.000Z</time>
      </trkpt>
      <trkpt lat="43.15729516558349" lon="-6.939283674582839">
        <ele>955.6</ele>
        <time>2017-08-08T08:04:28.000Z</time>
      </trkpt>
      <trkpt lat="43.157274378463626" lon="-6.939298762008548">
        <ele>955.8</ele>
        <time>2017-08-08T08:04:53.000Z</time>
      </trkpt>
      <trkpt lat="43.157211765646935" lon="-6.939359782263637">
        <ele>956.6</ele>
        <time>2017-08-08T08:05:00.000Z</time>
      </trkpt>
      <trkpt lat="43.15712400712073" lon="-6.939433291554451">
        <ele>957.2</ele>
        <time>2017-08-08T08:05:09.000Z</time>
      </trkpt>
      <trkpt lat="43.15704136155546" lon="-6.9394860137254">
        <ele>957.2</ele>
        <time>2017-08-08T08:05:17.000Z</time>
      </trkpt>
      <trkpt lat="43.15700246952474" lon="-6.939515853300691">
        <ele>957.4</ele>
        <time>2017-08-08T08:05:22.000Z</time>
      </trkpt>
      <trkpt lat="43.156932732090354" lon="-6.939563127234578">
        <ele>957.6</ele>
        <time>2017-08-08T08:05:29.000Z</time>
      </trkpt>
      <trkpt lat="43.15686232410371" lon="-6.939617358148098">
        <ele>958</ele>
        <time>2017-08-08T08:05:36.000Z</time>
      </trkpt>
      <trkpt lat="43.15679510124028" lon="-6.939662368968129">
        <ele>958.2</ele>
        <time>2017-08-08T08:05:42.000Z</time>
      </trkpt>
      <trkpt lat="43.156785713508725" lon="-6.939670918509364">
        <ele>958.2</ele>
        <time>2017-08-08T08:05:43.000Z</time>
      </trkpt>
      <trkpt lat="43.156740702688694" lon="-6.939696315675974">
        <ele>958.4</ele>
        <time>2017-08-08T08:05:47.000Z</time>
      </trkpt>
      <trkpt lat="43.156665014103055" lon="-6.939753731712699">
        <ele>959.2</ele>
        <time>2017-08-08T08:05:54.000Z</time>
      </trkpt>
      <trkpt lat="43.15657247789204" lon="-6.939796730875969">
        <ele>959.2</ele>
        <time>2017-08-08T08:06:02.000Z</time>
      </trkpt>
      <trkpt lat="43.15651095472276" lon="-6.939846770837903">
        <ele>959.8</ele>
        <time>2017-08-08T08:06:08.000Z</time>
      </trkpt>
      <trkpt lat="43.15650408156216" lon="-6.939856912940741">
        <ele>960</ele>
        <time>2017-08-08T08:06:09.000Z</time>
      </trkpt>
      <trkpt lat="43.15643568523228" lon="-6.9399220403283834">
        <ele>961</ele>
        <time>2017-08-08T08:06:16.000Z</time>
      </trkpt>
      <trkpt lat="43.156333258375525" lon="-6.94001030176878">
        <ele>961</ele>
        <time>2017-08-08T08:06:27.000Z</time>
      </trkpt>
      <trkpt lat="43.15625371411443" lon="-6.940072244033217">
        <ele>960.8</ele>
        <time>2017-08-08T08:06:35.000Z</time>
      </trkpt>
      <trkpt lat="43.156187077984214" lon="-6.94012563675642">
        <ele>960.8</ele>
        <time>2017-08-08T08:06:42.000Z</time>
      </trkpt>
      <trkpt lat="43.15611071884632" lon="-6.940213982015848">
        <ele>961.2</ele>
        <time>2017-08-08T08:06:51.000Z</time>
      </trkpt>
      <trkpt lat="43.156050285324454" lon="-6.940285228192806">
        <ele>961.4</ele>
        <time>2017-08-08T08:06:58.000Z</time>
      </trkpt>
      <trkpt lat="43.155979458242655" lon="-6.940346751362085">
        <ele>961.4</ele>
        <time>2017-08-08T08:07:05.000Z</time>
      </trkpt>
      <trkpt lat="43.15588884986937" lon="-6.940427636727691">
        <ele>961.4</ele>
        <time>2017-08-08T08:07:14.000Z</time>
      </trkpt>
      <trkpt lat="43.155810898169875" lon="-6.940499385818839">
        <ele>961.4</ele>
        <time>2017-08-08T08:07:22.000Z</time>
      </trkpt>
      <trkpt lat="43.15570754930377" lon="-6.940578427165747">
        <ele>961.2</ele>
        <time>2017-08-08T08:07:32.000Z</time>
      </trkpt>
      <trkpt lat="43.1556301843375" lon="-6.940644644200802">
        <ele>961</ele>
        <time>2017-08-08T08:07:40.000Z</time>
      </trkpt>
      <trkpt lat="43.15558576025069" lon="-6.940702563151717">
        <ele>961.4</ele>
        <time>2017-08-08T08:07:47.000Z</time>
      </trkpt>
      <trkpt lat="43.155548544600606" lon="-6.940737599506974">
        <ele>961.4</ele>
        <time>2017-08-08T08:07:53.000Z</time>
      </trkpt>
      <trkpt lat="43.15553940832615" lon="-6.940734917297959">
        <ele>961.2</ele>
        <time>2017-08-08T08:07:56.000Z</time>
      </trkpt>
      <trkpt lat="43.15553999505937" lon="-6.9407363422214985">
        <ele>961.2</ele>
        <time>2017-08-08T08:09:44.000Z</time>
      </trkpt>
      <trkpt lat="43.15542499534786" lon="-6.9412001967430115">
        <ele>963.8</ele>
        <time>2017-08-08T08:17:50.000Z</time>
      </trkpt>
      <trkpt lat="43.1554124224931" lon="-6.94124017842114">
        <ele>963.8</ele>
        <time>2017-08-08T08:17:53.000Z</time>
      </trkpt>
      <trkpt lat="43.155407225713134" lon="-6.941255768761039">
        <ele>964</ele>
        <time>2017-08-08T08:17:57.000Z</time>
      </trkpt>
      <trkpt lat="43.15537830814719" lon="-6.941340258345008">
        <ele>964.4</ele>
        <time>2017-08-08T08:18:04.000Z</time>
      </trkpt>
      <trkpt lat="43.15535232424736" lon="-6.941422820091248">
        <ele>965</ele>
        <time>2017-08-08T08:18:10.000Z</time>
      </trkpt>
      <trkpt lat="43.155314940959215" lon="-6.941514769569039">
        <ele>965.4</ele>
        <time>2017-08-08T08:18:17.000Z</time>
      </trkpt>
      <trkpt lat="43.155274875462055" lon="-6.9416089821606874">
        <ele>965.6</ele>
        <time>2017-08-08T08:18:24.000Z</time>
      </trkpt>
      <trkpt lat="43.15522961318493" lon="-6.9417461939156055">
        <ele>966</ele>
        <time>2017-08-08T08:18:34.000Z</time>
      </trkpt>
      <trkpt lat="43.15519792959094" lon="-6.941882902756333">
        <ele>966.4</ele>
        <time>2017-08-08T08:18:43.000Z</time>
      </trkpt>
      <trkpt lat="43.15519197843969" lon="-6.941987508907914">
        <ele>967.2</ele>
        <time>2017-08-08T08:18:50.000Z</time>
      </trkpt>
      <trkpt lat="43.155189799144864" lon="-6.9421402271837">
        <ele>968.4</ele>
        <time>2017-08-08T08:19:00.000Z</time>
      </trkpt>
      <trkpt lat="43.155194660648704" lon="-6.942285569384694">
        <ele>969.8</ele>
        <time>2017-08-08T08:19:09.000Z</time>
      </trkpt>
      <trkpt lat="43.155191810801625" lon="-6.942417751997709">
        <ele>971</ele>
        <time>2017-08-08T08:19:17.000Z</time>
      </trkpt>
      <trkpt lat="43.15518141724169" lon="-6.942544486373663">
        <ele>971.6</ele>
        <time>2017-08-08T08:19:25.000Z</time>
      </trkpt>
      <trkpt lat="43.15517705865204" lon="-6.942667448893189">
        <ele>972.4</ele>
        <time>2017-08-08T08:19:33.000Z</time>
      </trkpt>
      <trkpt lat="43.155169347301126" lon="-6.942794434726238">
        <ele>973.2</ele>
        <time>2017-08-08T08:19:42.000Z</time>
      </trkpt>
      <trkpt lat="43.155163396149874" lon="-6.9429295510053635">
        <ele>974</ele>
        <time>2017-08-08T08:19:51.000Z</time>
      </trkpt>
      <trkpt lat="43.15516666509211" lon="-6.943041952326894">
        <ele>974.8</ele>
        <time>2017-08-08T08:19:59.000Z</time>
      </trkpt>
      <trkpt lat="43.155156606808305" lon="-6.9431577902287245">
        <ele>975.4</ele>
        <time>2017-08-08T08:20:07.000Z</time>
      </trkpt>
      <trkpt lat="43.15514034591615" lon="-6.9432764779776335">
        <ele>976.4</ele>
        <time>2017-08-08T08:20:15.000Z</time>
      </trkpt>
      <trkpt lat="43.15512425266206" lon="-6.943399021402001">
        <ele>977.6</ele>
        <time>2017-08-08T08:20:23.000Z</time>
      </trkpt>
      <trkpt lat="43.155114613473415" lon="-6.943503124639392">
        <ele>979</ele>
        <time>2017-08-08T08:20:30.000Z</time>
      </trkpt>
      <trkpt lat="43.15510120242834" lon="-6.943574119359255">
        <ele>979.6</ele>
        <time>2017-08-08T08:20:35.000Z</time>
      </trkpt>
      <trkpt lat="43.1550963409245" lon="-6.943602869287133">
        <ele>980</ele>
        <time>2017-08-08T08:20:37.000Z</time>
      </trkpt>
      <trkpt lat="43.15508217550814" lon="-6.943678557872772">
        <ele>980.6</ele>
        <time>2017-08-08T08:20:42.000Z</time>
      </trkpt>
      <trkpt lat="43.15507966093719" lon="-6.943705296143889">
        <ele>981</ele>
        <time>2017-08-08T08:20:44.000Z</time>
      </trkpt>
      <trkpt lat="43.155080331489444" lon="-6.9437191262841225">
        <ele>981.2</ele>
        <time>2017-08-08T08:20:45.000Z</time>
      </trkpt>
      <trkpt lat="43.15506692044437" lon="-6.9437977485358715">
        <ele>982</ele>
        <time>2017-08-08T08:20:51.000Z</time>
      </trkpt>
      <trkpt lat="43.15506314858794" lon="-6.943868407979608">
        <ele>983</ele>
        <time>2017-08-08T08:20:56.000Z</time>
      </trkpt>
      <trkpt lat="43.15506247803569" lon="-6.94394082762301">
        <ele>984</ele>
        <time>2017-08-08T08:21:01.000Z</time>
      </trkpt>
      <trkpt lat="43.1550670042634" lon="-6.943989107385278">
        <ele>984.8</ele>
        <time>2017-08-08T08:21:05.000Z</time>
      </trkpt>
      <trkpt lat="43.15506641753018" lon="-6.943997656926513">
        <ele>985</ele>
        <time>2017-08-08T08:21:06.000Z</time>
      </trkpt>
      <trkpt lat="43.15506298094988" lon="-6.944011235609651">
        <ele>985</ele>
        <time>2017-08-08T08:21:07.000Z</time>
      </trkpt>
      <trkpt lat="43.15506457351148" lon="-6.944074183702469">
        <ele>986</ele>
        <time>2017-08-08T08:21:12.000Z</time>
      </trkpt>
      <trkpt lat="43.15504169091582" lon="-6.944123636931181">
        <ele>985.6</ele>
        <time>2017-08-08T08:21:16.000Z</time>
      </trkpt>
      <trkpt lat="43.15502543002367" lon="-6.94417049176991">
        <ele>985.4</ele>
        <time>2017-08-08T08:21:20.000Z</time>
      </trkpt>
      <trkpt lat="43.15501746721566" lon="-6.944180550053716">
        <ele>985.2</ele>
        <time>2017-08-08T08:21:21.000Z</time>
      </trkpt>
      <trkpt lat="43.15501721575856" lon="-6.944217598065734">
        <ele>985.4</ele>
        <time>2017-08-08T08:21:23.000Z</time>
      </trkpt>
      <trkpt lat="43.15500942058861" lon="-6.944271996617317">
        <ele>985.4</ele>
        <time>2017-08-08T08:21:27.000Z</time>
      </trkpt>
      <trkpt lat="43.15500690601766" lon="-6.944301584735513">
        <ele>985.4</ele>
        <time>2017-08-08T08:21:29.000Z</time>
      </trkpt>
      <trkpt lat="43.154990980401635" lon="-6.944360677152872">
        <ele>985.2</ele>
        <time>2017-08-08T08:21:34.000Z</time>
      </trkpt>
      <trkpt lat="43.154989555478096" lon="-6.944387080147862">
        <ele>985.2</ele>
        <time>2017-08-08T08:21:36.000Z</time>
      </trkpt>
      <trkpt lat="43.15499056130648" lon="-6.944423038512468">
        <ele>985.2</ele>
        <time>2017-08-08T08:21:39.000Z</time>
      </trkpt>
      <trkpt lat="43.15499508753419" lon="-6.944464193657041">
        <ele>985.4</ele>
        <time>2017-08-08T08:21:42.000Z</time>
      </trkpt>
      <trkpt lat="43.15500137396157" lon="-6.944488249719143">
        <ele>985.6</ele>
        <time>2017-08-08T08:21:43.000Z</time>
      </trkpt>
      <trkpt lat="43.1550048943609" lon="-6.94451792165637">
        <ele>985.8</ele>
        <time>2017-08-08T08:21:45.000Z</time>
      </trkpt>
      <trkpt lat="43.15500824712217" lon="-6.94454625248909">
        <ele>986</ele>
        <time>2017-08-08T08:21:47.000Z</time>
      </trkpt>
      <trkpt lat="43.15499810501933" lon="-6.944616241380572">
        <ele>985.8</ele>
        <time>2017-08-08T08:21:51.000Z</time>
      </trkpt>
      <trkpt lat="43.1549911480397" lon="-6.9446338433772326">
        <ele>985.8</ele>
        <time>2017-08-08T08:21:52.000Z</time>
      </trkpt>
      <trkpt lat="43.15497463569045" lon="-6.944694863632321">
        <ele>985.6</ele>
        <time>2017-08-08T08:21:56.000Z</time>
      </trkpt>
      <trkpt lat="43.15495368093252" lon="-6.944805001839995">
        <ele>985.4</ele>
        <time>2017-08-08T08:22:03.000Z</time>
      </trkpt>
      <trkpt lat="43.15493641421199" lon="-6.944931149482727">
        <ele>985.2</ele>
        <time>2017-08-08T08:22:11.000Z</time>
      </trkpt>
      <trkpt lat="43.15492333844304" lon="-6.945058470591903">
        <ele>984</ele>
        <time>2017-08-08T08:22:19.000Z</time>
      </trkpt>
      <trkpt lat="43.15491923131049" lon="-6.945105325430632">
        <ele>983.8</ele>
        <time>2017-08-08T08:22:22.000Z</time>
      </trkpt>
      <trkpt lat="43.15491705201566" lon="-6.94515947252512">
        <ele>983.4</ele>
        <time>2017-08-08T08:22:26.000Z</time>
      </trkpt>
      <trkpt lat="43.154916213825345" lon="-6.9451928324997425">
        <ele>983.4</ele>
        <time>2017-08-08T08:22:28.000Z</time>
      </trkpt>
      <trkpt lat="43.15492182970047" lon="-6.945246811956167">
        <ele>983.2</ele>
        <time>2017-08-08T08:22:32.000Z</time>
      </trkpt>
      <trkpt lat="43.154925014823675" lon="-6.945278327912092">
        <ele>983.2</ele>
        <time>2017-08-08T08:22:34.000Z</time>
      </trkpt>
      <trkpt lat="43.1549253500998" lon="-6.945339851081371">
        <ele>983</ele>
        <time>2017-08-08T08:22:38.000Z</time>
      </trkpt>
      <trkpt lat="43.1549356598407" lon="-6.945407660678029">
        <ele>983</ele>
        <time>2017-08-08T08:22:42.000Z</time>
      </trkpt>
      <trkpt lat="43.15495636314154" lon="-6.945532634854317">
        <ele>983</ele>
        <time>2017-08-08T08:22:51.000Z</time>
      </trkpt>
      <trkpt lat="43.154989555478096" lon="-6.945651825517416">
        <ele>983.4</ele>
        <time>2017-08-08T08:23:00.000Z</time>
      </trkpt>
      <trkpt lat="43.15502543002367" lon="-6.945762215182185">
        <ele>983.6</ele>
        <time>2017-08-08T08:23:09.000Z</time>
      </trkpt>
      <trkpt lat="43.15506926737726" lon="-6.945880064740777">
        <ele>983.4</ele>
        <time>2017-08-08T08:23:18.000Z</time>
      </trkpt>
      <trkpt lat="43.15512358210981" lon="-6.946011409163475">
        <ele>983.6</ele>
        <time>2017-08-08T08:23:28.000Z</time>
      </trkpt>
      <trkpt lat="43.155174292624" lon="-6.946094138547778">
        <ele>984</ele>
        <time>2017-08-08T08:23:35.000Z</time>
      </trkpt>
      <trkpt lat="43.155236234888434" lon="-6.94619782269001">
        <ele>984.2</ele>
        <time>2017-08-08T08:23:44.000Z</time>
      </trkpt>
      <trkpt lat="43.155304715037346" lon="-6.946303015574813">
        <ele>984.6</ele>
        <time>2017-08-08T08:23:53.000Z</time>
      </trkpt>
      <trkpt lat="43.15535802394152" lon="-6.946374597027898">
        <ele>985</ele>
        <time>2017-08-08T08:24:00.000Z</time>
      </trkpt>
      <trkpt lat="43.15541812218726" lon="-6.94645531475544">
        <ele>985.4</ele>
        <time>2017-08-08T08:24:08.000Z</time>
      </trkpt>
      <trkpt lat="43.15548961982131" lon="-6.946542486548424">
        <ele>986</ele>
        <time>2017-08-08T08:24:17.000Z</time>
      </trkpt>
      <trkpt lat="43.15555525012314" lon="-6.946628987789154">
        <ele>986.2</ele>
        <time>2017-08-08T08:24:25.000Z</time>
      </trkpt>
      <trkpt lat="43.15560973249376" lon="-6.9467083644121885">
        <ele>985.8</ele>
        <time>2017-08-08T08:24:32.000Z</time>
      </trkpt>
      <trkpt lat="43.155686846002936" lon="-6.946826800704002">
        <ele>985.2</ele>
        <time>2017-08-08T08:24:42.000Z</time>
      </trkpt>
      <trkpt lat="43.15574945881963" lon="-6.946915313601494">
        <ele>986.4</ele>
        <time>2017-08-08T08:24:50.000Z</time>
      </trkpt>
      <trkpt lat="43.155814250931144" lon="-6.947001479566097">
        <ele>987.6</ele>
        <time>2017-08-08T08:24:58.000Z</time>
      </trkpt>
      <trkpt lat="43.155867140740156" lon="-6.947092255577445">
        <ele>988.4</ele>
        <time>2017-08-08T08:25:06.000Z</time>
      </trkpt>
      <trkpt lat="43.155921790748835" lon="-6.947189066559076">
        <ele>989.2</ele>
        <time>2017-08-08T08:25:14.000Z</time>
      </trkpt>
      <trkpt lat="43.15597677603364" lon="-6.947276322171092">
        <ele>989.4</ele>
        <time>2017-08-08T08:25:22.000Z</time>
      </trkpt>
      <trkpt lat="43.156023379415274" lon="-6.947378916665912">
        <ele>989.2</ele>
        <time>2017-08-08T08:25:31.000Z</time>
      </trkpt>
      <trkpt lat="43.15607241354883" lon="-6.947489390149713">
        <ele>989.6</ele>
        <time>2017-08-08T08:25:40.000Z</time>
      </trkpt>
      <trkpt lat="43.15610091201961" lon="-6.947583435103297">
        <ele>990.2</ele>
        <time>2017-08-08T08:25:47.000Z</time>
      </trkpt>
      <trkpt lat="43.15610493533313" lon="-6.947630709037185">
        <ele>990.2</ele>
        <time>2017-08-08T08:25:51.000Z</time>
      </trkpt>
      <trkpt lat="43.15611164085567" lon="-6.947659542784095">
        <ele>990.4</ele>
        <time>2017-08-08T08:25:53.000Z</time>
      </trkpt>
      <trkpt lat="43.15613963641226" lon="-6.94777806289494">
        <ele>990.8</ele>
        <time>2017-08-08T08:26:01.000Z</time>
      </trkpt>
      <trkpt lat="43.156162267550826" lon="-6.947869174182415">
        <ele>991.2</ele>
        <time>2017-08-08T08:26:08.000Z</time>
      </trkpt>
      <trkpt lat="43.15618841908872" lon="-6.947974702343345">
        <ele>991.6</ele>
        <time>2017-08-08T08:26:15.000Z</time>
      </trkpt>
      <trkpt lat="43.156204177066684" lon="-6.948080565780401">
        <ele>991.8</ele>
        <time>2017-08-08T08:26:22.000Z</time>
      </trkpt>
      <trkpt lat="43.1562206055969" lon="-6.94818802177906">
        <ele>992</ele>
        <time>2017-08-08T08:26:29.000Z</time>
      </trkpt>
      <trkpt lat="43.15621767193079" lon="-6.948304530233145">
        <ele>992.4</ele>
        <time>2017-08-08T08:26:36.000Z</time>
      </trkpt>
      <trkpt lat="43.156201243400574" lon="-6.948435120284557">
        <ele>993.2</ele>
        <time>2017-08-08T08:26:44.000Z</time>
      </trkpt>
      <trkpt lat="43.15618146210909" lon="-6.9485534727573395">
        <ele>993.8</ele>
        <time>2017-08-08T08:26:52.000Z</time>
      </trkpt>
      <trkpt lat="43.15616645850241" lon="-6.948596388101578">
        <ele>994</ele>
        <time>2017-08-08T08:26:55.000Z</time>
      </trkpt>
      <trkpt lat="43.1561291590333" lon="-6.948656067252159">
        <ele>994</ele>
        <time>2017-08-08T08:27:00.000Z</time>
      </trkpt>
      <trkpt lat="43.156043998897076" lon="-6.948763690888882">
        <ele>993.8</ele>
        <time>2017-08-08T08:27:10.000Z</time>
      </trkpt>
      <trkpt lat="43.155992198735476" lon="-6.948805181309581">
        <ele>993.6</ele>
        <time>2017-08-08T08:27:16.000Z</time>
      </trkpt>
      <trkpt lat="43.155899327248335" lon="-6.948827980086207">
        <ele>992.6</ele>
        <time>2017-08-08T08:27:25.000Z</time>
      </trkpt>
      <trkpt lat="43.155847024172544" lon="-6.948856310918927">
        <ele>992.2</ele>
        <time>2017-08-08T08:27:31.000Z</time>
      </trkpt>
      <trkpt lat="43.1558355409652" lon="-6.948879947885871">
        <ele>992.2</ele>
        <time>2017-08-08T08:27:33.000Z</time>
      </trkpt>
      <trkpt lat="43.15582372248173" lon="-6.948904674500227">
        <ele>992.2</ele>
        <time>2017-08-08T08:27:35.000Z</time>
      </trkpt>
      <trkpt lat="43.15579991787672" lon="-6.948980949819088">
        <ele>992.4</ele>
        <time>2017-08-08T08:27:41.000Z</time>
      </trkpt>
      <trkpt lat="43.155781058594584" lon="-6.949043311178684">
        <ele>992.6</ele>
        <time>2017-08-08T08:27:46.000Z</time>
      </trkpt>
      <trkpt lat="43.15576898865402" lon="-6.94909687153995">
        <ele>993</ele>
        <time>2017-08-08T08:27:50.000Z</time>
      </trkpt>
      <trkpt lat="43.155737137421966" lon="-6.949171219021082">
        <ele>993.8</ele>
        <time>2017-08-08T08:27:57.000Z</time>
      </trkpt>
      <trkpt lat="43.15570612438023" lon="-6.949278339743614">
        <ele>995</ele>
        <time>2017-08-08T08:28:05.000Z</time>
      </trkpt>
      <trkpt lat="43.15566781908274" lon="-6.9493981171399355">
        <ele>996.6</ele>
        <time>2017-08-08T08:28:14.000Z</time>
      </trkpt>
      <trkpt lat="43.15563194453716" lon="-6.949522336944938">
        <ele>998.2</ele>
        <time>2017-08-08T08:28:24.000Z</time>
      </trkpt>
      <trkpt lat="43.155608139932156" lon="-6.949610430747271">
        <ele>999.4</ele>
        <time>2017-08-08T08:28:31.000Z</time>
      </trkpt>
      <trkpt lat="43.155583748593926" lon="-6.949720568954945">
        <ele>1001</ele>
        <time>2017-08-08T08:28:39.000Z</time>
      </trkpt>
      <trkpt lat="43.155542593449354" lon="-6.949878400191665">
        <ele>1003.2</ele>
        <time>2017-08-08T08:28:50.000Z</time>
      </trkpt>
      <trkpt lat="43.15551275387406" lon="-6.949961548671126">
        <ele>1004</ele>
        <time>2017-08-08T08:28:57.000Z</time>
      </trkpt>
      <trkpt lat="43.15548576414585" lon="-6.950063304975629">
        <ele>1005.2</ele>
        <time>2017-08-08T08:29:05.000Z</time>
      </trkpt>
      <trkpt lat="43.15546648576856" lon="-6.950149219483137">
        <ele>1006</ele>
        <time>2017-08-08T08:29:12.000Z</time>
      </trkpt>
      <trkpt lat="43.15544947050512" lon="-6.9502421747893095">
        <ele>1007.2</ele>
        <time>2017-08-08T08:29:19.000Z</time>
      </trkpt>
      <trkpt lat="43.15542818047106" lon="-6.950338231399655">
        <ele>1008.2</ele>
        <time>2017-08-08T08:29:26.000Z</time>
      </trkpt>
      <trkpt lat="43.15540999174118" lon="-6.950440825894475">
        <ele>1009.4</ele>
        <time>2017-08-08T08:29:33.000Z</time>
      </trkpt>
      <trkpt lat="43.15537294372916" lon="-6.950563117861748">
        <ele>1010.6</ele>
        <time>2017-08-08T08:29:42.000Z</time>
      </trkpt>
      <trkpt lat="43.155368668958545" lon="-6.950578037649393">
        <ele>1010.8</ele>
        <time>2017-08-08T08:29:43.000Z</time>
      </trkpt>
      <trkpt lat="43.15534561872482" lon="-6.950642243027687">
        <ele>1011.4</ele>
        <time>2017-08-08T08:29:48.000Z</time>
      </trkpt>
      <trkpt lat="43.15533857792616" lon="-6.950669400393963">
        <ele>1011.8</ele>
        <time>2017-08-08T08:29:50.000Z</time>
      </trkpt>
      <trkpt lat="43.15531795844436" lon="-6.950768223032355">
        <ele>1013</ele>
        <time>2017-08-08T08:29:57.000Z</time>
      </trkpt>
      <trkpt lat="43.15529029816389" lon="-6.95087693631649">
        <ele>1014.4</ele>
        <time>2017-08-08T08:30:05.000Z</time>
      </trkpt>
      <trkpt lat="43.15525182522833" lon="-6.9509566482156515">
        <ele>1015.2</ele>
        <time>2017-08-08T08:30:12.000Z</time>
      </trkpt>
      <trkpt lat="43.15521343611181" lon="-6.951061170548201">
        <ele>1016.6</ele>
        <time>2017-08-08T08:30:20.000Z</time>
      </trkpt>
      <trkpt lat="43.15519197843969" lon="-6.95115982554853">
        <ele>1018</ele>
        <time>2017-08-08T08:30:28.000Z</time>
      </trkpt>
      <trkpt lat="43.15515819936991" lon="-6.951248673722148">
        <ele>1019</ele>
        <time>2017-08-08T08:30:35.000Z</time>
      </trkpt>
      <trkpt lat="43.15514302812517" lon="-6.951337018981576">
        <ele>1020.2</ele>
        <time>2017-08-08T08:30:41.000Z</time>
      </trkpt>
      <trkpt lat="43.15512366592884" lon="-6.951433410868049">
        <ele>1021.6</ele>
        <time>2017-08-08T08:30:48.000Z</time>
      </trkpt>
      <trkpt lat="43.15509617328644" lon="-6.951548410579562">
        <ele>1023.4</ele>
        <time>2017-08-08T08:30:56.000Z</time>
      </trkpt>
      <trkpt lat="43.15506264567375" lon="-6.951671792194247">
        <ele>1026.6</ele>
        <time>2017-08-08T08:31:05.000Z</time>
      </trkpt>
      <trkpt lat="43.15504747442901" lon="-6.951796766370535">
        <ele>1029.8</ele>
        <time>2017-08-08T08:31:13.000Z</time>
      </trkpt>
      <trkpt lat="43.15503850579262" lon="-6.951880669221282">
        <ele>1032</ele>
        <time>2017-08-08T08:31:19.000Z</time>
      </trkpt>
      <trkpt lat="43.155035907402635" lon="-6.951887710019946">
        <ele>1032.2</ele>
        <time>2017-08-08T08:31:20.000Z</time>
      </trkpt>
      <trkpt lat="43.155019814148545" lon="-6.951961051672697">
        <ele>1034.2</ele>
        <time>2017-08-08T08:31:25.000Z</time>
      </trkpt>
      <trkpt lat="43.1550170481205" lon="-6.951990053057671">
        <ele>1035</ele>
        <time>2017-08-08T08:31:27.000Z</time>
      </trkpt>
      <trkpt lat="43.15501218661666" lon="-6.95207747630775">
        <ele>1037.2</ele>
        <time>2017-08-08T08:31:33.000Z</time>
      </trkpt>
      <trkpt lat="43.15499416552484" lon="-6.952213766053319">
        <ele>1040.6</ele>
        <time>2017-08-08T08:31:42.000Z</time>
      </trkpt>
      <trkpt lat="43.154951333999634" lon="-6.952291131019592">
        <ele>1042.8</ele>
        <time>2017-08-08T08:31:49.000Z</time>
      </trkpt>
      <trkpt lat="43.15488712862134" lon="-6.952335219830275">
        <ele>1044.2</ele>
        <time>2017-08-08T08:31:56.000Z</time>
      </trkpt>
      <trkpt lat="43.15480448305607" lon="-6.952349804341793">
        <ele>1045</ele>
        <time>2017-08-08T08:32:03.000Z</time>
      </trkpt>
      <trkpt lat="43.15471798181534" lon="-6.952344523742795">
        <ele>1045.2</ele>
        <time>2017-08-08T08:32:11.000Z</time>
      </trkpt>
      <trkpt lat="43.1546491663903" lon="-6.95234670303762">
        <ele>1045.6</ele>
        <time>2017-08-08T08:32:18.000Z</time>
      </trkpt>
      <trkpt lat="43.15456450916827" lon="-6.952319545671344">
        <ele>1045.4</ele>
        <time>2017-08-08T08:32:26.000Z</time>
      </trkpt>
      <trkpt lat="43.15450030378997" lon="-6.952288867905736">
        <ele>1045</ele>
        <time>2017-08-08T08:32:31.000Z</time>
      </trkpt>
      <trkpt lat="43.15442838706076" lon="-6.952268164604902">
        <ele>1044.8</ele>
        <time>2017-08-08T08:32:38.000Z</time>
      </trkpt>
      <trkpt lat="43.15436854027212" lon="-6.952259531244636">
        <ele>1044.4</ele>
        <time>2017-08-08T08:32:44.000Z</time>
      </trkpt>
      <trkpt lat="43.15433794632554" lon="-6.952271433547139">
        <ele>1044.8</ele>
        <time>2017-08-08T08:32:50.000Z</time>
      </trkpt>
      <trkpt lat="43.154283883050084" lon="-6.952285515144467">
        <ele>1045</ele>
        <time>2017-08-08T08:32:56.000Z</time>
      </trkpt>
      <trkpt lat="43.154192520305514" lon="-6.952299848198891">
        <ele>1045.2</ele>
        <time>2017-08-08T08:33:05.000Z</time>
      </trkpt>
      <trkpt lat="43.15411364659667" lon="-6.952312001958489">
        <ele>1045.2</ele>
        <time>2017-08-08T08:33:12.000Z</time>
      </trkpt>
      <trkpt lat="43.15405195578933" lon="-6.952348714694381">
        <ele>1046.2</ele>
        <time>2017-08-08T08:33:19.000Z</time>
      </trkpt>
      <trkpt lat="43.15398205071688" lon="-6.9523832481354475">
        <ele>1047.2</ele>
        <time>2017-08-08T08:33:26.000Z</time>
      </trkpt>
      <trkpt lat="43.15395531244576" lon="-6.952404119074345">
        <ele>1047.8</ele>
        <time>2017-08-08T08:33:29.000Z</time>
      </trkpt>
      <trkpt lat="43.15392991527915" lon="-6.952427588403225">
        <ele>1048.2</ele>
        <time>2017-08-08T08:33:32.000Z</time>
      </trkpt>
      <trkpt lat="43.15388096496463" lon="-6.952463630586863">
        <ele>1049.2</ele>
        <time>2017-08-08T08:33:37.000Z</time>
      </trkpt>
      <trkpt lat="43.153848526999354" lon="-6.952481400221586">
        <ele>1049.4</ele>
        <time>2017-08-08T08:33:40.000Z</time>
      </trkpt>
      <trkpt lat="43.15382489003241" lon="-6.952513502910733">
        <ele>1050.2</ele>
        <time>2017-08-08T08:33:43.000Z</time>
      </trkpt>
      <trkpt lat="43.153796726837754" lon="-6.952543007209897">
        <ele>1051</ele>
        <time>2017-08-08T08:33:46.000Z</time>
      </trkpt>
      <trkpt lat="43.1537199486047" lon="-6.952605117112398">
        <ele>1052.4</ele>
        <time>2017-08-08T08:33:53.000Z</time>
      </trkpt>
      <trkpt lat="43.15369924530387" lon="-6.95262816734612">
        <ele>1053</ele>
        <time>2017-08-08T08:33:55.000Z</time>
      </trkpt>
      <trkpt lat="43.15364099107683" lon="-6.9526830688118935">
        <ele>1054.2</ele>
        <time>2017-08-08T08:34:01.000Z</time>
      </trkpt>
      <trkpt lat="43.15363084897399" lon="-6.952690780162811">
        <ele>1054.4</ele>
        <time>2017-08-08T08:34:02.000Z</time>
      </trkpt>
      <trkpt lat="43.15354526974261" lon="-6.952770492061973">
        <ele>1056.4</ele>
        <time>2017-08-08T08:34:11.000Z</time>
      </trkpt>
      <trkpt lat="43.1534765381366" lon="-6.952858753502369">
        <ele>1058.6</ele>
        <time>2017-08-08T08:34:19.000Z</time>
      </trkpt>
      <trkpt lat="43.1534075550735" lon="-6.952950116246939">
        <ele>1060.4</ele>
        <time>2017-08-08T08:34:28.000Z</time>
      </trkpt>
      <trkpt lat="43.15335332415998" lon="-6.95302345789969">
        <ele>1061.4</ele>
        <time>2017-08-08T08:34:35.000Z</time>
      </trkpt>
      <trkpt lat="43.15335198305547" lon="-6.953024882823229">
        <ele>1061.4</ele>
        <time>2017-08-08T08:34:36.000Z</time>
      </trkpt>
      <trkpt lat="43.15330948680639" lon="-6.953080706298351">
        <ele>1062.4</ele>
        <time>2017-08-08T08:34:48.000Z</time>
      </trkpt>
      <trkpt lat="43.15326791256666" lon="-6.953147007152438">
        <ele>1063.4</ele>
        <time>2017-08-08T08:34:56.000Z</time>
      </trkpt>
      <trkpt lat="43.153237821534276" lon="-6.953226886689663">
        <ele>1065.2</ele>
        <time>2017-08-08T08:35:03.000Z</time>
      </trkpt>
      <trkpt lat="43.1531728617847" lon="-6.953333001583815">
        <ele>1066.4</ele>
        <time>2017-08-08T08:35:13.000Z</time>
      </trkpt>
      <trkpt lat="43.15312357619405" lon="-6.953374994918704">
        <ele>1066.6</ele>
        <time>2017-08-08T08:35:19.000Z</time>
      </trkpt>
      <trkpt lat="43.153120558708906" lon="-6.95336745120585">
        <ele>1066.4</ele>
        <time>2017-08-08T08:35:21.000Z</time>
      </trkpt>
      <trkpt lat="43.15311343409121" lon="-6.953357392922044">
        <ele>1066</ele>
        <time>2017-08-08T08:35:26.000Z</time>
      </trkpt>
      <trkpt lat="43.153104800730944" lon="-6.953353704884648">
        <ele>1065.8</ele>
        <time>2017-08-08T08:35:57.000Z</time>
      </trkpt>
      <trkpt lat="43.15309725701809" lon="-6.953358231112361">
        <ele>1065.8</ele>
        <time>2017-08-08T08:36:07.000Z</time>
      </trkpt>
      <trkpt lat="43.15310513600707" lon="-6.953368121758103">
        <ele>1066</ele>
        <time>2017-08-08T08:36:31.000Z</time>
      </trkpt>
      <trkpt lat="43.15307579934597" lon="-6.953391758725047">
        <ele>1066</ele>
        <time>2017-08-08T08:37:32.000Z</time>
      </trkpt>
      <trkpt lat="43.153083426877856" lon="-6.9533780962228775">
        <ele>1066</ele>
        <time>2017-08-08T08:37:45.000Z</time>
      </trkpt>
      <trkpt lat="43.15309298224747" lon="-6.95338262245059">
        <ele>1066.2</ele>
        <time>2017-08-08T08:38:32.000Z</time>
      </trkpt>
      <trkpt lat="43.1530830077827" lon="-6.9534278847277164">
        <ele>1067</ele>
        <time>2017-08-08T08:39:26.000Z</time>
      </trkpt>
      <trkpt lat="43.153075128793716" lon="-6.953437021002173">
        <ele>1067</ele>
        <time>2017-08-08T08:39:27.000Z</time>
      </trkpt>
      <trkpt lat="43.153080912306905" lon="-6.953444983810186">
        <ele>1067.4</ele>
        <time>2017-08-08T08:39:33.000Z</time>
      </trkpt>
      <trkpt lat="43.15305040217936" lon="-6.953493934124708">
        <ele>1067.8</ele>
        <time>2017-08-08T08:39:42.000Z</time>
      </trkpt>
      <trkpt lat="43.153002290055156" lon="-6.953583033755422">
        <ele>1069</ele>
        <time>2017-08-08T08:39:50.000Z</time>
      </trkpt>
      <trkpt lat="43.15298435278237" lon="-6.953609101474285">
        <ele>1069.2</ele>
        <time>2017-08-08T08:39:52.000Z</time>
      </trkpt>
      <trkpt lat="43.15296742133796" lon="-6.953632989898324">
        <ele>1069.4</ele>
        <time>2017-08-08T08:39:55.000Z</time>
      </trkpt>
      <trkpt lat="43.152923583984375" lon="-6.9536952674388885">
        <ele>1070</ele>
        <time>2017-08-08T08:40:00.000Z</time>
      </trkpt>
      <trkpt lat="43.152903970330954" lon="-6.95370708592236">
        <ele>1070</ele>
        <time>2017-08-08T08:40:02.000Z</time>
      </trkpt>
      <trkpt lat="43.15289583988488" lon="-6.953719323500991">
        <ele>1070.2</ele>
        <time>2017-08-08T08:40:04.000Z</time>
      </trkpt>
      <trkpt lat="43.152839513495564" lon="-6.953807752579451">
        <ele>1071</ele>
        <time>2017-08-08T08:40:11.000Z</time>
      </trkpt>
      <trkpt lat="43.152811601758" lon="-6.95383750833571">
        <ele>1071.2</ele>
        <time>2017-08-08T08:40:13.000Z</time>
      </trkpt>
      <trkpt lat="43.15279207192361" lon="-6.95386148057878">
        <ele>1071.4</ele>
        <time>2017-08-08T08:40:15.000Z</time>
      </trkpt>
      <trkpt lat="43.15273901447654" lon="-6.953974636271596">
        <ele>1073</ele>
        <time>2017-08-08T08:40:23.000Z</time>
      </trkpt>
      <trkpt lat="43.15273339860141" lon="-6.953988382592797">
        <ele>1073.2</ele>
        <time>2017-08-08T08:40:24.000Z</time>
      </trkpt>
      <trkpt lat="43.15269987098873" lon="-6.954095084220171">
        <ele>1075</ele>
        <time>2017-08-08T08:40:31.000Z</time>
      </trkpt>
      <trkpt lat="43.152660643681884" lon="-6.954197930172086">
        <ele>1076.6</ele>
        <time>2017-08-08T08:40:38.000Z</time>
      </trkpt>
      <trkpt lat="43.15261856652796" lon="-6.9542939029634">
        <ele>1077.8</ele>
        <time>2017-08-08T08:40:45.000Z</time>
      </trkpt>
      <trkpt lat="43.15260515548289" lon="-6.954344613477588">
        <ele>1078.8</ele>
        <time>2017-08-08T08:40:48.000Z</time>
      </trkpt>
      <trkpt lat="43.15258797258139" lon="-6.954385517165065">
        <ele>1079.8</ele>
        <time>2017-08-08T08:40:51.000Z</time>
      </trkpt>
      <trkpt lat="43.1525391060859" lon="-6.954475203529">
        <ele>1081.8</ele>
        <time>2017-08-08T08:40:59.000Z</time>
      </trkpt>
      <trkpt lat="43.15248814411461" lon="-6.954559693112969">
        <ele>1083.8</ele>
        <time>2017-08-08T08:41:06.000Z</time>
      </trkpt>
      <trkpt lat="43.15242117270827" lon="-6.954654576256871">
        <ele>1086</ele>
        <time>2017-08-08T08:41:14.000Z</time>
      </trkpt>
      <trkpt lat="43.15233802422881" lon="-6.954698748886585">
        <ele>1087.2</ele>
        <time>2017-08-08T08:41:21.000Z</time>
      </trkpt>
      <trkpt lat="43.15223987214267" lon="-6.9546860083937645">
        <ele>1087</ele>
        <time>2017-08-08T08:41:29.000Z</time>
      </trkpt>
      <trkpt lat="43.15217901952565" lon="-6.954645775258541">
        <ele>1086.4</ele>
        <time>2017-08-08T08:41:35.000Z</time>
      </trkpt>
      <trkpt lat="43.15209913998842" lon="-6.9546223897486925">
        <ele>1086</ele>
        <time>2017-08-08T08:41:42.000Z</time>
      </trkpt>
      <trkpt lat="43.15202604979277" lon="-6.954616019502282">
        <ele>1086.2</ele>
        <time>2017-08-08T08:41:48.000Z</time>
      </trkpt>
      <trkpt lat="43.15201364457607" lon="-6.954619958996773">
        <ele>1086.2</ele>
        <time>2017-08-08T08:41:49.000Z</time>
      </trkpt>
      <trkpt lat="43.15192546695471" lon="-6.954647032544017">
        <ele>1087.2</ele>
        <time>2017-08-08T08:41:57.000Z</time>
      </trkpt>
      <trkpt lat="43.15182815305889" lon="-6.954675866290927">
        <ele>1088</ele>
        <time>2017-08-08T08:42:06.000Z</time>
      </trkpt>
      <trkpt lat="43.151796301826835" lon="-6.95468332618475">
        <ele>1088.4</ele>
        <time>2017-08-08T08:42:10.000Z</time>
      </trkpt>
      <trkpt lat="43.15170854330063" lon="-6.9547113217413425">
        <ele>1088.4</ele>
        <time>2017-08-08T08:42:19.000Z</time>
      </trkpt>
      <trkpt lat="43.15166235901415" lon="-6.954746609553695">
        <ele>1088.8</ele>
        <time>2017-08-08T08:42:26.000Z</time>
      </trkpt>
      <trkpt lat="43.15164157189429" lon="-6.954757254570723">
        <ele>1088.8</ele>
        <time>2017-08-08T08:42:34.000Z</time>
      </trkpt>
      <trkpt lat="43.15161416307092" lon="-6.954778460785747">
        <ele>1089</ele>
        <time>2017-08-08T08:42:42.000Z</time>
      </trkpt>
      <trkpt lat="43.15161718055606" lon="-6.95479279384017">
        <ele>1089.4</ele>
        <time>2017-08-08T08:42:49.000Z</time>
      </trkpt>
      <trkpt lat="43.15159002318978" lon="-6.954806791618466">
        <ele>1089.4</ele>
        <time>2017-08-08T08:42:57.000Z</time>
      </trkpt>
      <trkpt lat="43.15159220248461" lon="-6.954813748598099">
        <ele>1089.6</ele>
        <time>2017-08-08T08:43:05.000Z</time>
      </trkpt>
      <trkpt lat="43.15158298239112" lon="-6.954811234027147">
        <ele>1089.4</ele>
        <time>2017-08-08T08:43:14.000Z</time>
      </trkpt>
      <trkpt lat="43.151570996269584" lon="-6.9547979068011045">
        <ele>1089</ele>
        <time>2017-08-08T08:43:43.000Z</time>
      </trkpt>
      <trkpt lat="43.15156923606992" lon="-6.954791368916631">
        <ele>1088.8</ele>
        <time>2017-08-08T08:43:50.000Z</time>
      </trkpt>
      <trkpt lat="43.151550963521004" lon="-6.95479329675436">
        <ele>1088.8</ele>
        <time>2017-08-08T08:44:26.000Z</time>
      </trkpt>
      <trkpt lat="43.151514837518334" lon="-6.954799918457866">
        <ele>1088.6</ele>
        <time>2017-08-08T08:46:54.000Z</time>
      </trkpt>
      <trkpt lat="43.15146043896675" lon="-6.9548196997493505">
        <ele>1088.6</ele>
        <time>2017-08-08T08:47:01.000Z</time>
      </trkpt>
      <trkpt lat="43.15142473205924" lon="-6.954832104966044">
        <ele>1088.4</ele>
        <time>2017-08-08T08:47:05.000Z</time>
      </trkpt>
      <trkpt lat="43.151399083435535" lon="-6.954834703356028">
        <ele>1088.4</ele>
        <time>2017-08-08T08:47:08.000Z</time>
      </trkpt>
      <trkpt lat="43.15132901072502" lon="-6.95483235642314">
        <ele>1087.6</ele>
        <time>2017-08-08T08:47:15.000Z</time>
      </trkpt>
      <trkpt lat="43.151247119531035" lon="-6.954851467162371">
        <ele>1087.4</ele>
        <time>2017-08-08T08:47:24.000Z</time>
      </trkpt>
      <trkpt lat="43.15123706124723" lon="-6.95485289208591">
        <ele>1087.4</ele>
        <time>2017-08-08T08:47:25.000Z</time>
      </trkpt>
      <trkpt lat="43.15121862106025" lon="-6.954858424142003">
        <ele>1087.2</ele>
        <time>2017-08-08T08:47:27.000Z</time>
      </trkpt>
      <trkpt lat="43.1511902064085" lon="-6.954873260110617">
        <ele>1087.4</ele>
        <time>2017-08-08T08:47:30.000Z</time>
      </trkpt>
      <trkpt lat="43.151180651038885" lon="-6.954876780509949">
        <ele>1087.4</ele>
        <time>2017-08-08T08:47:31.000Z</time>
      </trkpt>
      <trkpt lat="43.15111393108964" lon="-6.954902512952685">
        <ele>1087.4</ele>
        <time>2017-08-08T08:47:37.000Z</time>
      </trkpt>
      <trkpt lat="43.15103866159916" lon="-6.954940315335989">
        <ele>1087.2</ele>
        <time>2017-08-08T08:47:44.000Z</time>
      </trkpt>
      <trkpt lat="43.15102893859148" lon="-6.954944506287575">
        <ele>1087.2</ele>
        <time>2017-08-08T08:47:45.000Z</time>
      </trkpt>
      <trkpt lat="43.15097873099148" lon="-6.954961773008108">
        <ele>1087</ele>
        <time>2017-08-08T08:47:50.000Z</time>
      </trkpt>
      <trkpt lat="43.15090782009065" lon="-6.955006280913949">
        <ele>1087.4</ele>
        <time>2017-08-08T08:47:57.000Z</time>
      </trkpt>
      <trkpt lat="43.15085744485259" lon="-6.955052884295583">
        <ele>1088.2</ele>
        <time>2017-08-08T08:48:02.000Z</time>
      </trkpt>
      <trkpt lat="43.15083933994174" lon="-6.955071492120624">
        <ele>1088.4</ele>
        <time>2017-08-08T08:48:04.000Z</time>
      </trkpt>
      <trkpt lat="43.15079877153039" lon="-6.955097643658519">
        <ele>1088.8</ele>
        <time>2017-08-08T08:48:08.000Z</time>
      </trkpt>
      <trkpt lat="43.150769183412194" lon="-6.955135362222791">
        <ele>1089.4</ele>
        <time>2017-08-08T08:48:11.000Z</time>
      </trkpt>
      <trkpt lat="43.150679245591164" lon="-6.955206859856844">
        <ele>1090.6</ele>
        <time>2017-08-08T08:48:20.000Z</time>
      </trkpt>
      <trkpt lat="43.150651501491666" lon="-6.955233681946993">
        <ele>1091</ele>
        <time>2017-08-08T08:48:23.000Z</time>
      </trkpt>
      <trkpt lat="43.150609927251935" lon="-6.955258911475539">
        <ele>1091.4</ele>
        <time>2017-08-08T08:48:27.000Z</time>
      </trkpt>
      <trkpt lat="43.15053407102823" lon="-6.955318758264184">
        <ele>1092.4</ele>
        <time>2017-08-08T08:48:34.000Z</time>
      </trkpt>
      <trkpt lat="43.15049811266363" lon="-6.955339629203081">
        <ele>1092.6</ele>
        <time>2017-08-08T08:48:37.000Z</time>
      </trkpt>
      <trkpt lat="43.1504425406456" lon="-6.955372989177704">
        <ele>1092.8</ele>
        <time>2017-08-08T08:48:42.000Z</time>
      </trkpt>
      <trkpt lat="43.150362242013216" lon="-6.955402409657836">
        <ele>1092.4</ele>
        <time>2017-08-08T08:48:49.000Z</time>
      </trkpt>
      <trkpt lat="43.15025352872908" lon="-6.95544901303947">
        <ele>1092.2</ele>
        <time>2017-08-08T08:48:59.000Z</time>
      </trkpt>
      <trkpt lat="43.1501576397568" lon="-6.955472901463509">
        <ele>1091.6</ele>
        <time>2017-08-08T08:49:07.000Z</time>
      </trkpt>
      <trkpt lat="43.150063175708055" lon="-6.9554979633539915">
        <ele>1091.4</ele>
        <time>2017-08-08T08:49:15.000Z</time>
      </trkpt>
      <trkpt lat="43.149971226230264" lon="-6.95552478544414">
        <ele>1091.8</ele>
        <time>2017-08-08T08:49:23.000Z</time>
      </trkpt>
      <trkpt lat="43.14989721402526" lon="-6.955554289743304">
        <ele>1092.4</ele>
        <time>2017-08-08T08:49:30.000Z</time>
      </trkpt>
      <trkpt lat="43.149882378056645" lon="-6.9555518589913845">
        <ele>1092.2</ele>
        <time>2017-08-08T08:49:31.000Z</time>
      </trkpt>
      <trkpt lat="43.14984457567334" lon="-6.955563761293888">
        <ele>1092.4</ele>
        <time>2017-08-08T08:49:34.000Z</time>
      </trkpt>
      <trkpt lat="43.14982295036316" lon="-6.955570382997394">
        <ele>1092.4</ele>
        <time>2017-08-08T08:49:36.000Z</time>
      </trkpt>
      <trkpt lat="43.149742064997554" lon="-6.955587398260832">
        <ele>1092.6</ele>
        <time>2017-08-08T08:49:43.000Z</time>
      </trkpt>
      <trkpt lat="43.14964751712978" lon="-6.955621847882867">
        <ele>1093.2</ele>
        <time>2017-08-08T08:49:51.000Z</time>
      </trkpt>
      <trkpt lat="43.14963393844664" lon="-6.955628218129277">
        <ele>1093.4</ele>
        <time>2017-08-08T08:49:52.000Z</time>
      </trkpt>
      <trkpt lat="43.14963393844664" lon="-6.955628218129277">
        <ele>1093.4</ele>
        <time>2017-08-08T08:49:52.000Z</time>
      </trkpt>
      <trkpt lat="43.14960116520524" lon="-6.9556487537920475">
        <ele>1093.8</ele>
        <time>2017-08-08T08:49:55.000Z</time>
      </trkpt>
      <trkpt lat="43.1495772767812" lon="-6.955665266141295">
        <ele>1094.2</ele>
        <time>2017-08-08T08:49:57.000Z</time>
      </trkpt>
      <trkpt lat="43.149552969262004" lon="-6.955694183707237">
        <ele>1094.8</ele>
        <time>2017-08-08T08:50:00.000Z</time>
      </trkpt>
      <trkpt lat="43.14951416105032" lon="-6.955737518146634">
        <ele>1096</ele>
        <time>2017-08-08T08:50:05.000Z</time>
      </trkpt>
      <trkpt lat="43.149481639266014" lon="-6.955780349671841">
        <ele>1096.6</ele>
        <time>2017-08-08T08:50:10.000Z</time>
      </trkpt>
      <trkpt lat="43.14947518520057" lon="-6.955788731575012">
        <ele>1096.8</ele>
        <time>2017-08-08T08:50:11.000Z</time>
      </trkpt>
      <trkpt lat="43.14945934340358" lon="-6.955821169540286">
        <ele>1097.4</ele>
        <time>2017-08-08T08:50:14.000Z</time>
      </trkpt>
      <trkpt lat="43.149436293169856" lon="-6.955857463181019">
        <ele>1097.8</ele>
        <time>2017-08-08T08:50:18.000Z</time>
      </trkpt>
      <trkpt lat="43.14939773641527" lon="-6.955926278606057">
        <ele>1099</ele>
        <time>2017-08-08T08:50:25.000Z</time>
      </trkpt>
      <trkpt lat="43.14939304254949" lon="-6.955949412658811">
        <ele>1099.2</ele>
        <time>2017-08-08T08:50:27.000Z</time>
      </trkpt>
      <trkpt lat="43.149363370612264" lon="-6.955983443185687">
        <ele>1099.8</ele>
        <time>2017-08-08T08:50:31.000Z</time>
      </trkpt>
      <trkpt lat="43.14934954047203" lon="-6.955998362973332">
        <ele>1100</ele>
        <time>2017-08-08T08:50:33.000Z</time>
      </trkpt>
      <trkpt lat="43.14932397566736" lon="-6.956045804545283">
        <ele>1100.6</ele>
        <time>2017-08-08T08:50:37.000Z</time>
      </trkpt>
      <trkpt lat="43.1492905318737" lon="-6.956087462604046">
        <ele>1101.2</ele>
        <time>2017-08-08T08:50:41.000Z</time>
      </trkpt>
      <trkpt lat="43.14927670173347" lon="-6.956102969124913">
        <ele>1101.6</ele>
        <time>2017-08-08T08:50:43.000Z</time>
      </trkpt>
      <trkpt lat="43.149249041453004" lon="-6.9561550207436085">
        <ele>1102.4</ele>
        <time>2017-08-08T08:50:48.000Z</time>
      </trkpt>
      <trkpt lat="43.14924258738756" lon="-6.956167342141271">
        <ele>1102.4</ele>
        <time>2017-08-08T08:50:49.000Z</time>
      </trkpt>
      <trkpt lat="43.149215346202254" lon="-6.956208078190684">
        <ele>1103</ele>
        <time>2017-08-08T08:50:53.000Z</time>
      </trkpt>
      <trkpt lat="43.149205623194575" lon="-6.956230038776994">
        <ele>1103.4</ele>
        <time>2017-08-08T08:50:55.000Z</time>
      </trkpt>
      <trkpt lat="43.149202186614275" lon="-6.956242360174656">
        <ele>1103.6</ele>
        <time>2017-08-08T08:50:56.000Z</time>
      </trkpt>
      <trkpt lat="43.14916488714516" lon="-6.956315701827407">
        <ele>1104.8</ele>
        <time>2017-08-08T08:51:02.000Z</time>
      </trkpt>
      <trkpt lat="43.149137143045664" lon="-6.956388624384999">
        <ele>1106</ele>
        <time>2017-08-08T08:51:08.000Z</time>
      </trkpt>
      <trkpt lat="43.14912213943899" lon="-6.956440256908536">
        <ele>1106.8</ele>
        <time>2017-08-08T08:51:12.000Z</time>
      </trkpt>
      <trkpt lat="43.14911551773548" lon="-6.956449896097183">
        <ele>1107</ele>
        <time>2017-08-08T08:51:13.000Z</time>
      </trkpt>
      <trkpt lat="43.1490991730243" lon="-6.956464145332575">
        <ele>1107.2</ele>
        <time>2017-08-08T08:51:15.000Z</time>
      </trkpt>
      <trkpt lat="43.149066818878055" lon="-6.956496248021722">
        <ele>1107.6</ele>
        <time>2017-08-08T08:51:19.000Z</time>
      </trkpt>
      <trkpt lat="43.14904318191111" lon="-6.95652105845511">
        <ele>1108</ele>
        <time>2017-08-08T08:51:22.000Z</time>
      </trkpt>
      <trkpt lat="43.149040248245" lon="-6.956533715128899">
        <ele>1108.2</ele>
        <time>2017-08-08T08:51:23.000Z</time>
      </trkpt>
      <trkpt lat="43.14903396181762" lon="-6.956547377631068">
        <ele>1108.4</ele>
        <time>2017-08-08T08:51:24.000Z</time>
      </trkpt>
      <trkpt lat="43.149011163040996" lon="-6.956606386229396">
        <ele>1109.4</ele>
        <time>2017-08-08T08:51:29.000Z</time>
      </trkpt>
      <trkpt lat="43.14899339340627" lon="-6.956650810316205">
        <ele>1110.2</ele>
        <time>2017-08-08T08:51:33.000Z</time>
      </trkpt>
      <trkpt lat="43.14898995682597" lon="-6.9566677417606115">
        <ele>1110.6</ele>
        <time>2017-08-08T08:51:34.000Z</time>
      </trkpt>
      <trkpt lat="43.14898945391178" lon="-6.956722056493163">
        <ele>1111.6</ele>
        <time>2017-08-08T08:51:38.000Z</time>
      </trkpt>
      <trkpt lat="43.148997919633985" lon="-6.956746531650424">
        <ele>1112.2</ele>
        <time>2017-08-08T08:51:40.000Z</time>
      </trkpt>
      <trkpt lat="43.14902557991445" lon="-6.956801181659102">
        <ele>1113.4</ele>
        <time>2017-08-08T08:51:45.000Z</time>
      </trkpt>
      <trkpt lat="43.14903052523732" lon="-6.956808725371957">
        <ele>1113.6</ele>
        <time>2017-08-08T08:51:46.000Z</time>
      </trkpt>
      <trkpt lat="43.14903538674116" lon="-6.956830099225044">
        <ele>1113.8</ele>
        <time>2017-08-08T08:51:53.000Z</time>
      </trkpt>
      <trkpt lat="43.149032117798924" lon="-6.956849377602339">
        <ele>1113.8</ele>
        <time>2017-08-08T08:52:04.000Z</time>
      </trkpt>
      <trkpt lat="43.149040918797255" lon="-6.9569039437919855">
        <ele>1113.8</ele>
        <time>2017-08-08T08:52:39.000Z</time>
      </trkpt>
      <trkpt lat="43.14906514249742" lon="-6.956972507759929">
        <ele>1113.4</ele>
        <time>2017-08-08T08:52:45.000Z</time>
      </trkpt>
      <trkpt lat="43.149067321792245" lon="-6.957080801948905">
        <ele>1113.6</ele>
        <time>2017-08-08T08:52:53.000Z</time>
      </trkpt>
      <trkpt lat="43.14906354993582" lon="-6.9571734219789505">
        <ele>1113.8</ele>
        <time>2017-08-08T08:52:59.000Z</time>
      </trkpt>
      <trkpt lat="43.14907059073448" lon="-6.9572479370981455">
        <ele>1113.8</ele>
        <time>2017-08-08T08:53:05.000Z</time>
      </trkpt>
      <trkpt lat="43.14907050691545" lon="-6.957259168848395">
        <ele>1113.8</ele>
        <time>2017-08-08T08:53:06.000Z</time>
      </trkpt>
      <trkpt lat="43.14908140338957" lon="-6.957300240173936">
        <ele>1113.6</ele>
        <time>2017-08-08T08:53:10.000Z</time>
      </trkpt>
      <trkpt lat="43.14908651635051" lon="-6.957321697846055">
        <ele>1113.6</ele>
        <time>2017-08-08T08:53:12.000Z</time>
      </trkpt>
      <trkpt lat="43.14908819273114" lon="-6.957341730594635">
        <ele>1113.6</ele>
        <time>2017-08-08T08:53:14.000Z</time>
      </trkpt>
      <trkpt lat="43.14908718690276" lon="-6.957387579604983">
        <ele>1113.6</ele>
        <time>2017-08-08T08:53:18.000Z</time>
      </trkpt>
      <trkpt lat="43.14908450469375" lon="-6.957447761669755">
        <ele>1114.2</ele>
        <time>2017-08-08T08:53:22.000Z</time>
      </trkpt>
      <trkpt lat="43.149090288206935" lon="-6.957463016733527">
        <ele>1114.2</ele>
        <time>2017-08-08T08:53:23.000Z</time>
      </trkpt>
      <trkpt lat="43.14910361543298" lon="-6.957541638985276">
        <ele>1114.8</ele>
        <time>2017-08-08T08:53:28.000Z</time>
      </trkpt>
      <trkpt lat="43.14907796680927" lon="-6.95769963786006">
        <ele>1114.8</ele>
        <time>2017-08-08T08:53:37.000Z</time>
      </trkpt>
      <trkpt lat="43.149059442803264" lon="-6.9578030705451965">
        <ele>1114.4</ele>
        <time>2017-08-08T08:53:43.000Z</time>
      </trkpt>
      <trkpt lat="43.14904946833849" lon="-6.95783844217658">
        <ele>1114.4</ele>
        <time>2017-08-08T08:53:45.000Z</time>
      </trkpt>
      <trkpt lat="43.14904108643532" lon="-6.957891415804625">
        <ele>1114.2</ele>
        <time>2017-08-08T08:53:48.000Z</time>
      </trkpt>
      <trkpt lat="43.149026837199926" lon="-6.957940114662051">
        <ele>1114.2</ele>
        <time>2017-08-08T08:53:51.000Z</time>
      </trkpt>
      <trkpt lat="43.14902457408607" lon="-6.9579600635915995">
        <ele>1114.2</ele>
        <time>2017-08-08T08:53:52.000Z</time>
      </trkpt>
      <trkpt lat="43.149011079221964" lon="-6.958041870966554">
        <ele>1113.8</ele>
        <time>2017-08-08T08:53:57.000Z</time>
      </trkpt>
      <trkpt lat="43.14900009892881" lon="-6.958075230941176">
        <ele>1113.8</ele>
        <time>2017-08-08T08:53:59.000Z</time>
      </trkpt>
      <trkpt lat="43.14899582415819" lon="-6.958169778808951">
        <ele>1113</ele>
        <time>2017-08-08T08:54:05.000Z</time>
      </trkpt>
      <trkpt lat="43.14899087883532" lon="-6.95820489898324">
        <ele>1113</ele>
        <time>2017-08-08T08:54:07.000Z</time>
      </trkpt>
      <trkpt lat="43.148981826379895" lon="-6.958295842632651">
        <ele>1112.8</ele>
        <time>2017-08-08T08:54:13.000Z</time>
      </trkpt>
      <trkpt lat="43.148971097543836" lon="-6.958413692191243">
        <ele>1113</ele>
        <time>2017-08-08T08:54:20.000Z</time>
      </trkpt>
      <trkpt lat="43.14896455965936" lon="-6.958547467365861">
        <ele>1113</ele>
        <time>2017-08-08T08:54:28.000Z</time>
      </trkpt>
      <trkpt lat="43.14896212890744" lon="-6.958672190085053">
        <ele>1112</ele>
        <time>2017-08-08T08:54:36.000Z</time>
      </trkpt>
      <trkpt lat="43.148955926299095" lon="-6.958763301372528">
        <ele>1111.4</ele>
        <time>2017-08-08T08:54:43.000Z</time>
      </trkpt>
      <trkpt lat="43.14894251525402" lon="-6.958854496479034">
        <ele>1111</ele>
        <time>2017-08-08T08:54:49.000Z</time>
      </trkpt>
      <trkpt lat="43.14892642199993" lon="-6.958962203934789">
        <ele>1110.8</ele>
        <time>2017-08-08T08:54:56.000Z</time>
      </trkpt>
      <trkpt lat="43.14890286885202" lon="-6.95909078232944">
        <ele>1110.4</ele>
        <time>2017-08-08T08:55:04.000Z</time>
      </trkpt>
      <trkpt lat="43.148881662636995" lon="-6.959214918315411">
        <ele>1110.2</ele>
        <time>2017-08-08T08:55:12.000Z</time>
      </trkpt>
      <trkpt lat="43.148885015398264" lon="-6.959244338795543">
        <ele>1109.8</ele>
        <time>2017-08-08T08:55:14.000Z</time>
      </trkpt>
      <trkpt lat="43.148887027055025" lon="-6.959307370707393">
        <ele>1109</ele>
        <time>2017-08-08T08:55:18.000Z</time>
      </trkpt>
      <trkpt lat="43.14886783249676" lon="-6.959388004615903">
        <ele>1109.2</ele>
        <time>2017-08-08T08:55:23.000Z</time>
      </trkpt>
      <trkpt lat="43.148871939629316" lon="-6.959403678774834">
        <ele>1108.8</ele>
        <time>2017-08-08T08:55:24.000Z</time>
      </trkpt>
      <trkpt lat="43.148869005963206" lon="-6.959443744271994">
        <ele>1108.6</ele>
        <time>2017-08-08T08:55:27.000Z</time>
      </trkpt>
      <trkpt lat="43.14886615611613" lon="-6.959469728171825">
        <ele>1108.4</ele>
        <time>2017-08-08T08:55:29.000Z</time>
      </trkpt>
      <trkpt lat="43.148851823061705" lon="-6.9595615938305855">
        <ele>1108.2</ele>
        <time>2017-08-08T08:55:35.000Z</time>
      </trkpt>
      <trkpt lat="43.148834304884076" lon="-6.959659913554788">
        <ele>1108</ele>
        <time>2017-08-08T08:55:41.000Z</time>
      </trkpt>
      <trkpt lat="43.14882575534284" lon="-6.959722945466638">
        <ele>1107.6</ele>
        <time>2017-08-08T08:55:45.000Z</time>
      </trkpt>
      <trkpt lat="43.148818546906114" lon="-6.95977047085762">
        <ele>1107.6</ele>
        <time>2017-08-08T08:55:48.000Z</time>
      </trkpt>
      <trkpt lat="43.14878753386438" lon="-6.959897708147764">
        <ele>1107.6</ele>
        <time>2017-08-08T08:55:56.000Z</time>
      </trkpt>
      <trkpt lat="43.1487675011158" lon="-6.960029639303684">
        <ele>1107</ele>
        <time>2017-08-08T08:56:04.000Z</time>
      </trkpt>
      <trkpt lat="43.14875207841396" lon="-6.960145644843578">
        <ele>1106.4</ele>
        <time>2017-08-08T08:56:11.000Z</time>
      </trkpt>
      <trkpt lat="43.14872802235186" lon="-6.960265254601836">
        <ele>1106.2</ele>
        <time>2017-08-08T08:56:18.000Z</time>
      </trkpt>
      <trkpt lat="43.14870019443333" lon="-6.960396263748407">
        <ele>1105.8</ele>
        <time>2017-08-08T08:56:26.000Z</time>
      </trkpt>
      <trkpt lat="43.14865124411881" lon="-6.9605364091694355">
        <ele>1106.4</ele>
        <time>2017-08-08T08:56:35.000Z</time>
      </trkpt>
      <trkpt lat="43.14859617501497" lon="-6.9606751296669245">
        <ele>1108.2</ele>
        <time>2017-08-08T08:56:44.000Z</time>
      </trkpt>
      <trkpt lat="43.148547476157546" lon="-6.9608362298458815">
        <ele>1108.4</ele>
        <time>2017-08-08T08:56:54.000Z</time>
      </trkpt>
      <trkpt lat="43.14850271679461" lon="-6.960979141294956">
        <ele>1107.4</ele>
        <time>2017-08-08T08:57:03.000Z</time>
      </trkpt>
      <trkpt lat="43.14846600405872" lon="-6.961136553436518">
        <ele>1106.2</ele>
        <time>2017-08-08T08:57:13.000Z</time>
      </trkpt>
      <trkpt lat="43.14845133572817" lon="-6.961205620318651">
        <ele>1105.4</ele>
        <time>2017-08-08T08:57:18.000Z</time>
      </trkpt>
      <trkpt lat="43.14844345673919" lon="-6.961217522621155">
        <ele>1105.6</ele>
        <time>2017-08-08T08:57:19.000Z</time>
      </trkpt>
      <trkpt lat="43.1484204903245" lon="-6.961254067718983">
        <ele>1105.4</ele>
        <time>2017-08-08T08:57:24.000Z</time>
      </trkpt>
      <trkpt lat="43.14839651808143" lon="-6.961304694414139">
        <ele>1104.8</ele>
        <time>2017-08-08T08:57:53.000Z</time>
      </trkpt>
      <trkpt lat="43.148394925519824" lon="-6.961305029690266">
        <ele>1104.8</ele>
        <time>2017-08-08T08:57:58.000Z</time>
      </trkpt>
      <trkpt lat="43.14832937903702" lon="-6.961343083530664">
        <ele>1105.2</ele>
        <time>2017-08-08T08:58:32.000Z</time>
      </trkpt>
      <trkpt lat="43.14825511537492" lon="-6.961391866207123">
        <ele>1105.4</ele>
        <time>2017-08-08T08:58:40.000Z</time>
      </trkpt>
      <trkpt lat="43.14823583699763" lon="-6.9614016730338335">
        <ele>1105.4</ele>
        <time>2017-08-08T08:58:43.000Z</time>
      </trkpt>
      <trkpt lat="43.148207757622004" lon="-6.961411144584417">
        <ele>1105.6</ele>
        <time>2017-08-08T08:58:46.000Z</time>
      </trkpt>
      <trkpt lat="43.148129638284445" lon="-6.96144500747323">
        <ele>1106.2</ele>
        <time>2017-08-08T08:58:54.000Z</time>
      </trkpt>
      <trkpt lat="43.14804397523403" lon="-6.961473170667887">
        <ele>1106.8</ele>
        <time>2017-08-08T08:59:02.000Z</time>
      </trkpt>
      <trkpt lat="43.14795579761267" lon="-6.961493287235498">
        <ele>1107.8</ele>
        <time>2017-08-08T08:59:10.000Z</time>
      </trkpt>
      <trkpt lat="43.14784146845341" lon="-6.961537292227149">
        <ele>1108.6</ele>
        <time>2017-08-08T08:59:21.000Z</time>
      </trkpt>
      <trkpt lat="43.14776795916259" lon="-6.961587416008115">
        <ele>1108.6</ele>
        <time>2017-08-08T08:59:28.000Z</time>
      </trkpt>
      <trkpt lat="43.1477019097656" lon="-6.961628654971719">
        <ele>1108.6</ele>
        <time>2017-08-08T08:59:34.000Z</time>
      </trkpt>
      <trkpt lat="43.14764189533889" lon="-6.961669055745006">
        <ele>1108.6</ele>
        <time>2017-08-08T08:59:40.000Z</time>
      </trkpt>
      <trkpt lat="43.1475570704788" lon="-6.961721610277891">
        <ele>1108.8</ele>
        <time>2017-08-08T08:59:48.000Z</time>
      </trkpt>
      <trkpt lat="43.1474688090384" lon="-6.961764106526971">
        <ele>1109.2</ele>
        <time>2017-08-08T08:59:56.000Z</time>
      </trkpt>
      <trkpt lat="43.147364454343915" lon="-6.9618242885917425">
        <ele>1109.4</ele>
        <time>2017-08-08T09:00:06.000Z</time>
      </trkpt>
      <trkpt lat="43.147288179025054" lon="-6.961877513676882">
        <ele>1109.6</ele>
        <time>2017-08-08T09:00:13.000Z</time>
      </trkpt>
      <trkpt lat="43.147222297266126" lon="-6.9619138073176146">
        <ele>1110</ele>
        <time>2017-08-08T09:00:19.000Z</time>
      </trkpt>
      <trkpt lat="43.14714099280536" lon="-6.961958147585392">
        <ele>1110.4</ele>
        <time>2017-08-08T09:00:27.000Z</time>
      </trkpt>
      <trkpt lat="43.147063041105866" lon="-6.962001984938979">
        <ele>1110.8</ele>
        <time>2017-08-08T09:00:34.000Z</time>
      </trkpt>
      <trkpt lat="43.14698986709118" lon="-6.962047582492232">
        <ele>1111</ele>
        <time>2017-08-08T09:00:42.000Z</time>
      </trkpt>
      <trkpt lat="43.146992549300194" lon="-6.962051605805755">
        <ele>1110.8</ele>
        <time>2017-08-08T09:00:54.000Z</time>
      </trkpt>
      <trkpt lat="43.146958351135254" lon="-6.962075661867857">
        <ele>1110.8</ele>
        <time>2017-08-08T09:01:09.000Z</time>
      </trkpt>
      <trkpt lat="43.14693429507315" lon="-6.962097035720944">
        <ele>1110.8</ele>
        <time>2017-08-08T09:01:15.000Z</time>
      </trkpt>
      <trkpt lat="43.146914932876825" lon="-6.9621179066598415">
        <ele>1110.6</ele>
        <time>2017-08-08T09:01:28.000Z</time>
      </trkpt>
      <trkpt lat="43.14685416407883" lon="-6.96214372292161">
        <ele>1111.2</ele>
        <time>2017-08-08T09:02:04.000Z</time>
      </trkpt>
      <trkpt lat="43.14678040333092" lon="-6.962187476456165">
        <ele>1111.4</ele>
        <time>2017-08-08T09:02:12.000Z</time>
      </trkpt>
      <trkpt lat="43.146720472723246" lon="-6.962227039039135">
        <ele>1111.4</ele>
        <time>2017-08-08T09:02:19.000Z</time>
      </trkpt>
      <trkpt lat="43.146641766652465" lon="-6.962287221103907">
        <ele>1111</ele>
        <time>2017-08-08T09:02:27.000Z</time>
      </trkpt>
      <trkpt lat="43.146553337574005" lon="-6.96234405040741">
        <ele>1110.8</ele>
        <time>2017-08-08T09:02:36.000Z</time>
      </trkpt>
      <trkpt lat="43.1464724522084" lon="-6.96240708231926">
        <ele>1110.4</ele>
        <time>2017-08-08T09:02:44.000Z</time>
      </trkpt>
      <trkpt lat="43.14640204422176" lon="-6.962466426193714">
        <ele>1109.8</ele>
        <time>2017-08-08T09:02:52.000Z</time>
      </trkpt>
      <trkpt lat="43.14635242335498" lon="-6.962524512782693">
        <ele>1109</ele>
        <time>2017-08-08T09:03:00.000Z</time>
      </trkpt>
      <trkpt lat="43.14633121713996" lon="-6.962566087022424">
        <ele>1108.2</ele>
        <time>2017-08-08T09:03:07.000Z</time>
      </trkpt>
      <trkpt lat="43.146290397271514" lon="-6.962599866092205">
        <ele>1108</ele>
        <time>2017-08-08T09:03:20.000Z</time>
      </trkpt>
      <trkpt lat="43.146244548261166" lon="-6.962669435888529">
        <ele>1106.8</ele>
        <time>2017-08-08T09:03:26.000Z</time>
      </trkpt>
      <trkpt lat="43.14620171673596" lon="-6.962737580761313">
        <ele>1105.6</ele>
        <time>2017-08-08T09:03:32.000Z</time>
      </trkpt>
      <trkpt lat="43.14612602815032" lon="-6.962847970426083">
        <ele>1103.8</ele>
        <time>2017-08-08T09:03:41.000Z</time>
      </trkpt>
      <trkpt lat="43.146084286272526" lon="-6.962920222431421">
        <ele>1102.4</ele>
        <time>2017-08-08T09:03:46.000Z</time>
      </trkpt>
      <trkpt lat="43.14604640007019" lon="-6.962995156645775">
        <ele>1101</ele>
        <time>2017-08-08T09:03:51.000Z</time>
      </trkpt>
      <trkpt lat="43.14599208533764" lon="-6.96307553909719">
        <ele>1099.6</ele>
        <time>2017-08-08T09:03:57.000Z</time>
      </trkpt>
      <trkpt lat="43.14595009200275" lon="-6.963143264874816">
        <ele>1098.6</ele>
        <time>2017-08-08T09:04:02.000Z</time>
      </trkpt>
      <trkpt lat="43.145897034555674" lon="-6.963219456374645">
        <ele>1097.4</ele>
        <time>2017-08-08T09:04:08.000Z</time>
      </trkpt>
      <trkpt lat="43.14583475701511" lon="-6.9633065443485975">
        <ele>1096.2</ele>
        <time>2017-08-08T09:04:15.000Z</time>
      </trkpt>
      <trkpt lat="43.145755380392075" lon="-6.963417688384652">
        <ele>1094.8</ele>
        <time>2017-08-08T09:04:24.000Z</time>
      </trkpt>
      <trkpt lat="43.145751021802425" lon="-6.963421795517206">
        <ele>1094.6</ele>
        <time>2017-08-08T09:04:25.000Z</time>
      </trkpt>
      <trkpt lat="43.14574406482279" lon="-6.963432272896171">
        <ele>1094.6</ele>
        <time>2017-08-08T09:04:29.000Z</time>
      </trkpt>
      <trkpt lat="43.14574481919408" lon="-6.963447108864784">
        <ele>1094.2</ele>
        <time>2017-08-08T09:04:34.000Z</time>
      </trkpt>
      <trkpt lat="43.14570927992463" lon="-6.963501758873463">
        <ele>1093.4</ele>
        <time>2017-08-08T09:05:06.000Z</time>
      </trkpt>
      <trkpt lat="43.145631747320294" lon="-6.963615249842405">
        <ele>1091.8</ele>
        <time>2017-08-08T09:05:16.000Z</time>
      </trkpt>
      <trkpt lat="43.14555186778307" lon="-6.963767716661096">
        <ele>1089.4</ele>
        <time>2017-08-08T09:05:26.000Z</time>
      </trkpt>
      <trkpt lat="43.145478861406446" lon="-6.963927391916513">
        <ele>1086.6</ele>
        <time>2017-08-08T09:05:34.000Z</time>
      </trkpt>
      <trkpt lat="43.145460337400436" lon="-6.963971732184291">
        <ele>1085.8</ele>
        <time>2017-08-08T09:05:36.000Z</time>
      </trkpt>
      <trkpt lat="43.14543519169092" lon="-6.9640169106423855">
        <ele>1085</ele>
        <time>2017-08-08T09:05:38.000Z</time>
      </trkpt>
      <trkpt lat="43.145341565832496" lon="-6.964189829304814">
        <ele>1082.8</ele>
        <time>2017-08-08T09:05:46.000Z</time>
      </trkpt>
      <trkpt lat="43.145241821184754" lon="-6.964318994432688">
        <ele>1081.8</ele>
        <time>2017-08-08T09:05:53.000Z</time>
      </trkpt>
      <trkpt lat="43.14516378566623" lon="-6.964397951960564">
        <ele>1081.6</ele>
        <time>2017-08-08T09:06:00.000Z</time>
      </trkpt>
      <trkpt lat="43.1450960598886" lon="-6.96448084898293">
        <ele>1081</ele>
        <time>2017-08-08T09:06:08.000Z</time>
      </trkpt>
      <trkpt lat="43.14503990113735" lon="-6.9645473174750805">
        <ele>1080.4</ele>
        <time>2017-08-08T09:06:16.000Z</time>
      </trkpt>
      <trkpt lat="43.14498541876674" lon="-6.964631974697113">
        <ele>1079.2</ele>
        <time>2017-08-08T09:06:24.000Z</time>
      </trkpt>
      <trkpt lat="43.14498064108193" lon="-6.964649073779583">
        <ele>1079</ele>
        <time>2017-08-08T09:06:25.000Z</time>
      </trkpt>
      <trkpt lat="43.144968654960394" lon="-6.9646786618977785">
        <ele>1078.6</ele>
        <time>2017-08-08T09:06:27.000Z</time>
      </trkpt>
      <trkpt lat="43.14494300633669" lon="-6.964739682152867">
        <ele>1077.6</ele>
        <time>2017-08-08T09:06:31.000Z</time>
      </trkpt>
      <trkpt lat="43.14493806101382" lon="-6.9647561106830835">
        <ele>1077.4</ele>
        <time>2017-08-08T09:06:32.000Z</time>
      </trkpt>
      <trkpt lat="43.144904198125005" lon="-6.964882845059037">
        <ele>1075.2</ele>
        <time>2017-08-08T09:06:40.000Z</time>
      </trkpt>
      <trkpt lat="43.144877292215824" lon="-6.9650261756032705">
        <ele>1073</ele>
        <time>2017-08-08T09:06:49.000Z</time>
      </trkpt>
      <trkpt lat="43.1448595225811" lon="-6.96521183475852">
        <ele>1069.8</ele>
        <time>2017-08-08T09:07:00.000Z</time>
      </trkpt>
      <trkpt lat="43.144851392135024" lon="-6.965356674045324">
        <ele>1067.4</ele>
        <time>2017-08-08T09:07:09.000Z</time>
      </trkpt>
      <trkpt lat="43.14484192058444" lon="-6.965484330430627">
        <ele>1065.2</ele>
        <time>2017-08-08T09:07:17.000Z</time>
      </trkpt>
      <trkpt lat="43.1448130030185" lon="-6.965619279071689">
        <ele>1063.2</ele>
        <time>2017-08-08T09:07:26.000Z</time>
      </trkpt>
      <trkpt lat="43.144805040210485" lon="-6.965681053698063">
        <ele>1062.2</ele>
        <time>2017-08-08T09:07:33.000Z</time>
      </trkpt>
      <trkpt lat="43.14478877931833" lon="-6.965733356773853">
        <ele>1061.4</ele>
        <time>2017-08-08T09:07:38.000Z</time>
      </trkpt>
      <trkpt lat="43.14475256949663" lon="-6.96587735787034">
        <ele>1058.6</ele>
        <time>2017-08-08T09:07:47.000Z</time>
      </trkpt>
      <trkpt lat="43.1447162758559" lon="-6.965984059497714">
        <ele>1056.6</ele>
        <time>2017-08-08T09:07:54.000Z</time>
      </trkpt>
      <trkpt lat="43.144674031063914" lon="-6.966107524931431">
        <ele>1054.4</ele>
        <time>2017-08-08T09:08:02.000Z</time>
      </trkpt>
      <trkpt lat="43.14463044516742" lon="-6.966226547956467">
        <ele>1052.4</ele>
        <time>2017-08-08T09:08:10.000Z</time>
      </trkpt>
      <trkpt lat="43.14457613043487" lon="-6.9663140550255775">
        <ele>1051.4</ele>
        <time>2017-08-08T09:08:17.000Z</time>
      </trkpt>
      <trkpt lat="43.14450773410499" lon="-6.9664257019758224">
        <ele>1050</ele>
        <time>2017-08-08T09:08:26.000Z</time>
      </trkpt>
      <trkpt lat="43.1444432772696" lon="-6.966512789949775">
        <ele>1049.2</ele>
        <time>2017-08-08T09:08:33.000Z</time>
      </trkpt>
      <trkpt lat="43.144353590905666" lon="-6.966594932600856">
        <ele>1048.2</ele>
        <time>2017-08-08T09:08:42.000Z</time>
      </trkpt>
      <trkpt lat="43.144252337515354" lon="-6.966679506003857">
        <ele>1047</ele>
        <time>2017-08-08T09:08:52.000Z</time>
      </trkpt>
      <trkpt lat="43.14413306303322" lon="-6.966757960617542">
        <ele>1044.6</ele>
        <time>2017-08-08T09:09:03.000Z</time>
      </trkpt>
      <trkpt lat="43.144059302285314" lon="-6.966818729415536">
        <ele>1043</ele>
        <time>2017-08-08T09:09:10.000Z</time>
      </trkpt>
      <trkpt lat="43.14399308525026" lon="-6.966872541233897">
        <ele>1041.6</ele>
        <time>2017-08-08T09:09:17.000Z</time>
      </trkpt>
      <trkpt lat="43.143921084702015" lon="-6.966927945613861">
        <ele>1040.2</ele>
        <time>2017-08-08T09:09:24.000Z</time>
      </trkpt>
      <trkpt lat="43.14383391290903" lon="-6.966987205669284">
        <ele>1038.6</ele>
        <time>2017-08-08T09:09:32.000Z</time>
      </trkpt>
      <trkpt lat="43.14373902976513" lon="-6.967032300308347">
        <ele>1037.2</ele>
        <time>2017-08-08T09:09:40.000Z</time>
      </trkpt>
      <trkpt lat="43.14362721517682" lon="-6.967075215652585">
        <ele>1035.8</ele>
        <time>2017-08-08T09:09:49.000Z</time>
      </trkpt>
      <trkpt lat="43.1435386184603" lon="-6.967108743265271">
        <ele>1034.6</ele>
        <time>2017-08-08T09:09:56.000Z</time>
      </trkpt>
      <trkpt lat="43.14344524405897" lon="-6.967201950028539">
        <ele>1032.2</ele>
        <time>2017-08-08T09:10:05.000Z</time>
      </trkpt>
      <trkpt lat="43.14344599843025" lon="-6.96721863001585">
        <ele>1032</ele>
        <time>2017-08-08T09:10:06.000Z</time>
      </trkpt>
      <trkpt lat="43.14347407780588" lon="-6.967274872586131">
        <ele>1031</ele>
        <time>2017-08-08T09:10:10.000Z</time>
      </trkpt>
      <trkpt lat="43.14355043694377" lon="-6.9673586916178465">
        <ele>1029.6</ele>
        <time>2017-08-08T09:10:19.000Z</time>
      </trkpt>
      <trkpt lat="43.14358840696514" lon="-6.96739942766726">
        <ele>1029.2</ele>
        <time>2017-08-08T09:10:24.000Z</time>
      </trkpt>
      <trkpt lat="43.14360382966697" lon="-6.967409066855907">
        <ele>1029</ele>
        <time>2017-08-08T09:10:26.000Z</time>
      </trkpt>
      <trkpt lat="43.14363358542323" lon="-6.967436643317342">
        <ele>1028.8</ele>
        <time>2017-08-08T09:10:29.000Z</time>
      </trkpt>
      <trkpt lat="43.14368974417448" lon="-6.967495149001479">
        <ele>1028.4</ele>
        <time>2017-08-08T09:10:35.000Z</time>
      </trkpt>
      <trkpt lat="43.14376845024526" lon="-6.967579303309321">
        <ele>1027.8</ele>
        <time>2017-08-08T09:10:44.000Z</time>
      </trkpt>
      <trkpt lat="43.14382913522422" lon="-6.9676396530121565">
        <ele>1027.4</ele>
        <time>2017-08-08T09:10:51.000Z</time>
      </trkpt>
      <trkpt lat="43.14388135448098" lon="-6.967699667438865">
        <ele>1026.8</ele>
        <time>2017-08-08T09:10:58.000Z</time>
      </trkpt>
      <trkpt lat="43.143933238461614" lon="-6.967791365459561">
        <ele>1025.8</ele>
        <time>2017-08-08T09:11:06.000Z</time>
      </trkpt>
      <trkpt lat="43.14393449574709" lon="-6.967820534482598">
        <ele>1025.4</ele>
        <time>2017-08-08T09:11:08.000Z</time>
      </trkpt>
      <trkpt lat="43.14391387626529" lon="-6.967860935255885">
        <ele>1024.6</ele>
        <time>2017-08-08T09:11:11.000Z</time>
      </trkpt>
      <trkpt lat="43.14383676275611" lon="-6.96797258220613">
        <ele>1022.6</ele>
        <time>2017-08-08T09:11:20.000Z</time>
      </trkpt>
      <trkpt lat="43.14379091374576" lon="-6.968105435371399">
        <ele>1020.2</ele>
        <time>2017-08-08T09:11:29.000Z</time>
      </trkpt>
      <trkpt lat="43.143749590963125" lon="-6.968242395669222">
        <ele>1017.8</ele>
        <time>2017-08-08T09:11:38.000Z</time>
      </trkpt>
      <trkpt lat="43.14372587017715" lon="-6.968385307118297">
        <ele>1018.6</ele>
        <time>2017-08-08T09:11:47.000Z</time>
      </trkpt>
      <trkpt lat="43.14370198175311" lon="-6.9685232732445">
        <ele>1019.6</ele>
        <time>2017-08-08T09:11:56.000Z</time>
      </trkpt>
      <trkpt lat="43.14367909915745" lon="-6.968660820275545">
        <ele>1020.6</ele>
        <time>2017-08-08T09:12:05.000Z</time>
      </trkpt>
      <trkpt lat="43.14365169033408" lon="-6.9687991216778755">
        <ele>1021.6</ele>
        <time>2017-08-08T09:12:14.000Z</time>
      </trkpt>
      <trkpt lat="43.14363484270871" lon="-6.968922922387719">
        <ele>1022</ele>
        <time>2017-08-08T09:12:22.000Z</time>
      </trkpt>
      <trkpt lat="43.14363836310804" lon="-6.968968268483877">
        <ele>1022</ele>
        <time>2017-08-08T09:12:25.000Z</time>
      </trkpt>
      <trkpt lat="43.1436300650239" lon="-6.969010513275862">
        <ele>1022</ele>
        <time>2017-08-08T09:12:28.000Z</time>
      </trkpt>
      <trkpt lat="43.143618162721395" lon="-6.969034820795059">
        <ele>1022.2</ele>
        <time>2017-08-08T09:12:30.000Z</time>
      </trkpt>
      <trkpt lat="43.143570302054286" lon="-6.969101540744305">
        <ele>1023</ele>
        <time>2017-08-08T09:12:36.000Z</time>
      </trkpt>
      <trkpt lat="43.143530152738094" lon="-6.969128446653485">
        <ele>1023.8</ele>
        <time>2017-08-08T09:12:43.000Z</time>
      </trkpt>
      <trkpt lat="43.143508695065975" lon="-6.969141773879528">
        <ele>1024.2</ele>
        <time>2017-08-08T09:12:44.000Z</time>
      </trkpt>
      <trkpt lat="43.14342194236815" lon="-6.969134984537959">
        <ele>1024.4</ele>
        <time>2017-08-08T09:12:47.000Z</time>
      </trkpt>
      <trkpt lat="43.14323091879487" lon="-6.969119142740965">
        <ele>1022.8</ele>
        <time>2017-08-08T09:12:51.000Z</time>
      </trkpt>
      <trkpt lat="43.143383134156466" lon="-6.9691242557018995">
        <ele>1024</ele>
        <time>2017-08-08T09:13:50.000Z</time>
      </trkpt>
      <trkpt lat="43.143368382006884" lon="-6.969141522422433">
        <ele>1024.4</ele>
        <time>2017-08-08T09:13:51.000Z</time>
      </trkpt>
      <trkpt lat="43.143378188833594" lon="-6.969278901815414">
        <ele>1028</ele>
        <time>2017-08-08T09:13:55.000Z</time>
      </trkpt>
      <trkpt lat="43.14341506920755" lon="-6.969334809109569">
        <ele>1029.4</ele>
        <time>2017-08-08T09:13:58.000Z</time>
      </trkpt>
      <trkpt lat="43.143505761399865" lon="-6.969341430813074">
        <ele>1029.4</ele>
        <time>2017-08-08T09:14:04.000Z</time>
      </trkpt>
      <trkpt lat="43.14354322850704" lon="-6.96931385435164">
        <ele>1028.4</ele>
        <time>2017-08-08T09:14:08.000Z</time>
      </trkpt>
      <trkpt lat="43.14354054629803" lon="-6.969300443306565">
        <ele>1028.2</ele>
        <time>2017-08-08T09:14:09.000Z</time>
      </trkpt>
      <trkpt lat="43.14332320354879" lon="-6.969455759972334">
        <ele>1032.4</ele>
        <time>2017-08-08T09:53:13.000Z</time>
      </trkpt>
      <trkpt lat="43.14331507310271" lon="-6.969461962580681">
        <ele>1032.6</ele>
        <time>2017-08-08T09:53:14.000Z</time>
      </trkpt>
      <trkpt lat="43.14326277002692" lon="-6.969481408596039">
        <ele>1033</ele>
        <time>2017-08-08T09:53:19.000Z</time>
      </trkpt>
      <trkpt lat="43.14320778474212" lon="-6.96951225399971">
        <ele>1033.6</ele>
        <time>2017-08-08T09:53:25.000Z</time>
      </trkpt>
      <trkpt lat="43.143200324848294" lon="-6.969515942037106">
        <ele>1033.8</ele>
        <time>2017-08-08T09:53:26.000Z</time>
      </trkpt>
      <trkpt lat="43.14315455965698" lon="-6.969547206535935">
        <ele>1034.4</ele>
        <time>2017-08-08T09:53:30.000Z</time>
      </trkpt>
      <trkpt lat="43.1431448366493" lon="-6.969549050554633">
        <ele>1034.6</ele>
        <time>2017-08-08T09:53:32.000Z</time>
      </trkpt>
      <trkpt lat="43.143128575757146" lon="-6.969568999484181">
        <ele>1035</ele>
        <time>2017-08-08T09:53:34.000Z</time>
      </trkpt>
      <trkpt lat="43.14311717636883" lon="-6.969578890129924">
        <ele>1035.2</ele>
        <time>2017-08-08T09:53:36.000Z</time>
      </trkpt>
      <trkpt lat="43.14310418441892" lon="-6.969582159072161">
        <ele>1035.4</ele>
        <time>2017-08-08T09:53:37.000Z</time>
      </trkpt>
      <trkpt lat="43.14307987689972" lon="-6.969604874029756">
        <ele>1035.8</ele>
        <time>2017-08-08T09:53:40.000Z</time>
      </trkpt>
      <trkpt lat="43.143070824444294" lon="-6.969609064981341">
        <ele>1036</ele>
        <time>2017-08-08T09:53:41.000Z</time>
      </trkpt>
      <trkpt lat="43.14304534345865" lon="-6.969634462147951">
        <ele>1036.6</ele>
        <time>2017-08-08T09:53:44.000Z</time>
      </trkpt>
      <trkpt lat="43.1430272385478" lon="-6.969639994204044">
        <ele>1036.6</ele>
        <time>2017-08-08T09:53:46.000Z</time>
      </trkpt>
      <trkpt lat="43.142959931865335" lon="-6.969665894284844">
        <ele>1037.2</ele>
        <time>2017-08-08T09:53:52.000Z</time>
      </trkpt>
      <trkpt lat="43.142862198874354" lon="-6.969713671132922">
        <ele>1038.4</ele>
        <time>2017-08-08T09:54:00.000Z</time>
      </trkpt>
      <trkpt lat="43.142776787281036" lon="-6.969756167382002">
        <ele>1039.2</ele>
        <time>2017-08-08T09:54:07.000Z</time>
      </trkpt>
      <trkpt lat="43.14269791357219" lon="-6.969788521528244">
        <ele>1039.8</ele>
        <time>2017-08-08T09:54:14.000Z</time>
      </trkpt>
      <trkpt lat="43.142677461728454" lon="-6.969835376366973">
        <ele>1041.2</ele>
        <time>2017-08-08T09:54:18.000Z</time>
      </trkpt>
      <trkpt lat="43.14268249087036" lon="-6.96985968388617">
        <ele>1041.8</ele>
        <time>2017-08-08T09:54:20.000Z</time>
      </trkpt>
      <trkpt lat="43.14270839095116" lon="-6.969870580360293">
        <ele>1042</ele>
        <time>2017-08-08T09:54:23.000Z</time>
      </trkpt>
      <trkpt lat="43.14273940399289" lon="-6.96988214738667">
        <ele>1042.4</ele>
        <time>2017-08-08T09:54:26.000Z</time>
      </trkpt>
      <trkpt lat="43.14283956773579" lon="-6.9698964804410934">
        <ele>1043</ele>
        <time>2017-08-08T09:54:34.000Z</time>
      </trkpt>
      <trkpt lat="43.142947694286704" lon="-6.969921123236418">
        <ele>1043.6</ele>
        <time>2017-08-08T09:54:43.000Z</time>
      </trkpt>
      <trkpt lat="43.14302631653845" lon="-6.9699580036103725">
        <ele>1044.4</ele>
        <time>2017-08-08T09:54:51.000Z</time>
      </trkpt>
      <trkpt lat="43.143094293773174" lon="-6.970003098249435">
        <ele>1045.4</ele>
        <time>2017-08-08T09:54:58.000Z</time>
      </trkpt>
      <trkpt lat="43.14318892545998" lon="-6.970029333606362">
        <ele>1046</ele>
        <time>2017-08-08T09:55:06.000Z</time>
      </trkpt>
      <trkpt lat="43.14324407838285" lon="-6.970043499022722">
        <ele>1046.4</ele>
        <time>2017-08-08T09:55:11.000Z</time>
      </trkpt>
      <trkpt lat="43.14326067455113" lon="-6.970038218423724">
        <ele>1046.2</ele>
        <time>2017-08-08T09:55:12.000Z</time>
      </trkpt>
      <trkpt lat="43.14329043030739" lon="-6.9700519647449255">
        <ele>1046.6</ele>
        <time>2017-08-08T09:55:15.000Z</time>
      </trkpt>
      <trkpt lat="43.143321024253964" lon="-6.970073338598013">
        <ele>1046.8</ele>
        <time>2017-08-08T09:55:18.000Z</time>
      </trkpt>
      <trkpt lat="43.143368968740106" lon="-6.97012790478766">
        <ele>1047.8</ele>
        <time>2017-08-08T09:55:24.000Z</time>
      </trkpt>
      <trkpt lat="43.14343459904194" lon="-6.970176436007023">
        <ele>1048.4</ele>
        <time>2017-08-08T09:55:31.000Z</time>
      </trkpt>
      <trkpt lat="43.143521435558796" lon="-6.970222368836403">
        <ele>1048.8</ele>
        <time>2017-08-08T09:55:40.000Z</time>
      </trkpt>
      <trkpt lat="43.14359184354544" lon="-6.970277605578303">
        <ele>1049.2</ele>
        <time>2017-08-08T09:55:48.000Z</time>
      </trkpt>
      <trkpt lat="43.143693935126066" lon="-6.970344325527549">
        <ele>1049.8</ele>
        <time>2017-08-08T09:55:58.000Z</time>
      </trkpt>
      <trkpt lat="43.14378898590803" lon="-6.970403166487813">
        <ele>1050.2</ele>
        <time>2017-08-08T09:56:07.000Z</time>
      </trkpt>
      <trkpt lat="43.14388210885227" lon="-6.970450608059764">
        <ele>1051.2</ele>
        <time>2017-08-08T09:56:16.000Z</time>
      </trkpt>
      <trkpt lat="43.143919156864285" lon="-6.970551023259759">
        <ele>1053.6</ele>
        <time>2017-08-08T09:56:24.000Z</time>
      </trkpt>
      <trkpt lat="43.14394136890769" lon="-6.9706642627716064">
        <ele>1056.2</ele>
        <time>2017-08-08T09:56:32.000Z</time>
      </trkpt>
      <trkpt lat="43.143918653950095" lon="-6.970795942470431">
        <ele>1057.8</ele>
        <time>2017-08-08T09:56:40.000Z</time>
      </trkpt>
      <trkpt lat="43.143885880708694" lon="-6.970902727916837">
        <ele>1057.4</ele>
        <time>2017-08-08T09:56:47.000Z</time>
      </trkpt>
      <trkpt lat="43.14383785240352" lon="-6.971036335453391">
        <ele>1057</ele>
        <time>2017-08-08T09:56:56.000Z</time>
      </trkpt>
      <trkpt lat="43.14381513744593" lon="-6.971187461167574">
        <ele>1056.4</ele>
        <time>2017-08-08T09:57:05.000Z</time>
      </trkpt>
      <trkpt lat="43.14379963092506" lon="-6.971312602981925">
        <ele>1056.4</ele>
        <time>2017-08-08T09:57:14.000Z</time>
      </trkpt>
      <trkpt lat="43.143797535449266" lon="-6.971321571618319">
        <ele>1056.4</ele>
        <time>2017-08-08T09:57:21.000Z</time>
      </trkpt>
      <trkpt lat="43.143780855461955" lon="-6.971365492790937">
        <ele>1056.4</ele>
        <time>2017-08-08T09:58:02.000Z</time>
      </trkpt>
      <trkpt lat="43.14378370530903" lon="-6.971422154456377">
        <ele>1056.4</ele>
        <time>2017-08-08T09:58:08.000Z</time>
      </trkpt>
      <trkpt lat="43.143770042806864" lon="-6.9715089071542025">
        <ele>1056.4</ele>
        <time>2017-08-08T09:58:15.000Z</time>
      </trkpt>
      <trkpt lat="43.14375285990536" lon="-6.971642263233662">
        <ele>1055.6</ele>
        <time>2017-08-08T09:58:25.000Z</time>
      </trkpt>
      <trkpt lat="43.143756464123726" lon="-6.9716546684503555">
        <ele>1055.6</ele>
        <time>2017-08-08T09:58:26.000Z</time>
      </trkpt>
      <trkpt lat="43.14375135116279" lon="-6.971685849130154">
        <ele>1055</ele>
        <time>2017-08-08T09:58:30.000Z</time>
      </trkpt>
      <trkpt lat="43.14373324625194" lon="-6.971797747537494">
        <ele>1053.6</ele>
        <time>2017-08-08T09:58:38.000Z</time>
      </trkpt>
      <trkpt lat="43.14372452907264" lon="-6.971924314275384">
        <ele>1051.8</ele>
        <time>2017-08-08T09:58:47.000Z</time>
      </trkpt>
      <trkpt lat="43.14372620545328" lon="-6.97199497371912">
        <ele>1050.8</ele>
        <time>2017-08-08T09:58:53.000Z</time>
      </trkpt>
      <trkpt lat="43.14373115077615" lon="-6.972102262079716">
        <ele>1049.4</ele>
        <time>2017-08-08T09:59:00.000Z</time>
      </trkpt>
      <trkpt lat="43.143735341727734" lon="-6.972141154110432">
        <ele>1049</ele>
        <time>2017-08-08T09:59:07.000Z</time>
      </trkpt>
      <trkpt lat="43.14373819157481" lon="-6.972204856574535">
        <ele>1048.4</ele>
        <time>2017-08-08T09:59:11.000Z</time>
      </trkpt>
      <trkpt lat="43.143751518800855" lon="-6.972336284816265">
        <ele>1047</ele>
        <time>2017-08-08T09:59:19.000Z</time>
      </trkpt>
      <trkpt lat="43.143761744722724" lon="-6.972447596490383">
        <ele>1045.8</ele>
        <time>2017-08-08T09:59:26.000Z</time>
      </trkpt>
      <trkpt lat="43.14378119073808" lon="-6.972632333636284">
        <ele>1043.6</ele>
        <time>2017-08-08T09:59:38.000Z</time>
      </trkpt>
      <trkpt lat="43.143804240971804" lon="-6.972795277833939">
        <ele>1041.6</ele>
        <time>2017-08-08T09:59:49.000Z</time>
      </trkpt>
      <trkpt lat="43.14383592456579" lon="-6.972907679155469">
        <ele>1040.2</ele>
        <time>2017-08-08T09:59:57.000Z</time>
      </trkpt>
      <trkpt lat="43.143845396116376" lon="-6.972931316122413">
        <ele>1040</ele>
        <time>2017-08-08T09:59:59.000Z</time>
      </trkpt>
      <trkpt lat="43.1438441388309" lon="-6.97296635247767">
        <ele>1039.4</ele>
        <time>2017-08-08T10:00:02.000Z</time>
      </trkpt>
      <trkpt lat="43.143841372802854" lon="-6.972980098798871">
        <ele>1039.2</ele>
        <time>2017-08-08T10:00:03.000Z</time>
      </trkpt>
      <trkpt lat="43.143841372802854" lon="-6.972980098798871">
        <ele>1039.2</ele>
        <time>2017-08-08T10:00:03.000Z</time>
      </trkpt>
      <trkpt lat="43.14384363591671" lon="-6.97299518622458">
        <ele>1039</ele>
        <time>2017-08-08T10:00:04.000Z</time>
      </trkpt>
      <trkpt lat="43.14386090263724" lon="-6.97305872105062">
        <ele>1038.2</ele>
        <time>2017-08-08T10:00:10.000Z</time>
      </trkpt>
      <trkpt lat="43.143884874880314" lon="-6.973146144300699">
        <ele>1037</ele>
        <time>2017-08-08T10:00:19.000Z</time>
      </trkpt>
      <trkpt lat="43.14388873055577" lon="-6.973145976662636">
        <ele>1037.2</ele>
        <time>2017-08-08T10:00:25.000Z</time>
      </trkpt>
      <trkpt lat="43.14389853738248" lon="-6.973161399364471">
        <ele>1037</ele>
        <time>2017-08-08T10:00:32.000Z</time>
      </trkpt>
      <trkpt lat="43.143901973962784" lon="-6.973153352737427">
        <ele>1037</ele>
        <time>2017-08-08T10:00:39.000Z</time>
      </trkpt>
      <trkpt lat="43.14390826039016" lon="-6.973152598366141">
        <ele>1037.2</ele>
        <time>2017-08-08T10:00:46.000Z</time>
      </trkpt>
      <trkpt lat="43.143906919285655" lon="-6.973232980817556">
        <ele>1036</ele>
        <time>2017-08-08T10:02:30.000Z</time>
      </trkpt>
      <trkpt lat="43.14394346438348" lon="-6.9733616430312395">
        <ele>1034.8</ele>
        <time>2017-08-08T10:02:39.000Z</time>
      </trkpt>
      <trkpt lat="43.143970873206854" lon="-6.973464991897345">
        <ele>1033.8</ele>
        <time>2017-08-08T10:02:46.000Z</time>
      </trkpt>
      <trkpt lat="43.14399543218315" lon="-6.973556187003851">
        <ele>1033</ele>
        <time>2017-08-08T10:02:52.000Z</time>
      </trkpt>
      <trkpt lat="43.144037425518036" lon="-6.973691051825881">
        <ele>1031.8</ele>
        <time>2017-08-08T10:03:01.000Z</time>
      </trkpt>
      <trkpt lat="43.14407782629132" lon="-6.973886098712683">
        <ele>1030</ele>
        <time>2017-08-08T10:03:12.000Z</time>
      </trkpt>
      <trkpt lat="43.144095009192824" lon="-6.974031524732709">
        <ele>1028.4</ele>
        <time>2017-08-08T10:03:20.000Z</time>
      </trkpt>
      <trkpt lat="43.14407967031002" lon="-6.9741844944655895">
        <ele>1027.6</ele>
        <time>2017-08-08T10:03:29.000Z</time>
      </trkpt>
      <trkpt lat="43.14403130672872" lon="-6.974313240498304">
        <ele>1027</ele>
        <time>2017-08-08T10:03:37.000Z</time>
      </trkpt>
      <trkpt lat="43.14400347881019" lon="-6.97445522993803">
        <ele>1026.8</ele>
        <time>2017-08-08T10:03:45.000Z</time>
      </trkpt>
      <trkpt lat="43.143993839621544" lon="-6.9745853170752525">
        <ele>1026.6</ele>
        <time>2017-08-08T10:03:53.000Z</time>
      </trkpt>
      <trkpt lat="43.14400523900986" lon="-6.974688833579421">
        <ele>1026.8</ele>
        <time>2017-08-08T10:04:00.000Z</time>
      </trkpt>
      <trkpt lat="43.14400247298181" lon="-6.97481581941247">
        <ele>1026.8</ele>
        <time>2017-08-08T10:04:08.000Z</time>
      </trkpt>
      <trkpt lat="43.14397355541587" lon="-6.974959569051862">
        <ele>1026.8</ele>
        <time>2017-08-08T10:04:17.000Z</time>
      </trkpt>
      <trkpt lat="43.14390021376312" lon="-6.975013967603445">
        <ele>1026.6</ele>
        <time>2017-08-08T10:04:24.000Z</time>
      </trkpt>
      <trkpt lat="43.1438132096082" lon="-6.975039364770055">
        <ele>1026</ele>
        <time>2017-08-08T10:04:32.000Z</time>
      </trkpt>
      <trkpt lat="43.14367650076747" lon="-6.975084124132991">
        <ele>1025.2</ele>
        <time>2017-08-08T10:04:43.000Z</time>
      </trkpt>
      <trkpt lat="43.143598046153784" lon="-6.975117232650518">
        <ele>1024.8</ele>
        <time>2017-08-08T10:04:51.000Z</time>
      </trkpt>
      <trkpt lat="43.14357331953943" lon="-6.975132655352354">
        <ele>1024.8</ele>
        <time>2017-08-08T10:04:56.000Z</time>
      </trkpt>
      <trkpt lat="43.143524285405874" lon="-6.975175486877561">
        <ele>1024.6</ele>
        <time>2017-08-08T10:05:02.000Z</time>
      </trkpt>
      <trkpt lat="43.14352017827332" lon="-6.975178588181734">
        <ele>1024.6</ele>
        <time>2017-08-08T10:05:03.000Z</time>
      </trkpt>
      <trkpt lat="43.143471563234925" lon="-6.975201303139329">
        <ele>1024.4</ele>
        <time>2017-08-08T10:05:07.000Z</time>
      </trkpt>
      <trkpt lat="43.1434609182179" lon="-6.9752079248428345">
        <ele>1024.2</ele>
        <time>2017-08-08T10:05:08.000Z</time>
      </trkpt>
      <trkpt lat="43.14336083829403" lon="-6.9752721302211285">
        <ele>1023.8</ele>
        <time>2017-08-08T10:05:17.000Z</time>
      </trkpt>
      <trkpt lat="43.14325061626732" lon="-6.975343460217118">
        <ele>1023</ele>
        <time>2017-08-08T10:05:27.000Z</time>
      </trkpt>
      <trkpt lat="43.14314332790673" lon="-6.97541881352663">
        <ele>1022.4</ele>
        <time>2017-08-08T10:05:37.000Z</time>
      </trkpt>
      <trkpt lat="43.14305850304663" lon="-6.975509589537978">
        <ele>1022.2</ele>
        <time>2017-08-08T10:05:46.000Z</time>
      </trkpt>
      <trkpt lat="43.14300075173378" lon="-6.975607490167022">
        <ele>1022.2</ele>
        <time>2017-08-08T10:05:54.000Z</time>
      </trkpt>
      <trkpt lat="43.14293386414647" lon="-6.975763728842139">
        <ele>1022.6</ele>
        <time>2017-08-08T10:06:05.000Z</time>
      </trkpt>
      <trkpt lat="43.142885165289044" lon="-6.975869257003069">
        <ele>1022</ele>
        <time>2017-08-08T10:06:13.000Z</time>
      </trkpt>
      <trkpt lat="43.14283152110875" lon="-6.975994734093547">
        <ele>1021.4</ele>
        <time>2017-08-08T10:06:22.000Z</time>
      </trkpt>
      <trkpt lat="43.142783492803574" lon="-6.976124318316579">
        <ele>1021</ele>
        <time>2017-08-08T10:06:31.000Z</time>
      </trkpt>
      <trkpt lat="43.14274845644832" lon="-6.976243928074837">
        <ele>1020.6</ele>
        <time>2017-08-08T10:06:39.000Z</time>
      </trkpt>
      <trkpt lat="43.14272071234882" lon="-6.976367058232427">
        <ele>1020.2</ele>
        <time>2017-08-08T10:06:47.000Z</time>
      </trkpt>
      <trkpt lat="43.14268114976585" lon="-6.976538468152285">
        <ele>1020</ele>
        <time>2017-08-08T10:06:58.000Z</time>
      </trkpt>
      <trkpt lat="43.1426474545151" lon="-6.976660257205367">
        <ele>1019.8</ele>
        <time>2017-08-08T10:07:06.000Z</time>
      </trkpt>
      <trkpt lat="43.14261669293046" lon="-6.976784812286496">
        <ele>1019.8</ele>
        <time>2017-08-08T10:07:14.000Z</time>
      </trkpt>
      <trkpt lat="43.142578806728125" lon="-6.976931244134903">
        <ele>1019.8</ele>
        <time>2017-08-08T10:07:23.000Z</time>
      </trkpt>
      <trkpt lat="43.14254242926836" lon="-6.977068958804011">
        <ele>1019.8</ele>
        <time>2017-08-08T10:07:32.000Z</time>
      </trkpt>
      <trkpt lat="43.14250906929374" lon="-6.9771805219352245">
        <ele>1019.8</ele>
        <time>2017-08-08T10:07:40.000Z</time>
      </trkpt>
      <trkpt lat="43.14246263355017" lon="-6.977275405079126">
        <ele>1019.4</ele>
        <time>2017-08-08T10:07:47.000Z</time>
      </trkpt>
      <trkpt lat="43.14238267019391" lon="-6.977374227717519">
        <ele>1018.6</ele>
        <time>2017-08-08T10:07:56.000Z</time>
      </trkpt>
      <trkpt lat="43.14229818060994" lon="-6.977488221600652">
        <ele>1017.4</ele>
        <time>2017-08-08T10:08:06.000Z</time>
      </trkpt>
      <trkpt lat="43.142214361578226" lon="-6.977632641792297">
        <ele>1016</ele>
        <time>2017-08-08T10:08:17.000Z</time>
      </trkpt>
      <trkpt lat="43.14217463135719" lon="-6.977751329541206">
        <ele>1015.4</ele>
        <time>2017-08-08T10:08:25.000Z</time>
      </trkpt>
      <trkpt lat="43.14214370213449" lon="-6.9778587855398655">
        <ele>1014.8</ele>
        <time>2017-08-08T10:08:32.000Z</time>
      </trkpt>
      <trkpt lat="43.14212115481496" lon="-6.977977389469743">
        <ele>1014.6</ele>
        <time>2017-08-08T10:08:40.000Z</time>
      </trkpt>
      <trkpt lat="43.14210363663733" lon="-6.978154918178916">
        <ele>1014.4</ele>
        <time>2017-08-08T10:08:51.000Z</time>
      </trkpt>
      <trkpt lat="43.142102966085076" lon="-6.9783014338463545">
        <ele>1014.6</ele>
        <time>2017-08-08T10:09:00.000Z</time>
      </trkpt>
      <trkpt lat="43.142118053510785" lon="-6.9784498773515224">
        <ele>1015.2</ele>
        <time>2017-08-08T10:09:09.000Z</time>
      </trkpt>
      <trkpt lat="43.14213087782264" lon="-6.978617180138826">
        <ele>1015.8</ele>
        <time>2017-08-08T10:09:19.000Z</time>
      </trkpt>
      <trkpt lat="43.14212710596621" lon="-6.978759169578552">
        <ele>1016</ele>
        <time>2017-08-08T10:09:28.000Z</time>
      </trkpt>
      <trkpt lat="43.14209693111479" lon="-6.978931501507759">
        <ele>1015.4</ele>
        <time>2017-08-08T10:09:39.000Z</time>
      </trkpt>
      <trkpt lat="43.14203280955553" lon="-6.9790674559772015">
        <ele>1014.4</ele>
        <time>2017-08-08T10:09:49.000Z</time>
      </trkpt>
      <trkpt lat="43.14193893224001" lon="-6.979173822328448">
        <ele>1014</ele>
        <time>2017-08-08T10:09:59.000Z</time>
      </trkpt>
      <trkpt lat="43.14186852425337" lon="-6.979229813441634">
        <ele>1013.6</ele>
        <time>2017-08-08T10:10:06.000Z</time>
      </trkpt>
      <trkpt lat="43.14177431166172" lon="-6.979307010769844">
        <ele>1013</ele>
        <time>2017-08-08T10:10:15.000Z</time>
      </trkpt>
      <trkpt lat="43.141682697460055" lon="-6.9793949369341135">
        <ele>1013.4</ele>
        <time>2017-08-08T10:10:24.000Z</time>
      </trkpt>
      <trkpt lat="43.141570799052715" lon="-6.979496777057648">
        <ele>1014</ele>
        <time>2017-08-08T10:10:35.000Z</time>
      </trkpt>
      <trkpt lat="43.141478011384606" lon="-6.979573890566826">
        <ele>1014.4</ele>
        <time>2017-08-08T10:10:44.000Z</time>
      </trkpt>
      <trkpt lat="43.14139452762902" lon="-6.979638850316405">
        <ele>1014.8</ele>
        <time>2017-08-08T10:10:52.000Z</time>
      </trkpt>
      <trkpt lat="43.14130375161767" lon="-6.979715628549457">
        <ele>1015.2</ele>
        <time>2017-08-08T10:11:01.000Z</time>
      </trkpt>
      <trkpt lat="43.14120979048312" lon="-6.97979349642992">
        <ele>1015.6</ele>
        <time>2017-08-08T10:11:10.000Z</time>
      </trkpt>
      <trkpt lat="43.14113561064005" lon="-6.9798708613961935">
        <ele>1016.2</ele>
        <time>2017-08-08T10:11:19.000Z</time>
      </trkpt>
      <trkpt lat="43.14113016240299" lon="-6.979888463392854">
        <ele>1016.2</ele>
        <time>2017-08-08T10:11:20.000Z</time>
      </trkpt>
      <trkpt lat="43.141115913167596" lon="-6.979942275211215">
        <ele>1016.4</ele>
        <time>2017-08-08T10:11:24.000Z</time>
      </trkpt>
      <trkpt lat="43.141114823520184" lon="-6.979953590780497">
        <ele>1016.4</ele>
        <time>2017-08-08T10:11:25.000Z</time>
      </trkpt>
      <trkpt lat="43.141119265928864" lon="-6.979966666549444">
        <ele>1016.4</ele>
        <time>2017-08-08T10:11:26.000Z</time>
      </trkpt>
      <trkpt lat="43.1411484349519" lon="-6.980024669319391">
        <ele>1016.4</ele>
        <time>2017-08-08T10:11:31.000Z</time>
      </trkpt>
      <trkpt lat="43.14121515490115" lon="-6.9800973404198885">
        <ele>1016.6</ele>
        <time>2017-08-08T10:11:39.000Z</time>
      </trkpt>
      <trkpt lat="43.14125924371183" lon="-6.9802130945026875">
        <ele>1016.8</ele>
        <time>2017-08-08T10:11:48.000Z</time>
      </trkpt>
      <trkpt lat="43.141215573996305" lon="-6.980318622663617">
        <ele>1016.6</ele>
        <time>2017-08-08T10:11:56.000Z</time>
      </trkpt>
      <trkpt lat="43.14111163839698" lon="-6.980434125289321">
        <ele>1016.4</ele>
        <time>2017-08-08T10:12:07.000Z</time>
      </trkpt>
      <trkpt lat="43.14102530479431" lon="-6.980526242405176">
        <ele>1016.2</ele>
        <time>2017-08-08T10:12:16.000Z</time>
      </trkpt>
      <trkpt lat="43.140926817432046" lon="-6.980619952082634">
        <ele>1016</ele>
        <time>2017-08-08T10:12:26.000Z</time>
      </trkpt>
      <trkpt lat="43.14083520323038" lon="-6.980707962065935">
        <ele>1016.8</ele>
        <time>2017-08-08T10:12:35.000Z</time>
      </trkpt>
      <trkpt lat="43.1407287530601" lon="-6.980813490226865">
        <ele>1017</ele>
        <time>2017-08-08T10:12:46.000Z</time>
      </trkpt>
      <trkpt lat="43.140612579882145" lon="-6.980930920690298">
        <ele>1017</ele>
        <time>2017-08-08T10:12:58.000Z</time>
      </trkpt>
      <trkpt lat="43.14051903784275" lon="-6.981028653681278">
        <ele>1017</ele>
        <time>2017-08-08T10:13:08.000Z</time>
      </trkpt>
      <trkpt lat="43.1404179520905" lon="-6.98114650323987">
        <ele>1016.8</ele>
        <time>2017-08-08T10:13:19.000Z</time>
      </trkpt>
      <trkpt lat="43.14032340422273" lon="-6.981248846277595">
        <ele>1016.8</ele>
        <time>2017-08-08T10:13:29.000Z</time>
      </trkpt>
      <trkpt lat="43.14022617414594" lon="-6.981351440772414">
        <ele>1016.8</ele>
        <time>2017-08-08T10:13:39.000Z</time>
      </trkpt>
      <trkpt lat="43.14019708894193" lon="-6.981382118538022">
        <ele>1016.8</ele>
        <time>2017-08-08T10:13:42.000Z</time>
      </trkpt>
      <trkpt lat="43.14016917720437" lon="-6.981410700827837">
        <ele>1016.8</ele>
        <time>2017-08-08T10:13:45.000Z</time>
      </trkpt>
      <trkpt lat="43.14008317887783" lon="-6.981504410505295">
        <ele>1016.6</ele>
        <time>2017-08-08T10:13:54.000Z</time>
      </trkpt>
      <trkpt lat="43.14001427963376" lon="-6.98157305829227">
        <ele>1016.4</ele>
        <time>2017-08-08T10:14:01.000Z</time>
      </trkpt>
      <trkpt lat="43.139927946031094" lon="-6.981673473492265">
        <ele>1015.4</ele>
        <time>2017-08-08T10:14:10.000Z</time>
      </trkpt>
      <trkpt lat="43.13984085805714" lon="-6.981770787388086">
        <ele>1014.4</ele>
        <time>2017-08-08T10:14:19.000Z</time>
      </trkpt>
      <trkpt lat="43.13974714837968" lon="-6.981870532035828">
        <ele>1013.4</ele>
        <time>2017-08-08T10:14:29.000Z</time>
      </trkpt>
      <trkpt lat="43.13964824192226" lon="-6.981965163722634">
        <ele>1012.6</ele>
        <time>2017-08-08T10:14:39.000Z</time>
      </trkpt>
      <trkpt lat="43.139622090384364" lon="-6.981992740184069">
        <ele>1012.2</ele>
        <time>2017-08-08T10:14:42.000Z</time>
      </trkpt>
      <trkpt lat="43.13956274650991" lon="-6.982051664963365">
        <ele>1011.8</ele>
        <time>2017-08-08T10:14:48.000Z</time>
      </trkpt>
      <trkpt lat="43.13947473652661" lon="-6.982134394347668">
        <ele>1011</ele>
        <time>2017-08-08T10:14:57.000Z</time>
      </trkpt>
      <trkpt lat="43.13938773237169" lon="-6.982199689373374">
        <ele>1010.4</ele>
        <time>2017-08-08T10:15:05.000Z</time>
      </trkpt>
      <trkpt lat="43.139284551143646" lon="-6.982277305796742">
        <ele>1009.8</ele>
        <time>2017-08-08T10:15:15.000Z</time>
      </trkpt>
      <trkpt lat="43.13918053172529" lon="-6.982359867542982">
        <ele>1009</ele>
        <time>2017-08-08T10:15:25.000Z</time>
      </trkpt>
      <trkpt lat="43.13907408155501" lon="-6.9824357237666845">
        <ele>1008.4</ele>
        <time>2017-08-08T10:15:35.000Z</time>
      </trkpt>
      <trkpt lat="43.138948855921626" lon="-6.982523147016764">
        <ele>1007.4</ele>
        <time>2017-08-08T10:15:46.000Z</time>
      </trkpt>
      <trkpt lat="43.13888196833432" lon="-6.982569834217429">
        <ele>1006.8</ele>
        <time>2017-08-08T10:15:52.000Z</time>
      </trkpt>
      <trkpt lat="43.13879177905619" lon="-6.98263194411993">
        <ele>1006</ele>
        <time>2017-08-08T10:16:00.000Z</time>
      </trkpt>
      <trkpt lat="43.13869262114167" lon="-6.982704447582364">
        <ele>1005.2</ele>
        <time>2017-08-08T10:16:09.000Z</time>
      </trkpt>
      <trkpt lat="43.138581393286586" lon="-6.9827791303396225">
        <ele>1004.4</ele>
        <time>2017-08-08T10:16:18.000Z</time>
      </trkpt>
      <trkpt lat="43.13847812823951" lon="-6.982843168079853">
        <ele>1003.6</ele>
        <time>2017-08-08T10:16:26.000Z</time>
      </trkpt>
      <trkpt lat="43.13837645575404" lon="-6.9828892685472965">
        <ele>1003</ele>
        <time>2017-08-08T10:16:34.000Z</time>
      </trkpt>
      <trkpt lat="43.13827922567725" lon="-6.98293000459671">
        <ele>1002.6</ele>
        <time>2017-08-08T10:16:42.000Z</time>
      </trkpt>
      <trkpt lat="43.13816472887993" lon="-6.982969315722585">
        <ele>1002</ele>
        <time>2017-08-08T10:16:52.000Z</time>
      </trkpt>
      <trkpt lat="43.13806942664087" lon="-6.983014913275838">
        <ele>1001.4</ele>
        <time>2017-08-08T10:17:00.000Z</time>
      </trkpt>
      <trkpt lat="43.13795233145356" lon="-6.983073502779007">
        <ele>1000.4</ele>
        <time>2017-08-08T10:17:10.000Z</time>
      </trkpt>
      <trkpt lat="43.1378535926342" lon="-6.9831254705786705">
        <ele>999.8</ele>
        <time>2017-08-08T10:17:18.000Z</time>
      </trkpt>
      <trkpt lat="43.13774806447327" lon="-6.983181294053793">
        <ele>999</ele>
        <time>2017-08-08T10:17:27.000Z</time>
      </trkpt>
      <trkpt lat="43.13767111860216" lon="-6.98323393240571">
        <ele>998.2</ele>
        <time>2017-08-08T10:17:34.000Z</time>
      </trkpt>
      <trkpt lat="43.13758285716176" lon="-6.983338370919228">
        <ele>996.8</ele>
        <time>2017-08-08T10:17:44.000Z</time>
      </trkpt>
      <trkpt lat="43.13747028820217" lon="-6.983466781675816">
        <ele>995.4</ele>
        <time>2017-08-08T10:17:56.000Z</time>
      </trkpt>
      <trkpt lat="43.13736207783222" lon="-6.983560407534242">
        <ele>994.6</ele>
        <time>2017-08-08T10:18:06.000Z</time>
      </trkpt>
      <trkpt lat="43.13724028877914" lon="-6.983646070584655">
        <ele>994</ele>
        <time>2017-08-08T10:18:17.000Z</time>
      </trkpt>
      <trkpt lat="43.13710349611938" lon="-6.98374162428081">
        <ele>993.2</ele>
        <time>2017-08-08T10:18:29.000Z</time>
      </trkpt>
      <trkpt lat="43.137022694572806" lon="-6.983801638707519">
        <ele>992.8</ele>
        <time>2017-08-08T10:18:36.000Z</time>
      </trkpt>
      <trkpt lat="43.13693929463625" lon="-6.983875399455428">
        <ele>992</ele>
        <time>2017-08-08T10:18:44.000Z</time>
      </trkpt>
      <trkpt lat="43.13682312145829" lon="-6.983985202386975">
        <ele>991</ele>
        <time>2017-08-08T10:18:55.000Z</time>
      </trkpt>
      <trkpt lat="43.13674692995846" lon="-6.9840743858367205">
        <ele>990.2</ele>
        <time>2017-08-08T10:19:03.000Z</time>
      </trkpt>
      <trkpt lat="43.136663949117064" lon="-6.984175890684128">
        <ele>989.8</ele>
        <time>2017-08-08T10:19:12.000Z</time>
      </trkpt>
      <trkpt lat="43.136582812294364" lon="-6.984299942851067">
        <ele>989.2</ele>
        <time>2017-08-08T10:19:22.000Z</time>
      </trkpt>
      <trkpt lat="43.13648197799921" lon="-6.984471855685115">
        <ele>988.4</ele>
        <time>2017-08-08T10:19:35.000Z</time>
      </trkpt>
      <trkpt lat="43.13641592860222" lon="-6.984594818204641">
        <ele>987.6</ele>
        <time>2017-08-08T10:19:44.000Z</time>
      </trkpt>
      <trkpt lat="43.13635742291808" lon="-6.984734544530511">
        <ele>986.8</ele>
        <time>2017-08-08T10:19:53.000Z</time>
      </trkpt>
      <trkpt lat="43.1362924631685" lon="-6.984905451536179">
        <ele>985.6</ele>
        <time>2017-08-08T10:20:04.000Z</time>
      </trkpt>
      <trkpt lat="43.13623764552176" lon="-6.985064540058374">
        <ele>984.8</ele>
        <time>2017-08-08T10:20:14.000Z</time>
      </trkpt>
      <trkpt lat="43.13619012013078" lon="-6.985230585560203">
        <ele>984</ele>
        <time>2017-08-08T10:20:24.000Z</time>
      </trkpt>
      <trkpt lat="43.13614594750106" lon="-6.985436864197254">
        <ele>982.8</ele>
        <time>2017-08-08T10:20:36.000Z</time>
      </trkpt>
      <trkpt lat="43.13611250370741" lon="-6.985626881942153">
        <ele>981.6</ele>
        <time>2017-08-08T10:20:47.000Z</time>
      </trkpt>
      <trkpt lat="43.13608853146434" lon="-6.985824862495065">
        <ele>981.2</ele>
        <time>2017-08-08T10:20:58.000Z</time>
      </trkpt>
      <trkpt lat="43.13607243821025" lon="-6.986003061756492">
        <ele>981.2</ele>
        <time>2017-08-08T10:21:08.000Z</time>
      </trkpt>
      <trkpt lat="43.136075204238296" lon="-6.986167598515749">
        <ele>981.2</ele>
        <time>2017-08-08T10:21:18.000Z</time>
      </trkpt>
      <trkpt lat="43.136095656082034" lon="-6.986327776685357">
        <ele>981</ele>
        <time>2017-08-08T10:21:28.000Z</time>
      </trkpt>
      <trkpt lat="43.136112755164504" lon="-6.9864799082279205">
        <ele>981.4</ele>
        <time>2017-08-08T10:21:37.000Z</time>
      </trkpt>
      <trkpt lat="43.13613345846534" lon="-6.98661376722157">
        <ele>982</ele>
        <time>2017-08-08T10:21:46.000Z</time>
      </trkpt>
      <trkpt lat="43.13614720478654" lon="-6.986722480505705">
        <ele>982</ele>
        <time>2017-08-08T10:21:54.000Z</time>
      </trkpt>
      <trkpt lat="43.136155251413584" lon="-6.986830774694681">
        <ele>982</ele>
        <time>2017-08-08T10:22:01.000Z</time>
      </trkpt>
      <trkpt lat="43.136172434315085" lon="-6.986955078318715">
        <ele>982</ele>
        <time>2017-08-08T10:22:09.000Z</time>
      </trkpt>
      <trkpt lat="43.13618157058954" lon="-6.987109053879976">
        <ele>982</ele>
        <time>2017-08-08T10:22:18.000Z</time>
      </trkpt>
      <trkpt lat="43.13622113317251" lon="-6.987217180430889">
        <ele>982.4</ele>
        <time>2017-08-08T10:22:25.000Z</time>
      </trkpt>
      <trkpt lat="43.13626203685999" lon="-6.987317092716694">
        <ele>982.8</ele>
        <time>2017-08-08T10:22:32.000Z</time>
      </trkpt>
      <trkpt lat="43.13631635159254" lon="-6.987394792959094">
        <ele>983.2</ele>
        <time>2017-08-08T10:22:39.000Z</time>
      </trkpt>
      <trkpt lat="43.13637452200055" lon="-6.987532088533044">
        <ele>983.2</ele>
        <time>2017-08-08T10:22:48.000Z</time>
      </trkpt>
      <trkpt lat="43.13643587753177" lon="-6.987669467926025">
        <ele>983.2</ele>
        <time>2017-08-08T10:22:58.000Z</time>
      </trkpt>
      <trkpt lat="43.136503687128425" lon="-6.987789161503315">
        <ele>983.4</ele>
        <time>2017-08-08T10:23:07.000Z</time>
      </trkpt>
      <trkpt lat="43.13656001351774" lon="-6.987910363823175">
        <ele>983.8</ele>
        <time>2017-08-08T10:23:16.000Z</time>
      </trkpt>
      <trkpt lat="43.136585829779506" lon="-6.987979430705309">
        <ele>983.8</ele>
        <time>2017-08-08T10:23:21.000Z</time>
      </trkpt>
      <trkpt lat="43.1366051081568" lon="-6.988023687154055">
        <ele>984</ele>
        <time>2017-08-08T10:23:24.000Z</time>
      </trkpt>
      <trkpt lat="43.1366619374603" lon="-6.988147152587771">
        <ele>984.4</ele>
        <time>2017-08-08T10:23:33.000Z</time>
      </trkpt>
      <trkpt lat="43.13671516254544" lon="-6.988265924155712">
        <ele>984.6</ele>
        <time>2017-08-08T10:23:42.000Z</time>
      </trkpt>
      <trkpt lat="43.13676587305963" lon="-6.988383438438177">
        <ele>984.6</ele>
        <time>2017-08-08T10:23:51.000Z</time>
      </trkpt>
      <trkpt lat="43.13681515865028" lon="-6.988512184470892">
        <ele>984.6</ele>
        <time>2017-08-08T10:24:00.000Z</time>
      </trkpt>
      <trkpt lat="43.136864276602864" lon="-6.988627351820469">
        <ele>984.8</ele>
        <time>2017-08-08T10:24:08.000Z</time>
      </trkpt>
      <trkpt lat="43.136935606598854" lon="-6.988792894408107">
        <ele>984.8</ele>
        <time>2017-08-08T10:24:19.000Z</time>
      </trkpt>
      <trkpt lat="43.13701146282256" lon="-6.988951815292239">
        <ele>984.8</ele>
        <time>2017-08-08T10:24:30.000Z</time>
      </trkpt>
      <trkpt lat="43.13704683445394" lon="-6.989020965993404">
        <ele>984.8</ele>
        <time>2017-08-08T10:24:35.000Z</time>
      </trkpt>
      <trkpt lat="43.137061754241586" lon="-6.989050135016441">
        <ele>984.8</ele>
        <time>2017-08-08T10:24:37.000Z</time>
      </trkpt>
      <trkpt lat="43.13707969151437" lon="-6.989096738398075">
        <ele>984.8</ele>
        <time>2017-08-08T10:24:40.000Z</time>
      </trkpt>
      <trkpt lat="43.13710626214743" lon="-6.9891525618731976">
        <ele>984.4</ele>
        <time>2017-08-08T10:24:44.000Z</time>
      </trkpt>
      <trkpt lat="43.13717717304826" lon="-6.989266639575362">
        <ele>984</ele>
        <time>2017-08-08T10:24:53.000Z</time>
      </trkpt>
      <trkpt lat="43.137260153889656" lon="-6.989356242120266">
        <ele>984</ele>
        <time>2017-08-08T10:25:01.000Z</time>
      </trkpt>
      <trkpt lat="43.13731597736478" lon="-6.989416424185038">
        <ele>984.2</ele>
        <time>2017-08-08T10:25:07.000Z</time>
      </trkpt>
      <trkpt lat="43.1373805180192" lon="-6.9894942082464695">
        <ele>984.8</ele>
        <time>2017-08-08T10:25:14.000Z</time>
      </trkpt>
      <trkpt lat="43.13743198290467" lon="-6.989561431109905">
        <ele>985.4</ele>
        <time>2017-08-08T10:25:20.000Z</time>
      </trkpt>
      <trkpt lat="43.13750079832971" lon="-6.989630330353975">
        <ele>986</ele>
        <time>2017-08-08T10:25:27.000Z</time>
      </trkpt>
      <trkpt lat="43.13755972310901" lon="-6.989711886271834">
        <ele>986.6</ele>
        <time>2017-08-08T10:25:34.000Z</time>
      </trkpt>
      <trkpt lat="43.137569949030876" lon="-6.98971901088953">
        <ele>986.8</ele>
        <time>2017-08-08T10:25:35.000Z</time>
      </trkpt>
      <trkpt lat="43.137660222128034" lon="-6.989814229309559">
        <ele>987.6</ele>
        <time>2017-08-08T10:25:44.000Z</time>
      </trkpt>
      <trkpt lat="43.137686625123024" lon="-6.989841805770993">
        <ele>987.6</ele>
        <time>2017-08-08T10:25:47.000Z</time>
      </trkpt>
      <trkpt lat="43.137717889621854" lon="-6.989871393889189">
        <ele>987.8</ele>
        <time>2017-08-08T10:25:50.000Z</time>
      </trkpt>
      <trkpt lat="43.13773632980883" lon="-6.98988857679069">
        <ele>987.8</ele>
        <time>2017-08-08T10:25:52.000Z</time>
      </trkpt>
      <trkpt lat="43.13781294040382" lon="-6.9899633433669806">
        <ele>988.2</ele>
        <time>2017-08-08T10:26:00.000Z</time>
      </trkpt>
      <trkpt lat="43.137890053913" lon="-6.990040792152286">
        <ele>988.4</ele>
        <time>2017-08-08T10:26:08.000Z</time>
      </trkpt>
      <trkpt lat="43.13790648244321" lon="-6.990045150741935">
        <ele>988.4</ele>
        <time>2017-08-08T10:26:10.000Z</time>
      </trkpt>
      <trkpt lat="43.137907069176435" lon="-6.99004489928484">
        <ele>988.4</ele>
        <time>2017-08-08T10:26:14.000Z</time>
      </trkpt>
      <trkpt lat="43.13796104863286" lon="-6.990086641162634">
        <ele>988.8</ele>
        <time>2017-08-08T10:26:26.000Z</time>
      </trkpt>
      <trkpt lat="43.138024834915996" lon="-6.990157049149275">
        <ele>989</ele>
        <time>2017-08-08T10:26:33.000Z</time>
      </trkpt>
      <trkpt lat="43.13807923346758" lon="-6.9902189914137125">
        <ele>989.2</ele>
        <time>2017-08-08T10:26:39.000Z</time>
      </trkpt>
      <trkpt lat="43.13813539221883" lon="-6.990300714969635">
        <ele>989.6</ele>
        <time>2017-08-08T10:26:46.000Z</time>
      </trkpt>
      <trkpt lat="43.13820010051131" lon="-6.9903812650591135">
        <ele>990.2</ele>
        <time>2017-08-08T10:26:53.000Z</time>
      </trkpt>
      <trkpt lat="43.138242177665234" lon="-6.990443458780646">
        <ele>990.8</ele>
        <time>2017-08-08T10:26:58.000Z</time>
      </trkpt>
      <trkpt lat="43.13825919292867" lon="-6.990467514842749">
        <ele>991</ele>
        <time>2017-08-08T10:27:00.000Z</time>
      </trkpt>
      <trkpt lat="43.13832012936473" lon="-6.990560805425048">
        <ele>991.6</ele>
        <time>2017-08-08T10:27:08.000Z</time>
      </trkpt>
      <trkpt lat="43.13836899586022" lon="-6.990651413798332">
        <ele>992.2</ele>
        <time>2017-08-08T10:27:15.000Z</time>
      </trkpt>
      <trkpt lat="43.13837771303952" lon="-6.990661723539233">
        <ele>992.2</ele>
        <time>2017-08-08T10:27:16.000Z</time>
      </trkpt>
      <trkpt lat="43.138408055529" lon="-6.99072802439332">
        <ele>992.6</ele>
        <time>2017-08-08T10:27:21.000Z</time>
      </trkpt>
      <trkpt lat="43.13842071220279" lon="-6.990749901160598">
        <ele>992.8</ele>
        <time>2017-08-08T10:27:23.000Z</time>
      </trkpt>
      <trkpt lat="43.13842766918242" lon="-6.990766748785973">
        <ele>992.8</ele>
        <time>2017-08-08T10:27:29.000Z</time>
      </trkpt>
      <trkpt lat="43.13845256343484" lon="-6.99080865830183">
        <ele>993</ele>
        <time>2017-08-08T10:27:32.000Z</time>
      </trkpt>
      <trkpt lat="43.13844719901681" lon="-6.990859871730208">
        <ele>993</ele>
        <time>2017-08-08T10:27:34.000Z</time>
      </trkpt>
      <trkpt lat="43.13846195116639" lon="-6.990886107087135">
        <ele>993.2</ele>
        <time>2017-08-08T10:27:36.000Z</time>
      </trkpt>
      <trkpt lat="43.1384717579931" lon="-6.99092055670917">
        <ele>993.2</ele>
        <time>2017-08-08T10:27:38.000Z</time>
      </trkpt>
      <trkpt lat="43.138526575639844" lon="-6.991048799827695">
        <ele>993.4</ele>
        <time>2017-08-08T10:27:47.000Z</time>
      </trkpt>
      <trkpt lat="43.13857426866889" lon="-6.991167655214667">
        <ele>993.6</ele>
        <time>2017-08-08T10:27:55.000Z</time>
      </trkpt>
      <trkpt lat="43.13858491368592" lon="-6.991259604692459">
        <ele>993.6</ele>
        <time>2017-08-08T10:28:00.000Z</time>
      </trkpt>
      <trkpt lat="43.138593044131994" lon="-6.991273518651724">
        <ele>993.8</ele>
        <time>2017-08-08T10:28:01.000Z</time>
      </trkpt>
      <trkpt lat="43.13862363807857" lon="-6.991377202793956">
        <ele>993.8</ele>
        <time>2017-08-08T10:28:08.000Z</time>
      </trkpt>
      <trkpt lat="43.13862841576338" lon="-6.991395140066743">
        <ele>994</ele>
        <time>2017-08-08T10:28:09.000Z</time>
      </trkpt>
      <trkpt lat="43.13865012489259" lon="-6.991502679884434">
        <ele>994</ele>
        <time>2017-08-08T10:28:16.000Z</time>
      </trkpt>
      <trkpt lat="43.138658590614796" lon="-6.991586498916149">
        <ele>994</ele>
        <time>2017-08-08T10:28:21.000Z</time>
      </trkpt>
      <trkpt lat="43.13865875825286" lon="-6.991637796163559">
        <ele>994.2</ele>
        <time>2017-08-08T10:28:24.000Z</time>
      </trkpt>
      <trkpt lat="43.138659512624145" lon="-6.991652548313141">
        <ele>994.2</ele>
        <time>2017-08-08T10:28:25.000Z</time>
      </trkpt>
      <trkpt lat="43.138675102964044" lon="-6.991767045110464">
        <ele>994.6</ele>
        <time>2017-08-08T10:28:32.000Z</time>
      </trkpt>
      <trkpt lat="43.13867334276438" lon="-6.991801830008626">
        <ele>994.6</ele>
        <time>2017-08-08T10:28:34.000Z</time>
      </trkpt>
      <trkpt lat="43.13868038356304" lon="-6.991878440603614">
        <ele>994.8</ele>
        <time>2017-08-08T10:28:39.000Z</time>
      </trkpt>
      <trkpt lat="43.13868918456137" lon="-6.992019927129149">
        <ele>995.2</ele>
        <time>2017-08-08T10:28:47.000Z</time>
      </trkpt>
      <trkpt lat="43.13869580626488" lon="-6.992048593237996">
        <ele>995.4</ele>
        <time>2017-08-08T10:28:49.000Z</time>
      </trkpt>
      <trkpt lat="43.13869010657072" lon="-6.992063848301768">
        <ele>995.4</ele>
        <time>2017-08-08T10:28:51.000Z</time>
      </trkpt>
      <trkpt lat="43.138683484867215" lon="-6.992066530510783">
        <ele>995.4</ele>
        <time>2017-08-08T10:28:52.000Z</time>
      </trkpt>
      <trkpt lat="43.13869312405586" lon="-6.9920717272907495">
        <ele>995.4</ele>
        <time>2017-08-08T10:28:57.000Z</time>
      </trkpt>
      <trkpt lat="43.13868993893266" lon="-6.992080947384238">
        <ele>995.4</ele>
        <time>2017-08-08T10:29:04.000Z</time>
      </trkpt>
      <trkpt lat="43.13870712183416" lon="-6.992092430591583">
        <ele>995.6</ele>
        <time>2017-08-08T10:29:37.000Z</time>
      </trkpt>
      <trkpt lat="43.138699661940336" lon="-6.992097292095423">
        <ele>995.4</ele>
        <time>2017-08-08T10:30:12.000Z</time>
      </trkpt>
      <trkpt lat="43.138691782951355" lon="-6.992102907970548">
        <ele>995.4</ele>
        <time>2017-08-08T10:30:50.000Z</time>
      </trkpt>
      <trkpt lat="43.1387135758996" lon="-6.9921088591217995">
        <ele>995.6</ele>
        <time>2017-08-08T10:32:01.000Z</time>
      </trkpt>
      <trkpt lat="43.13871659338474" lon="-6.992115145549178">
        <ele>995.6</ele>
        <time>2017-08-08T10:32:10.000Z</time>
      </trkpt>
      <trkpt lat="43.138725478202105" lon="-6.992114307358861">
        <ele>995.6</ele>
        <time>2017-08-08T10:32:32.000Z</time>
      </trkpt>
      <trkpt lat="43.138730926439166" lon="-6.992189157754183">
        <ele>995.8</ele>
        <time>2017-08-08T10:33:00.000Z</time>
      </trkpt>
      <trkpt lat="43.13875297084451" lon="-6.992293009534478">
        <ele>996</ele>
        <time>2017-08-08T10:33:09.000Z</time>
      </trkpt>
      <trkpt lat="43.138758670538664" lon="-6.992332320660353">
        <ele>996</ele>
        <time>2017-08-08T10:33:12.000Z</time>
      </trkpt>
      <trkpt lat="43.13876420259476" lon="-6.992385713383555">
        <ele>996.2</ele>
        <time>2017-08-08T10:33:16.000Z</time>
      </trkpt>
      <trkpt lat="43.1387793738395" lon="-6.992505826056004">
        <ele>996.6</ele>
        <time>2017-08-08T10:33:24.000Z</time>
      </trkpt>
      <trkpt lat="43.13878892920911" lon="-6.992556620389223">
        <ele>996.8</ele>
        <time>2017-08-08T10:33:28.000Z</time>
      </trkpt>
      <trkpt lat="43.13879747875035" lon="-6.992584113031626">
        <ele>996.8</ele>
        <time>2017-08-08T10:33:30.000Z</time>
      </trkpt>
      <trkpt lat="43.13879898749292" lon="-6.992624849081039">
        <ele>997</ele>
        <time>2017-08-08T10:33:35.000Z</time>
      </trkpt>
      <trkpt lat="43.13881239853799" lon="-6.992696849629283">
        <ele>997.4</ele>
        <time>2017-08-08T10:33:40.000Z</time>
      </trkpt>
      <trkpt lat="43.13882446847856" lon="-6.992740603163838">
        <ele>997.6</ele>
        <time>2017-08-08T10:33:43.000Z</time>
      </trkpt>
      <trkpt lat="43.1388274859637" lon="-6.992756025865674">
        <ele>997.6</ele>
        <time>2017-08-08T10:33:44.000Z</time>
      </trkpt>
      <trkpt lat="43.13885271549225" lon="-6.992838168516755">
        <ele>998</ele>
        <time>2017-08-08T10:33:50.000Z</time>
      </trkpt>
      <trkpt lat="43.13888054341078" lon="-6.992932045832276">
        <ele>998.4</ele>
        <time>2017-08-08T10:33:57.000Z</time>
      </trkpt>
      <trkpt lat="43.13892027363181" lon="-6.993065485730767">
        <ele>999</ele>
        <time>2017-08-08T10:34:06.000Z</time>
      </trkpt>
      <trkpt lat="43.13894256949425" lon="-6.9931696727871895">
        <ele>999.6</ele>
        <time>2017-08-08T10:34:13.000Z</time>
      </trkpt>
      <trkpt lat="43.138971822336316" lon="-6.9932786375284195">
        <ele>1000</ele>
        <time>2017-08-08T10:34:20.000Z</time>
      </trkpt>
      <trkpt lat="43.138998644426465" lon="-6.993388356640935">
        <ele>1000.4</ele>
        <time>2017-08-08T10:34:27.000Z</time>
      </trkpt>
      <trkpt lat="43.13900585286319" lon="-6.993401935324073">
        <ele>1000.4</ele>
        <time>2017-08-08T10:34:28.000Z</time>
      </trkpt>
      <trkpt lat="43.13903016038239" lon="-6.993490448221564">
        <ele>1000.8</ele>
        <time>2017-08-08T10:34:34.000Z</time>
      </trkpt>
      <trkpt lat="43.13905471935868" lon="-6.993587343022227">
        <ele>1000.8</ele>
        <time>2017-08-08T10:34:41.000Z</time>
      </trkpt>
      <trkpt lat="43.13909034244716" lon="-6.9937103893607855">
        <ele>1001.2</ele>
        <time>2017-08-08T10:34:49.000Z</time>
      </trkpt>
      <trkpt lat="43.139112973585725" lon="-6.99380099773407">
        <ele>1001.2</ele>
        <time>2017-08-08T10:34:55.000Z</time>
      </trkpt>
      <trkpt lat="43.13911875709891" lon="-6.993829915300012">
        <ele>1001.4</ele>
        <time>2017-08-08T10:34:57.000Z</time>
      </trkpt>
      <trkpt lat="43.139144238084555" lon="-6.993906274437904">
        <ele>1001.4</ele>
        <time>2017-08-08T10:35:02.000Z</time>
      </trkpt>
      <trkpt lat="43.13918556086719" lon="-6.9940258003771305">
        <ele>1001.8</ele>
        <time>2017-08-08T10:35:10.000Z</time>
      </trkpt>
      <trkpt lat="43.13919059000909" lon="-6.994039379060268">
        <ele>1001.8</ele>
        <time>2017-08-08T10:35:11.000Z</time>
      </trkpt>
      <trkpt lat="43.139233253896236" lon="-6.9941633474081755">
        <ele>1001.8</ele>
        <time>2017-08-08T10:35:19.000Z</time>
      </trkpt>
      <trkpt lat="43.139273235574365" lon="-6.994317574426532">
        <ele>1001.4</ele>
        <time>2017-08-08T10:35:28.000Z</time>
      </trkpt>
      <trkpt lat="43.13930315896869" lon="-6.994430646300316">
        <ele>1001.2</ele>
        <time>2017-08-08T10:35:35.000Z</time>
      </trkpt>
      <trkpt lat="43.139369543641806" lon="-6.994516057893634">
        <ele>1000.8</ele>
        <time>2017-08-08T10:35:42.000Z</time>
      </trkpt>
      <trkpt lat="43.13944850116968" lon="-6.994552351534367">
        <ele>1000.6</ele>
        <time>2017-08-08T10:35:49.000Z</time>
      </trkpt>
      <trkpt lat="43.13953936100006" lon="-6.994604403153062">
        <ele>1000.4</ele>
        <time>2017-08-08T10:35:57.000Z</time>
      </trkpt>
      <trkpt lat="43.139652432873845" lon="-6.994639690965414">
        <ele>1000</ele>
        <time>2017-08-08T10:36:07.000Z</time>
      </trkpt>
      <trkpt lat="43.13974563963711" lon="-6.994667937979102">
        <ele>999.8</ele>
        <time>2017-08-08T10:36:15.000Z</time>
      </trkpt>
      <trkpt lat="43.13985066488385" lon="-6.9947105180472136">
        <ele>999.4</ele>
        <time>2017-08-08T10:36:24.000Z</time>
      </trkpt>
      <trkpt lat="43.13992777839303" lon="-6.994750835001469">
        <ele>999</ele>
        <time>2017-08-08T10:36:32.000Z</time>
      </trkpt>
      <trkpt lat="43.14002928324044" lon="-6.994810346513987">
        <ele>998.6</ele>
        <time>2017-08-08T10:36:41.000Z</time>
      </trkpt>
      <trkpt lat="43.1400606315583" lon="-6.994821075350046">
        <ele>998.4</ele>
        <time>2017-08-08T10:36:43.000Z</time>
      </trkpt>
      <trkpt lat="43.140114191919565" lon="-6.994852926582098">
        <ele>998.2</ele>
        <time>2017-08-08T10:36:47.000Z</time>
      </trkpt>
      <trkpt lat="43.140162136405706" lon="-6.994895003736019">
        <ele>998.2</ele>
        <time>2017-08-08T10:36:52.000Z</time>
      </trkpt>
      <trkpt lat="43.14023254439235" lon="-6.994929537177086">
        <ele>997.8</ele>
        <time>2017-08-08T10:36:58.000Z</time>
      </trkpt>
      <trkpt lat="43.14025651663542" lon="-6.994947390630841">
        <ele>997.6</ele>
        <time>2017-08-08T10:37:00.000Z</time>
      </trkpt>
      <trkpt lat="43.14032508060336" lon="-6.9949908927083015">
        <ele>997</ele>
        <time>2017-08-08T10:37:06.000Z</time>
      </trkpt>
      <trkpt lat="43.140393728390336" lon="-6.995043698698282">
        <ele>996.2</ele>
        <time>2017-08-08T10:37:12.000Z</time>
      </trkpt>
      <trkpt lat="43.14042658545077" lon="-6.9950739573687315">
        <ele>995.8</ele>
        <time>2017-08-08T10:37:15.000Z</time>
      </trkpt>
      <trkpt lat="43.140462543815374" lon="-6.9951060600578785">
        <ele>995.2</ele>
        <time>2017-08-08T10:37:18.000Z</time>
      </trkpt>
      <trkpt lat="43.14053948968649" lon="-6.995208067819476">
        <ele>993.8</ele>
        <time>2017-08-08T10:37:27.000Z</time>
      </trkpt>
      <trkpt lat="43.140611154958606" lon="-6.9953187089413404">
        <ele>992.2</ele>
        <time>2017-08-08T10:37:35.000Z</time>
      </trkpt>
      <trkpt lat="43.140666391700506" lon="-6.995436726137996">
        <ele>990.8</ele>
        <time>2017-08-08T10:37:43.000Z</time>
      </trkpt>
      <trkpt lat="43.14072674140334" lon="-6.995534626767039">
        <ele>989.6</ele>
        <time>2017-08-08T10:37:51.000Z</time>
      </trkpt>
      <trkpt lat="43.14075700007379" lon="-6.995636047795415">
        <ele>988.2</ele>
        <time>2017-08-08T10:37:57.000Z</time>
      </trkpt>
      <trkpt lat="43.14080737531185" lon="-6.995754819363356">
        <ele>986.8</ele>
        <time>2017-08-08T10:38:05.000Z</time>
      </trkpt>
      <trkpt lat="43.140859846025705" lon="-6.9958502892404795">
        <ele>985.2</ele>
        <time>2017-08-08T10:38:13.000Z</time>
      </trkpt>
      <trkpt lat="43.14092815853655" lon="-6.9959338568151">
        <ele>983.8</ele>
        <time>2017-08-08T10:38:20.000Z</time>
      </trkpt>
      <trkpt lat="43.14098532311618" lon="-6.995990099385381">
        <ele>983</ele>
        <time>2017-08-08T10:38:26.000Z</time>
      </trkpt>
      <trkpt lat="43.14099596813321" lon="-6.995998984202743">
        <ele>983</ele>
        <time>2017-08-08T10:38:27.000Z</time>
      </trkpt>
      <trkpt lat="43.14104223623872" lon="-6.996030416339636">
        <ele>982.6</ele>
        <time>2017-08-08T10:38:31.000Z</time>
      </trkpt>
      <trkpt lat="43.14105933532119" lon="-6.996042486280203">
        <ele>982.4</ele>
        <time>2017-08-08T10:38:33.000Z</time>
      </trkpt>
      <trkpt lat="43.14110920764506" lon="-6.996078947558999">
        <ele>981.8</ele>
        <time>2017-08-08T10:38:39.000Z</time>
      </trkpt>
      <trkpt lat="43.141169641166925" lon="-6.996101243421435">
        <ele>981.6</ele>
        <time>2017-08-08T10:38:43.000Z</time>
      </trkpt>
      <trkpt lat="43.14124843105674" lon="-6.996133262291551">
        <ele>981.2</ele>
        <time>2017-08-08T10:38:49.000Z</time>
      </trkpt>
      <trkpt lat="43.14131196588278" lon="-6.996160168200731">
        <ele>981</ele>
        <time>2017-08-08T10:38:54.000Z</time>
      </trkpt>
      <trkpt lat="43.141410034149885" lon="-6.9961869064718485">
        <ele>981</ele>
        <time>2017-08-08T10:39:01.000Z</time>
      </trkpt>
      <trkpt lat="43.141512628644705" lon="-6.996212303638458">
        <ele>981.4</ele>
        <time>2017-08-08T10:39:08.000Z</time>
      </trkpt>
      <trkpt lat="43.14159946516156" lon="-6.996236862614751">
        <ele>981.6</ele>
        <time>2017-08-08T10:39:15.000Z</time>
      </trkpt>
      <trkpt lat="43.14162343740463" lon="-6.996250106021762">
        <ele>981.4</ele>
        <time>2017-08-08T10:39:17.000Z</time>
      </trkpt>
      <trkpt lat="43.141687558963895" lon="-6.996271060779691">
        <ele>981.6</ele>
        <time>2017-08-08T10:39:22.000Z</time>
      </trkpt>
      <trkpt lat="43.14178302884102" lon="-6.996302492916584">
        <ele>981.8</ele>
        <time>2017-08-08T10:39:30.000Z</time>
      </trkpt>
      <trkpt lat="43.1418461445719" lon="-6.996355801820755">
        <ele>981.2</ele>
        <time>2017-08-08T10:39:36.000Z</time>
      </trkpt>
      <trkpt lat="43.14188327640295" lon="-6.9963853899389505">
        <ele>980.8</ele>
        <time>2017-08-08T10:39:40.000Z</time>
      </trkpt>
      <trkpt lat="43.141952846199274" lon="-6.9964357651770115">
        <ele>980.4</ele>
        <time>2017-08-08T10:39:45.000Z</time>
      </trkpt>
      <trkpt lat="43.14196441322565" lon="-6.996440207585692">
        <ele>980.4</ele>
        <time>2017-08-08T10:39:46.000Z</time>
      </trkpt>
      <trkpt lat="43.142041275277734" lon="-6.996511034667492">
        <ele>980</ele>
        <time>2017-08-08T10:39:53.000Z</time>
      </trkpt>
      <trkpt lat="43.142050663009286" lon="-6.996515057981014">
        <ele>980</ele>
        <time>2017-08-08T10:39:54.000Z</time>
      </trkpt>
      <trkpt lat="43.14210900105536" lon="-6.996566690504551">
        <ele>979.8</ele>
        <time>2017-08-08T10:39:59.000Z</time>
      </trkpt>
      <trkpt lat="43.14221251755953" lon="-6.99663651175797">
        <ele>978.8</ele>
        <time>2017-08-08T10:40:07.000Z</time>
      </trkpt>
      <trkpt lat="43.14230639487505" lon="-6.996695687994361">
        <ele>977.6</ele>
        <time>2017-08-08T10:40:14.000Z</time>
      </trkpt>
      <trkpt lat="43.14240278676152" lon="-6.9967494159936905">
        <ele>976.8</ele>
        <time>2017-08-08T10:40:23.000Z</time>
      </trkpt>
      <trkpt lat="43.142454670742154" lon="-6.996770538389683">
        <ele>976.6</ele>
        <time>2017-08-08T10:40:28.000Z</time>
      </trkpt>
      <trkpt lat="43.14250370487571" lon="-6.996801802888513">
        <ele>976.4</ele>
        <time>2017-08-08T10:40:32.000Z</time>
      </trkpt>
      <trkpt lat="43.142509991303086" lon="-6.996803060173988">
        <ele>976.4</ele>
        <time>2017-08-08T10:40:33.000Z</time>
      </trkpt>
      <trkpt lat="43.14252222888172" lon="-6.996815046295524">
        <ele>976.2</ele>
        <time>2017-08-08T10:40:34.000Z</time>
      </trkpt>
      <trkpt lat="43.14256782643497" lon="-6.996854525059462">
        <ele>975.8</ele>
        <time>2017-08-08T10:40:38.000Z</time>
      </trkpt>
      <trkpt lat="43.14261686056852" lon="-6.996883861720562">
        <ele>975.6</ele>
        <time>2017-08-08T10:40:41.000Z</time>
      </trkpt>
      <trkpt lat="43.142646700143814" lon="-6.996919233351946">
        <ele>975.2</ele>
        <time>2017-08-08T10:40:44.000Z</time>
      </trkpt>
      <trkpt lat="43.14265868626535" lon="-6.996930129826069">
        <ele>975</ele>
        <time>2017-08-08T10:40:45.000Z</time>
      </trkpt>
      <trkpt lat="43.142706798389554" lon="-6.996979163959622">
        <ele>974.4</ele>
        <time>2017-08-08T10:40:50.000Z</time>
      </trkpt>
      <trkpt lat="43.14272599294782" lon="-6.997002214193344">
        <ele>974</ele>
        <time>2017-08-08T10:40:52.000Z</time>
      </trkpt>
      <trkpt lat="43.142798244953156" lon="-6.997076645493507">
        <ele>973.2</ele>
        <time>2017-08-08T10:40:59.000Z</time>
      </trkpt>
      <trkpt lat="43.14288256689906" lon="-6.997150909155607">
        <ele>972.4</ele>
        <time>2017-08-08T10:41:07.000Z</time>
      </trkpt>
      <trkpt lat="43.142963368445635" lon="-6.997211761772633">
        <ele>971.6</ele>
        <time>2017-08-08T10:41:14.000Z</time>
      </trkpt>
      <trkpt lat="43.143060598522425" lon="-6.997276721522212">
        <ele>971</ele>
        <time>2017-08-08T10:41:22.000Z</time>
      </trkpt>
      <trkpt lat="43.14316294156015" lon="-6.997332042083144">
        <ele>970.6</ele>
        <time>2017-08-08T10:41:30.000Z</time>
      </trkpt>
      <trkpt lat="43.14327819272876" lon="-6.997377555817366">
        <ele>970.6</ele>
        <time>2017-08-08T10:41:39.000Z</time>
      </trkpt>
      <trkpt lat="43.14333686605096" lon="-6.997403874993324">
        <ele>970.4</ele>
        <time>2017-08-08T10:41:44.000Z</time>
      </trkpt>
      <trkpt lat="43.14338229596615" lon="-6.997424578294158">
        <ele>970.4</ele>
        <time>2017-08-08T10:41:47.000Z</time>
      </trkpt>
      <trkpt lat="43.143484806641936" lon="-6.997479479759932">
        <ele>969.4</ele>
        <time>2017-08-08T10:41:55.000Z</time>
      </trkpt>
      <trkpt lat="43.14358186908066" lon="-6.997508900240064">
        <ele>968.8</ele>
        <time>2017-08-08T10:42:02.000Z</time>
      </trkpt>
      <trkpt lat="43.14368739724159" lon="-6.997559107840061">
        <ele>967.6</ele>
        <time>2017-08-08T10:42:11.000Z</time>
      </trkpt>
      <trkpt lat="43.14377381466329" lon="-6.99759129434824">
        <ele>966.8</ele>
        <time>2017-08-08T10:42:18.000Z</time>
      </trkpt>
      <trkpt lat="43.14386760815978" lon="-6.99762943200767">
        <ele>965.8</ele>
        <time>2017-08-08T10:42:26.000Z</time>
      </trkpt>
      <trkpt lat="43.14396031200886" lon="-6.997664971277118">
        <ele>965</ele>
        <time>2017-08-08T10:42:34.000Z</time>
      </trkpt>
      <trkpt lat="43.144010938704014" lon="-6.997692044824362">
        <ele>964.4</ele>
        <time>2017-08-08T10:42:40.000Z</time>
      </trkpt>
      <trkpt lat="43.14407137222588" lon="-6.997714256867766">
        <ele>964.2</ele>
        <time>2017-08-08T10:42:45.000Z</time>
      </trkpt>
      <trkpt lat="43.144169272854924" lon="-6.997750801965594">
        <ele>964</ele>
        <time>2017-08-08T10:42:53.000Z</time>
      </trkpt>
      <trkpt lat="43.14421243965626" lon="-6.997759519144893">
        <ele>964.2</ele>
        <time>2017-08-08T10:42:57.000Z</time>
      </trkpt>
      <trkpt lat="43.14425703138113" lon="-6.9977660570293665">
        <ele>964.2</ele>
        <time>2017-08-08T10:43:00.000Z</time>
      </trkpt>
      <trkpt lat="43.14431310631335" lon="-6.997776785865426">
        <ele>964</ele>
        <time>2017-08-08T10:43:04.000Z</time>
      </trkpt>
      <trkpt lat="43.14436448737979" lon="-6.997788352891803">
        <ele>963.8</ele>
        <time>2017-08-08T10:43:08.000Z</time>
      </trkpt>
      <trkpt lat="43.1443793233484" lon="-6.997787682339549">
        <ele>963.8</ele>
        <time>2017-08-08T10:43:09.000Z</time>
      </trkpt>
      <trkpt lat="43.14450329169631" lon="-6.997807798907161">
        <ele>963.2</ele>
        <time>2017-08-08T10:43:18.000Z</time>
      </trkpt>
      <trkpt lat="43.144625667482615" lon="-6.9978382252156734">
        <ele>962.4</ele>
        <time>2017-08-08T10:43:28.000Z</time>
      </trkpt>
      <trkpt lat="43.14470395445824" lon="-6.997874351218343">
        <ele>961.6</ele>
        <time>2017-08-08T10:43:35.000Z</time>
      </trkpt>
      <trkpt lat="43.14476145431399" lon="-6.99790695682168">
        <ele>961</ele>
        <time>2017-08-08T10:43:41.000Z</time>
      </trkpt>
      <trkpt lat="43.14482817426324" lon="-6.997934281826019">
        <ele>960.4</ele>
        <time>2017-08-08T10:43:46.000Z</time>
      </trkpt>
      <trkpt lat="43.14490017481148" lon="-6.997937383130193">
        <ele>960.2</ele>
        <time>2017-08-08T10:43:51.000Z</time>
      </trkpt>
      <trkpt lat="43.145007798448205" lon="-6.9979611877352">
        <ele>959.6</ele>
        <time>2017-08-08T10:43:59.000Z</time>
      </trkpt>
      <trkpt lat="43.145098658278584" lon="-6.9979839865118265">
        <ele>959.2</ele>
        <time>2017-08-08T10:44:06.000Z</time>
      </trkpt>
      <trkpt lat="43.145224303007126" lon="-6.998010389506817">
        <ele>958.6</ele>
        <time>2017-08-08T10:44:15.000Z</time>
      </trkpt>
      <trkpt lat="43.14535061828792" lon="-6.998032182455063">
        <ele>958.2</ele>
        <time>2017-08-08T10:44:24.000Z</time>
      </trkpt>
      <trkpt lat="43.14546151086688" lon="-6.998063530772924">
        <ele>957.6</ele>
        <time>2017-08-08T10:44:33.000Z</time>
      </trkpt>
      <trkpt lat="43.14560274593532" lon="-6.998082892969251">
        <ele>957.2</ele>
        <time>2017-08-08T10:44:44.000Z</time>
      </trkpt>
      <trkpt lat="43.145685475319624" lon="-6.998091526329517">
        <ele>957</ele>
        <time>2017-08-08T10:44:51.000Z</time>
      </trkpt>
      <trkpt lat="43.145769042894244" lon="-6.9981003273278475">
        <ele>956.8</ele>
        <time>2017-08-08T10:44:58.000Z</time>
      </trkpt>
      <trkpt lat="43.14590550027788" lon="-6.998095465824008">
        <ele>957</ele>
        <time>2017-08-08T10:45:09.000Z</time>
      </trkpt>
      <trkpt lat="43.146034833043814" lon="-6.998109128326178">
        <ele>956.6</ele>
        <time>2017-08-08T10:45:18.000Z</time>
      </trkpt>
      <trkpt lat="43.146176571026444" lon="-6.998104099184275">
        <ele>957.2</ele>
        <time>2017-08-08T10:45:28.000Z</time>
      </trkpt>
      <trkpt lat="43.14631009474397" lon="-6.998107619583607">
        <ele>957.6</ele>
        <time>2017-08-08T10:45:37.000Z</time>
      </trkpt>
      <trkpt lat="43.14638880081475" lon="-6.998112900182605">
        <ele>957.8</ele>
        <time>2017-08-08T10:45:43.000Z</time>
      </trkpt>
      <trkpt lat="43.14651100896299" lon="-6.998115666210651">
        <ele>958.2</ele>
        <time>2017-08-08T10:45:52.000Z</time>
      </trkpt>
      <trkpt lat="43.14665484242141" lon="-6.9981371238827705">
        <ele>958.4</ele>
        <time>2017-08-08T10:46:02.000Z</time>
      </trkpt>
      <trkpt lat="43.14677872695029" lon="-6.998165035620332">
        <ele>958.4</ele>
        <time>2017-08-08T10:46:11.000Z</time>
      </trkpt>
      <trkpt lat="43.14685701392591" lon="-6.998195126652718">
        <ele>957.8</ele>
        <time>2017-08-08T10:46:17.000Z</time>
      </trkpt>
      <trkpt lat="43.14696757122874" lon="-6.998236533254385">
        <ele>957</ele>
        <time>2017-08-08T10:46:26.000Z</time>
      </trkpt>
      <trkpt lat="43.147082990035415" lon="-6.998282885178924">
        <ele>956.2</ele>
        <time>2017-08-08T10:46:35.000Z</time>
      </trkpt>
      <trkpt lat="43.14719128422439" lon="-6.998344911262393">
        <ele>955</ele>
        <time>2017-08-08T10:46:44.000Z</time>
      </trkpt>
      <trkpt lat="43.14731785096228" lon="-6.9984231144189835">
        <ele>953.6</ele>
        <time>2017-08-08T10:46:55.000Z</time>
      </trkpt>
      <trkpt lat="43.14738817512989" lon="-6.9984920136630535">
        <ele>952.6</ele>
        <time>2017-08-08T10:47:03.000Z</time>
      </trkpt>
      <trkpt lat="43.147454811260104" lon="-6.9985974580049515">
        <ele>951.2</ele>
        <time>2017-08-08T10:47:12.000Z</time>
      </trkpt>
      <trkpt lat="43.147502252832055" lon="-6.99869561009109">
        <ele>950</ele>
        <time>2017-08-08T10:47:19.000Z</time>
      </trkpt>
      <trkpt lat="43.14755396917462" lon="-6.99883583933115">
        <ele>948.2</ele>
        <time>2017-08-08T10:47:28.000Z</time>
      </trkpt>
      <trkpt lat="43.14754759892821" lon="-6.998853608965874">
        <ele>948</ele>
        <time>2017-08-08T10:47:32.000Z</time>
      </trkpt>
      <trkpt lat="43.14753586426377" lon="-6.99885637499392">
        <ele>948</ele>
        <time>2017-08-08T10:47:33.000Z</time>
      </trkpt>
      <trkpt lat="43.14742933027446" lon="-6.998883280903101">
        <ele>947.4</ele>
        <time>2017-08-08T10:47:43.000Z</time>
      </trkpt>
      <trkpt lat="43.147427486255765" lon="-6.998898200690746">
        <ele>947.2</ele>
        <time>2017-08-08T10:47:44.000Z</time>
      </trkpt>
      <trkpt lat="43.14745590090752" lon="-6.998932398855686">
        <ele>946.8</ele>
        <time>2017-08-08T10:47:47.000Z</time>
      </trkpt>
      <trkpt lat="43.14746436662972" lon="-6.998937260359526">
        <ele>946.8</ele>
        <time>2017-08-08T10:47:48.000Z</time>
      </trkpt>
      <trkpt lat="43.147547179833055" lon="-6.99896483682096">
        <ele>946.4</ele>
        <time>2017-08-08T10:47:55.000Z</time>
      </trkpt>
      <trkpt lat="43.14766720868647" lon="-6.9990097638219595">
        <ele>946.2</ele>
        <time>2017-08-08T10:48:05.000Z</time>
      </trkpt>
      <trkpt lat="43.14773761667311" lon="-6.999068269506097">
        <ele>946</ele>
        <time>2017-08-08T10:48:13.000Z</time>
      </trkpt>
      <trkpt lat="43.1477349344641" lon="-6.999079836532474">
        <ele>945.8</ele>
        <time>2017-08-08T10:48:14.000Z</time>
      </trkpt>
      <trkpt lat="43.14771884121001" lon="-6.999151250347495">
        <ele>945.2</ele>
        <time>2017-08-08T10:48:20.000Z</time>
      </trkpt>
      <trkpt lat="43.147712806239724" lon="-6.999186957255006">
        <ele>945</ele>
        <time>2017-08-08T10:48:23.000Z</time>
      </trkpt>
      <trkpt lat="43.14771129749715" lon="-6.999304303899407">
        <ele>944.2</ele>
        <time>2017-08-08T10:48:30.000Z</time>
      </trkpt>
      <trkpt lat="43.14773904159665" lon="-6.999431541189551">
        <ele>943.6</ele>
        <time>2017-08-08T10:48:37.000Z</time>
      </trkpt>
      <trkpt lat="43.14779075793922" lon="-6.999549139291048">
        <ele>943.2</ele>
        <time>2017-08-08T10:48:45.000Z</time>
      </trkpt>
      <trkpt lat="43.147856974974275" lon="-6.999674281105399">
        <ele>943</ele>
        <time>2017-08-08T10:48:54.000Z</time>
      </trkpt>
      <trkpt lat="43.14793920144439" lon="-6.999826580286026">
        <ele>943.2</ele>
        <time>2017-08-08T10:49:05.000Z</time>
      </trkpt>
      <trkpt lat="43.14799502491951" lon="-6.9999145064502954">
        <ele>943.2</ele>
        <time>2017-08-08T10:49:14.000Z</time>
      </trkpt>
      <trkpt lat="43.14799351617694" lon="-6.999930767342448">
        <ele>943.2</ele>
        <time>2017-08-08T10:49:16.000Z</time>
      </trkpt>
      <trkpt lat="43.14800131134689" lon="-6.999961277469993">
        <ele>943</ele>
        <time>2017-08-08T10:49:18.000Z</time>
      </trkpt>
      <trkpt lat="43.14801740460098" lon="-6.999987345188856">
        <ele>943</ele>
        <time>2017-08-08T10:49:20.000Z</time>
      </trkpt>
      <trkpt lat="43.14805470407009" lon="-7.000056495890021">
        <ele>943</ele>
        <time>2017-08-08T10:49:25.000Z</time>
      </trkpt>
      <trkpt lat="43.14812242984772" lon="-7.000191695988178">
        <ele>942.6</ele>
        <time>2017-08-08T10:49:35.000Z</time>
      </trkpt>
      <trkpt lat="43.148167273029685" lon="-7.0002861600369215">
        <ele>943</ele>
        <time>2017-08-08T10:49:42.000Z</time>
      </trkpt>
      <trkpt lat="43.14821572043002" lon="-7.000402333214879">
        <ele>943.4</ele>
        <time>2017-08-08T10:49:50.000Z</time>
      </trkpt>
      <trkpt lat="43.14825251698494" lon="-7.000569133087993">
        <ele>943.8</ele>
        <time>2017-08-08T10:50:00.000Z</time>
      </trkpt>
      <trkpt lat="43.14828168600798" lon="-7.000773902982473">
        <ele>943.8</ele>
        <time>2017-08-08T10:50:12.000Z</time>
      </trkpt>
      <trkpt lat="43.148295851424336" lon="-7.000910947099328">
        <ele>944</ele>
        <time>2017-08-08T10:50:20.000Z</time>
      </trkpt>
      <trkpt lat="43.14830297604203" lon="-7.00104346498847">
        <ele>944.4</ele>
        <time>2017-08-08T10:50:28.000Z</time>
      </trkpt>
      <trkpt lat="43.14829551614821" lon="-7.0010883919894695">
        <ele>944.4</ele>
        <time>2017-08-08T10:50:31.000Z</time>
      </trkpt>
      <trkpt lat="43.14830641262233" lon="-7.001140359789133">
        <ele>944.6</ele>
        <time>2017-08-08T10:50:34.000Z</time>
      </trkpt>
      <trkpt lat="43.1483322288841" lon="-7.001257203519344">
        <ele>945.4</ele>
        <time>2017-08-08T10:50:42.000Z</time>
      </trkpt>
      <trkpt lat="43.14834044314921" lon="-7.0012671779841185">
        <ele>945.6</ele>
        <time>2017-08-08T10:50:43.000Z</time>
      </trkpt>
      <trkpt lat="43.148371456190944" lon="-7.001334484666586">
        <ele>946.2</ele>
        <time>2017-08-08T10:50:48.000Z</time>
      </trkpt>
      <trkpt lat="43.14842308871448" lon="-7.001440096646547">
        <ele>947.4</ele>
        <time>2017-08-08T10:50:57.000Z</time>
      </trkpt>
      <trkpt lat="43.1484548561275" lon="-7.0015322137624025">
        <ele>948</ele>
        <time>2017-08-08T10:51:04.000Z</time>
      </trkpt>
      <trkpt lat="43.14844278618693" lon="-7.00165375135839">
        <ele>947.8</ele>
        <time>2017-08-08T10:51:12.000Z</time>
      </trkpt>
      <trkpt lat="43.14842786639929" lon="-7.0017769653350115">
        <ele>947.4</ele>
        <time>2017-08-08T10:51:20.000Z</time>
      </trkpt>
      <trkpt lat="43.14844127744436" lon="-7.001902442425489">
        <ele>947.2</ele>
        <time>2017-08-08T10:51:28.000Z</time>
      </trkpt>
      <trkpt lat="43.14847631379962" lon="-7.002061111852527">
        <ele>947.2</ele>
        <time>2017-08-08T10:51:38.000Z</time>
      </trkpt>
      <trkpt lat="43.14851822331548" lon="-7.0022196136415005">
        <ele>947</ele>
        <time>2017-08-08T10:51:48.000Z</time>
      </trkpt>
      <trkpt lat="43.148553343489766" lon="-7.00233394280076">
        <ele>947</ele>
        <time>2017-08-08T10:51:55.000Z</time>
      </trkpt>
      <trkpt lat="43.14862207509577" lon="-7.002477273344994">
        <ele>946.4</ele>
        <time>2017-08-08T10:52:05.000Z</time>
      </trkpt>
      <trkpt lat="43.14868644811213" lon="-7.002593195065856">
        <ele>945.6</ele>
        <time>2017-08-08T10:52:14.000Z</time>
      </trkpt>
      <trkpt lat="43.1487587839365" lon="-7.00270869769156">
        <ele>945</ele>
        <time>2017-08-08T10:52:23.000Z</time>
      </trkpt>
      <trkpt lat="43.1488296110183" lon="-7.002797042950988">
        <ele>944.6</ele>
        <time>2017-08-08T10:52:31.000Z</time>
      </trkpt>
      <trkpt lat="43.14889155328274" lon="-7.002874156460166">
        <ele>944.6</ele>
        <time>2017-08-08T10:52:39.000Z</time>
      </trkpt>
      <trkpt lat="43.1488988455385" lon="-7.002885304391384">
        <ele>944.8</ele>
        <time>2017-08-08T10:52:50.000Z</time>
      </trkpt>
      <trkpt lat="43.148907478898764" lon="-7.002882203087211">
        <ele>944.8</ele>
        <time>2017-08-08T10:52:56.000Z</time>
      </trkpt>
      <trkpt lat="43.148934887722135" lon="-7.002918245270848">
        <ele>945</ele>
        <time>2017-08-08T10:53:06.000Z</time>
      </trkpt>
      <trkpt lat="43.14894394017756" lon="-7.002942804247141">
        <ele>945</ele>
        <time>2017-08-08T10:53:08.000Z</time>
      </trkpt>
      <trkpt lat="43.14894385635853" lon="-7.002947414293885">
        <ele>945</ele>
        <time>2017-08-08T10:53:12.000Z</time>
      </trkpt>
      <trkpt lat="43.14894360490143" lon="-7.002914557233453">
        <ele>945</ele>
        <time>2017-08-08T10:53:45.000Z</time>
      </trkpt>
      <trkpt lat="43.14898367039859" lon="-7.00295252725482">
        <ele>945.2</ele>
        <time>2017-08-08T10:54:06.000Z</time>
      </trkpt>
      <trkpt lat="43.14896455965936" lon="-7.003011619672179">
        <ele>944.8</ele>
        <time>2017-08-08T10:54:12.000Z</time>
      </trkpt>
      <trkpt lat="43.148939246311784" lon="-7.003024527803063">
        <ele>944.6</ele>
        <time>2017-08-08T10:54:14.000Z</time>
      </trkpt>
      <trkpt lat="43.14892541617155" lon="-7.0030212588608265">
        <ele>944.4</ele>
        <time>2017-08-08T10:54:16.000Z</time>
      </trkpt>
      <trkpt lat="43.14893329516053" lon="-7.003028551116586">
        <ele>944.6</ele>
        <time>2017-08-08T10:54:26.000Z</time>
      </trkpt>
      <trkpt lat="43.14892156049609" lon="-7.003025282174349">
        <ele>944.4</ele>
        <time>2017-08-08T10:54:31.000Z</time>
      </trkpt>
      <trkpt lat="43.14892591908574" lon="-7.0030356757342815">
        <ele>944.4</ele>
        <time>2017-08-08T10:54:39.000Z</time>
      </trkpt>
      <trkpt lat="43.14893262460828" lon="-7.0030465722084045">
        <ele>944.4</ele>
        <time>2017-08-08T10:54:49.000Z</time>
      </trkpt>
      <trkpt lat="43.14897260628641" lon="-7.003024108707905">
        <ele>945</ele>
        <time>2017-08-08T10:55:03.000Z</time>
      </trkpt>
      <trkpt lat="43.148996997624636" lon="-7.002998543903232">
        <ele>945.2</ele>
        <time>2017-08-08T10:55:06.000Z</time>
      </trkpt>
      <trkpt lat="43.14901979640126" lon="-7.002935092896223">
        <ele>945.6</ele>
        <time>2017-08-08T10:55:13.000Z</time>
      </trkpt>
      <trkpt lat="43.149014096707106" lon="-7.00292176567018">
        <ele>945.6</ele>
        <time>2017-08-08T10:55:23.000Z</time>
      </trkpt>
      <trkpt lat="43.14897269010544" lon="-7.002888070419431">
        <ele>945.4</ele>
        <time>2017-08-08T10:55:42.000Z</time>
      </trkpt>
      <trkpt lat="43.148965230211616" lon="-7.002863930538297">
        <ele>945.4</ele>
        <time>2017-08-08T10:56:05.000Z</time>
      </trkpt>
      <trkpt lat="43.14895609393716" lon="-7.002832666039467">
        <ele>945.4</ele>
        <time>2017-08-08T10:56:11.000Z</time>
      </trkpt>
      <trkpt lat="43.14892642199993" lon="-7.002862673252821">
        <ele>945</ele>
        <time>2017-08-08T10:59:27.000Z</time>
      </trkpt>
      <trkpt lat="43.14894184470177" lon="-7.002864768728614">
        <ele>945.2</ele>
        <time>2017-08-08T11:00:33.000Z</time>
      </trkpt>
      <trkpt lat="43.148950394243" lon="-7.002845657989383">
        <ele>945.4</ele>
        <time>2017-08-08T11:01:47.000Z</time>
      </trkpt>
      <trkpt lat="43.14891527406871" lon="-7.002853453159332">
        <ele>945</ele>
        <time>2017-08-08T11:03:52.000Z</time>
      </trkpt>
      <trkpt lat="43.14895433373749" lon="-7.0028464961797">
        <ele>945.4</ele>
        <time>2017-08-08T11:08:32.000Z</time>
      </trkpt>
      <trkpt lat="43.14894704148173" lon="-7.002856889739633">
        <ele>945.2</ele>
        <time>2017-08-08T11:08:53.000Z</time>
      </trkpt>
      <trkpt lat="43.14894184470177" lon="-7.002854039892554">
        <ele>945.2</ele>
        <time>2017-08-08T11:14:09.000Z</time>
      </trkpt>
      <trkpt lat="43.14892885275185" lon="-7.002872647717595">
        <ele>945</ele>
        <time>2017-08-08T11:14:19.000Z</time>
      </trkpt>
      <trkpt lat="43.14893547445536" lon="-7.002880945801735">
        <ele>945</ele>
        <time>2017-08-08T11:14:27.000Z</time>
      </trkpt>
      <trkpt lat="43.14893807284534" lon="-7.002876168116927">
        <ele>945.2</ele>
        <time>2017-08-08T11:14:33.000Z</time>
      </trkpt>
      <trkpt lat="43.14898702315986" lon="-7.002960490062833">
        <ele>945.2</ele>
        <time>2017-08-08T11:15:09.000Z</time>
      </trkpt>
      <trkpt lat="43.14904427155852" lon="-7.003136929124594">
        <ele>945.2</ele>
        <time>2017-08-08T11:15:21.000Z</time>
      </trkpt>
      <trkpt lat="43.14908710308373" lon="-7.003281684592366">
        <ele>945</ele>
        <time>2017-08-08T11:15:31.000Z</time>
      </trkpt>
      <trkpt lat="43.14914443530142" lon="-7.003440773114562">
        <ele>945</ele>
        <time>2017-08-08T11:15:42.000Z</time>
      </trkpt>
      <trkpt lat="43.14919707365334" lon="-7.003601035103202">
        <ele>945.2</ele>
        <time>2017-08-08T11:15:53.000Z</time>
      </trkpt>
      <trkpt lat="43.149257842451334" lon="-7.003771020099521">
        <ele>945.6</ele>
        <time>2017-08-08T11:16:04.000Z</time>
      </trkpt>
      <trkpt lat="43.1492751929909" lon="-7.003814019262791">
        <ele>945.6</ele>
        <time>2017-08-08T11:16:07.000Z</time>
      </trkpt>
      <trkpt lat="43.149306792765856" lon="-7.003906639292836">
        <ele>945.4</ele>
        <time>2017-08-08T11:16:13.000Z</time>
      </trkpt>
      <trkpt lat="43.14936839975417" lon="-7.004065979272127">
        <ele>945</ele>
        <time>2017-08-08T11:16:24.000Z</time>
      </trkpt>
      <trkpt lat="43.1494184397161" lon="-7.004220290109515">
        <ele>945.4</ele>
        <time>2017-08-08T11:16:34.000Z</time>
      </trkpt>
      <trkpt lat="43.149470994248986" lon="-7.004352640360594">
        <ele>945.6</ele>
        <time>2017-08-08T11:16:43.000Z</time>
      </trkpt>
      <trkpt lat="43.14949966035783" lon="-7.004423048347235">
        <ele>945.8</ele>
        <time>2017-08-08T11:16:48.000Z</time>
      </trkpt>
      <trkpt lat="43.14951332286" lon="-7.0044702384620905">
        <ele>946</ele>
        <time>2017-08-08T11:16:51.000Z</time>
      </trkpt>
      <trkpt lat="43.14954752102494" lon="-7.004652796313167">
        <ele>946.4</ele>
        <time>2017-08-08T11:17:03.000Z</time>
      </trkpt>
      <trkpt lat="43.149538384750485" lon="-7.0047609228640795">
        <ele>946.6</ele>
        <time>2017-08-08T11:17:10.000Z</time>
      </trkpt>
      <trkpt lat="43.14952773973346" lon="-7.004926549270749">
        <ele>947</ele>
        <time>2017-08-08T11:17:20.000Z</time>
      </trkpt>
      <trkpt lat="43.149518854916096" lon="-7.005037944763899">
        <ele>947.2</ele>
        <time>2017-08-08T11:17:27.000Z</time>
      </trkpt>
      <trkpt lat="43.149505108594894" lon="-7.005171719938517">
        <ele>947.4</ele>
        <time>2017-08-08T11:17:35.000Z</time>
      </trkpt>
      <trkpt lat="43.149490440264344" lon="-7.005322678014636">
        <ele>947.4</ele>
        <time>2017-08-08T11:17:44.000Z</time>
      </trkpt>
      <trkpt lat="43.149487087503076" lon="-7.005385626107454">
        <ele>947.6</ele>
        <time>2017-08-08T11:17:48.000Z</time>
      </trkpt>
      <trkpt lat="43.14948541112244" lon="-7.005431978031993">
        <ele>947.6</ele>
        <time>2017-08-08T11:17:51.000Z</time>
      </trkpt>
      <trkpt lat="43.149476861581206" lon="-7.005565837025642">
        <ele>947.8</ele>
        <time>2017-08-08T11:17:59.000Z</time>
      </trkpt>
      <trkpt lat="43.149472922086716" lon="-7.005596933886409">
        <ele>948</ele>
        <time>2017-08-08T11:18:01.000Z</time>
      </trkpt>
      <trkpt lat="43.14946202561259" lon="-7.0056520868092775">
        <ele>948.2</ele>
        <time>2017-08-08T11:18:05.000Z</time>
      </trkpt>
      <trkpt lat="43.14945858903229" lon="-7.005664575845003">
        <ele>948.2</ele>
        <time>2017-08-08T11:18:07.000Z</time>
      </trkpt>
      <trkpt lat="43.14945012331009" lon="-7.0057053957134485">
        <ele>948.4</ele>
        <time>2017-08-08T11:18:10.000Z</time>
      </trkpt>
      <trkpt lat="43.14944542944431" lon="-7.005715202540159">
        <ele>948.4</ele>
        <time>2017-08-08T11:18:11.000Z</time>
      </trkpt>
      <trkpt lat="43.14943495206535" lon="-7.005763398483396">
        <ele>948.6</ele>
        <time>2017-08-08T11:18:15.000Z</time>
      </trkpt>
      <trkpt lat="43.14943176694214" lon="-7.00577680952847">
        <ele>948.8</ele>
        <time>2017-08-08T11:18:16.000Z</time>
      </trkpt>
      <trkpt lat="43.14941483549774" lon="-7.005840931087732">
        <ele>949.2</ele>
        <time>2017-08-08T11:18:20.000Z</time>
      </trkpt>
      <trkpt lat="43.1494062859565" lon="-7.005870854482055">
        <ele>949.4</ele>
        <time>2017-08-08T11:18:22.000Z</time>
      </trkpt>
      <trkpt lat="43.14936127513647" lon="-7.006031535565853">
        <ele>950.4</ele>
        <time>2017-08-08T11:18:32.000Z</time>
      </trkpt>
      <trkpt lat="43.14932565204799" lon="-7.00616430491209">
        <ele>951.2</ele>
        <time>2017-08-08T11:18:40.000Z</time>
      </trkpt>
      <trkpt lat="43.14928349107504" lon="-7.006318783387542">
        <ele>952.2</ele>
        <time>2017-08-08T11:18:49.000Z</time>
      </trkpt>
      <trkpt lat="43.149218279868364" lon="-7.006475776433945">
        <ele>952.6</ele>
        <time>2017-08-08T11:18:59.000Z</time>
      </trkpt>
      <trkpt lat="43.149211993440986" lon="-7.006490780040622">
        <ele>952.6</ele>
        <time>2017-08-08T11:19:00.000Z</time>
      </trkpt>
      <trkpt lat="43.14917704090476" lon="-7.006589183583856">
        <ele>952.8</ele>
        <time>2017-08-08T11:19:06.000Z</time>
      </trkpt>
      <trkpt lat="43.14915650524199" lon="-7.006641905754805">
        <ele>953.2</ele>
        <time>2017-08-08T11:19:12.000Z</time>
      </trkpt>
      <trkpt lat="43.14912918023765" lon="-7.006698064506054">
        <ele>953.4</ele>
        <time>2017-08-08T11:19:20.000Z</time>
      </trkpt>
      <trkpt lat="43.149077547714114" lon="-7.006805436685681">
        <ele>954</ele>
        <time>2017-08-08T11:19:28.000Z</time>
      </trkpt>
      <trkpt lat="43.14902298152447" lon="-7.006912641227245">
        <ele>954.6</ele>
        <time>2017-08-08T11:19:36.000Z</time>
      </trkpt>
      <trkpt lat="43.1489625480026" lon="-7.007024539634585">
        <ele>955</ele>
        <time>2017-08-08T11:19:44.000Z</time>
      </trkpt>
      <trkpt lat="43.14891225658357" lon="-7.007114225998521">
        <ele>955.4</ele>
        <time>2017-08-08T11:19:51.000Z</time>
      </trkpt>
      <trkpt lat="43.148868922144175" lon="-7.0071973744779825">
        <ele>955.8</ele>
        <time>2017-08-08T11:19:58.000Z</time>
      </trkpt>
      <trkpt lat="43.148814691230655" lon="-7.00728228315711">
        <ele>956</ele>
        <time>2017-08-08T11:20:06.000Z</time>
      </trkpt>
      <trkpt lat="43.14878091216087" lon="-7.007330562919378">
        <ele>956.2</ele>
        <time>2017-08-08T11:20:11.000Z</time>
      </trkpt>
      <trkpt lat="43.14876917749643" lon="-7.007348667830229">
        <ele>956.2</ele>
        <time>2017-08-08T11:20:13.000Z</time>
      </trkpt>
      <trkpt lat="43.14872710034251" lon="-7.007417315617204">
        <ele>956.4</ele>
        <time>2017-08-08T11:20:18.000Z</time>
      </trkpt>
      <trkpt lat="43.14867756329477" lon="-7.0074966084212065">
        <ele>956.8</ele>
        <time>2017-08-08T11:20:25.000Z</time>
      </trkpt>
      <trkpt lat="43.148672953248024" lon="-7.007505912333727">
        <ele>956.8</ele>
        <time>2017-08-08T11:20:26.000Z</time>
      </trkpt>
      <trkpt lat="43.148639341816306" lon="-7.007552431896329">
        <ele>957</ele>
        <time>2017-08-08T11:20:30.000Z</time>
      </trkpt>
      <trkpt lat="43.1486189737916" lon="-7.007586797699332">
        <ele>957.2</ele>
        <time>2017-08-08T11:20:33.000Z</time>
      </trkpt>
      <trkpt lat="43.148589888587594" lon="-7.007623929530382">
        <ele>957.2</ele>
        <time>2017-08-08T11:20:36.000Z</time>
      </trkpt>
      <trkpt lat="43.14857102930546" lon="-7.007646560668945">
        <ele>957.4</ele>
        <time>2017-08-08T11:20:38.000Z</time>
      </trkpt>
      <trkpt lat="43.14855401404202" lon="-7.00768101029098">
        <ele>957.6</ele>
        <time>2017-08-08T11:20:41.000Z</time>
      </trkpt>
      <trkpt lat="43.14850430935621" lon="-7.007769774645567">
        <ele>958</ele>
        <time>2017-08-08T11:20:47.000Z</time>
      </trkpt>
      <trkpt lat="43.1484841927886" lon="-7.007804475724697">
        <ele>958.2</ele>
        <time>2017-08-08T11:20:50.000Z</time>
      </trkpt>
      <trkpt lat="43.148451587185264" lon="-7.007853928953409">
        <ele>958.4</ele>
        <time>2017-08-08T11:20:53.000Z</time>
      </trkpt>
      <trkpt lat="43.14841319806874" lon="-7.007911596447229">
        <ele>958.8</ele>
        <time>2017-08-08T11:20:57.000Z</time>
      </trkpt>
      <trkpt lat="43.14840515144169" lon="-7.007922576740384">
        <ele>958.8</ele>
        <time>2017-08-08T11:20:58.000Z</time>
      </trkpt>
      <trkpt lat="43.148351926356554" lon="-7.007996421307325">
        <ele>959.4</ele>
        <time>2017-08-08T11:21:04.000Z</time>
      </trkpt>
      <trkpt lat="43.14833918586373" lon="-7.008007736876607">
        <ele>959.4</ele>
        <time>2017-08-08T11:21:05.000Z</time>
      </trkpt>
      <trkpt lat="43.14829509705305" lon="-7.008069595322013">
        <ele>959.8</ele>
        <time>2017-08-08T11:21:09.000Z</time>
      </trkpt>
      <trkpt lat="43.14822804182768" lon="-7.008166071027517">
        <ele>960.4</ele>
        <time>2017-08-08T11:21:16.000Z</time>
      </trkpt>
      <trkpt lat="43.14812645316124" lon="-7.008262295275927">
        <ele>960.8</ele>
        <time>2017-08-08T11:21:25.000Z</time>
      </trkpt>
      <trkpt lat="43.14803768880665" lon="-7.008321052417159">
        <ele>960.8</ele>
        <time>2017-08-08T11:21:32.000Z</time>
      </trkpt>
      <trkpt lat="43.14792922697961" lon="-7.00838509015739">
        <ele>960.6</ele>
        <time>2017-08-08T11:21:40.000Z</time>
      </trkpt>
      <trkpt lat="43.14780198968947" lon="-7.008471004664898">
        <ele>960.6</ele>
        <time>2017-08-08T11:21:50.000Z</time>
      </trkpt>
      <trkpt lat="43.14770442433655" lon="-7.008574437350035">
        <ele>960.8</ele>
        <time>2017-08-08T11:21:59.000Z</time>
      </trkpt>
      <trkpt lat="43.147646840661764" lon="-7.008651299402118">
        <ele>961.2</ele>
        <time>2017-08-08T11:22:05.000Z</time>
      </trkpt>
      <trkpt lat="43.14758791588247" lon="-7.008720701560378">
        <ele>961.2</ele>
        <time>2017-08-08T11:22:11.000Z</time>
      </trkpt>
      <trkpt lat="43.14751365222037" lon="-7.008814914152026">
        <ele>960.8</ele>
        <time>2017-08-08T11:22:19.000Z</time>
      </trkpt>
      <trkpt lat="43.14743662253022" lon="-7.008912730962038">
        <ele>960.4</ele>
        <time>2017-08-08T11:22:27.000Z</time>
      </trkpt>
      <trkpt lat="43.147366466000676" lon="-7.009004345163703">
        <ele>960.2</ele>
        <time>2017-08-08T11:22:35.000Z</time>
      </trkpt>
      <trkpt lat="43.14729924313724" lon="-7.009094282984734">
        <ele>959.8</ele>
        <time>2017-08-08T11:22:43.000Z</time>
      </trkpt>
      <trkpt lat="43.147231601178646" lon="-7.00918497517705">
        <ele>959.2</ele>
        <time>2017-08-08T11:22:51.000Z</time>
      </trkpt>
      <trkpt lat="43.14717024564743" lon="-7.009291257709265">
        <ele>958.6</ele>
        <time>2017-08-08T11:22:59.000Z</time>
      </trkpt>
      <trkpt lat="43.147123139351606" lon="-7.009394858032465">
        <ele>958.4</ele>
        <time>2017-08-08T11:23:06.000Z</time>
      </trkpt>
      <trkpt lat="43.14707351848483" lon="-7.009536428377032">
        <ele>958.2</ele>
        <time>2017-08-08T11:23:15.000Z</time>
      </trkpt>
      <trkpt lat="43.147040996700525" lon="-7.009655199944973">
        <ele>958.2</ele>
        <time>2017-08-08T11:23:22.000Z</time>
      </trkpt>
      <trkpt lat="43.14700621180236" lon="-7.009792914614081">
        <ele>959</ele>
        <time>2017-08-08T11:23:30.000Z</time>
      </trkpt>
      <trkpt lat="43.14697184599936" lon="-7.0099130272865295">
        <ele>959.4</ele>
        <time>2017-08-08T11:23:37.000Z</time>
      </trkpt>
      <trkpt lat="43.14693379215896" lon="-7.010001707822084">
        <ele>959.4</ele>
        <time>2017-08-08T11:23:43.000Z</time>
      </trkpt>
      <trkpt lat="43.14688978716731" lon="-7.010102290660143">
        <ele>959.4</ele>
        <time>2017-08-08T11:23:50.000Z</time>
      </trkpt>
      <trkpt lat="43.14687620848417" lon="-7.010130537673831">
        <ele>959.4</ele>
        <time>2017-08-08T11:23:52.000Z</time>
      </trkpt>
      <trkpt lat="43.1468591094017" lon="-7.010175883769989">
        <ele>959.4</ele>
        <time>2017-08-08T11:23:55.000Z</time>
      </trkpt>
      <trkpt lat="43.146813344210386" lon="-7.010278310626745">
        <ele>959.4</ele>
        <time>2017-08-08T11:24:02.000Z</time>
      </trkpt>
      <trkpt lat="43.14677009359002" lon="-7.010377887636423">
        <ele>959.4</ele>
        <time>2017-08-08T11:24:09.000Z</time>
      </trkpt>
      <trkpt lat="43.146730698645115" lon="-7.0104412548244">
        <ele>959</ele>
        <time>2017-08-08T11:24:14.000Z</time>
      </trkpt>
      <trkpt lat="43.14672315493226" lon="-7.010454414412379">
        <ele>959</ele>
        <time>2017-08-08T11:24:15.000Z</time>
      </trkpt>
      <trkpt lat="43.14669029787183" lon="-7.010573353618383">
        <ele>959.4</ele>
        <time>2017-08-08T11:24:23.000Z</time>
      </trkpt>
      <trkpt lat="43.146658446639776" lon="-7.010684078559279">
        <ele>959.8</ele>
        <time>2017-08-08T11:24:30.000Z</time>
      </trkpt>
      <trkpt lat="43.14661963842809" lon="-7.010779213160276">
        <ele>959.8</ele>
        <time>2017-08-08T11:24:36.000Z</time>
      </trkpt>
      <trkpt lat="43.1465794891119" lon="-7.010887926444411">
        <ele>960.2</ele>
        <time>2017-08-08T11:24:43.000Z</time>
      </trkpt>
      <trkpt lat="43.14655316993594" lon="-7.010986246168613">
        <ele>960.6</ele>
        <time>2017-08-08T11:24:49.000Z</time>
      </trkpt>
      <trkpt lat="43.146510841324925" lon="-7.01114340685308">
        <ele>960.8</ele>
        <time>2017-08-08T11:24:58.000Z</time>
      </trkpt>
      <trkpt lat="43.14648703671992" lon="-7.011286988854408">
        <ele>961</ele>
        <time>2017-08-08T11:25:06.000Z</time>
      </trkpt>
      <trkpt lat="43.14647882245481" lon="-7.011425960808992">
        <ele>961.6</ele>
        <time>2017-08-08T11:25:14.000Z</time>
      </trkpt>
      <trkpt lat="43.14646122045815" lon="-7.011564513668418">
        <ele>962</ele>
        <time>2017-08-08T11:25:22.000Z</time>
      </trkpt>
      <trkpt lat="43.14644445665181" lon="-7.011690158396959">
        <ele>962.8</ele>
        <time>2017-08-08T11:25:29.000Z</time>
      </trkpt>
      <trkpt lat="43.14642903394997" lon="-7.0118064153939486">
        <ele>963.4</ele>
        <time>2017-08-08T11:25:36.000Z</time>
      </trkpt>
      <trkpt lat="43.14641587436199" lon="-7.0119342394173145">
        <ele>964.4</ele>
        <time>2017-08-08T11:25:44.000Z</time>
      </trkpt>
      <trkpt lat="43.146427776664495" lon="-7.012105146422982">
        <ele>963.8</ele>
        <time>2017-08-08T11:25:54.000Z</time>
      </trkpt>
      <trkpt lat="43.146456526592374" lon="-7.01221939176321">
        <ele>963.6</ele>
        <time>2017-08-08T11:26:01.000Z</time>
      </trkpt>
      <trkpt lat="43.146473625674844" lon="-7.012338330969214">
        <ele>963.2</ele>
        <time>2017-08-08T11:26:08.000Z</time>
      </trkpt>
      <trkpt lat="43.14650673419237" lon="-7.0124979224056005">
        <ele>962.4</ele>
        <time>2017-08-08T11:26:17.000Z</time>
      </trkpt>
      <trkpt lat="43.14653942361474" lon="-7.012621220201254">
        <ele>961.4</ele>
        <time>2017-08-08T11:26:25.000Z</time>
      </trkpt>
      <trkpt lat="43.14660530537367" lon="-7.012761700898409">
        <ele>960.6</ele>
        <time>2017-08-08T11:26:34.000Z</time>
      </trkpt>
      <trkpt lat="43.14666171558201" lon="-7.012831522151828">
        <ele>960.2</ele>
        <time>2017-08-08T11:26:39.000Z</time>
      </trkpt>
      <trkpt lat="43.14671720378101" lon="-7.012931602075696">
        <ele>959.4</ele>
        <time>2017-08-08T11:26:46.000Z</time>
      </trkpt>
      <trkpt lat="43.14676992595196" lon="-7.0130489487200975">
        <ele>958.6</ele>
        <time>2017-08-08T11:26:54.000Z</time>
      </trkpt>
      <trkpt lat="43.146823989227414" lon="-7.013171408325434">
        <ele>958</ele>
        <time>2017-08-08T11:27:03.000Z</time>
      </trkpt>
      <trkpt lat="43.14687394537032" lon="-7.013285486027598">
        <ele>956.8</ele>
        <time>2017-08-08T11:27:11.000Z</time>
      </trkpt>
      <trkpt lat="43.146937815472484" lon="-7.013412890955806">
        <ele>954.4</ele>
        <time>2017-08-08T11:27:20.000Z</time>
      </trkpt>
      <trkpt lat="43.14700411632657" lon="-7.0135304890573025">
        <ele>952.4</ele>
        <time>2017-08-08T11:27:28.000Z</time>
      </trkpt>
      <trkpt lat="43.14706413075328" lon="-7.013649009168148">
        <ele>950.4</ele>
        <time>2017-08-08T11:27:36.000Z</time>
      </trkpt>
      <trkpt lat="43.14711886458099" lon="-7.013723524287343">
        <ele>949.2</ele>
        <time>2017-08-08T11:27:42.000Z</time>
      </trkpt>
      <trkpt lat="43.147129006683826" lon="-7.01373316347599">
        <ele>949</ele>
        <time>2017-08-08T11:27:43.000Z</time>
      </trkpt>
      <trkpt lat="43.14722103998065" lon="-7.013850091025233">
        <ele>947.2</ele>
        <time>2017-08-08T11:27:53.000Z</time>
      </trkpt>
      <trkpt lat="43.14729329198599" lon="-7.013941453769803">
        <ele>945.6</ele>
        <time>2017-08-08T11:28:01.000Z</time>
      </trkpt>
      <trkpt lat="43.14735439606011" lon="-7.014029128476977">
        <ele>944.2</ele>
        <time>2017-08-08T11:28:08.000Z</time>
      </trkpt>
      <trkpt lat="43.14738096669316" lon="-7.01406785286963">
        <ele>943.6</ele>
        <time>2017-08-08T11:28:11.000Z</time>
      </trkpt>
      <trkpt lat="43.14742279238999" lon="-7.01412602327764">
        <ele>942.4</ele>
        <time>2017-08-08T11:28:16.000Z</time>
      </trkpt>
      <trkpt lat="43.14749026671052" lon="-7.014221325516701">
        <ele>940.4</ele>
        <time>2017-08-08T11:28:24.000Z</time>
      </trkpt>
      <trkpt lat="43.14756260253489" lon="-7.014318974688649">
        <ele>939.8</ele>
        <time>2017-08-08T11:28:32.000Z</time>
      </trkpt>
      <trkpt lat="43.14764315262437" lon="-7.014429280534387">
        <ele>939</ele>
        <time>2017-08-08T11:28:41.000Z</time>
      </trkpt>
      <trkpt lat="43.14769193530083" lon="-7.014491558074951">
        <ele>938.6</ele>
        <time>2017-08-08T11:28:47.000Z</time>
      </trkpt>
      <trkpt lat="43.147694282233715" lon="-7.01448954641819">
        <ele>938.6</ele>
        <time>2017-08-08T11:28:49.000Z</time>
      </trkpt>
      <trkpt lat="43.147739293053746" lon="-7.014542855322361">
        <ele>938.2</ele>
        <time>2017-08-08T11:29:27.000Z</time>
      </trkpt>
      <trkpt lat="43.14779553562403" lon="-7.01462390832603">
        <ele>937.6</ele>
        <time>2017-08-08T11:29:35.000Z</time>
      </trkpt>
      <trkpt lat="43.147849598899484" lon="-7.014714935794473">
        <ele>936.6</ele>
        <time>2017-08-08T11:29:43.000Z</time>
      </trkpt>
      <trkpt lat="43.147905338555574" lon="-7.014833288267255">
        <ele>935</ele>
        <time>2017-08-08T11:29:52.000Z</time>
      </trkpt>
      <trkpt lat="43.14796510152519" lon="-7.015003440901637">
        <ele>933</ele>
        <time>2017-08-08T11:30:03.000Z</time>
      </trkpt>
      <trkpt lat="43.148016817867756" lon="-7.015159511938691">
        <ele>931.6</ele>
        <time>2017-08-08T11:30:13.000Z</time>
      </trkpt>
      <trkpt lat="43.14807331189513" lon="-7.015333939343691">
        <ele>930</ele>
        <time>2017-08-08T11:30:24.000Z</time>
      </trkpt>
      <trkpt lat="43.14812310039997" lon="-7.015472911298275">
        <ele>929</ele>
        <time>2017-08-08T11:30:33.000Z</time>
      </trkpt>
      <trkpt lat="43.14817372709513" lon="-7.015589335933328">
        <ele>928.2</ele>
        <time>2017-08-08T11:30:41.000Z</time>
      </trkpt>
      <trkpt lat="43.148239525035024" lon="-7.015732498839498">
        <ele>927.2</ele>
        <time>2017-08-08T11:30:51.000Z</time>
      </trkpt>
      <trkpt lat="43.14828671514988" lon="-7.015820760279894">
        <ele>927.2</ele>
        <time>2017-08-08T11:30:58.000Z</time>
      </trkpt>
      <trkpt lat="43.14833960495889" lon="-7.015936765819788">
        <ele>927</ele>
        <time>2017-08-08T11:31:06.000Z</time>
      </trkpt>
      <trkpt lat="43.14840707927942" lon="-7.0160803478211164">
        <ele>926.4</ele>
        <time>2017-08-08T11:31:16.000Z</time>
      </trkpt>
      <trkpt lat="43.14847002737224" lon="-7.016208088025451">
        <ele>925.8</ele>
        <time>2017-08-08T11:31:25.000Z</time>
      </trkpt>
      <trkpt lat="43.14853339456022" lon="-7.016331218183041">
        <ele>925.2</ele>
        <time>2017-08-08T11:31:34.000Z</time>
      </trkpt>
      <trkpt lat="43.14858150668442" lon="-7.016426017507911">
        <ele>924.8</ele>
        <time>2017-08-08T11:31:42.000Z</time>
      </trkpt>
      <trkpt lat="43.14863992854953" lon="-7.016545124351978">
        <ele>924</ele>
        <time>2017-08-08T11:31:52.000Z</time>
      </trkpt>
      <trkpt lat="43.14867571927607" lon="-7.016614694148302">
        <ele>923.8</ele>
        <time>2017-08-08T11:31:59.000Z</time>
      </trkpt>
      <trkpt lat="43.148723328486085" lon="-7.016709577292204">
        <ele>923.6</ele>
        <time>2017-08-08T11:32:08.000Z</time>
      </trkpt>
      <trkpt lat="43.148746881634" lon="-7.016745787113905">
        <ele>923.6</ele>
        <time>2017-08-08T11:32:12.000Z</time>
      </trkpt>
      <trkpt lat="43.14875090494752" lon="-7.016750816255808">
        <ele>923.6</ele>
        <time>2017-08-08T11:32:15.000Z</time>
      </trkpt>
      <trkpt lat="43.148782420903444" lon="-7.016814351081848">
        <ele>923.4</ele>
        <time>2017-08-08T11:32:24.000Z</time>
      </trkpt>
      <trkpt lat="43.14884327352047" lon="-7.016925495117903">
        <ele>923.2</ele>
        <time>2017-08-08T11:32:33.000Z</time>
      </trkpt>
      <trkpt lat="43.14884880557656" lon="-7.016940750181675">
        <ele>923.2</ele>
        <time>2017-08-08T11:32:34.000Z</time>
      </trkpt>
      <trkpt lat="43.148882081732154" lon="-7.017000932246447">
        <ele>923.2</ele>
        <time>2017-08-08T11:32:39.000Z</time>
      </trkpt>
      <trkpt lat="43.148887529969215" lon="-7.017006631940603">
        <ele>923.2</ele>
        <time>2017-08-08T11:32:40.000Z</time>
      </trkpt>
      <trkpt lat="43.14889130182564" lon="-7.017007302492857">
        <ele>923.2</ele>
        <time>2017-08-08T11:32:44.000Z</time>
      </trkpt>
      <trkpt lat="43.14889851026237" lon="-7.01703580096364">
        <ele>923.2</ele>
        <time>2017-08-08T11:32:48.000Z</time>
      </trkpt>
      <trkpt lat="43.148908987641335" lon="-7.017059940844774">
        <ele>923.2</ele>
        <time>2017-08-08T11:32:50.000Z</time>
      </trkpt>
      <trkpt lat="43.148927092552185" lon="-7.017106460407376">
        <ele>923</ele>
        <time>2017-08-08T11:32:55.000Z</time>
      </trkpt>
      <trkpt lat="43.148982245475054" lon="-7.017232943326235">
        <ele>923</ele>
        <time>2017-08-08T11:33:04.000Z</time>
      </trkpt>
      <trkpt lat="43.14902348443866" lon="-7.017342243343592">
        <ele>923</ele>
        <time>2017-08-08T11:33:12.000Z</time>
      </trkpt>
      <trkpt lat="43.14906841143966" lon="-7.017463110387325">
        <ele>923</ele>
        <time>2017-08-08T11:33:21.000Z</time>
      </trkpt>
      <trkpt lat="43.14909439533949" lon="-7.017479874193668">
        <ele>923.2</ele>
        <time>2017-08-08T11:33:25.000Z</time>
      </trkpt>
      <trkpt lat="43.14911409281194" lon="-7.017476353794336">
        <ele>923.2</ele>
        <time>2017-08-08T11:33:27.000Z</time>
      </trkpt>
      <trkpt lat="43.14914929680526" lon="-7.017480377107859">
        <ele>923.4</ele>
        <time>2017-08-08T11:33:31.000Z</time>
      </trkpt>
      <trkpt lat="43.1491766218096" lon="-7.017505271360278">
        <ele>923.6</ele>
        <time>2017-08-08T11:33:34.000Z</time>
      </trkpt>
      <trkpt lat="43.14919757656753" lon="-7.017520274966955">
        <ele>923.6</ele>
        <time>2017-08-08T11:33:36.000Z</time>
      </trkpt>
      <trkpt lat="43.14922238700092" lon="-7.0175322610884905">
        <ele>923.6</ele>
        <time>2017-08-08T11:33:39.000Z</time>
      </trkpt>
      <trkpt lat="43.149244766682386" lon="-7.017541732639074">
        <ele>923.6</ele>
        <time>2017-08-08T11:33:41.000Z</time>
      </trkpt>
      <trkpt lat="43.149300841614604" lon="-7.017577439546585">
        <ele>923.6</ele>
        <time>2017-08-08T11:33:47.000Z</time>
      </trkpt>
      <trkpt lat="43.14936529844999" lon="-7.017692606896162">
        <ele>923</ele>
        <time>2017-08-08T11:33:56.000Z</time>
      </trkpt>
      <trkpt lat="43.14945029094815" lon="-7.017696127295494">
        <ele>922.8</ele>
        <time>2017-08-08T11:34:03.000Z</time>
      </trkpt>
      <trkpt lat="43.14954693429172" lon="-7.017629323527217">
        <ele>922.6</ele>
        <time>2017-08-08T11:34:12.000Z</time>
      </trkpt>
      <trkpt lat="43.149571577087045" lon="-7.017599232494831">
        <ele>922.6</ele>
        <time>2017-08-08T11:34:15.000Z</time>
      </trkpt>
      <trkpt lat="43.14961474388838" lon="-7.017588168382645">
        <ele>922.4</ele>
        <time>2017-08-08T11:34:19.000Z</time>
      </trkpt>
      <trkpt lat="43.149636536836624" lon="-7.017579535022378">
        <ele>922.4</ele>
        <time>2017-08-08T11:34:22.000Z</time>
      </trkpt>
      <trkpt lat="43.14965589903295" lon="-7.017574589699507">
        <ele>922.2</ele>
        <time>2017-08-08T11:34:25.000Z</time>
      </trkpt>
      <trkpt lat="43.14969101920724" lon="-7.017555898055434">
        <ele>922.2</ele>
        <time>2017-08-08T11:34:29.000Z</time>
      </trkpt>
      <trkpt lat="43.149687917903066" lon="-7.0175375416874886">
        <ele>922.2</ele>
        <time>2017-08-08T11:34:32.000Z</time>
      </trkpt>
      <trkpt lat="43.14968230202794" lon="-7.01747165992856">
        <ele>922.4</ele>
        <time>2017-08-08T11:34:37.000Z</time>
      </trkpt>
      <trkpt lat="43.14963050186634" lon="-7.017471073195338">
        <ele>922.6</ele>
        <time>2017-08-08T11:34:41.000Z</time>
      </trkpt>
      <trkpt lat="43.14963041804731" lon="-7.017493704333901">
        <ele>922.6</ele>
        <time>2017-08-08T11:34:43.000Z</time>
      </trkpt>
      <trkpt lat="43.149624885991216" lon="-7.017532596364617">
        <ele>922.4</ele>
        <time>2017-08-08T11:34:44.000Z</time>
      </trkpt>
      <trkpt lat="43.14962312579155" lon="-7.0175128150731325">
        <ele>922.6</ele>
        <time>2017-08-08T11:34:46.000Z</time>
      </trkpt>
      <trkpt lat="43.14961273223162" lon="-7.017538631334901">
        <ele>922.4</ele>
        <time>2017-08-08T11:34:50.000Z</time>
      </trkpt>
      <trkpt lat="43.14957710914314" lon="-7.017633682116866">
        <ele>922.4</ele>
        <time>2017-08-08T11:34:54.000Z</time>
      </trkpt>
      <trkpt lat="43.14955724403262" lon="-7.017659833654761">
        <ele>922.4</ele>
        <time>2017-08-08T11:34:55.000Z</time>
      </trkpt>
      <trkpt lat="43.14953469671309" lon="-7.017686907202005">
        <ele>922.4</ele>
        <time>2017-08-08T11:35:00.000Z</time>
      </trkpt>
      <trkpt lat="43.14952447079122" lon="-7.017673077061772">
        <ele>922.4</ele>
        <time>2017-08-08T11:35:04.000Z</time>
      </trkpt>
      <trkpt lat="43.14951994456351" lon="-7.017636867240071">
        <ele>922.6</ele>
        <time>2017-08-08T11:35:10.000Z</time>
      </trkpt>
      <trkpt lat="43.14949546940625" lon="-7.017632592469454">
        <ele>922.6</ele>
        <time>2017-08-08T11:35:15.000Z</time>
      </trkpt>
      <trkpt lat="43.14953662455082" lon="-7.017594370990992">
        <ele>922.6</ele>
        <time>2017-08-08T11:35:21.000Z</time>
      </trkpt>
      <trkpt lat="43.14954785630107" lon="-7.017604513093829">
        <ele>922.6</ele>
        <time>2017-08-08T11:35:23.000Z</time>
      </trkpt>
      <trkpt lat="43.14959001727402" lon="-7.017604010179639">
        <ele>922.4</ele>
        <time>2017-08-08T11:35:26.000Z</time>
      </trkpt>
      <trkpt lat="43.14961910247803" lon="-7.017546258866787">
        <ele>922.4</ele>
        <time>2017-08-08T11:35:30.000Z</time>
      </trkpt>
      <trkpt lat="43.149630753323436" lon="-7.017513569444418">
        <ele>922.4</ele>
        <time>2017-08-08T11:35:31.000Z</time>
      </trkpt>
      <trkpt lat="43.14964709803462" lon="-7.017511138692498">
        <ele>922.4</ele>
        <time>2017-08-08T11:35:34.000Z</time>
      </trkpt>
      <trkpt lat="43.14968674443662" lon="-7.017504936084151">
        <ele>922.4</ele>
        <time>2017-08-08T11:35:37.000Z</time>
      </trkpt>
      <trkpt lat="43.14971356652677" lon="-7.0174754317849874">
        <ele>922.2</ele>
        <time>2017-08-08T11:35:38.000Z</time>
      </trkpt>
      <trkpt lat="43.14977064728737" lon="-7.017396558076143">
        <ele>922.4</ele>
        <time>2017-08-08T11:35:42.000Z</time>
      </trkpt>
      <trkpt lat="43.149728989228606" lon="-7.017440814524889">
        <ele>922.4</ele>
        <time>2017-08-08T11:35:46.000Z</time>
      </trkpt>
      <trkpt lat="43.14897721633315" lon="-7.01810834929347">
        <ele>921.6</ele>
        <time>2017-08-08T12:08:02.000Z</time>
      </trkpt>
      <trkpt lat="43.14895508810878" lon="-7.018143804743886">
        <ele>921.4</ele>
        <time>2017-08-08T12:08:05.000Z</time>
      </trkpt>
      <trkpt lat="43.14893648028374" lon="-7.018226785585284">
        <ele>921.2</ele>
        <time>2017-08-08T12:08:11.000Z</time>
      </trkpt>
      <trkpt lat="43.14892533235252" lon="-7.018291996791959">
        <ele>921.2</ele>
        <time>2017-08-08T12:08:15.000Z</time>
      </trkpt>
      <trkpt lat="43.148920219391584" lon="-7.018338264897466">
        <ele>921.2</ele>
        <time>2017-08-08T12:08:18.000Z</time>
      </trkpt>
      <trkpt lat="43.14889205619693" lon="-7.018442116677761">
        <ele>921</ele>
        <time>2017-08-08T12:08:26.000Z</time>
      </trkpt>
      <trkpt lat="43.14888635650277" lon="-7.018447145819664">
        <ele>921</ele>
        <time>2017-08-08T12:08:28.000Z</time>
      </trkpt>
      <trkpt lat="43.148844949901104" lon="-7.018535742536187">
        <ele>921</ele>
        <time>2017-08-08T12:08:33.000Z</time>
      </trkpt>
      <trkpt lat="43.14880672842264" lon="-7.018631380051374">
        <ele>920.8</ele>
        <time>2017-08-08T12:08:40.000Z</time>
      </trkpt>
      <trkpt lat="43.14874914474785" lon="-7.0187685918062925">
        <ele>920.8</ele>
        <time>2017-08-08T12:08:50.000Z</time>
      </trkpt>
      <trkpt lat="43.14872550778091" lon="-7.018845118582249">
        <ele>920.8</ele>
        <time>2017-08-08T12:08:55.000Z</time>
      </trkpt>
      <trkpt lat="43.14871922135353" lon="-7.018874874338508">
        <ele>921</ele>
        <time>2017-08-08T12:08:57.000Z</time>
      </trkpt>
      <trkpt lat="43.148670522496104" lon="-7.018975289538503">
        <ele>921</ele>
        <time>2017-08-08T12:09:03.000Z</time>
      </trkpt>
      <trkpt lat="43.148662224411964" lon="-7.019001441076398">
        <ele>921</ele>
        <time>2017-08-08T12:09:04.000Z</time>
      </trkpt>
      <trkpt lat="43.14861620776355" lon="-7.019125996157527">
        <ele>921.2</ele>
        <time>2017-08-08T12:09:08.000Z</time>
      </trkpt>
      <trkpt lat="43.148556193336844" lon="-7.0192663092166185">
        <ele>921.4</ele>
        <time>2017-08-08T12:09:14.000Z</time>
      </trkpt>
      <trkpt lat="43.14851487055421" lon="-7.019378207623959">
        <ele>921.4</ele>
        <time>2017-08-08T12:09:21.000Z</time>
      </trkpt>
      <trkpt lat="43.148451168090105" lon="-7.019555484876037">
        <ele>921.8</ele>
        <time>2017-08-08T12:09:32.000Z</time>
      </trkpt>
      <trkpt lat="43.14840557053685" lon="-7.019685739651322">
        <ele>921.6</ele>
        <time>2017-08-08T12:09:40.000Z</time>
      </trkpt>
      <trkpt lat="43.14835963770747" lon="-7.0198132283985615">
        <ele>921.4</ele>
        <time>2017-08-08T12:09:48.000Z</time>
      </trkpt>
      <trkpt lat="43.148311860859394" lon="-7.0199338439852">
        <ele>921</ele>
        <time>2017-08-08T12:09:56.000Z</time>
      </trkpt>
      <trkpt lat="43.14826073125005" lon="-7.020073067396879">
        <ele>921.4</ele>
        <time>2017-08-08T12:10:05.000Z</time>
      </trkpt>
      <trkpt lat="43.148219492286444" lon="-7.02021723613143">
        <ele>922.2</ele>
        <time>2017-08-08T12:10:14.000Z</time>
      </trkpt>
      <trkpt lat="43.1481821089983" lon="-7.020365847274661">
        <ele>923</ele>
        <time>2017-08-08T12:10:23.000Z</time>
      </trkpt>
      <trkpt lat="43.148150173947215" lon="-7.020502639934421">
        <ele>923.8</ele>
        <time>2017-08-08T12:10:32.000Z</time>
      </trkpt>
      <trkpt lat="43.14811178483069" lon="-7.020640438422561">
        <ele>924.4</ele>
        <time>2017-08-08T12:10:41.000Z</time>
      </trkpt>
      <trkpt lat="43.148060319945216" lon="-7.020779075101018">
        <ele>924.8</ele>
        <time>2017-08-08T12:10:50.000Z</time>
      </trkpt>
      <trkpt lat="43.14801589585841" lon="-7.020885944366455">
        <ele>925</ele>
        <time>2017-08-08T12:10:57.000Z</time>
      </trkpt>
      <trkpt lat="43.14796811901033" lon="-7.021009409800172">
        <ele>925.2</ele>
        <time>2017-08-08T12:11:05.000Z</time>
      </trkpt>
      <trkpt lat="43.14795336686075" lon="-7.021066239103675">
        <ele>925.4</ele>
        <time>2017-08-08T12:11:11.000Z</time>
      </trkpt>
      <trkpt lat="43.1479231081903" lon="-7.021132539957762">
        <ele>925.4</ele>
        <time>2017-08-08T12:11:29.000Z</time>
      </trkpt>
      <trkpt lat="43.14787440933287" lon="-7.021238151937723">
        <ele>925.6</ele>
        <time>2017-08-08T12:11:37.000Z</time>
      </trkpt>
      <trkpt lat="43.14780542626977" lon="-7.021367317065597">
        <ele>925.4</ele>
        <time>2017-08-08T12:11:47.000Z</time>
      </trkpt>
      <trkpt lat="43.14775203354657" lon="-7.021465301513672">
        <ele>925.4</ele>
        <time>2017-08-08T12:11:55.000Z</time>
      </trkpt>
      <trkpt lat="43.14771104604006" lon="-7.02153897844255">
        <ele>925.2</ele>
        <time>2017-08-08T12:12:01.000Z</time>
      </trkpt>
      <trkpt lat="43.14770224504173" lon="-7.021549707278609">
        <ele>925.2</ele>
        <time>2017-08-08T12:12:02.000Z</time>
      </trkpt>
      <trkpt lat="43.14763686619699" lon="-7.021655989810824">
        <ele>924.4</ele>
        <time>2017-08-08T12:12:10.000Z</time>
      </trkpt>
      <trkpt lat="43.14756075851619" lon="-7.021728241816163">
        <ele>923</ele>
        <time>2017-08-08T12:12:18.000Z</time>
      </trkpt>
      <trkpt lat="43.14745011739433" lon="-7.021796219050884">
        <ele>921</ele>
        <time>2017-08-08T12:12:27.000Z</time>
      </trkpt>
      <trkpt lat="43.14737887121737" lon="-7.021906105801463">
        <ele>919.8</ele>
        <time>2017-08-08T12:12:35.000Z</time>
      </trkpt>
      <trkpt lat="43.147360011935234" lon="-7.021999731659889">
        <ele>919.4</ele>
        <time>2017-08-08T12:12:41.000Z</time>
      </trkpt>
      <trkpt lat="43.14734576269984" lon="-7.022131327539682">
        <ele>919</ele>
        <time>2017-08-08T12:12:49.000Z</time>
      </trkpt>
      <trkpt lat="43.14733453094959" lon="-7.022259905934334">
        <ele>918.6</ele>
        <time>2017-08-08T12:12:57.000Z</time>
      </trkpt>
      <trkpt lat="43.14731961116195" lon="-7.022410864010453">
        <ele>918.2</ele>
        <time>2017-08-08T12:13:06.000Z</time>
      </trkpt>
      <trkpt lat="43.14730544574559" lon="-7.022541118785739">
        <ele>918.6</ele>
        <time>2017-08-08T12:13:14.000Z</time>
      </trkpt>
      <trkpt lat="43.147284826263785" lon="-7.022687299177051">
        <ele>919.2</ele>
        <time>2017-08-08T12:13:23.000Z</time>
      </trkpt>
      <trkpt lat="43.1472700741142" lon="-7.022774554789066">
        <ele>919.2</ele>
        <time>2017-08-08T12:13:29.000Z</time>
      </trkpt>
      <trkpt lat="43.14725465141237" lon="-7.02289056032896">
        <ele>918.6</ele>
        <time>2017-08-08T12:13:36.000Z</time>
      </trkpt>
      <trkpt lat="43.147256411612034" lon="-7.023066245019436">
        <ele>917.8</ele>
        <time>2017-08-08T12:13:46.000Z</time>
      </trkpt>
      <trkpt lat="43.14726253040135" lon="-7.023227261379361">
        <ele>917</ele>
        <time>2017-08-08T12:13:55.000Z</time>
      </trkpt>
      <trkpt lat="43.147202683612704" lon="-7.023332035169005">
        <ele>917</ele>
        <time>2017-08-08T12:14:02.000Z</time>
      </trkpt>
      <trkpt lat="43.14711978659034" lon="-7.02347737737">
        <ele>917.2</ele>
        <time>2017-08-08T12:14:12.000Z</time>
      </trkpt>
      <trkpt lat="43.147085923701525" lon="-7.023571757599711">
        <ele>917.4</ele>
        <time>2017-08-08T12:14:18.000Z</time>
      </trkpt>
      <trkpt lat="43.147058514878154" lon="-7.023677788674831">
        <ele>917.8</ele>
        <time>2017-08-08T12:14:25.000Z</time>
      </trkpt>
      <trkpt lat="43.147011660039425" lon="-7.0238076243549585">
        <ele>918</ele>
        <time>2017-08-08T12:14:33.000Z</time>
      </trkpt>
      <trkpt lat="43.14697922207415" lon="-7.023908039554954">
        <ele>918</ele>
        <time>2017-08-08T12:14:39.000Z</time>
      </trkpt>
      <trkpt lat="43.146933456882834" lon="-7.024034019559622">
        <ele>917.6</ele>
        <time>2017-08-08T12:14:47.000Z</time>
      </trkpt>
      <trkpt lat="43.146896408870816" lon="-7.024138625711203">
        <ele>917.2</ele>
        <time>2017-08-08T12:14:54.000Z</time>
      </trkpt>
      <trkpt lat="43.146867994219065" lon="-7.024247422814369">
        <ele>917</ele>
        <time>2017-08-08T12:15:01.000Z</time>
      </trkpt>
      <trkpt lat="43.146827509626746" lon="-7.024391507729888">
        <ele>916.6</ele>
        <time>2017-08-08T12:15:10.000Z</time>
      </trkpt>
      <trkpt lat="43.14679289236665" lon="-7.024515559896827">
        <ele>916.4</ele>
        <time>2017-08-08T12:15:18.000Z</time>
      </trkpt>
      <trkpt lat="43.14677311107516" lon="-7.024608515202999">
        <ele>916.2</ele>
        <time>2017-08-08T12:15:24.000Z</time>
      </trkpt>
      <trkpt lat="43.146761544048786" lon="-7.024683114141226">
        <ele>915.8</ele>
        <time>2017-08-08T12:15:29.000Z</time>
      </trkpt>
      <trkpt lat="43.146729189902544" lon="-7.024841113016009">
        <ele>914.8</ele>
        <time>2017-08-08T12:15:39.000Z</time>
      </trkpt>
      <trkpt lat="43.14668853767216" lon="-7.024987963959575">
        <ele>913.8</ele>
        <time>2017-08-08T12:15:48.000Z</time>
      </trkpt>
      <trkpt lat="43.14665618352592" lon="-7.025100030004978">
        <ele>913</ele>
        <time>2017-08-08T12:15:55.000Z</time>
      </trkpt>
      <trkpt lat="43.14661670476198" lon="-7.025225171819329">
        <ele>912.2</ele>
        <time>2017-08-08T12:16:03.000Z</time>
      </trkpt>
      <trkpt lat="43.14656926319003" lon="-7.025374453514814">
        <ele>911.2</ele>
        <time>2017-08-08T12:16:12.000Z</time>
      </trkpt>
      <trkpt lat="43.146532298997045" lon="-7.0254933927208185">
        <ele>910.4</ele>
        <time>2017-08-08T12:16:20.000Z</time>
      </trkpt>
      <trkpt lat="43.14649248495698" lon="-7.025631442666054">
        <ele>909.4</ele>
        <time>2017-08-08T12:16:29.000Z</time>
      </trkpt>
      <trkpt lat="43.14646759070456" lon="-7.025712998583913">
        <ele>908.8</ele>
        <time>2017-08-08T12:16:34.000Z</time>
      </trkpt>
      <trkpt lat="43.146432638168335" lon="-7.025823052972555">
        <ele>908</ele>
        <time>2017-08-08T12:16:41.000Z</time>
      </trkpt>
      <trkpt lat="43.14639005810022" lon="-7.025928748771548">
        <ele>907</ele>
        <time>2017-08-08T12:16:48.000Z</time>
      </trkpt>
      <trkpt lat="43.14634152688086" lon="-7.0260288286954165">
        <ele>906</ele>
        <time>2017-08-08T12:16:55.000Z</time>
      </trkpt>
      <trkpt lat="43.14632157795131" lon="-7.0260862447321415">
        <ele>905.6</ele>
        <time>2017-08-08T12:16:59.000Z</time>
      </trkpt>
      <trkpt lat="43.14631671644747" lon="-7.026102002710104">
        <ele>905.4</ele>
        <time>2017-08-08T12:17:00.000Z</time>
      </trkpt>
      <trkpt lat="43.146297773346305" lon="-7.0261492766439915">
        <ele>905</ele>
        <time>2017-08-08T12:17:05.000Z</time>
      </trkpt>
      <trkpt lat="43.14628293737769" lon="-7.026197472587228">
        <ele>904.6</ele>
        <time>2017-08-08T12:17:10.000Z</time>
      </trkpt>
      <trkpt lat="43.14625393599272" lon="-7.026300569996238">
        <ele>903.8</ele>
        <time>2017-08-08T12:17:18.000Z</time>
      </trkpt>
      <trkpt lat="43.14621755853295" lon="-7.026422778144479">
        <ele>902.6</ele>
        <time>2017-08-08T12:17:26.000Z</time>
      </trkpt>
      <trkpt lat="43.14618118107319" lon="-7.026559486985207">
        <ele>901.4</ele>
        <time>2017-08-08T12:17:35.000Z</time>
      </trkpt>
      <trkpt lat="43.14614840783179" lon="-7.02668571844697">
        <ele>900.8</ele>
        <time>2017-08-08T12:17:43.000Z</time>
      </trkpt>
      <trkpt lat="43.14611236564815" lon="-7.0268207509070635">
        <ele>900</ele>
        <time>2017-08-08T12:17:51.000Z</time>
      </trkpt>
      <trkpt lat="43.14608101733029" lon="-7.026962907984853">
        <ele>899.4</ele>
        <time>2017-08-08T12:18:00.000Z</time>
      </trkpt>
      <trkpt lat="43.14605184830725" lon="-7.027074471116066">
        <ele>898.8</ele>
        <time>2017-08-08T12:18:07.000Z</time>
      </trkpt>
      <trkpt lat="43.14600868150592" lon="-7.027203468605876">
        <ele>898.2</ele>
        <time>2017-08-08T12:18:16.000Z</time>
      </trkpt>
      <trkpt lat="43.14597247168422" lon="-7.027336237952113">
        <ele>897.6</ele>
        <time>2017-08-08T12:18:25.000Z</time>
      </trkpt>
      <trkpt lat="43.145936261862516" lon="-7.027460960671306">
        <ele>896.8</ele>
        <time>2017-08-08T12:18:33.000Z</time>
      </trkpt>
      <trkpt lat="43.14590306952596" lon="-7.027574619278312">
        <ele>896.6</ele>
        <time>2017-08-08T12:18:41.000Z</time>
      </trkpt>
      <trkpt lat="43.14584640786052" lon="-7.027686182409525">
        <ele>896.2</ele>
        <time>2017-08-08T12:18:49.000Z</time>
      </trkpt>
      <trkpt lat="43.145791087299585" lon="-7.027757344767451">
        <ele>896.2</ele>
        <time>2017-08-08T12:18:55.000Z</time>
      </trkpt>
      <trkpt lat="43.14572428353131" lon="-7.027851389721036">
        <ele>896</ele>
        <time>2017-08-08T12:19:03.000Z</time>
      </trkpt>
      <trkpt lat="43.14565454609692" lon="-7.027945267036557">
        <ele>895.8</ele>
        <time>2017-08-08T12:19:11.000Z</time>
      </trkpt>
      <trkpt lat="43.14557718113065" lon="-7.028025733307004">
        <ele>895.6</ele>
        <time>2017-08-08T12:19:19.000Z</time>
      </trkpt>
      <trkpt lat="43.1454898416996" lon="-7.028097063302994">
        <ele>895.6</ele>
        <time>2017-08-08T12:19:27.000Z</time>
      </trkpt>
      <trkpt lat="43.14538230188191" lon="-7.028185240924358">
        <ele>895.6</ele>
        <time>2017-08-08T12:19:37.000Z</time>
      </trkpt>
      <trkpt lat="43.14526118338108" lon="-7.028270401060581">
        <ele>895.6</ele>
        <time>2017-08-08T12:19:48.000Z</time>
      </trkpt>
      <trkpt lat="43.14516738988459" lon="-7.028315914794803">
        <ele>895.8</ele>
        <time>2017-08-08T12:19:56.000Z</time>
      </trkpt>
      <trkpt lat="43.14506093971431" lon="-7.028360003605485">
        <ele>895.6</ele>
        <time>2017-08-08T12:20:05.000Z</time>
      </trkpt>
      <trkpt lat="43.14499882981181" lon="-7.028381126001477">
        <ele>895.2</ele>
        <time>2017-08-08T12:20:11.000Z</time>
      </trkpt>
      <trkpt lat="43.14493529498577" lon="-7.028416497632861">
        <ele>894.6</ele>
        <time>2017-08-08T12:20:17.000Z</time>
      </trkpt>
      <trkpt lat="43.14485466107726" lon="-7.0284584909677505">
        <ele>893.6</ele>
        <time>2017-08-08T12:20:24.000Z</time>
      </trkpt>
      <trkpt lat="43.14478861168027" lon="-7.028489587828517">
        <ele>892.8</ele>
        <time>2017-08-08T12:20:30.000Z</time>
      </trkpt>
      <trkpt lat="43.14468157477677" lon="-7.028520852327347">
        <ele>891.2</ele>
        <time>2017-08-08T12:20:40.000Z</time>
      </trkpt>
      <trkpt lat="43.144614016637206" lon="-7.028526300564408">
        <ele>890</ele>
        <time>2017-08-08T12:20:46.000Z</time>
      </trkpt>
      <trkpt lat="43.14453464001417" lon="-7.028588578104973">
        <ele>889.2</ele>
        <time>2017-08-08T12:20:53.000Z</time>
      </trkpt>
      <trkpt lat="43.1444987654686" lon="-7.0286207646131516">
        <ele>889</ele>
        <time>2017-08-08T12:20:57.000Z</time>
      </trkpt>
      <trkpt lat="43.14447940327227" lon="-7.028645072132349">
        <ele>889</ele>
        <time>2017-08-08T12:20:59.000Z</time>
      </trkpt>
      <trkpt lat="43.144403882324696" lon="-7.028739620000124">
        <ele>888.6</ele>
        <time>2017-08-08T12:21:07.000Z</time>
      </trkpt>
      <trkpt lat="43.144341269508004" lon="-7.02881908044219">
        <ele>888.4</ele>
        <time>2017-08-08T12:21:13.000Z</time>
      </trkpt>
      <trkpt lat="43.144312016665936" lon="-7.028850009664893">
        <ele>888.2</ele>
        <time>2017-08-08T12:21:16.000Z</time>
      </trkpt>
      <trkpt lat="43.1443000305444" lon="-7.028869707137346">
        <ele>888.2</ele>
        <time>2017-08-08T12:21:19.000Z</time>
      </trkpt>
      <trkpt lat="43.144275303930044" lon="-7.0288999658077955">
        <ele>888</ele>
        <time>2017-08-08T12:21:23.000Z</time>
      </trkpt>
      <trkpt lat="43.144267257303" lon="-7.028911197558045">
        <ele>888</ele>
        <time>2017-08-08T12:21:24.000Z</time>
      </trkpt>
      <trkpt lat="43.14421788789332" lon="-7.028955789282918">
        <ele>887.4</ele>
        <time>2017-08-08T12:21:30.000Z</time>
      </trkpt>
      <trkpt lat="43.144208332523704" lon="-7.028969451785088">
        <ele>887.4</ele>
        <time>2017-08-08T12:21:36.000Z</time>
      </trkpt>
      <trkpt lat="43.14416625536978" lon="-7.029032483696938">
        <ele>887.2</ele>
        <time>2017-08-08T12:21:45.000Z</time>
      </trkpt>
      <trkpt lat="43.14405075274408" lon="-7.029169611632824">
        <ele>886</ele>
        <time>2017-08-08T12:21:56.000Z</time>
      </trkpt>
      <trkpt lat="43.143944973126054" lon="-7.029269691556692">
        <ele>884.6</ele>
        <time>2017-08-08T12:22:05.000Z</time>
      </trkpt>
      <trkpt lat="43.1438354216516" lon="-7.029334232211113">
        <ele>882.8</ele>
        <time>2017-08-08T12:22:14.000Z</time>
      </trkpt>
      <trkpt lat="43.143719751387835" lon="-7.029387205839157">
        <ele>880.8</ele>
        <time>2017-08-08T12:22:23.000Z</time>
      </trkpt>
      <trkpt lat="43.143592262640595" lon="-7.029470354318619">
        <ele>878.8</ele>
        <time>2017-08-08T12:22:33.000Z</time>
      </trkpt>
      <trkpt lat="43.1435058452189" lon="-7.029527770355344">
        <ele>877.4</ele>
        <time>2017-08-08T12:22:41.000Z</time>
      </trkpt>
      <trkpt lat="43.14344784244895" lon="-7.029558029025793">
        <ele>876.6</ele>
        <time>2017-08-08T12:22:47.000Z</time>
      </trkpt>
      <trkpt lat="43.14343895763159" lon="-7.029563812538981">
        <ele>876.4</ele>
        <time>2017-08-08T12:22:48.000Z</time>
      </trkpt>
      <trkpt lat="43.14335564151406" lon="-7.029610499739647">
        <ele>874.4</ele>
        <time>2017-08-08T12:22:56.000Z</time>
      </trkpt>
      <trkpt lat="43.14330669119954" lon="-7.0296400878578424">
        <ele>873.2</ele>
        <time>2017-08-08T12:23:02.000Z</time>
      </trkpt>
      <trkpt lat="43.14326846972108" lon="-7.029668251052499">
        <ele>872.4</ele>
        <time>2017-08-08T12:23:16.000Z</time>
      </trkpt>
      <trkpt lat="43.143181297928095" lon="-7.0297628827393055">
        <ele>870.6</ele>
        <time>2017-08-08T12:23:21.000Z</time>
      </trkpt>
      <trkpt lat="43.14310963265598" lon="-7.02989162877202">
        <ele>869.6</ele>
        <time>2017-08-08T12:23:28.000Z</time>
      </trkpt>
      <trkpt lat="43.14305003732443" lon="-7.03000009059906">
        <ele>868.6</ele>
        <time>2017-08-08T12:23:35.000Z</time>
      </trkpt>
      <trkpt lat="43.14300712198019" lon="-7.030065888538957">
        <ele>867.6</ele>
        <time>2017-08-08T12:23:41.000Z</time>
      </trkpt>
      <trkpt lat="43.14299982972443" lon="-7.030102601274848">
        <ele>867.4</ele>
        <time>2017-08-08T12:23:43.000Z</time>
      </trkpt>
      <trkpt lat="43.14294886775315" lon="-7.030217852443457">
        <ele>866.4</ele>
        <time>2017-08-08T12:23:50.000Z</time>
      </trkpt>
      <trkpt lat="43.1428943015635" lon="-7.030371241271496">
        <ele>865.6</ele>
        <time>2017-08-08T12:23:59.000Z</time>
      </trkpt>
      <trkpt lat="43.142849542200565" lon="-7.0304936170578">
        <ele>864.8</ele>
        <time>2017-08-08T12:24:07.000Z</time>
      </trkpt>
      <trkpt lat="43.14283814281225" lon="-7.030535526573658">
        <ele>864.4</ele>
        <time>2017-08-08T12:24:14.000Z</time>
      </trkpt>
      <trkpt lat="43.14282867126167" lon="-7.03060501255095">
        <ele>863.8</ele>
        <time>2017-08-08T12:24:19.000Z</time>
      </trkpt>
      <trkpt lat="43.14283085055649" lon="-7.030761083588004">
        <ele>862.8</ele>
        <time>2017-08-08T12:24:28.000Z</time>
      </trkpt>
      <trkpt lat="43.142835376784205" lon="-7.030830234289169">
        <ele>862.8</ele>
        <time>2017-08-08T12:24:32.000Z</time>
      </trkpt>
      <trkpt lat="43.14283370040357" lon="-7.030864683911204">
        <ele>862.6</ele>
        <time>2017-08-08T12:24:34.000Z</time>
      </trkpt>
      <trkpt lat="43.14283269457519" lon="-7.030949676409364">
        <ele>862.6</ele>
        <time>2017-08-08T12:24:39.000Z</time>
      </trkpt>
      <trkpt lat="43.142832191661" lon="-7.030983790755272">
        <ele>862.6</ele>
        <time>2017-08-08T12:24:41.000Z</time>
      </trkpt>
      <trkpt lat="43.14283009618521" lon="-7.0311791729182005">
        <ele>862.2</ele>
        <time>2017-08-08T12:24:52.000Z</time>
      </trkpt>
      <trkpt lat="43.14282724633813" lon="-7.031344212591648">
        <ele>862</ele>
        <time>2017-08-08T12:25:01.000Z</time>
      </trkpt>
      <trkpt lat="43.14283018000424" lon="-7.031489554792643">
        <ele>860.8</ele>
        <time>2017-08-08T12:25:09.000Z</time>
      </trkpt>
      <trkpt lat="43.14283738844097" lon="-7.031651493161917">
        <ele>860.4</ele>
        <time>2017-08-08T12:25:15.000Z</time>
      </trkpt>
      <trkpt lat="43.14284979365766" lon="-7.031759200617671">
        <ele>861.2</ele>
        <time>2017-08-08T12:25:21.000Z</time>
      </trkpt>
      <trkpt lat="43.14287041313946" lon="-7.031881408765912">
        <ele>862.4</ele>
        <time>2017-08-08T12:25:28.000Z</time>
      </trkpt>
      <trkpt lat="43.14288692548871" lon="-7.0319664012640715">
        <ele>863</ele>
        <time>2017-08-08T12:25:33.000Z</time>
      </trkpt>
      <trkpt lat="43.142902767285705" lon="-7.032013339921832">
        <ele>863.6</ele>
        <time>2017-08-08T12:25:36.000Z</time>
      </trkpt>
      <trkpt lat="43.14288265071809" lon="-7.032124483957887">
        <ele>864.2</ele>
        <time>2017-08-08T12:25:43.000Z</time>
      </trkpt>
      <trkpt lat="43.142865132540464" lon="-7.032169159501791">
        <ele>864.2</ele>
        <time>2017-08-08T12:25:46.000Z</time>
      </trkpt>
      <trkpt lat="43.142833448946476" lon="-7.032245686277747">
        <ele>864</ele>
        <time>2017-08-08T12:25:51.000Z</time>
      </trkpt>
      <trkpt lat="43.14282079227269" lon="-7.032272592186928">
        <ele>863.8</ele>
        <time>2017-08-08T12:25:53.000Z</time>
      </trkpt>
      <trkpt lat="43.14280612394214" lon="-7.032294636592269">
        <ele>863.8</ele>
        <time>2017-08-08T12:25:56.000Z</time>
      </trkpt>
      <trkpt lat="43.1428010109812" lon="-7.032349118962884">
        <ele>863.4</ele>
        <time>2017-08-08T12:25:59.000Z</time>
      </trkpt>
      <trkpt lat="43.14280143007636" lon="-7.032418353483081">
        <ele>862.8</ele>
        <time>2017-08-08T12:26:03.000Z</time>
      </trkpt>
      <trkpt lat="43.14280687831342" lon="-7.032616753131151">
        <ele>863.2</ele>
        <time>2017-08-08T12:26:14.000Z</time>
      </trkpt>
      <trkpt lat="43.14281517639756" lon="-7.03277500346303">
        <ele>863.6</ele>
        <time>2017-08-08T12:26:23.000Z</time>
      </trkpt>
      <trkpt lat="43.14281836152077" lon="-7.032931242138147">
        <ele>864</ele>
        <time>2017-08-08T12:26:32.000Z</time>
      </trkpt>
      <trkpt lat="43.14281903207302" lon="-7.032968206331134">
        <ele>864</ele>
        <time>2017-08-08T12:26:34.000Z</time>
      </trkpt>
      <trkpt lat="43.142805537208915" lon="-7.0330961141735315">
        <ele>864.2</ele>
        <time>2017-08-08T12:26:41.000Z</time>
      </trkpt>
      <trkpt lat="43.142803609371185" lon="-7.033241540193558">
        <ele>864</ele>
        <time>2017-08-08T12:26:49.000Z</time>
      </trkpt>
      <trkpt lat="43.14280486665666" lon="-7.033405741676688">
        <ele>863.8</ele>
        <time>2017-08-08T12:26:58.000Z</time>
      </trkpt>
      <trkpt lat="43.14280201680958" lon="-7.033571200445294">
        <ele>863.8</ele>
        <time>2017-08-08T12:27:08.000Z</time>
      </trkpt>
      <trkpt lat="43.14281148836017" lon="-7.033688127994537">
        <ele>863.8</ele>
        <time>2017-08-08T12:27:15.000Z</time>
      </trkpt>
      <trkpt lat="43.1428097281605" lon="-7.033820562064648">
        <ele>863.8</ele>
        <time>2017-08-08T12:27:23.000Z</time>
      </trkpt>
      <trkpt lat="43.142807045951486" lon="-7.033934555947781">
        <ele>864</ele>
        <time>2017-08-08T12:27:30.000Z</time>
      </trkpt>
      <trkpt lat="43.14279489219189" lon="-7.034061122685671">
        <ele>864.6</ele>
        <time>2017-08-08T12:27:37.000Z</time>
      </trkpt>
      <trkpt lat="43.14275692217052" lon="-7.034197160974145">
        <ele>865.8</ele>
        <time>2017-08-08T12:27:45.000Z</time>
      </trkpt>
      <trkpt lat="43.142669163644314" lon="-7.0342388190329075">
        <ele>866.8</ele>
        <time>2017-08-08T12:27:52.000Z</time>
      </trkpt>
      <trkpt lat="43.14258249476552" lon="-7.034216690808535">
        <ele>867</ele>
        <time>2017-08-08T12:27:59.000Z</time>
      </trkpt>
      <trkpt lat="43.14251644536853" lon="-7.034240076318383">
        <ele>866.8</ele>
        <time>2017-08-08T12:28:05.000Z</time>
      </trkpt>
      <trkpt lat="43.14251552335918" lon="-7.034255834296346">
        <ele>866.8</ele>
        <time>2017-08-08T12:28:06.000Z</time>
      </trkpt>
      <trkpt lat="43.14252231270075" lon="-7.034335294738412">
        <ele>867.6</ele>
        <time>2017-08-08T12:28:11.000Z</time>
      </trkpt>
      <trkpt lat="43.14252088777721" lon="-7.034374019131064">
        <ele>867.8</ele>
        <time>2017-08-08T12:28:13.000Z</time>
      </trkpt>
      <trkpt lat="43.14249901100993" lon="-7.034469656646252">
        <ele>868.6</ele>
        <time>2017-08-08T12:28:19.000Z</time>
      </trkpt>
      <trkpt lat="43.14244134351611" lon="-7.034577950835228">
        <ele>869.2</ele>
        <time>2017-08-08T12:28:27.000Z</time>
      </trkpt>
      <trkpt lat="43.14238753169775" lon="-7.034683562815189">
        <ele>869.6</ele>
        <time>2017-08-08T12:28:34.000Z</time>
      </trkpt>
      <trkpt lat="43.14233606681228" lon="-7.034769561141729">
        <ele>870</ele>
        <time>2017-08-08T12:28:41.000Z</time>
      </trkpt>
      <trkpt lat="43.14226624555886" lon="-7.034827647730708">
        <ele>870.2</ele>
        <time>2017-08-08T12:28:48.000Z</time>
      </trkpt>
      <trkpt lat="43.14222224056721" lon="-7.034866455942392">
        <ele>870.2</ele>
        <time>2017-08-08T12:28:52.000Z</time>
      </trkpt>
      <trkpt lat="43.14218921586871" lon="-7.0348936971277">
        <ele>870.2</ele>
        <time>2017-08-08T12:28:55.000Z</time>
      </trkpt>
      <trkpt lat="43.142100954428315" lon="-7.0349509455263615">
        <ele>870.6</ele>
        <time>2017-08-08T12:29:03.000Z</time>
      </trkpt>
      <trkpt lat="43.14201177097857" lon="-7.035021772608161">
        <ele>871.8</ele>
        <time>2017-08-08T12:29:11.000Z</time>
      </trkpt>
      <trkpt lat="43.14191931858659" lon="-7.035091677680612">
        <ele>873</ele>
        <time>2017-08-08T12:29:20.000Z</time>
      </trkpt>
      <trkpt lat="43.14184304326773" lon="-7.03513409011066">
        <ele>873.6</ele>
        <time>2017-08-08T12:29:27.000Z</time>
      </trkpt>
      <trkpt lat="43.14179685898125" lon="-7.035146662965417">
        <ele>873.6</ele>
        <time>2017-08-08T12:29:31.000Z</time>
      </trkpt>
      <trkpt lat="43.14176416955888" lon="-7.035164432600141">
        <ele>873.8</ele>
        <time>2017-08-08T12:29:34.000Z</time>
      </trkpt>
      <trkpt lat="43.14166819676757" lon="-7.035219250246882">
        <ele>874.4</ele>
        <time>2017-08-08T12:29:42.000Z</time>
      </trkpt>
      <trkpt lat="43.14159535802901" lon="-7.035279935225844">
        <ele>875.6</ele>
        <time>2017-08-08T12:29:49.000Z</time>
      </trkpt>
      <trkpt lat="43.141506258398294" lon="-7.035351516678929">
        <ele>876.8</ele>
        <time>2017-08-08T12:29:57.000Z</time>
      </trkpt>
      <trkpt lat="43.141419840976596" lon="-7.035407340154052">
        <ele>877.6</ele>
        <time>2017-08-08T12:30:05.000Z</time>
      </trkpt>
      <trkpt lat="43.14133551903069" lon="-7.0354551170021296">
        <ele>878.2</ele>
        <time>2017-08-08T12:30:13.000Z</time>
      </trkpt>
      <trkpt lat="43.14127215184271" lon="-7.0354981161653996">
        <ele>878.8</ele>
        <time>2017-08-08T12:30:19.000Z</time>
      </trkpt>
      <trkpt lat="43.14124130643904" lon="-7.035521920770407">
        <ele>879.2</ele>
        <time>2017-08-08T12:30:22.000Z</time>
      </trkpt>
      <trkpt lat="43.141202917322516" lon="-7.035556202754378">
        <ele>879.8</ele>
        <time>2017-08-08T12:30:26.000Z</time>
      </trkpt>
      <trkpt lat="43.14113066531718" lon="-7.035631807520986">
        <ele>881.2</ele>
        <time>2017-08-08T12:30:34.000Z</time>
      </trkpt>
      <trkpt lat="43.14105363562703" lon="-7.03570581972599">
        <ele>882.4</ele>
        <time>2017-08-08T12:30:42.000Z</time>
      </trkpt>
      <trkpt lat="43.14095380716026" lon="-7.035793326795101">
        <ele>883.6</ele>
        <time>2017-08-08T12:30:52.000Z</time>
      </trkpt>
      <trkpt lat="43.14089328981936" lon="-7.035824758931994">
        <ele>884</ele>
        <time>2017-08-08T12:30:57.000Z</time>
      </trkpt>
      <trkpt lat="43.14081575721502" lon="-7.0358747988939285">
        <ele>884.8</ele>
        <time>2017-08-08T12:31:04.000Z</time>
      </trkpt>
      <trkpt lat="43.14074920490384" lon="-7.035938585177064">
        <ele>885.8</ele>
        <time>2017-08-08T12:31:11.000Z</time>
      </trkpt>
      <trkpt lat="43.14069262705743" lon="-7.036027852445841">
        <ele>887.2</ele>
        <time>2017-08-08T12:31:18.000Z</time>
      </trkpt>
      <trkpt lat="43.140642335638404" lon="-7.036115191876888">
        <ele>888.6</ele>
        <time>2017-08-08T12:31:25.000Z</time>
      </trkpt>
      <trkpt lat="43.14058315940201" lon="-7.036219546571374">
        <ele>890.2</ele>
        <time>2017-08-08T12:31:32.000Z</time>
      </trkpt>
      <trkpt lat="43.14051744528115" lon="-7.036283751949668">
        <ele>891.2</ele>
        <time>2017-08-08T12:31:39.000Z</time>
      </trkpt>
      <trkpt lat="43.14043706282973" lon="-7.036325577646494">
        <ele>891.8</ele>
        <time>2017-08-08T12:31:46.000Z</time>
      </trkpt>
      <trkpt lat="43.14038719050586" lon="-7.036334378644824">
        <ele>892</ele>
        <time>2017-08-08T12:31:50.000Z</time>
      </trkpt>
      <trkpt lat="43.140375623479486" lon="-7.03633027151227">
        <ele>892</ele>
        <time>2017-08-08T12:31:51.000Z</time>
      </trkpt>
      <trkpt lat="43.140294989570975" lon="-7.03634980134666">
        <ele>891.4</ele>
        <time>2017-08-08T12:31:57.000Z</time>
      </trkpt>
      <trkpt lat="43.140238747000694" lon="-7.0363908726722">
        <ele>891.8</ele>
        <time>2017-08-08T12:32:02.000Z</time>
      </trkpt>
      <trkpt lat="43.140225168317556" lon="-7.036396069452167">
        <ele>891.6</ele>
        <time>2017-08-08T12:32:03.000Z</time>
      </trkpt>
      <trkpt lat="43.14013782888651" lon="-7.036444433033466">
        <ele>891.8</ele>
        <time>2017-08-08T12:32:10.000Z</time>
      </trkpt>
      <trkpt lat="43.14012282527983" lon="-7.036448623985052">
        <ele>891.6</ele>
        <time>2017-08-08T12:32:11.000Z</time>
      </trkpt>
      <trkpt lat="43.1400709412992" lon="-7.0364711713045835">
        <ele>892</ele>
        <time>2017-08-08T12:32:15.000Z</time>
      </trkpt>
      <trkpt lat="43.13999709673226" lon="-7.036506794393063">
        <ele>893</ele>
        <time>2017-08-08T12:32:21.000Z</time>
      </trkpt>
      <trkpt lat="43.13997647725046" lon="-7.036515343934298">
        <ele>893.2</ele>
        <time>2017-08-08T12:32:23.000Z</time>
      </trkpt>
      <trkpt lat="43.139940686523914" lon="-7.036538310348988">
        <ele>893.8</ele>
        <time>2017-08-08T12:32:26.000Z</time>
      </trkpt>
      <trkpt lat="43.139857621863484" lon="-7.036601006984711">
        <ele>895.4</ele>
        <time>2017-08-08T12:32:33.000Z</time>
      </trkpt>
      <trkpt lat="43.13980079255998" lon="-7.036646520718932">
        <ele>895.4</ele>
        <time>2017-08-08T12:32:38.000Z</time>
      </trkpt>
      <trkpt lat="43.13971856608987" lon="-7.036715168505907">
        <ele>895.4</ele>
        <time>2017-08-08T12:32:45.000Z</time>
      </trkpt>
      <trkpt lat="43.13964354805648" lon="-7.036766465753317">
        <ele>895.4</ele>
        <time>2017-08-08T12:32:51.000Z</time>
      </trkpt>
      <trkpt lat="43.139563500881195" lon="-7.036820948123932">
        <ele>895.2</ele>
        <time>2017-08-08T12:32:58.000Z</time>
      </trkpt>
      <trkpt lat="43.13948412425816" lon="-7.036875346675515">
        <ele>895.2</ele>
        <time>2017-08-08T12:33:05.000Z</time>
      </trkpt>
      <trkpt lat="43.13940240070224" lon="-7.036927649751306">
        <ele>895.2</ele>
        <time>2017-08-08T12:33:12.000Z</time>
      </trkpt>
      <trkpt lat="43.13931078650057" lon="-7.037002416327596">
        <ele>895</ele>
        <time>2017-08-08T12:33:20.000Z</time>
      </trkpt>
      <trkpt lat="43.139224704355" lon="-7.037082379683852">
        <ele>895</ele>
        <time>2017-08-08T12:33:28.000Z</time>
      </trkpt>
      <trkpt lat="43.13915236853063" lon="-7.03715362586081">
        <ele>895</ele>
        <time>2017-08-08T12:33:35.000Z</time>
      </trkpt>
      <trkpt lat="43.13907265663147" lon="-7.03724498860538">
        <ele>895</ele>
        <time>2017-08-08T12:33:43.000Z</time>
      </trkpt>
      <trkpt lat="43.13899638131261" lon="-7.037336518988013">
        <ele>895.2</ele>
        <time>2017-08-08T12:33:51.000Z</time>
      </trkpt>
      <trkpt lat="43.13891666941345" lon="-7.037423774600029">
        <ele>895.2</ele>
        <time>2017-08-08T12:33:59.000Z</time>
      </trkpt>
      <trkpt lat="43.13881508074701" lon="-7.037519495934248">
        <ele>894.4</ele>
        <time>2017-08-08T12:34:09.000Z</time>
      </trkpt>
      <trkpt lat="43.13875213265419" lon="-7.037572888657451">
        <ele>893.8</ele>
        <time>2017-08-08T12:34:15.000Z</time>
      </trkpt>
      <trkpt lat="43.138686418533325" lon="-7.037647068500519">
        <ele>893.2</ele>
        <time>2017-08-08T12:34:22.000Z</time>
      </trkpt>
      <trkpt lat="43.138620452955365" lon="-7.03771848231554">
        <ele>892.6</ele>
        <time>2017-08-08T12:34:29.000Z</time>
      </trkpt>
      <trkpt lat="43.13856102526188" lon="-7.037780927494168">
        <ele>892.2</ele>
        <time>2017-08-08T12:34:35.000Z</time>
      </trkpt>
      <trkpt lat="43.13848399557173" lon="-7.037868686020374">
        <ele>891.4</ele>
        <time>2017-08-08T12:34:43.000Z</time>
      </trkpt>
      <trkpt lat="43.138415180146694" lon="-7.037941021844745">
        <ele>890.8</ele>
        <time>2017-08-08T12:34:50.000Z</time>
      </trkpt>
      <trkpt lat="43.1383266672492" lon="-7.038035150617361">
        <ele>890</ele>
        <time>2017-08-08T12:34:59.000Z</time>
      </trkpt>
      <trkpt lat="43.13831811770797" lon="-7.038040347397327">
        <ele>890</ele>
        <time>2017-08-08T12:35:00.000Z</time>
      </trkpt>
      <trkpt lat="43.13825894147158" lon="-7.038089884445071">
        <ele>889.6</ele>
        <time>2017-08-08T12:35:06.000Z</time>
      </trkpt>
      <trkpt lat="43.13820395618677" lon="-7.038133135065436">
        <ele>889.2</ele>
        <time>2017-08-08T12:35:11.000Z</time>
      </trkpt>
      <trkpt lat="43.138190880417824" lon="-7.038145372644067">
        <ele>889</ele>
        <time>2017-08-08T12:35:12.000Z</time>
      </trkpt>
      <trkpt lat="43.13810236752033" lon="-7.038233550265431">
        <ele>888.4</ele>
        <time>2017-08-08T12:35:21.000Z</time>
      </trkpt>
      <trkpt lat="43.13806230202317" lon="-7.0382853504270315">
        <ele>888.2</ele>
        <time>2017-08-08T12:35:25.000Z</time>
      </trkpt>
      <trkpt lat="43.13804553821683" lon="-7.038305131718516">
        <ele>888.2</ele>
        <time>2017-08-08T12:35:27.000Z</time>
      </trkpt>
      <trkpt lat="43.13796297647059" lon="-7.038410995155573">
        <ele>888.2</ele>
        <time>2017-08-08T12:35:36.000Z</time>
      </trkpt>
      <trkpt lat="43.1378969270736" lon="-7.038503782823682">
        <ele>888.2</ele>
        <time>2017-08-08T12:35:43.000Z</time>
      </trkpt>
      <trkpt lat="43.13783188350499" lon="-7.038604952394962">
        <ele>888.4</ele>
        <time>2017-08-08T12:35:51.000Z</time>
      </trkpt>
      <trkpt lat="43.13775057904422" lon="-7.03873579390347">
        <ele>888.4</ele>
        <time>2017-08-08T12:36:01.000Z</time>
      </trkpt>
      <trkpt lat="43.13763893209398" lon="-7.038842244073749">
        <ele>888.4</ele>
        <time>2017-08-08T12:36:11.000Z</time>
      </trkpt>
      <trkpt lat="43.137540612369776" lon="-7.038937630131841">
        <ele>888</ele>
        <time>2017-08-08T12:36:20.000Z</time>
      </trkpt>
      <trkpt lat="43.13745126128197" lon="-7.0390295796096325">
        <ele>887.2</ele>
        <time>2017-08-08T12:36:28.000Z</time>
      </trkpt>
      <trkpt lat="43.13734137453139" lon="-7.0391373708844185">
        <ele>886.6</ele>
        <time>2017-08-08T12:36:38.000Z</time>
      </trkpt>
      <trkpt lat="43.1372423004359" lon="-7.039273744449019">
        <ele>886.6</ele>
        <time>2017-08-08T12:36:49.000Z</time>
      </trkpt>
      <trkpt lat="43.13720215111971" lon="-7.039385978132486">
        <ele>887.2</ele>
        <time>2017-08-08T12:36:57.000Z</time>
      </trkpt>
      <trkpt lat="43.13715370371938" lon="-7.039491254836321">
        <ele>887.4</ele>
        <time>2017-08-08T12:37:05.000Z</time>
      </trkpt>
      <trkpt lat="43.13713978976011" lon="-7.0395278837531805">
        <ele>887.6</ele>
        <time>2017-08-08T12:37:10.000Z</time>
      </trkpt>
      <trkpt lat="43.137104669585824" lon="-7.039584461599588">
        <ele>887.8</ele>
        <time>2017-08-08T12:37:17.000Z</time>
      </trkpt>
      <trkpt lat="43.13703845255077" lon="-7.039728797972202">
        <ele>887.6</ele>
        <time>2017-08-08T12:37:27.000Z</time>
      </trkpt>
      <trkpt lat="43.136980617418885" lon="-7.039887299761176">
        <ele>887.4</ele>
        <time>2017-08-08T12:37:37.000Z</time>
      </trkpt>
      <trkpt lat="43.13695983029902" lon="-7.039959887042642">
        <ele>887.8</ele>
        <time>2017-08-08T12:37:44.000Z</time>
      </trkpt>
      <trkpt lat="43.1369399651885" lon="-7.04004286788404">
        <ele>888.2</ele>
        <time>2017-08-08T12:37:51.000Z</time>
      </trkpt>
      <trkpt lat="43.136895038187504" lon="-7.040191814303398">
        <ele>889.2</ele>
        <time>2017-08-08T12:38:00.000Z</time>
      </trkpt>
      <trkpt lat="43.13687198795378" lon="-7.040314944460988">
        <ele>890</ele>
        <time>2017-08-08T12:38:07.000Z</time>
      </trkpt>
      <trkpt lat="43.136866204440594" lon="-7.04044695943594">
        <ele>891</ele>
        <time>2017-08-08T12:38:15.000Z</time>
      </trkpt>
      <trkpt lat="43.13686687499285" lon="-7.0404814928770065">
        <ele>891.2</ele>
        <time>2017-08-08T12:38:17.000Z</time>
      </trkpt>
      <trkpt lat="43.136871149763465" lon="-7.040533879771829">
        <ele>891.6</ele>
        <time>2017-08-08T12:38:20.000Z</time>
      </trkpt>
      <trkpt lat="43.13689302653074" lon="-7.040735716000199">
        <ele>892.2</ele>
        <time>2017-08-08T12:38:31.000Z</time>
      </trkpt>
      <trkpt lat="43.13689889386296" lon="-7.040789779275656">
        <ele>892.2</ele>
        <time>2017-08-08T12:38:34.000Z</time>
      </trkpt>
      <trkpt lat="43.13690409064293" lon="-7.040899666026235">
        <ele>892.6</ele>
        <time>2017-08-08T12:38:40.000Z</time>
      </trkpt>
      <trkpt lat="43.13690006732941" lon="-7.041059592738748">
        <ele>893.2</ele>
        <time>2017-08-08T12:38:49.000Z</time>
      </trkpt>
      <trkpt lat="43.136890176683664" lon="-7.0412004087120295">
        <ele>893.8</ele>
        <time>2017-08-08T12:38:57.000Z</time>
      </trkpt>
      <trkpt lat="43.136883135885" lon="-7.041342817246914">
        <ele>894.4</ele>
        <time>2017-08-08T12:39:05.000Z</time>
      </trkpt>
      <trkpt lat="43.13687299378216" lon="-7.0415376126766205">
        <ele>895.2</ele>
        <time>2017-08-08T12:39:16.000Z</time>
      </trkpt>
      <trkpt lat="43.136876011267304" lon="-7.041638530790806">
        <ele>895.6</ele>
        <time>2017-08-08T12:39:22.000Z</time>
      </trkpt>
      <trkpt lat="43.13686687499285" lon="-7.041782280430198">
        <ele>896.2</ele>
        <time>2017-08-08T12:39:30.000Z</time>
      </trkpt>
      <trkpt lat="43.1368588283658" lon="-7.041966263204813">
        <ele>896.8</ele>
        <time>2017-08-08T12:39:40.000Z</time>
      </trkpt>
      <trkpt lat="43.13684239983559" lon="-7.0421219151467085">
        <ele>897.4</ele>
        <time>2017-08-08T12:39:48.000Z</time>
      </trkpt>
      <trkpt lat="43.136828653514385" lon="-7.042268179357052">
        <ele>898.2</ele>
        <time>2017-08-08T12:39:56.000Z</time>
      </trkpt>
      <trkpt lat="43.1368226185441" lon="-7.042436404153705">
        <ele>898.6</ele>
        <time>2017-08-08T12:40:05.000Z</time>
      </trkpt>
      <trkpt lat="43.13680971041322" lon="-7.042580908164382">
        <ele>898.6</ele>
        <time>2017-08-08T12:40:13.000Z</time>
      </trkpt>
      <trkpt lat="43.13679428771138" lon="-7.042776122689247">
        <ele>898.8</ele>
        <time>2017-08-08T12:40:24.000Z</time>
      </trkpt>
      <trkpt lat="43.1367795355618" lon="-7.042920710518956">
        <ele>899</ele>
        <time>2017-08-08T12:40:32.000Z</time>
      </trkpt>
      <trkpt lat="43.1367726624012" lon="-7.043056413531303">
        <ele>899</ele>
        <time>2017-08-08T12:40:39.000Z</time>
      </trkpt>
      <trkpt lat="43.13675950281322" lon="-7.043264536187053">
        <ele>899.2</ele>
        <time>2017-08-08T12:40:50.000Z</time>
      </trkpt>
      <trkpt lat="43.136750031262636" lon="-7.043434269726276">
        <ele>900.2</ele>
        <time>2017-08-08T12:40:59.000Z</time>
      </trkpt>
      <trkpt lat="43.13673687167466" lon="-7.043622527271509">
        <ele>901.2</ele>
        <time>2017-08-08T12:41:09.000Z</time>
      </trkpt>
      <trkpt lat="43.136744163930416" lon="-7.043804917484522">
        <ele>902</ele>
        <time>2017-08-08T12:41:19.000Z</time>
      </trkpt>
      <trkpt lat="43.13675941899419" lon="-7.043944140896201">
        <ele>902.4</ele>
        <time>2017-08-08T12:41:27.000Z</time>
      </trkpt>
      <trkpt lat="43.13679386861622" lon="-7.044117730110884">
        <ele>903.2</ele>
        <time>2017-08-08T12:41:37.000Z</time>
      </trkpt>
      <trkpt lat="43.13682404346764" lon="-7.044295510277152">
        <ele>905.8</ele>
        <time>2017-08-08T12:41:42.000Z</time>
      </trkpt>
      <trkpt lat="43.13686737790704" lon="-7.044514948502183">
        <ele>909</ele>
        <time>2017-08-08T12:41:48.000Z</time>
      </trkpt>
      <trkpt lat="43.13691741786897" lon="-7.044775374233723">
        <ele>912.8</ele>
        <time>2017-08-08T12:41:55.000Z</time>
      </trkpt>
      <trkpt lat="43.136924961581826" lon="-7.044832622632384">
        <ele>913.4</ele>
        <time>2017-08-08T12:41:58.000Z</time>
      </trkpt>
      <trkpt lat="43.136930325999856" lon="-7.044845363125205">
        <ele>913.4</ele>
        <time>2017-08-08T12:41:59.000Z</time>
      </trkpt>
      <trkpt lat="43.136946922168136" lon="-7.044857097789645">
        <ele>913.2</ele>
        <time>2017-08-08T12:42:04.000Z</time>
      </trkpt>
      <trkpt lat="43.136958153918386" lon="-7.0449011866003275">
        <ele>913.4</ele>
        <time>2017-08-08T12:42:11.000Z</time>
      </trkpt>
      <trkpt lat="43.13696754164994" lon="-7.044912250712514">
        <ele>913.4</ele>
        <time>2017-08-08T12:42:12.000Z</time>
      </trkpt>
      <trkpt lat="43.13697533681989" lon="-7.044904455542564">
        <ele>913.2</ele>
        <time>2017-08-08T12:42:16.000Z</time>
      </trkpt>
      <trkpt lat="43.136983551084995" lon="-7.044926416128874">
        <ele>913.2</ele>
        <time>2017-08-08T12:42:21.000Z</time>
      </trkpt>
      <trkpt lat="43.136993274092674" lon="-7.044959859922528">
        <ele>913.2</ele>
        <time>2017-08-08T12:42:27.000Z</time>
      </trkpt>
      <trkpt lat="43.136993274092674" lon="-7.044959692284465">
        <ele>913.2</ele>
        <time>2017-08-08T12:42:34.000Z</time>
      </trkpt>
      <trkpt lat="43.137012803927064" lon="-7.0450295973569155">
        <ele>913</ele>
        <time>2017-08-08T12:42:39.000Z</time>
      </trkpt>
      <trkpt lat="43.13705186359584" lon="-7.0451099798083305">
        <ele>912.6</ele>
        <time>2017-08-08T12:42:45.000Z</time>
      </trkpt>
      <trkpt lat="43.13711799681187" lon="-7.0452572498470545">
        <ele>911.8</ele>
        <time>2017-08-08T12:42:55.000Z</time>
      </trkpt>
      <trkpt lat="43.137185890227556" lon="-7.045409046113491">
        <ele>911.2</ele>
        <time>2017-08-08T12:43:05.000Z</time>
      </trkpt>
      <trkpt lat="43.13723945058882" lon="-7.0455417316406965">
        <ele>911.2</ele>
        <time>2017-08-08T12:43:14.000Z</time>
      </trkpt>
      <trkpt lat="43.13727498985827" lon="-7.045657569542527">
        <ele>911.6</ele>
        <time>2017-08-08T12:43:22.000Z</time>
      </trkpt>
      <trkpt lat="43.137300135567784" lon="-7.045777011662722">
        <ele>911.6</ele>
        <time>2017-08-08T12:43:29.000Z</time>
      </trkpt>
      <trkpt lat="43.13732092268765" lon="-7.045892765745521">
        <ele>909.8</ele>
        <time>2017-08-08T12:43:36.000Z</time>
      </trkpt>
      <trkpt lat="43.13733885996044" lon="-7.04602905549109">
        <ele>908</ele>
        <time>2017-08-08T12:43:44.000Z</time>
      </trkpt>
      <trkpt lat="43.13733592629433" lon="-7.046208176761866">
        <ele>907.2</ele>
        <time>2017-08-08T12:43:54.000Z</time>
      </trkpt>
      <trkpt lat="43.13732930459082" lon="-7.046397188678384">
        <ele>906.6</ele>
        <time>2017-08-08T12:44:05.000Z</time>
      </trkpt>
      <trkpt lat="43.137301644310355" lon="-7.046531466767192">
        <ele>906.6</ele>
        <time>2017-08-08T12:44:13.000Z</time>
      </trkpt>
      <trkpt lat="43.1372562982142" lon="-7.046689968556166">
        <ele>905.2</ele>
        <time>2017-08-08T12:44:23.000Z</time>
      </trkpt>
      <trkpt lat="43.13721036538482" lon="-7.0468193013221025">
        <ele>903.4</ele>
        <time>2017-08-08T12:44:31.000Z</time>
      </trkpt>
      <trkpt lat="43.137133084237576" lon="-7.046991465613246">
        <ele>901.4</ele>
        <time>2017-08-08T12:44:42.000Z</time>
      </trkpt>
      <trkpt lat="43.137056389823556" lon="-7.0471179485321045">
        <ele>900</ele>
        <time>2017-08-08T12:44:51.000Z</time>
      </trkpt>
      <trkpt lat="43.136955723166466" lon="-7.047234624624252">
        <ele>899.2</ele>
        <time>2017-08-08T12:45:01.000Z</time>
      </trkpt>
      <trkpt lat="43.13683946616948" lon="-7.047323137521744">
        <ele>899</ele>
        <time>2017-08-08T12:45:11.000Z</time>
      </trkpt>
      <trkpt lat="43.13674324192107" lon="-7.047387510538101">
        <ele>898.8</ele>
        <time>2017-08-08T12:45:19.000Z</time>
      </trkpt>
      <trkpt lat="43.13661290332675" lon="-7.047473089769483">
        <ele>898</ele>
        <time>2017-08-08T12:45:30.000Z</time>
      </trkpt>
      <trkpt lat="43.13651860691607" lon="-7.047516340389848">
        <ele>897.6</ele>
        <time>2017-08-08T12:45:38.000Z</time>
      </trkpt>
      <trkpt lat="43.136408384889364" lon="-7.047566212713718">
        <ele>897.4</ele>
        <time>2017-08-08T12:45:47.000Z</time>
      </trkpt>
      <trkpt lat="43.13631786033511" lon="-7.047598650678992">
        <ele>897.2</ele>
        <time>2017-08-08T12:45:55.000Z</time>
      </trkpt>
      <trkpt lat="43.13621182925999" lon="-7.047626478597522">
        <ele>897.2</ele>
        <time>2017-08-08T12:46:04.000Z</time>
      </trkpt>
      <trkpt lat="43.136104959994555" lon="-7.047654306516051">
        <ele>897.4</ele>
        <time>2017-08-08T12:46:13.000Z</time>
      </trkpt>
      <trkpt lat="43.13602323643863" lon="-7.047663778066635">
        <ele>897.6</ele>
        <time>2017-08-08T12:46:20.000Z</time>
      </trkpt>
      <trkpt lat="43.13592432998121" lon="-7.047673417255282">
        <ele>898</ele>
        <time>2017-08-08T12:46:28.000Z</time>
      </trkpt>
      <trkpt lat="43.135826429352164" lon="-7.0476987306028605">
        <ele>898.4</ele>
        <time>2017-08-08T12:46:36.000Z</time>
      </trkpt>
      <trkpt lat="43.13572936691344" lon="-7.047728737816215">
        <ele>899</ele>
        <time>2017-08-08T12:46:44.000Z</time>
      </trkpt>
      <trkpt lat="43.13563716597855" lon="-7.0477543864399195">
        <ele>899.4</ele>
        <time>2017-08-08T12:46:52.000Z</time>
      </trkpt>
      <trkpt lat="43.13550950959325" lon="-7.047826554626226">
        <ele>899.4</ele>
        <time>2017-08-08T12:47:03.000Z</time>
      </trkpt>
      <trkpt lat="43.13540792092681" lon="-7.0479075238108635">
        <ele>898.8</ele>
        <time>2017-08-08T12:47:12.000Z</time>
      </trkpt>
      <trkpt lat="43.13531027175486" lon="-7.04799285158515">
        <ele>898.4</ele>
        <time>2017-08-08T12:47:21.000Z</time>
      </trkpt>
      <trkpt lat="43.13522167503834" lon="-7.0480904169380665">
        <ele>897.6</ele>
        <time>2017-08-08T12:47:30.000Z</time>
      </trkpt>
      <trkpt lat="43.135130144655704" lon="-7.048180606216192">
        <ele>897</ele>
        <time>2017-08-08T12:47:39.000Z</time>
      </trkpt>
      <trkpt lat="43.135048085823655" lon="-7.048279428854585">
        <ele>896.8</ele>
        <time>2017-08-08T12:47:47.000Z</time>
      </trkpt>
      <trkpt lat="43.13495311886072" lon="-7.048377245664597">
        <ele>897.4</ele>
        <time>2017-08-08T12:47:56.000Z</time>
      </trkpt>
      <trkpt lat="43.1348679587245" lon="-7.048502052202821">
        <ele>898</ele>
        <time>2017-08-08T12:48:05.000Z</time>
      </trkpt>
      <trkpt lat="43.13482588157058" lon="-7.048633731901646">
        <ele>897</ele>
        <time>2017-08-08T12:48:13.000Z</time>
      </trkpt>
      <trkpt lat="43.13478430733085" lon="-7.048812685534358">
        <ele>895.4</ele>
        <time>2017-08-08T12:48:23.000Z</time>
      </trkpt>
      <trkpt lat="43.13473988324404" lon="-7.048965319991112">
        <ele>894.2</ele>
        <time>2017-08-08T12:48:32.000Z</time>
      </trkpt>
      <trkpt lat="43.13469587825239" lon="-7.049140082672238">
        <ele>893.4</ele>
        <time>2017-08-08T12:48:42.000Z</time>
      </trkpt>
      <trkpt lat="43.134658662602305" lon="-7.049314426258206">
        <ele>894.8</ele>
        <time>2017-08-08T12:48:52.000Z</time>
      </trkpt>
      <trkpt lat="43.13466411083937" lon="-7.0494734309613705">
        <ele>895</ele>
        <time>2017-08-08T12:49:01.000Z</time>
      </trkpt>
      <trkpt lat="43.134714821353555" lon="-7.049632435664535">
        <ele>894.2</ele>
        <time>2017-08-08T12:49:11.000Z</time>
      </trkpt>
      <trkpt lat="43.13475270755589" lon="-7.049759170040488">
        <ele>893.6</ele>
        <time>2017-08-08T12:49:19.000Z</time>
      </trkpt>
      <trkpt lat="43.13479587435722" lon="-7.049889927729964">
        <ele>893</ele>
        <time>2017-08-08T12:49:27.000Z</time>
      </trkpt>
      <trkpt lat="43.1348317489028" lon="-7.05002898350358">
        <ele>892.8</ele>
        <time>2017-08-08T12:49:35.000Z</time>
      </trkpt>
      <trkpt lat="43.13487625680864" lon="-7.0501908380538225">
        <ele>893</ele>
        <time>2017-08-08T12:49:44.000Z</time>
      </trkpt>
      <trkpt lat="43.13494507223368" lon="-7.050370881333947">
        <ele>894</ele>
        <time>2017-08-08T12:49:55.000Z</time>
      </trkpt>
      <trkpt lat="43.13501053489745" lon="-7.050510942935944">
        <ele>894.6</ele>
        <time>2017-08-08T12:50:04.000Z</time>
      </trkpt>
      <trkpt lat="43.135033417493105" lon="-7.050554696470499">
        <ele>894.8</ele>
        <time>2017-08-08T12:50:07.000Z</time>
      </trkpt>
      <trkpt lat="43.135100388899446" lon="-7.050655698403716">
        <ele>894.8</ele>
        <time>2017-08-08T12:50:14.000Z</time>
      </trkpt>
      <trkpt lat="43.135208347812295" lon="-7.05079760402441">
        <ele>893.8</ele>
        <time>2017-08-08T12:50:24.000Z</time>
      </trkpt>
      <trkpt lat="43.13529853709042" lon="-7.050898019224405">
        <ele>891.8</ele>
        <time>2017-08-08T12:50:32.000Z</time>
      </trkpt>
      <trkpt lat="43.135396521538496" lon="-7.050986113026738">
        <ele>889.6</ele>
        <time>2017-08-08T12:50:40.000Z</time>
      </trkpt>
      <trkpt lat="43.135481514036655" lon="-7.0510428585112095">
        <ele>887.8</ele>
        <time>2017-08-08T12:50:46.000Z</time>
      </trkpt>
      <trkpt lat="43.135615875944495" lon="-7.051106728613377">
        <ele>885.2</ele>
        <time>2017-08-08T12:50:55.000Z</time>
      </trkpt>
      <trkpt lat="43.13569961115718" lon="-7.0511500630527735">
        <ele>885.4</ele>
        <time>2017-08-08T12:51:01.000Z</time>
      </trkpt>
      <trkpt lat="43.13580782152712" lon="-7.0512360613793135">
        <ele>886</ele>
        <time>2017-08-08T12:51:09.000Z</time>
      </trkpt>
      <trkpt lat="43.13592818565667" lon="-7.051332117989659">
        <ele>886.8</ele>
        <time>2017-08-08T12:51:18.000Z</time>
      </trkpt>
      <trkpt lat="43.136097583919764" lon="-7.051442172378302">
        <ele>885.2</ele>
        <time>2017-08-08T12:51:30.000Z</time>
      </trkpt>
      <trkpt lat="43.13622934743762" lon="-7.0515090599656105">
        <ele>884.4</ele>
        <time>2017-08-08T12:51:39.000Z</time>
      </trkpt>
      <trkpt lat="43.13630763441324" lon="-7.05157938413322">
        <ele>884.6</ele>
        <time>2017-08-08T12:51:45.000Z</time>
      </trkpt>
      <trkpt lat="43.13641148619354" lon="-7.051657252013683">
        <ele>882.4</ele>
        <time>2017-08-08T12:51:53.000Z</time>
      </trkpt>
      <trkpt lat="43.13652975484729" lon="-7.051753560081124">
        <ele>879.6</ele>
        <time>2017-08-08T12:52:02.000Z</time>
      </trkpt>
      <trkpt lat="43.13662447035313" lon="-7.051846766844392">
        <ele>877.8</ele>
        <time>2017-08-08T12:52:10.000Z</time>
      </trkpt>
      <trkpt lat="43.13673100434244" lon="-7.051938632503152">
        <ele>876.6</ele>
        <time>2017-08-08T12:52:18.000Z</time>
      </trkpt>
      <trkpt lat="43.136817924678326" lon="-7.052060505375266">
        <ele>875.4</ele>
        <time>2017-08-08T12:52:26.000Z</time>
      </trkpt>
      <trkpt lat="43.13682454638183" lon="-7.052196124568582">
        <ele>875</ele>
        <time>2017-08-08T12:52:33.000Z</time>
      </trkpt>
      <trkpt lat="43.13675916753709" lon="-7.05233040265739">
        <ele>875.4</ele>
        <time>2017-08-08T12:52:41.000Z</time>
      </trkpt>
      <trkpt lat="43.13669345341623" lon="-7.052412461489439">
        <ele>875.8</ele>
        <time>2017-08-08T12:52:48.000Z</time>
      </trkpt>
      <trkpt lat="43.13660561107099" lon="-7.05248580314219">
        <ele>875.8</ele>
        <time>2017-08-08T12:52:56.000Z</time>
      </trkpt>
      <trkpt lat="43.136567724868655" lon="-7.052519414573908">
        <ele>875.6</ele>
        <time>2017-08-08T12:53:02.000Z</time>
      </trkpt>
      <trkpt lat="43.13651089556515" lon="-7.052571969106793">
        <ele>875.4</ele>
        <time>2017-08-08T12:53:07.000Z</time>
      </trkpt>
      <trkpt lat="43.13641056418419" lon="-7.052692165598273">
        <ele>874.6</ele>
        <time>2017-08-08T12:53:16.000Z</time>
      </trkpt>
      <trkpt lat="43.1363064609468" lon="-7.0528185646981">
        <ele>873.8</ele>
        <time>2017-08-08T12:53:25.000Z</time>
      </trkpt>
      <trkpt lat="43.136206632480025" lon="-7.052941527217627">
        <ele>873</ele>
        <time>2017-08-08T12:53:34.000Z</time>
      </trkpt>
      <trkpt lat="43.13609825447202" lon="-7.053070776164532">
        <ele>872.2</ele>
        <time>2017-08-08T12:53:44.000Z</time>
      </trkpt>
      <trkpt lat="43.136004796251655" lon="-7.053174544125795">
        <ele>871.6</ele>
        <time>2017-08-08T12:53:52.000Z</time>
      </trkpt>
      <trkpt lat="43.135896837338805" lon="-7.053311672061682">
        <ele>870.6</ele>
        <time>2017-08-08T12:54:02.000Z</time>
      </trkpt>
      <trkpt lat="43.13583992421627" lon="-7.0533780567348">
        <ele>870</ele>
        <time>2017-08-08T12:54:07.000Z</time>
      </trkpt>
      <trkpt lat="43.13575551845133" lon="-7.053477298468351">
        <ele>869</ele>
        <time>2017-08-08T12:54:15.000Z</time>
      </trkpt>
      <trkpt lat="43.13567806966603" lon="-7.05360135063529">
        <ele>867.8</ele>
        <time>2017-08-08T12:54:23.000Z</time>
      </trkpt>
      <trkpt lat="43.135609505698085" lon="-7.053725570440292">
        <ele>866.4</ele>
        <time>2017-08-08T12:54:31.000Z</time>
      </trkpt>
      <trkpt lat="43.13559760339558" lon="-7.053744848817587">
        <ele>866.2</ele>
        <time>2017-08-08T12:54:32.000Z</time>
      </trkpt>
      <trkpt lat="43.13551587983966" lon="-7.053882395848632">
        <ele>864.6</ele>
        <time>2017-08-08T12:54:41.000Z</time>
      </trkpt>
      <trkpt lat="43.13543139025569" lon="-7.05399027094245">
        <ele>863.6</ele>
        <time>2017-08-08T12:54:49.000Z</time>
      </trkpt>
      <trkpt lat="43.13536726869643" lon="-7.054113065823913">
        <ele>862.2</ele>
        <time>2017-08-08T12:54:56.000Z</time>
      </trkpt>
      <trkpt lat="43.13532720319927" lon="-7.054204596206546">
        <ele>861.2</ele>
        <time>2017-08-08T12:55:01.000Z</time>
      </trkpt>
      <trkpt lat="43.13528143800795" lon="-7.0543004013597965">
        <ele>860</ele>
        <time>2017-08-08T12:55:07.000Z</time>
      </trkpt>
      <trkpt lat="43.1352252792567" lon="-7.05441783182323">
        <ele>858.8</ele>
        <time>2017-08-08T12:55:14.000Z</time>
      </trkpt>
      <trkpt lat="43.13517129980028" lon="-7.054522437974811">
        <ele>857.6</ele>
        <time>2017-08-08T12:55:20.000Z</time>
      </trkpt>
      <trkpt lat="43.135112123563886" lon="-7.054631318897009">
        <ele>856.6</ele>
        <time>2017-08-08T12:55:27.000Z</time>
      </trkpt>
      <trkpt lat="43.13505420461297" lon="-7.054738439619541">
        <ele>855</ele>
        <time>2017-08-08T12:55:33.000Z</time>
      </trkpt>
      <trkpt lat="43.13500483520329" lon="-7.054807590320706">
        <ele>854</ele>
        <time>2017-08-08T12:55:38.000Z</time>
      </trkpt>
      <trkpt lat="43.13493794761598" lon="-7.054927786812186">
        <ele>852.2</ele>
        <time>2017-08-08T12:55:45.000Z</time>
      </trkpt>
      <trkpt lat="43.13488941639662" lon="-7.0550737995654345">
        <ele>850.6</ele>
        <time>2017-08-08T12:55:52.000Z</time>
      </trkpt>
      <trkpt lat="43.13485664315522" lon="-7.0552469696849585">
        <ele>848.8</ele>
        <time>2017-08-08T12:56:00.000Z</time>
      </trkpt>
      <trkpt lat="43.134865863248706" lon="-7.055408488959074">
        <ele>847</ele>
        <time>2017-08-08T12:56:08.000Z</time>
      </trkpt>
      <trkpt lat="43.134871730580926" lon="-7.055443022400141">
        <ele>846.6</ele>
        <time>2017-08-08T12:56:10.000Z</time>
      </trkpt>
      <trkpt lat="43.13487793318927" lon="-7.05549968406558">
        <ele>846</ele>
        <time>2017-08-08T12:56:13.000Z</time>
      </trkpt>
      <trkpt lat="43.13489821739495" lon="-7.05563454888761">
        <ele>844.6</ele>
        <time>2017-08-08T12:56:20.000Z</time>
      </trkpt>
      <trkpt lat="43.134923027828336" lon="-7.055772682651877">
        <ele>843.2</ele>
        <time>2017-08-08T12:56:27.000Z</time>
      </trkpt>
      <trkpt lat="43.134936187416315" lon="-7.055932777002454">
        <ele>842</ele>
        <time>2017-08-08T12:56:35.000Z</time>
      </trkpt>
      <trkpt lat="43.134898552671075" lon="-7.056136876344681">
        <ele>841</ele>
        <time>2017-08-08T12:56:46.000Z</time>
      </trkpt>
      <trkpt lat="43.13487030565739" lon="-7.056239554658532">
        <ele>840.4</ele>
        <time>2017-08-08T12:56:54.000Z</time>
      </trkpt>
      <trkpt lat="43.134811045601964" lon="-7.056234944611788">
        <ele>840.4</ele>
        <time>2017-08-08T12:57:08.000Z</time>
      </trkpt>
      <trkpt lat="43.13473301008344" lon="-7.056313399225473">
        <ele>839.8</ele>
        <time>2017-08-08T12:57:16.000Z</time>
      </trkpt>
      <trkpt lat="43.134659165516496" lon="-7.056466871872544">
        <ele>839</ele>
        <time>2017-08-08T12:57:26.000Z</time>
      </trkpt>
      <trkpt lat="43.134597055613995" lon="-7.056628642603755">
        <ele>838.4</ele>
        <time>2017-08-08T12:57:36.000Z</time>
      </trkpt>
      <trkpt lat="43.13453377224505" lon="-7.056780522689223">
        <ele>838.4</ele>
        <time>2017-08-08T12:57:45.000Z</time>
      </trkpt>
      <trkpt lat="43.13447032123804" lon="-7.056932989507914">
        <ele>838.2</ele>
        <time>2017-08-08T12:57:54.000Z</time>
      </trkpt>
      <trkpt lat="43.13439421355724" lon="-7.057067854329944">
        <ele>838.2</ele>
        <time>2017-08-08T12:58:03.000Z</time>
      </trkpt>
      <trkpt lat="43.13431140035391" lon="-7.05719861201942">
        <ele>838</ele>
        <time>2017-08-08T12:58:12.000Z</time>
      </trkpt>
      <trkpt lat="43.13423831015825" lon="-7.057314617559314">
        <ele>837.6</ele>
        <time>2017-08-08T12:58:20.000Z</time>
      </trkpt>
      <trkpt lat="43.13413328491151" lon="-7.05746348015964">
        <ele>836.2</ele>
        <time>2017-08-08T12:58:31.000Z</time>
      </trkpt>
      <trkpt lat="43.134023481979966" lon="-7.057616198435426">
        <ele>835</ele>
        <time>2017-08-08T12:58:42.000Z</time>
      </trkpt>
      <trkpt lat="43.1339424289763" lon="-7.0577229000627995">
        <ele>834</ele>
        <time>2017-08-08T12:58:50.000Z</time>
      </trkpt>
      <trkpt lat="43.13385123386979" lon="-7.057846700772643">
        <ele>833</ele>
        <time>2017-08-08T12:58:59.000Z</time>
      </trkpt>
      <trkpt lat="43.13376674428582" lon="-7.057963125407696">
        <ele>832.2</ele>
        <time>2017-08-08T12:59:08.000Z</time>
      </trkpt>
      <trkpt lat="43.13368996605277" lon="-7.058065552264452">
        <ele>831.4</ele>
        <time>2017-08-08T12:59:16.000Z</time>
      </trkpt>
      <trkpt lat="43.13358284533024" lon="-7.058220868930221">
        <ele>830.4</ele>
        <time>2017-08-08T12:59:27.000Z</time>
      </trkpt>
      <trkpt lat="43.133502127602696" lon="-7.05835523083806">
        <ele>830</ele>
        <time>2017-08-08T12:59:36.000Z</time>
      </trkpt>
      <trkpt lat="43.133402885869145" lon="-7.058531166985631">
        <ele>829.8</ele>
        <time>2017-08-08T12:59:47.000Z</time>
      </trkpt>
      <trkpt lat="43.13332141377032" lon="-7.05866938456893">
        <ele>829.6</ele>
        <time>2017-08-08T12:59:56.000Z</time>
      </trkpt>
      <trkpt lat="43.133252346888185" lon="-7.05876812338829">
        <ele>829.4</ele>
        <time>2017-08-08T13:00:03.000Z</time>
      </trkpt>
      <trkpt lat="43.13313332386315" lon="-7.058941796422005">
        <ele>829</ele>
        <time>2017-08-08T13:00:15.000Z</time>
      </trkpt>
      <trkpt lat="43.133023185655475" lon="-7.059093676507473">
        <ele>828.6</ele>
        <time>2017-08-08T13:00:26.000Z</time>
      </trkpt>
      <trkpt lat="43.13295202329755" lon="-7.059190571308136">
        <ele>828.2</ele>
        <time>2017-08-08T13:00:33.000Z</time>
      </trkpt>
      <trkpt lat="43.13292184844613" lon="-7.059231558814645">
        <ele>828</ele>
        <time>2017-08-08T13:00:36.000Z</time>
      </trkpt>
      <trkpt lat="43.132864935323596" lon="-7.059306241571903">
        <ele>827.6</ele>
        <time>2017-08-08T13:00:42.000Z</time>
      </trkpt>
      <trkpt lat="43.13278505578637" lon="-7.059412524104118">
        <ele>827.2</ele>
        <time>2017-08-08T13:00:50.000Z</time>
      </trkpt>
      <trkpt lat="43.13270442187786" lon="-7.059545712545514">
        <ele>826.8</ele>
        <time>2017-08-08T13:00:59.000Z</time>
      </trkpt>
      <trkpt lat="43.13265882432461" lon="-7.059660963714123">
        <ele>827</ele>
        <time>2017-08-08T13:01:06.000Z</time>
      </trkpt>
      <trkpt lat="43.132627895101905" lon="-7.059798175469041">
        <ele>827.4</ele>
        <time>2017-08-08T13:01:13.000Z</time>
      </trkpt>
      <trkpt lat="43.13260576687753" lon="-7.059963969513774">
        <ele>828.2</ele>
        <time>2017-08-08T13:01:22.000Z</time>
      </trkpt>
      <trkpt lat="43.1325900927186" lon="-7.060072096064687">
        <ele>828.6</ele>
        <time>2017-08-08T13:01:28.000Z</time>
      </trkpt>
      <trkpt lat="43.13257718458772" lon="-7.06018608994782">
        <ele>829</ele>
        <time>2017-08-08T13:01:35.000Z</time>
      </trkpt>
      <trkpt lat="43.13257575966418" lon="-7.060188604518771">
        <ele>829</ele>
        <time>2017-08-08T13:01:36.000Z</time>
      </trkpt>
      <trkpt lat="43.13252848573029" lon="-7.060275860130787">
        <ele>829.4</ele>
        <time>2017-08-08T13:01:45.000Z</time>
      </trkpt>
      <trkpt lat="43.13243008218706" lon="-7.060391614213586">
        <ele>829.8</ele>
        <time>2017-08-08T13:01:54.000Z</time>
      </trkpt>
      <trkpt lat="43.13235506415367" lon="-7.060473756864667">
        <ele>830.2</ele>
        <time>2017-08-08T13:02:01.000Z</time>
      </trkpt>
      <trkpt lat="43.13229865394533" lon="-7.060523293912411">
        <ele>830.6</ele>
        <time>2017-08-08T13:02:06.000Z</time>
      </trkpt>
      <trkpt lat="43.13227669335902" lon="-7.060533771291375">
        <ele>830.6</ele>
        <time>2017-08-08T13:02:08.000Z</time>
      </trkpt>
      <trkpt lat="43.13224945217371" lon="-7.060546679422259">
        <ele>830.6</ele>
        <time>2017-08-08T13:02:11.000Z</time>
      </trkpt>
      <trkpt lat="43.132238974794745" lon="-7.0605481043457985">
        <ele>830.6</ele>
        <time>2017-08-08T13:02:12.000Z</time>
      </trkpt>
      <trkpt lat="43.13220385462046" lon="-7.060574842616916">
        <ele>830.8</ele>
        <time>2017-08-08T13:02:17.000Z</time>
      </trkpt>
      <trkpt lat="43.13215037807822" lon="-7.060626307502389">
        <ele>831</ele>
        <time>2017-08-08T13:02:22.000Z</time>
      </trkpt>
      <trkpt lat="43.132093381136656" lon="-7.060666959732771">
        <ele>831.2</ele>
        <time>2017-08-08T13:02:27.000Z</time>
      </trkpt>
      <trkpt lat="43.13203395344317" lon="-7.060692440718412">
        <ele>831.4</ele>
        <time>2017-08-08T13:02:31.000Z</time>
      </trkpt>
      <trkpt lat="43.13197276555002" lon="-7.060725130140781">
        <ele>831.6</ele>
        <time>2017-08-08T13:02:35.000Z</time>
      </trkpt>
      <trkpt lat="43.13196153379977" lon="-7.060731332749128">
        <ele>831.6</ele>
        <time>2017-08-08T13:02:36.000Z</time>
      </trkpt>
      <trkpt lat="43.13195030204952" lon="-7.060745498165488">
        <ele>831.8</ele>
        <time>2017-08-08T13:02:37.000Z</time>
      </trkpt>
      <trkpt lat="43.13190654851496" lon="-7.060792604461312">
        <ele>832.2</ele>
        <time>2017-08-08T13:02:40.000Z</time>
      </trkpt>
      <trkpt lat="43.13184619881213" lon="-7.060906682163477">
        <ele>833.8</ele>
        <time>2017-08-08T13:02:46.000Z</time>
      </trkpt>
      <trkpt lat="43.13178836368024" lon="-7.06103534437716">
        <ele>835.6</ele>
        <time>2017-08-08T13:02:53.000Z</time>
      </trkpt>
      <trkpt lat="43.13172952271998" lon="-7.061196360737085">
        <ele>838</ele>
        <time>2017-08-08T13:03:02.000Z</time>
      </trkpt>
      <trkpt lat="43.13168032094836" lon="-7.0613376796245575">
        <ele>840.2</ele>
        <time>2017-08-08T13:03:11.000Z</time>
      </trkpt>
      <trkpt lat="43.13163430429995" lon="-7.061457624658942">
        <ele>842.2</ele>
        <time>2017-08-08T13:03:18.000Z</time>
      </trkpt>
      <trkpt lat="43.13160195015371" lon="-7.061553932726383">
        <ele>843.8</ele>
        <time>2017-08-08T13:03:24.000Z</time>
      </trkpt>
      <trkpt lat="43.13156632706523" lon="-7.061652839183807">
        <ele>845.2</ele>
        <time>2017-08-08T13:03:30.000Z</time>
      </trkpt>
      <trkpt lat="43.13156062737107" lon="-7.061660047620535">
        <ele>845.4</ele>
        <time>2017-08-08T13:03:31.000Z</time>
      </trkpt>
      <trkpt lat="43.131537325680256" lon="-7.061730287969112">
        <ele>846.6</ele>
        <time>2017-08-08T13:03:35.000Z</time>
      </trkpt>
      <trkpt lat="43.13149457797408" lon="-7.061821818351746">
        <ele>848</ele>
        <time>2017-08-08T13:03:41.000Z</time>
      </trkpt>
      <trkpt lat="43.13145593740046" lon="-7.061901865527034">
        <ele>849.4</ele>
        <time>2017-08-08T13:03:47.000Z</time>
      </trkpt>
      <trkpt lat="43.13142609782517" lon="-7.061974368989468">
        <ele>850.8</ele>
        <time>2017-08-08T13:03:52.000Z</time>
      </trkpt>
      <trkpt lat="43.13137974590063" lon="-7.062096493318677">
        <ele>853.2</ele>
        <time>2017-08-08T13:04:00.000Z</time>
      </trkpt>
      <trkpt lat="43.13133540563285" lon="-7.0622132532298565">
        <ele>855.4</ele>
        <time>2017-08-08T13:04:08.000Z</time>
      </trkpt>
      <trkpt lat="43.13128871843219" lon="-7.062299335375428">
        <ele>857.2</ele>
        <time>2017-08-08T13:04:14.000Z</time>
      </trkpt>
      <trkpt lat="43.13125904649496" lon="-7.062408719211817">
        <ele>859.2</ele>
        <time>2017-08-08T13:04:21.000Z</time>
      </trkpt>
      <trkpt lat="43.131209425628185" lon="-7.062483066692948">
        <ele>861</ele>
        <time>2017-08-08T13:04:28.000Z</time>
      </trkpt>
      <trkpt lat="43.13116801902652" lon="-7.062557581812143">
        <ele>863</ele>
        <time>2017-08-08T13:04:34.000Z</time>
      </trkpt>
      <trkpt lat="43.13112468458712" lon="-7.062655398622155">
        <ele>865.6</ele>
        <time>2017-08-08T13:04:41.000Z</time>
      </trkpt>
      <trkpt lat="43.13109006732702" lon="-7.062750281766057">
        <ele>868</ele>
        <time>2017-08-08T13:04:47.000Z</time>
      </trkpt>
      <trkpt lat="43.13104405067861" lon="-7.062826221808791">
        <ele>870</ele>
        <time>2017-08-08T13:04:53.000Z</time>
      </trkpt>
      <trkpt lat="43.13103374093771" lon="-7.062848769128323">
        <ele>870.6</ele>
        <time>2017-08-08T13:04:55.000Z</time>
      </trkpt>
      <trkpt lat="43.13101077452302" lon="-7.062879279255867">
        <ele>871.4</ele>
        <time>2017-08-08T13:04:58.000Z</time>
      </trkpt>
      <trkpt lat="43.13098965212703" lon="-7.062910879030824">
        <ele>872.2</ele>
        <time>2017-08-08T13:05:01.000Z</time>
      </trkpt>
      <trkpt lat="43.13096861355007" lon="-7.06295857205987">
        <ele>873.4</ele>
        <time>2017-08-08T13:05:04.000Z</time>
      </trkpt>
      <trkpt lat="43.13091756775975" lon="-7.063051611185074">
        <ele>875.8</ele>
        <time>2017-08-08T13:05:11.000Z</time>
      </trkpt>
      <trkpt lat="43.130886387079954" lon="-7.063138615339994">
        <ele>878</ele>
        <time>2017-08-08T13:05:17.000Z</time>
      </trkpt>
      <trkpt lat="43.130863420665264" lon="-7.063225200399756">
        <ele>880.4</ele>
        <time>2017-08-08T13:05:23.000Z</time>
      </trkpt>
      <trkpt lat="43.13086710870266" lon="-7.063238862901926">
        <ele>880.6</ele>
        <time>2017-08-08T13:05:24.000Z</time>
      </trkpt>
      <trkpt lat="43.13085587695241" lon="-7.063345145434141">
        <ele>883.2</ele>
        <time>2017-08-08T13:05:30.000Z</time>
      </trkpt>
      <trkpt lat="43.13084556721151" lon="-7.06336559727788">
        <ele>883.8</ele>
        <time>2017-08-08T13:05:32.000Z</time>
      </trkpt>
      <trkpt lat="43.13083542510867" lon="-7.063405914232135">
        <ele>884.6</ele>
        <time>2017-08-08T13:05:36.000Z</time>
      </trkpt>
      <trkpt lat="43.13081321306527" lon="-7.063488559797406">
        <ele>886.6</ele>
        <time>2017-08-08T13:05:42.000Z</time>
      </trkpt>
      <trkpt lat="43.13080248422921" lon="-7.063528122380376">
        <ele>887.6</ele>
        <time>2017-08-08T13:05:45.000Z</time>
      </trkpt>
      <trkpt lat="43.13078261911869" lon="-7.063571289181709">
        <ele>888.6</ele>
        <time>2017-08-08T13:05:48.000Z</time>
      </trkpt>
      <trkpt lat="43.13078119419515" lon="-7.063588052988052">
        <ele>889</ele>
        <time>2017-08-08T13:05:49.000Z</time>
      </trkpt>
      <trkpt lat="43.13076049089432" lon="-7.063649743795395">
        <ele>890.6</ele>
        <time>2017-08-08T13:05:54.000Z</time>
      </trkpt>
      <trkpt lat="43.130756467580795" lon="-7.0636748895049095">
        <ele>891.2</ele>
        <time>2017-08-08T13:05:56.000Z</time>
      </trkpt>
      <trkpt lat="43.13074456527829" lon="-7.063733646646142">
        <ele>892.4</ele>
        <time>2017-08-08T13:06:00.000Z</time>
      </trkpt>
      <trkpt lat="43.13074054196477" lon="-7.063746051862836">
        <ele>892.8</ele>
        <time>2017-08-08T13:06:01.000Z</time>
      </trkpt>
      <trkpt lat="43.13071623444557" lon="-7.063826434314251">
        <ele>894.8</ele>
        <time>2017-08-08T13:06:06.000Z</time>
      </trkpt>
      <trkpt lat="43.13071045093238" lon="-7.063834397122264">
        <ele>895</ele>
        <time>2017-08-08T13:06:07.000Z</time>
      </trkpt>
      <trkpt lat="43.13068765215576" lon="-7.0639202278107405">
        <ele>897</ele>
        <time>2017-08-08T13:06:13.000Z</time>
      </trkpt>
      <trkpt lat="43.13063459470868" lon="-7.063958616927266">
        <ele>898</ele>
        <time>2017-08-08T13:06:19.000Z</time>
      </trkpt>
      <trkpt lat="43.13062344677746" lon="-7.063968759030104">
        <ele>898.2</ele>
        <time>2017-08-08T13:06:20.000Z</time>
      </trkpt>
      <trkpt lat="43.13059855252504" lon="-7.063982421532273">
        <ele>898.6</ele>
        <time>2017-08-08T13:06:23.000Z</time>
      </trkpt>
      <trkpt lat="43.130579106509686" lon="-7.063988959416747">
        <ele>899</ele>
        <time>2017-08-08T13:06:25.000Z</time>
      </trkpt>
      <trkpt lat="43.130521858111024" lon="-7.063968339934945">
        <ele>898.6</ele>
        <time>2017-08-08T13:06:31.000Z</time>
      </trkpt>
      <trkpt lat="43.13047684729099" lon="-7.063955347985029">
        <ele>898.6</ele>
        <time>2017-08-08T13:06:35.000Z</time>
      </trkpt>
      <trkpt lat="43.13045714981854" lon="-7.0639443676918745">
        <ele>898.4</ele>
        <time>2017-08-08T13:06:36.000Z</time>
      </trkpt>
      <trkpt lat="43.13042605295777" lon="-7.063923496752977">
        <ele>898</ele>
        <time>2017-08-08T13:06:38.000Z</time>
      </trkpt>
      <trkpt lat="43.13040819950402" lon="-7.063903631642461">
        <ele>897.6</ele>
        <time>2017-08-08T13:06:41.000Z</time>
      </trkpt>
      <trkpt lat="43.130374839529395" lon="-7.063882257789373">
        <ele>897.2</ele>
        <time>2017-08-08T13:06:44.000Z</time>
      </trkpt>
      <trkpt lat="43.13036352396011" lon="-7.063872618600726">
        <ele>897</ele>
        <time>2017-08-08T13:06:46.000Z</time>
      </trkpt>
      <trkpt lat="43.13034332357347" lon="-7.063839761540294">
        <ele>896.4</ele>
        <time>2017-08-08T13:06:50.000Z</time>
      </trkpt>
      <trkpt lat="43.1302797049284" lon="-7.063800031319261">
        <ele>895.6</ele>
        <time>2017-08-08T13:06:57.000Z</time>
      </trkpt>
      <trkpt lat="43.130233688279986" lon="-7.063787458464503">
        <ele>895.4</ele>
        <time>2017-08-08T13:07:01.000Z</time>
      </trkpt>
      <trkpt lat="43.13018758781254" lon="-7.063785446807742">
        <ele>895.4</ele>
        <time>2017-08-08T13:07:06.000Z</time>
      </trkpt>
      <trkpt lat="43.13017752952874" lon="-7.063786452636123">
        <ele>895.4</ele>
        <time>2017-08-08T13:07:07.000Z</time>
      </trkpt>
      <trkpt lat="43.1301621068269" lon="-7.0637747179716825">
        <ele>895.2</ele>
        <time>2017-08-08T13:07:08.000Z</time>
      </trkpt>
      <trkpt lat="43.13012883067131" lon="-7.063782345503569">
        <ele>895.4</ele>
        <time>2017-08-08T13:07:11.000Z</time>
      </trkpt>
      <trkpt lat="43.130078203976154" lon="-7.063790392130613">
        <ele>895.6</ele>
        <time>2017-08-08T13:07:16.000Z</time>
      </trkpt>
      <trkpt lat="43.13006915152073" lon="-7.0637935772538185">
        <ele>895.6</ele>
        <time>2017-08-08T13:07:17.000Z</time>
      </trkpt>
      <trkpt lat="43.13002623617649" lon="-7.063801707699895">
        <ele>895.6</ele>
        <time>2017-08-08T13:07:21.000Z</time>
      </trkpt>
      <trkpt lat="43.13000218011439" lon="-7.0638112630695105">
        <ele>895.6</ele>
        <time>2017-08-08T13:07:23.000Z</time>
      </trkpt>
      <trkpt lat="43.1299393158406" lon="-7.06384495832026">
        <ele>896</ele>
        <time>2017-08-08T13:07:29.000Z</time>
      </trkpt>
      <trkpt lat="43.12992749735713" lon="-7.063853088766336">
        <ele>896.2</ele>
        <time>2017-08-08T13:07:30.000Z</time>
      </trkpt>
      <trkpt lat="43.129903776571155" lon="-7.06387085840106">
        <ele>896.4</ele>
        <time>2017-08-08T13:07:32.000Z</time>
      </trkpt>
      <trkpt lat="43.12986354343593" lon="-7.063881084322929">
        <ele>896.4</ele>
        <time>2017-08-08T13:07:35.000Z</time>
      </trkpt>
      <trkpt lat="43.12980059534311" lon="-7.063938667997718">
        <ele>897.4</ele>
        <time>2017-08-08T13:07:41.000Z</time>
      </trkpt>
      <trkpt lat="43.12974535860121" lon="-7.063995832577348">
        <ele>898.4</ele>
        <time>2017-08-08T13:07:47.000Z</time>
      </trkpt>
      <trkpt lat="43.12967696227133" lon="-7.064064899459481">
        <ele>899.8</ele>
        <time>2017-08-08T13:07:54.000Z</time>
      </trkpt>
      <trkpt lat="43.12961753457785" lon="-7.064137486740947">
        <ele>901.2</ele>
        <time>2017-08-08T13:08:01.000Z</time>
      </trkpt>
      <trkpt lat="43.12954620458186" lon="-7.0642362255603075">
        <ele>903.6</ele>
        <time>2017-08-08T13:08:09.000Z</time>
      </trkpt>
      <trkpt lat="43.12949155457318" lon="-7.064319625496864">
        <ele>905.6</ele>
        <time>2017-08-08T13:08:16.000Z</time>
      </trkpt>
      <trkpt lat="43.129435228183866" lon="-7.064408976584673">
        <ele>907.6</ele>
        <time>2017-08-08T13:08:24.000Z</time>
      </trkpt>
      <trkpt lat="43.12940362840891" lon="-7.064459016546607">
        <ele>908.8</ele>
        <time>2017-08-08T13:08:28.000Z</time>
      </trkpt>
      <trkpt lat="43.129385355859995" lon="-7.0644918736070395">
        <ele>909.6</ele>
        <time>2017-08-08T13:08:31.000Z</time>
      </trkpt>
      <trkpt lat="43.12936666421592" lon="-7.064539063721895">
        <ele>910.8</ele>
        <time>2017-08-08T13:08:34.000Z</time>
      </trkpt>
      <trkpt lat="43.12934126704931" lon="-7.064588852226734">
        <ele>912</ele>
        <time>2017-08-08T13:08:38.000Z</time>
      </trkpt>
      <trkpt lat="43.12929860316217" lon="-7.06469614058733">
        <ele>914.8</ele>
        <time>2017-08-08T13:08:45.000Z</time>
      </trkpt>
      <trkpt lat="43.12929164618254" lon="-7.064701756462455">
        <ele>915</ele>
        <time>2017-08-08T13:08:46.000Z</time>
      </trkpt>
      <trkpt lat="43.12926541082561" lon="-7.064760681241751">
        <ele>916.2</ele>
        <time>2017-08-08T13:08:50.000Z</time>
      </trkpt>
      <trkpt lat="43.129244204610586" lon="-7.06481633707881">
        <ele>917.4</ele>
        <time>2017-08-08T13:08:54.000Z</time>
      </trkpt>
      <trkpt lat="43.12922534532845" lon="-7.064847350120544">
        <ele>918</ele>
        <time>2017-08-08T13:08:57.000Z</time>
      </trkpt>
      <trkpt lat="43.12923280522227" lon="-7.064889846369624">
        <ele>919.2</ele>
        <time>2017-08-08T13:08:58.000Z</time>
      </trkpt>
      <trkpt lat="43.12921176664531" lon="-7.0649106334894896">
        <ele>919.4</ele>
        <time>2017-08-08T13:09:00.000Z</time>
      </trkpt>
      <trkpt lat="43.129200702533126" lon="-7.064938712865114">
        <ele>920</ele>
        <time>2017-08-08T13:09:02.000Z</time>
      </trkpt>
      <trkpt lat="43.129179580137134" lon="-7.064981209114194">
        <ele>920.8</ele>
        <time>2017-08-08T13:09:06.000Z</time>
      </trkpt>
      <trkpt lat="43.12914655543864" lon="-7.065035691484809">
        <ele>921.8</ele>
        <time>2017-08-08T13:09:11.000Z</time>
      </trkpt>
      <trkpt lat="43.12914135865867" lon="-7.065049270167947">
        <ele>922</ele>
        <time>2017-08-08T13:09:12.000Z</time>
      </trkpt>
      <trkpt lat="43.12911596149206" lon="-7.065093275159597">
        <ele>922.8</ele>
        <time>2017-08-08T13:09:16.000Z</time>
      </trkpt>
      <trkpt lat="43.12910405918956" lon="-7.06511490046978">
        <ele>923</ele>
        <time>2017-08-08T13:09:18.000Z</time>
      </trkpt>
      <trkpt lat="43.12907874584198" lon="-7.065153373405337">
        <ele>923.6</ele>
        <time>2017-08-08T13:09:21.000Z</time>
      </trkpt>
      <trkpt lat="43.12904513441026" lon="-7.065189415588975">
        <ele>924</ele>
        <time>2017-08-08T13:09:25.000Z</time>
      </trkpt>
      <trkpt lat="43.12899970449507" lon="-7.0652764197438955">
        <ele>925.4</ele>
        <time>2017-08-08T13:09:31.000Z</time>
      </trkpt>
      <trkpt lat="43.12895796261728" lon="-7.065336434170604">
        <ele>926.2</ele>
        <time>2017-08-08T13:09:36.000Z</time>
      </trkpt>
      <trkpt lat="43.12893281690776" lon="-7.065367782488465">
        <ele>926.6</ele>
        <time>2017-08-08T13:09:39.000Z</time>
      </trkpt>
      <trkpt lat="43.12886509113014" lon="-7.065445901826024">
        <ele>927.4</ele>
        <time>2017-08-08T13:09:47.000Z</time>
      </trkpt>
      <trkpt lat="43.1288049928844" lon="-7.065532486885786">
        <ele>928.6</ele>
        <time>2017-08-08T13:09:54.000Z</time>
      </trkpt>
      <trkpt lat="43.12874388881028" lon="-7.065626699477434">
        <ele>930</ele>
        <time>2017-08-08T13:10:02.000Z</time>
      </trkpt>
      <trkpt lat="43.12869527377188" lon="-7.0657190680503845">
        <ele>931.4</ele>
        <time>2017-08-08T13:10:10.000Z</time>
      </trkpt>
      <trkpt lat="43.128665098920465" lon="-7.065804144367576">
        <ele>933</ele>
        <time>2017-08-08T13:10:17.000Z</time>
      </trkpt>
      <trkpt lat="43.128630481660366" lon="-7.065908247604966">
        <ele>935</ele>
        <time>2017-08-08T13:10:24.000Z</time>
      </trkpt>
      <trkpt lat="43.12862377613783" lon="-7.065946971997619">
        <ele>935.6</ele>
        <time>2017-08-08T13:10:27.000Z</time>
      </trkpt>
      <trkpt lat="43.12862905673683" lon="-7.065959628671408">
        <ele>936</ele>
        <time>2017-08-08T13:10:30.000Z</time>
      </trkpt>
      <trkpt lat="43.128620171919465" lon="-7.065963735803962">
        <ele>936</ele>
        <time>2017-08-08T13:10:38.000Z</time>
      </trkpt>
      <trkpt lat="43.12859301455319" lon="-7.0659473072737455">
        <ele>935.4</ele>
        <time>2017-08-08T13:11:15.000Z</time>
      </trkpt>
      <trkpt lat="43.12858823686838" lon="-7.065946804359555">
        <ele>935.2</ele>
        <time>2017-08-08T13:11:24.000Z</time>
      </trkpt>
    </trkseg>
  </trk>
</gpx>
